<?xml version="1.0" encoding="UTF-8"?>
<gpx version="1.1" creator="https://www.youtrack.es" xsi:schemaLocation="http://www.topografix.com/GPX/1/1 http://www.topografix.com/GPX/1/1/gpx.xsd http://www.garmin.com/xmlschemas/GpxExtensions/v3 http://www.garmin.com/xmlschemas/GpxExtensionsv3.xsd http://www.garmin.com/xmlschemas/TrackPointExtension/v1 http://www.garmin.com/xmlschemas/TrackPointExtensionv1.xsd" xmlns:gpxtpx="http://www.garmin.com/xmlschemas/TrackPointExtension/v1" xmlns:gpxx="http://www.garmin.com/xmlschemas/GpxExtensions/v3" xmlns:xsi="http://www.w3.org/2001/XMLSchema-instance">
  <metadata>
    <link href="https://www.youtrack.es">
      <text>YouTrack.es</text>
    </link>
    <time>2026-05-10T11:51:23Z</time>
  </metadata>
  <trk>
    <src>https://www.youtrack.es</src>
    <link href="https://www.youtrack.es/ruta/12465-pirenaica-nostra">
      <text>YouTrack.es</text>
    </link>
    <trkseg>
      <trkpt lat="42.265484" lon="2.968718">
        <ele>33</ele>
        <time>1970-01-01T00:00:00.000Z</time>
      </trkpt>
      <trkpt lat="42.265505" lon="2.968716">
        <ele>33</ele>
        <time>1970-01-01T00:00:03.000Z</time>
      </trkpt>
      <trkpt lat="42.265526" lon="2.968715">
        <ele>33</ele>
        <time>1970-01-01T00:00:04.000Z</time>
      </trkpt>
      <trkpt lat="42.265548" lon="2.968713">
        <ele>32</ele>
        <time>1970-01-01T00:00:10.000Z</time>
      </trkpt>
      <trkpt lat="42.265569" lon="2.968711">
        <ele>32</ele>
        <time>1970-01-01T00:00:14.000Z</time>
      </trkpt>
      <trkpt lat="42.26559" lon="2.968709">
        <ele>32</ele>
        <time>1970-01-01T00:00:15.000Z</time>
      </trkpt>
      <trkpt lat="42.265611" lon="2.968708">
        <ele>32</ele>
        <time>1970-01-01T00:00:17.000Z</time>
      </trkpt>
      <trkpt lat="42.265632" lon="2.968706">
        <ele>32</ele>
        <time>1970-01-01T00:00:18.000Z</time>
      </trkpt>
      <trkpt lat="42.265653" lon="2.968704">
        <ele>32</ele>
        <time>1970-01-01T00:00:22.000Z</time>
      </trkpt>
      <trkpt lat="42.265675" lon="2.968703">
        <ele>32</ele>
        <time>1970-01-01T00:00:23.000Z</time>
      </trkpt>
      <trkpt lat="42.265696" lon="2.968701">
        <ele>33</ele>
        <time>1970-01-01T00:00:29.000Z</time>
      </trkpt>
      <trkpt lat="42.265717" lon="2.968699">
        <ele>33</ele>
        <time>1970-01-01T00:00:30.000Z</time>
      </trkpt>
      <trkpt lat="42.265738" lon="2.968698">
        <ele>33</ele>
        <time>1970-01-01T00:00:32.000Z</time>
      </trkpt>
      <trkpt lat="42.265759" lon="2.968696">
        <ele>33</ele>
        <time>1970-01-01T00:00:34.000Z</time>
      </trkpt>
      <trkpt lat="42.265781" lon="2.968694">
        <ele>33</ele>
        <time>1970-01-01T00:00:35.000Z</time>
      </trkpt>
      <trkpt lat="42.265802" lon="2.968692">
        <ele>33</ele>
        <time>1970-01-01T00:00:37.000Z</time>
      </trkpt>
      <trkpt lat="42.265823" lon="2.968691">
        <ele>32</ele>
        <time>1970-01-01T00:00:39.000Z</time>
      </trkpt>
      <trkpt lat="42.265844" lon="2.968689">
        <ele>32</ele>
        <time>1970-01-01T00:00:40.000Z</time>
      </trkpt>
      <trkpt lat="42.265865" lon="2.968687">
        <ele>32</ele>
        <time>1970-01-01T00:00:41.000Z</time>
      </trkpt>
      <trkpt lat="42.265887" lon="2.968686">
        <ele>32</ele>
        <time>1970-01-01T00:00:42.000Z</time>
      </trkpt>
      <trkpt lat="42.265908" lon="2.968684">
        <ele>32</ele>
        <time>1970-01-01T00:00:43.000Z</time>
      </trkpt>
      <trkpt lat="42.265929" lon="2.968682">
        <ele>32</ele>
        <time>1970-01-01T00:00:44.000Z</time>
      </trkpt>
      <trkpt lat="42.26595" lon="2.968681">
        <ele>32</ele>
        <time>1970-01-01T00:00:45.000Z</time>
      </trkpt>
      <trkpt lat="42.265971" lon="2.968679">
        <ele>32</ele>
        <time>1970-01-01T00:00:46.000Z</time>
      </trkpt>
      <trkpt lat="42.265992" lon="2.968677">
        <ele>32</ele>
        <time>1970-01-01T00:00:47.000Z</time>
      </trkpt>
      <trkpt lat="42.266014" lon="2.968675">
        <ele>32</ele>
        <time>1970-01-01T00:00:48.000Z</time>
      </trkpt>
      <trkpt lat="42.266035" lon="2.968674">
        <ele>32</ele>
        <time>1970-01-01T00:00:49.000Z</time>
      </trkpt>
      <trkpt lat="42.266056" lon="2.968672">
        <ele>33</ele>
        <time>1970-01-01T00:00:50.000Z</time>
      </trkpt>
      <trkpt lat="42.266101" lon="2.96867">
        <ele>33</ele>
        <time>1970-01-01T00:00:51.000Z</time>
      </trkpt>
      <trkpt lat="42.266122" lon="2.968667">
        <ele>33</ele>
        <time>1970-01-01T00:00:52.000Z</time>
      </trkpt>
      <trkpt lat="42.266143" lon="2.968664">
        <ele>33</ele>
        <time>1970-01-01T00:00:53.000Z</time>
      </trkpt>
      <trkpt lat="42.266164" lon="2.968661">
        <ele>33</ele>
        <time>1970-01-01T00:00:55.000Z</time>
      </trkpt>
      <trkpt lat="42.266184" lon="2.968657">
        <ele>33</ele>
        <time>1970-01-01T00:00:56.000Z</time>
      </trkpt>
      <trkpt lat="42.266205" lon="2.968654">
        <ele>33</ele>
        <time>1970-01-01T00:00:57.000Z</time>
      </trkpt>
      <trkpt lat="42.266226" lon="2.968651">
        <ele>33</ele>
        <time>1970-01-01T00:00:58.000Z</time>
      </trkpt>
      <trkpt lat="42.266247" lon="2.968648">
        <ele>33</ele>
        <time>1970-01-01T00:00:59.000Z</time>
      </trkpt>
      <trkpt lat="42.26628" lon="2.968672">
        <ele>33</ele>
        <time>1970-01-01T00:01:00.000Z</time>
      </trkpt>
      <trkpt lat="42.26629" lon="2.968697">
        <ele>33</ele>
        <time>1970-01-01T00:01:01.000Z</time>
      </trkpt>
      <trkpt lat="42.266299" lon="2.968722">
        <ele>33</ele>
        <time>1970-01-01T00:01:02.000Z</time>
      </trkpt>
      <trkpt lat="42.266308" lon="2.968747">
        <ele>33</ele>
        <time>1970-01-01T00:01:03.000Z</time>
      </trkpt>
      <trkpt lat="42.266318" lon="2.968771">
        <ele>33</ele>
        <time>1970-01-01T00:01:04.000Z</time>
      </trkpt>
      <trkpt lat="42.266327" lon="2.968796">
        <ele>33</ele>
        <time>1970-01-01T00:01:05.000Z</time>
      </trkpt>
      <trkpt lat="42.266336" lon="2.968821">
        <ele>33</ele>
        <time>1970-01-01T00:01:06.000Z</time>
      </trkpt>
      <trkpt lat="42.266345" lon="2.968846">
        <ele>33</ele>
        <time>1970-01-01T00:01:07.000Z</time>
      </trkpt>
      <trkpt lat="42.266355" lon="2.968871">
        <ele>33</ele>
        <time>1970-01-01T00:01:08.000Z</time>
      </trkpt>
      <trkpt lat="42.266364" lon="2.968896">
        <ele>33</ele>
        <time>1970-01-01T00:01:09.000Z</time>
      </trkpt>
      <trkpt lat="42.266368" lon="2.96895">
        <ele>33</ele>
        <time>1970-01-01T00:01:10.000Z</time>
      </trkpt>
      <trkpt lat="42.266369" lon="2.968977">
        <ele>33</ele>
        <time>1970-01-01T00:01:11.000Z</time>
      </trkpt>
      <trkpt lat="42.266369" lon="2.969003">
        <ele>33</ele>
        <time>1970-01-01T00:01:12.000Z</time>
      </trkpt>
      <trkpt lat="42.26637" lon="2.96903">
        <ele>33</ele>
        <time>1970-01-01T00:01:13.000Z</time>
      </trkpt>
      <trkpt lat="42.266371" lon="2.969057">
        <ele>33</ele>
        <time>1970-01-01T00:01:14.000Z</time>
      </trkpt>
      <trkpt lat="42.266372" lon="2.969084">
        <ele>33</ele>
        <time>1970-01-01T00:01:15.000Z</time>
      </trkpt>
      <trkpt lat="42.266372" lon="2.96911">
        <ele>33</ele>
        <time>1970-01-01T00:01:16.000Z</time>
      </trkpt>
      <trkpt lat="42.266373" lon="2.969137">
        <ele>33</ele>
        <time>1970-01-01T00:01:18.000Z</time>
      </trkpt>
      <trkpt lat="42.266374" lon="2.969164">
        <ele>33</ele>
        <time>1970-01-01T00:01:19.000Z</time>
      </trkpt>
      <trkpt lat="42.266377" lon="2.969236">
        <ele>33</ele>
        <time>1970-01-01T00:01:20.000Z</time>
      </trkpt>
      <trkpt lat="42.266378" lon="2.969278">
        <ele>33</ele>
        <time>1970-01-01T00:01:21.000Z</time>
      </trkpt>
      <trkpt lat="42.26638" lon="2.969321">
        <ele>33</ele>
        <time>1970-01-01T00:01:22.000Z</time>
      </trkpt>
      <trkpt lat="42.266381" lon="2.969363">
        <ele>33</ele>
        <time>1970-01-01T00:01:23.000Z</time>
      </trkpt>
      <trkpt lat="42.266383" lon="2.969405">
        <ele>33</ele>
        <time>1970-01-01T00:01:24.000Z</time>
      </trkpt>
      <trkpt lat="42.266385" lon="2.969447">
        <ele>33</ele>
        <time>1970-01-01T00:01:25.000Z</time>
      </trkpt>
      <trkpt lat="42.266386" lon="2.969489">
        <ele>33</ele>
        <time>1970-01-01T00:01:26.000Z</time>
      </trkpt>
      <trkpt lat="42.266388" lon="2.969532">
        <ele>33</ele>
        <time>1970-01-01T00:01:27.000Z</time>
      </trkpt>
      <trkpt lat="42.266389" lon="2.969574">
        <ele>33</ele>
        <time>1970-01-01T00:01:28.000Z</time>
      </trkpt>
      <trkpt lat="42.266391" lon="2.969616">
        <ele>32</ele>
        <time>1970-01-01T00:01:29.000Z</time>
      </trkpt>
      <trkpt lat="42.266395" lon="2.969741">
        <ele>32</ele>
        <time>1970-01-01T00:01:30.000Z</time>
      </trkpt>
      <trkpt lat="42.266398" lon="2.969804">
        <ele>32</ele>
        <time>1970-01-01T00:01:31.000Z</time>
      </trkpt>
      <trkpt lat="42.266401" lon="2.969867">
        <ele>32</ele>
        <time>1970-01-01T00:01:32.000Z</time>
      </trkpt>
      <trkpt lat="42.266404" lon="2.96993">
        <ele>32</ele>
        <time>1970-01-01T00:01:33.000Z</time>
      </trkpt>
      <trkpt lat="42.266407" lon="2.969993">
        <ele>32</ele>
        <time>1970-01-01T00:01:34.000Z</time>
      </trkpt>
      <trkpt lat="42.266409" lon="2.970057">
        <ele>32</ele>
        <time>1970-01-01T00:01:35.000Z</time>
      </trkpt>
      <trkpt lat="42.266412" lon="2.97012">
        <ele>32</ele>
        <time>1970-01-01T00:01:36.000Z</time>
      </trkpt>
      <trkpt lat="42.266415" lon="2.970183">
        <ele>32</ele>
        <time>1970-01-01T00:01:37.000Z</time>
      </trkpt>
      <trkpt lat="42.266418" lon="2.970246">
        <ele>32</ele>
        <time>1970-01-01T00:01:38.000Z</time>
      </trkpt>
      <trkpt lat="42.266421" lon="2.970309">
        <ele>32</ele>
        <time>1970-01-01T00:01:39.000Z</time>
      </trkpt>
      <trkpt lat="42.266426" lon="2.970448">
        <ele>32</ele>
        <time>1970-01-01T00:01:40.000Z</time>
      </trkpt>
      <trkpt lat="42.266429" lon="2.970515">
        <ele>32</ele>
        <time>1970-01-01T00:01:41.000Z</time>
      </trkpt>
      <trkpt lat="42.266431" lon="2.970581">
        <ele>32</ele>
        <time>1970-01-01T00:01:42.000Z</time>
      </trkpt>
      <trkpt lat="42.266433" lon="2.970647">
        <ele>32</ele>
        <time>1970-01-01T00:01:43.000Z</time>
      </trkpt>
      <trkpt lat="42.266436" lon="2.970714">
        <ele>32</ele>
        <time>1970-01-01T00:01:44.000Z</time>
      </trkpt>
      <trkpt lat="42.266438" lon="2.97078">
        <ele>32</ele>
        <time>1970-01-01T00:01:45.000Z</time>
      </trkpt>
      <trkpt lat="42.266441" lon="2.970847">
        <ele>32</ele>
        <time>1970-01-01T00:01:46.000Z</time>
      </trkpt>
      <trkpt lat="42.266443" lon="2.970913">
        <ele>32</ele>
        <time>1970-01-01T00:01:47.000Z</time>
      </trkpt>
      <trkpt lat="42.266445" lon="2.970979">
        <ele>32</ele>
        <time>1970-01-01T00:01:48.000Z</time>
      </trkpt>
      <trkpt lat="42.266448" lon="2.971046">
        <ele>32</ele>
        <time>1970-01-01T00:01:49.000Z</time>
      </trkpt>
      <trkpt lat="42.26645" lon="2.971112">
        <ele>32</ele>
        <time>1970-01-01T00:01:50.000Z</time>
      </trkpt>
      <trkpt lat="42.266455" lon="2.971258">
        <ele>32</ele>
        <time>1970-01-01T00:01:51.000Z</time>
      </trkpt>
      <trkpt lat="42.266457" lon="2.971327">
        <ele>32</ele>
        <time>1970-01-01T00:01:52.000Z</time>
      </trkpt>
      <trkpt lat="42.26646" lon="2.971397">
        <ele>32</ele>
        <time>1970-01-01T00:01:53.000Z</time>
      </trkpt>
      <trkpt lat="42.266462" lon="2.971467">
        <ele>32</ele>
        <time>1970-01-01T00:01:54.000Z</time>
      </trkpt>
      <trkpt lat="42.266465" lon="2.971536">
        <ele>32</ele>
        <time>1970-01-01T00:01:55.000Z</time>
      </trkpt>
      <trkpt lat="42.266467" lon="2.971606">
        <ele>32</ele>
        <time>1970-01-01T00:01:56.000Z</time>
      </trkpt>
      <trkpt lat="42.26647" lon="2.971676">
        <ele>32</ele>
        <time>1970-01-01T00:01:57.000Z</time>
      </trkpt>
      <trkpt lat="42.266472" lon="2.971745">
        <ele>32</ele>
        <time>1970-01-01T00:01:58.000Z</time>
      </trkpt>
      <trkpt lat="42.266475" lon="2.971815">
        <ele>32</ele>
        <time>1970-01-01T00:01:59.000Z</time>
      </trkpt>
      <trkpt lat="42.266485" lon="2.971962">
        <ele>32</ele>
        <time>1970-01-01T00:02:00.000Z</time>
      </trkpt>
      <trkpt lat="42.266488" lon="2.972032">
        <ele>32</ele>
        <time>1970-01-01T00:02:01.000Z</time>
      </trkpt>
      <trkpt lat="42.266492" lon="2.972101">
        <ele>32</ele>
        <time>1970-01-01T00:02:02.000Z</time>
      </trkpt>
      <trkpt lat="42.266495" lon="2.972171">
        <ele>32</ele>
        <time>1970-01-01T00:02:03.000Z</time>
      </trkpt>
      <trkpt lat="42.266499" lon="2.97224">
        <ele>32</ele>
        <time>1970-01-01T00:02:04.000Z</time>
      </trkpt>
      <trkpt lat="42.266503" lon="2.972309">
        <ele>32</ele>
        <time>1970-01-01T00:02:05.000Z</time>
      </trkpt>
      <trkpt lat="42.266506" lon="2.972379">
        <ele>32</ele>
        <time>1970-01-01T00:02:06.000Z</time>
      </trkpt>
      <trkpt lat="42.26651" lon="2.972448">
        <ele>32</ele>
        <time>1970-01-01T00:02:07.000Z</time>
      </trkpt>
      <trkpt lat="42.266513" lon="2.972518">
        <ele>32</ele>
        <time>1970-01-01T00:02:08.000Z</time>
      </trkpt>
      <trkpt lat="42.266517" lon="2.972587">
        <ele>31</ele>
        <time>1970-01-01T00:02:09.000Z</time>
      </trkpt>
      <trkpt lat="42.266524" lon="2.972724">
        <ele>31</ele>
        <time>1970-01-01T00:02:10.000Z</time>
      </trkpt>
      <trkpt lat="42.266527" lon="2.972785">
        <ele>31</ele>
        <time>1970-01-01T00:02:11.000Z</time>
      </trkpt>
      <trkpt lat="42.26653" lon="2.972847">
        <ele>31</ele>
        <time>1970-01-01T00:02:12.000Z</time>
      </trkpt>
      <trkpt lat="42.266533" lon="2.972908">
        <ele>31</ele>
        <time>1970-01-01T00:02:13.000Z</time>
      </trkpt>
      <trkpt lat="42.266536" lon="2.97297">
        <ele>31</ele>
        <time>1970-01-01T00:02:14.000Z</time>
      </trkpt>
      <trkpt lat="42.266538" lon="2.973032">
        <ele>31</ele>
        <time>1970-01-01T00:02:15.000Z</time>
      </trkpt>
      <trkpt lat="42.266541" lon="2.973093">
        <ele>31</ele>
        <time>1970-01-01T00:02:16.000Z</time>
      </trkpt>
      <trkpt lat="42.266544" lon="2.973155">
        <ele>31</ele>
        <time>1970-01-01T00:02:17.000Z</time>
      </trkpt>
      <trkpt lat="42.266547" lon="2.973216">
        <ele>31</ele>
        <time>1970-01-01T00:02:18.000Z</time>
      </trkpt>
      <trkpt lat="42.26655" lon="2.973278">
        <ele>29</ele>
        <time>1970-01-01T00:02:19.000Z</time>
      </trkpt>
      <trkpt lat="42.266552" lon="2.97339">
        <ele>29</ele>
        <time>1970-01-01T00:02:20.000Z</time>
      </trkpt>
      <trkpt lat="42.266553" lon="2.973439">
        <ele>29</ele>
        <time>1970-01-01T00:02:21.000Z</time>
      </trkpt>
      <trkpt lat="42.266555" lon="2.973487">
        <ele>29</ele>
        <time>1970-01-01T00:02:22.000Z</time>
      </trkpt>
      <trkpt lat="42.266556" lon="2.973536">
        <ele>29</ele>
        <time>1970-01-01T00:02:23.000Z</time>
      </trkpt>
      <trkpt lat="42.266558" lon="2.973584">
        <ele>29</ele>
        <time>1970-01-01T00:02:24.000Z</time>
      </trkpt>
      <trkpt lat="42.266559" lon="2.973632">
        <ele>29</ele>
        <time>1970-01-01T00:02:25.000Z</time>
      </trkpt>
      <trkpt lat="42.266561" lon="2.973681">
        <ele>29</ele>
        <time>1970-01-01T00:02:26.000Z</time>
      </trkpt>
      <trkpt lat="42.266562" lon="2.973729">
        <ele>29</ele>
        <time>1970-01-01T00:02:27.000Z</time>
      </trkpt>
      <trkpt lat="42.266564" lon="2.973778">
        <ele>29</ele>
        <time>1970-01-01T00:02:28.000Z</time>
      </trkpt>
      <trkpt lat="42.266565" lon="2.973826">
        <ele>28</ele>
        <time>1970-01-01T00:02:29.000Z</time>
      </trkpt>
      <trkpt lat="42.266566" lon="2.973946">
        <ele>28</ele>
        <time>1970-01-01T00:02:30.000Z</time>
      </trkpt>
      <trkpt lat="42.266568" lon="2.974006">
        <ele>28</ele>
        <time>1970-01-01T00:02:31.000Z</time>
      </trkpt>
      <trkpt lat="42.266571" lon="2.974067">
        <ele>28</ele>
        <time>1970-01-01T00:02:32.000Z</time>
      </trkpt>
      <trkpt lat="42.266573" lon="2.974127">
        <ele>28</ele>
        <time>1970-01-01T00:02:33.000Z</time>
      </trkpt>
      <trkpt lat="42.266576" lon="2.974188">
        <ele>28</ele>
        <time>1970-01-01T00:02:34.000Z</time>
      </trkpt>
      <trkpt lat="42.266579" lon="2.974249">
        <ele>28</ele>
        <time>1970-01-01T00:02:35.000Z</time>
      </trkpt>
      <trkpt lat="42.266581" lon="2.974309">
        <ele>28</ele>
        <time>1970-01-01T00:02:36.000Z</time>
      </trkpt>
      <trkpt lat="42.266584" lon="2.97437">
        <ele>28</ele>
        <time>1970-01-01T00:02:37.000Z</time>
      </trkpt>
      <trkpt lat="42.266586" lon="2.97443">
        <ele>28</ele>
        <time>1970-01-01T00:02:38.000Z</time>
      </trkpt>
      <trkpt lat="42.266589" lon="2.974491">
        <ele>28</ele>
        <time>1970-01-01T00:02:39.000Z</time>
      </trkpt>
      <trkpt lat="42.266594" lon="2.974632">
        <ele>28</ele>
        <time>1970-01-01T00:02:40.000Z</time>
      </trkpt>
      <trkpt lat="42.266595" lon="2.974698">
        <ele>28</ele>
        <time>1970-01-01T00:02:41.000Z</time>
      </trkpt>
      <trkpt lat="42.266597" lon="2.974765">
        <ele>28</ele>
        <time>1970-01-01T00:02:42.000Z</time>
      </trkpt>
      <trkpt lat="42.266598" lon="2.974831">
        <ele>28</ele>
        <time>1970-01-01T00:02:43.000Z</time>
      </trkpt>
      <trkpt lat="42.2666" lon="2.974898">
        <ele>28</ele>
        <time>1970-01-01T00:02:44.000Z</time>
      </trkpt>
      <trkpt lat="42.266601" lon="2.974965">
        <ele>28</ele>
        <time>1970-01-01T00:02:45.000Z</time>
      </trkpt>
      <trkpt lat="42.266603" lon="2.975031">
        <ele>28</ele>
        <time>1970-01-01T00:02:46.000Z</time>
      </trkpt>
      <trkpt lat="42.266604" lon="2.975098">
        <ele>28</ele>
        <time>1970-01-01T00:02:47.000Z</time>
      </trkpt>
      <trkpt lat="42.266606" lon="2.975164">
        <ele>28</ele>
        <time>1970-01-01T00:02:48.000Z</time>
      </trkpt>
      <trkpt lat="42.266607" lon="2.975231">
        <ele>28</ele>
        <time>1970-01-01T00:02:49.000Z</time>
      </trkpt>
      <trkpt lat="42.266614" lon="2.975373">
        <ele>28</ele>
        <time>1970-01-01T00:02:50.000Z</time>
      </trkpt>
      <trkpt lat="42.266617" lon="2.975442">
        <ele>28</ele>
        <time>1970-01-01T00:02:51.000Z</time>
      </trkpt>
      <trkpt lat="42.266619" lon="2.97551">
        <ele>28</ele>
        <time>1970-01-01T00:02:52.000Z</time>
      </trkpt>
      <trkpt lat="42.266621" lon="2.975579">
        <ele>28</ele>
        <time>1970-01-01T00:02:53.000Z</time>
      </trkpt>
      <trkpt lat="42.266624" lon="2.975648">
        <ele>28</ele>
        <time>1970-01-01T00:02:54.000Z</time>
      </trkpt>
      <trkpt lat="42.266626" lon="2.975717">
        <ele>28</ele>
        <time>1970-01-01T00:02:55.000Z</time>
      </trkpt>
      <trkpt lat="42.266628" lon="2.975786">
        <ele>28</ele>
        <time>1970-01-01T00:02:56.000Z</time>
      </trkpt>
      <trkpt lat="42.26663" lon="2.975854">
        <ele>28</ele>
        <time>1970-01-01T00:02:57.000Z</time>
      </trkpt>
      <trkpt lat="42.266633" lon="2.975923">
        <ele>28</ele>
        <time>1970-01-01T00:02:58.000Z</time>
      </trkpt>
      <trkpt lat="42.266635" lon="2.975992">
        <ele>28</ele>
        <time>1970-01-01T00:02:59.000Z</time>
      </trkpt>
      <trkpt lat="42.26664" lon="2.976132">
        <ele>28</ele>
        <time>1970-01-01T00:03:00.000Z</time>
      </trkpt>
      <trkpt lat="42.266642" lon="2.976194">
        <ele>28</ele>
        <time>1970-01-01T00:03:01.000Z</time>
      </trkpt>
      <trkpt lat="42.266645" lon="2.976255">
        <ele>28</ele>
        <time>1970-01-01T00:03:02.000Z</time>
      </trkpt>
      <trkpt lat="42.266647" lon="2.976317">
        <ele>28</ele>
        <time>1970-01-01T00:03:03.000Z</time>
      </trkpt>
      <trkpt lat="42.26665" lon="2.976378">
        <ele>28</ele>
        <time>1970-01-01T00:03:04.000Z</time>
      </trkpt>
      <trkpt lat="42.266653" lon="2.976439">
        <ele>28</ele>
        <time>1970-01-01T00:03:05.000Z</time>
      </trkpt>
      <trkpt lat="42.266655" lon="2.976501">
        <ele>28</ele>
        <time>1970-01-01T00:03:06.000Z</time>
      </trkpt>
      <trkpt lat="42.266658" lon="2.976562">
        <ele>28</ele>
        <time>1970-01-01T00:03:07.000Z</time>
      </trkpt>
      <trkpt lat="42.26666" lon="2.976624">
        <ele>28</ele>
        <time>1970-01-01T00:03:08.000Z</time>
      </trkpt>
      <trkpt lat="42.266663" lon="2.976685">
        <ele>25</ele>
        <time>1970-01-01T00:03:09.000Z</time>
      </trkpt>
      <trkpt lat="42.266664" lon="2.976731">
        <ele>25</ele>
        <time>1970-01-01T00:03:10.000Z</time>
      </trkpt>
      <trkpt lat="42.266664" lon="2.976772">
        <ele>25</ele>
        <time>1970-01-01T00:03:11.000Z</time>
      </trkpt>
      <trkpt lat="42.266665" lon="2.976812">
        <ele>25</ele>
        <time>1970-01-01T00:03:12.000Z</time>
      </trkpt>
      <trkpt lat="42.266668" lon="2.976849">
        <ele>25</ele>
        <time>1970-01-01T00:03:13.000Z</time>
      </trkpt>
      <trkpt lat="42.266668" lon="2.976878">
        <ele>25</ele>
        <time>1970-01-01T00:03:14.000Z</time>
      </trkpt>
      <trkpt lat="42.266663" lon="2.976907">
        <ele>25</ele>
        <time>1970-01-01T00:03:16.000Z</time>
      </trkpt>
      <trkpt lat="42.266663" lon="2.976907">
        <ele>25</ele>
        <time>1970-01-01T00:03:19.000Z</time>
      </trkpt>
      <trkpt lat="42.266634" lon="2.976979">
        <ele>25</ele>
        <time>1970-01-01T00:03:21.000Z</time>
      </trkpt>
      <trkpt lat="42.266616" lon="2.977014">
        <ele>25</ele>
        <time>1970-01-01T00:03:23.000Z</time>
      </trkpt>
      <trkpt lat="42.266599" lon="2.977049">
        <ele>25</ele>
        <time>1970-01-01T00:03:24.000Z</time>
      </trkpt>
      <trkpt lat="42.266582" lon="2.977084">
        <ele>25</ele>
        <time>1970-01-01T00:03:25.000Z</time>
      </trkpt>
      <trkpt lat="42.266564" lon="2.977118">
        <ele>25</ele>
        <time>1970-01-01T00:03:26.000Z</time>
      </trkpt>
      <trkpt lat="42.266547" lon="2.977153">
        <ele>25</ele>
        <time>1970-01-01T00:03:27.000Z</time>
      </trkpt>
      <trkpt lat="42.266529" lon="2.977188">
        <ele>25</ele>
        <time>1970-01-01T00:03:28.000Z</time>
      </trkpt>
      <trkpt lat="42.266512" lon="2.977223">
        <ele>25</ele>
        <time>1970-01-01T00:03:29.000Z</time>
      </trkpt>
      <trkpt lat="42.266521" lon="2.97733">
        <ele>25</ele>
        <time>1970-01-01T00:03:30.000Z</time>
      </trkpt>
      <trkpt lat="42.266539" lon="2.977382">
        <ele>25</ele>
        <time>1970-01-01T00:03:31.000Z</time>
      </trkpt>
      <trkpt lat="42.266558" lon="2.977435">
        <ele>25</ele>
        <time>1970-01-01T00:03:32.000Z</time>
      </trkpt>
      <trkpt lat="42.266576" lon="2.977488">
        <ele>25</ele>
        <time>1970-01-01T00:03:33.000Z</time>
      </trkpt>
      <trkpt lat="42.266595" lon="2.97754">
        <ele>25</ele>
        <time>1970-01-01T00:03:34.000Z</time>
      </trkpt>
      <trkpt lat="42.266613" lon="2.977593">
        <ele>25</ele>
        <time>1970-01-01T00:03:35.000Z</time>
      </trkpt>
      <trkpt lat="42.266632" lon="2.977646">
        <ele>25</ele>
        <time>1970-01-01T00:03:36.000Z</time>
      </trkpt>
      <trkpt lat="42.26665" lon="2.977699">
        <ele>25</ele>
        <time>1970-01-01T00:03:37.000Z</time>
      </trkpt>
      <trkpt lat="42.266669" lon="2.977751">
        <ele>25</ele>
        <time>1970-01-01T00:03:38.000Z</time>
      </trkpt>
      <trkpt lat="42.266687" lon="2.977804">
        <ele>26</ele>
        <time>1970-01-01T00:03:39.000Z</time>
      </trkpt>
      <trkpt lat="42.266697" lon="2.977936">
        <ele>26</ele>
        <time>1970-01-01T00:03:40.000Z</time>
      </trkpt>
      <trkpt lat="42.266699" lon="2.978">
        <ele>26</ele>
        <time>1970-01-01T00:03:41.000Z</time>
      </trkpt>
      <trkpt lat="42.266702" lon="2.978064">
        <ele>26</ele>
        <time>1970-01-01T00:03:42.000Z</time>
      </trkpt>
      <trkpt lat="42.266704" lon="2.978128">
        <ele>26</ele>
        <time>1970-01-01T00:03:43.000Z</time>
      </trkpt>
      <trkpt lat="42.266707" lon="2.978191">
        <ele>26</ele>
        <time>1970-01-01T00:03:44.000Z</time>
      </trkpt>
      <trkpt lat="42.266709" lon="2.978255">
        <ele>26</ele>
        <time>1970-01-01T00:03:45.000Z</time>
      </trkpt>
      <trkpt lat="42.266712" lon="2.978319">
        <ele>26</ele>
        <time>1970-01-01T00:03:46.000Z</time>
      </trkpt>
      <trkpt lat="42.266714" lon="2.978383">
        <ele>26</ele>
        <time>1970-01-01T00:03:47.000Z</time>
      </trkpt>
      <trkpt lat="42.266717" lon="2.978447">
        <ele>26</ele>
        <time>1970-01-01T00:03:48.000Z</time>
      </trkpt>
      <trkpt lat="42.266719" lon="2.978511">
        <ele>25</ele>
        <time>1970-01-01T00:03:49.000Z</time>
      </trkpt>
      <trkpt lat="42.266721" lon="2.978644">
        <ele>25</ele>
        <time>1970-01-01T00:03:50.000Z</time>
      </trkpt>
      <trkpt lat="42.266723" lon="2.978707">
        <ele>25</ele>
        <time>1970-01-01T00:03:51.000Z</time>
      </trkpt>
      <trkpt lat="42.266726" lon="2.978769">
        <ele>25</ele>
        <time>1970-01-01T00:03:52.000Z</time>
      </trkpt>
      <trkpt lat="42.266729" lon="2.978831">
        <ele>25</ele>
        <time>1970-01-01T00:03:53.000Z</time>
      </trkpt>
      <trkpt lat="42.266731" lon="2.978893">
        <ele>25</ele>
        <time>1970-01-01T00:03:54.000Z</time>
      </trkpt>
      <trkpt lat="42.266734" lon="2.978956">
        <ele>25</ele>
        <time>1970-01-01T00:03:55.000Z</time>
      </trkpt>
      <trkpt lat="42.266736" lon="2.979018">
        <ele>25</ele>
        <time>1970-01-01T00:03:56.000Z</time>
      </trkpt>
      <trkpt lat="42.266739" lon="2.97908">
        <ele>25</ele>
        <time>1970-01-01T00:03:57.000Z</time>
      </trkpt>
      <trkpt lat="42.266742" lon="2.979142">
        <ele>25</ele>
        <time>1970-01-01T00:03:58.000Z</time>
      </trkpt>
      <trkpt lat="42.266744" lon="2.979205">
        <ele>25</ele>
        <time>1970-01-01T00:03:59.000Z</time>
      </trkpt>
      <trkpt lat="42.266747" lon="2.979267">
        <ele>24</ele>
        <time>1970-01-01T00:04:00.000Z</time>
      </trkpt>
      <trkpt lat="42.266748" lon="2.979378">
        <ele>24</ele>
        <time>1970-01-01T00:04:01.000Z</time>
      </trkpt>
      <trkpt lat="42.266745" lon="2.979421">
        <ele>24</ele>
        <time>1970-01-01T00:04:02.000Z</time>
      </trkpt>
      <trkpt lat="42.266741" lon="2.979464">
        <ele>24</ele>
        <time>1970-01-01T00:04:03.000Z</time>
      </trkpt>
      <trkpt lat="42.266738" lon="2.979507">
        <ele>24</ele>
        <time>1970-01-01T00:04:04.000Z</time>
      </trkpt>
      <trkpt lat="42.266735" lon="2.97955">
        <ele>24</ele>
        <time>1970-01-01T00:04:05.000Z</time>
      </trkpt>
      <trkpt lat="42.266732" lon="2.979593">
        <ele>24</ele>
        <time>1970-01-01T00:04:06.000Z</time>
      </trkpt>
      <trkpt lat="42.266728" lon="2.979636">
        <ele>24</ele>
        <time>1970-01-01T00:04:07.000Z</time>
      </trkpt>
      <trkpt lat="42.266725" lon="2.979679">
        <ele>24</ele>
        <time>1970-01-01T00:04:08.000Z</time>
      </trkpt>
      <trkpt lat="42.266722" lon="2.979722">
        <ele>24</ele>
        <time>1970-01-01T00:04:09.000Z</time>
      </trkpt>
      <trkpt lat="42.266689" lon="2.979761">
        <ele>24</ele>
        <time>1970-01-01T00:04:10.000Z</time>
      </trkpt>
      <trkpt lat="42.266673" lon="2.979785">
        <ele>24</ele>
        <time>1970-01-01T00:04:11.000Z</time>
      </trkpt>
      <trkpt lat="42.266658" lon="2.979809">
        <ele>24</ele>
        <time>1970-01-01T00:04:12.000Z</time>
      </trkpt>
      <trkpt lat="42.266642" lon="2.979833">
        <ele>24</ele>
        <time>1970-01-01T00:04:14.000Z</time>
      </trkpt>
      <trkpt lat="42.266627" lon="2.979856">
        <ele>24</ele>
        <time>1970-01-01T00:04:15.000Z</time>
      </trkpt>
      <trkpt lat="42.266611" lon="2.97988">
        <ele>24</ele>
        <time>1970-01-01T00:04:16.000Z</time>
      </trkpt>
      <trkpt lat="42.266596" lon="2.979904">
        <ele>24</ele>
        <time>1970-01-01T00:04:17.000Z</time>
      </trkpt>
      <trkpt lat="42.26658" lon="2.979928">
        <ele>24</ele>
        <time>1970-01-01T00:04:18.000Z</time>
      </trkpt>
      <trkpt lat="42.266565" lon="2.979952">
        <ele>24</ele>
        <time>1970-01-01T00:04:19.000Z</time>
      </trkpt>
      <trkpt lat="42.266543" lon="2.979993">
        <ele>24</ele>
        <time>1970-01-01T00:04:20.000Z</time>
      </trkpt>
      <trkpt lat="42.266536" lon="2.980006">
        <ele>24</ele>
        <time>1970-01-01T00:04:21.000Z</time>
      </trkpt>
      <trkpt lat="42.26653" lon="2.980019">
        <ele>24</ele>
        <time>1970-01-01T00:04:22.000Z</time>
      </trkpt>
      <trkpt lat="42.266524" lon="2.980032">
        <ele>24</ele>
        <time>1970-01-01T00:04:23.000Z</time>
      </trkpt>
      <trkpt lat="42.266518" lon="2.980045">
        <ele>24</ele>
        <time>1970-01-01T00:04:25.000Z</time>
      </trkpt>
      <trkpt lat="42.266511" lon="2.980058">
        <ele>24</ele>
        <time>1970-01-01T00:04:27.000Z</time>
      </trkpt>
      <trkpt lat="42.266505" lon="2.980071">
        <ele>24</ele>
        <time>1970-01-01T00:04:29.000Z</time>
      </trkpt>
      <trkpt lat="42.266553" lon="2.980051">
        <ele>24</ele>
        <time>1970-01-01T00:04:30.000Z</time>
      </trkpt>
      <trkpt lat="42.266576" lon="2.980038">
        <ele>24</ele>
        <time>1970-01-01T00:04:31.000Z</time>
      </trkpt>
      <trkpt lat="42.266599" lon="2.980025">
        <ele>24</ele>
        <time>1970-01-01T00:04:32.000Z</time>
      </trkpt>
      <trkpt lat="42.266622" lon="2.980012">
        <ele>24</ele>
        <time>1970-01-01T00:04:33.000Z</time>
      </trkpt>
      <trkpt lat="42.266644" lon="2.979999">
        <ele>24</ele>
        <time>1970-01-01T00:04:34.000Z</time>
      </trkpt>
      <trkpt lat="42.266667" lon="2.979986">
        <ele>24</ele>
        <time>1970-01-01T00:04:35.000Z</time>
      </trkpt>
      <trkpt lat="42.26669" lon="2.979973">
        <ele>24</ele>
        <time>1970-01-01T00:04:36.000Z</time>
      </trkpt>
      <trkpt lat="42.266713" lon="2.97996">
        <ele>24</ele>
        <time>1970-01-01T00:04:37.000Z</time>
      </trkpt>
      <trkpt lat="42.266736" lon="2.979947">
        <ele>25</ele>
        <time>1970-01-01T00:04:39.000Z</time>
      </trkpt>
      <trkpt lat="42.266757" lon="2.979984">
        <ele>25</ele>
        <time>1970-01-01T00:04:41.000Z</time>
      </trkpt>
      <trkpt lat="42.266759" lon="2.98002">
        <ele>25</ele>
        <time>1970-01-01T00:04:43.000Z</time>
      </trkpt>
      <trkpt lat="42.266761" lon="2.980057">
        <ele>25</ele>
        <time>1970-01-01T00:04:44.000Z</time>
      </trkpt>
      <trkpt lat="42.266763" lon="2.980094">
        <ele>25</ele>
        <time>1970-01-01T00:04:45.000Z</time>
      </trkpt>
      <trkpt lat="42.266765" lon="2.980131">
        <ele>25</ele>
        <time>1970-01-01T00:04:46.000Z</time>
      </trkpt>
      <trkpt lat="42.266767" lon="2.980167">
        <ele>25</ele>
        <time>1970-01-01T00:04:47.000Z</time>
      </trkpt>
      <trkpt lat="42.266769" lon="2.980204">
        <ele>25</ele>
        <time>1970-01-01T00:04:48.000Z</time>
      </trkpt>
      <trkpt lat="42.266771" lon="2.980241">
        <ele>25</ele>
        <time>1970-01-01T00:04:49.000Z</time>
      </trkpt>
      <trkpt lat="42.266777" lon="2.980345">
        <ele>25</ele>
        <time>1970-01-01T00:04:50.000Z</time>
      </trkpt>
      <trkpt lat="42.266779" lon="2.980397">
        <ele>25</ele>
        <time>1970-01-01T00:04:51.000Z</time>
      </trkpt>
      <trkpt lat="42.266781" lon="2.980448">
        <ele>25</ele>
        <time>1970-01-01T00:04:52.000Z</time>
      </trkpt>
      <trkpt lat="42.266783" lon="2.9805">
        <ele>25</ele>
        <time>1970-01-01T00:04:53.000Z</time>
      </trkpt>
      <trkpt lat="42.266785" lon="2.980551">
        <ele>25</ele>
        <time>1970-01-01T00:04:54.000Z</time>
      </trkpt>
      <trkpt lat="42.266787" lon="2.980603">
        <ele>25</ele>
        <time>1970-01-01T00:04:55.000Z</time>
      </trkpt>
      <trkpt lat="42.266789" lon="2.980654">
        <ele>25</ele>
        <time>1970-01-01T00:04:56.000Z</time>
      </trkpt>
      <trkpt lat="42.266791" lon="2.980706">
        <ele>25</ele>
        <time>1970-01-01T00:04:57.000Z</time>
      </trkpt>
      <trkpt lat="42.266793" lon="2.980757">
        <ele>25</ele>
        <time>1970-01-01T00:04:58.000Z</time>
      </trkpt>
      <trkpt lat="42.266795" lon="2.980809">
        <ele>25</ele>
        <time>1970-01-01T00:04:59.000Z</time>
      </trkpt>
      <trkpt lat="42.266787" lon="2.980906">
        <ele>25</ele>
        <time>1970-01-01T00:05:00.000Z</time>
      </trkpt>
      <trkpt lat="42.266776" lon="2.980947">
        <ele>25</ele>
        <time>1970-01-01T00:05:01.000Z</time>
      </trkpt>
      <trkpt lat="42.266766" lon="2.980989">
        <ele>25</ele>
        <time>1970-01-01T00:05:02.000Z</time>
      </trkpt>
      <trkpt lat="42.266755" lon="2.98103">
        <ele>25</ele>
        <time>1970-01-01T00:05:03.000Z</time>
      </trkpt>
      <trkpt lat="42.266745" lon="2.981071">
        <ele>25</ele>
        <time>1970-01-01T00:05:04.000Z</time>
      </trkpt>
      <trkpt lat="42.266735" lon="2.981112">
        <ele>25</ele>
        <time>1970-01-01T00:05:05.000Z</time>
      </trkpt>
      <trkpt lat="42.266724" lon="2.981153">
        <ele>25</ele>
        <time>1970-01-01T00:05:06.000Z</time>
      </trkpt>
      <trkpt lat="42.266714" lon="2.981195">
        <ele>25</ele>
        <time>1970-01-01T00:05:07.000Z</time>
      </trkpt>
      <trkpt lat="42.266703" lon="2.981236">
        <ele>25</ele>
        <time>1970-01-01T00:05:08.000Z</time>
      </trkpt>
      <trkpt lat="42.266693" lon="2.981277">
        <ele>25</ele>
        <time>1970-01-01T00:05:09.000Z</time>
      </trkpt>
      <trkpt lat="42.266674" lon="2.981347">
        <ele>25</ele>
        <time>1970-01-01T00:05:10.000Z</time>
      </trkpt>
      <trkpt lat="42.266673" lon="2.981382">
        <ele>25</ele>
        <time>1970-01-01T00:05:11.000Z</time>
      </trkpt>
      <trkpt lat="42.266672" lon="2.981418">
        <ele>25</ele>
        <time>1970-01-01T00:05:12.000Z</time>
      </trkpt>
      <trkpt lat="42.266671" lon="2.981453">
        <ele>25</ele>
        <time>1970-01-01T00:05:13.000Z</time>
      </trkpt>
      <trkpt lat="42.266671" lon="2.981489">
        <ele>25</ele>
        <time>1970-01-01T00:05:14.000Z</time>
      </trkpt>
      <trkpt lat="42.26667" lon="2.981525">
        <ele>25</ele>
        <time>1970-01-01T00:05:15.000Z</time>
      </trkpt>
      <trkpt lat="42.266669" lon="2.98156">
        <ele>25</ele>
        <time>1970-01-01T00:05:16.000Z</time>
      </trkpt>
      <trkpt lat="42.266668" lon="2.981596">
        <ele>25</ele>
        <time>1970-01-01T00:05:17.000Z</time>
      </trkpt>
      <trkpt lat="42.266667" lon="2.981631">
        <ele>25</ele>
        <time>1970-01-01T00:05:18.000Z</time>
      </trkpt>
      <trkpt lat="42.266666" lon="2.981667">
        <ele>25</ele>
        <time>1970-01-01T00:05:19.000Z</time>
      </trkpt>
      <trkpt lat="42.266663" lon="2.981706">
        <ele>25</ele>
        <time>1970-01-01T00:05:21.000Z</time>
      </trkpt>
      <trkpt lat="42.266665" lon="2.981744">
        <ele>25</ele>
        <time>1970-01-01T00:05:23.000Z</time>
      </trkpt>
      <trkpt lat="42.266651" lon="2.981786">
        <ele>25</ele>
        <time>1970-01-01T00:05:25.000Z</time>
      </trkpt>
      <trkpt lat="42.266624" lon="2.981795">
        <ele>25</ele>
        <time>1970-01-01T00:05:27.000Z</time>
      </trkpt>
      <trkpt lat="42.266591" lon="2.981804">
        <ele>25</ele>
        <time>1970-01-01T00:05:29.000Z</time>
      </trkpt>
      <trkpt lat="42.26656" lon="2.98181">
        <ele>25</ele>
        <time>1970-01-01T00:05:31.000Z</time>
      </trkpt>
      <trkpt lat="42.266543" lon="2.981821">
        <ele>25</ele>
        <time>1970-01-01T00:05:33.000Z</time>
      </trkpt>
      <trkpt lat="42.266525" lon="2.981831">
        <ele>25</ele>
        <time>1970-01-01T00:05:35.000Z</time>
      </trkpt>
      <trkpt lat="42.266525" lon="2.981831">
        <ele>24</ele>
        <time>1970-01-01T00:05:39.000Z</time>
      </trkpt>
      <trkpt lat="42.266549" lon="2.981828">
        <ele>24</ele>
        <time>1970-01-01T00:05:41.000Z</time>
      </trkpt>
      <trkpt lat="42.266572" lon="2.981824">
        <ele>24</ele>
        <time>1970-01-01T00:05:42.000Z</time>
      </trkpt>
      <trkpt lat="42.266596" lon="2.981821">
        <ele>25</ele>
        <time>1970-01-01T00:07:44.000Z</time>
      </trkpt>
      <trkpt lat="42.26662" lon="2.981818">
        <ele>25</ele>
        <time>1970-01-01T00:07:45.000Z</time>
      </trkpt>
      <trkpt lat="42.266643" lon="2.981815">
        <ele>25</ele>
        <time>1970-01-01T00:07:46.000Z</time>
      </trkpt>
      <trkpt lat="42.266667" lon="2.981811">
        <ele>25</ele>
        <time>1970-01-01T00:07:47.000Z</time>
      </trkpt>
      <trkpt lat="42.26669" lon="2.981808">
        <ele>25</ele>
        <time>1970-01-01T00:07:48.000Z</time>
      </trkpt>
      <trkpt lat="42.266714" lon="2.981805">
        <ele>25</ele>
        <time>1970-01-01T00:07:49.000Z</time>
      </trkpt>
      <trkpt lat="42.266738" lon="2.981802">
        <ele>25</ele>
        <time>1970-01-01T00:07:50.000Z</time>
      </trkpt>
      <trkpt lat="42.266761" lon="2.981798">
        <ele>25</ele>
        <time>1970-01-01T00:07:51.000Z</time>
      </trkpt>
      <trkpt lat="42.266785" lon="2.981795">
        <ele>25</ele>
        <time>1970-01-01T00:07:53.000Z</time>
      </trkpt>
      <trkpt lat="42.266818" lon="2.981817">
        <ele>25</ele>
        <time>1970-01-01T00:07:54.000Z</time>
      </trkpt>
      <trkpt lat="42.266827" lon="2.981836">
        <ele>25</ele>
        <time>1970-01-01T00:07:55.000Z</time>
      </trkpt>
      <trkpt lat="42.266837" lon="2.981855">
        <ele>25</ele>
        <time>1970-01-01T00:07:57.000Z</time>
      </trkpt>
      <trkpt lat="42.266846" lon="2.981874">
        <ele>25</ele>
        <time>1970-01-01T00:07:59.000Z</time>
      </trkpt>
      <trkpt lat="42.266856" lon="2.981893">
        <ele>25</ele>
        <time>1970-01-01T00:08:01.000Z</time>
      </trkpt>
      <trkpt lat="42.266865" lon="2.981912">
        <ele>25</ele>
        <time>1970-01-01T00:08:03.000Z</time>
      </trkpt>
      <trkpt lat="42.266875" lon="2.981931">
        <ele>25</ele>
        <time>1970-01-01T00:08:04.000Z</time>
      </trkpt>
      <trkpt lat="42.266872" lon="2.981953">
        <ele>25</ele>
        <time>1970-01-01T00:08:05.000Z</time>
      </trkpt>
      <trkpt lat="42.266867" lon="2.981999">
        <ele>25</ele>
        <time>1970-01-01T00:08:07.000Z</time>
      </trkpt>
      <trkpt lat="42.266855" lon="2.982035">
        <ele>25</ele>
        <time>1970-01-01T00:08:09.000Z</time>
      </trkpt>
      <trkpt lat="42.266855" lon="2.982035">
        <ele>25</ele>
        <time>1970-01-01T00:08:13.000Z</time>
      </trkpt>
      <trkpt lat="42.266857" lon="2.982068">
        <ele>25</ele>
        <time>1970-01-01T00:08:14.000Z</time>
      </trkpt>
      <trkpt lat="42.266859" lon="2.9821">
        <ele>25</ele>
        <time>1970-01-01T00:08:15.000Z</time>
      </trkpt>
      <trkpt lat="42.266861" lon="2.982133">
        <ele>25</ele>
        <time>1970-01-01T00:08:29.000Z</time>
      </trkpt>
      <trkpt lat="42.266862" lon="2.982166">
        <ele>25</ele>
        <time>1970-01-01T00:08:30.000Z</time>
      </trkpt>
      <trkpt lat="42.266864" lon="2.982198">
        <ele>25</ele>
        <time>1970-01-01T00:08:31.000Z</time>
      </trkpt>
      <trkpt lat="42.266866" lon="2.982231">
        <ele>25</ele>
        <time>1970-01-01T00:08:32.000Z</time>
      </trkpt>
      <trkpt lat="42.266868" lon="2.982264">
        <ele>25</ele>
        <time>1970-01-01T00:08:33.000Z</time>
      </trkpt>
      <trkpt lat="42.26687" lon="2.982297">
        <ele>25</ele>
        <time>1970-01-01T00:08:34.000Z</time>
      </trkpt>
      <trkpt lat="42.266872" lon="2.982329">
        <ele>25</ele>
        <time>1970-01-01T00:08:35.000Z</time>
      </trkpt>
      <trkpt lat="42.266873" lon="2.982362">
        <ele>25</ele>
        <time>1970-01-01T00:08:36.000Z</time>
      </trkpt>
      <trkpt lat="42.266875" lon="2.982395">
        <ele>25</ele>
        <time>1970-01-01T00:08:37.000Z</time>
      </trkpt>
      <trkpt lat="42.266877" lon="2.982427">
        <ele>25</ele>
        <time>1970-01-01T00:08:38.000Z</time>
      </trkpt>
      <trkpt lat="42.266879" lon="2.98246">
        <ele>25</ele>
        <time>1970-01-01T00:08:39.000Z</time>
      </trkpt>
      <trkpt lat="42.26688" lon="2.982558">
        <ele>25</ele>
        <time>1970-01-01T00:08:40.000Z</time>
      </trkpt>
      <trkpt lat="42.266881" lon="2.982605">
        <ele>25</ele>
        <time>1970-01-01T00:08:41.000Z</time>
      </trkpt>
      <trkpt lat="42.266883" lon="2.982652">
        <ele>25</ele>
        <time>1970-01-01T00:08:42.000Z</time>
      </trkpt>
      <trkpt lat="42.266885" lon="2.982699">
        <ele>25</ele>
        <time>1970-01-01T00:08:43.000Z</time>
      </trkpt>
      <trkpt lat="42.266887" lon="2.982746">
        <ele>25</ele>
        <time>1970-01-01T00:08:44.000Z</time>
      </trkpt>
      <trkpt lat="42.266888" lon="2.982792">
        <ele>25</ele>
        <time>1970-01-01T00:08:45.000Z</time>
      </trkpt>
      <trkpt lat="42.26689" lon="2.982839">
        <ele>25</ele>
        <time>1970-01-01T00:08:46.000Z</time>
      </trkpt>
      <trkpt lat="42.266892" lon="2.982886">
        <ele>25</ele>
        <time>1970-01-01T00:08:47.000Z</time>
      </trkpt>
      <trkpt lat="42.266894" lon="2.982933">
        <ele>25</ele>
        <time>1970-01-01T00:08:48.000Z</time>
      </trkpt>
      <trkpt lat="42.266895" lon="2.98298">
        <ele>25</ele>
        <time>1970-01-01T00:08:49.000Z</time>
      </trkpt>
      <trkpt lat="42.266897" lon="2.983027">
        <ele>25</ele>
        <time>1970-01-01T00:08:50.000Z</time>
      </trkpt>
      <trkpt lat="42.2669" lon="2.983125">
        <ele>25</ele>
        <time>1970-01-01T00:08:51.000Z</time>
      </trkpt>
      <trkpt lat="42.266902" lon="2.983171">
        <ele>25</ele>
        <time>1970-01-01T00:08:52.000Z</time>
      </trkpt>
      <trkpt lat="42.266903" lon="2.983218">
        <ele>25</ele>
        <time>1970-01-01T00:08:53.000Z</time>
      </trkpt>
      <trkpt lat="42.266905" lon="2.983264">
        <ele>25</ele>
        <time>1970-01-01T00:08:54.000Z</time>
      </trkpt>
      <trkpt lat="42.266906" lon="2.98331">
        <ele>25</ele>
        <time>1970-01-01T00:08:55.000Z</time>
      </trkpt>
      <trkpt lat="42.266908" lon="2.983356">
        <ele>25</ele>
        <time>1970-01-01T00:08:56.000Z</time>
      </trkpt>
      <trkpt lat="42.266909" lon="2.983403">
        <ele>25</ele>
        <time>1970-01-01T00:08:57.000Z</time>
      </trkpt>
      <trkpt lat="42.266911" lon="2.983449">
        <ele>25</ele>
        <time>1970-01-01T00:08:58.000Z</time>
      </trkpt>
      <trkpt lat="42.266912" lon="2.983495">
        <ele>25</ele>
        <time>1970-01-01T00:08:59.000Z</time>
      </trkpt>
      <trkpt lat="42.266914" lon="2.9836">
        <ele>25</ele>
        <time>1970-01-01T00:09:00.000Z</time>
      </trkpt>
      <trkpt lat="42.266915" lon="2.983651">
        <ele>25</ele>
        <time>1970-01-01T00:09:01.000Z</time>
      </trkpt>
      <trkpt lat="42.266917" lon="2.983703">
        <ele>25</ele>
        <time>1970-01-01T00:09:02.000Z</time>
      </trkpt>
      <trkpt lat="42.266918" lon="2.983754">
        <ele>25</ele>
        <time>1970-01-01T00:09:03.000Z</time>
      </trkpt>
      <trkpt lat="42.26692" lon="2.983805">
        <ele>25</ele>
        <time>1970-01-01T00:09:04.000Z</time>
      </trkpt>
      <trkpt lat="42.266922" lon="2.983856">
        <ele>25</ele>
        <time>1970-01-01T00:09:05.000Z</time>
      </trkpt>
      <trkpt lat="42.266923" lon="2.983907">
        <ele>25</ele>
        <time>1970-01-01T00:09:06.000Z</time>
      </trkpt>
      <trkpt lat="42.266925" lon="2.983959">
        <ele>25</ele>
        <time>1970-01-01T00:09:07.000Z</time>
      </trkpt>
      <trkpt lat="42.266926" lon="2.98401">
        <ele>25</ele>
        <time>1970-01-01T00:09:08.000Z</time>
      </trkpt>
      <trkpt lat="42.266928" lon="2.984061">
        <ele>25</ele>
        <time>1970-01-01T00:09:09.000Z</time>
      </trkpt>
      <trkpt lat="42.26693" lon="2.984166">
        <ele>25</ele>
        <time>1970-01-01T00:09:10.000Z</time>
      </trkpt>
      <trkpt lat="42.26693" lon="2.984211">
        <ele>25</ele>
        <time>1970-01-01T00:09:11.000Z</time>
      </trkpt>
      <trkpt lat="42.26693" lon="2.984256">
        <ele>25</ele>
        <time>1970-01-01T00:09:12.000Z</time>
      </trkpt>
      <trkpt lat="42.26693" lon="2.984301">
        <ele>25</ele>
        <time>1970-01-01T00:09:13.000Z</time>
      </trkpt>
      <trkpt lat="42.26693" lon="2.984346">
        <ele>25</ele>
        <time>1970-01-01T00:09:14.000Z</time>
      </trkpt>
      <trkpt lat="42.266929" lon="2.984391">
        <ele>25</ele>
        <time>1970-01-01T00:09:15.000Z</time>
      </trkpt>
      <trkpt lat="42.266929" lon="2.984436">
        <ele>25</ele>
        <time>1970-01-01T00:09:16.000Z</time>
      </trkpt>
      <trkpt lat="42.266929" lon="2.984481">
        <ele>25</ele>
        <time>1970-01-01T00:09:17.000Z</time>
      </trkpt>
      <trkpt lat="42.266929" lon="2.984526">
        <ele>25</ele>
        <time>1970-01-01T00:09:18.000Z</time>
      </trkpt>
      <trkpt lat="42.266929" lon="2.984571">
        <ele>25</ele>
        <time>1970-01-01T00:09:19.000Z</time>
      </trkpt>
      <trkpt lat="42.266929" lon="2.984616">
        <ele>25</ele>
        <time>1970-01-01T00:09:20.000Z</time>
      </trkpt>
      <trkpt lat="42.266923" lon="2.984713">
        <ele>25</ele>
        <time>1970-01-01T00:09:21.000Z</time>
      </trkpt>
      <trkpt lat="42.266918" lon="2.984757">
        <ele>25</ele>
        <time>1970-01-01T00:09:22.000Z</time>
      </trkpt>
      <trkpt lat="42.266914" lon="2.9848">
        <ele>25</ele>
        <time>1970-01-01T00:09:23.000Z</time>
      </trkpt>
      <trkpt lat="42.266909" lon="2.984844">
        <ele>25</ele>
        <time>1970-01-01T00:09:24.000Z</time>
      </trkpt>
      <trkpt lat="42.266905" lon="2.984888">
        <ele>25</ele>
        <time>1970-01-01T00:09:25.000Z</time>
      </trkpt>
      <trkpt lat="42.2669" lon="2.984932">
        <ele>25</ele>
        <time>1970-01-01T00:09:26.000Z</time>
      </trkpt>
      <trkpt lat="42.266896" lon="2.984975">
        <ele>25</ele>
        <time>1970-01-01T00:09:27.000Z</time>
      </trkpt>
      <trkpt lat="42.266891" lon="2.985019">
        <ele>25</ele>
        <time>1970-01-01T00:09:28.000Z</time>
      </trkpt>
      <trkpt lat="42.266887" lon="2.985063">
        <ele>25</ele>
        <time>1970-01-01T00:09:29.000Z</time>
      </trkpt>
      <trkpt lat="42.266921" lon="2.985158">
        <ele>25</ele>
        <time>1970-01-01T00:09:30.000Z</time>
      </trkpt>
      <trkpt lat="42.266927" lon="2.985207">
        <ele>25</ele>
        <time>1970-01-01T00:09:31.000Z</time>
      </trkpt>
      <trkpt lat="42.266933" lon="2.985257">
        <ele>25</ele>
        <time>1970-01-01T00:09:32.000Z</time>
      </trkpt>
      <trkpt lat="42.266939" lon="2.985306">
        <ele>25</ele>
        <time>1970-01-01T00:09:33.000Z</time>
      </trkpt>
      <trkpt lat="42.266945" lon="2.985355">
        <ele>25</ele>
        <time>1970-01-01T00:09:34.000Z</time>
      </trkpt>
      <trkpt lat="42.266951" lon="2.985404">
        <ele>25</ele>
        <time>1970-01-01T00:09:35.000Z</time>
      </trkpt>
      <trkpt lat="42.266957" lon="2.985453">
        <ele>25</ele>
        <time>1970-01-01T00:09:36.000Z</time>
      </trkpt>
      <trkpt lat="42.266963" lon="2.985503">
        <ele>25</ele>
        <time>1970-01-01T00:09:37.000Z</time>
      </trkpt>
      <trkpt lat="42.266969" lon="2.985552">
        <ele>25</ele>
        <time>1970-01-01T00:09:38.000Z</time>
      </trkpt>
      <trkpt lat="42.266975" lon="2.985601">
        <ele>24</ele>
        <time>1970-01-01T00:09:39.000Z</time>
      </trkpt>
      <trkpt lat="42.266979" lon="2.985711">
        <ele>24</ele>
        <time>1970-01-01T00:09:40.000Z</time>
      </trkpt>
      <trkpt lat="42.266981" lon="2.985766">
        <ele>24</ele>
        <time>1970-01-01T00:09:41.000Z</time>
      </trkpt>
      <trkpt lat="42.266984" lon="2.98582">
        <ele>24</ele>
        <time>1970-01-01T00:09:42.000Z</time>
      </trkpt>
      <trkpt lat="42.266986" lon="2.985875">
        <ele>24</ele>
        <time>1970-01-01T00:09:43.000Z</time>
      </trkpt>
      <trkpt lat="42.266989" lon="2.985929">
        <ele>24</ele>
        <time>1970-01-01T00:09:44.000Z</time>
      </trkpt>
      <trkpt lat="42.266991" lon="2.985984">
        <ele>24</ele>
        <time>1970-01-01T00:09:45.000Z</time>
      </trkpt>
      <trkpt lat="42.266994" lon="2.986038">
        <ele>24</ele>
        <time>1970-01-01T00:09:46.000Z</time>
      </trkpt>
      <trkpt lat="42.266996" lon="2.986093">
        <ele>24</ele>
        <time>1970-01-01T00:09:47.000Z</time>
      </trkpt>
      <trkpt lat="42.266999" lon="2.986147">
        <ele>24</ele>
        <time>1970-01-01T00:09:48.000Z</time>
      </trkpt>
      <trkpt lat="42.267001" lon="2.986202">
        <ele>24</ele>
        <time>1970-01-01T00:09:49.000Z</time>
      </trkpt>
      <trkpt lat="42.267004" lon="2.986321">
        <ele>24</ele>
        <time>1970-01-01T00:09:50.000Z</time>
      </trkpt>
      <trkpt lat="42.267007" lon="2.986377">
        <ele>24</ele>
        <time>1970-01-01T00:09:51.000Z</time>
      </trkpt>
      <trkpt lat="42.267009" lon="2.986433">
        <ele>24</ele>
        <time>1970-01-01T00:09:52.000Z</time>
      </trkpt>
      <trkpt lat="42.267012" lon="2.986489">
        <ele>24</ele>
        <time>1970-01-01T00:09:53.000Z</time>
      </trkpt>
      <trkpt lat="42.267014" lon="2.986545">
        <ele>24</ele>
        <time>1970-01-01T00:09:54.000Z</time>
      </trkpt>
      <trkpt lat="42.267016" lon="2.986601">
        <ele>24</ele>
        <time>1970-01-01T00:09:55.000Z</time>
      </trkpt>
      <trkpt lat="42.267019" lon="2.986657">
        <ele>24</ele>
        <time>1970-01-01T00:09:56.000Z</time>
      </trkpt>
      <trkpt lat="42.267021" lon="2.986713">
        <ele>24</ele>
        <time>1970-01-01T00:09:57.000Z</time>
      </trkpt>
      <trkpt lat="42.267024" lon="2.986769">
        <ele>24</ele>
        <time>1970-01-01T00:09:58.000Z</time>
      </trkpt>
      <trkpt lat="42.267026" lon="2.986825">
        <ele>25</ele>
        <time>1970-01-01T00:09:59.000Z</time>
      </trkpt>
      <trkpt lat="42.267029" lon="2.986943">
        <ele>25</ele>
        <time>1970-01-01T00:10:00.000Z</time>
      </trkpt>
      <trkpt lat="42.267031" lon="2.986999">
        <ele>25</ele>
        <time>1970-01-01T00:10:01.000Z</time>
      </trkpt>
      <trkpt lat="42.267033" lon="2.987055">
        <ele>25</ele>
        <time>1970-01-01T00:10:02.000Z</time>
      </trkpt>
      <trkpt lat="42.267035" lon="2.987111">
        <ele>25</ele>
        <time>1970-01-01T00:10:03.000Z</time>
      </trkpt>
      <trkpt lat="42.267038" lon="2.987166">
        <ele>25</ele>
        <time>1970-01-01T00:10:04.000Z</time>
      </trkpt>
      <trkpt lat="42.26704" lon="2.987222">
        <ele>25</ele>
        <time>1970-01-01T00:10:05.000Z</time>
      </trkpt>
      <trkpt lat="42.267042" lon="2.987278">
        <ele>25</ele>
        <time>1970-01-01T00:10:06.000Z</time>
      </trkpt>
      <trkpt lat="42.267044" lon="2.987334">
        <ele>25</ele>
        <time>1970-01-01T00:10:07.000Z</time>
      </trkpt>
      <trkpt lat="42.267046" lon="2.98739">
        <ele>25</ele>
        <time>1970-01-01T00:10:08.000Z</time>
      </trkpt>
      <trkpt lat="42.267048" lon="2.987446">
        <ele>25</ele>
        <time>1970-01-01T00:10:09.000Z</time>
      </trkpt>
      <trkpt lat="42.267052" lon="2.987568">
        <ele>25</ele>
        <time>1970-01-01T00:10:10.000Z</time>
      </trkpt>
      <trkpt lat="42.267053" lon="2.987626">
        <ele>25</ele>
        <time>1970-01-01T00:10:11.000Z</time>
      </trkpt>
      <trkpt lat="42.267054" lon="2.987684">
        <ele>25</ele>
        <time>1970-01-01T00:10:12.000Z</time>
      </trkpt>
      <trkpt lat="42.267055" lon="2.987742">
        <ele>25</ele>
        <time>1970-01-01T00:10:13.000Z</time>
      </trkpt>
      <trkpt lat="42.267056" lon="2.9878">
        <ele>25</ele>
        <time>1970-01-01T00:10:14.000Z</time>
      </trkpt>
      <trkpt lat="42.267057" lon="2.987858">
        <ele>25</ele>
        <time>1970-01-01T00:10:15.000Z</time>
      </trkpt>
      <trkpt lat="42.267058" lon="2.987916">
        <ele>25</ele>
        <time>1970-01-01T00:10:16.000Z</time>
      </trkpt>
      <trkpt lat="42.267059" lon="2.987974">
        <ele>25</ele>
        <time>1970-01-01T00:10:17.000Z</time>
      </trkpt>
      <trkpt lat="42.26706" lon="2.988032">
        <ele>25</ele>
        <time>1970-01-01T00:10:18.000Z</time>
      </trkpt>
      <trkpt lat="42.267061" lon="2.98809">
        <ele>25</ele>
        <time>1970-01-01T00:10:19.000Z</time>
      </trkpt>
      <trkpt lat="42.267065" lon="2.988221">
        <ele>25</ele>
        <time>1970-01-01T00:10:20.000Z</time>
      </trkpt>
      <trkpt lat="42.267067" lon="2.988284">
        <ele>25</ele>
        <time>1970-01-01T00:10:21.000Z</time>
      </trkpt>
      <trkpt lat="42.267069" lon="2.988348">
        <ele>25</ele>
        <time>1970-01-01T00:10:22.000Z</time>
      </trkpt>
      <trkpt lat="42.267071" lon="2.988412">
        <ele>25</ele>
        <time>1970-01-01T00:10:23.000Z</time>
      </trkpt>
      <trkpt lat="42.267073" lon="2.988475">
        <ele>25</ele>
        <time>1970-01-01T00:10:24.000Z</time>
      </trkpt>
      <trkpt lat="42.267074" lon="2.988539">
        <ele>25</ele>
        <time>1970-01-01T00:10:25.000Z</time>
      </trkpt>
      <trkpt lat="42.267076" lon="2.988603">
        <ele>25</ele>
        <time>1970-01-01T00:10:26.000Z</time>
      </trkpt>
      <trkpt lat="42.267078" lon="2.988667">
        <ele>25</ele>
        <time>1970-01-01T00:10:27.000Z</time>
      </trkpt>
      <trkpt lat="42.26708" lon="2.98873">
        <ele>25</ele>
        <time>1970-01-01T00:10:28.000Z</time>
      </trkpt>
      <trkpt lat="42.267082" lon="2.988794">
        <ele>24</ele>
        <time>1970-01-01T00:10:29.000Z</time>
      </trkpt>
      <trkpt lat="42.267084" lon="2.988929">
        <ele>24</ele>
        <time>1970-01-01T00:10:30.000Z</time>
      </trkpt>
      <trkpt lat="42.267086" lon="2.988992">
        <ele>24</ele>
        <time>1970-01-01T00:10:31.000Z</time>
      </trkpt>
      <trkpt lat="42.267088" lon="2.989055">
        <ele>24</ele>
        <time>1970-01-01T00:10:32.000Z</time>
      </trkpt>
      <trkpt lat="42.26709" lon="2.989118">
        <ele>24</ele>
        <time>1970-01-01T00:10:33.000Z</time>
      </trkpt>
      <trkpt lat="42.267093" lon="2.98918">
        <ele>24</ele>
        <time>1970-01-01T00:10:34.000Z</time>
      </trkpt>
      <trkpt lat="42.267095" lon="2.989243">
        <ele>24</ele>
        <time>1970-01-01T00:10:35.000Z</time>
      </trkpt>
      <trkpt lat="42.267097" lon="2.989306">
        <ele>24</ele>
        <time>1970-01-01T00:10:36.000Z</time>
      </trkpt>
      <trkpt lat="42.267099" lon="2.989369">
        <ele>24</ele>
        <time>1970-01-01T00:10:37.000Z</time>
      </trkpt>
      <trkpt lat="42.267101" lon="2.989432">
        <ele>24</ele>
        <time>1970-01-01T00:10:38.000Z</time>
      </trkpt>
      <trkpt lat="42.267103" lon="2.989495">
        <ele>25</ele>
        <time>1970-01-01T00:10:39.000Z</time>
      </trkpt>
      <trkpt lat="42.267102" lon="2.989625">
        <ele>25</ele>
        <time>1970-01-01T00:10:40.000Z</time>
      </trkpt>
      <trkpt lat="42.267102" lon="2.989688">
        <ele>25</ele>
        <time>1970-01-01T00:10:41.000Z</time>
      </trkpt>
      <trkpt lat="42.267101" lon="2.989751">
        <ele>25</ele>
        <time>1970-01-01T00:10:42.000Z</time>
      </trkpt>
      <trkpt lat="42.267101" lon="2.989814">
        <ele>25</ele>
        <time>1970-01-01T00:10:43.000Z</time>
      </trkpt>
      <trkpt lat="42.2671" lon="2.989877">
        <ele>25</ele>
        <time>1970-01-01T00:10:44.000Z</time>
      </trkpt>
      <trkpt lat="42.267099" lon="2.98994">
        <ele>25</ele>
        <time>1970-01-01T00:10:45.000Z</time>
      </trkpt>
      <trkpt lat="42.267099" lon="2.990003">
        <ele>25</ele>
        <time>1970-01-01T00:10:46.000Z</time>
      </trkpt>
      <trkpt lat="42.267098" lon="2.990066">
        <ele>25</ele>
        <time>1970-01-01T00:10:47.000Z</time>
      </trkpt>
      <trkpt lat="42.267098" lon="2.990129">
        <ele>25</ele>
        <time>1970-01-01T00:10:48.000Z</time>
      </trkpt>
      <trkpt lat="42.267097" lon="2.990192">
        <ele>24</ele>
        <time>1970-01-01T00:10:49.000Z</time>
      </trkpt>
      <trkpt lat="42.267099" lon="2.990325">
        <ele>24</ele>
        <time>1970-01-01T00:10:50.000Z</time>
      </trkpt>
      <trkpt lat="42.2671" lon="2.990389">
        <ele>24</ele>
        <time>1970-01-01T00:10:51.000Z</time>
      </trkpt>
      <trkpt lat="42.2671" lon="2.990452">
        <ele>24</ele>
        <time>1970-01-01T00:10:52.000Z</time>
      </trkpt>
      <trkpt lat="42.267101" lon="2.990516">
        <ele>24</ele>
        <time>1970-01-01T00:10:53.000Z</time>
      </trkpt>
      <trkpt lat="42.267101" lon="2.990579">
        <ele>24</ele>
        <time>1970-01-01T00:10:54.000Z</time>
      </trkpt>
      <trkpt lat="42.267101" lon="2.990642">
        <ele>24</ele>
        <time>1970-01-01T00:10:55.000Z</time>
      </trkpt>
      <trkpt lat="42.267102" lon="2.990706">
        <ele>24</ele>
        <time>1970-01-01T00:10:56.000Z</time>
      </trkpt>
      <trkpt lat="42.267102" lon="2.990769">
        <ele>24</ele>
        <time>1970-01-01T00:10:57.000Z</time>
      </trkpt>
      <trkpt lat="42.267103" lon="2.990833">
        <ele>24</ele>
        <time>1970-01-01T00:10:58.000Z</time>
      </trkpt>
      <trkpt lat="42.267103" lon="2.990896">
        <ele>25</ele>
        <time>1970-01-01T00:10:59.000Z</time>
      </trkpt>
      <trkpt lat="42.267103" lon="2.991029">
        <ele>25</ele>
        <time>1970-01-01T00:11:00.000Z</time>
      </trkpt>
      <trkpt lat="42.267102" lon="2.991092">
        <ele>25</ele>
        <time>1970-01-01T00:11:01.000Z</time>
      </trkpt>
      <trkpt lat="42.267102" lon="2.991155">
        <ele>25</ele>
        <time>1970-01-01T00:11:02.000Z</time>
      </trkpt>
      <trkpt lat="42.267101" lon="2.991218">
        <ele>25</ele>
        <time>1970-01-01T00:11:03.000Z</time>
      </trkpt>
      <trkpt lat="42.267101" lon="2.991281">
        <ele>25</ele>
        <time>1970-01-01T00:11:04.000Z</time>
      </trkpt>
      <trkpt lat="42.2671" lon="2.991344">
        <ele>25</ele>
        <time>1970-01-01T00:11:05.000Z</time>
      </trkpt>
      <trkpt lat="42.2671" lon="2.991407">
        <ele>25</ele>
        <time>1970-01-01T00:11:06.000Z</time>
      </trkpt>
      <trkpt lat="42.267099" lon="2.99147">
        <ele>25</ele>
        <time>1970-01-01T00:11:07.000Z</time>
      </trkpt>
      <trkpt lat="42.267099" lon="2.991533">
        <ele>25</ele>
        <time>1970-01-01T00:11:08.000Z</time>
      </trkpt>
      <trkpt lat="42.267098" lon="2.991596">
        <ele>25</ele>
        <time>1970-01-01T00:11:09.000Z</time>
      </trkpt>
      <trkpt lat="42.267099" lon="2.991731">
        <ele>25</ele>
        <time>1970-01-01T00:11:10.000Z</time>
      </trkpt>
      <trkpt lat="42.2671" lon="2.991796">
        <ele>25</ele>
        <time>1970-01-01T00:11:11.000Z</time>
      </trkpt>
      <trkpt lat="42.267102" lon="2.99186">
        <ele>25</ele>
        <time>1970-01-01T00:11:12.000Z</time>
      </trkpt>
      <trkpt lat="42.267103" lon="2.991925">
        <ele>25</ele>
        <time>1970-01-01T00:11:13.000Z</time>
      </trkpt>
      <trkpt lat="42.267105" lon="2.991989">
        <ele>25</ele>
        <time>1970-01-01T00:11:14.000Z</time>
      </trkpt>
      <trkpt lat="42.267107" lon="2.992054">
        <ele>25</ele>
        <time>1970-01-01T00:11:15.000Z</time>
      </trkpt>
      <trkpt lat="42.267108" lon="2.992118">
        <ele>25</ele>
        <time>1970-01-01T00:11:16.000Z</time>
      </trkpt>
      <trkpt lat="42.26711" lon="2.992183">
        <ele>25</ele>
        <time>1970-01-01T00:11:17.000Z</time>
      </trkpt>
      <trkpt lat="42.267111" lon="2.992247">
        <ele>25</ele>
        <time>1970-01-01T00:11:18.000Z</time>
      </trkpt>
      <trkpt lat="42.267113" lon="2.992312">
        <ele>24</ele>
        <time>1970-01-01T00:11:19.000Z</time>
      </trkpt>
      <trkpt lat="42.267119" lon="2.992443">
        <ele>24</ele>
        <time>1970-01-01T00:11:20.000Z</time>
      </trkpt>
      <trkpt lat="42.267121" lon="2.992504">
        <ele>24</ele>
        <time>1970-01-01T00:11:21.000Z</time>
      </trkpt>
      <trkpt lat="42.267124" lon="2.992565">
        <ele>24</ele>
        <time>1970-01-01T00:11:22.000Z</time>
      </trkpt>
      <trkpt lat="42.267126" lon="2.992626">
        <ele>24</ele>
        <time>1970-01-01T00:11:23.000Z</time>
      </trkpt>
      <trkpt lat="42.267129" lon="2.992687">
        <ele>24</ele>
        <time>1970-01-01T00:11:24.000Z</time>
      </trkpt>
      <trkpt lat="42.267132" lon="2.992749">
        <ele>24</ele>
        <time>1970-01-01T00:11:25.000Z</time>
      </trkpt>
      <trkpt lat="42.267134" lon="2.99281">
        <ele>24</ele>
        <time>1970-01-01T00:11:26.000Z</time>
      </trkpt>
      <trkpt lat="42.267137" lon="2.992871">
        <ele>24</ele>
        <time>1970-01-01T00:11:27.000Z</time>
      </trkpt>
      <trkpt lat="42.267139" lon="2.992932">
        <ele>24</ele>
        <time>1970-01-01T00:11:28.000Z</time>
      </trkpt>
      <trkpt lat="42.267142" lon="2.992993">
        <ele>25</ele>
        <time>1970-01-01T00:11:29.000Z</time>
      </trkpt>
      <trkpt lat="42.267144" lon="2.993117">
        <ele>25</ele>
        <time>1970-01-01T00:11:30.000Z</time>
      </trkpt>
      <trkpt lat="42.267146" lon="2.993175">
        <ele>25</ele>
        <time>1970-01-01T00:11:31.000Z</time>
      </trkpt>
      <trkpt lat="42.267147" lon="2.993232">
        <ele>25</ele>
        <time>1970-01-01T00:11:32.000Z</time>
      </trkpt>
      <trkpt lat="42.267149" lon="2.99329">
        <ele>25</ele>
        <time>1970-01-01T00:11:33.000Z</time>
      </trkpt>
      <trkpt lat="42.26715" lon="2.993347">
        <ele>25</ele>
        <time>1970-01-01T00:11:34.000Z</time>
      </trkpt>
      <trkpt lat="42.267151" lon="2.993405">
        <ele>25</ele>
        <time>1970-01-01T00:11:35.000Z</time>
      </trkpt>
      <trkpt lat="42.267153" lon="2.993462">
        <ele>25</ele>
        <time>1970-01-01T00:11:36.000Z</time>
      </trkpt>
      <trkpt lat="42.267154" lon="2.99352">
        <ele>25</ele>
        <time>1970-01-01T00:11:37.000Z</time>
      </trkpt>
      <trkpt lat="42.267156" lon="2.993577">
        <ele>25</ele>
        <time>1970-01-01T00:11:38.000Z</time>
      </trkpt>
      <trkpt lat="42.267157" lon="2.993635">
        <ele>25</ele>
        <time>1970-01-01T00:11:39.000Z</time>
      </trkpt>
      <trkpt lat="42.267154" lon="2.993723">
        <ele>25</ele>
        <time>1970-01-01T00:11:40.000Z</time>
      </trkpt>
      <trkpt lat="42.267157" lon="2.993757">
        <ele>25</ele>
        <time>1970-01-01T00:11:41.000Z</time>
      </trkpt>
      <trkpt lat="42.267159" lon="2.993792">
        <ele>25</ele>
        <time>1970-01-01T00:11:42.000Z</time>
      </trkpt>
      <trkpt lat="42.267161" lon="2.993826">
        <ele>25</ele>
        <time>1970-01-01T00:11:43.000Z</time>
      </trkpt>
      <trkpt lat="42.267164" lon="2.993861">
        <ele>25</ele>
        <time>1970-01-01T00:11:44.000Z</time>
      </trkpt>
      <trkpt lat="42.267166" lon="2.993896">
        <ele>25</ele>
        <time>1970-01-01T00:11:45.000Z</time>
      </trkpt>
      <trkpt lat="42.267168" lon="2.99393">
        <ele>25</ele>
        <time>1970-01-01T00:11:46.000Z</time>
      </trkpt>
      <trkpt lat="42.26717" lon="2.993965">
        <ele>25</ele>
        <time>1970-01-01T00:11:47.000Z</time>
      </trkpt>
      <trkpt lat="42.267173" lon="2.993999">
        <ele>25</ele>
        <time>1970-01-01T00:11:48.000Z</time>
      </trkpt>
      <trkpt lat="42.267175" lon="2.994034">
        <ele>25</ele>
        <time>1970-01-01T00:11:49.000Z</time>
      </trkpt>
      <trkpt lat="42.267174" lon="2.994079">
        <ele>25</ele>
        <time>1970-01-01T00:11:50.000Z</time>
      </trkpt>
      <trkpt lat="42.26717" lon="2.99412">
        <ele>25</ele>
        <time>1970-01-01T00:11:51.000Z</time>
      </trkpt>
      <trkpt lat="42.267169" lon="2.994152">
        <ele>25</ele>
        <time>1970-01-01T00:11:52.000Z</time>
      </trkpt>
      <trkpt lat="42.267171" lon="2.994177">
        <ele>25</ele>
        <time>1970-01-01T00:11:53.000Z</time>
      </trkpt>
      <trkpt lat="42.267175" lon="2.994212">
        <ele>25</ele>
        <time>1970-01-01T00:11:55.000Z</time>
      </trkpt>
      <trkpt lat="42.267175" lon="2.994212">
        <ele>24</ele>
        <time>1970-01-01T00:12:00.000Z</time>
      </trkpt>
      <trkpt lat="42.267178" lon="2.994246">
        <ele>24</ele>
        <time>1970-01-01T00:12:01.000Z</time>
      </trkpt>
      <trkpt lat="42.26718" lon="2.99428">
        <ele>24</ele>
        <time>1970-01-01T00:12:02.000Z</time>
      </trkpt>
      <trkpt lat="42.267183" lon="2.994314">
        <ele>24</ele>
        <time>1970-01-01T00:12:05.000Z</time>
      </trkpt>
      <trkpt lat="42.267185" lon="2.994348">
        <ele>24</ele>
        <time>1970-01-01T00:12:06.000Z</time>
      </trkpt>
      <trkpt lat="42.267188" lon="2.994382">
        <ele>24</ele>
        <time>1970-01-01T00:12:07.000Z</time>
      </trkpt>
      <trkpt lat="42.267191" lon="2.994416">
        <ele>24</ele>
        <time>1970-01-01T00:12:08.000Z</time>
      </trkpt>
      <trkpt lat="42.267193" lon="2.99445">
        <ele>24</ele>
        <time>1970-01-01T00:12:09.000Z</time>
      </trkpt>
      <trkpt lat="42.267196" lon="2.994484">
        <ele>24</ele>
        <time>1970-01-01T00:12:10.000Z</time>
      </trkpt>
      <trkpt lat="42.267199" lon="2.994518">
        <ele>24</ele>
        <time>1970-01-01T00:12:11.000Z</time>
      </trkpt>
      <trkpt lat="42.267201" lon="2.994552">
        <ele>24</ele>
        <time>1970-01-01T00:12:12.000Z</time>
      </trkpt>
      <trkpt lat="42.267204" lon="2.994586">
        <ele>24</ele>
        <time>1970-01-01T00:12:13.000Z</time>
      </trkpt>
      <trkpt lat="42.267206" lon="2.99462">
        <ele>24</ele>
        <time>1970-01-01T00:12:14.000Z</time>
      </trkpt>
      <trkpt lat="42.267209" lon="2.994654">
        <ele>24</ele>
        <time>1970-01-01T00:12:15.000Z</time>
      </trkpt>
      <trkpt lat="42.267212" lon="2.994756">
        <ele>24</ele>
        <time>1970-01-01T00:12:16.000Z</time>
      </trkpt>
      <trkpt lat="42.267214" lon="2.994807">
        <ele>24</ele>
        <time>1970-01-01T00:12:17.000Z</time>
      </trkpt>
      <trkpt lat="42.267216" lon="2.994857">
        <ele>24</ele>
        <time>1970-01-01T00:12:18.000Z</time>
      </trkpt>
      <trkpt lat="42.267218" lon="2.994907">
        <ele>24</ele>
        <time>1970-01-01T00:12:19.000Z</time>
      </trkpt>
      <trkpt lat="42.26722" lon="2.994957">
        <ele>24</ele>
        <time>1970-01-01T00:12:20.000Z</time>
      </trkpt>
      <trkpt lat="42.267221" lon="2.995008">
        <ele>24</ele>
        <time>1970-01-01T00:12:21.000Z</time>
      </trkpt>
      <trkpt lat="42.267223" lon="2.995058">
        <ele>24</ele>
        <time>1970-01-01T00:12:22.000Z</time>
      </trkpt>
      <trkpt lat="42.267225" lon="2.995108">
        <ele>24</ele>
        <time>1970-01-01T00:12:23.000Z</time>
      </trkpt>
      <trkpt lat="42.267227" lon="2.995158">
        <ele>24</ele>
        <time>1970-01-01T00:12:24.000Z</time>
      </trkpt>
      <trkpt lat="42.267229" lon="2.995209">
        <ele>24</ele>
        <time>1970-01-01T00:12:25.000Z</time>
      </trkpt>
      <trkpt lat="42.267231" lon="2.995259">
        <ele>25</ele>
        <time>1970-01-01T00:12:26.000Z</time>
      </trkpt>
      <trkpt lat="42.267235" lon="2.995371">
        <ele>25</ele>
        <time>1970-01-01T00:12:27.000Z</time>
      </trkpt>
      <trkpt lat="42.267237" lon="2.995423">
        <ele>25</ele>
        <time>1970-01-01T00:12:28.000Z</time>
      </trkpt>
      <trkpt lat="42.267239" lon="2.995476">
        <ele>25</ele>
        <time>1970-01-01T00:12:29.000Z</time>
      </trkpt>
      <trkpt lat="42.267241" lon="2.995529">
        <ele>25</ele>
        <time>1970-01-01T00:12:30.000Z</time>
      </trkpt>
      <trkpt lat="42.267243" lon="2.995581">
        <ele>25</ele>
        <time>1970-01-01T00:12:31.000Z</time>
      </trkpt>
      <trkpt lat="42.267245" lon="2.995634">
        <ele>25</ele>
        <time>1970-01-01T00:12:32.000Z</time>
      </trkpt>
      <trkpt lat="42.267247" lon="2.995687">
        <ele>25</ele>
        <time>1970-01-01T00:12:33.000Z</time>
      </trkpt>
      <trkpt lat="42.267249" lon="2.995739">
        <ele>25</ele>
        <time>1970-01-01T00:12:34.000Z</time>
      </trkpt>
      <trkpt lat="42.267251" lon="2.995792">
        <ele>23</ele>
        <time>1970-01-01T00:12:35.000Z</time>
      </trkpt>
      <trkpt lat="42.267254" lon="2.995904">
        <ele>23</ele>
        <time>1970-01-01T00:12:36.000Z</time>
      </trkpt>
      <trkpt lat="42.267257" lon="2.995958">
        <ele>23</ele>
        <time>1970-01-01T00:12:37.000Z</time>
      </trkpt>
      <trkpt lat="42.267259" lon="2.996011">
        <ele>23</ele>
        <time>1970-01-01T00:12:38.000Z</time>
      </trkpt>
      <trkpt lat="42.267262" lon="2.996065">
        <ele>23</ele>
        <time>1970-01-01T00:12:39.000Z</time>
      </trkpt>
      <trkpt lat="42.267264" lon="2.996118">
        <ele>23</ele>
        <time>1970-01-01T00:12:40.000Z</time>
      </trkpt>
      <trkpt lat="42.267266" lon="2.996172">
        <ele>23</ele>
        <time>1970-01-01T00:12:41.000Z</time>
      </trkpt>
      <trkpt lat="42.267269" lon="2.996225">
        <ele>23</ele>
        <time>1970-01-01T00:12:42.000Z</time>
      </trkpt>
      <trkpt lat="42.267271" lon="2.996279">
        <ele>23</ele>
        <time>1970-01-01T00:12:43.000Z</time>
      </trkpt>
      <trkpt lat="42.267274" lon="2.996332">
        <ele>23</ele>
        <time>1970-01-01T00:12:44.000Z</time>
      </trkpt>
      <trkpt lat="42.267276" lon="2.996386">
        <ele>23</ele>
        <time>1970-01-01T00:12:45.000Z</time>
      </trkpt>
      <trkpt lat="42.267279" lon="2.996502">
        <ele>23</ele>
        <time>1970-01-01T00:12:46.000Z</time>
      </trkpt>
      <trkpt lat="42.267281" lon="2.996557">
        <ele>23</ele>
        <time>1970-01-01T00:12:47.000Z</time>
      </trkpt>
      <trkpt lat="42.267283" lon="2.996611">
        <ele>23</ele>
        <time>1970-01-01T00:12:48.000Z</time>
      </trkpt>
      <trkpt lat="42.267285" lon="2.996666">
        <ele>23</ele>
        <time>1970-01-01T00:12:49.000Z</time>
      </trkpt>
      <trkpt lat="42.267287" lon="2.996721">
        <ele>23</ele>
        <time>1970-01-01T00:12:50.000Z</time>
      </trkpt>
      <trkpt lat="42.267289" lon="2.996776">
        <ele>23</ele>
        <time>1970-01-01T00:12:51.000Z</time>
      </trkpt>
      <trkpt lat="42.267291" lon="2.996831">
        <ele>23</ele>
        <time>1970-01-01T00:12:52.000Z</time>
      </trkpt>
      <trkpt lat="42.267293" lon="2.996885">
        <ele>23</ele>
        <time>1970-01-01T00:12:53.000Z</time>
      </trkpt>
      <trkpt lat="42.267295" lon="2.99694">
        <ele>23</ele>
        <time>1970-01-01T00:12:54.000Z</time>
      </trkpt>
      <trkpt lat="42.267297" lon="2.996995">
        <ele>23</ele>
        <time>1970-01-01T00:12:55.000Z</time>
      </trkpt>
      <trkpt lat="42.267298" lon="2.997107">
        <ele>23</ele>
        <time>1970-01-01T00:12:56.000Z</time>
      </trkpt>
      <trkpt lat="42.267298" lon="2.997154">
        <ele>23</ele>
        <time>1970-01-01T00:12:57.000Z</time>
      </trkpt>
      <trkpt lat="42.267298" lon="2.9972">
        <ele>23</ele>
        <time>1970-01-01T00:12:58.000Z</time>
      </trkpt>
      <trkpt lat="42.267298" lon="2.997247">
        <ele>23</ele>
        <time>1970-01-01T00:12:59.000Z</time>
      </trkpt>
      <trkpt lat="42.267299" lon="2.997293">
        <ele>23</ele>
        <time>1970-01-01T00:13:00.000Z</time>
      </trkpt>
      <trkpt lat="42.267299" lon="2.99734">
        <ele>23</ele>
        <time>1970-01-01T00:13:01.000Z</time>
      </trkpt>
      <trkpt lat="42.267299" lon="2.997386">
        <ele>23</ele>
        <time>1970-01-01T00:13:02.000Z</time>
      </trkpt>
      <trkpt lat="42.267299" lon="2.997433">
        <ele>23</ele>
        <time>1970-01-01T00:13:03.000Z</time>
      </trkpt>
      <trkpt lat="42.267299" lon="2.997479">
        <ele>23</ele>
        <time>1970-01-01T00:13:04.000Z</time>
      </trkpt>
      <trkpt lat="42.267299" lon="2.997526">
        <ele>24</ele>
        <time>1970-01-01T00:13:05.000Z</time>
      </trkpt>
      <trkpt lat="42.267248" lon="2.997559">
        <ele>24</ele>
        <time>1970-01-01T00:13:07.000Z</time>
      </trkpt>
      <trkpt lat="42.267224" lon="2.997559">
        <ele>24</ele>
        <time>1970-01-01T00:13:08.000Z</time>
      </trkpt>
      <trkpt lat="42.267199" lon="2.997558">
        <ele>24</ele>
        <time>1970-01-01T00:13:09.000Z</time>
      </trkpt>
      <trkpt lat="42.267174" lon="2.997558">
        <ele>24</ele>
        <time>1970-01-01T00:13:10.000Z</time>
      </trkpt>
      <trkpt lat="42.26715" lon="2.997557">
        <ele>24</ele>
        <time>1970-01-01T00:13:11.000Z</time>
      </trkpt>
      <trkpt lat="42.267125" lon="2.997557">
        <ele>24</ele>
        <time>1970-01-01T00:13:12.000Z</time>
      </trkpt>
      <trkpt lat="42.2671" lon="2.997556">
        <ele>24</ele>
        <time>1970-01-01T00:13:13.000Z</time>
      </trkpt>
      <trkpt lat="42.267076" lon="2.997556">
        <ele>24</ele>
        <time>1970-01-01T00:13:14.000Z</time>
      </trkpt>
      <trkpt lat="42.267051" lon="2.997555">
        <ele>23</ele>
        <time>1970-01-01T00:13:15.000Z</time>
      </trkpt>
      <trkpt lat="42.266995" lon="2.997558">
        <ele>23</ele>
        <time>1970-01-01T00:13:16.000Z</time>
      </trkpt>
      <trkpt lat="42.26697" lon="2.99756">
        <ele>23</ele>
        <time>1970-01-01T00:13:17.000Z</time>
      </trkpt>
      <trkpt lat="42.266946" lon="2.997562">
        <ele>23</ele>
        <time>1970-01-01T00:13:18.000Z</time>
      </trkpt>
      <trkpt lat="42.266921" lon="2.997564">
        <ele>23</ele>
        <time>1970-01-01T00:13:19.000Z</time>
      </trkpt>
      <trkpt lat="42.266897" lon="2.997566">
        <ele>23</ele>
        <time>1970-01-01T00:13:20.000Z</time>
      </trkpt>
      <trkpt lat="42.266872" lon="2.997567">
        <ele>23</ele>
        <time>1970-01-01T00:13:21.000Z</time>
      </trkpt>
      <trkpt lat="42.266848" lon="2.997569">
        <ele>23</ele>
        <time>1970-01-01T00:13:22.000Z</time>
      </trkpt>
      <trkpt lat="42.266823" lon="2.997571">
        <ele>23</ele>
        <time>1970-01-01T00:13:23.000Z</time>
      </trkpt>
      <trkpt lat="42.266799" lon="2.997573">
        <ele>23</ele>
        <time>1970-01-01T00:13:24.000Z</time>
      </trkpt>
      <trkpt lat="42.266774" lon="2.997575">
        <ele>23</ele>
        <time>1970-01-01T00:13:25.000Z</time>
      </trkpt>
      <trkpt lat="42.266719" lon="2.997569">
        <ele>23</ele>
        <time>1970-01-01T00:13:26.000Z</time>
      </trkpt>
      <trkpt lat="42.266695" lon="2.997568">
        <ele>23</ele>
        <time>1970-01-01T00:13:27.000Z</time>
      </trkpt>
      <trkpt lat="42.266671" lon="2.997567">
        <ele>23</ele>
        <time>1970-01-01T00:13:28.000Z</time>
      </trkpt>
      <trkpt lat="42.266647" lon="2.997566">
        <ele>23</ele>
        <time>1970-01-01T00:13:29.000Z</time>
      </trkpt>
      <trkpt lat="42.266622" lon="2.997564">
        <ele>23</ele>
        <time>1970-01-01T00:13:30.000Z</time>
      </trkpt>
      <trkpt lat="42.266598" lon="2.997563">
        <ele>23</ele>
        <time>1970-01-01T00:13:31.000Z</time>
      </trkpt>
      <trkpt lat="42.266574" lon="2.997562">
        <ele>23</ele>
        <time>1970-01-01T00:13:32.000Z</time>
      </trkpt>
      <trkpt lat="42.26655" lon="2.997561">
        <ele>23</ele>
        <time>1970-01-01T00:13:33.000Z</time>
      </trkpt>
      <trkpt lat="42.266526" lon="2.99756">
        <ele>23</ele>
        <time>1970-01-01T00:13:35.000Z</time>
      </trkpt>
      <trkpt lat="42.266526" lon="2.99756">
        <ele>23</ele>
        <time>1970-01-01T00:13:38.000Z</time>
      </trkpt>
      <trkpt lat="42.266523" lon="2.997556">
        <ele>23</ele>
        <time>1970-01-01T00:13:39.000Z</time>
      </trkpt>
      <trkpt lat="42.266523" lon="2.997556">
        <ele>23</ele>
        <time>1970-01-01T00:14:11.000Z</time>
      </trkpt>
      <trkpt lat="42.266578" lon="2.997533">
        <ele>23</ele>
        <time>1970-01-01T00:14:12.000Z</time>
      </trkpt>
      <trkpt lat="42.266564" lon="2.997554">
        <ele>23</ele>
        <time>1970-01-01T00:14:19.000Z</time>
      </trkpt>
      <trkpt lat="42.266552" lon="2.997585">
        <ele>23</ele>
        <time>1970-01-01T00:14:20.000Z</time>
      </trkpt>
      <trkpt lat="42.266552" lon="2.997585">
        <ele>23</ele>
        <time>1970-01-01T00:14:21.000Z</time>
      </trkpt>
      <trkpt lat="42.266541" lon="2.997616">
        <ele>23</ele>
        <time>1970-01-01T00:14:22.000Z</time>
      </trkpt>
      <trkpt lat="42.26656" lon="2.997573">
        <ele>23</ele>
        <time>1970-01-01T00:14:26.000Z</time>
      </trkpt>
      <trkpt lat="42.26656" lon="2.997573">
        <ele>23</ele>
        <time>1970-01-01T00:14:31.000Z</time>
      </trkpt>
      <trkpt lat="42.26658" lon="2.997526">
        <ele>23</ele>
        <time>1970-01-01T00:14:34.000Z</time>
      </trkpt>
      <trkpt lat="42.266583" lon="2.997525">
        <ele>23</ele>
        <time>1970-01-01T00:14:35.000Z</time>
      </trkpt>
      <trkpt lat="42.266583" lon="2.997525">
        <ele>24</ele>
        <time>1970-01-01T00:14:37.000Z</time>
      </trkpt>
      <trkpt lat="42.266578" lon="2.997565">
        <ele>24</ele>
        <time>1970-01-01T00:14:38.000Z</time>
      </trkpt>
      <trkpt lat="42.266578" lon="2.997565">
        <ele>24</ele>
        <time>1970-01-01T00:14:46.000Z</time>
      </trkpt>
      <trkpt lat="42.266575" lon="2.997535">
        <ele>24</ele>
        <time>1970-01-01T00:14:47.000Z</time>
      </trkpt>
      <trkpt lat="42.266575" lon="2.997535">
        <ele>23</ele>
        <time>1970-01-01T00:14:57.000Z</time>
      </trkpt>
      <trkpt lat="42.266528" lon="2.997538">
        <ele>23</ele>
        <time>1970-01-01T00:14:58.000Z</time>
      </trkpt>
      <trkpt lat="42.266475" lon="2.997557">
        <ele>23</ele>
        <time>1970-01-01T00:15:01.000Z</time>
      </trkpt>
      <trkpt lat="42.266366" lon="2.997581">
        <ele>23</ele>
        <time>1970-01-01T00:15:07.000Z</time>
      </trkpt>
      <trkpt lat="42.266221" lon="2.997563">
        <ele>23</ele>
        <time>1970-01-01T00:15:13.000Z</time>
      </trkpt>
      <trkpt lat="42.266185" lon="2.997552">
        <ele>23</ele>
        <time>1970-01-01T00:15:17.000Z</time>
      </trkpt>
      <trkpt lat="42.266149" lon="2.997542">
        <ele>24</ele>
        <time>1970-01-01T00:15:18.000Z</time>
      </trkpt>
      <trkpt lat="42.266074" lon="2.997516">
        <ele>24</ele>
        <time>1970-01-01T00:15:22.000Z</time>
      </trkpt>
      <trkpt lat="42.266074" lon="2.997516">
        <ele>24</ele>
        <time>1970-01-01T00:15:27.000Z</time>
      </trkpt>
      <trkpt lat="42.266019" lon="2.997415">
        <ele>24</ele>
        <time>1970-01-01T00:15:36.000Z</time>
      </trkpt>
      <trkpt lat="42.266019" lon="2.997415">
        <ele>23</ele>
        <time>1970-01-01T00:15:37.000Z</time>
      </trkpt>
      <trkpt lat="42.266026" lon="2.997407">
        <ele>23</ele>
        <time>1970-01-01T00:15:47.000Z</time>
      </trkpt>
      <trkpt lat="42.266033" lon="2.997399">
        <ele>24</ele>
        <time>1970-01-01T00:15:57.000Z</time>
      </trkpt>
      <trkpt lat="42.266041" lon="2.997391">
        <ele>24</ele>
        <time>1970-01-01T00:16:07.000Z</time>
      </trkpt>
      <trkpt lat="42.266048" lon="2.997383">
        <ele>25</ele>
        <time>1970-01-01T00:16:17.000Z</time>
      </trkpt>
      <trkpt lat="42.266055" lon="2.997375">
        <ele>23</ele>
        <time>1970-01-01T00:16:27.000Z</time>
      </trkpt>
      <trkpt lat="42.266062" lon="2.997367">
        <ele>23</ele>
        <time>1970-01-01T00:16:37.000Z</time>
      </trkpt>
      <trkpt lat="42.266069" lon="2.997359">
        <ele>23</ele>
        <time>1970-01-01T00:16:47.000Z</time>
      </trkpt>
      <trkpt lat="42.266077" lon="2.997351">
        <ele>23</ele>
        <time>1970-01-01T00:16:50.000Z</time>
      </trkpt>
      <trkpt lat="42.266084" lon="2.997342">
        <ele>23</ele>
        <time>1970-01-01T00:16:51.000Z</time>
      </trkpt>
      <trkpt lat="42.266091" lon="2.997334">
        <ele>23</ele>
        <time>1970-01-01T00:16:57.000Z</time>
      </trkpt>
      <trkpt lat="42.266098" lon="2.997326">
        <ele>23</ele>
        <time>1970-01-01T00:16:58.000Z</time>
      </trkpt>
      <trkpt lat="42.266106" lon="2.997318">
        <ele>24</ele>
        <time>1970-01-01T00:17:07.000Z</time>
      </trkpt>
      <trkpt lat="42.266113" lon="2.99731">
        <ele>24</ele>
        <time>1970-01-01T00:17:18.000Z</time>
      </trkpt>
      <trkpt lat="42.26612" lon="2.997302">
        <ele>24</ele>
        <time>1970-01-01T00:17:27.000Z</time>
      </trkpt>
      <trkpt lat="42.266127" lon="2.997294">
        <ele>23</ele>
        <time>1970-01-01T00:17:37.000Z</time>
      </trkpt>
      <trkpt lat="42.266134" lon="2.997286">
        <ele>23</ele>
        <time>1970-01-01T00:17:38.000Z</time>
      </trkpt>
      <trkpt lat="42.266142" lon="2.997278">
        <ele>24</ele>
        <time>1970-01-01T00:17:47.000Z</time>
      </trkpt>
      <trkpt lat="42.266149" lon="2.99727">
        <ele>24</ele>
        <time>1970-01-01T00:17:57.000Z</time>
      </trkpt>
      <trkpt lat="42.266156" lon="2.997262">
        <ele>24</ele>
        <time>1970-01-01T00:18:04.000Z</time>
      </trkpt>
      <trkpt lat="42.266163" lon="2.997254">
        <ele>24</ele>
        <time>1970-01-01T00:18:05.000Z</time>
      </trkpt>
      <trkpt lat="42.26617" lon="2.997246">
        <ele>24</ele>
        <time>1970-01-01T00:18:11.000Z</time>
      </trkpt>
      <trkpt lat="42.266178" lon="2.997238">
        <ele>24</ele>
        <time>1970-01-01T00:18:12.000Z</time>
      </trkpt>
      <trkpt lat="42.266185" lon="2.99723">
        <ele>24</ele>
        <time>1970-01-01T00:18:13.000Z</time>
      </trkpt>
      <trkpt lat="42.266192" lon="2.997222">
        <ele>24</ele>
        <time>1970-01-01T00:18:21.000Z</time>
      </trkpt>
      <trkpt lat="42.266199" lon="2.997213">
        <ele>24</ele>
        <time>1970-01-01T00:18:30.000Z</time>
      </trkpt>
      <trkpt lat="42.266207" lon="2.997205">
        <ele>24</ele>
        <time>1970-01-01T00:18:31.000Z</time>
      </trkpt>
      <trkpt lat="42.266214" lon="2.997197">
        <ele>24</ele>
        <time>1970-01-01T00:18:45.000Z</time>
      </trkpt>
      <trkpt lat="42.266221" lon="2.997189">
        <ele>24</ele>
        <time>1970-01-01T00:18:46.000Z</time>
      </trkpt>
      <trkpt lat="42.266228" lon="2.997181">
        <ele>24</ele>
        <time>1970-01-01T00:18:55.000Z</time>
      </trkpt>
      <trkpt lat="42.266235" lon="2.997173">
        <ele>24</ele>
        <time>1970-01-01T00:18:57.000Z</time>
      </trkpt>
      <trkpt lat="42.266243" lon="2.997165">
        <ele>24</ele>
        <time>1970-01-01T00:19:06.000Z</time>
      </trkpt>
      <trkpt lat="42.26625" lon="2.997157">
        <ele>24</ele>
        <time>1970-01-01T00:19:14.000Z</time>
      </trkpt>
      <trkpt lat="42.266257" lon="2.997149">
        <ele>24</ele>
        <time>1970-01-01T00:19:15.000Z</time>
      </trkpt>
      <trkpt lat="42.266277" lon="2.997149">
        <ele>23</ele>
        <time>1970-01-01T00:19:25.000Z</time>
      </trkpt>
      <trkpt lat="42.266297" lon="2.997149">
        <ele>23</ele>
        <time>1970-01-01T00:19:35.000Z</time>
      </trkpt>
      <trkpt lat="42.266317" lon="2.997148">
        <ele>23</ele>
        <time>1970-01-01T00:19:40.000Z</time>
      </trkpt>
      <trkpt lat="42.266337" lon="2.997148">
        <ele>23</ele>
        <time>1970-01-01T00:19:41.000Z</time>
      </trkpt>
      <trkpt lat="42.266357" lon="2.997148">
        <ele>23</ele>
        <time>1970-01-01T00:19:44.000Z</time>
      </trkpt>
      <trkpt lat="42.266377" lon="2.997148">
        <ele>24</ele>
        <time>1970-01-01T00:19:53.000Z</time>
      </trkpt>
      <trkpt lat="42.266397" lon="2.997147">
        <ele>24</ele>
        <time>1970-01-01T00:20:04.000Z</time>
      </trkpt>
      <trkpt lat="42.266417" lon="2.997147">
        <ele>24</ele>
        <time>1970-01-01T00:20:12.000Z</time>
      </trkpt>
      <trkpt lat="42.266437" lon="2.997147">
        <ele>24</ele>
        <time>1970-01-01T00:20:13.000Z</time>
      </trkpt>
      <trkpt lat="42.266437" lon="2.997147">
        <ele>24</ele>
        <time>1970-01-01T00:20:23.000Z</time>
      </trkpt>
      <trkpt lat="42.266383" lon="2.997044">
        <ele>24</ele>
        <time>1970-01-01T00:20:28.000Z</time>
      </trkpt>
      <trkpt lat="42.266383" lon="2.997044">
        <ele>24</ele>
        <time>1970-01-01T00:20:33.000Z</time>
      </trkpt>
      <trkpt lat="42.266383" lon="2.997044">
        <ele>25</ele>
        <time>1970-01-01T00:20:43.000Z</time>
      </trkpt>
      <trkpt lat="42.266278" lon="2.997049">
        <ele>25</ele>
        <time>1970-01-01T00:20:48.000Z</time>
      </trkpt>
      <trkpt lat="42.266278" lon="2.997049">
        <ele>25</ele>
        <time>1970-01-01T00:20:53.000Z</time>
      </trkpt>
      <trkpt lat="42.266278" lon="2.997049">
        <ele>24</ele>
        <time>1970-01-01T00:21:03.000Z</time>
      </trkpt>
      <trkpt lat="42.266193" lon="2.997126">
        <ele>24</ele>
        <time>1970-01-01T00:21:06.000Z</time>
      </trkpt>
      <trkpt lat="42.266193" lon="2.997126">
        <ele>25</ele>
        <time>1970-01-01T00:21:12.000Z</time>
      </trkpt>
      <trkpt lat="42.266189" lon="2.99715">
        <ele>25</ele>
        <time>1970-01-01T00:21:13.000Z</time>
      </trkpt>
      <trkpt lat="42.266189" lon="2.99715">
        <ele>25</ele>
        <time>1970-01-01T00:21:15.000Z</time>
      </trkpt>
      <trkpt lat="42.266215" lon="2.997147">
        <ele>25</ele>
        <time>1970-01-01T00:21:16.000Z</time>
      </trkpt>
      <trkpt lat="42.26628" lon="2.997158">
        <ele>25</ele>
        <time>1970-01-01T00:21:20.000Z</time>
      </trkpt>
      <trkpt lat="42.26628" lon="2.997158">
        <ele>25</ele>
        <time>1970-01-01T00:21:25.000Z</time>
      </trkpt>
      <trkpt lat="42.26637" lon="2.99717">
        <ele>25</ele>
        <time>1970-01-01T00:21:31.000Z</time>
      </trkpt>
      <trkpt lat="42.26637" lon="2.99717">
        <ele>25</ele>
        <time>1970-01-01T00:21:36.000Z</time>
      </trkpt>
      <trkpt lat="42.26637" lon="2.99717">
        <ele>25</ele>
        <time>1970-01-01T00:21:45.000Z</time>
      </trkpt>
      <trkpt lat="42.26644" lon="2.997093">
        <ele>25</ele>
        <time>1970-01-01T00:21:48.000Z</time>
      </trkpt>
      <trkpt lat="42.26644" lon="2.997093">
        <ele>25</ele>
        <time>1970-01-01T00:21:55.000Z</time>
      </trkpt>
      <trkpt lat="42.266362" lon="2.99716">
        <ele>25</ele>
        <time>1970-01-01T00:21:59.000Z</time>
      </trkpt>
      <trkpt lat="42.266362" lon="2.99716">
        <ele>24</ele>
        <time>1970-01-01T00:22:05.000Z</time>
      </trkpt>
      <trkpt lat="42.266454" lon="2.997159">
        <ele>24</ele>
        <time>1970-01-01T00:22:12.000Z</time>
      </trkpt>
      <trkpt lat="42.266454" lon="2.997159">
        <ele>25</ele>
        <time>1970-01-01T00:22:15.000Z</time>
      </trkpt>
      <trkpt lat="42.266433" lon="2.997178">
        <ele>25</ele>
        <time>1970-01-01T00:22:25.000Z</time>
      </trkpt>
      <trkpt lat="42.266411" lon="2.997198">
        <ele>25</ele>
        <time>1970-01-01T00:22:28.000Z</time>
      </trkpt>
      <trkpt lat="42.26639" lon="2.997217">
        <ele>25</ele>
        <time>1970-01-01T00:22:29.000Z</time>
      </trkpt>
      <trkpt lat="42.266831" lon="2.997496">
        <ele>27</ele>
        <time>1970-01-01T00:36:28.000Z</time>
      </trkpt>
      <trkpt lat="42.26686" lon="2.997506">
        <ele>27</ele>
        <time>1970-01-01T00:36:32.000Z</time>
      </trkpt>
      <trkpt lat="42.266888" lon="2.997516">
        <ele>27</ele>
        <time>1970-01-01T00:36:34.000Z</time>
      </trkpt>
      <trkpt lat="42.266916" lon="2.997526">
        <ele>27</ele>
        <time>1970-01-01T00:36:35.000Z</time>
      </trkpt>
      <trkpt lat="42.266945" lon="2.997536">
        <ele>27</ele>
        <time>1970-01-01T00:36:36.000Z</time>
      </trkpt>
      <trkpt lat="42.266973" lon="2.997546">
        <ele>28</ele>
        <time>1970-01-01T00:36:37.000Z</time>
      </trkpt>
      <trkpt lat="42.267015" lon="2.997562">
        <ele>28</ele>
        <time>1970-01-01T00:36:38.000Z</time>
      </trkpt>
      <trkpt lat="42.267031" lon="2.997573">
        <ele>28</ele>
        <time>1970-01-01T00:36:39.000Z</time>
      </trkpt>
      <trkpt lat="42.267048" lon="2.997584">
        <ele>28</ele>
        <time>1970-01-01T00:36:40.000Z</time>
      </trkpt>
      <trkpt lat="42.267065" lon="2.997595">
        <ele>28</ele>
        <time>1970-01-01T00:36:41.000Z</time>
      </trkpt>
      <trkpt lat="42.267081" lon="2.997607">
        <ele>28</ele>
        <time>1970-01-01T00:36:42.000Z</time>
      </trkpt>
      <trkpt lat="42.267098" lon="2.997618">
        <ele>28</ele>
        <time>1970-01-01T00:36:44.000Z</time>
      </trkpt>
      <trkpt lat="42.267115" lon="2.997629">
        <ele>28</ele>
        <time>1970-01-01T00:36:46.000Z</time>
      </trkpt>
      <trkpt lat="42.267131" lon="2.99764">
        <ele>28</ele>
        <time>1970-01-01T00:36:47.000Z</time>
      </trkpt>
      <trkpt lat="42.267148" lon="2.997651">
        <ele>28</ele>
        <time>1970-01-01T00:36:48.000Z</time>
      </trkpt>
      <trkpt lat="42.267231" lon="2.997665">
        <ele>28</ele>
        <time>1970-01-01T00:36:51.000Z</time>
      </trkpt>
      <trkpt lat="42.267267" lon="2.997676">
        <ele>28</ele>
        <time>1970-01-01T00:36:57.000Z</time>
      </trkpt>
      <trkpt lat="42.267304" lon="2.997686">
        <ele>27</ele>
        <time>1970-01-01T00:36:58.000Z</time>
      </trkpt>
      <trkpt lat="42.267319" lon="2.997736">
        <ele>27</ele>
        <time>1970-01-01T00:36:59.000Z</time>
      </trkpt>
      <trkpt lat="42.267324" lon="2.997771">
        <ele>27</ele>
        <time>1970-01-01T00:37:00.000Z</time>
      </trkpt>
      <trkpt lat="42.267328" lon="2.997806">
        <ele>27</ele>
        <time>1970-01-01T00:37:01.000Z</time>
      </trkpt>
      <trkpt lat="42.267332" lon="2.997841">
        <ele>27</ele>
        <time>1970-01-01T00:37:02.000Z</time>
      </trkpt>
      <trkpt lat="42.267337" lon="2.997876">
        <ele>27</ele>
        <time>1970-01-01T00:37:03.000Z</time>
      </trkpt>
      <trkpt lat="42.267341" lon="2.997911">
        <ele>27</ele>
        <time>1970-01-01T00:37:04.000Z</time>
      </trkpt>
      <trkpt lat="42.267345" lon="2.997946">
        <ele>27</ele>
        <time>1970-01-01T00:37:05.000Z</time>
      </trkpt>
      <trkpt lat="42.26735" lon="2.997981">
        <ele>27</ele>
        <time>1970-01-01T00:37:06.000Z</time>
      </trkpt>
      <trkpt lat="42.267354" lon="2.998016">
        <ele>27</ele>
        <time>1970-01-01T00:37:07.000Z</time>
      </trkpt>
      <trkpt lat="42.267357" lon="2.998097">
        <ele>27</ele>
        <time>1970-01-01T00:37:08.000Z</time>
      </trkpt>
      <trkpt lat="42.267359" lon="2.998134">
        <ele>27</ele>
        <time>1970-01-01T00:37:09.000Z</time>
      </trkpt>
      <trkpt lat="42.26736" lon="2.99817">
        <ele>27</ele>
        <time>1970-01-01T00:37:10.000Z</time>
      </trkpt>
      <trkpt lat="42.267361" lon="2.998206">
        <ele>27</ele>
        <time>1970-01-01T00:37:11.000Z</time>
      </trkpt>
      <trkpt lat="42.267363" lon="2.998242">
        <ele>27</ele>
        <time>1970-01-01T00:37:12.000Z</time>
      </trkpt>
      <trkpt lat="42.267364" lon="2.998279">
        <ele>27</ele>
        <time>1970-01-01T00:37:13.000Z</time>
      </trkpt>
      <trkpt lat="42.267365" lon="2.998315">
        <ele>27</ele>
        <time>1970-01-01T00:37:14.000Z</time>
      </trkpt>
      <trkpt lat="42.267366" lon="2.998351">
        <ele>27</ele>
        <time>1970-01-01T00:37:15.000Z</time>
      </trkpt>
      <trkpt lat="42.267368" lon="2.998388">
        <ele>27</ele>
        <time>1970-01-01T00:37:16.000Z</time>
      </trkpt>
      <trkpt lat="42.267369" lon="2.998424">
        <ele>27</ele>
        <time>1970-01-01T00:37:17.000Z</time>
      </trkpt>
      <trkpt lat="42.267364" lon="2.998501">
        <ele>27</ele>
        <time>1970-01-01T00:37:18.000Z</time>
      </trkpt>
      <trkpt lat="42.267356" lon="2.998539">
        <ele>27</ele>
        <time>1970-01-01T00:37:19.000Z</time>
      </trkpt>
      <trkpt lat="42.267348" lon="2.998576">
        <ele>27</ele>
        <time>1970-01-01T00:37:20.000Z</time>
      </trkpt>
      <trkpt lat="42.26734" lon="2.998614">
        <ele>27</ele>
        <time>1970-01-01T00:37:21.000Z</time>
      </trkpt>
      <trkpt lat="42.267332" lon="2.998652">
        <ele>27</ele>
        <time>1970-01-01T00:37:22.000Z</time>
      </trkpt>
      <trkpt lat="42.267323" lon="2.99869">
        <ele>27</ele>
        <time>1970-01-01T00:37:23.000Z</time>
      </trkpt>
      <trkpt lat="42.267315" lon="2.998728">
        <ele>27</ele>
        <time>1970-01-01T00:37:24.000Z</time>
      </trkpt>
      <trkpt lat="42.267307" lon="2.998766">
        <ele>27</ele>
        <time>1970-01-01T00:37:25.000Z</time>
      </trkpt>
      <trkpt lat="42.267299" lon="2.998803">
        <ele>27</ele>
        <time>1970-01-01T00:37:26.000Z</time>
      </trkpt>
      <trkpt lat="42.267291" lon="2.998841">
        <ele>27</ele>
        <time>1970-01-01T00:37:27.000Z</time>
      </trkpt>
      <trkpt lat="42.267283" lon="2.998879">
        <ele>27</ele>
        <time>1970-01-01T00:37:28.000Z</time>
      </trkpt>
      <trkpt lat="42.267268" lon="2.998979">
        <ele>27</ele>
        <time>1970-01-01T00:37:29.000Z</time>
      </trkpt>
      <trkpt lat="42.267274" lon="2.999028">
        <ele>27</ele>
        <time>1970-01-01T00:37:30.000Z</time>
      </trkpt>
      <trkpt lat="42.267279" lon="2.999076">
        <ele>27</ele>
        <time>1970-01-01T00:37:31.000Z</time>
      </trkpt>
      <trkpt lat="42.267285" lon="2.999125">
        <ele>27</ele>
        <time>1970-01-01T00:37:32.000Z</time>
      </trkpt>
      <trkpt lat="42.26729" lon="2.999174">
        <ele>27</ele>
        <time>1970-01-01T00:37:33.000Z</time>
      </trkpt>
      <trkpt lat="42.267296" lon="2.999223">
        <ele>27</ele>
        <time>1970-01-01T00:37:34.000Z</time>
      </trkpt>
      <trkpt lat="42.267301" lon="2.999271">
        <ele>27</ele>
        <time>1970-01-01T00:37:35.000Z</time>
      </trkpt>
      <trkpt lat="42.267307" lon="2.99932">
        <ele>27</ele>
        <time>1970-01-01T00:37:36.000Z</time>
      </trkpt>
      <trkpt lat="42.267312" lon="2.999369">
        <ele>27</ele>
        <time>1970-01-01T00:37:37.000Z</time>
      </trkpt>
      <trkpt lat="42.267343" lon="2.999469">
        <ele>27</ele>
        <time>1970-01-01T00:37:38.000Z</time>
      </trkpt>
      <trkpt lat="42.267354" lon="2.999519">
        <ele>27</ele>
        <time>1970-01-01T00:37:39.000Z</time>
      </trkpt>
      <trkpt lat="42.267365" lon="2.999569">
        <ele>27</ele>
        <time>1970-01-01T00:37:40.000Z</time>
      </trkpt>
      <trkpt lat="42.267376" lon="2.999619">
        <ele>27</ele>
        <time>1970-01-01T00:37:41.000Z</time>
      </trkpt>
      <trkpt lat="42.267388" lon="2.999669">
        <ele>27</ele>
        <time>1970-01-01T00:37:42.000Z</time>
      </trkpt>
      <trkpt lat="42.267399" lon="2.999719">
        <ele>27</ele>
        <time>1970-01-01T00:37:43.000Z</time>
      </trkpt>
      <trkpt lat="42.26741" lon="2.999769">
        <ele>27</ele>
        <time>1970-01-01T00:37:44.000Z</time>
      </trkpt>
      <trkpt lat="42.267421" lon="2.999819">
        <ele>27</ele>
        <time>1970-01-01T00:37:45.000Z</time>
      </trkpt>
      <trkpt lat="42.267432" lon="2.999869">
        <ele>27</ele>
        <time>1970-01-01T00:37:46.000Z</time>
      </trkpt>
      <trkpt lat="42.267443" lon="2.999919">
        <ele>27</ele>
        <time>1970-01-01T00:37:47.000Z</time>
      </trkpt>
      <trkpt lat="42.267449" lon="3.000028">
        <ele>27</ele>
        <time>1970-01-01T00:37:48.000Z</time>
      </trkpt>
      <trkpt lat="42.267451" lon="3.00008">
        <ele>27</ele>
        <time>1970-01-01T00:37:49.000Z</time>
      </trkpt>
      <trkpt lat="42.267453" lon="3.000131">
        <ele>27</ele>
        <time>1970-01-01T00:37:50.000Z</time>
      </trkpt>
      <trkpt lat="42.267455" lon="3.000183">
        <ele>27</ele>
        <time>1970-01-01T00:37:51.000Z</time>
      </trkpt>
      <trkpt lat="42.267457" lon="3.000234">
        <ele>27</ele>
        <time>1970-01-01T00:37:52.000Z</time>
      </trkpt>
      <trkpt lat="42.267458" lon="3.000285">
        <ele>27</ele>
        <time>1970-01-01T00:37:53.000Z</time>
      </trkpt>
      <trkpt lat="42.26746" lon="3.000337">
        <ele>27</ele>
        <time>1970-01-01T00:37:54.000Z</time>
      </trkpt>
      <trkpt lat="42.267462" lon="3.000388">
        <ele>27</ele>
        <time>1970-01-01T00:37:55.000Z</time>
      </trkpt>
      <trkpt lat="42.267464" lon="3.00044">
        <ele>27</ele>
        <time>1970-01-01T00:37:56.000Z</time>
      </trkpt>
      <trkpt lat="42.267466" lon="3.000491">
        <ele>26</ele>
        <time>1970-01-01T00:37:57.000Z</time>
      </trkpt>
      <trkpt lat="42.26747" lon="3.000598">
        <ele>26</ele>
        <time>1970-01-01T00:37:58.000Z</time>
      </trkpt>
      <trkpt lat="42.267472" lon="3.000649">
        <ele>26</ele>
        <time>1970-01-01T00:37:59.000Z</time>
      </trkpt>
      <trkpt lat="42.267473" lon="3.0007">
        <ele>26</ele>
        <time>1970-01-01T00:38:00.000Z</time>
      </trkpt>
      <trkpt lat="42.267475" lon="3.000751">
        <ele>26</ele>
        <time>1970-01-01T00:38:01.000Z</time>
      </trkpt>
      <trkpt lat="42.267477" lon="3.000802">
        <ele>26</ele>
        <time>1970-01-01T00:38:02.000Z</time>
      </trkpt>
      <trkpt lat="42.267479" lon="3.000854">
        <ele>26</ele>
        <time>1970-01-01T00:38:03.000Z</time>
      </trkpt>
      <trkpt lat="42.267481" lon="3.000905">
        <ele>26</ele>
        <time>1970-01-01T00:38:04.000Z</time>
      </trkpt>
      <trkpt lat="42.267482" lon="3.000956">
        <ele>26</ele>
        <time>1970-01-01T00:38:05.000Z</time>
      </trkpt>
      <trkpt lat="42.267484" lon="3.001007">
        <ele>26</ele>
        <time>1970-01-01T00:38:06.000Z</time>
      </trkpt>
      <trkpt lat="42.267486" lon="3.001058">
        <ele>26</ele>
        <time>1970-01-01T00:38:07.000Z</time>
      </trkpt>
      <trkpt lat="42.267492" lon="3.001163">
        <ele>26</ele>
        <time>1970-01-01T00:38:08.000Z</time>
      </trkpt>
      <trkpt lat="42.267495" lon="3.001214">
        <ele>26</ele>
        <time>1970-01-01T00:38:09.000Z</time>
      </trkpt>
      <trkpt lat="42.267499" lon="3.001264">
        <ele>26</ele>
        <time>1970-01-01T00:38:10.000Z</time>
      </trkpt>
      <trkpt lat="42.267502" lon="3.001315">
        <ele>26</ele>
        <time>1970-01-01T00:38:11.000Z</time>
      </trkpt>
      <trkpt lat="42.267505" lon="3.001365">
        <ele>26</ele>
        <time>1970-01-01T00:38:12.000Z</time>
      </trkpt>
      <trkpt lat="42.267508" lon="3.001416">
        <ele>26</ele>
        <time>1970-01-01T00:38:13.000Z</time>
      </trkpt>
      <trkpt lat="42.267511" lon="3.001466">
        <ele>26</ele>
        <time>1970-01-01T00:38:14.000Z</time>
      </trkpt>
      <trkpt lat="42.267515" lon="3.001517">
        <ele>26</ele>
        <time>1970-01-01T00:38:15.000Z</time>
      </trkpt>
      <trkpt lat="42.267518" lon="3.001567">
        <ele>26</ele>
        <time>1970-01-01T00:38:16.000Z</time>
      </trkpt>
      <trkpt lat="42.267521" lon="3.001618">
        <ele>26</ele>
        <time>1970-01-01T00:38:17.000Z</time>
      </trkpt>
      <trkpt lat="42.26753" lon="3.001726">
        <ele>26</ele>
        <time>1970-01-01T00:38:18.000Z</time>
      </trkpt>
      <trkpt lat="42.267535" lon="3.001777">
        <ele>26</ele>
        <time>1970-01-01T00:38:19.000Z</time>
      </trkpt>
      <trkpt lat="42.26754" lon="3.001829">
        <ele>26</ele>
        <time>1970-01-01T00:38:20.000Z</time>
      </trkpt>
      <trkpt lat="42.267545" lon="3.00188">
        <ele>26</ele>
        <time>1970-01-01T00:38:21.000Z</time>
      </trkpt>
      <trkpt lat="42.267551" lon="3.001931">
        <ele>26</ele>
        <time>1970-01-01T00:38:22.000Z</time>
      </trkpt>
      <trkpt lat="42.267556" lon="3.001982">
        <ele>26</ele>
        <time>1970-01-01T00:38:23.000Z</time>
      </trkpt>
      <trkpt lat="42.267561" lon="3.002033">
        <ele>26</ele>
        <time>1970-01-01T00:38:24.000Z</time>
      </trkpt>
      <trkpt lat="42.267566" lon="3.002085">
        <ele>26</ele>
        <time>1970-01-01T00:38:25.000Z</time>
      </trkpt>
      <trkpt lat="42.267571" lon="3.002136">
        <ele>26</ele>
        <time>1970-01-01T00:38:26.000Z</time>
      </trkpt>
      <trkpt lat="42.267576" lon="3.002187">
        <ele>27</ele>
        <time>1970-01-01T00:38:27.000Z</time>
      </trkpt>
      <trkpt lat="42.26759" lon="3.002295">
        <ele>27</ele>
        <time>1970-01-01T00:38:28.000Z</time>
      </trkpt>
      <trkpt lat="42.267596" lon="3.002346">
        <ele>27</ele>
        <time>1970-01-01T00:38:29.000Z</time>
      </trkpt>
      <trkpt lat="42.267603" lon="3.002397">
        <ele>27</ele>
        <time>1970-01-01T00:38:30.000Z</time>
      </trkpt>
      <trkpt lat="42.26761" lon="3.002448">
        <ele>27</ele>
        <time>1970-01-01T00:38:31.000Z</time>
      </trkpt>
      <trkpt lat="42.267617" lon="3.002499">
        <ele>27</ele>
        <time>1970-01-01T00:38:32.000Z</time>
      </trkpt>
      <trkpt lat="42.267623" lon="3.002551">
        <ele>27</ele>
        <time>1970-01-01T00:38:33.000Z</time>
      </trkpt>
      <trkpt lat="42.26763" lon="3.002602">
        <ele>27</ele>
        <time>1970-01-01T00:38:34.000Z</time>
      </trkpt>
      <trkpt lat="42.267637" lon="3.002653">
        <ele>27</ele>
        <time>1970-01-01T00:38:35.000Z</time>
      </trkpt>
      <trkpt lat="42.267644" lon="3.002704">
        <ele>27</ele>
        <time>1970-01-01T00:38:36.000Z</time>
      </trkpt>
      <trkpt lat="42.26765" lon="3.002755">
        <ele>27</ele>
        <time>1970-01-01T00:38:37.000Z</time>
      </trkpt>
      <trkpt lat="42.267657" lon="3.002806">
        <ele>26</ele>
        <time>1970-01-01T00:38:38.000Z</time>
      </trkpt>
      <trkpt lat="42.267672" lon="3.002909">
        <ele>26</ele>
        <time>1970-01-01T00:38:39.000Z</time>
      </trkpt>
      <trkpt lat="42.26768" lon="3.002957">
        <ele>26</ele>
        <time>1970-01-01T00:38:40.000Z</time>
      </trkpt>
      <trkpt lat="42.267688" lon="3.003005">
        <ele>26</ele>
        <time>1970-01-01T00:38:41.000Z</time>
      </trkpt>
      <trkpt lat="42.267696" lon="3.003053">
        <ele>26</ele>
        <time>1970-01-01T00:38:42.000Z</time>
      </trkpt>
      <trkpt lat="42.267705" lon="3.003102">
        <ele>26</ele>
        <time>1970-01-01T00:38:43.000Z</time>
      </trkpt>
      <trkpt lat="42.267713" lon="3.00315">
        <ele>26</ele>
        <time>1970-01-01T00:38:44.000Z</time>
      </trkpt>
      <trkpt lat="42.267721" lon="3.003198">
        <ele>26</ele>
        <time>1970-01-01T00:38:45.000Z</time>
      </trkpt>
      <trkpt lat="42.267729" lon="3.003246">
        <ele>26</ele>
        <time>1970-01-01T00:38:46.000Z</time>
      </trkpt>
      <trkpt lat="42.267737" lon="3.003294">
        <ele>27</ele>
        <time>1970-01-01T00:38:47.000Z</time>
      </trkpt>
      <trkpt lat="42.267757" lon="3.003401">
        <ele>27</ele>
        <time>1970-01-01T00:38:48.000Z</time>
      </trkpt>
      <trkpt lat="42.267767" lon="3.003452">
        <ele>27</ele>
        <time>1970-01-01T00:38:49.000Z</time>
      </trkpt>
      <trkpt lat="42.267777" lon="3.003504">
        <ele>27</ele>
        <time>1970-01-01T00:38:50.000Z</time>
      </trkpt>
      <trkpt lat="42.267787" lon="3.003555">
        <ele>27</ele>
        <time>1970-01-01T00:38:51.000Z</time>
      </trkpt>
      <trkpt lat="42.267798" lon="3.003607">
        <ele>27</ele>
        <time>1970-01-01T00:38:52.000Z</time>
      </trkpt>
      <trkpt lat="42.267808" lon="3.003659">
        <ele>27</ele>
        <time>1970-01-01T00:38:53.000Z</time>
      </trkpt>
      <trkpt lat="42.267818" lon="3.00371">
        <ele>27</ele>
        <time>1970-01-01T00:38:54.000Z</time>
      </trkpt>
      <trkpt lat="42.267828" lon="3.003762">
        <ele>27</ele>
        <time>1970-01-01T00:38:55.000Z</time>
      </trkpt>
      <trkpt lat="42.267838" lon="3.003813">
        <ele>27</ele>
        <time>1970-01-01T00:38:56.000Z</time>
      </trkpt>
      <trkpt lat="42.267848" lon="3.003865">
        <ele>28</ele>
        <time>1970-01-01T00:38:57.000Z</time>
      </trkpt>
      <trkpt lat="42.267873" lon="3.003979">
        <ele>28</ele>
        <time>1970-01-01T00:38:58.000Z</time>
      </trkpt>
      <trkpt lat="42.267886" lon="3.004033">
        <ele>28</ele>
        <time>1970-01-01T00:38:59.000Z</time>
      </trkpt>
      <trkpt lat="42.267899" lon="3.004087">
        <ele>28</ele>
        <time>1970-01-01T00:39:00.000Z</time>
      </trkpt>
      <trkpt lat="42.267912" lon="3.004141">
        <ele>28</ele>
        <time>1970-01-01T00:39:01.000Z</time>
      </trkpt>
      <trkpt lat="42.267925" lon="3.004195">
        <ele>28</ele>
        <time>1970-01-01T00:39:02.000Z</time>
      </trkpt>
      <trkpt lat="42.267937" lon="3.004249">
        <ele>28</ele>
        <time>1970-01-01T00:39:03.000Z</time>
      </trkpt>
      <trkpt lat="42.26795" lon="3.004303">
        <ele>28</ele>
        <time>1970-01-01T00:39:04.000Z</time>
      </trkpt>
      <trkpt lat="42.267963" lon="3.004357">
        <ele>28</ele>
        <time>1970-01-01T00:39:05.000Z</time>
      </trkpt>
      <trkpt lat="42.267976" lon="3.004411">
        <ele>28</ele>
        <time>1970-01-01T00:39:06.000Z</time>
      </trkpt>
      <trkpt lat="42.267989" lon="3.004465">
        <ele>27</ele>
        <time>1970-01-01T00:39:07.000Z</time>
      </trkpt>
      <trkpt lat="42.268017" lon="3.004582">
        <ele>27</ele>
        <time>1970-01-01T00:39:08.000Z</time>
      </trkpt>
      <trkpt lat="42.268031" lon="3.004638">
        <ele>27</ele>
        <time>1970-01-01T00:39:09.000Z</time>
      </trkpt>
      <trkpt lat="42.268044" lon="3.004693">
        <ele>27</ele>
        <time>1970-01-01T00:39:10.000Z</time>
      </trkpt>
      <trkpt lat="42.268058" lon="3.004748">
        <ele>27</ele>
        <time>1970-01-01T00:39:11.000Z</time>
      </trkpt>
      <trkpt lat="42.268071" lon="3.004803">
        <ele>27</ele>
        <time>1970-01-01T00:39:12.000Z</time>
      </trkpt>
      <trkpt lat="42.268084" lon="3.004859">
        <ele>27</ele>
        <time>1970-01-01T00:39:13.000Z</time>
      </trkpt>
      <trkpt lat="42.268098" lon="3.004914">
        <ele>27</ele>
        <time>1970-01-01T00:39:14.000Z</time>
      </trkpt>
      <trkpt lat="42.268111" lon="3.004969">
        <ele>27</ele>
        <time>1970-01-01T00:39:15.000Z</time>
      </trkpt>
      <trkpt lat="42.268125" lon="3.005025">
        <ele>27</ele>
        <time>1970-01-01T00:39:16.000Z</time>
      </trkpt>
      <trkpt lat="42.268138" lon="3.00508">
        <ele>27</ele>
        <time>1970-01-01T00:39:17.000Z</time>
      </trkpt>
      <trkpt lat="42.268165" lon="3.005197">
        <ele>27</ele>
        <time>1970-01-01T00:39:18.000Z</time>
      </trkpt>
      <trkpt lat="42.268179" lon="3.005254">
        <ele>27</ele>
        <time>1970-01-01T00:39:19.000Z</time>
      </trkpt>
      <trkpt lat="42.268192" lon="3.00531">
        <ele>27</ele>
        <time>1970-01-01T00:39:20.000Z</time>
      </trkpt>
      <trkpt lat="42.268206" lon="3.005367">
        <ele>27</ele>
        <time>1970-01-01T00:39:21.000Z</time>
      </trkpt>
      <trkpt lat="42.268219" lon="3.005423">
        <ele>27</ele>
        <time>1970-01-01T00:39:22.000Z</time>
      </trkpt>
      <trkpt lat="42.268232" lon="3.00548">
        <ele>27</ele>
        <time>1970-01-01T00:39:23.000Z</time>
      </trkpt>
      <trkpt lat="42.268246" lon="3.005536">
        <ele>27</ele>
        <time>1970-01-01T00:39:24.000Z</time>
      </trkpt>
      <trkpt lat="42.268259" lon="3.005593">
        <ele>27</ele>
        <time>1970-01-01T00:39:25.000Z</time>
      </trkpt>
      <trkpt lat="42.268273" lon="3.005649">
        <ele>27</ele>
        <time>1970-01-01T00:39:26.000Z</time>
      </trkpt>
      <trkpt lat="42.268286" lon="3.005706">
        <ele>26</ele>
        <time>1970-01-01T00:39:27.000Z</time>
      </trkpt>
      <trkpt lat="42.268311" lon="3.005826">
        <ele>26</ele>
        <time>1970-01-01T00:39:28.000Z</time>
      </trkpt>
      <trkpt lat="42.268322" lon="3.005882">
        <ele>26</ele>
        <time>1970-01-01T00:39:29.000Z</time>
      </trkpt>
      <trkpt lat="42.268332" lon="3.005939">
        <ele>26</ele>
        <time>1970-01-01T00:39:30.000Z</time>
      </trkpt>
      <trkpt lat="42.268343" lon="3.005995">
        <ele>26</ele>
        <time>1970-01-01T00:39:31.000Z</time>
      </trkpt>
      <trkpt lat="42.268354" lon="3.006051">
        <ele>26</ele>
        <time>1970-01-01T00:39:32.000Z</time>
      </trkpt>
      <trkpt lat="42.268365" lon="3.006107">
        <ele>26</ele>
        <time>1970-01-01T00:39:33.000Z</time>
      </trkpt>
      <trkpt lat="42.268376" lon="3.006163">
        <ele>26</ele>
        <time>1970-01-01T00:39:34.000Z</time>
      </trkpt>
      <trkpt lat="42.268386" lon="3.00622">
        <ele>26</ele>
        <time>1970-01-01T00:39:35.000Z</time>
      </trkpt>
      <trkpt lat="42.268397" lon="3.006276">
        <ele>26</ele>
        <time>1970-01-01T00:39:36.000Z</time>
      </trkpt>
      <trkpt lat="42.268408" lon="3.006332">
        <ele>26</ele>
        <time>1970-01-01T00:39:37.000Z</time>
      </trkpt>
      <trkpt lat="42.268426" lon="3.006448">
        <ele>26</ele>
        <time>1970-01-01T00:39:38.000Z</time>
      </trkpt>
      <trkpt lat="42.268434" lon="3.006504">
        <ele>26</ele>
        <time>1970-01-01T00:39:39.000Z</time>
      </trkpt>
      <trkpt lat="42.268441" lon="3.006559">
        <ele>26</ele>
        <time>1970-01-01T00:39:40.000Z</time>
      </trkpt>
      <trkpt lat="42.268449" lon="3.006614">
        <ele>26</ele>
        <time>1970-01-01T00:39:41.000Z</time>
      </trkpt>
      <trkpt lat="42.268457" lon="3.006669">
        <ele>26</ele>
        <time>1970-01-01T00:39:42.000Z</time>
      </trkpt>
      <trkpt lat="42.268465" lon="3.006725">
        <ele>26</ele>
        <time>1970-01-01T00:39:43.000Z</time>
      </trkpt>
      <trkpt lat="42.268473" lon="3.00678">
        <ele>26</ele>
        <time>1970-01-01T00:39:44.000Z</time>
      </trkpt>
      <trkpt lat="42.26848" lon="3.006835">
        <ele>26</ele>
        <time>1970-01-01T00:39:45.000Z</time>
      </trkpt>
      <trkpt lat="42.268488" lon="3.006891">
        <ele>26</ele>
        <time>1970-01-01T00:39:46.000Z</time>
      </trkpt>
      <trkpt lat="42.268496" lon="3.006946">
        <ele>26</ele>
        <time>1970-01-01T00:39:47.000Z</time>
      </trkpt>
      <trkpt lat="42.268494" lon="3.00706">
        <ele>26</ele>
        <time>1970-01-01T00:39:48.000Z</time>
      </trkpt>
      <trkpt lat="42.268486" lon="3.007116">
        <ele>26</ele>
        <time>1970-01-01T00:39:49.000Z</time>
      </trkpt>
      <trkpt lat="42.268479" lon="3.007172">
        <ele>26</ele>
        <time>1970-01-01T00:39:50.000Z</time>
      </trkpt>
      <trkpt lat="42.268472" lon="3.007228">
        <ele>26</ele>
        <time>1970-01-01T00:39:51.000Z</time>
      </trkpt>
      <trkpt lat="42.268464" lon="3.007284">
        <ele>26</ele>
        <time>1970-01-01T00:39:52.000Z</time>
      </trkpt>
      <trkpt lat="42.268457" lon="3.00734">
        <ele>26</ele>
        <time>1970-01-01T00:39:53.000Z</time>
      </trkpt>
      <trkpt lat="42.268449" lon="3.007396">
        <ele>26</ele>
        <time>1970-01-01T00:39:54.000Z</time>
      </trkpt>
      <trkpt lat="42.268442" lon="3.007452">
        <ele>26</ele>
        <time>1970-01-01T00:39:55.000Z</time>
      </trkpt>
      <trkpt lat="42.268435" lon="3.007508">
        <ele>26</ele>
        <time>1970-01-01T00:39:56.000Z</time>
      </trkpt>
      <trkpt lat="42.268427" lon="3.007564">
        <ele>26</ele>
        <time>1970-01-01T00:39:57.000Z</time>
      </trkpt>
      <trkpt lat="42.26842" lon="3.00762">
        <ele>26</ele>
        <time>1970-01-01T00:39:58.000Z</time>
      </trkpt>
      <trkpt lat="42.268453" lon="3.007745">
        <ele>26</ele>
        <time>1970-01-01T00:39:59.000Z</time>
      </trkpt>
      <trkpt lat="42.268469" lon="3.007802">
        <ele>26</ele>
        <time>1970-01-01T00:40:00.000Z</time>
      </trkpt>
      <trkpt lat="42.268485" lon="3.007858">
        <ele>26</ele>
        <time>1970-01-01T00:40:01.000Z</time>
      </trkpt>
      <trkpt lat="42.268501" lon="3.007915">
        <ele>26</ele>
        <time>1970-01-01T00:40:02.000Z</time>
      </trkpt>
      <trkpt lat="42.268516" lon="3.007971">
        <ele>26</ele>
        <time>1970-01-01T00:40:03.000Z</time>
      </trkpt>
      <trkpt lat="42.268532" lon="3.008028">
        <ele>26</ele>
        <time>1970-01-01T00:40:04.000Z</time>
      </trkpt>
      <trkpt lat="42.268548" lon="3.008084">
        <ele>26</ele>
        <time>1970-01-01T00:40:05.000Z</time>
      </trkpt>
      <trkpt lat="42.268564" lon="3.008141">
        <ele>26</ele>
        <time>1970-01-01T00:40:06.000Z</time>
      </trkpt>
      <trkpt lat="42.26858" lon="3.008197">
        <ele>25</ele>
        <time>1970-01-01T00:40:07.000Z</time>
      </trkpt>
      <trkpt lat="42.268589" lon="3.008324">
        <ele>25</ele>
        <time>1970-01-01T00:40:08.000Z</time>
      </trkpt>
      <trkpt lat="42.26859" lon="3.008386">
        <ele>25</ele>
        <time>1970-01-01T00:40:09.000Z</time>
      </trkpt>
      <trkpt lat="42.268592" lon="3.008447">
        <ele>25</ele>
        <time>1970-01-01T00:40:10.000Z</time>
      </trkpt>
      <trkpt lat="42.268593" lon="3.008508">
        <ele>25</ele>
        <time>1970-01-01T00:40:11.000Z</time>
      </trkpt>
      <trkpt lat="42.268595" lon="3.008569">
        <ele>25</ele>
        <time>1970-01-01T00:40:12.000Z</time>
      </trkpt>
      <trkpt lat="42.268597" lon="3.008631">
        <ele>25</ele>
        <time>1970-01-01T00:40:13.000Z</time>
      </trkpt>
      <trkpt lat="42.268598" lon="3.008692">
        <ele>25</ele>
        <time>1970-01-01T00:40:14.000Z</time>
      </trkpt>
      <trkpt lat="42.2686" lon="3.008753">
        <ele>25</ele>
        <time>1970-01-01T00:40:15.000Z</time>
      </trkpt>
      <trkpt lat="42.268601" lon="3.008815">
        <ele>25</ele>
        <time>1970-01-01T00:40:16.000Z</time>
      </trkpt>
      <trkpt lat="42.268603" lon="3.008876">
        <ele>25</ele>
        <time>1970-01-01T00:40:17.000Z</time>
      </trkpt>
      <trkpt lat="42.268606" lon="3.00901">
        <ele>25</ele>
        <time>1970-01-01T00:40:18.000Z</time>
      </trkpt>
      <trkpt lat="42.268609" lon="3.009074">
        <ele>25</ele>
        <time>1970-01-01T00:40:19.000Z</time>
      </trkpt>
      <trkpt lat="42.268611" lon="3.009137">
        <ele>25</ele>
        <time>1970-01-01T00:40:20.000Z</time>
      </trkpt>
      <trkpt lat="42.268613" lon="3.009201">
        <ele>25</ele>
        <time>1970-01-01T00:40:21.000Z</time>
      </trkpt>
      <trkpt lat="42.268616" lon="3.009264">
        <ele>25</ele>
        <time>1970-01-01T00:40:22.000Z</time>
      </trkpt>
      <trkpt lat="42.268618" lon="3.009327">
        <ele>25</ele>
        <time>1970-01-01T00:40:23.000Z</time>
      </trkpt>
      <trkpt lat="42.26862" lon="3.009391">
        <ele>25</ele>
        <time>1970-01-01T00:40:24.000Z</time>
      </trkpt>
      <trkpt lat="42.268622" lon="3.009454">
        <ele>25</ele>
        <time>1970-01-01T00:40:25.000Z</time>
      </trkpt>
      <trkpt lat="42.268625" lon="3.009518">
        <ele>25</ele>
        <time>1970-01-01T00:40:26.000Z</time>
      </trkpt>
      <trkpt lat="42.268627" lon="3.009581">
        <ele>25</ele>
        <time>1970-01-01T00:40:27.000Z</time>
      </trkpt>
      <trkpt lat="42.268637" lon="3.009716">
        <ele>25</ele>
        <time>1970-01-01T00:40:28.000Z</time>
      </trkpt>
      <trkpt lat="42.268643" lon="3.00978">
        <ele>25</ele>
        <time>1970-01-01T00:40:29.000Z</time>
      </trkpt>
      <trkpt lat="42.268649" lon="3.009844">
        <ele>25</ele>
        <time>1970-01-01T00:40:30.000Z</time>
      </trkpt>
      <trkpt lat="42.268655" lon="3.009908">
        <ele>25</ele>
        <time>1970-01-01T00:40:31.000Z</time>
      </trkpt>
      <trkpt lat="42.268661" lon="3.009972">
        <ele>25</ele>
        <time>1970-01-01T00:40:32.000Z</time>
      </trkpt>
      <trkpt lat="42.268666" lon="3.010036">
        <ele>25</ele>
        <time>1970-01-01T00:40:33.000Z</time>
      </trkpt>
      <trkpt lat="42.268672" lon="3.0101">
        <ele>25</ele>
        <time>1970-01-01T00:40:34.000Z</time>
      </trkpt>
      <trkpt lat="42.268678" lon="3.010164">
        <ele>25</ele>
        <time>1970-01-01T00:40:35.000Z</time>
      </trkpt>
      <trkpt lat="42.268684" lon="3.010228">
        <ele>25</ele>
        <time>1970-01-01T00:40:36.000Z</time>
      </trkpt>
      <trkpt lat="42.26869" lon="3.010292">
        <ele>25</ele>
        <time>1970-01-01T00:40:37.000Z</time>
      </trkpt>
      <trkpt lat="42.268707" lon="3.01043">
        <ele>25</ele>
        <time>1970-01-01T00:40:38.000Z</time>
      </trkpt>
      <trkpt lat="42.268717" lon="3.010496">
        <ele>25</ele>
        <time>1970-01-01T00:40:39.000Z</time>
      </trkpt>
      <trkpt lat="42.268726" lon="3.010562">
        <ele>25</ele>
        <time>1970-01-01T00:40:40.000Z</time>
      </trkpt>
      <trkpt lat="42.268735" lon="3.010628">
        <ele>25</ele>
        <time>1970-01-01T00:40:41.000Z</time>
      </trkpt>
      <trkpt lat="42.268745" lon="3.010694">
        <ele>25</ele>
        <time>1970-01-01T00:40:42.000Z</time>
      </trkpt>
      <trkpt lat="42.268754" lon="3.01076">
        <ele>25</ele>
        <time>1970-01-01T00:40:43.000Z</time>
      </trkpt>
      <trkpt lat="42.268763" lon="3.010826">
        <ele>25</ele>
        <time>1970-01-01T00:40:44.000Z</time>
      </trkpt>
      <trkpt lat="42.268772" lon="3.010892">
        <ele>25</ele>
        <time>1970-01-01T00:40:45.000Z</time>
      </trkpt>
      <trkpt lat="42.268782" lon="3.010958">
        <ele>25</ele>
        <time>1970-01-01T00:40:46.000Z</time>
      </trkpt>
      <trkpt lat="42.268791" lon="3.011024">
        <ele>23</ele>
        <time>1970-01-01T00:40:47.000Z</time>
      </trkpt>
      <trkpt lat="42.268812" lon="3.01117">
        <ele>23</ele>
        <time>1970-01-01T00:40:48.000Z</time>
      </trkpt>
      <trkpt lat="42.268822" lon="3.011241">
        <ele>23</ele>
        <time>1970-01-01T00:40:49.000Z</time>
      </trkpt>
      <trkpt lat="42.268833" lon="3.011311">
        <ele>23</ele>
        <time>1970-01-01T00:40:50.000Z</time>
      </trkpt>
      <trkpt lat="42.268843" lon="3.011381">
        <ele>23</ele>
        <time>1970-01-01T00:40:51.000Z</time>
      </trkpt>
      <trkpt lat="42.268854" lon="3.011451">
        <ele>23</ele>
        <time>1970-01-01T00:40:52.000Z</time>
      </trkpt>
      <trkpt lat="42.268865" lon="3.011522">
        <ele>23</ele>
        <time>1970-01-01T00:40:53.000Z</time>
      </trkpt>
      <trkpt lat="42.268875" lon="3.011592">
        <ele>23</ele>
        <time>1970-01-01T00:40:54.000Z</time>
      </trkpt>
      <trkpt lat="42.268886" lon="3.011662">
        <ele>23</ele>
        <time>1970-01-01T00:40:55.000Z</time>
      </trkpt>
      <trkpt lat="42.268896" lon="3.011733">
        <ele>23</ele>
        <time>1970-01-01T00:40:56.000Z</time>
      </trkpt>
      <trkpt lat="42.268907" lon="3.011803">
        <ele>23</ele>
        <time>1970-01-01T00:40:57.000Z</time>
      </trkpt>
      <trkpt lat="42.26893" lon="3.011958">
        <ele>23</ele>
        <time>1970-01-01T00:40:58.000Z</time>
      </trkpt>
      <trkpt lat="42.268942" lon="3.012033">
        <ele>23</ele>
        <time>1970-01-01T00:40:59.000Z</time>
      </trkpt>
      <trkpt lat="42.268953" lon="3.012108">
        <ele>23</ele>
        <time>1970-01-01T00:41:00.000Z</time>
      </trkpt>
      <trkpt lat="42.268964" lon="3.012183">
        <ele>23</ele>
        <time>1970-01-01T00:41:01.000Z</time>
      </trkpt>
      <trkpt lat="42.268975" lon="3.012258">
        <ele>23</ele>
        <time>1970-01-01T00:41:02.000Z</time>
      </trkpt>
      <trkpt lat="42.268987" lon="3.012332">
        <ele>23</ele>
        <time>1970-01-01T00:41:03.000Z</time>
      </trkpt>
      <trkpt lat="42.268998" lon="3.012407">
        <ele>23</ele>
        <time>1970-01-01T00:41:04.000Z</time>
      </trkpt>
      <trkpt lat="42.269009" lon="3.012482">
        <ele>23</ele>
        <time>1970-01-01T00:41:05.000Z</time>
      </trkpt>
      <trkpt lat="42.26902" lon="3.012557">
        <ele>23</ele>
        <time>1970-01-01T00:41:06.000Z</time>
      </trkpt>
      <trkpt lat="42.269032" lon="3.012632">
        <ele>23</ele>
        <time>1970-01-01T00:41:07.000Z</time>
      </trkpt>
      <trkpt lat="42.269043" lon="3.012707">
        <ele>23</ele>
        <time>1970-01-01T00:41:08.000Z</time>
      </trkpt>
      <trkpt lat="42.269066" lon="3.012864">
        <ele>23</ele>
        <time>1970-01-01T00:41:09.000Z</time>
      </trkpt>
      <trkpt lat="42.269077" lon="3.012938">
        <ele>23</ele>
        <time>1970-01-01T00:41:10.000Z</time>
      </trkpt>
      <trkpt lat="42.269089" lon="3.013011">
        <ele>23</ele>
        <time>1970-01-01T00:41:11.000Z</time>
      </trkpt>
      <trkpt lat="42.2691" lon="3.013084">
        <ele>23</ele>
        <time>1970-01-01T00:41:12.000Z</time>
      </trkpt>
      <trkpt lat="42.269111" lon="3.013158">
        <ele>23</ele>
        <time>1970-01-01T00:41:13.000Z</time>
      </trkpt>
      <trkpt lat="42.269122" lon="3.013231">
        <ele>23</ele>
        <time>1970-01-01T00:41:14.000Z</time>
      </trkpt>
      <trkpt lat="42.269134" lon="3.013304">
        <ele>23</ele>
        <time>1970-01-01T00:41:15.000Z</time>
      </trkpt>
      <trkpt lat="42.269145" lon="3.013378">
        <ele>23</ele>
        <time>1970-01-01T00:41:16.000Z</time>
      </trkpt>
      <trkpt lat="42.269156" lon="3.013451">
        <ele>22</ele>
        <time>1970-01-01T00:41:17.000Z</time>
      </trkpt>
      <trkpt lat="42.269178" lon="3.013608">
        <ele>22</ele>
        <time>1970-01-01T00:41:18.000Z</time>
      </trkpt>
      <trkpt lat="42.26919" lon="3.013682">
        <ele>22</ele>
        <time>1970-01-01T00:41:19.000Z</time>
      </trkpt>
      <trkpt lat="42.269201" lon="3.013757">
        <ele>22</ele>
        <time>1970-01-01T00:41:20.000Z</time>
      </trkpt>
      <trkpt lat="42.269212" lon="3.013831">
        <ele>22</ele>
        <time>1970-01-01T00:41:21.000Z</time>
      </trkpt>
      <trkpt lat="42.269224" lon="3.013906">
        <ele>22</ele>
        <time>1970-01-01T00:41:22.000Z</time>
      </trkpt>
      <trkpt lat="42.269235" lon="3.013981">
        <ele>22</ele>
        <time>1970-01-01T00:41:23.000Z</time>
      </trkpt>
      <trkpt lat="42.269246" lon="3.014055">
        <ele>22</ele>
        <time>1970-01-01T00:41:24.000Z</time>
      </trkpt>
      <trkpt lat="42.269257" lon="3.01413">
        <ele>22</ele>
        <time>1970-01-01T00:41:25.000Z</time>
      </trkpt>
      <trkpt lat="42.269269" lon="3.014204">
        <ele>22</ele>
        <time>1970-01-01T00:41:26.000Z</time>
      </trkpt>
      <trkpt lat="42.26928" lon="3.014279">
        <ele>22</ele>
        <time>1970-01-01T00:41:27.000Z</time>
      </trkpt>
      <trkpt lat="42.269306" lon="3.01444">
        <ele>22</ele>
        <time>1970-01-01T00:41:28.000Z</time>
      </trkpt>
      <trkpt lat="42.269317" lon="3.014516">
        <ele>22</ele>
        <time>1970-01-01T00:41:29.000Z</time>
      </trkpt>
      <trkpt lat="42.269329" lon="3.014592">
        <ele>22</ele>
        <time>1970-01-01T00:41:30.000Z</time>
      </trkpt>
      <trkpt lat="42.26934" lon="3.014668">
        <ele>22</ele>
        <time>1970-01-01T00:41:31.000Z</time>
      </trkpt>
      <trkpt lat="42.269352" lon="3.014743">
        <ele>22</ele>
        <time>1970-01-01T00:41:32.000Z</time>
      </trkpt>
      <trkpt lat="42.269363" lon="3.014819">
        <ele>22</ele>
        <time>1970-01-01T00:41:33.000Z</time>
      </trkpt>
      <trkpt lat="42.269375" lon="3.014895">
        <ele>22</ele>
        <time>1970-01-01T00:41:34.000Z</time>
      </trkpt>
      <trkpt lat="42.269386" lon="3.014971">
        <ele>22</ele>
        <time>1970-01-01T00:41:35.000Z</time>
      </trkpt>
      <trkpt lat="42.269398" lon="3.015047">
        <ele>22</ele>
        <time>1970-01-01T00:41:36.000Z</time>
      </trkpt>
      <trkpt lat="42.269409" lon="3.015123">
        <ele>21</ele>
        <time>1970-01-01T00:41:37.000Z</time>
      </trkpt>
      <trkpt lat="42.269434" lon="3.015284">
        <ele>21</ele>
        <time>1970-01-01T00:41:38.000Z</time>
      </trkpt>
      <trkpt lat="42.269446" lon="3.01536">
        <ele>21</ele>
        <time>1970-01-01T00:41:39.000Z</time>
      </trkpt>
      <trkpt lat="42.269457" lon="3.015437">
        <ele>21</ele>
        <time>1970-01-01T00:41:40.000Z</time>
      </trkpt>
      <trkpt lat="42.269469" lon="3.015513">
        <ele>21</ele>
        <time>1970-01-01T00:41:41.000Z</time>
      </trkpt>
      <trkpt lat="42.269481" lon="3.01559">
        <ele>21</ele>
        <time>1970-01-01T00:41:42.000Z</time>
      </trkpt>
      <trkpt lat="42.269493" lon="3.015667">
        <ele>21</ele>
        <time>1970-01-01T00:41:43.000Z</time>
      </trkpt>
      <trkpt lat="42.269505" lon="3.015743">
        <ele>21</ele>
        <time>1970-01-01T00:41:44.000Z</time>
      </trkpt>
      <trkpt lat="42.269516" lon="3.01582">
        <ele>21</ele>
        <time>1970-01-01T00:41:45.000Z</time>
      </trkpt>
      <trkpt lat="42.269528" lon="3.015896">
        <ele>21</ele>
        <time>1970-01-01T00:41:46.000Z</time>
      </trkpt>
      <trkpt lat="42.26954" lon="3.015973">
        <ele>21</ele>
        <time>1970-01-01T00:41:47.000Z</time>
      </trkpt>
      <trkpt lat="42.269565" lon="3.016137">
        <ele>21</ele>
        <time>1970-01-01T00:41:48.000Z</time>
      </trkpt>
      <trkpt lat="42.269576" lon="3.016215">
        <ele>21</ele>
        <time>1970-01-01T00:41:49.000Z</time>
      </trkpt>
      <trkpt lat="42.269588" lon="3.016294">
        <ele>21</ele>
        <time>1970-01-01T00:41:50.000Z</time>
      </trkpt>
      <trkpt lat="42.269599" lon="3.016372">
        <ele>21</ele>
        <time>1970-01-01T00:41:51.000Z</time>
      </trkpt>
      <trkpt lat="42.26961" lon="3.01645">
        <ele>21</ele>
        <time>1970-01-01T00:41:52.000Z</time>
      </trkpt>
      <trkpt lat="42.269621" lon="3.016528">
        <ele>21</ele>
        <time>1970-01-01T00:41:53.000Z</time>
      </trkpt>
      <trkpt lat="42.269632" lon="3.016606">
        <ele>21</ele>
        <time>1970-01-01T00:41:54.000Z</time>
      </trkpt>
      <trkpt lat="42.269644" lon="3.016685">
        <ele>21</ele>
        <time>1970-01-01T00:41:55.000Z</time>
      </trkpt>
      <trkpt lat="42.269655" lon="3.016763">
        <ele>21</ele>
        <time>1970-01-01T00:41:56.000Z</time>
      </trkpt>
      <trkpt lat="42.269666" lon="3.016841">
        <ele>20</ele>
        <time>1970-01-01T00:41:57.000Z</time>
      </trkpt>
      <trkpt lat="42.269682" lon="3.017007">
        <ele>20</ele>
        <time>1970-01-01T00:41:58.000Z</time>
      </trkpt>
      <trkpt lat="42.269688" lon="3.017085">
        <ele>20</ele>
        <time>1970-01-01T00:41:59.000Z</time>
      </trkpt>
      <trkpt lat="42.269695" lon="3.017162">
        <ele>20</ele>
        <time>1970-01-01T00:42:00.000Z</time>
      </trkpt>
      <trkpt lat="42.269701" lon="3.017239">
        <ele>20</ele>
        <time>1970-01-01T00:42:01.000Z</time>
      </trkpt>
      <trkpt lat="42.269707" lon="3.017316">
        <ele>20</ele>
        <time>1970-01-01T00:42:02.000Z</time>
      </trkpt>
      <trkpt lat="42.269713" lon="3.017394">
        <ele>20</ele>
        <time>1970-01-01T00:42:03.000Z</time>
      </trkpt>
      <trkpt lat="42.269719" lon="3.017471">
        <ele>20</ele>
        <time>1970-01-01T00:42:04.000Z</time>
      </trkpt>
      <trkpt lat="42.269726" lon="3.017548">
        <ele>20</ele>
        <time>1970-01-01T00:42:05.000Z</time>
      </trkpt>
      <trkpt lat="42.269732" lon="3.017626">
        <ele>20</ele>
        <time>1970-01-01T00:42:06.000Z</time>
      </trkpt>
      <trkpt lat="42.269738" lon="3.017703">
        <ele>20</ele>
        <time>1970-01-01T00:42:07.000Z</time>
      </trkpt>
      <trkpt lat="42.269741" lon="3.017864">
        <ele>20</ele>
        <time>1970-01-01T00:42:08.000Z</time>
      </trkpt>
      <trkpt lat="42.26974" lon="3.01794">
        <ele>20</ele>
        <time>1970-01-01T00:42:09.000Z</time>
      </trkpt>
      <trkpt lat="42.269738" lon="3.018016">
        <ele>20</ele>
        <time>1970-01-01T00:42:10.000Z</time>
      </trkpt>
      <trkpt lat="42.269737" lon="3.018092">
        <ele>20</ele>
        <time>1970-01-01T00:42:11.000Z</time>
      </trkpt>
      <trkpt lat="42.269736" lon="3.018168">
        <ele>20</ele>
        <time>1970-01-01T00:42:12.000Z</time>
      </trkpt>
      <trkpt lat="42.269735" lon="3.018244">
        <ele>20</ele>
        <time>1970-01-01T00:42:13.000Z</time>
      </trkpt>
      <trkpt lat="42.269734" lon="3.01832">
        <ele>20</ele>
        <time>1970-01-01T00:42:14.000Z</time>
      </trkpt>
      <trkpt lat="42.269733" lon="3.018396">
        <ele>20</ele>
        <time>1970-01-01T00:42:15.000Z</time>
      </trkpt>
      <trkpt lat="42.269731" lon="3.018472">
        <ele>20</ele>
        <time>1970-01-01T00:42:16.000Z</time>
      </trkpt>
      <trkpt lat="42.26973" lon="3.018548">
        <ele>20</ele>
        <time>1970-01-01T00:42:17.000Z</time>
      </trkpt>
      <trkpt lat="42.269729" lon="3.018624">
        <ele>19</ele>
        <time>1970-01-01T00:42:18.000Z</time>
      </trkpt>
      <trkpt lat="42.269716" lon="3.018782">
        <ele>19</ele>
        <time>1970-01-01T00:42:19.000Z</time>
      </trkpt>
      <trkpt lat="42.269709" lon="3.018858">
        <ele>19</ele>
        <time>1970-01-01T00:42:20.000Z</time>
      </trkpt>
      <trkpt lat="42.269701" lon="3.018933">
        <ele>19</ele>
        <time>1970-01-01T00:42:21.000Z</time>
      </trkpt>
      <trkpt lat="42.269694" lon="3.019009">
        <ele>19</ele>
        <time>1970-01-01T00:42:22.000Z</time>
      </trkpt>
      <trkpt lat="42.269686" lon="3.019084">
        <ele>19</ele>
        <time>1970-01-01T00:42:23.000Z</time>
      </trkpt>
      <trkpt lat="42.269679" lon="3.01916">
        <ele>19</ele>
        <time>1970-01-01T00:42:24.000Z</time>
      </trkpt>
      <trkpt lat="42.269671" lon="3.019235">
        <ele>19</ele>
        <time>1970-01-01T00:42:25.000Z</time>
      </trkpt>
      <trkpt lat="42.269664" lon="3.019311">
        <ele>19</ele>
        <time>1970-01-01T00:42:26.000Z</time>
      </trkpt>
      <trkpt lat="42.269656" lon="3.019386">
        <ele>19</ele>
        <time>1970-01-01T00:42:27.000Z</time>
      </trkpt>
      <trkpt lat="42.26963" lon="3.019545">
        <ele>19</ele>
        <time>1970-01-01T00:42:28.000Z</time>
      </trkpt>
      <trkpt lat="42.269615" lon="3.01962">
        <ele>19</ele>
        <time>1970-01-01T00:42:29.000Z</time>
      </trkpt>
      <trkpt lat="42.269601" lon="3.019695">
        <ele>19</ele>
        <time>1970-01-01T00:42:30.000Z</time>
      </trkpt>
      <trkpt lat="42.269587" lon="3.01977">
        <ele>19</ele>
        <time>1970-01-01T00:42:31.000Z</time>
      </trkpt>
      <trkpt lat="42.269573" lon="3.019846">
        <ele>19</ele>
        <time>1970-01-01T00:42:32.000Z</time>
      </trkpt>
      <trkpt lat="42.269558" lon="3.019921">
        <ele>19</ele>
        <time>1970-01-01T00:42:33.000Z</time>
      </trkpt>
      <trkpt lat="42.269544" lon="3.019996">
        <ele>19</ele>
        <time>1970-01-01T00:42:34.000Z</time>
      </trkpt>
      <trkpt lat="42.26953" lon="3.020071">
        <ele>19</ele>
        <time>1970-01-01T00:42:35.000Z</time>
      </trkpt>
      <trkpt lat="42.269515" lon="3.020146">
        <ele>19</ele>
        <time>1970-01-01T00:42:36.000Z</time>
      </trkpt>
      <trkpt lat="42.269501" lon="3.020221">
        <ele>18</ele>
        <time>1970-01-01T00:42:37.000Z</time>
      </trkpt>
      <trkpt lat="42.269462" lon="3.020373">
        <ele>18</ele>
        <time>1970-01-01T00:42:38.000Z</time>
      </trkpt>
      <trkpt lat="42.269442" lon="3.020443">
        <ele>18</ele>
        <time>1970-01-01T00:42:39.000Z</time>
      </trkpt>
      <trkpt lat="42.269422" lon="3.020514">
        <ele>18</ele>
        <time>1970-01-01T00:42:40.000Z</time>
      </trkpt>
      <trkpt lat="42.269402" lon="3.020584">
        <ele>18</ele>
        <time>1970-01-01T00:42:41.000Z</time>
      </trkpt>
      <trkpt lat="42.269382" lon="3.020655">
        <ele>18</ele>
        <time>1970-01-01T00:42:42.000Z</time>
      </trkpt>
      <trkpt lat="42.269361" lon="3.020726">
        <ele>18</ele>
        <time>1970-01-01T00:42:43.000Z</time>
      </trkpt>
      <trkpt lat="42.269341" lon="3.020796">
        <ele>18</ele>
        <time>1970-01-01T00:42:44.000Z</time>
      </trkpt>
      <trkpt lat="42.269321" lon="3.020867">
        <ele>18</ele>
        <time>1970-01-01T00:42:45.000Z</time>
      </trkpt>
      <trkpt lat="42.269301" lon="3.020937">
        <ele>18</ele>
        <time>1970-01-01T00:42:46.000Z</time>
      </trkpt>
      <trkpt lat="42.269281" lon="3.021008">
        <ele>18</ele>
        <time>1970-01-01T00:42:47.000Z</time>
      </trkpt>
      <trkpt lat="42.269231" lon="3.021156">
        <ele>18</ele>
        <time>1970-01-01T00:42:48.000Z</time>
      </trkpt>
      <trkpt lat="42.269208" lon="3.021226">
        <ele>18</ele>
        <time>1970-01-01T00:42:49.000Z</time>
      </trkpt>
      <trkpt lat="42.269184" lon="3.021297">
        <ele>18</ele>
        <time>1970-01-01T00:42:50.000Z</time>
      </trkpt>
      <trkpt lat="42.269161" lon="3.021368">
        <ele>18</ele>
        <time>1970-01-01T00:42:51.000Z</time>
      </trkpt>
      <trkpt lat="42.269137" lon="3.021438">
        <ele>18</ele>
        <time>1970-01-01T00:42:52.000Z</time>
      </trkpt>
      <trkpt lat="42.269114" lon="3.021509">
        <ele>18</ele>
        <time>1970-01-01T00:42:53.000Z</time>
      </trkpt>
      <trkpt lat="42.26909" lon="3.021579">
        <ele>18</ele>
        <time>1970-01-01T00:42:54.000Z</time>
      </trkpt>
      <trkpt lat="42.269067" lon="3.02165">
        <ele>18</ele>
        <time>1970-01-01T00:42:55.000Z</time>
      </trkpt>
      <trkpt lat="42.269043" lon="3.021721">
        <ele>18</ele>
        <time>1970-01-01T00:42:56.000Z</time>
      </trkpt>
      <trkpt lat="42.26902" lon="3.021791">
        <ele>18</ele>
        <time>1970-01-01T00:42:57.000Z</time>
      </trkpt>
      <trkpt lat="42.268996" lon="3.021862">
        <ele>17</ele>
        <time>1970-01-01T00:42:58.000Z</time>
      </trkpt>
      <trkpt lat="42.268946" lon="3.022007">
        <ele>17</ele>
        <time>1970-01-01T00:42:59.000Z</time>
      </trkpt>
      <trkpt lat="42.268922" lon="3.022077">
        <ele>17</ele>
        <time>1970-01-01T00:43:00.000Z</time>
      </trkpt>
      <trkpt lat="42.268898" lon="3.022146">
        <ele>17</ele>
        <time>1970-01-01T00:43:01.000Z</time>
      </trkpt>
      <trkpt lat="42.268874" lon="3.022216">
        <ele>17</ele>
        <time>1970-01-01T00:43:02.000Z</time>
      </trkpt>
      <trkpt lat="42.268851" lon="3.022285">
        <ele>17</ele>
        <time>1970-01-01T00:43:03.000Z</time>
      </trkpt>
      <trkpt lat="42.268827" lon="3.022354">
        <ele>17</ele>
        <time>1970-01-01T00:43:04.000Z</time>
      </trkpt>
      <trkpt lat="42.268803" lon="3.022424">
        <ele>17</ele>
        <time>1970-01-01T00:43:05.000Z</time>
      </trkpt>
      <trkpt lat="42.268779" lon="3.022493">
        <ele>17</ele>
        <time>1970-01-01T00:43:06.000Z</time>
      </trkpt>
      <trkpt lat="42.268755" lon="3.022563">
        <ele>17</ele>
        <time>1970-01-01T00:43:07.000Z</time>
      </trkpt>
      <trkpt lat="42.268731" lon="3.022632">
        <ele>17</ele>
        <time>1970-01-01T00:43:08.000Z</time>
      </trkpt>
      <trkpt lat="42.268679" lon="3.022779">
        <ele>17</ele>
        <time>1970-01-01T00:43:09.000Z</time>
      </trkpt>
      <trkpt lat="42.268654" lon="3.022849">
        <ele>17</ele>
        <time>1970-01-01T00:43:10.000Z</time>
      </trkpt>
      <trkpt lat="42.26863" lon="3.022918">
        <ele>17</ele>
        <time>1970-01-01T00:43:11.000Z</time>
      </trkpt>
      <trkpt lat="42.268605" lon="3.022987">
        <ele>17</ele>
        <time>1970-01-01T00:43:12.000Z</time>
      </trkpt>
      <trkpt lat="42.268581" lon="3.023057">
        <ele>17</ele>
        <time>1970-01-01T00:43:13.000Z</time>
      </trkpt>
      <trkpt lat="42.268556" lon="3.023126">
        <ele>17</ele>
        <time>1970-01-01T00:43:14.000Z</time>
      </trkpt>
      <trkpt lat="42.268532" lon="3.023195">
        <ele>17</ele>
        <time>1970-01-01T00:43:15.000Z</time>
      </trkpt>
      <trkpt lat="42.268507" lon="3.023265">
        <ele>17</ele>
        <time>1970-01-01T00:43:16.000Z</time>
      </trkpt>
      <trkpt lat="42.268483" lon="3.023334">
        <ele>17</ele>
        <time>1970-01-01T00:43:17.000Z</time>
      </trkpt>
      <trkpt lat="42.268431" lon="3.02348">
        <ele>17</ele>
        <time>1970-01-01T00:43:18.000Z</time>
      </trkpt>
      <trkpt lat="42.268407" lon="3.023549">
        <ele>17</ele>
        <time>1970-01-01T00:43:19.000Z</time>
      </trkpt>
      <trkpt lat="42.268384" lon="3.023617">
        <ele>17</ele>
        <time>1970-01-01T00:43:20.000Z</time>
      </trkpt>
      <trkpt lat="42.26836" lon="3.023686">
        <ele>17</ele>
        <time>1970-01-01T00:43:21.000Z</time>
      </trkpt>
      <trkpt lat="42.268336" lon="3.023755">
        <ele>17</ele>
        <time>1970-01-01T00:43:22.000Z</time>
      </trkpt>
      <trkpt lat="42.268312" lon="3.023824">
        <ele>17</ele>
        <time>1970-01-01T00:43:23.000Z</time>
      </trkpt>
      <trkpt lat="42.268288" lon="3.023893">
        <ele>17</ele>
        <time>1970-01-01T00:43:24.000Z</time>
      </trkpt>
      <trkpt lat="42.268265" lon="3.023961">
        <ele>17</ele>
        <time>1970-01-01T00:43:25.000Z</time>
      </trkpt>
      <trkpt lat="42.268241" lon="3.02403">
        <ele>17</ele>
        <time>1970-01-01T00:43:26.000Z</time>
      </trkpt>
      <trkpt lat="42.268217" lon="3.024099">
        <ele>16</ele>
        <time>1970-01-01T00:43:27.000Z</time>
      </trkpt>
      <trkpt lat="42.268167" lon="3.024245">
        <ele>16</ele>
        <time>1970-01-01T00:43:28.000Z</time>
      </trkpt>
      <trkpt lat="42.268143" lon="3.024315">
        <ele>16</ele>
        <time>1970-01-01T00:43:29.000Z</time>
      </trkpt>
      <trkpt lat="42.268119" lon="3.024385">
        <ele>16</ele>
        <time>1970-01-01T00:43:30.000Z</time>
      </trkpt>
      <trkpt lat="42.268095" lon="3.024455">
        <ele>16</ele>
        <time>1970-01-01T00:43:31.000Z</time>
      </trkpt>
      <trkpt lat="42.268071" lon="3.024525">
        <ele>16</ele>
        <time>1970-01-01T00:43:32.000Z</time>
      </trkpt>
      <trkpt lat="42.268047" lon="3.024596">
        <ele>16</ele>
        <time>1970-01-01T00:43:33.000Z</time>
      </trkpt>
      <trkpt lat="42.268023" lon="3.024666">
        <ele>16</ele>
        <time>1970-01-01T00:43:34.000Z</time>
      </trkpt>
      <trkpt lat="42.267999" lon="3.024736">
        <ele>16</ele>
        <time>1970-01-01T00:43:35.000Z</time>
      </trkpt>
      <trkpt lat="42.267975" lon="3.024806">
        <ele>16</ele>
        <time>1970-01-01T00:43:36.000Z</time>
      </trkpt>
      <trkpt lat="42.267951" lon="3.024876">
        <ele>16</ele>
        <time>1970-01-01T00:43:37.000Z</time>
      </trkpt>
      <trkpt lat="42.267927" lon="3.024946">
        <ele>15</ele>
        <time>1970-01-01T00:43:38.000Z</time>
      </trkpt>
      <trkpt lat="42.267878" lon="3.025095">
        <ele>15</ele>
        <time>1970-01-01T00:43:39.000Z</time>
      </trkpt>
      <trkpt lat="42.267854" lon="3.025164">
        <ele>15</ele>
        <time>1970-01-01T00:43:40.000Z</time>
      </trkpt>
      <trkpt lat="42.267829" lon="3.025234">
        <ele>15</ele>
        <time>1970-01-01T00:43:41.000Z</time>
      </trkpt>
      <trkpt lat="42.267805" lon="3.025304">
        <ele>15</ele>
        <time>1970-01-01T00:43:42.000Z</time>
      </trkpt>
      <trkpt lat="42.267781" lon="3.025373">
        <ele>15</ele>
        <time>1970-01-01T00:43:43.000Z</time>
      </trkpt>
      <trkpt lat="42.267757" lon="3.025443">
        <ele>15</ele>
        <time>1970-01-01T00:43:44.000Z</time>
      </trkpt>
      <trkpt lat="42.267732" lon="3.025513">
        <ele>15</ele>
        <time>1970-01-01T00:43:45.000Z</time>
      </trkpt>
      <trkpt lat="42.267708" lon="3.025582">
        <ele>15</ele>
        <time>1970-01-01T00:43:46.000Z</time>
      </trkpt>
      <trkpt lat="42.267684" lon="3.025652">
        <ele>15</ele>
        <time>1970-01-01T00:43:47.000Z</time>
      </trkpt>
      <trkpt lat="42.267632" lon="3.025804">
        <ele>15</ele>
        <time>1970-01-01T00:43:48.000Z</time>
      </trkpt>
      <trkpt lat="42.267607" lon="3.025876">
        <ele>15</ele>
        <time>1970-01-01T00:43:49.000Z</time>
      </trkpt>
      <trkpt lat="42.267583" lon="3.025948">
        <ele>15</ele>
        <time>1970-01-01T00:43:50.000Z</time>
      </trkpt>
      <trkpt lat="42.267558" lon="3.02602">
        <ele>15</ele>
        <time>1970-01-01T00:43:51.000Z</time>
      </trkpt>
      <trkpt lat="42.267534" lon="3.026092">
        <ele>15</ele>
        <time>1970-01-01T00:43:52.000Z</time>
      </trkpt>
      <trkpt lat="42.267509" lon="3.026163">
        <ele>15</ele>
        <time>1970-01-01T00:43:53.000Z</time>
      </trkpt>
      <trkpt lat="42.267485" lon="3.026235">
        <ele>15</ele>
        <time>1970-01-01T00:43:54.000Z</time>
      </trkpt>
      <trkpt lat="42.26746" lon="3.026307">
        <ele>15</ele>
        <time>1970-01-01T00:43:55.000Z</time>
      </trkpt>
      <trkpt lat="42.267436" lon="3.026379">
        <ele>15</ele>
        <time>1970-01-01T00:43:56.000Z</time>
      </trkpt>
      <trkpt lat="42.267411" lon="3.026451">
        <ele>15</ele>
        <time>1970-01-01T00:43:57.000Z</time>
      </trkpt>
      <trkpt lat="42.267359" lon="3.026596">
        <ele>15</ele>
        <time>1970-01-01T00:43:58.000Z</time>
      </trkpt>
      <trkpt lat="42.267334" lon="3.026664">
        <ele>15</ele>
        <time>1970-01-01T00:43:59.000Z</time>
      </trkpt>
      <trkpt lat="42.26731" lon="3.026732">
        <ele>15</ele>
        <time>1970-01-01T00:44:00.000Z</time>
      </trkpt>
      <trkpt lat="42.267286" lon="3.0268">
        <ele>15</ele>
        <time>1970-01-01T00:44:01.000Z</time>
      </trkpt>
      <trkpt lat="42.267262" lon="3.026868">
        <ele>15</ele>
        <time>1970-01-01T00:44:02.000Z</time>
      </trkpt>
      <trkpt lat="42.267237" lon="3.026935">
        <ele>15</ele>
        <time>1970-01-01T00:44:03.000Z</time>
      </trkpt>
      <trkpt lat="42.267213" lon="3.027003">
        <ele>15</ele>
        <time>1970-01-01T00:44:04.000Z</time>
      </trkpt>
      <trkpt lat="42.267189" lon="3.027071">
        <ele>15</ele>
        <time>1970-01-01T00:44:05.000Z</time>
      </trkpt>
      <trkpt lat="42.267164" lon="3.027139">
        <ele>15</ele>
        <time>1970-01-01T00:44:06.000Z</time>
      </trkpt>
      <trkpt lat="42.26714" lon="3.027207">
        <ele>14</ele>
        <time>1970-01-01T00:44:07.000Z</time>
      </trkpt>
      <trkpt lat="42.267091" lon="3.027348">
        <ele>14</ele>
        <time>1970-01-01T00:44:08.000Z</time>
      </trkpt>
      <trkpt lat="42.267069" lon="3.027415">
        <ele>14</ele>
        <time>1970-01-01T00:44:09.000Z</time>
      </trkpt>
      <trkpt lat="42.267046" lon="3.027483">
        <ele>14</ele>
        <time>1970-01-01T00:44:10.000Z</time>
      </trkpt>
      <trkpt lat="42.267023" lon="3.02755">
        <ele>14</ele>
        <time>1970-01-01T00:44:11.000Z</time>
      </trkpt>
      <trkpt lat="42.267001" lon="3.027618">
        <ele>14</ele>
        <time>1970-01-01T00:44:12.000Z</time>
      </trkpt>
      <trkpt lat="42.266978" lon="3.027686">
        <ele>14</ele>
        <time>1970-01-01T00:44:13.000Z</time>
      </trkpt>
      <trkpt lat="42.266955" lon="3.027753">
        <ele>14</ele>
        <time>1970-01-01T00:44:14.000Z</time>
      </trkpt>
      <trkpt lat="42.266932" lon="3.027821">
        <ele>14</ele>
        <time>1970-01-01T00:44:15.000Z</time>
      </trkpt>
      <trkpt lat="42.26691" lon="3.027888">
        <ele>14</ele>
        <time>1970-01-01T00:44:16.000Z</time>
      </trkpt>
      <trkpt lat="42.266887" lon="3.027956">
        <ele>14</ele>
        <time>1970-01-01T00:44:17.000Z</time>
      </trkpt>
      <trkpt lat="42.266839" lon="3.028095">
        <ele>14</ele>
        <time>1970-01-01T00:44:18.000Z</time>
      </trkpt>
      <trkpt lat="42.266816" lon="3.02816">
        <ele>14</ele>
        <time>1970-01-01T00:44:19.000Z</time>
      </trkpt>
      <trkpt lat="42.266793" lon="3.028225">
        <ele>14</ele>
        <time>1970-01-01T00:44:20.000Z</time>
      </trkpt>
      <trkpt lat="42.26677" lon="3.02829">
        <ele>14</ele>
        <time>1970-01-01T00:44:21.000Z</time>
      </trkpt>
      <trkpt lat="42.266747" lon="3.028355">
        <ele>14</ele>
        <time>1970-01-01T00:44:22.000Z</time>
      </trkpt>
      <trkpt lat="42.266724" lon="3.028421">
        <ele>14</ele>
        <time>1970-01-01T00:44:23.000Z</time>
      </trkpt>
      <trkpt lat="42.266701" lon="3.028486">
        <ele>14</ele>
        <time>1970-01-01T00:44:24.000Z</time>
      </trkpt>
      <trkpt lat="42.266678" lon="3.028551">
        <ele>14</ele>
        <time>1970-01-01T00:44:25.000Z</time>
      </trkpt>
      <trkpt lat="42.266655" lon="3.028616">
        <ele>14</ele>
        <time>1970-01-01T00:44:26.000Z</time>
      </trkpt>
      <trkpt lat="42.266632" lon="3.028681">
        <ele>14</ele>
        <time>1970-01-01T00:44:27.000Z</time>
      </trkpt>
      <trkpt lat="42.266609" lon="3.028746">
        <ele>13</ele>
        <time>1970-01-01T00:44:28.000Z</time>
      </trkpt>
      <trkpt lat="42.266562" lon="3.028878">
        <ele>13</ele>
        <time>1970-01-01T00:44:29.000Z</time>
      </trkpt>
      <trkpt lat="42.26654" lon="3.028939">
        <ele>13</ele>
        <time>1970-01-01T00:44:30.000Z</time>
      </trkpt>
      <trkpt lat="42.266519" lon="3.029001">
        <ele>13</ele>
        <time>1970-01-01T00:44:31.000Z</time>
      </trkpt>
      <trkpt lat="42.266497" lon="3.029063">
        <ele>13</ele>
        <time>1970-01-01T00:44:32.000Z</time>
      </trkpt>
      <trkpt lat="42.266476" lon="3.029124">
        <ele>13</ele>
        <time>1970-01-01T00:44:33.000Z</time>
      </trkpt>
      <trkpt lat="42.266454" lon="3.029186">
        <ele>13</ele>
        <time>1970-01-01T00:44:34.000Z</time>
      </trkpt>
      <trkpt lat="42.266433" lon="3.029248">
        <ele>13</ele>
        <time>1970-01-01T00:44:35.000Z</time>
      </trkpt>
      <trkpt lat="42.266411" lon="3.029309">
        <ele>13</ele>
        <time>1970-01-01T00:44:36.000Z</time>
      </trkpt>
      <trkpt lat="42.26639" lon="3.029371">
        <ele>13</ele>
        <time>1970-01-01T00:44:37.000Z</time>
      </trkpt>
      <trkpt lat="42.266344" lon="3.0295">
        <ele>13</ele>
        <time>1970-01-01T00:44:38.000Z</time>
      </trkpt>
      <trkpt lat="42.266324" lon="3.029561">
        <ele>13</ele>
        <time>1970-01-01T00:44:39.000Z</time>
      </trkpt>
      <trkpt lat="42.266303" lon="3.029622">
        <ele>13</ele>
        <time>1970-01-01T00:44:40.000Z</time>
      </trkpt>
      <trkpt lat="42.266283" lon="3.029683">
        <ele>13</ele>
        <time>1970-01-01T00:44:41.000Z</time>
      </trkpt>
      <trkpt lat="42.266262" lon="3.029745">
        <ele>13</ele>
        <time>1970-01-01T00:44:42.000Z</time>
      </trkpt>
      <trkpt lat="42.266241" lon="3.029806">
        <ele>13</ele>
        <time>1970-01-01T00:44:43.000Z</time>
      </trkpt>
      <trkpt lat="42.266221" lon="3.029867">
        <ele>13</ele>
        <time>1970-01-01T00:44:44.000Z</time>
      </trkpt>
      <trkpt lat="42.2662" lon="3.029928">
        <ele>13</ele>
        <time>1970-01-01T00:44:45.000Z</time>
      </trkpt>
      <trkpt lat="42.26618" lon="3.029989">
        <ele>13</ele>
        <time>1970-01-01T00:44:46.000Z</time>
      </trkpt>
      <trkpt lat="42.266159" lon="3.03005">
        <ele>13</ele>
        <time>1970-01-01T00:44:47.000Z</time>
      </trkpt>
      <trkpt lat="42.266115" lon="3.03018">
        <ele>13</ele>
        <time>1970-01-01T00:44:48.000Z</time>
      </trkpt>
      <trkpt lat="42.266094" lon="3.030242">
        <ele>13</ele>
        <time>1970-01-01T00:44:49.000Z</time>
      </trkpt>
      <trkpt lat="42.266073" lon="3.030304">
        <ele>13</ele>
        <time>1970-01-01T00:44:50.000Z</time>
      </trkpt>
      <trkpt lat="42.266052" lon="3.030366">
        <ele>13</ele>
        <time>1970-01-01T00:44:51.000Z</time>
      </trkpt>
      <trkpt lat="42.266032" lon="3.030429">
        <ele>13</ele>
        <time>1970-01-01T00:44:52.000Z</time>
      </trkpt>
      <trkpt lat="42.266011" lon="3.030491">
        <ele>13</ele>
        <time>1970-01-01T00:44:53.000Z</time>
      </trkpt>
      <trkpt lat="42.26599" lon="3.030553">
        <ele>13</ele>
        <time>1970-01-01T00:44:54.000Z</time>
      </trkpt>
      <trkpt lat="42.265969" lon="3.030615">
        <ele>13</ele>
        <time>1970-01-01T00:44:55.000Z</time>
      </trkpt>
      <trkpt lat="42.265948" lon="3.030677">
        <ele>13</ele>
        <time>1970-01-01T00:44:56.000Z</time>
      </trkpt>
      <trkpt lat="42.265927" lon="3.030739">
        <ele>14</ele>
        <time>1970-01-01T00:44:57.000Z</time>
      </trkpt>
      <trkpt lat="42.26588" lon="3.030869">
        <ele>14</ele>
        <time>1970-01-01T00:44:58.000Z</time>
      </trkpt>
      <trkpt lat="42.265859" lon="3.030929">
        <ele>14</ele>
        <time>1970-01-01T00:44:59.000Z</time>
      </trkpt>
      <trkpt lat="42.265837" lon="3.030989">
        <ele>14</ele>
        <time>1970-01-01T00:45:00.000Z</time>
      </trkpt>
      <trkpt lat="42.265816" lon="3.031049">
        <ele>14</ele>
        <time>1970-01-01T00:45:01.000Z</time>
      </trkpt>
      <trkpt lat="42.265794" lon="3.031109">
        <ele>14</ele>
        <time>1970-01-01T00:45:02.000Z</time>
      </trkpt>
      <trkpt lat="42.265772" lon="3.031168">
        <ele>14</ele>
        <time>1970-01-01T00:45:03.000Z</time>
      </trkpt>
      <trkpt lat="42.265751" lon="3.031228">
        <ele>14</ele>
        <time>1970-01-01T00:45:04.000Z</time>
      </trkpt>
      <trkpt lat="42.265729" lon="3.031288">
        <ele>14</ele>
        <time>1970-01-01T00:45:05.000Z</time>
      </trkpt>
      <trkpt lat="42.265708" lon="3.031348">
        <ele>14</ele>
        <time>1970-01-01T00:45:06.000Z</time>
      </trkpt>
      <trkpt lat="42.265686" lon="3.031408">
        <ele>14</ele>
        <time>1970-01-01T00:45:07.000Z</time>
      </trkpt>
      <trkpt lat="42.265637" lon="3.031531">
        <ele>14</ele>
        <time>1970-01-01T00:45:08.000Z</time>
      </trkpt>
      <trkpt lat="42.265613" lon="3.031588">
        <ele>14</ele>
        <time>1970-01-01T00:45:09.000Z</time>
      </trkpt>
      <trkpt lat="42.26559" lon="3.031646">
        <ele>14</ele>
        <time>1970-01-01T00:45:10.000Z</time>
      </trkpt>
      <trkpt lat="42.265566" lon="3.031703">
        <ele>14</ele>
        <time>1970-01-01T00:45:11.000Z</time>
      </trkpt>
      <trkpt lat="42.265543" lon="3.031761">
        <ele>14</ele>
        <time>1970-01-01T00:45:12.000Z</time>
      </trkpt>
      <trkpt lat="42.26552" lon="3.031819">
        <ele>14</ele>
        <time>1970-01-01T00:45:13.000Z</time>
      </trkpt>
      <trkpt lat="42.265496" lon="3.031876">
        <ele>14</ele>
        <time>1970-01-01T00:45:14.000Z</time>
      </trkpt>
      <trkpt lat="42.265473" lon="3.031934">
        <ele>14</ele>
        <time>1970-01-01T00:45:15.000Z</time>
      </trkpt>
      <trkpt lat="42.265449" lon="3.031991">
        <ele>14</ele>
        <time>1970-01-01T00:45:16.000Z</time>
      </trkpt>
      <trkpt lat="42.265426" lon="3.032049">
        <ele>14</ele>
        <time>1970-01-01T00:45:17.000Z</time>
      </trkpt>
      <trkpt lat="42.265373" lon="3.032165">
        <ele>14</ele>
        <time>1970-01-01T00:45:18.000Z</time>
      </trkpt>
      <trkpt lat="42.265348" lon="3.03222">
        <ele>14</ele>
        <time>1970-01-01T00:45:19.000Z</time>
      </trkpt>
      <trkpt lat="42.265322" lon="3.032274">
        <ele>14</ele>
        <time>1970-01-01T00:45:20.000Z</time>
      </trkpt>
      <trkpt lat="42.265297" lon="3.032329">
        <ele>14</ele>
        <time>1970-01-01T00:45:21.000Z</time>
      </trkpt>
      <trkpt lat="42.265271" lon="3.032384">
        <ele>14</ele>
        <time>1970-01-01T00:45:22.000Z</time>
      </trkpt>
      <trkpt lat="42.265245" lon="3.032439">
        <ele>14</ele>
        <time>1970-01-01T00:45:23.000Z</time>
      </trkpt>
      <trkpt lat="42.26522" lon="3.032494">
        <ele>14</ele>
        <time>1970-01-01T00:45:24.000Z</time>
      </trkpt>
      <trkpt lat="42.265194" lon="3.032548">
        <ele>14</ele>
        <time>1970-01-01T00:45:25.000Z</time>
      </trkpt>
      <trkpt lat="42.265169" lon="3.032603">
        <ele>14</ele>
        <time>1970-01-01T00:45:26.000Z</time>
      </trkpt>
      <trkpt lat="42.265143" lon="3.032658">
        <ele>13</ele>
        <time>1970-01-01T00:45:27.000Z</time>
      </trkpt>
      <trkpt lat="42.265084" lon="3.032773">
        <ele>13</ele>
        <time>1970-01-01T00:45:28.000Z</time>
      </trkpt>
      <trkpt lat="42.265055" lon="3.032828">
        <ele>13</ele>
        <time>1970-01-01T00:45:29.000Z</time>
      </trkpt>
      <trkpt lat="42.265025" lon="3.032883">
        <ele>13</ele>
        <time>1970-01-01T00:45:30.000Z</time>
      </trkpt>
      <trkpt lat="42.264995" lon="3.032938">
        <ele>13</ele>
        <time>1970-01-01T00:45:31.000Z</time>
      </trkpt>
      <trkpt lat="42.264966" lon="3.032993">
        <ele>13</ele>
        <time>1970-01-01T00:45:32.000Z</time>
      </trkpt>
      <trkpt lat="42.264936" lon="3.033049">
        <ele>13</ele>
        <time>1970-01-01T00:45:33.000Z</time>
      </trkpt>
      <trkpt lat="42.264907" lon="3.033104">
        <ele>13</ele>
        <time>1970-01-01T00:45:34.000Z</time>
      </trkpt>
      <trkpt lat="42.264877" lon="3.033159">
        <ele>13</ele>
        <time>1970-01-01T00:45:35.000Z</time>
      </trkpt>
      <trkpt lat="42.264847" lon="3.033214">
        <ele>13</ele>
        <time>1970-01-01T00:45:36.000Z</time>
      </trkpt>
      <trkpt lat="42.264818" lon="3.033269">
        <ele>13</ele>
        <time>1970-01-01T00:45:37.000Z</time>
      </trkpt>
      <trkpt lat="42.264788" lon="3.033324">
        <ele>13</ele>
        <time>1970-01-01T00:45:38.000Z</time>
      </trkpt>
      <trkpt lat="42.264721" lon="3.033437">
        <ele>13</ele>
        <time>1970-01-01T00:45:39.000Z</time>
      </trkpt>
      <trkpt lat="42.264688" lon="3.033491">
        <ele>13</ele>
        <time>1970-01-01T00:45:40.000Z</time>
      </trkpt>
      <trkpt lat="42.264655" lon="3.033544">
        <ele>13</ele>
        <time>1970-01-01T00:45:41.000Z</time>
      </trkpt>
      <trkpt lat="42.264622" lon="3.033597">
        <ele>13</ele>
        <time>1970-01-01T00:45:42.000Z</time>
      </trkpt>
      <trkpt lat="42.26459" lon="3.033651">
        <ele>13</ele>
        <time>1970-01-01T00:45:43.000Z</time>
      </trkpt>
      <trkpt lat="42.264557" lon="3.033704">
        <ele>13</ele>
        <time>1970-01-01T00:45:44.000Z</time>
      </trkpt>
      <trkpt lat="42.264524" lon="3.033757">
        <ele>13</ele>
        <time>1970-01-01T00:45:45.000Z</time>
      </trkpt>
      <trkpt lat="42.264491" lon="3.033811">
        <ele>13</ele>
        <time>1970-01-01T00:45:46.000Z</time>
      </trkpt>
      <trkpt lat="42.264458" lon="3.033864">
        <ele>13</ele>
        <time>1970-01-01T00:45:47.000Z</time>
      </trkpt>
      <trkpt lat="42.264383" lon="3.033976">
        <ele>13</ele>
        <time>1970-01-01T00:45:48.000Z</time>
      </trkpt>
      <trkpt lat="42.264346" lon="3.034028">
        <ele>13</ele>
        <time>1970-01-01T00:45:49.000Z</time>
      </trkpt>
      <trkpt lat="42.26431" lon="3.03408">
        <ele>13</ele>
        <time>1970-01-01T00:45:50.000Z</time>
      </trkpt>
      <trkpt lat="42.264273" lon="3.034132">
        <ele>13</ele>
        <time>1970-01-01T00:45:51.000Z</time>
      </trkpt>
      <trkpt lat="42.264237" lon="3.034184">
        <ele>13</ele>
        <time>1970-01-01T00:45:52.000Z</time>
      </trkpt>
      <trkpt lat="42.2642" lon="3.034236">
        <ele>13</ele>
        <time>1970-01-01T00:45:53.000Z</time>
      </trkpt>
      <trkpt lat="42.264164" lon="3.034288">
        <ele>13</ele>
        <time>1970-01-01T00:45:54.000Z</time>
      </trkpt>
      <trkpt lat="42.264127" lon="3.03434">
        <ele>13</ele>
        <time>1970-01-01T00:45:55.000Z</time>
      </trkpt>
      <trkpt lat="42.264091" lon="3.034392">
        <ele>13</ele>
        <time>1970-01-01T00:45:56.000Z</time>
      </trkpt>
      <trkpt lat="42.264054" lon="3.034444">
        <ele>13</ele>
        <time>1970-01-01T00:45:57.000Z</time>
      </trkpt>
      <trkpt lat="42.263975" lon="3.034547">
        <ele>13</ele>
        <time>1970-01-01T00:45:58.000Z</time>
      </trkpt>
      <trkpt lat="42.263937" lon="3.034595">
        <ele>13</ele>
        <time>1970-01-01T00:45:59.000Z</time>
      </trkpt>
      <trkpt lat="42.2639" lon="3.034643">
        <ele>13</ele>
        <time>1970-01-01T00:46:00.000Z</time>
      </trkpt>
      <trkpt lat="42.263862" lon="3.034691">
        <ele>13</ele>
        <time>1970-01-01T00:46:01.000Z</time>
      </trkpt>
      <trkpt lat="42.263825" lon="3.034739">
        <ele>13</ele>
        <time>1970-01-01T00:46:02.000Z</time>
      </trkpt>
      <trkpt lat="42.263788" lon="3.034787">
        <ele>13</ele>
        <time>1970-01-01T00:46:03.000Z</time>
      </trkpt>
      <trkpt lat="42.26375" lon="3.034835">
        <ele>13</ele>
        <time>1970-01-01T00:46:04.000Z</time>
      </trkpt>
      <trkpt lat="42.263713" lon="3.034883">
        <ele>13</ele>
        <time>1970-01-01T00:46:05.000Z</time>
      </trkpt>
      <trkpt lat="42.263675" lon="3.034931">
        <ele>13</ele>
        <time>1970-01-01T00:46:06.000Z</time>
      </trkpt>
      <trkpt lat="42.263638" lon="3.034979">
        <ele>12</ele>
        <time>1970-01-01T00:46:07.000Z</time>
      </trkpt>
      <trkpt lat="42.263557" lon="3.035073">
        <ele>12</ele>
        <time>1970-01-01T00:46:08.000Z</time>
      </trkpt>
      <trkpt lat="42.263517" lon="3.035117">
        <ele>12</ele>
        <time>1970-01-01T00:46:09.000Z</time>
      </trkpt>
      <trkpt lat="42.263478" lon="3.03516">
        <ele>12</ele>
        <time>1970-01-01T00:46:10.000Z</time>
      </trkpt>
      <trkpt lat="42.263439" lon="3.035204">
        <ele>12</ele>
        <time>1970-01-01T00:46:11.000Z</time>
      </trkpt>
      <trkpt lat="42.2634" lon="3.035247">
        <ele>12</ele>
        <time>1970-01-01T00:46:12.000Z</time>
      </trkpt>
      <trkpt lat="42.26336" lon="3.035291">
        <ele>12</ele>
        <time>1970-01-01T00:46:13.000Z</time>
      </trkpt>
      <trkpt lat="42.263321" lon="3.035334">
        <ele>12</ele>
        <time>1970-01-01T00:46:14.000Z</time>
      </trkpt>
      <trkpt lat="42.263282" lon="3.035378">
        <ele>12</ele>
        <time>1970-01-01T00:46:15.000Z</time>
      </trkpt>
      <trkpt lat="42.263243" lon="3.035421">
        <ele>12</ele>
        <time>1970-01-01T00:46:16.000Z</time>
      </trkpt>
      <trkpt lat="42.263203" lon="3.035465">
        <ele>12</ele>
        <time>1970-01-01T00:46:17.000Z</time>
      </trkpt>
      <trkpt lat="42.263164" lon="3.035508">
        <ele>12</ele>
        <time>1970-01-01T00:46:18.000Z</time>
      </trkpt>
      <trkpt lat="42.263081" lon="3.035591">
        <ele>12</ele>
        <time>1970-01-01T00:46:19.000Z</time>
      </trkpt>
      <trkpt lat="42.263042" lon="3.035629">
        <ele>12</ele>
        <time>1970-01-01T00:46:20.000Z</time>
      </trkpt>
      <trkpt lat="42.263003" lon="3.035666">
        <ele>12</ele>
        <time>1970-01-01T00:46:21.000Z</time>
      </trkpt>
      <trkpt lat="42.262964" lon="3.035704">
        <ele>12</ele>
        <time>1970-01-01T00:46:22.000Z</time>
      </trkpt>
      <trkpt lat="42.262926" lon="3.035742">
        <ele>12</ele>
        <time>1970-01-01T00:46:23.000Z</time>
      </trkpt>
      <trkpt lat="42.262887" lon="3.03578">
        <ele>12</ele>
        <time>1970-01-01T00:46:24.000Z</time>
      </trkpt>
      <trkpt lat="42.262848" lon="3.035817">
        <ele>12</ele>
        <time>1970-01-01T00:46:25.000Z</time>
      </trkpt>
      <trkpt lat="42.262809" lon="3.035855">
        <ele>12</ele>
        <time>1970-01-01T00:46:26.000Z</time>
      </trkpt>
      <trkpt lat="42.26277" lon="3.035893">
        <ele>12</ele>
        <time>1970-01-01T00:46:27.000Z</time>
      </trkpt>
      <trkpt lat="42.262689" lon="3.035955">
        <ele>12</ele>
        <time>1970-01-01T00:46:28.000Z</time>
      </trkpt>
      <trkpt lat="42.262651" lon="3.035979">
        <ele>12</ele>
        <time>1970-01-01T00:46:29.000Z</time>
      </trkpt>
      <trkpt lat="42.262614" lon="3.036002">
        <ele>12</ele>
        <time>1970-01-01T00:46:30.000Z</time>
      </trkpt>
      <trkpt lat="42.262576" lon="3.036025">
        <ele>12</ele>
        <time>1970-01-01T00:46:31.000Z</time>
      </trkpt>
      <trkpt lat="42.262538" lon="3.036049">
        <ele>12</ele>
        <time>1970-01-01T00:46:32.000Z</time>
      </trkpt>
      <trkpt lat="42.2625" lon="3.036072">
        <ele>12</ele>
        <time>1970-01-01T00:46:33.000Z</time>
      </trkpt>
      <trkpt lat="42.262462" lon="3.036095">
        <ele>12</ele>
        <time>1970-01-01T00:46:34.000Z</time>
      </trkpt>
      <trkpt lat="42.262425" lon="3.036118">
        <ele>12</ele>
        <time>1970-01-01T00:46:35.000Z</time>
      </trkpt>
      <trkpt lat="42.262387" lon="3.036142">
        <ele>12</ele>
        <time>1970-01-01T00:46:36.000Z</time>
      </trkpt>
      <trkpt lat="42.262349" lon="3.036165">
        <ele>12</ele>
        <time>1970-01-01T00:46:37.000Z</time>
      </trkpt>
      <trkpt lat="42.262254" lon="3.036146">
        <ele>12</ele>
        <time>1970-01-01T00:46:38.000Z</time>
      </trkpt>
      <trkpt lat="42.262205" lon="3.036144">
        <ele>12</ele>
        <time>1970-01-01T00:46:39.000Z</time>
      </trkpt>
      <trkpt lat="42.262156" lon="3.036141">
        <ele>12</ele>
        <time>1970-01-01T00:46:40.000Z</time>
      </trkpt>
      <trkpt lat="42.262107" lon="3.036139">
        <ele>12</ele>
        <time>1970-01-01T00:46:41.000Z</time>
      </trkpt>
      <trkpt lat="42.262058" lon="3.036137">
        <ele>12</ele>
        <time>1970-01-01T00:46:42.000Z</time>
      </trkpt>
      <trkpt lat="42.262009" lon="3.036135">
        <ele>12</ele>
        <time>1970-01-01T00:46:43.000Z</time>
      </trkpt>
      <trkpt lat="42.26196" lon="3.036133">
        <ele>12</ele>
        <time>1970-01-01T00:46:44.000Z</time>
      </trkpt>
      <trkpt lat="42.261911" lon="3.03613">
        <ele>12</ele>
        <time>1970-01-01T00:46:45.000Z</time>
      </trkpt>
      <trkpt lat="42.261862" lon="3.036128">
        <ele>12</ele>
        <time>1970-01-01T00:46:46.000Z</time>
      </trkpt>
      <trkpt lat="42.261813" lon="3.036126">
        <ele>12</ele>
        <time>1970-01-01T00:46:47.000Z</time>
      </trkpt>
      <trkpt lat="42.261751" lon="3.036231">
        <ele>12</ele>
        <time>1970-01-01T00:46:48.000Z</time>
      </trkpt>
      <trkpt lat="42.261743" lon="3.036297">
        <ele>12</ele>
        <time>1970-01-01T00:46:49.000Z</time>
      </trkpt>
      <trkpt lat="42.261734" lon="3.036362">
        <ele>12</ele>
        <time>1970-01-01T00:46:50.000Z</time>
      </trkpt>
      <trkpt lat="42.261725" lon="3.036427">
        <ele>12</ele>
        <time>1970-01-01T00:46:51.000Z</time>
      </trkpt>
      <trkpt lat="42.261716" lon="3.036492">
        <ele>12</ele>
        <time>1970-01-01T00:46:52.000Z</time>
      </trkpt>
      <trkpt lat="42.261708" lon="3.036558">
        <ele>12</ele>
        <time>1970-01-01T00:46:53.000Z</time>
      </trkpt>
      <trkpt lat="42.261699" lon="3.036623">
        <ele>12</ele>
        <time>1970-01-01T00:46:54.000Z</time>
      </trkpt>
      <trkpt lat="42.26169" lon="3.036688">
        <ele>12</ele>
        <time>1970-01-01T00:46:55.000Z</time>
      </trkpt>
      <trkpt lat="42.261681" lon="3.036753">
        <ele>12</ele>
        <time>1970-01-01T00:46:56.000Z</time>
      </trkpt>
      <trkpt lat="42.261673" lon="3.036819">
        <ele>12</ele>
        <time>1970-01-01T00:46:57.000Z</time>
      </trkpt>
      <trkpt lat="42.261664" lon="3.036884">
        <ele>12</ele>
        <time>1970-01-01T00:46:58.000Z</time>
      </trkpt>
      <trkpt lat="42.261688" lon="3.037016">
        <ele>12</ele>
        <time>1970-01-01T00:46:59.000Z</time>
      </trkpt>
      <trkpt lat="42.26169" lon="3.037079">
        <ele>12</ele>
        <time>1970-01-01T00:47:00.000Z</time>
      </trkpt>
      <trkpt lat="42.261692" lon="3.037142">
        <ele>12</ele>
        <time>1970-01-01T00:47:01.000Z</time>
      </trkpt>
      <trkpt lat="42.261694" lon="3.037205">
        <ele>12</ele>
        <time>1970-01-01T00:47:02.000Z</time>
      </trkpt>
      <trkpt lat="42.261696" lon="3.037268">
        <ele>12</ele>
        <time>1970-01-01T00:47:03.000Z</time>
      </trkpt>
      <trkpt lat="42.261698" lon="3.037332">
        <ele>12</ele>
        <time>1970-01-01T00:47:04.000Z</time>
      </trkpt>
      <trkpt lat="42.2617" lon="3.037395">
        <ele>12</ele>
        <time>1970-01-01T00:47:05.000Z</time>
      </trkpt>
      <trkpt lat="42.261702" lon="3.037458">
        <ele>12</ele>
        <time>1970-01-01T00:47:06.000Z</time>
      </trkpt>
      <trkpt lat="42.261704" lon="3.037521">
        <ele>12</ele>
        <time>1970-01-01T00:47:07.000Z</time>
      </trkpt>
      <trkpt lat="42.261706" lon="3.037584">
        <ele>12</ele>
        <time>1970-01-01T00:47:08.000Z</time>
      </trkpt>
      <trkpt lat="42.26167" lon="3.037722">
        <ele>12</ele>
        <time>1970-01-01T00:47:09.000Z</time>
      </trkpt>
      <trkpt lat="42.261653" lon="3.037787">
        <ele>12</ele>
        <time>1970-01-01T00:47:10.000Z</time>
      </trkpt>
      <trkpt lat="42.261636" lon="3.037851">
        <ele>12</ele>
        <time>1970-01-01T00:47:11.000Z</time>
      </trkpt>
      <trkpt lat="42.261619" lon="3.037916">
        <ele>12</ele>
        <time>1970-01-01T00:47:12.000Z</time>
      </trkpt>
      <trkpt lat="42.261601" lon="3.037981">
        <ele>12</ele>
        <time>1970-01-01T00:47:13.000Z</time>
      </trkpt>
      <trkpt lat="42.261584" lon="3.038046">
        <ele>12</ele>
        <time>1970-01-01T00:47:14.000Z</time>
      </trkpt>
      <trkpt lat="42.261567" lon="3.03811">
        <ele>12</ele>
        <time>1970-01-01T00:47:15.000Z</time>
      </trkpt>
      <trkpt lat="42.26155" lon="3.038175">
        <ele>12</ele>
        <time>1970-01-01T00:47:16.000Z</time>
      </trkpt>
      <trkpt lat="42.261533" lon="3.03824">
        <ele>11</ele>
        <time>1970-01-01T00:47:17.000Z</time>
      </trkpt>
      <trkpt lat="42.261497" lon="3.038376">
        <ele>11</ele>
        <time>1970-01-01T00:47:18.000Z</time>
      </trkpt>
      <trkpt lat="42.26148" lon="3.038441">
        <ele>11</ele>
        <time>1970-01-01T00:47:19.000Z</time>
      </trkpt>
      <trkpt lat="42.261463" lon="3.038505">
        <ele>11</ele>
        <time>1970-01-01T00:47:20.000Z</time>
      </trkpt>
      <trkpt lat="42.261446" lon="3.03857">
        <ele>11</ele>
        <time>1970-01-01T00:47:21.000Z</time>
      </trkpt>
      <trkpt lat="42.261429" lon="3.038634">
        <ele>11</ele>
        <time>1970-01-01T00:47:22.000Z</time>
      </trkpt>
      <trkpt lat="42.261411" lon="3.038698">
        <ele>11</ele>
        <time>1970-01-01T00:47:23.000Z</time>
      </trkpt>
      <trkpt lat="42.261394" lon="3.038763">
        <ele>11</ele>
        <time>1970-01-01T00:47:24.000Z</time>
      </trkpt>
      <trkpt lat="42.261377" lon="3.038827">
        <ele>11</ele>
        <time>1970-01-01T00:47:25.000Z</time>
      </trkpt>
      <trkpt lat="42.26136" lon="3.038892">
        <ele>11</ele>
        <time>1970-01-01T00:47:26.000Z</time>
      </trkpt>
      <trkpt lat="42.261343" lon="3.038956">
        <ele>11</ele>
        <time>1970-01-01T00:47:27.000Z</time>
      </trkpt>
      <trkpt lat="42.261309" lon="3.039095">
        <ele>11</ele>
        <time>1970-01-01T00:47:28.000Z</time>
      </trkpt>
      <trkpt lat="42.261293" lon="3.039161">
        <ele>11</ele>
        <time>1970-01-01T00:47:29.000Z</time>
      </trkpt>
      <trkpt lat="42.261277" lon="3.039227">
        <ele>11</ele>
        <time>1970-01-01T00:47:30.000Z</time>
      </trkpt>
      <trkpt lat="42.261261" lon="3.039293">
        <ele>11</ele>
        <time>1970-01-01T00:47:31.000Z</time>
      </trkpt>
      <trkpt lat="42.261245" lon="3.039359">
        <ele>11</ele>
        <time>1970-01-01T00:47:32.000Z</time>
      </trkpt>
      <trkpt lat="42.261228" lon="3.039424">
        <ele>11</ele>
        <time>1970-01-01T00:47:33.000Z</time>
      </trkpt>
      <trkpt lat="42.261212" lon="3.03949">
        <ele>11</ele>
        <time>1970-01-01T00:47:34.000Z</time>
      </trkpt>
      <trkpt lat="42.261196" lon="3.039556">
        <ele>11</ele>
        <time>1970-01-01T00:47:35.000Z</time>
      </trkpt>
      <trkpt lat="42.26118" lon="3.039622">
        <ele>11</ele>
        <time>1970-01-01T00:47:36.000Z</time>
      </trkpt>
      <trkpt lat="42.261164" lon="3.039688">
        <ele>11</ele>
        <time>1970-01-01T00:47:37.000Z</time>
      </trkpt>
      <trkpt lat="42.261131" lon="3.039828">
        <ele>11</ele>
        <time>1970-01-01T00:47:38.000Z</time>
      </trkpt>
      <trkpt lat="42.261115" lon="3.039895">
        <ele>11</ele>
        <time>1970-01-01T00:47:39.000Z</time>
      </trkpt>
      <trkpt lat="42.261099" lon="3.039962">
        <ele>11</ele>
        <time>1970-01-01T00:47:40.000Z</time>
      </trkpt>
      <trkpt lat="42.261083" lon="3.040029">
        <ele>11</ele>
        <time>1970-01-01T00:47:41.000Z</time>
      </trkpt>
      <trkpt lat="42.261067" lon="3.040096">
        <ele>11</ele>
        <time>1970-01-01T00:47:42.000Z</time>
      </trkpt>
      <trkpt lat="42.26105" lon="3.040162">
        <ele>11</ele>
        <time>1970-01-01T00:47:43.000Z</time>
      </trkpt>
      <trkpt lat="42.261034" lon="3.040229">
        <ele>11</ele>
        <time>1970-01-01T00:47:44.000Z</time>
      </trkpt>
      <trkpt lat="42.261018" lon="3.040296">
        <ele>11</ele>
        <time>1970-01-01T00:47:45.000Z</time>
      </trkpt>
      <trkpt lat="42.261002" lon="3.040363">
        <ele>11</ele>
        <time>1970-01-01T00:47:46.000Z</time>
      </trkpt>
      <trkpt lat="42.260986" lon="3.04043">
        <ele>11</ele>
        <time>1970-01-01T00:47:47.000Z</time>
      </trkpt>
      <trkpt lat="42.260953" lon="3.04057">
        <ele>11</ele>
        <time>1970-01-01T00:47:48.000Z</time>
      </trkpt>
      <trkpt lat="42.260939" lon="3.040636">
        <ele>11</ele>
        <time>1970-01-01T00:47:49.000Z</time>
      </trkpt>
      <trkpt lat="42.260924" lon="3.040701">
        <ele>11</ele>
        <time>1970-01-01T00:47:50.000Z</time>
      </trkpt>
      <trkpt lat="42.260909" lon="3.040766">
        <ele>11</ele>
        <time>1970-01-01T00:47:51.000Z</time>
      </trkpt>
      <trkpt lat="42.260895" lon="3.040832">
        <ele>11</ele>
        <time>1970-01-01T00:47:52.000Z</time>
      </trkpt>
      <trkpt lat="42.26088" lon="3.040897">
        <ele>11</ele>
        <time>1970-01-01T00:47:53.000Z</time>
      </trkpt>
      <trkpt lat="42.260865" lon="3.040962">
        <ele>11</ele>
        <time>1970-01-01T00:47:54.000Z</time>
      </trkpt>
      <trkpt lat="42.26085" lon="3.041027">
        <ele>11</ele>
        <time>1970-01-01T00:47:55.000Z</time>
      </trkpt>
      <trkpt lat="42.260836" lon="3.041093">
        <ele>11</ele>
        <time>1970-01-01T00:47:56.000Z</time>
      </trkpt>
      <trkpt lat="42.260821" lon="3.041158">
        <ele>11</ele>
        <time>1970-01-01T00:47:57.000Z</time>
      </trkpt>
      <trkpt lat="42.260789" lon="3.041299">
        <ele>11</ele>
        <time>1970-01-01T00:47:58.000Z</time>
      </trkpt>
      <trkpt lat="42.260774" lon="3.041367">
        <ele>11</ele>
        <time>1970-01-01T00:47:59.000Z</time>
      </trkpt>
      <trkpt lat="42.260758" lon="3.041434">
        <ele>11</ele>
        <time>1970-01-01T00:48:00.000Z</time>
      </trkpt>
      <trkpt lat="42.260743" lon="3.041502">
        <ele>11</ele>
        <time>1970-01-01T00:48:01.000Z</time>
      </trkpt>
      <trkpt lat="42.260728" lon="3.04157">
        <ele>11</ele>
        <time>1970-01-01T00:48:02.000Z</time>
      </trkpt>
      <trkpt lat="42.260713" lon="3.041638">
        <ele>11</ele>
        <time>1970-01-01T00:48:03.000Z</time>
      </trkpt>
      <trkpt lat="42.260698" lon="3.041706">
        <ele>11</ele>
        <time>1970-01-01T00:48:04.000Z</time>
      </trkpt>
      <trkpt lat="42.260682" lon="3.041773">
        <ele>11</ele>
        <time>1970-01-01T00:48:05.000Z</time>
      </trkpt>
      <trkpt lat="42.260667" lon="3.041841">
        <ele>11</ele>
        <time>1970-01-01T00:48:06.000Z</time>
      </trkpt>
      <trkpt lat="42.260652" lon="3.041909">
        <ele>10</ele>
        <time>1970-01-01T00:48:07.000Z</time>
      </trkpt>
      <trkpt lat="42.260617" lon="3.042054">
        <ele>10</ele>
        <time>1970-01-01T00:48:08.000Z</time>
      </trkpt>
      <trkpt lat="42.260602" lon="3.042123">
        <ele>10</ele>
        <time>1970-01-01T00:48:09.000Z</time>
      </trkpt>
      <trkpt lat="42.260586" lon="3.042192">
        <ele>10</ele>
        <time>1970-01-01T00:48:10.000Z</time>
      </trkpt>
      <trkpt lat="42.260571" lon="3.042261">
        <ele>10</ele>
        <time>1970-01-01T00:48:11.000Z</time>
      </trkpt>
      <trkpt lat="42.260555" lon="3.04233">
        <ele>10</ele>
        <time>1970-01-01T00:48:12.000Z</time>
      </trkpt>
      <trkpt lat="42.260539" lon="3.042398">
        <ele>10</ele>
        <time>1970-01-01T00:48:13.000Z</time>
      </trkpt>
      <trkpt lat="42.260524" lon="3.042467">
        <ele>10</ele>
        <time>1970-01-01T00:48:14.000Z</time>
      </trkpt>
      <trkpt lat="42.260508" lon="3.042536">
        <ele>10</ele>
        <time>1970-01-01T00:48:15.000Z</time>
      </trkpt>
      <trkpt lat="42.260493" lon="3.042605">
        <ele>10</ele>
        <time>1970-01-01T00:48:16.000Z</time>
      </trkpt>
      <trkpt lat="42.260477" lon="3.042674">
        <ele>10</ele>
        <time>1970-01-01T00:48:17.000Z</time>
      </trkpt>
      <trkpt lat="42.260444" lon="3.04282">
        <ele>10</ele>
        <time>1970-01-01T00:48:18.000Z</time>
      </trkpt>
      <trkpt lat="42.260429" lon="3.042884">
        <ele>10</ele>
        <time>1970-01-01T00:48:19.000Z</time>
      </trkpt>
      <trkpt lat="42.260415" lon="3.042949">
        <ele>10</ele>
        <time>1970-01-01T00:48:20.000Z</time>
      </trkpt>
      <trkpt lat="42.2604" lon="3.043013">
        <ele>10</ele>
        <time>1970-01-01T00:48:21.000Z</time>
      </trkpt>
      <trkpt lat="42.260386" lon="3.043077">
        <ele>10</ele>
        <time>1970-01-01T00:48:22.000Z</time>
      </trkpt>
      <trkpt lat="42.260371" lon="3.043141">
        <ele>10</ele>
        <time>1970-01-01T00:48:23.000Z</time>
      </trkpt>
      <trkpt lat="42.260357" lon="3.043205">
        <ele>10</ele>
        <time>1970-01-01T00:48:24.000Z</time>
      </trkpt>
      <trkpt lat="42.260342" lon="3.04327">
        <ele>10</ele>
        <time>1970-01-01T00:48:25.000Z</time>
      </trkpt>
      <trkpt lat="42.260328" lon="3.043334">
        <ele>10</ele>
        <time>1970-01-01T00:48:26.000Z</time>
      </trkpt>
      <trkpt lat="42.260313" lon="3.043398">
        <ele>10</ele>
        <time>1970-01-01T00:48:27.000Z</time>
      </trkpt>
      <trkpt lat="42.260281" lon="3.043537">
        <ele>10</ele>
        <time>1970-01-01T00:48:28.000Z</time>
      </trkpt>
      <trkpt lat="42.260266" lon="3.043603">
        <ele>10</ele>
        <time>1970-01-01T00:48:29.000Z</time>
      </trkpt>
      <trkpt lat="42.260252" lon="3.043668">
        <ele>10</ele>
        <time>1970-01-01T00:48:30.000Z</time>
      </trkpt>
      <trkpt lat="42.260237" lon="3.043734">
        <ele>10</ele>
        <time>1970-01-01T00:48:31.000Z</time>
      </trkpt>
      <trkpt lat="42.260222" lon="3.0438">
        <ele>10</ele>
        <time>1970-01-01T00:48:32.000Z</time>
      </trkpt>
      <trkpt lat="42.260207" lon="3.043866">
        <ele>10</ele>
        <time>1970-01-01T00:48:33.000Z</time>
      </trkpt>
      <trkpt lat="42.260192" lon="3.043932">
        <ele>10</ele>
        <time>1970-01-01T00:48:34.000Z</time>
      </trkpt>
      <trkpt lat="42.260178" lon="3.043997">
        <ele>10</ele>
        <time>1970-01-01T00:48:35.000Z</time>
      </trkpt>
      <trkpt lat="42.260163" lon="3.044063">
        <ele>10</ele>
        <time>1970-01-01T00:48:36.000Z</time>
      </trkpt>
      <trkpt lat="42.260148" lon="3.044129">
        <ele>9</ele>
        <time>1970-01-01T00:48:37.000Z</time>
      </trkpt>
      <trkpt lat="42.260115" lon="3.044269">
        <ele>9</ele>
        <time>1970-01-01T00:48:38.000Z</time>
      </trkpt>
      <trkpt lat="42.2601" lon="3.044336">
        <ele>9</ele>
        <time>1970-01-01T00:48:39.000Z</time>
      </trkpt>
      <trkpt lat="42.260085" lon="3.044402">
        <ele>9</ele>
        <time>1970-01-01T00:48:40.000Z</time>
      </trkpt>
      <trkpt lat="42.26007" lon="3.044469">
        <ele>9</ele>
        <time>1970-01-01T00:48:41.000Z</time>
      </trkpt>
      <trkpt lat="42.260055" lon="3.044535">
        <ele>9</ele>
        <time>1970-01-01T00:48:42.000Z</time>
      </trkpt>
      <trkpt lat="42.26004" lon="3.044601">
        <ele>9</ele>
        <time>1970-01-01T00:48:43.000Z</time>
      </trkpt>
      <trkpt lat="42.260025" lon="3.044668">
        <ele>9</ele>
        <time>1970-01-01T00:48:44.000Z</time>
      </trkpt>
      <trkpt lat="42.26001" lon="3.044734">
        <ele>9</ele>
        <time>1970-01-01T00:48:45.000Z</time>
      </trkpt>
      <trkpt lat="42.259995" lon="3.044801">
        <ele>9</ele>
        <time>1970-01-01T00:48:46.000Z</time>
      </trkpt>
      <trkpt lat="42.25998" lon="3.044867">
        <ele>10</ele>
        <time>1970-01-01T00:48:47.000Z</time>
      </trkpt>
      <trkpt lat="42.259949" lon="3.045008">
        <ele>10</ele>
        <time>1970-01-01T00:48:48.000Z</time>
      </trkpt>
      <trkpt lat="42.259934" lon="3.045074">
        <ele>10</ele>
        <time>1970-01-01T00:48:49.000Z</time>
      </trkpt>
      <trkpt lat="42.259918" lon="3.045141">
        <ele>10</ele>
        <time>1970-01-01T00:48:50.000Z</time>
      </trkpt>
      <trkpt lat="42.259903" lon="3.045207">
        <ele>10</ele>
        <time>1970-01-01T00:48:51.000Z</time>
      </trkpt>
      <trkpt lat="42.259888" lon="3.045274">
        <ele>10</ele>
        <time>1970-01-01T00:48:52.000Z</time>
      </trkpt>
      <trkpt lat="42.259873" lon="3.045341">
        <ele>10</ele>
        <time>1970-01-01T00:48:53.000Z</time>
      </trkpt>
      <trkpt lat="42.259858" lon="3.045407">
        <ele>10</ele>
        <time>1970-01-01T00:48:54.000Z</time>
      </trkpt>
      <trkpt lat="42.259842" lon="3.045474">
        <ele>10</ele>
        <time>1970-01-01T00:48:55.000Z</time>
      </trkpt>
      <trkpt lat="42.259827" lon="3.04554">
        <ele>10</ele>
        <time>1970-01-01T00:48:56.000Z</time>
      </trkpt>
      <trkpt lat="42.259812" lon="3.045607">
        <ele>10</ele>
        <time>1970-01-01T00:48:57.000Z</time>
      </trkpt>
      <trkpt lat="42.25978" lon="3.045747">
        <ele>10</ele>
        <time>1970-01-01T00:48:58.000Z</time>
      </trkpt>
      <trkpt lat="42.259765" lon="3.045814">
        <ele>10</ele>
        <time>1970-01-01T00:48:59.000Z</time>
      </trkpt>
      <trkpt lat="42.259751" lon="3.045882">
        <ele>10</ele>
        <time>1970-01-01T00:49:00.000Z</time>
      </trkpt>
      <trkpt lat="42.259736" lon="3.045949">
        <ele>10</ele>
        <time>1970-01-01T00:49:01.000Z</time>
      </trkpt>
      <trkpt lat="42.259722" lon="3.046016">
        <ele>10</ele>
        <time>1970-01-01T00:49:02.000Z</time>
      </trkpt>
      <trkpt lat="42.259707" lon="3.046083">
        <ele>10</ele>
        <time>1970-01-01T00:49:03.000Z</time>
      </trkpt>
      <trkpt lat="42.259693" lon="3.04615">
        <ele>10</ele>
        <time>1970-01-01T00:49:04.000Z</time>
      </trkpt>
      <trkpt lat="42.259678" lon="3.046218">
        <ele>10</ele>
        <time>1970-01-01T00:49:05.000Z</time>
      </trkpt>
      <trkpt lat="42.259664" lon="3.046285">
        <ele>10</ele>
        <time>1970-01-01T00:49:06.000Z</time>
      </trkpt>
      <trkpt lat="42.259649" lon="3.046352">
        <ele>9</ele>
        <time>1970-01-01T00:49:07.000Z</time>
      </trkpt>
      <trkpt lat="42.25962" lon="3.046489">
        <ele>9</ele>
        <time>1970-01-01T00:49:08.000Z</time>
      </trkpt>
      <trkpt lat="42.259608" lon="3.046553">
        <ele>9</ele>
        <time>1970-01-01T00:49:09.000Z</time>
      </trkpt>
      <trkpt lat="42.259595" lon="3.046617">
        <ele>9</ele>
        <time>1970-01-01T00:49:10.000Z</time>
      </trkpt>
      <trkpt lat="42.259583" lon="3.046681">
        <ele>9</ele>
        <time>1970-01-01T00:49:11.000Z</time>
      </trkpt>
      <trkpt lat="42.25957" lon="3.046745">
        <ele>9</ele>
        <time>1970-01-01T00:49:12.000Z</time>
      </trkpt>
      <trkpt lat="42.259557" lon="3.046808">
        <ele>9</ele>
        <time>1970-01-01T00:49:13.000Z</time>
      </trkpt>
      <trkpt lat="42.259545" lon="3.046872">
        <ele>9</ele>
        <time>1970-01-01T00:49:14.000Z</time>
      </trkpt>
      <trkpt lat="42.259532" lon="3.046936">
        <ele>9</ele>
        <time>1970-01-01T00:49:15.000Z</time>
      </trkpt>
      <trkpt lat="42.25952" lon="3.047">
        <ele>9</ele>
        <time>1970-01-01T00:49:16.000Z</time>
      </trkpt>
      <trkpt lat="42.259507" lon="3.047064">
        <ele>8</ele>
        <time>1970-01-01T00:49:17.000Z</time>
      </trkpt>
      <trkpt lat="42.259477" lon="3.047202">
        <ele>8</ele>
        <time>1970-01-01T00:49:18.000Z</time>
      </trkpt>
      <trkpt lat="42.259462" lon="3.047268">
        <ele>8</ele>
        <time>1970-01-01T00:49:19.000Z</time>
      </trkpt>
      <trkpt lat="42.259446" lon="3.047334">
        <ele>8</ele>
        <time>1970-01-01T00:49:20.000Z</time>
      </trkpt>
      <trkpt lat="42.25943" lon="3.0474">
        <ele>8</ele>
        <time>1970-01-01T00:49:21.000Z</time>
      </trkpt>
      <trkpt lat="42.259415" lon="3.047466">
        <ele>8</ele>
        <time>1970-01-01T00:49:22.000Z</time>
      </trkpt>
      <trkpt lat="42.259399" lon="3.047531">
        <ele>8</ele>
        <time>1970-01-01T00:49:23.000Z</time>
      </trkpt>
      <trkpt lat="42.259384" lon="3.047597">
        <ele>8</ele>
        <time>1970-01-01T00:49:24.000Z</time>
      </trkpt>
      <trkpt lat="42.259368" lon="3.047663">
        <ele>8</ele>
        <time>1970-01-01T00:49:25.000Z</time>
      </trkpt>
      <trkpt lat="42.259352" lon="3.047729">
        <ele>8</ele>
        <time>1970-01-01T00:49:26.000Z</time>
      </trkpt>
      <trkpt lat="42.259337" lon="3.047795">
        <ele>8</ele>
        <time>1970-01-01T00:49:27.000Z</time>
      </trkpt>
      <trkpt lat="42.259321" lon="3.047861">
        <ele>8</ele>
        <time>1970-01-01T00:49:28.000Z</time>
      </trkpt>
      <trkpt lat="42.259295" lon="3.047999">
        <ele>8</ele>
        <time>1970-01-01T00:49:29.000Z</time>
      </trkpt>
      <trkpt lat="42.259283" lon="3.048063">
        <ele>8</ele>
        <time>1970-01-01T00:49:30.000Z</time>
      </trkpt>
      <trkpt lat="42.25927" lon="3.048128">
        <ele>8</ele>
        <time>1970-01-01T00:49:31.000Z</time>
      </trkpt>
      <trkpt lat="42.259258" lon="3.048193">
        <ele>8</ele>
        <time>1970-01-01T00:49:32.000Z</time>
      </trkpt>
      <trkpt lat="42.259246" lon="3.048257">
        <ele>8</ele>
        <time>1970-01-01T00:49:33.000Z</time>
      </trkpt>
      <trkpt lat="42.259234" lon="3.048322">
        <ele>8</ele>
        <time>1970-01-01T00:49:34.000Z</time>
      </trkpt>
      <trkpt lat="42.259221" lon="3.048387">
        <ele>8</ele>
        <time>1970-01-01T00:49:35.000Z</time>
      </trkpt>
      <trkpt lat="42.259209" lon="3.048451">
        <ele>8</ele>
        <time>1970-01-01T00:49:36.000Z</time>
      </trkpt>
      <trkpt lat="42.259197" lon="3.048516">
        <ele>8</ele>
        <time>1970-01-01T00:49:37.000Z</time>
      </trkpt>
      <trkpt lat="42.259171" lon="3.048655">
        <ele>8</ele>
        <time>1970-01-01T00:49:38.000Z</time>
      </trkpt>
      <trkpt lat="42.259158" lon="3.048723">
        <ele>8</ele>
        <time>1970-01-01T00:49:39.000Z</time>
      </trkpt>
      <trkpt lat="42.259146" lon="3.04879">
        <ele>8</ele>
        <time>1970-01-01T00:49:40.000Z</time>
      </trkpt>
      <trkpt lat="42.259133" lon="3.048857">
        <ele>8</ele>
        <time>1970-01-01T00:49:41.000Z</time>
      </trkpt>
      <trkpt lat="42.259121" lon="3.048925">
        <ele>8</ele>
        <time>1970-01-01T00:49:42.000Z</time>
      </trkpt>
      <trkpt lat="42.259108" lon="3.048992">
        <ele>8</ele>
        <time>1970-01-01T00:49:43.000Z</time>
      </trkpt>
      <trkpt lat="42.259096" lon="3.049059">
        <ele>8</ele>
        <time>1970-01-01T00:49:44.000Z</time>
      </trkpt>
      <trkpt lat="42.259083" lon="3.049126">
        <ele>8</ele>
        <time>1970-01-01T00:49:45.000Z</time>
      </trkpt>
      <trkpt lat="42.259071" lon="3.049194">
        <ele>8</ele>
        <time>1970-01-01T00:49:46.000Z</time>
      </trkpt>
      <trkpt lat="42.259058" lon="3.049261">
        <ele>8</ele>
        <time>1970-01-01T00:49:47.000Z</time>
      </trkpt>
      <trkpt lat="42.25903" lon="3.049404">
        <ele>8</ele>
        <time>1970-01-01T00:49:48.000Z</time>
      </trkpt>
      <trkpt lat="42.259018" lon="3.049472">
        <ele>8</ele>
        <time>1970-01-01T00:49:49.000Z</time>
      </trkpt>
      <trkpt lat="42.259005" lon="3.04954">
        <ele>8</ele>
        <time>1970-01-01T00:49:50.000Z</time>
      </trkpt>
      <trkpt lat="42.258993" lon="3.049608">
        <ele>8</ele>
        <time>1970-01-01T00:49:51.000Z</time>
      </trkpt>
      <trkpt lat="42.25898" lon="3.049676">
        <ele>8</ele>
        <time>1970-01-01T00:49:52.000Z</time>
      </trkpt>
      <trkpt lat="42.258967" lon="3.049743">
        <ele>8</ele>
        <time>1970-01-01T00:49:53.000Z</time>
      </trkpt>
      <trkpt lat="42.258955" lon="3.049811">
        <ele>8</ele>
        <time>1970-01-01T00:49:54.000Z</time>
      </trkpt>
      <trkpt lat="42.258942" lon="3.049879">
        <ele>8</ele>
        <time>1970-01-01T00:49:55.000Z</time>
      </trkpt>
      <trkpt lat="42.25893" lon="3.049947">
        <ele>8</ele>
        <time>1970-01-01T00:49:56.000Z</time>
      </trkpt>
      <trkpt lat="42.258917" lon="3.050015">
        <ele>8</ele>
        <time>1970-01-01T00:49:57.000Z</time>
      </trkpt>
      <trkpt lat="42.258891" lon="3.050154">
        <ele>8</ele>
        <time>1970-01-01T00:49:58.000Z</time>
      </trkpt>
      <trkpt lat="42.258878" lon="3.050218">
        <ele>8</ele>
        <time>1970-01-01T00:49:59.000Z</time>
      </trkpt>
      <trkpt lat="42.258865" lon="3.050283">
        <ele>8</ele>
        <time>1970-01-01T00:50:00.000Z</time>
      </trkpt>
      <trkpt lat="42.258852" lon="3.050348">
        <ele>8</ele>
        <time>1970-01-01T00:50:01.000Z</time>
      </trkpt>
      <trkpt lat="42.258839" lon="3.050413">
        <ele>8</ele>
        <time>1970-01-01T00:50:02.000Z</time>
      </trkpt>
      <trkpt lat="42.258826" lon="3.050477">
        <ele>8</ele>
        <time>1970-01-01T00:50:03.000Z</time>
      </trkpt>
      <trkpt lat="42.258813" lon="3.050542">
        <ele>8</ele>
        <time>1970-01-01T00:50:04.000Z</time>
      </trkpt>
      <trkpt lat="42.2588" lon="3.050607">
        <ele>8</ele>
        <time>1970-01-01T00:50:05.000Z</time>
      </trkpt>
      <trkpt lat="42.258787" lon="3.050671">
        <ele>8</ele>
        <time>1970-01-01T00:50:06.000Z</time>
      </trkpt>
      <trkpt lat="42.258774" lon="3.050736">
        <ele>8</ele>
        <time>1970-01-01T00:50:07.000Z</time>
      </trkpt>
      <trkpt lat="42.258743" lon="3.050873">
        <ele>8</ele>
        <time>1970-01-01T00:50:08.000Z</time>
      </trkpt>
      <trkpt lat="42.258728" lon="3.050938">
        <ele>8</ele>
        <time>1970-01-01T00:50:09.000Z</time>
      </trkpt>
      <trkpt lat="42.258714" lon="3.051004">
        <ele>8</ele>
        <time>1970-01-01T00:50:10.000Z</time>
      </trkpt>
      <trkpt lat="42.258699" lon="3.05107">
        <ele>8</ele>
        <time>1970-01-01T00:50:11.000Z</time>
      </trkpt>
      <trkpt lat="42.258684" lon="3.051136">
        <ele>8</ele>
        <time>1970-01-01T00:50:12.000Z</time>
      </trkpt>
      <trkpt lat="42.258669" lon="3.051201">
        <ele>8</ele>
        <time>1970-01-01T00:50:13.000Z</time>
      </trkpt>
      <trkpt lat="42.258654" lon="3.051267">
        <ele>8</ele>
        <time>1970-01-01T00:50:14.000Z</time>
      </trkpt>
      <trkpt lat="42.25864" lon="3.051333">
        <ele>8</ele>
        <time>1970-01-01T00:50:15.000Z</time>
      </trkpt>
      <trkpt lat="42.258625" lon="3.051398">
        <ele>8</ele>
        <time>1970-01-01T00:50:16.000Z</time>
      </trkpt>
      <trkpt lat="42.25861" lon="3.051464">
        <ele>9</ele>
        <time>1970-01-01T00:50:17.000Z</time>
      </trkpt>
      <trkpt lat="42.258578" lon="3.0516">
        <ele>9</ele>
        <time>1970-01-01T00:50:18.000Z</time>
      </trkpt>
      <trkpt lat="42.258564" lon="3.051665">
        <ele>9</ele>
        <time>1970-01-01T00:50:19.000Z</time>
      </trkpt>
      <trkpt lat="42.258549" lon="3.051729">
        <ele>9</ele>
        <time>1970-01-01T00:50:20.000Z</time>
      </trkpt>
      <trkpt lat="42.258535" lon="3.051794">
        <ele>9</ele>
        <time>1970-01-01T00:50:21.000Z</time>
      </trkpt>
      <trkpt lat="42.25852" lon="3.051858">
        <ele>9</ele>
        <time>1970-01-01T00:50:22.000Z</time>
      </trkpt>
      <trkpt lat="42.258505" lon="3.051922">
        <ele>9</ele>
        <time>1970-01-01T00:50:23.000Z</time>
      </trkpt>
      <trkpt lat="42.258491" lon="3.051987">
        <ele>9</ele>
        <time>1970-01-01T00:50:24.000Z</time>
      </trkpt>
      <trkpt lat="42.258476" lon="3.052051">
        <ele>9</ele>
        <time>1970-01-01T00:50:25.000Z</time>
      </trkpt>
      <trkpt lat="42.258462" lon="3.052116">
        <ele>9</ele>
        <time>1970-01-01T00:50:26.000Z</time>
      </trkpt>
      <trkpt lat="42.258447" lon="3.05218">
        <ele>9</ele>
        <time>1970-01-01T00:50:27.000Z</time>
      </trkpt>
      <trkpt lat="42.258416" lon="3.052316">
        <ele>9</ele>
        <time>1970-01-01T00:50:28.000Z</time>
      </trkpt>
      <trkpt lat="42.258401" lon="3.05238">
        <ele>9</ele>
        <time>1970-01-01T00:50:29.000Z</time>
      </trkpt>
      <trkpt lat="42.258386" lon="3.052443">
        <ele>9</ele>
        <time>1970-01-01T00:50:30.000Z</time>
      </trkpt>
      <trkpt lat="42.258371" lon="3.052507">
        <ele>9</ele>
        <time>1970-01-01T00:50:31.000Z</time>
      </trkpt>
      <trkpt lat="42.258356" lon="3.052571">
        <ele>9</ele>
        <time>1970-01-01T00:50:32.000Z</time>
      </trkpt>
      <trkpt lat="42.25834" lon="3.052635">
        <ele>9</ele>
        <time>1970-01-01T00:50:33.000Z</time>
      </trkpt>
      <trkpt lat="42.258325" lon="3.052699">
        <ele>9</ele>
        <time>1970-01-01T00:50:34.000Z</time>
      </trkpt>
      <trkpt lat="42.25831" lon="3.052762">
        <ele>9</ele>
        <time>1970-01-01T00:50:35.000Z</time>
      </trkpt>
      <trkpt lat="42.258295" lon="3.052826">
        <ele>9</ele>
        <time>1970-01-01T00:50:36.000Z</time>
      </trkpt>
      <trkpt lat="42.25828" lon="3.05289">
        <ele>7</ele>
        <time>1970-01-01T00:50:37.000Z</time>
      </trkpt>
      <trkpt lat="42.258249" lon="3.053025">
        <ele>7</ele>
        <time>1970-01-01T00:50:38.000Z</time>
      </trkpt>
      <trkpt lat="42.258234" lon="3.05309">
        <ele>7</ele>
        <time>1970-01-01T00:50:39.000Z</time>
      </trkpt>
      <trkpt lat="42.25822" lon="3.053154">
        <ele>7</ele>
        <time>1970-01-01T00:50:40.000Z</time>
      </trkpt>
      <trkpt lat="42.258205" lon="3.053219">
        <ele>7</ele>
        <time>1970-01-01T00:50:41.000Z</time>
      </trkpt>
      <trkpt lat="42.258191" lon="3.053283">
        <ele>7</ele>
        <time>1970-01-01T00:50:42.000Z</time>
      </trkpt>
      <trkpt lat="42.258176" lon="3.053348">
        <ele>7</ele>
        <time>1970-01-01T00:50:43.000Z</time>
      </trkpt>
      <trkpt lat="42.258162" lon="3.053412">
        <ele>7</ele>
        <time>1970-01-01T00:50:44.000Z</time>
      </trkpt>
      <trkpt lat="42.258147" lon="3.053477">
        <ele>7</ele>
        <time>1970-01-01T00:50:45.000Z</time>
      </trkpt>
      <trkpt lat="42.258133" lon="3.053541">
        <ele>7</ele>
        <time>1970-01-01T00:50:46.000Z</time>
      </trkpt>
      <trkpt lat="42.258118" lon="3.053606">
        <ele>7</ele>
        <time>1970-01-01T00:50:47.000Z</time>
      </trkpt>
      <trkpt lat="42.258104" lon="3.05367">
        <ele>8</ele>
        <time>1970-01-01T00:50:48.000Z</time>
      </trkpt>
      <trkpt lat="42.258074" lon="3.053805">
        <ele>8</ele>
        <time>1970-01-01T00:50:49.000Z</time>
      </trkpt>
      <trkpt lat="42.258059" lon="3.053868">
        <ele>8</ele>
        <time>1970-01-01T00:50:50.000Z</time>
      </trkpt>
      <trkpt lat="42.258045" lon="3.053932">
        <ele>8</ele>
        <time>1970-01-01T00:50:51.000Z</time>
      </trkpt>
      <trkpt lat="42.25803" lon="3.053996">
        <ele>8</ele>
        <time>1970-01-01T00:50:52.000Z</time>
      </trkpt>
      <trkpt lat="42.258016" lon="3.054059">
        <ele>8</ele>
        <time>1970-01-01T00:50:53.000Z</time>
      </trkpt>
      <trkpt lat="42.258001" lon="3.054123">
        <ele>8</ele>
        <time>1970-01-01T00:50:54.000Z</time>
      </trkpt>
      <trkpt lat="42.257987" lon="3.054187">
        <ele>8</ele>
        <time>1970-01-01T00:50:55.000Z</time>
      </trkpt>
      <trkpt lat="42.257972" lon="3.05425">
        <ele>8</ele>
        <time>1970-01-01T00:50:56.000Z</time>
      </trkpt>
      <trkpt lat="42.257958" lon="3.054314">
        <ele>8</ele>
        <time>1970-01-01T00:50:57.000Z</time>
      </trkpt>
      <trkpt lat="42.257932" lon="3.054429">
        <ele>8</ele>
        <time>1970-01-01T00:50:58.000Z</time>
      </trkpt>
      <trkpt lat="42.257921" lon="3.054476">
        <ele>8</ele>
        <time>1970-01-01T00:50:59.000Z</time>
      </trkpt>
      <trkpt lat="42.257911" lon="3.054524">
        <ele>8</ele>
        <time>1970-01-01T00:51:00.000Z</time>
      </trkpt>
      <trkpt lat="42.2579" lon="3.054571">
        <ele>8</ele>
        <time>1970-01-01T00:51:01.000Z</time>
      </trkpt>
      <trkpt lat="42.257889" lon="3.054619">
        <ele>8</ele>
        <time>1970-01-01T00:51:02.000Z</time>
      </trkpt>
      <trkpt lat="42.257878" lon="3.054667">
        <ele>8</ele>
        <time>1970-01-01T00:51:03.000Z</time>
      </trkpt>
      <trkpt lat="42.257867" lon="3.054714">
        <ele>8</ele>
        <time>1970-01-01T00:51:04.000Z</time>
      </trkpt>
      <trkpt lat="42.257857" lon="3.054762">
        <ele>8</ele>
        <time>1970-01-01T00:51:05.000Z</time>
      </trkpt>
      <trkpt lat="42.257846" lon="3.054809">
        <ele>8</ele>
        <time>1970-01-01T00:51:06.000Z</time>
      </trkpt>
      <trkpt lat="42.257835" lon="3.054857">
        <ele>8</ele>
        <time>1970-01-01T00:51:07.000Z</time>
      </trkpt>
      <trkpt lat="42.257809" lon="3.05497">
        <ele>8</ele>
        <time>1970-01-01T00:51:08.000Z</time>
      </trkpt>
      <trkpt lat="42.257797" lon="3.055024">
        <ele>8</ele>
        <time>1970-01-01T00:51:09.000Z</time>
      </trkpt>
      <trkpt lat="42.257785" lon="3.055079">
        <ele>8</ele>
        <time>1970-01-01T00:51:10.000Z</time>
      </trkpt>
      <trkpt lat="42.257773" lon="3.055133">
        <ele>8</ele>
        <time>1970-01-01T00:51:11.000Z</time>
      </trkpt>
      <trkpt lat="42.257762" lon="3.055188">
        <ele>8</ele>
        <time>1970-01-01T00:51:12.000Z</time>
      </trkpt>
      <trkpt lat="42.25775" lon="3.055243">
        <ele>8</ele>
        <time>1970-01-01T00:51:13.000Z</time>
      </trkpt>
      <trkpt lat="42.257738" lon="3.055297">
        <ele>8</ele>
        <time>1970-01-01T00:51:14.000Z</time>
      </trkpt>
      <trkpt lat="42.257726" lon="3.055352">
        <ele>8</ele>
        <time>1970-01-01T00:51:15.000Z</time>
      </trkpt>
      <trkpt lat="42.257714" lon="3.055406">
        <ele>8</ele>
        <time>1970-01-01T00:51:16.000Z</time>
      </trkpt>
      <trkpt lat="42.257702" lon="3.055461">
        <ele>8</ele>
        <time>1970-01-01T00:51:17.000Z</time>
      </trkpt>
      <trkpt lat="42.257678" lon="3.055576">
        <ele>8</ele>
        <time>1970-01-01T00:51:18.000Z</time>
      </trkpt>
      <trkpt lat="42.257666" lon="3.05563">
        <ele>8</ele>
        <time>1970-01-01T00:51:19.000Z</time>
      </trkpt>
      <trkpt lat="42.257653" lon="3.055685">
        <ele>8</ele>
        <time>1970-01-01T00:51:20.000Z</time>
      </trkpt>
      <trkpt lat="42.257641" lon="3.055739">
        <ele>8</ele>
        <time>1970-01-01T00:51:21.000Z</time>
      </trkpt>
      <trkpt lat="42.257629" lon="3.055794">
        <ele>8</ele>
        <time>1970-01-01T00:51:22.000Z</time>
      </trkpt>
      <trkpt lat="42.257617" lon="3.055848">
        <ele>8</ele>
        <time>1970-01-01T00:51:23.000Z</time>
      </trkpt>
      <trkpt lat="42.257605" lon="3.055903">
        <ele>8</ele>
        <time>1970-01-01T00:51:24.000Z</time>
      </trkpt>
      <trkpt lat="42.257592" lon="3.055957">
        <ele>8</ele>
        <time>1970-01-01T00:51:25.000Z</time>
      </trkpt>
      <trkpt lat="42.25758" lon="3.056012">
        <ele>8</ele>
        <time>1970-01-01T00:51:26.000Z</time>
      </trkpt>
      <trkpt lat="42.257568" lon="3.056066">
        <ele>7</ele>
        <time>1970-01-01T00:51:27.000Z</time>
      </trkpt>
      <trkpt lat="42.257536" lon="3.056167">
        <ele>7</ele>
        <time>1970-01-01T00:51:28.000Z</time>
      </trkpt>
      <trkpt lat="42.257517" lon="3.056208">
        <ele>7</ele>
        <time>1970-01-01T00:51:29.000Z</time>
      </trkpt>
      <trkpt lat="42.257497" lon="3.05625">
        <ele>7</ele>
        <time>1970-01-01T00:51:30.000Z</time>
      </trkpt>
      <trkpt lat="42.257478" lon="3.056291">
        <ele>7</ele>
        <time>1970-01-01T00:51:31.000Z</time>
      </trkpt>
      <trkpt lat="42.257459" lon="3.056333">
        <ele>7</ele>
        <time>1970-01-01T00:51:32.000Z</time>
      </trkpt>
      <trkpt lat="42.25744" lon="3.056374">
        <ele>7</ele>
        <time>1970-01-01T00:51:33.000Z</time>
      </trkpt>
      <trkpt lat="42.257421" lon="3.056416">
        <ele>7</ele>
        <time>1970-01-01T00:51:34.000Z</time>
      </trkpt>
      <trkpt lat="42.257401" lon="3.056457">
        <ele>7</ele>
        <time>1970-01-01T00:51:35.000Z</time>
      </trkpt>
      <trkpt lat="42.257382" lon="3.056499">
        <ele>7</ele>
        <time>1970-01-01T00:51:36.000Z</time>
      </trkpt>
      <trkpt lat="42.257363" lon="3.05654">
        <ele>7</ele>
        <time>1970-01-01T00:51:37.000Z</time>
      </trkpt>
      <trkpt lat="42.257327" lon="3.056561">
        <ele>7</ele>
        <time>1970-01-01T00:51:38.000Z</time>
      </trkpt>
      <trkpt lat="42.257292" lon="3.056577">
        <ele>7</ele>
        <time>1970-01-01T00:51:39.000Z</time>
      </trkpt>
      <trkpt lat="42.257262" lon="3.056582">
        <ele>7</ele>
        <time>1970-01-01T00:51:40.000Z</time>
      </trkpt>
      <trkpt lat="42.257236" lon="3.056587">
        <ele>7</ele>
        <time>1970-01-01T00:51:41.000Z</time>
      </trkpt>
      <trkpt lat="42.257217" lon="3.056598">
        <ele>7</ele>
        <time>1970-01-01T00:51:42.000Z</time>
      </trkpt>
      <trkpt lat="42.257217" lon="3.056598">
        <ele>7</ele>
        <time>1970-01-01T00:51:47.000Z</time>
      </trkpt>
      <trkpt lat="42.257198" lon="3.056631">
        <ele>7</ele>
        <time>1970-01-01T00:51:48.000Z</time>
      </trkpt>
      <trkpt lat="42.257186" lon="3.056654">
        <ele>7</ele>
        <time>1970-01-01T01:04:05.000Z</time>
      </trkpt>
      <trkpt lat="42.257174" lon="3.056678">
        <ele>7</ele>
        <time>1970-01-01T01:04:07.000Z</time>
      </trkpt>
      <trkpt lat="42.257162" lon="3.056701">
        <ele>7</ele>
        <time>1970-01-01T01:04:08.000Z</time>
      </trkpt>
      <trkpt lat="42.25715" lon="3.056724">
        <ele>7</ele>
        <time>1970-01-01T01:04:10.000Z</time>
      </trkpt>
      <trkpt lat="42.257138" lon="3.056747">
        <ele>7</ele>
        <time>1970-01-01T01:04:11.000Z</time>
      </trkpt>
      <trkpt lat="42.257126" lon="3.056771">
        <ele>7</ele>
        <time>1970-01-01T01:04:12.000Z</time>
      </trkpt>
      <trkpt lat="42.257114" lon="3.056794">
        <ele>7</ele>
        <time>1970-01-01T01:04:13.000Z</time>
      </trkpt>
      <trkpt lat="42.257102" lon="3.056817">
        <ele>6</ele>
        <time>1970-01-01T01:04:14.000Z</time>
      </trkpt>
      <trkpt lat="42.257099" lon="3.056882">
        <ele>6</ele>
        <time>1970-01-01T01:04:15.000Z</time>
      </trkpt>
      <trkpt lat="42.257103" lon="3.05692">
        <ele>6</ele>
        <time>1970-01-01T01:04:16.000Z</time>
      </trkpt>
      <trkpt lat="42.257106" lon="3.056957">
        <ele>6</ele>
        <time>1970-01-01T01:04:17.000Z</time>
      </trkpt>
      <trkpt lat="42.257109" lon="3.056994">
        <ele>6</ele>
        <time>1970-01-01T01:04:18.000Z</time>
      </trkpt>
      <trkpt lat="42.257113" lon="3.057031">
        <ele>6</ele>
        <time>1970-01-01T01:04:19.000Z</time>
      </trkpt>
      <trkpt lat="42.257116" lon="3.057069">
        <ele>6</ele>
        <time>1970-01-01T01:04:20.000Z</time>
      </trkpt>
      <trkpt lat="42.25712" lon="3.057106">
        <ele>6</ele>
        <time>1970-01-01T01:04:21.000Z</time>
      </trkpt>
      <trkpt lat="42.257123" lon="3.057143">
        <ele>6</ele>
        <time>1970-01-01T01:04:22.000Z</time>
      </trkpt>
      <trkpt lat="42.257126" lon="3.05718">
        <ele>6</ele>
        <time>1970-01-01T01:04:23.000Z</time>
      </trkpt>
      <trkpt lat="42.25713" lon="3.057218">
        <ele>6</ele>
        <time>1970-01-01T01:04:24.000Z</time>
      </trkpt>
      <trkpt lat="42.257133" lon="3.057255">
        <ele>6</ele>
        <time>1970-01-01T01:04:25.000Z</time>
      </trkpt>
      <trkpt lat="42.257148" lon="3.05734">
        <ele>6</ele>
        <time>1970-01-01T01:04:26.000Z</time>
      </trkpt>
      <trkpt lat="42.257153" lon="3.057382">
        <ele>6</ele>
        <time>1970-01-01T01:04:27.000Z</time>
      </trkpt>
      <trkpt lat="42.257159" lon="3.057424">
        <ele>6</ele>
        <time>1970-01-01T01:04:28.000Z</time>
      </trkpt>
      <trkpt lat="42.257164" lon="3.057466">
        <ele>6</ele>
        <time>1970-01-01T01:04:29.000Z</time>
      </trkpt>
      <trkpt lat="42.25717" lon="3.057507">
        <ele>6</ele>
        <time>1970-01-01T01:04:30.000Z</time>
      </trkpt>
      <trkpt lat="42.257175" lon="3.057549">
        <ele>6</ele>
        <time>1970-01-01T01:04:31.000Z</time>
      </trkpt>
      <trkpt lat="42.257181" lon="3.057591">
        <ele>6</ele>
        <time>1970-01-01T01:04:32.000Z</time>
      </trkpt>
      <trkpt lat="42.257186" lon="3.057633">
        <ele>6</ele>
        <time>1970-01-01T01:04:33.000Z</time>
      </trkpt>
      <trkpt lat="42.257192" lon="3.057675">
        <ele>8</ele>
        <time>1970-01-01T01:04:34.000Z</time>
      </trkpt>
      <trkpt lat="42.257177" lon="3.057772">
        <ele>8</ele>
        <time>1970-01-01T01:04:35.000Z</time>
      </trkpt>
      <trkpt lat="42.257167" lon="3.057819">
        <ele>8</ele>
        <time>1970-01-01T01:04:36.000Z</time>
      </trkpt>
      <trkpt lat="42.257157" lon="3.057866">
        <ele>8</ele>
        <time>1970-01-01T01:04:37.000Z</time>
      </trkpt>
      <trkpt lat="42.257147" lon="3.057913">
        <ele>8</ele>
        <time>1970-01-01T01:04:38.000Z</time>
      </trkpt>
      <trkpt lat="42.257137" lon="3.05796">
        <ele>8</ele>
        <time>1970-01-01T01:04:39.000Z</time>
      </trkpt>
      <trkpt lat="42.257127" lon="3.058006">
        <ele>8</ele>
        <time>1970-01-01T01:04:40.000Z</time>
      </trkpt>
      <trkpt lat="42.257117" lon="3.058053">
        <ele>8</ele>
        <time>1970-01-01T01:04:41.000Z</time>
      </trkpt>
      <trkpt lat="42.257107" lon="3.0581">
        <ele>8</ele>
        <time>1970-01-01T01:04:42.000Z</time>
      </trkpt>
      <trkpt lat="42.257097" lon="3.058147">
        <ele>8</ele>
        <time>1970-01-01T01:04:43.000Z</time>
      </trkpt>
      <trkpt lat="42.257087" lon="3.058194">
        <ele>6</ele>
        <time>1970-01-01T01:04:44.000Z</time>
      </trkpt>
      <trkpt lat="42.257062" lon="3.058301">
        <ele>6</ele>
        <time>1970-01-01T01:04:45.000Z</time>
      </trkpt>
      <trkpt lat="42.25705" lon="3.058353">
        <ele>6</ele>
        <time>1970-01-01T01:04:46.000Z</time>
      </trkpt>
      <trkpt lat="42.257038" lon="3.058405">
        <ele>6</ele>
        <time>1970-01-01T01:04:47.000Z</time>
      </trkpt>
      <trkpt lat="42.257026" lon="3.058457">
        <ele>6</ele>
        <time>1970-01-01T01:04:48.000Z</time>
      </trkpt>
      <trkpt lat="42.257014" lon="3.05851">
        <ele>6</ele>
        <time>1970-01-01T01:04:49.000Z</time>
      </trkpt>
      <trkpt lat="42.257001" lon="3.058562">
        <ele>6</ele>
        <time>1970-01-01T01:04:50.000Z</time>
      </trkpt>
      <trkpt lat="42.256989" lon="3.058614">
        <ele>6</ele>
        <time>1970-01-01T01:04:51.000Z</time>
      </trkpt>
      <trkpt lat="42.256977" lon="3.058666">
        <ele>6</ele>
        <time>1970-01-01T01:04:52.000Z</time>
      </trkpt>
      <trkpt lat="42.256965" lon="3.058718">
        <ele>6</ele>
        <time>1970-01-01T01:04:53.000Z</time>
      </trkpt>
      <trkpt lat="42.256953" lon="3.05877">
        <ele>7</ele>
        <time>1970-01-01T01:04:54.000Z</time>
      </trkpt>
      <trkpt lat="42.256927" lon="3.05888">
        <ele>7</ele>
        <time>1970-01-01T01:04:55.000Z</time>
      </trkpt>
      <trkpt lat="42.256916" lon="3.058933">
        <ele>7</ele>
        <time>1970-01-01T01:04:56.000Z</time>
      </trkpt>
      <trkpt lat="42.256904" lon="3.058985">
        <ele>7</ele>
        <time>1970-01-01T01:04:57.000Z</time>
      </trkpt>
      <trkpt lat="42.256893" lon="3.059038">
        <ele>7</ele>
        <time>1970-01-01T01:04:58.000Z</time>
      </trkpt>
      <trkpt lat="42.256881" lon="3.05909">
        <ele>7</ele>
        <time>1970-01-01T01:04:59.000Z</time>
      </trkpt>
      <trkpt lat="42.256869" lon="3.059142">
        <ele>7</ele>
        <time>1970-01-01T01:05:00.000Z</time>
      </trkpt>
      <trkpt lat="42.256858" lon="3.059195">
        <ele>7</ele>
        <time>1970-01-01T01:05:01.000Z</time>
      </trkpt>
      <trkpt lat="42.256846" lon="3.059247">
        <ele>7</ele>
        <time>1970-01-01T01:05:02.000Z</time>
      </trkpt>
      <trkpt lat="42.256835" lon="3.0593">
        <ele>7</ele>
        <time>1970-01-01T01:05:03.000Z</time>
      </trkpt>
      <trkpt lat="42.256823" lon="3.059352">
        <ele>7</ele>
        <time>1970-01-01T01:05:04.000Z</time>
      </trkpt>
      <trkpt lat="42.256798" lon="3.059463">
        <ele>7</ele>
        <time>1970-01-01T01:05:05.000Z</time>
      </trkpt>
      <trkpt lat="42.256786" lon="3.059515">
        <ele>7</ele>
        <time>1970-01-01T01:05:06.000Z</time>
      </trkpt>
      <trkpt lat="42.256774" lon="3.059568">
        <ele>7</ele>
        <time>1970-01-01T01:05:07.000Z</time>
      </trkpt>
      <trkpt lat="42.256762" lon="3.059621">
        <ele>7</ele>
        <time>1970-01-01T01:05:08.000Z</time>
      </trkpt>
      <trkpt lat="42.256751" lon="3.059674">
        <ele>7</ele>
        <time>1970-01-01T01:05:09.000Z</time>
      </trkpt>
      <trkpt lat="42.256739" lon="3.059726">
        <ele>7</ele>
        <time>1970-01-01T01:05:10.000Z</time>
      </trkpt>
      <trkpt lat="42.256727" lon="3.059779">
        <ele>7</ele>
        <time>1970-01-01T01:05:11.000Z</time>
      </trkpt>
      <trkpt lat="42.256715" lon="3.059832">
        <ele>7</ele>
        <time>1970-01-01T01:05:12.000Z</time>
      </trkpt>
      <trkpt lat="42.256703" lon="3.059884">
        <ele>7</ele>
        <time>1970-01-01T01:05:13.000Z</time>
      </trkpt>
      <trkpt lat="42.256691" lon="3.059937">
        <ele>7</ele>
        <time>1970-01-01T01:05:14.000Z</time>
      </trkpt>
      <trkpt lat="42.256666" lon="3.060052">
        <ele>7</ele>
        <time>1970-01-01T01:05:15.000Z</time>
      </trkpt>
      <trkpt lat="42.256654" lon="3.060106">
        <ele>7</ele>
        <time>1970-01-01T01:05:16.000Z</time>
      </trkpt>
      <trkpt lat="42.256642" lon="3.060161">
        <ele>7</ele>
        <time>1970-01-01T01:05:17.000Z</time>
      </trkpt>
      <trkpt lat="42.25663" lon="3.060216">
        <ele>7</ele>
        <time>1970-01-01T01:05:18.000Z</time>
      </trkpt>
      <trkpt lat="42.256618" lon="3.060271">
        <ele>7</ele>
        <time>1970-01-01T01:05:19.000Z</time>
      </trkpt>
      <trkpt lat="42.256605" lon="3.060325">
        <ele>7</ele>
        <time>1970-01-01T01:05:20.000Z</time>
      </trkpt>
      <trkpt lat="42.256593" lon="3.06038">
        <ele>7</ele>
        <time>1970-01-01T01:05:21.000Z</time>
      </trkpt>
      <trkpt lat="42.256581" lon="3.060435">
        <ele>7</ele>
        <time>1970-01-01T01:05:22.000Z</time>
      </trkpt>
      <trkpt lat="42.256569" lon="3.06049">
        <ele>7</ele>
        <time>1970-01-01T01:05:23.000Z</time>
      </trkpt>
      <trkpt lat="42.256557" lon="3.060544">
        <ele>7</ele>
        <time>1970-01-01T01:05:24.000Z</time>
      </trkpt>
      <trkpt lat="42.256545" lon="3.060599">
        <ele>7</ele>
        <time>1970-01-01T01:05:25.000Z</time>
      </trkpt>
      <trkpt lat="42.256522" lon="3.060709">
        <ele>7</ele>
        <time>1970-01-01T01:05:26.000Z</time>
      </trkpt>
      <trkpt lat="42.256511" lon="3.060762">
        <ele>7</ele>
        <time>1970-01-01T01:05:27.000Z</time>
      </trkpt>
      <trkpt lat="42.2565" lon="3.060814">
        <ele>7</ele>
        <time>1970-01-01T01:05:28.000Z</time>
      </trkpt>
      <trkpt lat="42.256489" lon="3.060867">
        <ele>7</ele>
        <time>1970-01-01T01:05:29.000Z</time>
      </trkpt>
      <trkpt lat="42.256477" lon="3.06092">
        <ele>7</ele>
        <time>1970-01-01T01:05:30.000Z</time>
      </trkpt>
      <trkpt lat="42.256466" lon="3.060973">
        <ele>7</ele>
        <time>1970-01-01T01:05:31.000Z</time>
      </trkpt>
      <trkpt lat="42.256455" lon="3.061025">
        <ele>7</ele>
        <time>1970-01-01T01:05:32.000Z</time>
      </trkpt>
      <trkpt lat="42.256444" lon="3.061078">
        <ele>7</ele>
        <time>1970-01-01T01:05:33.000Z</time>
      </trkpt>
      <trkpt lat="42.256433" lon="3.061131">
        <ele>7</ele>
        <time>1970-01-01T01:05:34.000Z</time>
      </trkpt>
      <trkpt lat="42.256409" lon="3.061245">
        <ele>7</ele>
        <time>1970-01-01T01:05:35.000Z</time>
      </trkpt>
      <trkpt lat="42.256396" lon="3.061301">
        <ele>7</ele>
        <time>1970-01-01T01:05:36.000Z</time>
      </trkpt>
      <trkpt lat="42.256384" lon="3.061357">
        <ele>7</ele>
        <time>1970-01-01T01:05:37.000Z</time>
      </trkpt>
      <trkpt lat="42.256371" lon="3.061413">
        <ele>7</ele>
        <time>1970-01-01T01:05:38.000Z</time>
      </trkpt>
      <trkpt lat="42.256359" lon="3.06147">
        <ele>7</ele>
        <time>1970-01-01T01:05:39.000Z</time>
      </trkpt>
      <trkpt lat="42.256346" lon="3.061526">
        <ele>7</ele>
        <time>1970-01-01T01:05:40.000Z</time>
      </trkpt>
      <trkpt lat="42.256334" lon="3.061582">
        <ele>7</ele>
        <time>1970-01-01T01:05:41.000Z</time>
      </trkpt>
      <trkpt lat="42.256321" lon="3.061638">
        <ele>7</ele>
        <time>1970-01-01T01:05:42.000Z</time>
      </trkpt>
      <trkpt lat="42.256309" lon="3.061694">
        <ele>7</ele>
        <time>1970-01-01T01:05:43.000Z</time>
      </trkpt>
      <trkpt lat="42.256296" lon="3.06175">
        <ele>7</ele>
        <time>1970-01-01T01:05:44.000Z</time>
      </trkpt>
      <trkpt lat="42.256268" lon="3.061873">
        <ele>7</ele>
        <time>1970-01-01T01:05:45.000Z</time>
      </trkpt>
      <trkpt lat="42.256254" lon="3.061932">
        <ele>7</ele>
        <time>1970-01-01T01:05:46.000Z</time>
      </trkpt>
      <trkpt lat="42.256241" lon="3.06199">
        <ele>7</ele>
        <time>1970-01-01T01:05:47.000Z</time>
      </trkpt>
      <trkpt lat="42.256227" lon="3.062049">
        <ele>7</ele>
        <time>1970-01-01T01:05:48.000Z</time>
      </trkpt>
      <trkpt lat="42.256214" lon="3.062108">
        <ele>7</ele>
        <time>1970-01-01T01:05:49.000Z</time>
      </trkpt>
      <trkpt lat="42.256201" lon="3.062167">
        <ele>7</ele>
        <time>1970-01-01T01:05:50.000Z</time>
      </trkpt>
      <trkpt lat="42.256187" lon="3.062226">
        <ele>7</ele>
        <time>1970-01-01T01:05:51.000Z</time>
      </trkpt>
      <trkpt lat="42.256174" lon="3.062284">
        <ele>7</ele>
        <time>1970-01-01T01:05:52.000Z</time>
      </trkpt>
      <trkpt lat="42.25616" lon="3.062343">
        <ele>7</ele>
        <time>1970-01-01T01:05:53.000Z</time>
      </trkpt>
      <trkpt lat="42.256147" lon="3.062402">
        <ele>7</ele>
        <time>1970-01-01T01:05:54.000Z</time>
      </trkpt>
      <trkpt lat="42.256117" lon="3.062528">
        <ele>7</ele>
        <time>1970-01-01T01:05:55.000Z</time>
      </trkpt>
      <trkpt lat="42.256103" lon="3.062588">
        <ele>7</ele>
        <time>1970-01-01T01:05:56.000Z</time>
      </trkpt>
      <trkpt lat="42.256088" lon="3.062649">
        <ele>7</ele>
        <time>1970-01-01T01:05:57.000Z</time>
      </trkpt>
      <trkpt lat="42.256074" lon="3.062709">
        <ele>7</ele>
        <time>1970-01-01T01:05:58.000Z</time>
      </trkpt>
      <trkpt lat="42.256059" lon="3.06277">
        <ele>7</ele>
        <time>1970-01-01T01:05:59.000Z</time>
      </trkpt>
      <trkpt lat="42.256044" lon="3.062831">
        <ele>7</ele>
        <time>1970-01-01T01:06:00.000Z</time>
      </trkpt>
      <trkpt lat="42.25603" lon="3.062891">
        <ele>7</ele>
        <time>1970-01-01T01:06:01.000Z</time>
      </trkpt>
      <trkpt lat="42.256015" lon="3.062952">
        <ele>7</ele>
        <time>1970-01-01T01:06:02.000Z</time>
      </trkpt>
      <trkpt lat="42.256001" lon="3.063012">
        <ele>7</ele>
        <time>1970-01-01T01:06:03.000Z</time>
      </trkpt>
      <trkpt lat="42.255986" lon="3.063073">
        <ele>7</ele>
        <time>1970-01-01T01:06:04.000Z</time>
      </trkpt>
      <trkpt lat="42.255957" lon="3.063194">
        <ele>7</ele>
        <time>1970-01-01T01:06:05.000Z</time>
      </trkpt>
      <trkpt lat="42.255944" lon="3.06325">
        <ele>7</ele>
        <time>1970-01-01T01:06:06.000Z</time>
      </trkpt>
      <trkpt lat="42.255931" lon="3.063307">
        <ele>7</ele>
        <time>1970-01-01T01:06:07.000Z</time>
      </trkpt>
      <trkpt lat="42.255918" lon="3.063363">
        <ele>7</ele>
        <time>1970-01-01T01:06:08.000Z</time>
      </trkpt>
      <trkpt lat="42.255905" lon="3.063419">
        <ele>7</ele>
        <time>1970-01-01T01:06:09.000Z</time>
      </trkpt>
      <trkpt lat="42.255891" lon="3.063475">
        <ele>7</ele>
        <time>1970-01-01T01:06:10.000Z</time>
      </trkpt>
      <trkpt lat="42.255878" lon="3.063531">
        <ele>7</ele>
        <time>1970-01-01T01:06:11.000Z</time>
      </trkpt>
      <trkpt lat="42.255865" lon="3.063588">
        <ele>7</ele>
        <time>1970-01-01T01:06:12.000Z</time>
      </trkpt>
      <trkpt lat="42.255852" lon="3.063644">
        <ele>7</ele>
        <time>1970-01-01T01:06:13.000Z</time>
      </trkpt>
      <trkpt lat="42.255839" lon="3.0637">
        <ele>7</ele>
        <time>1970-01-01T01:06:14.000Z</time>
      </trkpt>
      <trkpt lat="42.255812" lon="3.063816">
        <ele>7</ele>
        <time>1970-01-01T01:06:15.000Z</time>
      </trkpt>
      <trkpt lat="42.255799" lon="3.063872">
        <ele>7</ele>
        <time>1970-01-01T01:06:16.000Z</time>
      </trkpt>
      <trkpt lat="42.255786" lon="3.063927">
        <ele>7</ele>
        <time>1970-01-01T01:06:17.000Z</time>
      </trkpt>
      <trkpt lat="42.255773" lon="3.063982">
        <ele>7</ele>
        <time>1970-01-01T01:06:18.000Z</time>
      </trkpt>
      <trkpt lat="42.255761" lon="3.064038">
        <ele>7</ele>
        <time>1970-01-01T01:06:19.000Z</time>
      </trkpt>
      <trkpt lat="42.255748" lon="3.064093">
        <ele>7</ele>
        <time>1970-01-01T01:06:20.000Z</time>
      </trkpt>
      <trkpt lat="42.255735" lon="3.064148">
        <ele>7</ele>
        <time>1970-01-01T01:06:21.000Z</time>
      </trkpt>
      <trkpt lat="42.255722" lon="3.064203">
        <ele>7</ele>
        <time>1970-01-01T01:06:22.000Z</time>
      </trkpt>
      <trkpt lat="42.255709" lon="3.064259">
        <ele>7</ele>
        <time>1970-01-01T01:06:23.000Z</time>
      </trkpt>
      <trkpt lat="42.255696" lon="3.064314">
        <ele>7</ele>
        <time>1970-01-01T01:06:24.000Z</time>
      </trkpt>
      <trkpt lat="42.255669" lon="3.064431">
        <ele>7</ele>
        <time>1970-01-01T01:06:25.000Z</time>
      </trkpt>
      <trkpt lat="42.255656" lon="3.064487">
        <ele>7</ele>
        <time>1970-01-01T01:06:26.000Z</time>
      </trkpt>
      <trkpt lat="42.255642" lon="3.064544">
        <ele>7</ele>
        <time>1970-01-01T01:06:27.000Z</time>
      </trkpt>
      <trkpt lat="42.255629" lon="3.0646">
        <ele>7</ele>
        <time>1970-01-01T01:06:28.000Z</time>
      </trkpt>
      <trkpt lat="42.255616" lon="3.064657">
        <ele>7</ele>
        <time>1970-01-01T01:06:29.000Z</time>
      </trkpt>
      <trkpt lat="42.255603" lon="3.064713">
        <ele>7</ele>
        <time>1970-01-01T01:06:30.000Z</time>
      </trkpt>
      <trkpt lat="42.25559" lon="3.06477">
        <ele>7</ele>
        <time>1970-01-01T01:06:31.000Z</time>
      </trkpt>
      <trkpt lat="42.255576" lon="3.064826">
        <ele>7</ele>
        <time>1970-01-01T01:06:32.000Z</time>
      </trkpt>
      <trkpt lat="42.255563" lon="3.064883">
        <ele>7</ele>
        <time>1970-01-01T01:06:33.000Z</time>
      </trkpt>
      <trkpt lat="42.25555" lon="3.064939">
        <ele>7</ele>
        <time>1970-01-01T01:06:34.000Z</time>
      </trkpt>
      <trkpt lat="42.255521" lon="3.065059">
        <ele>7</ele>
        <time>1970-01-01T01:06:35.000Z</time>
      </trkpt>
      <trkpt lat="42.255509" lon="3.065116">
        <ele>7</ele>
        <time>1970-01-01T01:06:36.000Z</time>
      </trkpt>
      <trkpt lat="42.255496" lon="3.065172">
        <ele>7</ele>
        <time>1970-01-01T01:06:37.000Z</time>
      </trkpt>
      <trkpt lat="42.255483" lon="3.065228">
        <ele>7</ele>
        <time>1970-01-01T01:06:38.000Z</time>
      </trkpt>
      <trkpt lat="42.255471" lon="3.065285">
        <ele>7</ele>
        <time>1970-01-01T01:06:39.000Z</time>
      </trkpt>
      <trkpt lat="42.255458" lon="3.065341">
        <ele>7</ele>
        <time>1970-01-01T01:06:40.000Z</time>
      </trkpt>
      <trkpt lat="42.255445" lon="3.065397">
        <ele>7</ele>
        <time>1970-01-01T01:06:41.000Z</time>
      </trkpt>
      <trkpt lat="42.255432" lon="3.065453">
        <ele>7</ele>
        <time>1970-01-01T01:06:42.000Z</time>
      </trkpt>
      <trkpt lat="42.25542" lon="3.06551">
        <ele>7</ele>
        <time>1970-01-01T01:06:43.000Z</time>
      </trkpt>
      <trkpt lat="42.255407" lon="3.065566">
        <ele>7</ele>
        <time>1970-01-01T01:06:44.000Z</time>
      </trkpt>
      <trkpt lat="42.25538" lon="3.065683">
        <ele>7</ele>
        <time>1970-01-01T01:06:45.000Z</time>
      </trkpt>
      <trkpt lat="42.255367" lon="3.065739">
        <ele>7</ele>
        <time>1970-01-01T01:06:46.000Z</time>
      </trkpt>
      <trkpt lat="42.255354" lon="3.065794">
        <ele>7</ele>
        <time>1970-01-01T01:06:47.000Z</time>
      </trkpt>
      <trkpt lat="42.255341" lon="3.06585">
        <ele>7</ele>
        <time>1970-01-01T01:06:48.000Z</time>
      </trkpt>
      <trkpt lat="42.255328" lon="3.065905">
        <ele>7</ele>
        <time>1970-01-01T01:06:49.000Z</time>
      </trkpt>
      <trkpt lat="42.255314" lon="3.06596">
        <ele>7</ele>
        <time>1970-01-01T01:06:50.000Z</time>
      </trkpt>
      <trkpt lat="42.255301" lon="3.066016">
        <ele>7</ele>
        <time>1970-01-01T01:06:51.000Z</time>
      </trkpt>
      <trkpt lat="42.255288" lon="3.066071">
        <ele>7</ele>
        <time>1970-01-01T01:06:52.000Z</time>
      </trkpt>
      <trkpt lat="42.255275" lon="3.066127">
        <ele>7</ele>
        <time>1970-01-01T01:06:53.000Z</time>
      </trkpt>
      <trkpt lat="42.255262" lon="3.066182">
        <ele>7</ele>
        <time>1970-01-01T01:06:54.000Z</time>
      </trkpt>
      <trkpt lat="42.255232" lon="3.0663">
        <ele>7</ele>
        <time>1970-01-01T01:06:55.000Z</time>
      </trkpt>
      <trkpt lat="42.255218" lon="3.066357">
        <ele>7</ele>
        <time>1970-01-01T01:06:56.000Z</time>
      </trkpt>
      <trkpt lat="42.255204" lon="3.066413">
        <ele>7</ele>
        <time>1970-01-01T01:06:57.000Z</time>
      </trkpt>
      <trkpt lat="42.25519" lon="3.066469">
        <ele>7</ele>
        <time>1970-01-01T01:06:58.000Z</time>
      </trkpt>
      <trkpt lat="42.255176" lon="3.066526">
        <ele>7</ele>
        <time>1970-01-01T01:06:59.000Z</time>
      </trkpt>
      <trkpt lat="42.255161" lon="3.066582">
        <ele>7</ele>
        <time>1970-01-01T01:07:00.000Z</time>
      </trkpt>
      <trkpt lat="42.255147" lon="3.066638">
        <ele>7</ele>
        <time>1970-01-01T01:07:01.000Z</time>
      </trkpt>
      <trkpt lat="42.255133" lon="3.066694">
        <ele>7</ele>
        <time>1970-01-01T01:07:02.000Z</time>
      </trkpt>
      <trkpt lat="42.255119" lon="3.066751">
        <ele>7</ele>
        <time>1970-01-01T01:07:03.000Z</time>
      </trkpt>
      <trkpt lat="42.255105" lon="3.066807">
        <ele>8</ele>
        <time>1970-01-01T01:07:04.000Z</time>
      </trkpt>
      <trkpt lat="42.255078" lon="3.066923">
        <ele>8</ele>
        <time>1970-01-01T01:07:05.000Z</time>
      </trkpt>
      <trkpt lat="42.255064" lon="3.066977">
        <ele>8</ele>
        <time>1970-01-01T01:07:06.000Z</time>
      </trkpt>
      <trkpt lat="42.255051" lon="3.067032">
        <ele>8</ele>
        <time>1970-01-01T01:07:07.000Z</time>
      </trkpt>
      <trkpt lat="42.255038" lon="3.067087">
        <ele>8</ele>
        <time>1970-01-01T01:07:08.000Z</time>
      </trkpt>
      <trkpt lat="42.255025" lon="3.067142">
        <ele>8</ele>
        <time>1970-01-01T01:07:09.000Z</time>
      </trkpt>
      <trkpt lat="42.255011" lon="3.067196">
        <ele>8</ele>
        <time>1970-01-01T01:07:10.000Z</time>
      </trkpt>
      <trkpt lat="42.254998" lon="3.067251">
        <ele>8</ele>
        <time>1970-01-01T01:07:11.000Z</time>
      </trkpt>
      <trkpt lat="42.254985" lon="3.067306">
        <ele>8</ele>
        <time>1970-01-01T01:07:12.000Z</time>
      </trkpt>
      <trkpt lat="42.254971" lon="3.06736">
        <ele>8</ele>
        <time>1970-01-01T01:07:13.000Z</time>
      </trkpt>
      <trkpt lat="42.254958" lon="3.067415">
        <ele>8</ele>
        <time>1970-01-01T01:07:14.000Z</time>
      </trkpt>
      <trkpt lat="42.254932" lon="3.06753">
        <ele>8</ele>
        <time>1970-01-01T01:07:15.000Z</time>
      </trkpt>
      <trkpt lat="42.254918" lon="3.067586">
        <ele>8</ele>
        <time>1970-01-01T01:07:16.000Z</time>
      </trkpt>
      <trkpt lat="42.254905" lon="3.067643">
        <ele>8</ele>
        <time>1970-01-01T01:07:17.000Z</time>
      </trkpt>
      <trkpt lat="42.254892" lon="3.067699">
        <ele>8</ele>
        <time>1970-01-01T01:07:18.000Z</time>
      </trkpt>
      <trkpt lat="42.254879" lon="3.067756">
        <ele>8</ele>
        <time>1970-01-01T01:07:19.000Z</time>
      </trkpt>
      <trkpt lat="42.254865" lon="3.067813">
        <ele>8</ele>
        <time>1970-01-01T01:07:20.000Z</time>
      </trkpt>
      <trkpt lat="42.254852" lon="3.067869">
        <ele>8</ele>
        <time>1970-01-01T01:07:21.000Z</time>
      </trkpt>
      <trkpt lat="42.254839" lon="3.067926">
        <ele>8</ele>
        <time>1970-01-01T01:07:22.000Z</time>
      </trkpt>
      <trkpt lat="42.254825" lon="3.067982">
        <ele>8</ele>
        <time>1970-01-01T01:07:23.000Z</time>
      </trkpt>
      <trkpt lat="42.254812" lon="3.068039">
        <ele>8</ele>
        <time>1970-01-01T01:07:24.000Z</time>
      </trkpt>
      <trkpt lat="42.254782" lon="3.068162">
        <ele>8</ele>
        <time>1970-01-01T01:07:25.000Z</time>
      </trkpt>
      <trkpt lat="42.254767" lon="3.068221">
        <ele>8</ele>
        <time>1970-01-01T01:07:26.000Z</time>
      </trkpt>
      <trkpt lat="42.254753" lon="3.068281">
        <ele>8</ele>
        <time>1970-01-01T01:07:27.000Z</time>
      </trkpt>
      <trkpt lat="42.254738" lon="3.06834">
        <ele>8</ele>
        <time>1970-01-01T01:07:28.000Z</time>
      </trkpt>
      <trkpt lat="42.254723" lon="3.068399">
        <ele>8</ele>
        <time>1970-01-01T01:07:29.000Z</time>
      </trkpt>
      <trkpt lat="42.254708" lon="3.068458">
        <ele>8</ele>
        <time>1970-01-01T01:07:30.000Z</time>
      </trkpt>
      <trkpt lat="42.254693" lon="3.068517">
        <ele>8</ele>
        <time>1970-01-01T01:07:31.000Z</time>
      </trkpt>
      <trkpt lat="42.254678" lon="3.068576">
        <ele>8</ele>
        <time>1970-01-01T01:07:32.000Z</time>
      </trkpt>
      <trkpt lat="42.254664" lon="3.068636">
        <ele>8</ele>
        <time>1970-01-01T01:07:33.000Z</time>
      </trkpt>
      <trkpt lat="42.254649" lon="3.068695">
        <ele>8</ele>
        <time>1970-01-01T01:07:34.000Z</time>
      </trkpt>
      <trkpt lat="42.254634" lon="3.068754">
        <ele>9</ele>
        <time>1970-01-01T01:07:35.000Z</time>
      </trkpt>
      <trkpt lat="42.2546" lon="3.06887">
        <ele>9</ele>
        <time>1970-01-01T01:07:36.000Z</time>
      </trkpt>
      <trkpt lat="42.254586" lon="3.068925">
        <ele>9</ele>
        <time>1970-01-01T01:07:37.000Z</time>
      </trkpt>
      <trkpt lat="42.254573" lon="3.068979">
        <ele>9</ele>
        <time>1970-01-01T01:07:38.000Z</time>
      </trkpt>
      <trkpt lat="42.25456" lon="3.069034">
        <ele>9</ele>
        <time>1970-01-01T01:07:39.000Z</time>
      </trkpt>
      <trkpt lat="42.254546" lon="3.069089">
        <ele>9</ele>
        <time>1970-01-01T01:07:40.000Z</time>
      </trkpt>
      <trkpt lat="42.254533" lon="3.069144">
        <ele>9</ele>
        <time>1970-01-01T01:07:41.000Z</time>
      </trkpt>
      <trkpt lat="42.25452" lon="3.069198">
        <ele>9</ele>
        <time>1970-01-01T01:07:42.000Z</time>
      </trkpt>
      <trkpt lat="42.254506" lon="3.069253">
        <ele>9</ele>
        <time>1970-01-01T01:07:43.000Z</time>
      </trkpt>
      <trkpt lat="42.254493" lon="3.069308">
        <ele>9</ele>
        <time>1970-01-01T01:07:44.000Z</time>
      </trkpt>
      <trkpt lat="42.254469" lon="3.069423">
        <ele>9</ele>
        <time>1970-01-01T01:07:45.000Z</time>
      </trkpt>
      <trkpt lat="42.254458" lon="3.069477">
        <ele>9</ele>
        <time>1970-01-01T01:07:46.000Z</time>
      </trkpt>
      <trkpt lat="42.254447" lon="3.069531">
        <ele>9</ele>
        <time>1970-01-01T01:07:47.000Z</time>
      </trkpt>
      <trkpt lat="42.254436" lon="3.069585">
        <ele>9</ele>
        <time>1970-01-01T01:07:48.000Z</time>
      </trkpt>
      <trkpt lat="42.254425" lon="3.069639">
        <ele>9</ele>
        <time>1970-01-01T01:07:49.000Z</time>
      </trkpt>
      <trkpt lat="42.254414" lon="3.069692">
        <ele>9</ele>
        <time>1970-01-01T01:07:50.000Z</time>
      </trkpt>
      <trkpt lat="42.254403" lon="3.069746">
        <ele>9</ele>
        <time>1970-01-01T01:07:51.000Z</time>
      </trkpt>
      <trkpt lat="42.254392" lon="3.0698">
        <ele>9</ele>
        <time>1970-01-01T01:07:52.000Z</time>
      </trkpt>
      <trkpt lat="42.254381" lon="3.069854">
        <ele>9</ele>
        <time>1970-01-01T01:07:53.000Z</time>
      </trkpt>
      <trkpt lat="42.25437" lon="3.069908">
        <ele>10</ele>
        <time>1970-01-01T01:07:54.000Z</time>
      </trkpt>
      <trkpt lat="42.254347" lon="3.070023">
        <ele>10</ele>
        <time>1970-01-01T01:07:55.000Z</time>
      </trkpt>
      <trkpt lat="42.254336" lon="3.070077">
        <ele>10</ele>
        <time>1970-01-01T01:07:56.000Z</time>
      </trkpt>
      <trkpt lat="42.254325" lon="3.070132">
        <ele>10</ele>
        <time>1970-01-01T01:07:57.000Z</time>
      </trkpt>
      <trkpt lat="42.254314" lon="3.070186">
        <ele>10</ele>
        <time>1970-01-01T01:07:58.000Z</time>
      </trkpt>
      <trkpt lat="42.254303" lon="3.070241">
        <ele>10</ele>
        <time>1970-01-01T01:07:59.000Z</time>
      </trkpt>
      <trkpt lat="42.254291" lon="3.070296">
        <ele>10</ele>
        <time>1970-01-01T01:08:00.000Z</time>
      </trkpt>
      <trkpt lat="42.25428" lon="3.07035">
        <ele>10</ele>
        <time>1970-01-01T01:08:01.000Z</time>
      </trkpt>
      <trkpt lat="42.254269" lon="3.070405">
        <ele>10</ele>
        <time>1970-01-01T01:08:02.000Z</time>
      </trkpt>
      <trkpt lat="42.254258" lon="3.070459">
        <ele>10</ele>
        <time>1970-01-01T01:08:03.000Z</time>
      </trkpt>
      <trkpt lat="42.254247" lon="3.070514">
        <ele>11</ele>
        <time>1970-01-01T01:08:04.000Z</time>
      </trkpt>
      <trkpt lat="42.254223" lon="3.070629">
        <ele>11</ele>
        <time>1970-01-01T01:08:05.000Z</time>
      </trkpt>
      <trkpt lat="42.254212" lon="3.070683">
        <ele>11</ele>
        <time>1970-01-01T01:08:06.000Z</time>
      </trkpt>
      <trkpt lat="42.2542" lon="3.070737">
        <ele>11</ele>
        <time>1970-01-01T01:08:07.000Z</time>
      </trkpt>
      <trkpt lat="42.254189" lon="3.070791">
        <ele>11</ele>
        <time>1970-01-01T01:08:08.000Z</time>
      </trkpt>
      <trkpt lat="42.254178" lon="3.070845">
        <ele>11</ele>
        <time>1970-01-01T01:08:09.000Z</time>
      </trkpt>
      <trkpt lat="42.254167" lon="3.070899">
        <ele>11</ele>
        <time>1970-01-01T01:08:10.000Z</time>
      </trkpt>
      <trkpt lat="42.254156" lon="3.070953">
        <ele>11</ele>
        <time>1970-01-01T01:08:11.000Z</time>
      </trkpt>
      <trkpt lat="42.254144" lon="3.071007">
        <ele>11</ele>
        <time>1970-01-01T01:08:12.000Z</time>
      </trkpt>
      <trkpt lat="42.254133" lon="3.071061">
        <ele>11</ele>
        <time>1970-01-01T01:08:13.000Z</time>
      </trkpt>
      <trkpt lat="42.254122" lon="3.071115">
        <ele>11</ele>
        <time>1970-01-01T01:08:14.000Z</time>
      </trkpt>
      <trkpt lat="42.254088" lon="3.071224">
        <ele>11</ele>
        <time>1970-01-01T01:08:15.000Z</time>
      </trkpt>
      <trkpt lat="42.254066" lon="3.071274">
        <ele>11</ele>
        <time>1970-01-01T01:08:16.000Z</time>
      </trkpt>
      <trkpt lat="42.254045" lon="3.071324">
        <ele>11</ele>
        <time>1970-01-01T01:08:17.000Z</time>
      </trkpt>
      <trkpt lat="42.254023" lon="3.071374">
        <ele>11</ele>
        <time>1970-01-01T01:08:18.000Z</time>
      </trkpt>
      <trkpt lat="42.254002" lon="3.071425">
        <ele>11</ele>
        <time>1970-01-01T01:08:19.000Z</time>
      </trkpt>
      <trkpt lat="42.25398" lon="3.071475">
        <ele>11</ele>
        <time>1970-01-01T01:08:20.000Z</time>
      </trkpt>
      <trkpt lat="42.253959" lon="3.071525">
        <ele>11</ele>
        <time>1970-01-01T01:08:21.000Z</time>
      </trkpt>
      <trkpt lat="42.253937" lon="3.071575">
        <ele>11</ele>
        <time>1970-01-01T01:08:22.000Z</time>
      </trkpt>
      <trkpt lat="42.253916" lon="3.071625">
        <ele>11</ele>
        <time>1970-01-01T01:08:23.000Z</time>
      </trkpt>
      <trkpt lat="42.253894" lon="3.071675">
        <ele>11</ele>
        <time>1970-01-01T01:08:24.000Z</time>
      </trkpt>
      <trkpt lat="42.253837" lon="3.071779">
        <ele>11</ele>
        <time>1970-01-01T01:08:25.000Z</time>
      </trkpt>
      <trkpt lat="42.253809" lon="3.071828">
        <ele>11</ele>
        <time>1970-01-01T01:08:26.000Z</time>
      </trkpt>
      <trkpt lat="42.253782" lon="3.071878">
        <ele>11</ele>
        <time>1970-01-01T01:08:27.000Z</time>
      </trkpt>
      <trkpt lat="42.253754" lon="3.071928">
        <ele>11</ele>
        <time>1970-01-01T01:08:28.000Z</time>
      </trkpt>
      <trkpt lat="42.253727" lon="3.071978">
        <ele>11</ele>
        <time>1970-01-01T01:08:29.000Z</time>
      </trkpt>
      <trkpt lat="42.2537" lon="3.072027">
        <ele>11</ele>
        <time>1970-01-01T01:08:30.000Z</time>
      </trkpt>
      <trkpt lat="42.253672" lon="3.072077">
        <ele>11</ele>
        <time>1970-01-01T01:08:31.000Z</time>
      </trkpt>
      <trkpt lat="42.253645" lon="3.072127">
        <ele>11</ele>
        <time>1970-01-01T01:08:32.000Z</time>
      </trkpt>
      <trkpt lat="42.253617" lon="3.072176">
        <ele>11</ele>
        <time>1970-01-01T01:08:33.000Z</time>
      </trkpt>
      <trkpt lat="42.25359" lon="3.072226">
        <ele>11</ele>
        <time>1970-01-01T01:08:34.000Z</time>
      </trkpt>
      <trkpt lat="42.253525" lon="3.07234">
        <ele>11</ele>
        <time>1970-01-01T01:08:35.000Z</time>
      </trkpt>
      <trkpt lat="42.253495" lon="3.072395">
        <ele>11</ele>
        <time>1970-01-01T01:08:36.000Z</time>
      </trkpt>
      <trkpt lat="42.253464" lon="3.07245">
        <ele>11</ele>
        <time>1970-01-01T01:08:37.000Z</time>
      </trkpt>
      <trkpt lat="42.253434" lon="3.072505">
        <ele>11</ele>
        <time>1970-01-01T01:08:38.000Z</time>
      </trkpt>
      <trkpt lat="42.253403" lon="3.07256">
        <ele>11</ele>
        <time>1970-01-01T01:08:39.000Z</time>
      </trkpt>
      <trkpt lat="42.253372" lon="3.072614">
        <ele>11</ele>
        <time>1970-01-01T01:08:40.000Z</time>
      </trkpt>
      <trkpt lat="42.253342" lon="3.072669">
        <ele>11</ele>
        <time>1970-01-01T01:08:41.000Z</time>
      </trkpt>
      <trkpt lat="42.253311" lon="3.072724">
        <ele>11</ele>
        <time>1970-01-01T01:08:42.000Z</time>
      </trkpt>
      <trkpt lat="42.253281" lon="3.072779">
        <ele>11</ele>
        <time>1970-01-01T01:08:43.000Z</time>
      </trkpt>
      <trkpt lat="42.25325" lon="3.072834">
        <ele>10</ele>
        <time>1970-01-01T01:08:44.000Z</time>
      </trkpt>
      <trkpt lat="42.253186" lon="3.072946">
        <ele>10</ele>
        <time>1970-01-01T01:08:45.000Z</time>
      </trkpt>
      <trkpt lat="42.253157" lon="3.072998">
        <ele>10</ele>
        <time>1970-01-01T01:08:46.000Z</time>
      </trkpt>
      <trkpt lat="42.253128" lon="3.073051">
        <ele>10</ele>
        <time>1970-01-01T01:08:47.000Z</time>
      </trkpt>
      <trkpt lat="42.253099" lon="3.073104">
        <ele>10</ele>
        <time>1970-01-01T01:08:48.000Z</time>
      </trkpt>
      <trkpt lat="42.253071" lon="3.073157">
        <ele>10</ele>
        <time>1970-01-01T01:08:49.000Z</time>
      </trkpt>
      <trkpt lat="42.253042" lon="3.073209">
        <ele>10</ele>
        <time>1970-01-01T01:08:50.000Z</time>
      </trkpt>
      <trkpt lat="42.253013" lon="3.073262">
        <ele>10</ele>
        <time>1970-01-01T01:08:51.000Z</time>
      </trkpt>
      <trkpt lat="42.252984" lon="3.073315">
        <ele>10</ele>
        <time>1970-01-01T01:08:52.000Z</time>
      </trkpt>
      <trkpt lat="42.252955" lon="3.073367">
        <ele>10</ele>
        <time>1970-01-01T01:08:53.000Z</time>
      </trkpt>
      <trkpt lat="42.252926" lon="3.07342">
        <ele>9</ele>
        <time>1970-01-01T01:08:54.000Z</time>
      </trkpt>
      <trkpt lat="42.252866" lon="3.073529">
        <ele>9</ele>
        <time>1970-01-01T01:08:55.000Z</time>
      </trkpt>
      <trkpt lat="42.252837" lon="3.073581">
        <ele>9</ele>
        <time>1970-01-01T01:08:56.000Z</time>
      </trkpt>
      <trkpt lat="42.252809" lon="3.073634">
        <ele>9</ele>
        <time>1970-01-01T01:08:57.000Z</time>
      </trkpt>
      <trkpt lat="42.25278" lon="3.073686">
        <ele>9</ele>
        <time>1970-01-01T01:08:58.000Z</time>
      </trkpt>
      <trkpt lat="42.252751" lon="3.073738">
        <ele>9</ele>
        <time>1970-01-01T01:08:59.000Z</time>
      </trkpt>
      <trkpt lat="42.252722" lon="3.07379">
        <ele>9</ele>
        <time>1970-01-01T01:09:00.000Z</time>
      </trkpt>
      <trkpt lat="42.252693" lon="3.073842">
        <ele>9</ele>
        <time>1970-01-01T01:09:01.000Z</time>
      </trkpt>
      <trkpt lat="42.252665" lon="3.073895">
        <ele>9</ele>
        <time>1970-01-01T01:09:02.000Z</time>
      </trkpt>
      <trkpt lat="42.252636" lon="3.073947">
        <ele>9</ele>
        <time>1970-01-01T01:09:03.000Z</time>
      </trkpt>
      <trkpt lat="42.252607" lon="3.073999">
        <ele>10</ele>
        <time>1970-01-01T01:09:04.000Z</time>
      </trkpt>
      <trkpt lat="42.252547" lon="3.074109">
        <ele>10</ele>
        <time>1970-01-01T01:09:05.000Z</time>
      </trkpt>
      <trkpt lat="42.252518" lon="3.074161">
        <ele>10</ele>
        <time>1970-01-01T01:09:06.000Z</time>
      </trkpt>
      <trkpt lat="42.25249" lon="3.074213">
        <ele>10</ele>
        <time>1970-01-01T01:09:07.000Z</time>
      </trkpt>
      <trkpt lat="42.252461" lon="3.074265">
        <ele>10</ele>
        <time>1970-01-01T01:09:08.000Z</time>
      </trkpt>
      <trkpt lat="42.252433" lon="3.074318">
        <ele>10</ele>
        <time>1970-01-01T01:09:09.000Z</time>
      </trkpt>
      <trkpt lat="42.252404" lon="3.07437">
        <ele>10</ele>
        <time>1970-01-01T01:09:10.000Z</time>
      </trkpt>
      <trkpt lat="42.252376" lon="3.074422">
        <ele>10</ele>
        <time>1970-01-01T01:09:11.000Z</time>
      </trkpt>
      <trkpt lat="42.252347" lon="3.074474">
        <ele>10</ele>
        <time>1970-01-01T01:09:12.000Z</time>
      </trkpt>
      <trkpt lat="42.252319" lon="3.074526">
        <ele>10</ele>
        <time>1970-01-01T01:09:13.000Z</time>
      </trkpt>
      <trkpt lat="42.25229" lon="3.074578">
        <ele>11</ele>
        <time>1970-01-01T01:09:14.000Z</time>
      </trkpt>
      <trkpt lat="42.25223" lon="3.074683">
        <ele>11</ele>
        <time>1970-01-01T01:09:15.000Z</time>
      </trkpt>
      <trkpt lat="42.252202" lon="3.074731">
        <ele>11</ele>
        <time>1970-01-01T01:09:16.000Z</time>
      </trkpt>
      <trkpt lat="42.252173" lon="3.07478">
        <ele>11</ele>
        <time>1970-01-01T01:09:17.000Z</time>
      </trkpt>
      <trkpt lat="42.252144" lon="3.074829">
        <ele>11</ele>
        <time>1970-01-01T01:09:18.000Z</time>
      </trkpt>
      <trkpt lat="42.252116" lon="3.074878">
        <ele>11</ele>
        <time>1970-01-01T01:09:19.000Z</time>
      </trkpt>
      <trkpt lat="42.252087" lon="3.074926">
        <ele>11</ele>
        <time>1970-01-01T01:09:20.000Z</time>
      </trkpt>
      <trkpt lat="42.252058" lon="3.074975">
        <ele>11</ele>
        <time>1970-01-01T01:09:21.000Z</time>
      </trkpt>
      <trkpt lat="42.252029" lon="3.075024">
        <ele>11</ele>
        <time>1970-01-01T01:09:22.000Z</time>
      </trkpt>
      <trkpt lat="42.252001" lon="3.075072">
        <ele>11</ele>
        <time>1970-01-01T01:09:23.000Z</time>
      </trkpt>
      <trkpt lat="42.251972" lon="3.075121">
        <ele>11</ele>
        <time>1970-01-01T01:09:24.000Z</time>
      </trkpt>
      <trkpt lat="42.2519" lon="3.075213">
        <ele>11</ele>
        <time>1970-01-01T01:09:25.000Z</time>
      </trkpt>
      <trkpt lat="42.251864" lon="3.075253">
        <ele>11</ele>
        <time>1970-01-01T01:09:26.000Z</time>
      </trkpt>
      <trkpt lat="42.251827" lon="3.075294">
        <ele>11</ele>
        <time>1970-01-01T01:09:27.000Z</time>
      </trkpt>
      <trkpt lat="42.251791" lon="3.075335">
        <ele>11</ele>
        <time>1970-01-01T01:09:28.000Z</time>
      </trkpt>
      <trkpt lat="42.251755" lon="3.075376">
        <ele>11</ele>
        <time>1970-01-01T01:09:29.000Z</time>
      </trkpt>
      <trkpt lat="42.251719" lon="3.075416">
        <ele>11</ele>
        <time>1970-01-01T01:09:30.000Z</time>
      </trkpt>
      <trkpt lat="42.251683" lon="3.075457">
        <ele>11</ele>
        <time>1970-01-01T01:09:31.000Z</time>
      </trkpt>
      <trkpt lat="42.251646" lon="3.075498">
        <ele>11</ele>
        <time>1970-01-01T01:09:32.000Z</time>
      </trkpt>
      <trkpt lat="42.25161" lon="3.075538">
        <ele>11</ele>
        <time>1970-01-01T01:09:33.000Z</time>
      </trkpt>
      <trkpt lat="42.251574" lon="3.075579">
        <ele>11</ele>
        <time>1970-01-01T01:09:34.000Z</time>
      </trkpt>
      <trkpt lat="42.251482" lon="3.07565">
        <ele>11</ele>
        <time>1970-01-01T01:09:35.000Z</time>
      </trkpt>
      <trkpt lat="42.251436" lon="3.075682">
        <ele>11</ele>
        <time>1970-01-01T01:09:36.000Z</time>
      </trkpt>
      <trkpt lat="42.25139" lon="3.075713">
        <ele>11</ele>
        <time>1970-01-01T01:09:37.000Z</time>
      </trkpt>
      <trkpt lat="42.251344" lon="3.075745">
        <ele>11</ele>
        <time>1970-01-01T01:09:38.000Z</time>
      </trkpt>
      <trkpt lat="42.251298" lon="3.075777">
        <ele>11</ele>
        <time>1970-01-01T01:09:39.000Z</time>
      </trkpt>
      <trkpt lat="42.251253" lon="3.075809">
        <ele>11</ele>
        <time>1970-01-01T01:09:40.000Z</time>
      </trkpt>
      <trkpt lat="42.251207" lon="3.075841">
        <ele>11</ele>
        <time>1970-01-01T01:09:41.000Z</time>
      </trkpt>
      <trkpt lat="42.251161" lon="3.075873">
        <ele>11</ele>
        <time>1970-01-01T01:09:42.000Z</time>
      </trkpt>
      <trkpt lat="42.251115" lon="3.075904">
        <ele>11</ele>
        <time>1970-01-01T01:09:43.000Z</time>
      </trkpt>
      <trkpt lat="42.251069" lon="3.075936">
        <ele>11</ele>
        <time>1970-01-01T01:09:44.000Z</time>
      </trkpt>
      <trkpt lat="42.251023" lon="3.075968">
        <ele>9</ele>
        <time>1970-01-01T01:09:45.000Z</time>
      </trkpt>
      <trkpt lat="42.251013" lon="3.07611">
        <ele>9</ele>
        <time>1970-01-01T01:09:46.000Z</time>
      </trkpt>
      <trkpt lat="42.251031" lon="3.076173">
        <ele>9</ele>
        <time>1970-01-01T01:09:47.000Z</time>
      </trkpt>
      <trkpt lat="42.251048" lon="3.076235">
        <ele>9</ele>
        <time>1970-01-01T01:09:48.000Z</time>
      </trkpt>
      <trkpt lat="42.251066" lon="3.076298">
        <ele>9</ele>
        <time>1970-01-01T01:09:49.000Z</time>
      </trkpt>
      <trkpt lat="42.251083" lon="3.076361">
        <ele>9</ele>
        <time>1970-01-01T01:09:50.000Z</time>
      </trkpt>
      <trkpt lat="42.251101" lon="3.076424">
        <ele>9</ele>
        <time>1970-01-01T01:09:51.000Z</time>
      </trkpt>
      <trkpt lat="42.251118" lon="3.076486">
        <ele>9</ele>
        <time>1970-01-01T01:09:52.000Z</time>
      </trkpt>
      <trkpt lat="42.251136" lon="3.076549">
        <ele>9</ele>
        <time>1970-01-01T01:09:53.000Z</time>
      </trkpt>
      <trkpt lat="42.251153" lon="3.076612">
        <ele>9</ele>
        <time>1970-01-01T01:09:54.000Z</time>
      </trkpt>
      <trkpt lat="42.251207" lon="3.076717">
        <ele>9</ele>
        <time>1970-01-01T01:09:55.000Z</time>
      </trkpt>
      <trkpt lat="42.251221" lon="3.076775">
        <ele>9</ele>
        <time>1970-01-01T01:09:56.000Z</time>
      </trkpt>
      <trkpt lat="42.251236" lon="3.076832">
        <ele>9</ele>
        <time>1970-01-01T01:09:57.000Z</time>
      </trkpt>
      <trkpt lat="42.25125" lon="3.07689">
        <ele>9</ele>
        <time>1970-01-01T01:09:58.000Z</time>
      </trkpt>
      <trkpt lat="42.251264" lon="3.076947">
        <ele>9</ele>
        <time>1970-01-01T01:09:59.000Z</time>
      </trkpt>
      <trkpt lat="42.251278" lon="3.077005">
        <ele>9</ele>
        <time>1970-01-01T01:10:00.000Z</time>
      </trkpt>
      <trkpt lat="42.251292" lon="3.077062">
        <ele>9</ele>
        <time>1970-01-01T01:10:01.000Z</time>
      </trkpt>
      <trkpt lat="42.251307" lon="3.07712">
        <ele>9</ele>
        <time>1970-01-01T01:10:02.000Z</time>
      </trkpt>
      <trkpt lat="42.251321" lon="3.077177">
        <ele>9</ele>
        <time>1970-01-01T01:10:03.000Z</time>
      </trkpt>
      <trkpt lat="42.251335" lon="3.077235">
        <ele>10</ele>
        <time>1970-01-01T01:10:04.000Z</time>
      </trkpt>
      <trkpt lat="42.251337" lon="3.077373">
        <ele>10</ele>
        <time>1970-01-01T01:10:05.000Z</time>
      </trkpt>
      <trkpt lat="42.251338" lon="3.077438">
        <ele>10</ele>
        <time>1970-01-01T01:10:06.000Z</time>
      </trkpt>
      <trkpt lat="42.251338" lon="3.077504">
        <ele>10</ele>
        <time>1970-01-01T01:10:07.000Z</time>
      </trkpt>
      <trkpt lat="42.251339" lon="3.07757">
        <ele>10</ele>
        <time>1970-01-01T01:10:08.000Z</time>
      </trkpt>
      <trkpt lat="42.25134" lon="3.077635">
        <ele>10</ele>
        <time>1970-01-01T01:10:09.000Z</time>
      </trkpt>
      <trkpt lat="42.251341" lon="3.077701">
        <ele>10</ele>
        <time>1970-01-01T01:10:10.000Z</time>
      </trkpt>
      <trkpt lat="42.251342" lon="3.077767">
        <ele>10</ele>
        <time>1970-01-01T01:10:11.000Z</time>
      </trkpt>
      <trkpt lat="42.251342" lon="3.077833">
        <ele>10</ele>
        <time>1970-01-01T01:10:12.000Z</time>
      </trkpt>
      <trkpt lat="42.251343" lon="3.077898">
        <ele>10</ele>
        <time>1970-01-01T01:10:13.000Z</time>
      </trkpt>
      <trkpt lat="42.251344" lon="3.077964">
        <ele>11</ele>
        <time>1970-01-01T01:10:14.000Z</time>
      </trkpt>
      <trkpt lat="42.251347" lon="3.0781">
        <ele>11</ele>
        <time>1970-01-01T01:10:15.000Z</time>
      </trkpt>
      <trkpt lat="42.251348" lon="3.078164">
        <ele>11</ele>
        <time>1970-01-01T01:10:16.000Z</time>
      </trkpt>
      <trkpt lat="42.25135" lon="3.078227">
        <ele>11</ele>
        <time>1970-01-01T01:10:17.000Z</time>
      </trkpt>
      <trkpt lat="42.251351" lon="3.07829">
        <ele>11</ele>
        <time>1970-01-01T01:10:18.000Z</time>
      </trkpt>
      <trkpt lat="42.251352" lon="3.078353">
        <ele>11</ele>
        <time>1970-01-01T01:10:19.000Z</time>
      </trkpt>
      <trkpt lat="42.251353" lon="3.078417">
        <ele>11</ele>
        <time>1970-01-01T01:10:20.000Z</time>
      </trkpt>
      <trkpt lat="42.251354" lon="3.07848">
        <ele>11</ele>
        <time>1970-01-01T01:10:21.000Z</time>
      </trkpt>
      <trkpt lat="42.251356" lon="3.078543">
        <ele>11</ele>
        <time>1970-01-01T01:10:22.000Z</time>
      </trkpt>
      <trkpt lat="42.251357" lon="3.078607">
        <ele>11</ele>
        <time>1970-01-01T01:10:23.000Z</time>
      </trkpt>
      <trkpt lat="42.251358" lon="3.07867">
        <ele>11</ele>
        <time>1970-01-01T01:10:24.000Z</time>
      </trkpt>
      <trkpt lat="42.251361" lon="3.078802">
        <ele>11</ele>
        <time>1970-01-01T01:10:25.000Z</time>
      </trkpt>
      <trkpt lat="42.251364" lon="3.078863">
        <ele>11</ele>
        <time>1970-01-01T01:10:26.000Z</time>
      </trkpt>
      <trkpt lat="42.251366" lon="3.078925">
        <ele>11</ele>
        <time>1970-01-01T01:10:27.000Z</time>
      </trkpt>
      <trkpt lat="42.251369" lon="3.078987">
        <ele>11</ele>
        <time>1970-01-01T01:10:28.000Z</time>
      </trkpt>
      <trkpt lat="42.251372" lon="3.079048">
        <ele>11</ele>
        <time>1970-01-01T01:10:29.000Z</time>
      </trkpt>
      <trkpt lat="42.251375" lon="3.07911">
        <ele>11</ele>
        <time>1970-01-01T01:10:30.000Z</time>
      </trkpt>
      <trkpt lat="42.251378" lon="3.079172">
        <ele>11</ele>
        <time>1970-01-01T01:10:31.000Z</time>
      </trkpt>
      <trkpt lat="42.25138" lon="3.079234">
        <ele>11</ele>
        <time>1970-01-01T01:10:32.000Z</time>
      </trkpt>
      <trkpt lat="42.251383" lon="3.079295">
        <ele>11</ele>
        <time>1970-01-01T01:10:33.000Z</time>
      </trkpt>
      <trkpt lat="42.251386" lon="3.079357">
        <ele>11</ele>
        <time>1970-01-01T01:10:34.000Z</time>
      </trkpt>
      <trkpt lat="42.251395" lon="3.079488">
        <ele>11</ele>
        <time>1970-01-01T01:10:35.000Z</time>
      </trkpt>
      <trkpt lat="42.251401" lon="3.079551">
        <ele>11</ele>
        <time>1970-01-01T01:10:36.000Z</time>
      </trkpt>
      <trkpt lat="42.251407" lon="3.079613">
        <ele>11</ele>
        <time>1970-01-01T01:10:37.000Z</time>
      </trkpt>
      <trkpt lat="42.251413" lon="3.079675">
        <ele>11</ele>
        <time>1970-01-01T01:10:38.000Z</time>
      </trkpt>
      <trkpt lat="42.251419" lon="3.079737">
        <ele>11</ele>
        <time>1970-01-01T01:10:39.000Z</time>
      </trkpt>
      <trkpt lat="42.251425" lon="3.0798">
        <ele>11</ele>
        <time>1970-01-01T01:10:40.000Z</time>
      </trkpt>
      <trkpt lat="42.251431" lon="3.079862">
        <ele>11</ele>
        <time>1970-01-01T01:10:41.000Z</time>
      </trkpt>
      <trkpt lat="42.251437" lon="3.079924">
        <ele>11</ele>
        <time>1970-01-01T01:10:42.000Z</time>
      </trkpt>
      <trkpt lat="42.251443" lon="3.079986">
        <ele>11</ele>
        <time>1970-01-01T01:10:43.000Z</time>
      </trkpt>
      <trkpt lat="42.251449" lon="3.080049">
        <ele>11</ele>
        <time>1970-01-01T01:10:44.000Z</time>
      </trkpt>
      <trkpt lat="42.251455" lon="3.080111">
        <ele>10</ele>
        <time>1970-01-01T01:10:45.000Z</time>
      </trkpt>
      <trkpt lat="42.251472" lon="3.080239">
        <ele>10</ele>
        <time>1970-01-01T01:10:46.000Z</time>
      </trkpt>
      <trkpt lat="42.251481" lon="3.080299">
        <ele>10</ele>
        <time>1970-01-01T01:10:47.000Z</time>
      </trkpt>
      <trkpt lat="42.25149" lon="3.080358">
        <ele>10</ele>
        <time>1970-01-01T01:10:48.000Z</time>
      </trkpt>
      <trkpt lat="42.251499" lon="3.080418">
        <ele>10</ele>
        <time>1970-01-01T01:10:49.000Z</time>
      </trkpt>
      <trkpt lat="42.251509" lon="3.080478">
        <ele>10</ele>
        <time>1970-01-01T01:10:50.000Z</time>
      </trkpt>
      <trkpt lat="42.251518" lon="3.080538">
        <ele>10</ele>
        <time>1970-01-01T01:10:51.000Z</time>
      </trkpt>
      <trkpt lat="42.251527" lon="3.080597">
        <ele>10</ele>
        <time>1970-01-01T01:10:52.000Z</time>
      </trkpt>
      <trkpt lat="42.251536" lon="3.080657">
        <ele>10</ele>
        <time>1970-01-01T01:10:53.000Z</time>
      </trkpt>
      <trkpt lat="42.251545" lon="3.080717">
        <ele>10</ele>
        <time>1970-01-01T01:10:54.000Z</time>
      </trkpt>
      <trkpt lat="42.251571" lon="3.080845">
        <ele>10</ele>
        <time>1970-01-01T01:10:55.000Z</time>
      </trkpt>
      <trkpt lat="42.251584" lon="3.080906">
        <ele>10</ele>
        <time>1970-01-01T01:10:56.000Z</time>
      </trkpt>
      <trkpt lat="42.251598" lon="3.080966">
        <ele>10</ele>
        <time>1970-01-01T01:10:57.000Z</time>
      </trkpt>
      <trkpt lat="42.251611" lon="3.081027">
        <ele>10</ele>
        <time>1970-01-01T01:10:58.000Z</time>
      </trkpt>
      <trkpt lat="42.251625" lon="3.081087">
        <ele>10</ele>
        <time>1970-01-01T01:10:59.000Z</time>
      </trkpt>
      <trkpt lat="42.251638" lon="3.081147">
        <ele>10</ele>
        <time>1970-01-01T01:11:00.000Z</time>
      </trkpt>
      <trkpt lat="42.251652" lon="3.081208">
        <ele>10</ele>
        <time>1970-01-01T01:11:01.000Z</time>
      </trkpt>
      <trkpt lat="42.251665" lon="3.081268">
        <ele>10</ele>
        <time>1970-01-01T01:11:02.000Z</time>
      </trkpt>
      <trkpt lat="42.251679" lon="3.081329">
        <ele>10</ele>
        <time>1970-01-01T01:11:03.000Z</time>
      </trkpt>
      <trkpt lat="42.251692" lon="3.081389">
        <ele>11</ele>
        <time>1970-01-01T01:11:04.000Z</time>
      </trkpt>
      <trkpt lat="42.251727" lon="3.081517">
        <ele>11</ele>
        <time>1970-01-01T01:11:05.000Z</time>
      </trkpt>
      <trkpt lat="42.251744" lon="3.081578">
        <ele>11</ele>
        <time>1970-01-01T01:11:06.000Z</time>
      </trkpt>
      <trkpt lat="42.251762" lon="3.081639">
        <ele>11</ele>
        <time>1970-01-01T01:11:07.000Z</time>
      </trkpt>
      <trkpt lat="42.25178" lon="3.0817">
        <ele>11</ele>
        <time>1970-01-01T01:11:08.000Z</time>
      </trkpt>
      <trkpt lat="42.251798" lon="3.081761">
        <ele>11</ele>
        <time>1970-01-01T01:11:09.000Z</time>
      </trkpt>
      <trkpt lat="42.251815" lon="3.081822">
        <ele>11</ele>
        <time>1970-01-01T01:11:10.000Z</time>
      </trkpt>
      <trkpt lat="42.251833" lon="3.081883">
        <ele>11</ele>
        <time>1970-01-01T01:11:11.000Z</time>
      </trkpt>
      <trkpt lat="42.251851" lon="3.081944">
        <ele>11</ele>
        <time>1970-01-01T01:11:12.000Z</time>
      </trkpt>
      <trkpt lat="42.251868" lon="3.082005">
        <ele>11</ele>
        <time>1970-01-01T01:11:13.000Z</time>
      </trkpt>
      <trkpt lat="42.251886" lon="3.082066">
        <ele>11</ele>
        <time>1970-01-01T01:11:14.000Z</time>
      </trkpt>
      <trkpt lat="42.251925" lon="3.082199">
        <ele>11</ele>
        <time>1970-01-01T01:11:15.000Z</time>
      </trkpt>
      <trkpt lat="42.251944" lon="3.082261">
        <ele>11</ele>
        <time>1970-01-01T01:11:16.000Z</time>
      </trkpt>
      <trkpt lat="42.251963" lon="3.082324">
        <ele>11</ele>
        <time>1970-01-01T01:11:17.000Z</time>
      </trkpt>
      <trkpt lat="42.251982" lon="3.082386">
        <ele>11</ele>
        <time>1970-01-01T01:11:18.000Z</time>
      </trkpt>
      <trkpt lat="42.252001" lon="3.082448">
        <ele>11</ele>
        <time>1970-01-01T01:11:19.000Z</time>
      </trkpt>
      <trkpt lat="42.252019" lon="3.08251">
        <ele>11</ele>
        <time>1970-01-01T01:11:20.000Z</time>
      </trkpt>
      <trkpt lat="42.252038" lon="3.082572">
        <ele>11</ele>
        <time>1970-01-01T01:11:21.000Z</time>
      </trkpt>
      <trkpt lat="42.252057" lon="3.082635">
        <ele>11</ele>
        <time>1970-01-01T01:11:22.000Z</time>
      </trkpt>
      <trkpt lat="42.252076" lon="3.082697">
        <ele>11</ele>
        <time>1970-01-01T01:11:23.000Z</time>
      </trkpt>
      <trkpt lat="42.252095" lon="3.082759">
        <ele>11</ele>
        <time>1970-01-01T01:11:24.000Z</time>
      </trkpt>
      <trkpt lat="42.252135" lon="3.082888">
        <ele>11</ele>
        <time>1970-01-01T01:11:25.000Z</time>
      </trkpt>
      <trkpt lat="42.252155" lon="3.08295">
        <ele>11</ele>
        <time>1970-01-01T01:11:26.000Z</time>
      </trkpt>
      <trkpt lat="42.252174" lon="3.083011">
        <ele>11</ele>
        <time>1970-01-01T01:11:27.000Z</time>
      </trkpt>
      <trkpt lat="42.252194" lon="3.083073">
        <ele>11</ele>
        <time>1970-01-01T01:11:28.000Z</time>
      </trkpt>
      <trkpt lat="42.252213" lon="3.083134">
        <ele>11</ele>
        <time>1970-01-01T01:11:29.000Z</time>
      </trkpt>
      <trkpt lat="42.252232" lon="3.083196">
        <ele>11</ele>
        <time>1970-01-01T01:11:30.000Z</time>
      </trkpt>
      <trkpt lat="42.252252" lon="3.083257">
        <ele>11</ele>
        <time>1970-01-01T01:11:31.000Z</time>
      </trkpt>
      <trkpt lat="42.252271" lon="3.083319">
        <ele>11</ele>
        <time>1970-01-01T01:11:32.000Z</time>
      </trkpt>
      <trkpt lat="42.252291" lon="3.08338">
        <ele>11</ele>
        <time>1970-01-01T01:11:33.000Z</time>
      </trkpt>
      <trkpt lat="42.25231" lon="3.083442">
        <ele>11</ele>
        <time>1970-01-01T01:11:34.000Z</time>
      </trkpt>
      <trkpt lat="42.25235" lon="3.08357">
        <ele>11</ele>
        <time>1970-01-01T01:11:35.000Z</time>
      </trkpt>
      <trkpt lat="42.252369" lon="3.083631">
        <ele>11</ele>
        <time>1970-01-01T01:11:36.000Z</time>
      </trkpt>
      <trkpt lat="42.252388" lon="3.083691">
        <ele>11</ele>
        <time>1970-01-01T01:11:37.000Z</time>
      </trkpt>
      <trkpt lat="42.252407" lon="3.083752">
        <ele>11</ele>
        <time>1970-01-01T01:11:38.000Z</time>
      </trkpt>
      <trkpt lat="42.252426" lon="3.083812">
        <ele>11</ele>
        <time>1970-01-01T01:11:39.000Z</time>
      </trkpt>
      <trkpt lat="42.252444" lon="3.083872">
        <ele>11</ele>
        <time>1970-01-01T01:11:40.000Z</time>
      </trkpt>
      <trkpt lat="42.252463" lon="3.083933">
        <ele>11</ele>
        <time>1970-01-01T01:11:41.000Z</time>
      </trkpt>
      <trkpt lat="42.252482" lon="3.083993">
        <ele>11</ele>
        <time>1970-01-01T01:11:42.000Z</time>
      </trkpt>
      <trkpt lat="42.252501" lon="3.084054">
        <ele>11</ele>
        <time>1970-01-01T01:11:43.000Z</time>
      </trkpt>
      <trkpt lat="42.25252" lon="3.084114">
        <ele>11</ele>
        <time>1970-01-01T01:11:44.000Z</time>
      </trkpt>
      <trkpt lat="42.252561" lon="3.084236">
        <ele>11</ele>
        <time>1970-01-01T01:11:45.000Z</time>
      </trkpt>
      <trkpt lat="42.252581" lon="3.084292">
        <ele>11</ele>
        <time>1970-01-01T01:11:46.000Z</time>
      </trkpt>
      <trkpt lat="42.252601" lon="3.084348">
        <ele>11</ele>
        <time>1970-01-01T01:11:47.000Z</time>
      </trkpt>
      <trkpt lat="42.252621" lon="3.084404">
        <ele>11</ele>
        <time>1970-01-01T01:11:48.000Z</time>
      </trkpt>
      <trkpt lat="42.252642" lon="3.08446">
        <ele>11</ele>
        <time>1970-01-01T01:11:49.000Z</time>
      </trkpt>
      <trkpt lat="42.252662" lon="3.084517">
        <ele>11</ele>
        <time>1970-01-01T01:11:50.000Z</time>
      </trkpt>
      <trkpt lat="42.252682" lon="3.084573">
        <ele>11</ele>
        <time>1970-01-01T01:11:51.000Z</time>
      </trkpt>
      <trkpt lat="42.252702" lon="3.084629">
        <ele>11</ele>
        <time>1970-01-01T01:11:52.000Z</time>
      </trkpt>
      <trkpt lat="42.252722" lon="3.084685">
        <ele>11</ele>
        <time>1970-01-01T01:11:53.000Z</time>
      </trkpt>
      <trkpt lat="42.252742" lon="3.084741">
        <ele>11</ele>
        <time>1970-01-01T01:11:54.000Z</time>
      </trkpt>
      <trkpt lat="42.252795" lon="3.084852">
        <ele>11</ele>
        <time>1970-01-01T01:11:55.000Z</time>
      </trkpt>
      <trkpt lat="42.252823" lon="3.084902">
        <ele>11</ele>
        <time>1970-01-01T01:11:56.000Z</time>
      </trkpt>
      <trkpt lat="42.25285" lon="3.084953">
        <ele>11</ele>
        <time>1970-01-01T01:11:57.000Z</time>
      </trkpt>
      <trkpt lat="42.252878" lon="3.085003">
        <ele>11</ele>
        <time>1970-01-01T01:11:58.000Z</time>
      </trkpt>
      <trkpt lat="42.252906" lon="3.085053">
        <ele>11</ele>
        <time>1970-01-01T01:11:59.000Z</time>
      </trkpt>
      <trkpt lat="42.252934" lon="3.085103">
        <ele>11</ele>
        <time>1970-01-01T01:12:00.000Z</time>
      </trkpt>
      <trkpt lat="42.252962" lon="3.085153">
        <ele>11</ele>
        <time>1970-01-01T01:12:01.000Z</time>
      </trkpt>
      <trkpt lat="42.252989" lon="3.085204">
        <ele>11</ele>
        <time>1970-01-01T01:12:02.000Z</time>
      </trkpt>
      <trkpt lat="42.253017" lon="3.085254">
        <ele>11</ele>
        <time>1970-01-01T01:12:03.000Z</time>
      </trkpt>
      <trkpt lat="42.253045" lon="3.085304">
        <ele>11</ele>
        <time>1970-01-01T01:12:04.000Z</time>
      </trkpt>
      <trkpt lat="42.253114" lon="3.085398">
        <ele>11</ele>
        <time>1970-01-01T01:12:05.000Z</time>
      </trkpt>
      <trkpt lat="42.253149" lon="3.085439">
        <ele>11</ele>
        <time>1970-01-01T01:12:06.000Z</time>
      </trkpt>
      <trkpt lat="42.253185" lon="3.085481">
        <ele>11</ele>
        <time>1970-01-01T01:12:07.000Z</time>
      </trkpt>
      <trkpt lat="42.25322" lon="3.085522">
        <ele>11</ele>
        <time>1970-01-01T01:12:08.000Z</time>
      </trkpt>
      <trkpt lat="42.253256" lon="3.085563">
        <ele>11</ele>
        <time>1970-01-01T01:12:09.000Z</time>
      </trkpt>
      <trkpt lat="42.253291" lon="3.085604">
        <ele>11</ele>
        <time>1970-01-01T01:12:10.000Z</time>
      </trkpt>
      <trkpt lat="42.253327" lon="3.085645">
        <ele>11</ele>
        <time>1970-01-01T01:12:11.000Z</time>
      </trkpt>
      <trkpt lat="42.253362" lon="3.085687">
        <ele>11</ele>
        <time>1970-01-01T01:12:12.000Z</time>
      </trkpt>
      <trkpt lat="42.253398" lon="3.085728">
        <ele>11</ele>
        <time>1970-01-01T01:12:13.000Z</time>
      </trkpt>
      <trkpt lat="42.253433" lon="3.085769">
        <ele>13</ele>
        <time>1970-01-01T01:12:14.000Z</time>
      </trkpt>
      <trkpt lat="42.253519" lon="3.085843">
        <ele>13</ele>
        <time>1970-01-01T01:12:15.000Z</time>
      </trkpt>
      <trkpt lat="42.253561" lon="3.085877">
        <ele>13</ele>
        <time>1970-01-01T01:12:16.000Z</time>
      </trkpt>
      <trkpt lat="42.253604" lon="3.08591">
        <ele>13</ele>
        <time>1970-01-01T01:12:17.000Z</time>
      </trkpt>
      <trkpt lat="42.253646" lon="3.085943">
        <ele>13</ele>
        <time>1970-01-01T01:12:18.000Z</time>
      </trkpt>
      <trkpt lat="42.253689" lon="3.085976">
        <ele>13</ele>
        <time>1970-01-01T01:12:19.000Z</time>
      </trkpt>
      <trkpt lat="42.253731" lon="3.08601">
        <ele>13</ele>
        <time>1970-01-01T01:12:20.000Z</time>
      </trkpt>
      <trkpt lat="42.253774" lon="3.086043">
        <ele>13</ele>
        <time>1970-01-01T01:12:21.000Z</time>
      </trkpt>
      <trkpt lat="42.253816" lon="3.086076">
        <ele>13</ele>
        <time>1970-01-01T01:12:22.000Z</time>
      </trkpt>
      <trkpt lat="42.253859" lon="3.086109">
        <ele>13</ele>
        <time>1970-01-01T01:12:23.000Z</time>
      </trkpt>
      <trkpt lat="42.253901" lon="3.086143">
        <ele>13</ele>
        <time>1970-01-01T01:12:24.000Z</time>
      </trkpt>
      <trkpt lat="42.253944" lon="3.086176">
        <ele>14</ele>
        <time>1970-01-01T01:12:25.000Z</time>
      </trkpt>
      <trkpt lat="42.254037" lon="3.086241">
        <ele>14</ele>
        <time>1970-01-01T01:12:26.000Z</time>
      </trkpt>
      <trkpt lat="42.254081" lon="3.086272">
        <ele>14</ele>
        <time>1970-01-01T01:12:27.000Z</time>
      </trkpt>
      <trkpt lat="42.254124" lon="3.086302">
        <ele>14</ele>
        <time>1970-01-01T01:12:28.000Z</time>
      </trkpt>
      <trkpt lat="42.254168" lon="3.086333">
        <ele>14</ele>
        <time>1970-01-01T01:12:29.000Z</time>
      </trkpt>
      <trkpt lat="42.254211" lon="3.086363">
        <ele>14</ele>
        <time>1970-01-01T01:12:30.000Z</time>
      </trkpt>
      <trkpt lat="42.254255" lon="3.086394">
        <ele>14</ele>
        <time>1970-01-01T01:12:31.000Z</time>
      </trkpt>
      <trkpt lat="42.254298" lon="3.086424">
        <ele>14</ele>
        <time>1970-01-01T01:12:32.000Z</time>
      </trkpt>
      <trkpt lat="42.254342" lon="3.086455">
        <ele>14</ele>
        <time>1970-01-01T01:12:33.000Z</time>
      </trkpt>
      <trkpt lat="42.254385" lon="3.086485">
        <ele>14</ele>
        <time>1970-01-01T01:12:34.000Z</time>
      </trkpt>
      <trkpt lat="42.254479" lon="3.086548">
        <ele>14</ele>
        <time>1970-01-01T01:12:35.000Z</time>
      </trkpt>
      <trkpt lat="42.254524" lon="3.086578">
        <ele>14</ele>
        <time>1970-01-01T01:12:36.000Z</time>
      </trkpt>
      <trkpt lat="42.254569" lon="3.086609">
        <ele>14</ele>
        <time>1970-01-01T01:12:37.000Z</time>
      </trkpt>
      <trkpt lat="42.254614" lon="3.086639">
        <ele>14</ele>
        <time>1970-01-01T01:12:38.000Z</time>
      </trkpt>
      <trkpt lat="42.254659" lon="3.086669">
        <ele>14</ele>
        <time>1970-01-01T01:12:39.000Z</time>
      </trkpt>
      <trkpt lat="42.254704" lon="3.086699">
        <ele>14</ele>
        <time>1970-01-01T01:12:40.000Z</time>
      </trkpt>
      <trkpt lat="42.254749" lon="3.086729">
        <ele>14</ele>
        <time>1970-01-01T01:12:41.000Z</time>
      </trkpt>
      <trkpt lat="42.254794" lon="3.08676">
        <ele>14</ele>
        <time>1970-01-01T01:12:42.000Z</time>
      </trkpt>
      <trkpt lat="42.254839" lon="3.08679">
        <ele>14</ele>
        <time>1970-01-01T01:12:43.000Z</time>
      </trkpt>
      <trkpt lat="42.254884" lon="3.08682">
        <ele>13</ele>
        <time>1970-01-01T01:12:44.000Z</time>
      </trkpt>
      <trkpt lat="42.254981" lon="3.086886">
        <ele>13</ele>
        <time>1970-01-01T01:12:45.000Z</time>
      </trkpt>
      <trkpt lat="42.255027" lon="3.086918">
        <ele>13</ele>
        <time>1970-01-01T01:12:46.000Z</time>
      </trkpt>
      <trkpt lat="42.255074" lon="3.086949">
        <ele>13</ele>
        <time>1970-01-01T01:12:47.000Z</time>
      </trkpt>
      <trkpt lat="42.255121" lon="3.086981">
        <ele>13</ele>
        <time>1970-01-01T01:12:48.000Z</time>
      </trkpt>
      <trkpt lat="42.255168" lon="3.087012">
        <ele>13</ele>
        <time>1970-01-01T01:12:49.000Z</time>
      </trkpt>
      <trkpt lat="42.255214" lon="3.087043">
        <ele>13</ele>
        <time>1970-01-01T01:12:50.000Z</time>
      </trkpt>
      <trkpt lat="42.255261" lon="3.087075">
        <ele>13</ele>
        <time>1970-01-01T01:12:51.000Z</time>
      </trkpt>
      <trkpt lat="42.255308" lon="3.087106">
        <ele>13</ele>
        <time>1970-01-01T01:12:52.000Z</time>
      </trkpt>
      <trkpt lat="42.255354" lon="3.087138">
        <ele>13</ele>
        <time>1970-01-01T01:12:53.000Z</time>
      </trkpt>
      <trkpt lat="42.255401" lon="3.087169">
        <ele>14</ele>
        <time>1970-01-01T01:12:54.000Z</time>
      </trkpt>
      <trkpt lat="42.255502" lon="3.087236">
        <ele>14</ele>
        <time>1970-01-01T01:12:55.000Z</time>
      </trkpt>
      <trkpt lat="42.255549" lon="3.087268">
        <ele>14</ele>
        <time>1970-01-01T01:12:56.000Z</time>
      </trkpt>
      <trkpt lat="42.255597" lon="3.0873">
        <ele>14</ele>
        <time>1970-01-01T01:12:57.000Z</time>
      </trkpt>
      <trkpt lat="42.255645" lon="3.087332">
        <ele>14</ele>
        <time>1970-01-01T01:12:58.000Z</time>
      </trkpt>
      <trkpt lat="42.255693" lon="3.087363">
        <ele>14</ele>
        <time>1970-01-01T01:12:59.000Z</time>
      </trkpt>
      <trkpt lat="42.25574" lon="3.087395">
        <ele>14</ele>
        <time>1970-01-01T01:13:00.000Z</time>
      </trkpt>
      <trkpt lat="42.255788" lon="3.087427">
        <ele>14</ele>
        <time>1970-01-01T01:13:01.000Z</time>
      </trkpt>
      <trkpt lat="42.255836" lon="3.087459">
        <ele>14</ele>
        <time>1970-01-01T01:13:02.000Z</time>
      </trkpt>
      <trkpt lat="42.255883" lon="3.087491">
        <ele>14</ele>
        <time>1970-01-01T01:13:03.000Z</time>
      </trkpt>
      <trkpt lat="42.255931" lon="3.087523">
        <ele>14</ele>
        <time>1970-01-01T01:13:04.000Z</time>
      </trkpt>
      <trkpt lat="42.256037" lon="3.08759">
        <ele>14</ele>
        <time>1970-01-01T01:13:05.000Z</time>
      </trkpt>
      <trkpt lat="42.256089" lon="3.087623">
        <ele>14</ele>
        <time>1970-01-01T01:13:06.000Z</time>
      </trkpt>
      <trkpt lat="42.25614" lon="3.087657">
        <ele>14</ele>
        <time>1970-01-01T01:13:07.000Z</time>
      </trkpt>
      <trkpt lat="42.256191" lon="3.08769">
        <ele>14</ele>
        <time>1970-01-01T01:13:08.000Z</time>
      </trkpt>
      <trkpt lat="42.256243" lon="3.087723">
        <ele>14</ele>
        <time>1970-01-01T01:13:09.000Z</time>
      </trkpt>
      <trkpt lat="42.256294" lon="3.087756">
        <ele>14</ele>
        <time>1970-01-01T01:13:10.000Z</time>
      </trkpt>
      <trkpt lat="42.256345" lon="3.087789">
        <ele>14</ele>
        <time>1970-01-01T01:13:11.000Z</time>
      </trkpt>
      <trkpt lat="42.256396" lon="3.087823">
        <ele>14</ele>
        <time>1970-01-01T01:13:12.000Z</time>
      </trkpt>
      <trkpt lat="42.256448" lon="3.087856">
        <ele>14</ele>
        <time>1970-01-01T01:13:13.000Z</time>
      </trkpt>
      <trkpt lat="42.256499" lon="3.087889">
        <ele>13</ele>
        <time>1970-01-01T01:13:14.000Z</time>
      </trkpt>
      <trkpt lat="42.256614" lon="3.087964">
        <ele>13</ele>
        <time>1970-01-01T01:13:15.000Z</time>
      </trkpt>
      <trkpt lat="42.256669" lon="3.088001">
        <ele>13</ele>
        <time>1970-01-01T01:13:16.000Z</time>
      </trkpt>
      <trkpt lat="42.256723" lon="3.088037">
        <ele>13</ele>
        <time>1970-01-01T01:13:17.000Z</time>
      </trkpt>
      <trkpt lat="42.256778" lon="3.088073">
        <ele>13</ele>
        <time>1970-01-01T01:13:18.000Z</time>
      </trkpt>
      <trkpt lat="42.256833" lon="3.088109">
        <ele>13</ele>
        <time>1970-01-01T01:13:19.000Z</time>
      </trkpt>
      <trkpt lat="42.256888" lon="3.088146">
        <ele>13</ele>
        <time>1970-01-01T01:13:20.000Z</time>
      </trkpt>
      <trkpt lat="42.256943" lon="3.088182">
        <ele>13</ele>
        <time>1970-01-01T01:13:21.000Z</time>
      </trkpt>
      <trkpt lat="42.256997" lon="3.088218">
        <ele>13</ele>
        <time>1970-01-01T01:13:22.000Z</time>
      </trkpt>
      <trkpt lat="42.257052" lon="3.088255">
        <ele>13</ele>
        <time>1970-01-01T01:13:23.000Z</time>
      </trkpt>
      <trkpt lat="42.257107" lon="3.088291">
        <ele>12</ele>
        <time>1970-01-01T01:13:24.000Z</time>
      </trkpt>
      <trkpt lat="42.257226" lon="3.088374">
        <ele>12</ele>
        <time>1970-01-01T01:13:25.000Z</time>
      </trkpt>
      <trkpt lat="42.257283" lon="3.088414">
        <ele>12</ele>
        <time>1970-01-01T01:13:26.000Z</time>
      </trkpt>
      <trkpt lat="42.25734" lon="3.088455">
        <ele>12</ele>
        <time>1970-01-01T01:13:27.000Z</time>
      </trkpt>
      <trkpt lat="42.257397" lon="3.088495">
        <ele>12</ele>
        <time>1970-01-01T01:13:28.000Z</time>
      </trkpt>
      <trkpt lat="42.257454" lon="3.088535">
        <ele>12</ele>
        <time>1970-01-01T01:13:29.000Z</time>
      </trkpt>
      <trkpt lat="42.25751" lon="3.088575">
        <ele>12</ele>
        <time>1970-01-01T01:13:30.000Z</time>
      </trkpt>
      <trkpt lat="42.257567" lon="3.088615">
        <ele>12</ele>
        <time>1970-01-01T01:13:31.000Z</time>
      </trkpt>
      <trkpt lat="42.257624" lon="3.088656">
        <ele>12</ele>
        <time>1970-01-01T01:13:32.000Z</time>
      </trkpt>
      <trkpt lat="42.257681" lon="3.088696">
        <ele>12</ele>
        <time>1970-01-01T01:13:33.000Z</time>
      </trkpt>
      <trkpt lat="42.257738" lon="3.088736">
        <ele>11</ele>
        <time>1970-01-01T01:13:34.000Z</time>
      </trkpt>
      <trkpt lat="42.257857" lon="3.088837">
        <ele>11</ele>
        <time>1970-01-01T01:13:35.000Z</time>
      </trkpt>
      <trkpt lat="42.257913" lon="3.088888">
        <ele>11</ele>
        <time>1970-01-01T01:13:36.000Z</time>
      </trkpt>
      <trkpt lat="42.257968" lon="3.088939">
        <ele>11</ele>
        <time>1970-01-01T01:13:37.000Z</time>
      </trkpt>
      <trkpt lat="42.258024" lon="3.08899">
        <ele>11</ele>
        <time>1970-01-01T01:13:38.000Z</time>
      </trkpt>
      <trkpt lat="42.258079" lon="3.089041">
        <ele>11</ele>
        <time>1970-01-01T01:13:39.000Z</time>
      </trkpt>
      <trkpt lat="42.258134" lon="3.089092">
        <ele>11</ele>
        <time>1970-01-01T01:13:40.000Z</time>
      </trkpt>
      <trkpt lat="42.25819" lon="3.089143">
        <ele>11</ele>
        <time>1970-01-01T01:13:41.000Z</time>
      </trkpt>
      <trkpt lat="42.258245" lon="3.089194">
        <ele>11</ele>
        <time>1970-01-01T01:13:42.000Z</time>
      </trkpt>
      <trkpt lat="42.258301" lon="3.089245">
        <ele>11</ele>
        <time>1970-01-01T01:13:43.000Z</time>
      </trkpt>
      <trkpt lat="42.258356" lon="3.089296">
        <ele>10</ele>
        <time>1970-01-01T01:13:44.000Z</time>
      </trkpt>
      <trkpt lat="42.258466" lon="3.089424">
        <ele>10</ele>
        <time>1970-01-01T01:13:45.000Z</time>
      </trkpt>
      <trkpt lat="42.258516" lon="3.08949">
        <ele>10</ele>
        <time>1970-01-01T01:13:46.000Z</time>
      </trkpt>
      <trkpt lat="42.258567" lon="3.089555">
        <ele>10</ele>
        <time>1970-01-01T01:13:47.000Z</time>
      </trkpt>
      <trkpt lat="42.258617" lon="3.08962">
        <ele>10</ele>
        <time>1970-01-01T01:13:48.000Z</time>
      </trkpt>
      <trkpt lat="42.258668" lon="3.089685">
        <ele>10</ele>
        <time>1970-01-01T01:13:49.000Z</time>
      </trkpt>
      <trkpt lat="42.258718" lon="3.089751">
        <ele>10</ele>
        <time>1970-01-01T01:13:50.000Z</time>
      </trkpt>
      <trkpt lat="42.258769" lon="3.089816">
        <ele>10</ele>
        <time>1970-01-01T01:13:51.000Z</time>
      </trkpt>
      <trkpt lat="42.258819" lon="3.089881">
        <ele>10</ele>
        <time>1970-01-01T01:13:52.000Z</time>
      </trkpt>
      <trkpt lat="42.25887" lon="3.089946">
        <ele>10</ele>
        <time>1970-01-01T01:13:53.000Z</time>
      </trkpt>
      <trkpt lat="42.25892" lon="3.090012">
        <ele>10</ele>
        <time>1970-01-01T01:13:54.000Z</time>
      </trkpt>
      <trkpt lat="42.258971" lon="3.090077">
        <ele>9</ele>
        <time>1970-01-01T01:13:55.000Z</time>
      </trkpt>
      <trkpt lat="42.259065" lon="3.090233">
        <ele>9</ele>
        <time>1970-01-01T01:13:56.000Z</time>
      </trkpt>
      <trkpt lat="42.259107" lon="3.090308">
        <ele>9</ele>
        <time>1970-01-01T01:13:57.000Z</time>
      </trkpt>
      <trkpt lat="42.259148" lon="3.090384">
        <ele>9</ele>
        <time>1970-01-01T01:13:58.000Z</time>
      </trkpt>
      <trkpt lat="42.25919" lon="3.09046">
        <ele>9</ele>
        <time>1970-01-01T01:13:59.000Z</time>
      </trkpt>
      <trkpt lat="42.259232" lon="3.090535">
        <ele>9</ele>
        <time>1970-01-01T01:14:00.000Z</time>
      </trkpt>
      <trkpt lat="42.259274" lon="3.090611">
        <ele>9</ele>
        <time>1970-01-01T01:14:01.000Z</time>
      </trkpt>
      <trkpt lat="42.259315" lon="3.090687">
        <ele>9</ele>
        <time>1970-01-01T01:14:02.000Z</time>
      </trkpt>
      <trkpt lat="42.259357" lon="3.090762">
        <ele>9</ele>
        <time>1970-01-01T01:14:03.000Z</time>
      </trkpt>
      <trkpt lat="42.259399" lon="3.090838">
        <ele>7</ele>
        <time>1970-01-01T01:14:04.000Z</time>
      </trkpt>
      <trkpt lat="42.25947" lon="3.091004">
        <ele>7</ele>
        <time>1970-01-01T01:14:05.000Z</time>
      </trkpt>
      <trkpt lat="42.259501" lon="3.091082">
        <ele>7</ele>
        <time>1970-01-01T01:14:06.000Z</time>
      </trkpt>
      <trkpt lat="42.259531" lon="3.091159">
        <ele>7</ele>
        <time>1970-01-01T01:14:07.000Z</time>
      </trkpt>
      <trkpt lat="42.259562" lon="3.091237">
        <ele>7</ele>
        <time>1970-01-01T01:14:08.000Z</time>
      </trkpt>
      <trkpt lat="42.259592" lon="3.091314">
        <ele>7</ele>
        <time>1970-01-01T01:14:09.000Z</time>
      </trkpt>
      <trkpt lat="42.259622" lon="3.091391">
        <ele>7</ele>
        <time>1970-01-01T01:14:10.000Z</time>
      </trkpt>
      <trkpt lat="42.259653" lon="3.091469">
        <ele>7</ele>
        <time>1970-01-01T01:14:11.000Z</time>
      </trkpt>
      <trkpt lat="42.259683" lon="3.091546">
        <ele>7</ele>
        <time>1970-01-01T01:14:12.000Z</time>
      </trkpt>
      <trkpt lat="42.259714" lon="3.091624">
        <ele>7</ele>
        <time>1970-01-01T01:14:13.000Z</time>
      </trkpt>
      <trkpt lat="42.259744" lon="3.091701">
        <ele>6</ele>
        <time>1970-01-01T01:14:14.000Z</time>
      </trkpt>
      <trkpt lat="42.25979" lon="3.09185">
        <ele>6</ele>
        <time>1970-01-01T01:14:15.000Z</time>
      </trkpt>
      <trkpt lat="42.259809" lon="3.091918">
        <ele>6</ele>
        <time>1970-01-01T01:14:16.000Z</time>
      </trkpt>
      <trkpt lat="42.259829" lon="3.091985">
        <ele>6</ele>
        <time>1970-01-01T01:14:17.000Z</time>
      </trkpt>
      <trkpt lat="42.259848" lon="3.092053">
        <ele>6</ele>
        <time>1970-01-01T01:14:18.000Z</time>
      </trkpt>
      <trkpt lat="42.259867" lon="3.09212">
        <ele>6</ele>
        <time>1970-01-01T01:14:19.000Z</time>
      </trkpt>
      <trkpt lat="42.259886" lon="3.092188">
        <ele>6</ele>
        <time>1970-01-01T01:14:20.000Z</time>
      </trkpt>
      <trkpt lat="42.259905" lon="3.092255">
        <ele>6</ele>
        <time>1970-01-01T01:14:21.000Z</time>
      </trkpt>
      <trkpt lat="42.259925" lon="3.092323">
        <ele>6</ele>
        <time>1970-01-01T01:14:22.000Z</time>
      </trkpt>
      <trkpt lat="42.259944" lon="3.09239">
        <ele>6</ele>
        <time>1970-01-01T01:14:23.000Z</time>
      </trkpt>
      <trkpt lat="42.259963" lon="3.092458">
        <ele>6</ele>
        <time>1970-01-01T01:14:24.000Z</time>
      </trkpt>
      <trkpt lat="42.259994" lon="3.092587">
        <ele>6</ele>
        <time>1970-01-01T01:14:25.000Z</time>
      </trkpt>
      <trkpt lat="42.26001" lon="3.092645">
        <ele>6</ele>
        <time>1970-01-01T01:14:26.000Z</time>
      </trkpt>
      <trkpt lat="42.260026" lon="3.092704">
        <ele>6</ele>
        <time>1970-01-01T01:14:27.000Z</time>
      </trkpt>
      <trkpt lat="42.260042" lon="3.092763">
        <ele>6</ele>
        <time>1970-01-01T01:14:28.000Z</time>
      </trkpt>
      <trkpt lat="42.260058" lon="3.092821">
        <ele>6</ele>
        <time>1970-01-01T01:14:29.000Z</time>
      </trkpt>
      <trkpt lat="42.260074" lon="3.09288">
        <ele>6</ele>
        <time>1970-01-01T01:14:30.000Z</time>
      </trkpt>
      <trkpt lat="42.26009" lon="3.092939">
        <ele>6</ele>
        <time>1970-01-01T01:14:31.000Z</time>
      </trkpt>
      <trkpt lat="42.260106" lon="3.092998">
        <ele>6</ele>
        <time>1970-01-01T01:14:32.000Z</time>
      </trkpt>
      <trkpt lat="42.260122" lon="3.093056">
        <ele>6</ele>
        <time>1970-01-01T01:14:33.000Z</time>
      </trkpt>
      <trkpt lat="42.260138" lon="3.093115">
        <ele>5</ele>
        <time>1970-01-01T01:14:34.000Z</time>
      </trkpt>
      <trkpt lat="42.260162" lon="3.09323">
        <ele>5</ele>
        <time>1970-01-01T01:14:35.000Z</time>
      </trkpt>
      <trkpt lat="42.260169" lon="3.093282">
        <ele>5</ele>
        <time>1970-01-01T01:14:36.000Z</time>
      </trkpt>
      <trkpt lat="42.260175" lon="3.093334">
        <ele>5</ele>
        <time>1970-01-01T01:14:37.000Z</time>
      </trkpt>
      <trkpt lat="42.260181" lon="3.093386">
        <ele>5</ele>
        <time>1970-01-01T01:14:38.000Z</time>
      </trkpt>
      <trkpt lat="42.260188" lon="3.093438">
        <ele>5</ele>
        <time>1970-01-01T01:14:39.000Z</time>
      </trkpt>
      <trkpt lat="42.260194" lon="3.09349">
        <ele>5</ele>
        <time>1970-01-01T01:14:40.000Z</time>
      </trkpt>
      <trkpt lat="42.2602" lon="3.093542">
        <ele>5</ele>
        <time>1970-01-01T01:14:41.000Z</time>
      </trkpt>
      <trkpt lat="42.260206" lon="3.093594">
        <ele>5</ele>
        <time>1970-01-01T01:14:42.000Z</time>
      </trkpt>
      <trkpt lat="42.260213" lon="3.093646">
        <ele>5</ele>
        <time>1970-01-01T01:14:43.000Z</time>
      </trkpt>
      <trkpt lat="42.260219" lon="3.093698">
        <ele>6</ele>
        <time>1970-01-01T01:14:44.000Z</time>
      </trkpt>
      <trkpt lat="42.260214" lon="3.093791">
        <ele>6</ele>
        <time>1970-01-01T01:14:45.000Z</time>
      </trkpt>
      <trkpt lat="42.26022" lon="3.093838">
        <ele>6</ele>
        <time>1970-01-01T01:14:46.000Z</time>
      </trkpt>
      <trkpt lat="42.260227" lon="3.093884">
        <ele>6</ele>
        <time>1970-01-01T01:14:47.000Z</time>
      </trkpt>
      <trkpt lat="42.260233" lon="3.09393">
        <ele>6</ele>
        <time>1970-01-01T01:14:48.000Z</time>
      </trkpt>
      <trkpt lat="42.26024" lon="3.093976">
        <ele>6</ele>
        <time>1970-01-01T01:14:49.000Z</time>
      </trkpt>
      <trkpt lat="42.260247" lon="3.094023">
        <ele>6</ele>
        <time>1970-01-01T01:14:50.000Z</time>
      </trkpt>
      <trkpt lat="42.260253" lon="3.094069">
        <ele>6</ele>
        <time>1970-01-01T01:14:51.000Z</time>
      </trkpt>
      <trkpt lat="42.26026" lon="3.094115">
        <ele>6</ele>
        <time>1970-01-01T01:14:52.000Z</time>
      </trkpt>
      <trkpt lat="42.260266" lon="3.094162">
        <ele>6</ele>
        <time>1970-01-01T01:14:53.000Z</time>
      </trkpt>
      <trkpt lat="42.260273" lon="3.094208">
        <ele>6</ele>
        <time>1970-01-01T01:14:54.000Z</time>
      </trkpt>
      <trkpt lat="42.260335" lon="3.094305">
        <ele>6</ele>
        <time>1970-01-01T01:14:55.000Z</time>
      </trkpt>
      <trkpt lat="42.260361" lon="3.094358">
        <ele>6</ele>
        <time>1970-01-01T01:14:56.000Z</time>
      </trkpt>
      <trkpt lat="42.260388" lon="3.094412">
        <ele>6</ele>
        <time>1970-01-01T01:14:57.000Z</time>
      </trkpt>
      <trkpt lat="42.260415" lon="3.094465">
        <ele>6</ele>
        <time>1970-01-01T01:14:58.000Z</time>
      </trkpt>
      <trkpt lat="42.260442" lon="3.094519">
        <ele>6</ele>
        <time>1970-01-01T01:14:59.000Z</time>
      </trkpt>
      <trkpt lat="42.260468" lon="3.094573">
        <ele>6</ele>
        <time>1970-01-01T01:15:00.000Z</time>
      </trkpt>
      <trkpt lat="42.260495" lon="3.094626">
        <ele>6</ele>
        <time>1970-01-01T01:15:01.000Z</time>
      </trkpt>
      <trkpt lat="42.260522" lon="3.09468">
        <ele>6</ele>
        <time>1970-01-01T01:15:02.000Z</time>
      </trkpt>
      <trkpt lat="42.260548" lon="3.094733">
        <ele>6</ele>
        <time>1970-01-01T01:15:03.000Z</time>
      </trkpt>
      <trkpt lat="42.260575" lon="3.094787">
        <ele>6</ele>
        <time>1970-01-01T01:15:04.000Z</time>
      </trkpt>
      <trkpt lat="42.260609" lon="3.094923">
        <ele>6</ele>
        <time>1970-01-01T01:15:05.000Z</time>
      </trkpt>
      <trkpt lat="42.260625" lon="3.094986">
        <ele>6</ele>
        <time>1970-01-01T01:15:06.000Z</time>
      </trkpt>
      <trkpt lat="42.260641" lon="3.095049">
        <ele>6</ele>
        <time>1970-01-01T01:15:07.000Z</time>
      </trkpt>
      <trkpt lat="42.260657" lon="3.095112">
        <ele>6</ele>
        <time>1970-01-01T01:15:08.000Z</time>
      </trkpt>
      <trkpt lat="42.260673" lon="3.095175">
        <ele>6</ele>
        <time>1970-01-01T01:15:09.000Z</time>
      </trkpt>
      <trkpt lat="42.260688" lon="3.095238">
        <ele>6</ele>
        <time>1970-01-01T01:15:10.000Z</time>
      </trkpt>
      <trkpt lat="42.260704" lon="3.095301">
        <ele>6</ele>
        <time>1970-01-01T01:15:11.000Z</time>
      </trkpt>
      <trkpt lat="42.26072" lon="3.095364">
        <ele>6</ele>
        <time>1970-01-01T01:15:12.000Z</time>
      </trkpt>
      <trkpt lat="42.260736" lon="3.095427">
        <ele>6</ele>
        <time>1970-01-01T01:15:13.000Z</time>
      </trkpt>
      <trkpt lat="42.260752" lon="3.09549">
        <ele>6</ele>
        <time>1970-01-01T01:15:14.000Z</time>
      </trkpt>
      <trkpt lat="42.260785" lon="3.095622">
        <ele>6</ele>
        <time>1970-01-01T01:15:15.000Z</time>
      </trkpt>
      <trkpt lat="42.2608" lon="3.095683">
        <ele>6</ele>
        <time>1970-01-01T01:15:16.000Z</time>
      </trkpt>
      <trkpt lat="42.260816" lon="3.095745">
        <ele>6</ele>
        <time>1970-01-01T01:15:17.000Z</time>
      </trkpt>
      <trkpt lat="42.260832" lon="3.095807">
        <ele>6</ele>
        <time>1970-01-01T01:15:18.000Z</time>
      </trkpt>
      <trkpt lat="42.260848" lon="3.095868">
        <ele>6</ele>
        <time>1970-01-01T01:15:19.000Z</time>
      </trkpt>
      <trkpt lat="42.260863" lon="3.09593">
        <ele>6</ele>
        <time>1970-01-01T01:15:20.000Z</time>
      </trkpt>
      <trkpt lat="42.260879" lon="3.095992">
        <ele>6</ele>
        <time>1970-01-01T01:15:21.000Z</time>
      </trkpt>
      <trkpt lat="42.260895" lon="3.096054">
        <ele>6</ele>
        <time>1970-01-01T01:15:22.000Z</time>
      </trkpt>
      <trkpt lat="42.26091" lon="3.096115">
        <ele>6</ele>
        <time>1970-01-01T01:15:23.000Z</time>
      </trkpt>
      <trkpt lat="42.260926" lon="3.096177">
        <ele>6</ele>
        <time>1970-01-01T01:15:24.000Z</time>
      </trkpt>
      <trkpt lat="42.260958" lon="3.096307">
        <ele>6</ele>
        <time>1970-01-01T01:15:25.000Z</time>
      </trkpt>
      <trkpt lat="42.260974" lon="3.096369">
        <ele>6</ele>
        <time>1970-01-01T01:15:26.000Z</time>
      </trkpt>
      <trkpt lat="42.26099" lon="3.096431">
        <ele>6</ele>
        <time>1970-01-01T01:15:27.000Z</time>
      </trkpt>
      <trkpt lat="42.261006" lon="3.096493">
        <ele>6</ele>
        <time>1970-01-01T01:15:28.000Z</time>
      </trkpt>
      <trkpt lat="42.261022" lon="3.096555">
        <ele>6</ele>
        <time>1970-01-01T01:15:29.000Z</time>
      </trkpt>
      <trkpt lat="42.261038" lon="3.096618">
        <ele>6</ele>
        <time>1970-01-01T01:15:30.000Z</time>
      </trkpt>
      <trkpt lat="42.261054" lon="3.09668">
        <ele>6</ele>
        <time>1970-01-01T01:15:31.000Z</time>
      </trkpt>
      <trkpt lat="42.26107" lon="3.096742">
        <ele>6</ele>
        <time>1970-01-01T01:15:32.000Z</time>
      </trkpt>
      <trkpt lat="42.261086" lon="3.096804">
        <ele>6</ele>
        <time>1970-01-01T01:15:33.000Z</time>
      </trkpt>
      <trkpt lat="42.261102" lon="3.096866">
        <ele>6</ele>
        <time>1970-01-01T01:15:34.000Z</time>
      </trkpt>
      <trkpt lat="42.261118" lon="3.096928">
        <ele>6</ele>
        <time>1970-01-01T01:15:35.000Z</time>
      </trkpt>
      <trkpt lat="42.261151" lon="3.097059">
        <ele>6</ele>
        <time>1970-01-01T01:15:36.000Z</time>
      </trkpt>
      <trkpt lat="42.261167" lon="3.09712">
        <ele>6</ele>
        <time>1970-01-01T01:15:37.000Z</time>
      </trkpt>
      <trkpt lat="42.261182" lon="3.097182">
        <ele>6</ele>
        <time>1970-01-01T01:15:38.000Z</time>
      </trkpt>
      <trkpt lat="42.261198" lon="3.097244">
        <ele>6</ele>
        <time>1970-01-01T01:15:39.000Z</time>
      </trkpt>
      <trkpt lat="42.261214" lon="3.097305">
        <ele>6</ele>
        <time>1970-01-01T01:15:40.000Z</time>
      </trkpt>
      <trkpt lat="42.26123" lon="3.097367">
        <ele>6</ele>
        <time>1970-01-01T01:15:41.000Z</time>
      </trkpt>
      <trkpt lat="42.261245" lon="3.097429">
        <ele>6</ele>
        <time>1970-01-01T01:15:42.000Z</time>
      </trkpt>
      <trkpt lat="42.261261" lon="3.09749">
        <ele>6</ele>
        <time>1970-01-01T01:15:43.000Z</time>
      </trkpt>
      <trkpt lat="42.261277" lon="3.097552">
        <ele>4</ele>
        <time>1970-01-01T01:15:44.000Z</time>
      </trkpt>
      <trkpt lat="42.261311" lon="3.097686">
        <ele>4</ele>
        <time>1970-01-01T01:15:45.000Z</time>
      </trkpt>
      <trkpt lat="42.261327" lon="3.09775">
        <ele>4</ele>
        <time>1970-01-01T01:15:46.000Z</time>
      </trkpt>
      <trkpt lat="42.261344" lon="3.097815">
        <ele>4</ele>
        <time>1970-01-01T01:15:47.000Z</time>
      </trkpt>
      <trkpt lat="42.26136" lon="3.097879">
        <ele>4</ele>
        <time>1970-01-01T01:15:48.000Z</time>
      </trkpt>
      <trkpt lat="42.261377" lon="3.097944">
        <ele>4</ele>
        <time>1970-01-01T01:15:49.000Z</time>
      </trkpt>
      <trkpt lat="42.261394" lon="3.098009">
        <ele>4</ele>
        <time>1970-01-01T01:15:50.000Z</time>
      </trkpt>
      <trkpt lat="42.26141" lon="3.098073">
        <ele>4</ele>
        <time>1970-01-01T01:15:51.000Z</time>
      </trkpt>
      <trkpt lat="42.261427" lon="3.098138">
        <ele>4</ele>
        <time>1970-01-01T01:15:52.000Z</time>
      </trkpt>
      <trkpt lat="42.261443" lon="3.098202">
        <ele>4</ele>
        <time>1970-01-01T01:15:53.000Z</time>
      </trkpt>
      <trkpt lat="42.26146" lon="3.098267">
        <ele>4</ele>
        <time>1970-01-01T01:15:54.000Z</time>
      </trkpt>
      <trkpt lat="42.261495" lon="3.098406">
        <ele>4</ele>
        <time>1970-01-01T01:15:55.000Z</time>
      </trkpt>
      <trkpt lat="42.261511" lon="3.098471">
        <ele>4</ele>
        <time>1970-01-01T01:15:56.000Z</time>
      </trkpt>
      <trkpt lat="42.261528" lon="3.098537">
        <ele>4</ele>
        <time>1970-01-01T01:15:57.000Z</time>
      </trkpt>
      <trkpt lat="42.261544" lon="3.098602">
        <ele>4</ele>
        <time>1970-01-01T01:15:58.000Z</time>
      </trkpt>
      <trkpt lat="42.261561" lon="3.098668">
        <ele>4</ele>
        <time>1970-01-01T01:15:59.000Z</time>
      </trkpt>
      <trkpt lat="42.261578" lon="3.098734">
        <ele>4</ele>
        <time>1970-01-01T01:16:00.000Z</time>
      </trkpt>
      <trkpt lat="42.261594" lon="3.098799">
        <ele>4</ele>
        <time>1970-01-01T01:16:01.000Z</time>
      </trkpt>
      <trkpt lat="42.261611" lon="3.098865">
        <ele>4</ele>
        <time>1970-01-01T01:16:02.000Z</time>
      </trkpt>
      <trkpt lat="42.261627" lon="3.09893">
        <ele>4</ele>
        <time>1970-01-01T01:16:03.000Z</time>
      </trkpt>
      <trkpt lat="42.261644" lon="3.098996">
        <ele>5</ele>
        <time>1970-01-01T01:16:04.000Z</time>
      </trkpt>
      <trkpt lat="42.261678" lon="3.099133">
        <ele>5</ele>
        <time>1970-01-01T01:16:05.000Z</time>
      </trkpt>
      <trkpt lat="42.261694" lon="3.099198">
        <ele>5</ele>
        <time>1970-01-01T01:16:06.000Z</time>
      </trkpt>
      <trkpt lat="42.261711" lon="3.099262">
        <ele>5</ele>
        <time>1970-01-01T01:16:07.000Z</time>
      </trkpt>
      <trkpt lat="42.261728" lon="3.099327">
        <ele>5</ele>
        <time>1970-01-01T01:16:08.000Z</time>
      </trkpt>
      <trkpt lat="42.261745" lon="3.099391">
        <ele>5</ele>
        <time>1970-01-01T01:16:09.000Z</time>
      </trkpt>
      <trkpt lat="42.261761" lon="3.099455">
        <ele>5</ele>
        <time>1970-01-01T01:16:10.000Z</time>
      </trkpt>
      <trkpt lat="42.261778" lon="3.09952">
        <ele>5</ele>
        <time>1970-01-01T01:16:11.000Z</time>
      </trkpt>
      <trkpt lat="42.261795" lon="3.099584">
        <ele>5</ele>
        <time>1970-01-01T01:16:12.000Z</time>
      </trkpt>
      <trkpt lat="42.261811" lon="3.099649">
        <ele>5</ele>
        <time>1970-01-01T01:16:13.000Z</time>
      </trkpt>
      <trkpt lat="42.261828" lon="3.099713">
        <ele>5</ele>
        <time>1970-01-01T01:16:14.000Z</time>
      </trkpt>
      <trkpt lat="42.261863" lon="3.09985">
        <ele>5</ele>
        <time>1970-01-01T01:16:15.000Z</time>
      </trkpt>
      <trkpt lat="42.26188" lon="3.099914">
        <ele>5</ele>
        <time>1970-01-01T01:16:16.000Z</time>
      </trkpt>
      <trkpt lat="42.261897" lon="3.099979">
        <ele>5</ele>
        <time>1970-01-01T01:16:17.000Z</time>
      </trkpt>
      <trkpt lat="42.261914" lon="3.100044">
        <ele>5</ele>
        <time>1970-01-01T01:16:18.000Z</time>
      </trkpt>
      <trkpt lat="42.261932" lon="3.100108">
        <ele>5</ele>
        <time>1970-01-01T01:16:19.000Z</time>
      </trkpt>
      <trkpt lat="42.261949" lon="3.100173">
        <ele>5</ele>
        <time>1970-01-01T01:16:20.000Z</time>
      </trkpt>
      <trkpt lat="42.261966" lon="3.100238">
        <ele>5</ele>
        <time>1970-01-01T01:16:21.000Z</time>
      </trkpt>
      <trkpt lat="42.261983" lon="3.100303">
        <ele>5</ele>
        <time>1970-01-01T01:16:22.000Z</time>
      </trkpt>
      <trkpt lat="42.262" lon="3.100367">
        <ele>5</ele>
        <time>1970-01-01T01:16:23.000Z</time>
      </trkpt>
      <trkpt lat="42.262017" lon="3.100432">
        <ele>4</ele>
        <time>1970-01-01T01:16:24.000Z</time>
      </trkpt>
      <trkpt lat="42.262052" lon="3.10057">
        <ele>4</ele>
        <time>1970-01-01T01:16:25.000Z</time>
      </trkpt>
      <trkpt lat="42.262069" lon="3.100636">
        <ele>4</ele>
        <time>1970-01-01T01:16:26.000Z</time>
      </trkpt>
      <trkpt lat="42.262086" lon="3.100702">
        <ele>4</ele>
        <time>1970-01-01T01:16:27.000Z</time>
      </trkpt>
      <trkpt lat="42.262103" lon="3.100768">
        <ele>4</ele>
        <time>1970-01-01T01:16:28.000Z</time>
      </trkpt>
      <trkpt lat="42.262121" lon="3.100834">
        <ele>4</ele>
        <time>1970-01-01T01:16:29.000Z</time>
      </trkpt>
      <trkpt lat="42.262138" lon="3.1009">
        <ele>4</ele>
        <time>1970-01-01T01:16:30.000Z</time>
      </trkpt>
      <trkpt lat="42.262155" lon="3.100966">
        <ele>4</ele>
        <time>1970-01-01T01:16:31.000Z</time>
      </trkpt>
      <trkpt lat="42.262172" lon="3.101032">
        <ele>4</ele>
        <time>1970-01-01T01:16:32.000Z</time>
      </trkpt>
      <trkpt lat="42.262189" lon="3.101098">
        <ele>4</ele>
        <time>1970-01-01T01:16:33.000Z</time>
      </trkpt>
      <trkpt lat="42.262206" lon="3.101164">
        <ele>4</ele>
        <time>1970-01-01T01:16:34.000Z</time>
      </trkpt>
      <trkpt lat="42.262242" lon="3.101303">
        <ele>4</ele>
        <time>1970-01-01T01:16:35.000Z</time>
      </trkpt>
      <trkpt lat="42.262259" lon="3.101368">
        <ele>4</ele>
        <time>1970-01-01T01:16:36.000Z</time>
      </trkpt>
      <trkpt lat="42.262275" lon="3.101433">
        <ele>4</ele>
        <time>1970-01-01T01:16:37.000Z</time>
      </trkpt>
      <trkpt lat="42.262292" lon="3.101498">
        <ele>4</ele>
        <time>1970-01-01T01:16:38.000Z</time>
      </trkpt>
      <trkpt lat="42.262308" lon="3.101562">
        <ele>4</ele>
        <time>1970-01-01T01:16:39.000Z</time>
      </trkpt>
      <trkpt lat="42.262324" lon="3.101627">
        <ele>4</ele>
        <time>1970-01-01T01:16:40.000Z</time>
      </trkpt>
      <trkpt lat="42.262341" lon="3.101692">
        <ele>4</ele>
        <time>1970-01-01T01:16:41.000Z</time>
      </trkpt>
      <trkpt lat="42.262357" lon="3.101757">
        <ele>4</ele>
        <time>1970-01-01T01:16:42.000Z</time>
      </trkpt>
      <trkpt lat="42.262374" lon="3.101822">
        <ele>4</ele>
        <time>1970-01-01T01:16:43.000Z</time>
      </trkpt>
      <trkpt lat="42.26239" lon="3.101887">
        <ele>3</ele>
        <time>1970-01-01T01:16:44.000Z</time>
      </trkpt>
      <trkpt lat="42.262423" lon="3.102024">
        <ele>3</ele>
        <time>1970-01-01T01:16:45.000Z</time>
      </trkpt>
      <trkpt lat="42.262438" lon="3.102089">
        <ele>3</ele>
        <time>1970-01-01T01:16:46.000Z</time>
      </trkpt>
      <trkpt lat="42.262453" lon="3.102154">
        <ele>3</ele>
        <time>1970-01-01T01:16:47.000Z</time>
      </trkpt>
      <trkpt lat="42.262468" lon="3.102219">
        <ele>3</ele>
        <time>1970-01-01T01:16:48.000Z</time>
      </trkpt>
      <trkpt lat="42.262483" lon="3.102284">
        <ele>3</ele>
        <time>1970-01-01T01:16:49.000Z</time>
      </trkpt>
      <trkpt lat="42.262497" lon="3.10235">
        <ele>3</ele>
        <time>1970-01-01T01:16:50.000Z</time>
      </trkpt>
      <trkpt lat="42.262512" lon="3.102415">
        <ele>3</ele>
        <time>1970-01-01T01:16:51.000Z</time>
      </trkpt>
      <trkpt lat="42.262527" lon="3.10248">
        <ele>3</ele>
        <time>1970-01-01T01:16:52.000Z</time>
      </trkpt>
      <trkpt lat="42.262542" lon="3.102545">
        <ele>3</ele>
        <time>1970-01-01T01:16:53.000Z</time>
      </trkpt>
      <trkpt lat="42.262557" lon="3.10261">
        <ele>3</ele>
        <time>1970-01-01T01:16:54.000Z</time>
      </trkpt>
      <trkpt lat="42.262572" lon="3.102675">
        <ele>4</ele>
        <time>1970-01-01T01:16:55.000Z</time>
      </trkpt>
      <trkpt lat="42.262604" lon="3.102807">
        <ele>4</ele>
        <time>1970-01-01T01:16:56.000Z</time>
      </trkpt>
      <trkpt lat="42.262618" lon="3.102871">
        <ele>4</ele>
        <time>1970-01-01T01:16:57.000Z</time>
      </trkpt>
      <trkpt lat="42.262632" lon="3.102934">
        <ele>4</ele>
        <time>1970-01-01T01:16:58.000Z</time>
      </trkpt>
      <trkpt lat="42.262646" lon="3.102998">
        <ele>4</ele>
        <time>1970-01-01T01:16:59.000Z</time>
      </trkpt>
      <trkpt lat="42.26266" lon="3.103061">
        <ele>4</ele>
        <time>1970-01-01T01:17:00.000Z</time>
      </trkpt>
      <trkpt lat="42.262673" lon="3.103124">
        <ele>4</ele>
        <time>1970-01-01T01:17:01.000Z</time>
      </trkpt>
      <trkpt lat="42.262687" lon="3.103188">
        <ele>4</ele>
        <time>1970-01-01T01:17:02.000Z</time>
      </trkpt>
      <trkpt lat="42.262701" lon="3.103251">
        <ele>4</ele>
        <time>1970-01-01T01:17:03.000Z</time>
      </trkpt>
      <trkpt lat="42.262715" lon="3.103315">
        <ele>4</ele>
        <time>1970-01-01T01:17:04.000Z</time>
      </trkpt>
      <trkpt lat="42.262729" lon="3.103378">
        <ele>4</ele>
        <time>1970-01-01T01:17:05.000Z</time>
      </trkpt>
      <trkpt lat="42.262732" lon="3.103508">
        <ele>4</ele>
        <time>1970-01-01T01:17:06.000Z</time>
      </trkpt>
      <trkpt lat="42.262729" lon="3.103567">
        <ele>4</ele>
        <time>1970-01-01T01:17:07.000Z</time>
      </trkpt>
      <trkpt lat="42.262726" lon="3.103627">
        <ele>4</ele>
        <time>1970-01-01T01:17:08.000Z</time>
      </trkpt>
      <trkpt lat="42.262723" lon="3.103686">
        <ele>4</ele>
        <time>1970-01-01T01:17:09.000Z</time>
      </trkpt>
      <trkpt lat="42.26272" lon="3.103746">
        <ele>4</ele>
        <time>1970-01-01T01:17:10.000Z</time>
      </trkpt>
      <trkpt lat="42.262717" lon="3.103805">
        <ele>4</ele>
        <time>1970-01-01T01:17:11.000Z</time>
      </trkpt>
      <trkpt lat="42.262714" lon="3.103865">
        <ele>4</ele>
        <time>1970-01-01T01:17:12.000Z</time>
      </trkpt>
      <trkpt lat="42.262711" lon="3.103924">
        <ele>4</ele>
        <time>1970-01-01T01:17:13.000Z</time>
      </trkpt>
      <trkpt lat="42.262708" lon="3.103984">
        <ele>4</ele>
        <time>1970-01-01T01:17:14.000Z</time>
      </trkpt>
      <trkpt lat="42.26276" lon="3.104098">
        <ele>4</ele>
        <time>1970-01-01T01:17:15.000Z</time>
      </trkpt>
      <trkpt lat="42.262792" lon="3.104148">
        <ele>4</ele>
        <time>1970-01-01T01:17:16.000Z</time>
      </trkpt>
      <trkpt lat="42.262824" lon="3.104198">
        <ele>4</ele>
        <time>1970-01-01T01:17:17.000Z</time>
      </trkpt>
      <trkpt lat="42.262856" lon="3.104248">
        <ele>4</ele>
        <time>1970-01-01T01:17:18.000Z</time>
      </trkpt>
      <trkpt lat="42.262889" lon="3.104298">
        <ele>4</ele>
        <time>1970-01-01T01:17:19.000Z</time>
      </trkpt>
      <trkpt lat="42.262921" lon="3.104349">
        <ele>4</ele>
        <time>1970-01-01T01:17:20.000Z</time>
      </trkpt>
      <trkpt lat="42.262953" lon="3.104399">
        <ele>4</ele>
        <time>1970-01-01T01:17:21.000Z</time>
      </trkpt>
      <trkpt lat="42.262985" lon="3.104449">
        <ele>4</ele>
        <time>1970-01-01T01:17:22.000Z</time>
      </trkpt>
      <trkpt lat="42.263017" lon="3.104499">
        <ele>4</ele>
        <time>1970-01-01T01:17:23.000Z</time>
      </trkpt>
      <trkpt lat="42.263049" lon="3.104549">
        <ele>4</ele>
        <time>1970-01-01T01:17:24.000Z</time>
      </trkpt>
      <trkpt lat="42.26309" lon="3.104688">
        <ele>4</ele>
        <time>1970-01-01T01:17:25.000Z</time>
      </trkpt>
      <trkpt lat="42.263107" lon="3.104755">
        <ele>4</ele>
        <time>1970-01-01T01:17:26.000Z</time>
      </trkpt>
      <trkpt lat="42.263125" lon="3.104823">
        <ele>4</ele>
        <time>1970-01-01T01:17:27.000Z</time>
      </trkpt>
      <trkpt lat="42.263142" lon="3.10489">
        <ele>4</ele>
        <time>1970-01-01T01:17:28.000Z</time>
      </trkpt>
      <trkpt lat="42.26316" lon="3.104957">
        <ele>4</ele>
        <time>1970-01-01T01:17:29.000Z</time>
      </trkpt>
      <trkpt lat="42.263177" lon="3.105024">
        <ele>4</ele>
        <time>1970-01-01T01:17:30.000Z</time>
      </trkpt>
      <trkpt lat="42.263195" lon="3.105091">
        <ele>4</ele>
        <time>1970-01-01T01:17:31.000Z</time>
      </trkpt>
      <trkpt lat="42.263212" lon="3.105159">
        <ele>4</ele>
        <time>1970-01-01T01:17:32.000Z</time>
      </trkpt>
      <trkpt lat="42.26323" lon="3.105226">
        <ele>4</ele>
        <time>1970-01-01T01:17:33.000Z</time>
      </trkpt>
      <trkpt lat="42.263247" lon="3.105293">
        <ele>4</ele>
        <time>1970-01-01T01:17:34.000Z</time>
      </trkpt>
      <trkpt lat="42.263281" lon="3.105429">
        <ele>4</ele>
        <time>1970-01-01T01:17:35.000Z</time>
      </trkpt>
      <trkpt lat="42.263297" lon="3.105493">
        <ele>4</ele>
        <time>1970-01-01T01:17:36.000Z</time>
      </trkpt>
      <trkpt lat="42.263314" lon="3.105556">
        <ele>4</ele>
        <time>1970-01-01T01:17:37.000Z</time>
      </trkpt>
      <trkpt lat="42.26333" lon="3.105619">
        <ele>4</ele>
        <time>1970-01-01T01:17:38.000Z</time>
      </trkpt>
      <trkpt lat="42.263346" lon="3.105682">
        <ele>4</ele>
        <time>1970-01-01T01:17:39.000Z</time>
      </trkpt>
      <trkpt lat="42.263362" lon="3.105746">
        <ele>4</ele>
        <time>1970-01-01T01:17:40.000Z</time>
      </trkpt>
      <trkpt lat="42.263378" lon="3.105809">
        <ele>4</ele>
        <time>1970-01-01T01:17:41.000Z</time>
      </trkpt>
      <trkpt lat="42.263395" lon="3.105872">
        <ele>4</ele>
        <time>1970-01-01T01:17:42.000Z</time>
      </trkpt>
      <trkpt lat="42.263411" lon="3.105936">
        <ele>4</ele>
        <time>1970-01-01T01:17:43.000Z</time>
      </trkpt>
      <trkpt lat="42.263427" lon="3.105999">
        <ele>3</ele>
        <time>1970-01-01T01:17:44.000Z</time>
      </trkpt>
      <trkpt lat="42.263461" lon="3.106131">
        <ele>3</ele>
        <time>1970-01-01T01:17:45.000Z</time>
      </trkpt>
      <trkpt lat="42.263476" lon="3.106194">
        <ele>3</ele>
        <time>1970-01-01T01:17:46.000Z</time>
      </trkpt>
      <trkpt lat="42.263492" lon="3.106256">
        <ele>3</ele>
        <time>1970-01-01T01:17:47.000Z</time>
      </trkpt>
      <trkpt lat="42.263508" lon="3.106319">
        <ele>3</ele>
        <time>1970-01-01T01:17:48.000Z</time>
      </trkpt>
      <trkpt lat="42.263524" lon="3.106381">
        <ele>3</ele>
        <time>1970-01-01T01:17:49.000Z</time>
      </trkpt>
      <trkpt lat="42.263539" lon="3.106444">
        <ele>3</ele>
        <time>1970-01-01T01:17:50.000Z</time>
      </trkpt>
      <trkpt lat="42.263555" lon="3.106506">
        <ele>3</ele>
        <time>1970-01-01T01:17:51.000Z</time>
      </trkpt>
      <trkpt lat="42.263571" lon="3.106569">
        <ele>3</ele>
        <time>1970-01-01T01:17:52.000Z</time>
      </trkpt>
      <trkpt lat="42.263586" lon="3.106631">
        <ele>3</ele>
        <time>1970-01-01T01:17:53.000Z</time>
      </trkpt>
      <trkpt lat="42.263602" lon="3.106694">
        <ele>3</ele>
        <time>1970-01-01T01:17:54.000Z</time>
      </trkpt>
      <trkpt lat="42.263633" lon="3.106825">
        <ele>3</ele>
        <time>1970-01-01T01:17:55.000Z</time>
      </trkpt>
      <trkpt lat="42.263647" lon="3.106886">
        <ele>3</ele>
        <time>1970-01-01T01:17:56.000Z</time>
      </trkpt>
      <trkpt lat="42.263662" lon="3.106948">
        <ele>3</ele>
        <time>1970-01-01T01:17:57.000Z</time>
      </trkpt>
      <trkpt lat="42.263677" lon="3.107009">
        <ele>3</ele>
        <time>1970-01-01T01:17:58.000Z</time>
      </trkpt>
      <trkpt lat="42.263692" lon="3.107071">
        <ele>3</ele>
        <time>1970-01-01T01:17:59.000Z</time>
      </trkpt>
      <trkpt lat="42.263706" lon="3.107133">
        <ele>3</ele>
        <time>1970-01-01T01:18:00.000Z</time>
      </trkpt>
      <trkpt lat="42.263721" lon="3.107194">
        <ele>3</ele>
        <time>1970-01-01T01:18:01.000Z</time>
      </trkpt>
      <trkpt lat="42.263736" lon="3.107256">
        <ele>3</ele>
        <time>1970-01-01T01:18:02.000Z</time>
      </trkpt>
      <trkpt lat="42.26375" lon="3.107317">
        <ele>3</ele>
        <time>1970-01-01T01:18:03.000Z</time>
      </trkpt>
      <trkpt lat="42.263765" lon="3.107379">
        <ele>3</ele>
        <time>1970-01-01T01:18:04.000Z</time>
      </trkpt>
      <trkpt lat="42.263798" lon="3.107506">
        <ele>3</ele>
        <time>1970-01-01T01:18:05.000Z</time>
      </trkpt>
      <trkpt lat="42.263815" lon="3.107565">
        <ele>3</ele>
        <time>1970-01-01T01:18:06.000Z</time>
      </trkpt>
      <trkpt lat="42.263831" lon="3.107624">
        <ele>3</ele>
        <time>1970-01-01T01:18:07.000Z</time>
      </trkpt>
      <trkpt lat="42.263848" lon="3.107683">
        <ele>3</ele>
        <time>1970-01-01T01:18:08.000Z</time>
      </trkpt>
      <trkpt lat="42.263865" lon="3.107742">
        <ele>3</ele>
        <time>1970-01-01T01:18:09.000Z</time>
      </trkpt>
      <trkpt lat="42.263882" lon="3.107801">
        <ele>3</ele>
        <time>1970-01-01T01:18:10.000Z</time>
      </trkpt>
      <trkpt lat="42.263899" lon="3.10786">
        <ele>3</ele>
        <time>1970-01-01T01:18:11.000Z</time>
      </trkpt>
      <trkpt lat="42.263915" lon="3.107919">
        <ele>3</ele>
        <time>1970-01-01T01:18:12.000Z</time>
      </trkpt>
      <trkpt lat="42.263932" lon="3.107978">
        <ele>3</ele>
        <time>1970-01-01T01:18:13.000Z</time>
      </trkpt>
      <trkpt lat="42.263949" lon="3.108037">
        <ele>5</ele>
        <time>1970-01-01T01:18:14.000Z</time>
      </trkpt>
      <trkpt lat="42.263982" lon="3.108163">
        <ele>5</ele>
        <time>1970-01-01T01:18:15.000Z</time>
      </trkpt>
      <trkpt lat="42.263998" lon="3.108223">
        <ele>5</ele>
        <time>1970-01-01T01:18:16.000Z</time>
      </trkpt>
      <trkpt lat="42.264015" lon="3.108282">
        <ele>5</ele>
        <time>1970-01-01T01:18:17.000Z</time>
      </trkpt>
      <trkpt lat="42.264031" lon="3.108342">
        <ele>5</ele>
        <time>1970-01-01T01:18:18.000Z</time>
      </trkpt>
      <trkpt lat="42.264047" lon="3.108401">
        <ele>5</ele>
        <time>1970-01-01T01:18:19.000Z</time>
      </trkpt>
      <trkpt lat="42.264063" lon="3.10846">
        <ele>5</ele>
        <time>1970-01-01T01:18:20.000Z</time>
      </trkpt>
      <trkpt lat="42.264079" lon="3.10852">
        <ele>5</ele>
        <time>1970-01-01T01:18:21.000Z</time>
      </trkpt>
      <trkpt lat="42.264096" lon="3.108579">
        <ele>5</ele>
        <time>1970-01-01T01:18:22.000Z</time>
      </trkpt>
      <trkpt lat="42.264112" lon="3.108639">
        <ele>5</ele>
        <time>1970-01-01T01:18:23.000Z</time>
      </trkpt>
      <trkpt lat="42.264128" lon="3.108698">
        <ele>4</ele>
        <time>1970-01-01T01:18:24.000Z</time>
      </trkpt>
      <trkpt lat="42.264161" lon="3.108822">
        <ele>4</ele>
        <time>1970-01-01T01:18:25.000Z</time>
      </trkpt>
      <trkpt lat="42.264177" lon="3.108879">
        <ele>4</ele>
        <time>1970-01-01T01:18:26.000Z</time>
      </trkpt>
      <trkpt lat="42.264193" lon="3.108937">
        <ele>4</ele>
        <time>1970-01-01T01:18:27.000Z</time>
      </trkpt>
      <trkpt lat="42.264209" lon="3.108995">
        <ele>4</ele>
        <time>1970-01-01T01:18:28.000Z</time>
      </trkpt>
      <trkpt lat="42.264226" lon="3.109052">
        <ele>4</ele>
        <time>1970-01-01T01:18:29.000Z</time>
      </trkpt>
      <trkpt lat="42.264242" lon="3.10911">
        <ele>4</ele>
        <time>1970-01-01T01:18:30.000Z</time>
      </trkpt>
      <trkpt lat="42.264258" lon="3.109168">
        <ele>4</ele>
        <time>1970-01-01T01:18:31.000Z</time>
      </trkpt>
      <trkpt lat="42.264274" lon="3.109226">
        <ele>4</ele>
        <time>1970-01-01T01:18:32.000Z</time>
      </trkpt>
      <trkpt lat="42.26429" lon="3.109283">
        <ele>4</ele>
        <time>1970-01-01T01:18:33.000Z</time>
      </trkpt>
      <trkpt lat="42.264306" lon="3.109341">
        <ele>4</ele>
        <time>1970-01-01T01:18:34.000Z</time>
      </trkpt>
      <trkpt lat="42.264339" lon="3.109464">
        <ele>4</ele>
        <time>1970-01-01T01:18:35.000Z</time>
      </trkpt>
      <trkpt lat="42.264355" lon="3.109521">
        <ele>4</ele>
        <time>1970-01-01T01:18:36.000Z</time>
      </trkpt>
      <trkpt lat="42.264371" lon="3.109579">
        <ele>4</ele>
        <time>1970-01-01T01:18:37.000Z</time>
      </trkpt>
      <trkpt lat="42.264387" lon="3.109636">
        <ele>4</ele>
        <time>1970-01-01T01:18:38.000Z</time>
      </trkpt>
      <trkpt lat="42.264403" lon="3.109694">
        <ele>4</ele>
        <time>1970-01-01T01:18:39.000Z</time>
      </trkpt>
      <trkpt lat="42.264418" lon="3.109752">
        <ele>4</ele>
        <time>1970-01-01T01:18:40.000Z</time>
      </trkpt>
      <trkpt lat="42.264434" lon="3.109809">
        <ele>4</ele>
        <time>1970-01-01T01:18:41.000Z</time>
      </trkpt>
      <trkpt lat="42.26445" lon="3.109867">
        <ele>4</ele>
        <time>1970-01-01T01:18:42.000Z</time>
      </trkpt>
      <trkpt lat="42.264466" lon="3.109924">
        <ele>4</ele>
        <time>1970-01-01T01:18:43.000Z</time>
      </trkpt>
      <trkpt lat="42.264482" lon="3.109982">
        <ele>6</ele>
        <time>1970-01-01T01:18:44.000Z</time>
      </trkpt>
      <trkpt lat="42.264515" lon="3.110103">
        <ele>6</ele>
        <time>1970-01-01T01:18:45.000Z</time>
      </trkpt>
      <trkpt lat="42.26453" lon="3.110161">
        <ele>6</ele>
        <time>1970-01-01T01:18:46.000Z</time>
      </trkpt>
      <trkpt lat="42.264545" lon="3.110218">
        <ele>6</ele>
        <time>1970-01-01T01:18:47.000Z</time>
      </trkpt>
      <trkpt lat="42.26456" lon="3.110275">
        <ele>6</ele>
        <time>1970-01-01T01:18:48.000Z</time>
      </trkpt>
      <trkpt lat="42.264576" lon="3.110332">
        <ele>6</ele>
        <time>1970-01-01T01:18:49.000Z</time>
      </trkpt>
      <trkpt lat="42.264591" lon="3.11039">
        <ele>6</ele>
        <time>1970-01-01T01:18:50.000Z</time>
      </trkpt>
      <trkpt lat="42.264606" lon="3.110447">
        <ele>6</ele>
        <time>1970-01-01T01:18:51.000Z</time>
      </trkpt>
      <trkpt lat="42.264621" lon="3.110504">
        <ele>6</ele>
        <time>1970-01-01T01:18:52.000Z</time>
      </trkpt>
      <trkpt lat="42.264636" lon="3.110562">
        <ele>6</ele>
        <time>1970-01-01T01:18:53.000Z</time>
      </trkpt>
      <trkpt lat="42.264651" lon="3.110619">
        <ele>6</ele>
        <time>1970-01-01T01:18:54.000Z</time>
      </trkpt>
      <trkpt lat="42.264661" lon="3.110742">
        <ele>6</ele>
        <time>1970-01-01T01:18:55.000Z</time>
      </trkpt>
      <trkpt lat="42.264662" lon="3.110799">
        <ele>6</ele>
        <time>1970-01-01T01:18:56.000Z</time>
      </trkpt>
      <trkpt lat="42.264662" lon="3.110857">
        <ele>6</ele>
        <time>1970-01-01T01:18:57.000Z</time>
      </trkpt>
      <trkpt lat="42.264662" lon="3.110914">
        <ele>6</ele>
        <time>1970-01-01T01:18:58.000Z</time>
      </trkpt>
      <trkpt lat="42.264663" lon="3.110971">
        <ele>6</ele>
        <time>1970-01-01T01:18:59.000Z</time>
      </trkpt>
      <trkpt lat="42.264663" lon="3.111028">
        <ele>6</ele>
        <time>1970-01-01T01:19:00.000Z</time>
      </trkpt>
      <trkpt lat="42.264663" lon="3.111085">
        <ele>6</ele>
        <time>1970-01-01T01:19:01.000Z</time>
      </trkpt>
      <trkpt lat="42.264663" lon="3.111143">
        <ele>6</ele>
        <time>1970-01-01T01:19:02.000Z</time>
      </trkpt>
      <trkpt lat="42.264664" lon="3.1112">
        <ele>6</ele>
        <time>1970-01-01T01:19:03.000Z</time>
      </trkpt>
      <trkpt lat="42.264664" lon="3.111257">
        <ele>6</ele>
        <time>1970-01-01T01:19:04.000Z</time>
      </trkpt>
      <trkpt lat="42.264712" lon="3.11137">
        <ele>6</ele>
        <time>1970-01-01T01:19:05.000Z</time>
      </trkpt>
      <trkpt lat="42.264734" lon="3.111427">
        <ele>6</ele>
        <time>1970-01-01T01:19:06.000Z</time>
      </trkpt>
      <trkpt lat="42.264755" lon="3.111484">
        <ele>6</ele>
        <time>1970-01-01T01:19:07.000Z</time>
      </trkpt>
      <trkpt lat="42.264777" lon="3.111541">
        <ele>6</ele>
        <time>1970-01-01T01:19:08.000Z</time>
      </trkpt>
      <trkpt lat="42.264799" lon="3.111598">
        <ele>6</ele>
        <time>1970-01-01T01:19:09.000Z</time>
      </trkpt>
      <trkpt lat="42.264821" lon="3.111656">
        <ele>6</ele>
        <time>1970-01-01T01:19:10.000Z</time>
      </trkpt>
      <trkpt lat="42.264843" lon="3.111713">
        <ele>6</ele>
        <time>1970-01-01T01:19:11.000Z</time>
      </trkpt>
      <trkpt lat="42.264864" lon="3.11177">
        <ele>6</ele>
        <time>1970-01-01T01:19:12.000Z</time>
      </trkpt>
      <trkpt lat="42.264886" lon="3.111827">
        <ele>6</ele>
        <time>1970-01-01T01:19:13.000Z</time>
      </trkpt>
      <trkpt lat="42.264908" lon="3.111884">
        <ele>6</ele>
        <time>1970-01-01T01:19:14.000Z</time>
      </trkpt>
      <trkpt lat="42.264917" lon="3.112026">
        <ele>6</ele>
        <time>1970-01-01T01:19:15.000Z</time>
      </trkpt>
      <trkpt lat="42.264919" lon="3.112094">
        <ele>6</ele>
        <time>1970-01-01T01:19:16.000Z</time>
      </trkpt>
      <trkpt lat="42.26492" lon="3.112161">
        <ele>6</ele>
        <time>1970-01-01T01:19:17.000Z</time>
      </trkpt>
      <trkpt lat="42.264922" lon="3.112229">
        <ele>6</ele>
        <time>1970-01-01T01:19:18.000Z</time>
      </trkpt>
      <trkpt lat="42.264924" lon="3.112296">
        <ele>6</ele>
        <time>1970-01-01T01:19:19.000Z</time>
      </trkpt>
      <trkpt lat="42.264926" lon="3.112363">
        <ele>6</ele>
        <time>1970-01-01T01:19:20.000Z</time>
      </trkpt>
      <trkpt lat="42.264928" lon="3.112431">
        <ele>6</ele>
        <time>1970-01-01T01:19:21.000Z</time>
      </trkpt>
      <trkpt lat="42.264929" lon="3.112498">
        <ele>6</ele>
        <time>1970-01-01T01:19:22.000Z</time>
      </trkpt>
      <trkpt lat="42.264931" lon="3.112566">
        <ele>6</ele>
        <time>1970-01-01T01:19:23.000Z</time>
      </trkpt>
      <trkpt lat="42.264933" lon="3.112633">
        <ele>5</ele>
        <time>1970-01-01T01:19:24.000Z</time>
      </trkpt>
      <trkpt lat="42.264935" lon="3.112776">
        <ele>5</ele>
        <time>1970-01-01T01:19:25.000Z</time>
      </trkpt>
      <trkpt lat="42.264936" lon="3.112845">
        <ele>5</ele>
        <time>1970-01-01T01:19:26.000Z</time>
      </trkpt>
      <trkpt lat="42.264937" lon="3.112913">
        <ele>5</ele>
        <time>1970-01-01T01:19:27.000Z</time>
      </trkpt>
      <trkpt lat="42.264938" lon="3.112982">
        <ele>5</ele>
        <time>1970-01-01T01:19:28.000Z</time>
      </trkpt>
      <trkpt lat="42.264939" lon="3.11305">
        <ele>5</ele>
        <time>1970-01-01T01:19:29.000Z</time>
      </trkpt>
      <trkpt lat="42.26494" lon="3.113119">
        <ele>5</ele>
        <time>1970-01-01T01:19:30.000Z</time>
      </trkpt>
      <trkpt lat="42.264941" lon="3.113187">
        <ele>5</ele>
        <time>1970-01-01T01:19:31.000Z</time>
      </trkpt>
      <trkpt lat="42.264942" lon="3.113256">
        <ele>5</ele>
        <time>1970-01-01T01:19:32.000Z</time>
      </trkpt>
      <trkpt lat="42.264943" lon="3.113324">
        <ele>5</ele>
        <time>1970-01-01T01:19:33.000Z</time>
      </trkpt>
      <trkpt lat="42.264944" lon="3.113393">
        <ele>5</ele>
        <time>1970-01-01T01:19:34.000Z</time>
      </trkpt>
      <trkpt lat="42.264945" lon="3.113461">
        <ele>5</ele>
        <time>1970-01-01T01:19:35.000Z</time>
      </trkpt>
      <trkpt lat="42.264947" lon="3.113602">
        <ele>5</ele>
        <time>1970-01-01T01:19:36.000Z</time>
      </trkpt>
      <trkpt lat="42.264949" lon="3.113668">
        <ele>5</ele>
        <time>1970-01-01T01:19:37.000Z</time>
      </trkpt>
      <trkpt lat="42.26495" lon="3.113734">
        <ele>5</ele>
        <time>1970-01-01T01:19:38.000Z</time>
      </trkpt>
      <trkpt lat="42.264951" lon="3.1138">
        <ele>5</ele>
        <time>1970-01-01T01:19:39.000Z</time>
      </trkpt>
      <trkpt lat="42.264953" lon="3.113866">
        <ele>5</ele>
        <time>1970-01-01T01:19:40.000Z</time>
      </trkpt>
      <trkpt lat="42.264954" lon="3.113932">
        <ele>5</ele>
        <time>1970-01-01T01:19:41.000Z</time>
      </trkpt>
      <trkpt lat="42.264955" lon="3.113998">
        <ele>5</ele>
        <time>1970-01-01T01:19:42.000Z</time>
      </trkpt>
      <trkpt lat="42.264957" lon="3.114064">
        <ele>5</ele>
        <time>1970-01-01T01:19:43.000Z</time>
      </trkpt>
      <trkpt lat="42.264958" lon="3.11413">
        <ele>4</ele>
        <time>1970-01-01T01:19:44.000Z</time>
      </trkpt>
      <trkpt lat="42.264961" lon="3.114272">
        <ele>4</ele>
        <time>1970-01-01T01:19:45.000Z</time>
      </trkpt>
      <trkpt lat="42.264962" lon="3.114339">
        <ele>4</ele>
        <time>1970-01-01T01:19:46.000Z</time>
      </trkpt>
      <trkpt lat="42.264964" lon="3.114407">
        <ele>4</ele>
        <time>1970-01-01T01:19:47.000Z</time>
      </trkpt>
      <trkpt lat="42.264965" lon="3.114474">
        <ele>4</ele>
        <time>1970-01-01T01:19:48.000Z</time>
      </trkpt>
      <trkpt lat="42.264967" lon="3.114541">
        <ele>4</ele>
        <time>1970-01-01T01:19:49.000Z</time>
      </trkpt>
      <trkpt lat="42.264969" lon="3.114608">
        <ele>4</ele>
        <time>1970-01-01T01:19:50.000Z</time>
      </trkpt>
      <trkpt lat="42.26497" lon="3.114675">
        <ele>4</ele>
        <time>1970-01-01T01:19:51.000Z</time>
      </trkpt>
      <trkpt lat="42.264972" lon="3.114743">
        <ele>4</ele>
        <time>1970-01-01T01:19:52.000Z</time>
      </trkpt>
      <trkpt lat="42.264973" lon="3.11481">
        <ele>4</ele>
        <time>1970-01-01T01:19:53.000Z</time>
      </trkpt>
      <trkpt lat="42.264975" lon="3.114877">
        <ele>5</ele>
        <time>1970-01-01T01:19:54.000Z</time>
      </trkpt>
      <trkpt lat="42.264976" lon="3.115017">
        <ele>5</ele>
        <time>1970-01-01T01:19:55.000Z</time>
      </trkpt>
      <trkpt lat="42.264978" lon="3.115083">
        <ele>5</ele>
        <time>1970-01-01T01:19:56.000Z</time>
      </trkpt>
      <trkpt lat="42.264979" lon="3.115148">
        <ele>5</ele>
        <time>1970-01-01T01:19:57.000Z</time>
      </trkpt>
      <trkpt lat="42.264981" lon="3.115214">
        <ele>5</ele>
        <time>1970-01-01T01:19:58.000Z</time>
      </trkpt>
      <trkpt lat="42.264982" lon="3.115279">
        <ele>5</ele>
        <time>1970-01-01T01:19:59.000Z</time>
      </trkpt>
      <trkpt lat="42.264983" lon="3.115345">
        <ele>5</ele>
        <time>1970-01-01T01:20:00.000Z</time>
      </trkpt>
      <trkpt lat="42.264985" lon="3.11541">
        <ele>5</ele>
        <time>1970-01-01T01:20:01.000Z</time>
      </trkpt>
      <trkpt lat="42.264986" lon="3.115476">
        <ele>5</ele>
        <time>1970-01-01T01:20:02.000Z</time>
      </trkpt>
      <trkpt lat="42.264988" lon="3.115541">
        <ele>5</ele>
        <time>1970-01-01T01:20:03.000Z</time>
      </trkpt>
      <trkpt lat="42.264989" lon="3.115607">
        <ele>5</ele>
        <time>1970-01-01T01:20:04.000Z</time>
      </trkpt>
      <trkpt lat="42.264991" lon="3.115749">
        <ele>5</ele>
        <time>1970-01-01T01:20:05.000Z</time>
      </trkpt>
      <trkpt lat="42.264993" lon="3.115818">
        <ele>5</ele>
        <time>1970-01-01T01:20:06.000Z</time>
      </trkpt>
      <trkpt lat="42.264994" lon="3.115886">
        <ele>5</ele>
        <time>1970-01-01T01:20:07.000Z</time>
      </trkpt>
      <trkpt lat="42.264995" lon="3.115954">
        <ele>5</ele>
        <time>1970-01-01T01:20:08.000Z</time>
      </trkpt>
      <trkpt lat="42.264997" lon="3.116023">
        <ele>5</ele>
        <time>1970-01-01T01:20:09.000Z</time>
      </trkpt>
      <trkpt lat="42.264998" lon="3.116091">
        <ele>5</ele>
        <time>1970-01-01T01:20:10.000Z</time>
      </trkpt>
      <trkpt lat="42.265" lon="3.11616">
        <ele>5</ele>
        <time>1970-01-01T01:20:11.000Z</time>
      </trkpt>
      <trkpt lat="42.265001" lon="3.116228">
        <ele>5</ele>
        <time>1970-01-01T01:20:12.000Z</time>
      </trkpt>
      <trkpt lat="42.265002" lon="3.116296">
        <ele>5</ele>
        <time>1970-01-01T01:20:13.000Z</time>
      </trkpt>
      <trkpt lat="42.265004" lon="3.116365">
        <ele>5</ele>
        <time>1970-01-01T01:20:14.000Z</time>
      </trkpt>
      <trkpt lat="42.265005" lon="3.116433">
        <ele>5</ele>
        <time>1970-01-01T01:20:15.000Z</time>
      </trkpt>
      <trkpt lat="42.265008" lon="3.116574">
        <ele>5</ele>
        <time>1970-01-01T01:20:16.000Z</time>
      </trkpt>
      <trkpt lat="42.265009" lon="3.11664">
        <ele>5</ele>
        <time>1970-01-01T01:20:17.000Z</time>
      </trkpt>
      <trkpt lat="42.265011" lon="3.116707">
        <ele>5</ele>
        <time>1970-01-01T01:20:18.000Z</time>
      </trkpt>
      <trkpt lat="42.265013" lon="3.116774">
        <ele>5</ele>
        <time>1970-01-01T01:20:19.000Z</time>
      </trkpt>
      <trkpt lat="42.265014" lon="3.11684">
        <ele>5</ele>
        <time>1970-01-01T01:20:20.000Z</time>
      </trkpt>
      <trkpt lat="42.265016" lon="3.116907">
        <ele>5</ele>
        <time>1970-01-01T01:20:21.000Z</time>
      </trkpt>
      <trkpt lat="42.265018" lon="3.116974">
        <ele>5</ele>
        <time>1970-01-01T01:20:22.000Z</time>
      </trkpt>
      <trkpt lat="42.265019" lon="3.11704">
        <ele>5</ele>
        <time>1970-01-01T01:20:23.000Z</time>
      </trkpt>
      <trkpt lat="42.265021" lon="3.117107">
        <ele>5</ele>
        <time>1970-01-01T01:20:24.000Z</time>
      </trkpt>
      <trkpt lat="42.265023" lon="3.117252">
        <ele>5</ele>
        <time>1970-01-01T01:20:25.000Z</time>
      </trkpt>
      <trkpt lat="42.265024" lon="3.117322">
        <ele>5</ele>
        <time>1970-01-01T01:20:26.000Z</time>
      </trkpt>
      <trkpt lat="42.265024" lon="3.117393">
        <ele>5</ele>
        <time>1970-01-01T01:20:27.000Z</time>
      </trkpt>
      <trkpt lat="42.265025" lon="3.117463">
        <ele>5</ele>
        <time>1970-01-01T01:20:28.000Z</time>
      </trkpt>
      <trkpt lat="42.265026" lon="3.117533">
        <ele>5</ele>
        <time>1970-01-01T01:20:29.000Z</time>
      </trkpt>
      <trkpt lat="42.265027" lon="3.117603">
        <ele>5</ele>
        <time>1970-01-01T01:20:30.000Z</time>
      </trkpt>
      <trkpt lat="42.265028" lon="3.117673">
        <ele>5</ele>
        <time>1970-01-01T01:20:31.000Z</time>
      </trkpt>
      <trkpt lat="42.265028" lon="3.117744">
        <ele>5</ele>
        <time>1970-01-01T01:20:32.000Z</time>
      </trkpt>
      <trkpt lat="42.265029" lon="3.117814">
        <ele>5</ele>
        <time>1970-01-01T01:20:33.000Z</time>
      </trkpt>
      <trkpt lat="42.26503" lon="3.117884">
        <ele>5</ele>
        <time>1970-01-01T01:20:34.000Z</time>
      </trkpt>
      <trkpt lat="42.265032" lon="3.118035">
        <ele>5</ele>
        <time>1970-01-01T01:20:35.000Z</time>
      </trkpt>
      <trkpt lat="42.265033" lon="3.118105">
        <ele>5</ele>
        <time>1970-01-01T01:20:36.000Z</time>
      </trkpt>
      <trkpt lat="42.265035" lon="3.118176">
        <ele>5</ele>
        <time>1970-01-01T01:20:37.000Z</time>
      </trkpt>
      <trkpt lat="42.265037" lon="3.118246">
        <ele>5</ele>
        <time>1970-01-01T01:20:38.000Z</time>
      </trkpt>
      <trkpt lat="42.265039" lon="3.118317">
        <ele>5</ele>
        <time>1970-01-01T01:20:39.000Z</time>
      </trkpt>
      <trkpt lat="42.26504" lon="3.118388">
        <ele>5</ele>
        <time>1970-01-01T01:20:40.000Z</time>
      </trkpt>
      <trkpt lat="42.265042" lon="3.118458">
        <ele>5</ele>
        <time>1970-01-01T01:20:41.000Z</time>
      </trkpt>
      <trkpt lat="42.265044" lon="3.118529">
        <ele>5</ele>
        <time>1970-01-01T01:20:42.000Z</time>
      </trkpt>
      <trkpt lat="42.265045" lon="3.118599">
        <ele>5</ele>
        <time>1970-01-01T01:20:43.000Z</time>
      </trkpt>
      <trkpt lat="42.265047" lon="3.11867">
        <ele>4</ele>
        <time>1970-01-01T01:20:44.000Z</time>
      </trkpt>
      <trkpt lat="42.265045" lon="3.11882">
        <ele>4</ele>
        <time>1970-01-01T01:20:45.000Z</time>
      </trkpt>
      <trkpt lat="42.265047" lon="3.118891">
        <ele>4</ele>
        <time>1970-01-01T01:20:46.000Z</time>
      </trkpt>
      <trkpt lat="42.265049" lon="3.118961">
        <ele>4</ele>
        <time>1970-01-01T01:20:47.000Z</time>
      </trkpt>
      <trkpt lat="42.265051" lon="3.119032">
        <ele>4</ele>
        <time>1970-01-01T01:20:48.000Z</time>
      </trkpt>
      <trkpt lat="42.265053" lon="3.119103">
        <ele>4</ele>
        <time>1970-01-01T01:20:49.000Z</time>
      </trkpt>
      <trkpt lat="42.265056" lon="3.119174">
        <ele>4</ele>
        <time>1970-01-01T01:20:50.000Z</time>
      </trkpt>
      <trkpt lat="42.265058" lon="3.119245">
        <ele>4</ele>
        <time>1970-01-01T01:20:51.000Z</time>
      </trkpt>
      <trkpt lat="42.26506" lon="3.119316">
        <ele>4</ele>
        <time>1970-01-01T01:20:52.000Z</time>
      </trkpt>
      <trkpt lat="42.265062" lon="3.119386">
        <ele>4</ele>
        <time>1970-01-01T01:20:53.000Z</time>
      </trkpt>
      <trkpt lat="42.265064" lon="3.119457">
        <ele>4</ele>
        <time>1970-01-01T01:20:54.000Z</time>
      </trkpt>
      <trkpt lat="42.265066" lon="3.119528">
        <ele>4</ele>
        <time>1970-01-01T01:20:55.000Z</time>
      </trkpt>
      <trkpt lat="42.265071" lon="3.119673">
        <ele>4</ele>
        <time>1970-01-01T01:20:56.000Z</time>
      </trkpt>
      <trkpt lat="42.265073" lon="3.11974">
        <ele>4</ele>
        <time>1970-01-01T01:20:57.000Z</time>
      </trkpt>
      <trkpt lat="42.265076" lon="3.119807">
        <ele>4</ele>
        <time>1970-01-01T01:20:58.000Z</time>
      </trkpt>
      <trkpt lat="42.265078" lon="3.119874">
        <ele>4</ele>
        <time>1970-01-01T01:20:59.000Z</time>
      </trkpt>
      <trkpt lat="42.265081" lon="3.119941">
        <ele>4</ele>
        <time>1970-01-01T01:21:00.000Z</time>
      </trkpt>
      <trkpt lat="42.265083" lon="3.120008">
        <ele>4</ele>
        <time>1970-01-01T01:21:01.000Z</time>
      </trkpt>
      <trkpt lat="42.265086" lon="3.120075">
        <ele>4</ele>
        <time>1970-01-01T01:21:02.000Z</time>
      </trkpt>
      <trkpt lat="42.265088" lon="3.120142">
        <ele>4</ele>
        <time>1970-01-01T01:21:03.000Z</time>
      </trkpt>
      <trkpt lat="42.265091" lon="3.120209">
        <ele>5</ele>
        <time>1970-01-01T01:21:04.000Z</time>
      </trkpt>
      <trkpt lat="42.265109" lon="3.12035">
        <ele>5</ele>
        <time>1970-01-01T01:21:05.000Z</time>
      </trkpt>
      <trkpt lat="42.265121" lon="3.120416">
        <ele>5</ele>
        <time>1970-01-01T01:21:06.000Z</time>
      </trkpt>
      <trkpt lat="42.265132" lon="3.120483">
        <ele>5</ele>
        <time>1970-01-01T01:21:07.000Z</time>
      </trkpt>
      <trkpt lat="42.265144" lon="3.120549">
        <ele>5</ele>
        <time>1970-01-01T01:21:08.000Z</time>
      </trkpt>
      <trkpt lat="42.265156" lon="3.120616">
        <ele>5</ele>
        <time>1970-01-01T01:21:09.000Z</time>
      </trkpt>
      <trkpt lat="42.265168" lon="3.120683">
        <ele>5</ele>
        <time>1970-01-01T01:21:10.000Z</time>
      </trkpt>
      <trkpt lat="42.26518" lon="3.120749">
        <ele>5</ele>
        <time>1970-01-01T01:21:11.000Z</time>
      </trkpt>
      <trkpt lat="42.265191" lon="3.120816">
        <ele>5</ele>
        <time>1970-01-01T01:21:12.000Z</time>
      </trkpt>
      <trkpt lat="42.265203" lon="3.120882">
        <ele>5</ele>
        <time>1970-01-01T01:21:13.000Z</time>
      </trkpt>
      <trkpt lat="42.265215" lon="3.120949">
        <ele>6</ele>
        <time>1970-01-01T01:21:14.000Z</time>
      </trkpt>
      <trkpt lat="42.265254" lon="3.121082">
        <ele>6</ele>
        <time>1970-01-01T01:21:15.000Z</time>
      </trkpt>
      <trkpt lat="42.265274" lon="3.121145">
        <ele>6</ele>
        <time>1970-01-01T01:21:16.000Z</time>
      </trkpt>
      <trkpt lat="42.265295" lon="3.121207">
        <ele>6</ele>
        <time>1970-01-01T01:21:17.000Z</time>
      </trkpt>
      <trkpt lat="42.265315" lon="3.121269">
        <ele>6</ele>
        <time>1970-01-01T01:21:18.000Z</time>
      </trkpt>
      <trkpt lat="42.265336" lon="3.121331">
        <ele>6</ele>
        <time>1970-01-01T01:21:19.000Z</time>
      </trkpt>
      <trkpt lat="42.265356" lon="3.121394">
        <ele>6</ele>
        <time>1970-01-01T01:21:20.000Z</time>
      </trkpt>
      <trkpt lat="42.265377" lon="3.121456">
        <ele>6</ele>
        <time>1970-01-01T01:21:21.000Z</time>
      </trkpt>
      <trkpt lat="42.265397" lon="3.121518">
        <ele>6</ele>
        <time>1970-01-01T01:21:22.000Z</time>
      </trkpt>
      <trkpt lat="42.265418" lon="3.121581">
        <ele>6</ele>
        <time>1970-01-01T01:21:23.000Z</time>
      </trkpt>
      <trkpt lat="42.265438" lon="3.121643">
        <ele>6</ele>
        <time>1970-01-01T01:21:24.000Z</time>
      </trkpt>
      <trkpt lat="42.265486" lon="3.121777">
        <ele>6</ele>
        <time>1970-01-01T01:21:25.000Z</time>
      </trkpt>
      <trkpt lat="42.265508" lon="3.121841">
        <ele>6</ele>
        <time>1970-01-01T01:21:26.000Z</time>
      </trkpt>
      <trkpt lat="42.265531" lon="3.121905">
        <ele>6</ele>
        <time>1970-01-01T01:21:27.000Z</time>
      </trkpt>
      <trkpt lat="42.265553" lon="3.121969">
        <ele>6</ele>
        <time>1970-01-01T01:21:28.000Z</time>
      </trkpt>
      <trkpt lat="42.265576" lon="3.122032">
        <ele>6</ele>
        <time>1970-01-01T01:21:29.000Z</time>
      </trkpt>
      <trkpt lat="42.265599" lon="3.122096">
        <ele>6</ele>
        <time>1970-01-01T01:21:30.000Z</time>
      </trkpt>
      <trkpt lat="42.265621" lon="3.12216">
        <ele>6</ele>
        <time>1970-01-01T01:21:31.000Z</time>
      </trkpt>
      <trkpt lat="42.265644" lon="3.122224">
        <ele>6</ele>
        <time>1970-01-01T01:21:32.000Z</time>
      </trkpt>
      <trkpt lat="42.265666" lon="3.122288">
        <ele>6</ele>
        <time>1970-01-01T01:21:33.000Z</time>
      </trkpt>
      <trkpt lat="42.265689" lon="3.122352">
        <ele>5</ele>
        <time>1970-01-01T01:21:34.000Z</time>
      </trkpt>
      <trkpt lat="42.265736" lon="3.122486">
        <ele>5</ele>
        <time>1970-01-01T01:21:35.000Z</time>
      </trkpt>
      <trkpt lat="42.265759" lon="3.12255">
        <ele>5</ele>
        <time>1970-01-01T01:21:36.000Z</time>
      </trkpt>
      <trkpt lat="42.265781" lon="3.122614">
        <ele>5</ele>
        <time>1970-01-01T01:21:37.000Z</time>
      </trkpt>
      <trkpt lat="42.265803" lon="3.122678">
        <ele>5</ele>
        <time>1970-01-01T01:21:38.000Z</time>
      </trkpt>
      <trkpt lat="42.265826" lon="3.122742">
        <ele>5</ele>
        <time>1970-01-01T01:21:39.000Z</time>
      </trkpt>
      <trkpt lat="42.265848" lon="3.122806">
        <ele>5</ele>
        <time>1970-01-01T01:21:40.000Z</time>
      </trkpt>
      <trkpt lat="42.26587" lon="3.12287">
        <ele>5</ele>
        <time>1970-01-01T01:21:41.000Z</time>
      </trkpt>
      <trkpt lat="42.265892" lon="3.122934">
        <ele>5</ele>
        <time>1970-01-01T01:21:42.000Z</time>
      </trkpt>
      <trkpt lat="42.265915" lon="3.122998">
        <ele>5</ele>
        <time>1970-01-01T01:21:43.000Z</time>
      </trkpt>
      <trkpt lat="42.265937" lon="3.123062">
        <ele>5</ele>
        <time>1970-01-01T01:21:44.000Z</time>
      </trkpt>
      <trkpt lat="42.265985" lon="3.1232">
        <ele>5</ele>
        <time>1970-01-01T01:21:45.000Z</time>
      </trkpt>
      <trkpt lat="42.266008" lon="3.123264">
        <ele>5</ele>
        <time>1970-01-01T01:21:46.000Z</time>
      </trkpt>
      <trkpt lat="42.266031" lon="3.123329">
        <ele>5</ele>
        <time>1970-01-01T01:21:47.000Z</time>
      </trkpt>
      <trkpt lat="42.266054" lon="3.123393">
        <ele>5</ele>
        <time>1970-01-01T01:21:48.000Z</time>
      </trkpt>
      <trkpt lat="42.266078" lon="3.123458">
        <ele>5</ele>
        <time>1970-01-01T01:21:49.000Z</time>
      </trkpt>
      <trkpt lat="42.266101" lon="3.123523">
        <ele>5</ele>
        <time>1970-01-01T01:21:50.000Z</time>
      </trkpt>
      <trkpt lat="42.266124" lon="3.123587">
        <ele>5</ele>
        <time>1970-01-01T01:21:51.000Z</time>
      </trkpt>
      <trkpt lat="42.266147" lon="3.123652">
        <ele>5</ele>
        <time>1970-01-01T01:21:52.000Z</time>
      </trkpt>
      <trkpt lat="42.26617" lon="3.123716">
        <ele>5</ele>
        <time>1970-01-01T01:21:53.000Z</time>
      </trkpt>
      <trkpt lat="42.266193" lon="3.123781">
        <ele>5</ele>
        <time>1970-01-01T01:21:54.000Z</time>
      </trkpt>
      <trkpt lat="42.26624" lon="3.123916">
        <ele>5</ele>
        <time>1970-01-01T01:21:55.000Z</time>
      </trkpt>
      <trkpt lat="42.266262" lon="3.123979">
        <ele>5</ele>
        <time>1970-01-01T01:21:56.000Z</time>
      </trkpt>
      <trkpt lat="42.266285" lon="3.124043">
        <ele>5</ele>
        <time>1970-01-01T01:21:57.000Z</time>
      </trkpt>
      <trkpt lat="42.266307" lon="3.124106">
        <ele>5</ele>
        <time>1970-01-01T01:21:58.000Z</time>
      </trkpt>
      <trkpt lat="42.266329" lon="3.124169">
        <ele>5</ele>
        <time>1970-01-01T01:21:59.000Z</time>
      </trkpt>
      <trkpt lat="42.266351" lon="3.124232">
        <ele>5</ele>
        <time>1970-01-01T01:22:00.000Z</time>
      </trkpt>
      <trkpt lat="42.266373" lon="3.124295">
        <ele>5</ele>
        <time>1970-01-01T01:22:01.000Z</time>
      </trkpt>
      <trkpt lat="42.266396" lon="3.124359">
        <ele>5</ele>
        <time>1970-01-01T01:22:02.000Z</time>
      </trkpt>
      <trkpt lat="42.266418" lon="3.124422">
        <ele>5</ele>
        <time>1970-01-01T01:22:03.000Z</time>
      </trkpt>
      <trkpt lat="42.26644" lon="3.124485">
        <ele>5</ele>
        <time>1970-01-01T01:22:04.000Z</time>
      </trkpt>
      <trkpt lat="42.266486" lon="3.124615">
        <ele>5</ele>
        <time>1970-01-01T01:22:05.000Z</time>
      </trkpt>
      <trkpt lat="42.266508" lon="3.124677">
        <ele>5</ele>
        <time>1970-01-01T01:22:06.000Z</time>
      </trkpt>
      <trkpt lat="42.26653" lon="3.124738">
        <ele>5</ele>
        <time>1970-01-01T01:22:07.000Z</time>
      </trkpt>
      <trkpt lat="42.266552" lon="3.1248">
        <ele>5</ele>
        <time>1970-01-01T01:22:08.000Z</time>
      </trkpt>
      <trkpt lat="42.266575" lon="3.124862">
        <ele>5</ele>
        <time>1970-01-01T01:22:09.000Z</time>
      </trkpt>
      <trkpt lat="42.266597" lon="3.124924">
        <ele>5</ele>
        <time>1970-01-01T01:22:10.000Z</time>
      </trkpt>
      <trkpt lat="42.266619" lon="3.124986">
        <ele>5</ele>
        <time>1970-01-01T01:22:11.000Z</time>
      </trkpt>
      <trkpt lat="42.266641" lon="3.125047">
        <ele>5</ele>
        <time>1970-01-01T01:22:12.000Z</time>
      </trkpt>
      <trkpt lat="42.266663" lon="3.125109">
        <ele>5</ele>
        <time>1970-01-01T01:22:13.000Z</time>
      </trkpt>
      <trkpt lat="42.266685" lon="3.125171">
        <ele>4</ele>
        <time>1970-01-01T01:22:14.000Z</time>
      </trkpt>
      <trkpt lat="42.266733" lon="3.125306">
        <ele>4</ele>
        <time>1970-01-01T01:22:15.000Z</time>
      </trkpt>
      <trkpt lat="42.266756" lon="3.12537">
        <ele>4</ele>
        <time>1970-01-01T01:22:16.000Z</time>
      </trkpt>
      <trkpt lat="42.266779" lon="3.125435">
        <ele>4</ele>
        <time>1970-01-01T01:22:17.000Z</time>
      </trkpt>
      <trkpt lat="42.266802" lon="3.1255">
        <ele>4</ele>
        <time>1970-01-01T01:22:18.000Z</time>
      </trkpt>
      <trkpt lat="42.266825" lon="3.125564">
        <ele>4</ele>
        <time>1970-01-01T01:22:19.000Z</time>
      </trkpt>
      <trkpt lat="42.266847" lon="3.125629">
        <ele>4</ele>
        <time>1970-01-01T01:22:20.000Z</time>
      </trkpt>
      <trkpt lat="42.26687" lon="3.125694">
        <ele>4</ele>
        <time>1970-01-01T01:22:21.000Z</time>
      </trkpt>
      <trkpt lat="42.266893" lon="3.125759">
        <ele>4</ele>
        <time>1970-01-01T01:22:22.000Z</time>
      </trkpt>
      <trkpt lat="42.266916" lon="3.125823">
        <ele>4</ele>
        <time>1970-01-01T01:22:23.000Z</time>
      </trkpt>
      <trkpt lat="42.266939" lon="3.125888">
        <ele>5</ele>
        <time>1970-01-01T01:22:24.000Z</time>
      </trkpt>
      <trkpt lat="42.266988" lon="3.126019">
        <ele>5</ele>
        <time>1970-01-01T01:22:25.000Z</time>
      </trkpt>
      <trkpt lat="42.267012" lon="3.12608">
        <ele>5</ele>
        <time>1970-01-01T01:22:26.000Z</time>
      </trkpt>
      <trkpt lat="42.267036" lon="3.12614">
        <ele>5</ele>
        <time>1970-01-01T01:22:27.000Z</time>
      </trkpt>
      <trkpt lat="42.26706" lon="3.126201">
        <ele>5</ele>
        <time>1970-01-01T01:22:28.000Z</time>
      </trkpt>
      <trkpt lat="42.267085" lon="3.126261">
        <ele>5</ele>
        <time>1970-01-01T01:22:29.000Z</time>
      </trkpt>
      <trkpt lat="42.267109" lon="3.126322">
        <ele>5</ele>
        <time>1970-01-01T01:22:30.000Z</time>
      </trkpt>
      <trkpt lat="42.267133" lon="3.126382">
        <ele>5</ele>
        <time>1970-01-01T01:22:31.000Z</time>
      </trkpt>
      <trkpt lat="42.267157" lon="3.126443">
        <ele>5</ele>
        <time>1970-01-01T01:22:32.000Z</time>
      </trkpt>
      <trkpt lat="42.267181" lon="3.126503">
        <ele>5</ele>
        <time>1970-01-01T01:22:33.000Z</time>
      </trkpt>
      <trkpt lat="42.267205" lon="3.126564">
        <ele>5</ele>
        <time>1970-01-01T01:22:34.000Z</time>
      </trkpt>
      <trkpt lat="42.267263" lon="3.12668">
        <ele>5</ele>
        <time>1970-01-01T01:22:35.000Z</time>
      </trkpt>
      <trkpt lat="42.267292" lon="3.126733">
        <ele>5</ele>
        <time>1970-01-01T01:22:36.000Z</time>
      </trkpt>
      <trkpt lat="42.26732" lon="3.126787">
        <ele>5</ele>
        <time>1970-01-01T01:22:37.000Z</time>
      </trkpt>
      <trkpt lat="42.267349" lon="3.12684">
        <ele>5</ele>
        <time>1970-01-01T01:22:38.000Z</time>
      </trkpt>
      <trkpt lat="42.267378" lon="3.126893">
        <ele>5</ele>
        <time>1970-01-01T01:22:39.000Z</time>
      </trkpt>
      <trkpt lat="42.267407" lon="3.126946">
        <ele>5</ele>
        <time>1970-01-01T01:22:40.000Z</time>
      </trkpt>
      <trkpt lat="42.267436" lon="3.126999">
        <ele>5</ele>
        <time>1970-01-01T01:22:41.000Z</time>
      </trkpt>
      <trkpt lat="42.267464" lon="3.127053">
        <ele>5</ele>
        <time>1970-01-01T01:22:42.000Z</time>
      </trkpt>
      <trkpt lat="42.267493" lon="3.127106">
        <ele>5</ele>
        <time>1970-01-01T01:22:43.000Z</time>
      </trkpt>
      <trkpt lat="42.267522" lon="3.127159">
        <ele>5</ele>
        <time>1970-01-01T01:22:44.000Z</time>
      </trkpt>
      <trkpt lat="42.267591" lon="3.127267">
        <ele>5</ele>
        <time>1970-01-01T01:22:45.000Z</time>
      </trkpt>
      <trkpt lat="42.267625" lon="3.127318">
        <ele>5</ele>
        <time>1970-01-01T01:22:46.000Z</time>
      </trkpt>
      <trkpt lat="42.26766" lon="3.12737">
        <ele>5</ele>
        <time>1970-01-01T01:22:47.000Z</time>
      </trkpt>
      <trkpt lat="42.267694" lon="3.127421">
        <ele>5</ele>
        <time>1970-01-01T01:22:48.000Z</time>
      </trkpt>
      <trkpt lat="42.267728" lon="3.127472">
        <ele>5</ele>
        <time>1970-01-01T01:22:49.000Z</time>
      </trkpt>
      <trkpt lat="42.267762" lon="3.127523">
        <ele>5</ele>
        <time>1970-01-01T01:22:50.000Z</time>
      </trkpt>
      <trkpt lat="42.267796" lon="3.127574">
        <ele>5</ele>
        <time>1970-01-01T01:22:51.000Z</time>
      </trkpt>
      <trkpt lat="42.267831" lon="3.127626">
        <ele>5</ele>
        <time>1970-01-01T01:22:52.000Z</time>
      </trkpt>
      <trkpt lat="42.267865" lon="3.127677">
        <ele>5</ele>
        <time>1970-01-01T01:22:53.000Z</time>
      </trkpt>
      <trkpt lat="42.267899" lon="3.127728">
        <ele>6</ele>
        <time>1970-01-01T01:22:54.000Z</time>
      </trkpt>
      <trkpt lat="42.267972" lon="3.127837">
        <ele>6</ele>
        <time>1970-01-01T01:22:55.000Z</time>
      </trkpt>
      <trkpt lat="42.268006" lon="3.127889">
        <ele>6</ele>
        <time>1970-01-01T01:22:56.000Z</time>
      </trkpt>
      <trkpt lat="42.26804" lon="3.12794">
        <ele>6</ele>
        <time>1970-01-01T01:22:57.000Z</time>
      </trkpt>
      <trkpt lat="42.268074" lon="3.127992">
        <ele>6</ele>
        <time>1970-01-01T01:22:58.000Z</time>
      </trkpt>
      <trkpt lat="42.268108" lon="3.128043">
        <ele>6</ele>
        <time>1970-01-01T01:22:59.000Z</time>
      </trkpt>
      <trkpt lat="42.268142" lon="3.128094">
        <ele>6</ele>
        <time>1970-01-01T01:23:00.000Z</time>
      </trkpt>
      <trkpt lat="42.268176" lon="3.128146">
        <ele>6</ele>
        <time>1970-01-01T01:23:01.000Z</time>
      </trkpt>
      <trkpt lat="42.26821" lon="3.128197">
        <ele>6</ele>
        <time>1970-01-01T01:23:02.000Z</time>
      </trkpt>
      <trkpt lat="42.268244" lon="3.128249">
        <ele>6</ele>
        <time>1970-01-01T01:23:03.000Z</time>
      </trkpt>
      <trkpt lat="42.268278" lon="3.1283">
        <ele>6</ele>
        <time>1970-01-01T01:23:04.000Z</time>
      </trkpt>
      <trkpt lat="42.268349" lon="3.128409">
        <ele>6</ele>
        <time>1970-01-01T01:23:05.000Z</time>
      </trkpt>
      <trkpt lat="42.268383" lon="3.12846">
        <ele>6</ele>
        <time>1970-01-01T01:23:06.000Z</time>
      </trkpt>
      <trkpt lat="42.268416" lon="3.128512">
        <ele>6</ele>
        <time>1970-01-01T01:23:07.000Z</time>
      </trkpt>
      <trkpt lat="42.26845" lon="3.128563">
        <ele>6</ele>
        <time>1970-01-01T01:23:08.000Z</time>
      </trkpt>
      <trkpt lat="42.268484" lon="3.128615">
        <ele>6</ele>
        <time>1970-01-01T01:23:09.000Z</time>
      </trkpt>
      <trkpt lat="42.268518" lon="3.128666">
        <ele>6</ele>
        <time>1970-01-01T01:23:10.000Z</time>
      </trkpt>
      <trkpt lat="42.268552" lon="3.128718">
        <ele>6</ele>
        <time>1970-01-01T01:23:11.000Z</time>
      </trkpt>
      <trkpt lat="42.268586" lon="3.128769">
        <ele>6</ele>
        <time>1970-01-01T01:23:12.000Z</time>
      </trkpt>
      <trkpt lat="42.268619" lon="3.128821">
        <ele>6</ele>
        <time>1970-01-01T01:23:13.000Z</time>
      </trkpt>
      <trkpt lat="42.268653" lon="3.128872">
        <ele>6</ele>
        <time>1970-01-01T01:23:14.000Z</time>
      </trkpt>
      <trkpt lat="42.268687" lon="3.128924">
        <ele>5</ele>
        <time>1970-01-01T01:23:15.000Z</time>
      </trkpt>
      <trkpt lat="42.268757" lon="3.129031">
        <ele>5</ele>
        <time>1970-01-01T01:23:16.000Z</time>
      </trkpt>
      <trkpt lat="42.26879" lon="3.129082">
        <ele>5</ele>
        <time>1970-01-01T01:23:17.000Z</time>
      </trkpt>
      <trkpt lat="42.268824" lon="3.129132">
        <ele>5</ele>
        <time>1970-01-01T01:23:18.000Z</time>
      </trkpt>
      <trkpt lat="42.268857" lon="3.129182">
        <ele>5</ele>
        <time>1970-01-01T01:23:19.000Z</time>
      </trkpt>
      <trkpt lat="42.26889" lon="3.129232">
        <ele>5</ele>
        <time>1970-01-01T01:23:20.000Z</time>
      </trkpt>
      <trkpt lat="42.268923" lon="3.129283">
        <ele>5</ele>
        <time>1970-01-01T01:23:21.000Z</time>
      </trkpt>
      <trkpt lat="42.268956" lon="3.129333">
        <ele>5</ele>
        <time>1970-01-01T01:23:22.000Z</time>
      </trkpt>
      <trkpt lat="42.26899" lon="3.129383">
        <ele>5</ele>
        <time>1970-01-01T01:23:23.000Z</time>
      </trkpt>
      <trkpt lat="42.269023" lon="3.129434">
        <ele>5</ele>
        <time>1970-01-01T01:23:24.000Z</time>
      </trkpt>
      <trkpt lat="42.269056" lon="3.129484">
        <ele>5</ele>
        <time>1970-01-01T01:23:25.000Z</time>
      </trkpt>
      <trkpt lat="42.269125" lon="3.129589">
        <ele>5</ele>
        <time>1970-01-01T01:23:26.000Z</time>
      </trkpt>
      <trkpt lat="42.269158" lon="3.129638">
        <ele>5</ele>
        <time>1970-01-01T01:23:27.000Z</time>
      </trkpt>
      <trkpt lat="42.269191" lon="3.129687">
        <ele>5</ele>
        <time>1970-01-01T01:23:28.000Z</time>
      </trkpt>
      <trkpt lat="42.269224" lon="3.129736">
        <ele>5</ele>
        <time>1970-01-01T01:23:29.000Z</time>
      </trkpt>
      <trkpt lat="42.269256" lon="3.129785">
        <ele>5</ele>
        <time>1970-01-01T01:23:30.000Z</time>
      </trkpt>
      <trkpt lat="42.269289" lon="3.129834">
        <ele>5</ele>
        <time>1970-01-01T01:23:31.000Z</time>
      </trkpt>
      <trkpt lat="42.269322" lon="3.129883">
        <ele>5</ele>
        <time>1970-01-01T01:23:32.000Z</time>
      </trkpt>
      <trkpt lat="42.269355" lon="3.129932">
        <ele>5</ele>
        <time>1970-01-01T01:23:33.000Z</time>
      </trkpt>
      <trkpt lat="42.269388" lon="3.129981">
        <ele>6</ele>
        <time>1970-01-01T01:23:34.000Z</time>
      </trkpt>
      <trkpt lat="42.269459" lon="3.130086">
        <ele>6</ele>
        <time>1970-01-01T01:23:35.000Z</time>
      </trkpt>
      <trkpt lat="42.269493" lon="3.130136">
        <ele>6</ele>
        <time>1970-01-01T01:23:36.000Z</time>
      </trkpt>
      <trkpt lat="42.269527" lon="3.130186">
        <ele>6</ele>
        <time>1970-01-01T01:23:37.000Z</time>
      </trkpt>
      <trkpt lat="42.269561" lon="3.130236">
        <ele>6</ele>
        <time>1970-01-01T01:23:38.000Z</time>
      </trkpt>
      <trkpt lat="42.269595" lon="3.130286">
        <ele>6</ele>
        <time>1970-01-01T01:23:39.000Z</time>
      </trkpt>
      <trkpt lat="42.269628" lon="3.130337">
        <ele>6</ele>
        <time>1970-01-01T01:23:40.000Z</time>
      </trkpt>
      <trkpt lat="42.269662" lon="3.130387">
        <ele>6</ele>
        <time>1970-01-01T01:23:41.000Z</time>
      </trkpt>
      <trkpt lat="42.269696" lon="3.130437">
        <ele>6</ele>
        <time>1970-01-01T01:23:42.000Z</time>
      </trkpt>
      <trkpt lat="42.26973" lon="3.130487">
        <ele>6</ele>
        <time>1970-01-01T01:23:43.000Z</time>
      </trkpt>
      <trkpt lat="42.269764" lon="3.130537">
        <ele>6</ele>
        <time>1970-01-01T01:23:44.000Z</time>
      </trkpt>
      <trkpt lat="42.269835" lon="3.130642">
        <ele>6</ele>
        <time>1970-01-01T01:23:45.000Z</time>
      </trkpt>
      <trkpt lat="42.269867" lon="3.130692">
        <ele>6</ele>
        <time>1970-01-01T01:23:46.000Z</time>
      </trkpt>
      <trkpt lat="42.2699" lon="3.130741">
        <ele>6</ele>
        <time>1970-01-01T01:23:47.000Z</time>
      </trkpt>
      <trkpt lat="42.269932" lon="3.13079">
        <ele>6</ele>
        <time>1970-01-01T01:23:48.000Z</time>
      </trkpt>
      <trkpt lat="42.269965" lon="3.130839">
        <ele>6</ele>
        <time>1970-01-01T01:23:49.000Z</time>
      </trkpt>
      <trkpt lat="42.269997" lon="3.130889">
        <ele>6</ele>
        <time>1970-01-01T01:23:50.000Z</time>
      </trkpt>
      <trkpt lat="42.27003" lon="3.130938">
        <ele>6</ele>
        <time>1970-01-01T01:23:51.000Z</time>
      </trkpt>
      <trkpt lat="42.270062" lon="3.130987">
        <ele>6</ele>
        <time>1970-01-01T01:23:52.000Z</time>
      </trkpt>
      <trkpt lat="42.270095" lon="3.131037">
        <ele>6</ele>
        <time>1970-01-01T01:23:53.000Z</time>
      </trkpt>
      <trkpt lat="42.270127" lon="3.131086">
        <ele>6</ele>
        <time>1970-01-01T01:23:54.000Z</time>
      </trkpt>
      <trkpt lat="42.270191" lon="3.131183">
        <ele>6</ele>
        <time>1970-01-01T01:23:55.000Z</time>
      </trkpt>
      <trkpt lat="42.27022" lon="3.131228">
        <ele>6</ele>
        <time>1970-01-01T01:23:56.000Z</time>
      </trkpt>
      <trkpt lat="42.27025" lon="3.131274">
        <ele>6</ele>
        <time>1970-01-01T01:23:57.000Z</time>
      </trkpt>
      <trkpt lat="42.270279" lon="3.131319">
        <ele>6</ele>
        <time>1970-01-01T01:23:58.000Z</time>
      </trkpt>
      <trkpt lat="42.270309" lon="3.131364">
        <ele>6</ele>
        <time>1970-01-01T01:23:59.000Z</time>
      </trkpt>
      <trkpt lat="42.270338" lon="3.131409">
        <ele>6</ele>
        <time>1970-01-01T01:24:00.000Z</time>
      </trkpt>
      <trkpt lat="42.270368" lon="3.131454">
        <ele>6</ele>
        <time>1970-01-01T01:24:01.000Z</time>
      </trkpt>
      <trkpt lat="42.270397" lon="3.1315">
        <ele>6</ele>
        <time>1970-01-01T01:24:02.000Z</time>
      </trkpt>
      <trkpt lat="42.270427" lon="3.131545">
        <ele>6</ele>
        <time>1970-01-01T01:24:03.000Z</time>
      </trkpt>
      <trkpt lat="42.270456" lon="3.13159">
        <ele>6</ele>
        <time>1970-01-01T01:24:04.000Z</time>
      </trkpt>
      <trkpt lat="42.270514" lon="3.131682">
        <ele>6</ele>
        <time>1970-01-01T01:24:05.000Z</time>
      </trkpt>
      <trkpt lat="42.270542" lon="3.131726">
        <ele>6</ele>
        <time>1970-01-01T01:24:06.000Z</time>
      </trkpt>
      <trkpt lat="42.27057" lon="3.131769">
        <ele>6</ele>
        <time>1970-01-01T01:24:07.000Z</time>
      </trkpt>
      <trkpt lat="42.270598" lon="3.131812">
        <ele>6</ele>
        <time>1970-01-01T01:24:08.000Z</time>
      </trkpt>
      <trkpt lat="42.270626" lon="3.131855">
        <ele>6</ele>
        <time>1970-01-01T01:24:09.000Z</time>
      </trkpt>
      <trkpt lat="42.270653" lon="3.131899">
        <ele>6</ele>
        <time>1970-01-01T01:24:10.000Z</time>
      </trkpt>
      <trkpt lat="42.270681" lon="3.131942">
        <ele>6</ele>
        <time>1970-01-01T01:24:11.000Z</time>
      </trkpt>
      <trkpt lat="42.270709" lon="3.131985">
        <ele>6</ele>
        <time>1970-01-01T01:24:12.000Z</time>
      </trkpt>
      <trkpt lat="42.270737" lon="3.132029">
        <ele>6</ele>
        <time>1970-01-01T01:24:13.000Z</time>
      </trkpt>
      <trkpt lat="42.270765" lon="3.132072">
        <ele>7</ele>
        <time>1970-01-01T01:24:14.000Z</time>
      </trkpt>
      <trkpt lat="42.270823" lon="3.132162">
        <ele>7</ele>
        <time>1970-01-01T01:24:15.000Z</time>
      </trkpt>
      <trkpt lat="42.270851" lon="3.132205">
        <ele>7</ele>
        <time>1970-01-01T01:24:16.000Z</time>
      </trkpt>
      <trkpt lat="42.270878" lon="3.132248">
        <ele>7</ele>
        <time>1970-01-01T01:24:17.000Z</time>
      </trkpt>
      <trkpt lat="42.270906" lon="3.132291">
        <ele>7</ele>
        <time>1970-01-01T01:24:18.000Z</time>
      </trkpt>
      <trkpt lat="42.270934" lon="3.132334">
        <ele>7</ele>
        <time>1970-01-01T01:24:19.000Z</time>
      </trkpt>
      <trkpt lat="42.270962" lon="3.132378">
        <ele>7</ele>
        <time>1970-01-01T01:24:20.000Z</time>
      </trkpt>
      <trkpt lat="42.27099" lon="3.132421">
        <ele>7</ele>
        <time>1970-01-01T01:24:21.000Z</time>
      </trkpt>
      <trkpt lat="42.271017" lon="3.132464">
        <ele>7</ele>
        <time>1970-01-01T01:24:22.000Z</time>
      </trkpt>
      <trkpt lat="42.271045" lon="3.132507">
        <ele>7</ele>
        <time>1970-01-01T01:24:23.000Z</time>
      </trkpt>
      <trkpt lat="42.271073" lon="3.13255">
        <ele>9</ele>
        <time>1970-01-01T01:24:24.000Z</time>
      </trkpt>
      <trkpt lat="42.271129" lon="3.132638">
        <ele>9</ele>
        <time>1970-01-01T01:24:25.000Z</time>
      </trkpt>
      <trkpt lat="42.271156" lon="3.132679">
        <ele>9</ele>
        <time>1970-01-01T01:24:26.000Z</time>
      </trkpt>
      <trkpt lat="42.271183" lon="3.132719">
        <ele>9</ele>
        <time>1970-01-01T01:24:27.000Z</time>
      </trkpt>
      <trkpt lat="42.27121" lon="3.13276">
        <ele>9</ele>
        <time>1970-01-01T01:24:28.000Z</time>
      </trkpt>
      <trkpt lat="42.271238" lon="3.132801">
        <ele>9</ele>
        <time>1970-01-01T01:24:29.000Z</time>
      </trkpt>
      <trkpt lat="42.271265" lon="3.132842">
        <ele>9</ele>
        <time>1970-01-01T01:24:30.000Z</time>
      </trkpt>
      <trkpt lat="42.271292" lon="3.132883">
        <ele>9</ele>
        <time>1970-01-01T01:24:31.000Z</time>
      </trkpt>
      <trkpt lat="42.271319" lon="3.132923">
        <ele>9</ele>
        <time>1970-01-01T01:24:32.000Z</time>
      </trkpt>
      <trkpt lat="42.271346" lon="3.132964">
        <ele>9</ele>
        <time>1970-01-01T01:24:33.000Z</time>
      </trkpt>
      <trkpt lat="42.271373" lon="3.133005">
        <ele>9</ele>
        <time>1970-01-01T01:24:34.000Z</time>
      </trkpt>
      <trkpt lat="42.27143" lon="3.133096">
        <ele>9</ele>
        <time>1970-01-01T01:24:35.000Z</time>
      </trkpt>
      <trkpt lat="42.271457" lon="3.13314">
        <ele>9</ele>
        <time>1970-01-01T01:24:36.000Z</time>
      </trkpt>
      <trkpt lat="42.271485" lon="3.133184">
        <ele>9</ele>
        <time>1970-01-01T01:24:37.000Z</time>
      </trkpt>
      <trkpt lat="42.271513" lon="3.133228">
        <ele>9</ele>
        <time>1970-01-01T01:24:38.000Z</time>
      </trkpt>
      <trkpt lat="42.271541" lon="3.133272">
        <ele>9</ele>
        <time>1970-01-01T01:24:39.000Z</time>
      </trkpt>
      <trkpt lat="42.271568" lon="3.133316">
        <ele>9</ele>
        <time>1970-01-01T01:24:40.000Z</time>
      </trkpt>
      <trkpt lat="42.271596" lon="3.13336">
        <ele>9</ele>
        <time>1970-01-01T01:24:41.000Z</time>
      </trkpt>
      <trkpt lat="42.271624" lon="3.133404">
        <ele>9</ele>
        <time>1970-01-01T01:24:42.000Z</time>
      </trkpt>
      <trkpt lat="42.271651" lon="3.133448">
        <ele>9</ele>
        <time>1970-01-01T01:24:43.000Z</time>
      </trkpt>
      <trkpt lat="42.271679" lon="3.133492">
        <ele>10</ele>
        <time>1970-01-01T01:24:44.000Z</time>
      </trkpt>
      <trkpt lat="42.271739" lon="3.133594">
        <ele>10</ele>
        <time>1970-01-01T01:24:45.000Z</time>
      </trkpt>
      <trkpt lat="42.271769" lon="3.133647">
        <ele>10</ele>
        <time>1970-01-01T01:24:46.000Z</time>
      </trkpt>
      <trkpt lat="42.2718" lon="3.133699">
        <ele>10</ele>
        <time>1970-01-01T01:24:47.000Z</time>
      </trkpt>
      <trkpt lat="42.27183" lon="3.133751">
        <ele>10</ele>
        <time>1970-01-01T01:24:48.000Z</time>
      </trkpt>
      <trkpt lat="42.27186" lon="3.133803">
        <ele>10</ele>
        <time>1970-01-01T01:24:49.000Z</time>
      </trkpt>
      <trkpt lat="42.27189" lon="3.133856">
        <ele>10</ele>
        <time>1970-01-01T01:24:50.000Z</time>
      </trkpt>
      <trkpt lat="42.27192" lon="3.133908">
        <ele>10</ele>
        <time>1970-01-01T01:24:51.000Z</time>
      </trkpt>
      <trkpt lat="42.271951" lon="3.13396">
        <ele>10</ele>
        <time>1970-01-01T01:24:52.000Z</time>
      </trkpt>
      <trkpt lat="42.271981" lon="3.134013">
        <ele>10</ele>
        <time>1970-01-01T01:24:53.000Z</time>
      </trkpt>
      <trkpt lat="42.272011" lon="3.134065">
        <ele>10</ele>
        <time>1970-01-01T01:24:54.000Z</time>
      </trkpt>
      <trkpt lat="42.272048" lon="3.134207">
        <ele>10</ele>
        <time>1970-01-01T01:24:55.000Z</time>
      </trkpt>
      <trkpt lat="42.272053" lon="3.134279">
        <ele>10</ele>
        <time>1970-01-01T01:24:56.000Z</time>
      </trkpt>
      <trkpt lat="42.272057" lon="3.134352">
        <ele>10</ele>
        <time>1970-01-01T01:24:57.000Z</time>
      </trkpt>
      <trkpt lat="42.272062" lon="3.134424">
        <ele>10</ele>
        <time>1970-01-01T01:24:58.000Z</time>
      </trkpt>
      <trkpt lat="42.272067" lon="3.134497">
        <ele>10</ele>
        <time>1970-01-01T01:24:59.000Z</time>
      </trkpt>
      <trkpt lat="42.272072" lon="3.13457">
        <ele>10</ele>
        <time>1970-01-01T01:25:00.000Z</time>
      </trkpt>
      <trkpt lat="42.272077" lon="3.134642">
        <ele>10</ele>
        <time>1970-01-01T01:25:01.000Z</time>
      </trkpt>
      <trkpt lat="42.272081" lon="3.134715">
        <ele>10</ele>
        <time>1970-01-01T01:25:02.000Z</time>
      </trkpt>
      <trkpt lat="42.272086" lon="3.134787">
        <ele>10</ele>
        <time>1970-01-01T01:25:03.000Z</time>
      </trkpt>
      <trkpt lat="42.272091" lon="3.13486">
        <ele>8</ele>
        <time>1970-01-01T01:25:04.000Z</time>
      </trkpt>
      <trkpt lat="42.272094" lon="3.135016">
        <ele>8</ele>
        <time>1970-01-01T01:25:05.000Z</time>
      </trkpt>
      <trkpt lat="42.272107" lon="3.135089">
        <ele>8</ele>
        <time>1970-01-01T01:25:06.000Z</time>
      </trkpt>
      <trkpt lat="42.27212" lon="3.135163">
        <ele>8</ele>
        <time>1970-01-01T01:25:07.000Z</time>
      </trkpt>
      <trkpt lat="42.272133" lon="3.135236">
        <ele>8</ele>
        <time>1970-01-01T01:25:08.000Z</time>
      </trkpt>
      <trkpt lat="42.272146" lon="3.13531">
        <ele>8</ele>
        <time>1970-01-01T01:25:09.000Z</time>
      </trkpt>
      <trkpt lat="42.272159" lon="3.135384">
        <ele>8</ele>
        <time>1970-01-01T01:25:10.000Z</time>
      </trkpt>
      <trkpt lat="42.272172" lon="3.135457">
        <ele>8</ele>
        <time>1970-01-01T01:25:11.000Z</time>
      </trkpt>
      <trkpt lat="42.272185" lon="3.135531">
        <ele>8</ele>
        <time>1970-01-01T01:25:12.000Z</time>
      </trkpt>
      <trkpt lat="42.272198" lon="3.135604">
        <ele>8</ele>
        <time>1970-01-01T01:25:13.000Z</time>
      </trkpt>
      <trkpt lat="42.272211" lon="3.135678">
        <ele>5</ele>
        <time>1970-01-01T01:25:14.000Z</time>
      </trkpt>
      <trkpt lat="42.272195" lon="3.135831">
        <ele>5</ele>
        <time>1970-01-01T01:25:15.000Z</time>
      </trkpt>
      <trkpt lat="42.272183" lon="3.135899">
        <ele>5</ele>
        <time>1970-01-01T01:25:16.000Z</time>
      </trkpt>
      <trkpt lat="42.27217" lon="3.135967">
        <ele>5</ele>
        <time>1970-01-01T01:25:17.000Z</time>
      </trkpt>
      <trkpt lat="42.272157" lon="3.136035">
        <ele>5</ele>
        <time>1970-01-01T01:25:18.000Z</time>
      </trkpt>
      <trkpt lat="42.272145" lon="3.136104">
        <ele>5</ele>
        <time>1970-01-01T01:25:19.000Z</time>
      </trkpt>
      <trkpt lat="42.272132" lon="3.136172">
        <ele>5</ele>
        <time>1970-01-01T01:25:20.000Z</time>
      </trkpt>
      <trkpt lat="42.272119" lon="3.13624">
        <ele>5</ele>
        <time>1970-01-01T01:25:21.000Z</time>
      </trkpt>
      <trkpt lat="42.272106" lon="3.136308">
        <ele>5</ele>
        <time>1970-01-01T01:25:22.000Z</time>
      </trkpt>
      <trkpt lat="42.272094" lon="3.136376">
        <ele>5</ele>
        <time>1970-01-01T01:25:23.000Z</time>
      </trkpt>
      <trkpt lat="42.272081" lon="3.136444">
        <ele>5</ele>
        <time>1970-01-01T01:25:24.000Z</time>
      </trkpt>
      <trkpt lat="42.272053" lon="3.136583">
        <ele>5</ele>
        <time>1970-01-01T01:25:25.000Z</time>
      </trkpt>
      <trkpt lat="42.272041" lon="3.13665">
        <ele>5</ele>
        <time>1970-01-01T01:25:26.000Z</time>
      </trkpt>
      <trkpt lat="42.272029" lon="3.136717">
        <ele>5</ele>
        <time>1970-01-01T01:25:27.000Z</time>
      </trkpt>
      <trkpt lat="42.272017" lon="3.136784">
        <ele>5</ele>
        <time>1970-01-01T01:25:28.000Z</time>
      </trkpt>
      <trkpt lat="42.272005" lon="3.136851">
        <ele>5</ele>
        <time>1970-01-01T01:25:29.000Z</time>
      </trkpt>
      <trkpt lat="42.271993" lon="3.136917">
        <ele>5</ele>
        <time>1970-01-01T01:25:30.000Z</time>
      </trkpt>
      <trkpt lat="42.271981" lon="3.136984">
        <ele>5</ele>
        <time>1970-01-01T01:25:31.000Z</time>
      </trkpt>
      <trkpt lat="42.271969" lon="3.137051">
        <ele>5</ele>
        <time>1970-01-01T01:25:32.000Z</time>
      </trkpt>
      <trkpt lat="42.271957" lon="3.137118">
        <ele>5</ele>
        <time>1970-01-01T01:25:33.000Z</time>
      </trkpt>
      <trkpt lat="42.271945" lon="3.137185">
        <ele>5</ele>
        <time>1970-01-01T01:25:34.000Z</time>
      </trkpt>
      <trkpt lat="42.271933" lon="3.137252">
        <ele>5</ele>
        <time>1970-01-01T01:25:35.000Z</time>
      </trkpt>
      <trkpt lat="42.271917" lon="3.137389">
        <ele>5</ele>
        <time>1970-01-01T01:25:36.000Z</time>
      </trkpt>
      <trkpt lat="42.27191" lon="3.137453">
        <ele>5</ele>
        <time>1970-01-01T01:25:37.000Z</time>
      </trkpt>
      <trkpt lat="42.271904" lon="3.137517">
        <ele>5</ele>
        <time>1970-01-01T01:25:38.000Z</time>
      </trkpt>
      <trkpt lat="42.271897" lon="3.137581">
        <ele>5</ele>
        <time>1970-01-01T01:25:39.000Z</time>
      </trkpt>
      <trkpt lat="42.271891" lon="3.137645">
        <ele>5</ele>
        <time>1970-01-01T01:25:40.000Z</time>
      </trkpt>
      <trkpt lat="42.271884" lon="3.137709">
        <ele>5</ele>
        <time>1970-01-01T01:25:41.000Z</time>
      </trkpt>
      <trkpt lat="42.271878" lon="3.137773">
        <ele>5</ele>
        <time>1970-01-01T01:25:42.000Z</time>
      </trkpt>
      <trkpt lat="42.271871" lon="3.137837">
        <ele>5</ele>
        <time>1970-01-01T01:25:43.000Z</time>
      </trkpt>
      <trkpt lat="42.271865" lon="3.137901">
        <ele>5</ele>
        <time>1970-01-01T01:25:44.000Z</time>
      </trkpt>
      <trkpt lat="42.271856" lon="3.138038">
        <ele>5</ele>
        <time>1970-01-01T01:25:45.000Z</time>
      </trkpt>
      <trkpt lat="42.271853" lon="3.138105">
        <ele>5</ele>
        <time>1970-01-01T01:25:46.000Z</time>
      </trkpt>
      <trkpt lat="42.271849" lon="3.138172">
        <ele>5</ele>
        <time>1970-01-01T01:25:47.000Z</time>
      </trkpt>
      <trkpt lat="42.271846" lon="3.138239">
        <ele>5</ele>
        <time>1970-01-01T01:25:48.000Z</time>
      </trkpt>
      <trkpt lat="42.271842" lon="3.138306">
        <ele>5</ele>
        <time>1970-01-01T01:25:49.000Z</time>
      </trkpt>
      <trkpt lat="42.271838" lon="3.138373">
        <ele>5</ele>
        <time>1970-01-01T01:25:50.000Z</time>
      </trkpt>
      <trkpt lat="42.271835" lon="3.13844">
        <ele>5</ele>
        <time>1970-01-01T01:25:51.000Z</time>
      </trkpt>
      <trkpt lat="42.271831" lon="3.138507">
        <ele>5</ele>
        <time>1970-01-01T01:25:52.000Z</time>
      </trkpt>
      <trkpt lat="42.271828" lon="3.138574">
        <ele>5</ele>
        <time>1970-01-01T01:25:53.000Z</time>
      </trkpt>
      <trkpt lat="42.271824" lon="3.138641">
        <ele>5</ele>
        <time>1970-01-01T01:25:54.000Z</time>
      </trkpt>
      <trkpt lat="42.271814" lon="3.138782">
        <ele>5</ele>
        <time>1970-01-01T01:25:55.000Z</time>
      </trkpt>
      <trkpt lat="42.27181" lon="3.138847">
        <ele>5</ele>
        <time>1970-01-01T01:25:56.000Z</time>
      </trkpt>
      <trkpt lat="42.271807" lon="3.138913">
        <ele>5</ele>
        <time>1970-01-01T01:25:57.000Z</time>
      </trkpt>
      <trkpt lat="42.271804" lon="3.138978">
        <ele>5</ele>
        <time>1970-01-01T01:25:58.000Z</time>
      </trkpt>
      <trkpt lat="42.271801" lon="3.139044">
        <ele>5</ele>
        <time>1970-01-01T01:25:59.000Z</time>
      </trkpt>
      <trkpt lat="42.271797" lon="3.13911">
        <ele>5</ele>
        <time>1970-01-01T01:26:00.000Z</time>
      </trkpt>
      <trkpt lat="42.271794" lon="3.139175">
        <ele>5</ele>
        <time>1970-01-01T01:26:01.000Z</time>
      </trkpt>
      <trkpt lat="42.271791" lon="3.139241">
        <ele>5</ele>
        <time>1970-01-01T01:26:02.000Z</time>
      </trkpt>
      <trkpt lat="42.271787" lon="3.139306">
        <ele>5</ele>
        <time>1970-01-01T01:26:03.000Z</time>
      </trkpt>
      <trkpt lat="42.271784" lon="3.139372">
        <ele>4</ele>
        <time>1970-01-01T01:26:04.000Z</time>
      </trkpt>
      <trkpt lat="42.271779" lon="3.139505">
        <ele>4</ele>
        <time>1970-01-01T01:26:05.000Z</time>
      </trkpt>
      <trkpt lat="42.271776" lon="3.139569">
        <ele>4</ele>
        <time>1970-01-01T01:26:06.000Z</time>
      </trkpt>
      <trkpt lat="42.271774" lon="3.139632">
        <ele>4</ele>
        <time>1970-01-01T01:26:07.000Z</time>
      </trkpt>
      <trkpt lat="42.271771" lon="3.139696">
        <ele>4</ele>
        <time>1970-01-01T01:26:08.000Z</time>
      </trkpt>
      <trkpt lat="42.271769" lon="3.13976">
        <ele>4</ele>
        <time>1970-01-01T01:26:09.000Z</time>
      </trkpt>
      <trkpt lat="42.271766" lon="3.139824">
        <ele>4</ele>
        <time>1970-01-01T01:26:10.000Z</time>
      </trkpt>
      <trkpt lat="42.271764" lon="3.139888">
        <ele>4</ele>
        <time>1970-01-01T01:26:11.000Z</time>
      </trkpt>
      <trkpt lat="42.271761" lon="3.139951">
        <ele>4</ele>
        <time>1970-01-01T01:26:12.000Z</time>
      </trkpt>
      <trkpt lat="42.271759" lon="3.140015">
        <ele>4</ele>
        <time>1970-01-01T01:26:13.000Z</time>
      </trkpt>
      <trkpt lat="42.271756" lon="3.140079">
        <ele>4</ele>
        <time>1970-01-01T01:26:14.000Z</time>
      </trkpt>
      <trkpt lat="42.271751" lon="3.140216">
        <ele>4</ele>
        <time>1970-01-01T01:26:15.000Z</time>
      </trkpt>
      <trkpt lat="42.271748" lon="3.140282">
        <ele>4</ele>
        <time>1970-01-01T01:26:16.000Z</time>
      </trkpt>
      <trkpt lat="42.271745" lon="3.140348">
        <ele>4</ele>
        <time>1970-01-01T01:26:17.000Z</time>
      </trkpt>
      <trkpt lat="42.271742" lon="3.140414">
        <ele>4</ele>
        <time>1970-01-01T01:26:18.000Z</time>
      </trkpt>
      <trkpt lat="42.271739" lon="3.140481">
        <ele>4</ele>
        <time>1970-01-01T01:26:19.000Z</time>
      </trkpt>
      <trkpt lat="42.271735" lon="3.140547">
        <ele>4</ele>
        <time>1970-01-01T01:26:20.000Z</time>
      </trkpt>
      <trkpt lat="42.271732" lon="3.140613">
        <ele>4</ele>
        <time>1970-01-01T01:26:21.000Z</time>
      </trkpt>
      <trkpt lat="42.271729" lon="3.140679">
        <ele>4</ele>
        <time>1970-01-01T01:26:22.000Z</time>
      </trkpt>
      <trkpt lat="42.271726" lon="3.140745">
        <ele>4</ele>
        <time>1970-01-01T01:26:23.000Z</time>
      </trkpt>
      <trkpt lat="42.271723" lon="3.140811">
        <ele>4</ele>
        <time>1970-01-01T01:26:24.000Z</time>
      </trkpt>
      <trkpt lat="42.271715" lon="3.14095">
        <ele>4</ele>
        <time>1970-01-01T01:26:25.000Z</time>
      </trkpt>
      <trkpt lat="42.271712" lon="3.141014">
        <ele>4</ele>
        <time>1970-01-01T01:26:26.000Z</time>
      </trkpt>
      <trkpt lat="42.271708" lon="3.141079">
        <ele>4</ele>
        <time>1970-01-01T01:26:27.000Z</time>
      </trkpt>
      <trkpt lat="42.271704" lon="3.141143">
        <ele>4</ele>
        <time>1970-01-01T01:26:28.000Z</time>
      </trkpt>
      <trkpt lat="42.271701" lon="3.141207">
        <ele>4</ele>
        <time>1970-01-01T01:26:29.000Z</time>
      </trkpt>
      <trkpt lat="42.271697" lon="3.141271">
        <ele>4</ele>
        <time>1970-01-01T01:26:30.000Z</time>
      </trkpt>
      <trkpt lat="42.271694" lon="3.141335">
        <ele>4</ele>
        <time>1970-01-01T01:26:31.000Z</time>
      </trkpt>
      <trkpt lat="42.27169" lon="3.141399">
        <ele>4</ele>
        <time>1970-01-01T01:26:32.000Z</time>
      </trkpt>
      <trkpt lat="42.271686" lon="3.141464">
        <ele>4</ele>
        <time>1970-01-01T01:26:33.000Z</time>
      </trkpt>
      <trkpt lat="42.271683" lon="3.141528">
        <ele>4</ele>
        <time>1970-01-01T01:26:34.000Z</time>
      </trkpt>
      <trkpt lat="42.271679" lon="3.141592">
        <ele>5</ele>
        <time>1970-01-01T01:26:35.000Z</time>
      </trkpt>
      <trkpt lat="42.271673" lon="3.141714">
        <ele>5</ele>
        <time>1970-01-01T01:26:36.000Z</time>
      </trkpt>
      <trkpt lat="42.271672" lon="3.14177">
        <ele>5</ele>
        <time>1970-01-01T01:26:37.000Z</time>
      </trkpt>
      <trkpt lat="42.27167" lon="3.141826">
        <ele>5</ele>
        <time>1970-01-01T01:26:38.000Z</time>
      </trkpt>
      <trkpt lat="42.271668" lon="3.141882">
        <ele>5</ele>
        <time>1970-01-01T01:26:39.000Z</time>
      </trkpt>
      <trkpt lat="42.271667" lon="3.141938">
        <ele>5</ele>
        <time>1970-01-01T01:26:40.000Z</time>
      </trkpt>
      <trkpt lat="42.271665" lon="3.141994">
        <ele>5</ele>
        <time>1970-01-01T01:26:41.000Z</time>
      </trkpt>
      <trkpt lat="42.271663" lon="3.14205">
        <ele>5</ele>
        <time>1970-01-01T01:26:42.000Z</time>
      </trkpt>
      <trkpt lat="42.271662" lon="3.142106">
        <ele>5</ele>
        <time>1970-01-01T01:26:43.000Z</time>
      </trkpt>
      <trkpt lat="42.27166" lon="3.142162">
        <ele>4</ele>
        <time>1970-01-01T01:26:44.000Z</time>
      </trkpt>
      <trkpt lat="42.271656" lon="3.142286">
        <ele>4</ele>
        <time>1970-01-01T01:26:45.000Z</time>
      </trkpt>
      <trkpt lat="42.271654" lon="3.142346">
        <ele>4</ele>
        <time>1970-01-01T01:26:46.000Z</time>
      </trkpt>
      <trkpt lat="42.271652" lon="3.142406">
        <ele>4</ele>
        <time>1970-01-01T01:26:47.000Z</time>
      </trkpt>
      <trkpt lat="42.27165" lon="3.142466">
        <ele>4</ele>
        <time>1970-01-01T01:26:48.000Z</time>
      </trkpt>
      <trkpt lat="42.271649" lon="3.142526">
        <ele>4</ele>
        <time>1970-01-01T01:26:49.000Z</time>
      </trkpt>
      <trkpt lat="42.271647" lon="3.142586">
        <ele>4</ele>
        <time>1970-01-01T01:26:50.000Z</time>
      </trkpt>
      <trkpt lat="42.271645" lon="3.142646">
        <ele>4</ele>
        <time>1970-01-01T01:26:51.000Z</time>
      </trkpt>
      <trkpt lat="42.271643" lon="3.142706">
        <ele>4</ele>
        <time>1970-01-01T01:26:52.000Z</time>
      </trkpt>
      <trkpt lat="42.271641" lon="3.142766">
        <ele>4</ele>
        <time>1970-01-01T01:26:53.000Z</time>
      </trkpt>
      <trkpt lat="42.271639" lon="3.142826">
        <ele>5</ele>
        <time>1970-01-01T01:26:54.000Z</time>
      </trkpt>
      <trkpt lat="42.271633" lon="3.142956">
        <ele>5</ele>
        <time>1970-01-01T01:26:55.000Z</time>
      </trkpt>
      <trkpt lat="42.271631" lon="3.143017">
        <ele>5</ele>
        <time>1970-01-01T01:26:56.000Z</time>
      </trkpt>
      <trkpt lat="42.271629" lon="3.143077">
        <ele>5</ele>
        <time>1970-01-01T01:26:57.000Z</time>
      </trkpt>
      <trkpt lat="42.271627" lon="3.143138">
        <ele>5</ele>
        <time>1970-01-01T01:26:58.000Z</time>
      </trkpt>
      <trkpt lat="42.271626" lon="3.143199">
        <ele>5</ele>
        <time>1970-01-01T01:26:59.000Z</time>
      </trkpt>
      <trkpt lat="42.271624" lon="3.14326">
        <ele>5</ele>
        <time>1970-01-01T01:27:00.000Z</time>
      </trkpt>
      <trkpt lat="42.271622" lon="3.143321">
        <ele>5</ele>
        <time>1970-01-01T01:27:01.000Z</time>
      </trkpt>
      <trkpt lat="42.27162" lon="3.143381">
        <ele>5</ele>
        <time>1970-01-01T01:27:02.000Z</time>
      </trkpt>
      <trkpt lat="42.271618" lon="3.143442">
        <ele>5</ele>
        <time>1970-01-01T01:27:03.000Z</time>
      </trkpt>
      <trkpt lat="42.271616" lon="3.143503">
        <ele>5</ele>
        <time>1970-01-01T01:27:04.000Z</time>
      </trkpt>
      <trkpt lat="42.271611" lon="3.143595">
        <ele>5</ele>
        <time>1970-01-01T01:27:05.000Z</time>
      </trkpt>
      <trkpt lat="42.271607" lon="3.143624">
        <ele>5</ele>
        <time>1970-01-01T01:27:06.000Z</time>
      </trkpt>
      <trkpt lat="42.271604" lon="3.143652">
        <ele>5</ele>
        <time>1970-01-01T01:27:07.000Z</time>
      </trkpt>
      <trkpt lat="42.2716" lon="3.14368">
        <ele>5</ele>
        <time>1970-01-01T01:27:09.000Z</time>
      </trkpt>
      <trkpt lat="42.271597" lon="3.143708">
        <ele>5</ele>
        <time>1970-01-01T01:27:11.000Z</time>
      </trkpt>
      <trkpt lat="42.271593" lon="3.143737">
        <ele>5</ele>
        <time>1970-01-01T01:27:12.000Z</time>
      </trkpt>
      <trkpt lat="42.27159" lon="3.143765">
        <ele>5</ele>
        <time>1970-01-01T01:27:13.000Z</time>
      </trkpt>
      <trkpt lat="42.271586" lon="3.143793">
        <ele>6</ele>
        <time>1970-01-01T01:27:14.000Z</time>
      </trkpt>
      <trkpt lat="42.271591" lon="3.143876">
        <ele>6</ele>
        <time>1970-01-01T01:27:15.000Z</time>
      </trkpt>
      <trkpt lat="42.271589" lon="3.143925">
        <ele>6</ele>
        <time>1970-01-01T01:27:16.000Z</time>
      </trkpt>
      <trkpt lat="42.271588" lon="3.143973">
        <ele>6</ele>
        <time>1970-01-01T01:27:17.000Z</time>
      </trkpt>
      <trkpt lat="42.271586" lon="3.144022">
        <ele>6</ele>
        <time>1970-01-01T01:27:18.000Z</time>
      </trkpt>
      <trkpt lat="42.271585" lon="3.144071">
        <ele>6</ele>
        <time>1970-01-01T01:27:19.000Z</time>
      </trkpt>
      <trkpt lat="42.271584" lon="3.14412">
        <ele>6</ele>
        <time>1970-01-01T01:27:20.000Z</time>
      </trkpt>
      <trkpt lat="42.271582" lon="3.144169">
        <ele>6</ele>
        <time>1970-01-01T01:27:21.000Z</time>
      </trkpt>
      <trkpt lat="42.271581" lon="3.144217">
        <ele>6</ele>
        <time>1970-01-01T01:27:22.000Z</time>
      </trkpt>
      <trkpt lat="42.271579" lon="3.144266">
        <ele>6</ele>
        <time>1970-01-01T01:27:23.000Z</time>
      </trkpt>
      <trkpt lat="42.271578" lon="3.144315">
        <ele>5</ele>
        <time>1970-01-01T01:27:24.000Z</time>
      </trkpt>
      <trkpt lat="42.271572" lon="3.144432">
        <ele>5</ele>
        <time>1970-01-01T01:27:25.000Z</time>
      </trkpt>
      <trkpt lat="42.271569" lon="3.144493">
        <ele>5</ele>
        <time>1970-01-01T01:27:26.000Z</time>
      </trkpt>
      <trkpt lat="42.271565" lon="3.144554">
        <ele>5</ele>
        <time>1970-01-01T01:27:27.000Z</time>
      </trkpt>
      <trkpt lat="42.271561" lon="3.144615">
        <ele>5</ele>
        <time>1970-01-01T01:27:28.000Z</time>
      </trkpt>
      <trkpt lat="42.271558" lon="3.144676">
        <ele>5</ele>
        <time>1970-01-01T01:27:29.000Z</time>
      </trkpt>
      <trkpt lat="42.271554" lon="3.144737">
        <ele>5</ele>
        <time>1970-01-01T01:27:30.000Z</time>
      </trkpt>
      <trkpt lat="42.27155" lon="3.144798">
        <ele>5</ele>
        <time>1970-01-01T01:27:31.000Z</time>
      </trkpt>
      <trkpt lat="42.271546" lon="3.144859">
        <ele>5</ele>
        <time>1970-01-01T01:27:32.000Z</time>
      </trkpt>
      <trkpt lat="42.271543" lon="3.14492">
        <ele>5</ele>
        <time>1970-01-01T01:27:33.000Z</time>
      </trkpt>
      <trkpt lat="42.271539" lon="3.144981">
        <ele>4</ele>
        <time>1970-01-01T01:27:34.000Z</time>
      </trkpt>
      <trkpt lat="42.271533" lon="3.145113">
        <ele>4</ele>
        <time>1970-01-01T01:27:35.000Z</time>
      </trkpt>
      <trkpt lat="42.27153" lon="3.145174">
        <ele>4</ele>
        <time>1970-01-01T01:27:36.000Z</time>
      </trkpt>
      <trkpt lat="42.271527" lon="3.145236">
        <ele>4</ele>
        <time>1970-01-01T01:27:37.000Z</time>
      </trkpt>
      <trkpt lat="42.271524" lon="3.145298">
        <ele>4</ele>
        <time>1970-01-01T01:27:38.000Z</time>
      </trkpt>
      <trkpt lat="42.271521" lon="3.14536">
        <ele>4</ele>
        <time>1970-01-01T01:27:39.000Z</time>
      </trkpt>
      <trkpt lat="42.271518" lon="3.145421">
        <ele>4</ele>
        <time>1970-01-01T01:27:40.000Z</time>
      </trkpt>
      <trkpt lat="42.271515" lon="3.145483">
        <ele>4</ele>
        <time>1970-01-01T01:27:41.000Z</time>
      </trkpt>
      <trkpt lat="42.271512" lon="3.145545">
        <ele>4</ele>
        <time>1970-01-01T01:27:42.000Z</time>
      </trkpt>
      <trkpt lat="42.271509" lon="3.145606">
        <ele>4</ele>
        <time>1970-01-01T01:27:43.000Z</time>
      </trkpt>
      <trkpt lat="42.271506" lon="3.145668">
        <ele>5</ele>
        <time>1970-01-01T01:27:44.000Z</time>
      </trkpt>
      <trkpt lat="42.2715" lon="3.145798">
        <ele>5</ele>
        <time>1970-01-01T01:27:45.000Z</time>
      </trkpt>
      <trkpt lat="42.271498" lon="3.145861">
        <ele>5</ele>
        <time>1970-01-01T01:27:46.000Z</time>
      </trkpt>
      <trkpt lat="42.271497" lon="3.145923">
        <ele>5</ele>
        <time>1970-01-01T01:27:47.000Z</time>
      </trkpt>
      <trkpt lat="42.271495" lon="3.145985">
        <ele>5</ele>
        <time>1970-01-01T01:27:48.000Z</time>
      </trkpt>
      <trkpt lat="42.271493" lon="3.146048">
        <ele>5</ele>
        <time>1970-01-01T01:27:49.000Z</time>
      </trkpt>
      <trkpt lat="42.271491" lon="3.14611">
        <ele>5</ele>
        <time>1970-01-01T01:27:50.000Z</time>
      </trkpt>
      <trkpt lat="42.271489" lon="3.146172">
        <ele>5</ele>
        <time>1970-01-01T01:27:51.000Z</time>
      </trkpt>
      <trkpt lat="42.271488" lon="3.146234">
        <ele>5</ele>
        <time>1970-01-01T01:27:52.000Z</time>
      </trkpt>
      <trkpt lat="42.271486" lon="3.146297">
        <ele>5</ele>
        <time>1970-01-01T01:27:53.000Z</time>
      </trkpt>
      <trkpt lat="42.271484" lon="3.146359">
        <ele>5</ele>
        <time>1970-01-01T01:27:54.000Z</time>
      </trkpt>
      <trkpt lat="42.271482" lon="3.146486">
        <ele>5</ele>
        <time>1970-01-01T01:27:55.000Z</time>
      </trkpt>
      <trkpt lat="42.271479" lon="3.146545">
        <ele>5</ele>
        <time>1970-01-01T01:27:56.000Z</time>
      </trkpt>
      <trkpt lat="42.271477" lon="3.146604">
        <ele>5</ele>
        <time>1970-01-01T01:27:57.000Z</time>
      </trkpt>
      <trkpt lat="42.271474" lon="3.146663">
        <ele>5</ele>
        <time>1970-01-01T01:27:58.000Z</time>
      </trkpt>
      <trkpt lat="42.271472" lon="3.146723">
        <ele>5</ele>
        <time>1970-01-01T01:27:59.000Z</time>
      </trkpt>
      <trkpt lat="42.271469" lon="3.146782">
        <ele>5</ele>
        <time>1970-01-01T01:28:00.000Z</time>
      </trkpt>
      <trkpt lat="42.271467" lon="3.146841">
        <ele>5</ele>
        <time>1970-01-01T01:28:01.000Z</time>
      </trkpt>
      <trkpt lat="42.271464" lon="3.1469">
        <ele>5</ele>
        <time>1970-01-01T01:28:02.000Z</time>
      </trkpt>
      <trkpt lat="42.271462" lon="3.146959">
        <ele>5</ele>
        <time>1970-01-01T01:28:03.000Z</time>
      </trkpt>
      <trkpt lat="42.271459" lon="3.147018">
        <ele>4</ele>
        <time>1970-01-01T01:28:04.000Z</time>
      </trkpt>
      <trkpt lat="42.271448" lon="3.14713">
        <ele>4</ele>
        <time>1970-01-01T01:28:05.000Z</time>
      </trkpt>
      <trkpt lat="42.27144" lon="3.147181">
        <ele>4</ele>
        <time>1970-01-01T01:28:06.000Z</time>
      </trkpt>
      <trkpt lat="42.271432" lon="3.147233">
        <ele>4</ele>
        <time>1970-01-01T01:28:07.000Z</time>
      </trkpt>
      <trkpt lat="42.271424" lon="3.147284">
        <ele>4</ele>
        <time>1970-01-01T01:28:08.000Z</time>
      </trkpt>
      <trkpt lat="42.271416" lon="3.147336">
        <ele>4</ele>
        <time>1970-01-01T01:28:09.000Z</time>
      </trkpt>
      <trkpt lat="42.271408" lon="3.147387">
        <ele>4</ele>
        <time>1970-01-01T01:28:10.000Z</time>
      </trkpt>
      <trkpt lat="42.2714" lon="3.147439">
        <ele>4</ele>
        <time>1970-01-01T01:28:11.000Z</time>
      </trkpt>
      <trkpt lat="42.271392" lon="3.14749">
        <ele>4</ele>
        <time>1970-01-01T01:28:12.000Z</time>
      </trkpt>
      <trkpt lat="42.271384" lon="3.147542">
        <ele>4</ele>
        <time>1970-01-01T01:28:13.000Z</time>
      </trkpt>
      <trkpt lat="42.271376" lon="3.147593">
        <ele>5</ele>
        <time>1970-01-01T01:28:14.000Z</time>
      </trkpt>
      <trkpt lat="42.271323" lon="3.147683">
        <ele>5</ele>
        <time>1970-01-01T01:28:15.000Z</time>
      </trkpt>
      <trkpt lat="42.271292" lon="3.147726">
        <ele>5</ele>
        <time>1970-01-01T01:28:16.000Z</time>
      </trkpt>
      <trkpt lat="42.271261" lon="3.147768">
        <ele>5</ele>
        <time>1970-01-01T01:28:17.000Z</time>
      </trkpt>
      <trkpt lat="42.27123" lon="3.147811">
        <ele>5</ele>
        <time>1970-01-01T01:28:18.000Z</time>
      </trkpt>
      <trkpt lat="42.2712" lon="3.147853">
        <ele>5</ele>
        <time>1970-01-01T01:28:19.000Z</time>
      </trkpt>
      <trkpt lat="42.271169" lon="3.147895">
        <ele>5</ele>
        <time>1970-01-01T01:28:20.000Z</time>
      </trkpt>
      <trkpt lat="42.271138" lon="3.147938">
        <ele>5</ele>
        <time>1970-01-01T01:28:21.000Z</time>
      </trkpt>
      <trkpt lat="42.271107" lon="3.14798">
        <ele>5</ele>
        <time>1970-01-01T01:28:22.000Z</time>
      </trkpt>
      <trkpt lat="42.271076" lon="3.148023">
        <ele>5</ele>
        <time>1970-01-01T01:28:23.000Z</time>
      </trkpt>
      <trkpt lat="42.271045" lon="3.148065">
        <ele>5</ele>
        <time>1970-01-01T01:28:24.000Z</time>
      </trkpt>
      <trkpt lat="42.271046" lon="3.148186">
        <ele>5</ele>
        <time>1970-01-01T01:28:25.000Z</time>
      </trkpt>
      <trkpt lat="42.271071" lon="3.148239">
        <ele>5</ele>
        <time>1970-01-01T01:28:26.000Z</time>
      </trkpt>
      <trkpt lat="42.271096" lon="3.148291">
        <ele>5</ele>
        <time>1970-01-01T01:28:27.000Z</time>
      </trkpt>
      <trkpt lat="42.271121" lon="3.148343">
        <ele>5</ele>
        <time>1970-01-01T01:28:28.000Z</time>
      </trkpt>
      <trkpt lat="42.271146" lon="3.148395">
        <ele>5</ele>
        <time>1970-01-01T01:28:29.000Z</time>
      </trkpt>
      <trkpt lat="42.271171" lon="3.148448">
        <ele>5</ele>
        <time>1970-01-01T01:28:30.000Z</time>
      </trkpt>
      <trkpt lat="42.271196" lon="3.1485">
        <ele>5</ele>
        <time>1970-01-01T01:28:31.000Z</time>
      </trkpt>
      <trkpt lat="42.271221" lon="3.148552">
        <ele>5</ele>
        <time>1970-01-01T01:28:32.000Z</time>
      </trkpt>
      <trkpt lat="42.271246" lon="3.148605">
        <ele>5</ele>
        <time>1970-01-01T01:28:33.000Z</time>
      </trkpt>
      <trkpt lat="42.271271" lon="3.148657">
        <ele>5</ele>
        <time>1970-01-01T01:28:34.000Z</time>
      </trkpt>
      <trkpt lat="42.271364" lon="3.148698">
        <ele>5</ele>
        <time>1970-01-01T01:28:35.000Z</time>
      </trkpt>
      <trkpt lat="42.2714" lon="3.148723">
        <ele>5</ele>
        <time>1970-01-01T01:28:36.000Z</time>
      </trkpt>
      <trkpt lat="42.271437" lon="3.148749">
        <ele>5</ele>
        <time>1970-01-01T01:28:37.000Z</time>
      </trkpt>
      <trkpt lat="42.271473" lon="3.148774">
        <ele>5</ele>
        <time>1970-01-01T01:28:38.000Z</time>
      </trkpt>
      <trkpt lat="42.27151" lon="3.1488">
        <ele>5</ele>
        <time>1970-01-01T01:28:39.000Z</time>
      </trkpt>
      <trkpt lat="42.271546" lon="3.148826">
        <ele>5</ele>
        <time>1970-01-01T01:28:40.000Z</time>
      </trkpt>
      <trkpt lat="42.271583" lon="3.148851">
        <ele>5</ele>
        <time>1970-01-01T01:28:41.000Z</time>
      </trkpt>
      <trkpt lat="42.271619" lon="3.148877">
        <ele>5</ele>
        <time>1970-01-01T01:28:42.000Z</time>
      </trkpt>
      <trkpt lat="42.271656" lon="3.148902">
        <ele>5</ele>
        <time>1970-01-01T01:28:43.000Z</time>
      </trkpt>
      <trkpt lat="42.271692" lon="3.148928">
        <ele>3</ele>
        <time>1970-01-01T01:28:44.000Z</time>
      </trkpt>
      <trkpt lat="42.27167" lon="3.149057">
        <ele>3</ele>
        <time>1970-01-01T01:28:45.000Z</time>
      </trkpt>
      <trkpt lat="42.271652" lon="3.149114">
        <ele>3</ele>
        <time>1970-01-01T01:28:46.000Z</time>
      </trkpt>
      <trkpt lat="42.271635" lon="3.149171">
        <ele>3</ele>
        <time>1970-01-01T01:28:47.000Z</time>
      </trkpt>
      <trkpt lat="42.271618" lon="3.149228">
        <ele>3</ele>
        <time>1970-01-01T01:28:48.000Z</time>
      </trkpt>
      <trkpt lat="42.271601" lon="3.149286">
        <ele>3</ele>
        <time>1970-01-01T01:28:49.000Z</time>
      </trkpt>
      <trkpt lat="42.271583" lon="3.149343">
        <ele>3</ele>
        <time>1970-01-01T01:28:50.000Z</time>
      </trkpt>
      <trkpt lat="42.271566" lon="3.1494">
        <ele>3</ele>
        <time>1970-01-01T01:28:51.000Z</time>
      </trkpt>
      <trkpt lat="42.271549" lon="3.149457">
        <ele>3</ele>
        <time>1970-01-01T01:28:52.000Z</time>
      </trkpt>
      <trkpt lat="42.271531" lon="3.149514">
        <ele>3</ele>
        <time>1970-01-01T01:28:53.000Z</time>
      </trkpt>
      <trkpt lat="42.271514" lon="3.149571">
        <ele>5</ele>
        <time>1970-01-01T01:28:54.000Z</time>
      </trkpt>
      <trkpt lat="42.271514" lon="3.149693">
        <ele>5</ele>
        <time>1970-01-01T01:28:55.000Z</time>
      </trkpt>
      <trkpt lat="42.271524" lon="3.149752">
        <ele>5</ele>
        <time>1970-01-01T01:28:56.000Z</time>
      </trkpt>
      <trkpt lat="42.271533" lon="3.14981">
        <ele>5</ele>
        <time>1970-01-01T01:28:57.000Z</time>
      </trkpt>
      <trkpt lat="42.271543" lon="3.149869">
        <ele>5</ele>
        <time>1970-01-01T01:28:58.000Z</time>
      </trkpt>
      <trkpt lat="42.271552" lon="3.149927">
        <ele>5</ele>
        <time>1970-01-01T01:28:59.000Z</time>
      </trkpt>
      <trkpt lat="42.271561" lon="3.149986">
        <ele>5</ele>
        <time>1970-01-01T01:29:00.000Z</time>
      </trkpt>
      <trkpt lat="42.271571" lon="3.150044">
        <ele>5</ele>
        <time>1970-01-01T01:29:01.000Z</time>
      </trkpt>
      <trkpt lat="42.27158" lon="3.150103">
        <ele>5</ele>
        <time>1970-01-01T01:29:02.000Z</time>
      </trkpt>
      <trkpt lat="42.27159" lon="3.150161">
        <ele>5</ele>
        <time>1970-01-01T01:29:03.000Z</time>
      </trkpt>
      <trkpt lat="42.271599" lon="3.15022">
        <ele>5</ele>
        <time>1970-01-01T01:29:04.000Z</time>
      </trkpt>
      <trkpt lat="42.271649" lon="3.15033">
        <ele>5</ele>
        <time>1970-01-01T01:29:05.000Z</time>
      </trkpt>
      <trkpt lat="42.271676" lon="3.15038">
        <ele>5</ele>
        <time>1970-01-01T01:29:06.000Z</time>
      </trkpt>
      <trkpt lat="42.271704" lon="3.150431">
        <ele>5</ele>
        <time>1970-01-01T01:29:07.000Z</time>
      </trkpt>
      <trkpt lat="42.271732" lon="3.150481">
        <ele>5</ele>
        <time>1970-01-01T01:29:08.000Z</time>
      </trkpt>
      <trkpt lat="42.27176" lon="3.150532">
        <ele>5</ele>
        <time>1970-01-01T01:29:09.000Z</time>
      </trkpt>
      <trkpt lat="42.271787" lon="3.150583">
        <ele>5</ele>
        <time>1970-01-01T01:29:10.000Z</time>
      </trkpt>
      <trkpt lat="42.271815" lon="3.150633">
        <ele>5</ele>
        <time>1970-01-01T01:29:11.000Z</time>
      </trkpt>
      <trkpt lat="42.271843" lon="3.150684">
        <ele>5</ele>
        <time>1970-01-01T01:29:12.000Z</time>
      </trkpt>
      <trkpt lat="42.27187" lon="3.150734">
        <ele>5</ele>
        <time>1970-01-01T01:29:13.000Z</time>
      </trkpt>
      <trkpt lat="42.271898" lon="3.150785">
        <ele>4</ele>
        <time>1970-01-01T01:29:14.000Z</time>
      </trkpt>
      <trkpt lat="42.271956" lon="3.150886">
        <ele>4</ele>
        <time>1970-01-01T01:29:15.000Z</time>
      </trkpt>
      <trkpt lat="42.271982" lon="3.150932">
        <ele>4</ele>
        <time>1970-01-01T01:29:16.000Z</time>
      </trkpt>
      <trkpt lat="42.272009" lon="3.150978">
        <ele>4</ele>
        <time>1970-01-01T01:29:17.000Z</time>
      </trkpt>
      <trkpt lat="42.272036" lon="3.151024">
        <ele>4</ele>
        <time>1970-01-01T01:29:18.000Z</time>
      </trkpt>
      <trkpt lat="42.272063" lon="3.15107">
        <ele>4</ele>
        <time>1970-01-01T01:29:19.000Z</time>
      </trkpt>
      <trkpt lat="42.272089" lon="3.151116">
        <ele>4</ele>
        <time>1970-01-01T01:29:20.000Z</time>
      </trkpt>
      <trkpt lat="42.272116" lon="3.151162">
        <ele>4</ele>
        <time>1970-01-01T01:29:21.000Z</time>
      </trkpt>
      <trkpt lat="42.272143" lon="3.151208">
        <ele>4</ele>
        <time>1970-01-01T01:29:22.000Z</time>
      </trkpt>
      <trkpt lat="42.272169" lon="3.151254">
        <ele>4</ele>
        <time>1970-01-01T01:29:23.000Z</time>
      </trkpt>
      <trkpt lat="42.272196" lon="3.1513">
        <ele>4</ele>
        <time>1970-01-01T01:29:24.000Z</time>
      </trkpt>
      <trkpt lat="42.272244" lon="3.151387">
        <ele>4</ele>
        <time>1970-01-01T01:29:25.000Z</time>
      </trkpt>
      <trkpt lat="42.272266" lon="3.151427">
        <ele>4</ele>
        <time>1970-01-01T01:29:26.000Z</time>
      </trkpt>
      <trkpt lat="42.272287" lon="3.151468">
        <ele>4</ele>
        <time>1970-01-01T01:29:27.000Z</time>
      </trkpt>
      <trkpt lat="42.272308" lon="3.151508">
        <ele>4</ele>
        <time>1970-01-01T01:29:28.000Z</time>
      </trkpt>
      <trkpt lat="42.27233" lon="3.151548">
        <ele>4</ele>
        <time>1970-01-01T01:29:29.000Z</time>
      </trkpt>
      <trkpt lat="42.272351" lon="3.151588">
        <ele>4</ele>
        <time>1970-01-01T01:29:30.000Z</time>
      </trkpt>
      <trkpt lat="42.272372" lon="3.151628">
        <ele>4</ele>
        <time>1970-01-01T01:29:31.000Z</time>
      </trkpt>
      <trkpt lat="42.272393" lon="3.151669">
        <ele>4</ele>
        <time>1970-01-01T01:29:32.000Z</time>
      </trkpt>
      <trkpt lat="42.272415" lon="3.151709">
        <ele>4</ele>
        <time>1970-01-01T01:29:33.000Z</time>
      </trkpt>
      <trkpt lat="42.272436" lon="3.151749">
        <ele>5</ele>
        <time>1970-01-01T01:29:34.000Z</time>
      </trkpt>
      <trkpt lat="42.272481" lon="3.151832">
        <ele>5</ele>
        <time>1970-01-01T01:29:35.000Z</time>
      </trkpt>
      <trkpt lat="42.272503" lon="3.151871">
        <ele>5</ele>
        <time>1970-01-01T01:29:36.000Z</time>
      </trkpt>
      <trkpt lat="42.272525" lon="3.151911">
        <ele>5</ele>
        <time>1970-01-01T01:29:37.000Z</time>
      </trkpt>
      <trkpt lat="42.272547" lon="3.151951">
        <ele>5</ele>
        <time>1970-01-01T01:29:38.000Z</time>
      </trkpt>
      <trkpt lat="42.272569" lon="3.151991">
        <ele>5</ele>
        <time>1970-01-01T01:29:39.000Z</time>
      </trkpt>
      <trkpt lat="42.272591" lon="3.15203">
        <ele>5</ele>
        <time>1970-01-01T01:29:40.000Z</time>
      </trkpt>
      <trkpt lat="42.272613" lon="3.15207">
        <ele>5</ele>
        <time>1970-01-01T01:29:41.000Z</time>
      </trkpt>
      <trkpt lat="42.272635" lon="3.15211">
        <ele>5</ele>
        <time>1970-01-01T01:29:42.000Z</time>
      </trkpt>
      <trkpt lat="42.272657" lon="3.15215">
        <ele>5</ele>
        <time>1970-01-01T01:29:43.000Z</time>
      </trkpt>
      <trkpt lat="42.272679" lon="3.152189">
        <ele>5</ele>
        <time>1970-01-01T01:29:44.000Z</time>
      </trkpt>
      <trkpt lat="42.272701" lon="3.152229">
        <ele>6</ele>
        <time>1970-01-01T01:29:45.000Z</time>
      </trkpt>
      <trkpt lat="42.272748" lon="3.152313">
        <ele>6</ele>
        <time>1970-01-01T01:29:46.000Z</time>
      </trkpt>
      <trkpt lat="42.27277" lon="3.152353">
        <ele>6</ele>
        <time>1970-01-01T01:29:47.000Z</time>
      </trkpt>
      <trkpt lat="42.272792" lon="3.152393">
        <ele>6</ele>
        <time>1970-01-01T01:29:48.000Z</time>
      </trkpt>
      <trkpt lat="42.272814" lon="3.152433">
        <ele>6</ele>
        <time>1970-01-01T01:29:49.000Z</time>
      </trkpt>
      <trkpt lat="42.272837" lon="3.152474">
        <ele>6</ele>
        <time>1970-01-01T01:29:50.000Z</time>
      </trkpt>
      <trkpt lat="42.272859" lon="3.152514">
        <ele>6</ele>
        <time>1970-01-01T01:29:51.000Z</time>
      </trkpt>
      <trkpt lat="42.272881" lon="3.152554">
        <ele>6</ele>
        <time>1970-01-01T01:29:52.000Z</time>
      </trkpt>
      <trkpt lat="42.272903" lon="3.152594">
        <ele>6</ele>
        <time>1970-01-01T01:29:53.000Z</time>
      </trkpt>
      <trkpt lat="42.272925" lon="3.152634">
        <ele>6</ele>
        <time>1970-01-01T01:29:54.000Z</time>
      </trkpt>
      <trkpt lat="42.272974" lon="3.152721">
        <ele>6</ele>
        <time>1970-01-01T01:29:55.000Z</time>
      </trkpt>
      <trkpt lat="42.272998" lon="3.152763">
        <ele>6</ele>
        <time>1970-01-01T01:29:56.000Z</time>
      </trkpt>
      <trkpt lat="42.273021" lon="3.152804">
        <ele>6</ele>
        <time>1970-01-01T01:29:57.000Z</time>
      </trkpt>
      <trkpt lat="42.273045" lon="3.152845">
        <ele>6</ele>
        <time>1970-01-01T01:29:58.000Z</time>
      </trkpt>
      <trkpt lat="42.273069" lon="3.152886">
        <ele>6</ele>
        <time>1970-01-01T01:29:59.000Z</time>
      </trkpt>
      <trkpt lat="42.273093" lon="3.152928">
        <ele>6</ele>
        <time>1970-01-01T01:30:00.000Z</time>
      </trkpt>
      <trkpt lat="42.273117" lon="3.152969">
        <ele>6</ele>
        <time>1970-01-01T01:30:01.000Z</time>
      </trkpt>
      <trkpt lat="42.27314" lon="3.15301">
        <ele>6</ele>
        <time>1970-01-01T01:30:02.000Z</time>
      </trkpt>
      <trkpt lat="42.273164" lon="3.153052">
        <ele>6</ele>
        <time>1970-01-01T01:30:03.000Z</time>
      </trkpt>
      <trkpt lat="42.273188" lon="3.153093">
        <ele>7</ele>
        <time>1970-01-01T01:30:04.000Z</time>
      </trkpt>
      <trkpt lat="42.273238" lon="3.15318">
        <ele>7</ele>
        <time>1970-01-01T01:30:05.000Z</time>
      </trkpt>
      <trkpt lat="42.273262" lon="3.153221">
        <ele>7</ele>
        <time>1970-01-01T01:30:06.000Z</time>
      </trkpt>
      <trkpt lat="42.273285" lon="3.153263">
        <ele>7</ele>
        <time>1970-01-01T01:30:07.000Z</time>
      </trkpt>
      <trkpt lat="42.273308" lon="3.153304">
        <ele>7</ele>
        <time>1970-01-01T01:30:08.000Z</time>
      </trkpt>
      <trkpt lat="42.273331" lon="3.153346">
        <ele>7</ele>
        <time>1970-01-01T01:30:09.000Z</time>
      </trkpt>
      <trkpt lat="42.273355" lon="3.153387">
        <ele>7</ele>
        <time>1970-01-01T01:30:10.000Z</time>
      </trkpt>
      <trkpt lat="42.273378" lon="3.153429">
        <ele>7</ele>
        <time>1970-01-01T01:30:11.000Z</time>
      </trkpt>
      <trkpt lat="42.273401" lon="3.15347">
        <ele>7</ele>
        <time>1970-01-01T01:30:12.000Z</time>
      </trkpt>
      <trkpt lat="42.273424" lon="3.153512">
        <ele>7</ele>
        <time>1970-01-01T01:30:13.000Z</time>
      </trkpt>
      <trkpt lat="42.273448" lon="3.153553">
        <ele>7</ele>
        <time>1970-01-01T01:30:14.000Z</time>
      </trkpt>
      <trkpt lat="42.273471" lon="3.153595">
        <ele>8</ele>
        <time>1970-01-01T01:30:15.000Z</time>
      </trkpt>
      <trkpt lat="42.273518" lon="3.153681">
        <ele>8</ele>
        <time>1970-01-01T01:30:16.000Z</time>
      </trkpt>
      <trkpt lat="42.273539" lon="3.153721">
        <ele>8</ele>
        <time>1970-01-01T01:30:17.000Z</time>
      </trkpt>
      <trkpt lat="42.27356" lon="3.153761">
        <ele>8</ele>
        <time>1970-01-01T01:30:18.000Z</time>
      </trkpt>
      <trkpt lat="42.273581" lon="3.153801">
        <ele>8</ele>
        <time>1970-01-01T01:30:19.000Z</time>
      </trkpt>
      <trkpt lat="42.273602" lon="3.153841">
        <ele>8</ele>
        <time>1970-01-01T01:30:20.000Z</time>
      </trkpt>
      <trkpt lat="42.273623" lon="3.153881">
        <ele>8</ele>
        <time>1970-01-01T01:30:21.000Z</time>
      </trkpt>
      <trkpt lat="42.273644" lon="3.153921">
        <ele>8</ele>
        <time>1970-01-01T01:30:22.000Z</time>
      </trkpt>
      <trkpt lat="42.273665" lon="3.153961">
        <ele>8</ele>
        <time>1970-01-01T01:30:23.000Z</time>
      </trkpt>
      <trkpt lat="42.273686" lon="3.154001">
        <ele>9</ele>
        <time>1970-01-01T01:30:24.000Z</time>
      </trkpt>
      <trkpt lat="42.273732" lon="3.154092">
        <ele>9</ele>
        <time>1970-01-01T01:30:25.000Z</time>
      </trkpt>
      <trkpt lat="42.273754" lon="3.154137">
        <ele>9</ele>
        <time>1970-01-01T01:30:26.000Z</time>
      </trkpt>
      <trkpt lat="42.273776" lon="3.154182">
        <ele>9</ele>
        <time>1970-01-01T01:30:27.000Z</time>
      </trkpt>
      <trkpt lat="42.273798" lon="3.154227">
        <ele>9</ele>
        <time>1970-01-01T01:30:28.000Z</time>
      </trkpt>
      <trkpt lat="42.27382" lon="3.154272">
        <ele>9</ele>
        <time>1970-01-01T01:30:29.000Z</time>
      </trkpt>
      <trkpt lat="42.273841" lon="3.154317">
        <ele>9</ele>
        <time>1970-01-01T01:30:30.000Z</time>
      </trkpt>
      <trkpt lat="42.273863" lon="3.154362">
        <ele>9</ele>
        <time>1970-01-01T01:30:31.000Z</time>
      </trkpt>
      <trkpt lat="42.273885" lon="3.154407">
        <ele>9</ele>
        <time>1970-01-01T01:30:32.000Z</time>
      </trkpt>
      <trkpt lat="42.273907" lon="3.154452">
        <ele>9</ele>
        <time>1970-01-01T01:30:33.000Z</time>
      </trkpt>
      <trkpt lat="42.273929" lon="3.154497">
        <ele>10</ele>
        <time>1970-01-01T01:30:34.000Z</time>
      </trkpt>
      <trkpt lat="42.273977" lon="3.154598">
        <ele>10</ele>
        <time>1970-01-01T01:30:35.000Z</time>
      </trkpt>
      <trkpt lat="42.274" lon="3.154645">
        <ele>10</ele>
        <time>1970-01-01T01:30:36.000Z</time>
      </trkpt>
      <trkpt lat="42.274024" lon="3.154693">
        <ele>10</ele>
        <time>1970-01-01T01:30:37.000Z</time>
      </trkpt>
      <trkpt lat="42.274048" lon="3.154741">
        <ele>10</ele>
        <time>1970-01-01T01:30:38.000Z</time>
      </trkpt>
      <trkpt lat="42.274072" lon="3.154788">
        <ele>10</ele>
        <time>1970-01-01T01:30:39.000Z</time>
      </trkpt>
      <trkpt lat="42.274095" lon="3.154836">
        <ele>10</ele>
        <time>1970-01-01T01:30:40.000Z</time>
      </trkpt>
      <trkpt lat="42.274119" lon="3.154884">
        <ele>10</ele>
        <time>1970-01-01T01:30:41.000Z</time>
      </trkpt>
      <trkpt lat="42.274143" lon="3.154932">
        <ele>10</ele>
        <time>1970-01-01T01:30:42.000Z</time>
      </trkpt>
      <trkpt lat="42.274166" lon="3.154979">
        <ele>10</ele>
        <time>1970-01-01T01:30:43.000Z</time>
      </trkpt>
      <trkpt lat="42.27419" lon="3.155027">
        <ele>10</ele>
        <time>1970-01-01T01:30:44.000Z</time>
      </trkpt>
      <trkpt lat="42.274245" lon="3.155128">
        <ele>10</ele>
        <time>1970-01-01T01:30:45.000Z</time>
      </trkpt>
      <trkpt lat="42.274271" lon="3.155176">
        <ele>10</ele>
        <time>1970-01-01T01:30:46.000Z</time>
      </trkpt>
      <trkpt lat="42.274298" lon="3.155224">
        <ele>10</ele>
        <time>1970-01-01T01:30:47.000Z</time>
      </trkpt>
      <trkpt lat="42.274324" lon="3.155272">
        <ele>10</ele>
        <time>1970-01-01T01:30:48.000Z</time>
      </trkpt>
      <trkpt lat="42.27435" lon="3.15532">
        <ele>10</ele>
        <time>1970-01-01T01:30:49.000Z</time>
      </trkpt>
      <trkpt lat="42.274376" lon="3.155368">
        <ele>10</ele>
        <time>1970-01-01T01:30:50.000Z</time>
      </trkpt>
      <trkpt lat="42.274402" lon="3.155416">
        <ele>10</ele>
        <time>1970-01-01T01:30:51.000Z</time>
      </trkpt>
      <trkpt lat="42.274429" lon="3.155464">
        <ele>10</ele>
        <time>1970-01-01T01:30:52.000Z</time>
      </trkpt>
      <trkpt lat="42.274455" lon="3.155512">
        <ele>10</ele>
        <time>1970-01-01T01:30:53.000Z</time>
      </trkpt>
      <trkpt lat="42.274481" lon="3.15556">
        <ele>10</ele>
        <time>1970-01-01T01:30:54.000Z</time>
      </trkpt>
      <trkpt lat="42.274537" lon="3.15566">
        <ele>10</ele>
        <time>1970-01-01T01:30:55.000Z</time>
      </trkpt>
      <trkpt lat="42.274564" lon="3.155707">
        <ele>10</ele>
        <time>1970-01-01T01:30:56.000Z</time>
      </trkpt>
      <trkpt lat="42.27459" lon="3.155753">
        <ele>10</ele>
        <time>1970-01-01T01:30:57.000Z</time>
      </trkpt>
      <trkpt lat="42.274617" lon="3.1558">
        <ele>10</ele>
        <time>1970-01-01T01:30:58.000Z</time>
      </trkpt>
      <trkpt lat="42.274643" lon="3.155847">
        <ele>10</ele>
        <time>1970-01-01T01:30:59.000Z</time>
      </trkpt>
      <trkpt lat="42.274669" lon="3.155894">
        <ele>10</ele>
        <time>1970-01-01T01:31:00.000Z</time>
      </trkpt>
      <trkpt lat="42.274696" lon="3.155941">
        <ele>10</ele>
        <time>1970-01-01T01:31:01.000Z</time>
      </trkpt>
      <trkpt lat="42.274722" lon="3.155987">
        <ele>10</ele>
        <time>1970-01-01T01:31:02.000Z</time>
      </trkpt>
      <trkpt lat="42.274749" lon="3.156034">
        <ele>10</ele>
        <time>1970-01-01T01:31:03.000Z</time>
      </trkpt>
      <trkpt lat="42.274775" lon="3.156081">
        <ele>11</ele>
        <time>1970-01-01T01:31:04.000Z</time>
      </trkpt>
      <trkpt lat="42.27483" lon="3.156171">
        <ele>11</ele>
        <time>1970-01-01T01:31:05.000Z</time>
      </trkpt>
      <trkpt lat="42.274857" lon="3.156213">
        <ele>11</ele>
        <time>1970-01-01T01:31:06.000Z</time>
      </trkpt>
      <trkpt lat="42.274884" lon="3.156255">
        <ele>11</ele>
        <time>1970-01-01T01:31:07.000Z</time>
      </trkpt>
      <trkpt lat="42.274911" lon="3.156297">
        <ele>11</ele>
        <time>1970-01-01T01:31:08.000Z</time>
      </trkpt>
      <trkpt lat="42.274939" lon="3.156339">
        <ele>11</ele>
        <time>1970-01-01T01:31:09.000Z</time>
      </trkpt>
      <trkpt lat="42.274966" lon="3.156382">
        <ele>11</ele>
        <time>1970-01-01T01:31:10.000Z</time>
      </trkpt>
      <trkpt lat="42.274993" lon="3.156424">
        <ele>11</ele>
        <time>1970-01-01T01:31:11.000Z</time>
      </trkpt>
      <trkpt lat="42.27502" lon="3.156466">
        <ele>11</ele>
        <time>1970-01-01T01:31:12.000Z</time>
      </trkpt>
      <trkpt lat="42.275047" lon="3.156508">
        <ele>11</ele>
        <time>1970-01-01T01:31:13.000Z</time>
      </trkpt>
      <trkpt lat="42.275074" lon="3.15655">
        <ele>11</ele>
        <time>1970-01-01T01:31:14.000Z</time>
      </trkpt>
      <trkpt lat="42.275127" lon="3.156636">
        <ele>11</ele>
        <time>1970-01-01T01:31:15.000Z</time>
      </trkpt>
      <trkpt lat="42.275151" lon="3.156679">
        <ele>11</ele>
        <time>1970-01-01T01:31:16.000Z</time>
      </trkpt>
      <trkpt lat="42.275175" lon="3.156721">
        <ele>11</ele>
        <time>1970-01-01T01:31:17.000Z</time>
      </trkpt>
      <trkpt lat="42.275199" lon="3.156763">
        <ele>11</ele>
        <time>1970-01-01T01:31:18.000Z</time>
      </trkpt>
      <trkpt lat="42.275223" lon="3.156805">
        <ele>11</ele>
        <time>1970-01-01T01:31:19.000Z</time>
      </trkpt>
      <trkpt lat="42.275246" lon="3.156848">
        <ele>11</ele>
        <time>1970-01-01T01:31:20.000Z</time>
      </trkpt>
      <trkpt lat="42.27527" lon="3.15689">
        <ele>11</ele>
        <time>1970-01-01T01:31:21.000Z</time>
      </trkpt>
      <trkpt lat="42.275294" lon="3.156932">
        <ele>11</ele>
        <time>1970-01-01T01:31:22.000Z</time>
      </trkpt>
      <trkpt lat="42.275318" lon="3.156975">
        <ele>11</ele>
        <time>1970-01-01T01:31:23.000Z</time>
      </trkpt>
      <trkpt lat="42.275342" lon="3.157017">
        <ele>12</ele>
        <time>1970-01-01T01:31:24.000Z</time>
      </trkpt>
      <trkpt lat="42.27539" lon="3.157103">
        <ele>12</ele>
        <time>1970-01-01T01:31:25.000Z</time>
      </trkpt>
      <trkpt lat="42.275413" lon="3.157143">
        <ele>12</ele>
        <time>1970-01-01T01:31:26.000Z</time>
      </trkpt>
      <trkpt lat="42.275435" lon="3.157183">
        <ele>12</ele>
        <time>1970-01-01T01:31:27.000Z</time>
      </trkpt>
      <trkpt lat="42.275457" lon="3.157223">
        <ele>12</ele>
        <time>1970-01-01T01:31:28.000Z</time>
      </trkpt>
      <trkpt lat="42.27548" lon="3.157263">
        <ele>12</ele>
        <time>1970-01-01T01:31:29.000Z</time>
      </trkpt>
      <trkpt lat="42.275502" lon="3.157303">
        <ele>12</ele>
        <time>1970-01-01T01:31:30.000Z</time>
      </trkpt>
      <trkpt lat="42.275524" lon="3.157343">
        <ele>12</ele>
        <time>1970-01-01T01:31:31.000Z</time>
      </trkpt>
      <trkpt lat="42.275546" lon="3.157383">
        <ele>12</ele>
        <time>1970-01-01T01:31:32.000Z</time>
      </trkpt>
      <trkpt lat="42.275569" lon="3.157423">
        <ele>12</ele>
        <time>1970-01-01T01:31:33.000Z</time>
      </trkpt>
      <trkpt lat="42.275591" lon="3.157463">
        <ele>14</ele>
        <time>1970-01-01T01:31:34.000Z</time>
      </trkpt>
      <trkpt lat="42.275638" lon="3.157549">
        <ele>14</ele>
        <time>1970-01-01T01:31:35.000Z</time>
      </trkpt>
      <trkpt lat="42.27566" lon="3.15759">
        <ele>14</ele>
        <time>1970-01-01T01:31:36.000Z</time>
      </trkpt>
      <trkpt lat="42.275683" lon="3.157632">
        <ele>14</ele>
        <time>1970-01-01T01:31:37.000Z</time>
      </trkpt>
      <trkpt lat="42.275706" lon="3.157673">
        <ele>14</ele>
        <time>1970-01-01T01:31:38.000Z</time>
      </trkpt>
      <trkpt lat="42.275729" lon="3.157714">
        <ele>14</ele>
        <time>1970-01-01T01:31:39.000Z</time>
      </trkpt>
      <trkpt lat="42.275751" lon="3.157755">
        <ele>14</ele>
        <time>1970-01-01T01:31:40.000Z</time>
      </trkpt>
      <trkpt lat="42.275774" lon="3.157796">
        <ele>14</ele>
        <time>1970-01-01T01:31:41.000Z</time>
      </trkpt>
      <trkpt lat="42.275797" lon="3.157837">
        <ele>14</ele>
        <time>1970-01-01T01:31:42.000Z</time>
      </trkpt>
      <trkpt lat="42.27582" lon="3.157879">
        <ele>14</ele>
        <time>1970-01-01T01:31:43.000Z</time>
      </trkpt>
      <trkpt lat="42.275842" lon="3.15792">
        <ele>14</ele>
        <time>1970-01-01T01:31:44.000Z</time>
      </trkpt>
      <trkpt lat="42.275865" lon="3.157961">
        <ele>13</ele>
        <time>1970-01-01T01:31:45.000Z</time>
      </trkpt>
      <trkpt lat="42.275911" lon="3.158047">
        <ele>13</ele>
        <time>1970-01-01T01:31:46.000Z</time>
      </trkpt>
      <trkpt lat="42.275931" lon="3.158089">
        <ele>13</ele>
        <time>1970-01-01T01:31:47.000Z</time>
      </trkpt>
      <trkpt lat="42.275952" lon="3.15813">
        <ele>13</ele>
        <time>1970-01-01T01:31:48.000Z</time>
      </trkpt>
      <trkpt lat="42.275972" lon="3.158171">
        <ele>13</ele>
        <time>1970-01-01T01:31:49.000Z</time>
      </trkpt>
      <trkpt lat="42.275993" lon="3.158213">
        <ele>13</ele>
        <time>1970-01-01T01:31:50.000Z</time>
      </trkpt>
      <trkpt lat="42.276013" lon="3.158254">
        <ele>13</ele>
        <time>1970-01-01T01:31:51.000Z</time>
      </trkpt>
      <trkpt lat="42.276034" lon="3.158295">
        <ele>13</ele>
        <time>1970-01-01T01:31:52.000Z</time>
      </trkpt>
      <trkpt lat="42.276054" lon="3.158337">
        <ele>13</ele>
        <time>1970-01-01T01:31:53.000Z</time>
      </trkpt>
      <trkpt lat="42.276075" lon="3.158378">
        <ele>15</ele>
        <time>1970-01-01T01:31:54.000Z</time>
      </trkpt>
      <trkpt lat="42.276113" lon="3.158468">
        <ele>15</ele>
        <time>1970-01-01T01:31:55.000Z</time>
      </trkpt>
      <trkpt lat="42.276127" lon="3.158513">
        <ele>15</ele>
        <time>1970-01-01T01:31:56.000Z</time>
      </trkpt>
      <trkpt lat="42.276142" lon="3.158557">
        <ele>15</ele>
        <time>1970-01-01T01:31:57.000Z</time>
      </trkpt>
      <trkpt lat="42.276156" lon="3.158602">
        <ele>15</ele>
        <time>1970-01-01T01:31:58.000Z</time>
      </trkpt>
      <trkpt lat="42.276171" lon="3.158646">
        <ele>15</ele>
        <time>1970-01-01T01:31:59.000Z</time>
      </trkpt>
      <trkpt lat="42.276186" lon="3.15869">
        <ele>15</ele>
        <time>1970-01-01T01:32:00.000Z</time>
      </trkpt>
      <trkpt lat="42.2762" lon="3.158735">
        <ele>15</ele>
        <time>1970-01-01T01:32:01.000Z</time>
      </trkpt>
      <trkpt lat="42.276215" lon="3.158779">
        <ele>15</ele>
        <time>1970-01-01T01:32:02.000Z</time>
      </trkpt>
      <trkpt lat="42.276229" lon="3.158824">
        <ele>15</ele>
        <time>1970-01-01T01:32:03.000Z</time>
      </trkpt>
      <trkpt lat="42.276244" lon="3.158868">
        <ele>15</ele>
        <time>1970-01-01T01:32:04.000Z</time>
      </trkpt>
      <trkpt lat="42.276248" lon="3.158966">
        <ele>15</ele>
        <time>1970-01-01T01:32:05.000Z</time>
      </trkpt>
      <trkpt lat="42.276256" lon="3.15901">
        <ele>15</ele>
        <time>1970-01-01T01:32:06.000Z</time>
      </trkpt>
      <trkpt lat="42.276263" lon="3.159054">
        <ele>15</ele>
        <time>1970-01-01T01:32:07.000Z</time>
      </trkpt>
      <trkpt lat="42.276271" lon="3.159098">
        <ele>15</ele>
        <time>1970-01-01T01:32:08.000Z</time>
      </trkpt>
      <trkpt lat="42.276279" lon="3.159142">
        <ele>15</ele>
        <time>1970-01-01T01:32:09.000Z</time>
      </trkpt>
      <trkpt lat="42.276287" lon="3.159187">
        <ele>15</ele>
        <time>1970-01-01T01:32:10.000Z</time>
      </trkpt>
      <trkpt lat="42.276295" lon="3.159231">
        <ele>15</ele>
        <time>1970-01-01T01:32:11.000Z</time>
      </trkpt>
      <trkpt lat="42.276302" lon="3.159275">
        <ele>15</ele>
        <time>1970-01-01T01:32:12.000Z</time>
      </trkpt>
      <trkpt lat="42.27631" lon="3.159319">
        <ele>15</ele>
        <time>1970-01-01T01:32:13.000Z</time>
      </trkpt>
      <trkpt lat="42.276318" lon="3.159363">
        <ele>16</ele>
        <time>1970-01-01T01:32:14.000Z</time>
      </trkpt>
      <trkpt lat="42.276384" lon="3.159413">
        <ele>16</ele>
        <time>1970-01-01T01:32:15.000Z</time>
      </trkpt>
      <trkpt lat="42.276419" lon="3.15943">
        <ele>16</ele>
        <time>1970-01-01T01:32:16.000Z</time>
      </trkpt>
      <trkpt lat="42.276453" lon="3.159446">
        <ele>16</ele>
        <time>1970-01-01T01:32:17.000Z</time>
      </trkpt>
      <trkpt lat="42.276487" lon="3.159463">
        <ele>16</ele>
        <time>1970-01-01T01:32:18.000Z</time>
      </trkpt>
      <trkpt lat="42.276522" lon="3.15948">
        <ele>16</ele>
        <time>1970-01-01T01:32:19.000Z</time>
      </trkpt>
      <trkpt lat="42.276556" lon="3.159497">
        <ele>16</ele>
        <time>1970-01-01T01:32:20.000Z</time>
      </trkpt>
      <trkpt lat="42.27659" lon="3.159514">
        <ele>16</ele>
        <time>1970-01-01T01:32:21.000Z</time>
      </trkpt>
      <trkpt lat="42.276624" lon="3.15953">
        <ele>16</ele>
        <time>1970-01-01T01:32:22.000Z</time>
      </trkpt>
      <trkpt lat="42.276659" lon="3.159547">
        <ele>16</ele>
        <time>1970-01-01T01:32:23.000Z</time>
      </trkpt>
      <trkpt lat="42.276693" lon="3.159564">
        <ele>17</ele>
        <time>1970-01-01T01:32:24.000Z</time>
      </trkpt>
      <trkpt lat="42.276749" lon="3.159629">
        <ele>17</ele>
        <time>1970-01-01T01:32:25.000Z</time>
      </trkpt>
      <trkpt lat="42.276772" lon="3.159665">
        <ele>17</ele>
        <time>1970-01-01T01:32:26.000Z</time>
      </trkpt>
      <trkpt lat="42.276794" lon="3.159702">
        <ele>17</ele>
        <time>1970-01-01T01:32:27.000Z</time>
      </trkpt>
      <trkpt lat="42.276817" lon="3.159739">
        <ele>17</ele>
        <time>1970-01-01T01:32:28.000Z</time>
      </trkpt>
      <trkpt lat="42.27684" lon="3.159775">
        <ele>17</ele>
        <time>1970-01-01T01:32:29.000Z</time>
      </trkpt>
      <trkpt lat="42.276863" lon="3.159812">
        <ele>17</ele>
        <time>1970-01-01T01:32:30.000Z</time>
      </trkpt>
      <trkpt lat="42.276886" lon="3.159849">
        <ele>17</ele>
        <time>1970-01-01T01:32:31.000Z</time>
      </trkpt>
      <trkpt lat="42.276908" lon="3.159886">
        <ele>17</ele>
        <time>1970-01-01T01:32:32.000Z</time>
      </trkpt>
      <trkpt lat="42.276931" lon="3.159922">
        <ele>17</ele>
        <time>1970-01-01T01:32:33.000Z</time>
      </trkpt>
      <trkpt lat="42.276954" lon="3.159959">
        <ele>19</ele>
        <time>1970-01-01T01:32:34.000Z</time>
      </trkpt>
      <trkpt lat="42.277001" lon="3.160039">
        <ele>19</ele>
        <time>1970-01-01T01:32:35.000Z</time>
      </trkpt>
      <trkpt lat="42.277023" lon="3.160077">
        <ele>19</ele>
        <time>1970-01-01T01:32:36.000Z</time>
      </trkpt>
      <trkpt lat="42.277045" lon="3.160116">
        <ele>19</ele>
        <time>1970-01-01T01:32:37.000Z</time>
      </trkpt>
      <trkpt lat="42.277067" lon="3.160154">
        <ele>19</ele>
        <time>1970-01-01T01:32:38.000Z</time>
      </trkpt>
      <trkpt lat="42.277089" lon="3.160193">
        <ele>19</ele>
        <time>1970-01-01T01:32:39.000Z</time>
      </trkpt>
      <trkpt lat="42.277111" lon="3.160232">
        <ele>19</ele>
        <time>1970-01-01T01:32:40.000Z</time>
      </trkpt>
      <trkpt lat="42.277133" lon="3.16027">
        <ele>19</ele>
        <time>1970-01-01T01:32:41.000Z</time>
      </trkpt>
      <trkpt lat="42.277155" lon="3.160309">
        <ele>19</ele>
        <time>1970-01-01T01:32:42.000Z</time>
      </trkpt>
      <trkpt lat="42.277177" lon="3.160347">
        <ele>19</ele>
        <time>1970-01-01T01:32:43.000Z</time>
      </trkpt>
      <trkpt lat="42.277199" lon="3.160386">
        <ele>19</ele>
        <time>1970-01-01T01:32:44.000Z</time>
      </trkpt>
      <trkpt lat="42.277246" lon="3.160471">
        <ele>19</ele>
        <time>1970-01-01T01:32:45.000Z</time>
      </trkpt>
      <trkpt lat="42.277268" lon="3.160511">
        <ele>19</ele>
        <time>1970-01-01T01:32:46.000Z</time>
      </trkpt>
      <trkpt lat="42.27729" lon="3.160552">
        <ele>19</ele>
        <time>1970-01-01T01:32:47.000Z</time>
      </trkpt>
      <trkpt lat="42.277312" lon="3.160592">
        <ele>19</ele>
        <time>1970-01-01T01:32:48.000Z</time>
      </trkpt>
      <trkpt lat="42.277334" lon="3.160633">
        <ele>19</ele>
        <time>1970-01-01T01:32:49.000Z</time>
      </trkpt>
      <trkpt lat="42.277357" lon="3.160673">
        <ele>19</ele>
        <time>1970-01-01T01:32:50.000Z</time>
      </trkpt>
      <trkpt lat="42.277379" lon="3.160714">
        <ele>19</ele>
        <time>1970-01-01T01:32:51.000Z</time>
      </trkpt>
      <trkpt lat="42.277401" lon="3.160754">
        <ele>19</ele>
        <time>1970-01-01T01:32:52.000Z</time>
      </trkpt>
      <trkpt lat="42.277423" lon="3.160795">
        <ele>19</ele>
        <time>1970-01-01T01:32:53.000Z</time>
      </trkpt>
      <trkpt lat="42.277445" lon="3.160835">
        <ele>19</ele>
        <time>1970-01-01T01:32:54.000Z</time>
      </trkpt>
      <trkpt lat="42.277467" lon="3.160876">
        <ele>20</ele>
        <time>1970-01-01T01:32:55.000Z</time>
      </trkpt>
      <trkpt lat="42.277514" lon="3.16096">
        <ele>20</ele>
        <time>1970-01-01T01:32:56.000Z</time>
      </trkpt>
      <trkpt lat="42.277536" lon="3.161">
        <ele>20</ele>
        <time>1970-01-01T01:32:57.000Z</time>
      </trkpt>
      <trkpt lat="42.277558" lon="3.16104">
        <ele>20</ele>
        <time>1970-01-01T01:32:58.000Z</time>
      </trkpt>
      <trkpt lat="42.27758" lon="3.16108">
        <ele>20</ele>
        <time>1970-01-01T01:32:59.000Z</time>
      </trkpt>
      <trkpt lat="42.277601" lon="3.161121">
        <ele>20</ele>
        <time>1970-01-01T01:33:00.000Z</time>
      </trkpt>
      <trkpt lat="42.277623" lon="3.161161">
        <ele>20</ele>
        <time>1970-01-01T01:33:01.000Z</time>
      </trkpt>
      <trkpt lat="42.277645" lon="3.161201">
        <ele>20</ele>
        <time>1970-01-01T01:33:02.000Z</time>
      </trkpt>
      <trkpt lat="42.277667" lon="3.161241">
        <ele>20</ele>
        <time>1970-01-01T01:33:03.000Z</time>
      </trkpt>
      <trkpt lat="42.277689" lon="3.161281">
        <ele>21</ele>
        <time>1970-01-01T01:33:04.000Z</time>
      </trkpt>
      <trkpt lat="42.277737" lon="3.161367">
        <ele>21</ele>
        <time>1970-01-01T01:33:05.000Z</time>
      </trkpt>
      <trkpt lat="42.277759" lon="3.161408">
        <ele>21</ele>
        <time>1970-01-01T01:33:06.000Z</time>
      </trkpt>
      <trkpt lat="42.277782" lon="3.16145">
        <ele>21</ele>
        <time>1970-01-01T01:33:07.000Z</time>
      </trkpt>
      <trkpt lat="42.277804" lon="3.161491">
        <ele>21</ele>
        <time>1970-01-01T01:33:08.000Z</time>
      </trkpt>
      <trkpt lat="42.277827" lon="3.161532">
        <ele>21</ele>
        <time>1970-01-01T01:33:09.000Z</time>
      </trkpt>
      <trkpt lat="42.27785" lon="3.161573">
        <ele>21</ele>
        <time>1970-01-01T01:33:10.000Z</time>
      </trkpt>
      <trkpt lat="42.277872" lon="3.161614">
        <ele>21</ele>
        <time>1970-01-01T01:33:11.000Z</time>
      </trkpt>
      <trkpt lat="42.277895" lon="3.161656">
        <ele>21</ele>
        <time>1970-01-01T01:33:12.000Z</time>
      </trkpt>
      <trkpt lat="42.277917" lon="3.161697">
        <ele>21</ele>
        <time>1970-01-01T01:33:13.000Z</time>
      </trkpt>
      <trkpt lat="42.27794" lon="3.161738">
        <ele>21</ele>
        <time>1970-01-01T01:33:14.000Z</time>
      </trkpt>
      <trkpt lat="42.27799" lon="3.161829">
        <ele>21</ele>
        <time>1970-01-01T01:33:15.000Z</time>
      </trkpt>
      <trkpt lat="42.278013" lon="3.161873">
        <ele>21</ele>
        <time>1970-01-01T01:33:16.000Z</time>
      </trkpt>
      <trkpt lat="42.278037" lon="3.161917">
        <ele>21</ele>
        <time>1970-01-01T01:33:17.000Z</time>
      </trkpt>
      <trkpt lat="42.278061" lon="3.161961">
        <ele>21</ele>
        <time>1970-01-01T01:33:18.000Z</time>
      </trkpt>
      <trkpt lat="42.278085" lon="3.162005">
        <ele>21</ele>
        <time>1970-01-01T01:33:19.000Z</time>
      </trkpt>
      <trkpt lat="42.278108" lon="3.162049">
        <ele>21</ele>
        <time>1970-01-01T01:33:20.000Z</time>
      </trkpt>
      <trkpt lat="42.278132" lon="3.162093">
        <ele>21</ele>
        <time>1970-01-01T01:33:21.000Z</time>
      </trkpt>
      <trkpt lat="42.278156" lon="3.162137">
        <ele>21</ele>
        <time>1970-01-01T01:33:22.000Z</time>
      </trkpt>
      <trkpt lat="42.278179" lon="3.162181">
        <ele>21</ele>
        <time>1970-01-01T01:33:23.000Z</time>
      </trkpt>
      <trkpt lat="42.278203" lon="3.162225">
        <ele>22</ele>
        <time>1970-01-01T01:33:24.000Z</time>
      </trkpt>
      <trkpt lat="42.278252" lon="3.162315">
        <ele>22</ele>
        <time>1970-01-01T01:33:25.000Z</time>
      </trkpt>
      <trkpt lat="42.278275" lon="3.162357">
        <ele>22</ele>
        <time>1970-01-01T01:33:26.000Z</time>
      </trkpt>
      <trkpt lat="42.278297" lon="3.162398">
        <ele>22</ele>
        <time>1970-01-01T01:33:27.000Z</time>
      </trkpt>
      <trkpt lat="42.27832" lon="3.162439">
        <ele>22</ele>
        <time>1970-01-01T01:33:28.000Z</time>
      </trkpt>
      <trkpt lat="42.278343" lon="3.16248">
        <ele>22</ele>
        <time>1970-01-01T01:33:29.000Z</time>
      </trkpt>
      <trkpt lat="42.278366" lon="3.162522">
        <ele>22</ele>
        <time>1970-01-01T01:33:30.000Z</time>
      </trkpt>
      <trkpt lat="42.278389" lon="3.162563">
        <ele>22</ele>
        <time>1970-01-01T01:33:31.000Z</time>
      </trkpt>
      <trkpt lat="42.278411" lon="3.162604">
        <ele>22</ele>
        <time>1970-01-01T01:33:32.000Z</time>
      </trkpt>
      <trkpt lat="42.278434" lon="3.162646">
        <ele>22</ele>
        <time>1970-01-01T01:33:33.000Z</time>
      </trkpt>
      <trkpt lat="42.278457" lon="3.162687">
        <ele>23</ele>
        <time>1970-01-01T01:33:34.000Z</time>
      </trkpt>
      <trkpt lat="42.278506" lon="3.162775">
        <ele>23</ele>
        <time>1970-01-01T01:33:35.000Z</time>
      </trkpt>
      <trkpt lat="42.278529" lon="3.162818">
        <ele>23</ele>
        <time>1970-01-01T01:33:36.000Z</time>
      </trkpt>
      <trkpt lat="42.278553" lon="3.162861">
        <ele>23</ele>
        <time>1970-01-01T01:33:37.000Z</time>
      </trkpt>
      <trkpt lat="42.278577" lon="3.162904">
        <ele>23</ele>
        <time>1970-01-01T01:33:38.000Z</time>
      </trkpt>
      <trkpt lat="42.2786" lon="3.162947">
        <ele>23</ele>
        <time>1970-01-01T01:33:39.000Z</time>
      </trkpt>
      <trkpt lat="42.278624" lon="3.162991">
        <ele>23</ele>
        <time>1970-01-01T01:33:40.000Z</time>
      </trkpt>
      <trkpt lat="42.278647" lon="3.163034">
        <ele>23</ele>
        <time>1970-01-01T01:33:41.000Z</time>
      </trkpt>
      <trkpt lat="42.278671" lon="3.163077">
        <ele>23</ele>
        <time>1970-01-01T01:33:42.000Z</time>
      </trkpt>
      <trkpt lat="42.278695" lon="3.16312">
        <ele>23</ele>
        <time>1970-01-01T01:33:43.000Z</time>
      </trkpt>
      <trkpt lat="42.278718" lon="3.163163">
        <ele>23</ele>
        <time>1970-01-01T01:33:44.000Z</time>
      </trkpt>
      <trkpt lat="42.278742" lon="3.163206">
        <ele>22</ele>
        <time>1970-01-01T01:33:45.000Z</time>
      </trkpt>
      <trkpt lat="42.278795" lon="3.163302">
        <ele>22</ele>
        <time>1970-01-01T01:33:46.000Z</time>
      </trkpt>
      <trkpt lat="42.27882" lon="3.163347">
        <ele>22</ele>
        <time>1970-01-01T01:33:47.000Z</time>
      </trkpt>
      <trkpt lat="42.278845" lon="3.163392">
        <ele>22</ele>
        <time>1970-01-01T01:33:48.000Z</time>
      </trkpt>
      <trkpt lat="42.27887" lon="3.163437">
        <ele>22</ele>
        <time>1970-01-01T01:33:49.000Z</time>
      </trkpt>
      <trkpt lat="42.278894" lon="3.163481">
        <ele>22</ele>
        <time>1970-01-01T01:33:50.000Z</time>
      </trkpt>
      <trkpt lat="42.278919" lon="3.163526">
        <ele>22</ele>
        <time>1970-01-01T01:33:51.000Z</time>
      </trkpt>
      <trkpt lat="42.278944" lon="3.163571">
        <ele>22</ele>
        <time>1970-01-01T01:33:52.000Z</time>
      </trkpt>
      <trkpt lat="42.278969" lon="3.163616">
        <ele>22</ele>
        <time>1970-01-01T01:33:53.000Z</time>
      </trkpt>
      <trkpt lat="42.278994" lon="3.163661">
        <ele>23</ele>
        <time>1970-01-01T01:33:54.000Z</time>
      </trkpt>
      <trkpt lat="42.279045" lon="3.163755">
        <ele>23</ele>
        <time>1970-01-01T01:33:55.000Z</time>
      </trkpt>
      <trkpt lat="42.279069" lon="3.1638">
        <ele>23</ele>
        <time>1970-01-01T01:33:56.000Z</time>
      </trkpt>
      <trkpt lat="42.279094" lon="3.163844">
        <ele>23</ele>
        <time>1970-01-01T01:33:57.000Z</time>
      </trkpt>
      <trkpt lat="42.279118" lon="3.163889">
        <ele>23</ele>
        <time>1970-01-01T01:33:58.000Z</time>
      </trkpt>
      <trkpt lat="42.279143" lon="3.163933">
        <ele>23</ele>
        <time>1970-01-01T01:33:59.000Z</time>
      </trkpt>
      <trkpt lat="42.279168" lon="3.163977">
        <ele>23</ele>
        <time>1970-01-01T01:34:00.000Z</time>
      </trkpt>
      <trkpt lat="42.279192" lon="3.164022">
        <ele>23</ele>
        <time>1970-01-01T01:34:01.000Z</time>
      </trkpt>
      <trkpt lat="42.279217" lon="3.164066">
        <ele>23</ele>
        <time>1970-01-01T01:34:02.000Z</time>
      </trkpt>
      <trkpt lat="42.279241" lon="3.164111">
        <ele>23</ele>
        <time>1970-01-01T01:34:03.000Z</time>
      </trkpt>
      <trkpt lat="42.279266" lon="3.164155">
        <ele>23</ele>
        <time>1970-01-01T01:34:04.000Z</time>
      </trkpt>
      <trkpt lat="42.279318" lon="3.164249">
        <ele>23</ele>
        <time>1970-01-01T01:34:05.000Z</time>
      </trkpt>
      <trkpt lat="42.279343" lon="3.164294">
        <ele>23</ele>
        <time>1970-01-01T01:34:06.000Z</time>
      </trkpt>
      <trkpt lat="42.279367" lon="3.164338">
        <ele>23</ele>
        <time>1970-01-01T01:34:07.000Z</time>
      </trkpt>
      <trkpt lat="42.279391" lon="3.164382">
        <ele>23</ele>
        <time>1970-01-01T01:34:08.000Z</time>
      </trkpt>
      <trkpt lat="42.279416" lon="3.164426">
        <ele>23</ele>
        <time>1970-01-01T01:34:09.000Z</time>
      </trkpt>
      <trkpt lat="42.27944" lon="3.164471">
        <ele>23</ele>
        <time>1970-01-01T01:34:10.000Z</time>
      </trkpt>
      <trkpt lat="42.279464" lon="3.164515">
        <ele>23</ele>
        <time>1970-01-01T01:34:11.000Z</time>
      </trkpt>
      <trkpt lat="42.279488" lon="3.164559">
        <ele>23</ele>
        <time>1970-01-01T01:34:12.000Z</time>
      </trkpt>
      <trkpt lat="42.279513" lon="3.164604">
        <ele>23</ele>
        <time>1970-01-01T01:34:13.000Z</time>
      </trkpt>
      <trkpt lat="42.279537" lon="3.164648">
        <ele>24</ele>
        <time>1970-01-01T01:34:14.000Z</time>
      </trkpt>
      <trkpt lat="42.279584" lon="3.164735">
        <ele>24</ele>
        <time>1970-01-01T01:34:15.000Z</time>
      </trkpt>
      <trkpt lat="42.279606" lon="3.164774">
        <ele>24</ele>
        <time>1970-01-01T01:34:16.000Z</time>
      </trkpt>
      <trkpt lat="42.279628" lon="3.164814">
        <ele>24</ele>
        <time>1970-01-01T01:34:17.000Z</time>
      </trkpt>
      <trkpt lat="42.27965" lon="3.164854">
        <ele>24</ele>
        <time>1970-01-01T01:34:18.000Z</time>
      </trkpt>
      <trkpt lat="42.279672" lon="3.164893">
        <ele>24</ele>
        <time>1970-01-01T01:34:19.000Z</time>
      </trkpt>
      <trkpt lat="42.279694" lon="3.164933">
        <ele>24</ele>
        <time>1970-01-01T01:34:20.000Z</time>
      </trkpt>
      <trkpt lat="42.279716" lon="3.164973">
        <ele>24</ele>
        <time>1970-01-01T01:34:21.000Z</time>
      </trkpt>
      <trkpt lat="42.279738" lon="3.165013">
        <ele>24</ele>
        <time>1970-01-01T01:34:22.000Z</time>
      </trkpt>
      <trkpt lat="42.27976" lon="3.165052">
        <ele>24</ele>
        <time>1970-01-01T01:34:23.000Z</time>
      </trkpt>
      <trkpt lat="42.279782" lon="3.165092">
        <ele>24</ele>
        <time>1970-01-01T01:34:24.000Z</time>
      </trkpt>
      <trkpt lat="42.27983" lon="3.16518">
        <ele>24</ele>
        <time>1970-01-01T01:34:25.000Z</time>
      </trkpt>
      <trkpt lat="42.279853" lon="3.165222">
        <ele>24</ele>
        <time>1970-01-01T01:34:26.000Z</time>
      </trkpt>
      <trkpt lat="42.279876" lon="3.165263">
        <ele>24</ele>
        <time>1970-01-01T01:34:27.000Z</time>
      </trkpt>
      <trkpt lat="42.279899" lon="3.165305">
        <ele>24</ele>
        <time>1970-01-01T01:34:28.000Z</time>
      </trkpt>
      <trkpt lat="42.279922" lon="3.165346">
        <ele>24</ele>
        <time>1970-01-01T01:34:29.000Z</time>
      </trkpt>
      <trkpt lat="42.279945" lon="3.165387">
        <ele>24</ele>
        <time>1970-01-01T01:34:30.000Z</time>
      </trkpt>
      <trkpt lat="42.279968" lon="3.165429">
        <ele>24</ele>
        <time>1970-01-01T01:34:31.000Z</time>
      </trkpt>
      <trkpt lat="42.279991" lon="3.16547">
        <ele>24</ele>
        <time>1970-01-01T01:34:32.000Z</time>
      </trkpt>
      <trkpt lat="42.280014" lon="3.165512">
        <ele>24</ele>
        <time>1970-01-01T01:34:33.000Z</time>
      </trkpt>
      <trkpt lat="42.280037" lon="3.165553">
        <ele>25</ele>
        <time>1970-01-01T01:34:34.000Z</time>
      </trkpt>
      <trkpt lat="42.280085" lon="3.165641">
        <ele>25</ele>
        <time>1970-01-01T01:34:35.000Z</time>
      </trkpt>
      <trkpt lat="42.280108" lon="3.165683">
        <ele>25</ele>
        <time>1970-01-01T01:34:36.000Z</time>
      </trkpt>
      <trkpt lat="42.280131" lon="3.165724">
        <ele>25</ele>
        <time>1970-01-01T01:34:37.000Z</time>
      </trkpt>
      <trkpt lat="42.280154" lon="3.165766">
        <ele>25</ele>
        <time>1970-01-01T01:34:38.000Z</time>
      </trkpt>
      <trkpt lat="42.280177" lon="3.165807">
        <ele>25</ele>
        <time>1970-01-01T01:34:39.000Z</time>
      </trkpt>
      <trkpt lat="42.280199" lon="3.165849">
        <ele>25</ele>
        <time>1970-01-01T01:34:40.000Z</time>
      </trkpt>
      <trkpt lat="42.280222" lon="3.16589">
        <ele>25</ele>
        <time>1970-01-01T01:34:41.000Z</time>
      </trkpt>
      <trkpt lat="42.280245" lon="3.165932">
        <ele>25</ele>
        <time>1970-01-01T01:34:42.000Z</time>
      </trkpt>
      <trkpt lat="42.280268" lon="3.165973">
        <ele>25</ele>
        <time>1970-01-01T01:34:43.000Z</time>
      </trkpt>
      <trkpt lat="42.280291" lon="3.166015">
        <ele>25</ele>
        <time>1970-01-01T01:34:44.000Z</time>
      </trkpt>
      <trkpt lat="42.280338" lon="3.166105">
        <ele>25</ele>
        <time>1970-01-01T01:34:45.000Z</time>
      </trkpt>
      <trkpt lat="42.280359" lon="3.166149">
        <ele>25</ele>
        <time>1970-01-01T01:34:46.000Z</time>
      </trkpt>
      <trkpt lat="42.28038" lon="3.166193">
        <ele>25</ele>
        <time>1970-01-01T01:34:47.000Z</time>
      </trkpt>
      <trkpt lat="42.280401" lon="3.166237">
        <ele>25</ele>
        <time>1970-01-01T01:34:48.000Z</time>
      </trkpt>
      <trkpt lat="42.280422" lon="3.166281">
        <ele>25</ele>
        <time>1970-01-01T01:34:49.000Z</time>
      </trkpt>
      <trkpt lat="42.280443" lon="3.166326">
        <ele>25</ele>
        <time>1970-01-01T01:34:50.000Z</time>
      </trkpt>
      <trkpt lat="42.280464" lon="3.16637">
        <ele>25</ele>
        <time>1970-01-01T01:34:51.000Z</time>
      </trkpt>
      <trkpt lat="42.280485" lon="3.166414">
        <ele>25</ele>
        <time>1970-01-01T01:34:52.000Z</time>
      </trkpt>
      <trkpt lat="42.280506" lon="3.166458">
        <ele>25</ele>
        <time>1970-01-01T01:34:53.000Z</time>
      </trkpt>
      <trkpt lat="42.280527" lon="3.166502">
        <ele>27</ele>
        <time>1970-01-01T01:34:54.000Z</time>
      </trkpt>
      <trkpt lat="42.280572" lon="3.166597">
        <ele>27</ele>
        <time>1970-01-01T01:34:55.000Z</time>
      </trkpt>
      <trkpt lat="42.280595" lon="3.166641">
        <ele>27</ele>
        <time>1970-01-01T01:34:56.000Z</time>
      </trkpt>
      <trkpt lat="42.280617" lon="3.166685">
        <ele>27</ele>
        <time>1970-01-01T01:34:57.000Z</time>
      </trkpt>
      <trkpt lat="42.28064" lon="3.166729">
        <ele>27</ele>
        <time>1970-01-01T01:34:58.000Z</time>
      </trkpt>
      <trkpt lat="42.280662" lon="3.166773">
        <ele>27</ele>
        <time>1970-01-01T01:34:59.000Z</time>
      </trkpt>
      <trkpt lat="42.280685" lon="3.166817">
        <ele>27</ele>
        <time>1970-01-01T01:35:00.000Z</time>
      </trkpt>
      <trkpt lat="42.280707" lon="3.166861">
        <ele>27</ele>
        <time>1970-01-01T01:35:01.000Z</time>
      </trkpt>
      <trkpt lat="42.28073" lon="3.166905">
        <ele>27</ele>
        <time>1970-01-01T01:35:02.000Z</time>
      </trkpt>
      <trkpt lat="42.280752" lon="3.166949">
        <ele>27</ele>
        <time>1970-01-01T01:35:03.000Z</time>
      </trkpt>
      <trkpt lat="42.280775" lon="3.166993">
        <ele>27</ele>
        <time>1970-01-01T01:35:04.000Z</time>
      </trkpt>
      <trkpt lat="42.280797" lon="3.167037">
        <ele>27</ele>
        <time>1970-01-01T01:35:05.000Z</time>
      </trkpt>
      <trkpt lat="42.280845" lon="3.167126">
        <ele>27</ele>
        <time>1970-01-01T01:35:06.000Z</time>
      </trkpt>
      <trkpt lat="42.280868" lon="3.167168">
        <ele>27</ele>
        <time>1970-01-01T01:35:07.000Z</time>
      </trkpt>
      <trkpt lat="42.280891" lon="3.167209">
        <ele>27</ele>
        <time>1970-01-01T01:35:08.000Z</time>
      </trkpt>
      <trkpt lat="42.280914" lon="3.16725">
        <ele>27</ele>
        <time>1970-01-01T01:35:09.000Z</time>
      </trkpt>
      <trkpt lat="42.280937" lon="3.167292">
        <ele>27</ele>
        <time>1970-01-01T01:35:10.000Z</time>
      </trkpt>
      <trkpt lat="42.28096" lon="3.167333">
        <ele>27</ele>
        <time>1970-01-01T01:35:11.000Z</time>
      </trkpt>
      <trkpt lat="42.280983" lon="3.167374">
        <ele>27</ele>
        <time>1970-01-01T01:35:12.000Z</time>
      </trkpt>
      <trkpt lat="42.281006" lon="3.167416">
        <ele>27</ele>
        <time>1970-01-01T01:35:13.000Z</time>
      </trkpt>
      <trkpt lat="42.281029" lon="3.167457">
        <ele>28</ele>
        <time>1970-01-01T01:35:14.000Z</time>
      </trkpt>
      <trkpt lat="42.281078" lon="3.167545">
        <ele>28</ele>
        <time>1970-01-01T01:35:15.000Z</time>
      </trkpt>
      <trkpt lat="42.281102" lon="3.167588">
        <ele>28</ele>
        <time>1970-01-01T01:35:16.000Z</time>
      </trkpt>
      <trkpt lat="42.281125" lon="3.16763">
        <ele>28</ele>
        <time>1970-01-01T01:35:17.000Z</time>
      </trkpt>
      <trkpt lat="42.281148" lon="3.167672">
        <ele>28</ele>
        <time>1970-01-01T01:35:18.000Z</time>
      </trkpt>
      <trkpt lat="42.281172" lon="3.167714">
        <ele>28</ele>
        <time>1970-01-01T01:35:19.000Z</time>
      </trkpt>
      <trkpt lat="42.281195" lon="3.167757">
        <ele>28</ele>
        <time>1970-01-01T01:35:20.000Z</time>
      </trkpt>
      <trkpt lat="42.281218" lon="3.167799">
        <ele>28</ele>
        <time>1970-01-01T01:35:21.000Z</time>
      </trkpt>
      <trkpt lat="42.281241" lon="3.167841">
        <ele>28</ele>
        <time>1970-01-01T01:35:22.000Z</time>
      </trkpt>
      <trkpt lat="42.281265" lon="3.167884">
        <ele>28</ele>
        <time>1970-01-01T01:35:23.000Z</time>
      </trkpt>
      <trkpt lat="42.281288" lon="3.167926">
        <ele>30</ele>
        <time>1970-01-01T01:35:24.000Z</time>
      </trkpt>
      <trkpt lat="42.281337" lon="3.168016">
        <ele>30</ele>
        <time>1970-01-01T01:35:25.000Z</time>
      </trkpt>
      <trkpt lat="42.28136" lon="3.168058">
        <ele>30</ele>
        <time>1970-01-01T01:35:26.000Z</time>
      </trkpt>
      <trkpt lat="42.281383" lon="3.1681">
        <ele>30</ele>
        <time>1970-01-01T01:35:27.000Z</time>
      </trkpt>
      <trkpt lat="42.281406" lon="3.168142">
        <ele>30</ele>
        <time>1970-01-01T01:35:28.000Z</time>
      </trkpt>
      <trkpt lat="42.28143" lon="3.168183">
        <ele>30</ele>
        <time>1970-01-01T01:35:29.000Z</time>
      </trkpt>
      <trkpt lat="42.281453" lon="3.168225">
        <ele>30</ele>
        <time>1970-01-01T01:35:30.000Z</time>
      </trkpt>
      <trkpt lat="42.281476" lon="3.168267">
        <ele>30</ele>
        <time>1970-01-01T01:35:31.000Z</time>
      </trkpt>
      <trkpt lat="42.281499" lon="3.168309">
        <ele>30</ele>
        <time>1970-01-01T01:35:32.000Z</time>
      </trkpt>
      <trkpt lat="42.281522" lon="3.168351">
        <ele>30</ele>
        <time>1970-01-01T01:35:33.000Z</time>
      </trkpt>
      <trkpt lat="42.281545" lon="3.168393">
        <ele>30</ele>
        <time>1970-01-01T01:35:34.000Z</time>
      </trkpt>
      <trkpt lat="42.281592" lon="3.168478">
        <ele>30</ele>
        <time>1970-01-01T01:35:35.000Z</time>
      </trkpt>
      <trkpt lat="42.281614" lon="3.168518">
        <ele>30</ele>
        <time>1970-01-01T01:35:36.000Z</time>
      </trkpt>
      <trkpt lat="42.281637" lon="3.168558">
        <ele>30</ele>
        <time>1970-01-01T01:35:37.000Z</time>
      </trkpt>
      <trkpt lat="42.281659" lon="3.168598">
        <ele>30</ele>
        <time>1970-01-01T01:35:38.000Z</time>
      </trkpt>
      <trkpt lat="42.281681" lon="3.168638">
        <ele>30</ele>
        <time>1970-01-01T01:35:39.000Z</time>
      </trkpt>
      <trkpt lat="42.281703" lon="3.168678">
        <ele>30</ele>
        <time>1970-01-01T01:35:40.000Z</time>
      </trkpt>
      <trkpt lat="42.281725" lon="3.168718">
        <ele>30</ele>
        <time>1970-01-01T01:35:41.000Z</time>
      </trkpt>
      <trkpt lat="42.281748" lon="3.168758">
        <ele>30</ele>
        <time>1970-01-01T01:35:42.000Z</time>
      </trkpt>
      <trkpt lat="42.28177" lon="3.168798">
        <ele>30</ele>
        <time>1970-01-01T01:35:43.000Z</time>
      </trkpt>
      <trkpt lat="42.281792" lon="3.168838">
        <ele>31</ele>
        <time>1970-01-01T01:35:44.000Z</time>
      </trkpt>
      <trkpt lat="42.281841" lon="3.168922">
        <ele>31</ele>
        <time>1970-01-01T01:35:45.000Z</time>
      </trkpt>
      <trkpt lat="42.281865" lon="3.168961">
        <ele>31</ele>
        <time>1970-01-01T01:35:46.000Z</time>
      </trkpt>
      <trkpt lat="42.281888" lon="3.169001">
        <ele>31</ele>
        <time>1970-01-01T01:35:47.000Z</time>
      </trkpt>
      <trkpt lat="42.281912" lon="3.16904">
        <ele>31</ele>
        <time>1970-01-01T01:35:48.000Z</time>
      </trkpt>
      <trkpt lat="42.281936" lon="3.16908">
        <ele>31</ele>
        <time>1970-01-01T01:35:49.000Z</time>
      </trkpt>
      <trkpt lat="42.28196" lon="3.16912">
        <ele>31</ele>
        <time>1970-01-01T01:35:50.000Z</time>
      </trkpt>
      <trkpt lat="42.281984" lon="3.169159">
        <ele>31</ele>
        <time>1970-01-01T01:35:51.000Z</time>
      </trkpt>
      <trkpt lat="42.282007" lon="3.169199">
        <ele>31</ele>
        <time>1970-01-01T01:35:52.000Z</time>
      </trkpt>
      <trkpt lat="42.282031" lon="3.169238">
        <ele>31</ele>
        <time>1970-01-01T01:35:53.000Z</time>
      </trkpt>
      <trkpt lat="42.282055" lon="3.169278">
        <ele>31</ele>
        <time>1970-01-01T01:35:54.000Z</time>
      </trkpt>
      <trkpt lat="42.282107" lon="3.169363">
        <ele>31</ele>
        <time>1970-01-01T01:35:55.000Z</time>
      </trkpt>
      <trkpt lat="42.282131" lon="3.169405">
        <ele>31</ele>
        <time>1970-01-01T01:35:56.000Z</time>
      </trkpt>
      <trkpt lat="42.282155" lon="3.169446">
        <ele>31</ele>
        <time>1970-01-01T01:35:57.000Z</time>
      </trkpt>
      <trkpt lat="42.282179" lon="3.169487">
        <ele>31</ele>
        <time>1970-01-01T01:35:58.000Z</time>
      </trkpt>
      <trkpt lat="42.282203" lon="3.169528">
        <ele>31</ele>
        <time>1970-01-01T01:35:59.000Z</time>
      </trkpt>
      <trkpt lat="42.282226" lon="3.16957">
        <ele>31</ele>
        <time>1970-01-01T01:36:00.000Z</time>
      </trkpt>
      <trkpt lat="42.28225" lon="3.169611">
        <ele>31</ele>
        <time>1970-01-01T01:36:01.000Z</time>
      </trkpt>
      <trkpt lat="42.282274" lon="3.169652">
        <ele>31</ele>
        <time>1970-01-01T01:36:02.000Z</time>
      </trkpt>
      <trkpt lat="42.282298" lon="3.169693">
        <ele>31</ele>
        <time>1970-01-01T01:36:03.000Z</time>
      </trkpt>
      <trkpt lat="42.282322" lon="3.169735">
        <ele>31</ele>
        <time>1970-01-01T01:36:04.000Z</time>
      </trkpt>
      <trkpt lat="42.282346" lon="3.169776">
        <ele>33</ele>
        <time>1970-01-01T01:36:05.000Z</time>
      </trkpt>
      <trkpt lat="42.282393" lon="3.169864">
        <ele>33</ele>
        <time>1970-01-01T01:36:06.000Z</time>
      </trkpt>
      <trkpt lat="42.282415" lon="3.169905">
        <ele>33</ele>
        <time>1970-01-01T01:36:07.000Z</time>
      </trkpt>
      <trkpt lat="42.282438" lon="3.169946">
        <ele>33</ele>
        <time>1970-01-01T01:36:08.000Z</time>
      </trkpt>
      <trkpt lat="42.28246" lon="3.169987">
        <ele>33</ele>
        <time>1970-01-01T01:36:09.000Z</time>
      </trkpt>
      <trkpt lat="42.282483" lon="3.170027">
        <ele>33</ele>
        <time>1970-01-01T01:36:10.000Z</time>
      </trkpt>
      <trkpt lat="42.282505" lon="3.170068">
        <ele>33</ele>
        <time>1970-01-01T01:36:11.000Z</time>
      </trkpt>
      <trkpt lat="42.282528" lon="3.170109">
        <ele>33</ele>
        <time>1970-01-01T01:36:12.000Z</time>
      </trkpt>
      <trkpt lat="42.28255" lon="3.17015">
        <ele>33</ele>
        <time>1970-01-01T01:36:13.000Z</time>
      </trkpt>
      <trkpt lat="42.282573" lon="3.170191">
        <ele>33</ele>
        <time>1970-01-01T01:36:14.000Z</time>
      </trkpt>
      <trkpt lat="42.282595" lon="3.170232">
        <ele>35</ele>
        <time>1970-01-01T01:36:15.000Z</time>
      </trkpt>
      <trkpt lat="42.282643" lon="3.170318">
        <ele>35</ele>
        <time>1970-01-01T01:36:16.000Z</time>
      </trkpt>
      <trkpt lat="42.282666" lon="3.170359">
        <ele>35</ele>
        <time>1970-01-01T01:36:17.000Z</time>
      </trkpt>
      <trkpt lat="42.282688" lon="3.170399">
        <ele>35</ele>
        <time>1970-01-01T01:36:18.000Z</time>
      </trkpt>
      <trkpt lat="42.282711" lon="3.17044">
        <ele>35</ele>
        <time>1970-01-01T01:36:19.000Z</time>
      </trkpt>
      <trkpt lat="42.282733" lon="3.17048">
        <ele>35</ele>
        <time>1970-01-01T01:36:20.000Z</time>
      </trkpt>
      <trkpt lat="42.282756" lon="3.170521">
        <ele>35</ele>
        <time>1970-01-01T01:36:21.000Z</time>
      </trkpt>
      <trkpt lat="42.282778" lon="3.170561">
        <ele>35</ele>
        <time>1970-01-01T01:36:22.000Z</time>
      </trkpt>
      <trkpt lat="42.282801" lon="3.170602">
        <ele>35</ele>
        <time>1970-01-01T01:36:23.000Z</time>
      </trkpt>
      <trkpt lat="42.282823" lon="3.170642">
        <ele>35</ele>
        <time>1970-01-01T01:36:24.000Z</time>
      </trkpt>
      <trkpt lat="42.282871" lon="3.17073">
        <ele>35</ele>
        <time>1970-01-01T01:36:25.000Z</time>
      </trkpt>
      <trkpt lat="42.282892" lon="3.170772">
        <ele>35</ele>
        <time>1970-01-01T01:36:26.000Z</time>
      </trkpt>
      <trkpt lat="42.282914" lon="3.170815">
        <ele>35</ele>
        <time>1970-01-01T01:36:27.000Z</time>
      </trkpt>
      <trkpt lat="42.282935" lon="3.170857">
        <ele>35</ele>
        <time>1970-01-01T01:36:28.000Z</time>
      </trkpt>
      <trkpt lat="42.282957" lon="3.1709">
        <ele>35</ele>
        <time>1970-01-01T01:36:29.000Z</time>
      </trkpt>
      <trkpt lat="42.282979" lon="3.170943">
        <ele>35</ele>
        <time>1970-01-01T01:36:30.000Z</time>
      </trkpt>
      <trkpt lat="42.283" lon="3.170985">
        <ele>35</ele>
        <time>1970-01-01T01:36:31.000Z</time>
      </trkpt>
      <trkpt lat="42.283022" lon="3.171028">
        <ele>35</ele>
        <time>1970-01-01T01:36:32.000Z</time>
      </trkpt>
      <trkpt lat="42.283043" lon="3.17107">
        <ele>35</ele>
        <time>1970-01-01T01:36:33.000Z</time>
      </trkpt>
      <trkpt lat="42.283065" lon="3.171113">
        <ele>36</ele>
        <time>1970-01-01T01:36:34.000Z</time>
      </trkpt>
      <trkpt lat="42.283111" lon="3.171204">
        <ele>36</ele>
        <time>1970-01-01T01:36:35.000Z</time>
      </trkpt>
      <trkpt lat="42.283133" lon="3.171248">
        <ele>36</ele>
        <time>1970-01-01T01:36:36.000Z</time>
      </trkpt>
      <trkpt lat="42.283156" lon="3.171291">
        <ele>36</ele>
        <time>1970-01-01T01:36:37.000Z</time>
      </trkpt>
      <trkpt lat="42.283178" lon="3.171335">
        <ele>36</ele>
        <time>1970-01-01T01:36:38.000Z</time>
      </trkpt>
      <trkpt lat="42.2832" lon="3.171378">
        <ele>36</ele>
        <time>1970-01-01T01:36:39.000Z</time>
      </trkpt>
      <trkpt lat="42.283222" lon="3.171422">
        <ele>36</ele>
        <time>1970-01-01T01:36:40.000Z</time>
      </trkpt>
      <trkpt lat="42.283244" lon="3.171465">
        <ele>36</ele>
        <time>1970-01-01T01:36:41.000Z</time>
      </trkpt>
      <trkpt lat="42.283267" lon="3.171509">
        <ele>36</ele>
        <time>1970-01-01T01:36:42.000Z</time>
      </trkpt>
      <trkpt lat="42.283289" lon="3.171552">
        <ele>36</ele>
        <time>1970-01-01T01:36:43.000Z</time>
      </trkpt>
      <trkpt lat="42.283311" lon="3.171596">
        <ele>37</ele>
        <time>1970-01-01T01:36:44.000Z</time>
      </trkpt>
      <trkpt lat="42.283363" lon="3.171688">
        <ele>37</ele>
        <time>1970-01-01T01:36:45.000Z</time>
      </trkpt>
      <trkpt lat="42.283388" lon="3.171733">
        <ele>37</ele>
        <time>1970-01-01T01:36:46.000Z</time>
      </trkpt>
      <trkpt lat="42.283412" lon="3.171777">
        <ele>37</ele>
        <time>1970-01-01T01:36:47.000Z</time>
      </trkpt>
      <trkpt lat="42.283437" lon="3.171822">
        <ele>37</ele>
        <time>1970-01-01T01:36:48.000Z</time>
      </trkpt>
      <trkpt lat="42.283462" lon="3.171866">
        <ele>37</ele>
        <time>1970-01-01T01:36:49.000Z</time>
      </trkpt>
      <trkpt lat="42.283487" lon="3.17191">
        <ele>37</ele>
        <time>1970-01-01T01:36:50.000Z</time>
      </trkpt>
      <trkpt lat="42.283512" lon="3.171955">
        <ele>37</ele>
        <time>1970-01-01T01:36:51.000Z</time>
      </trkpt>
      <trkpt lat="42.283536" lon="3.171999">
        <ele>37</ele>
        <time>1970-01-01T01:36:52.000Z</time>
      </trkpt>
      <trkpt lat="42.283561" lon="3.172044">
        <ele>37</ele>
        <time>1970-01-01T01:36:53.000Z</time>
      </trkpt>
      <trkpt lat="42.283586" lon="3.172088">
        <ele>37</ele>
        <time>1970-01-01T01:36:54.000Z</time>
      </trkpt>
      <trkpt lat="42.28364" lon="3.172185">
        <ele>37</ele>
        <time>1970-01-01T01:36:55.000Z</time>
      </trkpt>
      <trkpt lat="42.283666" lon="3.172232">
        <ele>37</ele>
        <time>1970-01-01T01:36:56.000Z</time>
      </trkpt>
      <trkpt lat="42.283692" lon="3.172278">
        <ele>37</ele>
        <time>1970-01-01T01:36:57.000Z</time>
      </trkpt>
      <trkpt lat="42.283718" lon="3.172325">
        <ele>37</ele>
        <time>1970-01-01T01:36:58.000Z</time>
      </trkpt>
      <trkpt lat="42.283744" lon="3.172372">
        <ele>37</ele>
        <time>1970-01-01T01:36:59.000Z</time>
      </trkpt>
      <trkpt lat="42.283769" lon="3.172419">
        <ele>37</ele>
        <time>1970-01-01T01:37:00.000Z</time>
      </trkpt>
      <trkpt lat="42.283795" lon="3.172466">
        <ele>37</ele>
        <time>1970-01-01T01:37:01.000Z</time>
      </trkpt>
      <trkpt lat="42.283821" lon="3.172512">
        <ele>37</ele>
        <time>1970-01-01T01:37:02.000Z</time>
      </trkpt>
      <trkpt lat="42.283847" lon="3.172559">
        <ele>37</ele>
        <time>1970-01-01T01:37:03.000Z</time>
      </trkpt>
      <trkpt lat="42.283873" lon="3.172606">
        <ele>38</ele>
        <time>1970-01-01T01:37:04.000Z</time>
      </trkpt>
      <trkpt lat="42.283929" lon="3.172707">
        <ele>38</ele>
        <time>1970-01-01T01:37:05.000Z</time>
      </trkpt>
      <trkpt lat="42.283955" lon="3.172754">
        <ele>38</ele>
        <time>1970-01-01T01:37:06.000Z</time>
      </trkpt>
      <trkpt lat="42.283982" lon="3.172802">
        <ele>38</ele>
        <time>1970-01-01T01:37:07.000Z</time>
      </trkpt>
      <trkpt lat="42.284008" lon="3.17285">
        <ele>38</ele>
        <time>1970-01-01T01:37:08.000Z</time>
      </trkpt>
      <trkpt lat="42.284035" lon="3.172897">
        <ele>38</ele>
        <time>1970-01-01T01:37:09.000Z</time>
      </trkpt>
      <trkpt lat="42.284061" lon="3.172945">
        <ele>38</ele>
        <time>1970-01-01T01:37:10.000Z</time>
      </trkpt>
      <trkpt lat="42.284088" lon="3.172993">
        <ele>38</ele>
        <time>1970-01-01T01:37:11.000Z</time>
      </trkpt>
      <trkpt lat="42.284114" lon="3.173041">
        <ele>38</ele>
        <time>1970-01-01T01:37:12.000Z</time>
      </trkpt>
      <trkpt lat="42.284141" lon="3.173088">
        <ele>38</ele>
        <time>1970-01-01T01:37:13.000Z</time>
      </trkpt>
      <trkpt lat="42.284167" lon="3.173136">
        <ele>38</ele>
        <time>1970-01-01T01:37:14.000Z</time>
      </trkpt>
      <trkpt lat="42.284223" lon="3.173238">
        <ele>38</ele>
        <time>1970-01-01T01:37:15.000Z</time>
      </trkpt>
      <trkpt lat="42.28425" lon="3.173286">
        <ele>38</ele>
        <time>1970-01-01T01:37:16.000Z</time>
      </trkpt>
      <trkpt lat="42.284278" lon="3.173334">
        <ele>38</ele>
        <time>1970-01-01T01:37:17.000Z</time>
      </trkpt>
      <trkpt lat="42.284305" lon="3.173382">
        <ele>38</ele>
        <time>1970-01-01T01:37:18.000Z</time>
      </trkpt>
      <trkpt lat="42.284332" lon="3.17343">
        <ele>38</ele>
        <time>1970-01-01T01:37:19.000Z</time>
      </trkpt>
      <trkpt lat="42.284359" lon="3.173478">
        <ele>38</ele>
        <time>1970-01-01T01:37:20.000Z</time>
      </trkpt>
      <trkpt lat="42.284386" lon="3.173526">
        <ele>38</ele>
        <time>1970-01-01T01:37:21.000Z</time>
      </trkpt>
      <trkpt lat="42.284414" lon="3.173574">
        <ele>38</ele>
        <time>1970-01-01T01:37:22.000Z</time>
      </trkpt>
      <trkpt lat="42.284441" lon="3.173622">
        <ele>38</ele>
        <time>1970-01-01T01:37:23.000Z</time>
      </trkpt>
      <trkpt lat="42.284468" lon="3.17367">
        <ele>38</ele>
        <time>1970-01-01T01:37:24.000Z</time>
      </trkpt>
      <trkpt lat="42.284532" lon="3.173775">
        <ele>38</ele>
        <time>1970-01-01T01:37:25.000Z</time>
      </trkpt>
      <trkpt lat="42.284564" lon="3.173825">
        <ele>38</ele>
        <time>1970-01-01T01:37:26.000Z</time>
      </trkpt>
      <trkpt lat="42.284596" lon="3.173874">
        <ele>38</ele>
        <time>1970-01-01T01:37:27.000Z</time>
      </trkpt>
      <trkpt lat="42.284628" lon="3.173924">
        <ele>38</ele>
        <time>1970-01-01T01:37:28.000Z</time>
      </trkpt>
      <trkpt lat="42.28466" lon="3.173974">
        <ele>38</ele>
        <time>1970-01-01T01:37:29.000Z</time>
      </trkpt>
      <trkpt lat="42.284691" lon="3.174024">
        <ele>38</ele>
        <time>1970-01-01T01:37:30.000Z</time>
      </trkpt>
      <trkpt lat="42.284723" lon="3.174074">
        <ele>38</ele>
        <time>1970-01-01T01:37:31.000Z</time>
      </trkpt>
      <trkpt lat="42.284755" lon="3.174123">
        <ele>38</ele>
        <time>1970-01-01T01:37:32.000Z</time>
      </trkpt>
      <trkpt lat="42.284787" lon="3.174173">
        <ele>38</ele>
        <time>1970-01-01T01:37:33.000Z</time>
      </trkpt>
      <trkpt lat="42.284819" lon="3.174223">
        <ele>38</ele>
        <time>1970-01-01T01:37:34.000Z</time>
      </trkpt>
      <trkpt lat="42.284884" lon="3.174332">
        <ele>38</ele>
        <time>1970-01-01T01:37:35.000Z</time>
      </trkpt>
      <trkpt lat="42.284914" lon="3.174384">
        <ele>38</ele>
        <time>1970-01-01T01:37:36.000Z</time>
      </trkpt>
      <trkpt lat="42.284943" lon="3.174437">
        <ele>38</ele>
        <time>1970-01-01T01:37:37.000Z</time>
      </trkpt>
      <trkpt lat="42.284973" lon="3.174489">
        <ele>38</ele>
        <time>1970-01-01T01:37:38.000Z</time>
      </trkpt>
      <trkpt lat="42.285002" lon="3.174541">
        <ele>38</ele>
        <time>1970-01-01T01:37:39.000Z</time>
      </trkpt>
      <trkpt lat="42.285031" lon="3.174593">
        <ele>38</ele>
        <time>1970-01-01T01:37:40.000Z</time>
      </trkpt>
      <trkpt lat="42.285061" lon="3.174645">
        <ele>38</ele>
        <time>1970-01-01T01:37:41.000Z</time>
      </trkpt>
      <trkpt lat="42.28509" lon="3.174698">
        <ele>38</ele>
        <time>1970-01-01T01:37:42.000Z</time>
      </trkpt>
      <trkpt lat="42.28512" lon="3.17475">
        <ele>38</ele>
        <time>1970-01-01T01:37:43.000Z</time>
      </trkpt>
      <trkpt lat="42.285149" lon="3.174802">
        <ele>39</ele>
        <time>1970-01-01T01:37:44.000Z</time>
      </trkpt>
      <trkpt lat="42.285211" lon="3.174914">
        <ele>39</ele>
        <time>1970-01-01T01:37:45.000Z</time>
      </trkpt>
      <trkpt lat="42.28524" lon="3.174967">
        <ele>39</ele>
        <time>1970-01-01T01:37:46.000Z</time>
      </trkpt>
      <trkpt lat="42.28527" lon="3.175021">
        <ele>39</ele>
        <time>1970-01-01T01:37:47.000Z</time>
      </trkpt>
      <trkpt lat="42.285299" lon="3.175074">
        <ele>39</ele>
        <time>1970-01-01T01:37:48.000Z</time>
      </trkpt>
      <trkpt lat="42.285329" lon="3.175127">
        <ele>39</ele>
        <time>1970-01-01T01:37:49.000Z</time>
      </trkpt>
      <trkpt lat="42.285358" lon="3.17518">
        <ele>39</ele>
        <time>1970-01-01T01:37:50.000Z</time>
      </trkpt>
      <trkpt lat="42.285388" lon="3.175233">
        <ele>39</ele>
        <time>1970-01-01T01:37:51.000Z</time>
      </trkpt>
      <trkpt lat="42.285417" lon="3.175287">
        <ele>39</ele>
        <time>1970-01-01T01:37:52.000Z</time>
      </trkpt>
      <trkpt lat="42.285447" lon="3.17534">
        <ele>39</ele>
        <time>1970-01-01T01:37:53.000Z</time>
      </trkpt>
      <trkpt lat="42.285476" lon="3.175393">
        <ele>39</ele>
        <time>1970-01-01T01:37:54.000Z</time>
      </trkpt>
      <trkpt lat="42.285538" lon="3.175504">
        <ele>39</ele>
        <time>1970-01-01T01:37:55.000Z</time>
      </trkpt>
      <trkpt lat="42.285566" lon="3.175556">
        <ele>39</ele>
        <time>1970-01-01T01:37:56.000Z</time>
      </trkpt>
      <trkpt lat="42.285595" lon="3.175608">
        <ele>39</ele>
        <time>1970-01-01T01:37:57.000Z</time>
      </trkpt>
      <trkpt lat="42.285623" lon="3.17566">
        <ele>39</ele>
        <time>1970-01-01T01:37:58.000Z</time>
      </trkpt>
      <trkpt lat="42.285652" lon="3.175712">
        <ele>39</ele>
        <time>1970-01-01T01:37:59.000Z</time>
      </trkpt>
      <trkpt lat="42.285681" lon="3.175764">
        <ele>39</ele>
        <time>1970-01-01T01:38:00.000Z</time>
      </trkpt>
      <trkpt lat="42.285709" lon="3.175816">
        <ele>39</ele>
        <time>1970-01-01T01:38:01.000Z</time>
      </trkpt>
      <trkpt lat="42.285738" lon="3.175868">
        <ele>39</ele>
        <time>1970-01-01T01:38:02.000Z</time>
      </trkpt>
      <trkpt lat="42.285766" lon="3.17592">
        <ele>39</ele>
        <time>1970-01-01T01:38:03.000Z</time>
      </trkpt>
      <trkpt lat="42.285795" lon="3.175972">
        <ele>39</ele>
        <time>1970-01-01T01:38:04.000Z</time>
      </trkpt>
      <trkpt lat="42.285843" lon="3.176079">
        <ele>39</ele>
        <time>1970-01-01T01:38:05.000Z</time>
      </trkpt>
      <trkpt lat="42.285862" lon="3.17613">
        <ele>39</ele>
        <time>1970-01-01T01:38:06.000Z</time>
      </trkpt>
      <trkpt lat="42.285881" lon="3.17618">
        <ele>39</ele>
        <time>1970-01-01T01:38:07.000Z</time>
      </trkpt>
      <trkpt lat="42.2859" lon="3.176231">
        <ele>39</ele>
        <time>1970-01-01T01:38:08.000Z</time>
      </trkpt>
      <trkpt lat="42.28592" lon="3.176281">
        <ele>39</ele>
        <time>1970-01-01T01:38:09.000Z</time>
      </trkpt>
      <trkpt lat="42.285939" lon="3.176331">
        <ele>39</ele>
        <time>1970-01-01T01:38:10.000Z</time>
      </trkpt>
      <trkpt lat="42.285958" lon="3.176382">
        <ele>39</ele>
        <time>1970-01-01T01:38:11.000Z</time>
      </trkpt>
      <trkpt lat="42.285977" lon="3.176432">
        <ele>39</ele>
        <time>1970-01-01T01:38:12.000Z</time>
      </trkpt>
      <trkpt lat="42.285996" lon="3.176483">
        <ele>39</ele>
        <time>1970-01-01T01:38:13.000Z</time>
      </trkpt>
      <trkpt lat="42.286015" lon="3.176533">
        <ele>40</ele>
        <time>1970-01-01T01:38:14.000Z</time>
      </trkpt>
      <trkpt lat="42.28604" lon="3.176642">
        <ele>40</ele>
        <time>1970-01-01T01:38:15.000Z</time>
      </trkpt>
      <trkpt lat="42.28605" lon="3.176695">
        <ele>40</ele>
        <time>1970-01-01T01:38:16.000Z</time>
      </trkpt>
      <trkpt lat="42.286059" lon="3.176748">
        <ele>40</ele>
        <time>1970-01-01T01:38:17.000Z</time>
      </trkpt>
      <trkpt lat="42.286068" lon="3.176801">
        <ele>40</ele>
        <time>1970-01-01T01:38:18.000Z</time>
      </trkpt>
      <trkpt lat="42.286078" lon="3.176854">
        <ele>40</ele>
        <time>1970-01-01T01:38:19.000Z</time>
      </trkpt>
      <trkpt lat="42.286087" lon="3.176907">
        <ele>40</ele>
        <time>1970-01-01T01:38:20.000Z</time>
      </trkpt>
      <trkpt lat="42.286096" lon="3.17696">
        <ele>40</ele>
        <time>1970-01-01T01:38:21.000Z</time>
      </trkpt>
      <trkpt lat="42.286105" lon="3.177013">
        <ele>40</ele>
        <time>1970-01-01T01:38:22.000Z</time>
      </trkpt>
      <trkpt lat="42.286115" lon="3.177066">
        <ele>40</ele>
        <time>1970-01-01T01:38:23.000Z</time>
      </trkpt>
      <trkpt lat="42.286124" lon="3.177119">
        <ele>42</ele>
        <time>1970-01-01T01:38:24.000Z</time>
      </trkpt>
      <trkpt lat="42.286143" lon="3.177233">
        <ele>42</ele>
        <time>1970-01-01T01:38:25.000Z</time>
      </trkpt>
      <trkpt lat="42.286151" lon="3.177286">
        <ele>42</ele>
        <time>1970-01-01T01:38:26.000Z</time>
      </trkpt>
      <trkpt lat="42.28616" lon="3.177339">
        <ele>42</ele>
        <time>1970-01-01T01:38:27.000Z</time>
      </trkpt>
      <trkpt lat="42.286168" lon="3.177392">
        <ele>42</ele>
        <time>1970-01-01T01:38:28.000Z</time>
      </trkpt>
      <trkpt lat="42.286177" lon="3.177444">
        <ele>42</ele>
        <time>1970-01-01T01:38:29.000Z</time>
      </trkpt>
      <trkpt lat="42.286186" lon="3.177497">
        <ele>42</ele>
        <time>1970-01-01T01:38:30.000Z</time>
      </trkpt>
      <trkpt lat="42.286194" lon="3.17755">
        <ele>42</ele>
        <time>1970-01-01T01:38:31.000Z</time>
      </trkpt>
      <trkpt lat="42.286203" lon="3.177603">
        <ele>42</ele>
        <time>1970-01-01T01:38:32.000Z</time>
      </trkpt>
      <trkpt lat="42.286211" lon="3.177656">
        <ele>42</ele>
        <time>1970-01-01T01:38:33.000Z</time>
      </trkpt>
      <trkpt lat="42.28622" lon="3.177709">
        <ele>44</ele>
        <time>1970-01-01T01:38:34.000Z</time>
      </trkpt>
      <trkpt lat="42.286238" lon="3.177823">
        <ele>44</ele>
        <time>1970-01-01T01:38:35.000Z</time>
      </trkpt>
      <trkpt lat="42.286246" lon="3.177875">
        <ele>44</ele>
        <time>1970-01-01T01:38:36.000Z</time>
      </trkpt>
      <trkpt lat="42.286255" lon="3.177928">
        <ele>44</ele>
        <time>1970-01-01T01:38:37.000Z</time>
      </trkpt>
      <trkpt lat="42.286263" lon="3.17798">
        <ele>44</ele>
        <time>1970-01-01T01:38:38.000Z</time>
      </trkpt>
      <trkpt lat="42.286272" lon="3.178033">
        <ele>44</ele>
        <time>1970-01-01T01:38:39.000Z</time>
      </trkpt>
      <trkpt lat="42.286281" lon="3.178086">
        <ele>44</ele>
        <time>1970-01-01T01:38:40.000Z</time>
      </trkpt>
      <trkpt lat="42.286289" lon="3.178138">
        <ele>44</ele>
        <time>1970-01-01T01:38:41.000Z</time>
      </trkpt>
      <trkpt lat="42.286298" lon="3.178191">
        <ele>44</ele>
        <time>1970-01-01T01:38:42.000Z</time>
      </trkpt>
      <trkpt lat="42.286306" lon="3.178243">
        <ele>44</ele>
        <time>1970-01-01T01:38:43.000Z</time>
      </trkpt>
      <trkpt lat="42.286315" lon="3.178296">
        <ele>44</ele>
        <time>1970-01-01T01:38:44.000Z</time>
      </trkpt>
      <trkpt lat="42.286346" lon="3.178399">
        <ele>44</ele>
        <time>1970-01-01T01:38:45.000Z</time>
      </trkpt>
      <trkpt lat="42.286364" lon="3.178446">
        <ele>44</ele>
        <time>1970-01-01T01:38:46.000Z</time>
      </trkpt>
      <trkpt lat="42.286381" lon="3.178494">
        <ele>44</ele>
        <time>1970-01-01T01:38:47.000Z</time>
      </trkpt>
      <trkpt lat="42.286399" lon="3.178541">
        <ele>44</ele>
        <time>1970-01-01T01:38:48.000Z</time>
      </trkpt>
      <trkpt lat="42.286417" lon="3.178588">
        <ele>44</ele>
        <time>1970-01-01T01:38:49.000Z</time>
      </trkpt>
      <trkpt lat="42.286435" lon="3.178635">
        <ele>44</ele>
        <time>1970-01-01T01:38:50.000Z</time>
      </trkpt>
      <trkpt lat="42.286453" lon="3.178682">
        <ele>44</ele>
        <time>1970-01-01T01:38:51.000Z</time>
      </trkpt>
      <trkpt lat="42.28647" lon="3.17873">
        <ele>44</ele>
        <time>1970-01-01T01:38:52.000Z</time>
      </trkpt>
      <trkpt lat="42.286488" lon="3.178777">
        <ele>44</ele>
        <time>1970-01-01T01:38:53.000Z</time>
      </trkpt>
      <trkpt lat="42.286506" lon="3.178824">
        <ele>46</ele>
        <time>1970-01-01T01:38:54.000Z</time>
      </trkpt>
      <trkpt lat="42.286554" lon="3.178911">
        <ele>46</ele>
        <time>1970-01-01T01:38:55.000Z</time>
      </trkpt>
      <trkpt lat="42.286579" lon="3.178947">
        <ele>46</ele>
        <time>1970-01-01T01:38:56.000Z</time>
      </trkpt>
      <trkpt lat="42.286605" lon="3.178984">
        <ele>46</ele>
        <time>1970-01-01T01:38:57.000Z</time>
      </trkpt>
      <trkpt lat="42.28663" lon="3.179021">
        <ele>46</ele>
        <time>1970-01-01T01:38:58.000Z</time>
      </trkpt>
      <trkpt lat="42.286655" lon="3.179058">
        <ele>46</ele>
        <time>1970-01-01T01:38:59.000Z</time>
      </trkpt>
      <trkpt lat="42.28668" lon="3.179094">
        <ele>46</ele>
        <time>1970-01-01T01:39:00.000Z</time>
      </trkpt>
      <trkpt lat="42.286705" lon="3.179131">
        <ele>46</ele>
        <time>1970-01-01T01:39:01.000Z</time>
      </trkpt>
      <trkpt lat="42.28673" lon="3.179168">
        <ele>46</ele>
        <time>1970-01-01T01:39:02.000Z</time>
      </trkpt>
      <trkpt lat="42.286756" lon="3.179205">
        <ele>46</ele>
        <time>1970-01-01T01:39:03.000Z</time>
      </trkpt>
      <trkpt lat="42.286781" lon="3.179241">
        <ele>46</ele>
        <time>1970-01-01T01:39:04.000Z</time>
      </trkpt>
      <trkpt lat="42.286806" lon="3.179278">
        <ele>47</ele>
        <time>1970-01-01T01:39:05.000Z</time>
      </trkpt>
      <trkpt lat="42.286861" lon="3.179348">
        <ele>47</ele>
        <time>1970-01-01T01:39:06.000Z</time>
      </trkpt>
      <trkpt lat="42.286888" lon="3.17938">
        <ele>47</ele>
        <time>1970-01-01T01:39:07.000Z</time>
      </trkpt>
      <trkpt lat="42.286914" lon="3.179413">
        <ele>47</ele>
        <time>1970-01-01T01:39:08.000Z</time>
      </trkpt>
      <trkpt lat="42.28694" lon="3.179445">
        <ele>47</ele>
        <time>1970-01-01T01:39:09.000Z</time>
      </trkpt>
      <trkpt lat="42.286967" lon="3.179478">
        <ele>47</ele>
        <time>1970-01-01T01:39:10.000Z</time>
      </trkpt>
      <trkpt lat="42.286993" lon="3.179511">
        <ele>47</ele>
        <time>1970-01-01T01:39:11.000Z</time>
      </trkpt>
      <trkpt lat="42.287019" lon="3.179543">
        <ele>47</ele>
        <time>1970-01-01T01:39:12.000Z</time>
      </trkpt>
      <trkpt lat="42.287045" lon="3.179576">
        <ele>47</ele>
        <time>1970-01-01T01:39:13.000Z</time>
      </trkpt>
      <trkpt lat="42.287072" lon="3.179608">
        <ele>47</ele>
        <time>1970-01-01T01:39:14.000Z</time>
      </trkpt>
      <trkpt lat="42.287098" lon="3.179641">
        <ele>48</ele>
        <time>1970-01-01T01:39:15.000Z</time>
      </trkpt>
      <trkpt lat="42.28715" lon="3.179709">
        <ele>48</ele>
        <time>1970-01-01T01:39:16.000Z</time>
      </trkpt>
      <trkpt lat="42.287175" lon="3.179739">
        <ele>48</ele>
        <time>1970-01-01T01:39:17.000Z</time>
      </trkpt>
      <trkpt lat="42.2872" lon="3.17977">
        <ele>48</ele>
        <time>1970-01-01T01:39:18.000Z</time>
      </trkpt>
      <trkpt lat="42.287225" lon="3.1798">
        <ele>48</ele>
        <time>1970-01-01T01:39:19.000Z</time>
      </trkpt>
      <trkpt lat="42.287249" lon="3.179831">
        <ele>48</ele>
        <time>1970-01-01T01:39:20.000Z</time>
      </trkpt>
      <trkpt lat="42.287274" lon="3.179861">
        <ele>48</ele>
        <time>1970-01-01T01:39:21.000Z</time>
      </trkpt>
      <trkpt lat="42.287299" lon="3.179892">
        <ele>48</ele>
        <time>1970-01-01T01:39:22.000Z</time>
      </trkpt>
      <trkpt lat="42.287324" lon="3.179922">
        <ele>48</ele>
        <time>1970-01-01T01:39:23.000Z</time>
      </trkpt>
      <trkpt lat="42.287349" lon="3.179953">
        <ele>48</ele>
        <time>1970-01-01T01:39:24.000Z</time>
      </trkpt>
      <trkpt lat="42.2874" lon="3.180017">
        <ele>48</ele>
        <time>1970-01-01T01:39:25.000Z</time>
      </trkpt>
      <trkpt lat="42.287424" lon="3.180047">
        <ele>48</ele>
        <time>1970-01-01T01:39:26.000Z</time>
      </trkpt>
      <trkpt lat="42.287448" lon="3.180076">
        <ele>48</ele>
        <time>1970-01-01T01:39:27.000Z</time>
      </trkpt>
      <trkpt lat="42.287472" lon="3.180106">
        <ele>48</ele>
        <time>1970-01-01T01:39:28.000Z</time>
      </trkpt>
      <trkpt lat="42.287496" lon="3.180136">
        <ele>48</ele>
        <time>1970-01-01T01:39:29.000Z</time>
      </trkpt>
      <trkpt lat="42.28752" lon="3.180166">
        <ele>48</ele>
        <time>1970-01-01T01:39:30.000Z</time>
      </trkpt>
      <trkpt lat="42.287544" lon="3.180196">
        <ele>48</ele>
        <time>1970-01-01T01:39:31.000Z</time>
      </trkpt>
      <trkpt lat="42.287568" lon="3.180225">
        <ele>48</ele>
        <time>1970-01-01T01:39:32.000Z</time>
      </trkpt>
      <trkpt lat="42.287592" lon="3.180255">
        <ele>48</ele>
        <time>1970-01-01T01:39:33.000Z</time>
      </trkpt>
      <trkpt lat="42.287616" lon="3.180285">
        <ele>50</ele>
        <time>1970-01-01T01:39:34.000Z</time>
      </trkpt>
      <trkpt lat="42.287663" lon="3.180349">
        <ele>50</ele>
        <time>1970-01-01T01:39:35.000Z</time>
      </trkpt>
      <trkpt lat="42.287684" lon="3.18038">
        <ele>50</ele>
        <time>1970-01-01T01:39:36.000Z</time>
      </trkpt>
      <trkpt lat="42.287706" lon="3.180411">
        <ele>50</ele>
        <time>1970-01-01T01:39:37.000Z</time>
      </trkpt>
      <trkpt lat="42.287728" lon="3.180442">
        <ele>50</ele>
        <time>1970-01-01T01:39:38.000Z</time>
      </trkpt>
      <trkpt lat="42.287749" lon="3.180473">
        <ele>50</ele>
        <time>1970-01-01T01:39:39.000Z</time>
      </trkpt>
      <trkpt lat="42.287771" lon="3.180503">
        <ele>50</ele>
        <time>1970-01-01T01:39:40.000Z</time>
      </trkpt>
      <trkpt lat="42.287792" lon="3.180534">
        <ele>50</ele>
        <time>1970-01-01T01:39:41.000Z</time>
      </trkpt>
      <trkpt lat="42.287814" lon="3.180565">
        <ele>50</ele>
        <time>1970-01-01T01:39:42.000Z</time>
      </trkpt>
      <trkpt lat="42.287836" lon="3.180596">
        <ele>50</ele>
        <time>1970-01-01T01:39:43.000Z</time>
      </trkpt>
      <trkpt lat="42.287857" lon="3.180627">
        <ele>50</ele>
        <time>1970-01-01T01:39:44.000Z</time>
      </trkpt>
      <trkpt lat="42.287879" lon="3.180658">
        <ele>52</ele>
        <time>1970-01-01T01:39:45.000Z</time>
      </trkpt>
      <trkpt lat="42.287918" lon="3.180727">
        <ele>52</ele>
        <time>1970-01-01T01:39:46.000Z</time>
      </trkpt>
      <trkpt lat="42.287936" lon="3.180761">
        <ele>52</ele>
        <time>1970-01-01T01:39:47.000Z</time>
      </trkpt>
      <trkpt lat="42.287954" lon="3.180794">
        <ele>52</ele>
        <time>1970-01-01T01:39:48.000Z</time>
      </trkpt>
      <trkpt lat="42.287972" lon="3.180827">
        <ele>52</ele>
        <time>1970-01-01T01:39:49.000Z</time>
      </trkpt>
      <trkpt lat="42.287989" lon="3.180861">
        <ele>52</ele>
        <time>1970-01-01T01:39:50.000Z</time>
      </trkpt>
      <trkpt lat="42.288007" lon="3.180894">
        <ele>52</ele>
        <time>1970-01-01T01:39:51.000Z</time>
      </trkpt>
      <trkpt lat="42.288025" lon="3.180927">
        <ele>52</ele>
        <time>1970-01-01T01:39:52.000Z</time>
      </trkpt>
      <trkpt lat="42.288043" lon="3.180961">
        <ele>52</ele>
        <time>1970-01-01T01:39:53.000Z</time>
      </trkpt>
      <trkpt lat="42.288061" lon="3.180994">
        <ele>53</ele>
        <time>1970-01-01T01:39:54.000Z</time>
      </trkpt>
      <trkpt lat="42.288102" lon="3.181061">
        <ele>53</ele>
        <time>1970-01-01T01:39:55.000Z</time>
      </trkpt>
      <trkpt lat="42.288122" lon="3.181092">
        <ele>53</ele>
        <time>1970-01-01T01:39:56.000Z</time>
      </trkpt>
      <trkpt lat="42.288142" lon="3.181122">
        <ele>53</ele>
        <time>1970-01-01T01:39:57.000Z</time>
      </trkpt>
      <trkpt lat="42.288162" lon="3.181153">
        <ele>53</ele>
        <time>1970-01-01T01:39:58.000Z</time>
      </trkpt>
      <trkpt lat="42.288183" lon="3.181183">
        <ele>53</ele>
        <time>1970-01-01T01:39:59.000Z</time>
      </trkpt>
      <trkpt lat="42.288203" lon="3.181213">
        <ele>53</ele>
        <time>1970-01-01T01:40:00.000Z</time>
      </trkpt>
      <trkpt lat="42.288223" lon="3.181244">
        <ele>53</ele>
        <time>1970-01-01T01:40:01.000Z</time>
      </trkpt>
      <trkpt lat="42.288243" lon="3.181274">
        <ele>53</ele>
        <time>1970-01-01T01:40:02.000Z</time>
      </trkpt>
      <trkpt lat="42.288263" lon="3.181305">
        <ele>53</ele>
        <time>1970-01-01T01:40:03.000Z</time>
      </trkpt>
      <trkpt lat="42.288283" lon="3.181335">
        <ele>55</ele>
        <time>1970-01-01T01:40:04.000Z</time>
      </trkpt>
      <trkpt lat="42.288326" lon="3.181394">
        <ele>55</ele>
        <time>1970-01-01T01:40:05.000Z</time>
      </trkpt>
      <trkpt lat="42.288348" lon="3.181421">
        <ele>55</ele>
        <time>1970-01-01T01:40:06.000Z</time>
      </trkpt>
      <trkpt lat="42.28837" lon="3.181448">
        <ele>55</ele>
        <time>1970-01-01T01:40:07.000Z</time>
      </trkpt>
      <trkpt lat="42.288392" lon="3.181475">
        <ele>55</ele>
        <time>1970-01-01T01:40:08.000Z</time>
      </trkpt>
      <trkpt lat="42.288414" lon="3.181502">
        <ele>55</ele>
        <time>1970-01-01T01:40:09.000Z</time>
      </trkpt>
      <trkpt lat="42.288435" lon="3.181529">
        <ele>55</ele>
        <time>1970-01-01T01:40:10.000Z</time>
      </trkpt>
      <trkpt lat="42.288457" lon="3.181556">
        <ele>55</ele>
        <time>1970-01-01T01:40:11.000Z</time>
      </trkpt>
      <trkpt lat="42.288479" lon="3.181583">
        <ele>55</ele>
        <time>1970-01-01T01:40:12.000Z</time>
      </trkpt>
      <trkpt lat="42.288501" lon="3.18161">
        <ele>55</ele>
        <time>1970-01-01T01:40:13.000Z</time>
      </trkpt>
      <trkpt lat="42.288523" lon="3.181637">
        <ele>55</ele>
        <time>1970-01-01T01:40:14.000Z</time>
      </trkpt>
      <trkpt lat="42.288545" lon="3.181664">
        <ele>57</ele>
        <time>1970-01-01T01:40:15.000Z</time>
      </trkpt>
      <trkpt lat="42.288599" lon="3.181714">
        <ele>57</ele>
        <time>1970-01-01T01:40:16.000Z</time>
      </trkpt>
      <trkpt lat="42.288622" lon="3.181737">
        <ele>57</ele>
        <time>1970-01-01T01:40:17.000Z</time>
      </trkpt>
      <trkpt lat="42.288646" lon="3.181759">
        <ele>57</ele>
        <time>1970-01-01T01:40:18.000Z</time>
      </trkpt>
      <trkpt lat="42.28867" lon="3.181782">
        <ele>57</ele>
        <time>1970-01-01T01:40:19.000Z</time>
      </trkpt>
      <trkpt lat="42.288693" lon="3.181805">
        <ele>57</ele>
        <time>1970-01-01T01:40:20.000Z</time>
      </trkpt>
      <trkpt lat="42.288717" lon="3.181828">
        <ele>57</ele>
        <time>1970-01-01T01:40:21.000Z</time>
      </trkpt>
      <trkpt lat="42.288741" lon="3.18185">
        <ele>57</ele>
        <time>1970-01-01T01:40:22.000Z</time>
      </trkpt>
      <trkpt lat="42.288764" lon="3.181873">
        <ele>57</ele>
        <time>1970-01-01T01:40:23.000Z</time>
      </trkpt>
      <trkpt lat="42.288788" lon="3.181896">
        <ele>60</ele>
        <time>1970-01-01T01:40:24.000Z</time>
      </trkpt>
      <trkpt lat="42.288839" lon="3.181934">
        <ele>60</ele>
        <time>1970-01-01T01:40:25.000Z</time>
      </trkpt>
      <trkpt lat="42.288864" lon="3.181949">
        <ele>60</ele>
        <time>1970-01-01T01:40:26.000Z</time>
      </trkpt>
      <trkpt lat="42.28889" lon="3.181965">
        <ele>60</ele>
        <time>1970-01-01T01:40:27.000Z</time>
      </trkpt>
      <trkpt lat="42.288915" lon="3.18198">
        <ele>60</ele>
        <time>1970-01-01T01:40:28.000Z</time>
      </trkpt>
      <trkpt lat="42.288941" lon="3.181996">
        <ele>60</ele>
        <time>1970-01-01T01:40:29.000Z</time>
      </trkpt>
      <trkpt lat="42.288967" lon="3.182012">
        <ele>60</ele>
        <time>1970-01-01T01:40:30.000Z</time>
      </trkpt>
      <trkpt lat="42.288992" lon="3.182027">
        <ele>60</ele>
        <time>1970-01-01T01:40:31.000Z</time>
      </trkpt>
      <trkpt lat="42.289018" lon="3.182043">
        <ele>60</ele>
        <time>1970-01-01T01:40:32.000Z</time>
      </trkpt>
      <trkpt lat="42.289043" lon="3.182058">
        <ele>60</ele>
        <time>1970-01-01T01:40:33.000Z</time>
      </trkpt>
      <trkpt lat="42.289069" lon="3.182074">
        <ele>61</ele>
        <time>1970-01-01T01:40:34.000Z</time>
      </trkpt>
      <trkpt lat="42.289122" lon="3.182108">
        <ele>61</ele>
        <time>1970-01-01T01:40:35.000Z</time>
      </trkpt>
      <trkpt lat="42.289146" lon="3.182125">
        <ele>61</ele>
        <time>1970-01-01T01:40:36.000Z</time>
      </trkpt>
      <trkpt lat="42.289171" lon="3.182141">
        <ele>61</ele>
        <time>1970-01-01T01:40:37.000Z</time>
      </trkpt>
      <trkpt lat="42.289195" lon="3.182158">
        <ele>61</ele>
        <time>1970-01-01T01:40:38.000Z</time>
      </trkpt>
      <trkpt lat="42.289219" lon="3.182175">
        <ele>61</ele>
        <time>1970-01-01T01:40:39.000Z</time>
      </trkpt>
      <trkpt lat="42.289243" lon="3.182192">
        <ele>61</ele>
        <time>1970-01-01T01:40:40.000Z</time>
      </trkpt>
      <trkpt lat="42.289267" lon="3.182209">
        <ele>61</ele>
        <time>1970-01-01T01:40:41.000Z</time>
      </trkpt>
      <trkpt lat="42.289292" lon="3.182225">
        <ele>61</ele>
        <time>1970-01-01T01:40:42.000Z</time>
      </trkpt>
      <trkpt lat="42.289316" lon="3.182242">
        <ele>61</ele>
        <time>1970-01-01T01:40:43.000Z</time>
      </trkpt>
      <trkpt lat="42.28934" lon="3.182259">
        <ele>62</ele>
        <time>1970-01-01T01:40:44.000Z</time>
      </trkpt>
      <trkpt lat="42.28936" lon="3.182317">
        <ele>62</ele>
        <time>1970-01-01T01:40:45.000Z</time>
      </trkpt>
      <trkpt lat="42.289359" lon="3.182347">
        <ele>62</ele>
        <time>1970-01-01T01:40:46.000Z</time>
      </trkpt>
      <trkpt lat="42.289357" lon="3.182378">
        <ele>62</ele>
        <time>1970-01-01T01:40:47.000Z</time>
      </trkpt>
      <trkpt lat="42.289356" lon="3.182409">
        <ele>62</ele>
        <time>1970-01-01T01:40:48.000Z</time>
      </trkpt>
      <trkpt lat="42.289355" lon="3.18244">
        <ele>62</ele>
        <time>1970-01-01T01:40:49.000Z</time>
      </trkpt>
      <trkpt lat="42.289354" lon="3.18247">
        <ele>62</ele>
        <time>1970-01-01T01:40:50.000Z</time>
      </trkpt>
      <trkpt lat="42.289353" lon="3.182501">
        <ele>62</ele>
        <time>1970-01-01T01:40:51.000Z</time>
      </trkpt>
      <trkpt lat="42.289351" lon="3.182532">
        <ele>62</ele>
        <time>1970-01-01T01:40:52.000Z</time>
      </trkpt>
      <trkpt lat="42.28935" lon="3.182562">
        <ele>62</ele>
        <time>1970-01-01T01:40:53.000Z</time>
      </trkpt>
      <trkpt lat="42.289349" lon="3.182593">
        <ele>64</ele>
        <time>1970-01-01T01:40:54.000Z</time>
      </trkpt>
      <trkpt lat="42.289331" lon="3.182655">
        <ele>64</ele>
        <time>1970-01-01T01:40:55.000Z</time>
      </trkpt>
      <trkpt lat="42.289322" lon="3.182685">
        <ele>64</ele>
        <time>1970-01-01T01:40:56.000Z</time>
      </trkpt>
      <trkpt lat="42.289314" lon="3.182716">
        <ele>64</ele>
        <time>1970-01-01T01:40:57.000Z</time>
      </trkpt>
      <trkpt lat="42.289305" lon="3.182746">
        <ele>64</ele>
        <time>1970-01-01T01:40:58.000Z</time>
      </trkpt>
      <trkpt lat="42.289297" lon="3.182777">
        <ele>64</ele>
        <time>1970-01-01T01:40:59.000Z</time>
      </trkpt>
      <trkpt lat="42.289288" lon="3.182807">
        <ele>64</ele>
        <time>1970-01-01T01:41:00.000Z</time>
      </trkpt>
      <trkpt lat="42.28928" lon="3.182838">
        <ele>64</ele>
        <time>1970-01-01T01:41:01.000Z</time>
      </trkpt>
      <trkpt lat="42.289271" lon="3.182868">
        <ele>64</ele>
        <time>1970-01-01T01:41:02.000Z</time>
      </trkpt>
      <trkpt lat="42.289263" lon="3.182899">
        <ele>64</ele>
        <time>1970-01-01T01:41:03.000Z</time>
      </trkpt>
      <trkpt lat="42.289254" lon="3.182929">
        <ele>64</ele>
        <time>1970-01-01T01:41:04.000Z</time>
      </trkpt>
      <trkpt lat="42.289246" lon="3.18296">
        <ele>68</ele>
        <time>1970-01-01T01:41:05.000Z</time>
      </trkpt>
      <trkpt lat="42.289247" lon="3.183021">
        <ele>68</ele>
        <time>1970-01-01T01:41:06.000Z</time>
      </trkpt>
      <trkpt lat="42.289254" lon="3.183047">
        <ele>68</ele>
        <time>1970-01-01T01:41:07.000Z</time>
      </trkpt>
      <trkpt lat="42.28926" lon="3.183074">
        <ele>68</ele>
        <time>1970-01-01T01:41:08.000Z</time>
      </trkpt>
      <trkpt lat="42.289267" lon="3.183101">
        <ele>68</ele>
        <time>1970-01-01T01:41:09.000Z</time>
      </trkpt>
      <trkpt lat="42.289274" lon="3.183127">
        <ele>68</ele>
        <time>1970-01-01T01:41:10.000Z</time>
      </trkpt>
      <trkpt lat="42.289281" lon="3.183154">
        <ele>68</ele>
        <time>1970-01-01T01:41:11.000Z</time>
      </trkpt>
      <trkpt lat="42.289287" lon="3.183181">
        <ele>68</ele>
        <time>1970-01-01T01:41:12.000Z</time>
      </trkpt>
      <trkpt lat="42.289294" lon="3.183207">
        <ele>68</ele>
        <time>1970-01-01T01:41:13.000Z</time>
      </trkpt>
      <trkpt lat="42.289301" lon="3.183234">
        <ele>70</ele>
        <time>1970-01-01T01:41:14.000Z</time>
      </trkpt>
      <trkpt lat="42.28934" lon="3.183266">
        <ele>70</ele>
        <time>1970-01-01T01:41:15.000Z</time>
      </trkpt>
      <trkpt lat="42.289362" lon="3.183274">
        <ele>70</ele>
        <time>1970-01-01T01:41:16.000Z</time>
      </trkpt>
      <trkpt lat="42.289383" lon="3.183282">
        <ele>70</ele>
        <time>1970-01-01T01:41:17.000Z</time>
      </trkpt>
      <trkpt lat="42.289404" lon="3.18329">
        <ele>70</ele>
        <time>1970-01-01T01:41:18.000Z</time>
      </trkpt>
      <trkpt lat="42.289426" lon="3.183298">
        <ele>70</ele>
        <time>1970-01-01T01:41:19.000Z</time>
      </trkpt>
      <trkpt lat="42.289447" lon="3.183307">
        <ele>70</ele>
        <time>1970-01-01T01:41:20.000Z</time>
      </trkpt>
      <trkpt lat="42.289468" lon="3.183315">
        <ele>70</ele>
        <time>1970-01-01T01:41:21.000Z</time>
      </trkpt>
      <trkpt lat="42.289489" lon="3.183323">
        <ele>70</ele>
        <time>1970-01-01T01:41:22.000Z</time>
      </trkpt>
      <trkpt lat="42.289511" lon="3.183331">
        <ele>70</ele>
        <time>1970-01-01T01:41:23.000Z</time>
      </trkpt>
      <trkpt lat="42.289532" lon="3.183339">
        <ele>70</ele>
        <time>1970-01-01T01:41:24.000Z</time>
      </trkpt>
      <trkpt lat="42.289579" lon="3.183343">
        <ele>70</ele>
        <time>1970-01-01T01:41:25.000Z</time>
      </trkpt>
      <trkpt lat="42.289601" lon="3.183346">
        <ele>70</ele>
        <time>1970-01-01T01:41:26.000Z</time>
      </trkpt>
      <trkpt lat="42.289622" lon="3.183349">
        <ele>70</ele>
        <time>1970-01-01T01:41:27.000Z</time>
      </trkpt>
      <trkpt lat="42.289643" lon="3.183352">
        <ele>70</ele>
        <time>1970-01-01T01:41:28.000Z</time>
      </trkpt>
      <trkpt lat="42.289665" lon="3.183355">
        <ele>70</ele>
        <time>1970-01-01T01:41:29.000Z</time>
      </trkpt>
      <trkpt lat="42.289686" lon="3.183359">
        <ele>70</ele>
        <time>1970-01-01T01:41:30.000Z</time>
      </trkpt>
      <trkpt lat="42.289707" lon="3.183362">
        <ele>70</ele>
        <time>1970-01-01T01:41:31.000Z</time>
      </trkpt>
      <trkpt lat="42.289728" lon="3.183365">
        <ele>70</ele>
        <time>1970-01-01T01:41:32.000Z</time>
      </trkpt>
      <trkpt lat="42.28975" lon="3.183368">
        <ele>70</ele>
        <time>1970-01-01T01:41:33.000Z</time>
      </trkpt>
      <trkpt lat="42.289771" lon="3.183371">
        <ele>72</ele>
        <time>1970-01-01T01:41:34.000Z</time>
      </trkpt>
      <trkpt lat="42.289815" lon="3.183376">
        <ele>72</ele>
        <time>1970-01-01T01:41:35.000Z</time>
      </trkpt>
      <trkpt lat="42.289837" lon="3.183378">
        <ele>72</ele>
        <time>1970-01-01T01:41:36.000Z</time>
      </trkpt>
      <trkpt lat="42.289858" lon="3.18338">
        <ele>72</ele>
        <time>1970-01-01T01:41:37.000Z</time>
      </trkpt>
      <trkpt lat="42.28988" lon="3.183382">
        <ele>72</ele>
        <time>1970-01-01T01:41:38.000Z</time>
      </trkpt>
      <trkpt lat="42.289901" lon="3.183384">
        <ele>72</ele>
        <time>1970-01-01T01:41:39.000Z</time>
      </trkpt>
      <trkpt lat="42.289922" lon="3.183387">
        <ele>72</ele>
        <time>1970-01-01T01:41:40.000Z</time>
      </trkpt>
      <trkpt lat="42.289944" lon="3.183389">
        <ele>72</ele>
        <time>1970-01-01T01:41:41.000Z</time>
      </trkpt>
      <trkpt lat="42.289965" lon="3.183391">
        <ele>72</ele>
        <time>1970-01-01T01:41:42.000Z</time>
      </trkpt>
      <trkpt lat="42.289987" lon="3.183393">
        <ele>72</ele>
        <time>1970-01-01T01:41:43.000Z</time>
      </trkpt>
      <trkpt lat="42.290008" lon="3.183395">
        <ele>72</ele>
        <time>1970-01-01T01:41:44.000Z</time>
      </trkpt>
      <trkpt lat="42.290052" lon="3.183402">
        <ele>72</ele>
        <time>1970-01-01T01:41:45.000Z</time>
      </trkpt>
      <trkpt lat="42.290074" lon="3.183404">
        <ele>72</ele>
        <time>1970-01-01T01:41:46.000Z</time>
      </trkpt>
      <trkpt lat="42.290095" lon="3.183407">
        <ele>72</ele>
        <time>1970-01-01T01:41:47.000Z</time>
      </trkpt>
      <trkpt lat="42.290117" lon="3.18341">
        <ele>72</ele>
        <time>1970-01-01T01:41:48.000Z</time>
      </trkpt>
      <trkpt lat="42.290138" lon="3.183412">
        <ele>72</ele>
        <time>1970-01-01T01:41:49.000Z</time>
      </trkpt>
      <trkpt lat="42.290159" lon="3.183415">
        <ele>72</ele>
        <time>1970-01-01T01:41:50.000Z</time>
      </trkpt>
      <trkpt lat="42.290181" lon="3.183418">
        <ele>72</ele>
        <time>1970-01-01T01:41:51.000Z</time>
      </trkpt>
      <trkpt lat="42.290202" lon="3.183421">
        <ele>72</ele>
        <time>1970-01-01T01:41:52.000Z</time>
      </trkpt>
      <trkpt lat="42.290224" lon="3.183423">
        <ele>72</ele>
        <time>1970-01-01T01:41:53.000Z</time>
      </trkpt>
      <trkpt lat="42.290245" lon="3.183426">
        <ele>74</ele>
        <time>1970-01-01T01:41:54.000Z</time>
      </trkpt>
      <trkpt lat="42.290289" lon="3.183429">
        <ele>74</ele>
        <time>1970-01-01T01:41:55.000Z</time>
      </trkpt>
      <trkpt lat="42.29031" lon="3.183432">
        <ele>74</ele>
        <time>1970-01-01T01:41:56.000Z</time>
      </trkpt>
      <trkpt lat="42.290332" lon="3.183434">
        <ele>74</ele>
        <time>1970-01-01T01:41:57.000Z</time>
      </trkpt>
      <trkpt lat="42.290353" lon="3.183437">
        <ele>74</ele>
        <time>1970-01-01T01:41:58.000Z</time>
      </trkpt>
      <trkpt lat="42.290374" lon="3.183439">
        <ele>74</ele>
        <time>1970-01-01T01:41:59.000Z</time>
      </trkpt>
      <trkpt lat="42.290395" lon="3.183441">
        <ele>74</ele>
        <time>1970-01-01T01:42:00.000Z</time>
      </trkpt>
      <trkpt lat="42.290416" lon="3.183444">
        <ele>74</ele>
        <time>1970-01-01T01:42:01.000Z</time>
      </trkpt>
      <trkpt lat="42.290438" lon="3.183446">
        <ele>74</ele>
        <time>1970-01-01T01:42:02.000Z</time>
      </trkpt>
      <trkpt lat="42.290459" lon="3.183449">
        <ele>74</ele>
        <time>1970-01-01T01:42:03.000Z</time>
      </trkpt>
      <trkpt lat="42.29048" lon="3.183451">
        <ele>76</ele>
        <time>1970-01-01T01:42:04.000Z</time>
      </trkpt>
      <trkpt lat="42.290523" lon="3.183462">
        <ele>76</ele>
        <time>1970-01-01T01:42:05.000Z</time>
      </trkpt>
      <trkpt lat="42.290543" lon="3.183471">
        <ele>76</ele>
        <time>1970-01-01T01:42:06.000Z</time>
      </trkpt>
      <trkpt lat="42.290564" lon="3.183481">
        <ele>76</ele>
        <time>1970-01-01T01:42:07.000Z</time>
      </trkpt>
      <trkpt lat="42.290584" lon="3.18349">
        <ele>76</ele>
        <time>1970-01-01T01:42:08.000Z</time>
      </trkpt>
      <trkpt lat="42.290604" lon="3.183499">
        <ele>76</ele>
        <time>1970-01-01T01:42:09.000Z</time>
      </trkpt>
      <trkpt lat="42.290624" lon="3.183508">
        <ele>76</ele>
        <time>1970-01-01T01:42:10.000Z</time>
      </trkpt>
      <trkpt lat="42.290644" lon="3.183517">
        <ele>76</ele>
        <time>1970-01-01T01:42:11.000Z</time>
      </trkpt>
      <trkpt lat="42.290665" lon="3.183527">
        <ele>76</ele>
        <time>1970-01-01T01:42:12.000Z</time>
      </trkpt>
      <trkpt lat="42.290685" lon="3.183536">
        <ele>76</ele>
        <time>1970-01-01T01:42:13.000Z</time>
      </trkpt>
      <trkpt lat="42.290705" lon="3.183545">
        <ele>77</ele>
        <time>1970-01-01T01:42:14.000Z</time>
      </trkpt>
      <trkpt lat="42.290734" lon="3.183593">
        <ele>77</ele>
        <time>1970-01-01T01:42:15.000Z</time>
      </trkpt>
      <trkpt lat="42.290745" lon="3.183619">
        <ele>77</ele>
        <time>1970-01-01T01:42:16.000Z</time>
      </trkpt>
      <trkpt lat="42.290755" lon="3.183646">
        <ele>77</ele>
        <time>1970-01-01T01:42:17.000Z</time>
      </trkpt>
      <trkpt lat="42.290765" lon="3.183673">
        <ele>77</ele>
        <time>1970-01-01T01:42:18.000Z</time>
      </trkpt>
      <trkpt lat="42.290776" lon="3.1837">
        <ele>77</ele>
        <time>1970-01-01T01:42:19.000Z</time>
      </trkpt>
      <trkpt lat="42.290786" lon="3.183726">
        <ele>77</ele>
        <time>1970-01-01T01:42:20.000Z</time>
      </trkpt>
      <trkpt lat="42.290797" lon="3.183753">
        <ele>77</ele>
        <time>1970-01-01T01:42:21.000Z</time>
      </trkpt>
      <trkpt lat="42.290807" lon="3.18378">
        <ele>77</ele>
        <time>1970-01-01T01:42:22.000Z</time>
      </trkpt>
      <trkpt lat="42.290817" lon="3.183807">
        <ele>77</ele>
        <time>1970-01-01T01:42:23.000Z</time>
      </trkpt>
      <trkpt lat="42.290828" lon="3.183833">
        <ele>77</ele>
        <time>1970-01-01T01:42:24.000Z</time>
      </trkpt>
      <trkpt lat="42.290838" lon="3.18386">
        <ele>79</ele>
        <time>1970-01-01T01:42:25.000Z</time>
      </trkpt>
      <trkpt lat="42.290856" lon="3.183917">
        <ele>79</ele>
        <time>1970-01-01T01:42:26.000Z</time>
      </trkpt>
      <trkpt lat="42.290864" lon="3.183942">
        <ele>79</ele>
        <time>1970-01-01T01:42:27.000Z</time>
      </trkpt>
      <trkpt lat="42.290873" lon="3.183967">
        <ele>79</ele>
        <time>1970-01-01T01:42:28.000Z</time>
      </trkpt>
      <trkpt lat="42.290882" lon="3.183992">
        <ele>79</ele>
        <time>1970-01-01T01:42:29.000Z</time>
      </trkpt>
      <trkpt lat="42.29089" lon="3.184018">
        <ele>79</ele>
        <time>1970-01-01T01:42:30.000Z</time>
      </trkpt>
      <trkpt lat="42.290899" lon="3.184043">
        <ele>79</ele>
        <time>1970-01-01T01:42:31.000Z</time>
      </trkpt>
      <trkpt lat="42.290908" lon="3.184068">
        <ele>79</ele>
        <time>1970-01-01T01:42:32.000Z</time>
      </trkpt>
      <trkpt lat="42.290916" lon="3.184093">
        <ele>79</ele>
        <time>1970-01-01T01:42:33.000Z</time>
      </trkpt>
      <trkpt lat="42.290925" lon="3.184118">
        <ele>85</ele>
        <time>1970-01-01T01:42:34.000Z</time>
      </trkpt>
      <trkpt lat="42.290942" lon="3.18417">
        <ele>85</ele>
        <time>1970-01-01T01:42:35.000Z</time>
      </trkpt>
      <trkpt lat="42.290951" lon="3.184195">
        <ele>85</ele>
        <time>1970-01-01T01:42:36.000Z</time>
      </trkpt>
      <trkpt lat="42.290959" lon="3.184219">
        <ele>85</ele>
        <time>1970-01-01T01:42:37.000Z</time>
      </trkpt>
      <trkpt lat="42.290968" lon="3.184244">
        <ele>85</ele>
        <time>1970-01-01T01:42:38.000Z</time>
      </trkpt>
      <trkpt lat="42.290976" lon="3.184268">
        <ele>85</ele>
        <time>1970-01-01T01:42:39.000Z</time>
      </trkpt>
      <trkpt lat="42.290984" lon="3.184292">
        <ele>85</ele>
        <time>1970-01-01T01:42:40.000Z</time>
      </trkpt>
      <trkpt lat="42.290993" lon="3.184317">
        <ele>85</ele>
        <time>1970-01-01T01:42:41.000Z</time>
      </trkpt>
      <trkpt lat="42.291001" lon="3.184341">
        <ele>85</ele>
        <time>1970-01-01T01:42:42.000Z</time>
      </trkpt>
      <trkpt lat="42.29101" lon="3.184366">
        <ele>85</ele>
        <time>1970-01-01T01:42:43.000Z</time>
      </trkpt>
      <trkpt lat="42.291018" lon="3.18439">
        <ele>86</ele>
        <time>1970-01-01T01:42:44.000Z</time>
      </trkpt>
      <trkpt lat="42.291041" lon="3.184443">
        <ele>86</ele>
        <time>1970-01-01T01:42:45.000Z</time>
      </trkpt>
      <trkpt lat="42.291053" lon="3.184466">
        <ele>86</ele>
        <time>1970-01-01T01:42:46.000Z</time>
      </trkpt>
      <trkpt lat="42.291066" lon="3.18449">
        <ele>86</ele>
        <time>1970-01-01T01:42:47.000Z</time>
      </trkpt>
      <trkpt lat="42.291078" lon="3.184513">
        <ele>86</ele>
        <time>1970-01-01T01:42:48.000Z</time>
      </trkpt>
      <trkpt lat="42.291091" lon="3.184537">
        <ele>86</ele>
        <time>1970-01-01T01:42:49.000Z</time>
      </trkpt>
      <trkpt lat="42.291103" lon="3.184561">
        <ele>86</ele>
        <time>1970-01-01T01:42:50.000Z</time>
      </trkpt>
      <trkpt lat="42.291116" lon="3.184584">
        <ele>86</ele>
        <time>1970-01-01T01:42:51.000Z</time>
      </trkpt>
      <trkpt lat="42.291128" lon="3.184608">
        <ele>86</ele>
        <time>1970-01-01T01:42:52.000Z</time>
      </trkpt>
      <trkpt lat="42.291141" lon="3.184631">
        <ele>86</ele>
        <time>1970-01-01T01:42:53.000Z</time>
      </trkpt>
      <trkpt lat="42.291153" lon="3.184655">
        <ele>87</ele>
        <time>1970-01-01T01:42:54.000Z</time>
      </trkpt>
      <trkpt lat="42.291191" lon="3.184689">
        <ele>87</ele>
        <time>1970-01-01T01:42:55.000Z</time>
      </trkpt>
      <trkpt lat="42.291212" lon="3.1847">
        <ele>87</ele>
        <time>1970-01-01T01:42:56.000Z</time>
      </trkpt>
      <trkpt lat="42.291233" lon="3.184711">
        <ele>87</ele>
        <time>1970-01-01T01:42:57.000Z</time>
      </trkpt>
      <trkpt lat="42.291254" lon="3.184722">
        <ele>87</ele>
        <time>1970-01-01T01:42:58.000Z</time>
      </trkpt>
      <trkpt lat="42.291275" lon="3.184733">
        <ele>87</ele>
        <time>1970-01-01T01:42:59.000Z</time>
      </trkpt>
      <trkpt lat="42.291295" lon="3.184744">
        <ele>87</ele>
        <time>1970-01-01T01:43:00.000Z</time>
      </trkpt>
      <trkpt lat="42.291316" lon="3.184755">
        <ele>87</ele>
        <time>1970-01-01T01:43:01.000Z</time>
      </trkpt>
      <trkpt lat="42.291337" lon="3.184766">
        <ele>87</ele>
        <time>1970-01-01T01:43:02.000Z</time>
      </trkpt>
      <trkpt lat="42.291358" lon="3.184777">
        <ele>87</ele>
        <time>1970-01-01T01:43:03.000Z</time>
      </trkpt>
      <trkpt lat="42.291379" lon="3.184788">
        <ele>88</ele>
        <time>1970-01-01T01:43:04.000Z</time>
      </trkpt>
      <trkpt lat="42.291425" lon="3.184786">
        <ele>88</ele>
        <time>1970-01-01T01:43:05.000Z</time>
      </trkpt>
      <trkpt lat="42.291447" lon="3.184781">
        <ele>88</ele>
        <time>1970-01-01T01:43:06.000Z</time>
      </trkpt>
      <trkpt lat="42.291468" lon="3.184775">
        <ele>88</ele>
        <time>1970-01-01T01:43:07.000Z</time>
      </trkpt>
      <trkpt lat="42.29149" lon="3.18477">
        <ele>88</ele>
        <time>1970-01-01T01:43:08.000Z</time>
      </trkpt>
      <trkpt lat="42.291511" lon="3.184764">
        <ele>88</ele>
        <time>1970-01-01T01:43:09.000Z</time>
      </trkpt>
      <trkpt lat="42.291532" lon="3.184758">
        <ele>88</ele>
        <time>1970-01-01T01:43:10.000Z</time>
      </trkpt>
      <trkpt lat="42.291554" lon="3.184753">
        <ele>88</ele>
        <time>1970-01-01T01:43:11.000Z</time>
      </trkpt>
      <trkpt lat="42.291575" lon="3.184747">
        <ele>88</ele>
        <time>1970-01-01T01:43:12.000Z</time>
      </trkpt>
      <trkpt lat="42.291597" lon="3.184742">
        <ele>88</ele>
        <time>1970-01-01T01:43:13.000Z</time>
      </trkpt>
      <trkpt lat="42.291618" lon="3.184736">
        <ele>89</ele>
        <time>1970-01-01T01:43:14.000Z</time>
      </trkpt>
      <trkpt lat="42.291664" lon="3.184722">
        <ele>89</ele>
        <time>1970-01-01T01:43:15.000Z</time>
      </trkpt>
      <trkpt lat="42.291685" lon="3.184716">
        <ele>89</ele>
        <time>1970-01-01T01:43:16.000Z</time>
      </trkpt>
      <trkpt lat="42.291707" lon="3.184711">
        <ele>89</ele>
        <time>1970-01-01T01:43:17.000Z</time>
      </trkpt>
      <trkpt lat="42.291729" lon="3.184705">
        <ele>89</ele>
        <time>1970-01-01T01:43:18.000Z</time>
      </trkpt>
      <trkpt lat="42.291751" lon="3.1847">
        <ele>89</ele>
        <time>1970-01-01T01:43:19.000Z</time>
      </trkpt>
      <trkpt lat="42.291772" lon="3.184694">
        <ele>89</ele>
        <time>1970-01-01T01:43:20.000Z</time>
      </trkpt>
      <trkpt lat="42.291794" lon="3.184689">
        <ele>89</ele>
        <time>1970-01-01T01:43:21.000Z</time>
      </trkpt>
      <trkpt lat="42.291816" lon="3.184683">
        <ele>89</ele>
        <time>1970-01-01T01:43:22.000Z</time>
      </trkpt>
      <trkpt lat="42.291837" lon="3.184678">
        <ele>89</ele>
        <time>1970-01-01T01:43:23.000Z</time>
      </trkpt>
      <trkpt lat="42.291859" lon="3.184672">
        <ele>91</ele>
        <time>1970-01-01T01:43:24.000Z</time>
      </trkpt>
      <trkpt lat="42.291903" lon="3.18468">
        <ele>91</ele>
        <time>1970-01-01T01:43:25.000Z</time>
      </trkpt>
      <trkpt lat="42.291925" lon="3.18469">
        <ele>91</ele>
        <time>1970-01-01T01:43:26.000Z</time>
      </trkpt>
      <trkpt lat="42.291946" lon="3.1847">
        <ele>91</ele>
        <time>1970-01-01T01:43:27.000Z</time>
      </trkpt>
      <trkpt lat="42.291967" lon="3.18471">
        <ele>91</ele>
        <time>1970-01-01T01:43:28.000Z</time>
      </trkpt>
      <trkpt lat="42.291989" lon="3.18472">
        <ele>91</ele>
        <time>1970-01-01T01:43:29.000Z</time>
      </trkpt>
      <trkpt lat="42.29201" lon="3.184731">
        <ele>91</ele>
        <time>1970-01-01T01:43:30.000Z</time>
      </trkpt>
      <trkpt lat="42.292031" lon="3.184741">
        <ele>91</ele>
        <time>1970-01-01T01:43:31.000Z</time>
      </trkpt>
      <trkpt lat="42.292052" lon="3.184751">
        <ele>91</ele>
        <time>1970-01-01T01:43:32.000Z</time>
      </trkpt>
      <trkpt lat="42.292074" lon="3.184761">
        <ele>91</ele>
        <time>1970-01-01T01:43:33.000Z</time>
      </trkpt>
      <trkpt lat="42.292095" lon="3.184771">
        <ele>91</ele>
        <time>1970-01-01T01:43:34.000Z</time>
      </trkpt>
      <trkpt lat="42.292131" lon="3.184813">
        <ele>91</ele>
        <time>1970-01-01T01:43:35.000Z</time>
      </trkpt>
      <trkpt lat="42.292147" lon="3.184834">
        <ele>91</ele>
        <time>1970-01-01T01:43:36.000Z</time>
      </trkpt>
      <trkpt lat="42.292163" lon="3.184854">
        <ele>91</ele>
        <time>1970-01-01T01:43:37.000Z</time>
      </trkpt>
      <trkpt lat="42.292179" lon="3.184875">
        <ele>91</ele>
        <time>1970-01-01T01:43:38.000Z</time>
      </trkpt>
      <trkpt lat="42.292195" lon="3.184896">
        <ele>91</ele>
        <time>1970-01-01T01:43:39.000Z</time>
      </trkpt>
      <trkpt lat="42.292211" lon="3.184917">
        <ele>91</ele>
        <time>1970-01-01T01:43:40.000Z</time>
      </trkpt>
      <trkpt lat="42.292227" lon="3.184938">
        <ele>91</ele>
        <time>1970-01-01T01:43:41.000Z</time>
      </trkpt>
      <trkpt lat="42.292243" lon="3.184958">
        <ele>91</ele>
        <time>1970-01-01T01:43:42.000Z</time>
      </trkpt>
      <trkpt lat="42.292259" lon="3.184979">
        <ele>91</ele>
        <time>1970-01-01T01:43:43.000Z</time>
      </trkpt>
      <trkpt lat="42.292275" lon="3.185">
        <ele>94</ele>
        <time>1970-01-01T01:43:44.000Z</time>
      </trkpt>
      <trkpt lat="42.292313" lon="3.185036">
        <ele>94</ele>
        <time>1970-01-01T01:43:45.000Z</time>
      </trkpt>
      <trkpt lat="42.292332" lon="3.185053">
        <ele>94</ele>
        <time>1970-01-01T01:43:46.000Z</time>
      </trkpt>
      <trkpt lat="42.292351" lon="3.185069">
        <ele>94</ele>
        <time>1970-01-01T01:43:47.000Z</time>
      </trkpt>
      <trkpt lat="42.29237" lon="3.185085">
        <ele>94</ele>
        <time>1970-01-01T01:43:48.000Z</time>
      </trkpt>
      <trkpt lat="42.29239" lon="3.185101">
        <ele>94</ele>
        <time>1970-01-01T01:43:49.000Z</time>
      </trkpt>
      <trkpt lat="42.292409" lon="3.185118">
        <ele>94</ele>
        <time>1970-01-01T01:43:50.000Z</time>
      </trkpt>
      <trkpt lat="42.292428" lon="3.185134">
        <ele>94</ele>
        <time>1970-01-01T01:43:51.000Z</time>
      </trkpt>
      <trkpt lat="42.292447" lon="3.18515">
        <ele>94</ele>
        <time>1970-01-01T01:43:52.000Z</time>
      </trkpt>
      <trkpt lat="42.292466" lon="3.185167">
        <ele>94</ele>
        <time>1970-01-01T01:43:53.000Z</time>
      </trkpt>
      <trkpt lat="42.292485" lon="3.185183">
        <ele>96</ele>
        <time>1970-01-01T01:43:54.000Z</time>
      </trkpt>
      <trkpt lat="42.292527" lon="3.185216">
        <ele>96</ele>
        <time>1970-01-01T01:43:55.000Z</time>
      </trkpt>
      <trkpt lat="42.292545" lon="3.18523">
        <ele>96</ele>
        <time>1970-01-01T01:43:56.000Z</time>
      </trkpt>
      <trkpt lat="42.292564" lon="3.185245">
        <ele>96</ele>
        <time>1970-01-01T01:43:57.000Z</time>
      </trkpt>
      <trkpt lat="42.292583" lon="3.18526">
        <ele>96</ele>
        <time>1970-01-01T01:43:58.000Z</time>
      </trkpt>
      <trkpt lat="42.292602" lon="3.185274">
        <ele>96</ele>
        <time>1970-01-01T01:43:59.000Z</time>
      </trkpt>
      <trkpt lat="42.29262" lon="3.185289">
        <ele>96</ele>
        <time>1970-01-01T01:44:00.000Z</time>
      </trkpt>
      <trkpt lat="42.292639" lon="3.185304">
        <ele>96</ele>
        <time>1970-01-01T01:44:01.000Z</time>
      </trkpt>
      <trkpt lat="42.292658" lon="3.185319">
        <ele>96</ele>
        <time>1970-01-01T01:44:02.000Z</time>
      </trkpt>
      <trkpt lat="42.292676" lon="3.185333">
        <ele>96</ele>
        <time>1970-01-01T01:44:03.000Z</time>
      </trkpt>
      <trkpt lat="42.292695" lon="3.185348">
        <ele>97</ele>
        <time>1970-01-01T01:44:04.000Z</time>
      </trkpt>
      <trkpt lat="42.292735" lon="3.18538">
        <ele>97</ele>
        <time>1970-01-01T01:44:05.000Z</time>
      </trkpt>
      <trkpt lat="42.292754" lon="3.185395">
        <ele>97</ele>
        <time>1970-01-01T01:44:06.000Z</time>
      </trkpt>
      <trkpt lat="42.292774" lon="3.185411">
        <ele>97</ele>
        <time>1970-01-01T01:44:07.000Z</time>
      </trkpt>
      <trkpt lat="42.292793" lon="3.185426">
        <ele>97</ele>
        <time>1970-01-01T01:44:08.000Z</time>
      </trkpt>
      <trkpt lat="42.292813" lon="3.185442">
        <ele>97</ele>
        <time>1970-01-01T01:44:09.000Z</time>
      </trkpt>
      <trkpt lat="42.292832" lon="3.185458">
        <ele>97</ele>
        <time>1970-01-01T01:44:10.000Z</time>
      </trkpt>
      <trkpt lat="42.292852" lon="3.185473">
        <ele>97</ele>
        <time>1970-01-01T01:44:11.000Z</time>
      </trkpt>
      <trkpt lat="42.292871" lon="3.185489">
        <ele>97</ele>
        <time>1970-01-01T01:44:12.000Z</time>
      </trkpt>
      <trkpt lat="42.292891" lon="3.185504">
        <ele>97</ele>
        <time>1970-01-01T01:44:13.000Z</time>
      </trkpt>
      <trkpt lat="42.29291" lon="3.18552">
        <ele>98</ele>
        <time>1970-01-01T01:44:14.000Z</time>
      </trkpt>
      <trkpt lat="42.292952" lon="3.185548">
        <ele>98</ele>
        <time>1970-01-01T01:44:15.000Z</time>
      </trkpt>
      <trkpt lat="42.292972" lon="3.185559">
        <ele>98</ele>
        <time>1970-01-01T01:44:16.000Z</time>
      </trkpt>
      <trkpt lat="42.292993" lon="3.185569">
        <ele>98</ele>
        <time>1970-01-01T01:44:17.000Z</time>
      </trkpt>
      <trkpt lat="42.293013" lon="3.185579">
        <ele>98</ele>
        <time>1970-01-01T01:44:18.000Z</time>
      </trkpt>
      <trkpt lat="42.293033" lon="3.185589">
        <ele>98</ele>
        <time>1970-01-01T01:44:19.000Z</time>
      </trkpt>
      <trkpt lat="42.293053" lon="3.1856">
        <ele>98</ele>
        <time>1970-01-01T01:44:20.000Z</time>
      </trkpt>
      <trkpt lat="42.293073" lon="3.18561">
        <ele>98</ele>
        <time>1970-01-01T01:44:21.000Z</time>
      </trkpt>
      <trkpt lat="42.293094" lon="3.18562">
        <ele>98</ele>
        <time>1970-01-01T01:44:22.000Z</time>
      </trkpt>
      <trkpt lat="42.293114" lon="3.185631">
        <ele>98</ele>
        <time>1970-01-01T01:44:23.000Z</time>
      </trkpt>
      <trkpt lat="42.293134" lon="3.185641">
        <ele>99</ele>
        <time>1970-01-01T01:44:24.000Z</time>
      </trkpt>
      <trkpt lat="42.293177" lon="3.185651">
        <ele>99</ele>
        <time>1970-01-01T01:44:25.000Z</time>
      </trkpt>
      <trkpt lat="42.293199" lon="3.185654">
        <ele>99</ele>
        <time>1970-01-01T01:44:26.000Z</time>
      </trkpt>
      <trkpt lat="42.29322" lon="3.185656">
        <ele>99</ele>
        <time>1970-01-01T01:44:27.000Z</time>
      </trkpt>
      <trkpt lat="42.293242" lon="3.185659">
        <ele>99</ele>
        <time>1970-01-01T01:44:28.000Z</time>
      </trkpt>
      <trkpt lat="42.293263" lon="3.185662">
        <ele>99</ele>
        <time>1970-01-01T01:44:29.000Z</time>
      </trkpt>
      <trkpt lat="42.293284" lon="3.185665">
        <ele>99</ele>
        <time>1970-01-01T01:44:30.000Z</time>
      </trkpt>
      <trkpt lat="42.293306" lon="3.185668">
        <ele>99</ele>
        <time>1970-01-01T01:44:31.000Z</time>
      </trkpt>
      <trkpt lat="42.293327" lon="3.18567">
        <ele>99</ele>
        <time>1970-01-01T01:44:32.000Z</time>
      </trkpt>
      <trkpt lat="42.293349" lon="3.185673">
        <ele>99</ele>
        <time>1970-01-01T01:44:33.000Z</time>
      </trkpt>
      <trkpt lat="42.29337" lon="3.185676">
        <ele>100</ele>
        <time>1970-01-01T01:44:34.000Z</time>
      </trkpt>
      <trkpt lat="42.293417" lon="3.185673">
        <ele>100</ele>
        <time>1970-01-01T01:44:35.000Z</time>
      </trkpt>
      <trkpt lat="42.293439" lon="3.185674">
        <ele>100</ele>
        <time>1970-01-01T01:44:36.000Z</time>
      </trkpt>
      <trkpt lat="42.293462" lon="3.185675">
        <ele>100</ele>
        <time>1970-01-01T01:44:37.000Z</time>
      </trkpt>
      <trkpt lat="42.293484" lon="3.185676">
        <ele>100</ele>
        <time>1970-01-01T01:44:38.000Z</time>
      </trkpt>
      <trkpt lat="42.293506" lon="3.185676">
        <ele>100</ele>
        <time>1970-01-01T01:44:39.000Z</time>
      </trkpt>
      <trkpt lat="42.293528" lon="3.185677">
        <ele>100</ele>
        <time>1970-01-01T01:44:40.000Z</time>
      </trkpt>
      <trkpt lat="42.29355" lon="3.185678">
        <ele>100</ele>
        <time>1970-01-01T01:44:41.000Z</time>
      </trkpt>
      <trkpt lat="42.293573" lon="3.185679">
        <ele>100</ele>
        <time>1970-01-01T01:44:42.000Z</time>
      </trkpt>
      <trkpt lat="42.293595" lon="3.18568">
        <ele>100</ele>
        <time>1970-01-01T01:44:43.000Z</time>
      </trkpt>
      <trkpt lat="42.293617" lon="3.185681">
        <ele>103</ele>
        <time>1970-01-01T01:44:44.000Z</time>
      </trkpt>
      <trkpt lat="42.293652" lon="3.185719">
        <ele>103</ele>
        <time>1970-01-01T01:44:45.000Z</time>
      </trkpt>
      <trkpt lat="42.293663" lon="3.185744">
        <ele>103</ele>
        <time>1970-01-01T01:44:46.000Z</time>
      </trkpt>
      <trkpt lat="42.293675" lon="3.185769">
        <ele>103</ele>
        <time>1970-01-01T01:44:47.000Z</time>
      </trkpt>
      <trkpt lat="42.293686" lon="3.185794">
        <ele>103</ele>
        <time>1970-01-01T01:44:48.000Z</time>
      </trkpt>
      <trkpt lat="42.293698" lon="3.185819">
        <ele>103</ele>
        <time>1970-01-01T01:44:49.000Z</time>
      </trkpt>
      <trkpt lat="42.293709" lon="3.185845">
        <ele>103</ele>
        <time>1970-01-01T01:44:50.000Z</time>
      </trkpt>
      <trkpt lat="42.293721" lon="3.18587">
        <ele>103</ele>
        <time>1970-01-01T01:44:51.000Z</time>
      </trkpt>
      <trkpt lat="42.293732" lon="3.185895">
        <ele>103</ele>
        <time>1970-01-01T01:44:52.000Z</time>
      </trkpt>
      <trkpt lat="42.293744" lon="3.18592">
        <ele>103</ele>
        <time>1970-01-01T01:44:53.000Z</time>
      </trkpt>
      <trkpt lat="42.293755" lon="3.185945">
        <ele>104</ele>
        <time>1970-01-01T01:44:54.000Z</time>
      </trkpt>
      <trkpt lat="42.293772" lon="3.186002">
        <ele>104</ele>
        <time>1970-01-01T01:44:55.000Z</time>
      </trkpt>
      <trkpt lat="42.293783" lon="3.186029">
        <ele>104</ele>
        <time>1970-01-01T01:44:56.000Z</time>
      </trkpt>
      <trkpt lat="42.293794" lon="3.186055">
        <ele>104</ele>
        <time>1970-01-01T01:44:57.000Z</time>
      </trkpt>
      <trkpt lat="42.293805" lon="3.186082">
        <ele>104</ele>
        <time>1970-01-01T01:44:58.000Z</time>
      </trkpt>
      <trkpt lat="42.293816" lon="3.186108">
        <ele>104</ele>
        <time>1970-01-01T01:44:59.000Z</time>
      </trkpt>
      <trkpt lat="42.293827" lon="3.186134">
        <ele>104</ele>
        <time>1970-01-01T01:45:00.000Z</time>
      </trkpt>
      <trkpt lat="42.293838" lon="3.186161">
        <ele>104</ele>
        <time>1970-01-01T01:45:01.000Z</time>
      </trkpt>
      <trkpt lat="42.293849" lon="3.186187">
        <ele>104</ele>
        <time>1970-01-01T01:45:02.000Z</time>
      </trkpt>
      <trkpt lat="42.29386" lon="3.186214">
        <ele>104</ele>
        <time>1970-01-01T01:45:03.000Z</time>
      </trkpt>
      <trkpt lat="42.293871" lon="3.18624">
        <ele>106</ele>
        <time>1970-01-01T01:45:04.000Z</time>
      </trkpt>
      <trkpt lat="42.293912" lon="3.186275">
        <ele>106</ele>
        <time>1970-01-01T01:45:05.000Z</time>
      </trkpt>
      <trkpt lat="42.293934" lon="3.186286">
        <ele>106</ele>
        <time>1970-01-01T01:45:06.000Z</time>
      </trkpt>
      <trkpt lat="42.293956" lon="3.186297">
        <ele>106</ele>
        <time>1970-01-01T01:45:07.000Z</time>
      </trkpt>
      <trkpt lat="42.293978" lon="3.186308">
        <ele>106</ele>
        <time>1970-01-01T01:45:08.000Z</time>
      </trkpt>
      <trkpt lat="42.294001" lon="3.186319">
        <ele>106</ele>
        <time>1970-01-01T01:45:09.000Z</time>
      </trkpt>
      <trkpt lat="42.294023" lon="3.186331">
        <ele>106</ele>
        <time>1970-01-01T01:45:10.000Z</time>
      </trkpt>
      <trkpt lat="42.294045" lon="3.186342">
        <ele>106</ele>
        <time>1970-01-01T01:45:11.000Z</time>
      </trkpt>
      <trkpt lat="42.294067" lon="3.186353">
        <ele>106</ele>
        <time>1970-01-01T01:45:12.000Z</time>
      </trkpt>
      <trkpt lat="42.294089" lon="3.186364">
        <ele>106</ele>
        <time>1970-01-01T01:45:13.000Z</time>
      </trkpt>
      <trkpt lat="42.294111" lon="3.186375">
        <ele>108</ele>
        <time>1970-01-01T01:45:14.000Z</time>
      </trkpt>
      <trkpt lat="42.294158" lon="3.186394">
        <ele>108</ele>
        <time>1970-01-01T01:45:15.000Z</time>
      </trkpt>
      <trkpt lat="42.294179" lon="3.186403">
        <ele>108</ele>
        <time>1970-01-01T01:45:16.000Z</time>
      </trkpt>
      <trkpt lat="42.294201" lon="3.186412">
        <ele>108</ele>
        <time>1970-01-01T01:45:17.000Z</time>
      </trkpt>
      <trkpt lat="42.294222" lon="3.186421">
        <ele>108</ele>
        <time>1970-01-01T01:45:18.000Z</time>
      </trkpt>
      <trkpt lat="42.294244" lon="3.18643">
        <ele>108</ele>
        <time>1970-01-01T01:45:19.000Z</time>
      </trkpt>
      <trkpt lat="42.294266" lon="3.18644">
        <ele>108</ele>
        <time>1970-01-01T01:45:20.000Z</time>
      </trkpt>
      <trkpt lat="42.294287" lon="3.186449">
        <ele>108</ele>
        <time>1970-01-01T01:45:21.000Z</time>
      </trkpt>
      <trkpt lat="42.294309" lon="3.186458">
        <ele>108</ele>
        <time>1970-01-01T01:45:22.000Z</time>
      </trkpt>
      <trkpt lat="42.29433" lon="3.186467">
        <ele>108</ele>
        <time>1970-01-01T01:45:23.000Z</time>
      </trkpt>
      <trkpt lat="42.294352" lon="3.186476">
        <ele>109</ele>
        <time>1970-01-01T01:45:24.000Z</time>
      </trkpt>
      <trkpt lat="42.294388" lon="3.186506">
        <ele>109</ele>
        <time>1970-01-01T01:45:25.000Z</time>
      </trkpt>
      <trkpt lat="42.294403" lon="3.186524">
        <ele>109</ele>
        <time>1970-01-01T01:45:26.000Z</time>
      </trkpt>
      <trkpt lat="42.294418" lon="3.186542">
        <ele>109</ele>
        <time>1970-01-01T01:45:27.000Z</time>
      </trkpt>
      <trkpt lat="42.294433" lon="3.18656">
        <ele>109</ele>
        <time>1970-01-01T01:45:28.000Z</time>
      </trkpt>
      <trkpt lat="42.294448" lon="3.186578">
        <ele>109</ele>
        <time>1970-01-01T01:45:29.000Z</time>
      </trkpt>
      <trkpt lat="42.294464" lon="3.186596">
        <ele>109</ele>
        <time>1970-01-01T01:45:30.000Z</time>
      </trkpt>
      <trkpt lat="42.294479" lon="3.186614">
        <ele>109</ele>
        <time>1970-01-01T01:45:31.000Z</time>
      </trkpt>
      <trkpt lat="42.294494" lon="3.186632">
        <ele>109</ele>
        <time>1970-01-01T01:45:32.000Z</time>
      </trkpt>
      <trkpt lat="42.294509" lon="3.18665">
        <ele>109</ele>
        <time>1970-01-01T01:45:33.000Z</time>
      </trkpt>
      <trkpt lat="42.294524" lon="3.186668">
        <ele>109</ele>
        <time>1970-01-01T01:45:34.000Z</time>
      </trkpt>
      <trkpt lat="42.294539" lon="3.186686">
        <ele>112</ele>
        <time>1970-01-01T01:45:35.000Z</time>
      </trkpt>
      <trkpt lat="42.294552" lon="3.186742">
        <ele>112</ele>
        <time>1970-01-01T01:45:36.000Z</time>
      </trkpt>
      <trkpt lat="42.294559" lon="3.186769">
        <ele>112</ele>
        <time>1970-01-01T01:45:37.000Z</time>
      </trkpt>
      <trkpt lat="42.294565" lon="3.186796">
        <ele>112</ele>
        <time>1970-01-01T01:45:38.000Z</time>
      </trkpt>
      <trkpt lat="42.294572" lon="3.186823">
        <ele>112</ele>
        <time>1970-01-01T01:45:39.000Z</time>
      </trkpt>
      <trkpt lat="42.294578" lon="3.186849">
        <ele>112</ele>
        <time>1970-01-01T01:45:40.000Z</time>
      </trkpt>
      <trkpt lat="42.294585" lon="3.186876">
        <ele>112</ele>
        <time>1970-01-01T01:45:41.000Z</time>
      </trkpt>
      <trkpt lat="42.294591" lon="3.186903">
        <ele>112</ele>
        <time>1970-01-01T01:45:42.000Z</time>
      </trkpt>
      <trkpt lat="42.294598" lon="3.18693">
        <ele>112</ele>
        <time>1970-01-01T01:45:43.000Z</time>
      </trkpt>
      <trkpt lat="42.294604" lon="3.186957">
        <ele>114</ele>
        <time>1970-01-01T01:45:44.000Z</time>
      </trkpt>
      <trkpt lat="42.29462" lon="3.18701">
        <ele>114</ele>
        <time>1970-01-01T01:45:45.000Z</time>
      </trkpt>
      <trkpt lat="42.29463" lon="3.187035">
        <ele>114</ele>
        <time>1970-01-01T01:45:46.000Z</time>
      </trkpt>
      <trkpt lat="42.294639" lon="3.187059">
        <ele>114</ele>
        <time>1970-01-01T01:45:47.000Z</time>
      </trkpt>
      <trkpt lat="42.294648" lon="3.187084">
        <ele>114</ele>
        <time>1970-01-01T01:45:48.000Z</time>
      </trkpt>
      <trkpt lat="42.294658" lon="3.187108">
        <ele>114</ele>
        <time>1970-01-01T01:45:49.000Z</time>
      </trkpt>
      <trkpt lat="42.294667" lon="3.187133">
        <ele>114</ele>
        <time>1970-01-01T01:45:50.000Z</time>
      </trkpt>
      <trkpt lat="42.294676" lon="3.187157">
        <ele>114</ele>
        <time>1970-01-01T01:45:51.000Z</time>
      </trkpt>
      <trkpt lat="42.294685" lon="3.187182">
        <ele>114</ele>
        <time>1970-01-01T01:45:52.000Z</time>
      </trkpt>
      <trkpt lat="42.294695" lon="3.187206">
        <ele>114</ele>
        <time>1970-01-01T01:45:53.000Z</time>
      </trkpt>
      <trkpt lat="42.294704" lon="3.187231">
        <ele>116</ele>
        <time>1970-01-01T01:45:54.000Z</time>
      </trkpt>
      <trkpt lat="42.294729" lon="3.187278">
        <ele>116</ele>
        <time>1970-01-01T01:45:55.000Z</time>
      </trkpt>
      <trkpt lat="42.294743" lon="3.187297">
        <ele>116</ele>
        <time>1970-01-01T01:45:56.000Z</time>
      </trkpt>
      <trkpt lat="42.294756" lon="3.187317">
        <ele>116</ele>
        <time>1970-01-01T01:45:57.000Z</time>
      </trkpt>
      <trkpt lat="42.29477" lon="3.187337">
        <ele>116</ele>
        <time>1970-01-01T01:45:58.000Z</time>
      </trkpt>
      <trkpt lat="42.294783" lon="3.187356">
        <ele>116</ele>
        <time>1970-01-01T01:45:59.000Z</time>
      </trkpt>
      <trkpt lat="42.294796" lon="3.187376">
        <ele>116</ele>
        <time>1970-01-01T01:46:00.000Z</time>
      </trkpt>
      <trkpt lat="42.29481" lon="3.187396">
        <ele>116</ele>
        <time>1970-01-01T01:46:01.000Z</time>
      </trkpt>
      <trkpt lat="42.294823" lon="3.187416">
        <ele>116</ele>
        <time>1970-01-01T01:46:02.000Z</time>
      </trkpt>
      <trkpt lat="42.294837" lon="3.187435">
        <ele>116</ele>
        <time>1970-01-01T01:46:03.000Z</time>
      </trkpt>
      <trkpt lat="42.29485" lon="3.187455">
        <ele>116</ele>
        <time>1970-01-01T01:46:04.000Z</time>
      </trkpt>
      <trkpt lat="42.294881" lon="3.187497">
        <ele>116</ele>
        <time>1970-01-01T01:46:05.000Z</time>
      </trkpt>
      <trkpt lat="42.294896" lon="3.187516">
        <ele>116</ele>
        <time>1970-01-01T01:46:06.000Z</time>
      </trkpt>
      <trkpt lat="42.29491" lon="3.187536">
        <ele>116</ele>
        <time>1970-01-01T01:46:07.000Z</time>
      </trkpt>
      <trkpt lat="42.294925" lon="3.187556">
        <ele>116</ele>
        <time>1970-01-01T01:46:08.000Z</time>
      </trkpt>
      <trkpt lat="42.29494" lon="3.187575">
        <ele>116</ele>
        <time>1970-01-01T01:46:09.000Z</time>
      </trkpt>
      <trkpt lat="42.294955" lon="3.187595">
        <ele>116</ele>
        <time>1970-01-01T01:46:10.000Z</time>
      </trkpt>
      <trkpt lat="42.29497" lon="3.187615">
        <ele>116</ele>
        <time>1970-01-01T01:46:11.000Z</time>
      </trkpt>
      <trkpt lat="42.294984" lon="3.187635">
        <ele>116</ele>
        <time>1970-01-01T01:46:12.000Z</time>
      </trkpt>
      <trkpt lat="42.294999" lon="3.187654">
        <ele>116</ele>
        <time>1970-01-01T01:46:13.000Z</time>
      </trkpt>
      <trkpt lat="42.295014" lon="3.187674">
        <ele>117</ele>
        <time>1970-01-01T01:46:14.000Z</time>
      </trkpt>
      <trkpt lat="42.295044" lon="3.187714">
        <ele>117</ele>
        <time>1970-01-01T01:46:15.000Z</time>
      </trkpt>
      <trkpt lat="42.295059" lon="3.187733">
        <ele>117</ele>
        <time>1970-01-01T01:46:16.000Z</time>
      </trkpt>
      <trkpt lat="42.295074" lon="3.187752">
        <ele>117</ele>
        <time>1970-01-01T01:46:17.000Z</time>
      </trkpt>
      <trkpt lat="42.295089" lon="3.187771">
        <ele>117</ele>
        <time>1970-01-01T01:46:18.000Z</time>
      </trkpt>
      <trkpt lat="42.295104" lon="3.18779">
        <ele>117</ele>
        <time>1970-01-01T01:46:19.000Z</time>
      </trkpt>
      <trkpt lat="42.295118" lon="3.18781">
        <ele>117</ele>
        <time>1970-01-01T01:46:20.000Z</time>
      </trkpt>
      <trkpt lat="42.295133" lon="3.187829">
        <ele>117</ele>
        <time>1970-01-01T01:46:21.000Z</time>
      </trkpt>
      <trkpt lat="42.295148" lon="3.187848">
        <ele>117</ele>
        <time>1970-01-01T01:46:22.000Z</time>
      </trkpt>
      <trkpt lat="42.295163" lon="3.187867">
        <ele>117</ele>
        <time>1970-01-01T01:46:23.000Z</time>
      </trkpt>
      <trkpt lat="42.295178" lon="3.187886">
        <ele>119</ele>
        <time>1970-01-01T01:46:24.000Z</time>
      </trkpt>
      <trkpt lat="42.295213" lon="3.187928">
        <ele>119</ele>
        <time>1970-01-01T01:46:25.000Z</time>
      </trkpt>
      <trkpt lat="42.29523" lon="3.187947">
        <ele>119</ele>
        <time>1970-01-01T01:46:26.000Z</time>
      </trkpt>
      <trkpt lat="42.295248" lon="3.187966">
        <ele>119</ele>
        <time>1970-01-01T01:46:27.000Z</time>
      </trkpt>
      <trkpt lat="42.295266" lon="3.187985">
        <ele>119</ele>
        <time>1970-01-01T01:46:28.000Z</time>
      </trkpt>
      <trkpt lat="42.295284" lon="3.188003">
        <ele>119</ele>
        <time>1970-01-01T01:46:29.000Z</time>
      </trkpt>
      <trkpt lat="42.295301" lon="3.188022">
        <ele>119</ele>
        <time>1970-01-01T01:46:30.000Z</time>
      </trkpt>
      <trkpt lat="42.295319" lon="3.188041">
        <ele>119</ele>
        <time>1970-01-01T01:46:31.000Z</time>
      </trkpt>
      <trkpt lat="42.295337" lon="3.18806">
        <ele>119</ele>
        <time>1970-01-01T01:46:32.000Z</time>
      </trkpt>
      <trkpt lat="42.295354" lon="3.188079">
        <ele>119</ele>
        <time>1970-01-01T01:46:33.000Z</time>
      </trkpt>
      <trkpt lat="42.295372" lon="3.188098">
        <ele>121</ele>
        <time>1970-01-01T01:46:34.000Z</time>
      </trkpt>
      <trkpt lat="42.29542" lon="3.188129">
        <ele>121</ele>
        <time>1970-01-01T01:46:35.000Z</time>
      </trkpt>
      <trkpt lat="42.295445" lon="3.188142">
        <ele>121</ele>
        <time>1970-01-01T01:46:36.000Z</time>
      </trkpt>
      <trkpt lat="42.29547" lon="3.188155">
        <ele>121</ele>
        <time>1970-01-01T01:46:37.000Z</time>
      </trkpt>
      <trkpt lat="42.295495" lon="3.188168">
        <ele>121</ele>
        <time>1970-01-01T01:46:38.000Z</time>
      </trkpt>
      <trkpt lat="42.29552" lon="3.188181">
        <ele>121</ele>
        <time>1970-01-01T01:46:39.000Z</time>
      </trkpt>
      <trkpt lat="42.295544" lon="3.188194">
        <ele>121</ele>
        <time>1970-01-01T01:46:40.000Z</time>
      </trkpt>
      <trkpt lat="42.295569" lon="3.188207">
        <ele>121</ele>
        <time>1970-01-01T01:46:41.000Z</time>
      </trkpt>
      <trkpt lat="42.295594" lon="3.18822">
        <ele>121</ele>
        <time>1970-01-01T01:46:42.000Z</time>
      </trkpt>
      <trkpt lat="42.295619" lon="3.188233">
        <ele>121</ele>
        <time>1970-01-01T01:46:43.000Z</time>
      </trkpt>
      <trkpt lat="42.295644" lon="3.188246">
        <ele>123</ele>
        <time>1970-01-01T01:46:44.000Z</time>
      </trkpt>
      <trkpt lat="42.295691" lon="3.188284">
        <ele>123</ele>
        <time>1970-01-01T01:46:45.000Z</time>
      </trkpt>
      <trkpt lat="42.29571" lon="3.188307">
        <ele>123</ele>
        <time>1970-01-01T01:46:46.000Z</time>
      </trkpt>
      <trkpt lat="42.295729" lon="3.18833">
        <ele>123</ele>
        <time>1970-01-01T01:46:47.000Z</time>
      </trkpt>
      <trkpt lat="42.295748" lon="3.188353">
        <ele>123</ele>
        <time>1970-01-01T01:46:48.000Z</time>
      </trkpt>
      <trkpt lat="42.295767" lon="3.188375">
        <ele>123</ele>
        <time>1970-01-01T01:46:49.000Z</time>
      </trkpt>
      <trkpt lat="42.295786" lon="3.188398">
        <ele>123</ele>
        <time>1970-01-01T01:46:50.000Z</time>
      </trkpt>
      <trkpt lat="42.295805" lon="3.188421">
        <ele>123</ele>
        <time>1970-01-01T01:46:51.000Z</time>
      </trkpt>
      <trkpt lat="42.295824" lon="3.188444">
        <ele>123</ele>
        <time>1970-01-01T01:46:52.000Z</time>
      </trkpt>
      <trkpt lat="42.295843" lon="3.188467">
        <ele>123</ele>
        <time>1970-01-01T01:46:53.000Z</time>
      </trkpt>
      <trkpt lat="42.295862" lon="3.18849">
        <ele>123</ele>
        <time>1970-01-01T01:46:54.000Z</time>
      </trkpt>
      <trkpt lat="42.295852" lon="3.188556">
        <ele>123</ele>
        <time>1970-01-01T01:46:55.000Z</time>
      </trkpt>
      <trkpt lat="42.295834" lon="3.188583">
        <ele>123</ele>
        <time>1970-01-01T01:46:56.000Z</time>
      </trkpt>
      <trkpt lat="42.295816" lon="3.188611">
        <ele>123</ele>
        <time>1970-01-01T01:46:57.000Z</time>
      </trkpt>
      <trkpt lat="42.295798" lon="3.188638">
        <ele>123</ele>
        <time>1970-01-01T01:46:58.000Z</time>
      </trkpt>
      <trkpt lat="42.29578" lon="3.188665">
        <ele>123</ele>
        <time>1970-01-01T01:46:59.000Z</time>
      </trkpt>
      <trkpt lat="42.295762" lon="3.188692">
        <ele>123</ele>
        <time>1970-01-01T01:47:00.000Z</time>
      </trkpt>
      <trkpt lat="42.295744" lon="3.188719">
        <ele>123</ele>
        <time>1970-01-01T01:47:01.000Z</time>
      </trkpt>
      <trkpt lat="42.295726" lon="3.188747">
        <ele>123</ele>
        <time>1970-01-01T01:47:02.000Z</time>
      </trkpt>
      <trkpt lat="42.295708" lon="3.188774">
        <ele>123</ele>
        <time>1970-01-01T01:47:03.000Z</time>
      </trkpt>
      <trkpt lat="42.29569" lon="3.188801">
        <ele>125</ele>
        <time>1970-01-01T01:47:04.000Z</time>
      </trkpt>
      <trkpt lat="42.295637" lon="3.188839">
        <ele>125</ele>
        <time>1970-01-01T01:47:05.000Z</time>
      </trkpt>
      <trkpt lat="42.295613" lon="3.188858">
        <ele>125</ele>
        <time>1970-01-01T01:47:06.000Z</time>
      </trkpt>
      <trkpt lat="42.295588" lon="3.188876">
        <ele>125</ele>
        <time>1970-01-01T01:47:07.000Z</time>
      </trkpt>
      <trkpt lat="42.295564" lon="3.188895">
        <ele>125</ele>
        <time>1970-01-01T01:47:08.000Z</time>
      </trkpt>
      <trkpt lat="42.295539" lon="3.188914">
        <ele>125</ele>
        <time>1970-01-01T01:47:09.000Z</time>
      </trkpt>
      <trkpt lat="42.295514" lon="3.188933">
        <ele>125</ele>
        <time>1970-01-01T01:47:10.000Z</time>
      </trkpt>
      <trkpt lat="42.29549" lon="3.188952">
        <ele>125</ele>
        <time>1970-01-01T01:47:11.000Z</time>
      </trkpt>
      <trkpt lat="42.295465" lon="3.18897">
        <ele>125</ele>
        <time>1970-01-01T01:47:12.000Z</time>
      </trkpt>
      <trkpt lat="42.295441" lon="3.188989">
        <ele>125</ele>
        <time>1970-01-01T01:47:13.000Z</time>
      </trkpt>
      <trkpt lat="42.295416" lon="3.189008">
        <ele>127</ele>
        <time>1970-01-01T01:47:14.000Z</time>
      </trkpt>
      <trkpt lat="42.295366" lon="3.189051">
        <ele>127</ele>
        <time>1970-01-01T01:47:15.000Z</time>
      </trkpt>
      <trkpt lat="42.295343" lon="3.189074">
        <ele>127</ele>
        <time>1970-01-01T01:47:16.000Z</time>
      </trkpt>
      <trkpt lat="42.295321" lon="3.189097">
        <ele>127</ele>
        <time>1970-01-01T01:47:17.000Z</time>
      </trkpt>
      <trkpt lat="42.295298" lon="3.18912">
        <ele>127</ele>
        <time>1970-01-01T01:47:18.000Z</time>
      </trkpt>
      <trkpt lat="42.295276" lon="3.189143">
        <ele>127</ele>
        <time>1970-01-01T01:47:19.000Z</time>
      </trkpt>
      <trkpt lat="42.295253" lon="3.189167">
        <ele>127</ele>
        <time>1970-01-01T01:47:20.000Z</time>
      </trkpt>
      <trkpt lat="42.295231" lon="3.18919">
        <ele>127</ele>
        <time>1970-01-01T01:47:21.000Z</time>
      </trkpt>
      <trkpt lat="42.295208" lon="3.189213">
        <ele>127</ele>
        <time>1970-01-01T01:47:22.000Z</time>
      </trkpt>
      <trkpt lat="42.295186" lon="3.189236">
        <ele>127</ele>
        <time>1970-01-01T01:47:23.000Z</time>
      </trkpt>
      <trkpt lat="42.295163" lon="3.189259">
        <ele>127</ele>
        <time>1970-01-01T01:47:24.000Z</time>
      </trkpt>
      <trkpt lat="42.295141" lon="3.189282">
        <ele>130</ele>
        <time>1970-01-01T01:47:25.000Z</time>
      </trkpt>
      <trkpt lat="42.295122" lon="3.189349">
        <ele>130</ele>
        <time>1970-01-01T01:47:26.000Z</time>
      </trkpt>
      <trkpt lat="42.29512" lon="3.189383">
        <ele>130</ele>
        <time>1970-01-01T01:47:27.000Z</time>
      </trkpt>
      <trkpt lat="42.295118" lon="3.189417">
        <ele>130</ele>
        <time>1970-01-01T01:47:28.000Z</time>
      </trkpt>
      <trkpt lat="42.295116" lon="3.189451">
        <ele>130</ele>
        <time>1970-01-01T01:47:29.000Z</time>
      </trkpt>
      <trkpt lat="42.295114" lon="3.189486">
        <ele>130</ele>
        <time>1970-01-01T01:47:30.000Z</time>
      </trkpt>
      <trkpt lat="42.295112" lon="3.18952">
        <ele>130</ele>
        <time>1970-01-01T01:47:31.000Z</time>
      </trkpt>
      <trkpt lat="42.29511" lon="3.189554">
        <ele>130</ele>
        <time>1970-01-01T01:47:32.000Z</time>
      </trkpt>
      <trkpt lat="42.295108" lon="3.189588">
        <ele>130</ele>
        <time>1970-01-01T01:47:33.000Z</time>
      </trkpt>
      <trkpt lat="42.295106" lon="3.189622">
        <ele>130</ele>
        <time>1970-01-01T01:47:34.000Z</time>
      </trkpt>
      <trkpt lat="42.295115" lon="3.189693">
        <ele>130</ele>
        <time>1970-01-01T01:47:35.000Z</time>
      </trkpt>
      <trkpt lat="42.29512" lon="3.189726">
        <ele>130</ele>
        <time>1970-01-01T01:47:36.000Z</time>
      </trkpt>
      <trkpt lat="42.295125" lon="3.189759">
        <ele>130</ele>
        <time>1970-01-01T01:47:37.000Z</time>
      </trkpt>
      <trkpt lat="42.29513" lon="3.189792">
        <ele>130</ele>
        <time>1970-01-01T01:47:38.000Z</time>
      </trkpt>
      <trkpt lat="42.295136" lon="3.189825">
        <ele>130</ele>
        <time>1970-01-01T01:47:39.000Z</time>
      </trkpt>
      <trkpt lat="42.295141" lon="3.189859">
        <ele>130</ele>
        <time>1970-01-01T01:47:40.000Z</time>
      </trkpt>
      <trkpt lat="42.295146" lon="3.189892">
        <ele>130</ele>
        <time>1970-01-01T01:47:41.000Z</time>
      </trkpt>
      <trkpt lat="42.295151" lon="3.189925">
        <ele>130</ele>
        <time>1970-01-01T01:47:42.000Z</time>
      </trkpt>
      <trkpt lat="42.295156" lon="3.189958">
        <ele>130</ele>
        <time>1970-01-01T01:47:43.000Z</time>
      </trkpt>
      <trkpt lat="42.295161" lon="3.189991">
        <ele>132</ele>
        <time>1970-01-01T01:47:44.000Z</time>
      </trkpt>
      <trkpt lat="42.295174" lon="3.190057">
        <ele>132</ele>
        <time>1970-01-01T01:47:45.000Z</time>
      </trkpt>
      <trkpt lat="42.29518" lon="3.190087">
        <ele>132</ele>
        <time>1970-01-01T01:47:46.000Z</time>
      </trkpt>
      <trkpt lat="42.295186" lon="3.190116">
        <ele>132</ele>
        <time>1970-01-01T01:47:47.000Z</time>
      </trkpt>
      <trkpt lat="42.295192" lon="3.190146">
        <ele>132</ele>
        <time>1970-01-01T01:47:48.000Z</time>
      </trkpt>
      <trkpt lat="42.295199" lon="3.190176">
        <ele>132</ele>
        <time>1970-01-01T01:47:49.000Z</time>
      </trkpt>
      <trkpt lat="42.295205" lon="3.190206">
        <ele>132</ele>
        <time>1970-01-01T01:47:50.000Z</time>
      </trkpt>
      <trkpt lat="42.295211" lon="3.190236">
        <ele>132</ele>
        <time>1970-01-01T01:47:51.000Z</time>
      </trkpt>
      <trkpt lat="42.295217" lon="3.190265">
        <ele>132</ele>
        <time>1970-01-01T01:47:52.000Z</time>
      </trkpt>
      <trkpt lat="42.295223" lon="3.190295">
        <ele>132</ele>
        <time>1970-01-01T01:47:53.000Z</time>
      </trkpt>
      <trkpt lat="42.295229" lon="3.190325">
        <ele>133</ele>
        <time>1970-01-01T01:47:54.000Z</time>
      </trkpt>
      <trkpt lat="42.295244" lon="3.190385">
        <ele>133</ele>
        <time>1970-01-01T01:47:55.000Z</time>
      </trkpt>
      <trkpt lat="42.295252" lon="3.190412">
        <ele>133</ele>
        <time>1970-01-01T01:47:56.000Z</time>
      </trkpt>
      <trkpt lat="42.295261" lon="3.19044">
        <ele>133</ele>
        <time>1970-01-01T01:47:57.000Z</time>
      </trkpt>
      <trkpt lat="42.29527" lon="3.190468">
        <ele>133</ele>
        <time>1970-01-01T01:47:58.000Z</time>
      </trkpt>
      <trkpt lat="42.295279" lon="3.190495">
        <ele>133</ele>
        <time>1970-01-01T01:47:59.000Z</time>
      </trkpt>
      <trkpt lat="42.295287" lon="3.190523">
        <ele>133</ele>
        <time>1970-01-01T01:48:00.000Z</time>
      </trkpt>
      <trkpt lat="42.295296" lon="3.190551">
        <ele>133</ele>
        <time>1970-01-01T01:48:01.000Z</time>
      </trkpt>
      <trkpt lat="42.295305" lon="3.190579">
        <ele>133</ele>
        <time>1970-01-01T01:48:02.000Z</time>
      </trkpt>
      <trkpt lat="42.295313" lon="3.190606">
        <ele>133</ele>
        <time>1970-01-01T01:48:03.000Z</time>
      </trkpt>
      <trkpt lat="42.295322" lon="3.190634">
        <ele>134</ele>
        <time>1970-01-01T01:48:04.000Z</time>
      </trkpt>
      <trkpt lat="42.295344" lon="3.190688">
        <ele>134</ele>
        <time>1970-01-01T01:48:05.000Z</time>
      </trkpt>
      <trkpt lat="42.295356" lon="3.190711">
        <ele>134</ele>
        <time>1970-01-01T01:48:06.000Z</time>
      </trkpt>
      <trkpt lat="42.295369" lon="3.190735">
        <ele>134</ele>
        <time>1970-01-01T01:48:07.000Z</time>
      </trkpt>
      <trkpt lat="42.295382" lon="3.190759">
        <ele>134</ele>
        <time>1970-01-01T01:48:08.000Z</time>
      </trkpt>
      <trkpt lat="42.295395" lon="3.190782">
        <ele>134</ele>
        <time>1970-01-01T01:48:09.000Z</time>
      </trkpt>
      <trkpt lat="42.295407" lon="3.190806">
        <ele>134</ele>
        <time>1970-01-01T01:48:10.000Z</time>
      </trkpt>
      <trkpt lat="42.29542" lon="3.19083">
        <ele>134</ele>
        <time>1970-01-01T01:48:11.000Z</time>
      </trkpt>
      <trkpt lat="42.295433" lon="3.190854">
        <ele>134</ele>
        <time>1970-01-01T01:48:12.000Z</time>
      </trkpt>
      <trkpt lat="42.295445" lon="3.190877">
        <ele>134</ele>
        <time>1970-01-01T01:48:13.000Z</time>
      </trkpt>
      <trkpt lat="42.295458" lon="3.190901">
        <ele>136</ele>
        <time>1970-01-01T01:48:14.000Z</time>
      </trkpt>
      <trkpt lat="42.295494" lon="3.190944">
        <ele>136</ele>
        <time>1970-01-01T01:48:15.000Z</time>
      </trkpt>
      <trkpt lat="42.295511" lon="3.190963">
        <ele>136</ele>
        <time>1970-01-01T01:48:16.000Z</time>
      </trkpt>
      <trkpt lat="42.295529" lon="3.190982">
        <ele>136</ele>
        <time>1970-01-01T01:48:17.000Z</time>
      </trkpt>
      <trkpt lat="42.295547" lon="3.191001">
        <ele>136</ele>
        <time>1970-01-01T01:48:18.000Z</time>
      </trkpt>
      <trkpt lat="42.295565" lon="3.191019">
        <ele>136</ele>
        <time>1970-01-01T01:48:19.000Z</time>
      </trkpt>
      <trkpt lat="42.295582" lon="3.191038">
        <ele>136</ele>
        <time>1970-01-01T01:48:20.000Z</time>
      </trkpt>
      <trkpt lat="42.2956" lon="3.191057">
        <ele>136</ele>
        <time>1970-01-01T01:48:21.000Z</time>
      </trkpt>
      <trkpt lat="42.295618" lon="3.191076">
        <ele>136</ele>
        <time>1970-01-01T01:48:22.000Z</time>
      </trkpt>
      <trkpt lat="42.295635" lon="3.191095">
        <ele>136</ele>
        <time>1970-01-01T01:48:23.000Z</time>
      </trkpt>
      <trkpt lat="42.295653" lon="3.191114">
        <ele>138</ele>
        <time>1970-01-01T01:48:24.000Z</time>
      </trkpt>
      <trkpt lat="42.295688" lon="3.191154">
        <ele>138</ele>
        <time>1970-01-01T01:48:25.000Z</time>
      </trkpt>
      <trkpt lat="42.295704" lon="3.191174">
        <ele>138</ele>
        <time>1970-01-01T01:48:26.000Z</time>
      </trkpt>
      <trkpt lat="42.295721" lon="3.191193">
        <ele>138</ele>
        <time>1970-01-01T01:48:27.000Z</time>
      </trkpt>
      <trkpt lat="42.295737" lon="3.191213">
        <ele>138</ele>
        <time>1970-01-01T01:48:28.000Z</time>
      </trkpt>
      <trkpt lat="42.295753" lon="3.191232">
        <ele>138</ele>
        <time>1970-01-01T01:48:29.000Z</time>
      </trkpt>
      <trkpt lat="42.295769" lon="3.191252">
        <ele>138</ele>
        <time>1970-01-01T01:48:30.000Z</time>
      </trkpt>
      <trkpt lat="42.295785" lon="3.191271">
        <ele>138</ele>
        <time>1970-01-01T01:48:31.000Z</time>
      </trkpt>
      <trkpt lat="42.295802" lon="3.191291">
        <ele>138</ele>
        <time>1970-01-01T01:48:32.000Z</time>
      </trkpt>
      <trkpt lat="42.295818" lon="3.19131">
        <ele>138</ele>
        <time>1970-01-01T01:48:33.000Z</time>
      </trkpt>
      <trkpt lat="42.295834" lon="3.19133">
        <ele>141</ele>
        <time>1970-01-01T01:48:34.000Z</time>
      </trkpt>
      <trkpt lat="42.295866" lon="3.191377">
        <ele>141</ele>
        <time>1970-01-01T01:48:35.000Z</time>
      </trkpt>
      <trkpt lat="42.29588" lon="3.191399">
        <ele>141</ele>
        <time>1970-01-01T01:48:36.000Z</time>
      </trkpt>
      <trkpt lat="42.295895" lon="3.191421">
        <ele>141</ele>
        <time>1970-01-01T01:48:37.000Z</time>
      </trkpt>
      <trkpt lat="42.29591" lon="3.191443">
        <ele>141</ele>
        <time>1970-01-01T01:48:38.000Z</time>
      </trkpt>
      <trkpt lat="42.295925" lon="3.191465">
        <ele>141</ele>
        <time>1970-01-01T01:48:39.000Z</time>
      </trkpt>
      <trkpt lat="42.295939" lon="3.191488">
        <ele>141</ele>
        <time>1970-01-01T01:48:40.000Z</time>
      </trkpt>
      <trkpt lat="42.295954" lon="3.19151">
        <ele>141</ele>
        <time>1970-01-01T01:48:41.000Z</time>
      </trkpt>
      <trkpt lat="42.295969" lon="3.191532">
        <ele>141</ele>
        <time>1970-01-01T01:48:42.000Z</time>
      </trkpt>
      <trkpt lat="42.295984" lon="3.191554">
        <ele>141</ele>
        <time>1970-01-01T01:48:43.000Z</time>
      </trkpt>
      <trkpt lat="42.295998" lon="3.191576">
        <ele>141</ele>
        <time>1970-01-01T01:48:44.000Z</time>
      </trkpt>
      <trkpt lat="42.296013" lon="3.191598">
        <ele>143</ele>
        <time>1970-01-01T01:48:45.000Z</time>
      </trkpt>
      <trkpt lat="42.29604" lon="3.191645">
        <ele>143</ele>
        <time>1970-01-01T01:48:46.000Z</time>
      </trkpt>
      <trkpt lat="42.296053" lon="3.191667">
        <ele>143</ele>
        <time>1970-01-01T01:48:47.000Z</time>
      </trkpt>
      <trkpt lat="42.296065" lon="3.19169">
        <ele>143</ele>
        <time>1970-01-01T01:48:48.000Z</time>
      </trkpt>
      <trkpt lat="42.296078" lon="3.191712">
        <ele>143</ele>
        <time>1970-01-01T01:48:49.000Z</time>
      </trkpt>
      <trkpt lat="42.29609" lon="3.191734">
        <ele>143</ele>
        <time>1970-01-01T01:48:50.000Z</time>
      </trkpt>
      <trkpt lat="42.296103" lon="3.191756">
        <ele>143</ele>
        <time>1970-01-01T01:48:51.000Z</time>
      </trkpt>
      <trkpt lat="42.296115" lon="3.191779">
        <ele>143</ele>
        <time>1970-01-01T01:48:52.000Z</time>
      </trkpt>
      <trkpt lat="42.296128" lon="3.191801">
        <ele>143</ele>
        <time>1970-01-01T01:48:53.000Z</time>
      </trkpt>
      <trkpt lat="42.29614" lon="3.191823">
        <ele>144</ele>
        <time>1970-01-01T01:48:54.000Z</time>
      </trkpt>
      <trkpt lat="42.296167" lon="3.191871">
        <ele>144</ele>
        <time>1970-01-01T01:48:55.000Z</time>
      </trkpt>
      <trkpt lat="42.296181" lon="3.191893">
        <ele>144</ele>
        <time>1970-01-01T01:48:56.000Z</time>
      </trkpt>
      <trkpt lat="42.296194" lon="3.191915">
        <ele>144</ele>
        <time>1970-01-01T01:48:57.000Z</time>
      </trkpt>
      <trkpt lat="42.296208" lon="3.191937">
        <ele>144</ele>
        <time>1970-01-01T01:48:58.000Z</time>
      </trkpt>
      <trkpt lat="42.296222" lon="3.191959">
        <ele>144</ele>
        <time>1970-01-01T01:48:59.000Z</time>
      </trkpt>
      <trkpt lat="42.296236" lon="3.191982">
        <ele>144</ele>
        <time>1970-01-01T01:49:00.000Z</time>
      </trkpt>
      <trkpt lat="42.29625" lon="3.192004">
        <ele>144</ele>
        <time>1970-01-01T01:49:01.000Z</time>
      </trkpt>
      <trkpt lat="42.296263" lon="3.192026">
        <ele>144</ele>
        <time>1970-01-01T01:49:02.000Z</time>
      </trkpt>
      <trkpt lat="42.296277" lon="3.192048">
        <ele>144</ele>
        <time>1970-01-01T01:49:03.000Z</time>
      </trkpt>
      <trkpt lat="42.296291" lon="3.19207">
        <ele>146</ele>
        <time>1970-01-01T01:49:04.000Z</time>
      </trkpt>
      <trkpt lat="42.296322" lon="3.192113">
        <ele>146</ele>
        <time>1970-01-01T01:49:05.000Z</time>
      </trkpt>
      <trkpt lat="42.296336" lon="3.192134">
        <ele>146</ele>
        <time>1970-01-01T01:49:06.000Z</time>
      </trkpt>
      <trkpt lat="42.296351" lon="3.192154">
        <ele>146</ele>
        <time>1970-01-01T01:49:07.000Z</time>
      </trkpt>
      <trkpt lat="42.296365" lon="3.192175">
        <ele>146</ele>
        <time>1970-01-01T01:49:08.000Z</time>
      </trkpt>
      <trkpt lat="42.29638" lon="3.192195">
        <ele>146</ele>
        <time>1970-01-01T01:49:09.000Z</time>
      </trkpt>
      <trkpt lat="42.296395" lon="3.192216">
        <ele>146</ele>
        <time>1970-01-01T01:49:10.000Z</time>
      </trkpt>
      <trkpt lat="42.296409" lon="3.192236">
        <ele>146</ele>
        <time>1970-01-01T01:49:11.000Z</time>
      </trkpt>
      <trkpt lat="42.296424" lon="3.192257">
        <ele>146</ele>
        <time>1970-01-01T01:49:12.000Z</time>
      </trkpt>
      <trkpt lat="42.296438" lon="3.192277">
        <ele>146</ele>
        <time>1970-01-01T01:49:13.000Z</time>
      </trkpt>
      <trkpt lat="42.296453" lon="3.192298">
        <ele>147</ele>
        <time>1970-01-01T01:49:14.000Z</time>
      </trkpt>
      <trkpt lat="42.29648" lon="3.192345">
        <ele>147</ele>
        <time>1970-01-01T01:49:15.000Z</time>
      </trkpt>
      <trkpt lat="42.29649" lon="3.19237">
        <ele>147</ele>
        <time>1970-01-01T01:49:16.000Z</time>
      </trkpt>
      <trkpt lat="42.2965" lon="3.192396">
        <ele>147</ele>
        <time>1970-01-01T01:49:17.000Z</time>
      </trkpt>
      <trkpt lat="42.29651" lon="3.192421">
        <ele>147</ele>
        <time>1970-01-01T01:49:18.000Z</time>
      </trkpt>
      <trkpt lat="42.29652" lon="3.192446">
        <ele>147</ele>
        <time>1970-01-01T01:49:19.000Z</time>
      </trkpt>
      <trkpt lat="42.29653" lon="3.192471">
        <ele>147</ele>
        <time>1970-01-01T01:49:20.000Z</time>
      </trkpt>
      <trkpt lat="42.29654" lon="3.192496">
        <ele>147</ele>
        <time>1970-01-01T01:49:21.000Z</time>
      </trkpt>
      <trkpt lat="42.29655" lon="3.192521">
        <ele>147</ele>
        <time>1970-01-01T01:49:22.000Z</time>
      </trkpt>
      <trkpt lat="42.29656" lon="3.192547">
        <ele>147</ele>
        <time>1970-01-01T01:49:23.000Z</time>
      </trkpt>
      <trkpt lat="42.29657" lon="3.192572">
        <ele>147</ele>
        <time>1970-01-01T01:49:24.000Z</time>
      </trkpt>
      <trkpt lat="42.29658" lon="3.192597">
        <ele>149</ele>
        <time>1970-01-01T01:49:25.000Z</time>
      </trkpt>
      <trkpt lat="42.296561" lon="3.192642">
        <ele>149</ele>
        <time>1970-01-01T01:49:26.000Z</time>
      </trkpt>
      <trkpt lat="42.296543" lon="3.192654">
        <ele>149</ele>
        <time>1970-01-01T01:49:27.000Z</time>
      </trkpt>
      <trkpt lat="42.296526" lon="3.192666">
        <ele>149</ele>
        <time>1970-01-01T01:49:28.000Z</time>
      </trkpt>
      <trkpt lat="42.296508" lon="3.192678">
        <ele>149</ele>
        <time>1970-01-01T01:49:29.000Z</time>
      </trkpt>
      <trkpt lat="42.296491" lon="3.192691">
        <ele>149</ele>
        <time>1970-01-01T01:49:30.000Z</time>
      </trkpt>
      <trkpt lat="42.296473" lon="3.192703">
        <ele>149</ele>
        <time>1970-01-01T01:49:31.000Z</time>
      </trkpt>
      <trkpt lat="42.296456" lon="3.192715">
        <ele>149</ele>
        <time>1970-01-01T01:49:32.000Z</time>
      </trkpt>
      <trkpt lat="42.296438" lon="3.192727">
        <ele>149</ele>
        <time>1970-01-01T01:49:33.000Z</time>
      </trkpt>
      <trkpt lat="42.296421" lon="3.192739">
        <ele>150</ele>
        <time>1970-01-01T01:49:34.000Z</time>
      </trkpt>
      <trkpt lat="42.296372" lon="3.192722">
        <ele>150</ele>
        <time>1970-01-01T01:49:35.000Z</time>
      </trkpt>
      <trkpt lat="42.29635" lon="3.192712">
        <ele>150</ele>
        <time>1970-01-01T01:49:36.000Z</time>
      </trkpt>
      <trkpt lat="42.296327" lon="3.192701">
        <ele>150</ele>
        <time>1970-01-01T01:49:37.000Z</time>
      </trkpt>
      <trkpt lat="42.296304" lon="3.192691">
        <ele>150</ele>
        <time>1970-01-01T01:49:38.000Z</time>
      </trkpt>
      <trkpt lat="42.296282" lon="3.192681">
        <ele>150</ele>
        <time>1970-01-01T01:49:39.000Z</time>
      </trkpt>
      <trkpt lat="42.296259" lon="3.192671">
        <ele>150</ele>
        <time>1970-01-01T01:49:40.000Z</time>
      </trkpt>
      <trkpt lat="42.296236" lon="3.192661">
        <ele>150</ele>
        <time>1970-01-01T01:49:41.000Z</time>
      </trkpt>
      <trkpt lat="42.296213" lon="3.19265">
        <ele>150</ele>
        <time>1970-01-01T01:49:42.000Z</time>
      </trkpt>
      <trkpt lat="42.296191" lon="3.19264">
        <ele>150</ele>
        <time>1970-01-01T01:49:43.000Z</time>
      </trkpt>
      <trkpt lat="42.296168" lon="3.19263">
        <ele>151</ele>
        <time>1970-01-01T01:49:44.000Z</time>
      </trkpt>
      <trkpt lat="42.296118" lon="3.192621">
        <ele>151</ele>
        <time>1970-01-01T01:49:45.000Z</time>
      </trkpt>
      <trkpt lat="42.296095" lon="3.192618">
        <ele>151</ele>
        <time>1970-01-01T01:49:46.000Z</time>
      </trkpt>
      <trkpt lat="42.296071" lon="3.192616">
        <ele>151</ele>
        <time>1970-01-01T01:49:47.000Z</time>
      </trkpt>
      <trkpt lat="42.296047" lon="3.192614">
        <ele>151</ele>
        <time>1970-01-01T01:49:48.000Z</time>
      </trkpt>
      <trkpt lat="42.296024" lon="3.192611">
        <ele>151</ele>
        <time>1970-01-01T01:49:49.000Z</time>
      </trkpt>
      <trkpt lat="42.296" lon="3.192609">
        <ele>151</ele>
        <time>1970-01-01T01:49:50.000Z</time>
      </trkpt>
      <trkpt lat="42.295976" lon="3.192607">
        <ele>151</ele>
        <time>1970-01-01T01:49:51.000Z</time>
      </trkpt>
      <trkpt lat="42.295952" lon="3.192605">
        <ele>151</ele>
        <time>1970-01-01T01:49:52.000Z</time>
      </trkpt>
      <trkpt lat="42.295929" lon="3.192602">
        <ele>151</ele>
        <time>1970-01-01T01:49:53.000Z</time>
      </trkpt>
      <trkpt lat="42.295905" lon="3.1926">
        <ele>153</ele>
        <time>1970-01-01T01:49:54.000Z</time>
      </trkpt>
      <trkpt lat="42.29585" lon="3.192597">
        <ele>153</ele>
        <time>1970-01-01T01:49:55.000Z</time>
      </trkpt>
      <trkpt lat="42.295823" lon="3.192595">
        <ele>153</ele>
        <time>1970-01-01T01:49:56.000Z</time>
      </trkpt>
      <trkpt lat="42.295796" lon="3.192594">
        <ele>153</ele>
        <time>1970-01-01T01:49:57.000Z</time>
      </trkpt>
      <trkpt lat="42.295769" lon="3.192593">
        <ele>153</ele>
        <time>1970-01-01T01:49:58.000Z</time>
      </trkpt>
      <trkpt lat="42.295742" lon="3.192591">
        <ele>153</ele>
        <time>1970-01-01T01:49:59.000Z</time>
      </trkpt>
      <trkpt lat="42.295714" lon="3.19259">
        <ele>153</ele>
        <time>1970-01-01T01:50:00.000Z</time>
      </trkpt>
      <trkpt lat="42.295687" lon="3.192589">
        <ele>153</ele>
        <time>1970-01-01T01:50:01.000Z</time>
      </trkpt>
      <trkpt lat="42.29566" lon="3.192588">
        <ele>153</ele>
        <time>1970-01-01T01:50:02.000Z</time>
      </trkpt>
      <trkpt lat="42.295633" lon="3.192586">
        <ele>153</ele>
        <time>1970-01-01T01:50:03.000Z</time>
      </trkpt>
      <trkpt lat="42.295606" lon="3.192585">
        <ele>154</ele>
        <time>1970-01-01T01:50:04.000Z</time>
      </trkpt>
      <trkpt lat="42.295549" lon="3.192585">
        <ele>154</ele>
        <time>1970-01-01T01:50:05.000Z</time>
      </trkpt>
      <trkpt lat="42.295523" lon="3.192584">
        <ele>154</ele>
        <time>1970-01-01T01:50:06.000Z</time>
      </trkpt>
      <trkpt lat="42.295498" lon="3.192584">
        <ele>154</ele>
        <time>1970-01-01T01:50:07.000Z</time>
      </trkpt>
      <trkpt lat="42.295472" lon="3.192584">
        <ele>154</ele>
        <time>1970-01-01T01:50:08.000Z</time>
      </trkpt>
      <trkpt lat="42.295446" lon="3.192583">
        <ele>154</ele>
        <time>1970-01-01T01:50:09.000Z</time>
      </trkpt>
      <trkpt lat="42.29542" lon="3.192583">
        <ele>154</ele>
        <time>1970-01-01T01:50:10.000Z</time>
      </trkpt>
      <trkpt lat="42.295394" lon="3.192583">
        <ele>154</ele>
        <time>1970-01-01T01:50:11.000Z</time>
      </trkpt>
      <trkpt lat="42.295369" lon="3.192583">
        <ele>154</ele>
        <time>1970-01-01T01:50:12.000Z</time>
      </trkpt>
      <trkpt lat="42.295343" lon="3.192582">
        <ele>154</ele>
        <time>1970-01-01T01:50:13.000Z</time>
      </trkpt>
      <trkpt lat="42.295317" lon="3.192582">
        <ele>155</ele>
        <time>1970-01-01T01:50:14.000Z</time>
      </trkpt>
      <trkpt lat="42.295267" lon="3.192589">
        <ele>155</ele>
        <time>1970-01-01T01:50:15.000Z</time>
      </trkpt>
      <trkpt lat="42.295243" lon="3.192595">
        <ele>155</ele>
        <time>1970-01-01T01:50:16.000Z</time>
      </trkpt>
      <trkpt lat="42.29522" lon="3.192601">
        <ele>155</ele>
        <time>1970-01-01T01:50:17.000Z</time>
      </trkpt>
      <trkpt lat="42.295196" lon="3.192607">
        <ele>155</ele>
        <time>1970-01-01T01:50:18.000Z</time>
      </trkpt>
      <trkpt lat="42.295173" lon="3.192613">
        <ele>155</ele>
        <time>1970-01-01T01:50:19.000Z</time>
      </trkpt>
      <trkpt lat="42.29515" lon="3.192618">
        <ele>155</ele>
        <time>1970-01-01T01:50:20.000Z</time>
      </trkpt>
      <trkpt lat="42.295126" lon="3.192624">
        <ele>155</ele>
        <time>1970-01-01T01:50:21.000Z</time>
      </trkpt>
      <trkpt lat="42.295103" lon="3.19263">
        <ele>155</ele>
        <time>1970-01-01T01:50:22.000Z</time>
      </trkpt>
      <trkpt lat="42.295079" lon="3.192636">
        <ele>155</ele>
        <time>1970-01-01T01:50:23.000Z</time>
      </trkpt>
      <trkpt lat="42.295056" lon="3.192642">
        <ele>157</ele>
        <time>1970-01-01T01:50:24.000Z</time>
      </trkpt>
      <trkpt lat="42.295008" lon="3.192657">
        <ele>157</ele>
        <time>1970-01-01T01:50:25.000Z</time>
      </trkpt>
      <trkpt lat="42.294985" lon="3.192665">
        <ele>157</ele>
        <time>1970-01-01T01:50:26.000Z</time>
      </trkpt>
      <trkpt lat="42.294961" lon="3.192672">
        <ele>157</ele>
        <time>1970-01-01T01:50:27.000Z</time>
      </trkpt>
      <trkpt lat="42.294938" lon="3.19268">
        <ele>157</ele>
        <time>1970-01-01T01:50:28.000Z</time>
      </trkpt>
      <trkpt lat="42.294915" lon="3.192687">
        <ele>157</ele>
        <time>1970-01-01T01:50:29.000Z</time>
      </trkpt>
      <trkpt lat="42.294892" lon="3.192694">
        <ele>157</ele>
        <time>1970-01-01T01:50:30.000Z</time>
      </trkpt>
      <trkpt lat="42.294869" lon="3.192702">
        <ele>157</ele>
        <time>1970-01-01T01:50:31.000Z</time>
      </trkpt>
      <trkpt lat="42.294845" lon="3.192709">
        <ele>157</ele>
        <time>1970-01-01T01:50:32.000Z</time>
      </trkpt>
      <trkpt lat="42.294822" lon="3.192717">
        <ele>157</ele>
        <time>1970-01-01T01:50:33.000Z</time>
      </trkpt>
      <trkpt lat="42.294799" lon="3.192724">
        <ele>159</ele>
        <time>1970-01-01T01:50:34.000Z</time>
      </trkpt>
      <trkpt lat="42.294747" lon="3.192739">
        <ele>159</ele>
        <time>1970-01-01T01:50:35.000Z</time>
      </trkpt>
      <trkpt lat="42.294723" lon="3.192746">
        <ele>159</ele>
        <time>1970-01-01T01:50:36.000Z</time>
      </trkpt>
      <trkpt lat="42.294699" lon="3.192754">
        <ele>159</ele>
        <time>1970-01-01T01:50:37.000Z</time>
      </trkpt>
      <trkpt lat="42.294675" lon="3.192762">
        <ele>159</ele>
        <time>1970-01-01T01:50:38.000Z</time>
      </trkpt>
      <trkpt lat="42.294651" lon="3.19277">
        <ele>159</ele>
        <time>1970-01-01T01:50:39.000Z</time>
      </trkpt>
      <trkpt lat="42.294626" lon="3.192777">
        <ele>159</ele>
        <time>1970-01-01T01:50:40.000Z</time>
      </trkpt>
      <trkpt lat="42.294602" lon="3.192785">
        <ele>159</ele>
        <time>1970-01-01T01:50:41.000Z</time>
      </trkpt>
      <trkpt lat="42.294578" lon="3.192793">
        <ele>159</ele>
        <time>1970-01-01T01:50:42.000Z</time>
      </trkpt>
      <trkpt lat="42.294554" lon="3.1928">
        <ele>159</ele>
        <time>1970-01-01T01:50:43.000Z</time>
      </trkpt>
      <trkpt lat="42.29453" lon="3.192808">
        <ele>160</ele>
        <time>1970-01-01T01:50:44.000Z</time>
      </trkpt>
      <trkpt lat="42.294475" lon="3.192824">
        <ele>160</ele>
        <time>1970-01-01T01:50:45.000Z</time>
      </trkpt>
      <trkpt lat="42.294449" lon="3.192832">
        <ele>160</ele>
        <time>1970-01-01T01:50:46.000Z</time>
      </trkpt>
      <trkpt lat="42.294423" lon="3.19284">
        <ele>160</ele>
        <time>1970-01-01T01:50:47.000Z</time>
      </trkpt>
      <trkpt lat="42.294397" lon="3.192848">
        <ele>160</ele>
        <time>1970-01-01T01:50:48.000Z</time>
      </trkpt>
      <trkpt lat="42.294372" lon="3.192856">
        <ele>160</ele>
        <time>1970-01-01T01:50:49.000Z</time>
      </trkpt>
      <trkpt lat="42.294346" lon="3.192863">
        <ele>160</ele>
        <time>1970-01-01T01:50:50.000Z</time>
      </trkpt>
      <trkpt lat="42.29432" lon="3.192871">
        <ele>160</ele>
        <time>1970-01-01T01:50:51.000Z</time>
      </trkpt>
      <trkpt lat="42.294294" lon="3.192879">
        <ele>160</ele>
        <time>1970-01-01T01:50:52.000Z</time>
      </trkpt>
      <trkpt lat="42.294268" lon="3.192887">
        <ele>160</ele>
        <time>1970-01-01T01:50:53.000Z</time>
      </trkpt>
      <trkpt lat="42.294242" lon="3.192895">
        <ele>162</ele>
        <time>1970-01-01T01:50:54.000Z</time>
      </trkpt>
      <trkpt lat="42.294196" lon="3.192923">
        <ele>162</ele>
        <time>1970-01-01T01:50:55.000Z</time>
      </trkpt>
      <trkpt lat="42.294177" lon="3.19294">
        <ele>162</ele>
        <time>1970-01-01T01:50:56.000Z</time>
      </trkpt>
      <trkpt lat="42.294157" lon="3.192956">
        <ele>162</ele>
        <time>1970-01-01T01:50:57.000Z</time>
      </trkpt>
      <trkpt lat="42.294137" lon="3.192973">
        <ele>162</ele>
        <time>1970-01-01T01:50:58.000Z</time>
      </trkpt>
      <trkpt lat="42.294118" lon="3.19299">
        <ele>162</ele>
        <time>1970-01-01T01:50:59.000Z</time>
      </trkpt>
      <trkpt lat="42.294098" lon="3.193007">
        <ele>162</ele>
        <time>1970-01-01T01:51:00.000Z</time>
      </trkpt>
      <trkpt lat="42.294078" lon="3.193024">
        <ele>162</ele>
        <time>1970-01-01T01:51:01.000Z</time>
      </trkpt>
      <trkpt lat="42.294058" lon="3.19304">
        <ele>162</ele>
        <time>1970-01-01T01:51:02.000Z</time>
      </trkpt>
      <trkpt lat="42.294039" lon="3.193057">
        <ele>162</ele>
        <time>1970-01-01T01:51:03.000Z</time>
      </trkpt>
      <trkpt lat="42.294019" lon="3.193074">
        <ele>166</ele>
        <time>1970-01-01T01:51:04.000Z</time>
      </trkpt>
      <trkpt lat="42.29399" lon="3.19313">
        <ele>166</ele>
        <time>1970-01-01T01:51:05.000Z</time>
      </trkpt>
      <trkpt lat="42.293978" lon="3.193158">
        <ele>166</ele>
        <time>1970-01-01T01:51:06.000Z</time>
      </trkpt>
      <trkpt lat="42.293967" lon="3.193186">
        <ele>166</ele>
        <time>1970-01-01T01:51:07.000Z</time>
      </trkpt>
      <trkpt lat="42.293955" lon="3.193214">
        <ele>166</ele>
        <time>1970-01-01T01:51:08.000Z</time>
      </trkpt>
      <trkpt lat="42.293944" lon="3.193242">
        <ele>166</ele>
        <time>1970-01-01T01:51:09.000Z</time>
      </trkpt>
      <trkpt lat="42.293932" lon="3.193269">
        <ele>166</ele>
        <time>1970-01-01T01:51:10.000Z</time>
      </trkpt>
      <trkpt lat="42.293921" lon="3.193297">
        <ele>166</ele>
        <time>1970-01-01T01:51:11.000Z</time>
      </trkpt>
      <trkpt lat="42.293909" lon="3.193325">
        <ele>166</ele>
        <time>1970-01-01T01:51:12.000Z</time>
      </trkpt>
      <trkpt lat="42.293898" lon="3.193353">
        <ele>166</ele>
        <time>1970-01-01T01:51:13.000Z</time>
      </trkpt>
      <trkpt lat="42.293886" lon="3.193381">
        <ele>166</ele>
        <time>1970-01-01T01:51:14.000Z</time>
      </trkpt>
      <trkpt lat="42.293875" lon="3.193409">
        <ele>167</ele>
        <time>1970-01-01T01:51:15.000Z</time>
      </trkpt>
      <trkpt lat="42.293862" lon="3.193472">
        <ele>167</ele>
        <time>1970-01-01T01:51:16.000Z</time>
      </trkpt>
      <trkpt lat="42.293857" lon="3.193501">
        <ele>167</ele>
        <time>1970-01-01T01:51:17.000Z</time>
      </trkpt>
      <trkpt lat="42.293852" lon="3.193531">
        <ele>167</ele>
        <time>1970-01-01T01:51:18.000Z</time>
      </trkpt>
      <trkpt lat="42.293847" lon="3.19356">
        <ele>167</ele>
        <time>1970-01-01T01:51:19.000Z</time>
      </trkpt>
      <trkpt lat="42.293843" lon="3.193589">
        <ele>167</ele>
        <time>1970-01-01T01:51:20.000Z</time>
      </trkpt>
      <trkpt lat="42.293838" lon="3.193618">
        <ele>167</ele>
        <time>1970-01-01T01:51:21.000Z</time>
      </trkpt>
      <trkpt lat="42.293833" lon="3.193648">
        <ele>167</ele>
        <time>1970-01-01T01:51:22.000Z</time>
      </trkpt>
      <trkpt lat="42.293828" lon="3.193677">
        <ele>167</ele>
        <time>1970-01-01T01:51:23.000Z</time>
      </trkpt>
      <trkpt lat="42.293823" lon="3.193706">
        <ele>167</ele>
        <time>1970-01-01T01:51:24.000Z</time>
      </trkpt>
      <trkpt lat="42.293823" lon="3.193768">
        <ele>167</ele>
        <time>1970-01-01T01:51:25.000Z</time>
      </trkpt>
      <trkpt lat="42.293826" lon="3.193798">
        <ele>167</ele>
        <time>1970-01-01T01:51:26.000Z</time>
      </trkpt>
      <trkpt lat="42.293828" lon="3.193829">
        <ele>167</ele>
        <time>1970-01-01T01:51:27.000Z</time>
      </trkpt>
      <trkpt lat="42.293831" lon="3.193859">
        <ele>167</ele>
        <time>1970-01-01T01:51:28.000Z</time>
      </trkpt>
      <trkpt lat="42.293834" lon="3.193889">
        <ele>167</ele>
        <time>1970-01-01T01:51:29.000Z</time>
      </trkpt>
      <trkpt lat="42.293837" lon="3.193919">
        <ele>167</ele>
        <time>1970-01-01T01:51:30.000Z</time>
      </trkpt>
      <trkpt lat="42.29384" lon="3.193949">
        <ele>167</ele>
        <time>1970-01-01T01:51:31.000Z</time>
      </trkpt>
      <trkpt lat="42.293843" lon="3.193979">
        <ele>167</ele>
        <time>1970-01-01T01:51:32.000Z</time>
      </trkpt>
      <trkpt lat="42.293845" lon="3.19401">
        <ele>167</ele>
        <time>1970-01-01T01:51:33.000Z</time>
      </trkpt>
      <trkpt lat="42.293848" lon="3.19404">
        <ele>167</ele>
        <time>1970-01-01T01:51:34.000Z</time>
      </trkpt>
      <trkpt lat="42.293851" lon="3.19407">
        <ele>168</ele>
        <time>1970-01-01T01:51:35.000Z</time>
      </trkpt>
      <trkpt lat="42.293863" lon="3.194133">
        <ele>168</ele>
        <time>1970-01-01T01:51:36.000Z</time>
      </trkpt>
      <trkpt lat="42.29387" lon="3.19416">
        <ele>168</ele>
        <time>1970-01-01T01:51:37.000Z</time>
      </trkpt>
      <trkpt lat="42.293876" lon="3.194188">
        <ele>168</ele>
        <time>1970-01-01T01:51:38.000Z</time>
      </trkpt>
      <trkpt lat="42.293883" lon="3.194216">
        <ele>168</ele>
        <time>1970-01-01T01:51:39.000Z</time>
      </trkpt>
      <trkpt lat="42.29389" lon="3.194243">
        <ele>168</ele>
        <time>1970-01-01T01:51:40.000Z</time>
      </trkpt>
      <trkpt lat="42.293897" lon="3.194271">
        <ele>168</ele>
        <time>1970-01-01T01:51:41.000Z</time>
      </trkpt>
      <trkpt lat="42.293903" lon="3.194299">
        <ele>168</ele>
        <time>1970-01-01T01:51:42.000Z</time>
      </trkpt>
      <trkpt lat="42.29391" lon="3.194326">
        <ele>168</ele>
        <time>1970-01-01T01:51:43.000Z</time>
      </trkpt>
      <trkpt lat="42.293917" lon="3.194354">
        <ele>171</ele>
        <time>1970-01-01T01:51:44.000Z</time>
      </trkpt>
      <trkpt lat="42.29394" lon="3.194409">
        <ele>171</ele>
        <time>1970-01-01T01:51:45.000Z</time>
      </trkpt>
      <trkpt lat="42.293955" lon="3.194435">
        <ele>171</ele>
        <time>1970-01-01T01:51:46.000Z</time>
      </trkpt>
      <trkpt lat="42.293969" lon="3.19446">
        <ele>171</ele>
        <time>1970-01-01T01:51:47.000Z</time>
      </trkpt>
      <trkpt lat="42.293984" lon="3.194485">
        <ele>171</ele>
        <time>1970-01-01T01:51:48.000Z</time>
      </trkpt>
      <trkpt lat="42.293998" lon="3.19451">
        <ele>171</ele>
        <time>1970-01-01T01:51:49.000Z</time>
      </trkpt>
      <trkpt lat="42.294013" lon="3.194536">
        <ele>171</ele>
        <time>1970-01-01T01:51:50.000Z</time>
      </trkpt>
      <trkpt lat="42.294027" lon="3.194561">
        <ele>171</ele>
        <time>1970-01-01T01:51:51.000Z</time>
      </trkpt>
      <trkpt lat="42.294042" lon="3.194586">
        <ele>171</ele>
        <time>1970-01-01T01:51:52.000Z</time>
      </trkpt>
      <trkpt lat="42.294056" lon="3.194611">
        <ele>171</ele>
        <time>1970-01-01T01:51:53.000Z</time>
      </trkpt>
      <trkpt lat="42.294071" lon="3.194637">
        <ele>171</ele>
        <time>1970-01-01T01:51:54.000Z</time>
      </trkpt>
      <trkpt lat="42.294085" lon="3.194662">
        <ele>172</ele>
        <time>1970-01-01T01:51:55.000Z</time>
      </trkpt>
      <trkpt lat="42.294118" lon="3.194708">
        <ele>172</ele>
        <time>1970-01-01T01:51:56.000Z</time>
      </trkpt>
      <trkpt lat="42.294134" lon="3.194728">
        <ele>172</ele>
        <time>1970-01-01T01:51:57.000Z</time>
      </trkpt>
      <trkpt lat="42.294149" lon="3.194749">
        <ele>172</ele>
        <time>1970-01-01T01:51:58.000Z</time>
      </trkpt>
      <trkpt lat="42.294164" lon="3.194769">
        <ele>172</ele>
        <time>1970-01-01T01:51:59.000Z</time>
      </trkpt>
      <trkpt lat="42.29418" lon="3.194789">
        <ele>172</ele>
        <time>1970-01-01T01:52:00.000Z</time>
      </trkpt>
      <trkpt lat="42.294195" lon="3.194809">
        <ele>172</ele>
        <time>1970-01-01T01:52:01.000Z</time>
      </trkpt>
      <trkpt lat="42.29421" lon="3.19483">
        <ele>172</ele>
        <time>1970-01-01T01:52:02.000Z</time>
      </trkpt>
      <trkpt lat="42.294226" lon="3.19485">
        <ele>172</ele>
        <time>1970-01-01T01:52:03.000Z</time>
      </trkpt>
      <trkpt lat="42.294241" lon="3.19487">
        <ele>174</ele>
        <time>1970-01-01T01:52:04.000Z</time>
      </trkpt>
      <trkpt lat="42.294274" lon="3.194914">
        <ele>174</ele>
        <time>1970-01-01T01:52:05.000Z</time>
      </trkpt>
      <trkpt lat="42.294291" lon="3.194937">
        <ele>174</ele>
        <time>1970-01-01T01:52:06.000Z</time>
      </trkpt>
      <trkpt lat="42.294308" lon="3.194959">
        <ele>174</ele>
        <time>1970-01-01T01:52:07.000Z</time>
      </trkpt>
      <trkpt lat="42.294325" lon="3.194982">
        <ele>174</ele>
        <time>1970-01-01T01:52:08.000Z</time>
      </trkpt>
      <trkpt lat="42.294342" lon="3.195004">
        <ele>174</ele>
        <time>1970-01-01T01:52:09.000Z</time>
      </trkpt>
      <trkpt lat="42.294359" lon="3.195027">
        <ele>174</ele>
        <time>1970-01-01T01:52:10.000Z</time>
      </trkpt>
      <trkpt lat="42.294376" lon="3.195049">
        <ele>174</ele>
        <time>1970-01-01T01:52:11.000Z</time>
      </trkpt>
      <trkpt lat="42.294393" lon="3.195072">
        <ele>174</ele>
        <time>1970-01-01T01:52:12.000Z</time>
      </trkpt>
      <trkpt lat="42.29441" lon="3.195094">
        <ele>174</ele>
        <time>1970-01-01T01:52:13.000Z</time>
      </trkpt>
      <trkpt lat="42.294427" lon="3.195117">
        <ele>174</ele>
        <time>1970-01-01T01:52:14.000Z</time>
      </trkpt>
      <trkpt lat="42.294444" lon="3.195139">
        <ele>175</ele>
        <time>1970-01-01T01:52:15.000Z</time>
      </trkpt>
      <trkpt lat="42.294483" lon="3.195188">
        <ele>175</ele>
        <time>1970-01-01T01:52:16.000Z</time>
      </trkpt>
      <trkpt lat="42.2945" lon="3.195212">
        <ele>175</ele>
        <time>1970-01-01T01:52:17.000Z</time>
      </trkpt>
      <trkpt lat="42.294516" lon="3.195235">
        <ele>175</ele>
        <time>1970-01-01T01:52:18.000Z</time>
      </trkpt>
      <trkpt lat="42.294533" lon="3.195259">
        <ele>175</ele>
        <time>1970-01-01T01:52:19.000Z</time>
      </trkpt>
      <trkpt lat="42.29455" lon="3.195282">
        <ele>175</ele>
        <time>1970-01-01T01:52:20.000Z</time>
      </trkpt>
      <trkpt lat="42.294567" lon="3.195306">
        <ele>175</ele>
        <time>1970-01-01T01:52:21.000Z</time>
      </trkpt>
      <trkpt lat="42.294583" lon="3.195329">
        <ele>175</ele>
        <time>1970-01-01T01:52:22.000Z</time>
      </trkpt>
      <trkpt lat="42.2946" lon="3.195353">
        <ele>175</ele>
        <time>1970-01-01T01:52:23.000Z</time>
      </trkpt>
      <trkpt lat="42.294617" lon="3.195376">
        <ele>177</ele>
        <time>1970-01-01T01:52:24.000Z</time>
      </trkpt>
      <trkpt lat="42.294656" lon="3.195426">
        <ele>177</ele>
        <time>1970-01-01T01:52:25.000Z</time>
      </trkpt>
      <trkpt lat="42.294676" lon="3.195449">
        <ele>177</ele>
        <time>1970-01-01T01:52:26.000Z</time>
      </trkpt>
      <trkpt lat="42.294696" lon="3.195473">
        <ele>177</ele>
        <time>1970-01-01T01:52:27.000Z</time>
      </trkpt>
      <trkpt lat="42.294716" lon="3.195496">
        <ele>177</ele>
        <time>1970-01-01T01:52:28.000Z</time>
      </trkpt>
      <trkpt lat="42.294736" lon="3.195519">
        <ele>177</ele>
        <time>1970-01-01T01:52:29.000Z</time>
      </trkpt>
      <trkpt lat="42.294756" lon="3.195542">
        <ele>177</ele>
        <time>1970-01-01T01:52:30.000Z</time>
      </trkpt>
      <trkpt lat="42.294776" lon="3.195565">
        <ele>177</ele>
        <time>1970-01-01T01:52:31.000Z</time>
      </trkpt>
      <trkpt lat="42.294796" lon="3.195589">
        <ele>177</ele>
        <time>1970-01-01T01:52:32.000Z</time>
      </trkpt>
      <trkpt lat="42.294816" lon="3.195612">
        <ele>177</ele>
        <time>1970-01-01T01:52:33.000Z</time>
      </trkpt>
      <trkpt lat="42.294836" lon="3.195635">
        <ele>180</ele>
        <time>1970-01-01T01:52:34.000Z</time>
      </trkpt>
      <trkpt lat="42.294882" lon="3.195674">
        <ele>180</ele>
        <time>1970-01-01T01:52:35.000Z</time>
      </trkpt>
      <trkpt lat="42.294905" lon="3.19569">
        <ele>180</ele>
        <time>1970-01-01T01:52:36.000Z</time>
      </trkpt>
      <trkpt lat="42.294928" lon="3.195706">
        <ele>180</ele>
        <time>1970-01-01T01:52:37.000Z</time>
      </trkpt>
      <trkpt lat="42.294951" lon="3.195722">
        <ele>180</ele>
        <time>1970-01-01T01:52:38.000Z</time>
      </trkpt>
      <trkpt lat="42.294974" lon="3.195738">
        <ele>180</ele>
        <time>1970-01-01T01:52:39.000Z</time>
      </trkpt>
      <trkpt lat="42.294996" lon="3.195754">
        <ele>180</ele>
        <time>1970-01-01T01:52:40.000Z</time>
      </trkpt>
      <trkpt lat="42.295019" lon="3.19577">
        <ele>180</ele>
        <time>1970-01-01T01:52:41.000Z</time>
      </trkpt>
      <trkpt lat="42.295042" lon="3.195786">
        <ele>180</ele>
        <time>1970-01-01T01:52:42.000Z</time>
      </trkpt>
      <trkpt lat="42.295065" lon="3.195802">
        <ele>180</ele>
        <time>1970-01-01T01:52:43.000Z</time>
      </trkpt>
      <trkpt lat="42.295088" lon="3.195818">
        <ele>181</ele>
        <time>1970-01-01T01:52:44.000Z</time>
      </trkpt>
      <trkpt lat="42.295136" lon="3.195845">
        <ele>181</ele>
        <time>1970-01-01T01:52:45.000Z</time>
      </trkpt>
      <trkpt lat="42.295158" lon="3.195858">
        <ele>181</ele>
        <time>1970-01-01T01:52:46.000Z</time>
      </trkpt>
      <trkpt lat="42.29518" lon="3.195871">
        <ele>181</ele>
        <time>1970-01-01T01:52:47.000Z</time>
      </trkpt>
      <trkpt lat="42.295202" lon="3.195884">
        <ele>181</ele>
        <time>1970-01-01T01:52:48.000Z</time>
      </trkpt>
      <trkpt lat="42.295224" lon="3.195896">
        <ele>181</ele>
        <time>1970-01-01T01:52:49.000Z</time>
      </trkpt>
      <trkpt lat="42.295245" lon="3.195909">
        <ele>181</ele>
        <time>1970-01-01T01:52:50.000Z</time>
      </trkpt>
      <trkpt lat="42.295267" lon="3.195922">
        <ele>181</ele>
        <time>1970-01-01T01:52:51.000Z</time>
      </trkpt>
      <trkpt lat="42.295289" lon="3.195935">
        <ele>181</ele>
        <time>1970-01-01T01:52:52.000Z</time>
      </trkpt>
      <trkpt lat="42.295311" lon="3.195948">
        <ele>181</ele>
        <time>1970-01-01T01:52:53.000Z</time>
      </trkpt>
      <trkpt lat="42.295333" lon="3.195961">
        <ele>184</ele>
        <time>1970-01-01T01:52:54.000Z</time>
      </trkpt>
      <trkpt lat="42.29538" lon="3.195988">
        <ele>184</ele>
        <time>1970-01-01T01:52:55.000Z</time>
      </trkpt>
      <trkpt lat="42.295403" lon="3.196001">
        <ele>184</ele>
        <time>1970-01-01T01:52:56.000Z</time>
      </trkpt>
      <trkpt lat="42.295425" lon="3.196013">
        <ele>184</ele>
        <time>1970-01-01T01:52:57.000Z</time>
      </trkpt>
      <trkpt lat="42.295448" lon="3.196026">
        <ele>184</ele>
        <time>1970-01-01T01:52:58.000Z</time>
      </trkpt>
      <trkpt lat="42.29547" lon="3.196039">
        <ele>184</ele>
        <time>1970-01-01T01:52:59.000Z</time>
      </trkpt>
      <trkpt lat="42.295492" lon="3.196052">
        <ele>184</ele>
        <time>1970-01-01T01:53:00.000Z</time>
      </trkpt>
      <trkpt lat="42.295515" lon="3.196065">
        <ele>184</ele>
        <time>1970-01-01T01:53:01.000Z</time>
      </trkpt>
      <trkpt lat="42.295537" lon="3.196077">
        <ele>184</ele>
        <time>1970-01-01T01:53:02.000Z</time>
      </trkpt>
      <trkpt lat="42.29556" lon="3.19609">
        <ele>184</ele>
        <time>1970-01-01T01:53:03.000Z</time>
      </trkpt>
      <trkpt lat="42.295582" lon="3.196103">
        <ele>186</ele>
        <time>1970-01-01T01:53:04.000Z</time>
      </trkpt>
      <trkpt lat="42.295629" lon="3.196129">
        <ele>186</ele>
        <time>1970-01-01T01:53:05.000Z</time>
      </trkpt>
      <trkpt lat="42.295651" lon="3.196143">
        <ele>186</ele>
        <time>1970-01-01T01:53:06.000Z</time>
      </trkpt>
      <trkpt lat="42.295674" lon="3.196156">
        <ele>186</ele>
        <time>1970-01-01T01:53:07.000Z</time>
      </trkpt>
      <trkpt lat="42.295697" lon="3.19617">
        <ele>186</ele>
        <time>1970-01-01T01:53:08.000Z</time>
      </trkpt>
      <trkpt lat="42.29572" lon="3.196183">
        <ele>186</ele>
        <time>1970-01-01T01:53:09.000Z</time>
      </trkpt>
      <trkpt lat="42.295742" lon="3.196196">
        <ele>186</ele>
        <time>1970-01-01T01:53:10.000Z</time>
      </trkpt>
      <trkpt lat="42.295765" lon="3.19621">
        <ele>186</ele>
        <time>1970-01-01T01:53:11.000Z</time>
      </trkpt>
      <trkpt lat="42.295788" lon="3.196223">
        <ele>186</ele>
        <time>1970-01-01T01:53:12.000Z</time>
      </trkpt>
      <trkpt lat="42.29581" lon="3.196237">
        <ele>186</ele>
        <time>1970-01-01T01:53:13.000Z</time>
      </trkpt>
      <trkpt lat="42.295833" lon="3.19625">
        <ele>188</ele>
        <time>1970-01-01T01:53:14.000Z</time>
      </trkpt>
      <trkpt lat="42.29587" lon="3.196292">
        <ele>188</ele>
        <time>1970-01-01T01:53:15.000Z</time>
      </trkpt>
      <trkpt lat="42.295882" lon="3.196316">
        <ele>188</ele>
        <time>1970-01-01T01:53:16.000Z</time>
      </trkpt>
      <trkpt lat="42.295894" lon="3.19634">
        <ele>188</ele>
        <time>1970-01-01T01:53:17.000Z</time>
      </trkpt>
      <trkpt lat="42.295906" lon="3.196364">
        <ele>188</ele>
        <time>1970-01-01T01:53:18.000Z</time>
      </trkpt>
      <trkpt lat="42.295919" lon="3.196387">
        <ele>188</ele>
        <time>1970-01-01T01:53:19.000Z</time>
      </trkpt>
      <trkpt lat="42.295931" lon="3.196411">
        <ele>188</ele>
        <time>1970-01-01T01:53:20.000Z</time>
      </trkpt>
      <trkpt lat="42.295943" lon="3.196435">
        <ele>188</ele>
        <time>1970-01-01T01:53:21.000Z</time>
      </trkpt>
      <trkpt lat="42.295955" lon="3.196459">
        <ele>188</ele>
        <time>1970-01-01T01:53:22.000Z</time>
      </trkpt>
      <trkpt lat="42.295967" lon="3.196483">
        <ele>188</ele>
        <time>1970-01-01T01:53:23.000Z</time>
      </trkpt>
      <trkpt lat="42.295979" lon="3.196507">
        <ele>190</ele>
        <time>1970-01-01T01:53:24.000Z</time>
      </trkpt>
      <trkpt lat="42.29599" lon="3.196569">
        <ele>190</ele>
        <time>1970-01-01T01:53:25.000Z</time>
      </trkpt>
      <trkpt lat="42.295996" lon="3.196598">
        <ele>190</ele>
        <time>1970-01-01T01:53:26.000Z</time>
      </trkpt>
      <trkpt lat="42.296002" lon="3.196626">
        <ele>190</ele>
        <time>1970-01-01T01:53:27.000Z</time>
      </trkpt>
      <trkpt lat="42.296008" lon="3.196654">
        <ele>190</ele>
        <time>1970-01-01T01:53:28.000Z</time>
      </trkpt>
      <trkpt lat="42.296014" lon="3.196682">
        <ele>190</ele>
        <time>1970-01-01T01:53:29.000Z</time>
      </trkpt>
      <trkpt lat="42.29602" lon="3.196711">
        <ele>190</ele>
        <time>1970-01-01T01:53:30.000Z</time>
      </trkpt>
      <trkpt lat="42.296026" lon="3.196739">
        <ele>190</ele>
        <time>1970-01-01T01:53:31.000Z</time>
      </trkpt>
      <trkpt lat="42.296032" lon="3.196767">
        <ele>190</ele>
        <time>1970-01-01T01:53:32.000Z</time>
      </trkpt>
      <trkpt lat="42.296038" lon="3.196796">
        <ele>190</ele>
        <time>1970-01-01T01:53:33.000Z</time>
      </trkpt>
      <trkpt lat="42.296044" lon="3.196824">
        <ele>192</ele>
        <time>1970-01-01T01:53:34.000Z</time>
      </trkpt>
      <trkpt lat="42.296063" lon="3.19688">
        <ele>192</ele>
        <time>1970-01-01T01:53:35.000Z</time>
      </trkpt>
      <trkpt lat="42.296075" lon="3.196904">
        <ele>192</ele>
        <time>1970-01-01T01:53:36.000Z</time>
      </trkpt>
      <trkpt lat="42.296086" lon="3.196928">
        <ele>192</ele>
        <time>1970-01-01T01:53:37.000Z</time>
      </trkpt>
      <trkpt lat="42.296098" lon="3.196952">
        <ele>192</ele>
        <time>1970-01-01T01:53:38.000Z</time>
      </trkpt>
      <trkpt lat="42.296109" lon="3.196976">
        <ele>192</ele>
        <time>1970-01-01T01:53:39.000Z</time>
      </trkpt>
      <trkpt lat="42.29612" lon="3.197001">
        <ele>192</ele>
        <time>1970-01-01T01:53:40.000Z</time>
      </trkpt>
      <trkpt lat="42.296132" lon="3.197025">
        <ele>192</ele>
        <time>1970-01-01T01:53:41.000Z</time>
      </trkpt>
      <trkpt lat="42.296143" lon="3.197049">
        <ele>192</ele>
        <time>1970-01-01T01:53:42.000Z</time>
      </trkpt>
      <trkpt lat="42.296155" lon="3.197073">
        <ele>192</ele>
        <time>1970-01-01T01:53:43.000Z</time>
      </trkpt>
      <trkpt lat="42.296166" lon="3.197097">
        <ele>194</ele>
        <time>1970-01-01T01:53:44.000Z</time>
      </trkpt>
      <trkpt lat="42.296198" lon="3.19714">
        <ele>194</ele>
        <time>1970-01-01T01:53:45.000Z</time>
      </trkpt>
      <trkpt lat="42.296215" lon="3.19716">
        <ele>194</ele>
        <time>1970-01-01T01:53:46.000Z</time>
      </trkpt>
      <trkpt lat="42.296231" lon="3.19718">
        <ele>194</ele>
        <time>1970-01-01T01:53:47.000Z</time>
      </trkpt>
      <trkpt lat="42.296247" lon="3.1972">
        <ele>194</ele>
        <time>1970-01-01T01:53:48.000Z</time>
      </trkpt>
      <trkpt lat="42.296264" lon="3.19722">
        <ele>194</ele>
        <time>1970-01-01T01:53:49.000Z</time>
      </trkpt>
      <trkpt lat="42.29628" lon="3.197241">
        <ele>194</ele>
        <time>1970-01-01T01:53:50.000Z</time>
      </trkpt>
      <trkpt lat="42.296296" lon="3.197261">
        <ele>194</ele>
        <time>1970-01-01T01:53:51.000Z</time>
      </trkpt>
      <trkpt lat="42.296312" lon="3.197281">
        <ele>194</ele>
        <time>1970-01-01T01:53:52.000Z</time>
      </trkpt>
      <trkpt lat="42.296329" lon="3.197301">
        <ele>194</ele>
        <time>1970-01-01T01:53:53.000Z</time>
      </trkpt>
      <trkpt lat="42.296345" lon="3.197321">
        <ele>196</ele>
        <time>1970-01-01T01:53:54.000Z</time>
      </trkpt>
      <trkpt lat="42.296358" lon="3.197377">
        <ele>196</ele>
        <time>1970-01-01T01:53:55.000Z</time>
      </trkpt>
      <trkpt lat="42.296358" lon="3.197406">
        <ele>196</ele>
        <time>1970-01-01T01:53:56.000Z</time>
      </trkpt>
      <trkpt lat="42.296359" lon="3.197434">
        <ele>196</ele>
        <time>1970-01-01T01:53:57.000Z</time>
      </trkpt>
      <trkpt lat="42.296359" lon="3.197463">
        <ele>196</ele>
        <time>1970-01-01T01:53:58.000Z</time>
      </trkpt>
      <trkpt lat="42.296359" lon="3.197491">
        <ele>196</ele>
        <time>1970-01-01T01:53:59.000Z</time>
      </trkpt>
      <trkpt lat="42.296359" lon="3.19752">
        <ele>196</ele>
        <time>1970-01-01T01:54:00.000Z</time>
      </trkpt>
      <trkpt lat="42.296359" lon="3.197548">
        <ele>196</ele>
        <time>1970-01-01T01:54:01.000Z</time>
      </trkpt>
      <trkpt lat="42.29636" lon="3.197577">
        <ele>196</ele>
        <time>1970-01-01T01:54:02.000Z</time>
      </trkpt>
      <trkpt lat="42.29636" lon="3.197605">
        <ele>196</ele>
        <time>1970-01-01T01:54:03.000Z</time>
      </trkpt>
      <trkpt lat="42.29636" lon="3.197634">
        <ele>197</ele>
        <time>1970-01-01T01:54:04.000Z</time>
      </trkpt>
      <trkpt lat="42.296337" lon="3.197685">
        <ele>197</ele>
        <time>1970-01-01T01:54:05.000Z</time>
      </trkpt>
      <trkpt lat="42.296324" lon="3.197706">
        <ele>197</ele>
        <time>1970-01-01T01:54:06.000Z</time>
      </trkpt>
      <trkpt lat="42.29631" lon="3.197728">
        <ele>197</ele>
        <time>1970-01-01T01:54:07.000Z</time>
      </trkpt>
      <trkpt lat="42.296297" lon="3.197749">
        <ele>197</ele>
        <time>1970-01-01T01:54:08.000Z</time>
      </trkpt>
      <trkpt lat="42.296284" lon="3.197771">
        <ele>197</ele>
        <time>1970-01-01T01:54:09.000Z</time>
      </trkpt>
      <trkpt lat="42.296271" lon="3.197792">
        <ele>197</ele>
        <time>1970-01-01T01:54:10.000Z</time>
      </trkpt>
      <trkpt lat="42.296258" lon="3.197814">
        <ele>197</ele>
        <time>1970-01-01T01:54:11.000Z</time>
      </trkpt>
      <trkpt lat="42.296244" lon="3.197835">
        <ele>197</ele>
        <time>1970-01-01T01:54:12.000Z</time>
      </trkpt>
      <trkpt lat="42.296231" lon="3.197857">
        <ele>197</ele>
        <time>1970-01-01T01:54:13.000Z</time>
      </trkpt>
      <trkpt lat="42.296218" lon="3.197878">
        <ele>199</ele>
        <time>1970-01-01T01:54:14.000Z</time>
      </trkpt>
      <trkpt lat="42.296185" lon="3.197917">
        <ele>199</ele>
        <time>1970-01-01T01:54:15.000Z</time>
      </trkpt>
      <trkpt lat="42.296167" lon="3.197934">
        <ele>199</ele>
        <time>1970-01-01T01:54:16.000Z</time>
      </trkpt>
      <trkpt lat="42.29615" lon="3.197952">
        <ele>199</ele>
        <time>1970-01-01T01:54:17.000Z</time>
      </trkpt>
      <trkpt lat="42.296133" lon="3.197969">
        <ele>199</ele>
        <time>1970-01-01T01:54:18.000Z</time>
      </trkpt>
      <trkpt lat="42.296116" lon="3.197987">
        <ele>199</ele>
        <time>1970-01-01T01:54:19.000Z</time>
      </trkpt>
      <trkpt lat="42.296098" lon="3.198004">
        <ele>199</ele>
        <time>1970-01-01T01:54:20.000Z</time>
      </trkpt>
      <trkpt lat="42.296081" lon="3.198022">
        <ele>199</ele>
        <time>1970-01-01T01:54:21.000Z</time>
      </trkpt>
      <trkpt lat="42.296064" lon="3.198039">
        <ele>199</ele>
        <time>1970-01-01T01:54:22.000Z</time>
      </trkpt>
      <trkpt lat="42.296046" lon="3.198057">
        <ele>199</ele>
        <time>1970-01-01T01:54:23.000Z</time>
      </trkpt>
      <trkpt lat="42.296029" lon="3.198074">
        <ele>201</ele>
        <time>1970-01-01T01:54:24.000Z</time>
      </trkpt>
      <trkpt lat="42.295986" lon="3.198111">
        <ele>201</ele>
        <time>1970-01-01T01:54:25.000Z</time>
      </trkpt>
      <trkpt lat="42.295966" lon="3.198132">
        <ele>201</ele>
        <time>1970-01-01T01:54:26.000Z</time>
      </trkpt>
      <trkpt lat="42.295946" lon="3.198153">
        <ele>201</ele>
        <time>1970-01-01T01:54:27.000Z</time>
      </trkpt>
      <trkpt lat="42.295926" lon="3.198174">
        <ele>201</ele>
        <time>1970-01-01T01:54:28.000Z</time>
      </trkpt>
      <trkpt lat="42.295907" lon="3.198196">
        <ele>201</ele>
        <time>1970-01-01T01:54:29.000Z</time>
      </trkpt>
      <trkpt lat="42.295887" lon="3.198217">
        <ele>201</ele>
        <time>1970-01-01T01:54:30.000Z</time>
      </trkpt>
      <trkpt lat="42.295867" lon="3.198238">
        <ele>201</ele>
        <time>1970-01-01T01:54:31.000Z</time>
      </trkpt>
      <trkpt lat="42.295847" lon="3.198259">
        <ele>201</ele>
        <time>1970-01-01T01:54:32.000Z</time>
      </trkpt>
      <trkpt lat="42.295827" lon="3.19828">
        <ele>201</ele>
        <time>1970-01-01T01:54:33.000Z</time>
      </trkpt>
      <trkpt lat="42.295807" lon="3.198301">
        <ele>201</ele>
        <time>1970-01-01T01:54:34.000Z</time>
      </trkpt>
      <trkpt lat="42.295769" lon="3.198365">
        <ele>201</ele>
        <time>1970-01-01T01:54:35.000Z</time>
      </trkpt>
      <trkpt lat="42.295752" lon="3.198396">
        <ele>201</ele>
        <time>1970-01-01T01:54:36.000Z</time>
      </trkpt>
      <trkpt lat="42.295735" lon="3.198427">
        <ele>201</ele>
        <time>1970-01-01T01:54:37.000Z</time>
      </trkpt>
      <trkpt lat="42.295718" lon="3.198458">
        <ele>201</ele>
        <time>1970-01-01T01:54:38.000Z</time>
      </trkpt>
      <trkpt lat="42.295701" lon="3.19849">
        <ele>201</ele>
        <time>1970-01-01T01:54:39.000Z</time>
      </trkpt>
      <trkpt lat="42.295683" lon="3.198521">
        <ele>201</ele>
        <time>1970-01-01T01:54:40.000Z</time>
      </trkpt>
      <trkpt lat="42.295666" lon="3.198552">
        <ele>201</ele>
        <time>1970-01-01T01:54:41.000Z</time>
      </trkpt>
      <trkpt lat="42.295649" lon="3.198583">
        <ele>201</ele>
        <time>1970-01-01T01:54:42.000Z</time>
      </trkpt>
      <trkpt lat="42.295632" lon="3.198614">
        <ele>201</ele>
        <time>1970-01-01T01:54:43.000Z</time>
      </trkpt>
      <trkpt lat="42.295615" lon="3.198645">
        <ele>202</ele>
        <time>1970-01-01T01:54:44.000Z</time>
      </trkpt>
      <trkpt lat="42.295569" lon="3.198693">
        <ele>202</ele>
        <time>1970-01-01T01:54:45.000Z</time>
      </trkpt>
      <trkpt lat="42.295545" lon="3.198711">
        <ele>202</ele>
        <time>1970-01-01T01:54:46.000Z</time>
      </trkpt>
      <trkpt lat="42.295521" lon="3.19873">
        <ele>202</ele>
        <time>1970-01-01T01:54:47.000Z</time>
      </trkpt>
      <trkpt lat="42.295497" lon="3.198748">
        <ele>202</ele>
        <time>1970-01-01T01:54:48.000Z</time>
      </trkpt>
      <trkpt lat="42.295474" lon="3.198767">
        <ele>202</ele>
        <time>1970-01-01T01:54:49.000Z</time>
      </trkpt>
      <trkpt lat="42.29545" lon="3.198785">
        <ele>202</ele>
        <time>1970-01-01T01:54:50.000Z</time>
      </trkpt>
      <trkpt lat="42.295426" lon="3.198804">
        <ele>202</ele>
        <time>1970-01-01T01:54:51.000Z</time>
      </trkpt>
      <trkpt lat="42.295402" lon="3.198822">
        <ele>202</ele>
        <time>1970-01-01T01:54:52.000Z</time>
      </trkpt>
      <trkpt lat="42.295378" lon="3.198841">
        <ele>202</ele>
        <time>1970-01-01T01:54:53.000Z</time>
      </trkpt>
      <trkpt lat="42.295354" lon="3.198859">
        <ele>205</ele>
        <time>1970-01-01T01:54:54.000Z</time>
      </trkpt>
      <trkpt lat="42.2953" lon="3.198891">
        <ele>205</ele>
        <time>1970-01-01T01:54:55.000Z</time>
      </trkpt>
      <trkpt lat="42.295273" lon="3.198906">
        <ele>205</ele>
        <time>1970-01-01T01:54:56.000Z</time>
      </trkpt>
      <trkpt lat="42.295247" lon="3.198921">
        <ele>205</ele>
        <time>1970-01-01T01:54:57.000Z</time>
      </trkpt>
      <trkpt lat="42.295221" lon="3.198936">
        <ele>205</ele>
        <time>1970-01-01T01:54:58.000Z</time>
      </trkpt>
      <trkpt lat="42.295195" lon="3.198951">
        <ele>205</ele>
        <time>1970-01-01T01:54:59.000Z</time>
      </trkpt>
      <trkpt lat="42.295168" lon="3.198967">
        <ele>205</ele>
        <time>1970-01-01T01:55:00.000Z</time>
      </trkpt>
      <trkpt lat="42.295142" lon="3.198982">
        <ele>205</ele>
        <time>1970-01-01T01:55:01.000Z</time>
      </trkpt>
      <trkpt lat="42.295116" lon="3.198997">
        <ele>205</ele>
        <time>1970-01-01T01:55:02.000Z</time>
      </trkpt>
      <trkpt lat="42.29509" lon="3.199012">
        <ele>205</ele>
        <time>1970-01-01T01:55:03.000Z</time>
      </trkpt>
      <trkpt lat="42.295063" lon="3.199027">
        <ele>205</ele>
        <time>1970-01-01T01:55:04.000Z</time>
      </trkpt>
      <trkpt lat="42.295037" lon="3.199042">
        <ele>207</ele>
        <time>1970-01-01T01:55:05.000Z</time>
      </trkpt>
      <trkpt lat="42.294989" lon="3.199079">
        <ele>207</ele>
        <time>1970-01-01T01:55:06.000Z</time>
      </trkpt>
      <trkpt lat="42.29497" lon="3.199101">
        <ele>207</ele>
        <time>1970-01-01T01:55:07.000Z</time>
      </trkpt>
      <trkpt lat="42.29495" lon="3.199122">
        <ele>207</ele>
        <time>1970-01-01T01:55:08.000Z</time>
      </trkpt>
      <trkpt lat="42.29493" lon="3.199143">
        <ele>207</ele>
        <time>1970-01-01T01:55:09.000Z</time>
      </trkpt>
      <trkpt lat="42.294911" lon="3.199165">
        <ele>207</ele>
        <time>1970-01-01T01:55:10.000Z</time>
      </trkpt>
      <trkpt lat="42.294891" lon="3.199186">
        <ele>207</ele>
        <time>1970-01-01T01:55:11.000Z</time>
      </trkpt>
      <trkpt lat="42.294871" lon="3.199207">
        <ele>207</ele>
        <time>1970-01-01T01:55:12.000Z</time>
      </trkpt>
      <trkpt lat="42.294852" lon="3.199229">
        <ele>207</ele>
        <time>1970-01-01T01:55:13.000Z</time>
      </trkpt>
      <trkpt lat="42.294832" lon="3.19925">
        <ele>207</ele>
        <time>1970-01-01T01:55:14.000Z</time>
      </trkpt>
      <trkpt lat="42.294821" lon="3.19931">
        <ele>207</ele>
        <time>1970-01-01T01:55:15.000Z</time>
      </trkpt>
      <trkpt lat="42.294826" lon="3.199339">
        <ele>207</ele>
        <time>1970-01-01T01:55:16.000Z</time>
      </trkpt>
      <trkpt lat="42.29483" lon="3.199367">
        <ele>207</ele>
        <time>1970-01-01T01:55:17.000Z</time>
      </trkpt>
      <trkpt lat="42.294835" lon="3.199396">
        <ele>207</ele>
        <time>1970-01-01T01:55:18.000Z</time>
      </trkpt>
      <trkpt lat="42.294839" lon="3.199424">
        <ele>207</ele>
        <time>1970-01-01T01:55:19.000Z</time>
      </trkpt>
      <trkpt lat="42.294843" lon="3.199453">
        <ele>207</ele>
        <time>1970-01-01T01:55:20.000Z</time>
      </trkpt>
      <trkpt lat="42.294848" lon="3.199481">
        <ele>207</ele>
        <time>1970-01-01T01:55:21.000Z</time>
      </trkpt>
      <trkpt lat="42.294852" lon="3.19951">
        <ele>207</ele>
        <time>1970-01-01T01:55:22.000Z</time>
      </trkpt>
      <trkpt lat="42.294857" lon="3.199538">
        <ele>207</ele>
        <time>1970-01-01T01:55:23.000Z</time>
      </trkpt>
      <trkpt lat="42.294861" lon="3.199567">
        <ele>209</ele>
        <time>1970-01-01T01:55:24.000Z</time>
      </trkpt>
      <trkpt lat="42.294907" lon="3.199595">
        <ele>209</ele>
        <time>1970-01-01T01:55:25.000Z</time>
      </trkpt>
      <trkpt lat="42.294933" lon="3.1996">
        <ele>209</ele>
        <time>1970-01-01T01:55:26.000Z</time>
      </trkpt>
      <trkpt lat="42.294958" lon="3.199605">
        <ele>209</ele>
        <time>1970-01-01T01:55:27.000Z</time>
      </trkpt>
      <trkpt lat="42.294983" lon="3.19961">
        <ele>209</ele>
        <time>1970-01-01T01:55:28.000Z</time>
      </trkpt>
      <trkpt lat="42.295009" lon="3.199615">
        <ele>209</ele>
        <time>1970-01-01T01:55:29.000Z</time>
      </trkpt>
      <trkpt lat="42.295034" lon="3.19962">
        <ele>209</ele>
        <time>1970-01-01T01:55:30.000Z</time>
      </trkpt>
      <trkpt lat="42.295059" lon="3.199625">
        <ele>209</ele>
        <time>1970-01-01T01:55:31.000Z</time>
      </trkpt>
      <trkpt lat="42.295084" lon="3.19963">
        <ele>209</ele>
        <time>1970-01-01T01:55:32.000Z</time>
      </trkpt>
      <trkpt lat="42.29511" lon="3.199635">
        <ele>209</ele>
        <time>1970-01-01T01:55:33.000Z</time>
      </trkpt>
      <trkpt lat="42.295135" lon="3.19964">
        <ele>211</ele>
        <time>1970-01-01T01:55:34.000Z</time>
      </trkpt>
      <trkpt lat="42.295189" lon="3.199655">
        <ele>211</ele>
        <time>1970-01-01T01:55:35.000Z</time>
      </trkpt>
      <trkpt lat="42.295214" lon="3.199667">
        <ele>211</ele>
        <time>1970-01-01T01:55:36.000Z</time>
      </trkpt>
      <trkpt lat="42.295239" lon="3.199678">
        <ele>211</ele>
        <time>1970-01-01T01:55:37.000Z</time>
      </trkpt>
      <trkpt lat="42.295264" lon="3.19969">
        <ele>211</ele>
        <time>1970-01-01T01:55:38.000Z</time>
      </trkpt>
      <trkpt lat="42.295289" lon="3.199701">
        <ele>211</ele>
        <time>1970-01-01T01:55:39.000Z</time>
      </trkpt>
      <trkpt lat="42.295314" lon="3.199712">
        <ele>211</ele>
        <time>1970-01-01T01:55:40.000Z</time>
      </trkpt>
      <trkpt lat="42.295339" lon="3.199724">
        <ele>211</ele>
        <time>1970-01-01T01:55:41.000Z</time>
      </trkpt>
      <trkpt lat="42.295364" lon="3.199735">
        <ele>211</ele>
        <time>1970-01-01T01:55:42.000Z</time>
      </trkpt>
      <trkpt lat="42.295389" lon="3.199747">
        <ele>211</ele>
        <time>1970-01-01T01:55:43.000Z</time>
      </trkpt>
      <trkpt lat="42.295414" lon="3.199758">
        <ele>212</ele>
        <time>1970-01-01T01:55:44.000Z</time>
      </trkpt>
      <trkpt lat="42.295465" lon="3.199785">
        <ele>212</ele>
        <time>1970-01-01T01:55:45.000Z</time>
      </trkpt>
      <trkpt lat="42.295489" lon="3.199797">
        <ele>212</ele>
        <time>1970-01-01T01:55:46.000Z</time>
      </trkpt>
      <trkpt lat="42.295514" lon="3.19981">
        <ele>212</ele>
        <time>1970-01-01T01:55:47.000Z</time>
      </trkpt>
      <trkpt lat="42.295539" lon="3.199823">
        <ele>212</ele>
        <time>1970-01-01T01:55:48.000Z</time>
      </trkpt>
      <trkpt lat="42.295563" lon="3.199836">
        <ele>212</ele>
        <time>1970-01-01T01:55:49.000Z</time>
      </trkpt>
      <trkpt lat="42.295588" lon="3.199848">
        <ele>212</ele>
        <time>1970-01-01T01:55:50.000Z</time>
      </trkpt>
      <trkpt lat="42.295612" lon="3.199861">
        <ele>212</ele>
        <time>1970-01-01T01:55:51.000Z</time>
      </trkpt>
      <trkpt lat="42.295637" lon="3.199874">
        <ele>212</ele>
        <time>1970-01-01T01:55:52.000Z</time>
      </trkpt>
      <trkpt lat="42.295662" lon="3.199887">
        <ele>212</ele>
        <time>1970-01-01T01:55:53.000Z</time>
      </trkpt>
      <trkpt lat="42.295686" lon="3.199899">
        <ele>212</ele>
        <time>1970-01-01T01:55:54.000Z</time>
      </trkpt>
      <trkpt lat="42.295711" lon="3.199912">
        <ele>215</ele>
        <time>1970-01-01T01:55:55.000Z</time>
      </trkpt>
      <trkpt lat="42.295762" lon="3.199937">
        <ele>215</ele>
        <time>1970-01-01T01:55:56.000Z</time>
      </trkpt>
      <trkpt lat="42.295786" lon="3.199947">
        <ele>215</ele>
        <time>1970-01-01T01:55:57.000Z</time>
      </trkpt>
      <trkpt lat="42.29581" lon="3.199958">
        <ele>215</ele>
        <time>1970-01-01T01:55:58.000Z</time>
      </trkpt>
      <trkpt lat="42.295834" lon="3.199969">
        <ele>215</ele>
        <time>1970-01-01T01:55:59.000Z</time>
      </trkpt>
      <trkpt lat="42.295859" lon="3.199979">
        <ele>215</ele>
        <time>1970-01-01T01:56:00.000Z</time>
      </trkpt>
      <trkpt lat="42.295883" lon="3.19999">
        <ele>215</ele>
        <time>1970-01-01T01:56:01.000Z</time>
      </trkpt>
      <trkpt lat="42.295907" lon="3.200001">
        <ele>215</ele>
        <time>1970-01-01T01:56:02.000Z</time>
      </trkpt>
      <trkpt lat="42.295931" lon="3.200011">
        <ele>215</ele>
        <time>1970-01-01T01:56:03.000Z</time>
      </trkpt>
      <trkpt lat="42.295955" lon="3.200022">
        <ele>215</ele>
        <time>1970-01-01T01:56:04.000Z</time>
      </trkpt>
      <trkpt lat="42.296006" lon="3.200042">
        <ele>215</ele>
        <time>1970-01-01T01:56:05.000Z</time>
      </trkpt>
      <trkpt lat="42.296029" lon="3.200053">
        <ele>215</ele>
        <time>1970-01-01T01:56:06.000Z</time>
      </trkpt>
      <trkpt lat="42.296052" lon="3.200063">
        <ele>215</ele>
        <time>1970-01-01T01:56:07.000Z</time>
      </trkpt>
      <trkpt lat="42.296075" lon="3.200074">
        <ele>215</ele>
        <time>1970-01-01T01:56:08.000Z</time>
      </trkpt>
      <trkpt lat="42.296098" lon="3.200084">
        <ele>215</ele>
        <time>1970-01-01T01:56:09.000Z</time>
      </trkpt>
      <trkpt lat="42.296121" lon="3.200095">
        <ele>215</ele>
        <time>1970-01-01T01:56:10.000Z</time>
      </trkpt>
      <trkpt lat="42.296144" lon="3.200105">
        <ele>215</ele>
        <time>1970-01-01T01:56:11.000Z</time>
      </trkpt>
      <trkpt lat="42.296167" lon="3.200116">
        <ele>215</ele>
        <time>1970-01-01T01:56:12.000Z</time>
      </trkpt>
      <trkpt lat="42.29619" lon="3.200126">
        <ele>215</ele>
        <time>1970-01-01T01:56:13.000Z</time>
      </trkpt>
      <trkpt lat="42.296213" lon="3.200137">
        <ele>217</ele>
        <time>1970-01-01T01:56:14.000Z</time>
      </trkpt>
      <trkpt lat="42.296258" lon="3.200169">
        <ele>217</ele>
        <time>1970-01-01T01:56:15.000Z</time>
      </trkpt>
      <trkpt lat="42.296278" lon="3.200186">
        <ele>217</ele>
        <time>1970-01-01T01:56:16.000Z</time>
      </trkpt>
      <trkpt lat="42.296299" lon="3.200204">
        <ele>217</ele>
        <time>1970-01-01T01:56:17.000Z</time>
      </trkpt>
      <trkpt lat="42.296319" lon="3.200221">
        <ele>217</ele>
        <time>1970-01-01T01:56:18.000Z</time>
      </trkpt>
      <trkpt lat="42.29634" lon="3.200239">
        <ele>217</ele>
        <time>1970-01-01T01:56:19.000Z</time>
      </trkpt>
      <trkpt lat="42.29636" lon="3.200257">
        <ele>217</ele>
        <time>1970-01-01T01:56:20.000Z</time>
      </trkpt>
      <trkpt lat="42.296381" lon="3.200274">
        <ele>217</ele>
        <time>1970-01-01T01:56:21.000Z</time>
      </trkpt>
      <trkpt lat="42.296401" lon="3.200292">
        <ele>217</ele>
        <time>1970-01-01T01:56:22.000Z</time>
      </trkpt>
      <trkpt lat="42.296422" lon="3.200309">
        <ele>217</ele>
        <time>1970-01-01T01:56:23.000Z</time>
      </trkpt>
      <trkpt lat="42.296442" lon="3.200327">
        <ele>219</ele>
        <time>1970-01-01T01:56:24.000Z</time>
      </trkpt>
      <trkpt lat="42.296476" lon="3.200374">
        <ele>219</ele>
        <time>1970-01-01T01:56:25.000Z</time>
      </trkpt>
      <trkpt lat="42.296492" lon="3.200398">
        <ele>219</ele>
        <time>1970-01-01T01:56:26.000Z</time>
      </trkpt>
      <trkpt lat="42.296508" lon="3.200422">
        <ele>219</ele>
        <time>1970-01-01T01:56:27.000Z</time>
      </trkpt>
      <trkpt lat="42.296524" lon="3.200446">
        <ele>219</ele>
        <time>1970-01-01T01:56:28.000Z</time>
      </trkpt>
      <trkpt lat="42.296541" lon="3.20047">
        <ele>219</ele>
        <time>1970-01-01T01:56:29.000Z</time>
      </trkpt>
      <trkpt lat="42.296557" lon="3.200495">
        <ele>219</ele>
        <time>1970-01-01T01:56:30.000Z</time>
      </trkpt>
      <trkpt lat="42.296573" lon="3.200519">
        <ele>219</ele>
        <time>1970-01-01T01:56:31.000Z</time>
      </trkpt>
      <trkpt lat="42.296589" lon="3.200543">
        <ele>219</ele>
        <time>1970-01-01T01:56:32.000Z</time>
      </trkpt>
      <trkpt lat="42.296605" lon="3.200567">
        <ele>219</ele>
        <time>1970-01-01T01:56:33.000Z</time>
      </trkpt>
      <trkpt lat="42.296621" lon="3.200591">
        <ele>220</ele>
        <time>1970-01-01T01:56:34.000Z</time>
      </trkpt>
      <trkpt lat="42.296652" lon="3.200645">
        <ele>220</ele>
        <time>1970-01-01T01:56:35.000Z</time>
      </trkpt>
      <trkpt lat="42.296668" lon="3.200671">
        <ele>220</ele>
        <time>1970-01-01T01:56:36.000Z</time>
      </trkpt>
      <trkpt lat="42.296684" lon="3.200697">
        <ele>220</ele>
        <time>1970-01-01T01:56:37.000Z</time>
      </trkpt>
      <trkpt lat="42.2967" lon="3.200723">
        <ele>220</ele>
        <time>1970-01-01T01:56:38.000Z</time>
      </trkpt>
      <trkpt lat="42.296716" lon="3.200748">
        <ele>220</ele>
        <time>1970-01-01T01:56:39.000Z</time>
      </trkpt>
      <trkpt lat="42.296732" lon="3.200774">
        <ele>220</ele>
        <time>1970-01-01T01:56:40.000Z</time>
      </trkpt>
      <trkpt lat="42.296748" lon="3.2008">
        <ele>220</ele>
        <time>1970-01-01T01:56:41.000Z</time>
      </trkpt>
      <trkpt lat="42.296764" lon="3.200826">
        <ele>220</ele>
        <time>1970-01-01T01:56:42.000Z</time>
      </trkpt>
      <trkpt lat="42.29678" lon="3.200852">
        <ele>220</ele>
        <time>1970-01-01T01:56:43.000Z</time>
      </trkpt>
      <trkpt lat="42.296796" lon="3.200878">
        <ele>224</ele>
        <time>1970-01-01T01:56:44.000Z</time>
      </trkpt>
      <trkpt lat="42.296829" lon="3.20093">
        <ele>224</ele>
        <time>1970-01-01T01:56:45.000Z</time>
      </trkpt>
      <trkpt lat="42.296846" lon="3.200953">
        <ele>224</ele>
        <time>1970-01-01T01:56:46.000Z</time>
      </trkpt>
      <trkpt lat="42.296862" lon="3.200975">
        <ele>224</ele>
        <time>1970-01-01T01:56:47.000Z</time>
      </trkpt>
      <trkpt lat="42.296879" lon="3.200998">
        <ele>224</ele>
        <time>1970-01-01T01:56:48.000Z</time>
      </trkpt>
      <trkpt lat="42.296896" lon="3.201021">
        <ele>224</ele>
        <time>1970-01-01T01:56:49.000Z</time>
      </trkpt>
      <trkpt lat="42.296913" lon="3.201044">
        <ele>224</ele>
        <time>1970-01-01T01:56:50.000Z</time>
      </trkpt>
      <trkpt lat="42.29693" lon="3.201067">
        <ele>224</ele>
        <time>1970-01-01T01:56:51.000Z</time>
      </trkpt>
      <trkpt lat="42.296946" lon="3.201089">
        <ele>224</ele>
        <time>1970-01-01T01:56:52.000Z</time>
      </trkpt>
      <trkpt lat="42.296963" lon="3.201112">
        <ele>224</ele>
        <time>1970-01-01T01:56:53.000Z</time>
      </trkpt>
      <trkpt lat="42.29698" lon="3.201135">
        <ele>224</ele>
        <time>1970-01-01T01:56:54.000Z</time>
      </trkpt>
      <trkpt lat="42.297004" lon="3.201188">
        <ele>224</ele>
        <time>1970-01-01T01:56:55.000Z</time>
      </trkpt>
      <trkpt lat="42.297011" lon="3.201216">
        <ele>224</ele>
        <time>1970-01-01T01:56:56.000Z</time>
      </trkpt>
      <trkpt lat="42.297017" lon="3.201243">
        <ele>224</ele>
        <time>1970-01-01T01:56:57.000Z</time>
      </trkpt>
      <trkpt lat="42.297023" lon="3.20127">
        <ele>224</ele>
        <time>1970-01-01T01:56:58.000Z</time>
      </trkpt>
      <trkpt lat="42.29703" lon="3.201297">
        <ele>224</ele>
        <time>1970-01-01T01:56:59.000Z</time>
      </trkpt>
      <trkpt lat="42.297036" lon="3.201325">
        <ele>224</ele>
        <time>1970-01-01T01:57:00.000Z</time>
      </trkpt>
      <trkpt lat="42.297042" lon="3.201352">
        <ele>224</ele>
        <time>1970-01-01T01:57:01.000Z</time>
      </trkpt>
      <trkpt lat="42.297048" lon="3.201379">
        <ele>224</ele>
        <time>1970-01-01T01:57:02.000Z</time>
      </trkpt>
      <trkpt lat="42.297055" lon="3.201407">
        <ele>224</ele>
        <time>1970-01-01T01:57:03.000Z</time>
      </trkpt>
      <trkpt lat="42.297061" lon="3.201434">
        <ele>226</ele>
        <time>1970-01-01T01:57:04.000Z</time>
      </trkpt>
      <trkpt lat="42.297044" lon="3.201488">
        <ele>226</ele>
        <time>1970-01-01T01:57:05.000Z</time>
      </trkpt>
      <trkpt lat="42.297033" lon="3.201511">
        <ele>226</ele>
        <time>1970-01-01T01:57:06.000Z</time>
      </trkpt>
      <trkpt lat="42.297021" lon="3.201534">
        <ele>226</ele>
        <time>1970-01-01T01:57:07.000Z</time>
      </trkpt>
      <trkpt lat="42.29701" lon="3.201557">
        <ele>226</ele>
        <time>1970-01-01T01:57:08.000Z</time>
      </trkpt>
      <trkpt lat="42.296998" lon="3.20158">
        <ele>226</ele>
        <time>1970-01-01T01:57:09.000Z</time>
      </trkpt>
      <trkpt lat="42.296986" lon="3.201602">
        <ele>226</ele>
        <time>1970-01-01T01:57:10.000Z</time>
      </trkpt>
      <trkpt lat="42.296975" lon="3.201625">
        <ele>226</ele>
        <time>1970-01-01T01:57:11.000Z</time>
      </trkpt>
      <trkpt lat="42.296963" lon="3.201648">
        <ele>226</ele>
        <time>1970-01-01T01:57:12.000Z</time>
      </trkpt>
      <trkpt lat="42.296952" lon="3.201671">
        <ele>226</ele>
        <time>1970-01-01T01:57:13.000Z</time>
      </trkpt>
      <trkpt lat="42.29694" lon="3.201694">
        <ele>230</ele>
        <time>1970-01-01T01:57:14.000Z</time>
      </trkpt>
      <trkpt lat="42.296904" lon="3.201734">
        <ele>230</ele>
        <time>1970-01-01T01:57:15.000Z</time>
      </trkpt>
      <trkpt lat="42.296886" lon="3.201751">
        <ele>230</ele>
        <time>1970-01-01T01:57:16.000Z</time>
      </trkpt>
      <trkpt lat="42.296868" lon="3.201768">
        <ele>230</ele>
        <time>1970-01-01T01:57:17.000Z</time>
      </trkpt>
      <trkpt lat="42.29685" lon="3.201785">
        <ele>230</ele>
        <time>1970-01-01T01:57:18.000Z</time>
      </trkpt>
      <trkpt lat="42.296832" lon="3.201802">
        <ele>230</ele>
        <time>1970-01-01T01:57:19.000Z</time>
      </trkpt>
      <trkpt lat="42.296813" lon="3.201819">
        <ele>230</ele>
        <time>1970-01-01T01:57:20.000Z</time>
      </trkpt>
      <trkpt lat="42.296795" lon="3.201836">
        <ele>230</ele>
        <time>1970-01-01T01:57:21.000Z</time>
      </trkpt>
      <trkpt lat="42.296777" lon="3.201853">
        <ele>230</ele>
        <time>1970-01-01T01:57:22.000Z</time>
      </trkpt>
      <trkpt lat="42.296759" lon="3.20187">
        <ele>230</ele>
        <time>1970-01-01T01:57:23.000Z</time>
      </trkpt>
      <trkpt lat="42.296741" lon="3.201887">
        <ele>230</ele>
        <time>1970-01-01T01:57:24.000Z</time>
      </trkpt>
      <trkpt lat="42.2967" lon="3.20191">
        <ele>230</ele>
        <time>1970-01-01T01:57:25.000Z</time>
      </trkpt>
      <trkpt lat="42.29668" lon="3.201919">
        <ele>230</ele>
        <time>1970-01-01T01:57:26.000Z</time>
      </trkpt>
      <trkpt lat="42.296661" lon="3.201929">
        <ele>230</ele>
        <time>1970-01-01T01:57:27.000Z</time>
      </trkpt>
      <trkpt lat="42.296641" lon="3.201938">
        <ele>230</ele>
        <time>1970-01-01T01:57:28.000Z</time>
      </trkpt>
      <trkpt lat="42.296622" lon="3.201948">
        <ele>230</ele>
        <time>1970-01-01T01:57:29.000Z</time>
      </trkpt>
      <trkpt lat="42.296602" lon="3.201957">
        <ele>230</ele>
        <time>1970-01-01T01:57:30.000Z</time>
      </trkpt>
      <trkpt lat="42.296583" lon="3.201967">
        <ele>230</ele>
        <time>1970-01-01T01:57:31.000Z</time>
      </trkpt>
      <trkpt lat="42.296563" lon="3.201976">
        <ele>230</ele>
        <time>1970-01-01T01:57:32.000Z</time>
      </trkpt>
      <trkpt lat="42.296544" lon="3.201986">
        <ele>230</ele>
        <time>1970-01-01T01:57:33.000Z</time>
      </trkpt>
      <trkpt lat="42.296524" lon="3.201995">
        <ele>232</ele>
        <time>1970-01-01T01:57:34.000Z</time>
      </trkpt>
      <trkpt lat="42.296483" lon="3.202017">
        <ele>232</ele>
        <time>1970-01-01T01:57:35.000Z</time>
      </trkpt>
      <trkpt lat="42.296464" lon="3.202029">
        <ele>232</ele>
        <time>1970-01-01T01:57:36.000Z</time>
      </trkpt>
      <trkpt lat="42.296446" lon="3.202041">
        <ele>232</ele>
        <time>1970-01-01T01:57:37.000Z</time>
      </trkpt>
      <trkpt lat="42.296427" lon="3.202053">
        <ele>232</ele>
        <time>1970-01-01T01:57:38.000Z</time>
      </trkpt>
      <trkpt lat="42.296408" lon="3.202065">
        <ele>232</ele>
        <time>1970-01-01T01:57:39.000Z</time>
      </trkpt>
      <trkpt lat="42.296389" lon="3.202077">
        <ele>232</ele>
        <time>1970-01-01T01:57:40.000Z</time>
      </trkpt>
      <trkpt lat="42.29637" lon="3.202089">
        <ele>232</ele>
        <time>1970-01-01T01:57:41.000Z</time>
      </trkpt>
      <trkpt lat="42.296352" lon="3.202101">
        <ele>232</ele>
        <time>1970-01-01T01:57:42.000Z</time>
      </trkpt>
      <trkpt lat="42.296333" lon="3.202113">
        <ele>232</ele>
        <time>1970-01-01T01:57:43.000Z</time>
      </trkpt>
      <trkpt lat="42.296314" lon="3.202125">
        <ele>234</ele>
        <time>1970-01-01T01:57:44.000Z</time>
      </trkpt>
      <trkpt lat="42.296279" lon="3.202162">
        <ele>234</ele>
        <time>1970-01-01T01:57:45.000Z</time>
      </trkpt>
      <trkpt lat="42.296263" lon="3.202183">
        <ele>234</ele>
        <time>1970-01-01T01:57:46.000Z</time>
      </trkpt>
      <trkpt lat="42.296248" lon="3.202203">
        <ele>234</ele>
        <time>1970-01-01T01:57:47.000Z</time>
      </trkpt>
      <trkpt lat="42.296233" lon="3.202223">
        <ele>234</ele>
        <time>1970-01-01T01:57:48.000Z</time>
      </trkpt>
      <trkpt lat="42.296218" lon="3.202244">
        <ele>234</ele>
        <time>1970-01-01T01:57:49.000Z</time>
      </trkpt>
      <trkpt lat="42.296202" lon="3.202264">
        <ele>234</ele>
        <time>1970-01-01T01:57:50.000Z</time>
      </trkpt>
      <trkpt lat="42.296187" lon="3.202284">
        <ele>234</ele>
        <time>1970-01-01T01:57:51.000Z</time>
      </trkpt>
      <trkpt lat="42.296172" lon="3.202304">
        <ele>234</ele>
        <time>1970-01-01T01:57:52.000Z</time>
      </trkpt>
      <trkpt lat="42.296156" lon="3.202325">
        <ele>234</ele>
        <time>1970-01-01T01:57:53.000Z</time>
      </trkpt>
      <trkpt lat="42.296141" lon="3.202345">
        <ele>235</ele>
        <time>1970-01-01T01:57:54.000Z</time>
      </trkpt>
      <trkpt lat="42.296123" lon="3.202402">
        <ele>235</ele>
        <time>1970-01-01T01:57:55.000Z</time>
      </trkpt>
      <trkpt lat="42.296117" lon="3.202431">
        <ele>235</ele>
        <time>1970-01-01T01:57:56.000Z</time>
      </trkpt>
      <trkpt lat="42.296111" lon="3.20246">
        <ele>235</ele>
        <time>1970-01-01T01:57:57.000Z</time>
      </trkpt>
      <trkpt lat="42.296105" lon="3.202489">
        <ele>235</ele>
        <time>1970-01-01T01:57:58.000Z</time>
      </trkpt>
      <trkpt lat="42.296099" lon="3.202519">
        <ele>235</ele>
        <time>1970-01-01T01:57:59.000Z</time>
      </trkpt>
      <trkpt lat="42.296092" lon="3.202548">
        <ele>235</ele>
        <time>1970-01-01T01:58:00.000Z</time>
      </trkpt>
      <trkpt lat="42.296086" lon="3.202577">
        <ele>235</ele>
        <time>1970-01-01T01:58:01.000Z</time>
      </trkpt>
      <trkpt lat="42.29608" lon="3.202606">
        <ele>235</ele>
        <time>1970-01-01T01:58:02.000Z</time>
      </trkpt>
      <trkpt lat="42.296074" lon="3.202635">
        <ele>235</ele>
        <time>1970-01-01T01:58:03.000Z</time>
      </trkpt>
      <trkpt lat="42.296068" lon="3.202664">
        <ele>236</ele>
        <time>1970-01-01T01:58:04.000Z</time>
      </trkpt>
      <trkpt lat="42.296058" lon="3.202726">
        <ele>236</ele>
        <time>1970-01-01T01:58:05.000Z</time>
      </trkpt>
      <trkpt lat="42.296054" lon="3.202756">
        <ele>236</ele>
        <time>1970-01-01T01:58:06.000Z</time>
      </trkpt>
      <trkpt lat="42.29605" lon="3.202786">
        <ele>236</ele>
        <time>1970-01-01T01:58:07.000Z</time>
      </trkpt>
      <trkpt lat="42.296046" lon="3.202816">
        <ele>236</ele>
        <time>1970-01-01T01:58:08.000Z</time>
      </trkpt>
      <trkpt lat="42.296042" lon="3.202846">
        <ele>236</ele>
        <time>1970-01-01T01:58:09.000Z</time>
      </trkpt>
      <trkpt lat="42.296038" lon="3.202877">
        <ele>236</ele>
        <time>1970-01-01T01:58:10.000Z</time>
      </trkpt>
      <trkpt lat="42.296034" lon="3.202907">
        <ele>236</ele>
        <time>1970-01-01T01:58:11.000Z</time>
      </trkpt>
      <trkpt lat="42.29603" lon="3.202937">
        <ele>236</ele>
        <time>1970-01-01T01:58:12.000Z</time>
      </trkpt>
      <trkpt lat="42.296026" lon="3.202967">
        <ele>236</ele>
        <time>1970-01-01T01:58:13.000Z</time>
      </trkpt>
      <trkpt lat="42.296022" lon="3.202997">
        <ele>236</ele>
        <time>1970-01-01T01:58:14.000Z</time>
      </trkpt>
      <trkpt lat="42.296018" lon="3.203027">
        <ele>238</ele>
        <time>1970-01-01T01:58:15.000Z</time>
      </trkpt>
      <trkpt lat="42.296004" lon="3.203085">
        <ele>238</ele>
        <time>1970-01-01T01:58:16.000Z</time>
      </trkpt>
      <trkpt lat="42.295997" lon="3.20311">
        <ele>238</ele>
        <time>1970-01-01T01:58:17.000Z</time>
      </trkpt>
      <trkpt lat="42.295989" lon="3.203136">
        <ele>238</ele>
        <time>1970-01-01T01:58:18.000Z</time>
      </trkpt>
      <trkpt lat="42.295982" lon="3.203162">
        <ele>238</ele>
        <time>1970-01-01T01:58:19.000Z</time>
      </trkpt>
      <trkpt lat="42.295974" lon="3.203187">
        <ele>238</ele>
        <time>1970-01-01T01:58:20.000Z</time>
      </trkpt>
      <trkpt lat="42.295967" lon="3.203213">
        <ele>238</ele>
        <time>1970-01-01T01:58:21.000Z</time>
      </trkpt>
      <trkpt lat="42.295959" lon="3.203239">
        <ele>238</ele>
        <time>1970-01-01T01:58:22.000Z</time>
      </trkpt>
      <trkpt lat="42.295952" lon="3.203264">
        <ele>238</ele>
        <time>1970-01-01T01:58:23.000Z</time>
      </trkpt>
      <trkpt lat="42.295944" lon="3.20329">
        <ele>240</ele>
        <time>1970-01-01T01:58:24.000Z</time>
      </trkpt>
      <trkpt lat="42.295921" lon="3.203341">
        <ele>240</ele>
        <time>1970-01-01T01:58:25.000Z</time>
      </trkpt>
      <trkpt lat="42.295911" lon="3.203366">
        <ele>240</ele>
        <time>1970-01-01T01:58:26.000Z</time>
      </trkpt>
      <trkpt lat="42.2959" lon="3.203391">
        <ele>240</ele>
        <time>1970-01-01T01:58:27.000Z</time>
      </trkpt>
      <trkpt lat="42.295889" lon="3.203416">
        <ele>240</ele>
        <time>1970-01-01T01:58:28.000Z</time>
      </trkpt>
      <trkpt lat="42.295879" lon="3.203442">
        <ele>240</ele>
        <time>1970-01-01T01:58:29.000Z</time>
      </trkpt>
      <trkpt lat="42.295868" lon="3.203467">
        <ele>240</ele>
        <time>1970-01-01T01:58:30.000Z</time>
      </trkpt>
      <trkpt lat="42.295857" lon="3.203492">
        <ele>240</ele>
        <time>1970-01-01T01:58:31.000Z</time>
      </trkpt>
      <trkpt lat="42.295846" lon="3.203517">
        <ele>240</ele>
        <time>1970-01-01T01:58:32.000Z</time>
      </trkpt>
      <trkpt lat="42.295836" lon="3.203542">
        <ele>240</ele>
        <time>1970-01-01T01:58:33.000Z</time>
      </trkpt>
      <trkpt lat="42.295825" lon="3.203567">
        <ele>242</ele>
        <time>1970-01-01T01:58:34.000Z</time>
      </trkpt>
      <trkpt lat="42.295816" lon="3.203628">
        <ele>242</ele>
        <time>1970-01-01T01:58:35.000Z</time>
      </trkpt>
      <trkpt lat="42.295817" lon="3.203658">
        <ele>242</ele>
        <time>1970-01-01T01:58:36.000Z</time>
      </trkpt>
      <trkpt lat="42.295818" lon="3.203688">
        <ele>242</ele>
        <time>1970-01-01T01:58:37.000Z</time>
      </trkpt>
      <trkpt lat="42.295819" lon="3.203718">
        <ele>242</ele>
        <time>1970-01-01T01:58:38.000Z</time>
      </trkpt>
      <trkpt lat="42.295821" lon="3.203748">
        <ele>242</ele>
        <time>1970-01-01T01:58:39.000Z</time>
      </trkpt>
      <trkpt lat="42.295822" lon="3.203779">
        <ele>242</ele>
        <time>1970-01-01T01:58:40.000Z</time>
      </trkpt>
      <trkpt lat="42.295823" lon="3.203809">
        <ele>242</ele>
        <time>1970-01-01T01:58:41.000Z</time>
      </trkpt>
      <trkpt lat="42.295824" lon="3.203839">
        <ele>242</ele>
        <time>1970-01-01T01:58:42.000Z</time>
      </trkpt>
      <trkpt lat="42.295825" lon="3.203869">
        <ele>242</ele>
        <time>1970-01-01T01:58:43.000Z</time>
      </trkpt>
      <trkpt lat="42.295826" lon="3.203899">
        <ele>243</ele>
        <time>1970-01-01T01:58:44.000Z</time>
      </trkpt>
      <trkpt lat="42.295839" lon="3.203959">
        <ele>243</ele>
        <time>1970-01-01T01:58:45.000Z</time>
      </trkpt>
      <trkpt lat="42.295846" lon="3.203986">
        <ele>243</ele>
        <time>1970-01-01T01:58:46.000Z</time>
      </trkpt>
      <trkpt lat="42.295853" lon="3.204014">
        <ele>243</ele>
        <time>1970-01-01T01:58:47.000Z</time>
      </trkpt>
      <trkpt lat="42.29586" lon="3.204041">
        <ele>243</ele>
        <time>1970-01-01T01:58:48.000Z</time>
      </trkpt>
      <trkpt lat="42.295867" lon="3.204069">
        <ele>243</ele>
        <time>1970-01-01T01:58:49.000Z</time>
      </trkpt>
      <trkpt lat="42.295873" lon="3.204097">
        <ele>243</ele>
        <time>1970-01-01T01:58:50.000Z</time>
      </trkpt>
      <trkpt lat="42.29588" lon="3.204124">
        <ele>243</ele>
        <time>1970-01-01T01:58:51.000Z</time>
      </trkpt>
      <trkpt lat="42.295887" lon="3.204152">
        <ele>243</ele>
        <time>1970-01-01T01:58:52.000Z</time>
      </trkpt>
      <trkpt lat="42.295894" lon="3.204179">
        <ele>243</ele>
        <time>1970-01-01T01:58:53.000Z</time>
      </trkpt>
      <trkpt lat="42.295901" lon="3.204207">
        <ele>245</ele>
        <time>1970-01-01T01:58:54.000Z</time>
      </trkpt>
      <trkpt lat="42.295915" lon="3.204269">
        <ele>245</ele>
        <time>1970-01-01T01:58:55.000Z</time>
      </trkpt>
      <trkpt lat="42.295921" lon="3.2043">
        <ele>245</ele>
        <time>1970-01-01T01:58:56.000Z</time>
      </trkpt>
      <trkpt lat="42.295928" lon="3.204331">
        <ele>245</ele>
        <time>1970-01-01T01:58:57.000Z</time>
      </trkpt>
      <trkpt lat="42.295935" lon="3.204362">
        <ele>245</ele>
        <time>1970-01-01T01:58:58.000Z</time>
      </trkpt>
      <trkpt lat="42.295942" lon="3.204393">
        <ele>245</ele>
        <time>1970-01-01T01:58:59.000Z</time>
      </trkpt>
      <trkpt lat="42.295948" lon="3.204424">
        <ele>245</ele>
        <time>1970-01-01T01:59:00.000Z</time>
      </trkpt>
      <trkpt lat="42.295955" lon="3.204455">
        <ele>245</ele>
        <time>1970-01-01T01:59:01.000Z</time>
      </trkpt>
      <trkpt lat="42.295962" lon="3.204486">
        <ele>245</ele>
        <time>1970-01-01T01:59:02.000Z</time>
      </trkpt>
      <trkpt lat="42.295968" lon="3.204517">
        <ele>245</ele>
        <time>1970-01-01T01:59:03.000Z</time>
      </trkpt>
      <trkpt lat="42.295975" lon="3.204548">
        <ele>246</ele>
        <time>1970-01-01T01:59:04.000Z</time>
      </trkpt>
      <trkpt lat="42.295982" lon="3.204613">
        <ele>246</ele>
        <time>1970-01-01T01:59:05.000Z</time>
      </trkpt>
      <trkpt lat="42.295983" lon="3.204644">
        <ele>246</ele>
        <time>1970-01-01T01:59:06.000Z</time>
      </trkpt>
      <trkpt lat="42.295985" lon="3.204674">
        <ele>246</ele>
        <time>1970-01-01T01:59:07.000Z</time>
      </trkpt>
      <trkpt lat="42.295986" lon="3.204704">
        <ele>246</ele>
        <time>1970-01-01T01:59:08.000Z</time>
      </trkpt>
      <trkpt lat="42.295988" lon="3.204734">
        <ele>246</ele>
        <time>1970-01-01T01:59:09.000Z</time>
      </trkpt>
      <trkpt lat="42.29599" lon="3.204765">
        <ele>246</ele>
        <time>1970-01-01T01:59:10.000Z</time>
      </trkpt>
      <trkpt lat="42.295991" lon="3.204795">
        <ele>246</ele>
        <time>1970-01-01T01:59:11.000Z</time>
      </trkpt>
      <trkpt lat="42.295993" lon="3.204825">
        <ele>246</ele>
        <time>1970-01-01T01:59:12.000Z</time>
      </trkpt>
      <trkpt lat="42.295994" lon="3.204856">
        <ele>246</ele>
        <time>1970-01-01T01:59:13.000Z</time>
      </trkpt>
      <trkpt lat="42.295996" lon="3.204886">
        <ele>248</ele>
        <time>1970-01-01T01:59:14.000Z</time>
      </trkpt>
      <trkpt lat="42.295996" lon="3.204946">
        <ele>248</ele>
        <time>1970-01-01T01:59:15.000Z</time>
      </trkpt>
      <trkpt lat="42.295994" lon="3.204975">
        <ele>248</ele>
        <time>1970-01-01T01:59:16.000Z</time>
      </trkpt>
      <trkpt lat="42.295992" lon="3.205003">
        <ele>248</ele>
        <time>1970-01-01T01:59:17.000Z</time>
      </trkpt>
      <trkpt lat="42.29599" lon="3.205031">
        <ele>248</ele>
        <time>1970-01-01T01:59:18.000Z</time>
      </trkpt>
      <trkpt lat="42.295989" lon="3.20506">
        <ele>248</ele>
        <time>1970-01-01T01:59:19.000Z</time>
      </trkpt>
      <trkpt lat="42.295987" lon="3.205088">
        <ele>248</ele>
        <time>1970-01-01T01:59:20.000Z</time>
      </trkpt>
      <trkpt lat="42.295985" lon="3.205116">
        <ele>248</ele>
        <time>1970-01-01T01:59:21.000Z</time>
      </trkpt>
      <trkpt lat="42.295983" lon="3.205144">
        <ele>248</ele>
        <time>1970-01-01T01:59:22.000Z</time>
      </trkpt>
      <trkpt lat="42.295981" lon="3.205173">
        <ele>248</ele>
        <time>1970-01-01T01:59:23.000Z</time>
      </trkpt>
      <trkpt lat="42.295979" lon="3.205201">
        <ele>249</ele>
        <time>1970-01-01T01:59:24.000Z</time>
      </trkpt>
      <trkpt lat="42.295954" lon="3.205244">
        <ele>249</ele>
        <time>1970-01-01T01:59:25.000Z</time>
      </trkpt>
      <trkpt lat="42.295937" lon="3.20526">
        <ele>249</ele>
        <time>1970-01-01T01:59:26.000Z</time>
      </trkpt>
      <trkpt lat="42.295921" lon="3.205275">
        <ele>249</ele>
        <time>1970-01-01T01:59:27.000Z</time>
      </trkpt>
      <trkpt lat="42.295905" lon="3.205291">
        <ele>249</ele>
        <time>1970-01-01T01:59:28.000Z</time>
      </trkpt>
      <trkpt lat="42.295889" lon="3.205306">
        <ele>249</ele>
        <time>1970-01-01T01:59:29.000Z</time>
      </trkpt>
      <trkpt lat="42.295872" lon="3.205321">
        <ele>249</ele>
        <time>1970-01-01T01:59:30.000Z</time>
      </trkpt>
      <trkpt lat="42.295856" lon="3.205337">
        <ele>249</ele>
        <time>1970-01-01T01:59:31.000Z</time>
      </trkpt>
      <trkpt lat="42.29584" lon="3.205352">
        <ele>249</ele>
        <time>1970-01-01T01:59:32.000Z</time>
      </trkpt>
      <trkpt lat="42.295823" lon="3.205368">
        <ele>249</ele>
        <time>1970-01-01T01:59:33.000Z</time>
      </trkpt>
      <trkpt lat="42.295807" lon="3.205383">
        <ele>251</ele>
        <time>1970-01-01T01:59:34.000Z</time>
      </trkpt>
      <trkpt lat="42.295759" lon="3.205391">
        <ele>251</ele>
        <time>1970-01-01T01:59:35.000Z</time>
      </trkpt>
      <trkpt lat="42.295736" lon="3.205393">
        <ele>251</ele>
        <time>1970-01-01T01:59:36.000Z</time>
      </trkpt>
      <trkpt lat="42.295713" lon="3.205394">
        <ele>251</ele>
        <time>1970-01-01T01:59:37.000Z</time>
      </trkpt>
      <trkpt lat="42.29569" lon="3.205395">
        <ele>251</ele>
        <time>1970-01-01T01:59:38.000Z</time>
      </trkpt>
      <trkpt lat="42.295667" lon="3.205397">
        <ele>251</ele>
        <time>1970-01-01T01:59:39.000Z</time>
      </trkpt>
      <trkpt lat="42.295643" lon="3.205398">
        <ele>251</ele>
        <time>1970-01-01T01:59:40.000Z</time>
      </trkpt>
      <trkpt lat="42.29562" lon="3.205399">
        <ele>251</ele>
        <time>1970-01-01T01:59:41.000Z</time>
      </trkpt>
      <trkpt lat="42.295597" lon="3.2054">
        <ele>251</ele>
        <time>1970-01-01T01:59:42.000Z</time>
      </trkpt>
      <trkpt lat="42.295574" lon="3.205402">
        <ele>251</ele>
        <time>1970-01-01T01:59:43.000Z</time>
      </trkpt>
      <trkpt lat="42.295551" lon="3.205403">
        <ele>253</ele>
        <time>1970-01-01T01:59:44.000Z</time>
      </trkpt>
      <trkpt lat="42.295498" lon="3.205395">
        <ele>253</ele>
        <time>1970-01-01T01:59:45.000Z</time>
      </trkpt>
      <trkpt lat="42.295471" lon="3.20539">
        <ele>253</ele>
        <time>1970-01-01T01:59:46.000Z</time>
      </trkpt>
      <trkpt lat="42.295445" lon="3.205385">
        <ele>253</ele>
        <time>1970-01-01T01:59:47.000Z</time>
      </trkpt>
      <trkpt lat="42.295418" lon="3.20538">
        <ele>253</ele>
        <time>1970-01-01T01:59:48.000Z</time>
      </trkpt>
      <trkpt lat="42.295392" lon="3.205374">
        <ele>253</ele>
        <time>1970-01-01T01:59:49.000Z</time>
      </trkpt>
      <trkpt lat="42.295366" lon="3.205369">
        <ele>253</ele>
        <time>1970-01-01T01:59:50.000Z</time>
      </trkpt>
      <trkpt lat="42.295339" lon="3.205364">
        <ele>253</ele>
        <time>1970-01-01T01:59:51.000Z</time>
      </trkpt>
      <trkpt lat="42.295313" lon="3.205359">
        <ele>253</ele>
        <time>1970-01-01T01:59:52.000Z</time>
      </trkpt>
      <trkpt lat="42.295286" lon="3.205354">
        <ele>253</ele>
        <time>1970-01-01T01:59:53.000Z</time>
      </trkpt>
      <trkpt lat="42.29526" lon="3.205349">
        <ele>254</ele>
        <time>1970-01-01T01:59:54.000Z</time>
      </trkpt>
      <trkpt lat="42.295208" lon="3.205357">
        <ele>254</ele>
        <time>1970-01-01T01:59:55.000Z</time>
      </trkpt>
      <trkpt lat="42.295185" lon="3.20537">
        <ele>254</ele>
        <time>1970-01-01T01:59:56.000Z</time>
      </trkpt>
      <trkpt lat="42.295163" lon="3.205382">
        <ele>254</ele>
        <time>1970-01-01T01:59:57.000Z</time>
      </trkpt>
      <trkpt lat="42.29514" lon="3.205395">
        <ele>254</ele>
        <time>1970-01-01T01:59:58.000Z</time>
      </trkpt>
      <trkpt lat="42.295118" lon="3.205408">
        <ele>254</ele>
        <time>1970-01-01T01:59:59.000Z</time>
      </trkpt>
      <trkpt lat="42.295095" lon="3.205421">
        <ele>254</ele>
        <time>1970-01-01T02:00:00.000Z</time>
      </trkpt>
      <trkpt lat="42.295073" lon="3.205434">
        <ele>254</ele>
        <time>1970-01-01T02:00:01.000Z</time>
      </trkpt>
      <trkpt lat="42.29505" lon="3.205446">
        <ele>254</ele>
        <time>1970-01-01T02:00:02.000Z</time>
      </trkpt>
      <trkpt lat="42.295028" lon="3.205459">
        <ele>254</ele>
        <time>1970-01-01T02:00:03.000Z</time>
      </trkpt>
      <trkpt lat="42.295005" lon="3.205472">
        <ele>256</ele>
        <time>1970-01-01T02:00:04.000Z</time>
      </trkpt>
      <trkpt lat="42.29497" lon="3.205531">
        <ele>256</ele>
        <time>1970-01-01T02:00:05.000Z</time>
      </trkpt>
      <trkpt lat="42.294956" lon="3.20556">
        <ele>256</ele>
        <time>1970-01-01T02:00:06.000Z</time>
      </trkpt>
      <trkpt lat="42.294941" lon="3.205588">
        <ele>256</ele>
        <time>1970-01-01T02:00:07.000Z</time>
      </trkpt>
      <trkpt lat="42.294927" lon="3.205616">
        <ele>256</ele>
        <time>1970-01-01T02:00:08.000Z</time>
      </trkpt>
      <trkpt lat="42.294912" lon="3.205645">
        <ele>256</ele>
        <time>1970-01-01T02:00:09.000Z</time>
      </trkpt>
      <trkpt lat="42.294897" lon="3.205673">
        <ele>256</ele>
        <time>1970-01-01T02:00:10.000Z</time>
      </trkpt>
      <trkpt lat="42.294883" lon="3.205701">
        <ele>256</ele>
        <time>1970-01-01T02:00:11.000Z</time>
      </trkpt>
      <trkpt lat="42.294868" lon="3.205729">
        <ele>256</ele>
        <time>1970-01-01T02:00:12.000Z</time>
      </trkpt>
      <trkpt lat="42.294854" lon="3.205758">
        <ele>256</ele>
        <time>1970-01-01T02:00:13.000Z</time>
      </trkpt>
      <trkpt lat="42.294839" lon="3.205786">
        <ele>257</ele>
        <time>1970-01-01T02:00:14.000Z</time>
      </trkpt>
      <trkpt lat="42.294805" lon="3.205843">
        <ele>257</ele>
        <time>1970-01-01T02:00:15.000Z</time>
      </trkpt>
      <trkpt lat="42.294788" lon="3.205871">
        <ele>257</ele>
        <time>1970-01-01T02:00:16.000Z</time>
      </trkpt>
      <trkpt lat="42.294772" lon="3.205898">
        <ele>257</ele>
        <time>1970-01-01T02:00:17.000Z</time>
      </trkpt>
      <trkpt lat="42.294756" lon="3.205925">
        <ele>257</ele>
        <time>1970-01-01T02:00:18.000Z</time>
      </trkpt>
      <trkpt lat="42.29474" lon="3.205953">
        <ele>257</ele>
        <time>1970-01-01T02:00:19.000Z</time>
      </trkpt>
      <trkpt lat="42.294723" lon="3.20598">
        <ele>257</ele>
        <time>1970-01-01T02:00:20.000Z</time>
      </trkpt>
      <trkpt lat="42.294707" lon="3.206007">
        <ele>257</ele>
        <time>1970-01-01T02:00:21.000Z</time>
      </trkpt>
      <trkpt lat="42.294691" lon="3.206034">
        <ele>257</ele>
        <time>1970-01-01T02:00:22.000Z</time>
      </trkpt>
      <trkpt lat="42.294674" lon="3.206062">
        <ele>257</ele>
        <time>1970-01-01T02:00:23.000Z</time>
      </trkpt>
      <trkpt lat="42.294658" lon="3.206089">
        <ele>258</ele>
        <time>1970-01-01T02:00:24.000Z</time>
      </trkpt>
      <trkpt lat="42.294621" lon="3.206148">
        <ele>258</ele>
        <time>1970-01-01T02:00:25.000Z</time>
      </trkpt>
      <trkpt lat="42.294602" lon="3.206178">
        <ele>258</ele>
        <time>1970-01-01T02:00:26.000Z</time>
      </trkpt>
      <trkpt lat="42.294584" lon="3.206207">
        <ele>258</ele>
        <time>1970-01-01T02:00:27.000Z</time>
      </trkpt>
      <trkpt lat="42.294566" lon="3.206236">
        <ele>258</ele>
        <time>1970-01-01T02:00:28.000Z</time>
      </trkpt>
      <trkpt lat="42.294548" lon="3.206266">
        <ele>258</ele>
        <time>1970-01-01T02:00:29.000Z</time>
      </trkpt>
      <trkpt lat="42.294529" lon="3.206295">
        <ele>258</ele>
        <time>1970-01-01T02:00:30.000Z</time>
      </trkpt>
      <trkpt lat="42.294511" lon="3.206324">
        <ele>258</ele>
        <time>1970-01-01T02:00:31.000Z</time>
      </trkpt>
      <trkpt lat="42.294493" lon="3.206353">
        <ele>258</ele>
        <time>1970-01-01T02:00:32.000Z</time>
      </trkpt>
      <trkpt lat="42.294474" lon="3.206383">
        <ele>258</ele>
        <time>1970-01-01T02:00:33.000Z</time>
      </trkpt>
      <trkpt lat="42.294456" lon="3.206412">
        <ele>259</ele>
        <time>1970-01-01T02:00:34.000Z</time>
      </trkpt>
      <trkpt lat="42.294412" lon="3.206478">
        <ele>259</ele>
        <time>1970-01-01T02:00:35.000Z</time>
      </trkpt>
      <trkpt lat="42.294391" lon="3.20651">
        <ele>259</ele>
        <time>1970-01-01T02:00:36.000Z</time>
      </trkpt>
      <trkpt lat="42.294369" lon="3.206541">
        <ele>259</ele>
        <time>1970-01-01T02:00:37.000Z</time>
      </trkpt>
      <trkpt lat="42.294347" lon="3.206572">
        <ele>259</ele>
        <time>1970-01-01T02:00:38.000Z</time>
      </trkpt>
      <trkpt lat="42.294326" lon="3.206604">
        <ele>259</ele>
        <time>1970-01-01T02:00:39.000Z</time>
      </trkpt>
      <trkpt lat="42.294304" lon="3.206635">
        <ele>259</ele>
        <time>1970-01-01T02:00:40.000Z</time>
      </trkpt>
      <trkpt lat="42.294282" lon="3.206666">
        <ele>259</ele>
        <time>1970-01-01T02:00:41.000Z</time>
      </trkpt>
      <trkpt lat="42.29426" lon="3.206697">
        <ele>259</ele>
        <time>1970-01-01T02:00:42.000Z</time>
      </trkpt>
      <trkpt lat="42.294239" lon="3.206729">
        <ele>259</ele>
        <time>1970-01-01T02:00:43.000Z</time>
      </trkpt>
      <trkpt lat="42.294217" lon="3.20676">
        <ele>260</ele>
        <time>1970-01-01T02:00:44.000Z</time>
      </trkpt>
      <trkpt lat="42.294171" lon="3.206824">
        <ele>260</ele>
        <time>1970-01-01T02:00:45.000Z</time>
      </trkpt>
      <trkpt lat="42.294148" lon="3.206855">
        <ele>260</ele>
        <time>1970-01-01T02:00:46.000Z</time>
      </trkpt>
      <trkpt lat="42.294126" lon="3.206885">
        <ele>260</ele>
        <time>1970-01-01T02:00:47.000Z</time>
      </trkpt>
      <trkpt lat="42.294103" lon="3.206916">
        <ele>260</ele>
        <time>1970-01-01T02:00:48.000Z</time>
      </trkpt>
      <trkpt lat="42.294081" lon="3.206946">
        <ele>260</ele>
        <time>1970-01-01T02:00:49.000Z</time>
      </trkpt>
      <trkpt lat="42.294058" lon="3.206976">
        <ele>260</ele>
        <time>1970-01-01T02:00:50.000Z</time>
      </trkpt>
      <trkpt lat="42.294036" lon="3.207007">
        <ele>260</ele>
        <time>1970-01-01T02:00:51.000Z</time>
      </trkpt>
      <trkpt lat="42.294013" lon="3.207037">
        <ele>260</ele>
        <time>1970-01-01T02:00:52.000Z</time>
      </trkpt>
      <trkpt lat="42.293991" lon="3.207068">
        <ele>260</ele>
        <time>1970-01-01T02:00:53.000Z</time>
      </trkpt>
      <trkpt lat="42.293968" lon="3.207098">
        <ele>260</ele>
        <time>1970-01-01T02:00:54.000Z</time>
      </trkpt>
      <trkpt lat="42.293914" lon="3.207158">
        <ele>260</ele>
        <time>1970-01-01T02:00:55.000Z</time>
      </trkpt>
      <trkpt lat="42.293887" lon="3.207183">
        <ele>260</ele>
        <time>1970-01-01T02:00:56.000Z</time>
      </trkpt>
      <trkpt lat="42.293861" lon="3.207209">
        <ele>260</ele>
        <time>1970-01-01T02:00:57.000Z</time>
      </trkpt>
      <trkpt lat="42.293835" lon="3.207235">
        <ele>260</ele>
        <time>1970-01-01T02:00:58.000Z</time>
      </trkpt>
      <trkpt lat="42.293809" lon="3.207261">
        <ele>260</ele>
        <time>1970-01-01T02:00:59.000Z</time>
      </trkpt>
      <trkpt lat="42.293782" lon="3.207286">
        <ele>260</ele>
        <time>1970-01-01T02:01:00.000Z</time>
      </trkpt>
      <trkpt lat="42.293756" lon="3.207312">
        <ele>260</ele>
        <time>1970-01-01T02:01:01.000Z</time>
      </trkpt>
      <trkpt lat="42.29373" lon="3.207338">
        <ele>260</ele>
        <time>1970-01-01T02:01:02.000Z</time>
      </trkpt>
      <trkpt lat="42.293703" lon="3.207363">
        <ele>260</ele>
        <time>1970-01-01T02:01:03.000Z</time>
      </trkpt>
      <trkpt lat="42.293677" lon="3.207389">
        <ele>262</ele>
        <time>1970-01-01T02:01:04.000Z</time>
      </trkpt>
      <trkpt lat="42.293613" lon="3.207423">
        <ele>262</ele>
        <time>1970-01-01T02:01:05.000Z</time>
      </trkpt>
      <trkpt lat="42.293581" lon="3.207433">
        <ele>262</ele>
        <time>1970-01-01T02:01:06.000Z</time>
      </trkpt>
      <trkpt lat="42.293548" lon="3.207444">
        <ele>262</ele>
        <time>1970-01-01T02:01:07.000Z</time>
      </trkpt>
      <trkpt lat="42.293516" lon="3.207455">
        <ele>262</ele>
        <time>1970-01-01T02:01:08.000Z</time>
      </trkpt>
      <trkpt lat="42.293484" lon="3.207466">
        <ele>262</ele>
        <time>1970-01-01T02:01:09.000Z</time>
      </trkpt>
      <trkpt lat="42.293452" lon="3.207476">
        <ele>262</ele>
        <time>1970-01-01T02:01:10.000Z</time>
      </trkpt>
      <trkpt lat="42.29342" lon="3.207487">
        <ele>262</ele>
        <time>1970-01-01T02:01:11.000Z</time>
      </trkpt>
      <trkpt lat="42.293387" lon="3.207498">
        <ele>262</ele>
        <time>1970-01-01T02:01:12.000Z</time>
      </trkpt>
      <trkpt lat="42.293355" lon="3.207508">
        <ele>262</ele>
        <time>1970-01-01T02:01:13.000Z</time>
      </trkpt>
      <trkpt lat="42.293323" lon="3.207519">
        <ele>263</ele>
        <time>1970-01-01T02:01:14.000Z</time>
      </trkpt>
      <trkpt lat="42.293252" lon="3.207516">
        <ele>263</ele>
        <time>1970-01-01T02:01:15.000Z</time>
      </trkpt>
      <trkpt lat="42.293218" lon="3.207513">
        <ele>263</ele>
        <time>1970-01-01T02:01:16.000Z</time>
      </trkpt>
      <trkpt lat="42.293184" lon="3.207511">
        <ele>263</ele>
        <time>1970-01-01T02:01:17.000Z</time>
      </trkpt>
      <trkpt lat="42.29315" lon="3.207509">
        <ele>263</ele>
        <time>1970-01-01T02:01:18.000Z</time>
      </trkpt>
      <trkpt lat="42.293116" lon="3.207506">
        <ele>263</ele>
        <time>1970-01-01T02:01:19.000Z</time>
      </trkpt>
      <trkpt lat="42.293082" lon="3.207504">
        <ele>263</ele>
        <time>1970-01-01T02:01:20.000Z</time>
      </trkpt>
      <trkpt lat="42.293048" lon="3.207501">
        <ele>263</ele>
        <time>1970-01-01T02:01:21.000Z</time>
      </trkpt>
      <trkpt lat="42.293014" lon="3.207499">
        <ele>263</ele>
        <time>1970-01-01T02:01:22.000Z</time>
      </trkpt>
      <trkpt lat="42.29298" lon="3.207497">
        <ele>263</ele>
        <time>1970-01-01T02:01:23.000Z</time>
      </trkpt>
      <trkpt lat="42.292946" lon="3.207494">
        <ele>263</ele>
        <time>1970-01-01T02:01:24.000Z</time>
      </trkpt>
      <trkpt lat="42.292912" lon="3.207492">
        <ele>264</ele>
        <time>1970-01-01T02:01:25.000Z</time>
      </trkpt>
      <trkpt lat="42.292843" lon="3.207499">
        <ele>264</ele>
        <time>1970-01-01T02:01:26.000Z</time>
      </trkpt>
      <trkpt lat="42.292809" lon="3.207507">
        <ele>264</ele>
        <time>1970-01-01T02:01:27.000Z</time>
      </trkpt>
      <trkpt lat="42.292776" lon="3.207515">
        <ele>264</ele>
        <time>1970-01-01T02:01:28.000Z</time>
      </trkpt>
      <trkpt lat="42.292742" lon="3.207523">
        <ele>264</ele>
        <time>1970-01-01T02:01:29.000Z</time>
      </trkpt>
      <trkpt lat="42.292709" lon="3.20753">
        <ele>264</ele>
        <time>1970-01-01T02:01:30.000Z</time>
      </trkpt>
      <trkpt lat="42.292675" lon="3.207538">
        <ele>264</ele>
        <time>1970-01-01T02:01:31.000Z</time>
      </trkpt>
      <trkpt lat="42.292642" lon="3.207546">
        <ele>264</ele>
        <time>1970-01-01T02:01:32.000Z</time>
      </trkpt>
      <trkpt lat="42.292608" lon="3.207554">
        <ele>264</ele>
        <time>1970-01-01T02:01:33.000Z</time>
      </trkpt>
      <trkpt lat="42.292575" lon="3.207562">
        <ele>267</ele>
        <time>1970-01-01T02:01:34.000Z</time>
      </trkpt>
      <trkpt lat="42.292505" lon="3.207581">
        <ele>267</ele>
        <time>1970-01-01T02:01:35.000Z</time>
      </trkpt>
      <trkpt lat="42.292472" lon="3.207591">
        <ele>267</ele>
        <time>1970-01-01T02:01:36.000Z</time>
      </trkpt>
      <trkpt lat="42.292439" lon="3.2076">
        <ele>267</ele>
        <time>1970-01-01T02:01:37.000Z</time>
      </trkpt>
      <trkpt lat="42.292406" lon="3.20761">
        <ele>267</ele>
        <time>1970-01-01T02:01:38.000Z</time>
      </trkpt>
      <trkpt lat="42.292373" lon="3.20762">
        <ele>267</ele>
        <time>1970-01-01T02:01:39.000Z</time>
      </trkpt>
      <trkpt lat="42.29234" lon="3.20763">
        <ele>267</ele>
        <time>1970-01-01T02:01:40.000Z</time>
      </trkpt>
      <trkpt lat="42.292307" lon="3.20764">
        <ele>267</ele>
        <time>1970-01-01T02:01:41.000Z</time>
      </trkpt>
      <trkpt lat="42.292274" lon="3.207649">
        <ele>267</ele>
        <time>1970-01-01T02:01:42.000Z</time>
      </trkpt>
      <trkpt lat="42.292241" lon="3.207659">
        <ele>267</ele>
        <time>1970-01-01T02:01:43.000Z</time>
      </trkpt>
      <trkpt lat="42.292208" lon="3.207669">
        <ele>267</ele>
        <time>1970-01-01T02:01:44.000Z</time>
      </trkpt>
      <trkpt lat="42.292135" lon="3.207695">
        <ele>267</ele>
        <time>1970-01-01T02:01:45.000Z</time>
      </trkpt>
      <trkpt lat="42.2921" lon="3.207709">
        <ele>267</ele>
        <time>1970-01-01T02:01:46.000Z</time>
      </trkpt>
      <trkpt lat="42.292065" lon="3.207724">
        <ele>267</ele>
        <time>1970-01-01T02:01:47.000Z</time>
      </trkpt>
      <trkpt lat="42.29203" lon="3.207738">
        <ele>267</ele>
        <time>1970-01-01T02:01:48.000Z</time>
      </trkpt>
      <trkpt lat="42.291996" lon="3.207753">
        <ele>267</ele>
        <time>1970-01-01T02:01:49.000Z</time>
      </trkpt>
      <trkpt lat="42.291961" lon="3.207768">
        <ele>267</ele>
        <time>1970-01-01T02:01:50.000Z</time>
      </trkpt>
      <trkpt lat="42.291926" lon="3.207782">
        <ele>267</ele>
        <time>1970-01-01T02:01:51.000Z</time>
      </trkpt>
      <trkpt lat="42.291891" lon="3.207797">
        <ele>267</ele>
        <time>1970-01-01T02:01:52.000Z</time>
      </trkpt>
      <trkpt lat="42.291856" lon="3.207811">
        <ele>267</ele>
        <time>1970-01-01T02:01:53.000Z</time>
      </trkpt>
      <trkpt lat="42.291821" lon="3.207826">
        <ele>268</ele>
        <time>1970-01-01T02:01:54.000Z</time>
      </trkpt>
      <trkpt lat="42.291755" lon="3.207865">
        <ele>268</ele>
        <time>1970-01-01T02:01:55.000Z</time>
      </trkpt>
      <trkpt lat="42.291723" lon="3.207885">
        <ele>268</ele>
        <time>1970-01-01T02:01:56.000Z</time>
      </trkpt>
      <trkpt lat="42.291692" lon="3.207905">
        <ele>268</ele>
        <time>1970-01-01T02:01:57.000Z</time>
      </trkpt>
      <trkpt lat="42.29166" lon="3.207925">
        <ele>268</ele>
        <time>1970-01-01T02:01:58.000Z</time>
      </trkpt>
      <trkpt lat="42.291629" lon="3.207946">
        <ele>268</ele>
        <time>1970-01-01T02:01:59.000Z</time>
      </trkpt>
      <trkpt lat="42.291597" lon="3.207966">
        <ele>268</ele>
        <time>1970-01-01T02:02:00.000Z</time>
      </trkpt>
      <trkpt lat="42.291566" lon="3.207986">
        <ele>268</ele>
        <time>1970-01-01T02:02:01.000Z</time>
      </trkpt>
      <trkpt lat="42.291534" lon="3.208006">
        <ele>268</ele>
        <time>1970-01-01T02:02:02.000Z</time>
      </trkpt>
      <trkpt lat="42.291503" lon="3.208026">
        <ele>268</ele>
        <time>1970-01-01T02:02:03.000Z</time>
      </trkpt>
      <trkpt lat="42.291471" lon="3.208046">
        <ele>269</ele>
        <time>1970-01-01T02:02:04.000Z</time>
      </trkpt>
      <trkpt lat="42.291399" lon="3.208076">
        <ele>269</ele>
        <time>1970-01-01T02:02:05.000Z</time>
      </trkpt>
      <trkpt lat="42.291363" lon="3.208082">
        <ele>269</ele>
        <time>1970-01-01T02:02:06.000Z</time>
      </trkpt>
      <trkpt lat="42.291327" lon="3.208088">
        <ele>269</ele>
        <time>1970-01-01T02:02:07.000Z</time>
      </trkpt>
      <trkpt lat="42.291291" lon="3.208094">
        <ele>269</ele>
        <time>1970-01-01T02:02:08.000Z</time>
      </trkpt>
      <trkpt lat="42.291255" lon="3.2081">
        <ele>269</ele>
        <time>1970-01-01T02:02:09.000Z</time>
      </trkpt>
      <trkpt lat="42.29122" lon="3.208106">
        <ele>269</ele>
        <time>1970-01-01T02:02:10.000Z</time>
      </trkpt>
      <trkpt lat="42.291184" lon="3.208112">
        <ele>269</ele>
        <time>1970-01-01T02:02:11.000Z</time>
      </trkpt>
      <trkpt lat="42.291148" lon="3.208118">
        <ele>269</ele>
        <time>1970-01-01T02:02:12.000Z</time>
      </trkpt>
      <trkpt lat="42.291112" lon="3.208124">
        <ele>269</ele>
        <time>1970-01-01T02:02:13.000Z</time>
      </trkpt>
      <trkpt lat="42.291076" lon="3.20813">
        <ele>269</ele>
        <time>1970-01-01T02:02:14.000Z</time>
      </trkpt>
      <trkpt lat="42.29104" lon="3.208136">
        <ele>271</ele>
        <time>1970-01-01T02:02:15.000Z</time>
      </trkpt>
      <trkpt lat="42.29096" lon="3.208101">
        <ele>271</ele>
        <time>1970-01-01T02:02:16.000Z</time>
      </trkpt>
      <trkpt lat="42.290921" lon="3.208078">
        <ele>271</ele>
        <time>1970-01-01T02:02:17.000Z</time>
      </trkpt>
      <trkpt lat="42.290882" lon="3.208055">
        <ele>271</ele>
        <time>1970-01-01T02:02:18.000Z</time>
      </trkpt>
      <trkpt lat="42.290843" lon="3.208032">
        <ele>271</ele>
        <time>1970-01-01T02:02:19.000Z</time>
      </trkpt>
      <trkpt lat="42.290804" lon="3.208009">
        <ele>271</ele>
        <time>1970-01-01T02:02:20.000Z</time>
      </trkpt>
      <trkpt lat="42.290764" lon="3.207987">
        <ele>271</ele>
        <time>1970-01-01T02:02:21.000Z</time>
      </trkpt>
      <trkpt lat="42.290725" lon="3.207964">
        <ele>271</ele>
        <time>1970-01-01T02:02:22.000Z</time>
      </trkpt>
      <trkpt lat="42.290686" lon="3.207941">
        <ele>271</ele>
        <time>1970-01-01T02:02:23.000Z</time>
      </trkpt>
      <trkpt lat="42.290647" lon="3.207918">
        <ele>271</ele>
        <time>1970-01-01T02:02:24.000Z</time>
      </trkpt>
      <trkpt lat="42.290608" lon="3.207895">
        <ele>272</ele>
        <time>1970-01-01T02:02:25.000Z</time>
      </trkpt>
      <trkpt lat="42.290527" lon="3.207847">
        <ele>272</ele>
        <time>1970-01-01T02:02:26.000Z</time>
      </trkpt>
      <trkpt lat="42.290489" lon="3.207827">
        <ele>272</ele>
        <time>1970-01-01T02:02:27.000Z</time>
      </trkpt>
      <trkpt lat="42.290451" lon="3.207807">
        <ele>272</ele>
        <time>1970-01-01T02:02:28.000Z</time>
      </trkpt>
      <trkpt lat="42.290413" lon="3.207787">
        <ele>272</ele>
        <time>1970-01-01T02:02:29.000Z</time>
      </trkpt>
      <trkpt lat="42.290374" lon="3.207768">
        <ele>272</ele>
        <time>1970-01-01T02:02:30.000Z</time>
      </trkpt>
      <trkpt lat="42.290336" lon="3.207748">
        <ele>272</ele>
        <time>1970-01-01T02:02:31.000Z</time>
      </trkpt>
      <trkpt lat="42.290298" lon="3.207728">
        <ele>272</ele>
        <time>1970-01-01T02:02:32.000Z</time>
      </trkpt>
      <trkpt lat="42.29026" lon="3.207708">
        <ele>272</ele>
        <time>1970-01-01T02:02:33.000Z</time>
      </trkpt>
      <trkpt lat="42.290222" lon="3.207688">
        <ele>272</ele>
        <time>1970-01-01T02:02:34.000Z</time>
      </trkpt>
      <trkpt lat="42.290153" lon="3.207721">
        <ele>272</ele>
        <time>1970-01-01T02:02:35.000Z</time>
      </trkpt>
      <trkpt lat="42.29013" lon="3.207762">
        <ele>272</ele>
        <time>1970-01-01T02:02:36.000Z</time>
      </trkpt>
      <trkpt lat="42.290106" lon="3.207803">
        <ele>272</ele>
        <time>1970-01-01T02:02:37.000Z</time>
      </trkpt>
      <trkpt lat="42.290083" lon="3.207844">
        <ele>272</ele>
        <time>1970-01-01T02:02:38.000Z</time>
      </trkpt>
      <trkpt lat="42.290059" lon="3.207885">
        <ele>272</ele>
        <time>1970-01-01T02:02:39.000Z</time>
      </trkpt>
      <trkpt lat="42.290035" lon="3.207925">
        <ele>272</ele>
        <time>1970-01-01T02:02:40.000Z</time>
      </trkpt>
      <trkpt lat="42.290012" lon="3.207966">
        <ele>272</ele>
        <time>1970-01-01T02:02:41.000Z</time>
      </trkpt>
      <trkpt lat="42.289988" lon="3.208007">
        <ele>272</ele>
        <time>1970-01-01T02:02:42.000Z</time>
      </trkpt>
      <trkpt lat="42.289965" lon="3.208048">
        <ele>272</ele>
        <time>1970-01-01T02:02:43.000Z</time>
      </trkpt>
      <trkpt lat="42.289941" lon="3.208089">
        <ele>274</ele>
        <time>1970-01-01T02:02:44.000Z</time>
      </trkpt>
      <trkpt lat="42.289907" lon="3.208199">
        <ele>274</ele>
        <time>1970-01-01T02:02:45.000Z</time>
      </trkpt>
      <trkpt lat="42.289884" lon="3.208246">
        <ele>274</ele>
        <time>1970-01-01T02:02:46.000Z</time>
      </trkpt>
      <trkpt lat="42.289861" lon="3.208294">
        <ele>274</ele>
        <time>1970-01-01T02:02:47.000Z</time>
      </trkpt>
      <trkpt lat="42.289838" lon="3.208341">
        <ele>274</ele>
        <time>1970-01-01T02:02:48.000Z</time>
      </trkpt>
      <trkpt lat="42.289815" lon="3.208388">
        <ele>274</ele>
        <time>1970-01-01T02:02:49.000Z</time>
      </trkpt>
      <trkpt lat="42.289791" lon="3.208435">
        <ele>274</ele>
        <time>1970-01-01T02:02:50.000Z</time>
      </trkpt>
      <trkpt lat="42.289768" lon="3.208482">
        <ele>274</ele>
        <time>1970-01-01T02:02:51.000Z</time>
      </trkpt>
      <trkpt lat="42.289745" lon="3.20853">
        <ele>274</ele>
        <time>1970-01-01T02:02:52.000Z</time>
      </trkpt>
      <trkpt lat="42.289722" lon="3.208577">
        <ele>274</ele>
        <time>1970-01-01T02:02:53.000Z</time>
      </trkpt>
      <trkpt lat="42.289699" lon="3.208624">
        <ele>275</ele>
        <time>1970-01-01T02:02:54.000Z</time>
      </trkpt>
      <trkpt lat="42.289643" lon="3.208726">
        <ele>275</ele>
        <time>1970-01-01T02:02:55.000Z</time>
      </trkpt>
      <trkpt lat="42.289622" lon="3.208782">
        <ele>275</ele>
        <time>1970-01-01T02:02:56.000Z</time>
      </trkpt>
      <trkpt lat="42.289601" lon="3.208838">
        <ele>275</ele>
        <time>1970-01-01T02:02:57.000Z</time>
      </trkpt>
      <trkpt lat="42.28958" lon="3.208894">
        <ele>275</ele>
        <time>1970-01-01T02:02:58.000Z</time>
      </trkpt>
      <trkpt lat="42.289559" lon="3.20895">
        <ele>275</ele>
        <time>1970-01-01T02:02:59.000Z</time>
      </trkpt>
      <trkpt lat="42.289538" lon="3.209005">
        <ele>275</ele>
        <time>1970-01-01T02:03:00.000Z</time>
      </trkpt>
      <trkpt lat="42.289517" lon="3.209061">
        <ele>275</ele>
        <time>1970-01-01T02:03:01.000Z</time>
      </trkpt>
      <trkpt lat="42.289496" lon="3.209117">
        <ele>275</ele>
        <time>1970-01-01T02:03:02.000Z</time>
      </trkpt>
      <trkpt lat="42.289475" lon="3.209173">
        <ele>275</ele>
        <time>1970-01-01T02:03:03.000Z</time>
      </trkpt>
      <trkpt lat="42.289454" lon="3.209229">
        <ele>275</ele>
        <time>1970-01-01T02:03:04.000Z</time>
      </trkpt>
      <trkpt lat="42.289417" lon="3.209354">
        <ele>275</ele>
        <time>1970-01-01T02:03:05.000Z</time>
      </trkpt>
      <trkpt lat="42.289398" lon="3.209415">
        <ele>275</ele>
        <time>1970-01-01T02:03:06.000Z</time>
      </trkpt>
      <trkpt lat="42.289378" lon="3.209475">
        <ele>275</ele>
        <time>1970-01-01T02:03:07.000Z</time>
      </trkpt>
      <trkpt lat="42.289359" lon="3.209536">
        <ele>275</ele>
        <time>1970-01-01T02:03:08.000Z</time>
      </trkpt>
      <trkpt lat="42.28934" lon="3.209596">
        <ele>275</ele>
        <time>1970-01-01T02:03:09.000Z</time>
      </trkpt>
      <trkpt lat="42.289321" lon="3.209656">
        <ele>275</ele>
        <time>1970-01-01T02:03:10.000Z</time>
      </trkpt>
      <trkpt lat="42.289302" lon="3.209717">
        <ele>275</ele>
        <time>1970-01-01T02:03:11.000Z</time>
      </trkpt>
      <trkpt lat="42.289282" lon="3.209777">
        <ele>275</ele>
        <time>1970-01-01T02:03:12.000Z</time>
      </trkpt>
      <trkpt lat="42.289263" lon="3.209838">
        <ele>275</ele>
        <time>1970-01-01T02:03:13.000Z</time>
      </trkpt>
      <trkpt lat="42.289244" lon="3.209898">
        <ele>275</ele>
        <time>1970-01-01T02:03:14.000Z</time>
      </trkpt>
      <trkpt lat="42.28917" lon="3.210002">
        <ele>275</ele>
        <time>1970-01-01T02:03:15.000Z</time>
      </trkpt>
      <trkpt lat="42.289131" lon="3.210045">
        <ele>275</ele>
        <time>1970-01-01T02:03:16.000Z</time>
      </trkpt>
      <trkpt lat="42.289091" lon="3.210087">
        <ele>275</ele>
        <time>1970-01-01T02:03:17.000Z</time>
      </trkpt>
      <trkpt lat="42.289051" lon="3.21013">
        <ele>275</ele>
        <time>1970-01-01T02:03:18.000Z</time>
      </trkpt>
      <trkpt lat="42.289011" lon="3.210172">
        <ele>275</ele>
        <time>1970-01-01T02:03:19.000Z</time>
      </trkpt>
      <trkpt lat="42.288972" lon="3.210215">
        <ele>275</ele>
        <time>1970-01-01T02:03:20.000Z</time>
      </trkpt>
      <trkpt lat="42.288932" lon="3.210257">
        <ele>275</ele>
        <time>1970-01-01T02:03:21.000Z</time>
      </trkpt>
      <trkpt lat="42.288892" lon="3.2103">
        <ele>275</ele>
        <time>1970-01-01T02:03:22.000Z</time>
      </trkpt>
      <trkpt lat="42.288852" lon="3.210342">
        <ele>275</ele>
        <time>1970-01-01T02:03:23.000Z</time>
      </trkpt>
      <trkpt lat="42.288813" lon="3.210385">
        <ele>275</ele>
        <time>1970-01-01T02:03:24.000Z</time>
      </trkpt>
      <trkpt lat="42.288773" lon="3.210427">
        <ele>275</ele>
        <time>1970-01-01T02:03:25.000Z</time>
      </trkpt>
      <trkpt lat="42.288686" lon="3.210507">
        <ele>275</ele>
        <time>1970-01-01T02:03:26.000Z</time>
      </trkpt>
      <trkpt lat="42.288646" lon="3.210546">
        <ele>275</ele>
        <time>1970-01-01T02:03:27.000Z</time>
      </trkpt>
      <trkpt lat="42.288606" lon="3.210585">
        <ele>275</ele>
        <time>1970-01-01T02:03:28.000Z</time>
      </trkpt>
      <trkpt lat="42.288566" lon="3.210624">
        <ele>275</ele>
        <time>1970-01-01T02:03:29.000Z</time>
      </trkpt>
      <trkpt lat="42.288525" lon="3.210663">
        <ele>275</ele>
        <time>1970-01-01T02:03:30.000Z</time>
      </trkpt>
      <trkpt lat="42.288485" lon="3.210702">
        <ele>275</ele>
        <time>1970-01-01T02:03:31.000Z</time>
      </trkpt>
      <trkpt lat="42.288445" lon="3.210741">
        <ele>275</ele>
        <time>1970-01-01T02:03:32.000Z</time>
      </trkpt>
      <trkpt lat="42.288405" lon="3.21078">
        <ele>275</ele>
        <time>1970-01-01T02:03:33.000Z</time>
      </trkpt>
      <trkpt lat="42.288365" lon="3.210819">
        <ele>275</ele>
        <time>1970-01-01T02:03:34.000Z</time>
      </trkpt>
      <trkpt lat="42.288334" lon="3.210927">
        <ele>275</ele>
        <time>1970-01-01T02:03:35.000Z</time>
      </trkpt>
      <trkpt lat="42.28834" lon="3.210982">
        <ele>275</ele>
        <time>1970-01-01T02:03:36.000Z</time>
      </trkpt>
      <trkpt lat="42.288345" lon="3.211036">
        <ele>275</ele>
        <time>1970-01-01T02:03:37.000Z</time>
      </trkpt>
      <trkpt lat="42.288351" lon="3.211091">
        <ele>275</ele>
        <time>1970-01-01T02:03:38.000Z</time>
      </trkpt>
      <trkpt lat="42.288356" lon="3.211146">
        <ele>275</ele>
        <time>1970-01-01T02:03:39.000Z</time>
      </trkpt>
      <trkpt lat="42.288361" lon="3.211201">
        <ele>275</ele>
        <time>1970-01-01T02:03:40.000Z</time>
      </trkpt>
      <trkpt lat="42.288367" lon="3.211256">
        <ele>275</ele>
        <time>1970-01-01T02:03:41.000Z</time>
      </trkpt>
      <trkpt lat="42.288372" lon="3.21131">
        <ele>275</ele>
        <time>1970-01-01T02:03:42.000Z</time>
      </trkpt>
      <trkpt lat="42.288378" lon="3.211365">
        <ele>275</ele>
        <time>1970-01-01T02:03:43.000Z</time>
      </trkpt>
      <trkpt lat="42.288383" lon="3.21142">
        <ele>276</ele>
        <time>1970-01-01T02:03:44.000Z</time>
      </trkpt>
      <trkpt lat="42.288425" lon="3.211538">
        <ele>276</ele>
        <time>1970-01-01T02:03:45.000Z</time>
      </trkpt>
      <trkpt lat="42.288446" lon="3.211595">
        <ele>276</ele>
        <time>1970-01-01T02:03:46.000Z</time>
      </trkpt>
      <trkpt lat="42.288466" lon="3.211652">
        <ele>276</ele>
        <time>1970-01-01T02:03:47.000Z</time>
      </trkpt>
      <trkpt lat="42.288487" lon="3.211709">
        <ele>276</ele>
        <time>1970-01-01T02:03:48.000Z</time>
      </trkpt>
      <trkpt lat="42.288507" lon="3.211766">
        <ele>276</ele>
        <time>1970-01-01T02:03:49.000Z</time>
      </trkpt>
      <trkpt lat="42.288527" lon="3.211823">
        <ele>276</ele>
        <time>1970-01-01T02:03:50.000Z</time>
      </trkpt>
      <trkpt lat="42.288548" lon="3.21188">
        <ele>276</ele>
        <time>1970-01-01T02:03:51.000Z</time>
      </trkpt>
      <trkpt lat="42.288568" lon="3.211937">
        <ele>276</ele>
        <time>1970-01-01T02:03:52.000Z</time>
      </trkpt>
      <trkpt lat="42.288589" lon="3.211994">
        <ele>276</ele>
        <time>1970-01-01T02:03:53.000Z</time>
      </trkpt>
      <trkpt lat="42.288609" lon="3.212051">
        <ele>276</ele>
        <time>1970-01-01T02:03:54.000Z</time>
      </trkpt>
      <trkpt lat="42.288626" lon="3.212187">
        <ele>276</ele>
        <time>1970-01-01T02:03:55.000Z</time>
      </trkpt>
      <trkpt lat="42.288625" lon="3.212253">
        <ele>276</ele>
        <time>1970-01-01T02:03:56.000Z</time>
      </trkpt>
      <trkpt lat="42.288625" lon="3.212319">
        <ele>276</ele>
        <time>1970-01-01T02:03:57.000Z</time>
      </trkpt>
      <trkpt lat="42.288624" lon="3.212385">
        <ele>276</ele>
        <time>1970-01-01T02:03:58.000Z</time>
      </trkpt>
      <trkpt lat="42.288623" lon="3.212452">
        <ele>276</ele>
        <time>1970-01-01T02:03:59.000Z</time>
      </trkpt>
      <trkpt lat="42.288622" lon="3.212518">
        <ele>276</ele>
        <time>1970-01-01T02:04:00.000Z</time>
      </trkpt>
      <trkpt lat="42.288621" lon="3.212584">
        <ele>276</ele>
        <time>1970-01-01T02:04:01.000Z</time>
      </trkpt>
      <trkpt lat="42.288621" lon="3.21265">
        <ele>276</ele>
        <time>1970-01-01T02:04:02.000Z</time>
      </trkpt>
      <trkpt lat="42.28862" lon="3.212716">
        <ele>276</ele>
        <time>1970-01-01T02:04:03.000Z</time>
      </trkpt>
      <trkpt lat="42.288619" lon="3.212782">
        <ele>275</ele>
        <time>1970-01-01T02:04:04.000Z</time>
      </trkpt>
      <trkpt lat="42.288637" lon="3.212908">
        <ele>275</ele>
        <time>1970-01-01T02:04:05.000Z</time>
      </trkpt>
      <trkpt lat="42.288646" lon="3.212965">
        <ele>275</ele>
        <time>1970-01-01T02:04:06.000Z</time>
      </trkpt>
      <trkpt lat="42.288656" lon="3.213021">
        <ele>275</ele>
        <time>1970-01-01T02:04:07.000Z</time>
      </trkpt>
      <trkpt lat="42.288666" lon="3.213077">
        <ele>275</ele>
        <time>1970-01-01T02:04:08.000Z</time>
      </trkpt>
      <trkpt lat="42.288676" lon="3.213133">
        <ele>275</ele>
        <time>1970-01-01T02:04:09.000Z</time>
      </trkpt>
      <trkpt lat="42.288685" lon="3.21319">
        <ele>275</ele>
        <time>1970-01-01T02:04:10.000Z</time>
      </trkpt>
      <trkpt lat="42.288695" lon="3.213246">
        <ele>275</ele>
        <time>1970-01-01T02:04:11.000Z</time>
      </trkpt>
      <trkpt lat="42.288705" lon="3.213302">
        <ele>275</ele>
        <time>1970-01-01T02:04:12.000Z</time>
      </trkpt>
      <trkpt lat="42.288714" lon="3.213359">
        <ele>275</ele>
        <time>1970-01-01T02:04:13.000Z</time>
      </trkpt>
      <trkpt lat="42.288724" lon="3.213415">
        <ele>276</ele>
        <time>1970-01-01T02:04:14.000Z</time>
      </trkpt>
      <trkpt lat="42.288744" lon="3.213523">
        <ele>276</ele>
        <time>1970-01-01T02:04:15.000Z</time>
      </trkpt>
      <trkpt lat="42.288753" lon="3.213573">
        <ele>276</ele>
        <time>1970-01-01T02:04:16.000Z</time>
      </trkpt>
      <trkpt lat="42.288763" lon="3.213622">
        <ele>276</ele>
        <time>1970-01-01T02:04:17.000Z</time>
      </trkpt>
      <trkpt lat="42.288773" lon="3.213671">
        <ele>276</ele>
        <time>1970-01-01T02:04:18.000Z</time>
      </trkpt>
      <trkpt lat="42.288782" lon="3.213721">
        <ele>276</ele>
        <time>1970-01-01T02:04:19.000Z</time>
      </trkpt>
      <trkpt lat="42.288792" lon="3.21377">
        <ele>276</ele>
        <time>1970-01-01T02:04:20.000Z</time>
      </trkpt>
      <trkpt lat="42.288801" lon="3.21382">
        <ele>276</ele>
        <time>1970-01-01T02:04:21.000Z</time>
      </trkpt>
      <trkpt lat="42.288811" lon="3.213869">
        <ele>276</ele>
        <time>1970-01-01T02:04:22.000Z</time>
      </trkpt>
      <trkpt lat="42.288821" lon="3.213918">
        <ele>276</ele>
        <time>1970-01-01T02:04:23.000Z</time>
      </trkpt>
      <trkpt lat="42.28883" lon="3.213968">
        <ele>276</ele>
        <time>1970-01-01T02:04:24.000Z</time>
      </trkpt>
      <trkpt lat="42.28884" lon="3.214017">
        <ele>278</ele>
        <time>1970-01-01T02:04:25.000Z</time>
      </trkpt>
      <trkpt lat="42.28886" lon="3.214123">
        <ele>278</ele>
        <time>1970-01-01T02:04:26.000Z</time>
      </trkpt>
      <trkpt lat="42.288867" lon="3.214173">
        <ele>278</ele>
        <time>1970-01-01T02:04:27.000Z</time>
      </trkpt>
      <trkpt lat="42.288875" lon="3.214222">
        <ele>278</ele>
        <time>1970-01-01T02:04:28.000Z</time>
      </trkpt>
      <trkpt lat="42.288882" lon="3.214272">
        <ele>278</ele>
        <time>1970-01-01T02:04:29.000Z</time>
      </trkpt>
      <trkpt lat="42.288889" lon="3.214322">
        <ele>278</ele>
        <time>1970-01-01T02:04:30.000Z</time>
      </trkpt>
      <trkpt lat="42.288896" lon="3.214372">
        <ele>278</ele>
        <time>1970-01-01T02:04:31.000Z</time>
      </trkpt>
      <trkpt lat="42.288903" lon="3.214422">
        <ele>278</ele>
        <time>1970-01-01T02:04:32.000Z</time>
      </trkpt>
      <trkpt lat="42.288911" lon="3.214471">
        <ele>278</ele>
        <time>1970-01-01T02:04:33.000Z</time>
      </trkpt>
      <trkpt lat="42.288918" lon="3.214521">
        <ele>278</ele>
        <time>1970-01-01T02:04:34.000Z</time>
      </trkpt>
      <trkpt lat="42.288925" lon="3.214571">
        <ele>280</ele>
        <time>1970-01-01T02:04:35.000Z</time>
      </trkpt>
      <trkpt lat="42.288911" lon="3.214684">
        <ele>280</ele>
        <time>1970-01-01T02:04:36.000Z</time>
      </trkpt>
      <trkpt lat="42.288904" lon="3.214738">
        <ele>280</ele>
        <time>1970-01-01T02:04:37.000Z</time>
      </trkpt>
      <trkpt lat="42.288896" lon="3.214793">
        <ele>280</ele>
        <time>1970-01-01T02:04:38.000Z</time>
      </trkpt>
      <trkpt lat="42.288888" lon="3.214847">
        <ele>280</ele>
        <time>1970-01-01T02:04:39.000Z</time>
      </trkpt>
      <trkpt lat="42.288881" lon="3.214902">
        <ele>280</ele>
        <time>1970-01-01T02:04:40.000Z</time>
      </trkpt>
      <trkpt lat="42.288873" lon="3.214956">
        <ele>280</ele>
        <time>1970-01-01T02:04:41.000Z</time>
      </trkpt>
      <trkpt lat="42.288865" lon="3.215011">
        <ele>280</ele>
        <time>1970-01-01T02:04:42.000Z</time>
      </trkpt>
      <trkpt lat="42.288858" lon="3.215065">
        <ele>280</ele>
        <time>1970-01-01T02:04:43.000Z</time>
      </trkpt>
      <trkpt lat="42.28885" lon="3.21512">
        <ele>281</ele>
        <time>1970-01-01T02:04:44.000Z</time>
      </trkpt>
      <trkpt lat="42.288816" lon="3.215234">
        <ele>281</ele>
        <time>1970-01-01T02:04:45.000Z</time>
      </trkpt>
      <trkpt lat="42.288794" lon="3.215287">
        <ele>281</ele>
        <time>1970-01-01T02:04:46.000Z</time>
      </trkpt>
      <trkpt lat="42.288772" lon="3.215341">
        <ele>281</ele>
        <time>1970-01-01T02:04:47.000Z</time>
      </trkpt>
      <trkpt lat="42.28875" lon="3.215395">
        <ele>281</ele>
        <time>1970-01-01T02:04:48.000Z</time>
      </trkpt>
      <trkpt lat="42.288728" lon="3.215449">
        <ele>281</ele>
        <time>1970-01-01T02:04:49.000Z</time>
      </trkpt>
      <trkpt lat="42.288706" lon="3.215502">
        <ele>281</ele>
        <time>1970-01-01T02:04:50.000Z</time>
      </trkpt>
      <trkpt lat="42.288684" lon="3.215556">
        <ele>281</ele>
        <time>1970-01-01T02:04:51.000Z</time>
      </trkpt>
      <trkpt lat="42.288662" lon="3.21561">
        <ele>281</ele>
        <time>1970-01-01T02:04:52.000Z</time>
      </trkpt>
      <trkpt lat="42.28864" lon="3.215663">
        <ele>281</ele>
        <time>1970-01-01T02:04:53.000Z</time>
      </trkpt>
      <trkpt lat="42.288618" lon="3.215717">
        <ele>280</ele>
        <time>1970-01-01T02:04:54.000Z</time>
      </trkpt>
      <trkpt lat="42.288566" lon="3.215828">
        <ele>280</ele>
        <time>1970-01-01T02:04:55.000Z</time>
      </trkpt>
      <trkpt lat="42.288546" lon="3.215881">
        <ele>280</ele>
        <time>1970-01-01T02:04:56.000Z</time>
      </trkpt>
      <trkpt lat="42.288525" lon="3.215935">
        <ele>280</ele>
        <time>1970-01-01T02:04:57.000Z</time>
      </trkpt>
      <trkpt lat="42.288505" lon="3.215988">
        <ele>280</ele>
        <time>1970-01-01T02:04:58.000Z</time>
      </trkpt>
      <trkpt lat="42.288484" lon="3.216042">
        <ele>280</ele>
        <time>1970-01-01T02:04:59.000Z</time>
      </trkpt>
      <trkpt lat="42.288463" lon="3.216096">
        <ele>280</ele>
        <time>1970-01-01T02:05:00.000Z</time>
      </trkpt>
      <trkpt lat="42.288443" lon="3.216149">
        <ele>280</ele>
        <time>1970-01-01T02:05:01.000Z</time>
      </trkpt>
      <trkpt lat="42.288422" lon="3.216203">
        <ele>280</ele>
        <time>1970-01-01T02:05:02.000Z</time>
      </trkpt>
      <trkpt lat="42.288402" lon="3.216256">
        <ele>280</ele>
        <time>1970-01-01T02:05:03.000Z</time>
      </trkpt>
      <trkpt lat="42.288381" lon="3.21631">
        <ele>280</ele>
        <time>1970-01-01T02:05:04.000Z</time>
      </trkpt>
      <trkpt lat="42.28843" lon="3.216415">
        <ele>280</ele>
        <time>1970-01-01T02:05:05.000Z</time>
      </trkpt>
      <trkpt lat="42.288474" lon="3.216453">
        <ele>280</ele>
        <time>1970-01-01T02:05:06.000Z</time>
      </trkpt>
      <trkpt lat="42.288519" lon="3.21649">
        <ele>280</ele>
        <time>1970-01-01T02:05:07.000Z</time>
      </trkpt>
      <trkpt lat="42.288564" lon="3.216528">
        <ele>280</ele>
        <time>1970-01-01T02:05:08.000Z</time>
      </trkpt>
      <trkpt lat="42.288608" lon="3.216565">
        <ele>280</ele>
        <time>1970-01-01T02:05:09.000Z</time>
      </trkpt>
      <trkpt lat="42.288653" lon="3.216603">
        <ele>280</ele>
        <time>1970-01-01T02:05:10.000Z</time>
      </trkpt>
      <trkpt lat="42.288697" lon="3.21664">
        <ele>280</ele>
        <time>1970-01-01T02:05:11.000Z</time>
      </trkpt>
      <trkpt lat="42.288742" lon="3.216678">
        <ele>280</ele>
        <time>1970-01-01T02:05:12.000Z</time>
      </trkpt>
      <trkpt lat="42.288787" lon="3.216715">
        <ele>280</ele>
        <time>1970-01-01T02:05:13.000Z</time>
      </trkpt>
      <trkpt lat="42.288831" lon="3.216753">
        <ele>280</ele>
        <time>1970-01-01T02:05:14.000Z</time>
      </trkpt>
      <trkpt lat="42.288876" lon="3.21679">
        <ele>279</ele>
        <time>1970-01-01T02:05:15.000Z</time>
      </trkpt>
      <trkpt lat="42.288985" lon="3.21683">
        <ele>279</ele>
        <time>1970-01-01T02:05:16.000Z</time>
      </trkpt>
      <trkpt lat="42.289039" lon="3.216837">
        <ele>279</ele>
        <time>1970-01-01T02:05:17.000Z</time>
      </trkpt>
      <trkpt lat="42.289093" lon="3.216843">
        <ele>279</ele>
        <time>1970-01-01T02:05:18.000Z</time>
      </trkpt>
      <trkpt lat="42.289147" lon="3.21685">
        <ele>279</ele>
        <time>1970-01-01T02:05:19.000Z</time>
      </trkpt>
      <trkpt lat="42.289201" lon="3.216856">
        <ele>279</ele>
        <time>1970-01-01T02:05:20.000Z</time>
      </trkpt>
      <trkpt lat="42.289255" lon="3.216863">
        <ele>279</ele>
        <time>1970-01-01T02:05:21.000Z</time>
      </trkpt>
      <trkpt lat="42.289309" lon="3.216869">
        <ele>279</ele>
        <time>1970-01-01T02:05:22.000Z</time>
      </trkpt>
      <trkpt lat="42.289363" lon="3.216876">
        <ele>279</ele>
        <time>1970-01-01T02:05:23.000Z</time>
      </trkpt>
      <trkpt lat="42.289417" lon="3.216882">
        <ele>279</ele>
        <time>1970-01-01T02:05:24.000Z</time>
      </trkpt>
      <trkpt lat="42.289535" lon="3.216887">
        <ele>279</ele>
        <time>1970-01-01T02:05:25.000Z</time>
      </trkpt>
      <trkpt lat="42.289592" lon="3.216886">
        <ele>279</ele>
        <time>1970-01-01T02:05:26.000Z</time>
      </trkpt>
      <trkpt lat="42.28965" lon="3.216886">
        <ele>279</ele>
        <time>1970-01-01T02:05:27.000Z</time>
      </trkpt>
      <trkpt lat="42.289707" lon="3.216885">
        <ele>279</ele>
        <time>1970-01-01T02:05:28.000Z</time>
      </trkpt>
      <trkpt lat="42.289764" lon="3.216885">
        <ele>279</ele>
        <time>1970-01-01T02:05:29.000Z</time>
      </trkpt>
      <trkpt lat="42.289821" lon="3.216884">
        <ele>279</ele>
        <time>1970-01-01T02:05:30.000Z</time>
      </trkpt>
      <trkpt lat="42.289878" lon="3.216884">
        <ele>279</ele>
        <time>1970-01-01T02:05:31.000Z</time>
      </trkpt>
      <trkpt lat="42.289936" lon="3.216883">
        <ele>279</ele>
        <time>1970-01-01T02:05:32.000Z</time>
      </trkpt>
      <trkpt lat="42.289993" lon="3.216883">
        <ele>279</ele>
        <time>1970-01-01T02:05:33.000Z</time>
      </trkpt>
      <trkpt lat="42.29005" lon="3.216882">
        <ele>278</ele>
        <time>1970-01-01T02:05:34.000Z</time>
      </trkpt>
      <trkpt lat="42.29016" lon="3.216918">
        <ele>278</ele>
        <time>1970-01-01T02:05:35.000Z</time>
      </trkpt>
      <trkpt lat="42.290208" lon="3.216952">
        <ele>278</ele>
        <time>1970-01-01T02:05:36.000Z</time>
      </trkpt>
      <trkpt lat="42.290255" lon="3.216985">
        <ele>278</ele>
        <time>1970-01-01T02:05:37.000Z</time>
      </trkpt>
      <trkpt lat="42.290303" lon="3.217019">
        <ele>278</ele>
        <time>1970-01-01T02:05:38.000Z</time>
      </trkpt>
      <trkpt lat="42.290351" lon="3.217052">
        <ele>278</ele>
        <time>1970-01-01T02:05:39.000Z</time>
      </trkpt>
      <trkpt lat="42.290399" lon="3.217086">
        <ele>278</ele>
        <time>1970-01-01T02:05:40.000Z</time>
      </trkpt>
      <trkpt lat="42.290447" lon="3.217119">
        <ele>278</ele>
        <time>1970-01-01T02:05:41.000Z</time>
      </trkpt>
      <trkpt lat="42.290494" lon="3.217153">
        <ele>278</ele>
        <time>1970-01-01T02:05:42.000Z</time>
      </trkpt>
      <trkpt lat="42.290542" lon="3.217186">
        <ele>278</ele>
        <time>1970-01-01T02:05:43.000Z</time>
      </trkpt>
      <trkpt lat="42.29059" lon="3.21722">
        <ele>278</ele>
        <time>1970-01-01T02:05:44.000Z</time>
      </trkpt>
      <trkpt lat="42.290687" lon="3.217303">
        <ele>278</ele>
        <time>1970-01-01T02:05:45.000Z</time>
      </trkpt>
      <trkpt lat="42.290733" lon="3.217344">
        <ele>278</ele>
        <time>1970-01-01T02:05:46.000Z</time>
      </trkpt>
      <trkpt lat="42.29078" lon="3.217385">
        <ele>278</ele>
        <time>1970-01-01T02:05:47.000Z</time>
      </trkpt>
      <trkpt lat="42.290826" lon="3.217426">
        <ele>278</ele>
        <time>1970-01-01T02:05:48.000Z</time>
      </trkpt>
      <trkpt lat="42.290873" lon="3.217467">
        <ele>278</ele>
        <time>1970-01-01T02:05:49.000Z</time>
      </trkpt>
      <trkpt lat="42.290919" lon="3.217509">
        <ele>278</ele>
        <time>1970-01-01T02:05:50.000Z</time>
      </trkpt>
      <trkpt lat="42.290966" lon="3.21755">
        <ele>278</ele>
        <time>1970-01-01T02:05:51.000Z</time>
      </trkpt>
      <trkpt lat="42.291012" lon="3.217591">
        <ele>278</ele>
        <time>1970-01-01T02:05:52.000Z</time>
      </trkpt>
      <trkpt lat="42.291059" lon="3.217632">
        <ele>278</ele>
        <time>1970-01-01T02:05:53.000Z</time>
      </trkpt>
      <trkpt lat="42.291105" lon="3.217673">
        <ele>278</ele>
        <time>1970-01-01T02:05:54.000Z</time>
      </trkpt>
      <trkpt lat="42.291152" lon="3.217714">
        <ele>278</ele>
        <time>1970-01-01T02:05:55.000Z</time>
      </trkpt>
      <trkpt lat="42.291232" lon="3.217815">
        <ele>278</ele>
        <time>1970-01-01T02:05:56.000Z</time>
      </trkpt>
      <trkpt lat="42.291261" lon="3.217874">
        <ele>278</ele>
        <time>1970-01-01T02:05:57.000Z</time>
      </trkpt>
      <trkpt lat="42.29129" lon="3.217933">
        <ele>278</ele>
        <time>1970-01-01T02:05:58.000Z</time>
      </trkpt>
      <trkpt lat="42.291319" lon="3.217992">
        <ele>278</ele>
        <time>1970-01-01T02:05:59.000Z</time>
      </trkpt>
      <trkpt lat="42.291349" lon="3.218052">
        <ele>278</ele>
        <time>1970-01-01T02:06:00.000Z</time>
      </trkpt>
      <trkpt lat="42.291378" lon="3.218111">
        <ele>278</ele>
        <time>1970-01-01T02:06:01.000Z</time>
      </trkpt>
      <trkpt lat="42.291407" lon="3.21817">
        <ele>278</ele>
        <time>1970-01-01T02:06:02.000Z</time>
      </trkpt>
      <trkpt lat="42.291436" lon="3.218229">
        <ele>278</ele>
        <time>1970-01-01T02:06:03.000Z</time>
      </trkpt>
      <trkpt lat="42.291465" lon="3.218288">
        <ele>277</ele>
        <time>1970-01-01T02:06:04.000Z</time>
      </trkpt>
      <trkpt lat="42.291492" lon="3.21844">
        <ele>277</ele>
        <time>1970-01-01T02:06:05.000Z</time>
      </trkpt>
      <trkpt lat="42.291505" lon="3.218511">
        <ele>277</ele>
        <time>1970-01-01T02:06:06.000Z</time>
      </trkpt>
      <trkpt lat="42.291517" lon="3.218581">
        <ele>277</ele>
        <time>1970-01-01T02:06:07.000Z</time>
      </trkpt>
      <trkpt lat="42.29153" lon="3.218652">
        <ele>277</ele>
        <time>1970-01-01T02:06:08.000Z</time>
      </trkpt>
      <trkpt lat="42.291542" lon="3.218723">
        <ele>277</ele>
        <time>1970-01-01T02:06:09.000Z</time>
      </trkpt>
      <trkpt lat="42.291554" lon="3.218794">
        <ele>277</ele>
        <time>1970-01-01T02:06:10.000Z</time>
      </trkpt>
      <trkpt lat="42.291567" lon="3.218865">
        <ele>277</ele>
        <time>1970-01-01T02:06:11.000Z</time>
      </trkpt>
      <trkpt lat="42.291579" lon="3.218935">
        <ele>277</ele>
        <time>1970-01-01T02:06:12.000Z</time>
      </trkpt>
      <trkpt lat="42.291592" lon="3.219006">
        <ele>277</ele>
        <time>1970-01-01T02:06:13.000Z</time>
      </trkpt>
      <trkpt lat="42.291604" lon="3.219077">
        <ele>276</ele>
        <time>1970-01-01T02:06:14.000Z</time>
      </trkpt>
      <trkpt lat="42.291595" lon="3.21921">
        <ele>276</ele>
        <time>1970-01-01T02:06:15.000Z</time>
      </trkpt>
      <trkpt lat="42.291576" lon="3.219265">
        <ele>276</ele>
        <time>1970-01-01T02:06:16.000Z</time>
      </trkpt>
      <trkpt lat="42.291556" lon="3.219321">
        <ele>276</ele>
        <time>1970-01-01T02:06:17.000Z</time>
      </trkpt>
      <trkpt lat="42.291537" lon="3.219377">
        <ele>276</ele>
        <time>1970-01-01T02:06:18.000Z</time>
      </trkpt>
      <trkpt lat="42.291517" lon="3.219433">
        <ele>276</ele>
        <time>1970-01-01T02:06:19.000Z</time>
      </trkpt>
      <trkpt lat="42.291497" lon="3.219488">
        <ele>276</ele>
        <time>1970-01-01T02:06:20.000Z</time>
      </trkpt>
      <trkpt lat="42.291478" lon="3.219544">
        <ele>276</ele>
        <time>1970-01-01T02:06:21.000Z</time>
      </trkpt>
      <trkpt lat="42.291458" lon="3.2196">
        <ele>276</ele>
        <time>1970-01-01T02:06:22.000Z</time>
      </trkpt>
      <trkpt lat="42.291439" lon="3.219655">
        <ele>276</ele>
        <time>1970-01-01T02:06:23.000Z</time>
      </trkpt>
      <trkpt lat="42.291419" lon="3.219711">
        <ele>275</ele>
        <time>1970-01-01T02:06:24.000Z</time>
      </trkpt>
      <trkpt lat="42.291329" lon="3.219726">
        <ele>275</ele>
        <time>1970-01-01T02:06:25.000Z</time>
      </trkpt>
      <trkpt lat="42.291284" lon="3.219708">
        <ele>275</ele>
        <time>1970-01-01T02:06:26.000Z</time>
      </trkpt>
      <trkpt lat="42.291238" lon="3.21969">
        <ele>275</ele>
        <time>1970-01-01T02:06:27.000Z</time>
      </trkpt>
      <trkpt lat="42.291193" lon="3.219672">
        <ele>275</ele>
        <time>1970-01-01T02:06:28.000Z</time>
      </trkpt>
      <trkpt lat="42.291147" lon="3.219654">
        <ele>275</ele>
        <time>1970-01-01T02:06:29.000Z</time>
      </trkpt>
      <trkpt lat="42.291101" lon="3.219636">
        <ele>275</ele>
        <time>1970-01-01T02:06:30.000Z</time>
      </trkpt>
      <trkpt lat="42.291056" lon="3.219618">
        <ele>275</ele>
        <time>1970-01-01T02:06:31.000Z</time>
      </trkpt>
      <trkpt lat="42.29101" lon="3.2196">
        <ele>275</ele>
        <time>1970-01-01T02:06:32.000Z</time>
      </trkpt>
      <trkpt lat="42.290965" lon="3.219582">
        <ele>275</ele>
        <time>1970-01-01T02:06:33.000Z</time>
      </trkpt>
      <trkpt lat="42.290919" lon="3.219564">
        <ele>274</ele>
        <time>1970-01-01T02:06:34.000Z</time>
      </trkpt>
      <trkpt lat="42.290819" lon="3.219566">
        <ele>274</ele>
        <time>1970-01-01T02:06:35.000Z</time>
      </trkpt>
      <trkpt lat="42.29077" lon="3.219583">
        <ele>274</ele>
        <time>1970-01-01T02:06:36.000Z</time>
      </trkpt>
      <trkpt lat="42.290722" lon="3.219599">
        <ele>274</ele>
        <time>1970-01-01T02:06:37.000Z</time>
      </trkpt>
      <trkpt lat="42.290673" lon="3.219615">
        <ele>274</ele>
        <time>1970-01-01T02:06:38.000Z</time>
      </trkpt>
      <trkpt lat="42.290625" lon="3.219632">
        <ele>274</ele>
        <time>1970-01-01T02:06:39.000Z</time>
      </trkpt>
      <trkpt lat="42.290577" lon="3.219648">
        <ele>274</ele>
        <time>1970-01-01T02:06:40.000Z</time>
      </trkpt>
      <trkpt lat="42.290528" lon="3.219664">
        <ele>274</ele>
        <time>1970-01-01T02:06:41.000Z</time>
      </trkpt>
      <trkpt lat="42.29048" lon="3.21968">
        <ele>274</ele>
        <time>1970-01-01T02:06:42.000Z</time>
      </trkpt>
      <trkpt lat="42.290431" lon="3.219697">
        <ele>274</ele>
        <time>1970-01-01T02:06:43.000Z</time>
      </trkpt>
      <trkpt lat="42.290383" lon="3.219713">
        <ele>274</ele>
        <time>1970-01-01T02:06:44.000Z</time>
      </trkpt>
      <trkpt lat="42.290321" lon="3.219832">
        <ele>274</ele>
        <time>1970-01-01T02:06:45.000Z</time>
      </trkpt>
      <trkpt lat="42.290303" lon="3.219904">
        <ele>274</ele>
        <time>1970-01-01T02:06:46.000Z</time>
      </trkpt>
      <trkpt lat="42.290286" lon="3.219975">
        <ele>274</ele>
        <time>1970-01-01T02:06:47.000Z</time>
      </trkpt>
      <trkpt lat="42.290268" lon="3.220046">
        <ele>274</ele>
        <time>1970-01-01T02:06:48.000Z</time>
      </trkpt>
      <trkpt lat="42.290251" lon="3.220118">
        <ele>274</ele>
        <time>1970-01-01T02:06:49.000Z</time>
      </trkpt>
      <trkpt lat="42.290234" lon="3.220189">
        <ele>274</ele>
        <time>1970-01-01T02:06:50.000Z</time>
      </trkpt>
      <trkpt lat="42.290216" lon="3.22026">
        <ele>274</ele>
        <time>1970-01-01T02:06:51.000Z</time>
      </trkpt>
      <trkpt lat="42.290199" lon="3.220331">
        <ele>274</ele>
        <time>1970-01-01T02:06:52.000Z</time>
      </trkpt>
      <trkpt lat="42.290181" lon="3.220403">
        <ele>274</ele>
        <time>1970-01-01T02:06:53.000Z</time>
      </trkpt>
      <trkpt lat="42.290164" lon="3.220474">
        <ele>273</ele>
        <time>1970-01-01T02:06:54.000Z</time>
      </trkpt>
      <trkpt lat="42.290095" lon="3.220579">
        <ele>273</ele>
        <time>1970-01-01T02:06:55.000Z</time>
      </trkpt>
      <trkpt lat="42.290052" lon="3.22061">
        <ele>273</ele>
        <time>1970-01-01T02:06:56.000Z</time>
      </trkpt>
      <trkpt lat="42.290008" lon="3.220642">
        <ele>273</ele>
        <time>1970-01-01T02:06:57.000Z</time>
      </trkpt>
      <trkpt lat="42.289964" lon="3.220674">
        <ele>273</ele>
        <time>1970-01-01T02:06:58.000Z</time>
      </trkpt>
      <trkpt lat="42.28992" lon="3.220705">
        <ele>273</ele>
        <time>1970-01-01T02:06:59.000Z</time>
      </trkpt>
      <trkpt lat="42.289877" lon="3.220737">
        <ele>273</ele>
        <time>1970-01-01T02:07:00.000Z</time>
      </trkpt>
      <trkpt lat="42.289833" lon="3.220768">
        <ele>273</ele>
        <time>1970-01-01T02:07:01.000Z</time>
      </trkpt>
      <trkpt lat="42.289789" lon="3.2208">
        <ele>273</ele>
        <time>1970-01-01T02:07:02.000Z</time>
      </trkpt>
      <trkpt lat="42.289745" lon="3.220832">
        <ele>273</ele>
        <time>1970-01-01T02:07:03.000Z</time>
      </trkpt>
      <trkpt lat="42.289702" lon="3.220863">
        <ele>273</ele>
        <time>1970-01-01T02:07:04.000Z</time>
      </trkpt>
      <trkpt lat="42.289658" lon="3.220895">
        <ele>272</ele>
        <time>1970-01-01T02:07:05.000Z</time>
      </trkpt>
      <trkpt lat="42.289562" lon="3.220935">
        <ele>272</ele>
        <time>1970-01-01T02:07:06.000Z</time>
      </trkpt>
      <trkpt lat="42.289518" lon="3.220958">
        <ele>272</ele>
        <time>1970-01-01T02:07:07.000Z</time>
      </trkpt>
      <trkpt lat="42.289474" lon="3.220981">
        <ele>272</ele>
        <time>1970-01-01T02:07:08.000Z</time>
      </trkpt>
      <trkpt lat="42.28943" lon="3.221004">
        <ele>272</ele>
        <time>1970-01-01T02:07:09.000Z</time>
      </trkpt>
      <trkpt lat="42.289387" lon="3.221026">
        <ele>272</ele>
        <time>1970-01-01T02:07:10.000Z</time>
      </trkpt>
      <trkpt lat="42.289343" lon="3.221049">
        <ele>272</ele>
        <time>1970-01-01T02:07:11.000Z</time>
      </trkpt>
      <trkpt lat="42.289299" lon="3.221072">
        <ele>272</ele>
        <time>1970-01-01T02:07:12.000Z</time>
      </trkpt>
      <trkpt lat="42.289255" lon="3.221095">
        <ele>272</ele>
        <time>1970-01-01T02:07:13.000Z</time>
      </trkpt>
      <trkpt lat="42.289211" lon="3.221118">
        <ele>271</ele>
        <time>1970-01-01T02:07:14.000Z</time>
      </trkpt>
      <trkpt lat="42.289124" lon="3.221186">
        <ele>271</ele>
        <time>1970-01-01T02:07:15.000Z</time>
      </trkpt>
      <trkpt lat="42.289081" lon="3.221215">
        <ele>271</ele>
        <time>1970-01-01T02:07:16.000Z</time>
      </trkpt>
      <trkpt lat="42.289038" lon="3.221245">
        <ele>271</ele>
        <time>1970-01-01T02:07:17.000Z</time>
      </trkpt>
      <trkpt lat="42.288995" lon="3.221274">
        <ele>271</ele>
        <time>1970-01-01T02:07:18.000Z</time>
      </trkpt>
      <trkpt lat="42.288952" lon="3.221304">
        <ele>271</ele>
        <time>1970-01-01T02:07:19.000Z</time>
      </trkpt>
      <trkpt lat="42.288909" lon="3.221333">
        <ele>271</ele>
        <time>1970-01-01T02:07:20.000Z</time>
      </trkpt>
      <trkpt lat="42.288866" lon="3.221363">
        <ele>271</ele>
        <time>1970-01-01T02:07:21.000Z</time>
      </trkpt>
      <trkpt lat="42.288823" lon="3.221392">
        <ele>271</ele>
        <time>1970-01-01T02:07:22.000Z</time>
      </trkpt>
      <trkpt lat="42.28878" lon="3.221422">
        <ele>271</ele>
        <time>1970-01-01T02:07:23.000Z</time>
      </trkpt>
      <trkpt lat="42.288737" lon="3.221451">
        <ele>270</ele>
        <time>1970-01-01T02:07:24.000Z</time>
      </trkpt>
      <trkpt lat="42.28864" lon="3.221477">
        <ele>270</ele>
        <time>1970-01-01T02:07:25.000Z</time>
      </trkpt>
      <trkpt lat="42.288592" lon="3.221488">
        <ele>270</ele>
        <time>1970-01-01T02:07:26.000Z</time>
      </trkpt>
      <trkpt lat="42.288545" lon="3.221499">
        <ele>270</ele>
        <time>1970-01-01T02:07:27.000Z</time>
      </trkpt>
      <trkpt lat="42.288498" lon="3.22151">
        <ele>270</ele>
        <time>1970-01-01T02:07:28.000Z</time>
      </trkpt>
      <trkpt lat="42.288451" lon="3.221521">
        <ele>270</ele>
        <time>1970-01-01T02:07:29.000Z</time>
      </trkpt>
      <trkpt lat="42.288403" lon="3.221532">
        <ele>270</ele>
        <time>1970-01-01T02:07:30.000Z</time>
      </trkpt>
      <trkpt lat="42.288356" lon="3.221543">
        <ele>270</ele>
        <time>1970-01-01T02:07:31.000Z</time>
      </trkpt>
      <trkpt lat="42.288309" lon="3.221554">
        <ele>270</ele>
        <time>1970-01-01T02:07:32.000Z</time>
      </trkpt>
      <trkpt lat="42.288261" lon="3.221565">
        <ele>270</ele>
        <time>1970-01-01T02:07:33.000Z</time>
      </trkpt>
      <trkpt lat="42.288214" lon="3.221576">
        <ele>270</ele>
        <time>1970-01-01T02:07:34.000Z</time>
      </trkpt>
      <trkpt lat="42.288116" lon="3.221601">
        <ele>270</ele>
        <time>1970-01-01T02:07:35.000Z</time>
      </trkpt>
      <trkpt lat="42.28807" lon="3.221612">
        <ele>270</ele>
        <time>1970-01-01T02:07:36.000Z</time>
      </trkpt>
      <trkpt lat="42.288023" lon="3.221624">
        <ele>270</ele>
        <time>1970-01-01T02:07:37.000Z</time>
      </trkpt>
      <trkpt lat="42.287977" lon="3.221636">
        <ele>270</ele>
        <time>1970-01-01T02:07:38.000Z</time>
      </trkpt>
      <trkpt lat="42.287931" lon="3.221648">
        <ele>270</ele>
        <time>1970-01-01T02:07:39.000Z</time>
      </trkpt>
      <trkpt lat="42.287885" lon="3.221659">
        <ele>270</ele>
        <time>1970-01-01T02:07:40.000Z</time>
      </trkpt>
      <trkpt lat="42.287839" lon="3.221671">
        <ele>270</ele>
        <time>1970-01-01T02:07:41.000Z</time>
      </trkpt>
      <trkpt lat="42.287793" lon="3.221683">
        <ele>270</ele>
        <time>1970-01-01T02:07:42.000Z</time>
      </trkpt>
      <trkpt lat="42.287746" lon="3.221695">
        <ele>270</ele>
        <time>1970-01-01T02:07:43.000Z</time>
      </trkpt>
      <trkpt lat="42.2877" lon="3.221706">
        <ele>270</ele>
        <time>1970-01-01T02:07:44.000Z</time>
      </trkpt>
      <trkpt lat="42.287654" lon="3.221718">
        <ele>268</ele>
        <time>1970-01-01T02:07:45.000Z</time>
      </trkpt>
      <trkpt lat="42.287561" lon="3.221742">
        <ele>268</ele>
        <time>1970-01-01T02:07:46.000Z</time>
      </trkpt>
      <trkpt lat="42.287517" lon="3.221755">
        <ele>268</ele>
        <time>1970-01-01T02:07:47.000Z</time>
      </trkpt>
      <trkpt lat="42.287473" lon="3.221767">
        <ele>268</ele>
        <time>1970-01-01T02:07:48.000Z</time>
      </trkpt>
      <trkpt lat="42.287429" lon="3.22178">
        <ele>268</ele>
        <time>1970-01-01T02:07:49.000Z</time>
      </trkpt>
      <trkpt lat="42.287386" lon="3.221793">
        <ele>268</ele>
        <time>1970-01-01T02:07:50.000Z</time>
      </trkpt>
      <trkpt lat="42.287342" lon="3.221806">
        <ele>268</ele>
        <time>1970-01-01T02:07:51.000Z</time>
      </trkpt>
      <trkpt lat="42.287298" lon="3.221818">
        <ele>268</ele>
        <time>1970-01-01T02:07:52.000Z</time>
      </trkpt>
      <trkpt lat="42.287254" lon="3.221831">
        <ele>268</ele>
        <time>1970-01-01T02:07:53.000Z</time>
      </trkpt>
      <trkpt lat="42.28721" lon="3.221844">
        <ele>269</ele>
        <time>1970-01-01T02:07:54.000Z</time>
      </trkpt>
      <trkpt lat="42.287168" lon="3.221912">
        <ele>269</ele>
        <time>1970-01-01T02:07:55.000Z</time>
      </trkpt>
      <trkpt lat="42.28717" lon="3.221961">
        <ele>269</ele>
        <time>1970-01-01T02:07:56.000Z</time>
      </trkpt>
      <trkpt lat="42.287173" lon="3.222009">
        <ele>269</ele>
        <time>1970-01-01T02:07:57.000Z</time>
      </trkpt>
      <trkpt lat="42.287176" lon="3.222058">
        <ele>269</ele>
        <time>1970-01-01T02:07:58.000Z</time>
      </trkpt>
      <trkpt lat="42.287179" lon="3.222106">
        <ele>269</ele>
        <time>1970-01-01T02:07:59.000Z</time>
      </trkpt>
      <trkpt lat="42.287181" lon="3.222155">
        <ele>269</ele>
        <time>1970-01-01T02:08:00.000Z</time>
      </trkpt>
      <trkpt lat="42.287184" lon="3.222203">
        <ele>269</ele>
        <time>1970-01-01T02:08:01.000Z</time>
      </trkpt>
      <trkpt lat="42.287187" lon="3.222252">
        <ele>269</ele>
        <time>1970-01-01T02:08:02.000Z</time>
      </trkpt>
      <trkpt lat="42.287189" lon="3.2223">
        <ele>269</ele>
        <time>1970-01-01T02:08:03.000Z</time>
      </trkpt>
      <trkpt lat="42.287192" lon="3.222349">
        <ele>269</ele>
        <time>1970-01-01T02:08:04.000Z</time>
      </trkpt>
      <trkpt lat="42.287297" lon="3.222389">
        <ele>269</ele>
        <time>1970-01-01T02:08:05.000Z</time>
      </trkpt>
      <trkpt lat="42.287353" lon="3.222397">
        <ele>269</ele>
        <time>1970-01-01T02:08:06.000Z</time>
      </trkpt>
      <trkpt lat="42.287408" lon="3.222405">
        <ele>269</ele>
        <time>1970-01-01T02:08:07.000Z</time>
      </trkpt>
      <trkpt lat="42.287464" lon="3.222413">
        <ele>269</ele>
        <time>1970-01-01T02:08:08.000Z</time>
      </trkpt>
      <trkpt lat="42.287519" lon="3.222421">
        <ele>269</ele>
        <time>1970-01-01T02:08:09.000Z</time>
      </trkpt>
      <trkpt lat="42.287574" lon="3.222429">
        <ele>269</ele>
        <time>1970-01-01T02:08:10.000Z</time>
      </trkpt>
      <trkpt lat="42.28763" lon="3.222437">
        <ele>269</ele>
        <time>1970-01-01T02:08:11.000Z</time>
      </trkpt>
      <trkpt lat="42.287685" lon="3.222445">
        <ele>269</ele>
        <time>1970-01-01T02:08:12.000Z</time>
      </trkpt>
      <trkpt lat="42.287741" lon="3.222453">
        <ele>269</ele>
        <time>1970-01-01T02:08:13.000Z</time>
      </trkpt>
      <trkpt lat="42.287796" lon="3.222461">
        <ele>270</ele>
        <time>1970-01-01T02:08:14.000Z</time>
      </trkpt>
      <trkpt lat="42.287931" lon="3.222476">
        <ele>270</ele>
        <time>1970-01-01T02:08:15.000Z</time>
      </trkpt>
      <trkpt lat="42.287999" lon="3.222483">
        <ele>270</ele>
        <time>1970-01-01T02:08:16.000Z</time>
      </trkpt>
      <trkpt lat="42.288068" lon="3.22249">
        <ele>270</ele>
        <time>1970-01-01T02:08:17.000Z</time>
      </trkpt>
      <trkpt lat="42.288136" lon="3.222497">
        <ele>270</ele>
        <time>1970-01-01T02:08:18.000Z</time>
      </trkpt>
      <trkpt lat="42.288204" lon="3.222504">
        <ele>270</ele>
        <time>1970-01-01T02:08:19.000Z</time>
      </trkpt>
      <trkpt lat="42.288272" lon="3.222511">
        <ele>270</ele>
        <time>1970-01-01T02:08:20.000Z</time>
      </trkpt>
      <trkpt lat="42.28834" lon="3.222518">
        <ele>270</ele>
        <time>1970-01-01T02:08:21.000Z</time>
      </trkpt>
      <trkpt lat="42.288408" lon="3.222525">
        <ele>270</ele>
        <time>1970-01-01T02:08:22.000Z</time>
      </trkpt>
      <trkpt lat="42.288477" lon="3.222532">
        <ele>270</ele>
        <time>1970-01-01T02:08:23.000Z</time>
      </trkpt>
      <trkpt lat="42.288545" lon="3.222539">
        <ele>270</ele>
        <time>1970-01-01T02:08:24.000Z</time>
      </trkpt>
      <trkpt lat="42.288613" lon="3.222546">
        <ele>270</ele>
        <time>1970-01-01T02:08:25.000Z</time>
      </trkpt>
      <trkpt lat="42.288756" lon="3.222589">
        <ele>270</ele>
        <time>1970-01-01T02:08:26.000Z</time>
      </trkpt>
      <trkpt lat="42.288822" lon="3.222621">
        <ele>270</ele>
        <time>1970-01-01T02:08:27.000Z</time>
      </trkpt>
      <trkpt lat="42.288887" lon="3.222654">
        <ele>270</ele>
        <time>1970-01-01T02:08:28.000Z</time>
      </trkpt>
      <trkpt lat="42.288953" lon="3.222687">
        <ele>270</ele>
        <time>1970-01-01T02:08:29.000Z</time>
      </trkpt>
      <trkpt lat="42.289019" lon="3.222719">
        <ele>270</ele>
        <time>1970-01-01T02:08:30.000Z</time>
      </trkpt>
      <trkpt lat="42.289085" lon="3.222752">
        <ele>270</ele>
        <time>1970-01-01T02:08:31.000Z</time>
      </trkpt>
      <trkpt lat="42.28915" lon="3.222785">
        <ele>270</ele>
        <time>1970-01-01T02:08:32.000Z</time>
      </trkpt>
      <trkpt lat="42.289216" lon="3.222817">
        <ele>270</ele>
        <time>1970-01-01T02:08:33.000Z</time>
      </trkpt>
      <trkpt lat="42.289282" lon="3.22285">
        <ele>268</ele>
        <time>1970-01-01T02:08:34.000Z</time>
      </trkpt>
      <trkpt lat="42.289429" lon="3.222899">
        <ele>268</ele>
        <time>1970-01-01T02:08:35.000Z</time>
      </trkpt>
      <trkpt lat="42.289501" lon="3.222914">
        <ele>268</ele>
        <time>1970-01-01T02:08:36.000Z</time>
      </trkpt>
      <trkpt lat="42.289574" lon="3.222929">
        <ele>268</ele>
        <time>1970-01-01T02:08:37.000Z</time>
      </trkpt>
      <trkpt lat="42.289646" lon="3.222944">
        <ele>268</ele>
        <time>1970-01-01T02:08:38.000Z</time>
      </trkpt>
      <trkpt lat="42.289718" lon="3.222958">
        <ele>268</ele>
        <time>1970-01-01T02:08:39.000Z</time>
      </trkpt>
      <trkpt lat="42.28979" lon="3.222973">
        <ele>268</ele>
        <time>1970-01-01T02:08:40.000Z</time>
      </trkpt>
      <trkpt lat="42.289862" lon="3.222988">
        <ele>268</ele>
        <time>1970-01-01T02:08:41.000Z</time>
      </trkpt>
      <trkpt lat="42.289935" lon="3.223003">
        <ele>268</ele>
        <time>1970-01-01T02:08:42.000Z</time>
      </trkpt>
      <trkpt lat="42.290007" lon="3.223018">
        <ele>268</ele>
        <time>1970-01-01T02:08:43.000Z</time>
      </trkpt>
      <trkpt lat="42.290079" lon="3.223033">
        <ele>266</ele>
        <time>1970-01-01T02:08:44.000Z</time>
      </trkpt>
      <trkpt lat="42.29016" lon="3.223048">
        <ele>266</ele>
        <time>1970-01-01T02:08:45.000Z</time>
      </trkpt>
      <trkpt lat="42.290242" lon="3.223068">
        <ele>266</ele>
        <time>1970-01-01T02:08:46.000Z</time>
      </trkpt>
      <trkpt lat="42.290324" lon="3.223094">
        <ele>266</ele>
        <time>1970-01-01T02:08:47.000Z</time>
      </trkpt>
      <trkpt lat="42.290406" lon="3.223127">
        <ele>266</ele>
        <time>1970-01-01T02:08:48.000Z</time>
      </trkpt>
      <trkpt lat="42.290487" lon="3.223164">
        <ele>266</ele>
        <time>1970-01-01T02:08:49.000Z</time>
      </trkpt>
      <trkpt lat="42.290567" lon="3.223204">
        <ele>266</ele>
        <time>1970-01-01T02:08:50.000Z</time>
      </trkpt>
      <trkpt lat="42.290647" lon="3.223246">
        <ele>266</ele>
        <time>1970-01-01T02:08:51.000Z</time>
      </trkpt>
      <trkpt lat="42.290728" lon="3.223287">
        <ele>266</ele>
        <time>1970-01-01T02:08:52.000Z</time>
      </trkpt>
      <trkpt lat="42.290808" lon="3.223326">
        <ele>266</ele>
        <time>1970-01-01T02:08:53.000Z</time>
      </trkpt>
      <trkpt lat="42.290889" lon="3.223366">
        <ele>266</ele>
        <time>1970-01-01T02:08:54.000Z</time>
      </trkpt>
      <trkpt lat="42.29097" lon="3.223406">
        <ele>266</ele>
        <time>1970-01-01T02:08:55.000Z</time>
      </trkpt>
      <trkpt lat="42.29112" lon="3.223482">
        <ele>266</ele>
        <time>1970-01-01T02:08:56.000Z</time>
      </trkpt>
      <trkpt lat="42.29119" lon="3.223516">
        <ele>266</ele>
        <time>1970-01-01T02:08:57.000Z</time>
      </trkpt>
      <trkpt lat="42.291259" lon="3.223551">
        <ele>266</ele>
        <time>1970-01-01T02:08:58.000Z</time>
      </trkpt>
      <trkpt lat="42.291329" lon="3.223586">
        <ele>266</ele>
        <time>1970-01-01T02:08:59.000Z</time>
      </trkpt>
      <trkpt lat="42.291398" lon="3.22362">
        <ele>266</ele>
        <time>1970-01-01T02:09:00.000Z</time>
      </trkpt>
      <trkpt lat="42.291468" lon="3.223655">
        <ele>266</ele>
        <time>1970-01-01T02:09:01.000Z</time>
      </trkpt>
      <trkpt lat="42.291537" lon="3.22369">
        <ele>266</ele>
        <time>1970-01-01T02:09:02.000Z</time>
      </trkpt>
      <trkpt lat="42.291607" lon="3.223724">
        <ele>266</ele>
        <time>1970-01-01T02:09:03.000Z</time>
      </trkpt>
      <trkpt lat="42.291676" lon="3.223759">
        <ele>265</ele>
        <time>1970-01-01T02:09:04.000Z</time>
      </trkpt>
      <trkpt lat="42.291805" lon="3.223862">
        <ele>265</ele>
        <time>1970-01-01T02:09:05.000Z</time>
      </trkpt>
      <trkpt lat="42.291861" lon="3.223926">
        <ele>265</ele>
        <time>1970-01-01T02:09:06.000Z</time>
      </trkpt>
      <trkpt lat="42.291916" lon="3.223989">
        <ele>265</ele>
        <time>1970-01-01T02:09:07.000Z</time>
      </trkpt>
      <trkpt lat="42.291972" lon="3.224053">
        <ele>265</ele>
        <time>1970-01-01T02:09:08.000Z</time>
      </trkpt>
      <trkpt lat="42.292027" lon="3.224117">
        <ele>265</ele>
        <time>1970-01-01T02:09:09.000Z</time>
      </trkpt>
      <trkpt lat="42.292082" lon="3.224181">
        <ele>265</ele>
        <time>1970-01-01T02:09:10.000Z</time>
      </trkpt>
      <trkpt lat="42.292138" lon="3.224245">
        <ele>265</ele>
        <time>1970-01-01T02:09:11.000Z</time>
      </trkpt>
      <trkpt lat="42.292193" lon="3.224308">
        <ele>265</ele>
        <time>1970-01-01T02:09:12.000Z</time>
      </trkpt>
      <trkpt lat="42.292249" lon="3.224372">
        <ele>265</ele>
        <time>1970-01-01T02:09:13.000Z</time>
      </trkpt>
      <trkpt lat="42.292304" lon="3.224436">
        <ele>264</ele>
        <time>1970-01-01T02:09:14.000Z</time>
      </trkpt>
      <trkpt lat="42.292369" lon="3.224617">
        <ele>264</ele>
        <time>1970-01-01T02:09:15.000Z</time>
      </trkpt>
      <trkpt lat="42.292393" lon="3.2247">
        <ele>264</ele>
        <time>1970-01-01T02:09:16.000Z</time>
      </trkpt>
      <trkpt lat="42.292416" lon="3.224783">
        <ele>264</ele>
        <time>1970-01-01T02:09:17.000Z</time>
      </trkpt>
      <trkpt lat="42.292439" lon="3.224866">
        <ele>264</ele>
        <time>1970-01-01T02:09:18.000Z</time>
      </trkpt>
      <trkpt lat="42.292463" lon="3.224949">
        <ele>264</ele>
        <time>1970-01-01T02:09:19.000Z</time>
      </trkpt>
      <trkpt lat="42.292486" lon="3.225032">
        <ele>264</ele>
        <time>1970-01-01T02:09:20.000Z</time>
      </trkpt>
      <trkpt lat="42.292509" lon="3.225115">
        <ele>264</ele>
        <time>1970-01-01T02:09:21.000Z</time>
      </trkpt>
      <trkpt lat="42.292532" lon="3.225198">
        <ele>264</ele>
        <time>1970-01-01T02:09:22.000Z</time>
      </trkpt>
      <trkpt lat="42.292556" lon="3.225281">
        <ele>264</ele>
        <time>1970-01-01T02:09:23.000Z</time>
      </trkpt>
      <trkpt lat="42.292579" lon="3.225364">
        <ele>263</ele>
        <time>1970-01-01T02:09:24.000Z</time>
      </trkpt>
      <trkpt lat="42.292702" lon="3.225403">
        <ele>263</ele>
        <time>1970-01-01T02:09:25.000Z</time>
      </trkpt>
      <trkpt lat="42.292769" lon="3.225396">
        <ele>263</ele>
        <time>1970-01-01T02:09:26.000Z</time>
      </trkpt>
      <trkpt lat="42.292836" lon="3.22539">
        <ele>263</ele>
        <time>1970-01-01T02:09:27.000Z</time>
      </trkpt>
      <trkpt lat="42.292903" lon="3.225383">
        <ele>263</ele>
        <time>1970-01-01T02:09:28.000Z</time>
      </trkpt>
      <trkpt lat="42.29297" lon="3.225376">
        <ele>263</ele>
        <time>1970-01-01T02:09:29.000Z</time>
      </trkpt>
      <trkpt lat="42.293036" lon="3.225369">
        <ele>263</ele>
        <time>1970-01-01T02:09:30.000Z</time>
      </trkpt>
      <trkpt lat="42.293103" lon="3.225362">
        <ele>263</ele>
        <time>1970-01-01T02:09:31.000Z</time>
      </trkpt>
      <trkpt lat="42.29317" lon="3.225356">
        <ele>263</ele>
        <time>1970-01-01T02:09:32.000Z</time>
      </trkpt>
      <trkpt lat="42.293237" lon="3.225349">
        <ele>263</ele>
        <time>1970-01-01T02:09:33.000Z</time>
      </trkpt>
      <trkpt lat="42.293304" lon="3.225342">
        <ele>262</ele>
        <time>1970-01-01T02:09:34.000Z</time>
      </trkpt>
      <trkpt lat="42.293415" lon="3.225412">
        <ele>262</ele>
        <time>1970-01-01T02:09:35.000Z</time>
      </trkpt>
      <trkpt lat="42.293453" lon="3.225482">
        <ele>262</ele>
        <time>1970-01-01T02:09:36.000Z</time>
      </trkpt>
      <trkpt lat="42.293492" lon="3.225551">
        <ele>262</ele>
        <time>1970-01-01T02:09:37.000Z</time>
      </trkpt>
      <trkpt lat="42.29353" lon="3.225621">
        <ele>262</ele>
        <time>1970-01-01T02:09:38.000Z</time>
      </trkpt>
      <trkpt lat="42.293569" lon="3.225691">
        <ele>262</ele>
        <time>1970-01-01T02:09:39.000Z</time>
      </trkpt>
      <trkpt lat="42.293608" lon="3.225761">
        <ele>262</ele>
        <time>1970-01-01T02:09:40.000Z</time>
      </trkpt>
      <trkpt lat="42.293646" lon="3.225831">
        <ele>262</ele>
        <time>1970-01-01T02:09:41.000Z</time>
      </trkpt>
      <trkpt lat="42.293685" lon="3.2259">
        <ele>262</ele>
        <time>1970-01-01T02:09:42.000Z</time>
      </trkpt>
      <trkpt lat="42.293723" lon="3.22597">
        <ele>262</ele>
        <time>1970-01-01T02:09:43.000Z</time>
      </trkpt>
      <trkpt lat="42.293762" lon="3.22604">
        <ele>260</ele>
        <time>1970-01-01T02:09:44.000Z</time>
      </trkpt>
      <trkpt lat="42.293799" lon="3.226223">
        <ele>260</ele>
        <time>1970-01-01T02:09:45.000Z</time>
      </trkpt>
      <trkpt lat="42.293814" lon="3.226308">
        <ele>260</ele>
        <time>1970-01-01T02:09:46.000Z</time>
      </trkpt>
      <trkpt lat="42.293828" lon="3.226393">
        <ele>260</ele>
        <time>1970-01-01T02:09:47.000Z</time>
      </trkpt>
      <trkpt lat="42.293842" lon="3.226478">
        <ele>260</ele>
        <time>1970-01-01T02:09:48.000Z</time>
      </trkpt>
      <trkpt lat="42.293857" lon="3.226563">
        <ele>260</ele>
        <time>1970-01-01T02:09:49.000Z</time>
      </trkpt>
      <trkpt lat="42.293871" lon="3.226648">
        <ele>260</ele>
        <time>1970-01-01T02:09:50.000Z</time>
      </trkpt>
      <trkpt lat="42.293885" lon="3.226733">
        <ele>260</ele>
        <time>1970-01-01T02:09:51.000Z</time>
      </trkpt>
      <trkpt lat="42.293899" lon="3.226818">
        <ele>260</ele>
        <time>1970-01-01T02:09:52.000Z</time>
      </trkpt>
      <trkpt lat="42.293914" lon="3.226903">
        <ele>260</ele>
        <time>1970-01-01T02:09:53.000Z</time>
      </trkpt>
      <trkpt lat="42.293928" lon="3.226988">
        <ele>260</ele>
        <time>1970-01-01T02:09:54.000Z</time>
      </trkpt>
      <trkpt lat="42.293917" lon="3.227168">
        <ele>260</ele>
        <time>1970-01-01T02:09:55.000Z</time>
      </trkpt>
      <trkpt lat="42.29391" lon="3.22725">
        <ele>260</ele>
        <time>1970-01-01T02:09:56.000Z</time>
      </trkpt>
      <trkpt lat="42.293902" lon="3.227333">
        <ele>260</ele>
        <time>1970-01-01T02:09:57.000Z</time>
      </trkpt>
      <trkpt lat="42.293895" lon="3.227415">
        <ele>260</ele>
        <time>1970-01-01T02:09:58.000Z</time>
      </trkpt>
      <trkpt lat="42.293888" lon="3.227498">
        <ele>260</ele>
        <time>1970-01-01T02:09:59.000Z</time>
      </trkpt>
      <trkpt lat="42.293881" lon="3.22758">
        <ele>260</ele>
        <time>1970-01-01T02:10:00.000Z</time>
      </trkpt>
      <trkpt lat="42.293874" lon="3.227663">
        <ele>260</ele>
        <time>1970-01-01T02:10:01.000Z</time>
      </trkpt>
      <trkpt lat="42.293866" lon="3.227745">
        <ele>260</ele>
        <time>1970-01-01T02:10:02.000Z</time>
      </trkpt>
      <trkpt lat="42.293859" lon="3.227828">
        <ele>260</ele>
        <time>1970-01-01T02:10:03.000Z</time>
      </trkpt>
      <trkpt lat="42.293852" lon="3.22791">
        <ele>260</ele>
        <time>1970-01-01T02:10:04.000Z</time>
      </trkpt>
      <trkpt lat="42.293838" lon="3.228078">
        <ele>260</ele>
        <time>1970-01-01T02:10:05.000Z</time>
      </trkpt>
      <trkpt lat="42.293832" lon="3.228153">
        <ele>260</ele>
        <time>1970-01-01T02:10:06.000Z</time>
      </trkpt>
      <trkpt lat="42.293825" lon="3.228229">
        <ele>260</ele>
        <time>1970-01-01T02:10:07.000Z</time>
      </trkpt>
      <trkpt lat="42.293819" lon="3.228304">
        <ele>260</ele>
        <time>1970-01-01T02:10:08.000Z</time>
      </trkpt>
      <trkpt lat="42.293813" lon="3.22838">
        <ele>260</ele>
        <time>1970-01-01T02:10:09.000Z</time>
      </trkpt>
      <trkpt lat="42.293807" lon="3.228456">
        <ele>260</ele>
        <time>1970-01-01T02:10:10.000Z</time>
      </trkpt>
      <trkpt lat="42.293801" lon="3.228531">
        <ele>260</ele>
        <time>1970-01-01T02:10:11.000Z</time>
      </trkpt>
      <trkpt lat="42.293794" lon="3.228607">
        <ele>260</ele>
        <time>1970-01-01T02:10:12.000Z</time>
      </trkpt>
      <trkpt lat="42.293788" lon="3.228682">
        <ele>260</ele>
        <time>1970-01-01T02:10:13.000Z</time>
      </trkpt>
      <trkpt lat="42.293782" lon="3.228758">
        <ele>259</ele>
        <time>1970-01-01T02:10:14.000Z</time>
      </trkpt>
      <trkpt lat="42.293734" lon="3.228903">
        <ele>259</ele>
        <time>1970-01-01T02:10:15.000Z</time>
      </trkpt>
      <trkpt lat="42.293695" lon="3.228967">
        <ele>259</ele>
        <time>1970-01-01T02:10:16.000Z</time>
      </trkpt>
      <trkpt lat="42.293656" lon="3.229032">
        <ele>259</ele>
        <time>1970-01-01T02:10:17.000Z</time>
      </trkpt>
      <trkpt lat="42.293617" lon="3.229096">
        <ele>259</ele>
        <time>1970-01-01T02:10:18.000Z</time>
      </trkpt>
      <trkpt lat="42.293578" lon="3.22916">
        <ele>259</ele>
        <time>1970-01-01T02:10:19.000Z</time>
      </trkpt>
      <trkpt lat="42.293538" lon="3.229224">
        <ele>259</ele>
        <time>1970-01-01T02:10:20.000Z</time>
      </trkpt>
      <trkpt lat="42.293499" lon="3.229288">
        <ele>259</ele>
        <time>1970-01-01T02:10:21.000Z</time>
      </trkpt>
      <trkpt lat="42.29346" lon="3.229353">
        <ele>259</ele>
        <time>1970-01-01T02:10:22.000Z</time>
      </trkpt>
      <trkpt lat="42.293421" lon="3.229417">
        <ele>259</ele>
        <time>1970-01-01T02:10:23.000Z</time>
      </trkpt>
      <trkpt lat="42.293382" lon="3.229481">
        <ele>257</ele>
        <time>1970-01-01T02:10:24.000Z</time>
      </trkpt>
      <trkpt lat="42.293265" lon="3.229606">
        <ele>257</ele>
        <time>1970-01-01T02:10:25.000Z</time>
      </trkpt>
      <trkpt lat="42.293207" lon="3.229668">
        <ele>257</ele>
        <time>1970-01-01T02:10:26.000Z</time>
      </trkpt>
      <trkpt lat="42.293148" lon="3.229729">
        <ele>257</ele>
        <time>1970-01-01T02:10:27.000Z</time>
      </trkpt>
      <trkpt lat="42.29309" lon="3.22979">
        <ele>257</ele>
        <time>1970-01-01T02:10:28.000Z</time>
      </trkpt>
      <trkpt lat="42.293031" lon="3.229852">
        <ele>257</ele>
        <time>1970-01-01T02:10:29.000Z</time>
      </trkpt>
      <trkpt lat="42.292972" lon="3.229913">
        <ele>257</ele>
        <time>1970-01-01T02:10:30.000Z</time>
      </trkpt>
      <trkpt lat="42.292914" lon="3.229974">
        <ele>257</ele>
        <time>1970-01-01T02:10:31.000Z</time>
      </trkpt>
      <trkpt lat="42.292855" lon="3.230035">
        <ele>257</ele>
        <time>1970-01-01T02:10:32.000Z</time>
      </trkpt>
      <trkpt lat="42.292797" lon="3.230097">
        <ele>257</ele>
        <time>1970-01-01T02:10:33.000Z</time>
      </trkpt>
      <trkpt lat="42.292738" lon="3.230158">
        <ele>251</ele>
        <time>1970-01-01T02:10:34.000Z</time>
      </trkpt>
      <trkpt lat="42.292584" lon="3.230244">
        <ele>251</ele>
        <time>1970-01-01T02:10:35.000Z</time>
      </trkpt>
      <trkpt lat="42.292506" lon="3.230265">
        <ele>251</ele>
        <time>1970-01-01T02:10:36.000Z</time>
      </trkpt>
      <trkpt lat="42.292428" lon="3.230287">
        <ele>251</ele>
        <time>1970-01-01T02:10:37.000Z</time>
      </trkpt>
      <trkpt lat="42.29235" lon="3.230308">
        <ele>251</ele>
        <time>1970-01-01T02:10:38.000Z</time>
      </trkpt>
      <trkpt lat="42.292273" lon="3.230329">
        <ele>251</ele>
        <time>1970-01-01T02:10:39.000Z</time>
      </trkpt>
      <trkpt lat="42.292195" lon="3.23035">
        <ele>251</ele>
        <time>1970-01-01T02:10:40.000Z</time>
      </trkpt>
      <trkpt lat="42.292117" lon="3.230371">
        <ele>251</ele>
        <time>1970-01-01T02:10:41.000Z</time>
      </trkpt>
      <trkpt lat="42.292039" lon="3.230393">
        <ele>251</ele>
        <time>1970-01-01T02:10:42.000Z</time>
      </trkpt>
      <trkpt lat="42.291961" lon="3.230414">
        <ele>251</ele>
        <time>1970-01-01T02:10:43.000Z</time>
      </trkpt>
      <trkpt lat="42.291883" lon="3.230435">
        <ele>245</ele>
        <time>1970-01-01T02:10:44.000Z</time>
      </trkpt>
      <trkpt lat="42.291793" lon="3.230494">
        <ele>245</ele>
        <time>1970-01-01T02:10:45.000Z</time>
      </trkpt>
      <trkpt lat="42.291788" lon="3.230558">
        <ele>245</ele>
        <time>1970-01-01T02:10:46.000Z</time>
      </trkpt>
      <trkpt lat="42.291783" lon="3.230621">
        <ele>245</ele>
        <time>1970-01-01T02:10:47.000Z</time>
      </trkpt>
      <trkpt lat="42.291778" lon="3.230684">
        <ele>245</ele>
        <time>1970-01-01T02:10:48.000Z</time>
      </trkpt>
      <trkpt lat="42.291773" lon="3.230748">
        <ele>245</ele>
        <time>1970-01-01T02:10:49.000Z</time>
      </trkpt>
      <trkpt lat="42.291769" lon="3.230811">
        <ele>245</ele>
        <time>1970-01-01T02:10:50.000Z</time>
      </trkpt>
      <trkpt lat="42.291764" lon="3.230875">
        <ele>245</ele>
        <time>1970-01-01T02:10:51.000Z</time>
      </trkpt>
      <trkpt lat="42.291759" lon="3.230938">
        <ele>245</ele>
        <time>1970-01-01T02:10:52.000Z</time>
      </trkpt>
      <trkpt lat="42.291754" lon="3.231001">
        <ele>245</ele>
        <time>1970-01-01T02:10:53.000Z</time>
      </trkpt>
      <trkpt lat="42.291749" lon="3.231065">
        <ele>245</ele>
        <time>1970-01-01T02:10:54.000Z</time>
      </trkpt>
      <trkpt lat="42.291744" lon="3.231128">
        <ele>244</ele>
        <time>1970-01-01T02:10:55.000Z</time>
      </trkpt>
      <trkpt lat="42.291816" lon="3.231268">
        <ele>244</ele>
        <time>1970-01-01T02:10:56.000Z</time>
      </trkpt>
      <trkpt lat="42.291828" lon="3.231344">
        <ele>244</ele>
        <time>1970-01-01T02:10:57.000Z</time>
      </trkpt>
      <trkpt lat="42.291841" lon="3.231421">
        <ele>244</ele>
        <time>1970-01-01T02:10:58.000Z</time>
      </trkpt>
      <trkpt lat="42.291853" lon="3.231497">
        <ele>244</ele>
        <time>1970-01-01T02:10:59.000Z</time>
      </trkpt>
      <trkpt lat="42.291865" lon="3.231573">
        <ele>244</ele>
        <time>1970-01-01T02:11:00.000Z</time>
      </trkpt>
      <trkpt lat="42.291877" lon="3.231649">
        <ele>244</ele>
        <time>1970-01-01T02:11:01.000Z</time>
      </trkpt>
      <trkpt lat="42.29189" lon="3.231726">
        <ele>244</ele>
        <time>1970-01-01T02:11:02.000Z</time>
      </trkpt>
      <trkpt lat="42.291902" lon="3.231802">
        <ele>244</ele>
        <time>1970-01-01T02:11:03.000Z</time>
      </trkpt>
      <trkpt lat="42.291914" lon="3.231878">
        <ele>243</ele>
        <time>1970-01-01T02:11:04.000Z</time>
      </trkpt>
      <trkpt lat="42.291827" lon="3.232005">
        <ele>243</ele>
        <time>1970-01-01T02:11:05.000Z</time>
      </trkpt>
      <trkpt lat="42.291778" lon="3.232052">
        <ele>243</ele>
        <time>1970-01-01T02:11:06.000Z</time>
      </trkpt>
      <trkpt lat="42.29173" lon="3.232099">
        <ele>243</ele>
        <time>1970-01-01T02:11:07.000Z</time>
      </trkpt>
      <trkpt lat="42.291681" lon="3.232146">
        <ele>243</ele>
        <time>1970-01-01T02:11:08.000Z</time>
      </trkpt>
      <trkpt lat="42.291633" lon="3.232193">
        <ele>243</ele>
        <time>1970-01-01T02:11:09.000Z</time>
      </trkpt>
      <trkpt lat="42.291584" lon="3.23224">
        <ele>243</ele>
        <time>1970-01-01T02:11:10.000Z</time>
      </trkpt>
      <trkpt lat="42.291536" lon="3.232287">
        <ele>243</ele>
        <time>1970-01-01T02:11:11.000Z</time>
      </trkpt>
      <trkpt lat="42.291487" lon="3.232334">
        <ele>243</ele>
        <time>1970-01-01T02:11:12.000Z</time>
      </trkpt>
      <trkpt lat="42.291439" lon="3.232381">
        <ele>243</ele>
        <time>1970-01-01T02:11:13.000Z</time>
      </trkpt>
      <trkpt lat="42.29139" lon="3.232428">
        <ele>243</ele>
        <time>1970-01-01T02:11:14.000Z</time>
      </trkpt>
      <trkpt lat="42.291346" lon="3.232548">
        <ele>243</ele>
        <time>1970-01-01T02:11:15.000Z</time>
      </trkpt>
      <trkpt lat="42.291348" lon="3.232618">
        <ele>243</ele>
        <time>1970-01-01T02:11:16.000Z</time>
      </trkpt>
      <trkpt lat="42.291349" lon="3.232688">
        <ele>243</ele>
        <time>1970-01-01T02:11:17.000Z</time>
      </trkpt>
      <trkpt lat="42.291351" lon="3.232758">
        <ele>243</ele>
        <time>1970-01-01T02:11:18.000Z</time>
      </trkpt>
      <trkpt lat="42.291353" lon="3.232828">
        <ele>243</ele>
        <time>1970-01-01T02:11:19.000Z</time>
      </trkpt>
      <trkpt lat="42.291355" lon="3.232898">
        <ele>243</ele>
        <time>1970-01-01T02:11:20.000Z</time>
      </trkpt>
      <trkpt lat="42.291357" lon="3.232968">
        <ele>243</ele>
        <time>1970-01-01T02:11:21.000Z</time>
      </trkpt>
      <trkpt lat="42.291358" lon="3.233038">
        <ele>243</ele>
        <time>1970-01-01T02:11:22.000Z</time>
      </trkpt>
      <trkpt lat="42.29136" lon="3.233108">
        <ele>243</ele>
        <time>1970-01-01T02:11:23.000Z</time>
      </trkpt>
      <trkpt lat="42.291362" lon="3.233178">
        <ele>244</ele>
        <time>1970-01-01T02:11:24.000Z</time>
      </trkpt>
      <trkpt lat="42.291446" lon="3.233256">
        <ele>244</ele>
        <time>1970-01-01T02:11:25.000Z</time>
      </trkpt>
      <trkpt lat="42.2915" lon="3.233263">
        <ele>244</ele>
        <time>1970-01-01T02:11:26.000Z</time>
      </trkpt>
      <trkpt lat="42.291553" lon="3.233271">
        <ele>244</ele>
        <time>1970-01-01T02:11:27.000Z</time>
      </trkpt>
      <trkpt lat="42.291607" lon="3.233279">
        <ele>244</ele>
        <time>1970-01-01T02:11:28.000Z</time>
      </trkpt>
      <trkpt lat="42.291661" lon="3.233286">
        <ele>244</ele>
        <time>1970-01-01T02:11:29.000Z</time>
      </trkpt>
      <trkpt lat="42.291715" lon="3.233294">
        <ele>244</ele>
        <time>1970-01-01T02:11:30.000Z</time>
      </trkpt>
      <trkpt lat="42.291769" lon="3.233302">
        <ele>244</ele>
        <time>1970-01-01T02:11:31.000Z</time>
      </trkpt>
      <trkpt lat="42.291822" lon="3.23331">
        <ele>244</ele>
        <time>1970-01-01T02:11:32.000Z</time>
      </trkpt>
      <trkpt lat="42.291876" lon="3.233317">
        <ele>244</ele>
        <time>1970-01-01T02:11:33.000Z</time>
      </trkpt>
      <trkpt lat="42.29193" lon="3.233325">
        <ele>243</ele>
        <time>1970-01-01T02:11:34.000Z</time>
      </trkpt>
      <trkpt lat="42.292053" lon="3.233294">
        <ele>243</ele>
        <time>1970-01-01T02:11:35.000Z</time>
      </trkpt>
      <trkpt lat="42.292112" lon="3.233281">
        <ele>243</ele>
        <time>1970-01-01T02:11:36.000Z</time>
      </trkpt>
      <trkpt lat="42.29217" lon="3.233267">
        <ele>243</ele>
        <time>1970-01-01T02:11:37.000Z</time>
      </trkpt>
      <trkpt lat="42.292228" lon="3.233254">
        <ele>243</ele>
        <time>1970-01-01T02:11:38.000Z</time>
      </trkpt>
      <trkpt lat="42.292287" lon="3.23324">
        <ele>243</ele>
        <time>1970-01-01T02:11:39.000Z</time>
      </trkpt>
      <trkpt lat="42.292345" lon="3.233226">
        <ele>243</ele>
        <time>1970-01-01T02:11:40.000Z</time>
      </trkpt>
      <trkpt lat="42.292403" lon="3.233213">
        <ele>243</ele>
        <time>1970-01-01T02:11:41.000Z</time>
      </trkpt>
      <trkpt lat="42.292461" lon="3.233199">
        <ele>243</ele>
        <time>1970-01-01T02:11:42.000Z</time>
      </trkpt>
      <trkpt lat="42.29252" lon="3.233186">
        <ele>243</ele>
        <time>1970-01-01T02:11:43.000Z</time>
      </trkpt>
      <trkpt lat="42.292578" lon="3.233172">
        <ele>242</ele>
        <time>1970-01-01T02:11:44.000Z</time>
      </trkpt>
      <trkpt lat="42.292701" lon="3.233176">
        <ele>242</ele>
        <time>1970-01-01T02:11:45.000Z</time>
      </trkpt>
      <trkpt lat="42.292758" lon="3.233186">
        <ele>242</ele>
        <time>1970-01-01T02:11:46.000Z</time>
      </trkpt>
      <trkpt lat="42.292816" lon="3.233196">
        <ele>242</ele>
        <time>1970-01-01T02:11:47.000Z</time>
      </trkpt>
      <trkpt lat="42.292873" lon="3.233206">
        <ele>242</ele>
        <time>1970-01-01T02:11:48.000Z</time>
      </trkpt>
      <trkpt lat="42.29293" lon="3.233216">
        <ele>242</ele>
        <time>1970-01-01T02:11:49.000Z</time>
      </trkpt>
      <trkpt lat="42.292987" lon="3.233227">
        <ele>242</ele>
        <time>1970-01-01T02:11:50.000Z</time>
      </trkpt>
      <trkpt lat="42.293044" lon="3.233237">
        <ele>242</ele>
        <time>1970-01-01T02:11:51.000Z</time>
      </trkpt>
      <trkpt lat="42.293101" lon="3.233247">
        <ele>242</ele>
        <time>1970-01-01T02:11:52.000Z</time>
      </trkpt>
      <trkpt lat="42.293159" lon="3.233257">
        <ele>242</ele>
        <time>1970-01-01T02:11:53.000Z</time>
      </trkpt>
      <trkpt lat="42.293216" lon="3.233267">
        <ele>242</ele>
        <time>1970-01-01T02:11:54.000Z</time>
      </trkpt>
      <trkpt lat="42.293273" lon="3.233277">
        <ele>242</ele>
        <time>1970-01-01T02:11:55.000Z</time>
      </trkpt>
      <trkpt lat="42.293355" lon="3.233356">
        <ele>242</ele>
        <time>1970-01-01T02:11:56.000Z</time>
      </trkpt>
      <trkpt lat="42.293383" lon="3.233409">
        <ele>242</ele>
        <time>1970-01-01T02:11:57.000Z</time>
      </trkpt>
      <trkpt lat="42.293411" lon="3.233462">
        <ele>242</ele>
        <time>1970-01-01T02:11:58.000Z</time>
      </trkpt>
      <trkpt lat="42.293439" lon="3.233515">
        <ele>242</ele>
        <time>1970-01-01T02:11:59.000Z</time>
      </trkpt>
      <trkpt lat="42.293466" lon="3.233569">
        <ele>242</ele>
        <time>1970-01-01T02:12:00.000Z</time>
      </trkpt>
      <trkpt lat="42.293494" lon="3.233622">
        <ele>242</ele>
        <time>1970-01-01T02:12:01.000Z</time>
      </trkpt>
      <trkpt lat="42.293522" lon="3.233675">
        <ele>242</ele>
        <time>1970-01-01T02:12:02.000Z</time>
      </trkpt>
      <trkpt lat="42.29355" lon="3.233728">
        <ele>242</ele>
        <time>1970-01-01T02:12:03.000Z</time>
      </trkpt>
      <trkpt lat="42.293578" lon="3.233781">
        <ele>243</ele>
        <time>1970-01-01T02:12:04.000Z</time>
      </trkpt>
      <trkpt lat="42.293632" lon="3.233892">
        <ele>243</ele>
        <time>1970-01-01T02:12:05.000Z</time>
      </trkpt>
      <trkpt lat="42.293663" lon="3.233938">
        <ele>243</ele>
        <time>1970-01-01T02:12:06.000Z</time>
      </trkpt>
      <trkpt lat="42.293693" lon="3.233985">
        <ele>243</ele>
        <time>1970-01-01T02:12:07.000Z</time>
      </trkpt>
      <trkpt lat="42.293724" lon="3.234031">
        <ele>243</ele>
        <time>1970-01-01T02:12:08.000Z</time>
      </trkpt>
      <trkpt lat="42.293754" lon="3.234078">
        <ele>243</ele>
        <time>1970-01-01T02:12:09.000Z</time>
      </trkpt>
      <trkpt lat="42.293784" lon="3.234125">
        <ele>243</ele>
        <time>1970-01-01T02:12:10.000Z</time>
      </trkpt>
      <trkpt lat="42.293815" lon="3.234171">
        <ele>243</ele>
        <time>1970-01-01T02:12:11.000Z</time>
      </trkpt>
      <trkpt lat="42.293845" lon="3.234218">
        <ele>243</ele>
        <time>1970-01-01T02:12:12.000Z</time>
      </trkpt>
      <trkpt lat="42.293876" lon="3.234264">
        <ele>243</ele>
        <time>1970-01-01T02:12:13.000Z</time>
      </trkpt>
      <trkpt lat="42.293906" lon="3.234311">
        <ele>243</ele>
        <time>1970-01-01T02:12:14.000Z</time>
      </trkpt>
      <trkpt lat="42.294003" lon="3.234374">
        <ele>243</ele>
        <time>1970-01-01T02:12:15.000Z</time>
      </trkpt>
      <trkpt lat="42.294051" lon="3.234404">
        <ele>243</ele>
        <time>1970-01-01T02:12:16.000Z</time>
      </trkpt>
      <trkpt lat="42.294098" lon="3.234435">
        <ele>243</ele>
        <time>1970-01-01T02:12:17.000Z</time>
      </trkpt>
      <trkpt lat="42.294146" lon="3.234465">
        <ele>243</ele>
        <time>1970-01-01T02:12:18.000Z</time>
      </trkpt>
      <trkpt lat="42.294193" lon="3.234496">
        <ele>243</ele>
        <time>1970-01-01T02:12:19.000Z</time>
      </trkpt>
      <trkpt lat="42.29424" lon="3.234527">
        <ele>243</ele>
        <time>1970-01-01T02:12:20.000Z</time>
      </trkpt>
      <trkpt lat="42.294288" lon="3.234557">
        <ele>243</ele>
        <time>1970-01-01T02:12:21.000Z</time>
      </trkpt>
      <trkpt lat="42.294335" lon="3.234588">
        <ele>243</ele>
        <time>1970-01-01T02:12:22.000Z</time>
      </trkpt>
      <trkpt lat="42.294383" lon="3.234618">
        <ele>243</ele>
        <time>1970-01-01T02:12:23.000Z</time>
      </trkpt>
      <trkpt lat="42.29443" lon="3.234649">
        <ele>243</ele>
        <time>1970-01-01T02:12:24.000Z</time>
      </trkpt>
      <trkpt lat="42.294534" lon="3.234687">
        <ele>243</ele>
        <time>1970-01-01T02:12:25.000Z</time>
      </trkpt>
      <trkpt lat="42.294583" lon="3.234691">
        <ele>243</ele>
        <time>1970-01-01T02:12:26.000Z</time>
      </trkpt>
      <trkpt lat="42.294633" lon="3.234696">
        <ele>243</ele>
        <time>1970-01-01T02:12:27.000Z</time>
      </trkpt>
      <trkpt lat="42.294682" lon="3.234701">
        <ele>243</ele>
        <time>1970-01-01T02:12:28.000Z</time>
      </trkpt>
      <trkpt lat="42.294732" lon="3.234705">
        <ele>243</ele>
        <time>1970-01-01T02:12:29.000Z</time>
      </trkpt>
      <trkpt lat="42.294782" lon="3.23471">
        <ele>243</ele>
        <time>1970-01-01T02:12:30.000Z</time>
      </trkpt>
      <trkpt lat="42.294831" lon="3.234715">
        <ele>243</ele>
        <time>1970-01-01T02:12:31.000Z</time>
      </trkpt>
      <trkpt lat="42.294881" lon="3.23472">
        <ele>243</ele>
        <time>1970-01-01T02:12:32.000Z</time>
      </trkpt>
      <trkpt lat="42.29493" lon="3.234724">
        <ele>243</ele>
        <time>1970-01-01T02:12:33.000Z</time>
      </trkpt>
      <trkpt lat="42.29498" lon="3.234729">
        <ele>243</ele>
        <time>1970-01-01T02:12:34.000Z</time>
      </trkpt>
      <trkpt lat="42.295089" lon="3.234713">
        <ele>243</ele>
        <time>1970-01-01T02:12:35.000Z</time>
      </trkpt>
      <trkpt lat="42.295141" lon="3.234711">
        <ele>243</ele>
        <time>1970-01-01T02:12:36.000Z</time>
      </trkpt>
      <trkpt lat="42.295192" lon="3.23471">
        <ele>243</ele>
        <time>1970-01-01T02:12:37.000Z</time>
      </trkpt>
      <trkpt lat="42.295244" lon="3.234708">
        <ele>243</ele>
        <time>1970-01-01T02:12:38.000Z</time>
      </trkpt>
      <trkpt lat="42.295296" lon="3.234706">
        <ele>243</ele>
        <time>1970-01-01T02:12:39.000Z</time>
      </trkpt>
      <trkpt lat="42.295348" lon="3.234704">
        <ele>243</ele>
        <time>1970-01-01T02:12:40.000Z</time>
      </trkpt>
      <trkpt lat="42.2954" lon="3.234702">
        <ele>243</ele>
        <time>1970-01-01T02:12:41.000Z</time>
      </trkpt>
      <trkpt lat="42.295451" lon="3.234701">
        <ele>243</ele>
        <time>1970-01-01T02:12:42.000Z</time>
      </trkpt>
      <trkpt lat="42.295503" lon="3.234699">
        <ele>243</ele>
        <time>1970-01-01T02:12:43.000Z</time>
      </trkpt>
      <trkpt lat="42.295555" lon="3.234697">
        <ele>243</ele>
        <time>1970-01-01T02:12:44.000Z</time>
      </trkpt>
      <trkpt lat="42.29566" lon="3.234733">
        <ele>243</ele>
        <time>1970-01-01T02:12:45.000Z</time>
      </trkpt>
      <trkpt lat="42.29571" lon="3.234751">
        <ele>243</ele>
        <time>1970-01-01T02:12:46.000Z</time>
      </trkpt>
      <trkpt lat="42.295759" lon="3.234769">
        <ele>243</ele>
        <time>1970-01-01T02:12:47.000Z</time>
      </trkpt>
      <trkpt lat="42.295809" lon="3.234787">
        <ele>243</ele>
        <time>1970-01-01T02:12:48.000Z</time>
      </trkpt>
      <trkpt lat="42.295859" lon="3.234805">
        <ele>243</ele>
        <time>1970-01-01T02:12:49.000Z</time>
      </trkpt>
      <trkpt lat="42.295909" lon="3.234824">
        <ele>243</ele>
        <time>1970-01-01T02:12:50.000Z</time>
      </trkpt>
      <trkpt lat="42.295959" lon="3.234842">
        <ele>243</ele>
        <time>1970-01-01T02:12:51.000Z</time>
      </trkpt>
      <trkpt lat="42.296008" lon="3.23486">
        <ele>243</ele>
        <time>1970-01-01T02:12:52.000Z</time>
      </trkpt>
      <trkpt lat="42.296058" lon="3.234878">
        <ele>243</ele>
        <time>1970-01-01T02:12:53.000Z</time>
      </trkpt>
      <trkpt lat="42.296108" lon="3.234896">
        <ele>243</ele>
        <time>1970-01-01T02:12:54.000Z</time>
      </trkpt>
      <trkpt lat="42.296215" lon="3.234934">
        <ele>243</ele>
        <time>1970-01-01T02:12:55.000Z</time>
      </trkpt>
      <trkpt lat="42.296265" lon="3.234952">
        <ele>243</ele>
        <time>1970-01-01T02:12:56.000Z</time>
      </trkpt>
      <trkpt lat="42.296316" lon="3.234971">
        <ele>243</ele>
        <time>1970-01-01T02:12:57.000Z</time>
      </trkpt>
      <trkpt lat="42.296367" lon="3.23499">
        <ele>243</ele>
        <time>1970-01-01T02:12:58.000Z</time>
      </trkpt>
      <trkpt lat="42.296417" lon="3.235009">
        <ele>243</ele>
        <time>1970-01-01T02:12:59.000Z</time>
      </trkpt>
      <trkpt lat="42.296468" lon="3.235027">
        <ele>243</ele>
        <time>1970-01-01T02:13:00.000Z</time>
      </trkpt>
      <trkpt lat="42.296518" lon="3.235046">
        <ele>243</ele>
        <time>1970-01-01T02:13:01.000Z</time>
      </trkpt>
      <trkpt lat="42.296569" lon="3.235065">
        <ele>243</ele>
        <time>1970-01-01T02:13:02.000Z</time>
      </trkpt>
      <trkpt lat="42.29662" lon="3.235084">
        <ele>243</ele>
        <time>1970-01-01T02:13:03.000Z</time>
      </trkpt>
      <trkpt lat="42.29667" lon="3.235102">
        <ele>243</ele>
        <time>1970-01-01T02:13:04.000Z</time>
      </trkpt>
      <trkpt lat="42.296721" lon="3.235121">
        <ele>243</ele>
        <time>1970-01-01T02:13:05.000Z</time>
      </trkpt>
      <trkpt lat="42.296784" lon="3.235204">
        <ele>243</ele>
        <time>1970-01-01T02:13:06.000Z</time>
      </trkpt>
      <trkpt lat="42.296793" lon="3.235261">
        <ele>243</ele>
        <time>1970-01-01T02:13:07.000Z</time>
      </trkpt>
      <trkpt lat="42.296802" lon="3.235318">
        <ele>243</ele>
        <time>1970-01-01T02:13:08.000Z</time>
      </trkpt>
      <trkpt lat="42.296811" lon="3.235375">
        <ele>243</ele>
        <time>1970-01-01T02:13:09.000Z</time>
      </trkpt>
      <trkpt lat="42.296821" lon="3.235431">
        <ele>243</ele>
        <time>1970-01-01T02:13:10.000Z</time>
      </trkpt>
      <trkpt lat="42.29683" lon="3.235488">
        <ele>243</ele>
        <time>1970-01-01T02:13:11.000Z</time>
      </trkpt>
      <trkpt lat="42.296839" lon="3.235545">
        <ele>243</ele>
        <time>1970-01-01T02:13:12.000Z</time>
      </trkpt>
      <trkpt lat="42.296848" lon="3.235602">
        <ele>243</ele>
        <time>1970-01-01T02:13:13.000Z</time>
      </trkpt>
      <trkpt lat="42.296857" lon="3.235659">
        <ele>243</ele>
        <time>1970-01-01T02:13:14.000Z</time>
      </trkpt>
      <trkpt lat="42.296866" lon="3.235716">
        <ele>245</ele>
        <time>1970-01-01T02:13:15.000Z</time>
      </trkpt>
      <trkpt lat="42.296824" lon="3.235845">
        <ele>245</ele>
        <time>1970-01-01T02:13:16.000Z</time>
      </trkpt>
      <trkpt lat="42.296802" lon="3.235905">
        <ele>245</ele>
        <time>1970-01-01T02:13:17.000Z</time>
      </trkpt>
      <trkpt lat="42.29678" lon="3.235966">
        <ele>245</ele>
        <time>1970-01-01T02:13:18.000Z</time>
      </trkpt>
      <trkpt lat="42.296758" lon="3.236026">
        <ele>245</ele>
        <time>1970-01-01T02:13:19.000Z</time>
      </trkpt>
      <trkpt lat="42.296735" lon="3.236087">
        <ele>245</ele>
        <time>1970-01-01T02:13:20.000Z</time>
      </trkpt>
      <trkpt lat="42.296713" lon="3.236147">
        <ele>245</ele>
        <time>1970-01-01T02:13:21.000Z</time>
      </trkpt>
      <trkpt lat="42.296691" lon="3.236208">
        <ele>245</ele>
        <time>1970-01-01T02:13:22.000Z</time>
      </trkpt>
      <trkpt lat="42.296669" lon="3.236268">
        <ele>245</ele>
        <time>1970-01-01T02:13:23.000Z</time>
      </trkpt>
      <trkpt lat="42.296647" lon="3.236329">
        <ele>244</ele>
        <time>1970-01-01T02:13:24.000Z</time>
      </trkpt>
      <trkpt lat="42.296602" lon="3.236457">
        <ele>244</ele>
        <time>1970-01-01T02:13:25.000Z</time>
      </trkpt>
      <trkpt lat="42.296583" lon="3.236519">
        <ele>244</ele>
        <time>1970-01-01T02:13:26.000Z</time>
      </trkpt>
      <trkpt lat="42.296565" lon="3.23658">
        <ele>244</ele>
        <time>1970-01-01T02:13:27.000Z</time>
      </trkpt>
      <trkpt lat="42.296547" lon="3.236642">
        <ele>244</ele>
        <time>1970-01-01T02:13:28.000Z</time>
      </trkpt>
      <trkpt lat="42.296529" lon="3.236703">
        <ele>244</ele>
        <time>1970-01-01T02:13:29.000Z</time>
      </trkpt>
      <trkpt lat="42.29651" lon="3.236764">
        <ele>244</ele>
        <time>1970-01-01T02:13:30.000Z</time>
      </trkpt>
      <trkpt lat="42.296492" lon="3.236826">
        <ele>244</ele>
        <time>1970-01-01T02:13:31.000Z</time>
      </trkpt>
      <trkpt lat="42.296474" lon="3.236887">
        <ele>244</ele>
        <time>1970-01-01T02:13:32.000Z</time>
      </trkpt>
      <trkpt lat="42.296455" lon="3.236949">
        <ele>244</ele>
        <time>1970-01-01T02:13:33.000Z</time>
      </trkpt>
      <trkpt lat="42.296437" lon="3.23701">
        <ele>243</ele>
        <time>1970-01-01T02:13:34.000Z</time>
      </trkpt>
      <trkpt lat="42.2964" lon="3.237137">
        <ele>243</ele>
        <time>1970-01-01T02:13:35.000Z</time>
      </trkpt>
      <trkpt lat="42.296385" lon="3.237199">
        <ele>243</ele>
        <time>1970-01-01T02:13:36.000Z</time>
      </trkpt>
      <trkpt lat="42.296371" lon="3.23726">
        <ele>243</ele>
        <time>1970-01-01T02:13:37.000Z</time>
      </trkpt>
      <trkpt lat="42.296356" lon="3.237322">
        <ele>243</ele>
        <time>1970-01-01T02:13:38.000Z</time>
      </trkpt>
      <trkpt lat="42.296341" lon="3.237383">
        <ele>243</ele>
        <time>1970-01-01T02:13:39.000Z</time>
      </trkpt>
      <trkpt lat="42.296326" lon="3.237444">
        <ele>243</ele>
        <time>1970-01-01T02:13:40.000Z</time>
      </trkpt>
      <trkpt lat="42.296311" lon="3.237506">
        <ele>243</ele>
        <time>1970-01-01T02:13:41.000Z</time>
      </trkpt>
      <trkpt lat="42.296297" lon="3.237567">
        <ele>243</ele>
        <time>1970-01-01T02:13:42.000Z</time>
      </trkpt>
      <trkpt lat="42.296282" lon="3.237629">
        <ele>243</ele>
        <time>1970-01-01T02:13:43.000Z</time>
      </trkpt>
      <trkpt lat="42.296267" lon="3.23769">
        <ele>245</ele>
        <time>1970-01-01T02:13:44.000Z</time>
      </trkpt>
      <trkpt lat="42.296297" lon="3.237842">
        <ele>245</ele>
        <time>1970-01-01T02:13:45.000Z</time>
      </trkpt>
      <trkpt lat="42.296323" lon="3.237917">
        <ele>245</ele>
        <time>1970-01-01T02:13:46.000Z</time>
      </trkpt>
      <trkpt lat="42.296349" lon="3.237993">
        <ele>245</ele>
        <time>1970-01-01T02:13:47.000Z</time>
      </trkpt>
      <trkpt lat="42.296375" lon="3.238068">
        <ele>245</ele>
        <time>1970-01-01T02:13:48.000Z</time>
      </trkpt>
      <trkpt lat="42.296401" lon="3.238144">
        <ele>245</ele>
        <time>1970-01-01T02:13:49.000Z</time>
      </trkpt>
      <trkpt lat="42.296426" lon="3.23822">
        <ele>245</ele>
        <time>1970-01-01T02:13:50.000Z</time>
      </trkpt>
      <trkpt lat="42.296452" lon="3.238295">
        <ele>245</ele>
        <time>1970-01-01T02:13:51.000Z</time>
      </trkpt>
      <trkpt lat="42.296478" lon="3.238371">
        <ele>245</ele>
        <time>1970-01-01T02:13:52.000Z</time>
      </trkpt>
      <trkpt lat="42.296504" lon="3.238446">
        <ele>245</ele>
        <time>1970-01-01T02:13:53.000Z</time>
      </trkpt>
      <trkpt lat="42.29653" lon="3.238522">
        <ele>243</ele>
        <time>1970-01-01T02:13:54.000Z</time>
      </trkpt>
      <trkpt lat="42.296561" lon="3.238704">
        <ele>243</ele>
        <time>1970-01-01T02:13:55.000Z</time>
      </trkpt>
      <trkpt lat="42.29656" lon="3.238796">
        <ele>243</ele>
        <time>1970-01-01T02:13:56.000Z</time>
      </trkpt>
      <trkpt lat="42.29656" lon="3.238889">
        <ele>243</ele>
        <time>1970-01-01T02:13:57.000Z</time>
      </trkpt>
      <trkpt lat="42.29656" lon="3.238982">
        <ele>243</ele>
        <time>1970-01-01T02:13:58.000Z</time>
      </trkpt>
      <trkpt lat="42.296559" lon="3.239075">
        <ele>243</ele>
        <time>1970-01-01T02:13:59.000Z</time>
      </trkpt>
      <trkpt lat="42.296559" lon="3.239167">
        <ele>243</ele>
        <time>1970-01-01T02:14:00.000Z</time>
      </trkpt>
      <trkpt lat="42.296558" lon="3.23926">
        <ele>243</ele>
        <time>1970-01-01T02:14:01.000Z</time>
      </trkpt>
      <trkpt lat="42.296558" lon="3.239353">
        <ele>243</ele>
        <time>1970-01-01T02:14:02.000Z</time>
      </trkpt>
      <trkpt lat="42.296558" lon="3.239446">
        <ele>243</ele>
        <time>1970-01-01T02:14:03.000Z</time>
      </trkpt>
      <trkpt lat="42.296557" lon="3.239538">
        <ele>243</ele>
        <time>1970-01-01T02:14:04.000Z</time>
      </trkpt>
      <trkpt lat="42.296557" lon="3.239631">
        <ele>241</ele>
        <time>1970-01-01T02:14:05.000Z</time>
      </trkpt>
      <trkpt lat="42.29651" lon="3.239837">
        <ele>241</ele>
        <time>1970-01-01T02:14:06.000Z</time>
      </trkpt>
      <trkpt lat="42.296495" lon="3.23994">
        <ele>241</ele>
        <time>1970-01-01T02:14:07.000Z</time>
      </trkpt>
      <trkpt lat="42.29648" lon="3.240044">
        <ele>241</ele>
        <time>1970-01-01T02:14:08.000Z</time>
      </trkpt>
      <trkpt lat="42.296465" lon="3.240147">
        <ele>241</ele>
        <time>1970-01-01T02:14:09.000Z</time>
      </trkpt>
      <trkpt lat="42.29645" lon="3.24025">
        <ele>241</ele>
        <time>1970-01-01T02:14:10.000Z</time>
      </trkpt>
      <trkpt lat="42.296434" lon="3.240353">
        <ele>241</ele>
        <time>1970-01-01T02:14:11.000Z</time>
      </trkpt>
      <trkpt lat="42.296419" lon="3.240456">
        <ele>241</ele>
        <time>1970-01-01T02:14:12.000Z</time>
      </trkpt>
      <trkpt lat="42.296404" lon="3.24056">
        <ele>241</ele>
        <time>1970-01-01T02:14:13.000Z</time>
      </trkpt>
      <trkpt lat="42.296389" lon="3.240663">
        <ele>241</ele>
        <time>1970-01-01T02:14:14.000Z</time>
      </trkpt>
      <trkpt lat="42.296374" lon="3.240766">
        <ele>233</ele>
        <time>1970-01-01T02:14:15.000Z</time>
      </trkpt>
      <trkpt lat="42.296309" lon="3.240987">
        <ele>233</ele>
        <time>1970-01-01T02:14:16.000Z</time>
      </trkpt>
      <trkpt lat="42.296274" lon="3.241089">
        <ele>233</ele>
        <time>1970-01-01T02:14:17.000Z</time>
      </trkpt>
      <trkpt lat="42.296238" lon="3.24119">
        <ele>233</ele>
        <time>1970-01-01T02:14:18.000Z</time>
      </trkpt>
      <trkpt lat="42.296203" lon="3.241292">
        <ele>233</ele>
        <time>1970-01-01T02:14:19.000Z</time>
      </trkpt>
      <trkpt lat="42.296167" lon="3.241393">
        <ele>233</ele>
        <time>1970-01-01T02:14:20.000Z</time>
      </trkpt>
      <trkpt lat="42.296132" lon="3.241495">
        <ele>233</ele>
        <time>1970-01-01T02:14:21.000Z</time>
      </trkpt>
      <trkpt lat="42.296096" lon="3.241596">
        <ele>233</ele>
        <time>1970-01-01T02:14:22.000Z</time>
      </trkpt>
      <trkpt lat="42.296061" lon="3.241698">
        <ele>233</ele>
        <time>1970-01-01T02:14:23.000Z</time>
      </trkpt>
      <trkpt lat="42.296025" lon="3.241799">
        <ele>228</ele>
        <time>1970-01-01T02:14:24.000Z</time>
      </trkpt>
      <trkpt lat="42.29598" lon="3.241919">
        <ele>228</ele>
        <time>1970-01-01T02:14:25.000Z</time>
      </trkpt>
      <trkpt lat="42.295938" lon="3.242037">
        <ele>228</ele>
        <time>1970-01-01T02:14:26.000Z</time>
      </trkpt>
      <trkpt lat="42.295898" lon="3.242154">
        <ele>228</ele>
        <time>1970-01-01T02:14:27.000Z</time>
      </trkpt>
      <trkpt lat="42.295859" lon="3.242272">
        <ele>228</ele>
        <time>1970-01-01T02:14:28.000Z</time>
      </trkpt>
      <trkpt lat="42.29582" lon="3.242391">
        <ele>228</ele>
        <time>1970-01-01T02:14:29.000Z</time>
      </trkpt>
      <trkpt lat="42.295778" lon="3.242506">
        <ele>228</ele>
        <time>1970-01-01T02:14:30.000Z</time>
      </trkpt>
      <trkpt lat="42.295738" lon="3.24262">
        <ele>228</ele>
        <time>1970-01-01T02:14:31.000Z</time>
      </trkpt>
      <trkpt lat="42.295706" lon="3.242735">
        <ele>228</ele>
        <time>1970-01-01T02:14:32.000Z</time>
      </trkpt>
      <trkpt lat="42.295684" lon="3.24285">
        <ele>228</ele>
        <time>1970-01-01T02:14:33.000Z</time>
      </trkpt>
      <trkpt lat="42.295684" lon="3.242957">
        <ele>222</ele>
        <time>1970-01-01T02:14:34.000Z</time>
      </trkpt>
      <trkpt lat="42.295735" lon="3.243131">
        <ele>222</ele>
        <time>1970-01-01T02:14:35.000Z</time>
      </trkpt>
      <trkpt lat="42.295788" lon="3.243198">
        <ele>222</ele>
        <time>1970-01-01T02:14:36.000Z</time>
      </trkpt>
      <trkpt lat="42.29584" lon="3.243266">
        <ele>222</ele>
        <time>1970-01-01T02:14:37.000Z</time>
      </trkpt>
      <trkpt lat="42.295893" lon="3.243334">
        <ele>222</ele>
        <time>1970-01-01T02:14:38.000Z</time>
      </trkpt>
      <trkpt lat="42.295945" lon="3.243401">
        <ele>222</ele>
        <time>1970-01-01T02:14:39.000Z</time>
      </trkpt>
      <trkpt lat="42.295997" lon="3.243469">
        <ele>222</ele>
        <time>1970-01-01T02:14:40.000Z</time>
      </trkpt>
      <trkpt lat="42.29605" lon="3.243537">
        <ele>222</ele>
        <time>1970-01-01T02:14:41.000Z</time>
      </trkpt>
      <trkpt lat="42.296102" lon="3.243605">
        <ele>222</ele>
        <time>1970-01-01T02:14:42.000Z</time>
      </trkpt>
      <trkpt lat="42.296155" lon="3.243672">
        <ele>222</ele>
        <time>1970-01-01T02:14:43.000Z</time>
      </trkpt>
      <trkpt lat="42.296207" lon="3.24374">
        <ele>219</ele>
        <time>1970-01-01T02:14:44.000Z</time>
      </trkpt>
      <trkpt lat="42.296218" lon="3.243841">
        <ele>219</ele>
        <time>1970-01-01T02:14:45.000Z</time>
      </trkpt>
      <trkpt lat="42.296174" lon="3.243871">
        <ele>219</ele>
        <time>1970-01-01T02:14:46.000Z</time>
      </trkpt>
      <trkpt lat="42.29613" lon="3.2439">
        <ele>219</ele>
        <time>1970-01-01T02:14:47.000Z</time>
      </trkpt>
      <trkpt lat="42.296086" lon="3.24393">
        <ele>219</ele>
        <time>1970-01-01T02:14:48.000Z</time>
      </trkpt>
      <trkpt lat="42.296042" lon="3.243959">
        <ele>219</ele>
        <time>1970-01-01T02:14:49.000Z</time>
      </trkpt>
      <trkpt lat="42.295997" lon="3.243988">
        <ele>219</ele>
        <time>1970-01-01T02:14:50.000Z</time>
      </trkpt>
      <trkpt lat="42.295953" lon="3.244018">
        <ele>219</ele>
        <time>1970-01-01T02:14:51.000Z</time>
      </trkpt>
      <trkpt lat="42.295909" lon="3.244047">
        <ele>219</ele>
        <time>1970-01-01T02:14:52.000Z</time>
      </trkpt>
      <trkpt lat="42.295865" lon="3.244077">
        <ele>219</ele>
        <time>1970-01-01T02:14:53.000Z</time>
      </trkpt>
      <trkpt lat="42.295821" lon="3.244106">
        <ele>216</ele>
        <time>1970-01-01T02:14:54.000Z</time>
      </trkpt>
      <trkpt lat="42.295675" lon="3.244162">
        <ele>216</ele>
        <time>1970-01-01T02:14:55.000Z</time>
      </trkpt>
      <trkpt lat="42.295613" lon="3.244225">
        <ele>216</ele>
        <time>1970-01-01T02:14:56.000Z</time>
      </trkpt>
      <trkpt lat="42.295552" lon="3.244289">
        <ele>216</ele>
        <time>1970-01-01T02:14:57.000Z</time>
      </trkpt>
      <trkpt lat="42.29549" lon="3.244352">
        <ele>216</ele>
        <time>1970-01-01T02:14:58.000Z</time>
      </trkpt>
      <trkpt lat="42.295429" lon="3.244416">
        <ele>216</ele>
        <time>1970-01-01T02:14:59.000Z</time>
      </trkpt>
      <trkpt lat="42.295368" lon="3.24448">
        <ele>216</ele>
        <time>1970-01-01T02:15:00.000Z</time>
      </trkpt>
      <trkpt lat="42.295306" lon="3.244543">
        <ele>216</ele>
        <time>1970-01-01T02:15:01.000Z</time>
      </trkpt>
      <trkpt lat="42.295245" lon="3.244607">
        <ele>216</ele>
        <time>1970-01-01T02:15:02.000Z</time>
      </trkpt>
      <trkpt lat="42.295183" lon="3.24467">
        <ele>216</ele>
        <time>1970-01-01T02:15:03.000Z</time>
      </trkpt>
      <trkpt lat="42.295122" lon="3.244734">
        <ele>210</ele>
        <time>1970-01-01T02:15:04.000Z</time>
      </trkpt>
      <trkpt lat="42.295057" lon="3.24494">
        <ele>210</ele>
        <time>1970-01-01T02:15:05.000Z</time>
      </trkpt>
      <trkpt lat="42.295043" lon="3.245036">
        <ele>210</ele>
        <time>1970-01-01T02:15:06.000Z</time>
      </trkpt>
      <trkpt lat="42.295029" lon="3.245132">
        <ele>210</ele>
        <time>1970-01-01T02:15:07.000Z</time>
      </trkpt>
      <trkpt lat="42.295015" lon="3.245228">
        <ele>210</ele>
        <time>1970-01-01T02:15:08.000Z</time>
      </trkpt>
      <trkpt lat="42.295002" lon="3.245324">
        <ele>210</ele>
        <time>1970-01-01T02:15:09.000Z</time>
      </trkpt>
      <trkpt lat="42.294988" lon="3.24542">
        <ele>210</ele>
        <time>1970-01-01T02:15:10.000Z</time>
      </trkpt>
      <trkpt lat="42.294974" lon="3.245516">
        <ele>210</ele>
        <time>1970-01-01T02:15:11.000Z</time>
      </trkpt>
      <trkpt lat="42.29496" lon="3.245612">
        <ele>210</ele>
        <time>1970-01-01T02:15:12.000Z</time>
      </trkpt>
      <trkpt lat="42.294946" lon="3.245708">
        <ele>210</ele>
        <time>1970-01-01T02:15:13.000Z</time>
      </trkpt>
      <trkpt lat="42.294932" lon="3.245804">
        <ele>204</ele>
        <time>1970-01-01T02:15:14.000Z</time>
      </trkpt>
      <trkpt lat="42.294984" lon="3.245911">
        <ele>204</ele>
        <time>1970-01-01T02:15:15.000Z</time>
      </trkpt>
      <trkpt lat="42.295043" lon="3.246012">
        <ele>204</ele>
        <time>1970-01-01T02:15:16.000Z</time>
      </trkpt>
      <trkpt lat="42.295097" lon="3.246119">
        <ele>204</ele>
        <time>1970-01-01T02:15:17.000Z</time>
      </trkpt>
      <trkpt lat="42.295141" lon="3.246237">
        <ele>204</ele>
        <time>1970-01-01T02:15:18.000Z</time>
      </trkpt>
      <trkpt lat="42.295171" lon="3.246365">
        <ele>204</ele>
        <time>1970-01-01T02:15:19.000Z</time>
      </trkpt>
      <trkpt lat="42.295193" lon="3.246498">
        <ele>204</ele>
        <time>1970-01-01T02:15:20.000Z</time>
      </trkpt>
      <trkpt lat="42.295205" lon="3.246634">
        <ele>204</ele>
        <time>1970-01-01T02:15:21.000Z</time>
      </trkpt>
      <trkpt lat="42.295197" lon="3.246767">
        <ele>204</ele>
        <time>1970-01-01T02:15:22.000Z</time>
      </trkpt>
      <trkpt lat="42.29517" lon="3.246894">
        <ele>204</ele>
        <time>1970-01-01T02:15:23.000Z</time>
      </trkpt>
      <trkpt lat="42.29514" lon="3.247015">
        <ele>198</ele>
        <time>1970-01-01T02:15:24.000Z</time>
      </trkpt>
      <trkpt lat="42.295078" lon="3.24721">
        <ele>198</ele>
        <time>1970-01-01T02:15:25.000Z</time>
      </trkpt>
      <trkpt lat="42.295045" lon="3.247285">
        <ele>198</ele>
        <time>1970-01-01T02:15:26.000Z</time>
      </trkpt>
      <trkpt lat="42.295013" lon="3.24736">
        <ele>198</ele>
        <time>1970-01-01T02:15:27.000Z</time>
      </trkpt>
      <trkpt lat="42.294981" lon="3.247435">
        <ele>198</ele>
        <time>1970-01-01T02:15:28.000Z</time>
      </trkpt>
      <trkpt lat="42.294949" lon="3.24751">
        <ele>198</ele>
        <time>1970-01-01T02:15:29.000Z</time>
      </trkpt>
      <trkpt lat="42.294916" lon="3.247585">
        <ele>198</ele>
        <time>1970-01-01T02:15:30.000Z</time>
      </trkpt>
      <trkpt lat="42.294884" lon="3.24766">
        <ele>198</ele>
        <time>1970-01-01T02:15:31.000Z</time>
      </trkpt>
      <trkpt lat="42.294852" lon="3.247735">
        <ele>198</ele>
        <time>1970-01-01T02:15:32.000Z</time>
      </trkpt>
      <trkpt lat="42.29482" lon="3.24781">
        <ele>198</ele>
        <time>1970-01-01T02:15:33.000Z</time>
      </trkpt>
      <trkpt lat="42.294787" lon="3.247885">
        <ele>198</ele>
        <time>1970-01-01T02:15:34.000Z</time>
      </trkpt>
      <trkpt lat="42.294755" lon="3.24796">
        <ele>192</ele>
        <time>1970-01-01T02:15:35.000Z</time>
      </trkpt>
      <trkpt lat="42.294668" lon="3.248092">
        <ele>192</ele>
        <time>1970-01-01T02:15:36.000Z</time>
      </trkpt>
      <trkpt lat="42.294654" lon="3.248174">
        <ele>192</ele>
        <time>1970-01-01T02:15:37.000Z</time>
      </trkpt>
      <trkpt lat="42.294641" lon="3.248255">
        <ele>192</ele>
        <time>1970-01-01T02:15:38.000Z</time>
      </trkpt>
      <trkpt lat="42.294627" lon="3.248336">
        <ele>192</ele>
        <time>1970-01-01T02:15:39.000Z</time>
      </trkpt>
      <trkpt lat="42.294614" lon="3.248418">
        <ele>192</ele>
        <time>1970-01-01T02:15:40.000Z</time>
      </trkpt>
      <trkpt lat="42.2946" lon="3.248499">
        <ele>192</ele>
        <time>1970-01-01T02:15:41.000Z</time>
      </trkpt>
      <trkpt lat="42.294587" lon="3.24858">
        <ele>192</ele>
        <time>1970-01-01T02:15:42.000Z</time>
      </trkpt>
      <trkpt lat="42.294573" lon="3.248662">
        <ele>192</ele>
        <time>1970-01-01T02:15:43.000Z</time>
      </trkpt>
      <trkpt lat="42.29456" lon="3.248743">
        <ele>186</ele>
        <time>1970-01-01T02:15:44.000Z</time>
      </trkpt>
      <trkpt lat="42.294496" lon="3.248869">
        <ele>186</ele>
        <time>1970-01-01T02:15:45.000Z</time>
      </trkpt>
      <trkpt lat="42.294443" lon="3.248906">
        <ele>186</ele>
        <time>1970-01-01T02:15:46.000Z</time>
      </trkpt>
      <trkpt lat="42.294389" lon="3.248943">
        <ele>186</ele>
        <time>1970-01-01T02:15:47.000Z</time>
      </trkpt>
      <trkpt lat="42.294336" lon="3.24898">
        <ele>186</ele>
        <time>1970-01-01T02:15:48.000Z</time>
      </trkpt>
      <trkpt lat="42.294282" lon="3.249017">
        <ele>186</ele>
        <time>1970-01-01T02:15:49.000Z</time>
      </trkpt>
      <trkpt lat="42.294228" lon="3.249053">
        <ele>186</ele>
        <time>1970-01-01T02:15:50.000Z</time>
      </trkpt>
      <trkpt lat="42.294175" lon="3.24909">
        <ele>186</ele>
        <time>1970-01-01T02:15:51.000Z</time>
      </trkpt>
      <trkpt lat="42.294121" lon="3.249127">
        <ele>186</ele>
        <time>1970-01-01T02:15:52.000Z</time>
      </trkpt>
      <trkpt lat="42.294068" lon="3.249164">
        <ele>186</ele>
        <time>1970-01-01T02:15:53.000Z</time>
      </trkpt>
      <trkpt lat="42.294014" lon="3.249201">
        <ele>185</ele>
        <time>1970-01-01T02:15:54.000Z</time>
      </trkpt>
      <trkpt lat="42.293908" lon="3.249351">
        <ele>185</ele>
        <time>1970-01-01T02:15:55.000Z</time>
      </trkpt>
      <trkpt lat="42.293858" lon="3.249426">
        <ele>185</ele>
        <time>1970-01-01T02:15:56.000Z</time>
      </trkpt>
      <trkpt lat="42.293808" lon="3.249502">
        <ele>185</ele>
        <time>1970-01-01T02:15:57.000Z</time>
      </trkpt>
      <trkpt lat="42.293758" lon="3.249578">
        <ele>185</ele>
        <time>1970-01-01T02:15:58.000Z</time>
      </trkpt>
      <trkpt lat="42.293708" lon="3.249654">
        <ele>185</ele>
        <time>1970-01-01T02:15:59.000Z</time>
      </trkpt>
      <trkpt lat="42.293657" lon="3.249729">
        <ele>185</ele>
        <time>1970-01-01T02:16:00.000Z</time>
      </trkpt>
      <trkpt lat="42.293607" lon="3.249805">
        <ele>185</ele>
        <time>1970-01-01T02:16:01.000Z</time>
      </trkpt>
      <trkpt lat="42.293557" lon="3.249881">
        <ele>185</ele>
        <time>1970-01-01T02:16:02.000Z</time>
      </trkpt>
      <trkpt lat="42.293507" lon="3.249956">
        <ele>185</ele>
        <time>1970-01-01T02:16:03.000Z</time>
      </trkpt>
      <trkpt lat="42.293457" lon="3.250032">
        <ele>179</ele>
        <time>1970-01-01T02:16:04.000Z</time>
      </trkpt>
      <trkpt lat="42.293411" lon="3.250196">
        <ele>179</ele>
        <time>1970-01-01T02:16:05.000Z</time>
      </trkpt>
      <trkpt lat="42.293411" lon="3.250286">
        <ele>179</ele>
        <time>1970-01-01T02:16:06.000Z</time>
      </trkpt>
      <trkpt lat="42.29341" lon="3.250375">
        <ele>179</ele>
        <time>1970-01-01T02:16:07.000Z</time>
      </trkpt>
      <trkpt lat="42.29341" lon="3.250465">
        <ele>179</ele>
        <time>1970-01-01T02:16:08.000Z</time>
      </trkpt>
      <trkpt lat="42.293409" lon="3.250554">
        <ele>179</ele>
        <time>1970-01-01T02:16:09.000Z</time>
      </trkpt>
      <trkpt lat="42.293408" lon="3.250643">
        <ele>179</ele>
        <time>1970-01-01T02:16:10.000Z</time>
      </trkpt>
      <trkpt lat="42.293408" lon="3.250733">
        <ele>179</ele>
        <time>1970-01-01T02:16:11.000Z</time>
      </trkpt>
      <trkpt lat="42.293407" lon="3.250822">
        <ele>179</ele>
        <time>1970-01-01T02:16:12.000Z</time>
      </trkpt>
      <trkpt lat="42.293407" lon="3.250912">
        <ele>179</ele>
        <time>1970-01-01T02:16:13.000Z</time>
      </trkpt>
      <trkpt lat="42.293406" lon="3.251001">
        <ele>175</ele>
        <time>1970-01-01T02:16:14.000Z</time>
      </trkpt>
      <trkpt lat="42.293402" lon="3.251214">
        <ele>175</ele>
        <time>1970-01-01T02:16:15.000Z</time>
      </trkpt>
      <trkpt lat="42.293384" lon="3.251316">
        <ele>175</ele>
        <time>1970-01-01T02:16:16.000Z</time>
      </trkpt>
      <trkpt lat="42.293366" lon="3.251418">
        <ele>175</ele>
        <time>1970-01-01T02:16:17.000Z</time>
      </trkpt>
      <trkpt lat="42.293348" lon="3.25152">
        <ele>175</ele>
        <time>1970-01-01T02:16:18.000Z</time>
      </trkpt>
      <trkpt lat="42.29333" lon="3.251623">
        <ele>175</ele>
        <time>1970-01-01T02:16:19.000Z</time>
      </trkpt>
      <trkpt lat="42.293312" lon="3.251725">
        <ele>175</ele>
        <time>1970-01-01T02:16:20.000Z</time>
      </trkpt>
      <trkpt lat="42.293294" lon="3.251827">
        <ele>175</ele>
        <time>1970-01-01T02:16:21.000Z</time>
      </trkpt>
      <trkpt lat="42.293276" lon="3.251929">
        <ele>175</ele>
        <time>1970-01-01T02:16:22.000Z</time>
      </trkpt>
      <trkpt lat="42.293258" lon="3.252031">
        <ele>175</ele>
        <time>1970-01-01T02:16:23.000Z</time>
      </trkpt>
      <trkpt lat="42.29324" lon="3.252133">
        <ele>170</ele>
        <time>1970-01-01T02:16:24.000Z</time>
      </trkpt>
      <trkpt lat="42.293174" lon="3.25233">
        <ele>170</ele>
        <time>1970-01-01T02:16:25.000Z</time>
      </trkpt>
      <trkpt lat="42.29315" lon="3.252424">
        <ele>170</ele>
        <time>1970-01-01T02:16:26.000Z</time>
      </trkpt>
      <trkpt lat="42.293125" lon="3.252519">
        <ele>170</ele>
        <time>1970-01-01T02:16:27.000Z</time>
      </trkpt>
      <trkpt lat="42.293101" lon="3.252613">
        <ele>170</ele>
        <time>1970-01-01T02:16:28.000Z</time>
      </trkpt>
      <trkpt lat="42.293077" lon="3.252708">
        <ele>170</ele>
        <time>1970-01-01T02:16:29.000Z</time>
      </trkpt>
      <trkpt lat="42.293053" lon="3.252803">
        <ele>170</ele>
        <time>1970-01-01T02:16:30.000Z</time>
      </trkpt>
      <trkpt lat="42.293029" lon="3.252897">
        <ele>170</ele>
        <time>1970-01-01T02:16:31.000Z</time>
      </trkpt>
      <trkpt lat="42.293004" lon="3.252992">
        <ele>170</ele>
        <time>1970-01-01T02:16:32.000Z</time>
      </trkpt>
      <trkpt lat="42.29298" lon="3.253086">
        <ele>170</ele>
        <time>1970-01-01T02:16:33.000Z</time>
      </trkpt>
      <trkpt lat="42.292956" lon="3.253181">
        <ele>168</ele>
        <time>1970-01-01T02:16:34.000Z</time>
      </trkpt>
      <trkpt lat="42.292954" lon="3.253389">
        <ele>168</ele>
        <time>1970-01-01T02:16:35.000Z</time>
      </trkpt>
      <trkpt lat="42.292962" lon="3.25349">
        <ele>168</ele>
        <time>1970-01-01T02:16:36.000Z</time>
      </trkpt>
      <trkpt lat="42.292969" lon="3.25359">
        <ele>168</ele>
        <time>1970-01-01T02:16:37.000Z</time>
      </trkpt>
      <trkpt lat="42.292977" lon="3.253691">
        <ele>168</ele>
        <time>1970-01-01T02:16:38.000Z</time>
      </trkpt>
      <trkpt lat="42.292984" lon="3.253791">
        <ele>168</ele>
        <time>1970-01-01T02:16:39.000Z</time>
      </trkpt>
      <trkpt lat="42.292991" lon="3.253891">
        <ele>168</ele>
        <time>1970-01-01T02:16:40.000Z</time>
      </trkpt>
      <trkpt lat="42.292999" lon="3.253992">
        <ele>168</ele>
        <time>1970-01-01T02:16:41.000Z</time>
      </trkpt>
      <trkpt lat="42.293006" lon="3.254092">
        <ele>168</ele>
        <time>1970-01-01T02:16:42.000Z</time>
      </trkpt>
      <trkpt lat="42.293014" lon="3.254193">
        <ele>168</ele>
        <time>1970-01-01T02:16:43.000Z</time>
      </trkpt>
      <trkpt lat="42.293021" lon="3.254293">
        <ele>162</ele>
        <time>1970-01-01T02:16:44.000Z</time>
      </trkpt>
      <trkpt lat="42.293071" lon="3.254459">
        <ele>162</ele>
        <time>1970-01-01T02:16:45.000Z</time>
      </trkpt>
      <trkpt lat="42.293113" lon="3.254515">
        <ele>162</ele>
        <time>1970-01-01T02:16:46.000Z</time>
      </trkpt>
      <trkpt lat="42.293156" lon="3.254572">
        <ele>162</ele>
        <time>1970-01-01T02:16:47.000Z</time>
      </trkpt>
      <trkpt lat="42.293198" lon="3.254628">
        <ele>162</ele>
        <time>1970-01-01T02:16:48.000Z</time>
      </trkpt>
      <trkpt lat="42.293241" lon="3.254685">
        <ele>162</ele>
        <time>1970-01-01T02:16:49.000Z</time>
      </trkpt>
      <trkpt lat="42.293284" lon="3.254742">
        <ele>162</ele>
        <time>1970-01-01T02:16:50.000Z</time>
      </trkpt>
      <trkpt lat="42.293326" lon="3.254798">
        <ele>162</ele>
        <time>1970-01-01T02:16:51.000Z</time>
      </trkpt>
      <trkpt lat="42.293369" lon="3.254855">
        <ele>162</ele>
        <time>1970-01-01T02:16:52.000Z</time>
      </trkpt>
      <trkpt lat="42.293411" lon="3.254911">
        <ele>162</ele>
        <time>1970-01-01T02:16:53.000Z</time>
      </trkpt>
      <trkpt lat="42.293454" lon="3.254968">
        <ele>161</ele>
        <time>1970-01-01T02:16:54.000Z</time>
      </trkpt>
      <trkpt lat="42.293584" lon="3.255013">
        <ele>161</ele>
        <time>1970-01-01T02:16:55.000Z</time>
      </trkpt>
      <trkpt lat="42.293629" lon="3.255059">
        <ele>161</ele>
        <time>1970-01-01T02:16:56.000Z</time>
      </trkpt>
      <trkpt lat="42.293674" lon="3.255104">
        <ele>161</ele>
        <time>1970-01-01T02:16:57.000Z</time>
      </trkpt>
      <trkpt lat="42.293719" lon="3.25515">
        <ele>161</ele>
        <time>1970-01-01T02:16:58.000Z</time>
      </trkpt>
      <trkpt lat="42.293765" lon="3.255195">
        <ele>161</ele>
        <time>1970-01-01T02:16:59.000Z</time>
      </trkpt>
      <trkpt lat="42.29381" lon="3.25524">
        <ele>161</ele>
        <time>1970-01-01T02:17:00.000Z</time>
      </trkpt>
      <trkpt lat="42.293855" lon="3.255286">
        <ele>161</ele>
        <time>1970-01-01T02:17:01.000Z</time>
      </trkpt>
      <trkpt lat="42.2939" lon="3.255331">
        <ele>161</ele>
        <time>1970-01-01T02:17:02.000Z</time>
      </trkpt>
      <trkpt lat="42.293945" lon="3.255377">
        <ele>161</ele>
        <time>1970-01-01T02:17:03.000Z</time>
      </trkpt>
      <trkpt lat="42.29399" lon="3.255422">
        <ele>155</ele>
        <time>1970-01-01T02:17:04.000Z</time>
      </trkpt>
      <trkpt lat="42.294049" lon="3.255577">
        <ele>155</ele>
        <time>1970-01-01T02:17:05.000Z</time>
      </trkpt>
      <trkpt lat="42.294102" lon="3.255619">
        <ele>155</ele>
        <time>1970-01-01T02:17:06.000Z</time>
      </trkpt>
      <trkpt lat="42.294156" lon="3.255662">
        <ele>155</ele>
        <time>1970-01-01T02:17:07.000Z</time>
      </trkpt>
      <trkpt lat="42.294209" lon="3.255705">
        <ele>155</ele>
        <time>1970-01-01T02:17:08.000Z</time>
      </trkpt>
      <trkpt lat="42.294263" lon="3.255748">
        <ele>155</ele>
        <time>1970-01-01T02:17:09.000Z</time>
      </trkpt>
      <trkpt lat="42.294316" lon="3.25579">
        <ele>155</ele>
        <time>1970-01-01T02:17:10.000Z</time>
      </trkpt>
      <trkpt lat="42.29437" lon="3.255833">
        <ele>155</ele>
        <time>1970-01-01T02:17:11.000Z</time>
      </trkpt>
      <trkpt lat="42.294423" lon="3.255876">
        <ele>155</ele>
        <time>1970-01-01T02:17:12.000Z</time>
      </trkpt>
      <trkpt lat="42.294477" lon="3.255919">
        <ele>155</ele>
        <time>1970-01-01T02:17:13.000Z</time>
      </trkpt>
      <trkpt lat="42.29453" lon="3.255961">
        <ele>155</ele>
        <time>1970-01-01T02:17:14.000Z</time>
      </trkpt>
      <trkpt lat="42.294584" lon="3.256004">
        <ele>148</ele>
        <time>1970-01-01T02:17:15.000Z</time>
      </trkpt>
      <trkpt lat="42.294753" lon="3.255978">
        <ele>148</ele>
        <time>1970-01-01T02:17:16.000Z</time>
      </trkpt>
      <trkpt lat="42.294832" lon="3.255965">
        <ele>148</ele>
        <time>1970-01-01T02:17:17.000Z</time>
      </trkpt>
      <trkpt lat="42.29491" lon="3.255953">
        <ele>148</ele>
        <time>1970-01-01T02:17:18.000Z</time>
      </trkpt>
      <trkpt lat="42.294988" lon="3.25594">
        <ele>148</ele>
        <time>1970-01-01T02:17:19.000Z</time>
      </trkpt>
      <trkpt lat="42.295067" lon="3.255928">
        <ele>148</ele>
        <time>1970-01-01T02:17:20.000Z</time>
      </trkpt>
      <trkpt lat="42.295145" lon="3.255915">
        <ele>148</ele>
        <time>1970-01-01T02:17:21.000Z</time>
      </trkpt>
      <trkpt lat="42.295223" lon="3.255903">
        <ele>148</ele>
        <time>1970-01-01T02:17:22.000Z</time>
      </trkpt>
      <trkpt lat="42.295302" lon="3.25589">
        <ele>148</ele>
        <time>1970-01-01T02:17:23.000Z</time>
      </trkpt>
      <trkpt lat="42.29538" lon="3.255878">
        <ele>143</ele>
        <time>1970-01-01T02:17:24.000Z</time>
      </trkpt>
      <trkpt lat="42.29551" lon="3.255915">
        <ele>143</ele>
        <time>1970-01-01T02:17:25.000Z</time>
      </trkpt>
      <trkpt lat="42.295562" lon="3.255965">
        <ele>143</ele>
        <time>1970-01-01T02:17:26.000Z</time>
      </trkpt>
      <trkpt lat="42.295615" lon="3.256015">
        <ele>143</ele>
        <time>1970-01-01T02:17:27.000Z</time>
      </trkpt>
      <trkpt lat="42.295668" lon="3.256065">
        <ele>143</ele>
        <time>1970-01-01T02:17:28.000Z</time>
      </trkpt>
      <trkpt lat="42.295721" lon="3.256114">
        <ele>143</ele>
        <time>1970-01-01T02:17:29.000Z</time>
      </trkpt>
      <trkpt lat="42.295773" lon="3.256164">
        <ele>143</ele>
        <time>1970-01-01T02:17:30.000Z</time>
      </trkpt>
      <trkpt lat="42.295826" lon="3.256214">
        <ele>143</ele>
        <time>1970-01-01T02:17:31.000Z</time>
      </trkpt>
      <trkpt lat="42.295879" lon="3.256264">
        <ele>143</ele>
        <time>1970-01-01T02:17:32.000Z</time>
      </trkpt>
      <trkpt lat="42.295931" lon="3.256314">
        <ele>143</ele>
        <time>1970-01-01T02:17:33.000Z</time>
      </trkpt>
      <trkpt lat="42.295984" lon="3.256364">
        <ele>140</ele>
        <time>1970-01-01T02:17:34.000Z</time>
      </trkpt>
      <trkpt lat="42.295986" lon="3.256506">
        <ele>140</ele>
        <time>1970-01-01T02:17:35.000Z</time>
      </trkpt>
      <trkpt lat="42.295947" lon="3.256569">
        <ele>140</ele>
        <time>1970-01-01T02:17:36.000Z</time>
      </trkpt>
      <trkpt lat="42.295908" lon="3.256631">
        <ele>140</ele>
        <time>1970-01-01T02:17:37.000Z</time>
      </trkpt>
      <trkpt lat="42.295869" lon="3.256694">
        <ele>140</ele>
        <time>1970-01-01T02:17:38.000Z</time>
      </trkpt>
      <trkpt lat="42.29583" lon="3.256756">
        <ele>140</ele>
        <time>1970-01-01T02:17:39.000Z</time>
      </trkpt>
      <trkpt lat="42.29579" lon="3.256818">
        <ele>140</ele>
        <time>1970-01-01T02:17:40.000Z</time>
      </trkpt>
      <trkpt lat="42.295751" lon="3.256881">
        <ele>140</ele>
        <time>1970-01-01T02:17:41.000Z</time>
      </trkpt>
      <trkpt lat="42.295712" lon="3.256943">
        <ele>140</ele>
        <time>1970-01-01T02:17:42.000Z</time>
      </trkpt>
      <trkpt lat="42.295673" lon="3.257006">
        <ele>140</ele>
        <time>1970-01-01T02:17:43.000Z</time>
      </trkpt>
      <trkpt lat="42.295634" lon="3.257068">
        <ele>134</ele>
        <time>1970-01-01T02:17:44.000Z</time>
      </trkpt>
      <trkpt lat="42.295506" lon="3.257197">
        <ele>134</ele>
        <time>1970-01-01T02:17:45.000Z</time>
      </trkpt>
      <trkpt lat="42.29545" lon="3.25727">
        <ele>134</ele>
        <time>1970-01-01T02:17:46.000Z</time>
      </trkpt>
      <trkpt lat="42.295395" lon="3.257344">
        <ele>134</ele>
        <time>1970-01-01T02:17:47.000Z</time>
      </trkpt>
      <trkpt lat="42.295339" lon="3.257417">
        <ele>134</ele>
        <time>1970-01-01T02:17:48.000Z</time>
      </trkpt>
      <trkpt lat="42.295284" lon="3.257491">
        <ele>134</ele>
        <time>1970-01-01T02:17:49.000Z</time>
      </trkpt>
      <trkpt lat="42.295229" lon="3.257565">
        <ele>134</ele>
        <time>1970-01-01T02:17:50.000Z</time>
      </trkpt>
      <trkpt lat="42.295173" lon="3.257638">
        <ele>134</ele>
        <time>1970-01-01T02:17:51.000Z</time>
      </trkpt>
      <trkpt lat="42.295118" lon="3.257712">
        <ele>134</ele>
        <time>1970-01-01T02:17:52.000Z</time>
      </trkpt>
      <trkpt lat="42.295062" lon="3.257785">
        <ele>134</ele>
        <time>1970-01-01T02:17:53.000Z</time>
      </trkpt>
      <trkpt lat="42.295007" lon="3.257859">
        <ele>131</ele>
        <time>1970-01-01T02:17:54.000Z</time>
      </trkpt>
      <trkpt lat="42.294942" lon="3.258049">
        <ele>131</ele>
        <time>1970-01-01T02:17:55.000Z</time>
      </trkpt>
      <trkpt lat="42.294937" lon="3.258147">
        <ele>131</ele>
        <time>1970-01-01T02:17:56.000Z</time>
      </trkpt>
      <trkpt lat="42.294933" lon="3.258246">
        <ele>131</ele>
        <time>1970-01-01T02:17:57.000Z</time>
      </trkpt>
      <trkpt lat="42.294928" lon="3.258344">
        <ele>131</ele>
        <time>1970-01-01T02:17:58.000Z</time>
      </trkpt>
      <trkpt lat="42.294923" lon="3.258443">
        <ele>131</ele>
        <time>1970-01-01T02:17:59.000Z</time>
      </trkpt>
      <trkpt lat="42.294918" lon="3.258542">
        <ele>131</ele>
        <time>1970-01-01T02:18:00.000Z</time>
      </trkpt>
      <trkpt lat="42.294913" lon="3.25864">
        <ele>131</ele>
        <time>1970-01-01T02:18:01.000Z</time>
      </trkpt>
      <trkpt lat="42.294909" lon="3.258739">
        <ele>131</ele>
        <time>1970-01-01T02:18:02.000Z</time>
      </trkpt>
      <trkpt lat="42.294904" lon="3.258837">
        <ele>131</ele>
        <time>1970-01-01T02:18:03.000Z</time>
      </trkpt>
      <trkpt lat="42.294899" lon="3.258936">
        <ele>125</ele>
        <time>1970-01-01T02:18:04.000Z</time>
      </trkpt>
      <trkpt lat="42.294928" lon="3.259118">
        <ele>125</ele>
        <time>1970-01-01T02:18:05.000Z</time>
      </trkpt>
      <trkpt lat="42.294922" lon="3.259186">
        <ele>125</ele>
        <time>1970-01-01T02:18:06.000Z</time>
      </trkpt>
      <trkpt lat="42.294917" lon="3.259253">
        <ele>125</ele>
        <time>1970-01-01T02:18:07.000Z</time>
      </trkpt>
      <trkpt lat="42.294911" lon="3.25932">
        <ele>125</ele>
        <time>1970-01-01T02:18:08.000Z</time>
      </trkpt>
      <trkpt lat="42.294905" lon="3.259388">
        <ele>125</ele>
        <time>1970-01-01T02:18:09.000Z</time>
      </trkpt>
      <trkpt lat="42.294899" lon="3.259455">
        <ele>125</ele>
        <time>1970-01-01T02:18:10.000Z</time>
      </trkpt>
      <trkpt lat="42.294893" lon="3.259522">
        <ele>125</ele>
        <time>1970-01-01T02:18:11.000Z</time>
      </trkpt>
      <trkpt lat="42.294888" lon="3.259589">
        <ele>125</ele>
        <time>1970-01-01T02:18:12.000Z</time>
      </trkpt>
      <trkpt lat="42.294882" lon="3.259657">
        <ele>125</ele>
        <time>1970-01-01T02:18:13.000Z</time>
      </trkpt>
      <trkpt lat="42.294876" lon="3.259724">
        <ele>123</ele>
        <time>1970-01-01T02:18:14.000Z</time>
      </trkpt>
      <trkpt lat="42.294734" lon="3.259712">
        <ele>123</ele>
        <time>1970-01-01T02:18:15.000Z</time>
      </trkpt>
      <trkpt lat="42.294664" lon="3.259696">
        <ele>123</ele>
        <time>1970-01-01T02:18:16.000Z</time>
      </trkpt>
      <trkpt lat="42.294595" lon="3.259681">
        <ele>123</ele>
        <time>1970-01-01T02:18:17.000Z</time>
      </trkpt>
      <trkpt lat="42.294525" lon="3.259665">
        <ele>123</ele>
        <time>1970-01-01T02:18:18.000Z</time>
      </trkpt>
      <trkpt lat="42.294456" lon="3.25965">
        <ele>123</ele>
        <time>1970-01-01T02:18:19.000Z</time>
      </trkpt>
      <trkpt lat="42.294387" lon="3.259635">
        <ele>123</ele>
        <time>1970-01-01T02:18:20.000Z</time>
      </trkpt>
      <trkpt lat="42.294317" lon="3.259619">
        <ele>123</ele>
        <time>1970-01-01T02:18:21.000Z</time>
      </trkpt>
      <trkpt lat="42.294248" lon="3.259604">
        <ele>123</ele>
        <time>1970-01-01T02:18:22.000Z</time>
      </trkpt>
      <trkpt lat="42.294178" lon="3.259588">
        <ele>123</ele>
        <time>1970-01-01T02:18:23.000Z</time>
      </trkpt>
      <trkpt lat="42.294109" lon="3.259573">
        <ele>119</ele>
        <time>1970-01-01T02:18:24.000Z</time>
      </trkpt>
      <trkpt lat="42.293982" lon="3.259625">
        <ele>119</ele>
        <time>1970-01-01T02:18:25.000Z</time>
      </trkpt>
      <trkpt lat="42.293929" lon="3.259676">
        <ele>119</ele>
        <time>1970-01-01T02:18:26.000Z</time>
      </trkpt>
      <trkpt lat="42.293875" lon="3.259726">
        <ele>119</ele>
        <time>1970-01-01T02:18:27.000Z</time>
      </trkpt>
      <trkpt lat="42.293822" lon="3.259777">
        <ele>119</ele>
        <time>1970-01-01T02:18:28.000Z</time>
      </trkpt>
      <trkpt lat="42.293769" lon="3.259827">
        <ele>119</ele>
        <time>1970-01-01T02:18:29.000Z</time>
      </trkpt>
      <trkpt lat="42.293716" lon="3.259877">
        <ele>119</ele>
        <time>1970-01-01T02:18:30.000Z</time>
      </trkpt>
      <trkpt lat="42.293663" lon="3.259928">
        <ele>119</ele>
        <time>1970-01-01T02:18:31.000Z</time>
      </trkpt>
      <trkpt lat="42.293609" lon="3.259978">
        <ele>119</ele>
        <time>1970-01-01T02:18:32.000Z</time>
      </trkpt>
      <trkpt lat="42.293556" lon="3.260029">
        <ele>119</ele>
        <time>1970-01-01T02:18:33.000Z</time>
      </trkpt>
      <trkpt lat="42.293503" lon="3.260079">
        <ele>118</ele>
        <time>1970-01-01T02:18:34.000Z</time>
      </trkpt>
      <trkpt lat="42.293446" lon="3.260246">
        <ele>118</ele>
        <time>1970-01-01T02:18:35.000Z</time>
      </trkpt>
      <trkpt lat="42.29343" lon="3.260328">
        <ele>118</ele>
        <time>1970-01-01T02:18:36.000Z</time>
      </trkpt>
      <trkpt lat="42.293413" lon="3.260411">
        <ele>118</ele>
        <time>1970-01-01T02:18:37.000Z</time>
      </trkpt>
      <trkpt lat="42.293397" lon="3.260493">
        <ele>118</ele>
        <time>1970-01-01T02:18:38.000Z</time>
      </trkpt>
      <trkpt lat="42.293381" lon="3.260576">
        <ele>118</ele>
        <time>1970-01-01T02:18:39.000Z</time>
      </trkpt>
      <trkpt lat="42.293365" lon="3.260658">
        <ele>118</ele>
        <time>1970-01-01T02:18:40.000Z</time>
      </trkpt>
      <trkpt lat="42.293349" lon="3.260741">
        <ele>118</ele>
        <time>1970-01-01T02:18:41.000Z</time>
      </trkpt>
      <trkpt lat="42.293332" lon="3.260823">
        <ele>118</ele>
        <time>1970-01-01T02:18:42.000Z</time>
      </trkpt>
      <trkpt lat="42.293316" lon="3.260906">
        <ele>118</ele>
        <time>1970-01-01T02:18:43.000Z</time>
      </trkpt>
      <trkpt lat="42.2933" lon="3.260988">
        <ele>116</ele>
        <time>1970-01-01T02:18:44.000Z</time>
      </trkpt>
      <trkpt lat="42.293376" lon="3.261128">
        <ele>116</ele>
        <time>1970-01-01T02:18:45.000Z</time>
      </trkpt>
      <trkpt lat="42.293425" lon="3.26118">
        <ele>116</ele>
        <time>1970-01-01T02:18:46.000Z</time>
      </trkpt>
      <trkpt lat="42.293475" lon="3.261231">
        <ele>116</ele>
        <time>1970-01-01T02:18:47.000Z</time>
      </trkpt>
      <trkpt lat="42.293525" lon="3.261283">
        <ele>116</ele>
        <time>1970-01-01T02:18:48.000Z</time>
      </trkpt>
      <trkpt lat="42.293575" lon="3.261334">
        <ele>116</ele>
        <time>1970-01-01T02:18:49.000Z</time>
      </trkpt>
      <trkpt lat="42.293624" lon="3.261385">
        <ele>116</ele>
        <time>1970-01-01T02:18:50.000Z</time>
      </trkpt>
      <trkpt lat="42.293674" lon="3.261437">
        <ele>116</ele>
        <time>1970-01-01T02:18:51.000Z</time>
      </trkpt>
      <trkpt lat="42.293724" lon="3.261488">
        <ele>116</ele>
        <time>1970-01-01T02:18:52.000Z</time>
      </trkpt>
      <trkpt lat="42.293773" lon="3.26154">
        <ele>116</ele>
        <time>1970-01-01T02:18:53.000Z</time>
      </trkpt>
      <trkpt lat="42.293823" lon="3.261591">
        <ele>112</ele>
        <time>1970-01-01T02:18:54.000Z</time>
      </trkpt>
      <trkpt lat="42.293889" lon="3.261702">
        <ele>112</ele>
        <time>1970-01-01T02:18:55.000Z</time>
      </trkpt>
      <trkpt lat="42.293895" lon="3.261761">
        <ele>112</ele>
        <time>1970-01-01T02:18:56.000Z</time>
      </trkpt>
      <trkpt lat="42.2939" lon="3.26182">
        <ele>112</ele>
        <time>1970-01-01T02:18:57.000Z</time>
      </trkpt>
      <trkpt lat="42.293906" lon="3.261879">
        <ele>112</ele>
        <time>1970-01-01T02:18:58.000Z</time>
      </trkpt>
      <trkpt lat="42.293912" lon="3.261938">
        <ele>112</ele>
        <time>1970-01-01T02:18:59.000Z</time>
      </trkpt>
      <trkpt lat="42.293918" lon="3.261996">
        <ele>112</ele>
        <time>1970-01-01T02:19:00.000Z</time>
      </trkpt>
      <trkpt lat="42.293924" lon="3.262055">
        <ele>112</ele>
        <time>1970-01-01T02:19:01.000Z</time>
      </trkpt>
      <trkpt lat="42.29393" lon="3.262114">
        <ele>112</ele>
        <time>1970-01-01T02:19:02.000Z</time>
      </trkpt>
      <trkpt lat="42.293935" lon="3.262173">
        <ele>112</ele>
        <time>1970-01-01T02:19:03.000Z</time>
      </trkpt>
      <trkpt lat="42.293941" lon="3.262232">
        <ele>112</ele>
        <time>1970-01-01T02:19:04.000Z</time>
      </trkpt>
      <trkpt lat="42.293947" lon="3.262291">
        <ele>109</ele>
        <time>1970-01-01T02:19:05.000Z</time>
      </trkpt>
      <trkpt lat="42.293793" lon="3.262366">
        <ele>109</ele>
        <time>1970-01-01T02:19:06.000Z</time>
      </trkpt>
      <trkpt lat="42.29372" lon="3.262405">
        <ele>109</ele>
        <time>1970-01-01T02:19:07.000Z</time>
      </trkpt>
      <trkpt lat="42.293646" lon="3.262444">
        <ele>109</ele>
        <time>1970-01-01T02:19:08.000Z</time>
      </trkpt>
      <trkpt lat="42.293572" lon="3.262483">
        <ele>109</ele>
        <time>1970-01-01T02:19:09.000Z</time>
      </trkpt>
      <trkpt lat="42.293499" lon="3.262521">
        <ele>109</ele>
        <time>1970-01-01T02:19:10.000Z</time>
      </trkpt>
      <trkpt lat="42.293425" lon="3.26256">
        <ele>109</ele>
        <time>1970-01-01T02:19:11.000Z</time>
      </trkpt>
      <trkpt lat="42.293351" lon="3.262599">
        <ele>109</ele>
        <time>1970-01-01T02:19:12.000Z</time>
      </trkpt>
      <trkpt lat="42.293278" lon="3.262638">
        <ele>109</ele>
        <time>1970-01-01T02:19:13.000Z</time>
      </trkpt>
      <trkpt lat="42.293204" lon="3.262677">
        <ele>105</ele>
        <time>1970-01-01T02:19:14.000Z</time>
      </trkpt>
      <trkpt lat="42.293089" lon="3.262825">
        <ele>105</ele>
        <time>1970-01-01T02:19:15.000Z</time>
      </trkpt>
      <trkpt lat="42.293056" lon="3.262916">
        <ele>105</ele>
        <time>1970-01-01T02:19:16.000Z</time>
      </trkpt>
      <trkpt lat="42.293023" lon="3.263006">
        <ele>105</ele>
        <time>1970-01-01T02:19:17.000Z</time>
      </trkpt>
      <trkpt lat="42.29299" lon="3.263097">
        <ele>105</ele>
        <time>1970-01-01T02:19:18.000Z</time>
      </trkpt>
      <trkpt lat="42.292957" lon="3.263187">
        <ele>105</ele>
        <time>1970-01-01T02:19:19.000Z</time>
      </trkpt>
      <trkpt lat="42.292923" lon="3.263277">
        <ele>105</ele>
        <time>1970-01-01T02:19:20.000Z</time>
      </trkpt>
      <trkpt lat="42.29289" lon="3.263368">
        <ele>105</ele>
        <time>1970-01-01T02:19:21.000Z</time>
      </trkpt>
      <trkpt lat="42.292857" lon="3.263458">
        <ele>105</ele>
        <time>1970-01-01T02:19:22.000Z</time>
      </trkpt>
      <trkpt lat="42.292824" lon="3.263549">
        <ele>105</ele>
        <time>1970-01-01T02:19:23.000Z</time>
      </trkpt>
      <trkpt lat="42.292791" lon="3.263639">
        <ele>100</ele>
        <time>1970-01-01T02:19:24.000Z</time>
      </trkpt>
      <trkpt lat="42.292808" lon="3.263851">
        <ele>100</ele>
        <time>1970-01-01T02:19:25.000Z</time>
      </trkpt>
      <trkpt lat="42.292827" lon="3.263948">
        <ele>100</ele>
        <time>1970-01-01T02:19:26.000Z</time>
      </trkpt>
      <trkpt lat="42.292847" lon="3.264044">
        <ele>100</ele>
        <time>1970-01-01T02:19:27.000Z</time>
      </trkpt>
      <trkpt lat="42.292866" lon="3.26414">
        <ele>100</ele>
        <time>1970-01-01T02:19:28.000Z</time>
      </trkpt>
      <trkpt lat="42.292886" lon="3.264236">
        <ele>100</ele>
        <time>1970-01-01T02:19:29.000Z</time>
      </trkpt>
      <trkpt lat="42.292905" lon="3.264333">
        <ele>100</ele>
        <time>1970-01-01T02:19:30.000Z</time>
      </trkpt>
      <trkpt lat="42.292925" lon="3.264429">
        <ele>100</ele>
        <time>1970-01-01T02:19:31.000Z</time>
      </trkpt>
      <trkpt lat="42.292944" lon="3.264525">
        <ele>100</ele>
        <time>1970-01-01T02:19:32.000Z</time>
      </trkpt>
      <trkpt lat="42.292964" lon="3.264622">
        <ele>100</ele>
        <time>1970-01-01T02:19:33.000Z</time>
      </trkpt>
      <trkpt lat="42.292983" lon="3.264718">
        <ele>97</ele>
        <time>1970-01-01T02:19:34.000Z</time>
      </trkpt>
      <trkpt lat="42.292953" lon="3.264823">
        <ele>97</ele>
        <time>1970-01-01T02:19:35.000Z</time>
      </trkpt>
      <trkpt lat="42.292915" lon="3.264922">
        <ele>97</ele>
        <time>1970-01-01T02:19:36.000Z</time>
      </trkpt>
      <trkpt lat="42.29287" lon="3.265016">
        <ele>97</ele>
        <time>1970-01-01T02:19:37.000Z</time>
      </trkpt>
      <trkpt lat="42.292816" lon="3.265103">
        <ele>97</ele>
        <time>1970-01-01T02:19:38.000Z</time>
      </trkpt>
      <trkpt lat="42.292753" lon="3.265182">
        <ele>97</ele>
        <time>1970-01-01T02:19:39.000Z</time>
      </trkpt>
      <trkpt lat="42.292686" lon="3.265257">
        <ele>97</ele>
        <time>1970-01-01T02:19:40.000Z</time>
      </trkpt>
      <trkpt lat="42.292622" lon="3.265338">
        <ele>97</ele>
        <time>1970-01-01T02:19:41.000Z</time>
      </trkpt>
      <trkpt lat="42.292567" lon="3.265429">
        <ele>97</ele>
        <time>1970-01-01T02:19:42.000Z</time>
      </trkpt>
      <trkpt lat="42.29252" lon="3.26553">
        <ele>97</ele>
        <time>1970-01-01T02:19:43.000Z</time>
      </trkpt>
      <trkpt lat="42.29248" lon="3.26564">
        <ele>97</ele>
        <time>1970-01-01T02:19:44.000Z</time>
      </trkpt>
      <trkpt lat="42.292448" lon="3.265752">
        <ele>91</ele>
        <time>1970-01-01T02:19:45.000Z</time>
      </trkpt>
      <trkpt lat="42.292415" lon="3.265864">
        <ele>91</ele>
        <time>1970-01-01T02:19:46.000Z</time>
      </trkpt>
      <trkpt lat="42.292386" lon="3.265976">
        <ele>91</ele>
        <time>1970-01-01T02:19:47.000Z</time>
      </trkpt>
      <trkpt lat="42.292364" lon="3.266094">
        <ele>91</ele>
        <time>1970-01-01T02:19:48.000Z</time>
      </trkpt>
      <trkpt lat="42.29236" lon="3.266218">
        <ele>91</ele>
        <time>1970-01-01T02:19:49.000Z</time>
      </trkpt>
      <trkpt lat="42.292377" lon="3.266345">
        <ele>91</ele>
        <time>1970-01-01T02:19:50.000Z</time>
      </trkpt>
      <trkpt lat="42.292411" lon="3.266469">
        <ele>91</ele>
        <time>1970-01-01T02:19:51.000Z</time>
      </trkpt>
      <trkpt lat="42.292458" lon="3.266591">
        <ele>91</ele>
        <time>1970-01-01T02:19:52.000Z</time>
      </trkpt>
      <trkpt lat="42.29251" lon="3.266711">
        <ele>91</ele>
        <time>1970-01-01T02:19:53.000Z</time>
      </trkpt>
      <trkpt lat="42.292559" lon="3.26683">
        <ele>91</ele>
        <time>1970-01-01T02:19:54.000Z</time>
      </trkpt>
      <trkpt lat="42.29259" lon="3.266953">
        <ele>87</ele>
        <time>1970-01-01T02:19:55.000Z</time>
      </trkpt>
      <trkpt lat="42.292621" lon="3.267077">
        <ele>87</ele>
        <time>1970-01-01T02:19:56.000Z</time>
      </trkpt>
      <trkpt lat="42.292634" lon="3.267209">
        <ele>87</ele>
        <time>1970-01-01T02:19:57.000Z</time>
      </trkpt>
      <trkpt lat="42.29264" lon="3.267342">
        <ele>87</ele>
        <time>1970-01-01T02:19:58.000Z</time>
      </trkpt>
      <trkpt lat="42.292642" lon="3.267478">
        <ele>87</ele>
        <time>1970-01-01T02:19:59.000Z</time>
      </trkpt>
      <trkpt lat="42.292644" lon="3.267617">
        <ele>87</ele>
        <time>1970-01-01T02:20:00.000Z</time>
      </trkpt>
      <trkpt lat="42.292645" lon="3.267759">
        <ele>87</ele>
        <time>1970-01-01T02:20:01.000Z</time>
      </trkpt>
      <trkpt lat="42.292648" lon="3.267906">
        <ele>87</ele>
        <time>1970-01-01T02:20:02.000Z</time>
      </trkpt>
      <trkpt lat="42.292652" lon="3.268056">
        <ele>87</ele>
        <time>1970-01-01T02:20:03.000Z</time>
      </trkpt>
      <trkpt lat="42.292654" lon="3.268273">
        <ele>87</ele>
        <time>1970-01-01T02:20:04.000Z</time>
      </trkpt>
      <trkpt lat="42.292654" lon="3.268344">
        <ele>75</ele>
        <time>1970-01-01T02:20:05.000Z</time>
      </trkpt>
      <trkpt lat="42.292654" lon="3.268486">
        <ele>75</ele>
        <time>1970-01-01T02:20:06.000Z</time>
      </trkpt>
      <trkpt lat="42.292655" lon="3.268626">
        <ele>75</ele>
        <time>1970-01-01T02:20:07.000Z</time>
      </trkpt>
      <trkpt lat="42.29266" lon="3.268765">
        <ele>75</ele>
        <time>1970-01-01T02:20:08.000Z</time>
      </trkpt>
      <trkpt lat="42.292675" lon="3.268902">
        <ele>75</ele>
        <time>1970-01-01T02:20:09.000Z</time>
      </trkpt>
      <trkpt lat="42.292707" lon="3.269033">
        <ele>75</ele>
        <time>1970-01-01T02:20:10.000Z</time>
      </trkpt>
      <trkpt lat="42.292752" lon="3.26916">
        <ele>75</ele>
        <time>1970-01-01T02:20:11.000Z</time>
      </trkpt>
      <trkpt lat="42.292797" lon="3.269278">
        <ele>75</ele>
        <time>1970-01-01T02:20:12.000Z</time>
      </trkpt>
      <trkpt lat="42.292837" lon="3.269388">
        <ele>75</ele>
        <time>1970-01-01T02:20:13.000Z</time>
      </trkpt>
      <trkpt lat="42.292862" lon="3.26949">
        <ele>75</ele>
        <time>1970-01-01T02:20:14.000Z</time>
      </trkpt>
      <trkpt lat="42.292856" lon="3.269582">
        <ele>67</ele>
        <time>1970-01-01T02:20:15.000Z</time>
      </trkpt>
      <trkpt lat="42.29278" lon="3.269718">
        <ele>67</ele>
        <time>1970-01-01T02:20:16.000Z</time>
      </trkpt>
      <trkpt lat="42.29271" lon="3.269761">
        <ele>67</ele>
        <time>1970-01-01T02:20:17.000Z</time>
      </trkpt>
      <trkpt lat="42.292641" lon="3.269805">
        <ele>67</ele>
        <time>1970-01-01T02:20:18.000Z</time>
      </trkpt>
      <trkpt lat="42.292571" lon="3.269848">
        <ele>67</ele>
        <time>1970-01-01T02:20:19.000Z</time>
      </trkpt>
      <trkpt lat="42.292501" lon="3.269892">
        <ele>67</ele>
        <time>1970-01-01T02:20:20.000Z</time>
      </trkpt>
      <trkpt lat="42.292431" lon="3.269936">
        <ele>67</ele>
        <time>1970-01-01T02:20:21.000Z</time>
      </trkpt>
      <trkpt lat="42.292361" lon="3.269979">
        <ele>67</ele>
        <time>1970-01-01T02:20:22.000Z</time>
      </trkpt>
      <trkpt lat="42.292292" lon="3.270023">
        <ele>67</ele>
        <time>1970-01-01T02:20:23.000Z</time>
      </trkpt>
      <trkpt lat="42.292222" lon="3.270066">
        <ele>67</ele>
        <time>1970-01-01T02:20:24.000Z</time>
      </trkpt>
      <trkpt lat="42.292152" lon="3.27011">
        <ele>63</ele>
        <time>1970-01-01T02:20:25.000Z</time>
      </trkpt>
      <trkpt lat="42.291969" lon="3.270178">
        <ele>63</ele>
        <time>1970-01-01T02:20:26.000Z</time>
      </trkpt>
      <trkpt lat="42.29188" lon="3.270189">
        <ele>63</ele>
        <time>1970-01-01T02:20:27.000Z</time>
      </trkpt>
      <trkpt lat="42.29179" lon="3.2702">
        <ele>63</ele>
        <time>1970-01-01T02:20:28.000Z</time>
      </trkpt>
      <trkpt lat="42.2917" lon="3.270211">
        <ele>63</ele>
        <time>1970-01-01T02:20:29.000Z</time>
      </trkpt>
      <trkpt lat="42.291611" lon="3.270222">
        <ele>63</ele>
        <time>1970-01-01T02:20:30.000Z</time>
      </trkpt>
      <trkpt lat="42.291521" lon="3.270233">
        <ele>63</ele>
        <time>1970-01-01T02:20:31.000Z</time>
      </trkpt>
      <trkpt lat="42.291431" lon="3.270244">
        <ele>63</ele>
        <time>1970-01-01T02:20:32.000Z</time>
      </trkpt>
      <trkpt lat="42.291342" lon="3.270255">
        <ele>63</ele>
        <time>1970-01-01T02:20:33.000Z</time>
      </trkpt>
      <trkpt lat="42.291252" lon="3.270266">
        <ele>55</ele>
        <time>1970-01-01T02:20:34.000Z</time>
      </trkpt>
      <trkpt lat="42.291151" lon="3.270277">
        <ele>55</ele>
        <time>1970-01-01T02:20:35.000Z</time>
      </trkpt>
      <trkpt lat="42.291049" lon="3.270266">
        <ele>55</ele>
        <time>1970-01-01T02:20:36.000Z</time>
      </trkpt>
      <trkpt lat="42.290946" lon="3.27023">
        <ele>55</ele>
        <time>1970-01-01T02:20:37.000Z</time>
      </trkpt>
      <trkpt lat="42.29085" lon="3.27017">
        <ele>55</ele>
        <time>1970-01-01T02:20:38.000Z</time>
      </trkpt>
      <trkpt lat="42.290758" lon="3.270098">
        <ele>55</ele>
        <time>1970-01-01T02:20:39.000Z</time>
      </trkpt>
      <trkpt lat="42.290664" lon="3.270032">
        <ele>55</ele>
        <time>1970-01-01T02:20:40.000Z</time>
      </trkpt>
      <trkpt lat="42.290566" lon="3.269979">
        <ele>55</ele>
        <time>1970-01-01T02:20:41.000Z</time>
      </trkpt>
      <trkpt lat="42.290465" lon="3.269942">
        <ele>55</ele>
        <time>1970-01-01T02:20:42.000Z</time>
      </trkpt>
      <trkpt lat="42.29031" lon="3.269909">
        <ele>55</ele>
        <time>1970-01-01T02:20:43.000Z</time>
      </trkpt>
      <trkpt lat="42.290258" lon="3.269903">
        <ele>48</ele>
        <time>1970-01-01T02:20:44.000Z</time>
      </trkpt>
      <trkpt lat="42.290154" lon="3.269892">
        <ele>48</ele>
        <time>1970-01-01T02:20:45.000Z</time>
      </trkpt>
      <trkpt lat="42.290048" lon="3.269882">
        <ele>48</ele>
        <time>1970-01-01T02:20:46.000Z</time>
      </trkpt>
      <trkpt lat="42.289941" lon="3.269872">
        <ele>48</ele>
        <time>1970-01-01T02:20:47.000Z</time>
      </trkpt>
      <trkpt lat="42.289836" lon="3.269864">
        <ele>48</ele>
        <time>1970-01-01T02:20:48.000Z</time>
      </trkpt>
      <trkpt lat="42.289736" lon="3.269856">
        <ele>48</ele>
        <time>1970-01-01T02:20:49.000Z</time>
      </trkpt>
      <trkpt lat="42.289637" lon="3.269844">
        <ele>48</ele>
        <time>1970-01-01T02:20:50.000Z</time>
      </trkpt>
      <trkpt lat="42.289541" lon="3.269832">
        <ele>48</ele>
        <time>1970-01-01T02:20:51.000Z</time>
      </trkpt>
      <trkpt lat="42.28945" lon="3.26982">
        <ele>48</ele>
        <time>1970-01-01T02:20:52.000Z</time>
      </trkpt>
      <trkpt lat="42.289363" lon="3.269812">
        <ele>48</ele>
        <time>1970-01-01T02:20:53.000Z</time>
      </trkpt>
      <trkpt lat="42.289284" lon="3.269807">
        <ele>42</ele>
        <time>1970-01-01T02:20:54.000Z</time>
      </trkpt>
      <trkpt lat="42.289177" lon="3.26988">
        <ele>42</ele>
        <time>1970-01-01T02:20:55.000Z</time>
      </trkpt>
      <trkpt lat="42.289148" lon="3.269956">
        <ele>42</ele>
        <time>1970-01-01T02:20:56.000Z</time>
      </trkpt>
      <trkpt lat="42.28912" lon="3.270033">
        <ele>42</ele>
        <time>1970-01-01T02:20:57.000Z</time>
      </trkpt>
      <trkpt lat="42.289091" lon="3.270109">
        <ele>42</ele>
        <time>1970-01-01T02:20:58.000Z</time>
      </trkpt>
      <trkpt lat="42.289063" lon="3.270186">
        <ele>42</ele>
        <time>1970-01-01T02:20:59.000Z</time>
      </trkpt>
      <trkpt lat="42.289034" lon="3.270263">
        <ele>42</ele>
        <time>1970-01-01T02:21:00.000Z</time>
      </trkpt>
      <trkpt lat="42.289006" lon="3.270339">
        <ele>42</ele>
        <time>1970-01-01T02:21:01.000Z</time>
      </trkpt>
      <trkpt lat="42.288977" lon="3.270416">
        <ele>42</ele>
        <time>1970-01-01T02:21:02.000Z</time>
      </trkpt>
      <trkpt lat="42.288949" lon="3.270492">
        <ele>42</ele>
        <time>1970-01-01T02:21:03.000Z</time>
      </trkpt>
      <trkpt lat="42.28892" lon="3.270569">
        <ele>36</ele>
        <time>1970-01-01T02:21:04.000Z</time>
      </trkpt>
      <trkpt lat="42.28894" lon="3.270684">
        <ele>36</ele>
        <time>1970-01-01T02:21:05.000Z</time>
      </trkpt>
      <trkpt lat="42.288969" lon="3.2708">
        <ele>36</ele>
        <time>1970-01-01T02:21:06.000Z</time>
      </trkpt>
      <trkpt lat="42.288999" lon="3.270915">
        <ele>36</ele>
        <time>1970-01-01T02:21:07.000Z</time>
      </trkpt>
      <trkpt lat="42.289029" lon="3.27103">
        <ele>36</ele>
        <time>1970-01-01T02:21:08.000Z</time>
      </trkpt>
      <trkpt lat="42.289058" lon="3.271146">
        <ele>36</ele>
        <time>1970-01-01T02:21:09.000Z</time>
      </trkpt>
      <trkpt lat="42.289094" lon="3.271264">
        <ele>36</ele>
        <time>1970-01-01T02:21:10.000Z</time>
      </trkpt>
      <trkpt lat="42.28914" lon="3.271378">
        <ele>36</ele>
        <time>1970-01-01T02:21:11.000Z</time>
      </trkpt>
      <trkpt lat="42.289198" lon="3.271482">
        <ele>36</ele>
        <time>1970-01-01T02:21:12.000Z</time>
      </trkpt>
      <trkpt lat="42.289269" lon="3.271576">
        <ele>36</ele>
        <time>1970-01-01T02:21:13.000Z</time>
      </trkpt>
      <trkpt lat="42.289352" lon="3.271654">
        <ele>30</ele>
        <time>1970-01-01T02:21:14.000Z</time>
      </trkpt>
      <trkpt lat="42.289435" lon="3.271732">
        <ele>30</ele>
        <time>1970-01-01T02:21:15.000Z</time>
      </trkpt>
      <trkpt lat="42.289522" lon="3.271806">
        <ele>30</ele>
        <time>1970-01-01T02:21:16.000Z</time>
      </trkpt>
      <trkpt lat="42.289612" lon="3.271884">
        <ele>30</ele>
        <time>1970-01-01T02:21:17.000Z</time>
      </trkpt>
      <trkpt lat="42.289704" lon="3.271964">
        <ele>30</ele>
        <time>1970-01-01T02:21:18.000Z</time>
      </trkpt>
      <trkpt lat="42.289797" lon="3.272043">
        <ele>30</ele>
        <time>1970-01-01T02:21:19.000Z</time>
      </trkpt>
      <trkpt lat="42.289888" lon="3.27212">
        <ele>30</ele>
        <time>1970-01-01T02:21:20.000Z</time>
      </trkpt>
      <trkpt lat="42.289974" lon="3.272192">
        <ele>30</ele>
        <time>1970-01-01T02:21:21.000Z</time>
      </trkpt>
      <trkpt lat="42.290057" lon="3.272259">
        <ele>30</ele>
        <time>1970-01-01T02:21:22.000Z</time>
      </trkpt>
      <trkpt lat="42.290181" lon="3.272341">
        <ele>30</ele>
        <time>1970-01-01T02:21:23.000Z</time>
      </trkpt>
      <trkpt lat="42.290225" lon="3.27236">
        <ele>24</ele>
        <time>1970-01-01T02:21:24.000Z</time>
      </trkpt>
      <trkpt lat="42.290366" lon="3.272433">
        <ele>24</ele>
        <time>1970-01-01T02:21:25.000Z</time>
      </trkpt>
      <trkpt lat="42.290419" lon="3.272468">
        <ele>24</ele>
        <time>1970-01-01T02:21:26.000Z</time>
      </trkpt>
      <trkpt lat="42.290471" lon="3.272503">
        <ele>24</ele>
        <time>1970-01-01T02:21:27.000Z</time>
      </trkpt>
      <trkpt lat="42.290524" lon="3.272538">
        <ele>24</ele>
        <time>1970-01-01T02:21:28.000Z</time>
      </trkpt>
      <trkpt lat="42.290577" lon="3.272573">
        <ele>24</ele>
        <time>1970-01-01T02:21:29.000Z</time>
      </trkpt>
      <trkpt lat="42.29063" lon="3.272609">
        <ele>24</ele>
        <time>1970-01-01T02:21:30.000Z</time>
      </trkpt>
      <trkpt lat="42.290683" lon="3.272644">
        <ele>24</ele>
        <time>1970-01-01T02:21:31.000Z</time>
      </trkpt>
      <trkpt lat="42.290735" lon="3.272679">
        <ele>24</ele>
        <time>1970-01-01T02:21:32.000Z</time>
      </trkpt>
      <trkpt lat="42.290788" lon="3.272714">
        <ele>24</ele>
        <time>1970-01-01T02:21:33.000Z</time>
      </trkpt>
      <trkpt lat="42.290841" lon="3.272749">
        <ele>18</ele>
        <time>1970-01-01T02:21:34.000Z</time>
      </trkpt>
      <trkpt lat="42.290782" lon="3.272922">
        <ele>18</ele>
        <time>1970-01-01T02:21:35.000Z</time>
      </trkpt>
      <trkpt lat="42.290737" lon="3.272995">
        <ele>18</ele>
        <time>1970-01-01T02:21:36.000Z</time>
      </trkpt>
      <trkpt lat="42.290693" lon="3.273069">
        <ele>18</ele>
        <time>1970-01-01T02:21:37.000Z</time>
      </trkpt>
      <trkpt lat="42.290649" lon="3.273142">
        <ele>18</ele>
        <time>1970-01-01T02:21:38.000Z</time>
      </trkpt>
      <trkpt lat="42.290605" lon="3.273216">
        <ele>18</ele>
        <time>1970-01-01T02:21:39.000Z</time>
      </trkpt>
      <trkpt lat="42.29056" lon="3.27329">
        <ele>18</ele>
        <time>1970-01-01T02:21:40.000Z</time>
      </trkpt>
      <trkpt lat="42.290516" lon="3.273363">
        <ele>18</ele>
        <time>1970-01-01T02:21:41.000Z</time>
      </trkpt>
      <trkpt lat="42.290472" lon="3.273437">
        <ele>18</ele>
        <time>1970-01-01T02:21:42.000Z</time>
      </trkpt>
      <trkpt lat="42.290427" lon="3.27351">
        <ele>18</ele>
        <time>1970-01-01T02:21:43.000Z</time>
      </trkpt>
      <trkpt lat="42.290383" lon="3.273584">
        <ele>14</ele>
        <time>1970-01-01T02:21:44.000Z</time>
      </trkpt>
      <trkpt lat="42.290303" lon="3.27369">
        <ele>14</ele>
        <time>1970-01-01T02:21:45.000Z</time>
      </trkpt>
      <trkpt lat="42.290262" lon="3.273733">
        <ele>14</ele>
        <time>1970-01-01T02:21:46.000Z</time>
      </trkpt>
      <trkpt lat="42.290221" lon="3.273775">
        <ele>14</ele>
        <time>1970-01-01T02:21:47.000Z</time>
      </trkpt>
      <trkpt lat="42.29018" lon="3.273818">
        <ele>14</ele>
        <time>1970-01-01T02:21:48.000Z</time>
      </trkpt>
      <trkpt lat="42.290139" lon="3.27386">
        <ele>14</ele>
        <time>1970-01-01T02:21:49.000Z</time>
      </trkpt>
      <trkpt lat="42.290097" lon="3.273902">
        <ele>14</ele>
        <time>1970-01-01T02:21:50.000Z</time>
      </trkpt>
      <trkpt lat="42.290056" lon="3.273945">
        <ele>14</ele>
        <time>1970-01-01T02:21:51.000Z</time>
      </trkpt>
      <trkpt lat="42.290015" lon="3.273987">
        <ele>14</ele>
        <time>1970-01-01T02:21:52.000Z</time>
      </trkpt>
      <trkpt lat="42.289974" lon="3.27403">
        <ele>14</ele>
        <time>1970-01-01T02:21:53.000Z</time>
      </trkpt>
      <trkpt lat="42.289933" lon="3.274072">
        <ele>9</ele>
        <time>1970-01-01T02:21:54.000Z</time>
      </trkpt>
      <trkpt lat="42.289872" lon="3.274115">
        <ele>9</ele>
        <time>1970-01-01T02:21:55.000Z</time>
      </trkpt>
      <trkpt lat="42.289847" lon="3.274133">
        <ele>9</ele>
        <time>1970-01-01T02:21:56.000Z</time>
      </trkpt>
      <trkpt lat="42.289822" lon="3.274152">
        <ele>9</ele>
        <time>1970-01-01T02:21:57.000Z</time>
      </trkpt>
      <trkpt lat="42.289797" lon="3.274171">
        <ele>9</ele>
        <time>1970-01-01T02:21:58.000Z</time>
      </trkpt>
      <trkpt lat="42.289773" lon="3.27419">
        <ele>9</ele>
        <time>1970-01-01T02:21:59.000Z</time>
      </trkpt>
      <trkpt lat="42.289748" lon="3.274208">
        <ele>9</ele>
        <time>1970-01-01T02:22:00.000Z</time>
      </trkpt>
      <trkpt lat="42.289723" lon="3.274227">
        <ele>9</ele>
        <time>1970-01-01T02:22:01.000Z</time>
      </trkpt>
      <trkpt lat="42.289698" lon="3.274246">
        <ele>9</ele>
        <time>1970-01-01T02:22:02.000Z</time>
      </trkpt>
      <trkpt lat="42.289673" lon="3.274264">
        <ele>9</ele>
        <time>1970-01-01T02:22:03.000Z</time>
      </trkpt>
      <trkpt lat="42.289648" lon="3.274283">
        <ele>8</ele>
        <time>1970-01-01T02:22:04.000Z</time>
      </trkpt>
      <trkpt lat="42.28961" lon="3.274286">
        <ele>8</ele>
        <time>1970-01-01T02:22:05.000Z</time>
      </trkpt>
      <trkpt lat="42.289577" lon="3.274287">
        <ele>8</ele>
        <time>1970-01-01T02:22:06.000Z</time>
      </trkpt>
      <trkpt lat="42.289547" lon="3.274289">
        <ele>8</ele>
        <time>1970-01-01T02:22:07.000Z</time>
      </trkpt>
      <trkpt lat="42.289525" lon="3.274292">
        <ele>8</ele>
        <time>1970-01-01T02:22:08.000Z</time>
      </trkpt>
      <trkpt lat="42.289525" lon="3.274292">
        <ele>7</ele>
        <time>1970-01-01T02:22:12.000Z</time>
      </trkpt>
      <trkpt lat="42.289493" lon="3.274283">
        <ele>7</ele>
        <time>1970-01-01T02:22:13.000Z</time>
      </trkpt>
      <trkpt lat="42.289472" lon="3.274282">
        <ele>7</ele>
        <time>1970-01-01T02:22:27.000Z</time>
      </trkpt>
      <trkpt lat="42.289452" lon="3.27428">
        <ele>7</ele>
        <time>1970-01-01T02:22:28.000Z</time>
      </trkpt>
      <trkpt lat="42.289431" lon="3.274279">
        <ele>7</ele>
        <time>1970-01-01T02:22:30.000Z</time>
      </trkpt>
      <trkpt lat="42.28941" lon="3.274278">
        <ele>7</ele>
        <time>1970-01-01T02:22:33.000Z</time>
      </trkpt>
      <trkpt lat="42.289389" lon="3.274277">
        <ele>7</ele>
        <time>1970-01-01T02:22:36.000Z</time>
      </trkpt>
      <trkpt lat="42.289368" lon="3.274276">
        <ele>7</ele>
        <time>1970-01-01T02:22:37.000Z</time>
      </trkpt>
      <trkpt lat="42.289348" lon="3.274274">
        <ele>8</ele>
        <time>1970-01-01T02:22:43.000Z</time>
      </trkpt>
      <trkpt lat="42.289327" lon="3.274273">
        <ele>8</ele>
        <time>1970-01-01T02:22:44.000Z</time>
      </trkpt>
      <trkpt lat="42.289306" lon="3.274272">
        <ele>8</ele>
        <time>1970-01-01T02:22:46.000Z</time>
      </trkpt>
      <trkpt lat="42.289285" lon="3.274271">
        <ele>8</ele>
        <time>1970-01-01T02:22:47.000Z</time>
      </trkpt>
      <trkpt lat="42.289264" lon="3.27427">
        <ele>8</ele>
        <time>1970-01-01T02:22:49.000Z</time>
      </trkpt>
      <trkpt lat="42.289243" lon="3.274269">
        <ele>8</ele>
        <time>1970-01-01T02:22:50.000Z</time>
      </trkpt>
      <trkpt lat="42.289223" lon="3.274267">
        <ele>8</ele>
        <time>1970-01-01T02:22:51.000Z</time>
      </trkpt>
      <trkpt lat="42.289202" lon="3.274266">
        <ele>8</ele>
        <time>1970-01-01T02:22:52.000Z</time>
      </trkpt>
      <trkpt lat="42.289181" lon="3.274265">
        <ele>8</ele>
        <time>1970-01-01T02:22:53.000Z</time>
      </trkpt>
      <trkpt lat="42.289129" lon="3.274256">
        <ele>8</ele>
        <time>1970-01-01T02:22:54.000Z</time>
      </trkpt>
      <trkpt lat="42.289105" lon="3.274254">
        <ele>8</ele>
        <time>1970-01-01T02:22:55.000Z</time>
      </trkpt>
      <trkpt lat="42.28908" lon="3.274251">
        <ele>8</ele>
        <time>1970-01-01T02:22:56.000Z</time>
      </trkpt>
      <trkpt lat="42.289055" lon="3.274249">
        <ele>8</ele>
        <time>1970-01-01T02:22:57.000Z</time>
      </trkpt>
      <trkpt lat="42.28903" lon="3.274246">
        <ele>8</ele>
        <time>1970-01-01T02:22:58.000Z</time>
      </trkpt>
      <trkpt lat="42.289006" lon="3.274244">
        <ele>8</ele>
        <time>1970-01-01T02:22:59.000Z</time>
      </trkpt>
      <trkpt lat="42.288981" lon="3.274241">
        <ele>8</ele>
        <time>1970-01-01T02:23:00.000Z</time>
      </trkpt>
      <trkpt lat="42.288956" lon="3.274239">
        <ele>8</ele>
        <time>1970-01-01T02:23:01.000Z</time>
      </trkpt>
      <trkpt lat="42.288931" lon="3.274236">
        <ele>8</ele>
        <time>1970-01-01T02:23:02.000Z</time>
      </trkpt>
      <trkpt lat="42.288907" lon="3.274234">
        <ele>8</ele>
        <time>1970-01-01T02:23:03.000Z</time>
      </trkpt>
      <trkpt lat="42.288882" lon="3.274231">
        <ele>8</ele>
        <time>1970-01-01T02:23:04.000Z</time>
      </trkpt>
      <trkpt lat="42.288841" lon="3.274203">
        <ele>8</ele>
        <time>1970-01-01T02:23:05.000Z</time>
      </trkpt>
      <trkpt lat="42.288824" lon="3.27419">
        <ele>8</ele>
        <time>1970-01-01T02:23:06.000Z</time>
      </trkpt>
      <trkpt lat="42.288806" lon="3.274177">
        <ele>8</ele>
        <time>1970-01-01T02:23:07.000Z</time>
      </trkpt>
      <trkpt lat="42.288788" lon="3.274164">
        <ele>8</ele>
        <time>1970-01-01T02:23:08.000Z</time>
      </trkpt>
      <trkpt lat="42.288771" lon="3.27415">
        <ele>8</ele>
        <time>1970-01-01T02:23:09.000Z</time>
      </trkpt>
      <trkpt lat="42.288753" lon="3.274137">
        <ele>8</ele>
        <time>1970-01-01T02:23:10.000Z</time>
      </trkpt>
      <trkpt lat="42.288735" lon="3.274124">
        <ele>8</ele>
        <time>1970-01-01T02:23:11.000Z</time>
      </trkpt>
      <trkpt lat="42.288718" lon="3.274111">
        <ele>8</ele>
        <time>1970-01-01T02:23:12.000Z</time>
      </trkpt>
      <trkpt lat="42.2887" lon="3.274098">
        <ele>9</ele>
        <time>1970-01-01T02:23:13.000Z</time>
      </trkpt>
      <trkpt lat="42.288653" lon="3.274125">
        <ele>9</ele>
        <time>1970-01-01T02:23:14.000Z</time>
      </trkpt>
      <trkpt lat="42.28863" lon="3.27414">
        <ele>9</ele>
        <time>1970-01-01T02:23:15.000Z</time>
      </trkpt>
      <trkpt lat="42.288608" lon="3.274155">
        <ele>9</ele>
        <time>1970-01-01T02:23:16.000Z</time>
      </trkpt>
      <trkpt lat="42.288585" lon="3.27417">
        <ele>9</ele>
        <time>1970-01-01T02:23:17.000Z</time>
      </trkpt>
      <trkpt lat="42.288563" lon="3.274186">
        <ele>9</ele>
        <time>1970-01-01T02:23:18.000Z</time>
      </trkpt>
      <trkpt lat="42.28854" lon="3.274201">
        <ele>9</ele>
        <time>1970-01-01T02:23:19.000Z</time>
      </trkpt>
      <trkpt lat="42.288518" lon="3.274216">
        <ele>9</ele>
        <time>1970-01-01T02:23:20.000Z</time>
      </trkpt>
      <trkpt lat="42.288495" lon="3.274231">
        <ele>9</ele>
        <time>1970-01-01T02:23:21.000Z</time>
      </trkpt>
      <trkpt lat="42.288473" lon="3.274246">
        <ele>9</ele>
        <time>1970-01-01T02:23:22.000Z</time>
      </trkpt>
      <trkpt lat="42.28845" lon="3.274261">
        <ele>10</ele>
        <time>1970-01-01T02:23:23.000Z</time>
      </trkpt>
      <trkpt lat="42.288397" lon="3.274291">
        <ele>10</ele>
        <time>1970-01-01T02:23:24.000Z</time>
      </trkpt>
      <trkpt lat="42.288373" lon="3.27431">
        <ele>10</ele>
        <time>1970-01-01T02:23:25.000Z</time>
      </trkpt>
      <trkpt lat="42.288349" lon="3.274328">
        <ele>10</ele>
        <time>1970-01-01T02:23:26.000Z</time>
      </trkpt>
      <trkpt lat="42.288325" lon="3.274346">
        <ele>10</ele>
        <time>1970-01-01T02:23:27.000Z</time>
      </trkpt>
      <trkpt lat="42.288301" lon="3.274365">
        <ele>10</ele>
        <time>1970-01-01T02:23:28.000Z</time>
      </trkpt>
      <trkpt lat="42.288277" lon="3.274383">
        <ele>10</ele>
        <time>1970-01-01T02:23:29.000Z</time>
      </trkpt>
      <trkpt lat="42.288253" lon="3.274401">
        <ele>10</ele>
        <time>1970-01-01T02:23:30.000Z</time>
      </trkpt>
      <trkpt lat="42.288229" lon="3.274419">
        <ele>10</ele>
        <time>1970-01-01T02:23:31.000Z</time>
      </trkpt>
      <trkpt lat="42.288205" lon="3.274438">
        <ele>10</ele>
        <time>1970-01-01T02:23:32.000Z</time>
      </trkpt>
      <trkpt lat="42.288181" lon="3.274456">
        <ele>10</ele>
        <time>1970-01-01T02:23:33.000Z</time>
      </trkpt>
      <trkpt lat="42.288128" lon="3.274499">
        <ele>10</ele>
        <time>1970-01-01T02:23:34.000Z</time>
      </trkpt>
      <trkpt lat="42.288104" lon="3.274523">
        <ele>10</ele>
        <time>1970-01-01T02:23:35.000Z</time>
      </trkpt>
      <trkpt lat="42.28808" lon="3.274547">
        <ele>10</ele>
        <time>1970-01-01T02:23:36.000Z</time>
      </trkpt>
      <trkpt lat="42.288056" lon="3.274571">
        <ele>10</ele>
        <time>1970-01-01T02:23:37.000Z</time>
      </trkpt>
      <trkpt lat="42.288032" lon="3.274595">
        <ele>10</ele>
        <time>1970-01-01T02:23:38.000Z</time>
      </trkpt>
      <trkpt lat="42.288007" lon="3.274619">
        <ele>10</ele>
        <time>1970-01-01T02:23:39.000Z</time>
      </trkpt>
      <trkpt lat="42.287983" lon="3.274643">
        <ele>10</ele>
        <time>1970-01-01T02:23:40.000Z</time>
      </trkpt>
      <trkpt lat="42.287959" lon="3.274667">
        <ele>10</ele>
        <time>1970-01-01T02:23:41.000Z</time>
      </trkpt>
      <trkpt lat="42.287935" lon="3.274691">
        <ele>10</ele>
        <time>1970-01-01T02:23:42.000Z</time>
      </trkpt>
      <trkpt lat="42.287911" lon="3.274715">
        <ele>9</ele>
        <time>1970-01-01T02:23:43.000Z</time>
      </trkpt>
      <trkpt lat="42.287869" lon="3.274758">
        <ele>9</ele>
        <time>1970-01-01T02:23:44.000Z</time>
      </trkpt>
      <trkpt lat="42.287844" lon="3.274779">
        <ele>9</ele>
        <time>1970-01-01T02:23:45.000Z</time>
      </trkpt>
      <trkpt lat="42.28782" lon="3.2748">
        <ele>9</ele>
        <time>1970-01-01T02:23:46.000Z</time>
      </trkpt>
      <trkpt lat="42.287795" lon="3.274821">
        <ele>9</ele>
        <time>1970-01-01T02:23:47.000Z</time>
      </trkpt>
      <trkpt lat="42.287771" lon="3.274843">
        <ele>9</ele>
        <time>1970-01-01T02:23:48.000Z</time>
      </trkpt>
      <trkpt lat="42.287747" lon="3.274864">
        <ele>9</ele>
        <time>1970-01-01T02:23:49.000Z</time>
      </trkpt>
      <trkpt lat="42.287722" lon="3.274885">
        <ele>9</ele>
        <time>1970-01-01T02:23:50.000Z</time>
      </trkpt>
      <trkpt lat="42.287698" lon="3.274906">
        <ele>9</ele>
        <time>1970-01-01T02:23:51.000Z</time>
      </trkpt>
      <trkpt lat="42.287673" lon="3.274927">
        <ele>9</ele>
        <time>1970-01-01T02:23:52.000Z</time>
      </trkpt>
      <trkpt lat="42.287649" lon="3.274948">
        <ele>9</ele>
        <time>1970-01-01T02:23:53.000Z</time>
      </trkpt>
      <trkpt lat="42.287593" lon="3.275005">
        <ele>9</ele>
        <time>1970-01-01T02:23:54.000Z</time>
      </trkpt>
      <trkpt lat="42.28757" lon="3.275035">
        <ele>9</ele>
        <time>1970-01-01T02:23:55.000Z</time>
      </trkpt>
      <trkpt lat="42.287547" lon="3.275066">
        <ele>9</ele>
        <time>1970-01-01T02:23:56.000Z</time>
      </trkpt>
      <trkpt lat="42.287524" lon="3.275096">
        <ele>9</ele>
        <time>1970-01-01T02:23:57.000Z</time>
      </trkpt>
      <trkpt lat="42.287501" lon="3.275127">
        <ele>9</ele>
        <time>1970-01-01T02:23:58.000Z</time>
      </trkpt>
      <trkpt lat="42.287478" lon="3.275157">
        <ele>9</ele>
        <time>1970-01-01T02:23:59.000Z</time>
      </trkpt>
      <trkpt lat="42.287455" lon="3.275188">
        <ele>9</ele>
        <time>1970-01-01T02:24:00.000Z</time>
      </trkpt>
      <trkpt lat="42.287432" lon="3.275218">
        <ele>9</ele>
        <time>1970-01-01T02:24:01.000Z</time>
      </trkpt>
      <trkpt lat="42.287409" lon="3.275249">
        <ele>9</ele>
        <time>1970-01-01T02:24:02.000Z</time>
      </trkpt>
      <trkpt lat="42.287386" lon="3.275279">
        <ele>8</ele>
        <time>1970-01-01T02:24:03.000Z</time>
      </trkpt>
      <trkpt lat="42.287366" lon="3.275344">
        <ele>8</ele>
        <time>1970-01-01T02:24:04.000Z</time>
      </trkpt>
      <trkpt lat="42.287359" lon="3.275367">
        <ele>8</ele>
        <time>1970-01-01T02:24:05.000Z</time>
      </trkpt>
      <trkpt lat="42.287351" lon="3.275389">
        <ele>8</ele>
        <time>1970-01-01T02:24:07.000Z</time>
      </trkpt>
      <trkpt lat="42.287343" lon="3.275412">
        <ele>8</ele>
        <time>1970-01-01T02:24:09.000Z</time>
      </trkpt>
      <trkpt lat="42.287335" lon="3.275434">
        <ele>8</ele>
        <time>1970-01-01T02:24:11.000Z</time>
      </trkpt>
      <trkpt lat="42.287328" lon="3.275457">
        <ele>8</ele>
        <time>1970-01-01T02:24:12.000Z</time>
      </trkpt>
      <trkpt lat="42.28732" lon="3.275479">
        <ele>8</ele>
        <time>1970-01-01T02:24:13.000Z</time>
      </trkpt>
      <trkpt lat="42.287311" lon="3.275524">
        <ele>8</ele>
        <time>1970-01-01T02:24:14.000Z</time>
      </trkpt>
      <trkpt lat="42.287313" lon="3.275547">
        <ele>8</ele>
        <time>1970-01-01T02:24:15.000Z</time>
      </trkpt>
      <trkpt lat="42.287314" lon="3.275569">
        <ele>8</ele>
        <time>1970-01-01T02:24:16.000Z</time>
      </trkpt>
      <trkpt lat="42.287316" lon="3.275592">
        <ele>8</ele>
        <time>1970-01-01T02:24:17.000Z</time>
      </trkpt>
      <trkpt lat="42.287317" lon="3.275614">
        <ele>8</ele>
        <time>1970-01-01T02:24:19.000Z</time>
      </trkpt>
      <trkpt lat="42.287318" lon="3.275637">
        <ele>8</ele>
        <time>1970-01-01T02:24:21.000Z</time>
      </trkpt>
      <trkpt lat="42.28732" lon="3.275659">
        <ele>8</ele>
        <time>1970-01-01T02:24:22.000Z</time>
      </trkpt>
      <trkpt lat="42.287321" lon="3.275682">
        <ele>7</ele>
        <time>1970-01-01T02:24:23.000Z</time>
      </trkpt>
      <trkpt lat="42.287335" lon="3.275722">
        <ele>7</ele>
        <time>1970-01-01T02:24:24.000Z</time>
      </trkpt>
      <trkpt lat="42.287342" lon="3.275748">
        <ele>7</ele>
        <time>1970-01-01T02:24:26.000Z</time>
      </trkpt>
      <trkpt lat="42.287349" lon="3.275775">
        <ele>7</ele>
        <time>1970-01-01T02:24:28.000Z</time>
      </trkpt>
      <trkpt lat="42.287357" lon="3.275802">
        <ele>7</ele>
        <time>1970-01-01T02:24:29.000Z</time>
      </trkpt>
      <trkpt lat="42.287364" lon="3.275829">
        <ele>7</ele>
        <time>1970-01-01T02:24:30.000Z</time>
      </trkpt>
      <trkpt lat="42.287371" lon="3.275855">
        <ele>7</ele>
        <time>1970-01-01T02:24:31.000Z</time>
      </trkpt>
      <trkpt lat="42.287378" lon="3.275882">
        <ele>7</ele>
        <time>1970-01-01T02:24:32.000Z</time>
      </trkpt>
      <trkpt lat="42.287385" lon="3.275909">
        <ele>5</ele>
        <time>1970-01-01T02:24:33.000Z</time>
      </trkpt>
      <trkpt lat="42.287386" lon="3.275939">
        <ele>5</ele>
        <time>1970-01-01T02:24:34.000Z</time>
      </trkpt>
      <trkpt lat="42.287384" lon="3.275971">
        <ele>5</ele>
        <time>1970-01-01T02:24:35.000Z</time>
      </trkpt>
      <trkpt lat="42.287383" lon="3.276002">
        <ele>5</ele>
        <time>1970-01-01T02:24:36.000Z</time>
      </trkpt>
      <trkpt lat="42.287384" lon="3.276032">
        <ele>5</ele>
        <time>1970-01-01T02:24:37.000Z</time>
      </trkpt>
      <trkpt lat="42.287387" lon="3.276059">
        <ele>5</ele>
        <time>1970-01-01T02:24:38.000Z</time>
      </trkpt>
      <trkpt lat="42.287395" lon="3.276083">
        <ele>5</ele>
        <time>1970-01-01T02:24:39.000Z</time>
      </trkpt>
      <trkpt lat="42.287406" lon="3.276104">
        <ele>5</ele>
        <time>1970-01-01T02:24:41.000Z</time>
      </trkpt>
      <trkpt lat="42.287406" lon="3.276104">
        <ele>4</ele>
        <time>1970-01-01T02:24:43.000Z</time>
      </trkpt>
      <trkpt lat="42.287416" lon="3.276128">
        <ele>4</ele>
        <time>1970-01-01T02:24:44.000Z</time>
      </trkpt>
      <trkpt lat="42.287425" lon="3.276152">
        <ele>4</ele>
        <time>1970-01-01T02:24:45.000Z</time>
      </trkpt>
      <trkpt lat="42.287435" lon="3.276175">
        <ele>4</ele>
        <time>1970-01-01T02:27:56.000Z</time>
      </trkpt>
      <trkpt lat="42.287445" lon="3.276199">
        <ele>4</ele>
        <time>1970-01-01T02:27:57.000Z</time>
      </trkpt>
      <trkpt lat="42.287455" lon="3.276223">
        <ele>4</ele>
        <time>1970-01-01T02:27:59.000Z</time>
      </trkpt>
      <trkpt lat="42.287464" lon="3.276247">
        <ele>4</ele>
        <time>1970-01-01T02:28:00.000Z</time>
      </trkpt>
      <trkpt lat="42.287474" lon="3.276271">
        <ele>4</ele>
        <time>1970-01-01T02:28:01.000Z</time>
      </trkpt>
      <trkpt lat="42.287484" lon="3.276295">
        <ele>4</ele>
        <time>1970-01-01T02:28:02.000Z</time>
      </trkpt>
      <trkpt lat="42.287494" lon="3.276318">
        <ele>4</ele>
        <time>1970-01-01T02:28:03.000Z</time>
      </trkpt>
      <trkpt lat="42.287503" lon="3.276342">
        <ele>4</ele>
        <time>1970-01-01T02:28:04.000Z</time>
      </trkpt>
      <trkpt lat="42.287513" lon="3.276366">
        <ele>4</ele>
        <time>1970-01-01T02:28:05.000Z</time>
      </trkpt>
      <trkpt lat="42.287511" lon="3.276425">
        <ele>4</ele>
        <time>1970-01-01T02:28:06.000Z</time>
      </trkpt>
      <trkpt lat="42.287505" lon="3.276451">
        <ele>4</ele>
        <time>1970-01-01T02:28:07.000Z</time>
      </trkpt>
      <trkpt lat="42.287498" lon="3.276477">
        <ele>4</ele>
        <time>1970-01-01T02:28:09.000Z</time>
      </trkpt>
      <trkpt lat="42.287492" lon="3.276504">
        <ele>4</ele>
        <time>1970-01-01T02:28:11.000Z</time>
      </trkpt>
      <trkpt lat="42.287485" lon="3.27653">
        <ele>4</ele>
        <time>1970-01-01T02:28:13.000Z</time>
      </trkpt>
      <trkpt lat="42.287479" lon="3.276556">
        <ele>4</ele>
        <time>1970-01-01T02:28:15.000Z</time>
      </trkpt>
      <trkpt lat="42.287472" lon="3.276582">
        <ele>3</ele>
        <time>1970-01-01T02:28:16.000Z</time>
      </trkpt>
      <trkpt lat="42.287463" lon="3.276631">
        <ele>3</ele>
        <time>1970-01-01T02:28:17.000Z</time>
      </trkpt>
      <trkpt lat="42.287459" lon="3.276654">
        <ele>3</ele>
        <time>1970-01-01T02:28:18.000Z</time>
      </trkpt>
      <trkpt lat="42.287455" lon="3.276677">
        <ele>3</ele>
        <time>1970-01-01T02:28:19.000Z</time>
      </trkpt>
      <trkpt lat="42.287451" lon="3.2767">
        <ele>3</ele>
        <time>1970-01-01T02:28:20.000Z</time>
      </trkpt>
      <trkpt lat="42.287448" lon="3.276723">
        <ele>3</ele>
        <time>1970-01-01T02:28:21.000Z</time>
      </trkpt>
      <trkpt lat="42.287444" lon="3.276746">
        <ele>3</ele>
        <time>1970-01-01T02:28:22.000Z</time>
      </trkpt>
      <trkpt lat="42.28744" lon="3.276769">
        <ele>3</ele>
        <time>1970-01-01T02:28:23.000Z</time>
      </trkpt>
      <trkpt lat="42.287436" lon="3.276792">
        <ele>3</ele>
        <time>1970-01-01T02:28:24.000Z</time>
      </trkpt>
      <trkpt lat="42.287432" lon="3.276815">
        <ele>3</ele>
        <time>1970-01-01T02:28:25.000Z</time>
      </trkpt>
      <trkpt lat="42.287422" lon="3.276871">
        <ele>3</ele>
        <time>1970-01-01T02:28:26.000Z</time>
      </trkpt>
      <trkpt lat="42.287417" lon="3.276906">
        <ele>3</ele>
        <time>1970-01-01T02:28:28.000Z</time>
      </trkpt>
      <trkpt lat="42.287413" lon="3.276942">
        <ele>3</ele>
        <time>1970-01-01T02:28:30.000Z</time>
      </trkpt>
      <trkpt lat="42.287408" lon="3.276977">
        <ele>3</ele>
        <time>1970-01-01T02:28:31.000Z</time>
      </trkpt>
      <trkpt lat="42.287404" lon="3.277013">
        <ele>3</ele>
        <time>1970-01-01T02:28:33.000Z</time>
      </trkpt>
      <trkpt lat="42.287399" lon="3.277048">
        <ele>3</ele>
        <time>1970-01-01T02:28:35.000Z</time>
      </trkpt>
      <trkpt lat="42.287407" lon="3.277123">
        <ele>3</ele>
        <time>1970-01-01T02:28:37.000Z</time>
      </trkpt>
      <trkpt lat="42.287413" lon="3.277152">
        <ele>3</ele>
        <time>1970-01-01T02:28:39.000Z</time>
      </trkpt>
      <trkpt lat="42.28742" lon="3.277181">
        <ele>3</ele>
        <time>1970-01-01T02:28:40.000Z</time>
      </trkpt>
      <trkpt lat="42.287426" lon="3.277209">
        <ele>3</ele>
        <time>1970-01-01T02:28:41.000Z</time>
      </trkpt>
      <trkpt lat="42.287433" lon="3.277238">
        <ele>3</ele>
        <time>1970-01-01T02:28:42.000Z</time>
      </trkpt>
      <trkpt lat="42.287439" lon="3.277267">
        <ele>3</ele>
        <time>1970-01-01T02:28:43.000Z</time>
      </trkpt>
      <trkpt lat="42.287446" lon="3.277296">
        <ele>3</ele>
        <time>1970-01-01T02:28:45.000Z</time>
      </trkpt>
      <trkpt lat="42.287465" lon="3.277315">
        <ele>3</ele>
        <time>1970-01-01T02:28:47.000Z</time>
      </trkpt>
      <trkpt lat="42.287485" lon="3.277339">
        <ele>3</ele>
        <time>1970-01-01T02:28:49.000Z</time>
      </trkpt>
      <trkpt lat="42.287505" lon="3.277354">
        <ele>3</ele>
        <time>1970-01-01T02:28:52.000Z</time>
      </trkpt>
      <trkpt lat="42.287524" lon="3.277357">
        <ele>3</ele>
        <time>1970-01-01T02:28:54.000Z</time>
      </trkpt>
      <trkpt lat="42.287551" lon="3.277361">
        <ele>3</ele>
        <time>1970-01-01T02:28:56.000Z</time>
      </trkpt>
      <trkpt lat="42.287594" lon="3.277361">
        <ele>3</ele>
        <time>1970-01-01T02:28:58.000Z</time>
      </trkpt>
      <trkpt lat="42.287609" lon="3.277357">
        <ele>3</ele>
        <time>1970-01-01T02:29:00.000Z</time>
      </trkpt>
      <trkpt lat="42.287625" lon="3.277352">
        <ele>3</ele>
        <time>1970-01-01T02:29:02.000Z</time>
      </trkpt>
      <trkpt lat="42.28764" lon="3.277348">
        <ele>3</ele>
        <time>1970-01-01T02:29:04.000Z</time>
      </trkpt>
      <trkpt lat="42.287656" lon="3.277343">
        <ele>3</ele>
        <time>1970-01-01T02:29:05.000Z</time>
      </trkpt>
      <trkpt lat="42.287686" lon="3.277325">
        <ele>3</ele>
        <time>1970-01-01T02:29:06.000Z</time>
      </trkpt>
      <trkpt lat="42.287703" lon="3.277314">
        <ele>3</ele>
        <time>1970-01-01T02:29:08.000Z</time>
      </trkpt>
      <trkpt lat="42.287721" lon="3.277302">
        <ele>3</ele>
        <time>1970-01-01T02:29:10.000Z</time>
      </trkpt>
      <trkpt lat="42.287739" lon="3.277291">
        <ele>3</ele>
        <time>1970-01-01T02:29:11.000Z</time>
      </trkpt>
      <trkpt lat="42.287756" lon="3.27728">
        <ele>3</ele>
        <time>1970-01-01T02:29:12.000Z</time>
      </trkpt>
      <trkpt lat="42.287774" lon="3.277269">
        <ele>3</ele>
        <time>1970-01-01T02:29:13.000Z</time>
      </trkpt>
      <trkpt lat="42.287792" lon="3.277257">
        <ele>3</ele>
        <time>1970-01-01T02:29:14.000Z</time>
      </trkpt>
      <trkpt lat="42.287809" lon="3.277246">
        <ele>3</ele>
        <time>1970-01-01T02:29:15.000Z</time>
      </trkpt>
      <trkpt lat="42.287827" lon="3.277235">
        <ele>3</ele>
        <time>1970-01-01T02:29:16.000Z</time>
      </trkpt>
      <trkpt lat="42.28784" lon="3.277225">
        <ele>3</ele>
        <time>1970-01-01T02:29:17.000Z</time>
      </trkpt>
      <trkpt lat="42.287864" lon="3.277221">
        <ele>3</ele>
        <time>1970-01-01T02:29:19.000Z</time>
      </trkpt>
      <trkpt lat="42.287888" lon="3.277217">
        <ele>3</ele>
        <time>1970-01-01T02:29:21.000Z</time>
      </trkpt>
      <trkpt lat="42.287916" lon="3.277207">
        <ele>3</ele>
        <time>1970-01-01T02:29:23.000Z</time>
      </trkpt>
      <trkpt lat="42.28794" lon="3.277193">
        <ele>3</ele>
        <time>1970-01-01T02:29:25.000Z</time>
      </trkpt>
      <trkpt lat="42.287976" lon="3.277177">
        <ele>3</ele>
        <time>1970-01-01T02:29:27.000Z</time>
      </trkpt>
      <trkpt lat="42.287993" lon="3.277171">
        <ele>3</ele>
        <time>1970-01-01T02:29:29.000Z</time>
      </trkpt>
      <trkpt lat="42.288009" lon="3.277166">
        <ele>3</ele>
        <time>1970-01-01T02:29:31.000Z</time>
      </trkpt>
      <trkpt lat="42.288025" lon="3.27716">
        <ele>3</ele>
        <time>1970-01-01T02:29:33.000Z</time>
      </trkpt>
      <trkpt lat="42.288042" lon="3.277154">
        <ele>3</ele>
        <time>1970-01-01T02:29:35.000Z</time>
      </trkpt>
      <trkpt lat="42.288058" lon="3.277148">
        <ele>3</ele>
        <time>1970-01-01T02:29:36.000Z</time>
      </trkpt>
      <trkpt lat="42.288088" lon="3.277143">
        <ele>3</ele>
        <time>1970-01-01T02:29:37.000Z</time>
      </trkpt>
      <trkpt lat="42.288103" lon="3.277143">
        <ele>3</ele>
        <time>1970-01-01T02:29:39.000Z</time>
      </trkpt>
      <trkpt lat="42.288119" lon="3.277143">
        <ele>3</ele>
        <time>1970-01-01T02:29:42.000Z</time>
      </trkpt>
      <trkpt lat="42.288134" lon="3.277143">
        <ele>3</ele>
        <time>1970-01-01T02:29:44.000Z</time>
      </trkpt>
      <trkpt lat="42.28815" lon="3.277143">
        <ele>3</ele>
        <time>1970-01-01T02:29:45.000Z</time>
      </trkpt>
      <trkpt lat="42.28818" lon="3.277162">
        <ele>3</ele>
        <time>1970-01-01T02:29:46.000Z</time>
      </trkpt>
      <trkpt lat="42.288197" lon="3.277178">
        <ele>3</ele>
        <time>1970-01-01T02:29:48.000Z</time>
      </trkpt>
      <trkpt lat="42.288215" lon="3.277194">
        <ele>3</ele>
        <time>1970-01-01T02:29:49.000Z</time>
      </trkpt>
      <trkpt lat="42.288232" lon="3.27721">
        <ele>3</ele>
        <time>1970-01-01T02:29:50.000Z</time>
      </trkpt>
      <trkpt lat="42.28825" lon="3.277227">
        <ele>3</ele>
        <time>1970-01-01T02:29:51.000Z</time>
      </trkpt>
      <trkpt lat="42.288267" lon="3.277243">
        <ele>3</ele>
        <time>1970-01-01T02:29:52.000Z</time>
      </trkpt>
      <trkpt lat="42.288285" lon="3.277259">
        <ele>3</ele>
        <time>1970-01-01T02:29:53.000Z</time>
      </trkpt>
      <trkpt lat="42.288302" lon="3.277275">
        <ele>3</ele>
        <time>1970-01-01T02:29:54.000Z</time>
      </trkpt>
      <trkpt lat="42.28832" lon="3.277291">
        <ele>3</ele>
        <time>1970-01-01T02:29:55.000Z</time>
      </trkpt>
      <trkpt lat="42.28836" lon="3.277341">
        <ele>3</ele>
        <time>1970-01-01T02:29:56.000Z</time>
      </trkpt>
      <trkpt lat="42.288378" lon="3.277368">
        <ele>3</ele>
        <time>1970-01-01T02:29:57.000Z</time>
      </trkpt>
      <trkpt lat="42.288396" lon="3.277395">
        <ele>3</ele>
        <time>1970-01-01T02:29:58.000Z</time>
      </trkpt>
      <trkpt lat="42.288414" lon="3.277422">
        <ele>3</ele>
        <time>1970-01-01T02:29:59.000Z</time>
      </trkpt>
      <trkpt lat="42.288433" lon="3.277449">
        <ele>3</ele>
        <time>1970-01-01T02:30:00.000Z</time>
      </trkpt>
      <trkpt lat="42.288451" lon="3.277477">
        <ele>3</ele>
        <time>1970-01-01T02:30:01.000Z</time>
      </trkpt>
      <trkpt lat="42.288469" lon="3.277504">
        <ele>3</ele>
        <time>1970-01-01T02:30:02.000Z</time>
      </trkpt>
      <trkpt lat="42.288487" lon="3.277531">
        <ele>3</ele>
        <time>1970-01-01T02:30:03.000Z</time>
      </trkpt>
      <trkpt lat="42.288505" lon="3.277558">
        <ele>3</ele>
        <time>1970-01-01T02:30:04.000Z</time>
      </trkpt>
      <trkpt lat="42.288523" lon="3.277585">
        <ele>3</ele>
        <time>1970-01-01T02:30:05.000Z</time>
      </trkpt>
      <trkpt lat="42.288544" lon="3.277622">
        <ele>3</ele>
        <time>1970-01-01T02:30:06.000Z</time>
      </trkpt>
      <trkpt lat="42.288554" lon="3.277642">
        <ele>3</ele>
        <time>1970-01-01T02:30:07.000Z</time>
      </trkpt>
      <trkpt lat="42.288565" lon="3.277662">
        <ele>3</ele>
        <time>1970-01-01T02:30:08.000Z</time>
      </trkpt>
      <trkpt lat="42.288575" lon="3.277682">
        <ele>3</ele>
        <time>1970-01-01T02:30:09.000Z</time>
      </trkpt>
      <trkpt lat="42.288586" lon="3.277701">
        <ele>3</ele>
        <time>1970-01-01T02:30:10.000Z</time>
      </trkpt>
      <trkpt lat="42.288596" lon="3.277721">
        <ele>3</ele>
        <time>1970-01-01T02:30:11.000Z</time>
      </trkpt>
      <trkpt lat="42.288607" lon="3.277741">
        <ele>3</ele>
        <time>1970-01-01T02:30:12.000Z</time>
      </trkpt>
      <trkpt lat="42.288617" lon="3.277761">
        <ele>3</ele>
        <time>1970-01-01T02:30:13.000Z</time>
      </trkpt>
      <trkpt lat="42.288628" lon="3.277781">
        <ele>3</ele>
        <time>1970-01-01T02:30:14.000Z</time>
      </trkpt>
      <trkpt lat="42.288638" lon="3.277801">
        <ele>3</ele>
        <time>1970-01-01T02:30:15.000Z</time>
      </trkpt>
      <trkpt lat="42.288662" lon="3.27785">
        <ele>3</ele>
        <time>1970-01-01T02:30:16.000Z</time>
      </trkpt>
      <trkpt lat="42.288673" lon="3.277874">
        <ele>3</ele>
        <time>1970-01-01T02:30:17.000Z</time>
      </trkpt>
      <trkpt lat="42.288684" lon="3.277897">
        <ele>3</ele>
        <time>1970-01-01T02:30:18.000Z</time>
      </trkpt>
      <trkpt lat="42.288695" lon="3.277921">
        <ele>3</ele>
        <time>1970-01-01T02:30:19.000Z</time>
      </trkpt>
      <trkpt lat="42.288707" lon="3.277945">
        <ele>3</ele>
        <time>1970-01-01T02:30:20.000Z</time>
      </trkpt>
      <trkpt lat="42.288718" lon="3.277969">
        <ele>3</ele>
        <time>1970-01-01T02:30:21.000Z</time>
      </trkpt>
      <trkpt lat="42.288729" lon="3.277993">
        <ele>3</ele>
        <time>1970-01-01T02:30:22.000Z</time>
      </trkpt>
      <trkpt lat="42.28874" lon="3.278016">
        <ele>3</ele>
        <time>1970-01-01T02:30:23.000Z</time>
      </trkpt>
      <trkpt lat="42.288751" lon="3.27804">
        <ele>3</ele>
        <time>1970-01-01T02:30:24.000Z</time>
      </trkpt>
      <trkpt lat="42.288762" lon="3.278064">
        <ele>4</ele>
        <time>1970-01-01T02:30:25.000Z</time>
      </trkpt>
      <trkpt lat="42.288782" lon="3.278128">
        <ele>4</ele>
        <time>1970-01-01T02:30:26.000Z</time>
      </trkpt>
      <trkpt lat="42.288792" lon="3.278161">
        <ele>4</ele>
        <time>1970-01-01T02:30:27.000Z</time>
      </trkpt>
      <trkpt lat="42.288801" lon="3.278193">
        <ele>4</ele>
        <time>1970-01-01T02:30:28.000Z</time>
      </trkpt>
      <trkpt lat="42.288811" lon="3.278226">
        <ele>4</ele>
        <time>1970-01-01T02:30:29.000Z</time>
      </trkpt>
      <trkpt lat="42.28882" lon="3.278259">
        <ele>4</ele>
        <time>1970-01-01T02:30:30.000Z</time>
      </trkpt>
      <trkpt lat="42.288829" lon="3.278292">
        <ele>4</ele>
        <time>1970-01-01T02:30:31.000Z</time>
      </trkpt>
      <trkpt lat="42.288839" lon="3.278325">
        <ele>4</ele>
        <time>1970-01-01T02:30:32.000Z</time>
      </trkpt>
      <trkpt lat="42.288848" lon="3.278357">
        <ele>4</ele>
        <time>1970-01-01T02:30:33.000Z</time>
      </trkpt>
      <trkpt lat="42.288858" lon="3.27839">
        <ele>4</ele>
        <time>1970-01-01T02:30:34.000Z</time>
      </trkpt>
      <trkpt lat="42.288867" lon="3.278423">
        <ele>3</ele>
        <time>1970-01-01T02:30:35.000Z</time>
      </trkpt>
      <trkpt lat="42.288888" lon="3.2785">
        <ele>3</ele>
        <time>1970-01-01T02:30:36.000Z</time>
      </trkpt>
      <trkpt lat="42.288896" lon="3.278536">
        <ele>3</ele>
        <time>1970-01-01T02:30:37.000Z</time>
      </trkpt>
      <trkpt lat="42.288905" lon="3.278571">
        <ele>3</ele>
        <time>1970-01-01T02:30:38.000Z</time>
      </trkpt>
      <trkpt lat="42.288913" lon="3.278606">
        <ele>3</ele>
        <time>1970-01-01T02:30:39.000Z</time>
      </trkpt>
      <trkpt lat="42.288922" lon="3.278641">
        <ele>3</ele>
        <time>1970-01-01T02:30:40.000Z</time>
      </trkpt>
      <trkpt lat="42.288931" lon="3.278677">
        <ele>3</ele>
        <time>1970-01-01T02:30:41.000Z</time>
      </trkpt>
      <trkpt lat="42.288939" lon="3.278712">
        <ele>3</ele>
        <time>1970-01-01T02:30:42.000Z</time>
      </trkpt>
      <trkpt lat="42.288948" lon="3.278747">
        <ele>3</ele>
        <time>1970-01-01T02:30:43.000Z</time>
      </trkpt>
      <trkpt lat="42.288956" lon="3.278783">
        <ele>3</ele>
        <time>1970-01-01T02:30:44.000Z</time>
      </trkpt>
      <trkpt lat="42.288965" lon="3.278818">
        <ele>2</ele>
        <time>1970-01-01T02:30:45.000Z</time>
      </trkpt>
      <trkpt lat="42.288977" lon="3.278891">
        <ele>2</ele>
        <time>1970-01-01T02:30:46.000Z</time>
      </trkpt>
      <trkpt lat="42.288981" lon="3.278927">
        <ele>2</ele>
        <time>1970-01-01T02:30:47.000Z</time>
      </trkpt>
      <trkpt lat="42.288986" lon="3.278962">
        <ele>2</ele>
        <time>1970-01-01T02:30:48.000Z</time>
      </trkpt>
      <trkpt lat="42.28899" lon="3.278998">
        <ele>2</ele>
        <time>1970-01-01T02:30:49.000Z</time>
      </trkpt>
      <trkpt lat="42.288994" lon="3.279033">
        <ele>2</ele>
        <time>1970-01-01T02:30:50.000Z</time>
      </trkpt>
      <trkpt lat="42.288998" lon="3.279068">
        <ele>2</ele>
        <time>1970-01-01T02:30:51.000Z</time>
      </trkpt>
      <trkpt lat="42.289002" lon="3.279104">
        <ele>2</ele>
        <time>1970-01-01T02:30:52.000Z</time>
      </trkpt>
      <trkpt lat="42.289007" lon="3.279139">
        <ele>2</ele>
        <time>1970-01-01T02:30:53.000Z</time>
      </trkpt>
      <trkpt lat="42.289011" lon="3.279175">
        <ele>2</ele>
        <time>1970-01-01T02:30:54.000Z</time>
      </trkpt>
      <trkpt lat="42.289015" lon="3.27921">
        <ele>3</ele>
        <time>1970-01-01T02:30:55.000Z</time>
      </trkpt>
      <trkpt lat="42.289017" lon="3.279284">
        <ele>3</ele>
        <time>1970-01-01T02:30:56.000Z</time>
      </trkpt>
      <trkpt lat="42.289016" lon="3.279316">
        <ele>3</ele>
        <time>1970-01-01T02:30:57.000Z</time>
      </trkpt>
      <trkpt lat="42.289014" lon="3.279349">
        <ele>3</ele>
        <time>1970-01-01T02:30:58.000Z</time>
      </trkpt>
      <trkpt lat="42.289013" lon="3.279381">
        <ele>3</ele>
        <time>1970-01-01T02:30:59.000Z</time>
      </trkpt>
      <trkpt lat="42.289011" lon="3.279413">
        <ele>3</ele>
        <time>1970-01-01T02:31:00.000Z</time>
      </trkpt>
      <trkpt lat="42.289009" lon="3.279445">
        <ele>3</ele>
        <time>1970-01-01T02:31:01.000Z</time>
      </trkpt>
      <trkpt lat="42.289008" lon="3.279477">
        <ele>3</ele>
        <time>1970-01-01T02:31:02.000Z</time>
      </trkpt>
      <trkpt lat="42.289006" lon="3.27951">
        <ele>3</ele>
        <time>1970-01-01T02:31:03.000Z</time>
      </trkpt>
      <trkpt lat="42.289005" lon="3.279542">
        <ele>3</ele>
        <time>1970-01-01T02:31:04.000Z</time>
      </trkpt>
      <trkpt lat="42.289003" lon="3.279574">
        <ele>3</ele>
        <time>1970-01-01T02:31:05.000Z</time>
      </trkpt>
      <trkpt lat="42.288976" lon="3.279615">
        <ele>3</ele>
        <time>1970-01-01T02:31:07.000Z</time>
      </trkpt>
      <trkpt lat="42.288971" lon="3.279622">
        <ele>3</ele>
        <time>1970-01-01T02:31:11.000Z</time>
      </trkpt>
      <trkpt lat="42.288965" lon="3.279628">
        <ele>3</ele>
        <time>1970-01-01T02:31:14.000Z</time>
      </trkpt>
      <trkpt lat="42.288959" lon="3.279635">
        <ele>2</ele>
        <time>1970-01-01T02:31:15.000Z</time>
      </trkpt>
      <trkpt lat="42.288954" lon="3.279653">
        <ele>2</ele>
        <time>1970-01-01T02:31:18.000Z</time>
      </trkpt>
      <trkpt lat="42.288948" lon="3.27967">
        <ele>2</ele>
        <time>1970-01-01T02:31:19.000Z</time>
      </trkpt>
      <trkpt lat="42.288943" lon="3.279688">
        <ele>1</ele>
        <time>1970-01-01T02:31:56.000Z</time>
      </trkpt>
      <trkpt lat="42.288937" lon="3.279705">
        <ele>1</ele>
        <time>1970-01-01T02:31:57.000Z</time>
      </trkpt>
      <trkpt lat="42.288932" lon="3.279723">
        <ele>1</ele>
        <time>1970-01-01T02:31:59.000Z</time>
      </trkpt>
      <trkpt lat="42.288926" lon="3.27974">
        <ele>1</ele>
        <time>1970-01-01T02:32:02.000Z</time>
      </trkpt>
      <trkpt lat="42.288921" lon="3.279758">
        <ele>1</ele>
        <time>1970-01-01T02:32:04.000Z</time>
      </trkpt>
      <trkpt lat="42.288915" lon="3.279775">
        <ele>1</ele>
        <time>1970-01-01T02:32:05.000Z</time>
      </trkpt>
      <trkpt lat="42.288891" lon="3.27983">
        <ele>1</ele>
        <time>1970-01-01T02:32:06.000Z</time>
      </trkpt>
      <trkpt lat="42.288881" lon="3.279852">
        <ele>1</ele>
        <time>1970-01-01T02:32:07.000Z</time>
      </trkpt>
      <trkpt lat="42.288872" lon="3.279875">
        <ele>1</ele>
        <time>1970-01-01T02:32:08.000Z</time>
      </trkpt>
      <trkpt lat="42.288862" lon="3.279897">
        <ele>1</ele>
        <time>1970-01-01T02:32:09.000Z</time>
      </trkpt>
      <trkpt lat="42.288852" lon="3.27992">
        <ele>1</ele>
        <time>1970-01-01T02:32:10.000Z</time>
      </trkpt>
      <trkpt lat="42.288842" lon="3.279942">
        <ele>1</ele>
        <time>1970-01-01T02:32:11.000Z</time>
      </trkpt>
      <trkpt lat="42.288832" lon="3.279965">
        <ele>1</ele>
        <time>1970-01-01T02:32:12.000Z</time>
      </trkpt>
      <trkpt lat="42.288822" lon="3.279987">
        <ele>1</ele>
        <time>1970-01-01T02:32:13.000Z</time>
      </trkpt>
      <trkpt lat="42.288813" lon="3.28001">
        <ele>1</ele>
        <time>1970-01-01T02:32:14.000Z</time>
      </trkpt>
      <trkpt lat="42.288803" lon="3.280032">
        <ele>1</ele>
        <time>1970-01-01T02:32:15.000Z</time>
      </trkpt>
      <trkpt lat="42.288793" lon="3.280055">
        <ele>1</ele>
        <time>1970-01-01T02:32:16.000Z</time>
      </trkpt>
      <trkpt lat="42.288773" lon="3.2801">
        <ele>1</ele>
        <time>1970-01-01T02:32:17.000Z</time>
      </trkpt>
      <trkpt lat="42.288763" lon="3.280125">
        <ele>1</ele>
        <time>1970-01-01T02:32:19.000Z</time>
      </trkpt>
      <trkpt lat="42.288754" lon="3.280151">
        <ele>1</ele>
        <time>1970-01-01T02:32:21.000Z</time>
      </trkpt>
      <trkpt lat="42.288744" lon="3.280176">
        <ele>1</ele>
        <time>1970-01-01T02:32:23.000Z</time>
      </trkpt>
      <trkpt lat="42.288734" lon="3.280201">
        <ele>1</ele>
        <time>1970-01-01T02:32:25.000Z</time>
      </trkpt>
      <trkpt lat="42.288724" lon="3.280226">
        <ele>0</ele>
        <time>1970-01-01T02:32:26.000Z</time>
      </trkpt>
      <trkpt lat="42.288715" lon="3.280278">
        <ele>0</ele>
        <time>1970-01-01T02:32:27.000Z</time>
      </trkpt>
      <trkpt lat="42.288715" lon="3.280306">
        <ele>0</ele>
        <time>1970-01-01T02:32:28.000Z</time>
      </trkpt>
      <trkpt lat="42.288714" lon="3.280334">
        <ele>0</ele>
        <time>1970-01-01T02:32:29.000Z</time>
      </trkpt>
      <trkpt lat="42.288713" lon="3.280362">
        <ele>0</ele>
        <time>1970-01-01T02:32:30.000Z</time>
      </trkpt>
      <trkpt lat="42.288712" lon="3.28039">
        <ele>0</ele>
        <time>1970-01-01T02:32:31.000Z</time>
      </trkpt>
      <trkpt lat="42.288712" lon="3.280418">
        <ele>0</ele>
        <time>1970-01-01T02:32:33.000Z</time>
      </trkpt>
      <trkpt lat="42.288711" lon="3.280446">
        <ele>0</ele>
        <time>1970-01-01T02:32:35.000Z</time>
      </trkpt>
      <trkpt lat="42.288728" lon="3.280521">
        <ele>0</ele>
        <time>1970-01-01T02:32:37.000Z</time>
      </trkpt>
      <trkpt lat="42.288736" lon="3.28055">
        <ele>0</ele>
        <time>1970-01-01T02:32:39.000Z</time>
      </trkpt>
      <trkpt lat="42.288745" lon="3.280578">
        <ele>0</ele>
        <time>1970-01-01T02:32:41.000Z</time>
      </trkpt>
      <trkpt lat="42.288753" lon="3.280607">
        <ele>0</ele>
        <time>1970-01-01T02:32:42.000Z</time>
      </trkpt>
      <trkpt lat="42.288761" lon="3.280636">
        <ele>0</ele>
        <time>1970-01-01T02:32:44.000Z</time>
      </trkpt>
      <trkpt lat="42.288769" lon="3.280665">
        <ele>1</ele>
        <time>1970-01-01T02:32:45.000Z</time>
      </trkpt>
      <trkpt lat="42.28877" lon="3.280723">
        <ele>1</ele>
        <time>1970-01-01T02:32:46.000Z</time>
      </trkpt>
      <trkpt lat="42.288769" lon="3.280754">
        <ele>1</ele>
        <time>1970-01-01T02:32:48.000Z</time>
      </trkpt>
      <trkpt lat="42.288769" lon="3.280784">
        <ele>1</ele>
        <time>1970-01-01T02:32:49.000Z</time>
      </trkpt>
      <trkpt lat="42.288768" lon="3.280814">
        <ele>1</ele>
        <time>1970-01-01T02:32:50.000Z</time>
      </trkpt>
      <trkpt lat="42.288768" lon="3.280844">
        <ele>1</ele>
        <time>1970-01-01T02:32:52.000Z</time>
      </trkpt>
      <trkpt lat="42.288767" lon="3.280875">
        <ele>1</ele>
        <time>1970-01-01T02:32:54.000Z</time>
      </trkpt>
      <trkpt lat="42.288767" lon="3.280905">
        <ele>1</ele>
        <time>1970-01-01T02:32:55.000Z</time>
      </trkpt>
      <trkpt lat="42.288743" lon="3.280934">
        <ele>1</ele>
        <time>1970-01-01T02:32:57.000Z</time>
      </trkpt>
      <trkpt lat="42.288728" lon="3.280947">
        <ele>1</ele>
        <time>1970-01-01T02:33:00.000Z</time>
      </trkpt>
      <trkpt lat="42.288728" lon="3.280947">
        <ele>1</ele>
        <time>1970-01-01T02:33:02.000Z</time>
      </trkpt>
      <trkpt lat="42.288703" lon="3.280948">
        <ele>1</ele>
        <time>1970-01-01T02:33:03.000Z</time>
      </trkpt>
      <trkpt lat="42.288677" lon="3.280947">
        <ele>2</ele>
        <time>1970-01-01T02:33:21.000Z</time>
      </trkpt>
      <trkpt lat="42.288652" lon="3.280946">
        <ele>2</ele>
        <time>1970-01-01T02:33:22.000Z</time>
      </trkpt>
      <trkpt lat="42.288626" lon="3.280945">
        <ele>2</ele>
        <time>1970-01-01T02:33:24.000Z</time>
      </trkpt>
      <trkpt lat="42.288601" lon="3.280944">
        <ele>2</ele>
        <time>1970-01-01T02:33:25.000Z</time>
      </trkpt>
      <trkpt lat="42.288575" lon="3.280943">
        <ele>2</ele>
        <time>1970-01-01T02:33:26.000Z</time>
      </trkpt>
      <trkpt lat="42.28855" lon="3.280942">
        <ele>2</ele>
        <time>1970-01-01T02:33:27.000Z</time>
      </trkpt>
      <trkpt lat="42.288524" lon="3.280941">
        <ele>2</ele>
        <time>1970-01-01T02:33:28.000Z</time>
      </trkpt>
      <trkpt lat="42.288499" lon="3.28094">
        <ele>2</ele>
        <time>1970-01-01T02:33:29.000Z</time>
      </trkpt>
      <trkpt lat="42.288451" lon="3.280928">
        <ele>2</ele>
        <time>1970-01-01T02:33:30.000Z</time>
      </trkpt>
      <trkpt lat="42.288431" lon="3.280926">
        <ele>2</ele>
        <time>1970-01-01T02:33:31.000Z</time>
      </trkpt>
      <trkpt lat="42.288411" lon="3.280923">
        <ele>2</ele>
        <time>1970-01-01T02:33:32.000Z</time>
      </trkpt>
      <trkpt lat="42.288391" lon="3.28092">
        <ele>2</ele>
        <time>1970-01-01T02:33:33.000Z</time>
      </trkpt>
      <trkpt lat="42.288371" lon="3.280918">
        <ele>2</ele>
        <time>1970-01-01T02:33:34.000Z</time>
      </trkpt>
      <trkpt lat="42.28835" lon="3.280915">
        <ele>2</ele>
        <time>1970-01-01T02:33:35.000Z</time>
      </trkpt>
      <trkpt lat="42.28833" lon="3.280913">
        <ele>2</ele>
        <time>1970-01-01T02:33:36.000Z</time>
      </trkpt>
      <trkpt lat="42.28831" lon="3.28091">
        <ele>2</ele>
        <time>1970-01-01T02:33:37.000Z</time>
      </trkpt>
      <trkpt lat="42.28829" lon="3.280907">
        <ele>2</ele>
        <time>1970-01-01T02:33:38.000Z</time>
      </trkpt>
      <trkpt lat="42.28827" lon="3.280905">
        <ele>2</ele>
        <time>1970-01-01T02:33:39.000Z</time>
      </trkpt>
      <trkpt lat="42.28825" lon="3.280902">
        <ele>3</ele>
        <time>1970-01-01T02:33:40.000Z</time>
      </trkpt>
      <trkpt lat="42.288196" lon="3.280924">
        <ele>3</ele>
        <time>1970-01-01T02:33:42.000Z</time>
      </trkpt>
      <trkpt lat="42.288179" lon="3.280939">
        <ele>3</ele>
        <time>1970-01-01T02:33:43.000Z</time>
      </trkpt>
      <trkpt lat="42.288162" lon="3.280953">
        <ele>3</ele>
        <time>1970-01-01T02:33:44.000Z</time>
      </trkpt>
      <trkpt lat="42.288146" lon="3.280968">
        <ele>3</ele>
        <time>1970-01-01T02:33:45.000Z</time>
      </trkpt>
      <trkpt lat="42.288129" lon="3.280982">
        <ele>3</ele>
        <time>1970-01-01T02:33:46.000Z</time>
      </trkpt>
      <trkpt lat="42.288112" lon="3.280996">
        <ele>3</ele>
        <time>1970-01-01T02:33:47.000Z</time>
      </trkpt>
      <trkpt lat="42.288095" lon="3.281011">
        <ele>3</ele>
        <time>1970-01-01T02:33:48.000Z</time>
      </trkpt>
      <trkpt lat="42.288078" lon="3.281025">
        <ele>3</ele>
        <time>1970-01-01T02:33:49.000Z</time>
      </trkpt>
      <trkpt lat="42.288043" lon="3.281073">
        <ele>3</ele>
        <time>1970-01-01T02:33:50.000Z</time>
      </trkpt>
      <trkpt lat="42.28803" lon="3.281098">
        <ele>3</ele>
        <time>1970-01-01T02:33:51.000Z</time>
      </trkpt>
      <trkpt lat="42.288017" lon="3.281124">
        <ele>3</ele>
        <time>1970-01-01T02:33:52.000Z</time>
      </trkpt>
      <trkpt lat="42.288004" lon="3.28115">
        <ele>3</ele>
        <time>1970-01-01T02:33:53.000Z</time>
      </trkpt>
      <trkpt lat="42.287991" lon="3.281175">
        <ele>3</ele>
        <time>1970-01-01T02:33:54.000Z</time>
      </trkpt>
      <trkpt lat="42.287979" lon="3.281201">
        <ele>3</ele>
        <time>1970-01-01T02:33:55.000Z</time>
      </trkpt>
      <trkpt lat="42.287966" lon="3.281226">
        <ele>3</ele>
        <time>1970-01-01T02:33:56.000Z</time>
      </trkpt>
      <trkpt lat="42.287953" lon="3.281252">
        <ele>3</ele>
        <time>1970-01-01T02:33:57.000Z</time>
      </trkpt>
      <trkpt lat="42.28794" lon="3.281278">
        <ele>3</ele>
        <time>1970-01-01T02:33:58.000Z</time>
      </trkpt>
      <trkpt lat="42.287927" lon="3.281303">
        <ele>3</ele>
        <time>1970-01-01T02:33:59.000Z</time>
      </trkpt>
      <trkpt lat="42.287914" lon="3.281329">
        <ele>2</ele>
        <time>1970-01-01T02:34:00.000Z</time>
      </trkpt>
      <trkpt lat="42.287891" lon="3.281391">
        <ele>2</ele>
        <time>1970-01-01T02:34:01.000Z</time>
      </trkpt>
      <trkpt lat="42.287881" lon="3.281423">
        <ele>2</ele>
        <time>1970-01-01T02:34:02.000Z</time>
      </trkpt>
      <trkpt lat="42.287871" lon="3.281456">
        <ele>2</ele>
        <time>1970-01-01T02:34:03.000Z</time>
      </trkpt>
      <trkpt lat="42.287861" lon="3.281488">
        <ele>2</ele>
        <time>1970-01-01T02:34:04.000Z</time>
      </trkpt>
      <trkpt lat="42.287851" lon="3.28152">
        <ele>2</ele>
        <time>1970-01-01T02:34:05.000Z</time>
      </trkpt>
      <trkpt lat="42.287841" lon="3.281552">
        <ele>2</ele>
        <time>1970-01-01T02:34:06.000Z</time>
      </trkpt>
      <trkpt lat="42.287831" lon="3.281585">
        <ele>2</ele>
        <time>1970-01-01T02:34:07.000Z</time>
      </trkpt>
      <trkpt lat="42.287821" lon="3.281617">
        <ele>2</ele>
        <time>1970-01-01T02:34:08.000Z</time>
      </trkpt>
      <trkpt lat="42.287811" lon="3.281649">
        <ele>2</ele>
        <time>1970-01-01T02:34:09.000Z</time>
      </trkpt>
      <trkpt lat="42.287783" lon="3.281705">
        <ele>2</ele>
        <time>1970-01-01T02:34:10.000Z</time>
      </trkpt>
      <trkpt lat="42.287765" lon="3.281724">
        <ele>2</ele>
        <time>1970-01-01T02:34:11.000Z</time>
      </trkpt>
      <trkpt lat="42.287748" lon="3.281743">
        <ele>2</ele>
        <time>1970-01-01T02:34:12.000Z</time>
      </trkpt>
      <trkpt lat="42.28773" lon="3.281762">
        <ele>2</ele>
        <time>1970-01-01T02:34:13.000Z</time>
      </trkpt>
      <trkpt lat="42.287713" lon="3.281781">
        <ele>2</ele>
        <time>1970-01-01T02:34:14.000Z</time>
      </trkpt>
      <trkpt lat="42.287695" lon="3.281799">
        <ele>2</ele>
        <time>1970-01-01T02:34:15.000Z</time>
      </trkpt>
      <trkpt lat="42.287678" lon="3.281818">
        <ele>2</ele>
        <time>1970-01-01T02:34:16.000Z</time>
      </trkpt>
      <trkpt lat="42.28766" lon="3.281837">
        <ele>2</ele>
        <time>1970-01-01T02:34:17.000Z</time>
      </trkpt>
      <trkpt lat="42.287643" lon="3.281856">
        <ele>2</ele>
        <time>1970-01-01T02:34:18.000Z</time>
      </trkpt>
      <trkpt lat="42.287625" lon="3.281875">
        <ele>2</ele>
        <time>1970-01-01T02:34:19.000Z</time>
      </trkpt>
      <trkpt lat="42.287586" lon="3.281861">
        <ele>2</ele>
        <time>1970-01-01T02:34:20.000Z</time>
      </trkpt>
      <trkpt lat="42.287572" lon="3.281844">
        <ele>2</ele>
        <time>1970-01-01T02:34:21.000Z</time>
      </trkpt>
      <trkpt lat="42.287558" lon="3.281826">
        <ele>2</ele>
        <time>1970-01-01T02:34:22.000Z</time>
      </trkpt>
      <trkpt lat="42.287544" lon="3.281809">
        <ele>2</ele>
        <time>1970-01-01T02:34:23.000Z</time>
      </trkpt>
      <trkpt lat="42.28753" lon="3.281791">
        <ele>2</ele>
        <time>1970-01-01T02:34:24.000Z</time>
      </trkpt>
      <trkpt lat="42.287515" lon="3.281773">
        <ele>2</ele>
        <time>1970-01-01T02:34:25.000Z</time>
      </trkpt>
      <trkpt lat="42.287501" lon="3.281756">
        <ele>2</ele>
        <time>1970-01-01T02:34:26.000Z</time>
      </trkpt>
      <trkpt lat="42.287487" lon="3.281738">
        <ele>2</ele>
        <time>1970-01-01T02:34:27.000Z</time>
      </trkpt>
      <trkpt lat="42.287473" lon="3.281721">
        <ele>2</ele>
        <time>1970-01-01T02:34:28.000Z</time>
      </trkpt>
      <trkpt lat="42.287459" lon="3.281703">
        <ele>3</ele>
        <time>1970-01-01T02:34:29.000Z</time>
      </trkpt>
      <trkpt lat="42.287445" lon="3.281684">
        <ele>3</ele>
        <time>1970-01-01T02:34:30.000Z</time>
      </trkpt>
      <trkpt lat="42.287428" lon="3.281667">
        <ele>3</ele>
        <time>1970-01-01T02:34:31.000Z</time>
      </trkpt>
      <trkpt lat="42.287412" lon="3.281654">
        <ele>3</ele>
        <time>1970-01-01T02:34:32.000Z</time>
      </trkpt>
      <trkpt lat="42.287396" lon="3.281641">
        <ele>3</ele>
        <time>1970-01-01T02:34:33.000Z</time>
      </trkpt>
      <trkpt lat="42.287363" lon="3.281632">
        <ele>3</ele>
        <time>1970-01-01T02:34:35.000Z</time>
      </trkpt>
      <trkpt lat="42.287334" lon="3.281639">
        <ele>3</ele>
        <time>1970-01-01T02:34:37.000Z</time>
      </trkpt>
      <trkpt lat="42.287304" lon="3.281644">
        <ele>3</ele>
        <time>1970-01-01T02:34:39.000Z</time>
      </trkpt>
      <trkpt lat="42.287254" lon="3.281663">
        <ele>3</ele>
        <time>1970-01-01T02:34:41.000Z</time>
      </trkpt>
      <trkpt lat="42.287233" lon="3.281674">
        <ele>3</ele>
        <time>1970-01-01T02:34:43.000Z</time>
      </trkpt>
      <trkpt lat="42.287212" lon="3.281685">
        <ele>3</ele>
        <time>1970-01-01T02:34:45.000Z</time>
      </trkpt>
      <trkpt lat="42.287191" lon="3.281696">
        <ele>3</ele>
        <time>1970-01-01T02:34:47.000Z</time>
      </trkpt>
      <trkpt lat="42.28717" lon="3.281707">
        <ele>3</ele>
        <time>1970-01-01T02:34:48.000Z</time>
      </trkpt>
      <trkpt lat="42.287149" lon="3.281718">
        <ele>5</ele>
        <time>1970-01-01T02:34:49.000Z</time>
      </trkpt>
      <trkpt lat="42.287132" lon="3.281727">
        <ele>5</ele>
        <time>1970-01-01T02:34:50.000Z</time>
      </trkpt>
      <trkpt lat="42.287114" lon="3.281737">
        <ele>5</ele>
        <time>1970-01-01T02:34:51.000Z</time>
      </trkpt>
      <trkpt lat="42.287097" lon="3.281747">
        <ele>5</ele>
        <time>1970-01-01T02:34:52.000Z</time>
      </trkpt>
      <trkpt lat="42.287081" lon="3.281757">
        <ele>5</ele>
        <time>1970-01-01T02:34:53.000Z</time>
      </trkpt>
      <trkpt lat="42.287048" lon="3.281776">
        <ele>5</ele>
        <time>1970-01-01T02:34:55.000Z</time>
      </trkpt>
      <trkpt lat="42.287023" lon="3.281795">
        <ele>5</ele>
        <time>1970-01-01T02:34:57.000Z</time>
      </trkpt>
      <trkpt lat="42.286996" lon="3.281814">
        <ele>6</ele>
        <time>1970-01-01T02:34:59.000Z</time>
      </trkpt>
      <trkpt lat="42.286972" lon="3.281821">
        <ele>6</ele>
        <time>1970-01-01T02:35:01.000Z</time>
      </trkpt>
      <trkpt lat="42.286943" lon="3.281833">
        <ele>6</ele>
        <time>1970-01-01T02:35:05.000Z</time>
      </trkpt>
      <trkpt lat="42.286921" lon="3.28184">
        <ele>6</ele>
        <time>1970-01-01T02:35:07.000Z</time>
      </trkpt>
      <trkpt lat="42.286921" lon="3.28184">
        <ele>6</ele>
        <time>1970-01-01T02:35:09.000Z</time>
      </trkpt>
      <trkpt lat="42.286887" lon="3.281869">
        <ele>6</ele>
        <time>1970-01-01T02:35:11.000Z</time>
      </trkpt>
      <trkpt lat="42.286869" lon="3.28189">
        <ele>6</ele>
        <time>1970-01-01T02:35:14.000Z</time>
      </trkpt>
      <trkpt lat="42.286852" lon="3.281912">
        <ele>7</ele>
        <time>1970-01-01T02:35:28.000Z</time>
      </trkpt>
      <trkpt lat="42.286834" lon="3.281934">
        <ele>7</ele>
        <time>1970-01-01T02:35:30.000Z</time>
      </trkpt>
      <trkpt lat="42.286817" lon="3.281956">
        <ele>7</ele>
        <time>1970-01-01T02:35:32.000Z</time>
      </trkpt>
      <trkpt lat="42.286799" lon="3.281977">
        <ele>7</ele>
        <time>1970-01-01T02:35:33.000Z</time>
      </trkpt>
      <trkpt lat="42.286782" lon="3.281999">
        <ele>7</ele>
        <time>1970-01-01T02:35:34.000Z</time>
      </trkpt>
      <trkpt lat="42.286764" lon="3.282021">
        <ele>7</ele>
        <time>1970-01-01T02:35:35.000Z</time>
      </trkpt>
      <trkpt lat="42.286747" lon="3.282042">
        <ele>7</ele>
        <time>1970-01-01T02:35:36.000Z</time>
      </trkpt>
      <trkpt lat="42.286729" lon="3.282064">
        <ele>7</ele>
        <time>1970-01-01T02:35:37.000Z</time>
      </trkpt>
      <trkpt lat="42.286708" lon="3.282112">
        <ele>7</ele>
        <time>1970-01-01T02:35:38.000Z</time>
      </trkpt>
      <trkpt lat="42.286699" lon="3.282136">
        <ele>7</ele>
        <time>1970-01-01T02:35:39.000Z</time>
      </trkpt>
      <trkpt lat="42.28669" lon="3.282159">
        <ele>7</ele>
        <time>1970-01-01T02:35:40.000Z</time>
      </trkpt>
      <trkpt lat="42.286681" lon="3.282183">
        <ele>7</ele>
        <time>1970-01-01T02:35:41.000Z</time>
      </trkpt>
      <trkpt lat="42.286672" lon="3.282206">
        <ele>7</ele>
        <time>1970-01-01T02:35:42.000Z</time>
      </trkpt>
      <trkpt lat="42.286662" lon="3.28223">
        <ele>7</ele>
        <time>1970-01-01T02:35:43.000Z</time>
      </trkpt>
      <trkpt lat="42.286653" lon="3.282253">
        <ele>7</ele>
        <time>1970-01-01T02:35:44.000Z</time>
      </trkpt>
      <trkpt lat="42.286644" lon="3.282277">
        <ele>7</ele>
        <time>1970-01-01T02:35:45.000Z</time>
      </trkpt>
      <trkpt lat="42.286635" lon="3.2823">
        <ele>7</ele>
        <time>1970-01-01T02:35:46.000Z</time>
      </trkpt>
      <trkpt lat="42.286626" lon="3.282324">
        <ele>7</ele>
        <time>1970-01-01T02:35:47.000Z</time>
      </trkpt>
      <trkpt lat="42.286617" lon="3.282347">
        <ele>7</ele>
        <time>1970-01-01T02:35:48.000Z</time>
      </trkpt>
      <trkpt lat="42.286596" lon="3.282395">
        <ele>7</ele>
        <time>1970-01-01T02:35:49.000Z</time>
      </trkpt>
      <trkpt lat="42.286584" lon="3.282419">
        <ele>7</ele>
        <time>1970-01-01T02:35:50.000Z</time>
      </trkpt>
      <trkpt lat="42.286572" lon="3.282442">
        <ele>7</ele>
        <time>1970-01-01T02:35:51.000Z</time>
      </trkpt>
      <trkpt lat="42.28656" lon="3.282466">
        <ele>7</ele>
        <time>1970-01-01T02:35:52.000Z</time>
      </trkpt>
      <trkpt lat="42.286547" lon="3.282489">
        <ele>7</ele>
        <time>1970-01-01T02:35:53.000Z</time>
      </trkpt>
      <trkpt lat="42.286535" lon="3.282513">
        <ele>7</ele>
        <time>1970-01-01T02:35:54.000Z</time>
      </trkpt>
      <trkpt lat="42.286523" lon="3.282536">
        <ele>7</ele>
        <time>1970-01-01T02:35:55.000Z</time>
      </trkpt>
      <trkpt lat="42.286511" lon="3.28256">
        <ele>7</ele>
        <time>1970-01-01T02:35:56.000Z</time>
      </trkpt>
      <trkpt lat="42.286499" lon="3.282583">
        <ele>9</ele>
        <time>1970-01-01T02:35:57.000Z</time>
      </trkpt>
      <trkpt lat="42.286467" lon="3.282629">
        <ele>9</ele>
        <time>1970-01-01T02:35:58.000Z</time>
      </trkpt>
      <trkpt lat="42.28645" lon="3.282654">
        <ele>9</ele>
        <time>1970-01-01T02:35:59.000Z</time>
      </trkpt>
      <trkpt lat="42.286434" lon="3.282678">
        <ele>9</ele>
        <time>1970-01-01T02:36:00.000Z</time>
      </trkpt>
      <trkpt lat="42.286418" lon="3.282703">
        <ele>9</ele>
        <time>1970-01-01T02:36:01.000Z</time>
      </trkpt>
      <trkpt lat="42.286401" lon="3.282727">
        <ele>9</ele>
        <time>1970-01-01T02:36:02.000Z</time>
      </trkpt>
      <trkpt lat="42.286385" lon="3.282752">
        <ele>9</ele>
        <time>1970-01-01T02:36:03.000Z</time>
      </trkpt>
      <trkpt lat="42.286368" lon="3.282776">
        <ele>9</ele>
        <time>1970-01-01T02:36:04.000Z</time>
      </trkpt>
      <trkpt lat="42.286352" lon="3.282801">
        <ele>9</ele>
        <time>1970-01-01T02:36:05.000Z</time>
      </trkpt>
      <trkpt lat="42.286336" lon="3.282825">
        <ele>9</ele>
        <time>1970-01-01T02:36:06.000Z</time>
      </trkpt>
      <trkpt lat="42.286319" lon="3.28285">
        <ele>9</ele>
        <time>1970-01-01T02:36:07.000Z</time>
      </trkpt>
      <trkpt lat="42.286303" lon="3.282874">
        <ele>9</ele>
        <time>1970-01-01T02:36:08.000Z</time>
      </trkpt>
      <trkpt lat="42.286264" lon="3.282927">
        <ele>9</ele>
        <time>1970-01-01T02:36:09.000Z</time>
      </trkpt>
      <trkpt lat="42.286247" lon="3.282952">
        <ele>9</ele>
        <time>1970-01-01T02:36:10.000Z</time>
      </trkpt>
      <trkpt lat="42.286229" lon="3.282978">
        <ele>9</ele>
        <time>1970-01-01T02:36:11.000Z</time>
      </trkpt>
      <trkpt lat="42.286211" lon="3.283003">
        <ele>9</ele>
        <time>1970-01-01T02:36:12.000Z</time>
      </trkpt>
      <trkpt lat="42.286194" lon="3.283029">
        <ele>9</ele>
        <time>1970-01-01T02:36:13.000Z</time>
      </trkpt>
      <trkpt lat="42.286176" lon="3.283054">
        <ele>9</ele>
        <time>1970-01-01T02:36:14.000Z</time>
      </trkpt>
      <trkpt lat="42.286158" lon="3.28308">
        <ele>9</ele>
        <time>1970-01-01T02:36:15.000Z</time>
      </trkpt>
      <trkpt lat="42.286141" lon="3.283105">
        <ele>9</ele>
        <time>1970-01-01T02:36:16.000Z</time>
      </trkpt>
      <trkpt lat="42.286123" lon="3.283131">
        <ele>9</ele>
        <time>1970-01-01T02:36:17.000Z</time>
      </trkpt>
      <trkpt lat="42.286086" lon="3.283189">
        <ele>9</ele>
        <time>1970-01-01T02:36:18.000Z</time>
      </trkpt>
      <trkpt lat="42.286071" lon="3.28322">
        <ele>9</ele>
        <time>1970-01-01T02:36:19.000Z</time>
      </trkpt>
      <trkpt lat="42.286056" lon="3.28325">
        <ele>9</ele>
        <time>1970-01-01T02:36:20.000Z</time>
      </trkpt>
      <trkpt lat="42.286041" lon="3.28328">
        <ele>9</ele>
        <time>1970-01-01T02:36:21.000Z</time>
      </trkpt>
      <trkpt lat="42.286026" lon="3.283311">
        <ele>9</ele>
        <time>1970-01-01T02:36:22.000Z</time>
      </trkpt>
      <trkpt lat="42.286011" lon="3.283341">
        <ele>9</ele>
        <time>1970-01-01T02:36:23.000Z</time>
      </trkpt>
      <trkpt lat="42.285996" lon="3.283371">
        <ele>9</ele>
        <time>1970-01-01T02:36:24.000Z</time>
      </trkpt>
      <trkpt lat="42.285981" lon="3.283401">
        <ele>9</ele>
        <time>1970-01-01T02:36:25.000Z</time>
      </trkpt>
      <trkpt lat="42.285966" lon="3.283432">
        <ele>9</ele>
        <time>1970-01-01T02:36:26.000Z</time>
      </trkpt>
      <trkpt lat="42.285951" lon="3.283462">
        <ele>9</ele>
        <time>1970-01-01T02:36:27.000Z</time>
      </trkpt>
      <trkpt lat="42.28593" lon="3.283525">
        <ele>9</ele>
        <time>1970-01-01T02:36:28.000Z</time>
      </trkpt>
      <trkpt lat="42.285922" lon="3.283554">
        <ele>9</ele>
        <time>1970-01-01T02:36:29.000Z</time>
      </trkpt>
      <trkpt lat="42.285914" lon="3.283583">
        <ele>9</ele>
        <time>1970-01-01T02:36:30.000Z</time>
      </trkpt>
      <trkpt lat="42.285906" lon="3.283612">
        <ele>9</ele>
        <time>1970-01-01T02:36:31.000Z</time>
      </trkpt>
      <trkpt lat="42.285898" lon="3.283642">
        <ele>9</ele>
        <time>1970-01-01T02:36:32.000Z</time>
      </trkpt>
      <trkpt lat="42.285889" lon="3.283671">
        <ele>9</ele>
        <time>1970-01-01T02:36:33.000Z</time>
      </trkpt>
      <trkpt lat="42.285881" lon="3.2837">
        <ele>9</ele>
        <time>1970-01-01T02:36:34.000Z</time>
      </trkpt>
      <trkpt lat="42.285873" lon="3.283729">
        <ele>9</ele>
        <time>1970-01-01T02:36:35.000Z</time>
      </trkpt>
      <trkpt lat="42.285865" lon="3.283758">
        <ele>9</ele>
        <time>1970-01-01T02:36:36.000Z</time>
      </trkpt>
      <trkpt lat="42.285857" lon="3.283787">
        <ele>10</ele>
        <time>1970-01-01T02:36:37.000Z</time>
      </trkpt>
      <trkpt lat="42.285831" lon="3.283845">
        <ele>10</ele>
        <time>1970-01-01T02:36:38.000Z</time>
      </trkpt>
      <trkpt lat="42.285814" lon="3.283874">
        <ele>10</ele>
        <time>1970-01-01T02:36:39.000Z</time>
      </trkpt>
      <trkpt lat="42.285797" lon="3.283903">
        <ele>10</ele>
        <time>1970-01-01T02:36:40.000Z</time>
      </trkpt>
      <trkpt lat="42.28578" lon="3.283932">
        <ele>10</ele>
        <time>1970-01-01T02:36:41.000Z</time>
      </trkpt>
      <trkpt lat="42.285763" lon="3.283962">
        <ele>10</ele>
        <time>1970-01-01T02:36:42.000Z</time>
      </trkpt>
      <trkpt lat="42.285745" lon="3.283991">
        <ele>10</ele>
        <time>1970-01-01T02:36:43.000Z</time>
      </trkpt>
      <trkpt lat="42.285728" lon="3.28402">
        <ele>10</ele>
        <time>1970-01-01T02:36:44.000Z</time>
      </trkpt>
      <trkpt lat="42.285711" lon="3.284049">
        <ele>10</ele>
        <time>1970-01-01T02:36:45.000Z</time>
      </trkpt>
      <trkpt lat="42.285694" lon="3.284078">
        <ele>10</ele>
        <time>1970-01-01T02:36:46.000Z</time>
      </trkpt>
      <trkpt lat="42.285677" lon="3.284107">
        <ele>11</ele>
        <time>1970-01-01T02:36:47.000Z</time>
      </trkpt>
      <trkpt lat="42.28563" lon="3.284187">
        <ele>11</ele>
        <time>1970-01-01T02:36:48.000Z</time>
      </trkpt>
      <trkpt lat="42.285607" lon="3.284227">
        <ele>11</ele>
        <time>1970-01-01T02:36:49.000Z</time>
      </trkpt>
      <trkpt lat="42.285583" lon="3.284267">
        <ele>11</ele>
        <time>1970-01-01T02:36:50.000Z</time>
      </trkpt>
      <trkpt lat="42.28556" lon="3.284307">
        <ele>11</ele>
        <time>1970-01-01T02:36:51.000Z</time>
      </trkpt>
      <trkpt lat="42.285536" lon="3.284347">
        <ele>11</ele>
        <time>1970-01-01T02:36:52.000Z</time>
      </trkpt>
      <trkpt lat="42.285513" lon="3.284387">
        <ele>11</ele>
        <time>1970-01-01T02:36:53.000Z</time>
      </trkpt>
      <trkpt lat="42.285489" lon="3.284427">
        <ele>11</ele>
        <time>1970-01-01T02:36:54.000Z</time>
      </trkpt>
      <trkpt lat="42.285466" lon="3.284467">
        <ele>11</ele>
        <time>1970-01-01T02:36:55.000Z</time>
      </trkpt>
      <trkpt lat="42.285442" lon="3.284507">
        <ele>11</ele>
        <time>1970-01-01T02:36:56.000Z</time>
      </trkpt>
      <trkpt lat="42.285419" lon="3.284547">
        <ele>11</ele>
        <time>1970-01-01T02:36:57.000Z</time>
      </trkpt>
      <trkpt lat="42.285395" lon="3.284587">
        <ele>10</ele>
        <time>1970-01-01T02:36:58.000Z</time>
      </trkpt>
      <trkpt lat="42.285386" lon="3.284647">
        <ele>10</ele>
        <time>1970-01-01T02:36:59.000Z</time>
      </trkpt>
      <trkpt lat="42.285398" lon="3.28467">
        <ele>10</ele>
        <time>1970-01-01T02:37:00.000Z</time>
      </trkpt>
      <trkpt lat="42.285411" lon="3.284694">
        <ele>10</ele>
        <time>1970-01-01T02:37:01.000Z</time>
      </trkpt>
      <trkpt lat="42.285423" lon="3.284717">
        <ele>10</ele>
        <time>1970-01-01T02:37:02.000Z</time>
      </trkpt>
      <trkpt lat="42.285435" lon="3.284741">
        <ele>10</ele>
        <time>1970-01-01T02:37:03.000Z</time>
      </trkpt>
      <trkpt lat="42.285447" lon="3.284764">
        <ele>10</ele>
        <time>1970-01-01T02:37:04.000Z</time>
      </trkpt>
      <trkpt lat="42.28546" lon="3.284788">
        <ele>10</ele>
        <time>1970-01-01T02:37:05.000Z</time>
      </trkpt>
      <trkpt lat="42.285472" lon="3.284811">
        <ele>10</ele>
        <time>1970-01-01T02:37:06.000Z</time>
      </trkpt>
      <trkpt lat="42.285484" lon="3.284835">
        <ele>7</ele>
        <time>1970-01-01T02:37:07.000Z</time>
      </trkpt>
      <trkpt lat="42.285546" lon="3.284865">
        <ele>7</ele>
        <time>1970-01-01T02:37:08.000Z</time>
      </trkpt>
      <trkpt lat="42.285576" lon="3.284884">
        <ele>7</ele>
        <time>1970-01-01T02:37:09.000Z</time>
      </trkpt>
      <trkpt lat="42.285607" lon="3.284902">
        <ele>7</ele>
        <time>1970-01-01T02:37:10.000Z</time>
      </trkpt>
      <trkpt lat="42.285637" lon="3.284921">
        <ele>7</ele>
        <time>1970-01-01T02:37:11.000Z</time>
      </trkpt>
      <trkpt lat="42.285668" lon="3.28494">
        <ele>7</ele>
        <time>1970-01-01T02:37:12.000Z</time>
      </trkpt>
      <trkpt lat="42.285698" lon="3.284959">
        <ele>7</ele>
        <time>1970-01-01T02:37:13.000Z</time>
      </trkpt>
      <trkpt lat="42.285729" lon="3.284978">
        <ele>7</ele>
        <time>1970-01-01T02:37:14.000Z</time>
      </trkpt>
      <trkpt lat="42.285759" lon="3.284997">
        <ele>7</ele>
        <time>1970-01-01T02:37:15.000Z</time>
      </trkpt>
      <trkpt lat="42.28579" lon="3.285015">
        <ele>7</ele>
        <time>1970-01-01T02:37:16.000Z</time>
      </trkpt>
      <trkpt lat="42.28582" lon="3.285034">
        <ele>7</ele>
        <time>1970-01-01T02:37:17.000Z</time>
      </trkpt>
      <trkpt lat="42.285851" lon="3.285053">
        <ele>6</ele>
        <time>1970-01-01T02:37:18.000Z</time>
      </trkpt>
      <trkpt lat="42.285905" lon="3.28516">
        <ele>6</ele>
        <time>1970-01-01T02:37:19.000Z</time>
      </trkpt>
      <trkpt lat="42.285923" lon="3.285212">
        <ele>6</ele>
        <time>1970-01-01T02:37:20.000Z</time>
      </trkpt>
      <trkpt lat="42.285942" lon="3.285265">
        <ele>6</ele>
        <time>1970-01-01T02:37:21.000Z</time>
      </trkpt>
      <trkpt lat="42.28596" lon="3.285317">
        <ele>6</ele>
        <time>1970-01-01T02:37:22.000Z</time>
      </trkpt>
      <trkpt lat="42.285979" lon="3.285369">
        <ele>6</ele>
        <time>1970-01-01T02:37:23.000Z</time>
      </trkpt>
      <trkpt lat="42.285997" lon="3.285421">
        <ele>6</ele>
        <time>1970-01-01T02:37:24.000Z</time>
      </trkpt>
      <trkpt lat="42.286016" lon="3.285473">
        <ele>6</ele>
        <time>1970-01-01T02:37:25.000Z</time>
      </trkpt>
      <trkpt lat="42.286034" lon="3.285526">
        <ele>6</ele>
        <time>1970-01-01T02:37:26.000Z</time>
      </trkpt>
      <trkpt lat="42.286053" lon="3.285578">
        <ele>6</ele>
        <time>1970-01-01T02:37:27.000Z</time>
      </trkpt>
      <trkpt lat="42.286071" lon="3.28563">
        <ele>4</ele>
        <time>1970-01-01T02:37:28.000Z</time>
      </trkpt>
      <trkpt lat="42.286103" lon="3.285743">
        <ele>4</ele>
        <time>1970-01-01T02:37:29.000Z</time>
      </trkpt>
      <trkpt lat="42.286109" lon="3.28579">
        <ele>4</ele>
        <time>1970-01-01T02:37:30.000Z</time>
      </trkpt>
      <trkpt lat="42.286114" lon="3.285837">
        <ele>4</ele>
        <time>1970-01-01T02:37:31.000Z</time>
      </trkpt>
      <trkpt lat="42.286119" lon="3.285884">
        <ele>4</ele>
        <time>1970-01-01T02:37:32.000Z</time>
      </trkpt>
      <trkpt lat="42.286125" lon="3.285931">
        <ele>4</ele>
        <time>1970-01-01T02:37:33.000Z</time>
      </trkpt>
      <trkpt lat="42.28613" lon="3.285978">
        <ele>4</ele>
        <time>1970-01-01T02:37:34.000Z</time>
      </trkpt>
      <trkpt lat="42.286135" lon="3.286025">
        <ele>4</ele>
        <time>1970-01-01T02:37:35.000Z</time>
      </trkpt>
      <trkpt lat="42.286141" lon="3.286072">
        <ele>4</ele>
        <time>1970-01-01T02:37:36.000Z</time>
      </trkpt>
      <trkpt lat="42.286146" lon="3.286119">
        <ele>3</ele>
        <time>1970-01-01T02:37:37.000Z</time>
      </trkpt>
      <trkpt lat="42.286121" lon="3.286163">
        <ele>3</ele>
        <time>1970-01-01T02:37:38.000Z</time>
      </trkpt>
      <trkpt lat="42.286106" lon="3.286184">
        <ele>3</ele>
        <time>1970-01-01T02:37:39.000Z</time>
      </trkpt>
      <trkpt lat="42.28609" lon="3.286204">
        <ele>3</ele>
        <time>1970-01-01T02:37:40.000Z</time>
      </trkpt>
      <trkpt lat="42.286074" lon="3.286225">
        <ele>3</ele>
        <time>1970-01-01T02:37:41.000Z</time>
      </trkpt>
      <trkpt lat="42.286059" lon="3.286246">
        <ele>3</ele>
        <time>1970-01-01T02:37:42.000Z</time>
      </trkpt>
      <trkpt lat="42.286043" lon="3.286267">
        <ele>3</ele>
        <time>1970-01-01T02:37:43.000Z</time>
      </trkpt>
      <trkpt lat="42.286027" lon="3.286288">
        <ele>3</ele>
        <time>1970-01-01T02:37:44.000Z</time>
      </trkpt>
      <trkpt lat="42.286011" lon="3.286308">
        <ele>3</ele>
        <time>1970-01-01T02:37:45.000Z</time>
      </trkpt>
      <trkpt lat="42.285996" lon="3.286329">
        <ele>3</ele>
        <time>1970-01-01T02:37:46.000Z</time>
      </trkpt>
      <trkpt lat="42.28598" lon="3.28635">
        <ele>4</ele>
        <time>1970-01-01T02:37:47.000Z</time>
      </trkpt>
      <trkpt lat="42.285936" lon="3.286391">
        <ele>4</ele>
        <time>1970-01-01T02:37:48.000Z</time>
      </trkpt>
      <trkpt lat="42.285916" lon="3.286411">
        <ele>4</ele>
        <time>1970-01-01T02:37:49.000Z</time>
      </trkpt>
      <trkpt lat="42.285896" lon="3.286431">
        <ele>4</ele>
        <time>1970-01-01T02:37:50.000Z</time>
      </trkpt>
      <trkpt lat="42.285876" lon="3.286451">
        <ele>4</ele>
        <time>1970-01-01T02:37:51.000Z</time>
      </trkpt>
      <trkpt lat="42.285857" lon="3.286471">
        <ele>4</ele>
        <time>1970-01-01T02:37:52.000Z</time>
      </trkpt>
      <trkpt lat="42.285837" lon="3.286491">
        <ele>4</ele>
        <time>1970-01-01T02:37:53.000Z</time>
      </trkpt>
      <trkpt lat="42.285817" lon="3.286511">
        <ele>4</ele>
        <time>1970-01-01T02:37:54.000Z</time>
      </trkpt>
      <trkpt lat="42.285797" lon="3.286531">
        <ele>4</ele>
        <time>1970-01-01T02:37:55.000Z</time>
      </trkpt>
      <trkpt lat="42.285777" lon="3.286551">
        <ele>4</ele>
        <time>1970-01-01T02:37:56.000Z</time>
      </trkpt>
      <trkpt lat="42.285757" lon="3.286571">
        <ele>4</ele>
        <time>1970-01-01T02:37:57.000Z</time>
      </trkpt>
      <trkpt lat="42.285721" lon="3.286628">
        <ele>4</ele>
        <time>1970-01-01T02:37:58.000Z</time>
      </trkpt>
      <trkpt lat="42.285704" lon="3.286658">
        <ele>4</ele>
        <time>1970-01-01T02:37:59.000Z</time>
      </trkpt>
      <trkpt lat="42.285686" lon="3.286688">
        <ele>4</ele>
        <time>1970-01-01T02:38:00.000Z</time>
      </trkpt>
      <trkpt lat="42.285669" lon="3.286718">
        <ele>4</ele>
        <time>1970-01-01T02:38:01.000Z</time>
      </trkpt>
      <trkpt lat="42.285652" lon="3.286749">
        <ele>4</ele>
        <time>1970-01-01T02:38:02.000Z</time>
      </trkpt>
      <trkpt lat="42.285635" lon="3.286779">
        <ele>4</ele>
        <time>1970-01-01T02:38:03.000Z</time>
      </trkpt>
      <trkpt lat="42.285618" lon="3.286809">
        <ele>4</ele>
        <time>1970-01-01T02:38:04.000Z</time>
      </trkpt>
      <trkpt lat="42.2856" lon="3.286839">
        <ele>4</ele>
        <time>1970-01-01T02:38:05.000Z</time>
      </trkpt>
      <trkpt lat="42.285583" lon="3.286869">
        <ele>4</ele>
        <time>1970-01-01T02:38:06.000Z</time>
      </trkpt>
      <trkpt lat="42.285566" lon="3.286899">
        <ele>6</ele>
        <time>1970-01-01T02:38:07.000Z</time>
      </trkpt>
      <trkpt lat="42.28553" lon="3.286968">
        <ele>6</ele>
        <time>1970-01-01T02:38:08.000Z</time>
      </trkpt>
      <trkpt lat="42.285513" lon="3.286999">
        <ele>6</ele>
        <time>1970-01-01T02:38:09.000Z</time>
      </trkpt>
      <trkpt lat="42.285495" lon="3.28703">
        <ele>6</ele>
        <time>1970-01-01T02:38:10.000Z</time>
      </trkpt>
      <trkpt lat="42.285478" lon="3.287061">
        <ele>6</ele>
        <time>1970-01-01T02:38:11.000Z</time>
      </trkpt>
      <trkpt lat="42.28546" lon="3.287093">
        <ele>6</ele>
        <time>1970-01-01T02:38:12.000Z</time>
      </trkpt>
      <trkpt lat="42.285442" lon="3.287124">
        <ele>6</ele>
        <time>1970-01-01T02:38:13.000Z</time>
      </trkpt>
      <trkpt lat="42.285425" lon="3.287155">
        <ele>6</ele>
        <time>1970-01-01T02:38:14.000Z</time>
      </trkpt>
      <trkpt lat="42.285407" lon="3.287186">
        <ele>6</ele>
        <time>1970-01-01T02:38:15.000Z</time>
      </trkpt>
      <trkpt lat="42.28539" lon="3.287217">
        <ele>6</ele>
        <time>1970-01-01T02:38:16.000Z</time>
      </trkpt>
      <trkpt lat="42.285372" lon="3.287248">
        <ele>6</ele>
        <time>1970-01-01T02:38:17.000Z</time>
      </trkpt>
      <trkpt lat="42.285331" lon="3.287303">
        <ele>6</ele>
        <time>1970-01-01T02:38:18.000Z</time>
      </trkpt>
      <trkpt lat="42.285314" lon="3.287326">
        <ele>6</ele>
        <time>1970-01-01T02:38:19.000Z</time>
      </trkpt>
      <trkpt lat="42.285297" lon="3.28735">
        <ele>6</ele>
        <time>1970-01-01T02:38:20.000Z</time>
      </trkpt>
      <trkpt lat="42.28528" lon="3.287373">
        <ele>6</ele>
        <time>1970-01-01T02:38:21.000Z</time>
      </trkpt>
      <trkpt lat="42.285264" lon="3.287396">
        <ele>6</ele>
        <time>1970-01-01T02:38:22.000Z</time>
      </trkpt>
      <trkpt lat="42.285247" lon="3.287419">
        <ele>6</ele>
        <time>1970-01-01T02:38:23.000Z</time>
      </trkpt>
      <trkpt lat="42.28523" lon="3.287442">
        <ele>6</ele>
        <time>1970-01-01T02:38:24.000Z</time>
      </trkpt>
      <trkpt lat="42.285213" lon="3.287466">
        <ele>6</ele>
        <time>1970-01-01T02:38:25.000Z</time>
      </trkpt>
      <trkpt lat="42.285196" lon="3.287489">
        <ele>6</ele>
        <time>1970-01-01T02:38:26.000Z</time>
      </trkpt>
      <trkpt lat="42.285179" lon="3.287512">
        <ele>5</ele>
        <time>1970-01-01T02:38:27.000Z</time>
      </trkpt>
      <trkpt lat="42.28514" lon="3.287555">
        <ele>5</ele>
        <time>1970-01-01T02:38:28.000Z</time>
      </trkpt>
      <trkpt lat="42.285121" lon="3.287578">
        <ele>5</ele>
        <time>1970-01-01T02:38:29.000Z</time>
      </trkpt>
      <trkpt lat="42.285103" lon="3.287601">
        <ele>5</ele>
        <time>1970-01-01T02:38:30.000Z</time>
      </trkpt>
      <trkpt lat="42.285084" lon="3.287624">
        <ele>5</ele>
        <time>1970-01-01T02:38:31.000Z</time>
      </trkpt>
      <trkpt lat="42.285065" lon="3.287647">
        <ele>5</ele>
        <time>1970-01-01T02:38:32.000Z</time>
      </trkpt>
      <trkpt lat="42.285046" lon="3.28767">
        <ele>5</ele>
        <time>1970-01-01T02:38:33.000Z</time>
      </trkpt>
      <trkpt lat="42.285027" lon="3.287693">
        <ele>5</ele>
        <time>1970-01-01T02:38:34.000Z</time>
      </trkpt>
      <trkpt lat="42.285009" lon="3.287716">
        <ele>5</ele>
        <time>1970-01-01T02:38:35.000Z</time>
      </trkpt>
      <trkpt lat="42.28499" lon="3.287739">
        <ele>5</ele>
        <time>1970-01-01T02:38:36.000Z</time>
      </trkpt>
      <trkpt lat="42.284971" lon="3.287762">
        <ele>5</ele>
        <time>1970-01-01T02:38:37.000Z</time>
      </trkpt>
      <trkpt lat="42.284923" lon="3.287819">
        <ele>5</ele>
        <time>1970-01-01T02:38:38.000Z</time>
      </trkpt>
      <trkpt lat="42.284901" lon="3.287845">
        <ele>5</ele>
        <time>1970-01-01T02:38:39.000Z</time>
      </trkpt>
      <trkpt lat="42.284879" lon="3.28787">
        <ele>5</ele>
        <time>1970-01-01T02:38:40.000Z</time>
      </trkpt>
      <trkpt lat="42.284857" lon="3.287895">
        <ele>5</ele>
        <time>1970-01-01T02:38:41.000Z</time>
      </trkpt>
      <trkpt lat="42.284836" lon="3.287921">
        <ele>5</ele>
        <time>1970-01-01T02:38:42.000Z</time>
      </trkpt>
      <trkpt lat="42.284814" lon="3.287946">
        <ele>5</ele>
        <time>1970-01-01T02:38:43.000Z</time>
      </trkpt>
      <trkpt lat="42.284792" lon="3.287971">
        <ele>5</ele>
        <time>1970-01-01T02:38:44.000Z</time>
      </trkpt>
      <trkpt lat="42.28477" lon="3.287996">
        <ele>5</ele>
        <time>1970-01-01T02:38:45.000Z</time>
      </trkpt>
      <trkpt lat="42.284748" lon="3.288022">
        <ele>5</ele>
        <time>1970-01-01T02:38:46.000Z</time>
      </trkpt>
      <trkpt lat="42.284726" lon="3.288047">
        <ele>5</ele>
        <time>1970-01-01T02:38:47.000Z</time>
      </trkpt>
      <trkpt lat="42.284703" lon="3.288093">
        <ele>5</ele>
        <time>1970-01-01T02:38:48.000Z</time>
      </trkpt>
      <trkpt lat="42.284701" lon="3.288119">
        <ele>5</ele>
        <time>1970-01-01T02:38:49.000Z</time>
      </trkpt>
      <trkpt lat="42.284698" lon="3.288144">
        <ele>5</ele>
        <time>1970-01-01T02:38:50.000Z</time>
      </trkpt>
      <trkpt lat="42.284695" lon="3.28817">
        <ele>5</ele>
        <time>1970-01-01T02:38:51.000Z</time>
      </trkpt>
      <trkpt lat="42.284693" lon="3.288196">
        <ele>5</ele>
        <time>1970-01-01T02:38:52.000Z</time>
      </trkpt>
      <trkpt lat="42.28469" lon="3.288222">
        <ele>5</ele>
        <time>1970-01-01T02:38:53.000Z</time>
      </trkpt>
      <trkpt lat="42.284687" lon="3.288248">
        <ele>5</ele>
        <time>1970-01-01T02:38:54.000Z</time>
      </trkpt>
      <trkpt lat="42.284684" lon="3.288273">
        <ele>5</ele>
        <time>1970-01-01T02:38:55.000Z</time>
      </trkpt>
      <trkpt lat="42.284682" lon="3.288299">
        <ele>5</ele>
        <time>1970-01-01T02:38:57.000Z</time>
      </trkpt>
      <trkpt lat="42.284679" lon="3.288325">
        <ele>6</ele>
        <time>1970-01-01T02:38:58.000Z</time>
      </trkpt>
      <trkpt lat="42.284692" lon="3.288368">
        <ele>6</ele>
        <time>1970-01-01T02:38:59.000Z</time>
      </trkpt>
      <trkpt lat="42.284702" lon="3.288387">
        <ele>6</ele>
        <time>1970-01-01T02:39:00.000Z</time>
      </trkpt>
      <trkpt lat="42.284712" lon="3.288407">
        <ele>6</ele>
        <time>1970-01-01T02:39:01.000Z</time>
      </trkpt>
      <trkpt lat="42.284722" lon="3.288426">
        <ele>6</ele>
        <time>1970-01-01T02:39:02.000Z</time>
      </trkpt>
      <trkpt lat="42.284732" lon="3.288445">
        <ele>6</ele>
        <time>1970-01-01T02:39:03.000Z</time>
      </trkpt>
      <trkpt lat="42.284742" lon="3.288464">
        <ele>6</ele>
        <time>1970-01-01T02:39:04.000Z</time>
      </trkpt>
      <trkpt lat="42.284752" lon="3.288484">
        <ele>6</ele>
        <time>1970-01-01T02:39:05.000Z</time>
      </trkpt>
      <trkpt lat="42.284762" lon="3.288503">
        <ele>6</ele>
        <time>1970-01-01T02:39:06.000Z</time>
      </trkpt>
      <trkpt lat="42.284772" lon="3.288522">
        <ele>6</ele>
        <time>1970-01-01T02:39:07.000Z</time>
      </trkpt>
      <trkpt lat="42.284804" lon="3.288556">
        <ele>6</ele>
        <time>1970-01-01T02:39:08.000Z</time>
      </trkpt>
      <trkpt lat="42.284817" lon="3.288576">
        <ele>6</ele>
        <time>1970-01-01T02:39:09.000Z</time>
      </trkpt>
      <trkpt lat="42.28483" lon="3.288597">
        <ele>6</ele>
        <time>1970-01-01T02:39:10.000Z</time>
      </trkpt>
      <trkpt lat="42.284843" lon="3.288618">
        <ele>6</ele>
        <time>1970-01-01T02:39:11.000Z</time>
      </trkpt>
      <trkpt lat="42.284856" lon="3.288638">
        <ele>6</ele>
        <time>1970-01-01T02:39:12.000Z</time>
      </trkpt>
      <trkpt lat="42.284868" lon="3.288659">
        <ele>6</ele>
        <time>1970-01-01T02:39:13.000Z</time>
      </trkpt>
      <trkpt lat="42.284881" lon="3.288679">
        <ele>6</ele>
        <time>1970-01-01T02:39:14.000Z</time>
      </trkpt>
      <trkpt lat="42.284894" lon="3.2887">
        <ele>6</ele>
        <time>1970-01-01T02:39:15.000Z</time>
      </trkpt>
      <trkpt lat="42.284907" lon="3.288721">
        <ele>6</ele>
        <time>1970-01-01T02:39:16.000Z</time>
      </trkpt>
      <trkpt lat="42.28492" lon="3.288741">
        <ele>6</ele>
        <time>1970-01-01T02:39:17.000Z</time>
      </trkpt>
      <trkpt lat="42.284933" lon="3.288762">
        <ele>6</ele>
        <time>1970-01-01T02:39:18.000Z</time>
      </trkpt>
      <trkpt lat="42.284965" lon="3.288812">
        <ele>6</ele>
        <time>1970-01-01T02:39:19.000Z</time>
      </trkpt>
      <trkpt lat="42.284981" lon="3.288838">
        <ele>6</ele>
        <time>1970-01-01T02:39:20.000Z</time>
      </trkpt>
      <trkpt lat="42.284997" lon="3.288865">
        <ele>6</ele>
        <time>1970-01-01T02:39:21.000Z</time>
      </trkpt>
      <trkpt lat="42.285013" lon="3.288891">
        <ele>6</ele>
        <time>1970-01-01T02:39:22.000Z</time>
      </trkpt>
      <trkpt lat="42.28503" lon="3.288917">
        <ele>6</ele>
        <time>1970-01-01T02:39:23.000Z</time>
      </trkpt>
      <trkpt lat="42.285046" lon="3.288943">
        <ele>6</ele>
        <time>1970-01-01T02:39:24.000Z</time>
      </trkpt>
      <trkpt lat="42.285062" lon="3.28897">
        <ele>6</ele>
        <time>1970-01-01T02:39:25.000Z</time>
      </trkpt>
      <trkpt lat="42.285078" lon="3.288996">
        <ele>6</ele>
        <time>1970-01-01T02:39:26.000Z</time>
      </trkpt>
      <trkpt lat="42.285094" lon="3.289022">
        <ele>7</ele>
        <time>1970-01-01T02:39:27.000Z</time>
      </trkpt>
      <trkpt lat="42.285126" lon="3.28908">
        <ele>7</ele>
        <time>1970-01-01T02:39:28.000Z</time>
      </trkpt>
      <trkpt lat="42.285144" lon="3.289108">
        <ele>7</ele>
        <time>1970-01-01T02:39:29.000Z</time>
      </trkpt>
      <trkpt lat="42.285162" lon="3.289136">
        <ele>7</ele>
        <time>1970-01-01T02:39:30.000Z</time>
      </trkpt>
      <trkpt lat="42.28518" lon="3.289164">
        <ele>7</ele>
        <time>1970-01-01T02:39:31.000Z</time>
      </trkpt>
      <trkpt lat="42.285198" lon="3.289191">
        <ele>7</ele>
        <time>1970-01-01T02:39:32.000Z</time>
      </trkpt>
      <trkpt lat="42.285215" lon="3.289219">
        <ele>7</ele>
        <time>1970-01-01T02:39:33.000Z</time>
      </trkpt>
      <trkpt lat="42.285233" lon="3.289247">
        <ele>7</ele>
        <time>1970-01-01T02:39:34.000Z</time>
      </trkpt>
      <trkpt lat="42.285251" lon="3.289275">
        <ele>7</ele>
        <time>1970-01-01T02:39:35.000Z</time>
      </trkpt>
      <trkpt lat="42.285269" lon="3.289303">
        <ele>7</ele>
        <time>1970-01-01T02:39:36.000Z</time>
      </trkpt>
      <trkpt lat="42.285287" lon="3.289331">
        <ele>7</ele>
        <time>1970-01-01T02:39:37.000Z</time>
      </trkpt>
      <trkpt lat="42.285322" lon="3.289364">
        <ele>7</ele>
        <time>1970-01-01T02:39:38.000Z</time>
      </trkpt>
      <trkpt lat="42.285339" lon="3.289377">
        <ele>7</ele>
        <time>1970-01-01T02:39:39.000Z</time>
      </trkpt>
      <trkpt lat="42.285357" lon="3.28939">
        <ele>7</ele>
        <time>1970-01-01T02:39:40.000Z</time>
      </trkpt>
      <trkpt lat="42.285375" lon="3.289403">
        <ele>7</ele>
        <time>1970-01-01T02:39:41.000Z</time>
      </trkpt>
      <trkpt lat="42.285393" lon="3.289416">
        <ele>7</ele>
        <time>1970-01-01T02:39:42.000Z</time>
      </trkpt>
      <trkpt lat="42.28541" lon="3.289429">
        <ele>7</ele>
        <time>1970-01-01T02:39:43.000Z</time>
      </trkpt>
      <trkpt lat="42.285428" lon="3.289442">
        <ele>7</ele>
        <time>1970-01-01T02:39:44.000Z</time>
      </trkpt>
      <trkpt lat="42.285446" lon="3.289455">
        <ele>7</ele>
        <time>1970-01-01T02:39:45.000Z</time>
      </trkpt>
      <trkpt lat="42.285463" lon="3.289468">
        <ele>7</ele>
        <time>1970-01-01T02:39:46.000Z</time>
      </trkpt>
      <trkpt lat="42.285481" lon="3.289481">
        <ele>4</ele>
        <time>1970-01-01T02:39:47.000Z</time>
      </trkpt>
      <trkpt lat="42.285502" lon="3.289498">
        <ele>4</ele>
        <time>1970-01-01T02:39:48.000Z</time>
      </trkpt>
      <trkpt lat="42.28552" lon="3.289515">
        <ele>4</ele>
        <time>1970-01-01T02:39:49.000Z</time>
      </trkpt>
      <trkpt lat="42.285537" lon="3.289532">
        <ele>4</ele>
        <time>1970-01-01T02:39:50.000Z</time>
      </trkpt>
      <trkpt lat="42.285563" lon="3.289556">
        <ele>4</ele>
        <time>1970-01-01T02:39:52.000Z</time>
      </trkpt>
      <trkpt lat="42.28558" lon="3.289575">
        <ele>4</ele>
        <time>1970-01-01T02:39:54.000Z</time>
      </trkpt>
      <trkpt lat="42.28558" lon="3.289575">
        <ele>5</ele>
        <time>1970-01-01T02:39:57.000Z</time>
      </trkpt>
      <trkpt lat="42.285574" lon="3.289578">
        <ele>5</ele>
        <time>1970-01-01T02:39:59.000Z</time>
      </trkpt>
      <trkpt lat="42.285555" lon="3.289559">
        <ele>5</ele>
        <time>1970-01-01T02:40:06.000Z</time>
      </trkpt>
      <trkpt lat="42.285537" lon="3.28954">
        <ele>5</ele>
        <time>1970-01-01T02:40:07.000Z</time>
      </trkpt>
      <trkpt lat="42.285518" lon="3.289521">
        <ele>6</ele>
        <time>1970-01-01T02:40:20.000Z</time>
      </trkpt>
      <trkpt lat="42.285499" lon="3.289502">
        <ele>6</ele>
        <time>1970-01-01T02:40:21.000Z</time>
      </trkpt>
      <trkpt lat="42.28548" lon="3.289483">
        <ele>6</ele>
        <time>1970-01-01T02:40:22.000Z</time>
      </trkpt>
      <trkpt lat="42.285462" lon="3.289463">
        <ele>6</ele>
        <time>1970-01-01T02:40:23.000Z</time>
      </trkpt>
      <trkpt lat="42.285443" lon="3.289444">
        <ele>6</ele>
        <time>1970-01-01T02:40:24.000Z</time>
      </trkpt>
      <trkpt lat="42.285424" lon="3.289425">
        <ele>6</ele>
        <time>1970-01-01T02:40:25.000Z</time>
      </trkpt>
      <trkpt lat="42.285405" lon="3.289406">
        <ele>6</ele>
        <time>1970-01-01T02:40:26.000Z</time>
      </trkpt>
      <trkpt lat="42.285387" lon="3.289387">
        <ele>6</ele>
        <time>1970-01-01T02:40:27.000Z</time>
      </trkpt>
      <trkpt lat="42.285368" lon="3.289368">
        <ele>6</ele>
        <time>1970-01-01T02:40:28.000Z</time>
      </trkpt>
      <trkpt lat="42.285349" lon="3.289349">
        <ele>5</ele>
        <time>1970-01-01T02:40:29.000Z</time>
      </trkpt>
      <trkpt lat="42.285316" lon="3.289314">
        <ele>5</ele>
        <time>1970-01-01T02:40:30.000Z</time>
      </trkpt>
      <trkpt lat="42.285302" lon="3.289293">
        <ele>5</ele>
        <time>1970-01-01T02:40:31.000Z</time>
      </trkpt>
      <trkpt lat="42.285288" lon="3.289273">
        <ele>5</ele>
        <time>1970-01-01T02:40:32.000Z</time>
      </trkpt>
      <trkpt lat="42.285274" lon="3.289253">
        <ele>5</ele>
        <time>1970-01-01T02:40:33.000Z</time>
      </trkpt>
      <trkpt lat="42.28526" lon="3.289233">
        <ele>5</ele>
        <time>1970-01-01T02:40:34.000Z</time>
      </trkpt>
      <trkpt lat="42.285245" lon="3.289212">
        <ele>5</ele>
        <time>1970-01-01T02:40:35.000Z</time>
      </trkpt>
      <trkpt lat="42.285231" lon="3.289192">
        <ele>5</ele>
        <time>1970-01-01T02:40:36.000Z</time>
      </trkpt>
      <trkpt lat="42.285217" lon="3.289172">
        <ele>5</ele>
        <time>1970-01-01T02:40:37.000Z</time>
      </trkpt>
      <trkpt lat="42.285203" lon="3.289152">
        <ele>5</ele>
        <time>1970-01-01T02:40:38.000Z</time>
      </trkpt>
      <trkpt lat="42.285189" lon="3.289131">
        <ele>5</ele>
        <time>1970-01-01T02:40:39.000Z</time>
      </trkpt>
      <trkpt lat="42.285175" lon="3.289111">
        <ele>5</ele>
        <time>1970-01-01T02:40:40.000Z</time>
      </trkpt>
      <trkpt lat="42.285155" lon="3.289065">
        <ele>5</ele>
        <time>1970-01-01T02:40:41.000Z</time>
      </trkpt>
      <trkpt lat="42.285145" lon="3.289042">
        <ele>5</ele>
        <time>1970-01-01T02:40:42.000Z</time>
      </trkpt>
      <trkpt lat="42.285135" lon="3.289019">
        <ele>5</ele>
        <time>1970-01-01T02:40:43.000Z</time>
      </trkpt>
      <trkpt lat="42.285125" lon="3.288995">
        <ele>5</ele>
        <time>1970-01-01T02:40:44.000Z</time>
      </trkpt>
      <trkpt lat="42.285115" lon="3.288972">
        <ele>5</ele>
        <time>1970-01-01T02:40:45.000Z</time>
      </trkpt>
      <trkpt lat="42.285105" lon="3.288949">
        <ele>5</ele>
        <time>1970-01-01T02:40:47.000Z</time>
      </trkpt>
      <trkpt lat="42.285095" lon="3.288926">
        <ele>6</ele>
        <time>1970-01-01T02:40:49.000Z</time>
      </trkpt>
      <trkpt lat="42.285064" lon="3.288881">
        <ele>6</ele>
        <time>1970-01-01T02:40:51.000Z</time>
      </trkpt>
      <trkpt lat="42.285047" lon="3.288858">
        <ele>6</ele>
        <time>1970-01-01T02:40:53.000Z</time>
      </trkpt>
      <trkpt lat="42.285029" lon="3.288834">
        <ele>6</ele>
        <time>1970-01-01T02:40:58.000Z</time>
      </trkpt>
      <trkpt lat="42.285012" lon="3.288811">
        <ele>7</ele>
        <time>1970-01-01T02:41:05.000Z</time>
      </trkpt>
      <trkpt lat="42.284995" lon="3.288787">
        <ele>7</ele>
        <time>1970-01-01T02:41:06.000Z</time>
      </trkpt>
      <trkpt lat="42.284978" lon="3.288763">
        <ele>7</ele>
        <time>1970-01-01T02:41:08.000Z</time>
      </trkpt>
      <trkpt lat="42.284961" lon="3.28874">
        <ele>7</ele>
        <time>1970-01-01T02:41:10.000Z</time>
      </trkpt>
      <trkpt lat="42.284943" lon="3.288716">
        <ele>7</ele>
        <time>1970-01-01T02:41:12.000Z</time>
      </trkpt>
      <trkpt lat="42.284926" lon="3.288693">
        <ele>7</ele>
        <time>1970-01-01T02:41:13.000Z</time>
      </trkpt>
      <trkpt lat="42.284909" lon="3.288669">
        <ele>8</ele>
        <time>1970-01-01T02:41:14.000Z</time>
      </trkpt>
      <trkpt lat="42.284875" lon="3.288613">
        <ele>8</ele>
        <time>1970-01-01T02:41:15.000Z</time>
      </trkpt>
      <trkpt lat="42.28486" lon="3.288587">
        <ele>8</ele>
        <time>1970-01-01T02:41:16.000Z</time>
      </trkpt>
      <trkpt lat="42.284844" lon="3.288561">
        <ele>8</ele>
        <time>1970-01-01T02:41:17.000Z</time>
      </trkpt>
      <trkpt lat="42.284828" lon="3.288535">
        <ele>8</ele>
        <time>1970-01-01T02:41:18.000Z</time>
      </trkpt>
      <trkpt lat="42.284813" lon="3.28851">
        <ele>8</ele>
        <time>1970-01-01T02:41:20.000Z</time>
      </trkpt>
      <trkpt lat="42.284797" lon="3.288484">
        <ele>8</ele>
        <time>1970-01-01T02:41:22.000Z</time>
      </trkpt>
      <trkpt lat="42.284781" lon="3.288458">
        <ele>8</ele>
        <time>1970-01-01T02:41:23.000Z</time>
      </trkpt>
      <trkpt lat="42.284766" lon="3.288432">
        <ele>8</ele>
        <time>1970-01-01T02:41:24.000Z</time>
      </trkpt>
      <trkpt lat="42.28475" lon="3.288406">
        <ele>8</ele>
        <time>1970-01-01T02:41:25.000Z</time>
      </trkpt>
      <trkpt lat="42.284729" lon="3.288349">
        <ele>8</ele>
        <time>1970-01-01T02:41:26.000Z</time>
      </trkpt>
      <trkpt lat="42.284726" lon="3.288323">
        <ele>8</ele>
        <time>1970-01-01T02:41:27.000Z</time>
      </trkpt>
      <trkpt lat="42.284722" lon="3.288296">
        <ele>8</ele>
        <time>1970-01-01T02:41:28.000Z</time>
      </trkpt>
      <trkpt lat="42.284718" lon="3.288269">
        <ele>8</ele>
        <time>1970-01-01T02:41:30.000Z</time>
      </trkpt>
      <trkpt lat="42.284714" lon="3.288243">
        <ele>8</ele>
        <time>1970-01-01T02:41:31.000Z</time>
      </trkpt>
      <trkpt lat="42.284711" lon="3.288216">
        <ele>8</ele>
        <time>1970-01-01T02:41:32.000Z</time>
      </trkpt>
      <trkpt lat="42.284707" lon="3.28819">
        <ele>8</ele>
        <time>1970-01-01T02:41:33.000Z</time>
      </trkpt>
      <trkpt lat="42.284703" lon="3.288163">
        <ele>6</ele>
        <time>1970-01-01T02:41:34.000Z</time>
      </trkpt>
      <trkpt lat="42.284742" lon="3.288101">
        <ele>6</ele>
        <time>1970-01-01T02:41:35.000Z</time>
      </trkpt>
      <trkpt lat="42.284767" lon="3.28807">
        <ele>6</ele>
        <time>1970-01-01T02:41:36.000Z</time>
      </trkpt>
      <trkpt lat="42.284791" lon="3.288039">
        <ele>6</ele>
        <time>1970-01-01T02:41:37.000Z</time>
      </trkpt>
      <trkpt lat="42.284815" lon="3.288008">
        <ele>6</ele>
        <time>1970-01-01T02:41:38.000Z</time>
      </trkpt>
      <trkpt lat="42.28484" lon="3.287977">
        <ele>6</ele>
        <time>1970-01-01T02:41:39.000Z</time>
      </trkpt>
      <trkpt lat="42.284864" lon="3.287945">
        <ele>6</ele>
        <time>1970-01-01T02:41:40.000Z</time>
      </trkpt>
      <trkpt lat="42.284888" lon="3.287914">
        <ele>6</ele>
        <time>1970-01-01T02:41:41.000Z</time>
      </trkpt>
      <trkpt lat="42.284912" lon="3.287883">
        <ele>6</ele>
        <time>1970-01-01T02:41:42.000Z</time>
      </trkpt>
      <trkpt lat="42.284937" lon="3.287852">
        <ele>6</ele>
        <time>1970-01-01T02:41:43.000Z</time>
      </trkpt>
      <trkpt lat="42.284961" lon="3.287821">
        <ele>5</ele>
        <time>1970-01-01T02:41:44.000Z</time>
      </trkpt>
      <trkpt lat="42.285008" lon="3.287765">
        <ele>5</ele>
        <time>1970-01-01T02:41:45.000Z</time>
      </trkpt>
      <trkpt lat="42.285029" lon="3.287739">
        <ele>5</ele>
        <time>1970-01-01T02:41:46.000Z</time>
      </trkpt>
      <trkpt lat="42.285049" lon="3.287714">
        <ele>5</ele>
        <time>1970-01-01T02:41:47.000Z</time>
      </trkpt>
      <trkpt lat="42.28507" lon="3.287688">
        <ele>5</ele>
        <time>1970-01-01T02:41:48.000Z</time>
      </trkpt>
      <trkpt lat="42.285091" lon="3.287663">
        <ele>5</ele>
        <time>1970-01-01T02:41:49.000Z</time>
      </trkpt>
      <trkpt lat="42.285112" lon="3.287638">
        <ele>5</ele>
        <time>1970-01-01T02:41:50.000Z</time>
      </trkpt>
      <trkpt lat="42.285133" lon="3.287612">
        <ele>5</ele>
        <time>1970-01-01T02:41:51.000Z</time>
      </trkpt>
      <trkpt lat="42.285153" lon="3.287587">
        <ele>5</ele>
        <time>1970-01-01T02:41:52.000Z</time>
      </trkpt>
      <trkpt lat="42.285174" lon="3.287561">
        <ele>5</ele>
        <time>1970-01-01T02:41:53.000Z</time>
      </trkpt>
      <trkpt lat="42.285195" lon="3.287536">
        <ele>5</ele>
        <time>1970-01-01T02:41:54.000Z</time>
      </trkpt>
      <trkpt lat="42.285234" lon="3.287512">
        <ele>5</ele>
        <time>1970-01-01T02:41:55.000Z</time>
      </trkpt>
      <trkpt lat="42.285252" lon="3.287521">
        <ele>5</ele>
        <time>1970-01-01T02:41:56.000Z</time>
      </trkpt>
      <trkpt lat="42.28527" lon="3.28753">
        <ele>5</ele>
        <time>1970-01-01T02:41:57.000Z</time>
      </trkpt>
      <trkpt lat="42.285288" lon="3.287539">
        <ele>5</ele>
        <time>1970-01-01T02:41:58.000Z</time>
      </trkpt>
      <trkpt lat="42.285307" lon="3.287548">
        <ele>5</ele>
        <time>1970-01-01T02:41:59.000Z</time>
      </trkpt>
      <trkpt lat="42.285325" lon="3.287557">
        <ele>5</ele>
        <time>1970-01-01T02:42:00.000Z</time>
      </trkpt>
      <trkpt lat="42.285343" lon="3.287566">
        <ele>5</ele>
        <time>1970-01-01T02:42:01.000Z</time>
      </trkpt>
      <trkpt lat="42.285361" lon="3.287575">
        <ele>5</ele>
        <time>1970-01-01T02:42:02.000Z</time>
      </trkpt>
      <trkpt lat="42.285379" lon="3.287584">
        <ele>5</ele>
        <time>1970-01-01T02:42:04.000Z</time>
      </trkpt>
      <trkpt lat="42.285415" lon="3.287637">
        <ele>5</ele>
        <time>1970-01-01T02:42:06.000Z</time>
      </trkpt>
      <trkpt lat="42.285428" lon="3.287658">
        <ele>5</ele>
        <time>1970-01-01T02:42:07.000Z</time>
      </trkpt>
      <trkpt lat="42.285442" lon="3.287679">
        <ele>5</ele>
        <time>1970-01-01T02:42:08.000Z</time>
      </trkpt>
      <trkpt lat="42.285455" lon="3.2877">
        <ele>5</ele>
        <time>1970-01-01T02:42:10.000Z</time>
      </trkpt>
      <trkpt lat="42.285469" lon="3.287721">
        <ele>5</ele>
        <time>1970-01-01T02:42:11.000Z</time>
      </trkpt>
      <trkpt lat="42.285482" lon="3.287742">
        <ele>5</ele>
        <time>1970-01-01T02:42:12.000Z</time>
      </trkpt>
      <trkpt lat="42.285496" lon="3.287763">
        <ele>5</ele>
        <time>1970-01-01T02:42:13.000Z</time>
      </trkpt>
      <trkpt lat="42.285509" lon="3.287784">
        <ele>5</ele>
        <time>1970-01-01T02:42:14.000Z</time>
      </trkpt>
      <trkpt lat="42.285523" lon="3.287805">
        <ele>9</ele>
        <time>1970-01-01T02:42:15.000Z</time>
      </trkpt>
      <trkpt lat="42.285555" lon="3.287859">
        <ele>9</ele>
        <time>1970-01-01T02:42:16.000Z</time>
      </trkpt>
      <trkpt lat="42.28557" lon="3.287885">
        <ele>9</ele>
        <time>1970-01-01T02:42:17.000Z</time>
      </trkpt>
      <trkpt lat="42.285585" lon="3.287912">
        <ele>9</ele>
        <time>1970-01-01T02:42:18.000Z</time>
      </trkpt>
      <trkpt lat="42.2856" lon="3.287939">
        <ele>9</ele>
        <time>1970-01-01T02:42:19.000Z</time>
      </trkpt>
      <trkpt lat="42.285615" lon="3.287965">
        <ele>9</ele>
        <time>1970-01-01T02:42:20.000Z</time>
      </trkpt>
      <trkpt lat="42.28563" lon="3.287992">
        <ele>9</ele>
        <time>1970-01-01T02:42:21.000Z</time>
      </trkpt>
      <trkpt lat="42.285645" lon="3.288019">
        <ele>9</ele>
        <time>1970-01-01T02:42:22.000Z</time>
      </trkpt>
      <trkpt lat="42.28566" lon="3.288045">
        <ele>9</ele>
        <time>1970-01-01T02:42:23.000Z</time>
      </trkpt>
      <trkpt lat="42.285675" lon="3.288072">
        <ele>9</ele>
        <time>1970-01-01T02:42:24.000Z</time>
      </trkpt>
      <trkpt lat="42.285712" lon="3.288138">
        <ele>9</ele>
        <time>1970-01-01T02:42:25.000Z</time>
      </trkpt>
      <trkpt lat="42.285733" lon="3.288174">
        <ele>9</ele>
        <time>1970-01-01T02:42:26.000Z</time>
      </trkpt>
      <trkpt lat="42.285753" lon="3.288209">
        <ele>9</ele>
        <time>1970-01-01T02:42:27.000Z</time>
      </trkpt>
      <trkpt lat="42.285773" lon="3.288245">
        <ele>9</ele>
        <time>1970-01-01T02:42:28.000Z</time>
      </trkpt>
      <trkpt lat="42.285793" lon="3.288281">
        <ele>9</ele>
        <time>1970-01-01T02:42:29.000Z</time>
      </trkpt>
      <trkpt lat="42.285814" lon="3.288317">
        <ele>9</ele>
        <time>1970-01-01T02:42:30.000Z</time>
      </trkpt>
      <trkpt lat="42.285834" lon="3.288353">
        <ele>9</ele>
        <time>1970-01-01T02:42:31.000Z</time>
      </trkpt>
      <trkpt lat="42.285854" lon="3.288389">
        <ele>9</ele>
        <time>1970-01-01T02:42:32.000Z</time>
      </trkpt>
      <trkpt lat="42.285874" lon="3.288424">
        <ele>9</ele>
        <time>1970-01-01T02:42:33.000Z</time>
      </trkpt>
      <trkpt lat="42.285895" lon="3.28846">
        <ele>9</ele>
        <time>1970-01-01T02:42:34.000Z</time>
      </trkpt>
      <trkpt lat="42.285915" lon="3.288496">
        <ele>9</ele>
        <time>1970-01-01T02:42:35.000Z</time>
      </trkpt>
      <trkpt lat="42.285954" lon="3.28859">
        <ele>9</ele>
        <time>1970-01-01T02:42:36.000Z</time>
      </trkpt>
      <trkpt lat="42.285971" lon="3.28863">
        <ele>9</ele>
        <time>1970-01-01T02:42:37.000Z</time>
      </trkpt>
      <trkpt lat="42.285987" lon="3.288669">
        <ele>9</ele>
        <time>1970-01-01T02:42:38.000Z</time>
      </trkpt>
      <trkpt lat="42.286003" lon="3.288709">
        <ele>9</ele>
        <time>1970-01-01T02:42:39.000Z</time>
      </trkpt>
      <trkpt lat="42.28602" lon="3.288749">
        <ele>9</ele>
        <time>1970-01-01T02:42:40.000Z</time>
      </trkpt>
      <trkpt lat="42.286036" lon="3.288789">
        <ele>9</ele>
        <time>1970-01-01T02:42:41.000Z</time>
      </trkpt>
      <trkpt lat="42.286052" lon="3.288828">
        <ele>9</ele>
        <time>1970-01-01T02:42:42.000Z</time>
      </trkpt>
      <trkpt lat="42.286069" lon="3.288868">
        <ele>9</ele>
        <time>1970-01-01T02:42:43.000Z</time>
      </trkpt>
      <trkpt lat="42.286085" lon="3.288908">
        <ele>6</ele>
        <time>1970-01-01T02:42:44.000Z</time>
      </trkpt>
      <trkpt lat="42.286125" lon="3.288971">
        <ele>6</ele>
        <time>1970-01-01T02:42:45.000Z</time>
      </trkpt>
      <trkpt lat="42.286148" lon="3.28899">
        <ele>6</ele>
        <time>1970-01-01T02:42:46.000Z</time>
      </trkpt>
      <trkpt lat="42.286171" lon="3.289008">
        <ele>6</ele>
        <time>1970-01-01T02:42:47.000Z</time>
      </trkpt>
      <trkpt lat="42.286194" lon="3.289027">
        <ele>6</ele>
        <time>1970-01-01T02:42:48.000Z</time>
      </trkpt>
      <trkpt lat="42.286218" lon="3.289045">
        <ele>6</ele>
        <time>1970-01-01T02:42:49.000Z</time>
      </trkpt>
      <trkpt lat="42.286241" lon="3.289064">
        <ele>6</ele>
        <time>1970-01-01T02:42:50.000Z</time>
      </trkpt>
      <trkpt lat="42.286264" lon="3.289082">
        <ele>6</ele>
        <time>1970-01-01T02:42:51.000Z</time>
      </trkpt>
      <trkpt lat="42.286287" lon="3.289101">
        <ele>6</ele>
        <time>1970-01-01T02:42:52.000Z</time>
      </trkpt>
      <trkpt lat="42.28631" lon="3.289119">
        <ele>6</ele>
        <time>1970-01-01T02:42:53.000Z</time>
      </trkpt>
      <trkpt lat="42.286333" lon="3.289138">
        <ele>6</ele>
        <time>1970-01-01T02:42:54.000Z</time>
      </trkpt>
      <trkpt lat="42.286398" lon="3.289118">
        <ele>6</ele>
        <time>1970-01-01T02:42:55.000Z</time>
      </trkpt>
      <trkpt lat="42.286427" lon="3.289103">
        <ele>6</ele>
        <time>1970-01-01T02:42:56.000Z</time>
      </trkpt>
      <trkpt lat="42.286457" lon="3.289089">
        <ele>6</ele>
        <time>1970-01-01T02:42:57.000Z</time>
      </trkpt>
      <trkpt lat="42.286487" lon="3.289075">
        <ele>6</ele>
        <time>1970-01-01T02:42:58.000Z</time>
      </trkpt>
      <trkpt lat="42.286517" lon="3.289061">
        <ele>6</ele>
        <time>1970-01-01T02:42:59.000Z</time>
      </trkpt>
      <trkpt lat="42.286546" lon="3.289046">
        <ele>6</ele>
        <time>1970-01-01T02:43:00.000Z</time>
      </trkpt>
      <trkpt lat="42.286576" lon="3.289032">
        <ele>6</ele>
        <time>1970-01-01T02:43:01.000Z</time>
      </trkpt>
      <trkpt lat="42.286606" lon="3.289018">
        <ele>6</ele>
        <time>1970-01-01T02:43:02.000Z</time>
      </trkpt>
      <trkpt lat="42.286635" lon="3.289003">
        <ele>6</ele>
        <time>1970-01-01T02:43:03.000Z</time>
      </trkpt>
      <trkpt lat="42.286665" lon="3.288989">
        <ele>7</ele>
        <time>1970-01-01T02:43:04.000Z</time>
      </trkpt>
      <trkpt lat="42.286717" lon="3.288972">
        <ele>7</ele>
        <time>1970-01-01T02:43:05.000Z</time>
      </trkpt>
      <trkpt lat="42.286738" lon="3.288966">
        <ele>7</ele>
        <time>1970-01-01T02:43:06.000Z</time>
      </trkpt>
      <trkpt lat="42.28676" lon="3.28896">
        <ele>7</ele>
        <time>1970-01-01T02:43:07.000Z</time>
      </trkpt>
      <trkpt lat="42.286781" lon="3.288954">
        <ele>7</ele>
        <time>1970-01-01T02:43:08.000Z</time>
      </trkpt>
      <trkpt lat="42.286803" lon="3.288947">
        <ele>7</ele>
        <time>1970-01-01T02:43:09.000Z</time>
      </trkpt>
      <trkpt lat="42.286824" lon="3.288941">
        <ele>7</ele>
        <time>1970-01-01T02:43:11.000Z</time>
      </trkpt>
      <trkpt lat="42.286846" lon="3.288935">
        <ele>7</ele>
        <time>1970-01-01T02:43:13.000Z</time>
      </trkpt>
      <trkpt lat="42.286867" lon="3.288929">
        <ele>8</ele>
        <time>1970-01-01T02:43:14.000Z</time>
      </trkpt>
      <trkpt lat="42.286902" lon="3.288946">
        <ele>8</ele>
        <time>1970-01-01T02:43:15.000Z</time>
      </trkpt>
      <trkpt lat="42.286922" lon="3.288964">
        <ele>8</ele>
        <time>1970-01-01T02:43:17.000Z</time>
      </trkpt>
      <trkpt lat="42.286941" lon="3.288982">
        <ele>8</ele>
        <time>1970-01-01T02:43:19.000Z</time>
      </trkpt>
      <trkpt lat="42.28696" lon="3.289001">
        <ele>8</ele>
        <time>1970-01-01T02:43:21.000Z</time>
      </trkpt>
      <trkpt lat="42.28698" lon="3.289019">
        <ele>8</ele>
        <time>1970-01-01T02:43:23.000Z</time>
      </trkpt>
      <trkpt lat="42.286999" lon="3.289037">
        <ele>10</ele>
        <time>1970-01-01T02:43:24.000Z</time>
      </trkpt>
      <trkpt lat="42.286994" lon="3.289087">
        <ele>10</ele>
        <time>1970-01-01T02:43:25.000Z</time>
      </trkpt>
      <trkpt lat="42.286984" lon="3.289118">
        <ele>10</ele>
        <time>1970-01-01T02:43:27.000Z</time>
      </trkpt>
      <trkpt lat="42.286975" lon="3.289149">
        <ele>10</ele>
        <time>1970-01-01T02:43:29.000Z</time>
      </trkpt>
      <trkpt lat="42.286965" lon="3.289179">
        <ele>10</ele>
        <time>1970-01-01T02:43:31.000Z</time>
      </trkpt>
      <trkpt lat="42.286955" lon="3.28921">
        <ele>10</ele>
        <time>1970-01-01T02:43:33.000Z</time>
      </trkpt>
      <trkpt lat="42.286945" lon="3.289241">
        <ele>12</ele>
        <time>1970-01-01T02:43:34.000Z</time>
      </trkpt>
      <trkpt lat="42.286929" lon="3.289285">
        <ele>12</ele>
        <time>1970-01-01T02:43:35.000Z</time>
      </trkpt>
      <trkpt lat="42.286919" lon="3.289309">
        <ele>12</ele>
        <time>1970-01-01T02:43:37.000Z</time>
      </trkpt>
      <trkpt lat="42.28691" lon="3.289333">
        <ele>12</ele>
        <time>1970-01-01T02:43:39.000Z</time>
      </trkpt>
      <trkpt lat="42.286901" lon="3.289358">
        <ele>12</ele>
        <time>1970-01-01T02:43:40.000Z</time>
      </trkpt>
      <trkpt lat="42.286891" lon="3.289382">
        <ele>12</ele>
        <time>1970-01-01T02:43:41.000Z</time>
      </trkpt>
      <trkpt lat="42.286882" lon="3.289406">
        <ele>12</ele>
        <time>1970-01-01T02:43:42.000Z</time>
      </trkpt>
      <trkpt lat="42.286872" lon="3.28943">
        <ele>12</ele>
        <time>1970-01-01T02:43:43.000Z</time>
      </trkpt>
      <trkpt lat="42.286863" lon="3.289454">
        <ele>15</ele>
        <time>1970-01-01T02:43:44.000Z</time>
      </trkpt>
      <trkpt lat="42.286847" lon="3.289501">
        <ele>15</ele>
        <time>1970-01-01T02:43:45.000Z</time>
      </trkpt>
      <trkpt lat="42.28684" lon="3.289525">
        <ele>15</ele>
        <time>1970-01-01T02:43:46.000Z</time>
      </trkpt>
      <trkpt lat="42.286833" lon="3.28955">
        <ele>15</ele>
        <time>1970-01-01T02:43:48.000Z</time>
      </trkpt>
      <trkpt lat="42.286826" lon="3.289574">
        <ele>15</ele>
        <time>1970-01-01T02:43:49.000Z</time>
      </trkpt>
      <trkpt lat="42.28682" lon="3.289599">
        <ele>15</ele>
        <time>1970-01-01T02:43:50.000Z</time>
      </trkpt>
      <trkpt lat="42.286813" lon="3.289624">
        <ele>15</ele>
        <time>1970-01-01T02:43:51.000Z</time>
      </trkpt>
      <trkpt lat="42.286806" lon="3.289648">
        <ele>15</ele>
        <time>1970-01-01T02:43:52.000Z</time>
      </trkpt>
      <trkpt lat="42.286799" lon="3.289673">
        <ele>15</ele>
        <time>1970-01-01T02:43:53.000Z</time>
      </trkpt>
      <trkpt lat="42.286792" lon="3.289697">
        <ele>15</ele>
        <time>1970-01-01T02:43:54.000Z</time>
      </trkpt>
      <trkpt lat="42.286785" lon="3.289722">
        <ele>17</ele>
        <time>1970-01-01T02:43:55.000Z</time>
      </trkpt>
      <trkpt lat="42.28677" lon="3.28977">
        <ele>17</ele>
        <time>1970-01-01T02:43:56.000Z</time>
      </trkpt>
      <trkpt lat="42.286765" lon="3.289795">
        <ele>17</ele>
        <time>1970-01-01T02:43:57.000Z</time>
      </trkpt>
      <trkpt lat="42.286761" lon="3.289819">
        <ele>17</ele>
        <time>1970-01-01T02:43:58.000Z</time>
      </trkpt>
      <trkpt lat="42.286756" lon="3.289844">
        <ele>17</ele>
        <time>1970-01-01T02:43:59.000Z</time>
      </trkpt>
      <trkpt lat="42.286751" lon="3.289868">
        <ele>17</ele>
        <time>1970-01-01T02:44:00.000Z</time>
      </trkpt>
      <trkpt lat="42.286746" lon="3.289893">
        <ele>17</ele>
        <time>1970-01-01T02:44:01.000Z</time>
      </trkpt>
      <trkpt lat="42.286742" lon="3.289917">
        <ele>17</ele>
        <time>1970-01-01T02:44:02.000Z</time>
      </trkpt>
      <trkpt lat="42.286737" lon="3.289942">
        <ele>17</ele>
        <time>1970-01-01T02:44:03.000Z</time>
      </trkpt>
      <trkpt lat="42.286732" lon="3.289966">
        <ele>17</ele>
        <time>1970-01-01T02:44:04.000Z</time>
      </trkpt>
      <trkpt lat="42.286725" lon="3.290024">
        <ele>17</ele>
        <time>1970-01-01T02:44:05.000Z</time>
      </trkpt>
      <trkpt lat="42.286721" lon="3.290051">
        <ele>17</ele>
        <time>1970-01-01T02:44:06.000Z</time>
      </trkpt>
      <trkpt lat="42.286718" lon="3.290078">
        <ele>17</ele>
        <time>1970-01-01T02:44:07.000Z</time>
      </trkpt>
      <trkpt lat="42.286714" lon="3.290105">
        <ele>17</ele>
        <time>1970-01-01T02:44:08.000Z</time>
      </trkpt>
      <trkpt lat="42.286711" lon="3.290132">
        <ele>17</ele>
        <time>1970-01-01T02:44:09.000Z</time>
      </trkpt>
      <trkpt lat="42.286707" lon="3.290159">
        <ele>17</ele>
        <time>1970-01-01T02:44:10.000Z</time>
      </trkpt>
      <trkpt lat="42.286704" lon="3.290186">
        <ele>17</ele>
        <time>1970-01-01T02:44:11.000Z</time>
      </trkpt>
      <trkpt lat="42.2867" lon="3.290213">
        <ele>17</ele>
        <time>1970-01-01T02:44:12.000Z</time>
      </trkpt>
      <trkpt lat="42.286697" lon="3.29024">
        <ele>17</ele>
        <time>1970-01-01T02:44:13.000Z</time>
      </trkpt>
      <trkpt lat="42.286693" lon="3.290267">
        <ele>17</ele>
        <time>1970-01-01T02:44:14.000Z</time>
      </trkpt>
      <trkpt lat="42.28669" lon="3.290294">
        <ele>19</ele>
        <time>1970-01-01T02:44:15.000Z</time>
      </trkpt>
      <trkpt lat="42.286685" lon="3.290348">
        <ele>19</ele>
        <time>1970-01-01T02:44:16.000Z</time>
      </trkpt>
      <trkpt lat="42.286684" lon="3.290373">
        <ele>19</ele>
        <time>1970-01-01T02:44:17.000Z</time>
      </trkpt>
      <trkpt lat="42.286684" lon="3.290399">
        <ele>19</ele>
        <time>1970-01-01T02:44:18.000Z</time>
      </trkpt>
      <trkpt lat="42.286683" lon="3.290424">
        <ele>19</ele>
        <time>1970-01-01T02:44:19.000Z</time>
      </trkpt>
      <trkpt lat="42.286682" lon="3.29045">
        <ele>19</ele>
        <time>1970-01-01T02:44:20.000Z</time>
      </trkpt>
      <trkpt lat="42.286681" lon="3.290475">
        <ele>19</ele>
        <time>1970-01-01T02:44:21.000Z</time>
      </trkpt>
      <trkpt lat="42.286681" lon="3.290501">
        <ele>19</ele>
        <time>1970-01-01T02:44:22.000Z</time>
      </trkpt>
      <trkpt lat="42.28668" lon="3.290526">
        <ele>19</ele>
        <time>1970-01-01T02:44:23.000Z</time>
      </trkpt>
      <trkpt lat="42.286679" lon="3.290552">
        <ele>22</ele>
        <time>1970-01-01T02:44:24.000Z</time>
      </trkpt>
      <trkpt lat="42.286679" lon="3.290607">
        <ele>22</ele>
        <time>1970-01-01T02:44:25.000Z</time>
      </trkpt>
      <trkpt lat="42.286679" lon="3.290633">
        <ele>22</ele>
        <time>1970-01-01T02:44:26.000Z</time>
      </trkpt>
      <trkpt lat="42.286679" lon="3.290658">
        <ele>22</ele>
        <time>1970-01-01T02:44:27.000Z</time>
      </trkpt>
      <trkpt lat="42.286679" lon="3.290683">
        <ele>22</ele>
        <time>1970-01-01T02:44:28.000Z</time>
      </trkpt>
      <trkpt lat="42.286679" lon="3.290709">
        <ele>22</ele>
        <time>1970-01-01T02:44:29.000Z</time>
      </trkpt>
      <trkpt lat="42.28668" lon="3.290734">
        <ele>22</ele>
        <time>1970-01-01T02:44:30.000Z</time>
      </trkpt>
      <trkpt lat="42.28668" lon="3.29076">
        <ele>22</ele>
        <time>1970-01-01T02:44:31.000Z</time>
      </trkpt>
      <trkpt lat="42.28668" lon="3.290785">
        <ele>22</ele>
        <time>1970-01-01T02:44:32.000Z</time>
      </trkpt>
      <trkpt lat="42.28668" lon="3.29081">
        <ele>22</ele>
        <time>1970-01-01T02:44:33.000Z</time>
      </trkpt>
      <trkpt lat="42.28668" lon="3.290836">
        <ele>22</ele>
        <time>1970-01-01T02:44:34.000Z</time>
      </trkpt>
      <trkpt lat="42.28668" lon="3.290861">
        <ele>23</ele>
        <time>1970-01-01T02:44:35.000Z</time>
      </trkpt>
      <trkpt lat="42.286711" lon="3.29087">
        <ele>23</ele>
        <time>1970-01-01T02:44:36.000Z</time>
      </trkpt>
      <trkpt lat="42.286731" lon="3.290858">
        <ele>23</ele>
        <time>1970-01-01T02:44:37.000Z</time>
      </trkpt>
      <trkpt lat="42.28675" lon="3.290846">
        <ele>23</ele>
        <time>1970-01-01T02:44:38.000Z</time>
      </trkpt>
      <trkpt lat="42.28677" lon="3.290834">
        <ele>23</ele>
        <time>1970-01-01T02:44:39.000Z</time>
      </trkpt>
      <trkpt lat="42.286789" lon="3.290822">
        <ele>23</ele>
        <time>1970-01-01T02:44:40.000Z</time>
      </trkpt>
      <trkpt lat="42.286809" lon="3.29081">
        <ele>23</ele>
        <time>1970-01-01T02:44:41.000Z</time>
      </trkpt>
      <trkpt lat="42.286828" lon="3.290798">
        <ele>23</ele>
        <time>1970-01-01T02:44:42.000Z</time>
      </trkpt>
      <trkpt lat="42.286848" lon="3.290786">
        <ele>23</ele>
        <time>1970-01-01T02:44:43.000Z</time>
      </trkpt>
      <trkpt lat="42.286867" lon="3.290774">
        <ele>24</ele>
        <time>1970-01-01T02:44:44.000Z</time>
      </trkpt>
      <trkpt lat="42.286905" lon="3.290725">
        <ele>24</ele>
        <time>1970-01-01T02:44:45.000Z</time>
      </trkpt>
      <trkpt lat="42.286926" lon="3.290703">
        <ele>24</ele>
        <time>1970-01-01T02:44:46.000Z</time>
      </trkpt>
      <trkpt lat="42.286946" lon="3.29068">
        <ele>24</ele>
        <time>1970-01-01T02:44:47.000Z</time>
      </trkpt>
      <trkpt lat="42.286967" lon="3.290658">
        <ele>24</ele>
        <time>1970-01-01T02:44:48.000Z</time>
      </trkpt>
      <trkpt lat="42.286987" lon="3.290635">
        <ele>24</ele>
        <time>1970-01-01T02:44:49.000Z</time>
      </trkpt>
      <trkpt lat="42.287008" lon="3.290613">
        <ele>24</ele>
        <time>1970-01-01T02:44:50.000Z</time>
      </trkpt>
      <trkpt lat="42.287028" lon="3.29059">
        <ele>24</ele>
        <time>1970-01-01T02:44:51.000Z</time>
      </trkpt>
      <trkpt lat="42.287049" lon="3.290568">
        <ele>24</ele>
        <time>1970-01-01T02:44:52.000Z</time>
      </trkpt>
      <trkpt lat="42.287069" lon="3.290545">
        <ele>24</ele>
        <time>1970-01-01T02:44:53.000Z</time>
      </trkpt>
      <trkpt lat="42.28709" lon="3.290523">
        <ele>24</ele>
        <time>1970-01-01T02:44:54.000Z</time>
      </trkpt>
      <trkpt lat="42.28711" lon="3.2905">
        <ele>26</ele>
        <time>1970-01-01T02:44:55.000Z</time>
      </trkpt>
      <trkpt lat="42.28715" lon="3.290446">
        <ele>26</ele>
        <time>1970-01-01T02:44:56.000Z</time>
      </trkpt>
      <trkpt lat="42.287168" lon="3.29042">
        <ele>26</ele>
        <time>1970-01-01T02:44:57.000Z</time>
      </trkpt>
      <trkpt lat="42.287186" lon="3.290393">
        <ele>26</ele>
        <time>1970-01-01T02:44:58.000Z</time>
      </trkpt>
      <trkpt lat="42.287204" lon="3.290367">
        <ele>26</ele>
        <time>1970-01-01T02:44:59.000Z</time>
      </trkpt>
      <trkpt lat="42.287222" lon="3.29034">
        <ele>26</ele>
        <time>1970-01-01T02:45:00.000Z</time>
      </trkpt>
      <trkpt lat="42.28724" lon="3.290314">
        <ele>26</ele>
        <time>1970-01-01T02:45:01.000Z</time>
      </trkpt>
      <trkpt lat="42.287258" lon="3.290287">
        <ele>26</ele>
        <time>1970-01-01T02:45:02.000Z</time>
      </trkpt>
      <trkpt lat="42.287276" lon="3.290261">
        <ele>26</ele>
        <time>1970-01-01T02:45:03.000Z</time>
      </trkpt>
      <trkpt lat="42.287294" lon="3.290234">
        <ele>27</ele>
        <time>1970-01-01T02:45:04.000Z</time>
      </trkpt>
      <trkpt lat="42.287329" lon="3.290167">
        <ele>27</ele>
        <time>1970-01-01T02:45:05.000Z</time>
      </trkpt>
      <trkpt lat="42.287343" lon="3.290135">
        <ele>27</ele>
        <time>1970-01-01T02:45:06.000Z</time>
      </trkpt>
      <trkpt lat="42.287358" lon="3.290102">
        <ele>27</ele>
        <time>1970-01-01T02:45:07.000Z</time>
      </trkpt>
      <trkpt lat="42.287373" lon="3.290069">
        <ele>27</ele>
        <time>1970-01-01T02:45:08.000Z</time>
      </trkpt>
      <trkpt lat="42.287387" lon="3.290037">
        <ele>27</ele>
        <time>1970-01-01T02:45:09.000Z</time>
      </trkpt>
      <trkpt lat="42.287402" lon="3.290004">
        <ele>27</ele>
        <time>1970-01-01T02:45:10.000Z</time>
      </trkpt>
      <trkpt lat="42.287416" lon="3.289972">
        <ele>27</ele>
        <time>1970-01-01T02:45:11.000Z</time>
      </trkpt>
      <trkpt lat="42.287431" lon="3.289939">
        <ele>27</ele>
        <time>1970-01-01T02:45:12.000Z</time>
      </trkpt>
      <trkpt lat="42.287446" lon="3.289906">
        <ele>27</ele>
        <time>1970-01-01T02:45:13.000Z</time>
      </trkpt>
      <trkpt lat="42.28746" lon="3.289874">
        <ele>27</ele>
        <time>1970-01-01T02:45:14.000Z</time>
      </trkpt>
      <trkpt lat="42.287475" lon="3.289841">
        <ele>28</ele>
        <time>1970-01-01T02:45:15.000Z</time>
      </trkpt>
      <trkpt lat="42.287499" lon="3.289789">
        <ele>28</ele>
        <time>1970-01-01T02:45:16.000Z</time>
      </trkpt>
      <trkpt lat="42.287511" lon="3.289765">
        <ele>28</ele>
        <time>1970-01-01T02:45:17.000Z</time>
      </trkpt>
      <trkpt lat="42.287523" lon="3.289741">
        <ele>28</ele>
        <time>1970-01-01T02:45:18.000Z</time>
      </trkpt>
      <trkpt lat="42.287535" lon="3.289717">
        <ele>28</ele>
        <time>1970-01-01T02:45:19.000Z</time>
      </trkpt>
      <trkpt lat="42.287546" lon="3.289693">
        <ele>28</ele>
        <time>1970-01-01T02:45:20.000Z</time>
      </trkpt>
      <trkpt lat="42.287558" lon="3.289669">
        <ele>28</ele>
        <time>1970-01-01T02:45:21.000Z</time>
      </trkpt>
      <trkpt lat="42.28757" lon="3.289645">
        <ele>28</ele>
        <time>1970-01-01T02:45:22.000Z</time>
      </trkpt>
      <trkpt lat="42.287582" lon="3.289621">
        <ele>28</ele>
        <time>1970-01-01T02:45:23.000Z</time>
      </trkpt>
      <trkpt lat="42.287594" lon="3.289597">
        <ele>29</ele>
        <time>1970-01-01T02:45:24.000Z</time>
      </trkpt>
      <trkpt lat="42.287626" lon="3.289554">
        <ele>29</ele>
        <time>1970-01-01T02:45:25.000Z</time>
      </trkpt>
      <trkpt lat="42.287645" lon="3.289531">
        <ele>29</ele>
        <time>1970-01-01T02:45:26.000Z</time>
      </trkpt>
      <trkpt lat="42.287664" lon="3.289509">
        <ele>29</ele>
        <time>1970-01-01T02:45:27.000Z</time>
      </trkpt>
      <trkpt lat="42.287683" lon="3.289486">
        <ele>29</ele>
        <time>1970-01-01T02:45:28.000Z</time>
      </trkpt>
      <trkpt lat="42.287702" lon="3.289464">
        <ele>29</ele>
        <time>1970-01-01T02:45:29.000Z</time>
      </trkpt>
      <trkpt lat="42.28772" lon="3.289441">
        <ele>29</ele>
        <time>1970-01-01T02:45:30.000Z</time>
      </trkpt>
      <trkpt lat="42.287739" lon="3.289419">
        <ele>29</ele>
        <time>1970-01-01T02:45:31.000Z</time>
      </trkpt>
      <trkpt lat="42.287758" lon="3.289396">
        <ele>29</ele>
        <time>1970-01-01T02:45:32.000Z</time>
      </trkpt>
      <trkpt lat="42.287777" lon="3.289374">
        <ele>29</ele>
        <time>1970-01-01T02:45:33.000Z</time>
      </trkpt>
      <trkpt lat="42.287796" lon="3.289351">
        <ele>29</ele>
        <time>1970-01-01T02:45:34.000Z</time>
      </trkpt>
      <trkpt lat="42.287849" lon="3.2893">
        <ele>29</ele>
        <time>1970-01-01T02:45:35.000Z</time>
      </trkpt>
      <trkpt lat="42.287875" lon="3.289277">
        <ele>29</ele>
        <time>1970-01-01T02:45:36.000Z</time>
      </trkpt>
      <trkpt lat="42.287901" lon="3.289253">
        <ele>29</ele>
        <time>1970-01-01T02:45:37.000Z</time>
      </trkpt>
      <trkpt lat="42.287927" lon="3.28923">
        <ele>29</ele>
        <time>1970-01-01T02:45:38.000Z</time>
      </trkpt>
      <trkpt lat="42.287954" lon="3.289207">
        <ele>29</ele>
        <time>1970-01-01T02:45:39.000Z</time>
      </trkpt>
      <trkpt lat="42.28798" lon="3.289184">
        <ele>29</ele>
        <time>1970-01-01T02:45:40.000Z</time>
      </trkpt>
      <trkpt lat="42.288006" lon="3.289161">
        <ele>29</ele>
        <time>1970-01-01T02:45:41.000Z</time>
      </trkpt>
      <trkpt lat="42.288032" lon="3.289137">
        <ele>29</ele>
        <time>1970-01-01T02:45:42.000Z</time>
      </trkpt>
      <trkpt lat="42.288058" lon="3.289114">
        <ele>29</ele>
        <time>1970-01-01T02:45:43.000Z</time>
      </trkpt>
      <trkpt lat="42.288084" lon="3.289091">
        <ele>28</ele>
        <time>1970-01-01T02:45:44.000Z</time>
      </trkpt>
      <trkpt lat="42.288135" lon="3.289045">
        <ele>28</ele>
        <time>1970-01-01T02:45:45.000Z</time>
      </trkpt>
      <trkpt lat="42.288158" lon="3.289022">
        <ele>28</ele>
        <time>1970-01-01T02:45:46.000Z</time>
      </trkpt>
      <trkpt lat="42.28818" lon="3.288998">
        <ele>28</ele>
        <time>1970-01-01T02:45:47.000Z</time>
      </trkpt>
      <trkpt lat="42.288203" lon="3.288974">
        <ele>28</ele>
        <time>1970-01-01T02:45:48.000Z</time>
      </trkpt>
      <trkpt lat="42.288226" lon="3.28895">
        <ele>28</ele>
        <time>1970-01-01T02:45:49.000Z</time>
      </trkpt>
      <trkpt lat="42.288249" lon="3.288927">
        <ele>28</ele>
        <time>1970-01-01T02:45:50.000Z</time>
      </trkpt>
      <trkpt lat="42.288272" lon="3.288903">
        <ele>28</ele>
        <time>1970-01-01T02:45:51.000Z</time>
      </trkpt>
      <trkpt lat="42.288295" lon="3.288879">
        <ele>28</ele>
        <time>1970-01-01T02:45:52.000Z</time>
      </trkpt>
      <trkpt lat="42.288317" lon="3.288855">
        <ele>28</ele>
        <time>1970-01-01T02:45:53.000Z</time>
      </trkpt>
      <trkpt lat="42.28834" lon="3.288832">
        <ele>28</ele>
        <time>1970-01-01T02:45:54.000Z</time>
      </trkpt>
      <trkpt lat="42.288363" lon="3.288808">
        <ele>29</ele>
        <time>1970-01-01T02:45:55.000Z</time>
      </trkpt>
      <trkpt lat="42.28841" lon="3.28876">
        <ele>29</ele>
        <time>1970-01-01T02:45:56.000Z</time>
      </trkpt>
      <trkpt lat="42.28843" lon="3.288736">
        <ele>29</ele>
        <time>1970-01-01T02:45:57.000Z</time>
      </trkpt>
      <trkpt lat="42.288451" lon="3.288713">
        <ele>29</ele>
        <time>1970-01-01T02:45:58.000Z</time>
      </trkpt>
      <trkpt lat="42.288472" lon="3.288689">
        <ele>29</ele>
        <time>1970-01-01T02:45:59.000Z</time>
      </trkpt>
      <trkpt lat="42.288493" lon="3.288666">
        <ele>29</ele>
        <time>1970-01-01T02:46:00.000Z</time>
      </trkpt>
      <trkpt lat="42.288513" lon="3.288643">
        <ele>29</ele>
        <time>1970-01-01T02:46:01.000Z</time>
      </trkpt>
      <trkpt lat="42.288534" lon="3.288619">
        <ele>29</ele>
        <time>1970-01-01T02:46:02.000Z</time>
      </trkpt>
      <trkpt lat="42.288555" lon="3.288596">
        <ele>29</ele>
        <time>1970-01-01T02:46:03.000Z</time>
      </trkpt>
      <trkpt lat="42.288575" lon="3.288572">
        <ele>29</ele>
        <time>1970-01-01T02:46:04.000Z</time>
      </trkpt>
      <trkpt lat="42.288596" lon="3.288549">
        <ele>30</ele>
        <time>1970-01-01T02:46:05.000Z</time>
      </trkpt>
      <trkpt lat="42.288643" lon="3.288497">
        <ele>30</ele>
        <time>1970-01-01T02:46:06.000Z</time>
      </trkpt>
      <trkpt lat="42.288668" lon="3.288471">
        <ele>30</ele>
        <time>1970-01-01T02:46:07.000Z</time>
      </trkpt>
      <trkpt lat="42.288692" lon="3.288445">
        <ele>30</ele>
        <time>1970-01-01T02:46:08.000Z</time>
      </trkpt>
      <trkpt lat="42.288717" lon="3.288419">
        <ele>30</ele>
        <time>1970-01-01T02:46:09.000Z</time>
      </trkpt>
      <trkpt lat="42.288742" lon="3.288394">
        <ele>30</ele>
        <time>1970-01-01T02:46:10.000Z</time>
      </trkpt>
      <trkpt lat="42.288767" lon="3.288368">
        <ele>30</ele>
        <time>1970-01-01T02:46:11.000Z</time>
      </trkpt>
      <trkpt lat="42.288791" lon="3.288342">
        <ele>30</ele>
        <time>1970-01-01T02:46:12.000Z</time>
      </trkpt>
      <trkpt lat="42.288816" lon="3.288316">
        <ele>30</ele>
        <time>1970-01-01T02:46:13.000Z</time>
      </trkpt>
      <trkpt lat="42.288841" lon="3.28829">
        <ele>31</ele>
        <time>1970-01-01T02:46:14.000Z</time>
      </trkpt>
      <trkpt lat="42.288896" lon="3.288228">
        <ele>31</ele>
        <time>1970-01-01T02:46:15.000Z</time>
      </trkpt>
      <trkpt lat="42.288922" lon="3.288197">
        <ele>31</ele>
        <time>1970-01-01T02:46:16.000Z</time>
      </trkpt>
      <trkpt lat="42.288947" lon="3.288167">
        <ele>31</ele>
        <time>1970-01-01T02:46:17.000Z</time>
      </trkpt>
      <trkpt lat="42.288973" lon="3.288136">
        <ele>31</ele>
        <time>1970-01-01T02:46:18.000Z</time>
      </trkpt>
      <trkpt lat="42.288998" lon="3.288105">
        <ele>31</ele>
        <time>1970-01-01T02:46:19.000Z</time>
      </trkpt>
      <trkpt lat="42.289023" lon="3.288074">
        <ele>31</ele>
        <time>1970-01-01T02:46:20.000Z</time>
      </trkpt>
      <trkpt lat="42.289049" lon="3.288043">
        <ele>31</ele>
        <time>1970-01-01T02:46:21.000Z</time>
      </trkpt>
      <trkpt lat="42.289074" lon="3.288013">
        <ele>31</ele>
        <time>1970-01-01T02:46:22.000Z</time>
      </trkpt>
      <trkpt lat="42.2891" lon="3.287982">
        <ele>31</ele>
        <time>1970-01-01T02:46:23.000Z</time>
      </trkpt>
      <trkpt lat="42.289125" lon="3.287951">
        <ele>32</ele>
        <time>1970-01-01T02:46:24.000Z</time>
      </trkpt>
      <trkpt lat="42.289181" lon="3.287889">
        <ele>32</ele>
        <time>1970-01-01T02:46:25.000Z</time>
      </trkpt>
      <trkpt lat="42.289208" lon="3.287861">
        <ele>32</ele>
        <time>1970-01-01T02:46:26.000Z</time>
      </trkpt>
      <trkpt lat="42.289236" lon="3.287832">
        <ele>32</ele>
        <time>1970-01-01T02:46:27.000Z</time>
      </trkpt>
      <trkpt lat="42.289263" lon="3.287803">
        <ele>32</ele>
        <time>1970-01-01T02:46:28.000Z</time>
      </trkpt>
      <trkpt lat="42.289291" lon="3.287775">
        <ele>32</ele>
        <time>1970-01-01T02:46:29.000Z</time>
      </trkpt>
      <trkpt lat="42.289319" lon="3.287746">
        <ele>32</ele>
        <time>1970-01-01T02:46:30.000Z</time>
      </trkpt>
      <trkpt lat="42.289346" lon="3.287717">
        <ele>32</ele>
        <time>1970-01-01T02:46:31.000Z</time>
      </trkpt>
      <trkpt lat="42.289374" lon="3.287688">
        <ele>32</ele>
        <time>1970-01-01T02:46:32.000Z</time>
      </trkpt>
      <trkpt lat="42.289401" lon="3.28766">
        <ele>32</ele>
        <time>1970-01-01T02:46:33.000Z</time>
      </trkpt>
      <trkpt lat="42.289429" lon="3.287631">
        <ele>32</ele>
        <time>1970-01-01T02:46:34.000Z</time>
      </trkpt>
      <trkpt lat="42.289496" lon="3.287556">
        <ele>32</ele>
        <time>1970-01-01T02:46:35.000Z</time>
      </trkpt>
      <trkpt lat="42.289529" lon="3.287518">
        <ele>32</ele>
        <time>1970-01-01T02:46:36.000Z</time>
      </trkpt>
      <trkpt lat="42.289561" lon="3.287479">
        <ele>32</ele>
        <time>1970-01-01T02:46:37.000Z</time>
      </trkpt>
      <trkpt lat="42.289594" lon="3.287441">
        <ele>32</ele>
        <time>1970-01-01T02:46:38.000Z</time>
      </trkpt>
      <trkpt lat="42.289627" lon="3.287402">
        <ele>32</ele>
        <time>1970-01-01T02:46:39.000Z</time>
      </trkpt>
      <trkpt lat="42.28966" lon="3.287363">
        <ele>32</ele>
        <time>1970-01-01T02:46:40.000Z</time>
      </trkpt>
      <trkpt lat="42.289693" lon="3.287325">
        <ele>32</ele>
        <time>1970-01-01T02:46:41.000Z</time>
      </trkpt>
      <trkpt lat="42.289725" lon="3.287286">
        <ele>32</ele>
        <time>1970-01-01T02:46:42.000Z</time>
      </trkpt>
      <trkpt lat="42.289758" lon="3.287248">
        <ele>32</ele>
        <time>1970-01-01T02:46:43.000Z</time>
      </trkpt>
      <trkpt lat="42.289791" lon="3.287209">
        <ele>31</ele>
        <time>1970-01-01T02:46:44.000Z</time>
      </trkpt>
      <trkpt lat="42.289866" lon="3.287127">
        <ele>31</ele>
        <time>1970-01-01T02:46:45.000Z</time>
      </trkpt>
      <trkpt lat="42.289904" lon="3.287088">
        <ele>31</ele>
        <time>1970-01-01T02:46:46.000Z</time>
      </trkpt>
      <trkpt lat="42.289941" lon="3.287048">
        <ele>31</ele>
        <time>1970-01-01T02:46:47.000Z</time>
      </trkpt>
      <trkpt lat="42.289979" lon="3.287009">
        <ele>31</ele>
        <time>1970-01-01T02:46:48.000Z</time>
      </trkpt>
      <trkpt lat="42.290017" lon="3.28697">
        <ele>31</ele>
        <time>1970-01-01T02:46:49.000Z</time>
      </trkpt>
      <trkpt lat="42.290055" lon="3.286931">
        <ele>31</ele>
        <time>1970-01-01T02:46:50.000Z</time>
      </trkpt>
      <trkpt lat="42.290093" lon="3.286892">
        <ele>31</ele>
        <time>1970-01-01T02:46:51.000Z</time>
      </trkpt>
      <trkpt lat="42.29013" lon="3.286852">
        <ele>31</ele>
        <time>1970-01-01T02:46:52.000Z</time>
      </trkpt>
      <trkpt lat="42.290168" lon="3.286813">
        <ele>31</ele>
        <time>1970-01-01T02:46:53.000Z</time>
      </trkpt>
      <trkpt lat="42.290206" lon="3.286774">
        <ele>31</ele>
        <time>1970-01-01T02:46:54.000Z</time>
      </trkpt>
      <trkpt lat="42.290285" lon="3.286672">
        <ele>31</ele>
        <time>1970-01-01T02:46:55.000Z</time>
      </trkpt>
      <trkpt lat="42.290317" lon="3.286618">
        <ele>31</ele>
        <time>1970-01-01T02:46:56.000Z</time>
      </trkpt>
      <trkpt lat="42.29035" lon="3.286565">
        <ele>31</ele>
        <time>1970-01-01T02:46:57.000Z</time>
      </trkpt>
      <trkpt lat="42.290383" lon="3.286512">
        <ele>31</ele>
        <time>1970-01-01T02:46:58.000Z</time>
      </trkpt>
      <trkpt lat="42.290416" lon="3.286459">
        <ele>31</ele>
        <time>1970-01-01T02:46:59.000Z</time>
      </trkpt>
      <trkpt lat="42.290448" lon="3.286405">
        <ele>31</ele>
        <time>1970-01-01T02:47:00.000Z</time>
      </trkpt>
      <trkpt lat="42.290481" lon="3.286352">
        <ele>31</ele>
        <time>1970-01-01T02:47:01.000Z</time>
      </trkpt>
      <trkpt lat="42.290514" lon="3.286299">
        <ele>31</ele>
        <time>1970-01-01T02:47:02.000Z</time>
      </trkpt>
      <trkpt lat="42.290546" lon="3.286245">
        <ele>31</ele>
        <time>1970-01-01T02:47:03.000Z</time>
      </trkpt>
      <trkpt lat="42.290579" lon="3.286192">
        <ele>30</ele>
        <time>1970-01-01T02:47:04.000Z</time>
      </trkpt>
      <trkpt lat="42.290631" lon="3.286086">
        <ele>30</ele>
        <time>1970-01-01T02:47:05.000Z</time>
      </trkpt>
      <trkpt lat="42.290654" lon="3.286037">
        <ele>30</ele>
        <time>1970-01-01T02:47:06.000Z</time>
      </trkpt>
      <trkpt lat="42.290677" lon="3.285987">
        <ele>30</ele>
        <time>1970-01-01T02:47:07.000Z</time>
      </trkpt>
      <trkpt lat="42.2907" lon="3.285938">
        <ele>30</ele>
        <time>1970-01-01T02:47:08.000Z</time>
      </trkpt>
      <trkpt lat="42.290723" lon="3.285889">
        <ele>30</ele>
        <time>1970-01-01T02:47:09.000Z</time>
      </trkpt>
      <trkpt lat="42.290745" lon="3.28584">
        <ele>30</ele>
        <time>1970-01-01T02:47:10.000Z</time>
      </trkpt>
      <trkpt lat="42.290768" lon="3.285791">
        <ele>30</ele>
        <time>1970-01-01T02:47:11.000Z</time>
      </trkpt>
      <trkpt lat="42.290791" lon="3.285741">
        <ele>30</ele>
        <time>1970-01-01T02:47:12.000Z</time>
      </trkpt>
      <trkpt lat="42.290814" lon="3.285692">
        <ele>30</ele>
        <time>1970-01-01T02:47:13.000Z</time>
      </trkpt>
      <trkpt lat="42.290837" lon="3.285643">
        <ele>30</ele>
        <time>1970-01-01T02:47:14.000Z</time>
      </trkpt>
      <trkpt lat="42.290877" lon="3.285559">
        <ele>30</ele>
        <time>1970-01-01T02:47:15.000Z</time>
      </trkpt>
      <trkpt lat="42.290891" lon="3.285527">
        <ele>30</ele>
        <time>1970-01-01T02:47:16.000Z</time>
      </trkpt>
      <trkpt lat="42.290906" lon="3.285496">
        <ele>30</ele>
        <time>1970-01-01T02:47:17.000Z</time>
      </trkpt>
      <trkpt lat="42.290921" lon="3.285464">
        <ele>30</ele>
        <time>1970-01-01T02:47:18.000Z</time>
      </trkpt>
      <trkpt lat="42.290936" lon="3.285433">
        <ele>30</ele>
        <time>1970-01-01T02:47:19.000Z</time>
      </trkpt>
      <trkpt lat="42.29095" lon="3.285402">
        <ele>30</ele>
        <time>1970-01-01T02:47:20.000Z</time>
      </trkpt>
      <trkpt lat="42.290965" lon="3.28537">
        <ele>30</ele>
        <time>1970-01-01T02:47:21.000Z</time>
      </trkpt>
      <trkpt lat="42.29098" lon="3.285339">
        <ele>30</ele>
        <time>1970-01-01T02:47:22.000Z</time>
      </trkpt>
      <trkpt lat="42.290994" lon="3.285307">
        <ele>30</ele>
        <time>1970-01-01T02:47:23.000Z</time>
      </trkpt>
      <trkpt lat="42.291009" lon="3.285276">
        <ele>31</ele>
        <time>1970-01-01T02:47:24.000Z</time>
      </trkpt>
      <trkpt lat="42.291038" lon="3.285208">
        <ele>31</ele>
        <time>1970-01-01T02:47:25.000Z</time>
      </trkpt>
      <trkpt lat="42.291055" lon="3.285171">
        <ele>31</ele>
        <time>1970-01-01T02:47:26.000Z</time>
      </trkpt>
      <trkpt lat="42.291071" lon="3.285133">
        <ele>31</ele>
        <time>1970-01-01T02:47:27.000Z</time>
      </trkpt>
      <trkpt lat="42.291088" lon="3.285096">
        <ele>31</ele>
        <time>1970-01-01T02:47:28.000Z</time>
      </trkpt>
      <trkpt lat="42.291105" lon="3.285059">
        <ele>31</ele>
        <time>1970-01-01T02:47:29.000Z</time>
      </trkpt>
      <trkpt lat="42.291122" lon="3.285022">
        <ele>31</ele>
        <time>1970-01-01T02:47:30.000Z</time>
      </trkpt>
      <trkpt lat="42.291139" lon="3.284985">
        <ele>31</ele>
        <time>1970-01-01T02:47:31.000Z</time>
      </trkpt>
      <trkpt lat="42.291155" lon="3.284947">
        <ele>31</ele>
        <time>1970-01-01T02:47:32.000Z</time>
      </trkpt>
      <trkpt lat="42.291172" lon="3.28491">
        <ele>31</ele>
        <time>1970-01-01T02:47:33.000Z</time>
      </trkpt>
      <trkpt lat="42.291189" lon="3.284873">
        <ele>34</ele>
        <time>1970-01-01T02:47:34.000Z</time>
      </trkpt>
      <trkpt lat="42.291227" lon="3.284794">
        <ele>34</ele>
        <time>1970-01-01T02:47:35.000Z</time>
      </trkpt>
      <trkpt lat="42.291246" lon="3.284757">
        <ele>34</ele>
        <time>1970-01-01T02:47:36.000Z</time>
      </trkpt>
      <trkpt lat="42.291264" lon="3.284721">
        <ele>34</ele>
        <time>1970-01-01T02:47:37.000Z</time>
      </trkpt>
      <trkpt lat="42.291283" lon="3.284685">
        <ele>34</ele>
        <time>1970-01-01T02:47:38.000Z</time>
      </trkpt>
      <trkpt lat="42.291301" lon="3.284649">
        <ele>34</ele>
        <time>1970-01-01T02:47:39.000Z</time>
      </trkpt>
      <trkpt lat="42.29132" lon="3.284612">
        <ele>34</ele>
        <time>1970-01-01T02:47:40.000Z</time>
      </trkpt>
      <trkpt lat="42.291338" lon="3.284576">
        <ele>34</ele>
        <time>1970-01-01T02:47:41.000Z</time>
      </trkpt>
      <trkpt lat="42.291357" lon="3.28454">
        <ele>34</ele>
        <time>1970-01-01T02:47:42.000Z</time>
      </trkpt>
      <trkpt lat="42.291375" lon="3.284504">
        <ele>34</ele>
        <time>1970-01-01T02:47:43.000Z</time>
      </trkpt>
      <trkpt lat="42.291394" lon="3.284467">
        <ele>34</ele>
        <time>1970-01-01T02:47:44.000Z</time>
      </trkpt>
      <trkpt lat="42.291412" lon="3.284431">
        <ele>35</ele>
        <time>1970-01-01T02:47:45.000Z</time>
      </trkpt>
      <trkpt lat="42.291458" lon="3.284359">
        <ele>35</ele>
        <time>1970-01-01T02:47:46.000Z</time>
      </trkpt>
      <trkpt lat="42.291482" lon="3.284327">
        <ele>35</ele>
        <time>1970-01-01T02:47:47.000Z</time>
      </trkpt>
      <trkpt lat="42.291506" lon="3.284295">
        <ele>35</ele>
        <time>1970-01-01T02:47:48.000Z</time>
      </trkpt>
      <trkpt lat="42.29153" lon="3.284263">
        <ele>35</ele>
        <time>1970-01-01T02:47:49.000Z</time>
      </trkpt>
      <trkpt lat="42.291555" lon="3.284232">
        <ele>35</ele>
        <time>1970-01-01T02:47:50.000Z</time>
      </trkpt>
      <trkpt lat="42.291579" lon="3.2842">
        <ele>35</ele>
        <time>1970-01-01T02:47:51.000Z</time>
      </trkpt>
      <trkpt lat="42.291603" lon="3.284168">
        <ele>35</ele>
        <time>1970-01-01T02:47:52.000Z</time>
      </trkpt>
      <trkpt lat="42.291627" lon="3.284136">
        <ele>35</ele>
        <time>1970-01-01T02:47:53.000Z</time>
      </trkpt>
      <trkpt lat="42.291651" lon="3.284104">
        <ele>36</ele>
        <time>1970-01-01T02:47:54.000Z</time>
      </trkpt>
      <trkpt lat="42.291702" lon="3.284053">
        <ele>36</ele>
        <time>1970-01-01T02:47:55.000Z</time>
      </trkpt>
      <trkpt lat="42.291724" lon="3.284028">
        <ele>36</ele>
        <time>1970-01-01T02:47:56.000Z</time>
      </trkpt>
      <trkpt lat="42.291745" lon="3.284004">
        <ele>36</ele>
        <time>1970-01-01T02:47:57.000Z</time>
      </trkpt>
      <trkpt lat="42.291766" lon="3.283979">
        <ele>36</ele>
        <time>1970-01-01T02:47:58.000Z</time>
      </trkpt>
      <trkpt lat="42.291788" lon="3.283955">
        <ele>36</ele>
        <time>1970-01-01T02:47:59.000Z</time>
      </trkpt>
      <trkpt lat="42.291809" lon="3.283931">
        <ele>36</ele>
        <time>1970-01-01T02:48:00.000Z</time>
      </trkpt>
      <trkpt lat="42.29183" lon="3.283906">
        <ele>36</ele>
        <time>1970-01-01T02:48:01.000Z</time>
      </trkpt>
      <trkpt lat="42.291851" lon="3.283882">
        <ele>36</ele>
        <time>1970-01-01T02:48:02.000Z</time>
      </trkpt>
      <trkpt lat="42.291873" lon="3.283857">
        <ele>36</ele>
        <time>1970-01-01T02:48:03.000Z</time>
      </trkpt>
      <trkpt lat="42.291894" lon="3.283833">
        <ele>36</ele>
        <time>1970-01-01T02:48:04.000Z</time>
      </trkpt>
      <trkpt lat="42.291913" lon="3.283778">
        <ele>36</ele>
        <time>1970-01-01T02:48:06.000Z</time>
      </trkpt>
      <trkpt lat="42.291908" lon="3.283756">
        <ele>36</ele>
        <time>1970-01-01T02:48:07.000Z</time>
      </trkpt>
      <trkpt lat="42.291903" lon="3.283734">
        <ele>36</ele>
        <time>1970-01-01T02:48:08.000Z</time>
      </trkpt>
      <trkpt lat="42.291898" lon="3.283712">
        <ele>36</ele>
        <time>1970-01-01T02:48:09.000Z</time>
      </trkpt>
      <trkpt lat="42.291893" lon="3.283691">
        <ele>36</ele>
        <time>1970-01-01T02:48:10.000Z</time>
      </trkpt>
      <trkpt lat="42.291888" lon="3.283669">
        <ele>36</ele>
        <time>1970-01-01T02:48:11.000Z</time>
      </trkpt>
      <trkpt lat="42.291883" lon="3.283647">
        <ele>36</ele>
        <time>1970-01-01T02:48:12.000Z</time>
      </trkpt>
      <trkpt lat="42.291878" lon="3.283625">
        <ele>36</ele>
        <time>1970-01-01T02:48:13.000Z</time>
      </trkpt>
      <trkpt lat="42.291873" lon="3.283603">
        <ele>35</ele>
        <time>1970-01-01T02:48:14.000Z</time>
      </trkpt>
      <trkpt lat="42.291849" lon="3.28354">
        <ele>35</ele>
        <time>1970-01-01T02:48:15.000Z</time>
      </trkpt>
      <trkpt lat="42.291841" lon="3.283505">
        <ele>35</ele>
        <time>1970-01-01T02:48:16.000Z</time>
      </trkpt>
      <trkpt lat="42.291833" lon="3.28347">
        <ele>35</ele>
        <time>1970-01-01T02:48:17.000Z</time>
      </trkpt>
      <trkpt lat="42.291825" lon="3.283435">
        <ele>35</ele>
        <time>1970-01-01T02:48:18.000Z</time>
      </trkpt>
      <trkpt lat="42.291817" lon="3.2834">
        <ele>35</ele>
        <time>1970-01-01T02:48:19.000Z</time>
      </trkpt>
      <trkpt lat="42.291808" lon="3.283365">
        <ele>35</ele>
        <time>1970-01-01T02:48:20.000Z</time>
      </trkpt>
      <trkpt lat="42.2918" lon="3.28333">
        <ele>35</ele>
        <time>1970-01-01T02:48:21.000Z</time>
      </trkpt>
      <trkpt lat="42.291792" lon="3.283295">
        <ele>35</ele>
        <time>1970-01-01T02:48:22.000Z</time>
      </trkpt>
      <trkpt lat="42.291784" lon="3.28326">
        <ele>35</ele>
        <time>1970-01-01T02:48:23.000Z</time>
      </trkpt>
      <trkpt lat="42.291776" lon="3.283225">
        <ele>35</ele>
        <time>1970-01-01T02:48:24.000Z</time>
      </trkpt>
      <trkpt lat="42.29177" lon="3.28314">
        <ele>35</ele>
        <time>1970-01-01T02:48:25.000Z</time>
      </trkpt>
      <trkpt lat="42.291768" lon="3.283102">
        <ele>35</ele>
        <time>1970-01-01T02:48:26.000Z</time>
      </trkpt>
      <trkpt lat="42.291767" lon="3.283063">
        <ele>35</ele>
        <time>1970-01-01T02:48:27.000Z</time>
      </trkpt>
      <trkpt lat="42.291765" lon="3.283024">
        <ele>35</ele>
        <time>1970-01-01T02:48:28.000Z</time>
      </trkpt>
      <trkpt lat="42.291763" lon="3.282985">
        <ele>35</ele>
        <time>1970-01-01T02:48:29.000Z</time>
      </trkpt>
      <trkpt lat="42.291761" lon="3.282947">
        <ele>35</ele>
        <time>1970-01-01T02:48:30.000Z</time>
      </trkpt>
      <trkpt lat="42.291759" lon="3.282908">
        <ele>35</ele>
        <time>1970-01-01T02:48:31.000Z</time>
      </trkpt>
      <trkpt lat="42.291758" lon="3.282869">
        <ele>35</ele>
        <time>1970-01-01T02:48:32.000Z</time>
      </trkpt>
      <trkpt lat="42.291756" lon="3.282831">
        <ele>35</ele>
        <time>1970-01-01T02:48:33.000Z</time>
      </trkpt>
      <trkpt lat="42.291754" lon="3.282792">
        <ele>37</ele>
        <time>1970-01-01T02:48:34.000Z</time>
      </trkpt>
      <trkpt lat="42.291748" lon="3.282707">
        <ele>37</ele>
        <time>1970-01-01T02:48:35.000Z</time>
      </trkpt>
      <trkpt lat="42.291744" lon="3.282666">
        <ele>37</ele>
        <time>1970-01-01T02:48:36.000Z</time>
      </trkpt>
      <trkpt lat="42.291741" lon="3.282624">
        <ele>37</ele>
        <time>1970-01-01T02:48:37.000Z</time>
      </trkpt>
      <trkpt lat="42.291737" lon="3.282583">
        <ele>37</ele>
        <time>1970-01-01T02:48:38.000Z</time>
      </trkpt>
      <trkpt lat="42.291734" lon="3.282542">
        <ele>37</ele>
        <time>1970-01-01T02:48:39.000Z</time>
      </trkpt>
      <trkpt lat="42.29173" lon="3.282501">
        <ele>37</ele>
        <time>1970-01-01T02:48:40.000Z</time>
      </trkpt>
      <trkpt lat="42.291727" lon="3.28246">
        <ele>37</ele>
        <time>1970-01-01T02:48:41.000Z</time>
      </trkpt>
      <trkpt lat="42.291723" lon="3.282418">
        <ele>37</ele>
        <time>1970-01-01T02:48:42.000Z</time>
      </trkpt>
      <trkpt lat="42.29172" lon="3.282377">
        <ele>37</ele>
        <time>1970-01-01T02:48:43.000Z</time>
      </trkpt>
      <trkpt lat="42.291716" lon="3.282336">
        <ele>37</ele>
        <time>1970-01-01T02:48:44.000Z</time>
      </trkpt>
      <trkpt lat="42.291711" lon="3.282293">
        <ele>37</ele>
        <time>1970-01-01T02:48:45.000Z</time>
      </trkpt>
      <trkpt lat="42.291707" lon="3.282255">
        <ele>37</ele>
        <time>1970-01-01T02:48:46.000Z</time>
      </trkpt>
      <trkpt lat="42.291702" lon="3.28222">
        <ele>37</ele>
        <time>1970-01-01T02:48:47.000Z</time>
      </trkpt>
      <trkpt lat="42.291696" lon="3.282192">
        <ele>37</ele>
        <time>1970-01-01T02:48:48.000Z</time>
      </trkpt>
      <trkpt lat="42.291684" lon="3.28216">
        <ele>37</ele>
        <time>1970-01-01T02:48:50.000Z</time>
      </trkpt>
      <trkpt lat="42.291684" lon="3.28216">
        <ele>38</ele>
        <time>1970-01-01T02:48:54.000Z</time>
      </trkpt>
      <trkpt lat="42.291682" lon="3.282188">
        <ele>38</ele>
        <time>1970-01-01T02:48:55.000Z</time>
      </trkpt>
      <trkpt lat="42.291687" lon="3.282221">
        <ele>40</ele>
        <time>1970-01-01T02:59:46.000Z</time>
      </trkpt>
      <trkpt lat="42.291693" lon="3.282254">
        <ele>40</ele>
        <time>1970-01-01T02:59:47.000Z</time>
      </trkpt>
      <trkpt lat="42.291698" lon="3.282287">
        <ele>40</ele>
        <time>1970-01-01T02:59:48.000Z</time>
      </trkpt>
      <trkpt lat="42.291703" lon="3.28232">
        <ele>40</ele>
        <time>1970-01-01T02:59:49.000Z</time>
      </trkpt>
      <trkpt lat="42.291708" lon="3.282354">
        <ele>40</ele>
        <time>1970-01-01T02:59:50.000Z</time>
      </trkpt>
      <trkpt lat="42.291713" lon="3.282387">
        <ele>40</ele>
        <time>1970-01-01T02:59:51.000Z</time>
      </trkpt>
      <trkpt lat="42.291718" lon="3.28242">
        <ele>40</ele>
        <time>1970-01-01T02:59:52.000Z</time>
      </trkpt>
      <trkpt lat="42.291724" lon="3.282453">
        <ele>40</ele>
        <time>1970-01-01T02:59:53.000Z</time>
      </trkpt>
      <trkpt lat="42.291729" lon="3.282486">
        <ele>40</ele>
        <time>1970-01-01T02:59:54.000Z</time>
      </trkpt>
      <trkpt lat="42.291734" lon="3.282519">
        <ele>40</ele>
        <time>1970-01-01T02:59:55.000Z</time>
      </trkpt>
      <trkpt lat="42.291737" lon="3.28258">
        <ele>40</ele>
        <time>1970-01-01T02:59:56.000Z</time>
      </trkpt>
      <trkpt lat="42.291736" lon="3.282607">
        <ele>40</ele>
        <time>1970-01-01T02:59:57.000Z</time>
      </trkpt>
      <trkpt lat="42.291734" lon="3.282633">
        <ele>40</ele>
        <time>1970-01-01T02:59:58.000Z</time>
      </trkpt>
      <trkpt lat="42.291732" lon="3.282659">
        <ele>40</ele>
        <time>1970-01-01T02:59:59.000Z</time>
      </trkpt>
      <trkpt lat="42.291731" lon="3.282686">
        <ele>40</ele>
        <time>1970-01-01T03:00:00.000Z</time>
      </trkpt>
      <trkpt lat="42.291729" lon="3.282712">
        <ele>40</ele>
        <time>1970-01-01T03:00:02.000Z</time>
      </trkpt>
      <trkpt lat="42.291727" lon="3.282738">
        <ele>40</ele>
        <time>1970-01-01T03:00:03.000Z</time>
      </trkpt>
      <trkpt lat="42.291725" lon="3.282764">
        <ele>40</ele>
        <time>1970-01-01T03:00:04.000Z</time>
      </trkpt>
      <trkpt lat="42.291724" lon="3.282791">
        <ele>40</ele>
        <time>1970-01-01T03:00:05.000Z</time>
      </trkpt>
      <trkpt lat="42.291722" lon="3.282817">
        <ele>39</ele>
        <time>1970-01-01T03:00:06.000Z</time>
      </trkpt>
      <trkpt lat="42.291723" lon="3.28288">
        <ele>39</ele>
        <time>1970-01-01T03:00:07.000Z</time>
      </trkpt>
      <trkpt lat="42.291724" lon="3.282914">
        <ele>39</ele>
        <time>1970-01-01T03:00:08.000Z</time>
      </trkpt>
      <trkpt lat="42.291725" lon="3.282947">
        <ele>39</ele>
        <time>1970-01-01T03:00:09.000Z</time>
      </trkpt>
      <trkpt lat="42.291726" lon="3.282981">
        <ele>39</ele>
        <time>1970-01-01T03:00:10.000Z</time>
      </trkpt>
      <trkpt lat="42.291728" lon="3.283015">
        <ele>39</ele>
        <time>1970-01-01T03:00:11.000Z</time>
      </trkpt>
      <trkpt lat="42.291729" lon="3.283049">
        <ele>39</ele>
        <time>1970-01-01T03:00:12.000Z</time>
      </trkpt>
      <trkpt lat="42.29173" lon="3.283082">
        <ele>39</ele>
        <time>1970-01-01T03:00:13.000Z</time>
      </trkpt>
      <trkpt lat="42.291731" lon="3.283116">
        <ele>39</ele>
        <time>1970-01-01T03:00:14.000Z</time>
      </trkpt>
      <trkpt lat="42.291732" lon="3.28315">
        <ele>38</ele>
        <time>1970-01-01T03:00:15.000Z</time>
      </trkpt>
      <trkpt lat="42.291743" lon="3.283231">
        <ele>38</ele>
        <time>1970-01-01T03:00:16.000Z</time>
      </trkpt>
      <trkpt lat="42.291752" lon="3.283268">
        <ele>38</ele>
        <time>1970-01-01T03:00:17.000Z</time>
      </trkpt>
      <trkpt lat="42.291762" lon="3.283306">
        <ele>38</ele>
        <time>1970-01-01T03:00:18.000Z</time>
      </trkpt>
      <trkpt lat="42.291772" lon="3.283343">
        <ele>38</ele>
        <time>1970-01-01T03:00:19.000Z</time>
      </trkpt>
      <trkpt lat="42.291782" lon="3.283381">
        <ele>38</ele>
        <time>1970-01-01T03:00:20.000Z</time>
      </trkpt>
      <trkpt lat="42.291791" lon="3.283419">
        <ele>38</ele>
        <time>1970-01-01T03:00:21.000Z</time>
      </trkpt>
      <trkpt lat="42.291801" lon="3.283456">
        <ele>38</ele>
        <time>1970-01-01T03:00:22.000Z</time>
      </trkpt>
      <trkpt lat="42.291811" lon="3.283494">
        <ele>38</ele>
        <time>1970-01-01T03:00:23.000Z</time>
      </trkpt>
      <trkpt lat="42.29182" lon="3.283531">
        <ele>38</ele>
        <time>1970-01-01T03:00:24.000Z</time>
      </trkpt>
      <trkpt lat="42.29183" lon="3.283569">
        <ele>38</ele>
        <time>1970-01-01T03:00:25.000Z</time>
      </trkpt>
      <trkpt lat="42.291875" lon="3.283639">
        <ele>38</ele>
        <time>1970-01-01T03:00:26.000Z</time>
      </trkpt>
      <trkpt lat="42.291899" lon="3.283671">
        <ele>38</ele>
        <time>1970-01-01T03:00:27.000Z</time>
      </trkpt>
      <trkpt lat="42.291924" lon="3.283702">
        <ele>38</ele>
        <time>1970-01-01T03:00:28.000Z</time>
      </trkpt>
      <trkpt lat="42.291948" lon="3.283734">
        <ele>38</ele>
        <time>1970-01-01T03:00:29.000Z</time>
      </trkpt>
      <trkpt lat="42.291972" lon="3.283765">
        <ele>38</ele>
        <time>1970-01-01T03:00:30.000Z</time>
      </trkpt>
      <trkpt lat="42.291996" lon="3.283796">
        <ele>38</ele>
        <time>1970-01-01T03:00:31.000Z</time>
      </trkpt>
      <trkpt lat="42.29202" lon="3.283828">
        <ele>38</ele>
        <time>1970-01-01T03:00:32.000Z</time>
      </trkpt>
      <trkpt lat="42.292045" lon="3.283859">
        <ele>38</ele>
        <time>1970-01-01T03:00:33.000Z</time>
      </trkpt>
      <trkpt lat="42.292069" lon="3.283891">
        <ele>38</ele>
        <time>1970-01-01T03:00:34.000Z</time>
      </trkpt>
      <trkpt lat="42.292093" lon="3.283922">
        <ele>38</ele>
        <time>1970-01-01T03:00:35.000Z</time>
      </trkpt>
      <trkpt lat="42.292142" lon="3.28397">
        <ele>38</ele>
        <time>1970-01-01T03:00:36.000Z</time>
      </trkpt>
      <trkpt lat="42.292163" lon="3.28399">
        <ele>38</ele>
        <time>1970-01-01T03:00:37.000Z</time>
      </trkpt>
      <trkpt lat="42.292185" lon="3.284011">
        <ele>38</ele>
        <time>1970-01-01T03:00:38.000Z</time>
      </trkpt>
      <trkpt lat="42.292206" lon="3.284032">
        <ele>38</ele>
        <time>1970-01-01T03:00:39.000Z</time>
      </trkpt>
      <trkpt lat="42.292228" lon="3.284052">
        <ele>38</ele>
        <time>1970-01-01T03:00:40.000Z</time>
      </trkpt>
      <trkpt lat="42.292249" lon="3.284073">
        <ele>38</ele>
        <time>1970-01-01T03:00:41.000Z</time>
      </trkpt>
      <trkpt lat="42.292271" lon="3.284094">
        <ele>38</ele>
        <time>1970-01-01T03:00:42.000Z</time>
      </trkpt>
      <trkpt lat="42.292292" lon="3.284114">
        <ele>38</ele>
        <time>1970-01-01T03:00:44.000Z</time>
      </trkpt>
      <trkpt lat="42.292314" lon="3.284135">
        <ele>38</ele>
        <time>1970-01-01T03:00:45.000Z</time>
      </trkpt>
      <trkpt lat="42.292353" lon="3.284157">
        <ele>38</ele>
        <time>1970-01-01T03:00:46.000Z</time>
      </trkpt>
      <trkpt lat="42.292376" lon="3.284167">
        <ele>38</ele>
        <time>1970-01-01T03:00:47.000Z</time>
      </trkpt>
      <trkpt lat="42.292398" lon="3.284178">
        <ele>38</ele>
        <time>1970-01-01T03:00:48.000Z</time>
      </trkpt>
      <trkpt lat="42.29242" lon="3.284188">
        <ele>38</ele>
        <time>1970-01-01T03:00:49.000Z</time>
      </trkpt>
      <trkpt lat="42.292443" lon="3.284199">
        <ele>38</ele>
        <time>1970-01-01T03:00:50.000Z</time>
      </trkpt>
      <trkpt lat="42.292465" lon="3.28421">
        <ele>38</ele>
        <time>1970-01-01T03:00:51.000Z</time>
      </trkpt>
      <trkpt lat="42.292487" lon="3.28422">
        <ele>38</ele>
        <time>1970-01-01T03:00:52.000Z</time>
      </trkpt>
      <trkpt lat="42.292509" lon="3.284231">
        <ele>38</ele>
        <time>1970-01-01T03:00:53.000Z</time>
      </trkpt>
      <trkpt lat="42.292532" lon="3.284241">
        <ele>38</ele>
        <time>1970-01-01T03:00:54.000Z</time>
      </trkpt>
      <trkpt lat="42.292554" lon="3.284252">
        <ele>36</ele>
        <time>1970-01-01T03:00:55.000Z</time>
      </trkpt>
      <trkpt lat="42.292588" lon="3.284274">
        <ele>36</ele>
        <time>1970-01-01T03:00:56.000Z</time>
      </trkpt>
      <trkpt lat="42.292605" lon="3.284293">
        <ele>36</ele>
        <time>1970-01-01T03:00:57.000Z</time>
      </trkpt>
      <trkpt lat="42.292623" lon="3.284313">
        <ele>36</ele>
        <time>1970-01-01T03:00:58.000Z</time>
      </trkpt>
      <trkpt lat="42.29264" lon="3.284332">
        <ele>36</ele>
        <time>1970-01-01T03:00:59.000Z</time>
      </trkpt>
      <trkpt lat="42.292658" lon="3.284352">
        <ele>36</ele>
        <time>1970-01-01T03:01:00.000Z</time>
      </trkpt>
      <trkpt lat="42.292675" lon="3.284372">
        <ele>36</ele>
        <time>1970-01-01T03:01:01.000Z</time>
      </trkpt>
      <trkpt lat="42.292693" lon="3.284391">
        <ele>36</ele>
        <time>1970-01-01T03:01:02.000Z</time>
      </trkpt>
      <trkpt lat="42.29271" lon="3.284411">
        <ele>36</ele>
        <time>1970-01-01T03:01:03.000Z</time>
      </trkpt>
      <trkpt lat="42.292728" lon="3.28443">
        <ele>36</ele>
        <time>1970-01-01T03:01:04.000Z</time>
      </trkpt>
      <trkpt lat="42.292745" lon="3.28445">
        <ele>30</ele>
        <time>1970-01-01T03:01:05.000Z</time>
      </trkpt>
      <trkpt lat="42.292777" lon="3.284508">
        <ele>30</ele>
        <time>1970-01-01T03:01:07.000Z</time>
      </trkpt>
      <trkpt lat="42.292794" lon="3.284524">
        <ele>30</ele>
        <time>1970-01-01T03:01:09.000Z</time>
      </trkpt>
      <trkpt lat="42.292812" lon="3.284541">
        <ele>30</ele>
        <time>1970-01-01T03:01:11.000Z</time>
      </trkpt>
      <trkpt lat="42.29283" lon="3.284558">
        <ele>30</ele>
        <time>1970-01-01T03:01:13.000Z</time>
      </trkpt>
      <trkpt lat="42.292847" lon="3.284574">
        <ele>30</ele>
        <time>1970-01-01T03:01:14.000Z</time>
      </trkpt>
      <trkpt lat="42.292865" lon="3.284591">
        <ele>29</ele>
        <time>1970-01-01T03:01:15.000Z</time>
      </trkpt>
      <trkpt lat="42.292942" lon="3.284628">
        <ele>29</ele>
        <time>1970-01-01T03:01:16.000Z</time>
      </trkpt>
      <trkpt lat="42.292985" lon="3.28465">
        <ele>29</ele>
        <time>1970-01-01T03:01:17.000Z</time>
      </trkpt>
      <trkpt lat="42.293028" lon="3.284671">
        <ele>29</ele>
        <time>1970-01-01T03:01:18.000Z</time>
      </trkpt>
      <trkpt lat="42.293071" lon="3.284693">
        <ele>29</ele>
        <time>1970-01-01T03:01:19.000Z</time>
      </trkpt>
      <trkpt lat="42.293114" lon="3.284714">
        <ele>29</ele>
        <time>1970-01-01T03:01:20.000Z</time>
      </trkpt>
      <trkpt lat="42.293156" lon="3.284736">
        <ele>29</ele>
        <time>1970-01-01T03:01:21.000Z</time>
      </trkpt>
      <trkpt lat="42.293199" lon="3.284757">
        <ele>29</ele>
        <time>1970-01-01T03:01:22.000Z</time>
      </trkpt>
      <trkpt lat="42.293242" lon="3.284779">
        <ele>29</ele>
        <time>1970-01-01T03:01:23.000Z</time>
      </trkpt>
      <trkpt lat="42.293285" lon="3.2848">
        <ele>29</ele>
        <time>1970-01-01T03:01:24.000Z</time>
      </trkpt>
      <trkpt lat="42.293328" lon="3.284822">
        <ele>29</ele>
        <time>1970-01-01T03:01:25.000Z</time>
      </trkpt>
      <trkpt lat="42.293409" lon="3.284896">
        <ele>29</ele>
        <time>1970-01-01T03:01:26.000Z</time>
      </trkpt>
      <trkpt lat="42.293443" lon="3.284933">
        <ele>29</ele>
        <time>1970-01-01T03:01:27.000Z</time>
      </trkpt>
      <trkpt lat="42.293477" lon="3.284969">
        <ele>29</ele>
        <time>1970-01-01T03:01:28.000Z</time>
      </trkpt>
      <trkpt lat="42.293511" lon="3.285006">
        <ele>29</ele>
        <time>1970-01-01T03:01:29.000Z</time>
      </trkpt>
      <trkpt lat="42.293546" lon="3.285042">
        <ele>29</ele>
        <time>1970-01-01T03:01:30.000Z</time>
      </trkpt>
      <trkpt lat="42.29358" lon="3.285079">
        <ele>29</ele>
        <time>1970-01-01T03:01:31.000Z</time>
      </trkpt>
      <trkpt lat="42.293614" lon="3.285115">
        <ele>29</ele>
        <time>1970-01-01T03:01:32.000Z</time>
      </trkpt>
      <trkpt lat="42.293648" lon="3.285152">
        <ele>29</ele>
        <time>1970-01-01T03:01:33.000Z</time>
      </trkpt>
      <trkpt lat="42.293682" lon="3.285188">
        <ele>29</ele>
        <time>1970-01-01T03:01:34.000Z</time>
      </trkpt>
      <trkpt lat="42.293716" lon="3.285225">
        <ele>20</ele>
        <time>1970-01-01T03:01:35.000Z</time>
      </trkpt>
      <trkpt lat="42.293775" lon="3.285249">
        <ele>20</ele>
        <time>1970-01-01T03:01:36.000Z</time>
      </trkpt>
      <trkpt lat="42.293804" lon="3.285241">
        <ele>20</ele>
        <time>1970-01-01T03:01:37.000Z</time>
      </trkpt>
      <trkpt lat="42.293833" lon="3.285234">
        <ele>20</ele>
        <time>1970-01-01T03:01:38.000Z</time>
      </trkpt>
      <trkpt lat="42.293862" lon="3.285226">
        <ele>20</ele>
        <time>1970-01-01T03:01:39.000Z</time>
      </trkpt>
      <trkpt lat="42.293891" lon="3.285218">
        <ele>20</ele>
        <time>1970-01-01T03:01:40.000Z</time>
      </trkpt>
      <trkpt lat="42.293919" lon="3.28521">
        <ele>20</ele>
        <time>1970-01-01T03:01:41.000Z</time>
      </trkpt>
      <trkpt lat="42.293948" lon="3.285202">
        <ele>20</ele>
        <time>1970-01-01T03:01:42.000Z</time>
      </trkpt>
      <trkpt lat="42.293977" lon="3.285195">
        <ele>20</ele>
        <time>1970-01-01T03:01:43.000Z</time>
      </trkpt>
      <trkpt lat="42.294006" lon="3.285187">
        <ele>20</ele>
        <time>1970-01-01T03:01:44.000Z</time>
      </trkpt>
      <trkpt lat="42.294035" lon="3.285179">
        <ele>19</ele>
        <time>1970-01-01T03:01:45.000Z</time>
      </trkpt>
      <trkpt lat="42.294094" lon="3.285126">
        <ele>19</ele>
        <time>1970-01-01T03:01:46.000Z</time>
      </trkpt>
      <trkpt lat="42.294123" lon="3.285095">
        <ele>19</ele>
        <time>1970-01-01T03:01:47.000Z</time>
      </trkpt>
      <trkpt lat="42.294153" lon="3.285065">
        <ele>19</ele>
        <time>1970-01-01T03:01:48.000Z</time>
      </trkpt>
      <trkpt lat="42.294182" lon="3.285034">
        <ele>19</ele>
        <time>1970-01-01T03:01:49.000Z</time>
      </trkpt>
      <trkpt lat="42.294212" lon="3.285003">
        <ele>19</ele>
        <time>1970-01-01T03:01:50.000Z</time>
      </trkpt>
      <trkpt lat="42.294241" lon="3.284972">
        <ele>19</ele>
        <time>1970-01-01T03:01:51.000Z</time>
      </trkpt>
      <trkpt lat="42.294271" lon="3.284941">
        <ele>19</ele>
        <time>1970-01-01T03:01:52.000Z</time>
      </trkpt>
      <trkpt lat="42.2943" lon="3.284911">
        <ele>19</ele>
        <time>1970-01-01T03:01:53.000Z</time>
      </trkpt>
      <trkpt lat="42.29433" lon="3.28488">
        <ele>19</ele>
        <time>1970-01-01T03:01:54.000Z</time>
      </trkpt>
      <trkpt lat="42.294359" lon="3.284849">
        <ele>18</ele>
        <time>1970-01-01T03:01:55.000Z</time>
      </trkpt>
      <trkpt lat="42.294394" lon="3.284854">
        <ele>18</ele>
        <time>1970-01-01T03:01:56.000Z</time>
      </trkpt>
      <trkpt lat="42.294399" lon="3.28488">
        <ele>18</ele>
        <time>1970-01-01T03:01:57.000Z</time>
      </trkpt>
      <trkpt lat="42.294405" lon="3.284905">
        <ele>18</ele>
        <time>1970-01-01T03:01:58.000Z</time>
      </trkpt>
      <trkpt lat="42.294411" lon="3.284931">
        <ele>18</ele>
        <time>1970-01-01T03:01:59.000Z</time>
      </trkpt>
      <trkpt lat="42.294417" lon="3.284956">
        <ele>18</ele>
        <time>1970-01-01T03:02:00.000Z</time>
      </trkpt>
      <trkpt lat="42.294422" lon="3.284982">
        <ele>18</ele>
        <time>1970-01-01T03:02:01.000Z</time>
      </trkpt>
      <trkpt lat="42.294428" lon="3.285007">
        <ele>18</ele>
        <time>1970-01-01T03:02:02.000Z</time>
      </trkpt>
      <trkpt lat="42.294434" lon="3.285033">
        <ele>18</ele>
        <time>1970-01-01T03:02:03.000Z</time>
      </trkpt>
      <trkpt lat="42.294439" lon="3.285058">
        <ele>18</ele>
        <time>1970-01-01T03:02:04.000Z</time>
      </trkpt>
      <trkpt lat="42.294445" lon="3.285084">
        <ele>16</ele>
        <time>1970-01-01T03:02:05.000Z</time>
      </trkpt>
      <trkpt lat="42.294412" lon="3.28515">
        <ele>16</ele>
        <time>1970-01-01T03:02:06.000Z</time>
      </trkpt>
      <trkpt lat="42.294393" lon="3.285183">
        <ele>16</ele>
        <time>1970-01-01T03:02:07.000Z</time>
      </trkpt>
      <trkpt lat="42.294373" lon="3.285215">
        <ele>16</ele>
        <time>1970-01-01T03:02:08.000Z</time>
      </trkpt>
      <trkpt lat="42.294353" lon="3.285248">
        <ele>16</ele>
        <time>1970-01-01T03:02:09.000Z</time>
      </trkpt>
      <trkpt lat="42.294334" lon="3.285281">
        <ele>16</ele>
        <time>1970-01-01T03:02:10.000Z</time>
      </trkpt>
      <trkpt lat="42.294314" lon="3.285314">
        <ele>16</ele>
        <time>1970-01-01T03:02:11.000Z</time>
      </trkpt>
      <trkpt lat="42.294294" lon="3.285347">
        <ele>16</ele>
        <time>1970-01-01T03:02:12.000Z</time>
      </trkpt>
      <trkpt lat="42.294274" lon="3.285379">
        <ele>16</ele>
        <time>1970-01-01T03:02:13.000Z</time>
      </trkpt>
      <trkpt lat="42.294255" lon="3.285412">
        <ele>16</ele>
        <time>1970-01-01T03:02:14.000Z</time>
      </trkpt>
      <trkpt lat="42.294235" lon="3.285445">
        <ele>12</ele>
        <time>1970-01-01T03:02:15.000Z</time>
      </trkpt>
      <trkpt lat="42.294201" lon="3.285497">
        <ele>12</ele>
        <time>1970-01-01T03:02:16.000Z</time>
      </trkpt>
      <trkpt lat="42.294186" lon="3.285519">
        <ele>12</ele>
        <time>1970-01-01T03:02:17.000Z</time>
      </trkpt>
      <trkpt lat="42.294172" lon="3.28554">
        <ele>12</ele>
        <time>1970-01-01T03:02:18.000Z</time>
      </trkpt>
      <trkpt lat="42.294157" lon="3.285561">
        <ele>12</ele>
        <time>1970-01-01T03:02:19.000Z</time>
      </trkpt>
      <trkpt lat="42.294143" lon="3.285583">
        <ele>12</ele>
        <time>1970-01-01T03:02:20.000Z</time>
      </trkpt>
      <trkpt lat="42.294129" lon="3.285604">
        <ele>12</ele>
        <time>1970-01-01T03:02:21.000Z</time>
      </trkpt>
      <trkpt lat="42.294114" lon="3.285625">
        <ele>12</ele>
        <time>1970-01-01T03:02:22.000Z</time>
      </trkpt>
      <trkpt lat="42.2941" lon="3.285646">
        <ele>12</ele>
        <time>1970-01-01T03:02:23.000Z</time>
      </trkpt>
      <trkpt lat="42.294085" lon="3.285668">
        <ele>12</ele>
        <time>1970-01-01T03:02:24.000Z</time>
      </trkpt>
      <trkpt lat="42.294071" lon="3.285689">
        <ele>10</ele>
        <time>1970-01-01T03:02:25.000Z</time>
      </trkpt>
      <trkpt lat="42.294039" lon="3.285736">
        <ele>10</ele>
        <time>1970-01-01T03:02:26.000Z</time>
      </trkpt>
      <trkpt lat="42.294022" lon="3.285761">
        <ele>10</ele>
        <time>1970-01-01T03:02:27.000Z</time>
      </trkpt>
      <trkpt lat="42.294006" lon="3.285787">
        <ele>10</ele>
        <time>1970-01-01T03:02:28.000Z</time>
      </trkpt>
      <trkpt lat="42.293989" lon="3.285812">
        <ele>10</ele>
        <time>1970-01-01T03:02:29.000Z</time>
      </trkpt>
      <trkpt lat="42.293972" lon="3.285838">
        <ele>10</ele>
        <time>1970-01-01T03:02:30.000Z</time>
      </trkpt>
      <trkpt lat="42.293955" lon="3.285863">
        <ele>10</ele>
        <time>1970-01-01T03:02:31.000Z</time>
      </trkpt>
      <trkpt lat="42.293938" lon="3.285889">
        <ele>10</ele>
        <time>1970-01-01T03:02:32.000Z</time>
      </trkpt>
      <trkpt lat="42.293922" lon="3.285914">
        <ele>10</ele>
        <time>1970-01-01T03:02:33.000Z</time>
      </trkpt>
      <trkpt lat="42.293905" lon="3.28594">
        <ele>10</ele>
        <time>1970-01-01T03:02:34.000Z</time>
      </trkpt>
      <trkpt lat="42.293888" lon="3.285965">
        <ele>8</ele>
        <time>1970-01-01T03:02:35.000Z</time>
      </trkpt>
      <trkpt lat="42.293858" lon="3.286022">
        <ele>8</ele>
        <time>1970-01-01T03:02:36.000Z</time>
      </trkpt>
      <trkpt lat="42.293849" lon="3.286046">
        <ele>8</ele>
        <time>1970-01-01T03:02:37.000Z</time>
      </trkpt>
      <trkpt lat="42.293839" lon="3.286069">
        <ele>8</ele>
        <time>1970-01-01T03:02:38.000Z</time>
      </trkpt>
      <trkpt lat="42.293829" lon="3.286092">
        <ele>8</ele>
        <time>1970-01-01T03:02:39.000Z</time>
      </trkpt>
      <trkpt lat="42.29382" lon="3.286116">
        <ele>8</ele>
        <time>1970-01-01T03:02:40.000Z</time>
      </trkpt>
      <trkpt lat="42.29381" lon="3.286139">
        <ele>8</ele>
        <time>1970-01-01T03:02:41.000Z</time>
      </trkpt>
      <trkpt lat="42.2938" lon="3.286162">
        <ele>8</ele>
        <time>1970-01-01T03:02:42.000Z</time>
      </trkpt>
      <trkpt lat="42.293791" lon="3.286186">
        <ele>8</ele>
        <time>1970-01-01T03:02:43.000Z</time>
      </trkpt>
      <trkpt lat="42.293781" lon="3.286209">
        <ele>4</ele>
        <time>1970-01-01T03:02:45.000Z</time>
      </trkpt>
      <trkpt lat="42.2938" lon="3.286277">
        <ele>4</ele>
        <time>1970-01-01T03:02:47.000Z</time>
      </trkpt>
      <trkpt lat="42.293812" lon="3.286299">
        <ele>4</ele>
        <time>1970-01-01T03:02:48.000Z</time>
      </trkpt>
      <trkpt lat="42.293824" lon="3.28632">
        <ele>4</ele>
        <time>1970-01-01T03:02:49.000Z</time>
      </trkpt>
      <trkpt lat="42.293836" lon="3.286341">
        <ele>4</ele>
        <time>1970-01-01T03:02:50.000Z</time>
      </trkpt>
      <trkpt lat="42.293848" lon="3.286362">
        <ele>4</ele>
        <time>1970-01-01T03:02:51.000Z</time>
      </trkpt>
      <trkpt lat="42.29386" lon="3.286384">
        <ele>4</ele>
        <time>1970-01-01T03:02:53.000Z</time>
      </trkpt>
      <trkpt lat="42.293872" lon="3.286405">
        <ele>3</ele>
        <time>1970-01-01T03:02:55.000Z</time>
      </trkpt>
      <trkpt lat="42.293915" lon="3.286452">
        <ele>3</ele>
        <time>1970-01-01T03:02:57.000Z</time>
      </trkpt>
      <trkpt lat="42.293931" lon="3.286472">
        <ele>3</ele>
        <time>1970-01-01T03:02:59.000Z</time>
      </trkpt>
      <trkpt lat="42.293948" lon="3.286491">
        <ele>3</ele>
        <time>1970-01-01T03:03:01.000Z</time>
      </trkpt>
      <trkpt lat="42.293965" lon="3.28651">
        <ele>3</ele>
        <time>1970-01-01T03:03:02.000Z</time>
      </trkpt>
      <trkpt lat="42.293982" lon="3.286529">
        <ele>3</ele>
        <time>1970-01-01T03:03:03.000Z</time>
      </trkpt>
      <trkpt lat="42.293998" lon="3.286549">
        <ele>3</ele>
        <time>1970-01-01T03:03:04.000Z</time>
      </trkpt>
      <trkpt lat="42.294015" lon="3.286568">
        <ele>2</ele>
        <time>1970-01-01T03:03:05.000Z</time>
      </trkpt>
      <trkpt lat="42.294045" lon="3.286598">
        <ele>2</ele>
        <time>1970-01-01T03:03:06.000Z</time>
      </trkpt>
      <trkpt lat="42.294062" lon="3.286608">
        <ele>2</ele>
        <time>1970-01-01T03:03:08.000Z</time>
      </trkpt>
      <trkpt lat="42.294079" lon="3.286618">
        <ele>2</ele>
        <time>1970-01-01T03:03:09.000Z</time>
      </trkpt>
      <trkpt lat="42.294096" lon="3.286628">
        <ele>2</ele>
        <time>1970-01-01T03:03:10.000Z</time>
      </trkpt>
      <trkpt lat="42.294114" lon="3.286638">
        <ele>2</ele>
        <time>1970-01-01T03:03:11.000Z</time>
      </trkpt>
      <trkpt lat="42.294131" lon="3.286649">
        <ele>2</ele>
        <time>1970-01-01T03:03:12.000Z</time>
      </trkpt>
      <trkpt lat="42.294148" lon="3.286659">
        <ele>2</ele>
        <time>1970-01-01T03:03:13.000Z</time>
      </trkpt>
      <trkpt lat="42.294165" lon="3.286669">
        <ele>2</ele>
        <time>1970-01-01T03:03:14.000Z</time>
      </trkpt>
      <trkpt lat="42.294182" lon="3.286679">
        <ele>2</ele>
        <time>1970-01-01T03:03:15.000Z</time>
      </trkpt>
      <trkpt lat="42.294199" lon="3.286689">
        <ele>2</ele>
        <time>1970-01-01T03:03:16.000Z</time>
      </trkpt>
      <trkpt lat="42.294234" lon="3.286703">
        <ele>2</ele>
        <time>1970-01-01T03:03:17.000Z</time>
      </trkpt>
      <trkpt lat="42.294251" lon="3.286713">
        <ele>2</ele>
        <time>1970-01-01T03:03:18.000Z</time>
      </trkpt>
      <trkpt lat="42.294267" lon="3.286722">
        <ele>2</ele>
        <time>1970-01-01T03:03:19.000Z</time>
      </trkpt>
      <trkpt lat="42.294283" lon="3.286732">
        <ele>2</ele>
        <time>1970-01-01T03:03:20.000Z</time>
      </trkpt>
      <trkpt lat="42.2943" lon="3.286741">
        <ele>2</ele>
        <time>1970-01-01T03:03:21.000Z</time>
      </trkpt>
      <trkpt lat="42.294316" lon="3.286751">
        <ele>2</ele>
        <time>1970-01-01T03:03:22.000Z</time>
      </trkpt>
      <trkpt lat="42.294332" lon="3.28676">
        <ele>2</ele>
        <time>1970-01-01T03:03:23.000Z</time>
      </trkpt>
      <trkpt lat="42.294349" lon="3.28677">
        <ele>2</ele>
        <time>1970-01-01T03:03:24.000Z</time>
      </trkpt>
      <trkpt lat="42.294365" lon="3.286779">
        <ele>2</ele>
        <time>1970-01-01T03:03:25.000Z</time>
      </trkpt>
      <trkpt lat="42.294387" lon="3.286828">
        <ele>2</ele>
        <time>1970-01-01T03:03:26.000Z</time>
      </trkpt>
      <trkpt lat="42.294397" lon="3.286854">
        <ele>2</ele>
        <time>1970-01-01T03:03:27.000Z</time>
      </trkpt>
      <trkpt lat="42.294407" lon="3.28688">
        <ele>2</ele>
        <time>1970-01-01T03:03:28.000Z</time>
      </trkpt>
      <trkpt lat="42.294417" lon="3.286906">
        <ele>2</ele>
        <time>1970-01-01T03:03:29.000Z</time>
      </trkpt>
      <trkpt lat="42.294427" lon="3.286932">
        <ele>2</ele>
        <time>1970-01-01T03:03:30.000Z</time>
      </trkpt>
      <trkpt lat="42.294437" lon="3.286959">
        <ele>2</ele>
        <time>1970-01-01T03:03:31.000Z</time>
      </trkpt>
      <trkpt lat="42.294447" lon="3.286985">
        <ele>2</ele>
        <time>1970-01-01T03:03:32.000Z</time>
      </trkpt>
      <trkpt lat="42.294457" lon="3.287011">
        <ele>2</ele>
        <time>1970-01-01T03:03:33.000Z</time>
      </trkpt>
      <trkpt lat="42.294467" lon="3.287037">
        <ele>2</ele>
        <time>1970-01-01T03:03:34.000Z</time>
      </trkpt>
      <trkpt lat="42.294477" lon="3.287063">
        <ele>2</ele>
        <time>1970-01-01T03:03:35.000Z</time>
      </trkpt>
      <trkpt lat="42.294509" lon="3.287114">
        <ele>2</ele>
        <time>1970-01-01T03:03:36.000Z</time>
      </trkpt>
      <trkpt lat="42.294526" lon="3.287138">
        <ele>2</ele>
        <time>1970-01-01T03:03:37.000Z</time>
      </trkpt>
      <trkpt lat="42.294543" lon="3.287161">
        <ele>2</ele>
        <time>1970-01-01T03:03:38.000Z</time>
      </trkpt>
      <trkpt lat="42.29456" lon="3.287185">
        <ele>2</ele>
        <time>1970-01-01T03:03:39.000Z</time>
      </trkpt>
      <trkpt lat="42.294577" lon="3.287209">
        <ele>2</ele>
        <time>1970-01-01T03:03:40.000Z</time>
      </trkpt>
      <trkpt lat="42.294593" lon="3.287233">
        <ele>2</ele>
        <time>1970-01-01T03:03:41.000Z</time>
      </trkpt>
      <trkpt lat="42.29461" lon="3.287257">
        <ele>2</ele>
        <time>1970-01-01T03:03:42.000Z</time>
      </trkpt>
      <trkpt lat="42.294627" lon="3.28728">
        <ele>2</ele>
        <time>1970-01-01T03:03:43.000Z</time>
      </trkpt>
      <trkpt lat="42.294644" lon="3.287304">
        <ele>2</ele>
        <time>1970-01-01T03:03:44.000Z</time>
      </trkpt>
      <trkpt lat="42.294661" lon="3.287328">
        <ele>1</ele>
        <time>1970-01-01T03:03:45.000Z</time>
      </trkpt>
      <trkpt lat="42.294671" lon="3.287379">
        <ele>1</ele>
        <time>1970-01-01T03:03:46.000Z</time>
      </trkpt>
      <trkpt lat="42.294668" lon="3.287402">
        <ele>1</ele>
        <time>1970-01-01T03:03:47.000Z</time>
      </trkpt>
      <trkpt lat="42.294666" lon="3.287424">
        <ele>1</ele>
        <time>1970-01-01T03:03:48.000Z</time>
      </trkpt>
      <trkpt lat="42.294664" lon="3.287446">
        <ele>1</ele>
        <time>1970-01-01T03:03:49.000Z</time>
      </trkpt>
      <trkpt lat="42.294662" lon="3.287469">
        <ele>1</ele>
        <time>1970-01-01T03:03:50.000Z</time>
      </trkpt>
      <trkpt lat="42.294659" lon="3.287491">
        <ele>1</ele>
        <time>1970-01-01T03:03:51.000Z</time>
      </trkpt>
      <trkpt lat="42.294657" lon="3.287513">
        <ele>1</ele>
        <time>1970-01-01T03:03:52.000Z</time>
      </trkpt>
      <trkpt lat="42.294655" lon="3.287535">
        <ele>1</ele>
        <time>1970-01-01T03:03:53.000Z</time>
      </trkpt>
      <trkpt lat="42.294652" lon="3.287558">
        <ele>1</ele>
        <time>1970-01-01T03:03:54.000Z</time>
      </trkpt>
      <trkpt lat="42.29465" lon="3.28758">
        <ele>3</ele>
        <time>1970-01-01T03:03:55.000Z</time>
      </trkpt>
      <trkpt lat="42.294633" lon="3.287625">
        <ele>3</ele>
        <time>1970-01-01T03:03:56.000Z</time>
      </trkpt>
      <trkpt lat="42.294623" lon="3.287647">
        <ele>3</ele>
        <time>1970-01-01T03:03:57.000Z</time>
      </trkpt>
      <trkpt lat="42.294614" lon="3.287668">
        <ele>3</ele>
        <time>1970-01-01T03:03:58.000Z</time>
      </trkpt>
      <trkpt lat="42.294605" lon="3.287689">
        <ele>3</ele>
        <time>1970-01-01T03:03:59.000Z</time>
      </trkpt>
      <trkpt lat="42.294595" lon="3.287711">
        <ele>3</ele>
        <time>1970-01-01T03:04:00.000Z</time>
      </trkpt>
      <trkpt lat="42.294586" lon="3.287732">
        <ele>3</ele>
        <time>1970-01-01T03:04:01.000Z</time>
      </trkpt>
      <trkpt lat="42.294577" lon="3.287753">
        <ele>3</ele>
        <time>1970-01-01T03:04:03.000Z</time>
      </trkpt>
      <trkpt lat="42.294567" lon="3.287775">
        <ele>3</ele>
        <time>1970-01-01T03:04:04.000Z</time>
      </trkpt>
      <trkpt lat="42.294558" lon="3.287796">
        <ele>4</ele>
        <time>1970-01-01T03:04:05.000Z</time>
      </trkpt>
      <trkpt lat="42.294524" lon="3.287822">
        <ele>4</ele>
        <time>1970-01-01T03:04:06.000Z</time>
      </trkpt>
      <trkpt lat="42.294506" lon="3.287834">
        <ele>4</ele>
        <time>1970-01-01T03:04:07.000Z</time>
      </trkpt>
      <trkpt lat="42.294489" lon="3.287847">
        <ele>4</ele>
        <time>1970-01-01T03:04:08.000Z</time>
      </trkpt>
      <trkpt lat="42.294471" lon="3.287859">
        <ele>4</ele>
        <time>1970-01-01T03:04:10.000Z</time>
      </trkpt>
      <trkpt lat="42.294453" lon="3.287871">
        <ele>4</ele>
        <time>1970-01-01T03:04:11.000Z</time>
      </trkpt>
      <trkpt lat="42.294435" lon="3.287883">
        <ele>4</ele>
        <time>1970-01-01T03:04:12.000Z</time>
      </trkpt>
      <trkpt lat="42.294417" lon="3.287895">
        <ele>4</ele>
        <time>1970-01-01T03:04:13.000Z</time>
      </trkpt>
      <trkpt lat="42.2944" lon="3.287908">
        <ele>4</ele>
        <time>1970-01-01T03:04:14.000Z</time>
      </trkpt>
      <trkpt lat="42.294382" lon="3.28792">
        <ele>4</ele>
        <time>1970-01-01T03:04:15.000Z</time>
      </trkpt>
      <trkpt lat="42.294364" lon="3.287932">
        <ele>6</ele>
        <time>1970-01-01T03:04:16.000Z</time>
      </trkpt>
      <trkpt lat="42.294326" lon="3.287966">
        <ele>6</ele>
        <time>1970-01-01T03:04:17.000Z</time>
      </trkpt>
      <trkpt lat="42.294311" lon="3.287987">
        <ele>6</ele>
        <time>1970-01-01T03:04:18.000Z</time>
      </trkpt>
      <trkpt lat="42.294295" lon="3.288008">
        <ele>6</ele>
        <time>1970-01-01T03:04:19.000Z</time>
      </trkpt>
      <trkpt lat="42.29428" lon="3.288029">
        <ele>6</ele>
        <time>1970-01-01T03:04:20.000Z</time>
      </trkpt>
      <trkpt lat="42.294264" lon="3.288049">
        <ele>6</ele>
        <time>1970-01-01T03:04:21.000Z</time>
      </trkpt>
      <trkpt lat="42.294248" lon="3.28807">
        <ele>6</ele>
        <time>1970-01-01T03:04:22.000Z</time>
      </trkpt>
      <trkpt lat="42.294233" lon="3.288091">
        <ele>6</ele>
        <time>1970-01-01T03:04:23.000Z</time>
      </trkpt>
      <trkpt lat="42.294217" lon="3.288112">
        <ele>7</ele>
        <time>1970-01-01T03:04:25.000Z</time>
      </trkpt>
      <trkpt lat="42.294213" lon="3.288134">
        <ele>7</ele>
        <time>1970-01-01T03:04:29.000Z</time>
      </trkpt>
      <trkpt lat="42.284358" lon="3.287764">
        <ele>-7</ele>
        <time>1970-01-01T00:00:00.000Z</time>
      </trkpt>
      <trkpt lat="42.284386" lon="3.287789">
        <ele>-7</ele>
        <time>1970-01-01T00:00:05.000Z</time>
      </trkpt>
      <trkpt lat="42.284406" lon="3.287806">
        <ele>-7</ele>
        <time>1970-01-01T00:00:07.000Z</time>
      </trkpt>
      <trkpt lat="42.284426" lon="3.287824">
        <ele>-7</ele>
        <time>1970-01-01T00:00:09.000Z</time>
      </trkpt>
      <trkpt lat="42.284446" lon="3.287841">
        <ele>-7</ele>
        <time>1970-01-01T00:00:10.000Z</time>
      </trkpt>
      <trkpt lat="42.284465" lon="3.287858">
        <ele>-7</ele>
        <time>1970-01-01T00:00:11.000Z</time>
      </trkpt>
      <trkpt lat="42.284485" lon="3.287875">
        <ele>-7</ele>
        <time>1970-01-01T00:00:12.000Z</time>
      </trkpt>
      <trkpt lat="42.284505" lon="3.287893">
        <ele>-7</ele>
        <time>1970-01-01T00:00:13.000Z</time>
      </trkpt>
      <trkpt lat="42.284525" lon="3.28791">
        <ele>-7</ele>
        <time>1970-01-01T00:00:15.000Z</time>
      </trkpt>
      <trkpt lat="42.284545" lon="3.287927">
        <ele>-7</ele>
        <time>1970-01-01T00:00:17.000Z</time>
      </trkpt>
      <trkpt lat="42.28459" lon="3.287948">
        <ele>-7</ele>
        <time>1970-01-01T00:00:19.000Z</time>
      </trkpt>
      <trkpt lat="42.28461" lon="3.287957">
        <ele>-7</ele>
        <time>1970-01-01T00:00:21.000Z</time>
      </trkpt>
      <trkpt lat="42.284631" lon="3.287965">
        <ele>-7</ele>
        <time>1970-01-01T00:00:23.000Z</time>
      </trkpt>
      <trkpt lat="42.284651" lon="3.287974">
        <ele>-7</ele>
        <time>1970-01-01T00:00:25.000Z</time>
      </trkpt>
      <trkpt lat="42.284671" lon="3.287983">
        <ele>-7</ele>
        <time>1970-01-01T00:00:26.000Z</time>
      </trkpt>
      <trkpt lat="42.284691" lon="3.287992">
        <ele>-6</ele>
        <time>1970-01-01T00:00:27.000Z</time>
      </trkpt>
      <trkpt lat="42.284743" lon="3.287989">
        <ele>-6</ele>
        <time>1970-01-01T00:00:29.000Z</time>
      </trkpt>
      <trkpt lat="42.284762" lon="3.287979">
        <ele>-6</ele>
        <time>1970-01-01T00:00:31.000Z</time>
      </trkpt>
      <trkpt lat="42.284781" lon="3.287969">
        <ele>-6</ele>
        <time>1970-01-01T00:00:33.000Z</time>
      </trkpt>
      <trkpt lat="42.2848" lon="3.287958">
        <ele>-6</ele>
        <time>1970-01-01T00:00:34.000Z</time>
      </trkpt>
      <trkpt lat="42.284819" lon="3.287948">
        <ele>-6</ele>
        <time>1970-01-01T00:00:36.000Z</time>
      </trkpt>
      <trkpt lat="42.284838" lon="3.287938">
        <ele>-4</ele>
        <time>1970-01-01T00:00:37.000Z</time>
      </trkpt>
      <trkpt lat="42.284847" lon="3.287927">
        <ele>-4</ele>
        <time>1970-01-01T00:00:38.000Z</time>
      </trkpt>
      <trkpt lat="42.284867" lon="3.28791">
        <ele>-4</ele>
        <time>1970-01-01T00:00:40.000Z</time>
      </trkpt>
      <trkpt lat="42.284891" lon="3.287884">
        <ele>-4</ele>
        <time>1970-01-01T00:00:42.000Z</time>
      </trkpt>
      <trkpt lat="42.284909" lon="3.287857">
        <ele>-4</ele>
        <time>1970-01-01T00:00:44.000Z</time>
      </trkpt>
      <trkpt lat="42.284909" lon="3.287857">
        <ele>-3</ele>
        <time>1970-01-01T00:00:47.000Z</time>
      </trkpt>
      <trkpt lat="42.284927" lon="3.287838">
        <ele>-2</ele>
        <time>1970-01-01T00:00:50.000Z</time>
      </trkpt>
      <trkpt lat="42.284944" lon="3.287819">
        <ele>3</ele>
        <time>1970-01-01T00:02:09.000Z</time>
      </trkpt>
      <trkpt lat="42.284962" lon="3.287801">
        <ele>3</ele>
        <time>1970-01-01T00:02:10.000Z</time>
      </trkpt>
      <trkpt lat="42.284979" lon="3.287782">
        <ele>3</ele>
        <time>1970-01-01T00:02:12.000Z</time>
      </trkpt>
      <trkpt lat="42.284997" lon="3.287763">
        <ele>3</ele>
        <time>1970-01-01T00:02:13.000Z</time>
      </trkpt>
      <trkpt lat="42.285014" lon="3.287744">
        <ele>3</ele>
        <time>1970-01-01T00:02:14.000Z</time>
      </trkpt>
      <trkpt lat="42.285032" lon="3.287725">
        <ele>3</ele>
        <time>1970-01-01T00:02:15.000Z</time>
      </trkpt>
      <trkpt lat="42.285049" lon="3.287706">
        <ele>3</ele>
        <time>1970-01-01T00:02:16.000Z</time>
      </trkpt>
      <trkpt lat="42.285067" lon="3.287688">
        <ele>3</ele>
        <time>1970-01-01T00:02:17.000Z</time>
      </trkpt>
      <trkpt lat="42.285084" lon="3.287669">
        <ele>3</ele>
        <time>1970-01-01T00:02:18.000Z</time>
      </trkpt>
      <trkpt lat="42.285102" lon="3.28765">
        <ele>3</ele>
        <time>1970-01-01T00:02:19.000Z</time>
      </trkpt>
      <trkpt lat="42.285136" lon="3.287614">
        <ele>3</ele>
        <time>1970-01-01T00:02:20.000Z</time>
      </trkpt>
      <trkpt lat="42.285152" lon="3.287596">
        <ele>3</ele>
        <time>1970-01-01T00:02:21.000Z</time>
      </trkpt>
      <trkpt lat="42.285167" lon="3.287577">
        <ele>3</ele>
        <time>1970-01-01T00:02:22.000Z</time>
      </trkpt>
      <trkpt lat="42.285183" lon="3.287559">
        <ele>3</ele>
        <time>1970-01-01T00:02:23.000Z</time>
      </trkpt>
      <trkpt lat="42.285199" lon="3.287541">
        <ele>3</ele>
        <time>1970-01-01T00:02:24.000Z</time>
      </trkpt>
      <trkpt lat="42.285215" lon="3.287523">
        <ele>3</ele>
        <time>1970-01-01T00:02:25.000Z</time>
      </trkpt>
      <trkpt lat="42.28523" lon="3.287504">
        <ele>3</ele>
        <time>1970-01-01T00:02:26.000Z</time>
      </trkpt>
      <trkpt lat="42.285246" lon="3.287486">
        <ele>3</ele>
        <time>1970-01-01T00:02:27.000Z</time>
      </trkpt>
      <trkpt lat="42.285262" lon="3.287468">
        <ele>4</ele>
        <time>1970-01-01T00:02:29.000Z</time>
      </trkpt>
      <trkpt lat="42.285313" lon="3.287486">
        <ele>4</ele>
        <time>1970-01-01T00:02:30.000Z</time>
      </trkpt>
      <trkpt lat="42.28533" lon="3.287508">
        <ele>4</ele>
        <time>1970-01-01T00:02:32.000Z</time>
      </trkpt>
      <trkpt lat="42.285347" lon="3.287529">
        <ele>4</ele>
        <time>1970-01-01T00:02:34.000Z</time>
      </trkpt>
      <trkpt lat="42.285364" lon="3.287551">
        <ele>4</ele>
        <time>1970-01-01T00:02:36.000Z</time>
      </trkpt>
      <trkpt lat="42.285381" lon="3.287573">
        <ele>4</ele>
        <time>1970-01-01T00:02:38.000Z</time>
      </trkpt>
      <trkpt lat="42.285398" lon="3.287595">
        <ele>5</ele>
        <time>1970-01-01T00:02:39.000Z</time>
      </trkpt>
      <trkpt lat="42.285429" lon="3.287645">
        <ele>5</ele>
        <time>1970-01-01T00:02:41.000Z</time>
      </trkpt>
      <trkpt lat="42.285445" lon="3.287672">
        <ele>5</ele>
        <time>1970-01-01T00:02:43.000Z</time>
      </trkpt>
      <trkpt lat="42.285462" lon="3.2877">
        <ele>5</ele>
        <time>1970-01-01T00:02:45.000Z</time>
      </trkpt>
      <trkpt lat="42.285478" lon="3.287727">
        <ele>5</ele>
        <time>1970-01-01T00:02:47.000Z</time>
      </trkpt>
      <trkpt lat="42.285494" lon="3.287754">
        <ele>8</ele>
        <time>1970-01-01T00:02:49.000Z</time>
      </trkpt>
      <trkpt lat="42.285525" lon="3.28781">
        <ele>8</ele>
        <time>1970-01-01T00:02:51.000Z</time>
      </trkpt>
      <trkpt lat="42.285537" lon="3.287828">
        <ele>8</ele>
        <time>1970-01-01T00:02:52.000Z</time>
      </trkpt>
      <trkpt lat="42.285548" lon="3.287846">
        <ele>8</ele>
        <time>1970-01-01T00:02:53.000Z</time>
      </trkpt>
      <trkpt lat="42.28556" lon="3.287864">
        <ele>8</ele>
        <time>1970-01-01T00:02:54.000Z</time>
      </trkpt>
      <trkpt lat="42.285571" lon="3.287882">
        <ele>8</ele>
        <time>1970-01-01T00:02:55.000Z</time>
      </trkpt>
      <trkpt lat="42.285583" lon="3.2879">
        <ele>8</ele>
        <time>1970-01-01T00:02:56.000Z</time>
      </trkpt>
      <trkpt lat="42.285594" lon="3.287918">
        <ele>8</ele>
        <time>1970-01-01T00:02:57.000Z</time>
      </trkpt>
      <trkpt lat="42.285606" lon="3.287936">
        <ele>8</ele>
        <time>1970-01-01T00:02:58.000Z</time>
      </trkpt>
      <trkpt lat="42.285617" lon="3.287954">
        <ele>10</ele>
        <time>1970-01-01T00:02:59.000Z</time>
      </trkpt>
      <trkpt lat="42.285641" lon="3.287995">
        <ele>10</ele>
        <time>1970-01-01T00:03:00.000Z</time>
      </trkpt>
      <trkpt lat="42.285653" lon="3.288015">
        <ele>10</ele>
        <time>1970-01-01T00:03:01.000Z</time>
      </trkpt>
      <trkpt lat="42.285665" lon="3.288034">
        <ele>10</ele>
        <time>1970-01-01T00:03:02.000Z</time>
      </trkpt>
      <trkpt lat="42.285677" lon="3.288054">
        <ele>10</ele>
        <time>1970-01-01T00:03:03.000Z</time>
      </trkpt>
      <trkpt lat="42.285689" lon="3.288073">
        <ele>10</ele>
        <time>1970-01-01T00:03:04.000Z</time>
      </trkpt>
      <trkpt lat="42.2857" lon="3.288093">
        <ele>10</ele>
        <time>1970-01-01T00:03:05.000Z</time>
      </trkpt>
      <trkpt lat="42.285712" lon="3.288112">
        <ele>10</ele>
        <time>1970-01-01T00:03:06.000Z</time>
      </trkpt>
      <trkpt lat="42.285724" lon="3.288132">
        <ele>10</ele>
        <time>1970-01-01T00:03:07.000Z</time>
      </trkpt>
      <trkpt lat="42.285736" lon="3.288151">
        <ele>10</ele>
        <time>1970-01-01T00:03:08.000Z</time>
      </trkpt>
      <trkpt lat="42.285748" lon="3.288171">
        <ele>10</ele>
        <time>1970-01-01T00:03:09.000Z</time>
      </trkpt>
      <trkpt lat="42.285787" lon="3.288247">
        <ele>10</ele>
        <time>1970-01-01T00:03:10.000Z</time>
      </trkpt>
      <trkpt lat="42.28581" lon="3.288295">
        <ele>10</ele>
        <time>1970-01-01T00:03:11.000Z</time>
      </trkpt>
      <trkpt lat="42.285833" lon="3.288344">
        <ele>10</ele>
        <time>1970-01-01T00:03:12.000Z</time>
      </trkpt>
      <trkpt lat="42.285856" lon="3.288393">
        <ele>10</ele>
        <time>1970-01-01T00:03:13.000Z</time>
      </trkpt>
      <trkpt lat="42.285879" lon="3.288441">
        <ele>10</ele>
        <time>1970-01-01T00:03:14.000Z</time>
      </trkpt>
      <trkpt lat="42.285901" lon="3.28849">
        <ele>10</ele>
        <time>1970-01-01T00:03:15.000Z</time>
      </trkpt>
      <trkpt lat="42.285924" lon="3.288539">
        <ele>10</ele>
        <time>1970-01-01T00:03:16.000Z</time>
      </trkpt>
      <trkpt lat="42.285947" lon="3.288588">
        <ele>10</ele>
        <time>1970-01-01T00:03:17.000Z</time>
      </trkpt>
      <trkpt lat="42.28597" lon="3.288636">
        <ele>10</ele>
        <time>1970-01-01T00:03:18.000Z</time>
      </trkpt>
      <trkpt lat="42.285993" lon="3.288685">
        <ele>10</ele>
        <time>1970-01-01T00:03:19.000Z</time>
      </trkpt>
      <trkpt lat="42.286057" lon="3.288799">
        <ele>10</ele>
        <time>1970-01-01T00:03:20.000Z</time>
      </trkpt>
      <trkpt lat="42.28609" lon="3.288835">
        <ele>10</ele>
        <time>1970-01-01T00:03:21.000Z</time>
      </trkpt>
      <trkpt lat="42.286122" lon="3.288872">
        <ele>10</ele>
        <time>1970-01-01T00:03:22.000Z</time>
      </trkpt>
      <trkpt lat="42.286154" lon="3.288908">
        <ele>10</ele>
        <time>1970-01-01T00:03:23.000Z</time>
      </trkpt>
      <trkpt lat="42.286187" lon="3.288945">
        <ele>10</ele>
        <time>1970-01-01T00:03:24.000Z</time>
      </trkpt>
      <trkpt lat="42.286219" lon="3.288982">
        <ele>10</ele>
        <time>1970-01-01T00:03:25.000Z</time>
      </trkpt>
      <trkpt lat="42.286251" lon="3.289018">
        <ele>10</ele>
        <time>1970-01-01T00:03:26.000Z</time>
      </trkpt>
      <trkpt lat="42.286283" lon="3.289055">
        <ele>10</ele>
        <time>1970-01-01T00:03:27.000Z</time>
      </trkpt>
      <trkpt lat="42.286316" lon="3.289091">
        <ele>10</ele>
        <time>1970-01-01T00:03:28.000Z</time>
      </trkpt>
      <trkpt lat="42.286348" lon="3.289128">
        <ele>9</ele>
        <time>1970-01-01T00:03:29.000Z</time>
      </trkpt>
      <trkpt lat="42.286417" lon="3.2891">
        <ele>9</ele>
        <time>1970-01-01T00:03:30.000Z</time>
      </trkpt>
      <trkpt lat="42.286444" lon="3.289087">
        <ele>9</ele>
        <time>1970-01-01T00:03:31.000Z</time>
      </trkpt>
      <trkpt lat="42.286472" lon="3.289074">
        <ele>9</ele>
        <time>1970-01-01T00:03:32.000Z</time>
      </trkpt>
      <trkpt lat="42.286499" lon="3.289061">
        <ele>9</ele>
        <time>1970-01-01T00:03:33.000Z</time>
      </trkpt>
      <trkpt lat="42.286527" lon="3.289048">
        <ele>9</ele>
        <time>1970-01-01T00:03:34.000Z</time>
      </trkpt>
      <trkpt lat="42.286554" lon="3.289035">
        <ele>9</ele>
        <time>1970-01-01T00:03:35.000Z</time>
      </trkpt>
      <trkpt lat="42.286582" lon="3.289022">
        <ele>9</ele>
        <time>1970-01-01T00:03:36.000Z</time>
      </trkpt>
      <trkpt lat="42.286609" lon="3.289009">
        <ele>9</ele>
        <time>1970-01-01T00:03:37.000Z</time>
      </trkpt>
      <trkpt lat="42.286637" lon="3.288996">
        <ele>9</ele>
        <time>1970-01-01T00:03:38.000Z</time>
      </trkpt>
      <trkpt lat="42.286664" lon="3.288983">
        <ele>9</ele>
        <time>1970-01-01T00:03:39.000Z</time>
      </trkpt>
      <trkpt lat="42.286711" lon="3.28897">
        <ele>9</ele>
        <time>1970-01-01T00:03:40.000Z</time>
      </trkpt>
      <trkpt lat="42.286732" lon="3.288966">
        <ele>9</ele>
        <time>1970-01-01T00:03:41.000Z</time>
      </trkpt>
      <trkpt lat="42.286753" lon="3.288961">
        <ele>9</ele>
        <time>1970-01-01T00:03:42.000Z</time>
      </trkpt>
      <trkpt lat="42.286775" lon="3.288957">
        <ele>9</ele>
        <time>1970-01-01T00:03:43.000Z</time>
      </trkpt>
      <trkpt lat="42.286796" lon="3.288952">
        <ele>9</ele>
        <time>1970-01-01T00:03:44.000Z</time>
      </trkpt>
      <trkpt lat="42.286817" lon="3.288947">
        <ele>9</ele>
        <time>1970-01-01T00:03:46.000Z</time>
      </trkpt>
      <trkpt lat="42.286838" lon="3.288943">
        <ele>9</ele>
        <time>1970-01-01T00:03:48.000Z</time>
      </trkpt>
      <trkpt lat="42.286859" lon="3.288938">
        <ele>5</ele>
        <time>1970-01-01T00:03:49.000Z</time>
      </trkpt>
      <trkpt lat="42.286895" lon="3.288961">
        <ele>5</ele>
        <time>1970-01-01T00:03:50.000Z</time>
      </trkpt>
      <trkpt lat="42.286913" lon="3.288982">
        <ele>5</ele>
        <time>1970-01-01T00:03:52.000Z</time>
      </trkpt>
      <trkpt lat="42.286932" lon="3.289003">
        <ele>5</ele>
        <time>1970-01-01T00:03:54.000Z</time>
      </trkpt>
      <trkpt lat="42.28695" lon="3.289025">
        <ele>5</ele>
        <time>1970-01-01T00:03:56.000Z</time>
      </trkpt>
      <trkpt lat="42.286969" lon="3.289046">
        <ele>5</ele>
        <time>1970-01-01T00:03:58.000Z</time>
      </trkpt>
      <trkpt lat="42.286987" lon="3.289067">
        <ele>6</ele>
        <time>1970-01-01T00:03:59.000Z</time>
      </trkpt>
      <trkpt lat="42.286982" lon="3.289117">
        <ele>6</ele>
        <time>1970-01-01T00:04:00.000Z</time>
      </trkpt>
      <trkpt lat="42.286973" lon="3.289145">
        <ele>6</ele>
        <time>1970-01-01T00:04:02.000Z</time>
      </trkpt>
      <trkpt lat="42.286964" lon="3.289172">
        <ele>6</ele>
        <time>1970-01-01T00:04:04.000Z</time>
      </trkpt>
      <trkpt lat="42.286956" lon="3.2892">
        <ele>6</ele>
        <time>1970-01-01T00:04:06.000Z</time>
      </trkpt>
      <trkpt lat="42.286947" lon="3.289227">
        <ele>6</ele>
        <time>1970-01-01T00:04:07.000Z</time>
      </trkpt>
      <trkpt lat="42.286938" lon="3.289255">
        <ele>6</ele>
        <time>1970-01-01T00:04:08.000Z</time>
      </trkpt>
      <trkpt lat="42.286929" lon="3.289282">
        <ele>10</ele>
        <time>1970-01-01T00:04:09.000Z</time>
      </trkpt>
      <trkpt lat="42.286912" lon="3.289331">
        <ele>10</ele>
        <time>1970-01-01T00:04:10.000Z</time>
      </trkpt>
      <trkpt lat="42.286903" lon="3.289357">
        <ele>10</ele>
        <time>1970-01-01T00:04:11.000Z</time>
      </trkpt>
      <trkpt lat="42.286895" lon="3.289383">
        <ele>10</ele>
        <time>1970-01-01T00:04:12.000Z</time>
      </trkpt>
      <trkpt lat="42.286887" lon="3.289409">
        <ele>10</ele>
        <time>1970-01-01T00:04:13.000Z</time>
      </trkpt>
      <trkpt lat="42.286878" lon="3.289434">
        <ele>10</ele>
        <time>1970-01-01T00:04:14.000Z</time>
      </trkpt>
      <trkpt lat="42.28687" lon="3.28946">
        <ele>10</ele>
        <time>1970-01-01T00:04:15.000Z</time>
      </trkpt>
      <trkpt lat="42.286861" lon="3.289486">
        <ele>10</ele>
        <time>1970-01-01T00:04:17.000Z</time>
      </trkpt>
      <trkpt lat="42.286853" lon="3.289512">
        <ele>13</ele>
        <time>1970-01-01T00:04:19.000Z</time>
      </trkpt>
      <trkpt lat="42.286839" lon="3.28956">
        <ele>13</ele>
        <time>1970-01-01T00:04:20.000Z</time>
      </trkpt>
      <trkpt lat="42.28683" lon="3.289583">
        <ele>13</ele>
        <time>1970-01-01T00:04:21.000Z</time>
      </trkpt>
      <trkpt lat="42.286822" lon="3.289607">
        <ele>13</ele>
        <time>1970-01-01T00:04:22.000Z</time>
      </trkpt>
      <trkpt lat="42.286813" lon="3.289631">
        <ele>13</ele>
        <time>1970-01-01T00:04:23.000Z</time>
      </trkpt>
      <trkpt lat="42.286805" lon="3.289655">
        <ele>13</ele>
        <time>1970-01-01T00:04:24.000Z</time>
      </trkpt>
      <trkpt lat="42.286797" lon="3.289678">
        <ele>13</ele>
        <time>1970-01-01T00:04:25.000Z</time>
      </trkpt>
      <trkpt lat="42.286788" lon="3.289702">
        <ele>13</ele>
        <time>1970-01-01T00:04:26.000Z</time>
      </trkpt>
      <trkpt lat="42.28678" lon="3.289726">
        <ele>13</ele>
        <time>1970-01-01T00:04:27.000Z</time>
      </trkpt>
      <trkpt lat="42.286771" lon="3.289749">
        <ele>13</ele>
        <time>1970-01-01T00:04:28.000Z</time>
      </trkpt>
      <trkpt lat="42.286763" lon="3.289773">
        <ele>14</ele>
        <time>1970-01-01T00:04:29.000Z</time>
      </trkpt>
      <trkpt lat="42.28675" lon="3.289823">
        <ele>14</ele>
        <time>1970-01-01T00:04:30.000Z</time>
      </trkpt>
      <trkpt lat="42.286747" lon="3.289847">
        <ele>14</ele>
        <time>1970-01-01T00:04:31.000Z</time>
      </trkpt>
      <trkpt lat="42.286744" lon="3.289871">
        <ele>14</ele>
        <time>1970-01-01T00:04:32.000Z</time>
      </trkpt>
      <trkpt lat="42.286741" lon="3.289895">
        <ele>14</ele>
        <time>1970-01-01T00:04:33.000Z</time>
      </trkpt>
      <trkpt lat="42.286739" lon="3.289919">
        <ele>14</ele>
        <time>1970-01-01T00:04:34.000Z</time>
      </trkpt>
      <trkpt lat="42.286736" lon="3.289943">
        <ele>14</ele>
        <time>1970-01-01T00:04:35.000Z</time>
      </trkpt>
      <trkpt lat="42.286733" lon="3.289967">
        <ele>14</ele>
        <time>1970-01-01T00:04:36.000Z</time>
      </trkpt>
      <trkpt lat="42.28673" lon="3.289991">
        <ele>14</ele>
        <time>1970-01-01T00:04:37.000Z</time>
      </trkpt>
      <trkpt lat="42.286727" lon="3.290015">
        <ele>14</ele>
        <time>1970-01-01T00:04:38.000Z</time>
      </trkpt>
      <trkpt lat="42.286724" lon="3.290039">
        <ele>15</ele>
        <time>1970-01-01T00:04:39.000Z</time>
      </trkpt>
      <trkpt lat="42.286718" lon="3.290091">
        <ele>15</ele>
        <time>1970-01-01T00:04:40.000Z</time>
      </trkpt>
      <trkpt lat="42.286715" lon="3.290116">
        <ele>15</ele>
        <time>1970-01-01T00:04:41.000Z</time>
      </trkpt>
      <trkpt lat="42.286713" lon="3.29014">
        <ele>15</ele>
        <time>1970-01-01T00:04:42.000Z</time>
      </trkpt>
      <trkpt lat="42.28671" lon="3.290165">
        <ele>15</ele>
        <time>1970-01-01T00:04:43.000Z</time>
      </trkpt>
      <trkpt lat="42.286708" lon="3.29019">
        <ele>15</ele>
        <time>1970-01-01T00:04:44.000Z</time>
      </trkpt>
      <trkpt lat="42.286706" lon="3.290215">
        <ele>15</ele>
        <time>1970-01-01T00:04:45.000Z</time>
      </trkpt>
      <trkpt lat="42.286703" lon="3.29024">
        <ele>15</ele>
        <time>1970-01-01T00:04:46.000Z</time>
      </trkpt>
      <trkpt lat="42.286701" lon="3.290264">
        <ele>15</ele>
        <time>1970-01-01T00:04:47.000Z</time>
      </trkpt>
      <trkpt lat="42.286698" lon="3.290289">
        <ele>15</ele>
        <time>1970-01-01T00:04:48.000Z</time>
      </trkpt>
      <trkpt lat="42.286696" lon="3.290314">
        <ele>19</ele>
        <time>1970-01-01T00:04:49.000Z</time>
      </trkpt>
      <trkpt lat="42.286692" lon="3.290368">
        <ele>19</ele>
        <time>1970-01-01T00:04:50.000Z</time>
      </trkpt>
      <trkpt lat="42.286691" lon="3.290395">
        <ele>19</ele>
        <time>1970-01-01T00:04:51.000Z</time>
      </trkpt>
      <trkpt lat="42.286689" lon="3.290421">
        <ele>19</ele>
        <time>1970-01-01T00:04:52.000Z</time>
      </trkpt>
      <trkpt lat="42.286688" lon="3.290447">
        <ele>19</ele>
        <time>1970-01-01T00:04:53.000Z</time>
      </trkpt>
      <trkpt lat="42.286686" lon="3.290474">
        <ele>19</ele>
        <time>1970-01-01T00:04:54.000Z</time>
      </trkpt>
      <trkpt lat="42.286684" lon="3.2905">
        <ele>19</ele>
        <time>1970-01-01T00:04:55.000Z</time>
      </trkpt>
      <trkpt lat="42.286683" lon="3.290526">
        <ele>19</ele>
        <time>1970-01-01T00:04:56.000Z</time>
      </trkpt>
      <trkpt lat="42.286681" lon="3.290552">
        <ele>19</ele>
        <time>1970-01-01T00:04:57.000Z</time>
      </trkpt>
      <trkpt lat="42.28668" lon="3.290579">
        <ele>19</ele>
        <time>1970-01-01T00:04:58.000Z</time>
      </trkpt>
      <trkpt lat="42.286678" lon="3.290605">
        <ele>19</ele>
        <time>1970-01-01T00:04:59.000Z</time>
      </trkpt>
      <trkpt lat="42.286681" lon="3.29066">
        <ele>19</ele>
        <time>1970-01-01T00:05:00.000Z</time>
      </trkpt>
      <trkpt lat="42.286684" lon="3.290684">
        <ele>19</ele>
        <time>1970-01-01T00:05:01.000Z</time>
      </trkpt>
      <trkpt lat="42.286688" lon="3.290708">
        <ele>19</ele>
        <time>1970-01-01T00:05:02.000Z</time>
      </trkpt>
      <trkpt lat="42.286691" lon="3.290732">
        <ele>19</ele>
        <time>1970-01-01T00:05:03.000Z</time>
      </trkpt>
      <trkpt lat="42.286695" lon="3.290755">
        <ele>19</ele>
        <time>1970-01-01T00:05:04.000Z</time>
      </trkpt>
      <trkpt lat="42.286699" lon="3.290779">
        <ele>19</ele>
        <time>1970-01-01T00:05:05.000Z</time>
      </trkpt>
      <trkpt lat="42.286702" lon="3.290803">
        <ele>19</ele>
        <time>1970-01-01T00:05:06.000Z</time>
      </trkpt>
      <trkpt lat="42.286706" lon="3.290827">
        <ele>19</ele>
        <time>1970-01-01T00:05:07.000Z</time>
      </trkpt>
      <trkpt lat="42.286709" lon="3.290851">
        <ele>19</ele>
        <time>1970-01-01T00:05:08.000Z</time>
      </trkpt>
      <trkpt lat="42.286713" lon="3.290875">
        <ele>22</ele>
        <time>1970-01-01T00:05:09.000Z</time>
      </trkpt>
      <trkpt lat="42.28675" lon="3.290862">
        <ele>22</ele>
        <time>1970-01-01T00:05:10.000Z</time>
      </trkpt>
      <trkpt lat="42.286768" lon="3.290845">
        <ele>22</ele>
        <time>1970-01-01T00:05:11.000Z</time>
      </trkpt>
      <trkpt lat="42.286786" lon="3.290828">
        <ele>22</ele>
        <time>1970-01-01T00:05:12.000Z</time>
      </trkpt>
      <trkpt lat="42.286804" lon="3.290811">
        <ele>22</ele>
        <time>1970-01-01T00:05:13.000Z</time>
      </trkpt>
      <trkpt lat="42.286823" lon="3.290795">
        <ele>22</ele>
        <time>1970-01-01T00:05:14.000Z</time>
      </trkpt>
      <trkpt lat="42.286841" lon="3.290778">
        <ele>22</ele>
        <time>1970-01-01T00:05:15.000Z</time>
      </trkpt>
      <trkpt lat="42.286859" lon="3.290761">
        <ele>22</ele>
        <time>1970-01-01T00:05:16.000Z</time>
      </trkpt>
      <trkpt lat="42.286877" lon="3.290744">
        <ele>22</ele>
        <time>1970-01-01T00:05:17.000Z</time>
      </trkpt>
      <trkpt lat="42.286895" lon="3.290727">
        <ele>22</ele>
        <time>1970-01-01T00:05:18.000Z</time>
      </trkpt>
      <trkpt lat="42.286913" lon="3.29071">
        <ele>23</ele>
        <time>1970-01-01T00:05:19.000Z</time>
      </trkpt>
      <trkpt lat="42.28695" lon="3.290667">
        <ele>23</ele>
        <time>1970-01-01T00:05:20.000Z</time>
      </trkpt>
      <trkpt lat="42.286967" lon="3.290647">
        <ele>23</ele>
        <time>1970-01-01T00:05:21.000Z</time>
      </trkpt>
      <trkpt lat="42.286985" lon="3.290628">
        <ele>23</ele>
        <time>1970-01-01T00:05:22.000Z</time>
      </trkpt>
      <trkpt lat="42.287002" lon="3.290608">
        <ele>23</ele>
        <time>1970-01-01T00:05:23.000Z</time>
      </trkpt>
      <trkpt lat="42.28702" lon="3.290588">
        <ele>23</ele>
        <time>1970-01-01T00:05:24.000Z</time>
      </trkpt>
      <trkpt lat="42.287037" lon="3.290568">
        <ele>23</ele>
        <time>1970-01-01T00:05:25.000Z</time>
      </trkpt>
      <trkpt lat="42.287055" lon="3.290548">
        <ele>23</ele>
        <time>1970-01-01T00:05:26.000Z</time>
      </trkpt>
      <trkpt lat="42.287072" lon="3.290529">
        <ele>23</ele>
        <time>1970-01-01T00:05:27.000Z</time>
      </trkpt>
      <trkpt lat="42.28709" lon="3.290509">
        <ele>23</ele>
        <time>1970-01-01T00:05:28.000Z</time>
      </trkpt>
      <trkpt lat="42.287107" lon="3.290489">
        <ele>23</ele>
        <time>1970-01-01T00:05:29.000Z</time>
      </trkpt>
      <trkpt lat="42.287141" lon="3.290442">
        <ele>23</ele>
        <time>1970-01-01T00:05:30.000Z</time>
      </trkpt>
      <trkpt lat="42.287157" lon="3.290419">
        <ele>23</ele>
        <time>1970-01-01T00:05:31.000Z</time>
      </trkpt>
      <trkpt lat="42.287174" lon="3.290395">
        <ele>23</ele>
        <time>1970-01-01T00:05:32.000Z</time>
      </trkpt>
      <trkpt lat="42.287191" lon="3.290372">
        <ele>23</ele>
        <time>1970-01-01T00:05:33.000Z</time>
      </trkpt>
      <trkpt lat="42.287208" lon="3.290349">
        <ele>23</ele>
        <time>1970-01-01T00:05:34.000Z</time>
      </trkpt>
      <trkpt lat="42.287224" lon="3.290326">
        <ele>23</ele>
        <time>1970-01-01T00:05:35.000Z</time>
      </trkpt>
      <trkpt lat="42.287241" lon="3.290303">
        <ele>23</ele>
        <time>1970-01-01T00:05:36.000Z</time>
      </trkpt>
      <trkpt lat="42.287258" lon="3.290279">
        <ele>23</ele>
        <time>1970-01-01T00:05:37.000Z</time>
      </trkpt>
      <trkpt lat="42.287274" lon="3.290256">
        <ele>23</ele>
        <time>1970-01-01T00:05:38.000Z</time>
      </trkpt>
      <trkpt lat="42.287291" lon="3.290233">
        <ele>25</ele>
        <time>1970-01-01T00:05:39.000Z</time>
      </trkpt>
      <trkpt lat="42.287326" lon="3.290163">
        <ele>25</ele>
        <time>1970-01-01T00:05:40.000Z</time>
      </trkpt>
      <trkpt lat="42.287338" lon="3.290136">
        <ele>25</ele>
        <time>1970-01-01T00:05:41.000Z</time>
      </trkpt>
      <trkpt lat="42.28735" lon="3.29011">
        <ele>25</ele>
        <time>1970-01-01T00:05:42.000Z</time>
      </trkpt>
      <trkpt lat="42.287362" lon="3.290084">
        <ele>25</ele>
        <time>1970-01-01T00:05:43.000Z</time>
      </trkpt>
      <trkpt lat="42.287374" lon="3.290058">
        <ele>25</ele>
        <time>1970-01-01T00:05:44.000Z</time>
      </trkpt>
      <trkpt lat="42.287385" lon="3.290031">
        <ele>25</ele>
        <time>1970-01-01T00:05:45.000Z</time>
      </trkpt>
      <trkpt lat="42.287397" lon="3.290005">
        <ele>25</ele>
        <time>1970-01-01T00:05:46.000Z</time>
      </trkpt>
      <trkpt lat="42.287409" lon="3.289979">
        <ele>25</ele>
        <time>1970-01-01T00:05:47.000Z</time>
      </trkpt>
      <trkpt lat="42.287421" lon="3.289952">
        <ele>25</ele>
        <time>1970-01-01T00:05:48.000Z</time>
      </trkpt>
      <trkpt lat="42.287433" lon="3.289926">
        <ele>27</ele>
        <time>1970-01-01T00:05:49.000Z</time>
      </trkpt>
      <trkpt lat="42.287453" lon="3.289882">
        <ele>27</ele>
        <time>1970-01-01T00:05:50.000Z</time>
      </trkpt>
      <trkpt lat="42.287467" lon="3.289854">
        <ele>27</ele>
        <time>1970-01-01T00:05:51.000Z</time>
      </trkpt>
      <trkpt lat="42.287481" lon="3.289826">
        <ele>27</ele>
        <time>1970-01-01T00:05:52.000Z</time>
      </trkpt>
      <trkpt lat="42.287495" lon="3.289798">
        <ele>27</ele>
        <time>1970-01-01T00:05:53.000Z</time>
      </trkpt>
      <trkpt lat="42.28751" lon="3.289771">
        <ele>27</ele>
        <time>1970-01-01T00:05:54.000Z</time>
      </trkpt>
      <trkpt lat="42.287524" lon="3.289743">
        <ele>27</ele>
        <time>1970-01-01T00:05:55.000Z</time>
      </trkpt>
      <trkpt lat="42.287538" lon="3.289715">
        <ele>27</ele>
        <time>1970-01-01T00:05:56.000Z</time>
      </trkpt>
      <trkpt lat="42.287552" lon="3.289687">
        <ele>27</ele>
        <time>1970-01-01T00:05:57.000Z</time>
      </trkpt>
      <trkpt lat="42.287566" lon="3.289659">
        <ele>27</ele>
        <time>1970-01-01T00:05:58.000Z</time>
      </trkpt>
      <trkpt lat="42.28758" lon="3.289631">
        <ele>27</ele>
        <time>1970-01-01T00:05:59.000Z</time>
      </trkpt>
      <trkpt lat="42.287619" lon="3.289574">
        <ele>27</ele>
        <time>1970-01-01T00:06:00.000Z</time>
      </trkpt>
      <trkpt lat="42.287639" lon="3.289548">
        <ele>27</ele>
        <time>1970-01-01T00:06:01.000Z</time>
      </trkpt>
      <trkpt lat="42.28766" lon="3.289522">
        <ele>27</ele>
        <time>1970-01-01T00:06:02.000Z</time>
      </trkpt>
      <trkpt lat="42.28768" lon="3.289496">
        <ele>27</ele>
        <time>1970-01-01T00:06:03.000Z</time>
      </trkpt>
      <trkpt lat="42.287701" lon="3.289471">
        <ele>27</ele>
        <time>1970-01-01T00:06:04.000Z</time>
      </trkpt>
      <trkpt lat="42.287722" lon="3.289445">
        <ele>27</ele>
        <time>1970-01-01T00:06:05.000Z</time>
      </trkpt>
      <trkpt lat="42.287742" lon="3.289419">
        <ele>27</ele>
        <time>1970-01-01T00:06:06.000Z</time>
      </trkpt>
      <trkpt lat="42.287763" lon="3.289393">
        <ele>27</ele>
        <time>1970-01-01T00:06:07.000Z</time>
      </trkpt>
      <trkpt lat="42.287783" lon="3.289367">
        <ele>27</ele>
        <time>1970-01-01T00:06:08.000Z</time>
      </trkpt>
      <trkpt lat="42.287804" lon="3.289341">
        <ele>27</ele>
        <time>1970-01-01T00:06:09.000Z</time>
      </trkpt>
      <trkpt lat="42.287856" lon="3.289288">
        <ele>27</ele>
        <time>1970-01-01T00:06:10.000Z</time>
      </trkpt>
      <trkpt lat="42.287882" lon="3.289264">
        <ele>27</ele>
        <time>1970-01-01T00:06:11.000Z</time>
      </trkpt>
      <trkpt lat="42.287907" lon="3.289239">
        <ele>27</ele>
        <time>1970-01-01T00:06:12.000Z</time>
      </trkpt>
      <trkpt lat="42.287932" lon="3.289215">
        <ele>27</ele>
        <time>1970-01-01T00:06:13.000Z</time>
      </trkpt>
      <trkpt lat="42.287958" lon="3.28919">
        <ele>27</ele>
        <time>1970-01-01T00:06:14.000Z</time>
      </trkpt>
      <trkpt lat="42.287983" lon="3.289165">
        <ele>27</ele>
        <time>1970-01-01T00:06:15.000Z</time>
      </trkpt>
      <trkpt lat="42.288008" lon="3.289141">
        <ele>27</ele>
        <time>1970-01-01T00:06:16.000Z</time>
      </trkpt>
      <trkpt lat="42.288033" lon="3.289116">
        <ele>27</ele>
        <time>1970-01-01T00:06:17.000Z</time>
      </trkpt>
      <trkpt lat="42.288059" lon="3.289092">
        <ele>27</ele>
        <time>1970-01-01T00:06:18.000Z</time>
      </trkpt>
      <trkpt lat="42.288084" lon="3.289067">
        <ele>27</ele>
        <time>1970-01-01T00:06:19.000Z</time>
      </trkpt>
      <trkpt lat="42.288129" lon="3.28902">
        <ele>27</ele>
        <time>1970-01-01T00:06:20.000Z</time>
      </trkpt>
      <trkpt lat="42.288151" lon="3.288999">
        <ele>27</ele>
        <time>1970-01-01T00:06:21.000Z</time>
      </trkpt>
      <trkpt lat="42.288172" lon="3.288979">
        <ele>27</ele>
        <time>1970-01-01T00:06:22.000Z</time>
      </trkpt>
      <trkpt lat="42.288193" lon="3.288958">
        <ele>27</ele>
        <time>1970-01-01T00:06:23.000Z</time>
      </trkpt>
      <trkpt lat="42.288215" lon="3.288938">
        <ele>27</ele>
        <time>1970-01-01T00:06:24.000Z</time>
      </trkpt>
      <trkpt lat="42.288236" lon="3.288917">
        <ele>27</ele>
        <time>1970-01-01T00:06:25.000Z</time>
      </trkpt>
      <trkpt lat="42.288257" lon="3.288897">
        <ele>27</ele>
        <time>1970-01-01T00:06:26.000Z</time>
      </trkpt>
      <trkpt lat="42.288278" lon="3.288876">
        <ele>27</ele>
        <time>1970-01-01T00:06:27.000Z</time>
      </trkpt>
      <trkpt lat="42.2883" lon="3.288856">
        <ele>27</ele>
        <time>1970-01-01T00:06:28.000Z</time>
      </trkpt>
      <trkpt lat="42.288321" lon="3.288835">
        <ele>28</ele>
        <time>1970-01-01T00:06:29.000Z</time>
      </trkpt>
      <trkpt lat="42.288361" lon="3.288793">
        <ele>28</ele>
        <time>1970-01-01T00:06:30.000Z</time>
      </trkpt>
      <trkpt lat="42.288378" lon="3.288772">
        <ele>28</ele>
        <time>1970-01-01T00:06:31.000Z</time>
      </trkpt>
      <trkpt lat="42.288396" lon="3.288752">
        <ele>28</ele>
        <time>1970-01-01T00:06:32.000Z</time>
      </trkpt>
      <trkpt lat="42.288413" lon="3.288731">
        <ele>28</ele>
        <time>1970-01-01T00:06:33.000Z</time>
      </trkpt>
      <trkpt lat="42.288431" lon="3.288711">
        <ele>28</ele>
        <time>1970-01-01T00:06:34.000Z</time>
      </trkpt>
      <trkpt lat="42.288449" lon="3.288691">
        <ele>28</ele>
        <time>1970-01-01T00:06:35.000Z</time>
      </trkpt>
      <trkpt lat="42.288466" lon="3.28867">
        <ele>28</ele>
        <time>1970-01-01T00:06:36.000Z</time>
      </trkpt>
      <trkpt lat="42.288484" lon="3.28865">
        <ele>28</ele>
        <time>1970-01-01T00:06:37.000Z</time>
      </trkpt>
      <trkpt lat="42.288501" lon="3.288629">
        <ele>28</ele>
        <time>1970-01-01T00:06:38.000Z</time>
      </trkpt>
      <trkpt lat="42.288519" lon="3.288609">
        <ele>29</ele>
        <time>1970-01-01T00:06:39.000Z</time>
      </trkpt>
      <trkpt lat="42.288557" lon="3.288564">
        <ele>29</ele>
        <time>1970-01-01T00:06:40.000Z</time>
      </trkpt>
      <trkpt lat="42.288577" lon="3.288543">
        <ele>29</ele>
        <time>1970-01-01T00:06:41.000Z</time>
      </trkpt>
      <trkpt lat="42.288597" lon="3.288523">
        <ele>29</ele>
        <time>1970-01-01T00:06:42.000Z</time>
      </trkpt>
      <trkpt lat="42.288617" lon="3.288503">
        <ele>29</ele>
        <time>1970-01-01T00:06:43.000Z</time>
      </trkpt>
      <trkpt lat="42.288637" lon="3.288483">
        <ele>29</ele>
        <time>1970-01-01T00:06:44.000Z</time>
      </trkpt>
      <trkpt lat="42.288656" lon="3.288462">
        <ele>29</ele>
        <time>1970-01-01T00:06:45.000Z</time>
      </trkpt>
      <trkpt lat="42.288676" lon="3.288442">
        <ele>29</ele>
        <time>1970-01-01T00:06:46.000Z</time>
      </trkpt>
      <trkpt lat="42.288696" lon="3.288422">
        <ele>29</ele>
        <time>1970-01-01T00:06:47.000Z</time>
      </trkpt>
      <trkpt lat="42.288716" lon="3.288401">
        <ele>29</ele>
        <time>1970-01-01T00:06:48.000Z</time>
      </trkpt>
      <trkpt lat="42.288736" lon="3.288381">
        <ele>31</ele>
        <time>1970-01-01T00:06:49.000Z</time>
      </trkpt>
      <trkpt lat="42.288782" lon="3.288333">
        <ele>31</ele>
        <time>1970-01-01T00:06:50.000Z</time>
      </trkpt>
      <trkpt lat="42.288805" lon="3.288308">
        <ele>31</ele>
        <time>1970-01-01T00:06:51.000Z</time>
      </trkpt>
      <trkpt lat="42.288827" lon="3.288283">
        <ele>31</ele>
        <time>1970-01-01T00:06:52.000Z</time>
      </trkpt>
      <trkpt lat="42.28885" lon="3.288258">
        <ele>31</ele>
        <time>1970-01-01T00:06:53.000Z</time>
      </trkpt>
      <trkpt lat="42.288872" lon="3.288233">
        <ele>31</ele>
        <time>1970-01-01T00:06:54.000Z</time>
      </trkpt>
      <trkpt lat="42.288894" lon="3.288207">
        <ele>31</ele>
        <time>1970-01-01T00:06:55.000Z</time>
      </trkpt>
      <trkpt lat="42.288917" lon="3.288182">
        <ele>31</ele>
        <time>1970-01-01T00:06:56.000Z</time>
      </trkpt>
      <trkpt lat="42.288939" lon="3.288157">
        <ele>31</ele>
        <time>1970-01-01T00:06:57.000Z</time>
      </trkpt>
      <trkpt lat="42.288962" lon="3.288132">
        <ele>31</ele>
        <time>1970-01-01T00:06:58.000Z</time>
      </trkpt>
      <trkpt lat="42.288984" lon="3.288107">
        <ele>31</ele>
        <time>1970-01-01T00:06:59.000Z</time>
      </trkpt>
      <trkpt lat="42.289036" lon="3.288049">
        <ele>31</ele>
        <time>1970-01-01T00:07:00.000Z</time>
      </trkpt>
      <trkpt lat="42.289062" lon="3.28802">
        <ele>31</ele>
        <time>1970-01-01T00:07:01.000Z</time>
      </trkpt>
      <trkpt lat="42.289088" lon="3.28799">
        <ele>31</ele>
        <time>1970-01-01T00:07:02.000Z</time>
      </trkpt>
      <trkpt lat="42.289114" lon="3.287961">
        <ele>31</ele>
        <time>1970-01-01T00:07:03.000Z</time>
      </trkpt>
      <trkpt lat="42.28914" lon="3.287932">
        <ele>31</ele>
        <time>1970-01-01T00:07:04.000Z</time>
      </trkpt>
      <trkpt lat="42.289166" lon="3.287903">
        <ele>31</ele>
        <time>1970-01-01T00:07:05.000Z</time>
      </trkpt>
      <trkpt lat="42.289192" lon="3.287874">
        <ele>31</ele>
        <time>1970-01-01T00:07:06.000Z</time>
      </trkpt>
      <trkpt lat="42.289218" lon="3.287844">
        <ele>31</ele>
        <time>1970-01-01T00:07:07.000Z</time>
      </trkpt>
      <trkpt lat="42.289244" lon="3.287815">
        <ele>31</ele>
        <time>1970-01-01T00:07:08.000Z</time>
      </trkpt>
      <trkpt lat="42.28927" lon="3.287786">
        <ele>31</ele>
        <time>1970-01-01T00:07:09.000Z</time>
      </trkpt>
      <trkpt lat="42.289329" lon="3.287719">
        <ele>31</ele>
        <time>1970-01-01T00:07:10.000Z</time>
      </trkpt>
      <trkpt lat="42.289359" lon="3.287687">
        <ele>31</ele>
        <time>1970-01-01T00:07:11.000Z</time>
      </trkpt>
      <trkpt lat="42.289388" lon="3.287654">
        <ele>31</ele>
        <time>1970-01-01T00:07:12.000Z</time>
      </trkpt>
      <trkpt lat="42.289418" lon="3.287622">
        <ele>31</ele>
        <time>1970-01-01T00:07:13.000Z</time>
      </trkpt>
      <trkpt lat="42.289447" lon="3.28759">
        <ele>31</ele>
        <time>1970-01-01T00:07:14.000Z</time>
      </trkpt>
      <trkpt lat="42.289476" lon="3.287558">
        <ele>31</ele>
        <time>1970-01-01T00:07:15.000Z</time>
      </trkpt>
      <trkpt lat="42.289506" lon="3.287526">
        <ele>31</ele>
        <time>1970-01-01T00:07:16.000Z</time>
      </trkpt>
      <trkpt lat="42.289535" lon="3.287493">
        <ele>31</ele>
        <time>1970-01-01T00:07:17.000Z</time>
      </trkpt>
      <trkpt lat="42.289565" lon="3.287461">
        <ele>31</ele>
        <time>1970-01-01T00:07:18.000Z</time>
      </trkpt>
      <trkpt lat="42.289594" lon="3.287429">
        <ele>31</ele>
        <time>1970-01-01T00:07:19.000Z</time>
      </trkpt>
      <trkpt lat="42.28966" lon="3.287355">
        <ele>31</ele>
        <time>1970-01-01T00:07:20.000Z</time>
      </trkpt>
      <trkpt lat="42.289691" lon="3.287321">
        <ele>31</ele>
        <time>1970-01-01T00:07:21.000Z</time>
      </trkpt>
      <trkpt lat="42.289723" lon="3.287286">
        <ele>31</ele>
        <time>1970-01-01T00:07:22.000Z</time>
      </trkpt>
      <trkpt lat="42.289754" lon="3.287252">
        <ele>31</ele>
        <time>1970-01-01T00:07:23.000Z</time>
      </trkpt>
      <trkpt lat="42.289786" lon="3.287217">
        <ele>31</ele>
        <time>1970-01-01T00:07:24.000Z</time>
      </trkpt>
      <trkpt lat="42.289818" lon="3.287182">
        <ele>31</ele>
        <time>1970-01-01T00:07:25.000Z</time>
      </trkpt>
      <trkpt lat="42.289849" lon="3.287148">
        <ele>31</ele>
        <time>1970-01-01T00:07:26.000Z</time>
      </trkpt>
      <trkpt lat="42.289881" lon="3.287113">
        <ele>31</ele>
        <time>1970-01-01T00:07:27.000Z</time>
      </trkpt>
      <trkpt lat="42.289912" lon="3.287079">
        <ele>31</ele>
        <time>1970-01-01T00:07:28.000Z</time>
      </trkpt>
      <trkpt lat="42.289944" lon="3.287044">
        <ele>30</ele>
        <time>1970-01-01T00:07:29.000Z</time>
      </trkpt>
      <trkpt lat="42.29002" lon="3.286965">
        <ele>30</ele>
        <time>1970-01-01T00:07:30.000Z</time>
      </trkpt>
      <trkpt lat="42.290057" lon="3.286924">
        <ele>30</ele>
        <time>1970-01-01T00:07:31.000Z</time>
      </trkpt>
      <trkpt lat="42.290095" lon="3.286883">
        <ele>30</ele>
        <time>1970-01-01T00:07:32.000Z</time>
      </trkpt>
      <trkpt lat="42.290132" lon="3.286842">
        <ele>30</ele>
        <time>1970-01-01T00:07:33.000Z</time>
      </trkpt>
      <trkpt lat="42.29017" lon="3.286801">
        <ele>30</ele>
        <time>1970-01-01T00:07:34.000Z</time>
      </trkpt>
      <trkpt lat="42.290207" lon="3.286759">
        <ele>30</ele>
        <time>1970-01-01T00:07:35.000Z</time>
      </trkpt>
      <trkpt lat="42.290245" lon="3.286718">
        <ele>30</ele>
        <time>1970-01-01T00:07:36.000Z</time>
      </trkpt>
      <trkpt lat="42.290282" lon="3.286677">
        <ele>30</ele>
        <time>1970-01-01T00:07:37.000Z</time>
      </trkpt>
      <trkpt lat="42.29032" lon="3.286636">
        <ele>30</ele>
        <time>1970-01-01T00:07:38.000Z</time>
      </trkpt>
      <trkpt lat="42.290357" lon="3.286595">
        <ele>30</ele>
        <time>1970-01-01T00:07:39.000Z</time>
      </trkpt>
      <trkpt lat="42.290426" lon="3.286484">
        <ele>30</ele>
        <time>1970-01-01T00:07:40.000Z</time>
      </trkpt>
      <trkpt lat="42.290454" lon="3.286431">
        <ele>30</ele>
        <time>1970-01-01T00:07:41.000Z</time>
      </trkpt>
      <trkpt lat="42.290482" lon="3.286378">
        <ele>30</ele>
        <time>1970-01-01T00:07:42.000Z</time>
      </trkpt>
      <trkpt lat="42.29051" lon="3.286325">
        <ele>30</ele>
        <time>1970-01-01T00:07:43.000Z</time>
      </trkpt>
      <trkpt lat="42.290538" lon="3.286272">
        <ele>30</ele>
        <time>1970-01-01T00:07:44.000Z</time>
      </trkpt>
      <trkpt lat="42.290565" lon="3.286218">
        <ele>30</ele>
        <time>1970-01-01T00:07:45.000Z</time>
      </trkpt>
      <trkpt lat="42.290593" lon="3.286165">
        <ele>30</ele>
        <time>1970-01-01T00:07:46.000Z</time>
      </trkpt>
      <trkpt lat="42.290621" lon="3.286112">
        <ele>30</ele>
        <time>1970-01-01T00:07:47.000Z</time>
      </trkpt>
      <trkpt lat="42.290649" lon="3.286059">
        <ele>30</ele>
        <time>1970-01-01T00:07:48.000Z</time>
      </trkpt>
      <trkpt lat="42.290677" lon="3.286006">
        <ele>29</ele>
        <time>1970-01-01T00:07:49.000Z</time>
      </trkpt>
      <trkpt lat="42.290721" lon="3.285908">
        <ele>29</ele>
        <time>1970-01-01T00:07:50.000Z</time>
      </trkpt>
      <trkpt lat="42.290742" lon="3.285863">
        <ele>29</ele>
        <time>1970-01-01T00:07:51.000Z</time>
      </trkpt>
      <trkpt lat="42.290762" lon="3.285819">
        <ele>29</ele>
        <time>1970-01-01T00:07:52.000Z</time>
      </trkpt>
      <trkpt lat="42.290782" lon="3.285774">
        <ele>29</ele>
        <time>1970-01-01T00:07:53.000Z</time>
      </trkpt>
      <trkpt lat="42.290803" lon="3.28573">
        <ele>29</ele>
        <time>1970-01-01T00:07:54.000Z</time>
      </trkpt>
      <trkpt lat="42.290823" lon="3.285686">
        <ele>29</ele>
        <time>1970-01-01T00:07:55.000Z</time>
      </trkpt>
      <trkpt lat="42.290843" lon="3.285641">
        <ele>29</ele>
        <time>1970-01-01T00:07:56.000Z</time>
      </trkpt>
      <trkpt lat="42.290863" lon="3.285597">
        <ele>29</ele>
        <time>1970-01-01T00:07:57.000Z</time>
      </trkpt>
      <trkpt lat="42.290884" lon="3.285552">
        <ele>29</ele>
        <time>1970-01-01T00:07:58.000Z</time>
      </trkpt>
      <trkpt lat="42.290904" lon="3.285508">
        <ele>31</ele>
        <time>1970-01-01T00:07:59.000Z</time>
      </trkpt>
      <trkpt lat="42.290929" lon="3.285444">
        <ele>31</ele>
        <time>1970-01-01T00:08:00.000Z</time>
      </trkpt>
      <trkpt lat="42.29094" lon="3.285418">
        <ele>31</ele>
        <time>1970-01-01T00:08:01.000Z</time>
      </trkpt>
      <trkpt lat="42.29095" lon="3.285392">
        <ele>31</ele>
        <time>1970-01-01T00:08:02.000Z</time>
      </trkpt>
      <trkpt lat="42.290961" lon="3.285366">
        <ele>31</ele>
        <time>1970-01-01T00:08:03.000Z</time>
      </trkpt>
      <trkpt lat="42.290971" lon="3.28534">
        <ele>31</ele>
        <time>1970-01-01T00:08:04.000Z</time>
      </trkpt>
      <trkpt lat="42.290981" lon="3.285314">
        <ele>31</ele>
        <time>1970-01-01T00:08:05.000Z</time>
      </trkpt>
      <trkpt lat="42.290992" lon="3.285288">
        <ele>31</ele>
        <time>1970-01-01T00:08:06.000Z</time>
      </trkpt>
      <trkpt lat="42.291002" lon="3.285262">
        <ele>31</ele>
        <time>1970-01-01T00:08:07.000Z</time>
      </trkpt>
      <trkpt lat="42.291013" lon="3.285236">
        <ele>31</ele>
        <time>1970-01-01T00:08:08.000Z</time>
      </trkpt>
      <trkpt lat="42.291023" lon="3.28521">
        <ele>33</ele>
        <time>1970-01-01T00:08:09.000Z</time>
      </trkpt>
      <trkpt lat="42.291049" lon="3.285147">
        <ele>33</ele>
        <time>1970-01-01T00:08:10.000Z</time>
      </trkpt>
      <trkpt lat="42.291063" lon="3.285117">
        <ele>33</ele>
        <time>1970-01-01T00:08:11.000Z</time>
      </trkpt>
      <trkpt lat="42.291078" lon="3.285088">
        <ele>33</ele>
        <time>1970-01-01T00:08:12.000Z</time>
      </trkpt>
      <trkpt lat="42.291092" lon="3.285058">
        <ele>33</ele>
        <time>1970-01-01T00:08:13.000Z</time>
      </trkpt>
      <trkpt lat="42.291106" lon="3.285028">
        <ele>33</ele>
        <time>1970-01-01T00:08:14.000Z</time>
      </trkpt>
      <trkpt lat="42.29112" lon="3.284998">
        <ele>33</ele>
        <time>1970-01-01T00:08:15.000Z</time>
      </trkpt>
      <trkpt lat="42.291134" lon="3.284968">
        <ele>33</ele>
        <time>1970-01-01T00:08:16.000Z</time>
      </trkpt>
      <trkpt lat="42.291149" lon="3.284939">
        <ele>33</ele>
        <time>1970-01-01T00:08:17.000Z</time>
      </trkpt>
      <trkpt lat="42.291163" lon="3.284909">
        <ele>33</ele>
        <time>1970-01-01T00:08:18.000Z</time>
      </trkpt>
      <trkpt lat="42.291177" lon="3.284879">
        <ele>34</ele>
        <time>1970-01-01T00:08:19.000Z</time>
      </trkpt>
      <trkpt lat="42.291208" lon="3.284817">
        <ele>34</ele>
        <time>1970-01-01T00:08:20.000Z</time>
      </trkpt>
      <trkpt lat="42.291223" lon="3.284787">
        <ele>34</ele>
        <time>1970-01-01T00:08:21.000Z</time>
      </trkpt>
      <trkpt lat="42.291237" lon="3.284757">
        <ele>34</ele>
        <time>1970-01-01T00:08:22.000Z</time>
      </trkpt>
      <trkpt lat="42.291252" lon="3.284727">
        <ele>34</ele>
        <time>1970-01-01T00:08:23.000Z</time>
      </trkpt>
      <trkpt lat="42.291266" lon="3.284697">
        <ele>34</ele>
        <time>1970-01-01T00:08:24.000Z</time>
      </trkpt>
      <trkpt lat="42.29128" lon="3.284667">
        <ele>34</ele>
        <time>1970-01-01T00:08:25.000Z</time>
      </trkpt>
      <trkpt lat="42.291295" lon="3.284637">
        <ele>34</ele>
        <time>1970-01-01T00:08:26.000Z</time>
      </trkpt>
      <trkpt lat="42.291309" lon="3.284607">
        <ele>34</ele>
        <time>1970-01-01T00:08:27.000Z</time>
      </trkpt>
      <trkpt lat="42.291324" lon="3.284577">
        <ele>34</ele>
        <time>1970-01-01T00:08:28.000Z</time>
      </trkpt>
      <trkpt lat="42.291338" lon="3.284547">
        <ele>36</ele>
        <time>1970-01-01T00:08:29.000Z</time>
      </trkpt>
      <trkpt lat="42.291378" lon="3.284483">
        <ele>36</ele>
        <time>1970-01-01T00:08:30.000Z</time>
      </trkpt>
      <trkpt lat="42.291399" lon="3.284452">
        <ele>36</ele>
        <time>1970-01-01T00:08:31.000Z</time>
      </trkpt>
      <trkpt lat="42.29142" lon="3.284421">
        <ele>36</ele>
        <time>1970-01-01T00:08:32.000Z</time>
      </trkpt>
      <trkpt lat="42.291441" lon="3.28439">
        <ele>36</ele>
        <time>1970-01-01T00:08:33.000Z</time>
      </trkpt>
      <trkpt lat="42.291462" lon="3.28436">
        <ele>36</ele>
        <time>1970-01-01T00:08:34.000Z</time>
      </trkpt>
      <trkpt lat="42.291482" lon="3.284329">
        <ele>36</ele>
        <time>1970-01-01T00:08:35.000Z</time>
      </trkpt>
      <trkpt lat="42.291503" lon="3.284298">
        <ele>36</ele>
        <time>1970-01-01T00:08:36.000Z</time>
      </trkpt>
      <trkpt lat="42.291524" lon="3.284267">
        <ele>36</ele>
        <time>1970-01-01T00:08:37.000Z</time>
      </trkpt>
      <trkpt lat="42.291545" lon="3.284236">
        <ele>36</ele>
        <time>1970-01-01T00:08:38.000Z</time>
      </trkpt>
      <trkpt lat="42.291566" lon="3.284205">
        <ele>36</ele>
        <time>1970-01-01T00:08:39.000Z</time>
      </trkpt>
      <trkpt lat="42.291616" lon="3.284142">
        <ele>36</ele>
        <time>1970-01-01T00:08:40.000Z</time>
      </trkpt>
      <trkpt lat="42.29164" lon="3.284112">
        <ele>36</ele>
        <time>1970-01-01T00:08:41.000Z</time>
      </trkpt>
      <trkpt lat="42.291663" lon="3.284083">
        <ele>36</ele>
        <time>1970-01-01T00:08:42.000Z</time>
      </trkpt>
      <trkpt lat="42.291687" lon="3.284054">
        <ele>36</ele>
        <time>1970-01-01T00:08:43.000Z</time>
      </trkpt>
      <trkpt lat="42.29171" lon="3.284025">
        <ele>36</ele>
        <time>1970-01-01T00:08:44.000Z</time>
      </trkpt>
      <trkpt lat="42.291733" lon="3.283995">
        <ele>36</ele>
        <time>1970-01-01T00:08:45.000Z</time>
      </trkpt>
      <trkpt lat="42.291757" lon="3.283966">
        <ele>36</ele>
        <time>1970-01-01T00:08:46.000Z</time>
      </trkpt>
      <trkpt lat="42.29178" lon="3.283937">
        <ele>36</ele>
        <time>1970-01-01T00:08:47.000Z</time>
      </trkpt>
      <trkpt lat="42.291804" lon="3.283907">
        <ele>36</ele>
        <time>1970-01-01T00:08:48.000Z</time>
      </trkpt>
      <trkpt lat="42.291827" lon="3.283878">
        <ele>36</ele>
        <time>1970-01-01T00:08:49.000Z</time>
      </trkpt>
      <trkpt lat="42.291865" lon="3.283804">
        <ele>36</ele>
        <time>1970-01-01T00:08:50.000Z</time>
      </trkpt>
      <trkpt lat="42.291863" lon="3.283774">
        <ele>36</ele>
        <time>1970-01-01T00:08:51.000Z</time>
      </trkpt>
      <trkpt lat="42.291862" lon="3.283743">
        <ele>36</ele>
        <time>1970-01-01T00:08:52.000Z</time>
      </trkpt>
      <trkpt lat="42.29186" lon="3.283713">
        <ele>36</ele>
        <time>1970-01-01T00:08:53.000Z</time>
      </trkpt>
      <trkpt lat="42.291859" lon="3.283683">
        <ele>36</ele>
        <time>1970-01-01T00:08:54.000Z</time>
      </trkpt>
      <trkpt lat="42.291858" lon="3.283653">
        <ele>36</ele>
        <time>1970-01-01T00:08:55.000Z</time>
      </trkpt>
      <trkpt lat="42.291856" lon="3.283623">
        <ele>36</ele>
        <time>1970-01-01T00:08:56.000Z</time>
      </trkpt>
      <trkpt lat="42.291855" lon="3.283592">
        <ele>36</ele>
        <time>1970-01-01T00:08:57.000Z</time>
      </trkpt>
      <trkpt lat="42.291853" lon="3.283562">
        <ele>36</ele>
        <time>1970-01-01T00:08:58.000Z</time>
      </trkpt>
      <trkpt lat="42.291852" lon="3.283532">
        <ele>36</ele>
        <time>1970-01-01T00:08:59.000Z</time>
      </trkpt>
      <trkpt lat="42.291836" lon="3.283475">
        <ele>36</ele>
        <time>1970-01-01T00:09:00.000Z</time>
      </trkpt>
      <trkpt lat="42.291828" lon="3.283438">
        <ele>36</ele>
        <time>1970-01-01T00:09:01.000Z</time>
      </trkpt>
      <trkpt lat="42.29182" lon="3.2834">
        <ele>36</ele>
        <time>1970-01-01T00:09:02.000Z</time>
      </trkpt>
      <trkpt lat="42.291812" lon="3.283363">
        <ele>36</ele>
        <time>1970-01-01T00:09:03.000Z</time>
      </trkpt>
      <trkpt lat="42.291804" lon="3.283326">
        <ele>36</ele>
        <time>1970-01-01T00:09:04.000Z</time>
      </trkpt>
      <trkpt lat="42.291795" lon="3.283289">
        <ele>36</ele>
        <time>1970-01-01T00:09:05.000Z</time>
      </trkpt>
      <trkpt lat="42.291787" lon="3.283252">
        <ele>36</ele>
        <time>1970-01-01T00:09:06.000Z</time>
      </trkpt>
      <trkpt lat="42.291779" lon="3.283214">
        <ele>36</ele>
        <time>1970-01-01T00:09:07.000Z</time>
      </trkpt>
      <trkpt lat="42.291771" lon="3.283177">
        <ele>36</ele>
        <time>1970-01-01T00:09:08.000Z</time>
      </trkpt>
      <trkpt lat="42.291763" lon="3.28314">
        <ele>36</ele>
        <time>1970-01-01T00:09:09.000Z</time>
      </trkpt>
      <trkpt lat="42.29176" lon="3.283057">
        <ele>36</ele>
        <time>1970-01-01T00:09:10.000Z</time>
      </trkpt>
      <trkpt lat="42.291758" lon="3.283017">
        <ele>36</ele>
        <time>1970-01-01T00:09:11.000Z</time>
      </trkpt>
      <trkpt lat="42.291757" lon="3.282977">
        <ele>36</ele>
        <time>1970-01-01T00:09:12.000Z</time>
      </trkpt>
      <trkpt lat="42.291755" lon="3.282937">
        <ele>36</ele>
        <time>1970-01-01T00:09:13.000Z</time>
      </trkpt>
      <trkpt lat="42.291754" lon="3.282897">
        <ele>36</ele>
        <time>1970-01-01T00:09:14.000Z</time>
      </trkpt>
      <trkpt lat="42.291752" lon="3.282857">
        <ele>36</ele>
        <time>1970-01-01T00:09:15.000Z</time>
      </trkpt>
      <trkpt lat="42.291751" lon="3.282817">
        <ele>36</ele>
        <time>1970-01-01T00:09:16.000Z</time>
      </trkpt>
      <trkpt lat="42.291749" lon="3.282777">
        <ele>36</ele>
        <time>1970-01-01T00:09:17.000Z</time>
      </trkpt>
      <trkpt lat="42.291748" lon="3.282737">
        <ele>36</ele>
        <time>1970-01-01T00:09:18.000Z</time>
      </trkpt>
      <trkpt lat="42.291746" lon="3.282697">
        <ele>36</ele>
        <time>1970-01-01T00:09:19.000Z</time>
      </trkpt>
      <trkpt lat="42.291739" lon="3.282614">
        <ele>36</ele>
        <time>1970-01-01T00:09:20.000Z</time>
      </trkpt>
      <trkpt lat="42.291736" lon="3.282575">
        <ele>36</ele>
        <time>1970-01-01T00:09:21.000Z</time>
      </trkpt>
      <trkpt lat="42.291732" lon="3.282535">
        <ele>36</ele>
        <time>1970-01-01T00:09:22.000Z</time>
      </trkpt>
      <trkpt lat="42.291728" lon="3.282496">
        <ele>36</ele>
        <time>1970-01-01T00:09:23.000Z</time>
      </trkpt>
      <trkpt lat="42.291725" lon="3.282456">
        <ele>36</ele>
        <time>1970-01-01T00:09:24.000Z</time>
      </trkpt>
      <trkpt lat="42.291721" lon="3.282417">
        <ele>36</ele>
        <time>1970-01-01T00:09:25.000Z</time>
      </trkpt>
      <trkpt lat="42.291717" lon="3.282377">
        <ele>36</ele>
        <time>1970-01-01T00:09:26.000Z</time>
      </trkpt>
      <trkpt lat="42.291713" lon="3.282338">
        <ele>36</ele>
        <time>1970-01-01T00:09:27.000Z</time>
      </trkpt>
      <trkpt lat="42.29171" lon="3.282298">
        <ele>36</ele>
        <time>1970-01-01T00:09:28.000Z</time>
      </trkpt>
      <trkpt lat="42.291706" lon="3.282259">
        <ele>38</ele>
        <time>1970-01-01T00:09:29.000Z</time>
      </trkpt>
      <trkpt lat="42.291701" lon="3.282219">
        <ele>38</ele>
        <time>1970-01-01T00:09:30.000Z</time>
      </trkpt>
      <trkpt lat="42.29169" lon="3.282184">
        <ele>38</ele>
        <time>1970-01-01T00:09:31.000Z</time>
      </trkpt>
      <trkpt lat="42.291675" lon="3.282155">
        <ele>38</ele>
        <time>1970-01-01T00:09:32.000Z</time>
      </trkpt>
      <trkpt lat="42.291665" lon="3.282131">
        <ele>38</ele>
        <time>1970-01-01T00:09:33.000Z</time>
      </trkpt>
      <trkpt lat="42.291665" lon="3.282131">
        <ele>38</ele>
        <time>1970-01-01T00:09:38.000Z</time>
      </trkpt>
      <trkpt lat="42.291722" lon="3.282069">
        <ele>41</ele>
        <time>1970-01-01T00:24:00.000Z</time>
      </trkpt>
      <trkpt lat="42.291714" lon="3.282043">
        <ele>41</ele>
        <time>1970-01-01T00:24:02.000Z</time>
      </trkpt>
      <trkpt lat="42.291705" lon="3.282017">
        <ele>42</ele>
        <time>1970-01-01T00:24:15.000Z</time>
      </trkpt>
      <trkpt lat="42.291697" lon="3.281991">
        <ele>42</ele>
        <time>1970-01-01T00:24:17.000Z</time>
      </trkpt>
      <trkpt lat="42.291689" lon="3.281965">
        <ele>42</ele>
        <time>1970-01-01T00:24:18.000Z</time>
      </trkpt>
      <trkpt lat="42.291681" lon="3.281939">
        <ele>42</ele>
        <time>1970-01-01T00:24:19.000Z</time>
      </trkpt>
      <trkpt lat="42.291672" lon="3.281914">
        <ele>42</ele>
        <time>1970-01-01T00:24:20.000Z</time>
      </trkpt>
      <trkpt lat="42.291664" lon="3.281888">
        <ele>42</ele>
        <time>1970-01-01T00:24:21.000Z</time>
      </trkpt>
      <trkpt lat="42.291656" lon="3.281862">
        <ele>42</ele>
        <time>1970-01-01T00:24:22.000Z</time>
      </trkpt>
      <trkpt lat="42.291648" lon="3.281836">
        <ele>42</ele>
        <time>1970-01-01T00:24:23.000Z</time>
      </trkpt>
      <trkpt lat="42.291639" lon="3.28181">
        <ele>42</ele>
        <time>1970-01-01T00:24:24.000Z</time>
      </trkpt>
      <trkpt lat="42.291631" lon="3.281784">
        <ele>42</ele>
        <time>1970-01-01T00:24:25.000Z</time>
      </trkpt>
      <trkpt lat="42.2916" lon="3.281732">
        <ele>42</ele>
        <time>1970-01-01T00:24:26.000Z</time>
      </trkpt>
      <trkpt lat="42.291587" lon="3.281711">
        <ele>42</ele>
        <time>1970-01-01T00:24:27.000Z</time>
      </trkpt>
      <trkpt lat="42.291573" lon="3.28169">
        <ele>42</ele>
        <time>1970-01-01T00:24:28.000Z</time>
      </trkpt>
      <trkpt lat="42.29156" lon="3.281669">
        <ele>42</ele>
        <time>1970-01-01T00:24:29.000Z</time>
      </trkpt>
      <trkpt lat="42.291547" lon="3.281648">
        <ele>42</ele>
        <time>1970-01-01T00:24:30.000Z</time>
      </trkpt>
      <trkpt lat="42.291534" lon="3.281627">
        <ele>42</ele>
        <time>1970-01-01T00:24:32.000Z</time>
      </trkpt>
      <trkpt lat="42.29152" lon="3.281606">
        <ele>42</ele>
        <time>1970-01-01T00:24:34.000Z</time>
      </trkpt>
      <trkpt lat="42.291507" lon="3.281585">
        <ele>43</ele>
        <time>1970-01-01T00:24:35.000Z</time>
      </trkpt>
      <trkpt lat="42.291501" lon="3.28155">
        <ele>43</ele>
        <time>1970-01-01T00:24:36.000Z</time>
      </trkpt>
      <trkpt lat="42.291504" lon="3.281529">
        <ele>43</ele>
        <time>1970-01-01T00:24:38.000Z</time>
      </trkpt>
      <trkpt lat="42.291506" lon="3.281507">
        <ele>43</ele>
        <time>1970-01-01T00:24:40.000Z</time>
      </trkpt>
      <trkpt lat="42.291508" lon="3.281485">
        <ele>43</ele>
        <time>1970-01-01T00:24:42.000Z</time>
      </trkpt>
      <trkpt lat="42.291511" lon="3.281464">
        <ele>43</ele>
        <time>1970-01-01T00:24:44.000Z</time>
      </trkpt>
      <trkpt lat="42.291513" lon="3.281442">
        <ele>43</ele>
        <time>1970-01-01T00:24:45.000Z</time>
      </trkpt>
      <trkpt lat="42.29154" lon="3.28142">
        <ele>43</ele>
        <time>1970-01-01T00:24:46.000Z</time>
      </trkpt>
      <trkpt lat="42.291557" lon="3.281406">
        <ele>43</ele>
        <time>1970-01-01T00:24:48.000Z</time>
      </trkpt>
      <trkpt lat="42.291573" lon="3.281391">
        <ele>43</ele>
        <time>1970-01-01T00:24:49.000Z</time>
      </trkpt>
      <trkpt lat="42.29159" lon="3.281377">
        <ele>43</ele>
        <time>1970-01-01T00:24:50.000Z</time>
      </trkpt>
      <trkpt lat="42.291606" lon="3.281363">
        <ele>43</ele>
        <time>1970-01-01T00:24:52.000Z</time>
      </trkpt>
      <trkpt lat="42.291622" lon="3.281349">
        <ele>43</ele>
        <time>1970-01-01T00:24:53.000Z</time>
      </trkpt>
      <trkpt lat="42.291639" lon="3.281334">
        <ele>43</ele>
        <time>1970-01-01T00:24:54.000Z</time>
      </trkpt>
      <trkpt lat="42.291655" lon="3.28132">
        <ele>41</ele>
        <time>1970-01-01T00:24:55.000Z</time>
      </trkpt>
      <trkpt lat="42.291689" lon="3.281295">
        <ele>41</ele>
        <time>1970-01-01T00:24:56.000Z</time>
      </trkpt>
      <trkpt lat="42.291709" lon="3.281284">
        <ele>41</ele>
        <time>1970-01-01T00:24:57.000Z</time>
      </trkpt>
      <trkpt lat="42.29173" lon="3.281274">
        <ele>41</ele>
        <time>1970-01-01T00:24:59.000Z</time>
      </trkpt>
      <trkpt lat="42.29175" lon="3.281263">
        <ele>41</ele>
        <time>1970-01-01T00:25:01.000Z</time>
      </trkpt>
      <trkpt lat="42.291771" lon="3.281252">
        <ele>41</ele>
        <time>1970-01-01T00:25:03.000Z</time>
      </trkpt>
      <trkpt lat="42.291791" lon="3.281241">
        <ele>41</ele>
        <time>1970-01-01T00:25:05.000Z</time>
      </trkpt>
      <trkpt lat="42.291807" lon="3.281225">
        <ele>41</ele>
        <time>1970-01-01T00:25:08.000Z</time>
      </trkpt>
      <trkpt lat="42.291826" lon="3.281208">
        <ele>40</ele>
        <time>1970-01-01T00:25:17.000Z</time>
      </trkpt>
      <trkpt lat="42.291845" lon="3.281191">
        <ele>40</ele>
        <time>1970-01-01T00:25:18.000Z</time>
      </trkpt>
      <trkpt lat="42.291864" lon="3.281174">
        <ele>40</ele>
        <time>1970-01-01T00:25:20.000Z</time>
      </trkpt>
      <trkpt lat="42.291884" lon="3.281157">
        <ele>40</ele>
        <time>1970-01-01T00:25:22.000Z</time>
      </trkpt>
      <trkpt lat="42.291903" lon="3.281139">
        <ele>40</ele>
        <time>1970-01-01T00:25:23.000Z</time>
      </trkpt>
      <trkpt lat="42.291922" lon="3.281122">
        <ele>40</ele>
        <time>1970-01-01T00:25:24.000Z</time>
      </trkpt>
      <trkpt lat="42.291941" lon="3.281105">
        <ele>40</ele>
        <time>1970-01-01T00:25:25.000Z</time>
      </trkpt>
      <trkpt lat="42.29196" lon="3.281088">
        <ele>40</ele>
        <time>1970-01-01T00:25:26.000Z</time>
      </trkpt>
      <trkpt lat="42.291979" lon="3.281071">
        <ele>40</ele>
        <time>1970-01-01T00:25:27.000Z</time>
      </trkpt>
      <trkpt lat="42.292019" lon="3.281038">
        <ele>40</ele>
        <time>1970-01-01T00:25:28.000Z</time>
      </trkpt>
      <trkpt lat="42.292039" lon="3.281023">
        <ele>40</ele>
        <time>1970-01-01T00:25:29.000Z</time>
      </trkpt>
      <trkpt lat="42.292058" lon="3.281009">
        <ele>40</ele>
        <time>1970-01-01T00:25:30.000Z</time>
      </trkpt>
      <trkpt lat="42.292078" lon="3.280994">
        <ele>40</ele>
        <time>1970-01-01T00:25:31.000Z</time>
      </trkpt>
      <trkpt lat="42.292097" lon="3.280979">
        <ele>40</ele>
        <time>1970-01-01T00:25:32.000Z</time>
      </trkpt>
      <trkpt lat="42.292116" lon="3.280964">
        <ele>40</ele>
        <time>1970-01-01T00:25:33.000Z</time>
      </trkpt>
      <trkpt lat="42.292136" lon="3.280949">
        <ele>40</ele>
        <time>1970-01-01T00:25:34.000Z</time>
      </trkpt>
      <trkpt lat="42.292155" lon="3.280935">
        <ele>40</ele>
        <time>1970-01-01T00:25:35.000Z</time>
      </trkpt>
      <trkpt lat="42.292175" lon="3.28092">
        <ele>40</ele>
        <time>1970-01-01T00:25:36.000Z</time>
      </trkpt>
      <trkpt lat="42.292194" lon="3.280905">
        <ele>41</ele>
        <time>1970-01-01T00:25:37.000Z</time>
      </trkpt>
      <trkpt lat="42.292239" lon="3.280872">
        <ele>41</ele>
        <time>1970-01-01T00:25:38.000Z</time>
      </trkpt>
      <trkpt lat="42.29226" lon="3.280855">
        <ele>41</ele>
        <time>1970-01-01T00:25:39.000Z</time>
      </trkpt>
      <trkpt lat="42.292281" lon="3.280838">
        <ele>41</ele>
        <time>1970-01-01T00:25:40.000Z</time>
      </trkpt>
      <trkpt lat="42.292302" lon="3.280821">
        <ele>41</ele>
        <time>1970-01-01T00:25:41.000Z</time>
      </trkpt>
      <trkpt lat="42.292324" lon="3.280805">
        <ele>41</ele>
        <time>1970-01-01T00:25:42.000Z</time>
      </trkpt>
      <trkpt lat="42.292345" lon="3.280788">
        <ele>41</ele>
        <time>1970-01-01T00:25:43.000Z</time>
      </trkpt>
      <trkpt lat="42.292366" lon="3.280771">
        <ele>41</ele>
        <time>1970-01-01T00:25:44.000Z</time>
      </trkpt>
      <trkpt lat="42.292387" lon="3.280754">
        <ele>41</ele>
        <time>1970-01-01T00:25:45.000Z</time>
      </trkpt>
      <trkpt lat="42.292408" lon="3.280737">
        <ele>41</ele>
        <time>1970-01-01T00:25:46.000Z</time>
      </trkpt>
      <trkpt lat="42.292429" lon="3.28072">
        <ele>42</ele>
        <time>1970-01-01T00:25:47.000Z</time>
      </trkpt>
      <trkpt lat="42.292473" lon="3.280691">
        <ele>42</ele>
        <time>1970-01-01T00:25:48.000Z</time>
      </trkpt>
      <trkpt lat="42.292493" lon="3.280681">
        <ele>42</ele>
        <time>1970-01-01T00:25:49.000Z</time>
      </trkpt>
      <trkpt lat="42.292513" lon="3.280671">
        <ele>42</ele>
        <time>1970-01-01T00:25:50.000Z</time>
      </trkpt>
      <trkpt lat="42.292533" lon="3.280661">
        <ele>42</ele>
        <time>1970-01-01T00:25:51.000Z</time>
      </trkpt>
      <trkpt lat="42.292553" lon="3.280652">
        <ele>42</ele>
        <time>1970-01-01T00:25:52.000Z</time>
      </trkpt>
      <trkpt lat="42.292572" lon="3.280642">
        <ele>42</ele>
        <time>1970-01-01T00:25:53.000Z</time>
      </trkpt>
      <trkpt lat="42.292592" lon="3.280632">
        <ele>42</ele>
        <time>1970-01-01T00:25:54.000Z</time>
      </trkpt>
      <trkpt lat="42.292612" lon="3.280622">
        <ele>42</ele>
        <time>1970-01-01T00:25:55.000Z</time>
      </trkpt>
      <trkpt lat="42.292632" lon="3.280612">
        <ele>42</ele>
        <time>1970-01-01T00:25:56.000Z</time>
      </trkpt>
      <trkpt lat="42.292652" lon="3.280602">
        <ele>43</ele>
        <time>1970-01-01T00:25:57.000Z</time>
      </trkpt>
      <trkpt lat="42.292696" lon="3.280619">
        <ele>43</ele>
        <time>1970-01-01T00:25:58.000Z</time>
      </trkpt>
      <trkpt lat="42.292719" lon="3.28063">
        <ele>43</ele>
        <time>1970-01-01T00:25:59.000Z</time>
      </trkpt>
      <trkpt lat="42.292742" lon="3.280641">
        <ele>43</ele>
        <time>1970-01-01T00:26:01.000Z</time>
      </trkpt>
      <trkpt lat="42.292765" lon="3.280653">
        <ele>43</ele>
        <time>1970-01-01T00:26:03.000Z</time>
      </trkpt>
      <trkpt lat="42.292788" lon="3.280664">
        <ele>43</ele>
        <time>1970-01-01T00:26:05.000Z</time>
      </trkpt>
      <trkpt lat="42.292811" lon="3.280675">
        <ele>45</ele>
        <time>1970-01-01T00:26:07.000Z</time>
      </trkpt>
      <trkpt lat="42.292854" lon="3.280721">
        <ele>45</ele>
        <time>1970-01-01T00:26:09.000Z</time>
      </trkpt>
      <trkpt lat="42.292869" lon="3.280742">
        <ele>45</ele>
        <time>1970-01-01T00:26:11.000Z</time>
      </trkpt>
      <trkpt lat="42.292885" lon="3.280762">
        <ele>45</ele>
        <time>1970-01-01T00:26:12.000Z</time>
      </trkpt>
      <trkpt lat="42.2929" lon="3.280783">
        <ele>45</ele>
        <time>1970-01-01T00:26:14.000Z</time>
      </trkpt>
      <trkpt lat="42.292916" lon="3.280803">
        <ele>45</ele>
        <time>1970-01-01T00:26:15.000Z</time>
      </trkpt>
      <trkpt lat="42.292931" lon="3.280824">
        <ele>45</ele>
        <time>1970-01-01T00:26:16.000Z</time>
      </trkpt>
      <trkpt lat="42.292947" lon="3.280844">
        <ele>47</ele>
        <time>1970-01-01T00:26:17.000Z</time>
      </trkpt>
      <trkpt lat="42.292977" lon="3.280875">
        <ele>47</ele>
        <time>1970-01-01T00:26:18.000Z</time>
      </trkpt>
      <trkpt lat="42.292991" lon="3.280888">
        <ele>47</ele>
        <time>1970-01-01T00:26:19.000Z</time>
      </trkpt>
      <trkpt lat="42.293006" lon="3.280902">
        <ele>47</ele>
        <time>1970-01-01T00:26:20.000Z</time>
      </trkpt>
      <trkpt lat="42.29302" lon="3.280916">
        <ele>47</ele>
        <time>1970-01-01T00:26:21.000Z</time>
      </trkpt>
      <trkpt lat="42.293035" lon="3.280929">
        <ele>47</ele>
        <time>1970-01-01T00:26:22.000Z</time>
      </trkpt>
      <trkpt lat="42.293049" lon="3.280943">
        <ele>47</ele>
        <time>1970-01-01T00:26:23.000Z</time>
      </trkpt>
      <trkpt lat="42.293064" lon="3.280957">
        <ele>47</ele>
        <time>1970-01-01T00:26:24.000Z</time>
      </trkpt>
      <trkpt lat="42.293078" lon="3.280971">
        <ele>47</ele>
        <time>1970-01-01T00:26:25.000Z</time>
      </trkpt>
      <trkpt lat="42.293093" lon="3.280984">
        <ele>47</ele>
        <time>1970-01-01T00:26:26.000Z</time>
      </trkpt>
      <trkpt lat="42.293107" lon="3.280998">
        <ele>48</ele>
        <time>1970-01-01T00:26:27.000Z</time>
      </trkpt>
      <trkpt lat="42.293153" lon="3.281022">
        <ele>48</ele>
        <time>1970-01-01T00:26:28.000Z</time>
      </trkpt>
      <trkpt lat="42.293176" lon="3.281031">
        <ele>48</ele>
        <time>1970-01-01T00:26:29.000Z</time>
      </trkpt>
      <trkpt lat="42.2932" lon="3.281041">
        <ele>48</ele>
        <time>1970-01-01T00:26:30.000Z</time>
      </trkpt>
      <trkpt lat="42.293223" lon="3.281051">
        <ele>48</ele>
        <time>1970-01-01T00:26:31.000Z</time>
      </trkpt>
      <trkpt lat="42.293247" lon="3.28106">
        <ele>48</ele>
        <time>1970-01-01T00:26:32.000Z</time>
      </trkpt>
      <trkpt lat="42.29327" lon="3.28107">
        <ele>48</ele>
        <time>1970-01-01T00:26:33.000Z</time>
      </trkpt>
      <trkpt lat="42.293294" lon="3.28108">
        <ele>48</ele>
        <time>1970-01-01T00:26:34.000Z</time>
      </trkpt>
      <trkpt lat="42.293317" lon="3.28109">
        <ele>48</ele>
        <time>1970-01-01T00:26:35.000Z</time>
      </trkpt>
      <trkpt lat="42.293341" lon="3.281099">
        <ele>48</ele>
        <time>1970-01-01T00:26:36.000Z</time>
      </trkpt>
      <trkpt lat="42.293364" lon="3.281109">
        <ele>50</ele>
        <time>1970-01-01T00:26:37.000Z</time>
      </trkpt>
      <trkpt lat="42.293415" lon="3.281116">
        <ele>50</ele>
        <time>1970-01-01T00:26:38.000Z</time>
      </trkpt>
      <trkpt lat="42.29344" lon="3.281115">
        <ele>50</ele>
        <time>1970-01-01T00:26:39.000Z</time>
      </trkpt>
      <trkpt lat="42.293466" lon="3.281114">
        <ele>50</ele>
        <time>1970-01-01T00:26:40.000Z</time>
      </trkpt>
      <trkpt lat="42.293491" lon="3.281113">
        <ele>50</ele>
        <time>1970-01-01T00:26:41.000Z</time>
      </trkpt>
      <trkpt lat="42.293516" lon="3.281113">
        <ele>50</ele>
        <time>1970-01-01T00:26:42.000Z</time>
      </trkpt>
      <trkpt lat="42.293541" lon="3.281112">
        <ele>50</ele>
        <time>1970-01-01T00:26:43.000Z</time>
      </trkpt>
      <trkpt lat="42.293566" lon="3.281111">
        <ele>50</ele>
        <time>1970-01-01T00:26:44.000Z</time>
      </trkpt>
      <trkpt lat="42.293592" lon="3.28111">
        <ele>50</ele>
        <time>1970-01-01T00:26:45.000Z</time>
      </trkpt>
      <trkpt lat="42.293617" lon="3.281109">
        <ele>50</ele>
        <time>1970-01-01T00:26:46.000Z</time>
      </trkpt>
      <trkpt lat="42.293642" lon="3.281108">
        <ele>50</ele>
        <time>1970-01-01T00:26:47.000Z</time>
      </trkpt>
      <trkpt lat="42.293693" lon="3.281097">
        <ele>50</ele>
        <time>1970-01-01T00:26:48.000Z</time>
      </trkpt>
      <trkpt lat="42.293716" lon="3.281091">
        <ele>50</ele>
        <time>1970-01-01T00:26:49.000Z</time>
      </trkpt>
      <trkpt lat="42.293738" lon="3.281085">
        <ele>50</ele>
        <time>1970-01-01T00:26:50.000Z</time>
      </trkpt>
      <trkpt lat="42.293761" lon="3.281079">
        <ele>50</ele>
        <time>1970-01-01T00:26:51.000Z</time>
      </trkpt>
      <trkpt lat="42.293784" lon="3.281073">
        <ele>50</ele>
        <time>1970-01-01T00:26:52.000Z</time>
      </trkpt>
      <trkpt lat="42.293807" lon="3.281066">
        <ele>50</ele>
        <time>1970-01-01T00:26:53.000Z</time>
      </trkpt>
      <trkpt lat="42.29383" lon="3.28106">
        <ele>50</ele>
        <time>1970-01-01T00:26:54.000Z</time>
      </trkpt>
      <trkpt lat="42.293852" lon="3.281054">
        <ele>50</ele>
        <time>1970-01-01T00:26:55.000Z</time>
      </trkpt>
      <trkpt lat="42.293875" lon="3.281048">
        <ele>50</ele>
        <time>1970-01-01T00:26:56.000Z</time>
      </trkpt>
      <trkpt lat="42.293898" lon="3.281042">
        <ele>50</ele>
        <time>1970-01-01T00:26:57.000Z</time>
      </trkpt>
      <trkpt lat="42.293955" lon="3.281032">
        <ele>50</ele>
        <time>1970-01-01T00:26:58.000Z</time>
      </trkpt>
      <trkpt lat="42.293985" lon="3.281029">
        <ele>50</ele>
        <time>1970-01-01T00:26:59.000Z</time>
      </trkpt>
      <trkpt lat="42.294015" lon="3.281026">
        <ele>50</ele>
        <time>1970-01-01T00:27:00.000Z</time>
      </trkpt>
      <trkpt lat="42.294045" lon="3.281023">
        <ele>50</ele>
        <time>1970-01-01T00:27:01.000Z</time>
      </trkpt>
      <trkpt lat="42.294075" lon="3.28102">
        <ele>50</ele>
        <time>1970-01-01T00:27:02.000Z</time>
      </trkpt>
      <trkpt lat="42.294104" lon="3.281016">
        <ele>50</ele>
        <time>1970-01-01T00:27:03.000Z</time>
      </trkpt>
      <trkpt lat="42.294134" lon="3.281013">
        <ele>50</ele>
        <time>1970-01-01T00:27:04.000Z</time>
      </trkpt>
      <trkpt lat="42.294164" lon="3.28101">
        <ele>50</ele>
        <time>1970-01-01T00:27:05.000Z</time>
      </trkpt>
      <trkpt lat="42.294194" lon="3.281007">
        <ele>50</ele>
        <time>1970-01-01T00:27:06.000Z</time>
      </trkpt>
      <trkpt lat="42.294224" lon="3.281004">
        <ele>50</ele>
        <time>1970-01-01T00:27:07.000Z</time>
      </trkpt>
      <trkpt lat="42.294299" lon="3.28104">
        <ele>50</ele>
        <time>1970-01-01T00:27:08.000Z</time>
      </trkpt>
      <trkpt lat="42.294335" lon="3.28107">
        <ele>50</ele>
        <time>1970-01-01T00:27:09.000Z</time>
      </trkpt>
      <trkpt lat="42.294372" lon="3.281099">
        <ele>50</ele>
        <time>1970-01-01T00:27:10.000Z</time>
      </trkpt>
      <trkpt lat="42.294408" lon="3.281128">
        <ele>50</ele>
        <time>1970-01-01T00:27:11.000Z</time>
      </trkpt>
      <trkpt lat="42.294444" lon="3.281157">
        <ele>50</ele>
        <time>1970-01-01T00:27:12.000Z</time>
      </trkpt>
      <trkpt lat="42.29448" lon="3.281187">
        <ele>50</ele>
        <time>1970-01-01T00:27:13.000Z</time>
      </trkpt>
      <trkpt lat="42.294516" lon="3.281216">
        <ele>50</ele>
        <time>1970-01-01T00:27:14.000Z</time>
      </trkpt>
      <trkpt lat="42.294553" lon="3.281245">
        <ele>50</ele>
        <time>1970-01-01T00:27:15.000Z</time>
      </trkpt>
      <trkpt lat="42.294589" lon="3.281275">
        <ele>50</ele>
        <time>1970-01-01T00:27:16.000Z</time>
      </trkpt>
      <trkpt lat="42.294625" lon="3.281304">
        <ele>50</ele>
        <time>1970-01-01T00:27:17.000Z</time>
      </trkpt>
      <trkpt lat="42.294705" lon="3.281452">
        <ele>50</ele>
        <time>1970-01-01T00:27:18.000Z</time>
      </trkpt>
      <trkpt lat="42.294748" lon="3.281533">
        <ele>50</ele>
        <time>1970-01-01T00:27:19.000Z</time>
      </trkpt>
      <trkpt lat="42.294792" lon="3.281614">
        <ele>50</ele>
        <time>1970-01-01T00:27:20.000Z</time>
      </trkpt>
      <trkpt lat="42.294836" lon="3.281695">
        <ele>50</ele>
        <time>1970-01-01T00:27:21.000Z</time>
      </trkpt>
      <trkpt lat="42.29488" lon="3.281775">
        <ele>50</ele>
        <time>1970-01-01T00:27:22.000Z</time>
      </trkpt>
      <trkpt lat="42.294923" lon="3.281856">
        <ele>50</ele>
        <time>1970-01-01T00:27:23.000Z</time>
      </trkpt>
      <trkpt lat="42.294967" lon="3.281937">
        <ele>50</ele>
        <time>1970-01-01T00:27:24.000Z</time>
      </trkpt>
      <trkpt lat="42.295011" lon="3.282018">
        <ele>50</ele>
        <time>1970-01-01T00:27:25.000Z</time>
      </trkpt>
      <trkpt lat="42.295054" lon="3.282099">
        <ele>50</ele>
        <time>1970-01-01T00:27:26.000Z</time>
      </trkpt>
      <trkpt lat="42.295098" lon="3.28218">
        <ele>49</ele>
        <time>1970-01-01T00:27:27.000Z</time>
      </trkpt>
      <trkpt lat="42.295184" lon="3.282319">
        <ele>49</ele>
        <time>1970-01-01T00:27:28.000Z</time>
      </trkpt>
      <trkpt lat="42.295215" lon="3.282377">
        <ele>49</ele>
        <time>1970-01-01T00:27:29.000Z</time>
      </trkpt>
      <trkpt lat="42.295246" lon="3.282434">
        <ele>49</ele>
        <time>1970-01-01T00:27:30.000Z</time>
      </trkpt>
      <trkpt lat="42.295277" lon="3.282491">
        <ele>49</ele>
        <time>1970-01-01T00:27:31.000Z</time>
      </trkpt>
      <trkpt lat="42.295308" lon="3.282548">
        <ele>49</ele>
        <time>1970-01-01T00:27:32.000Z</time>
      </trkpt>
      <trkpt lat="42.295339" lon="3.282606">
        <ele>49</ele>
        <time>1970-01-01T00:27:33.000Z</time>
      </trkpt>
      <trkpt lat="42.29537" lon="3.282663">
        <ele>49</ele>
        <time>1970-01-01T00:27:34.000Z</time>
      </trkpt>
      <trkpt lat="42.295401" lon="3.28272">
        <ele>49</ele>
        <time>1970-01-01T00:27:35.000Z</time>
      </trkpt>
      <trkpt lat="42.295432" lon="3.282778">
        <ele>49</ele>
        <time>1970-01-01T00:27:36.000Z</time>
      </trkpt>
      <trkpt lat="42.295463" lon="3.282835">
        <ele>40</ele>
        <time>1970-01-01T00:27:37.000Z</time>
      </trkpt>
      <trkpt lat="42.29557" lon="3.282894">
        <ele>40</ele>
        <time>1970-01-01T00:27:38.000Z</time>
      </trkpt>
      <trkpt lat="42.295631" lon="3.282916">
        <ele>40</ele>
        <time>1970-01-01T00:27:39.000Z</time>
      </trkpt>
      <trkpt lat="42.295693" lon="3.282937">
        <ele>40</ele>
        <time>1970-01-01T00:27:40.000Z</time>
      </trkpt>
      <trkpt lat="42.295755" lon="3.282958">
        <ele>40</ele>
        <time>1970-01-01T00:27:41.000Z</time>
      </trkpt>
      <trkpt lat="42.295817" lon="3.282979">
        <ele>40</ele>
        <time>1970-01-01T00:27:42.000Z</time>
      </trkpt>
      <trkpt lat="42.295878" lon="3.283001">
        <ele>40</ele>
        <time>1970-01-01T00:27:43.000Z</time>
      </trkpt>
      <trkpt lat="42.29594" lon="3.283022">
        <ele>40</ele>
        <time>1970-01-01T00:27:44.000Z</time>
      </trkpt>
      <trkpt lat="42.296002" lon="3.283043">
        <ele>40</ele>
        <time>1970-01-01T00:27:45.000Z</time>
      </trkpt>
      <trkpt lat="42.296063" lon="3.283065">
        <ele>40</ele>
        <time>1970-01-01T00:27:46.000Z</time>
      </trkpt>
      <trkpt lat="42.296125" lon="3.283086">
        <ele>38</ele>
        <time>1970-01-01T00:27:47.000Z</time>
      </trkpt>
      <trkpt lat="42.29627" lon="3.283093">
        <ele>38</ele>
        <time>1970-01-01T00:27:48.000Z</time>
      </trkpt>
      <trkpt lat="42.29633" lon="3.28308">
        <ele>38</ele>
        <time>1970-01-01T00:27:49.000Z</time>
      </trkpt>
      <trkpt lat="42.296391" lon="3.283066">
        <ele>38</ele>
        <time>1970-01-01T00:27:50.000Z</time>
      </trkpt>
      <trkpt lat="42.296451" lon="3.283053">
        <ele>38</ele>
        <time>1970-01-01T00:27:51.000Z</time>
      </trkpt>
      <trkpt lat="42.296512" lon="3.28304">
        <ele>38</ele>
        <time>1970-01-01T00:27:52.000Z</time>
      </trkpt>
      <trkpt lat="42.296572" lon="3.283027">
        <ele>38</ele>
        <time>1970-01-01T00:27:53.000Z</time>
      </trkpt>
      <trkpt lat="42.296633" lon="3.283014">
        <ele>38</ele>
        <time>1970-01-01T00:27:54.000Z</time>
      </trkpt>
      <trkpt lat="42.296693" lon="3.283">
        <ele>38</ele>
        <time>1970-01-01T00:27:55.000Z</time>
      </trkpt>
      <trkpt lat="42.296754" lon="3.282987">
        <ele>38</ele>
        <time>1970-01-01T00:27:56.000Z</time>
      </trkpt>
      <trkpt lat="42.296814" lon="3.282974">
        <ele>36</ele>
        <time>1970-01-01T00:27:57.000Z</time>
      </trkpt>
      <trkpt lat="42.296913" lon="3.28291">
        <ele>36</ele>
        <time>1970-01-01T00:27:58.000Z</time>
      </trkpt>
      <trkpt lat="42.296963" lon="3.282881">
        <ele>36</ele>
        <time>1970-01-01T00:27:59.000Z</time>
      </trkpt>
      <trkpt lat="42.297012" lon="3.282851">
        <ele>36</ele>
        <time>1970-01-01T00:28:00.000Z</time>
      </trkpt>
      <trkpt lat="42.297062" lon="3.282822">
        <ele>36</ele>
        <time>1970-01-01T00:28:01.000Z</time>
      </trkpt>
      <trkpt lat="42.297111" lon="3.282792">
        <ele>36</ele>
        <time>1970-01-01T00:28:02.000Z</time>
      </trkpt>
      <trkpt lat="42.29716" lon="3.282762">
        <ele>36</ele>
        <time>1970-01-01T00:28:03.000Z</time>
      </trkpt>
      <trkpt lat="42.29721" lon="3.282733">
        <ele>36</ele>
        <time>1970-01-01T00:28:04.000Z</time>
      </trkpt>
      <trkpt lat="42.297259" lon="3.282703">
        <ele>36</ele>
        <time>1970-01-01T00:28:05.000Z</time>
      </trkpt>
      <trkpt lat="42.297309" lon="3.282674">
        <ele>36</ele>
        <time>1970-01-01T00:28:06.000Z</time>
      </trkpt>
      <trkpt lat="42.297358" lon="3.282644">
        <ele>37</ele>
        <time>1970-01-01T00:28:07.000Z</time>
      </trkpt>
      <trkpt lat="42.297496" lon="3.282614">
        <ele>37</ele>
        <time>1970-01-01T00:28:08.000Z</time>
      </trkpt>
      <trkpt lat="42.297567" lon="3.282619">
        <ele>37</ele>
        <time>1970-01-01T00:28:09.000Z</time>
      </trkpt>
      <trkpt lat="42.297637" lon="3.282625">
        <ele>37</ele>
        <time>1970-01-01T00:28:10.000Z</time>
      </trkpt>
      <trkpt lat="42.297708" lon="3.28263">
        <ele>37</ele>
        <time>1970-01-01T00:28:11.000Z</time>
      </trkpt>
      <trkpt lat="42.297779" lon="3.282635">
        <ele>37</ele>
        <time>1970-01-01T00:28:12.000Z</time>
      </trkpt>
      <trkpt lat="42.29785" lon="3.28264">
        <ele>37</ele>
        <time>1970-01-01T00:28:13.000Z</time>
      </trkpt>
      <trkpt lat="42.297921" lon="3.282645">
        <ele>37</ele>
        <time>1970-01-01T00:28:14.000Z</time>
      </trkpt>
      <trkpt lat="42.297991" lon="3.282651">
        <ele>37</ele>
        <time>1970-01-01T00:28:15.000Z</time>
      </trkpt>
      <trkpt lat="42.298062" lon="3.282656">
        <ele>37</ele>
        <time>1970-01-01T00:28:16.000Z</time>
      </trkpt>
      <trkpt lat="42.298133" lon="3.282661">
        <ele>32</ele>
        <time>1970-01-01T00:28:17.000Z</time>
      </trkpt>
      <trkpt lat="42.298214" lon="3.282732">
        <ele>32</ele>
        <time>1970-01-01T00:28:18.000Z</time>
      </trkpt>
      <trkpt lat="42.298291" lon="3.282822">
        <ele>32</ele>
        <time>1970-01-01T00:28:19.000Z</time>
      </trkpt>
      <trkpt lat="42.298367" lon="3.282919">
        <ele>32</ele>
        <time>1970-01-01T00:28:20.000Z</time>
      </trkpt>
      <trkpt lat="42.298441" lon="3.283019">
        <ele>32</ele>
        <time>1970-01-01T00:28:21.000Z</time>
      </trkpt>
      <trkpt lat="42.29851" lon="3.283124">
        <ele>32</ele>
        <time>1970-01-01T00:28:22.000Z</time>
      </trkpt>
      <trkpt lat="42.298566" lon="3.283237">
        <ele>32</ele>
        <time>1970-01-01T00:28:23.000Z</time>
      </trkpt>
      <trkpt lat="42.298609" lon="3.283356">
        <ele>32</ele>
        <time>1970-01-01T00:28:24.000Z</time>
      </trkpt>
      <trkpt lat="42.29864" lon="3.283478">
        <ele>32</ele>
        <time>1970-01-01T00:28:25.000Z</time>
      </trkpt>
      <trkpt lat="42.298665" lon="3.2836">
        <ele>32</ele>
        <time>1970-01-01T00:28:26.000Z</time>
      </trkpt>
      <trkpt lat="42.298688" lon="3.28372">
        <ele>27</ele>
        <time>1970-01-01T00:28:27.000Z</time>
      </trkpt>
      <trkpt lat="42.298726" lon="3.283927">
        <ele>27</ele>
        <time>1970-01-01T00:28:28.000Z</time>
      </trkpt>
      <trkpt lat="42.298741" lon="3.284014">
        <ele>27</ele>
        <time>1970-01-01T00:28:29.000Z</time>
      </trkpt>
      <trkpt lat="42.298757" lon="3.2841">
        <ele>27</ele>
        <time>1970-01-01T00:28:30.000Z</time>
      </trkpt>
      <trkpt lat="42.298772" lon="3.284187">
        <ele>27</ele>
        <time>1970-01-01T00:28:31.000Z</time>
      </trkpt>
      <trkpt lat="42.298788" lon="3.284273">
        <ele>27</ele>
        <time>1970-01-01T00:28:32.000Z</time>
      </trkpt>
      <trkpt lat="42.298804" lon="3.28436">
        <ele>27</ele>
        <time>1970-01-01T00:28:33.000Z</time>
      </trkpt>
      <trkpt lat="42.298819" lon="3.284446">
        <ele>27</ele>
        <time>1970-01-01T00:28:34.000Z</time>
      </trkpt>
      <trkpt lat="42.298835" lon="3.284533">
        <ele>27</ele>
        <time>1970-01-01T00:28:35.000Z</time>
      </trkpt>
      <trkpt lat="42.29885" lon="3.284619">
        <ele>27</ele>
        <time>1970-01-01T00:28:36.000Z</time>
      </trkpt>
      <trkpt lat="42.298866" lon="3.284706">
        <ele>27</ele>
        <time>1970-01-01T00:28:37.000Z</time>
      </trkpt>
      <trkpt lat="42.298882" lon="3.284803">
        <ele>27</ele>
        <time>1970-01-01T00:28:38.000Z</time>
      </trkpt>
      <trkpt lat="42.298888" lon="3.28484">
        <ele>27</ele>
        <time>1970-01-01T00:28:39.000Z</time>
      </trkpt>
      <trkpt lat="42.298895" lon="3.284877">
        <ele>27</ele>
        <time>1970-01-01T00:28:40.000Z</time>
      </trkpt>
      <trkpt lat="42.298901" lon="3.284914">
        <ele>27</ele>
        <time>1970-01-01T00:28:41.000Z</time>
      </trkpt>
      <trkpt lat="42.298908" lon="3.284951">
        <ele>27</ele>
        <time>1970-01-01T00:28:42.000Z</time>
      </trkpt>
      <trkpt lat="42.298914" lon="3.284988">
        <ele>27</ele>
        <time>1970-01-01T00:28:43.000Z</time>
      </trkpt>
      <trkpt lat="42.298921" lon="3.285025">
        <ele>27</ele>
        <time>1970-01-01T00:28:44.000Z</time>
      </trkpt>
      <trkpt lat="42.298927" lon="3.285062">
        <ele>27</ele>
        <time>1970-01-01T00:28:45.000Z</time>
      </trkpt>
      <trkpt lat="42.298934" lon="3.285099">
        <ele>27</ele>
        <time>1970-01-01T00:28:46.000Z</time>
      </trkpt>
      <trkpt lat="42.29894" lon="3.285136">
        <ele>30</ele>
        <time>1970-01-01T00:28:47.000Z</time>
      </trkpt>
      <trkpt lat="42.298952" lon="3.285198">
        <ele>30</ele>
        <time>1970-01-01T00:28:48.000Z</time>
      </trkpt>
      <trkpt lat="42.298958" lon="3.285227">
        <ele>30</ele>
        <time>1970-01-01T00:28:49.000Z</time>
      </trkpt>
      <trkpt lat="42.298965" lon="3.285255">
        <ele>30</ele>
        <time>1970-01-01T00:28:50.000Z</time>
      </trkpt>
      <trkpt lat="42.298971" lon="3.285284">
        <ele>30</ele>
        <time>1970-01-01T00:28:51.000Z</time>
      </trkpt>
      <trkpt lat="42.298978" lon="3.285312">
        <ele>30</ele>
        <time>1970-01-01T00:28:52.000Z</time>
      </trkpt>
      <trkpt lat="42.298984" lon="3.285341">
        <ele>30</ele>
        <time>1970-01-01T00:28:53.000Z</time>
      </trkpt>
      <trkpt lat="42.298991" lon="3.285369">
        <ele>30</ele>
        <time>1970-01-01T00:28:54.000Z</time>
      </trkpt>
      <trkpt lat="42.298997" lon="3.285398">
        <ele>30</ele>
        <time>1970-01-01T00:28:55.000Z</time>
      </trkpt>
      <trkpt lat="42.299004" lon="3.285426">
        <ele>30</ele>
        <time>1970-01-01T00:28:56.000Z</time>
      </trkpt>
      <trkpt lat="42.29901" lon="3.285455">
        <ele>33</ele>
        <time>1970-01-01T00:28:57.000Z</time>
      </trkpt>
      <trkpt lat="42.299025" lon="3.285515">
        <ele>33</ele>
        <time>1970-01-01T00:28:58.000Z</time>
      </trkpt>
      <trkpt lat="42.299032" lon="3.285543">
        <ele>33</ele>
        <time>1970-01-01T00:28:59.000Z</time>
      </trkpt>
      <trkpt lat="42.299039" lon="3.285571">
        <ele>33</ele>
        <time>1970-01-01T00:29:00.000Z</time>
      </trkpt>
      <trkpt lat="42.299046" lon="3.285599">
        <ele>33</ele>
        <time>1970-01-01T00:29:01.000Z</time>
      </trkpt>
      <trkpt lat="42.299053" lon="3.285626">
        <ele>33</ele>
        <time>1970-01-01T00:29:02.000Z</time>
      </trkpt>
      <trkpt lat="42.29906" lon="3.285654">
        <ele>33</ele>
        <time>1970-01-01T00:29:03.000Z</time>
      </trkpt>
      <trkpt lat="42.299067" lon="3.285682">
        <ele>33</ele>
        <time>1970-01-01T00:29:04.000Z</time>
      </trkpt>
      <trkpt lat="42.299074" lon="3.28571">
        <ele>33</ele>
        <time>1970-01-01T00:29:05.000Z</time>
      </trkpt>
      <trkpt lat="42.299081" lon="3.285738">
        <ele>33</ele>
        <time>1970-01-01T00:29:06.000Z</time>
      </trkpt>
      <trkpt lat="42.299088" lon="3.285766">
        <ele>35</ele>
        <time>1970-01-01T00:29:07.000Z</time>
      </trkpt>
      <trkpt lat="42.299107" lon="3.285823">
        <ele>35</ele>
        <time>1970-01-01T00:29:08.000Z</time>
      </trkpt>
      <trkpt lat="42.299118" lon="3.285849">
        <ele>35</ele>
        <time>1970-01-01T00:29:09.000Z</time>
      </trkpt>
      <trkpt lat="42.29913" lon="3.285875">
        <ele>35</ele>
        <time>1970-01-01T00:29:10.000Z</time>
      </trkpt>
      <trkpt lat="42.299141" lon="3.285901">
        <ele>35</ele>
        <time>1970-01-01T00:29:11.000Z</time>
      </trkpt>
      <trkpt lat="42.299152" lon="3.285927">
        <ele>35</ele>
        <time>1970-01-01T00:29:12.000Z</time>
      </trkpt>
      <trkpt lat="42.299163" lon="3.285953">
        <ele>35</ele>
        <time>1970-01-01T00:29:13.000Z</time>
      </trkpt>
      <trkpt lat="42.299174" lon="3.285979">
        <ele>35</ele>
        <time>1970-01-01T00:29:14.000Z</time>
      </trkpt>
      <trkpt lat="42.299186" lon="3.286005">
        <ele>35</ele>
        <time>1970-01-01T00:29:15.000Z</time>
      </trkpt>
      <trkpt lat="42.299197" lon="3.286031">
        <ele>35</ele>
        <time>1970-01-01T00:29:16.000Z</time>
      </trkpt>
      <trkpt lat="42.299208" lon="3.286057">
        <ele>37</ele>
        <time>1970-01-01T00:29:17.000Z</time>
      </trkpt>
      <trkpt lat="42.299244" lon="3.286098">
        <ele>37</ele>
        <time>1970-01-01T00:29:18.000Z</time>
      </trkpt>
      <trkpt lat="42.299264" lon="3.286112">
        <ele>37</ele>
        <time>1970-01-01T00:29:19.000Z</time>
      </trkpt>
      <trkpt lat="42.299283" lon="3.286126">
        <ele>37</ele>
        <time>1970-01-01T00:29:20.000Z</time>
      </trkpt>
      <trkpt lat="42.299303" lon="3.28614">
        <ele>37</ele>
        <time>1970-01-01T00:29:21.000Z</time>
      </trkpt>
      <trkpt lat="42.299323" lon="3.286154">
        <ele>37</ele>
        <time>1970-01-01T00:29:22.000Z</time>
      </trkpt>
      <trkpt lat="42.299343" lon="3.286169">
        <ele>37</ele>
        <time>1970-01-01T00:29:23.000Z</time>
      </trkpt>
      <trkpt lat="42.299363" lon="3.286183">
        <ele>37</ele>
        <time>1970-01-01T00:29:24.000Z</time>
      </trkpt>
      <trkpt lat="42.299382" lon="3.286197">
        <ele>37</ele>
        <time>1970-01-01T00:29:25.000Z</time>
      </trkpt>
      <trkpt lat="42.299402" lon="3.286211">
        <ele>37</ele>
        <time>1970-01-01T00:29:26.000Z</time>
      </trkpt>
      <trkpt lat="42.299422" lon="3.286225">
        <ele>38</ele>
        <time>1970-01-01T00:29:27.000Z</time>
      </trkpt>
      <trkpt lat="42.299469" lon="3.286227">
        <ele>38</ele>
        <time>1970-01-01T00:29:28.000Z</time>
      </trkpt>
      <trkpt lat="42.299491" lon="3.286219">
        <ele>38</ele>
        <time>1970-01-01T00:29:29.000Z</time>
      </trkpt>
      <trkpt lat="42.299514" lon="3.286211">
        <ele>38</ele>
        <time>1970-01-01T00:29:30.000Z</time>
      </trkpt>
      <trkpt lat="42.299536" lon="3.286203">
        <ele>38</ele>
        <time>1970-01-01T00:29:31.000Z</time>
      </trkpt>
      <trkpt lat="42.299559" lon="3.286196">
        <ele>38</ele>
        <time>1970-01-01T00:29:32.000Z</time>
      </trkpt>
      <trkpt lat="42.299581" lon="3.286188">
        <ele>38</ele>
        <time>1970-01-01T00:29:33.000Z</time>
      </trkpt>
      <trkpt lat="42.299604" lon="3.28618">
        <ele>38</ele>
        <time>1970-01-01T00:29:34.000Z</time>
      </trkpt>
      <trkpt lat="42.299626" lon="3.286172">
        <ele>38</ele>
        <time>1970-01-01T00:29:35.000Z</time>
      </trkpt>
      <trkpt lat="42.299649" lon="3.286164">
        <ele>38</ele>
        <time>1970-01-01T00:29:36.000Z</time>
      </trkpt>
      <trkpt lat="42.299671" lon="3.286156">
        <ele>38</ele>
        <time>1970-01-01T00:29:37.000Z</time>
      </trkpt>
      <trkpt lat="42.299713" lon="3.28612">
        <ele>38</ele>
        <time>1970-01-01T00:29:38.000Z</time>
      </trkpt>
      <trkpt lat="42.299732" lon="3.286102">
        <ele>38</ele>
        <time>1970-01-01T00:29:39.000Z</time>
      </trkpt>
      <trkpt lat="42.299751" lon="3.286085">
        <ele>38</ele>
        <time>1970-01-01T00:29:40.000Z</time>
      </trkpt>
      <trkpt lat="42.29977" lon="3.286067">
        <ele>38</ele>
        <time>1970-01-01T00:29:41.000Z</time>
      </trkpt>
      <trkpt lat="42.299789" lon="3.28605">
        <ele>38</ele>
        <time>1970-01-01T00:29:42.000Z</time>
      </trkpt>
      <trkpt lat="42.299807" lon="3.286032">
        <ele>38</ele>
        <time>1970-01-01T00:29:43.000Z</time>
      </trkpt>
      <trkpt lat="42.299826" lon="3.286015">
        <ele>38</ele>
        <time>1970-01-01T00:29:44.000Z</time>
      </trkpt>
      <trkpt lat="42.299845" lon="3.285997">
        <ele>38</ele>
        <time>1970-01-01T00:29:45.000Z</time>
      </trkpt>
      <trkpt lat="42.299864" lon="3.28598">
        <ele>38</ele>
        <time>1970-01-01T00:29:46.000Z</time>
      </trkpt>
      <trkpt lat="42.299883" lon="3.285962">
        <ele>39</ele>
        <time>1970-01-01T00:29:47.000Z</time>
      </trkpt>
      <trkpt lat="42.299917" lon="3.285931">
        <ele>39</ele>
        <time>1970-01-01T00:29:48.000Z</time>
      </trkpt>
      <trkpt lat="42.299936" lon="3.285916">
        <ele>39</ele>
        <time>1970-01-01T00:29:50.000Z</time>
      </trkpt>
      <trkpt lat="42.299955" lon="3.285902">
        <ele>39</ele>
        <time>1970-01-01T00:29:52.000Z</time>
      </trkpt>
      <trkpt lat="42.299974" lon="3.285887">
        <ele>39</ele>
        <time>1970-01-01T00:29:54.000Z</time>
      </trkpt>
      <trkpt lat="42.299993" lon="3.285873">
        <ele>39</ele>
        <time>1970-01-01T00:29:56.000Z</time>
      </trkpt>
      <trkpt lat="42.300012" lon="3.285858">
        <ele>41</ele>
        <time>1970-01-01T00:29:57.000Z</time>
      </trkpt>
      <trkpt lat="42.300046" lon="3.285833">
        <ele>41</ele>
        <time>1970-01-01T00:29:58.000Z</time>
      </trkpt>
      <trkpt lat="42.300066" lon="3.285817">
        <ele>41</ele>
        <time>1970-01-01T00:30:00.000Z</time>
      </trkpt>
      <trkpt lat="42.300087" lon="3.2858">
        <ele>41</ele>
        <time>1970-01-01T00:30:02.000Z</time>
      </trkpt>
      <trkpt lat="42.300107" lon="3.285783">
        <ele>41</ele>
        <time>1970-01-01T00:30:04.000Z</time>
      </trkpt>
      <trkpt lat="42.300127" lon="3.285767">
        <ele>41</ele>
        <time>1970-01-01T00:30:06.000Z</time>
      </trkpt>
      <trkpt lat="42.300147" lon="3.28575">
        <ele>41</ele>
        <time>1970-01-01T00:30:07.000Z</time>
      </trkpt>
      <trkpt lat="42.300184" lon="3.285721">
        <ele>41</ele>
        <time>1970-01-01T00:30:08.000Z</time>
      </trkpt>
      <trkpt lat="42.300205" lon="3.285704">
        <ele>41</ele>
        <time>1970-01-01T00:30:10.000Z</time>
      </trkpt>
      <trkpt lat="42.300227" lon="3.285686">
        <ele>41</ele>
        <time>1970-01-01T00:30:12.000Z</time>
      </trkpt>
      <trkpt lat="42.300248" lon="3.285668">
        <ele>41</ele>
        <time>1970-01-01T00:30:14.000Z</time>
      </trkpt>
      <trkpt lat="42.30027" lon="3.285651">
        <ele>41</ele>
        <time>1970-01-01T00:30:16.000Z</time>
      </trkpt>
      <trkpt lat="42.300291" lon="3.285633">
        <ele>42</ele>
        <time>1970-01-01T00:30:17.000Z</time>
      </trkpt>
      <trkpt lat="42.300323" lon="3.285605">
        <ele>42</ele>
        <time>1970-01-01T00:30:18.000Z</time>
      </trkpt>
      <trkpt lat="42.30034" lon="3.28559">
        <ele>42</ele>
        <time>1970-01-01T00:30:20.000Z</time>
      </trkpt>
      <trkpt lat="42.300357" lon="3.285574">
        <ele>42</ele>
        <time>1970-01-01T00:30:21.000Z</time>
      </trkpt>
      <trkpt lat="42.300374" lon="3.285559">
        <ele>42</ele>
        <time>1970-01-01T00:30:22.000Z</time>
      </trkpt>
      <trkpt lat="42.30039" lon="3.285544">
        <ele>42</ele>
        <time>1970-01-01T00:30:24.000Z</time>
      </trkpt>
      <trkpt lat="42.300407" lon="3.285529">
        <ele>42</ele>
        <time>1970-01-01T00:30:25.000Z</time>
      </trkpt>
      <trkpt lat="42.300424" lon="3.285513">
        <ele>42</ele>
        <time>1970-01-01T00:30:26.000Z</time>
      </trkpt>
      <trkpt lat="42.300441" lon="3.285498">
        <ele>43</ele>
        <time>1970-01-01T00:30:27.000Z</time>
      </trkpt>
      <trkpt lat="42.300486" lon="3.285452">
        <ele>43</ele>
        <time>1970-01-01T00:30:29.000Z</time>
      </trkpt>
      <trkpt lat="42.300507" lon="3.285436">
        <ele>43</ele>
        <time>1970-01-01T00:30:31.000Z</time>
      </trkpt>
      <trkpt lat="42.300527" lon="3.285419">
        <ele>43</ele>
        <time>1970-01-01T00:30:33.000Z</time>
      </trkpt>
      <trkpt lat="42.300548" lon="3.285403">
        <ele>43</ele>
        <time>1970-01-01T00:30:35.000Z</time>
      </trkpt>
      <trkpt lat="42.300568" lon="3.285386">
        <ele>44</ele>
        <time>1970-01-01T00:30:37.000Z</time>
      </trkpt>
      <trkpt lat="42.300615" lon="3.285348">
        <ele>44</ele>
        <time>1970-01-01T00:30:39.000Z</time>
      </trkpt>
      <trkpt lat="42.300635" lon="3.285333">
        <ele>44</ele>
        <time>1970-01-01T00:30:41.000Z</time>
      </trkpt>
      <trkpt lat="42.300654" lon="3.285317">
        <ele>44</ele>
        <time>1970-01-01T00:30:43.000Z</time>
      </trkpt>
      <trkpt lat="42.300673" lon="3.285301">
        <ele>44</ele>
        <time>1970-01-01T00:30:45.000Z</time>
      </trkpt>
      <trkpt lat="42.300693" lon="3.285286">
        <ele>44</ele>
        <time>1970-01-01T00:30:46.000Z</time>
      </trkpt>
      <trkpt lat="42.300712" lon="3.28527">
        <ele>46</ele>
        <time>1970-01-01T00:30:47.000Z</time>
      </trkpt>
      <trkpt lat="42.300742" lon="3.285242">
        <ele>46</ele>
        <time>1970-01-01T00:30:48.000Z</time>
      </trkpt>
      <trkpt lat="42.300756" lon="3.285228">
        <ele>46</ele>
        <time>1970-01-01T00:30:49.000Z</time>
      </trkpt>
      <trkpt lat="42.300771" lon="3.285215">
        <ele>46</ele>
        <time>1970-01-01T00:30:50.000Z</time>
      </trkpt>
      <trkpt lat="42.300785" lon="3.285202">
        <ele>46</ele>
        <time>1970-01-01T00:30:51.000Z</time>
      </trkpt>
      <trkpt lat="42.3008" lon="3.285189">
        <ele>46</ele>
        <time>1970-01-01T00:30:52.000Z</time>
      </trkpt>
      <trkpt lat="42.300815" lon="3.285175">
        <ele>46</ele>
        <time>1970-01-01T00:30:53.000Z</time>
      </trkpt>
      <trkpt lat="42.300829" lon="3.285162">
        <ele>46</ele>
        <time>1970-01-01T00:30:54.000Z</time>
      </trkpt>
      <trkpt lat="42.300844" lon="3.285149">
        <ele>46</ele>
        <time>1970-01-01T00:30:55.000Z</time>
      </trkpt>
      <trkpt lat="42.300858" lon="3.285135">
        <ele>46</ele>
        <time>1970-01-01T00:30:56.000Z</time>
      </trkpt>
      <trkpt lat="42.300873" lon="3.285122">
        <ele>47</ele>
        <time>1970-01-01T00:30:57.000Z</time>
      </trkpt>
      <trkpt lat="42.300907" lon="3.285099">
        <ele>47</ele>
        <time>1970-01-01T00:30:58.000Z</time>
      </trkpt>
      <trkpt lat="42.300924" lon="3.285087">
        <ele>47</ele>
        <time>1970-01-01T00:30:59.000Z</time>
      </trkpt>
      <trkpt lat="42.30094" lon="3.285076">
        <ele>47</ele>
        <time>1970-01-01T00:31:00.000Z</time>
      </trkpt>
      <trkpt lat="42.300956" lon="3.285064">
        <ele>47</ele>
        <time>1970-01-01T00:31:01.000Z</time>
      </trkpt>
      <trkpt lat="42.300973" lon="3.285053">
        <ele>47</ele>
        <time>1970-01-01T00:31:02.000Z</time>
      </trkpt>
      <trkpt lat="42.300989" lon="3.285042">
        <ele>47</ele>
        <time>1970-01-01T00:31:03.000Z</time>
      </trkpt>
      <trkpt lat="42.301005" lon="3.28503">
        <ele>47</ele>
        <time>1970-01-01T00:31:04.000Z</time>
      </trkpt>
      <trkpt lat="42.301021" lon="3.285019">
        <ele>47</ele>
        <time>1970-01-01T00:31:05.000Z</time>
      </trkpt>
      <trkpt lat="42.301038" lon="3.285007">
        <ele>47</ele>
        <time>1970-01-01T00:31:06.000Z</time>
      </trkpt>
      <trkpt lat="42.301054" lon="3.284996">
        <ele>46</ele>
        <time>1970-01-01T00:31:07.000Z</time>
      </trkpt>
      <trkpt lat="42.301089" lon="3.284982">
        <ele>46</ele>
        <time>1970-01-01T00:31:08.000Z</time>
      </trkpt>
      <trkpt lat="42.301107" lon="3.284979">
        <ele>46</ele>
        <time>1970-01-01T00:31:09.000Z</time>
      </trkpt>
      <trkpt lat="42.301126" lon="3.284976">
        <ele>46</ele>
        <time>1970-01-01T00:31:10.000Z</time>
      </trkpt>
      <trkpt lat="42.301144" lon="3.284973">
        <ele>46</ele>
        <time>1970-01-01T00:31:11.000Z</time>
      </trkpt>
      <trkpt lat="42.301162" lon="3.28497">
        <ele>46</ele>
        <time>1970-01-01T00:31:12.000Z</time>
      </trkpt>
      <trkpt lat="42.30118" lon="3.284967">
        <ele>46</ele>
        <time>1970-01-01T00:31:13.000Z</time>
      </trkpt>
      <trkpt lat="42.301198" lon="3.284964">
        <ele>46</ele>
        <time>1970-01-01T00:31:14.000Z</time>
      </trkpt>
      <trkpt lat="42.301217" lon="3.284961">
        <ele>46</ele>
        <time>1970-01-01T00:31:15.000Z</time>
      </trkpt>
      <trkpt lat="42.301235" lon="3.284958">
        <ele>46</ele>
        <time>1970-01-01T00:31:16.000Z</time>
      </trkpt>
      <trkpt lat="42.301253" lon="3.284955">
        <ele>47</ele>
        <time>1970-01-01T00:31:17.000Z</time>
      </trkpt>
      <trkpt lat="42.301295" lon="3.284956">
        <ele>47</ele>
        <time>1970-01-01T00:31:18.000Z</time>
      </trkpt>
      <trkpt lat="42.301315" lon="3.284958">
        <ele>47</ele>
        <time>1970-01-01T00:31:19.000Z</time>
      </trkpt>
      <trkpt lat="42.301336" lon="3.284959">
        <ele>47</ele>
        <time>1970-01-01T00:31:20.000Z</time>
      </trkpt>
      <trkpt lat="42.301356" lon="3.28496">
        <ele>47</ele>
        <time>1970-01-01T00:31:21.000Z</time>
      </trkpt>
      <trkpt lat="42.301377" lon="3.284961">
        <ele>47</ele>
        <time>1970-01-01T00:31:22.000Z</time>
      </trkpt>
      <trkpt lat="42.301397" lon="3.284963">
        <ele>47</ele>
        <time>1970-01-01T00:31:23.000Z</time>
      </trkpt>
      <trkpt lat="42.301418" lon="3.284964">
        <ele>47</ele>
        <time>1970-01-01T00:31:24.000Z</time>
      </trkpt>
      <trkpt lat="42.301438" lon="3.284965">
        <ele>47</ele>
        <time>1970-01-01T00:31:25.000Z</time>
      </trkpt>
      <trkpt lat="42.301459" lon="3.284967">
        <ele>47</ele>
        <time>1970-01-01T00:31:26.000Z</time>
      </trkpt>
      <trkpt lat="42.301479" lon="3.284968">
        <ele>48</ele>
        <time>1970-01-01T00:31:27.000Z</time>
      </trkpt>
      <trkpt lat="42.301534" lon="3.284969">
        <ele>48</ele>
        <time>1970-01-01T00:31:28.000Z</time>
      </trkpt>
      <trkpt lat="42.301561" lon="3.284967">
        <ele>48</ele>
        <time>1970-01-01T00:31:29.000Z</time>
      </trkpt>
      <trkpt lat="42.301587" lon="3.284966">
        <ele>48</ele>
        <time>1970-01-01T00:31:30.000Z</time>
      </trkpt>
      <trkpt lat="42.301614" lon="3.284964">
        <ele>48</ele>
        <time>1970-01-01T00:31:31.000Z</time>
      </trkpt>
      <trkpt lat="42.301641" lon="3.284963">
        <ele>48</ele>
        <time>1970-01-01T00:31:32.000Z</time>
      </trkpt>
      <trkpt lat="42.301668" lon="3.284962">
        <ele>48</ele>
        <time>1970-01-01T00:31:33.000Z</time>
      </trkpt>
      <trkpt lat="42.301695" lon="3.28496">
        <ele>48</ele>
        <time>1970-01-01T00:31:34.000Z</time>
      </trkpt>
      <trkpt lat="42.301721" lon="3.284959">
        <ele>48</ele>
        <time>1970-01-01T00:31:35.000Z</time>
      </trkpt>
      <trkpt lat="42.301748" lon="3.284957">
        <ele>48</ele>
        <time>1970-01-01T00:31:36.000Z</time>
      </trkpt>
      <trkpt lat="42.301775" lon="3.284956">
        <ele>48</ele>
        <time>1970-01-01T00:31:37.000Z</time>
      </trkpt>
      <trkpt lat="42.301846" lon="3.284949">
        <ele>48</ele>
        <time>1970-01-01T00:31:38.000Z</time>
      </trkpt>
      <trkpt lat="42.301884" lon="3.284943">
        <ele>48</ele>
        <time>1970-01-01T00:31:39.000Z</time>
      </trkpt>
      <trkpt lat="42.301921" lon="3.284938">
        <ele>48</ele>
        <time>1970-01-01T00:31:40.000Z</time>
      </trkpt>
      <trkpt lat="42.301959" lon="3.284933">
        <ele>48</ele>
        <time>1970-01-01T00:31:41.000Z</time>
      </trkpt>
      <trkpt lat="42.301997" lon="3.284928">
        <ele>48</ele>
        <time>1970-01-01T00:31:42.000Z</time>
      </trkpt>
      <trkpt lat="42.302035" lon="3.284922">
        <ele>48</ele>
        <time>1970-01-01T00:31:43.000Z</time>
      </trkpt>
      <trkpt lat="42.302073" lon="3.284917">
        <ele>48</ele>
        <time>1970-01-01T00:31:44.000Z</time>
      </trkpt>
      <trkpt lat="42.30211" lon="3.284912">
        <ele>48</ele>
        <time>1970-01-01T00:31:45.000Z</time>
      </trkpt>
      <trkpt lat="42.302148" lon="3.284906">
        <ele>48</ele>
        <time>1970-01-01T00:31:46.000Z</time>
      </trkpt>
      <trkpt lat="42.302186" lon="3.284901">
        <ele>48</ele>
        <time>1970-01-01T00:31:47.000Z</time>
      </trkpt>
      <trkpt lat="42.302279" lon="3.284894">
        <ele>48</ele>
        <time>1970-01-01T00:31:48.000Z</time>
      </trkpt>
      <trkpt lat="42.302327" lon="3.284892">
        <ele>48</ele>
        <time>1970-01-01T00:31:49.000Z</time>
      </trkpt>
      <trkpt lat="42.302374" lon="3.284889">
        <ele>48</ele>
        <time>1970-01-01T00:31:50.000Z</time>
      </trkpt>
      <trkpt lat="42.302422" lon="3.284887">
        <ele>48</ele>
        <time>1970-01-01T00:31:51.000Z</time>
      </trkpt>
      <trkpt lat="42.30247" lon="3.284885">
        <ele>48</ele>
        <time>1970-01-01T00:31:52.000Z</time>
      </trkpt>
      <trkpt lat="42.302518" lon="3.284883">
        <ele>48</ele>
        <time>1970-01-01T00:31:53.000Z</time>
      </trkpt>
      <trkpt lat="42.302566" lon="3.284881">
        <ele>48</ele>
        <time>1970-01-01T00:31:54.000Z</time>
      </trkpt>
      <trkpt lat="42.302613" lon="3.284878">
        <ele>48</ele>
        <time>1970-01-01T00:31:55.000Z</time>
      </trkpt>
      <trkpt lat="42.302661" lon="3.284876">
        <ele>48</ele>
        <time>1970-01-01T00:31:56.000Z</time>
      </trkpt>
      <trkpt lat="42.302709" lon="3.284874">
        <ele>47</ele>
        <time>1970-01-01T00:31:57.000Z</time>
      </trkpt>
      <trkpt lat="42.302833" lon="3.284839">
        <ele>47</ele>
        <time>1970-01-01T00:31:58.000Z</time>
      </trkpt>
      <trkpt lat="42.302903" lon="3.284818">
        <ele>47</ele>
        <time>1970-01-01T00:31:59.000Z</time>
      </trkpt>
      <trkpt lat="42.302972" lon="3.284796">
        <ele>47</ele>
        <time>1970-01-01T00:32:01.000Z</time>
      </trkpt>
      <trkpt lat="42.303041" lon="3.284774">
        <ele>47</ele>
        <time>1970-01-01T00:32:02.000Z</time>
      </trkpt>
      <trkpt lat="42.303111" lon="3.284753">
        <ele>47</ele>
        <time>1970-01-01T00:32:03.000Z</time>
      </trkpt>
      <trkpt lat="42.30318" lon="3.284731">
        <ele>47</ele>
        <time>1970-01-01T00:32:04.000Z</time>
      </trkpt>
      <trkpt lat="42.303249" lon="3.284709">
        <ele>47</ele>
        <time>1970-01-01T00:32:05.000Z</time>
      </trkpt>
      <trkpt lat="42.303319" lon="3.284688">
        <ele>47</ele>
        <time>1970-01-01T00:32:06.000Z</time>
      </trkpt>
      <trkpt lat="42.303388" lon="3.284666">
        <ele>42</ele>
        <time>1970-01-01T00:32:07.000Z</time>
      </trkpt>
      <trkpt lat="42.303475" lon="3.28463">
        <ele>42</ele>
        <time>1970-01-01T00:32:08.000Z</time>
      </trkpt>
      <trkpt lat="42.303528" lon="3.284603">
        <ele>42</ele>
        <time>1970-01-01T00:32:09.000Z</time>
      </trkpt>
      <trkpt lat="42.303581" lon="3.284577">
        <ele>42</ele>
        <time>1970-01-01T00:32:10.000Z</time>
      </trkpt>
      <trkpt lat="42.303634" lon="3.284551">
        <ele>42</ele>
        <time>1970-01-01T00:32:11.000Z</time>
      </trkpt>
      <trkpt lat="42.303687" lon="3.284525">
        <ele>42</ele>
        <time>1970-01-01T00:32:12.000Z</time>
      </trkpt>
      <trkpt lat="42.30374" lon="3.284498">
        <ele>42</ele>
        <time>1970-01-01T00:32:13.000Z</time>
      </trkpt>
      <trkpt lat="42.303793" lon="3.284472">
        <ele>42</ele>
        <time>1970-01-01T00:32:14.000Z</time>
      </trkpt>
      <trkpt lat="42.303846" lon="3.284446">
        <ele>42</ele>
        <time>1970-01-01T00:32:15.000Z</time>
      </trkpt>
      <trkpt lat="42.303899" lon="3.284419">
        <ele>42</ele>
        <time>1970-01-01T00:32:16.000Z</time>
      </trkpt>
      <trkpt lat="42.303952" lon="3.284393">
        <ele>36</ele>
        <time>1970-01-01T00:32:17.000Z</time>
      </trkpt>
      <trkpt lat="42.304046" lon="3.2844">
        <ele>36</ele>
        <time>1970-01-01T00:32:18.000Z</time>
      </trkpt>
      <trkpt lat="42.304089" lon="3.284434">
        <ele>36</ele>
        <time>1970-01-01T00:32:19.000Z</time>
      </trkpt>
      <trkpt lat="42.304132" lon="3.284468">
        <ele>36</ele>
        <time>1970-01-01T00:32:20.000Z</time>
      </trkpt>
      <trkpt lat="42.304175" lon="3.284502">
        <ele>36</ele>
        <time>1970-01-01T00:32:21.000Z</time>
      </trkpt>
      <trkpt lat="42.304218" lon="3.284536">
        <ele>36</ele>
        <time>1970-01-01T00:32:22.000Z</time>
      </trkpt>
      <trkpt lat="42.30426" lon="3.284571">
        <ele>36</ele>
        <time>1970-01-01T00:32:23.000Z</time>
      </trkpt>
      <trkpt lat="42.304303" lon="3.284605">
        <ele>36</ele>
        <time>1970-01-01T00:32:24.000Z</time>
      </trkpt>
      <trkpt lat="42.304346" lon="3.284639">
        <ele>36</ele>
        <time>1970-01-01T00:32:25.000Z</time>
      </trkpt>
      <trkpt lat="42.304389" lon="3.284673">
        <ele>36</ele>
        <time>1970-01-01T00:32:26.000Z</time>
      </trkpt>
      <trkpt lat="42.304432" lon="3.284707">
        <ele>33</ele>
        <time>1970-01-01T00:32:27.000Z</time>
      </trkpt>
      <trkpt lat="42.30457" lon="3.284764">
        <ele>33</ele>
        <time>1970-01-01T00:32:28.000Z</time>
      </trkpt>
      <trkpt lat="42.304639" lon="3.284791">
        <ele>33</ele>
        <time>1970-01-01T00:32:29.000Z</time>
      </trkpt>
      <trkpt lat="42.304709" lon="3.284817">
        <ele>33</ele>
        <time>1970-01-01T00:32:30.000Z</time>
      </trkpt>
      <trkpt lat="42.304778" lon="3.284844">
        <ele>33</ele>
        <time>1970-01-01T00:32:31.000Z</time>
      </trkpt>
      <trkpt lat="42.304847" lon="3.28487">
        <ele>33</ele>
        <time>1970-01-01T00:32:32.000Z</time>
      </trkpt>
      <trkpt lat="42.304916" lon="3.284896">
        <ele>33</ele>
        <time>1970-01-01T00:32:33.000Z</time>
      </trkpt>
      <trkpt lat="42.304985" lon="3.284923">
        <ele>33</ele>
        <time>1970-01-01T00:32:34.000Z</time>
      </trkpt>
      <trkpt lat="42.305055" lon="3.284949">
        <ele>33</ele>
        <time>1970-01-01T00:32:35.000Z</time>
      </trkpt>
      <trkpt lat="42.305124" lon="3.284976">
        <ele>33</ele>
        <time>1970-01-01T00:32:36.000Z</time>
      </trkpt>
      <trkpt lat="42.305193" lon="3.285002">
        <ele>29</ele>
        <time>1970-01-01T00:32:37.000Z</time>
      </trkpt>
      <trkpt lat="42.305313" lon="3.284983">
        <ele>29</ele>
        <time>1970-01-01T00:32:38.000Z</time>
      </trkpt>
      <trkpt lat="42.305367" lon="3.284948">
        <ele>29</ele>
        <time>1970-01-01T00:32:39.000Z</time>
      </trkpt>
      <trkpt lat="42.305421" lon="3.284914">
        <ele>29</ele>
        <time>1970-01-01T00:32:40.000Z</time>
      </trkpt>
      <trkpt lat="42.305475" lon="3.284879">
        <ele>29</ele>
        <time>1970-01-01T00:32:41.000Z</time>
      </trkpt>
      <trkpt lat="42.305529" lon="3.284845">
        <ele>29</ele>
        <time>1970-01-01T00:32:42.000Z</time>
      </trkpt>
      <trkpt lat="42.305582" lon="3.28481">
        <ele>29</ele>
        <time>1970-01-01T00:32:43.000Z</time>
      </trkpt>
      <trkpt lat="42.305636" lon="3.284776">
        <ele>29</ele>
        <time>1970-01-01T00:32:44.000Z</time>
      </trkpt>
      <trkpt lat="42.30569" lon="3.284741">
        <ele>29</ele>
        <time>1970-01-01T00:32:45.000Z</time>
      </trkpt>
      <trkpt lat="42.305744" lon="3.284707">
        <ele>29</ele>
        <time>1970-01-01T00:32:46.000Z</time>
      </trkpt>
      <trkpt lat="42.305798" lon="3.284672">
        <ele>25</ele>
        <time>1970-01-01T00:32:47.000Z</time>
      </trkpt>
      <trkpt lat="42.305874" lon="3.284656">
        <ele>25</ele>
        <time>1970-01-01T00:32:48.000Z</time>
      </trkpt>
      <trkpt lat="42.305898" lon="3.284685">
        <ele>25</ele>
        <time>1970-01-01T00:32:49.000Z</time>
      </trkpt>
      <trkpt lat="42.305921" lon="3.284715">
        <ele>25</ele>
        <time>1970-01-01T00:32:50.000Z</time>
      </trkpt>
      <trkpt lat="42.305945" lon="3.284744">
        <ele>25</ele>
        <time>1970-01-01T00:32:51.000Z</time>
      </trkpt>
      <trkpt lat="42.305968" lon="3.284774">
        <ele>25</ele>
        <time>1970-01-01T00:32:52.000Z</time>
      </trkpt>
      <trkpt lat="42.305991" lon="3.284804">
        <ele>25</ele>
        <time>1970-01-01T00:32:53.000Z</time>
      </trkpt>
      <trkpt lat="42.306015" lon="3.284833">
        <ele>25</ele>
        <time>1970-01-01T00:32:54.000Z</time>
      </trkpt>
      <trkpt lat="42.306038" lon="3.284863">
        <ele>25</ele>
        <time>1970-01-01T00:32:55.000Z</time>
      </trkpt>
      <trkpt lat="42.306062" lon="3.284892">
        <ele>25</ele>
        <time>1970-01-01T00:32:56.000Z</time>
      </trkpt>
      <trkpt lat="42.306085" lon="3.284922">
        <ele>23</ele>
        <time>1970-01-01T00:32:57.000Z</time>
      </trkpt>
      <trkpt lat="42.306053" lon="3.285">
        <ele>23</ele>
        <time>1970-01-01T00:32:58.000Z</time>
      </trkpt>
      <trkpt lat="42.306038" lon="3.285034">
        <ele>23</ele>
        <time>1970-01-01T00:32:59.000Z</time>
      </trkpt>
      <trkpt lat="42.306024" lon="3.285069">
        <ele>23</ele>
        <time>1970-01-01T00:33:00.000Z</time>
      </trkpt>
      <trkpt lat="42.306009" lon="3.285103">
        <ele>23</ele>
        <time>1970-01-01T00:33:01.000Z</time>
      </trkpt>
      <trkpt lat="42.305995" lon="3.285137">
        <ele>23</ele>
        <time>1970-01-01T00:33:02.000Z</time>
      </trkpt>
      <trkpt lat="42.30598" lon="3.285171">
        <ele>23</ele>
        <time>1970-01-01T00:33:03.000Z</time>
      </trkpt>
      <trkpt lat="42.305966" lon="3.285205">
        <ele>23</ele>
        <time>1970-01-01T00:33:04.000Z</time>
      </trkpt>
      <trkpt lat="42.305951" lon="3.28524">
        <ele>23</ele>
        <time>1970-01-01T00:33:05.000Z</time>
      </trkpt>
      <trkpt lat="42.305937" lon="3.285274">
        <ele>23</ele>
        <time>1970-01-01T00:33:06.000Z</time>
      </trkpt>
      <trkpt lat="42.305922" lon="3.285308">
        <ele>25</ele>
        <time>1970-01-01T00:33:07.000Z</time>
      </trkpt>
      <trkpt lat="42.3059" lon="3.285378">
        <ele>25</ele>
        <time>1970-01-01T00:33:08.000Z</time>
      </trkpt>
      <trkpt lat="42.305895" lon="3.285411">
        <ele>25</ele>
        <time>1970-01-01T00:33:09.000Z</time>
      </trkpt>
      <trkpt lat="42.30589" lon="3.285444">
        <ele>25</ele>
        <time>1970-01-01T00:33:10.000Z</time>
      </trkpt>
      <trkpt lat="42.305885" lon="3.285477">
        <ele>25</ele>
        <time>1970-01-01T00:33:11.000Z</time>
      </trkpt>
      <trkpt lat="42.30588" lon="3.28551">
        <ele>25</ele>
        <time>1970-01-01T00:33:12.000Z</time>
      </trkpt>
      <trkpt lat="42.305875" lon="3.285542">
        <ele>25</ele>
        <time>1970-01-01T00:33:13.000Z</time>
      </trkpt>
      <trkpt lat="42.30587" lon="3.285575">
        <ele>25</ele>
        <time>1970-01-01T00:33:14.000Z</time>
      </trkpt>
      <trkpt lat="42.305865" lon="3.285608">
        <ele>25</ele>
        <time>1970-01-01T00:33:15.000Z</time>
      </trkpt>
      <trkpt lat="42.30586" lon="3.285641">
        <ele>25</ele>
        <time>1970-01-01T00:33:16.000Z</time>
      </trkpt>
      <trkpt lat="42.305855" lon="3.285674">
        <ele>25</ele>
        <time>1970-01-01T00:33:17.000Z</time>
      </trkpt>
      <trkpt lat="42.305878" lon="3.285733">
        <ele>25</ele>
        <time>1970-01-01T00:33:18.000Z</time>
      </trkpt>
      <trkpt lat="42.305892" lon="3.285757">
        <ele>25</ele>
        <time>1970-01-01T00:33:19.000Z</time>
      </trkpt>
      <trkpt lat="42.305906" lon="3.285782">
        <ele>25</ele>
        <time>1970-01-01T00:33:20.000Z</time>
      </trkpt>
      <trkpt lat="42.30592" lon="3.285807">
        <ele>25</ele>
        <time>1970-01-01T00:33:21.000Z</time>
      </trkpt>
      <trkpt lat="42.305935" lon="3.285831">
        <ele>25</ele>
        <time>1970-01-01T00:33:22.000Z</time>
      </trkpt>
      <trkpt lat="42.305949" lon="3.285856">
        <ele>25</ele>
        <time>1970-01-01T00:33:23.000Z</time>
      </trkpt>
      <trkpt lat="42.305963" lon="3.285881">
        <ele>25</ele>
        <time>1970-01-01T00:33:24.000Z</time>
      </trkpt>
      <trkpt lat="42.305977" lon="3.285906">
        <ele>25</ele>
        <time>1970-01-01T00:33:25.000Z</time>
      </trkpt>
      <trkpt lat="42.305991" lon="3.28593">
        <ele>25</ele>
        <time>1970-01-01T00:33:26.000Z</time>
      </trkpt>
      <trkpt lat="42.306005" lon="3.285955">
        <ele>25</ele>
        <time>1970-01-01T00:33:27.000Z</time>
      </trkpt>
      <trkpt lat="42.306029" lon="3.285999">
        <ele>25</ele>
        <time>1970-01-01T00:33:28.000Z</time>
      </trkpt>
      <trkpt lat="42.306039" lon="3.28602">
        <ele>25</ele>
        <time>1970-01-01T00:33:29.000Z</time>
      </trkpt>
      <trkpt lat="42.30605" lon="3.286041">
        <ele>25</ele>
        <time>1970-01-01T00:33:30.000Z</time>
      </trkpt>
      <trkpt lat="42.30606" lon="3.286062">
        <ele>25</ele>
        <time>1970-01-01T00:33:31.000Z</time>
      </trkpt>
      <trkpt lat="42.306071" lon="3.286082">
        <ele>25</ele>
        <time>1970-01-01T00:33:32.000Z</time>
      </trkpt>
      <trkpt lat="42.306082" lon="3.286103">
        <ele>25</ele>
        <time>1970-01-01T00:33:33.000Z</time>
      </trkpt>
      <trkpt lat="42.306092" lon="3.286124">
        <ele>25</ele>
        <time>1970-01-01T00:33:34.000Z</time>
      </trkpt>
      <trkpt lat="42.306103" lon="3.286145">
        <ele>25</ele>
        <time>1970-01-01T00:33:35.000Z</time>
      </trkpt>
      <trkpt lat="42.306113" lon="3.286166">
        <ele>25</ele>
        <time>1970-01-01T00:33:36.000Z</time>
      </trkpt>
      <trkpt lat="42.306124" lon="3.286187">
        <ele>27</ele>
        <time>1970-01-01T00:33:37.000Z</time>
      </trkpt>
      <trkpt lat="42.306147" lon="3.286231">
        <ele>27</ele>
        <time>1970-01-01T00:33:38.000Z</time>
      </trkpt>
      <trkpt lat="42.306159" lon="3.286251">
        <ele>27</ele>
        <time>1970-01-01T00:33:39.000Z</time>
      </trkpt>
      <trkpt lat="42.306172" lon="3.286271">
        <ele>27</ele>
        <time>1970-01-01T00:33:40.000Z</time>
      </trkpt>
      <trkpt lat="42.306184" lon="3.286291">
        <ele>27</ele>
        <time>1970-01-01T00:33:41.000Z</time>
      </trkpt>
      <trkpt lat="42.306196" lon="3.286311">
        <ele>27</ele>
        <time>1970-01-01T00:33:42.000Z</time>
      </trkpt>
      <trkpt lat="42.306208" lon="3.286332">
        <ele>27</ele>
        <time>1970-01-01T00:33:43.000Z</time>
      </trkpt>
      <trkpt lat="42.30622" lon="3.286352">
        <ele>27</ele>
        <time>1970-01-01T00:33:44.000Z</time>
      </trkpt>
      <trkpt lat="42.306233" lon="3.286372">
        <ele>27</ele>
        <time>1970-01-01T00:33:45.000Z</time>
      </trkpt>
      <trkpt lat="42.306245" lon="3.286392">
        <ele>27</ele>
        <time>1970-01-01T00:33:46.000Z</time>
      </trkpt>
      <trkpt lat="42.306257" lon="3.286412">
        <ele>28</ele>
        <time>1970-01-01T00:33:47.000Z</time>
      </trkpt>
      <trkpt lat="42.306289" lon="3.28644">
        <ele>28</ele>
        <time>1970-01-01T00:33:48.000Z</time>
      </trkpt>
      <trkpt lat="42.306306" lon="3.286448">
        <ele>28</ele>
        <time>1970-01-01T00:33:49.000Z</time>
      </trkpt>
      <trkpt lat="42.306323" lon="3.286457">
        <ele>28</ele>
        <time>1970-01-01T00:33:50.000Z</time>
      </trkpt>
      <trkpt lat="42.30634" lon="3.286465">
        <ele>28</ele>
        <time>1970-01-01T00:33:51.000Z</time>
      </trkpt>
      <trkpt lat="42.306358" lon="3.286474">
        <ele>28</ele>
        <time>1970-01-01T00:33:52.000Z</time>
      </trkpt>
      <trkpt lat="42.306375" lon="3.286483">
        <ele>28</ele>
        <time>1970-01-01T00:33:53.000Z</time>
      </trkpt>
      <trkpt lat="42.306392" lon="3.286491">
        <ele>28</ele>
        <time>1970-01-01T00:33:54.000Z</time>
      </trkpt>
      <trkpt lat="42.306409" lon="3.2865">
        <ele>28</ele>
        <time>1970-01-01T00:33:55.000Z</time>
      </trkpt>
      <trkpt lat="42.306426" lon="3.286508">
        <ele>28</ele>
        <time>1970-01-01T00:33:56.000Z</time>
      </trkpt>
      <trkpt lat="42.306443" lon="3.286517">
        <ele>32</ele>
        <time>1970-01-01T00:33:57.000Z</time>
      </trkpt>
      <trkpt lat="42.306483" lon="3.286521">
        <ele>32</ele>
        <time>1970-01-01T00:33:58.000Z</time>
      </trkpt>
      <trkpt lat="42.306503" lon="3.28652">
        <ele>32</ele>
        <time>1970-01-01T00:33:59.000Z</time>
      </trkpt>
      <trkpt lat="42.306522" lon="3.28652">
        <ele>32</ele>
        <time>1970-01-01T00:34:00.000Z</time>
      </trkpt>
      <trkpt lat="42.306541" lon="3.286519">
        <ele>32</ele>
        <time>1970-01-01T00:34:01.000Z</time>
      </trkpt>
      <trkpt lat="42.306561" lon="3.286519">
        <ele>32</ele>
        <time>1970-01-01T00:34:02.000Z</time>
      </trkpt>
      <trkpt lat="42.30658" lon="3.286518">
        <ele>32</ele>
        <time>1970-01-01T00:34:03.000Z</time>
      </trkpt>
      <trkpt lat="42.306599" lon="3.286518">
        <ele>32</ele>
        <time>1970-01-01T00:34:04.000Z</time>
      </trkpt>
      <trkpt lat="42.306618" lon="3.286517">
        <ele>32</ele>
        <time>1970-01-01T00:34:05.000Z</time>
      </trkpt>
      <trkpt lat="42.306638" lon="3.286517">
        <ele>32</ele>
        <time>1970-01-01T00:34:06.000Z</time>
      </trkpt>
      <trkpt lat="42.306657" lon="3.286516">
        <ele>34</ele>
        <time>1970-01-01T00:34:07.000Z</time>
      </trkpt>
      <trkpt lat="42.306698" lon="3.286513">
        <ele>34</ele>
        <time>1970-01-01T00:34:08.000Z</time>
      </trkpt>
      <trkpt lat="42.306717" lon="3.286511">
        <ele>34</ele>
        <time>1970-01-01T00:34:09.000Z</time>
      </trkpt>
      <trkpt lat="42.306736" lon="3.28651">
        <ele>34</ele>
        <time>1970-01-01T00:34:10.000Z</time>
      </trkpt>
      <trkpt lat="42.306755" lon="3.286508">
        <ele>34</ele>
        <time>1970-01-01T00:34:11.000Z</time>
      </trkpt>
      <trkpt lat="42.306774" lon="3.286507">
        <ele>34</ele>
        <time>1970-01-01T00:34:12.000Z</time>
      </trkpt>
      <trkpt lat="42.306793" lon="3.286505">
        <ele>34</ele>
        <time>1970-01-01T00:34:13.000Z</time>
      </trkpt>
      <trkpt lat="42.306812" lon="3.286504">
        <ele>34</ele>
        <time>1970-01-01T00:34:14.000Z</time>
      </trkpt>
      <trkpt lat="42.306831" lon="3.286502">
        <ele>34</ele>
        <time>1970-01-01T00:34:15.000Z</time>
      </trkpt>
      <trkpt lat="42.30685" lon="3.286501">
        <ele>34</ele>
        <time>1970-01-01T00:34:16.000Z</time>
      </trkpt>
      <trkpt lat="42.306869" lon="3.286499">
        <ele>36</ele>
        <time>1970-01-01T00:34:17.000Z</time>
      </trkpt>
      <trkpt lat="42.306909" lon="3.286502">
        <ele>36</ele>
        <time>1970-01-01T00:34:18.000Z</time>
      </trkpt>
      <trkpt lat="42.306929" lon="3.286502">
        <ele>36</ele>
        <time>1970-01-01T00:34:19.000Z</time>
      </trkpt>
      <trkpt lat="42.306948" lon="3.286503">
        <ele>36</ele>
        <time>1970-01-01T00:34:20.000Z</time>
      </trkpt>
      <trkpt lat="42.306967" lon="3.286503">
        <ele>36</ele>
        <time>1970-01-01T00:34:21.000Z</time>
      </trkpt>
      <trkpt lat="42.306987" lon="3.286503">
        <ele>36</ele>
        <time>1970-01-01T00:34:22.000Z</time>
      </trkpt>
      <trkpt lat="42.307006" lon="3.286503">
        <ele>36</ele>
        <time>1970-01-01T00:34:23.000Z</time>
      </trkpt>
      <trkpt lat="42.307025" lon="3.286503">
        <ele>36</ele>
        <time>1970-01-01T00:34:24.000Z</time>
      </trkpt>
      <trkpt lat="42.307044" lon="3.286504">
        <ele>36</ele>
        <time>1970-01-01T00:34:25.000Z</time>
      </trkpt>
      <trkpt lat="42.307064" lon="3.286504">
        <ele>36</ele>
        <time>1970-01-01T00:34:26.000Z</time>
      </trkpt>
      <trkpt lat="42.307083" lon="3.286504">
        <ele>37</ele>
        <time>1970-01-01T00:34:27.000Z</time>
      </trkpt>
      <trkpt lat="42.307124" lon="3.286503">
        <ele>37</ele>
        <time>1970-01-01T00:34:28.000Z</time>
      </trkpt>
      <trkpt lat="42.307144" lon="3.286502">
        <ele>37</ele>
        <time>1970-01-01T00:34:29.000Z</time>
      </trkpt>
      <trkpt lat="42.307164" lon="3.2865">
        <ele>37</ele>
        <time>1970-01-01T00:34:30.000Z</time>
      </trkpt>
      <trkpt lat="42.307184" lon="3.286499">
        <ele>37</ele>
        <time>1970-01-01T00:34:31.000Z</time>
      </trkpt>
      <trkpt lat="42.307204" lon="3.286497">
        <ele>37</ele>
        <time>1970-01-01T00:34:32.000Z</time>
      </trkpt>
      <trkpt lat="42.307223" lon="3.286495">
        <ele>37</ele>
        <time>1970-01-01T00:34:33.000Z</time>
      </trkpt>
      <trkpt lat="42.307243" lon="3.286494">
        <ele>37</ele>
        <time>1970-01-01T00:34:34.000Z</time>
      </trkpt>
      <trkpt lat="42.307263" lon="3.286492">
        <ele>37</ele>
        <time>1970-01-01T00:34:35.000Z</time>
      </trkpt>
      <trkpt lat="42.307283" lon="3.286491">
        <ele>37</ele>
        <time>1970-01-01T00:34:36.000Z</time>
      </trkpt>
      <trkpt lat="42.307303" lon="3.286489">
        <ele>38</ele>
        <time>1970-01-01T00:34:37.000Z</time>
      </trkpt>
      <trkpt lat="42.307341" lon="3.286471">
        <ele>38</ele>
        <time>1970-01-01T00:34:38.000Z</time>
      </trkpt>
      <trkpt lat="42.307359" lon="3.286462">
        <ele>38</ele>
        <time>1970-01-01T00:34:39.000Z</time>
      </trkpt>
      <trkpt lat="42.307376" lon="3.286452">
        <ele>38</ele>
        <time>1970-01-01T00:34:40.000Z</time>
      </trkpt>
      <trkpt lat="42.307393" lon="3.286442">
        <ele>38</ele>
        <time>1970-01-01T00:34:41.000Z</time>
      </trkpt>
      <trkpt lat="42.307411" lon="3.286433">
        <ele>38</ele>
        <time>1970-01-01T00:34:42.000Z</time>
      </trkpt>
      <trkpt lat="42.307428" lon="3.286423">
        <ele>38</ele>
        <time>1970-01-01T00:34:43.000Z</time>
      </trkpt>
      <trkpt lat="42.307445" lon="3.286413">
        <ele>38</ele>
        <time>1970-01-01T00:34:44.000Z</time>
      </trkpt>
      <trkpt lat="42.307463" lon="3.286404">
        <ele>38</ele>
        <time>1970-01-01T00:34:46.000Z</time>
      </trkpt>
      <trkpt lat="42.30748" lon="3.286394">
        <ele>39</ele>
        <time>1970-01-01T00:34:47.000Z</time>
      </trkpt>
      <trkpt lat="42.307524" lon="3.286352">
        <ele>39</ele>
        <time>1970-01-01T00:34:49.000Z</time>
      </trkpt>
      <trkpt lat="42.307539" lon="3.286337">
        <ele>39</ele>
        <time>1970-01-01T00:34:50.000Z</time>
      </trkpt>
      <trkpt lat="42.307553" lon="3.286322">
        <ele>39</ele>
        <time>1970-01-01T00:34:51.000Z</time>
      </trkpt>
      <trkpt lat="42.307568" lon="3.286308">
        <ele>39</ele>
        <time>1970-01-01T00:34:52.000Z</time>
      </trkpt>
      <trkpt lat="42.307582" lon="3.286293">
        <ele>39</ele>
        <time>1970-01-01T00:34:53.000Z</time>
      </trkpt>
      <trkpt lat="42.307596" lon="3.286278">
        <ele>39</ele>
        <time>1970-01-01T00:34:54.000Z</time>
      </trkpt>
      <trkpt lat="42.307611" lon="3.286263">
        <ele>39</ele>
        <time>1970-01-01T00:34:56.000Z</time>
      </trkpt>
      <trkpt lat="42.307625" lon="3.286248">
        <ele>41</ele>
        <time>1970-01-01T00:34:57.000Z</time>
      </trkpt>
      <trkpt lat="42.307655" lon="3.28621">
        <ele>41</ele>
        <time>1970-01-01T00:34:58.000Z</time>
      </trkpt>
      <trkpt lat="42.307671" lon="3.286189">
        <ele>41</ele>
        <time>1970-01-01T00:34:59.000Z</time>
      </trkpt>
      <trkpt lat="42.307687" lon="3.286167">
        <ele>41</ele>
        <time>1970-01-01T00:35:01.000Z</time>
      </trkpt>
      <trkpt lat="42.307702" lon="3.286145">
        <ele>41</ele>
        <time>1970-01-01T00:35:03.000Z</time>
      </trkpt>
      <trkpt lat="42.307718" lon="3.286123">
        <ele>41</ele>
        <time>1970-01-01T00:35:05.000Z</time>
      </trkpt>
      <trkpt lat="42.307734" lon="3.286102">
        <ele>41</ele>
        <time>1970-01-01T00:35:06.000Z</time>
      </trkpt>
      <trkpt lat="42.30775" lon="3.28608">
        <ele>42</ele>
        <time>1970-01-01T00:35:07.000Z</time>
      </trkpt>
      <trkpt lat="42.307787" lon="3.286028">
        <ele>42</ele>
        <time>1970-01-01T00:35:09.000Z</time>
      </trkpt>
      <trkpt lat="42.307797" lon="3.286008">
        <ele>42</ele>
        <time>1970-01-01T00:35:11.000Z</time>
      </trkpt>
      <trkpt lat="42.307807" lon="3.285987">
        <ele>42</ele>
        <time>1970-01-01T00:35:12.000Z</time>
      </trkpt>
      <trkpt lat="42.307817" lon="3.285967">
        <ele>42</ele>
        <time>1970-01-01T00:35:13.000Z</time>
      </trkpt>
      <trkpt lat="42.307827" lon="3.285946">
        <ele>42</ele>
        <time>1970-01-01T00:35:14.000Z</time>
      </trkpt>
      <trkpt lat="42.307837" lon="3.285925">
        <ele>42</ele>
        <time>1970-01-01T00:35:15.000Z</time>
      </trkpt>
      <trkpt lat="42.307847" lon="3.285905">
        <ele>42</ele>
        <time>1970-01-01T00:35:16.000Z</time>
      </trkpt>
      <trkpt lat="42.307857" lon="3.285884">
        <ele>45</ele>
        <time>1970-01-01T00:35:17.000Z</time>
      </trkpt>
      <trkpt lat="42.307875" lon="3.285845">
        <ele>45</ele>
        <time>1970-01-01T00:35:18.000Z</time>
      </trkpt>
      <trkpt lat="42.307883" lon="3.285825">
        <ele>45</ele>
        <time>1970-01-01T00:35:19.000Z</time>
      </trkpt>
      <trkpt lat="42.30789" lon="3.285805">
        <ele>45</ele>
        <time>1970-01-01T00:35:20.000Z</time>
      </trkpt>
      <trkpt lat="42.307898" lon="3.285785">
        <ele>45</ele>
        <time>1970-01-01T00:35:21.000Z</time>
      </trkpt>
      <trkpt lat="42.307906" lon="3.285765">
        <ele>45</ele>
        <time>1970-01-01T00:35:22.000Z</time>
      </trkpt>
      <trkpt lat="42.307914" lon="3.285745">
        <ele>45</ele>
        <time>1970-01-01T00:35:23.000Z</time>
      </trkpt>
      <trkpt lat="42.307922" lon="3.285725">
        <ele>45</ele>
        <time>1970-01-01T00:35:24.000Z</time>
      </trkpt>
      <trkpt lat="42.30793" lon="3.285705">
        <ele>45</ele>
        <time>1970-01-01T00:35:25.000Z</time>
      </trkpt>
      <trkpt lat="42.307937" lon="3.285685">
        <ele>45</ele>
        <time>1970-01-01T00:35:26.000Z</time>
      </trkpt>
      <trkpt lat="42.307945" lon="3.285665">
        <ele>45</ele>
        <time>1970-01-01T00:35:27.000Z</time>
      </trkpt>
      <trkpt lat="42.307953" lon="3.285645">
        <ele>46</ele>
        <time>1970-01-01T00:35:28.000Z</time>
      </trkpt>
      <trkpt lat="42.307968" lon="3.285601">
        <ele>46</ele>
        <time>1970-01-01T00:35:29.000Z</time>
      </trkpt>
      <trkpt lat="42.307975" lon="3.28558">
        <ele>46</ele>
        <time>1970-01-01T00:35:30.000Z</time>
      </trkpt>
      <trkpt lat="42.307982" lon="3.285559">
        <ele>46</ele>
        <time>1970-01-01T00:35:31.000Z</time>
      </trkpt>
      <trkpt lat="42.307989" lon="3.285538">
        <ele>46</ele>
        <time>1970-01-01T00:35:32.000Z</time>
      </trkpt>
      <trkpt lat="42.307996" lon="3.285517">
        <ele>46</ele>
        <time>1970-01-01T00:35:33.000Z</time>
      </trkpt>
      <trkpt lat="42.308003" lon="3.285496">
        <ele>46</ele>
        <time>1970-01-01T00:35:34.000Z</time>
      </trkpt>
      <trkpt lat="42.30801" lon="3.285475">
        <ele>46</ele>
        <time>1970-01-01T00:35:35.000Z</time>
      </trkpt>
      <trkpt lat="42.308017" lon="3.285454">
        <ele>46</ele>
        <time>1970-01-01T00:35:36.000Z</time>
      </trkpt>
      <trkpt lat="42.308024" lon="3.285433">
        <ele>48</ele>
        <time>1970-01-01T00:35:37.000Z</time>
      </trkpt>
      <trkpt lat="42.308041" lon="3.285388">
        <ele>48</ele>
        <time>1970-01-01T00:35:38.000Z</time>
      </trkpt>
      <trkpt lat="42.308049" lon="3.285368">
        <ele>48</ele>
        <time>1970-01-01T00:35:39.000Z</time>
      </trkpt>
      <trkpt lat="42.308058" lon="3.285347">
        <ele>48</ele>
        <time>1970-01-01T00:35:40.000Z</time>
      </trkpt>
      <trkpt lat="42.308067" lon="3.285327">
        <ele>48</ele>
        <time>1970-01-01T00:35:41.000Z</time>
      </trkpt>
      <trkpt lat="42.308076" lon="3.285306">
        <ele>48</ele>
        <time>1970-01-01T00:35:42.000Z</time>
      </trkpt>
      <trkpt lat="42.308084" lon="3.285285">
        <ele>48</ele>
        <time>1970-01-01T00:35:43.000Z</time>
      </trkpt>
      <trkpt lat="42.308093" lon="3.285265">
        <ele>48</ele>
        <time>1970-01-01T00:35:44.000Z</time>
      </trkpt>
      <trkpt lat="42.308102" lon="3.285244">
        <ele>48</ele>
        <time>1970-01-01T00:35:45.000Z</time>
      </trkpt>
      <trkpt lat="42.30811" lon="3.285224">
        <ele>48</ele>
        <time>1970-01-01T00:35:46.000Z</time>
      </trkpt>
      <trkpt lat="42.308119" lon="3.285203">
        <ele>51</ele>
        <time>1970-01-01T00:35:47.000Z</time>
      </trkpt>
      <trkpt lat="42.308146" lon="3.285168">
        <ele>51</ele>
        <time>1970-01-01T00:35:48.000Z</time>
      </trkpt>
      <trkpt lat="42.308159" lon="3.285154">
        <ele>51</ele>
        <time>1970-01-01T00:35:49.000Z</time>
      </trkpt>
      <trkpt lat="42.308173" lon="3.285141">
        <ele>51</ele>
        <time>1970-01-01T00:35:50.000Z</time>
      </trkpt>
      <trkpt lat="42.308187" lon="3.285127">
        <ele>51</ele>
        <time>1970-01-01T00:35:51.000Z</time>
      </trkpt>
      <trkpt lat="42.308201" lon="3.285114">
        <ele>51</ele>
        <time>1970-01-01T00:35:52.000Z</time>
      </trkpt>
      <trkpt lat="42.308214" lon="3.285101">
        <ele>51</ele>
        <time>1970-01-01T00:35:53.000Z</time>
      </trkpt>
      <trkpt lat="42.308228" lon="3.285087">
        <ele>51</ele>
        <time>1970-01-01T00:35:54.000Z</time>
      </trkpt>
      <trkpt lat="42.308242" lon="3.285074">
        <ele>51</ele>
        <time>1970-01-01T00:35:55.000Z</time>
      </trkpt>
      <trkpt lat="42.308255" lon="3.28506">
        <ele>51</ele>
        <time>1970-01-01T00:35:56.000Z</time>
      </trkpt>
      <trkpt lat="42.308269" lon="3.285047">
        <ele>51</ele>
        <time>1970-01-01T00:35:57.000Z</time>
      </trkpt>
      <trkpt lat="42.308326" lon="3.285068">
        <ele>51</ele>
        <time>1970-01-01T00:35:59.000Z</time>
      </trkpt>
      <trkpt lat="42.308348" lon="3.285088">
        <ele>51</ele>
        <time>1970-01-01T00:36:01.000Z</time>
      </trkpt>
      <trkpt lat="42.30837" lon="3.285107">
        <ele>51</ele>
        <time>1970-01-01T00:36:03.000Z</time>
      </trkpt>
      <trkpt lat="42.308392" lon="3.285127">
        <ele>51</ele>
        <time>1970-01-01T00:36:05.000Z</time>
      </trkpt>
      <trkpt lat="42.308414" lon="3.285147">
        <ele>53</ele>
        <time>1970-01-01T00:36:07.000Z</time>
      </trkpt>
      <trkpt lat="42.308446" lon="3.285215">
        <ele>53</ele>
        <time>1970-01-01T00:36:09.000Z</time>
      </trkpt>
      <trkpt lat="42.308457" lon="3.285243">
        <ele>53</ele>
        <time>1970-01-01T00:36:11.000Z</time>
      </trkpt>
      <trkpt lat="42.308469" lon="3.285272">
        <ele>53</ele>
        <time>1970-01-01T00:36:13.000Z</time>
      </trkpt>
      <trkpt lat="42.30848" lon="3.285301">
        <ele>53</ele>
        <time>1970-01-01T00:36:15.000Z</time>
      </trkpt>
      <trkpt lat="42.308492" lon="3.285329">
        <ele>53</ele>
        <time>1970-01-01T00:36:16.000Z</time>
      </trkpt>
      <trkpt lat="42.308503" lon="3.285358">
        <ele>55</ele>
        <time>1970-01-01T00:36:17.000Z</time>
      </trkpt>
      <trkpt lat="42.308518" lon="3.285404">
        <ele>55</ele>
        <time>1970-01-01T00:36:18.000Z</time>
      </trkpt>
      <trkpt lat="42.308526" lon="3.285427">
        <ele>55</ele>
        <time>1970-01-01T00:36:19.000Z</time>
      </trkpt>
      <trkpt lat="42.308533" lon="3.28545">
        <ele>55</ele>
        <time>1970-01-01T00:36:20.000Z</time>
      </trkpt>
      <trkpt lat="42.308541" lon="3.285473">
        <ele>55</ele>
        <time>1970-01-01T00:36:21.000Z</time>
      </trkpt>
      <trkpt lat="42.308549" lon="3.285496">
        <ele>55</ele>
        <time>1970-01-01T00:36:22.000Z</time>
      </trkpt>
      <trkpt lat="42.308557" lon="3.28552">
        <ele>55</ele>
        <time>1970-01-01T00:36:23.000Z</time>
      </trkpt>
      <trkpt lat="42.308565" lon="3.285543">
        <ele>55</ele>
        <time>1970-01-01T00:36:24.000Z</time>
      </trkpt>
      <trkpt lat="42.308572" lon="3.285566">
        <ele>55</ele>
        <time>1970-01-01T00:36:25.000Z</time>
      </trkpt>
      <trkpt lat="42.30858" lon="3.285589">
        <ele>55</ele>
        <time>1970-01-01T00:36:26.000Z</time>
      </trkpt>
      <trkpt lat="42.308588" lon="3.285612">
        <ele>57</ele>
        <time>1970-01-01T00:36:27.000Z</time>
      </trkpt>
      <trkpt lat="42.308605" lon="3.285663">
        <ele>57</ele>
        <time>1970-01-01T00:36:28.000Z</time>
      </trkpt>
      <trkpt lat="42.308612" lon="3.285687">
        <ele>57</ele>
        <time>1970-01-01T00:36:29.000Z</time>
      </trkpt>
      <trkpt lat="42.308619" lon="3.285711">
        <ele>57</ele>
        <time>1970-01-01T00:36:30.000Z</time>
      </trkpt>
      <trkpt lat="42.308626" lon="3.285735">
        <ele>57</ele>
        <time>1970-01-01T00:36:31.000Z</time>
      </trkpt>
      <trkpt lat="42.308633" lon="3.285758">
        <ele>57</ele>
        <time>1970-01-01T00:36:32.000Z</time>
      </trkpt>
      <trkpt lat="42.30864" lon="3.285782">
        <ele>57</ele>
        <time>1970-01-01T00:36:33.000Z</time>
      </trkpt>
      <trkpt lat="42.308647" lon="3.285806">
        <ele>57</ele>
        <time>1970-01-01T00:36:34.000Z</time>
      </trkpt>
      <trkpt lat="42.308654" lon="3.28583">
        <ele>57</ele>
        <time>1970-01-01T00:36:35.000Z</time>
      </trkpt>
      <trkpt lat="42.308661" lon="3.285854">
        <ele>57</ele>
        <time>1970-01-01T00:36:36.000Z</time>
      </trkpt>
      <trkpt lat="42.308668" lon="3.285878">
        <ele>57</ele>
        <time>1970-01-01T00:36:37.000Z</time>
      </trkpt>
      <trkpt lat="42.308662" lon="3.285929">
        <ele>57</ele>
        <time>1970-01-01T00:36:38.000Z</time>
      </trkpt>
      <trkpt lat="42.308656" lon="3.28595">
        <ele>57</ele>
        <time>1970-01-01T00:36:39.000Z</time>
      </trkpt>
      <trkpt lat="42.308649" lon="3.285972">
        <ele>57</ele>
        <time>1970-01-01T00:36:40.000Z</time>
      </trkpt>
      <trkpt lat="42.308643" lon="3.285994">
        <ele>57</ele>
        <time>1970-01-01T00:36:41.000Z</time>
      </trkpt>
      <trkpt lat="42.308637" lon="3.286016">
        <ele>57</ele>
        <time>1970-01-01T00:36:42.000Z</time>
      </trkpt>
      <trkpt lat="42.308631" lon="3.286037">
        <ele>57</ele>
        <time>1970-01-01T00:36:43.000Z</time>
      </trkpt>
      <trkpt lat="42.308625" lon="3.286059">
        <ele>57</ele>
        <time>1970-01-01T00:36:44.000Z</time>
      </trkpt>
      <trkpt lat="42.308618" lon="3.286081">
        <ele>57</ele>
        <time>1970-01-01T00:36:45.000Z</time>
      </trkpt>
      <trkpt lat="42.308612" lon="3.286102">
        <ele>57</ele>
        <time>1970-01-01T00:36:46.000Z</time>
      </trkpt>
      <trkpt lat="42.308606" lon="3.286124">
        <ele>58</ele>
        <time>1970-01-01T00:36:47.000Z</time>
      </trkpt>
      <trkpt lat="42.308575" lon="3.286191">
        <ele>58</ele>
        <time>1970-01-01T00:36:49.000Z</time>
      </trkpt>
      <trkpt lat="42.308564" lon="3.286218">
        <ele>58</ele>
        <time>1970-01-01T00:36:51.000Z</time>
      </trkpt>
      <trkpt lat="42.308552" lon="3.286245">
        <ele>58</ele>
        <time>1970-01-01T00:36:52.000Z</time>
      </trkpt>
      <trkpt lat="42.30854" lon="3.286271">
        <ele>58</ele>
        <time>1970-01-01T00:36:53.000Z</time>
      </trkpt>
      <trkpt lat="42.308529" lon="3.286298">
        <ele>58</ele>
        <time>1970-01-01T00:36:55.000Z</time>
      </trkpt>
      <trkpt lat="42.308517" lon="3.286325">
        <ele>60</ele>
        <time>1970-01-01T00:36:57.000Z</time>
      </trkpt>
      <trkpt lat="42.308486" lon="3.286388">
        <ele>60</ele>
        <time>1970-01-01T00:36:59.000Z</time>
      </trkpt>
      <trkpt lat="42.308474" lon="3.286416">
        <ele>60</ele>
        <time>1970-01-01T00:37:01.000Z</time>
      </trkpt>
      <trkpt lat="42.308463" lon="3.286443">
        <ele>60</ele>
        <time>1970-01-01T00:37:03.000Z</time>
      </trkpt>
      <trkpt lat="42.308451" lon="3.286471">
        <ele>60</ele>
        <time>1970-01-01T00:37:05.000Z</time>
      </trkpt>
      <trkpt lat="42.30844" lon="3.286499">
        <ele>63</ele>
        <time>1970-01-01T00:37:07.000Z</time>
      </trkpt>
      <trkpt lat="42.308423" lon="3.286568">
        <ele>63</ele>
        <time>1970-01-01T00:37:09.000Z</time>
      </trkpt>
      <trkpt lat="42.308419" lon="3.2866">
        <ele>63</ele>
        <time>1970-01-01T00:37:11.000Z</time>
      </trkpt>
      <trkpt lat="42.308414" lon="3.286631">
        <ele>63</ele>
        <time>1970-01-01T00:37:13.000Z</time>
      </trkpt>
      <trkpt lat="42.30841" lon="3.286663">
        <ele>63</ele>
        <time>1970-01-01T00:37:15.000Z</time>
      </trkpt>
      <trkpt lat="42.308406" lon="3.286695">
        <ele>64</ele>
        <time>1970-01-01T00:37:17.000Z</time>
      </trkpt>
      <trkpt lat="42.308405" lon="3.286727">
        <ele>64</ele>
        <time>1970-01-01T00:37:19.000Z</time>
      </trkpt>
      <trkpt lat="42.308407" lon="3.286757">
        <ele>64</ele>
        <time>1970-01-01T00:37:21.000Z</time>
      </trkpt>
      <trkpt lat="42.308411" lon="3.286791">
        <ele>64</ele>
        <time>1970-01-01T00:37:23.000Z</time>
      </trkpt>
      <trkpt lat="42.308417" lon="3.286827">
        <ele>64</ele>
        <time>1970-01-01T00:37:25.000Z</time>
      </trkpt>
      <trkpt lat="42.308426" lon="3.286863">
        <ele>64</ele>
        <time>1970-01-01T00:37:27.000Z</time>
      </trkpt>
      <trkpt lat="42.308438" lon="3.286935">
        <ele>64</ele>
        <time>1970-01-01T00:37:29.000Z</time>
      </trkpt>
      <trkpt lat="42.308445" lon="3.28697">
        <ele>64</ele>
        <time>1970-01-01T00:37:31.000Z</time>
      </trkpt>
      <trkpt lat="42.308451" lon="3.287006">
        <ele>64</ele>
        <time>1970-01-01T00:37:33.000Z</time>
      </trkpt>
      <trkpt lat="42.308458" lon="3.287041">
        <ele>64</ele>
        <time>1970-01-01T00:37:35.000Z</time>
      </trkpt>
      <trkpt lat="42.308464" lon="3.287076">
        <ele>64</ele>
        <time>1970-01-01T00:37:37.000Z</time>
      </trkpt>
      <trkpt lat="42.308496" lon="3.287139">
        <ele>64</ele>
        <time>1970-01-01T00:37:39.000Z</time>
      </trkpt>
      <trkpt lat="42.30851" lon="3.287164">
        <ele>64</ele>
        <time>1970-01-01T00:37:41.000Z</time>
      </trkpt>
      <trkpt lat="42.308525" lon="3.287188">
        <ele>64</ele>
        <time>1970-01-01T00:37:43.000Z</time>
      </trkpt>
      <trkpt lat="42.308539" lon="3.287213">
        <ele>64</ele>
        <time>1970-01-01T00:37:45.000Z</time>
      </trkpt>
      <trkpt lat="42.308554" lon="3.287237">
        <ele>64</ele>
        <time>1970-01-01T00:37:47.000Z</time>
      </trkpt>
      <trkpt lat="42.30857" lon="3.287252">
        <ele>64</ele>
        <time>1970-01-01T00:37:49.000Z</time>
      </trkpt>
      <trkpt lat="42.308585" lon="3.287267">
        <ele>64</ele>
        <time>1970-01-01T00:37:51.000Z</time>
      </trkpt>
      <trkpt lat="42.308598" lon="3.287287">
        <ele>64</ele>
        <time>1970-01-01T00:37:53.000Z</time>
      </trkpt>
      <trkpt lat="42.308616" lon="3.287304">
        <ele>64</ele>
        <time>1970-01-01T00:37:55.000Z</time>
      </trkpt>
      <trkpt lat="42.308634" lon="3.287323">
        <ele>64</ele>
        <time>1970-01-01T00:37:57.000Z</time>
      </trkpt>
      <trkpt lat="42.308657" lon="3.28734">
        <ele>64</ele>
        <time>1970-01-01T00:37:59.000Z</time>
      </trkpt>
      <trkpt lat="42.308681" lon="3.287358">
        <ele>64</ele>
        <time>1970-01-01T00:38:01.000Z</time>
      </trkpt>
      <trkpt lat="42.308708" lon="3.287372">
        <ele>64</ele>
        <time>1970-01-01T00:38:03.000Z</time>
      </trkpt>
      <trkpt lat="42.308735" lon="3.287388">
        <ele>64</ele>
        <time>1970-01-01T00:38:05.000Z</time>
      </trkpt>
      <trkpt lat="42.308762" lon="3.287407">
        <ele>65</ele>
        <time>1970-01-01T00:38:07.000Z</time>
      </trkpt>
      <trkpt lat="42.308787" lon="3.287431">
        <ele>65</ele>
        <time>1970-01-01T00:38:09.000Z</time>
      </trkpt>
      <trkpt lat="42.308807" lon="3.287453">
        <ele>65</ele>
        <time>1970-01-01T00:38:11.000Z</time>
      </trkpt>
      <trkpt lat="42.30883" lon="3.287458">
        <ele>65</ele>
        <time>1970-01-01T00:38:13.000Z</time>
      </trkpt>
      <trkpt lat="42.308852" lon="3.287466">
        <ele>65</ele>
        <time>1970-01-01T00:38:15.000Z</time>
      </trkpt>
      <trkpt lat="42.308872" lon="3.287486">
        <ele>65</ele>
        <time>1970-01-01T00:38:17.000Z</time>
      </trkpt>
      <trkpt lat="42.308918" lon="3.287529">
        <ele>65</ele>
        <time>1970-01-01T00:38:19.000Z</time>
      </trkpt>
      <trkpt lat="42.308939" lon="3.287547">
        <ele>65</ele>
        <time>1970-01-01T00:38:21.000Z</time>
      </trkpt>
      <trkpt lat="42.308961" lon="3.287564">
        <ele>65</ele>
        <time>1970-01-01T00:38:23.000Z</time>
      </trkpt>
      <trkpt lat="42.308982" lon="3.287582">
        <ele>65</ele>
        <time>1970-01-01T00:38:25.000Z</time>
      </trkpt>
      <trkpt lat="42.309003" lon="3.2876">
        <ele>66</ele>
        <time>1970-01-01T00:38:27.000Z</time>
      </trkpt>
      <trkpt lat="42.309044" lon="3.287641">
        <ele>66</ele>
        <time>1970-01-01T00:38:29.000Z</time>
      </trkpt>
      <trkpt lat="42.309062" lon="3.287656">
        <ele>66</ele>
        <time>1970-01-01T00:38:31.000Z</time>
      </trkpt>
      <trkpt lat="42.309079" lon="3.287671">
        <ele>66</ele>
        <time>1970-01-01T00:38:33.000Z</time>
      </trkpt>
      <trkpt lat="42.309097" lon="3.287685">
        <ele>66</ele>
        <time>1970-01-01T00:38:34.000Z</time>
      </trkpt>
      <trkpt lat="42.309114" lon="3.2877">
        <ele>66</ele>
        <time>1970-01-01T00:38:35.000Z</time>
      </trkpt>
      <trkpt lat="42.309132" lon="3.287715">
        <ele>66</ele>
        <time>1970-01-01T00:38:36.000Z</time>
      </trkpt>
      <trkpt lat="42.309149" lon="3.28773">
        <ele>67</ele>
        <time>1970-01-01T00:38:37.000Z</time>
      </trkpt>
      <trkpt lat="42.309185" lon="3.287748">
        <ele>67</ele>
        <time>1970-01-01T00:38:38.000Z</time>
      </trkpt>
      <trkpt lat="42.309204" lon="3.287752">
        <ele>67</ele>
        <time>1970-01-01T00:38:40.000Z</time>
      </trkpt>
      <trkpt lat="42.309223" lon="3.287755">
        <ele>67</ele>
        <time>1970-01-01T00:38:41.000Z</time>
      </trkpt>
      <trkpt lat="42.309242" lon="3.287759">
        <ele>67</ele>
        <time>1970-01-01T00:38:42.000Z</time>
      </trkpt>
      <trkpt lat="42.309262" lon="3.287763">
        <ele>67</ele>
        <time>1970-01-01T00:38:43.000Z</time>
      </trkpt>
      <trkpt lat="42.309281" lon="3.287767">
        <ele>67</ele>
        <time>1970-01-01T00:38:44.000Z</time>
      </trkpt>
      <trkpt lat="42.3093" lon="3.28777">
        <ele>67</ele>
        <time>1970-01-01T00:38:45.000Z</time>
      </trkpt>
      <trkpt lat="42.309319" lon="3.287774">
        <ele>67</ele>
        <time>1970-01-01T00:38:46.000Z</time>
      </trkpt>
      <trkpt lat="42.309338" lon="3.287778">
        <ele>68</ele>
        <time>1970-01-01T00:38:47.000Z</time>
      </trkpt>
      <trkpt lat="42.309373" lon="3.287759">
        <ele>68</ele>
        <time>1970-01-01T00:38:48.000Z</time>
      </trkpt>
      <trkpt lat="42.309388" lon="3.287744">
        <ele>68</ele>
        <time>1970-01-01T00:38:49.000Z</time>
      </trkpt>
      <trkpt lat="42.309402" lon="3.287729">
        <ele>68</ele>
        <time>1970-01-01T00:38:50.000Z</time>
      </trkpt>
      <trkpt lat="42.309417" lon="3.287714">
        <ele>68</ele>
        <time>1970-01-01T00:38:51.000Z</time>
      </trkpt>
      <trkpt lat="42.309432" lon="3.287699">
        <ele>68</ele>
        <time>1970-01-01T00:38:52.000Z</time>
      </trkpt>
      <trkpt lat="42.309447" lon="3.287683">
        <ele>68</ele>
        <time>1970-01-01T00:38:53.000Z</time>
      </trkpt>
      <trkpt lat="42.309462" lon="3.287668">
        <ele>68</ele>
        <time>1970-01-01T00:38:54.000Z</time>
      </trkpt>
      <trkpt lat="42.309476" lon="3.287653">
        <ele>68</ele>
        <time>1970-01-01T00:38:55.000Z</time>
      </trkpt>
      <trkpt lat="42.309491" lon="3.287638">
        <ele>68</ele>
        <time>1970-01-01T00:38:56.000Z</time>
      </trkpt>
      <trkpt lat="42.309506" lon="3.287623">
        <ele>69</ele>
        <time>1970-01-01T00:38:57.000Z</time>
      </trkpt>
      <trkpt lat="42.309536" lon="3.287585">
        <ele>69</ele>
        <time>1970-01-01T00:38:58.000Z</time>
      </trkpt>
      <trkpt lat="42.30955" lon="3.287567">
        <ele>69</ele>
        <time>1970-01-01T00:38:59.000Z</time>
      </trkpt>
      <trkpt lat="42.309564" lon="3.28755">
        <ele>69</ele>
        <time>1970-01-01T00:39:00.000Z</time>
      </trkpt>
      <trkpt lat="42.309578" lon="3.287533">
        <ele>69</ele>
        <time>1970-01-01T00:39:01.000Z</time>
      </trkpt>
      <trkpt lat="42.309593" lon="3.287516">
        <ele>69</ele>
        <time>1970-01-01T00:39:02.000Z</time>
      </trkpt>
      <trkpt lat="42.309607" lon="3.287498">
        <ele>69</ele>
        <time>1970-01-01T00:39:03.000Z</time>
      </trkpt>
      <trkpt lat="42.309621" lon="3.287481">
        <ele>69</ele>
        <time>1970-01-01T00:39:04.000Z</time>
      </trkpt>
      <trkpt lat="42.309635" lon="3.287464">
        <ele>69</ele>
        <time>1970-01-01T00:39:05.000Z</time>
      </trkpt>
      <trkpt lat="42.309649" lon="3.287446">
        <ele>69</ele>
        <time>1970-01-01T00:39:06.000Z</time>
      </trkpt>
      <trkpt lat="42.309663" lon="3.287429">
        <ele>71</ele>
        <time>1970-01-01T00:39:07.000Z</time>
      </trkpt>
      <trkpt lat="42.309692" lon="3.287395">
        <ele>71</ele>
        <time>1970-01-01T00:39:08.000Z</time>
      </trkpt>
      <trkpt lat="42.309707" lon="3.287379">
        <ele>71</ele>
        <time>1970-01-01T00:39:09.000Z</time>
      </trkpt>
      <trkpt lat="42.309721" lon="3.287364">
        <ele>71</ele>
        <time>1970-01-01T00:39:10.000Z</time>
      </trkpt>
      <trkpt lat="42.309736" lon="3.287348">
        <ele>71</ele>
        <time>1970-01-01T00:39:11.000Z</time>
      </trkpt>
      <trkpt lat="42.30975" lon="3.287332">
        <ele>71</ele>
        <time>1970-01-01T00:39:12.000Z</time>
      </trkpt>
      <trkpt lat="42.309764" lon="3.287316">
        <ele>71</ele>
        <time>1970-01-01T00:39:13.000Z</time>
      </trkpt>
      <trkpt lat="42.309779" lon="3.2873">
        <ele>71</ele>
        <time>1970-01-01T00:39:14.000Z</time>
      </trkpt>
      <trkpt lat="42.309793" lon="3.287285">
        <ele>71</ele>
        <time>1970-01-01T00:39:15.000Z</time>
      </trkpt>
      <trkpt lat="42.309808" lon="3.287269">
        <ele>71</ele>
        <time>1970-01-01T00:39:16.000Z</time>
      </trkpt>
      <trkpt lat="42.309822" lon="3.287253">
        <ele>71</ele>
        <time>1970-01-01T00:39:17.000Z</time>
      </trkpt>
      <trkpt lat="42.309856" lon="3.287229">
        <ele>71</ele>
        <time>1970-01-01T00:39:18.000Z</time>
      </trkpt>
      <trkpt lat="42.309874" lon="3.287219">
        <ele>71</ele>
        <time>1970-01-01T00:39:19.000Z</time>
      </trkpt>
      <trkpt lat="42.309891" lon="3.28721">
        <ele>71</ele>
        <time>1970-01-01T00:39:20.000Z</time>
      </trkpt>
      <trkpt lat="42.309909" lon="3.2872">
        <ele>71</ele>
        <time>1970-01-01T00:39:21.000Z</time>
      </trkpt>
      <trkpt lat="42.309926" lon="3.287191">
        <ele>71</ele>
        <time>1970-01-01T00:39:22.000Z</time>
      </trkpt>
      <trkpt lat="42.309943" lon="3.287182">
        <ele>71</ele>
        <time>1970-01-01T00:39:23.000Z</time>
      </trkpt>
      <trkpt lat="42.309961" lon="3.287172">
        <ele>71</ele>
        <time>1970-01-01T00:39:24.000Z</time>
      </trkpt>
      <trkpt lat="42.309978" lon="3.287163">
        <ele>71</ele>
        <time>1970-01-01T00:39:25.000Z</time>
      </trkpt>
      <trkpt lat="42.309996" lon="3.287153">
        <ele>71</ele>
        <time>1970-01-01T00:39:26.000Z</time>
      </trkpt>
      <trkpt lat="42.310013" lon="3.287144">
        <ele>73</ele>
        <time>1970-01-01T00:39:27.000Z</time>
      </trkpt>
      <trkpt lat="42.310052" lon="3.287146">
        <ele>73</ele>
        <time>1970-01-01T00:39:28.000Z</time>
      </trkpt>
      <trkpt lat="42.31007" lon="3.28715">
        <ele>73</ele>
        <time>1970-01-01T00:39:29.000Z</time>
      </trkpt>
      <trkpt lat="42.310088" lon="3.287154">
        <ele>73</ele>
        <time>1970-01-01T00:39:30.000Z</time>
      </trkpt>
      <trkpt lat="42.310106" lon="3.287158">
        <ele>73</ele>
        <time>1970-01-01T00:39:31.000Z</time>
      </trkpt>
      <trkpt lat="42.310124" lon="3.287162">
        <ele>73</ele>
        <time>1970-01-01T00:39:32.000Z</time>
      </trkpt>
      <trkpt lat="42.310141" lon="3.287167">
        <ele>73</ele>
        <time>1970-01-01T00:39:33.000Z</time>
      </trkpt>
      <trkpt lat="42.310159" lon="3.287171">
        <ele>73</ele>
        <time>1970-01-01T00:39:34.000Z</time>
      </trkpt>
      <trkpt lat="42.310177" lon="3.287175">
        <ele>73</ele>
        <time>1970-01-01T00:39:35.000Z</time>
      </trkpt>
      <trkpt lat="42.310195" lon="3.287179">
        <ele>73</ele>
        <time>1970-01-01T00:39:36.000Z</time>
      </trkpt>
      <trkpt lat="42.310213" lon="3.287183">
        <ele>74</ele>
        <time>1970-01-01T00:39:37.000Z</time>
      </trkpt>
      <trkpt lat="42.310249" lon="3.287198">
        <ele>74</ele>
        <time>1970-01-01T00:39:38.000Z</time>
      </trkpt>
      <trkpt lat="42.310265" lon="3.287207">
        <ele>74</ele>
        <time>1970-01-01T00:39:39.000Z</time>
      </trkpt>
      <trkpt lat="42.310282" lon="3.287216">
        <ele>74</ele>
        <time>1970-01-01T00:39:40.000Z</time>
      </trkpt>
      <trkpt lat="42.310298" lon="3.287225">
        <ele>74</ele>
        <time>1970-01-01T00:39:41.000Z</time>
      </trkpt>
      <trkpt lat="42.310315" lon="3.287234">
        <ele>74</ele>
        <time>1970-01-01T00:39:42.000Z</time>
      </trkpt>
      <trkpt lat="42.310331" lon="3.287243">
        <ele>74</ele>
        <time>1970-01-01T00:39:43.000Z</time>
      </trkpt>
      <trkpt lat="42.310348" lon="3.287252">
        <ele>74</ele>
        <time>1970-01-01T00:39:44.000Z</time>
      </trkpt>
      <trkpt lat="42.310364" lon="3.287261">
        <ele>74</ele>
        <time>1970-01-01T00:39:45.000Z</time>
      </trkpt>
      <trkpt lat="42.310381" lon="3.28727">
        <ele>74</ele>
        <time>1970-01-01T00:39:46.000Z</time>
      </trkpt>
      <trkpt lat="42.310397" lon="3.287279">
        <ele>75</ele>
        <time>1970-01-01T00:39:47.000Z</time>
      </trkpt>
      <trkpt lat="42.310428" lon="3.287303">
        <ele>75</ele>
        <time>1970-01-01T00:39:48.000Z</time>
      </trkpt>
      <trkpt lat="42.310441" lon="3.287317">
        <ele>75</ele>
        <time>1970-01-01T00:39:49.000Z</time>
      </trkpt>
      <trkpt lat="42.310454" lon="3.287332">
        <ele>75</ele>
        <time>1970-01-01T00:39:50.000Z</time>
      </trkpt>
      <trkpt lat="42.310467" lon="3.287347">
        <ele>75</ele>
        <time>1970-01-01T00:39:51.000Z</time>
      </trkpt>
      <trkpt lat="42.31048" lon="3.287361">
        <ele>75</ele>
        <time>1970-01-01T00:39:52.000Z</time>
      </trkpt>
      <trkpt lat="42.310493" lon="3.287376">
        <ele>75</ele>
        <time>1970-01-01T00:39:53.000Z</time>
      </trkpt>
      <trkpt lat="42.310506" lon="3.287391">
        <ele>75</ele>
        <time>1970-01-01T00:39:54.000Z</time>
      </trkpt>
      <trkpt lat="42.310519" lon="3.287406">
        <ele>75</ele>
        <time>1970-01-01T00:39:55.000Z</time>
      </trkpt>
      <trkpt lat="42.310532" lon="3.28742">
        <ele>75</ele>
        <time>1970-01-01T00:39:56.000Z</time>
      </trkpt>
      <trkpt lat="42.310545" lon="3.287435">
        <ele>77</ele>
        <time>1970-01-01T00:39:57.000Z</time>
      </trkpt>
      <trkpt lat="42.310565" lon="3.287476">
        <ele>77</ele>
        <time>1970-01-01T00:39:58.000Z</time>
      </trkpt>
      <trkpt lat="42.310577" lon="3.287495">
        <ele>77</ele>
        <time>1970-01-01T00:39:59.000Z</time>
      </trkpt>
      <trkpt lat="42.310588" lon="3.287515">
        <ele>77</ele>
        <time>1970-01-01T00:40:00.000Z</time>
      </trkpt>
      <trkpt lat="42.310599" lon="3.287535">
        <ele>77</ele>
        <time>1970-01-01T00:40:01.000Z</time>
      </trkpt>
      <trkpt lat="42.310611" lon="3.287554">
        <ele>77</ele>
        <time>1970-01-01T00:40:03.000Z</time>
      </trkpt>
      <trkpt lat="42.310622" lon="3.287574">
        <ele>77</ele>
        <time>1970-01-01T00:40:04.000Z</time>
      </trkpt>
      <trkpt lat="42.310633" lon="3.287594">
        <ele>77</ele>
        <time>1970-01-01T00:40:05.000Z</time>
      </trkpt>
      <trkpt lat="42.310645" lon="3.287613">
        <ele>77</ele>
        <time>1970-01-01T00:40:06.000Z</time>
      </trkpt>
      <trkpt lat="42.310656" lon="3.287633">
        <ele>78</ele>
        <time>1970-01-01T00:40:07.000Z</time>
      </trkpt>
      <trkpt lat="42.310684" lon="3.287666">
        <ele>78</ele>
        <time>1970-01-01T00:40:08.000Z</time>
      </trkpt>
      <trkpt lat="42.310698" lon="3.28768">
        <ele>78</ele>
        <time>1970-01-01T00:40:09.000Z</time>
      </trkpt>
      <trkpt lat="42.310712" lon="3.287695">
        <ele>78</ele>
        <time>1970-01-01T00:40:10.000Z</time>
      </trkpt>
      <trkpt lat="42.310726" lon="3.28771">
        <ele>78</ele>
        <time>1970-01-01T00:40:11.000Z</time>
      </trkpt>
      <trkpt lat="42.310741" lon="3.287724">
        <ele>78</ele>
        <time>1970-01-01T00:40:12.000Z</time>
      </trkpt>
      <trkpt lat="42.310755" lon="3.287739">
        <ele>78</ele>
        <time>1970-01-01T00:40:13.000Z</time>
      </trkpt>
      <trkpt lat="42.310769" lon="3.287754">
        <ele>78</ele>
        <time>1970-01-01T00:40:14.000Z</time>
      </trkpt>
      <trkpt lat="42.310783" lon="3.287769">
        <ele>78</ele>
        <time>1970-01-01T00:40:15.000Z</time>
      </trkpt>
      <trkpt lat="42.310797" lon="3.287783">
        <ele>78</ele>
        <time>1970-01-01T00:40:16.000Z</time>
      </trkpt>
      <trkpt lat="42.310811" lon="3.287798">
        <ele>81</ele>
        <time>1970-01-01T00:40:17.000Z</time>
      </trkpt>
      <trkpt lat="42.310843" lon="3.287828">
        <ele>81</ele>
        <time>1970-01-01T00:40:18.000Z</time>
      </trkpt>
      <trkpt lat="42.31086" lon="3.287844">
        <ele>81</ele>
        <time>1970-01-01T00:40:19.000Z</time>
      </trkpt>
      <trkpt lat="42.310876" lon="3.287861">
        <ele>81</ele>
        <time>1970-01-01T00:40:21.000Z</time>
      </trkpt>
      <trkpt lat="42.310892" lon="3.287878">
        <ele>81</ele>
        <time>1970-01-01T00:40:22.000Z</time>
      </trkpt>
      <trkpt lat="42.310908" lon="3.287895">
        <ele>81</ele>
        <time>1970-01-01T00:40:23.000Z</time>
      </trkpt>
      <trkpt lat="42.310925" lon="3.287911">
        <ele>81</ele>
        <time>1970-01-01T00:40:24.000Z</time>
      </trkpt>
      <trkpt lat="42.310941" lon="3.287928">
        <ele>81</ele>
        <time>1970-01-01T00:40:26.000Z</time>
      </trkpt>
      <trkpt lat="42.310957" lon="3.287945">
        <ele>82</ele>
        <time>1970-01-01T00:40:27.000Z</time>
      </trkpt>
      <trkpt lat="42.310985" lon="3.287972">
        <ele>82</ele>
        <time>1970-01-01T00:40:28.000Z</time>
      </trkpt>
      <trkpt lat="42.311" lon="3.287982">
        <ele>82</ele>
        <time>1970-01-01T00:40:29.000Z</time>
      </trkpt>
      <trkpt lat="42.311015" lon="3.287993">
        <ele>82</ele>
        <time>1970-01-01T00:40:30.000Z</time>
      </trkpt>
      <trkpt lat="42.31103" lon="3.288003">
        <ele>82</ele>
        <time>1970-01-01T00:40:31.000Z</time>
      </trkpt>
      <trkpt lat="42.311046" lon="3.288014">
        <ele>82</ele>
        <time>1970-01-01T00:40:32.000Z</time>
      </trkpt>
      <trkpt lat="42.311061" lon="3.288025">
        <ele>82</ele>
        <time>1970-01-01T00:40:33.000Z</time>
      </trkpt>
      <trkpt lat="42.311076" lon="3.288035">
        <ele>82</ele>
        <time>1970-01-01T00:40:34.000Z</time>
      </trkpt>
      <trkpt lat="42.311091" lon="3.288046">
        <ele>82</ele>
        <time>1970-01-01T00:40:35.000Z</time>
      </trkpt>
      <trkpt lat="42.311106" lon="3.288056">
        <ele>82</ele>
        <time>1970-01-01T00:40:36.000Z</time>
      </trkpt>
      <trkpt lat="42.311121" lon="3.288067">
        <ele>84</ele>
        <time>1970-01-01T00:40:37.000Z</time>
      </trkpt>
      <trkpt lat="42.311155" lon="3.288087">
        <ele>84</ele>
        <time>1970-01-01T00:40:38.000Z</time>
      </trkpt>
      <trkpt lat="42.311171" lon="3.288096">
        <ele>84</ele>
        <time>1970-01-01T00:40:39.000Z</time>
      </trkpt>
      <trkpt lat="42.311186" lon="3.288105">
        <ele>84</ele>
        <time>1970-01-01T00:40:40.000Z</time>
      </trkpt>
      <trkpt lat="42.311202" lon="3.288114">
        <ele>84</ele>
        <time>1970-01-01T00:40:41.000Z</time>
      </trkpt>
      <trkpt lat="42.311218" lon="3.288123">
        <ele>84</ele>
        <time>1970-01-01T00:40:42.000Z</time>
      </trkpt>
      <trkpt lat="42.311234" lon="3.288133">
        <ele>84</ele>
        <time>1970-01-01T00:40:43.000Z</time>
      </trkpt>
      <trkpt lat="42.31125" lon="3.288142">
        <ele>84</ele>
        <time>1970-01-01T00:40:44.000Z</time>
      </trkpt>
      <trkpt lat="42.311265" lon="3.288151">
        <ele>84</ele>
        <time>1970-01-01T00:40:45.000Z</time>
      </trkpt>
      <trkpt lat="42.311281" lon="3.28816">
        <ele>84</ele>
        <time>1970-01-01T00:40:46.000Z</time>
      </trkpt>
      <trkpt lat="42.311297" lon="3.288169">
        <ele>85</ele>
        <time>1970-01-01T00:40:47.000Z</time>
      </trkpt>
      <trkpt lat="42.311331" lon="3.288189">
        <ele>85</ele>
        <time>1970-01-01T00:40:48.000Z</time>
      </trkpt>
      <trkpt lat="42.311346" lon="3.288199">
        <ele>85</ele>
        <time>1970-01-01T00:40:49.000Z</time>
      </trkpt>
      <trkpt lat="42.311362" lon="3.288209">
        <ele>85</ele>
        <time>1970-01-01T00:40:50.000Z</time>
      </trkpt>
      <trkpt lat="42.311377" lon="3.288219">
        <ele>85</ele>
        <time>1970-01-01T00:40:51.000Z</time>
      </trkpt>
      <trkpt lat="42.311393" lon="3.288229">
        <ele>85</ele>
        <time>1970-01-01T00:40:52.000Z</time>
      </trkpt>
      <trkpt lat="42.311408" lon="3.288239">
        <ele>85</ele>
        <time>1970-01-01T00:40:53.000Z</time>
      </trkpt>
      <trkpt lat="42.311424" lon="3.288249">
        <ele>85</ele>
        <time>1970-01-01T00:40:54.000Z</time>
      </trkpt>
      <trkpt lat="42.311439" lon="3.288259">
        <ele>85</ele>
        <time>1970-01-01T00:40:55.000Z</time>
      </trkpt>
      <trkpt lat="42.311455" lon="3.288269">
        <ele>85</ele>
        <time>1970-01-01T00:40:56.000Z</time>
      </trkpt>
      <trkpt lat="42.31147" lon="3.288279">
        <ele>87</ele>
        <time>1970-01-01T00:40:57.000Z</time>
      </trkpt>
      <trkpt lat="42.311504" lon="3.288303">
        <ele>87</ele>
        <time>1970-01-01T00:40:58.000Z</time>
      </trkpt>
      <trkpt lat="42.31152" lon="3.288313">
        <ele>87</ele>
        <time>1970-01-01T00:40:59.000Z</time>
      </trkpt>
      <trkpt lat="42.311537" lon="3.288324">
        <ele>87</ele>
        <time>1970-01-01T00:41:00.000Z</time>
      </trkpt>
      <trkpt lat="42.311553" lon="3.288335">
        <ele>87</ele>
        <time>1970-01-01T00:41:01.000Z</time>
      </trkpt>
      <trkpt lat="42.31157" lon="3.288345">
        <ele>87</ele>
        <time>1970-01-01T00:41:02.000Z</time>
      </trkpt>
      <trkpt lat="42.311586" lon="3.288356">
        <ele>87</ele>
        <time>1970-01-01T00:41:03.000Z</time>
      </trkpt>
      <trkpt lat="42.311603" lon="3.288367">
        <ele>87</ele>
        <time>1970-01-01T00:41:04.000Z</time>
      </trkpt>
      <trkpt lat="42.311619" lon="3.288378">
        <ele>87</ele>
        <time>1970-01-01T00:41:05.000Z</time>
      </trkpt>
      <trkpt lat="42.311636" lon="3.288388">
        <ele>87</ele>
        <time>1970-01-01T00:41:06.000Z</time>
      </trkpt>
      <trkpt lat="42.311652" lon="3.288399">
        <ele>88</ele>
        <time>1970-01-01T00:41:07.000Z</time>
      </trkpt>
      <trkpt lat="42.311689" lon="3.288423">
        <ele>88</ele>
        <time>1970-01-01T00:41:08.000Z</time>
      </trkpt>
      <trkpt lat="42.311706" lon="3.288434">
        <ele>88</ele>
        <time>1970-01-01T00:41:09.000Z</time>
      </trkpt>
      <trkpt lat="42.311724" lon="3.288444">
        <ele>88</ele>
        <time>1970-01-01T00:41:10.000Z</time>
      </trkpt>
      <trkpt lat="42.311742" lon="3.288455">
        <ele>88</ele>
        <time>1970-01-01T00:41:11.000Z</time>
      </trkpt>
      <trkpt lat="42.31176" lon="3.288466">
        <ele>88</ele>
        <time>1970-01-01T00:41:12.000Z</time>
      </trkpt>
      <trkpt lat="42.311777" lon="3.288477">
        <ele>88</ele>
        <time>1970-01-01T00:41:13.000Z</time>
      </trkpt>
      <trkpt lat="42.311795" lon="3.288488">
        <ele>88</ele>
        <time>1970-01-01T00:41:14.000Z</time>
      </trkpt>
      <trkpt lat="42.311813" lon="3.288498">
        <ele>88</ele>
        <time>1970-01-01T00:41:15.000Z</time>
      </trkpt>
      <trkpt lat="42.31183" lon="3.288509">
        <ele>88</ele>
        <time>1970-01-01T00:41:16.000Z</time>
      </trkpt>
      <trkpt lat="42.311848" lon="3.28852">
        <ele>91</ele>
        <time>1970-01-01T00:41:17.000Z</time>
      </trkpt>
      <trkpt lat="42.311889" lon="3.288532">
        <ele>91</ele>
        <time>1970-01-01T00:41:18.000Z</time>
      </trkpt>
      <trkpt lat="42.311909" lon="3.288532">
        <ele>91</ele>
        <time>1970-01-01T00:41:19.000Z</time>
      </trkpt>
      <trkpt lat="42.311929" lon="3.288533">
        <ele>91</ele>
        <time>1970-01-01T00:41:20.000Z</time>
      </trkpt>
      <trkpt lat="42.311949" lon="3.288533">
        <ele>91</ele>
        <time>1970-01-01T00:41:21.000Z</time>
      </trkpt>
      <trkpt lat="42.311969" lon="3.288534">
        <ele>91</ele>
        <time>1970-01-01T00:41:22.000Z</time>
      </trkpt>
      <trkpt lat="42.311989" lon="3.288534">
        <ele>91</ele>
        <time>1970-01-01T00:41:23.000Z</time>
      </trkpt>
      <trkpt lat="42.312009" lon="3.288535">
        <ele>91</ele>
        <time>1970-01-01T00:41:25.000Z</time>
      </trkpt>
      <trkpt lat="42.312029" lon="3.288535">
        <ele>91</ele>
        <time>1970-01-01T00:41:26.000Z</time>
      </trkpt>
      <trkpt lat="42.312049" lon="3.288536">
        <ele>92</ele>
        <time>1970-01-01T00:41:27.000Z</time>
      </trkpt>
      <trkpt lat="42.312094" lon="3.288521">
        <ele>92</ele>
        <time>1970-01-01T00:41:28.000Z</time>
      </trkpt>
      <trkpt lat="42.312116" lon="3.288512">
        <ele>92</ele>
        <time>1970-01-01T00:41:29.000Z</time>
      </trkpt>
      <trkpt lat="42.312137" lon="3.288503">
        <ele>92</ele>
        <time>1970-01-01T00:41:30.000Z</time>
      </trkpt>
      <trkpt lat="42.312159" lon="3.288494">
        <ele>92</ele>
        <time>1970-01-01T00:41:31.000Z</time>
      </trkpt>
      <trkpt lat="42.312181" lon="3.288486">
        <ele>92</ele>
        <time>1970-01-01T00:41:32.000Z</time>
      </trkpt>
      <trkpt lat="42.312203" lon="3.288477">
        <ele>92</ele>
        <time>1970-01-01T00:41:33.000Z</time>
      </trkpt>
      <trkpt lat="42.312225" lon="3.288468">
        <ele>92</ele>
        <time>1970-01-01T00:41:34.000Z</time>
      </trkpt>
      <trkpt lat="42.312246" lon="3.288459">
        <ele>92</ele>
        <time>1970-01-01T00:41:35.000Z</time>
      </trkpt>
      <trkpt lat="42.312268" lon="3.28845">
        <ele>92</ele>
        <time>1970-01-01T00:41:36.000Z</time>
      </trkpt>
      <trkpt lat="42.31229" lon="3.288441">
        <ele>92</ele>
        <time>1970-01-01T00:41:37.000Z</time>
      </trkpt>
      <trkpt lat="42.312336" lon="3.28842">
        <ele>92</ele>
        <time>1970-01-01T00:41:38.000Z</time>
      </trkpt>
      <trkpt lat="42.312359" lon="3.28841">
        <ele>92</ele>
        <time>1970-01-01T00:41:39.000Z</time>
      </trkpt>
      <trkpt lat="42.312383" lon="3.2884">
        <ele>92</ele>
        <time>1970-01-01T00:41:40.000Z</time>
      </trkpt>
      <trkpt lat="42.312407" lon="3.28839">
        <ele>92</ele>
        <time>1970-01-01T00:41:41.000Z</time>
      </trkpt>
      <trkpt lat="42.31243" lon="3.28838">
        <ele>92</ele>
        <time>1970-01-01T00:41:42.000Z</time>
      </trkpt>
      <trkpt lat="42.312454" lon="3.288369">
        <ele>92</ele>
        <time>1970-01-01T00:41:43.000Z</time>
      </trkpt>
      <trkpt lat="42.312477" lon="3.288359">
        <ele>92</ele>
        <time>1970-01-01T00:41:44.000Z</time>
      </trkpt>
      <trkpt lat="42.312501" lon="3.288349">
        <ele>92</ele>
        <time>1970-01-01T00:41:45.000Z</time>
      </trkpt>
      <trkpt lat="42.312525" lon="3.288339">
        <ele>92</ele>
        <time>1970-01-01T00:41:46.000Z</time>
      </trkpt>
      <trkpt lat="42.312548" lon="3.288329">
        <ele>92</ele>
        <time>1970-01-01T00:41:47.000Z</time>
      </trkpt>
      <trkpt lat="42.312572" lon="3.288319">
        <ele>92</ele>
        <time>1970-01-01T00:41:48.000Z</time>
      </trkpt>
      <trkpt lat="42.312619" lon="3.288299">
        <ele>92</ele>
        <time>1970-01-01T00:41:49.000Z</time>
      </trkpt>
      <trkpt lat="42.312641" lon="3.28829">
        <ele>92</ele>
        <time>1970-01-01T00:41:50.000Z</time>
      </trkpt>
      <trkpt lat="42.312662" lon="3.28828">
        <ele>92</ele>
        <time>1970-01-01T00:41:51.000Z</time>
      </trkpt>
      <trkpt lat="42.312684" lon="3.288271">
        <ele>92</ele>
        <time>1970-01-01T00:41:52.000Z</time>
      </trkpt>
      <trkpt lat="42.312706" lon="3.288262">
        <ele>92</ele>
        <time>1970-01-01T00:41:53.000Z</time>
      </trkpt>
      <trkpt lat="42.312728" lon="3.288253">
        <ele>92</ele>
        <time>1970-01-01T00:41:54.000Z</time>
      </trkpt>
      <trkpt lat="42.312749" lon="3.288243">
        <ele>92</ele>
        <time>1970-01-01T00:41:55.000Z</time>
      </trkpt>
      <trkpt lat="42.312771" lon="3.288234">
        <ele>92</ele>
        <time>1970-01-01T00:41:56.000Z</time>
      </trkpt>
      <trkpt lat="42.312793" lon="3.288225">
        <ele>92</ele>
        <time>1970-01-01T00:41:57.000Z</time>
      </trkpt>
      <trkpt lat="42.312837" lon="3.288208">
        <ele>92</ele>
        <time>1970-01-01T00:41:58.000Z</time>
      </trkpt>
      <trkpt lat="42.312857" lon="3.2882">
        <ele>92</ele>
        <time>1970-01-01T00:41:59.000Z</time>
      </trkpt>
      <trkpt lat="42.312878" lon="3.288192">
        <ele>92</ele>
        <time>1970-01-01T00:42:00.000Z</time>
      </trkpt>
      <trkpt lat="42.312898" lon="3.288184">
        <ele>92</ele>
        <time>1970-01-01T00:42:01.000Z</time>
      </trkpt>
      <trkpt lat="42.312919" lon="3.288176">
        <ele>92</ele>
        <time>1970-01-01T00:42:02.000Z</time>
      </trkpt>
      <trkpt lat="42.31294" lon="3.288167">
        <ele>92</ele>
        <time>1970-01-01T00:42:03.000Z</time>
      </trkpt>
      <trkpt lat="42.31296" lon="3.288159">
        <ele>92</ele>
        <time>1970-01-01T00:42:04.000Z</time>
      </trkpt>
      <trkpt lat="42.312981" lon="3.288151">
        <ele>92</ele>
        <time>1970-01-01T00:42:05.000Z</time>
      </trkpt>
      <trkpt lat="42.313001" lon="3.288143">
        <ele>92</ele>
        <time>1970-01-01T00:42:06.000Z</time>
      </trkpt>
      <trkpt lat="42.313022" lon="3.288135">
        <ele>94</ele>
        <time>1970-01-01T00:42:07.000Z</time>
      </trkpt>
      <trkpt lat="42.313063" lon="3.288117">
        <ele>94</ele>
        <time>1970-01-01T00:42:08.000Z</time>
      </trkpt>
      <trkpt lat="42.313083" lon="3.288109">
        <ele>94</ele>
        <time>1970-01-01T00:42:09.000Z</time>
      </trkpt>
      <trkpt lat="42.313102" lon="3.2881">
        <ele>94</ele>
        <time>1970-01-01T00:42:10.000Z</time>
      </trkpt>
      <trkpt lat="42.313122" lon="3.288092">
        <ele>94</ele>
        <time>1970-01-01T00:42:11.000Z</time>
      </trkpt>
      <trkpt lat="42.313142" lon="3.288084">
        <ele>94</ele>
        <time>1970-01-01T00:42:12.000Z</time>
      </trkpt>
      <trkpt lat="42.313162" lon="3.288076">
        <ele>94</ele>
        <time>1970-01-01T00:42:13.000Z</time>
      </trkpt>
      <trkpt lat="42.313182" lon="3.288068">
        <ele>94</ele>
        <time>1970-01-01T00:42:14.000Z</time>
      </trkpt>
      <trkpt lat="42.313201" lon="3.288059">
        <ele>94</ele>
        <time>1970-01-01T00:42:15.000Z</time>
      </trkpt>
      <trkpt lat="42.313221" lon="3.288051">
        <ele>94</ele>
        <time>1970-01-01T00:42:16.000Z</time>
      </trkpt>
      <trkpt lat="42.313241" lon="3.288043">
        <ele>100</ele>
        <time>1970-01-01T00:42:17.000Z</time>
      </trkpt>
      <trkpt lat="42.313294" lon="3.288028">
        <ele>100</ele>
        <time>1970-01-01T00:42:18.000Z</time>
      </trkpt>
      <trkpt lat="42.313323" lon="3.288021">
        <ele>100</ele>
        <time>1970-01-01T00:42:19.000Z</time>
      </trkpt>
      <trkpt lat="42.313351" lon="3.288015">
        <ele>100</ele>
        <time>1970-01-01T00:42:20.000Z</time>
      </trkpt>
      <trkpt lat="42.313379" lon="3.288009">
        <ele>100</ele>
        <time>1970-01-01T00:42:21.000Z</time>
      </trkpt>
      <trkpt lat="42.313408" lon="3.288003">
        <ele>100</ele>
        <time>1970-01-01T00:42:22.000Z</time>
      </trkpt>
      <trkpt lat="42.313436" lon="3.287996">
        <ele>100</ele>
        <time>1970-01-01T00:42:23.000Z</time>
      </trkpt>
      <trkpt lat="42.313464" lon="3.28799">
        <ele>100</ele>
        <time>1970-01-01T00:42:24.000Z</time>
      </trkpt>
      <trkpt lat="42.313492" lon="3.287984">
        <ele>100</ele>
        <time>1970-01-01T00:42:25.000Z</time>
      </trkpt>
      <trkpt lat="42.313521" lon="3.287977">
        <ele>100</ele>
        <time>1970-01-01T00:42:26.000Z</time>
      </trkpt>
      <trkpt lat="42.313549" lon="3.287971">
        <ele>100</ele>
        <time>1970-01-01T00:42:27.000Z</time>
      </trkpt>
      <trkpt lat="42.313616" lon="3.287983">
        <ele>100</ele>
        <time>1970-01-01T00:42:28.000Z</time>
      </trkpt>
      <trkpt lat="42.313649" lon="3.287992">
        <ele>100</ele>
        <time>1970-01-01T00:42:29.000Z</time>
      </trkpt>
      <trkpt lat="42.313683" lon="3.288001">
        <ele>100</ele>
        <time>1970-01-01T00:42:30.000Z</time>
      </trkpt>
      <trkpt lat="42.313716" lon="3.28801">
        <ele>100</ele>
        <time>1970-01-01T00:42:31.000Z</time>
      </trkpt>
      <trkpt lat="42.31375" lon="3.288019">
        <ele>100</ele>
        <time>1970-01-01T00:42:32.000Z</time>
      </trkpt>
      <trkpt lat="42.313784" lon="3.288028">
        <ele>100</ele>
        <time>1970-01-01T00:42:33.000Z</time>
      </trkpt>
      <trkpt lat="42.313817" lon="3.288037">
        <ele>100</ele>
        <time>1970-01-01T00:42:34.000Z</time>
      </trkpt>
      <trkpt lat="42.313851" lon="3.288046">
        <ele>100</ele>
        <time>1970-01-01T00:42:35.000Z</time>
      </trkpt>
      <trkpt lat="42.313884" lon="3.288055">
        <ele>100</ele>
        <time>1970-01-01T00:42:36.000Z</time>
      </trkpt>
      <trkpt lat="42.313918" lon="3.288064">
        <ele>98</ele>
        <time>1970-01-01T00:42:37.000Z</time>
      </trkpt>
      <trkpt lat="42.314008" lon="3.288089">
        <ele>98</ele>
        <time>1970-01-01T00:42:38.000Z</time>
      </trkpt>
      <trkpt lat="42.314059" lon="3.288101">
        <ele>98</ele>
        <time>1970-01-01T00:42:39.000Z</time>
      </trkpt>
      <trkpt lat="42.314111" lon="3.288113">
        <ele>98</ele>
        <time>1970-01-01T00:42:40.000Z</time>
      </trkpt>
      <trkpt lat="42.314162" lon="3.288125">
        <ele>98</ele>
        <time>1970-01-01T00:42:41.000Z</time>
      </trkpt>
      <trkpt lat="42.314214" lon="3.288137">
        <ele>98</ele>
        <time>1970-01-01T00:42:42.000Z</time>
      </trkpt>
      <trkpt lat="42.314265" lon="3.288149">
        <ele>98</ele>
        <time>1970-01-01T00:42:43.000Z</time>
      </trkpt>
      <trkpt lat="42.314317" lon="3.288161">
        <ele>98</ele>
        <time>1970-01-01T00:42:44.000Z</time>
      </trkpt>
      <trkpt lat="42.314368" lon="3.288173">
        <ele>98</ele>
        <time>1970-01-01T00:42:45.000Z</time>
      </trkpt>
      <trkpt lat="42.31442" lon="3.288185">
        <ele>98</ele>
        <time>1970-01-01T00:42:46.000Z</time>
      </trkpt>
      <trkpt lat="42.314471" lon="3.288197">
        <ele>91</ele>
        <time>1970-01-01T00:42:47.000Z</time>
      </trkpt>
      <trkpt lat="42.314612" lon="3.288232">
        <ele>91</ele>
        <time>1970-01-01T00:42:48.000Z</time>
      </trkpt>
      <trkpt lat="42.314679" lon="3.288247">
        <ele>91</ele>
        <time>1970-01-01T00:42:49.000Z</time>
      </trkpt>
      <trkpt lat="42.314746" lon="3.288263">
        <ele>91</ele>
        <time>1970-01-01T00:42:50.000Z</time>
      </trkpt>
      <trkpt lat="42.314813" lon="3.288278">
        <ele>91</ele>
        <time>1970-01-01T00:42:51.000Z</time>
      </trkpt>
      <trkpt lat="42.314881" lon="3.288294">
        <ele>91</ele>
        <time>1970-01-01T00:42:52.000Z</time>
      </trkpt>
      <trkpt lat="42.314948" lon="3.28831">
        <ele>91</ele>
        <time>1970-01-01T00:42:53.000Z</time>
      </trkpt>
      <trkpt lat="42.315015" lon="3.288325">
        <ele>91</ele>
        <time>1970-01-01T00:42:54.000Z</time>
      </trkpt>
      <trkpt lat="42.315082" lon="3.288341">
        <ele>91</ele>
        <time>1970-01-01T00:42:55.000Z</time>
      </trkpt>
      <trkpt lat="42.315149" lon="3.288356">
        <ele>91</ele>
        <time>1970-01-01T00:42:56.000Z</time>
      </trkpt>
      <trkpt lat="42.315216" lon="3.288372">
        <ele>90</ele>
        <time>1970-01-01T00:42:57.000Z</time>
      </trkpt>
      <trkpt lat="42.315327" lon="3.288399">
        <ele>90</ele>
        <time>1970-01-01T00:42:58.000Z</time>
      </trkpt>
      <trkpt lat="42.315378" lon="3.28841">
        <ele>90</ele>
        <time>1970-01-01T00:42:59.000Z</time>
      </trkpt>
      <trkpt lat="42.31543" lon="3.288422">
        <ele>90</ele>
        <time>1970-01-01T00:43:00.000Z</time>
      </trkpt>
      <trkpt lat="42.315481" lon="3.288433">
        <ele>90</ele>
        <time>1970-01-01T00:43:01.000Z</time>
      </trkpt>
      <trkpt lat="42.315533" lon="3.288445">
        <ele>90</ele>
        <time>1970-01-01T00:43:02.000Z</time>
      </trkpt>
      <trkpt lat="42.315585" lon="3.288457">
        <ele>90</ele>
        <time>1970-01-01T00:43:03.000Z</time>
      </trkpt>
      <trkpt lat="42.315636" lon="3.288468">
        <ele>90</ele>
        <time>1970-01-01T00:43:04.000Z</time>
      </trkpt>
      <trkpt lat="42.315688" lon="3.28848">
        <ele>90</ele>
        <time>1970-01-01T00:43:05.000Z</time>
      </trkpt>
      <trkpt lat="42.315739" lon="3.288491">
        <ele>90</ele>
        <time>1970-01-01T00:43:06.000Z</time>
      </trkpt>
      <trkpt lat="42.315791" lon="3.288503">
        <ele>91</ele>
        <time>1970-01-01T00:43:07.000Z</time>
      </trkpt>
      <trkpt lat="42.315909" lon="3.288532">
        <ele>91</ele>
        <time>1970-01-01T00:43:08.000Z</time>
      </trkpt>
      <trkpt lat="42.315965" lon="3.288545">
        <ele>91</ele>
        <time>1970-01-01T00:43:09.000Z</time>
      </trkpt>
      <trkpt lat="42.31602" lon="3.288559">
        <ele>91</ele>
        <time>1970-01-01T00:43:10.000Z</time>
      </trkpt>
      <trkpt lat="42.316076" lon="3.288572">
        <ele>91</ele>
        <time>1970-01-01T00:43:11.000Z</time>
      </trkpt>
      <trkpt lat="42.316132" lon="3.288586">
        <ele>91</ele>
        <time>1970-01-01T00:43:12.000Z</time>
      </trkpt>
      <trkpt lat="42.316188" lon="3.2886">
        <ele>91</ele>
        <time>1970-01-01T00:43:13.000Z</time>
      </trkpt>
      <trkpt lat="42.316244" lon="3.288613">
        <ele>91</ele>
        <time>1970-01-01T00:43:14.000Z</time>
      </trkpt>
      <trkpt lat="42.316299" lon="3.288627">
        <ele>91</ele>
        <time>1970-01-01T00:43:15.000Z</time>
      </trkpt>
      <trkpt lat="42.316355" lon="3.28864">
        <ele>91</ele>
        <time>1970-01-01T00:43:16.000Z</time>
      </trkpt>
      <trkpt lat="42.316411" lon="3.288654">
        <ele>88</ele>
        <time>1970-01-01T00:43:17.000Z</time>
      </trkpt>
      <trkpt lat="42.316499" lon="3.288733">
        <ele>88</ele>
        <time>1970-01-01T00:43:18.000Z</time>
      </trkpt>
      <trkpt lat="42.316519" lon="3.288778">
        <ele>88</ele>
        <time>1970-01-01T00:43:19.000Z</time>
      </trkpt>
      <trkpt lat="42.31654" lon="3.288823">
        <ele>88</ele>
        <time>1970-01-01T00:43:20.000Z</time>
      </trkpt>
      <trkpt lat="42.31656" lon="3.288868">
        <ele>88</ele>
        <time>1970-01-01T00:43:21.000Z</time>
      </trkpt>
      <trkpt lat="42.31658" lon="3.288913">
        <ele>88</ele>
        <time>1970-01-01T00:43:22.000Z</time>
      </trkpt>
      <trkpt lat="42.3166" lon="3.288959">
        <ele>88</ele>
        <time>1970-01-01T00:43:23.000Z</time>
      </trkpt>
      <trkpt lat="42.31662" lon="3.289004">
        <ele>88</ele>
        <time>1970-01-01T00:43:24.000Z</time>
      </trkpt>
      <trkpt lat="42.316641" lon="3.289049">
        <ele>88</ele>
        <time>1970-01-01T00:43:25.000Z</time>
      </trkpt>
      <trkpt lat="42.316661" lon="3.289094">
        <ele>88</ele>
        <time>1970-01-01T00:43:26.000Z</time>
      </trkpt>
      <trkpt lat="42.316681" lon="3.289139">
        <ele>86</ele>
        <time>1970-01-01T00:43:27.000Z</time>
      </trkpt>
      <trkpt lat="42.316711" lon="3.289209">
        <ele>86</ele>
        <time>1970-01-01T00:43:28.000Z</time>
      </trkpt>
      <trkpt lat="42.316728" lon="3.289238">
        <ele>86</ele>
        <time>1970-01-01T00:43:29.000Z</time>
      </trkpt>
      <trkpt lat="42.316745" lon="3.289267">
        <ele>86</ele>
        <time>1970-01-01T00:43:30.000Z</time>
      </trkpt>
      <trkpt lat="42.316762" lon="3.289296">
        <ele>86</ele>
        <time>1970-01-01T00:43:31.000Z</time>
      </trkpt>
      <trkpt lat="42.31678" lon="3.289324">
        <ele>86</ele>
        <time>1970-01-01T00:43:32.000Z</time>
      </trkpt>
      <trkpt lat="42.316797" lon="3.289353">
        <ele>86</ele>
        <time>1970-01-01T00:43:33.000Z</time>
      </trkpt>
      <trkpt lat="42.316814" lon="3.289382">
        <ele>86</ele>
        <time>1970-01-01T00:43:34.000Z</time>
      </trkpt>
      <trkpt lat="42.316831" lon="3.289411">
        <ele>86</ele>
        <time>1970-01-01T00:43:35.000Z</time>
      </trkpt>
      <trkpt lat="42.316848" lon="3.28944">
        <ele>86</ele>
        <time>1970-01-01T00:43:36.000Z</time>
      </trkpt>
      <trkpt lat="42.316865" lon="3.289469">
        <ele>86</ele>
        <time>1970-01-01T00:43:37.000Z</time>
      </trkpt>
      <trkpt lat="42.316904" lon="3.289521">
        <ele>86</ele>
        <time>1970-01-01T00:43:38.000Z</time>
      </trkpt>
      <trkpt lat="42.316922" lon="3.289546">
        <ele>86</ele>
        <time>1970-01-01T00:43:39.000Z</time>
      </trkpt>
      <trkpt lat="42.31694" lon="3.289571">
        <ele>86</ele>
        <time>1970-01-01T00:43:40.000Z</time>
      </trkpt>
      <trkpt lat="42.316958" lon="3.289596">
        <ele>86</ele>
        <time>1970-01-01T00:43:41.000Z</time>
      </trkpt>
      <trkpt lat="42.316976" lon="3.28962">
        <ele>86</ele>
        <time>1970-01-01T00:43:42.000Z</time>
      </trkpt>
      <trkpt lat="42.316993" lon="3.289645">
        <ele>86</ele>
        <time>1970-01-01T00:43:43.000Z</time>
      </trkpt>
      <trkpt lat="42.317011" lon="3.28967">
        <ele>86</ele>
        <time>1970-01-01T00:43:44.000Z</time>
      </trkpt>
      <trkpt lat="42.317029" lon="3.289695">
        <ele>86</ele>
        <time>1970-01-01T00:43:45.000Z</time>
      </trkpt>
      <trkpt lat="42.317047" lon="3.28972">
        <ele>86</ele>
        <time>1970-01-01T00:43:46.000Z</time>
      </trkpt>
      <trkpt lat="42.317065" lon="3.289745">
        <ele>87</ele>
        <time>1970-01-01T00:43:47.000Z</time>
      </trkpt>
      <trkpt lat="42.317105" lon="3.289785">
        <ele>87</ele>
        <time>1970-01-01T00:43:48.000Z</time>
      </trkpt>
      <trkpt lat="42.317128" lon="3.289795">
        <ele>87</ele>
        <time>1970-01-01T00:43:49.000Z</time>
      </trkpt>
      <trkpt lat="42.317151" lon="3.289805">
        <ele>87</ele>
        <time>1970-01-01T00:43:50.000Z</time>
      </trkpt>
      <trkpt lat="42.317174" lon="3.289815">
        <ele>87</ele>
        <time>1970-01-01T00:43:51.000Z</time>
      </trkpt>
      <trkpt lat="42.317197" lon="3.289825">
        <ele>87</ele>
        <time>1970-01-01T00:43:52.000Z</time>
      </trkpt>
      <trkpt lat="42.317219" lon="3.289835">
        <ele>87</ele>
        <time>1970-01-01T00:43:53.000Z</time>
      </trkpt>
      <trkpt lat="42.317242" lon="3.289845">
        <ele>87</ele>
        <time>1970-01-01T00:43:54.000Z</time>
      </trkpt>
      <trkpt lat="42.317265" lon="3.289855">
        <ele>87</ele>
        <time>1970-01-01T00:43:55.000Z</time>
      </trkpt>
      <trkpt lat="42.317288" lon="3.289865">
        <ele>87</ele>
        <time>1970-01-01T00:43:56.000Z</time>
      </trkpt>
      <trkpt lat="42.317311" lon="3.289875">
        <ele>89</ele>
        <time>1970-01-01T00:43:57.000Z</time>
      </trkpt>
      <trkpt lat="42.31736" lon="3.289866">
        <ele>89</ele>
        <time>1970-01-01T00:43:58.000Z</time>
      </trkpt>
      <trkpt lat="42.317385" lon="3.289859">
        <ele>89</ele>
        <time>1970-01-01T00:43:59.000Z</time>
      </trkpt>
      <trkpt lat="42.317409" lon="3.289852">
        <ele>89</ele>
        <time>1970-01-01T00:44:00.000Z</time>
      </trkpt>
      <trkpt lat="42.317434" lon="3.289845">
        <ele>89</ele>
        <time>1970-01-01T00:44:01.000Z</time>
      </trkpt>
      <trkpt lat="42.317458" lon="3.289839">
        <ele>89</ele>
        <time>1970-01-01T00:44:02.000Z</time>
      </trkpt>
      <trkpt lat="42.317482" lon="3.289832">
        <ele>89</ele>
        <time>1970-01-01T00:44:03.000Z</time>
      </trkpt>
      <trkpt lat="42.317507" lon="3.289825">
        <ele>89</ele>
        <time>1970-01-01T00:44:04.000Z</time>
      </trkpt>
      <trkpt lat="42.317531" lon="3.289818">
        <ele>89</ele>
        <time>1970-01-01T00:44:05.000Z</time>
      </trkpt>
      <trkpt lat="42.317556" lon="3.289811">
        <ele>89</ele>
        <time>1970-01-01T00:44:06.000Z</time>
      </trkpt>
      <trkpt lat="42.31758" lon="3.289804">
        <ele>91</ele>
        <time>1970-01-01T00:44:07.000Z</time>
      </trkpt>
      <trkpt lat="42.317632" lon="3.289793">
        <ele>91</ele>
        <time>1970-01-01T00:44:08.000Z</time>
      </trkpt>
      <trkpt lat="42.317656" lon="3.289787">
        <ele>91</ele>
        <time>1970-01-01T00:44:09.000Z</time>
      </trkpt>
      <trkpt lat="42.317681" lon="3.289782">
        <ele>91</ele>
        <time>1970-01-01T00:44:10.000Z</time>
      </trkpt>
      <trkpt lat="42.317706" lon="3.289776">
        <ele>91</ele>
        <time>1970-01-01T00:44:11.000Z</time>
      </trkpt>
      <trkpt lat="42.317731" lon="3.289771">
        <ele>91</ele>
        <time>1970-01-01T00:44:12.000Z</time>
      </trkpt>
      <trkpt lat="42.317755" lon="3.289765">
        <ele>91</ele>
        <time>1970-01-01T00:44:13.000Z</time>
      </trkpt>
      <trkpt lat="42.31778" lon="3.28976">
        <ele>91</ele>
        <time>1970-01-01T00:44:14.000Z</time>
      </trkpt>
      <trkpt lat="42.317805" lon="3.289754">
        <ele>91</ele>
        <time>1970-01-01T00:44:15.000Z</time>
      </trkpt>
      <trkpt lat="42.317829" lon="3.289749">
        <ele>91</ele>
        <time>1970-01-01T00:44:16.000Z</time>
      </trkpt>
      <trkpt lat="42.317854" lon="3.289743">
        <ele>92</ele>
        <time>1970-01-01T00:44:17.000Z</time>
      </trkpt>
      <trkpt lat="42.317904" lon="3.289745">
        <ele>92</ele>
        <time>1970-01-01T00:44:18.000Z</time>
      </trkpt>
      <trkpt lat="42.317926" lon="3.289753">
        <ele>92</ele>
        <time>1970-01-01T00:44:19.000Z</time>
      </trkpt>
      <trkpt lat="42.317947" lon="3.28976">
        <ele>92</ele>
        <time>1970-01-01T00:44:20.000Z</time>
      </trkpt>
      <trkpt lat="42.317969" lon="3.289768">
        <ele>92</ele>
        <time>1970-01-01T00:44:21.000Z</time>
      </trkpt>
      <trkpt lat="42.317991" lon="3.289775">
        <ele>92</ele>
        <time>1970-01-01T00:44:22.000Z</time>
      </trkpt>
      <trkpt lat="42.318013" lon="3.289783">
        <ele>92</ele>
        <time>1970-01-01T00:44:23.000Z</time>
      </trkpt>
      <trkpt lat="42.318035" lon="3.28979">
        <ele>92</ele>
        <time>1970-01-01T00:44:24.000Z</time>
      </trkpt>
      <trkpt lat="42.318056" lon="3.289798">
        <ele>92</ele>
        <time>1970-01-01T00:44:25.000Z</time>
      </trkpt>
      <trkpt lat="42.318078" lon="3.289805">
        <ele>92</ele>
        <time>1970-01-01T00:44:26.000Z</time>
      </trkpt>
      <trkpt lat="42.3181" lon="3.289813">
        <ele>94</ele>
        <time>1970-01-01T00:44:27.000Z</time>
      </trkpt>
      <trkpt lat="42.318126" lon="3.289862">
        <ele>94</ele>
        <time>1970-01-01T00:44:28.000Z</time>
      </trkpt>
      <trkpt lat="42.318134" lon="3.289888">
        <ele>94</ele>
        <time>1970-01-01T00:44:29.000Z</time>
      </trkpt>
      <trkpt lat="42.318143" lon="3.289914">
        <ele>94</ele>
        <time>1970-01-01T00:44:30.000Z</time>
      </trkpt>
      <trkpt lat="42.318151" lon="3.28994">
        <ele>94</ele>
        <time>1970-01-01T00:44:31.000Z</time>
      </trkpt>
      <trkpt lat="42.318159" lon="3.289966">
        <ele>94</ele>
        <time>1970-01-01T00:44:32.000Z</time>
      </trkpt>
      <trkpt lat="42.318167" lon="3.289991">
        <ele>94</ele>
        <time>1970-01-01T00:44:33.000Z</time>
      </trkpt>
      <trkpt lat="42.318175" lon="3.290017">
        <ele>94</ele>
        <time>1970-01-01T00:44:34.000Z</time>
      </trkpt>
      <trkpt lat="42.318183" lon="3.290043">
        <ele>94</ele>
        <time>1970-01-01T00:44:35.000Z</time>
      </trkpt>
      <trkpt lat="42.318192" lon="3.290069">
        <ele>94</ele>
        <time>1970-01-01T00:44:36.000Z</time>
      </trkpt>
      <trkpt lat="42.3182" lon="3.290095">
        <ele>94</ele>
        <time>1970-01-01T00:44:37.000Z</time>
      </trkpt>
      <trkpt lat="42.318208" lon="3.290121">
        <ele>95</ele>
        <time>1970-01-01T00:44:38.000Z</time>
      </trkpt>
      <trkpt lat="42.318198" lon="3.290172">
        <ele>95</ele>
        <time>1970-01-01T00:44:39.000Z</time>
      </trkpt>
      <trkpt lat="42.318192" lon="3.290193">
        <ele>95</ele>
        <time>1970-01-01T00:44:40.000Z</time>
      </trkpt>
      <trkpt lat="42.318185" lon="3.290215">
        <ele>95</ele>
        <time>1970-01-01T00:44:41.000Z</time>
      </trkpt>
      <trkpt lat="42.318178" lon="3.290237">
        <ele>95</ele>
        <time>1970-01-01T00:44:42.000Z</time>
      </trkpt>
      <trkpt lat="42.318172" lon="3.290258">
        <ele>95</ele>
        <time>1970-01-01T00:44:43.000Z</time>
      </trkpt>
      <trkpt lat="42.318165" lon="3.29028">
        <ele>95</ele>
        <time>1970-01-01T00:44:44.000Z</time>
      </trkpt>
      <trkpt lat="42.318158" lon="3.290302">
        <ele>95</ele>
        <time>1970-01-01T00:44:45.000Z</time>
      </trkpt>
      <trkpt lat="42.318152" lon="3.290323">
        <ele>95</ele>
        <time>1970-01-01T00:44:46.000Z</time>
      </trkpt>
      <trkpt lat="42.318145" lon="3.290345">
        <ele>100</ele>
        <time>1970-01-01T00:44:47.000Z</time>
      </trkpt>
      <trkpt lat="42.318124" lon="3.290388">
        <ele>100</ele>
        <time>1970-01-01T00:44:48.000Z</time>
      </trkpt>
      <trkpt lat="42.318113" lon="3.290408">
        <ele>100</ele>
        <time>1970-01-01T00:44:49.000Z</time>
      </trkpt>
      <trkpt lat="42.318103" lon="3.290428">
        <ele>100</ele>
        <time>1970-01-01T00:44:50.000Z</time>
      </trkpt>
      <trkpt lat="42.318092" lon="3.290448">
        <ele>100</ele>
        <time>1970-01-01T00:44:51.000Z</time>
      </trkpt>
      <trkpt lat="42.318082" lon="3.290468">
        <ele>100</ele>
        <time>1970-01-01T00:44:52.000Z</time>
      </trkpt>
      <trkpt lat="42.318072" lon="3.290487">
        <ele>100</ele>
        <time>1970-01-01T00:44:53.000Z</time>
      </trkpt>
      <trkpt lat="42.318061" lon="3.290507">
        <ele>100</ele>
        <time>1970-01-01T00:44:54.000Z</time>
      </trkpt>
      <trkpt lat="42.318051" lon="3.290527">
        <ele>100</ele>
        <time>1970-01-01T00:44:55.000Z</time>
      </trkpt>
      <trkpt lat="42.31804" lon="3.290547">
        <ele>100</ele>
        <time>1970-01-01T00:44:56.000Z</time>
      </trkpt>
      <trkpt lat="42.31803" lon="3.290567">
        <ele>102</ele>
        <time>1970-01-01T00:44:57.000Z</time>
      </trkpt>
      <trkpt lat="42.318005" lon="3.290608">
        <ele>102</ele>
        <time>1970-01-01T00:44:58.000Z</time>
      </trkpt>
      <trkpt lat="42.317993" lon="3.290628">
        <ele>102</ele>
        <time>1970-01-01T00:44:59.000Z</time>
      </trkpt>
      <trkpt lat="42.317981" lon="3.290648">
        <ele>102</ele>
        <time>1970-01-01T00:45:00.000Z</time>
      </trkpt>
      <trkpt lat="42.317969" lon="3.290668">
        <ele>102</ele>
        <time>1970-01-01T00:45:01.000Z</time>
      </trkpt>
      <trkpt lat="42.317958" lon="3.290688">
        <ele>102</ele>
        <time>1970-01-01T00:45:02.000Z</time>
      </trkpt>
      <trkpt lat="42.317946" lon="3.290707">
        <ele>102</ele>
        <time>1970-01-01T00:45:03.000Z</time>
      </trkpt>
      <trkpt lat="42.317934" lon="3.290727">
        <ele>102</ele>
        <time>1970-01-01T00:45:04.000Z</time>
      </trkpt>
      <trkpt lat="42.317922" lon="3.290747">
        <ele>102</ele>
        <time>1970-01-01T00:45:05.000Z</time>
      </trkpt>
      <trkpt lat="42.31791" lon="3.290767">
        <ele>102</ele>
        <time>1970-01-01T00:45:06.000Z</time>
      </trkpt>
      <trkpt lat="42.317898" lon="3.290787">
        <ele>102</ele>
        <time>1970-01-01T00:45:07.000Z</time>
      </trkpt>
      <trkpt lat="42.317874" lon="3.290832">
        <ele>102</ele>
        <time>1970-01-01T00:45:08.000Z</time>
      </trkpt>
      <trkpt lat="42.317864" lon="3.290854">
        <ele>102</ele>
        <time>1970-01-01T00:45:09.000Z</time>
      </trkpt>
      <trkpt lat="42.317855" lon="3.290877">
        <ele>102</ele>
        <time>1970-01-01T00:45:10.000Z</time>
      </trkpt>
      <trkpt lat="42.317845" lon="3.290899">
        <ele>102</ele>
        <time>1970-01-01T00:45:11.000Z</time>
      </trkpt>
      <trkpt lat="42.317835" lon="3.290922">
        <ele>102</ele>
        <time>1970-01-01T00:45:12.000Z</time>
      </trkpt>
      <trkpt lat="42.317825" lon="3.290944">
        <ele>102</ele>
        <time>1970-01-01T00:45:13.000Z</time>
      </trkpt>
      <trkpt lat="42.317815" lon="3.290967">
        <ele>102</ele>
        <time>1970-01-01T00:45:14.000Z</time>
      </trkpt>
      <trkpt lat="42.317806" lon="3.290989">
        <ele>102</ele>
        <time>1970-01-01T00:45:15.000Z</time>
      </trkpt>
      <trkpt lat="42.317796" lon="3.291012">
        <ele>102</ele>
        <time>1970-01-01T00:45:16.000Z</time>
      </trkpt>
      <trkpt lat="42.317786" lon="3.291034">
        <ele>103</ele>
        <time>1970-01-01T00:45:17.000Z</time>
      </trkpt>
      <trkpt lat="42.317778" lon="3.291083">
        <ele>103</ele>
        <time>1970-01-01T00:45:18.000Z</time>
      </trkpt>
      <trkpt lat="42.317776" lon="3.291106">
        <ele>103</ele>
        <time>1970-01-01T00:45:19.000Z</time>
      </trkpt>
      <trkpt lat="42.317775" lon="3.29113">
        <ele>103</ele>
        <time>1970-01-01T00:45:20.000Z</time>
      </trkpt>
      <trkpt lat="42.317773" lon="3.291153">
        <ele>103</ele>
        <time>1970-01-01T00:45:21.000Z</time>
      </trkpt>
      <trkpt lat="42.317772" lon="3.291176">
        <ele>103</ele>
        <time>1970-01-01T00:45:22.000Z</time>
      </trkpt>
      <trkpt lat="42.317771" lon="3.291199">
        <ele>103</ele>
        <time>1970-01-01T00:45:23.000Z</time>
      </trkpt>
      <trkpt lat="42.317769" lon="3.291222">
        <ele>103</ele>
        <time>1970-01-01T00:45:24.000Z</time>
      </trkpt>
      <trkpt lat="42.317768" lon="3.291246">
        <ele>103</ele>
        <time>1970-01-01T00:45:25.000Z</time>
      </trkpt>
      <trkpt lat="42.317766" lon="3.291269">
        <ele>103</ele>
        <time>1970-01-01T00:45:26.000Z</time>
      </trkpt>
      <trkpt lat="42.317765" lon="3.291292">
        <ele>106</ele>
        <time>1970-01-01T00:45:27.000Z</time>
      </trkpt>
      <trkpt lat="42.317777" lon="3.291343">
        <ele>106</ele>
        <time>1970-01-01T00:45:28.000Z</time>
      </trkpt>
      <trkpt lat="42.317786" lon="3.291367">
        <ele>106</ele>
        <time>1970-01-01T00:45:29.000Z</time>
      </trkpt>
      <trkpt lat="42.317794" lon="3.291392">
        <ele>106</ele>
        <time>1970-01-01T00:45:30.000Z</time>
      </trkpt>
      <trkpt lat="42.317803" lon="3.291416">
        <ele>106</ele>
        <time>1970-01-01T00:45:31.000Z</time>
      </trkpt>
      <trkpt lat="42.317811" lon="3.29144">
        <ele>106</ele>
        <time>1970-01-01T00:45:32.000Z</time>
      </trkpt>
      <trkpt lat="42.317819" lon="3.291464">
        <ele>106</ele>
        <time>1970-01-01T00:45:33.000Z</time>
      </trkpt>
      <trkpt lat="42.317828" lon="3.291488">
        <ele>106</ele>
        <time>1970-01-01T00:45:34.000Z</time>
      </trkpt>
      <trkpt lat="42.317836" lon="3.291513">
        <ele>106</ele>
        <time>1970-01-01T00:45:35.000Z</time>
      </trkpt>
      <trkpt lat="42.317845" lon="3.291537">
        <ele>106</ele>
        <time>1970-01-01T00:45:36.000Z</time>
      </trkpt>
      <trkpt lat="42.317853" lon="3.291561">
        <ele>106</ele>
        <time>1970-01-01T00:45:37.000Z</time>
      </trkpt>
      <trkpt lat="42.317872" lon="3.291615">
        <ele>106</ele>
        <time>1970-01-01T00:45:38.000Z</time>
      </trkpt>
      <trkpt lat="42.317882" lon="3.29164">
        <ele>106</ele>
        <time>1970-01-01T00:45:39.000Z</time>
      </trkpt>
      <trkpt lat="42.317891" lon="3.291664">
        <ele>106</ele>
        <time>1970-01-01T00:45:40.000Z</time>
      </trkpt>
      <trkpt lat="42.317901" lon="3.291689">
        <ele>106</ele>
        <time>1970-01-01T00:45:41.000Z</time>
      </trkpt>
      <trkpt lat="42.31791" lon="3.291714">
        <ele>106</ele>
        <time>1970-01-01T00:45:42.000Z</time>
      </trkpt>
      <trkpt lat="42.317919" lon="3.291739">
        <ele>106</ele>
        <time>1970-01-01T00:45:43.000Z</time>
      </trkpt>
      <trkpt lat="42.317929" lon="3.291764">
        <ele>106</ele>
        <time>1970-01-01T00:45:44.000Z</time>
      </trkpt>
      <trkpt lat="42.317938" lon="3.291788">
        <ele>106</ele>
        <time>1970-01-01T00:45:45.000Z</time>
      </trkpt>
      <trkpt lat="42.317948" lon="3.291813">
        <ele>106</ele>
        <time>1970-01-01T00:45:46.000Z</time>
      </trkpt>
      <trkpt lat="42.317957" lon="3.291838">
        <ele>108</ele>
        <time>1970-01-01T00:45:47.000Z</time>
      </trkpt>
      <trkpt lat="42.317977" lon="3.291887">
        <ele>108</ele>
        <time>1970-01-01T00:45:48.000Z</time>
      </trkpt>
      <trkpt lat="42.317986" lon="3.291911">
        <ele>108</ele>
        <time>1970-01-01T00:45:49.000Z</time>
      </trkpt>
      <trkpt lat="42.317995" lon="3.291934">
        <ele>108</ele>
        <time>1970-01-01T00:45:50.000Z</time>
      </trkpt>
      <trkpt lat="42.318004" lon="3.291958">
        <ele>108</ele>
        <time>1970-01-01T00:45:51.000Z</time>
      </trkpt>
      <trkpt lat="42.318014" lon="3.291981">
        <ele>108</ele>
        <time>1970-01-01T00:45:52.000Z</time>
      </trkpt>
      <trkpt lat="42.318023" lon="3.292004">
        <ele>108</ele>
        <time>1970-01-01T00:45:53.000Z</time>
      </trkpt>
      <trkpt lat="42.318032" lon="3.292028">
        <ele>108</ele>
        <time>1970-01-01T00:45:54.000Z</time>
      </trkpt>
      <trkpt lat="42.318041" lon="3.292051">
        <ele>108</ele>
        <time>1970-01-01T00:45:55.000Z</time>
      </trkpt>
      <trkpt lat="42.31805" lon="3.292075">
        <ele>108</ele>
        <time>1970-01-01T00:45:56.000Z</time>
      </trkpt>
      <trkpt lat="42.318059" lon="3.292098">
        <ele>110</ele>
        <time>1970-01-01T00:45:57.000Z</time>
      </trkpt>
      <trkpt lat="42.318076" lon="3.292147">
        <ele>110</ele>
        <time>1970-01-01T00:45:58.000Z</time>
      </trkpt>
      <trkpt lat="42.318085" lon="3.29217">
        <ele>110</ele>
        <time>1970-01-01T00:45:59.000Z</time>
      </trkpt>
      <trkpt lat="42.318093" lon="3.292194">
        <ele>110</ele>
        <time>1970-01-01T00:46:00.000Z</time>
      </trkpt>
      <trkpt lat="42.318101" lon="3.292217">
        <ele>110</ele>
        <time>1970-01-01T00:46:01.000Z</time>
      </trkpt>
      <trkpt lat="42.31811" lon="3.29224">
        <ele>110</ele>
        <time>1970-01-01T00:46:02.000Z</time>
      </trkpt>
      <trkpt lat="42.318118" lon="3.292263">
        <ele>110</ele>
        <time>1970-01-01T00:46:03.000Z</time>
      </trkpt>
      <trkpt lat="42.318126" lon="3.292286">
        <ele>110</ele>
        <time>1970-01-01T00:46:04.000Z</time>
      </trkpt>
      <trkpt lat="42.318134" lon="3.29231">
        <ele>110</ele>
        <time>1970-01-01T00:46:05.000Z</time>
      </trkpt>
      <trkpt lat="42.318143" lon="3.292333">
        <ele>110</ele>
        <time>1970-01-01T00:46:06.000Z</time>
      </trkpt>
      <trkpt lat="42.318151" lon="3.292356">
        <ele>111</ele>
        <time>1970-01-01T00:46:07.000Z</time>
      </trkpt>
      <trkpt lat="42.318168" lon="3.292404">
        <ele>111</ele>
        <time>1970-01-01T00:46:08.000Z</time>
      </trkpt>
      <trkpt lat="42.318176" lon="3.292427">
        <ele>111</ele>
        <time>1970-01-01T00:46:09.000Z</time>
      </trkpt>
      <trkpt lat="42.318184" lon="3.292449">
        <ele>111</ele>
        <time>1970-01-01T00:46:10.000Z</time>
      </trkpt>
      <trkpt lat="42.318192" lon="3.292472">
        <ele>111</ele>
        <time>1970-01-01T00:46:11.000Z</time>
      </trkpt>
      <trkpt lat="42.3182" lon="3.292495">
        <ele>111</ele>
        <time>1970-01-01T00:46:12.000Z</time>
      </trkpt>
      <trkpt lat="42.318207" lon="3.292518">
        <ele>111</ele>
        <time>1970-01-01T00:46:13.000Z</time>
      </trkpt>
      <trkpt lat="42.318215" lon="3.292541">
        <ele>111</ele>
        <time>1970-01-01T00:46:14.000Z</time>
      </trkpt>
      <trkpt lat="42.318223" lon="3.292563">
        <ele>111</ele>
        <time>1970-01-01T00:46:15.000Z</time>
      </trkpt>
      <trkpt lat="42.318231" lon="3.292586">
        <ele>111</ele>
        <time>1970-01-01T00:46:16.000Z</time>
      </trkpt>
      <trkpt lat="42.318239" lon="3.292609">
        <ele>114</ele>
        <time>1970-01-01T00:46:17.000Z</time>
      </trkpt>
      <trkpt lat="42.318255" lon="3.292658">
        <ele>114</ele>
        <time>1970-01-01T00:46:18.000Z</time>
      </trkpt>
      <trkpt lat="42.318263" lon="3.292681">
        <ele>114</ele>
        <time>1970-01-01T00:46:19.000Z</time>
      </trkpt>
      <trkpt lat="42.31827" lon="3.292703">
        <ele>114</ele>
        <time>1970-01-01T00:46:20.000Z</time>
      </trkpt>
      <trkpt lat="42.318278" lon="3.292726">
        <ele>114</ele>
        <time>1970-01-01T00:46:21.000Z</time>
      </trkpt>
      <trkpt lat="42.318286" lon="3.292749">
        <ele>114</ele>
        <time>1970-01-01T00:46:22.000Z</time>
      </trkpt>
      <trkpt lat="42.318294" lon="3.292772">
        <ele>114</ele>
        <time>1970-01-01T00:46:23.000Z</time>
      </trkpt>
      <trkpt lat="42.318302" lon="3.292795">
        <ele>114</ele>
        <time>1970-01-01T00:46:24.000Z</time>
      </trkpt>
      <trkpt lat="42.318309" lon="3.292817">
        <ele>114</ele>
        <time>1970-01-01T00:46:25.000Z</time>
      </trkpt>
      <trkpt lat="42.318317" lon="3.29284">
        <ele>114</ele>
        <time>1970-01-01T00:46:26.000Z</time>
      </trkpt>
      <trkpt lat="42.318325" lon="3.292863">
        <ele>115</ele>
        <time>1970-01-01T00:46:27.000Z</time>
      </trkpt>
      <trkpt lat="42.318343" lon="3.292909">
        <ele>115</ele>
        <time>1970-01-01T00:46:28.000Z</time>
      </trkpt>
      <trkpt lat="42.318353" lon="3.292929">
        <ele>115</ele>
        <time>1970-01-01T00:46:29.000Z</time>
      </trkpt>
      <trkpt lat="42.318363" lon="3.292949">
        <ele>115</ele>
        <time>1970-01-01T00:46:30.000Z</time>
      </trkpt>
      <trkpt lat="42.318373" lon="3.292969">
        <ele>115</ele>
        <time>1970-01-01T00:46:31.000Z</time>
      </trkpt>
      <trkpt lat="42.318384" lon="3.29299">
        <ele>115</ele>
        <time>1970-01-01T00:46:32.000Z</time>
      </trkpt>
      <trkpt lat="42.318394" lon="3.29301">
        <ele>115</ele>
        <time>1970-01-01T00:46:33.000Z</time>
      </trkpt>
      <trkpt lat="42.318404" lon="3.29303">
        <ele>115</ele>
        <time>1970-01-01T00:46:34.000Z</time>
      </trkpt>
      <trkpt lat="42.318414" lon="3.29305">
        <ele>115</ele>
        <time>1970-01-01T00:46:36.000Z</time>
      </trkpt>
      <trkpt lat="42.318424" lon="3.29307">
        <ele>116</ele>
        <time>1970-01-01T00:46:37.000Z</time>
      </trkpt>
      <trkpt lat="42.318447" lon="3.293108">
        <ele>116</ele>
        <time>1970-01-01T00:46:38.000Z</time>
      </trkpt>
      <trkpt lat="42.318462" lon="3.293127">
        <ele>116</ele>
        <time>1970-01-01T00:46:39.000Z</time>
      </trkpt>
      <trkpt lat="42.318477" lon="3.293145">
        <ele>116</ele>
        <time>1970-01-01T00:46:40.000Z</time>
      </trkpt>
      <trkpt lat="42.318492" lon="3.293163">
        <ele>116</ele>
        <time>1970-01-01T00:46:42.000Z</time>
      </trkpt>
      <trkpt lat="42.318507" lon="3.293181">
        <ele>116</ele>
        <time>1970-01-01T00:46:44.000Z</time>
      </trkpt>
      <trkpt lat="42.318522" lon="3.2932">
        <ele>116</ele>
        <time>1970-01-01T00:46:46.000Z</time>
      </trkpt>
      <trkpt lat="42.318537" lon="3.293218">
        <ele>116</ele>
        <time>1970-01-01T00:46:47.000Z</time>
      </trkpt>
      <trkpt lat="42.318573" lon="3.293235">
        <ele>116</ele>
        <time>1970-01-01T00:46:48.000Z</time>
      </trkpt>
      <trkpt lat="42.318595" lon="3.293242">
        <ele>116</ele>
        <time>1970-01-01T00:46:50.000Z</time>
      </trkpt>
      <trkpt lat="42.318618" lon="3.293249">
        <ele>116</ele>
        <time>1970-01-01T00:46:52.000Z</time>
      </trkpt>
      <trkpt lat="42.31864" lon="3.293256">
        <ele>116</ele>
        <time>1970-01-01T00:46:54.000Z</time>
      </trkpt>
      <trkpt lat="42.318662" lon="3.293263">
        <ele>116</ele>
        <time>1970-01-01T00:46:56.000Z</time>
      </trkpt>
      <trkpt lat="42.318684" lon="3.29327">
        <ele>115</ele>
        <time>1970-01-01T00:46:57.000Z</time>
      </trkpt>
      <trkpt lat="42.318734" lon="3.293268">
        <ele>115</ele>
        <time>1970-01-01T00:46:58.000Z</time>
      </trkpt>
      <trkpt lat="42.318766" lon="3.293263">
        <ele>115</ele>
        <time>1970-01-01T00:46:59.000Z</time>
      </trkpt>
      <trkpt lat="42.318797" lon="3.293259">
        <ele>115</ele>
        <time>1970-01-01T00:47:00.000Z</time>
      </trkpt>
      <trkpt lat="42.318828" lon="3.293255">
        <ele>115</ele>
        <time>1970-01-01T00:47:01.000Z</time>
      </trkpt>
      <trkpt lat="42.31886" lon="3.293251">
        <ele>115</ele>
        <time>1970-01-01T00:47:02.000Z</time>
      </trkpt>
      <trkpt lat="42.318891" lon="3.293246">
        <ele>115</ele>
        <time>1970-01-01T00:47:03.000Z</time>
      </trkpt>
      <trkpt lat="42.318922" lon="3.293242">
        <ele>115</ele>
        <time>1970-01-01T00:47:04.000Z</time>
      </trkpt>
      <trkpt lat="42.318953" lon="3.293238">
        <ele>115</ele>
        <time>1970-01-01T00:47:05.000Z</time>
      </trkpt>
      <trkpt lat="42.318985" lon="3.293233">
        <ele>115</ele>
        <time>1970-01-01T00:47:06.000Z</time>
      </trkpt>
      <trkpt lat="42.319016" lon="3.293229">
        <ele>115</ele>
        <time>1970-01-01T00:47:07.000Z</time>
      </trkpt>
      <trkpt lat="42.319106" lon="3.293233">
        <ele>115</ele>
        <time>1970-01-01T00:47:08.000Z</time>
      </trkpt>
      <trkpt lat="42.31915" lon="3.293244">
        <ele>115</ele>
        <time>1970-01-01T00:47:09.000Z</time>
      </trkpt>
      <trkpt lat="42.319195" lon="3.293255">
        <ele>115</ele>
        <time>1970-01-01T00:47:10.000Z</time>
      </trkpt>
      <trkpt lat="42.31924" lon="3.293266">
        <ele>115</ele>
        <time>1970-01-01T00:47:11.000Z</time>
      </trkpt>
      <trkpt lat="42.319285" lon="3.293276">
        <ele>115</ele>
        <time>1970-01-01T00:47:12.000Z</time>
      </trkpt>
      <trkpt lat="42.319329" lon="3.293287">
        <ele>115</ele>
        <time>1970-01-01T00:47:13.000Z</time>
      </trkpt>
      <trkpt lat="42.319374" lon="3.293298">
        <ele>115</ele>
        <time>1970-01-01T00:47:14.000Z</time>
      </trkpt>
      <trkpt lat="42.319419" lon="3.293309">
        <ele>115</ele>
        <time>1970-01-01T00:47:15.000Z</time>
      </trkpt>
      <trkpt lat="42.319463" lon="3.29332">
        <ele>115</ele>
        <time>1970-01-01T00:47:16.000Z</time>
      </trkpt>
      <trkpt lat="42.319508" lon="3.293331">
        <ele>109</ele>
        <time>1970-01-01T00:47:17.000Z</time>
      </trkpt>
      <trkpt lat="42.319576" lon="3.29342">
        <ele>109</ele>
        <time>1970-01-01T00:47:18.000Z</time>
      </trkpt>
      <trkpt lat="42.319602" lon="3.293467">
        <ele>109</ele>
        <time>1970-01-01T00:47:19.000Z</time>
      </trkpt>
      <trkpt lat="42.319627" lon="3.293513">
        <ele>109</ele>
        <time>1970-01-01T00:47:20.000Z</time>
      </trkpt>
      <trkpt lat="42.319653" lon="3.29356">
        <ele>109</ele>
        <time>1970-01-01T00:47:21.000Z</time>
      </trkpt>
      <trkpt lat="42.319678" lon="3.293606">
        <ele>109</ele>
        <time>1970-01-01T00:47:22.000Z</time>
      </trkpt>
      <trkpt lat="42.319703" lon="3.293652">
        <ele>109</ele>
        <time>1970-01-01T00:47:23.000Z</time>
      </trkpt>
      <trkpt lat="42.319729" lon="3.293699">
        <ele>109</ele>
        <time>1970-01-01T00:47:24.000Z</time>
      </trkpt>
      <trkpt lat="42.319754" lon="3.293745">
        <ele>109</ele>
        <time>1970-01-01T00:47:25.000Z</time>
      </trkpt>
      <trkpt lat="42.31978" lon="3.293792">
        <ele>109</ele>
        <time>1970-01-01T00:47:26.000Z</time>
      </trkpt>
      <trkpt lat="42.319805" lon="3.293838">
        <ele>107</ele>
        <time>1970-01-01T00:47:27.000Z</time>
      </trkpt>
      <trkpt lat="42.31984" lon="3.293971">
        <ele>107</ele>
        <time>1970-01-01T00:47:28.000Z</time>
      </trkpt>
      <trkpt lat="42.319856" lon="3.294037">
        <ele>107</ele>
        <time>1970-01-01T00:47:29.000Z</time>
      </trkpt>
      <trkpt lat="42.319873" lon="3.294102">
        <ele>107</ele>
        <time>1970-01-01T00:47:30.000Z</time>
      </trkpt>
      <trkpt lat="42.319889" lon="3.294167">
        <ele>107</ele>
        <time>1970-01-01T00:47:31.000Z</time>
      </trkpt>
      <trkpt lat="42.319906" lon="3.294232">
        <ele>107</ele>
        <time>1970-01-01T00:47:32.000Z</time>
      </trkpt>
      <trkpt lat="42.319923" lon="3.294298">
        <ele>107</ele>
        <time>1970-01-01T00:47:33.000Z</time>
      </trkpt>
      <trkpt lat="42.319939" lon="3.294363">
        <ele>107</ele>
        <time>1970-01-01T00:47:34.000Z</time>
      </trkpt>
      <trkpt lat="42.319956" lon="3.294428">
        <ele>107</ele>
        <time>1970-01-01T00:47:35.000Z</time>
      </trkpt>
      <trkpt lat="42.319972" lon="3.294494">
        <ele>107</ele>
        <time>1970-01-01T00:47:36.000Z</time>
      </trkpt>
      <trkpt lat="42.319989" lon="3.294559">
        <ele>107</ele>
        <time>1970-01-01T00:47:37.000Z</time>
      </trkpt>
      <trkpt lat="42.32006" lon="3.294664">
        <ele>107</ele>
        <time>1970-01-01T00:47:38.000Z</time>
      </trkpt>
      <trkpt lat="42.3201" lon="3.2947">
        <ele>107</ele>
        <time>1970-01-01T00:47:39.000Z</time>
      </trkpt>
      <trkpt lat="42.320141" lon="3.294737">
        <ele>107</ele>
        <time>1970-01-01T00:47:40.000Z</time>
      </trkpt>
      <trkpt lat="42.320181" lon="3.294773">
        <ele>107</ele>
        <time>1970-01-01T00:47:41.000Z</time>
      </trkpt>
      <trkpt lat="42.320222" lon="3.294809">
        <ele>107</ele>
        <time>1970-01-01T00:47:42.000Z</time>
      </trkpt>
      <trkpt lat="42.320262" lon="3.294845">
        <ele>107</ele>
        <time>1970-01-01T00:47:43.000Z</time>
      </trkpt>
      <trkpt lat="42.320303" lon="3.294881">
        <ele>107</ele>
        <time>1970-01-01T00:47:44.000Z</time>
      </trkpt>
      <trkpt lat="42.320343" lon="3.294918">
        <ele>107</ele>
        <time>1970-01-01T00:47:45.000Z</time>
      </trkpt>
      <trkpt lat="42.320384" lon="3.294954">
        <ele>107</ele>
        <time>1970-01-01T00:47:46.000Z</time>
      </trkpt>
      <trkpt lat="42.320424" lon="3.29499">
        <ele>106</ele>
        <time>1970-01-01T00:47:47.000Z</time>
      </trkpt>
      <trkpt lat="42.320525" lon="3.295021">
        <ele>106</ele>
        <time>1970-01-01T00:47:48.000Z</time>
      </trkpt>
      <trkpt lat="42.320578" lon="3.295022">
        <ele>106</ele>
        <time>1970-01-01T00:47:49.000Z</time>
      </trkpt>
      <trkpt lat="42.32063" lon="3.295024">
        <ele>106</ele>
        <time>1970-01-01T00:47:50.000Z</time>
      </trkpt>
      <trkpt lat="42.320683" lon="3.295025">
        <ele>106</ele>
        <time>1970-01-01T00:47:51.000Z</time>
      </trkpt>
      <trkpt lat="42.320735" lon="3.295027">
        <ele>106</ele>
        <time>1970-01-01T00:47:52.000Z</time>
      </trkpt>
      <trkpt lat="42.320787" lon="3.295029">
        <ele>106</ele>
        <time>1970-01-01T00:47:53.000Z</time>
      </trkpt>
      <trkpt lat="42.32084" lon="3.29503">
        <ele>106</ele>
        <time>1970-01-01T00:47:54.000Z</time>
      </trkpt>
      <trkpt lat="42.320892" lon="3.295032">
        <ele>106</ele>
        <time>1970-01-01T00:47:55.000Z</time>
      </trkpt>
      <trkpt lat="42.320945" lon="3.295033">
        <ele>106</ele>
        <time>1970-01-01T00:47:56.000Z</time>
      </trkpt>
      <trkpt lat="42.320997" lon="3.295035">
        <ele>104</ele>
        <time>1970-01-01T00:47:57.000Z</time>
      </trkpt>
      <trkpt lat="42.321108" lon="3.295023">
        <ele>104</ele>
        <time>1970-01-01T00:47:58.000Z</time>
      </trkpt>
      <trkpt lat="42.321157" lon="3.29504">
        <ele>104</ele>
        <time>1970-01-01T00:47:59.000Z</time>
      </trkpt>
      <trkpt lat="42.321205" lon="3.295057">
        <ele>104</ele>
        <time>1970-01-01T00:48:00.000Z</time>
      </trkpt>
      <trkpt lat="42.321253" lon="3.295074">
        <ele>104</ele>
        <time>1970-01-01T00:48:01.000Z</time>
      </trkpt>
      <trkpt lat="42.321302" lon="3.295091">
        <ele>104</ele>
        <time>1970-01-01T00:48:02.000Z</time>
      </trkpt>
      <trkpt lat="42.32135" lon="3.295107">
        <ele>104</ele>
        <time>1970-01-01T00:48:03.000Z</time>
      </trkpt>
      <trkpt lat="42.321399" lon="3.295124">
        <ele>104</ele>
        <time>1970-01-01T00:48:04.000Z</time>
      </trkpt>
      <trkpt lat="42.321447" lon="3.295141">
        <ele>104</ele>
        <time>1970-01-01T00:48:05.000Z</time>
      </trkpt>
      <trkpt lat="42.321495" lon="3.295158">
        <ele>104</ele>
        <time>1970-01-01T00:48:06.000Z</time>
      </trkpt>
      <trkpt lat="42.321544" lon="3.295175">
        <ele>104</ele>
        <time>1970-01-01T00:48:07.000Z</time>
      </trkpt>
      <trkpt lat="42.321592" lon="3.295192">
        <ele>100</ele>
        <time>1970-01-01T00:48:08.000Z</time>
      </trkpt>
      <trkpt lat="42.321616" lon="3.295332">
        <ele>100</ele>
        <time>1970-01-01T00:48:09.000Z</time>
      </trkpt>
      <trkpt lat="42.32162" lon="3.295408">
        <ele>100</ele>
        <time>1970-01-01T00:48:10.000Z</time>
      </trkpt>
      <trkpt lat="42.321623" lon="3.295485">
        <ele>100</ele>
        <time>1970-01-01T00:48:11.000Z</time>
      </trkpt>
      <trkpt lat="42.321627" lon="3.295561">
        <ele>100</ele>
        <time>1970-01-01T00:48:12.000Z</time>
      </trkpt>
      <trkpt lat="42.321631" lon="3.295638">
        <ele>100</ele>
        <time>1970-01-01T00:48:13.000Z</time>
      </trkpt>
      <trkpt lat="42.321635" lon="3.295714">
        <ele>100</ele>
        <time>1970-01-01T00:48:14.000Z</time>
      </trkpt>
      <trkpt lat="42.321638" lon="3.295791">
        <ele>100</ele>
        <time>1970-01-01T00:48:15.000Z</time>
      </trkpt>
      <trkpt lat="42.321642" lon="3.295867">
        <ele>100</ele>
        <time>1970-01-01T00:48:16.000Z</time>
      </trkpt>
      <trkpt lat="42.321646" lon="3.295944">
        <ele>86</ele>
        <time>1970-01-01T00:48:17.000Z</time>
      </trkpt>
      <trkpt lat="42.32163" lon="3.29609">
        <ele>86</ele>
        <time>1970-01-01T00:48:18.000Z</time>
      </trkpt>
      <trkpt lat="42.321611" lon="3.296158">
        <ele>86</ele>
        <time>1970-01-01T00:48:19.000Z</time>
      </trkpt>
      <trkpt lat="42.321593" lon="3.296226">
        <ele>86</ele>
        <time>1970-01-01T00:48:20.000Z</time>
      </trkpt>
      <trkpt lat="42.321574" lon="3.296294">
        <ele>86</ele>
        <time>1970-01-01T00:48:21.000Z</time>
      </trkpt>
      <trkpt lat="42.321556" lon="3.296363">
        <ele>86</ele>
        <time>1970-01-01T00:48:22.000Z</time>
      </trkpt>
      <trkpt lat="42.321537" lon="3.296431">
        <ele>86</ele>
        <time>1970-01-01T00:48:23.000Z</time>
      </trkpt>
      <trkpt lat="42.321519" lon="3.296499">
        <ele>86</ele>
        <time>1970-01-01T00:48:24.000Z</time>
      </trkpt>
      <trkpt lat="42.3215" lon="3.296567">
        <ele>86</ele>
        <time>1970-01-01T00:48:25.000Z</time>
      </trkpt>
      <trkpt lat="42.321482" lon="3.296635">
        <ele>86</ele>
        <time>1970-01-01T00:48:26.000Z</time>
      </trkpt>
      <trkpt lat="42.321463" lon="3.296703">
        <ele>82</ele>
        <time>1970-01-01T00:48:27.000Z</time>
      </trkpt>
      <trkpt lat="42.321422" lon="3.296858">
        <ele>82</ele>
        <time>1970-01-01T00:48:28.000Z</time>
      </trkpt>
      <trkpt lat="42.321404" lon="3.296933">
        <ele>82</ele>
        <time>1970-01-01T00:48:29.000Z</time>
      </trkpt>
      <trkpt lat="42.321387" lon="3.297009">
        <ele>82</ele>
        <time>1970-01-01T00:48:30.000Z</time>
      </trkpt>
      <trkpt lat="42.321369" lon="3.297084">
        <ele>82</ele>
        <time>1970-01-01T00:48:31.000Z</time>
      </trkpt>
      <trkpt lat="42.321352" lon="3.297159">
        <ele>82</ele>
        <time>1970-01-01T00:48:32.000Z</time>
      </trkpt>
      <trkpt lat="42.321335" lon="3.297234">
        <ele>82</ele>
        <time>1970-01-01T00:48:33.000Z</time>
      </trkpt>
      <trkpt lat="42.321317" lon="3.297309">
        <ele>82</ele>
        <time>1970-01-01T00:48:34.000Z</time>
      </trkpt>
      <trkpt lat="42.3213" lon="3.297385">
        <ele>82</ele>
        <time>1970-01-01T00:48:35.000Z</time>
      </trkpt>
      <trkpt lat="42.321282" lon="3.29746">
        <ele>82</ele>
        <time>1970-01-01T00:48:36.000Z</time>
      </trkpt>
      <trkpt lat="42.321265" lon="3.297535">
        <ele>75</ele>
        <time>1970-01-01T00:48:37.000Z</time>
      </trkpt>
      <trkpt lat="42.321211" lon="3.29764">
        <ele>75</ele>
        <time>1970-01-01T00:48:38.000Z</time>
      </trkpt>
      <trkpt lat="42.321185" lon="3.297676">
        <ele>75</ele>
        <time>1970-01-01T00:48:39.000Z</time>
      </trkpt>
      <trkpt lat="42.32116" lon="3.297711">
        <ele>75</ele>
        <time>1970-01-01T00:48:40.000Z</time>
      </trkpt>
      <trkpt lat="42.321135" lon="3.297747">
        <ele>75</ele>
        <time>1970-01-01T00:48:41.000Z</time>
      </trkpt>
      <trkpt lat="42.32111" lon="3.297783">
        <ele>75</ele>
        <time>1970-01-01T00:48:42.000Z</time>
      </trkpt>
      <trkpt lat="42.321084" lon="3.297819">
        <ele>75</ele>
        <time>1970-01-01T00:48:43.000Z</time>
      </trkpt>
      <trkpt lat="42.321059" lon="3.297855">
        <ele>75</ele>
        <time>1970-01-01T00:48:44.000Z</time>
      </trkpt>
      <trkpt lat="42.321034" lon="3.29789">
        <ele>75</ele>
        <time>1970-01-01T00:48:45.000Z</time>
      </trkpt>
      <trkpt lat="42.321008" lon="3.297926">
        <ele>75</ele>
        <time>1970-01-01T00:48:46.000Z</time>
      </trkpt>
      <trkpt lat="42.320983" lon="3.297962">
        <ele>75</ele>
        <time>1970-01-01T00:48:47.000Z</time>
      </trkpt>
      <trkpt lat="42.320934" lon="3.298026">
        <ele>75</ele>
        <time>1970-01-01T00:48:48.000Z</time>
      </trkpt>
      <trkpt lat="42.320908" lon="3.298057">
        <ele>75</ele>
        <time>1970-01-01T00:48:49.000Z</time>
      </trkpt>
      <trkpt lat="42.320883" lon="3.298088">
        <ele>75</ele>
        <time>1970-01-01T00:48:50.000Z</time>
      </trkpt>
      <trkpt lat="42.320858" lon="3.298119">
        <ele>75</ele>
        <time>1970-01-01T00:48:51.000Z</time>
      </trkpt>
      <trkpt lat="42.320833" lon="3.29815">
        <ele>75</ele>
        <time>1970-01-01T00:48:52.000Z</time>
      </trkpt>
      <trkpt lat="42.320807" lon="3.29818">
        <ele>75</ele>
        <time>1970-01-01T00:48:53.000Z</time>
      </trkpt>
      <trkpt lat="42.320782" lon="3.298211">
        <ele>75</ele>
        <time>1970-01-01T00:48:54.000Z</time>
      </trkpt>
      <trkpt lat="42.320757" lon="3.298242">
        <ele>75</ele>
        <time>1970-01-01T00:48:55.000Z</time>
      </trkpt>
      <trkpt lat="42.320731" lon="3.298273">
        <ele>75</ele>
        <time>1970-01-01T00:48:56.000Z</time>
      </trkpt>
      <trkpt lat="42.320706" lon="3.298304">
        <ele>75</ele>
        <time>1970-01-01T00:48:57.000Z</time>
      </trkpt>
      <trkpt lat="42.320646" lon="3.29838">
        <ele>75</ele>
        <time>1970-01-01T00:48:58.000Z</time>
      </trkpt>
      <trkpt lat="42.320619" lon="3.298415">
        <ele>75</ele>
        <time>1970-01-01T00:48:59.000Z</time>
      </trkpt>
      <trkpt lat="42.320591" lon="3.298451">
        <ele>75</ele>
        <time>1970-01-01T00:49:00.000Z</time>
      </trkpt>
      <trkpt lat="42.320564" lon="3.298486">
        <ele>75</ele>
        <time>1970-01-01T00:49:01.000Z</time>
      </trkpt>
      <trkpt lat="42.320536" lon="3.298522">
        <ele>75</ele>
        <time>1970-01-01T00:49:02.000Z</time>
      </trkpt>
      <trkpt lat="42.320508" lon="3.298557">
        <ele>75</ele>
        <time>1970-01-01T00:49:03.000Z</time>
      </trkpt>
      <trkpt lat="42.320481" lon="3.298593">
        <ele>75</ele>
        <time>1970-01-01T00:49:04.000Z</time>
      </trkpt>
      <trkpt lat="42.320453" lon="3.298628">
        <ele>75</ele>
        <time>1970-01-01T00:49:05.000Z</time>
      </trkpt>
      <trkpt lat="42.320426" lon="3.298664">
        <ele>75</ele>
        <time>1970-01-01T00:49:06.000Z</time>
      </trkpt>
      <trkpt lat="42.320398" lon="3.298699">
        <ele>75</ele>
        <time>1970-01-01T00:49:07.000Z</time>
      </trkpt>
      <trkpt lat="42.320345" lon="3.298789">
        <ele>75</ele>
        <time>1970-01-01T00:49:08.000Z</time>
      </trkpt>
      <trkpt lat="42.320323" lon="3.29884">
        <ele>75</ele>
        <time>1970-01-01T00:49:09.000Z</time>
      </trkpt>
      <trkpt lat="42.3203" lon="3.29889">
        <ele>75</ele>
        <time>1970-01-01T00:49:10.000Z</time>
      </trkpt>
      <trkpt lat="42.320278" lon="3.29894">
        <ele>75</ele>
        <time>1970-01-01T00:49:11.000Z</time>
      </trkpt>
      <trkpt lat="42.320256" lon="3.298991">
        <ele>75</ele>
        <time>1970-01-01T00:49:12.000Z</time>
      </trkpt>
      <trkpt lat="42.320234" lon="3.299041">
        <ele>75</ele>
        <time>1970-01-01T00:49:13.000Z</time>
      </trkpt>
      <trkpt lat="42.320212" lon="3.299091">
        <ele>75</ele>
        <time>1970-01-01T00:49:14.000Z</time>
      </trkpt>
      <trkpt lat="42.320189" lon="3.299141">
        <ele>75</ele>
        <time>1970-01-01T00:49:15.000Z</time>
      </trkpt>
      <trkpt lat="42.320167" lon="3.299192">
        <ele>75</ele>
        <time>1970-01-01T00:49:16.000Z</time>
      </trkpt>
      <trkpt lat="42.320145" lon="3.299242">
        <ele>74</ele>
        <time>1970-01-01T00:49:17.000Z</time>
      </trkpt>
      <trkpt lat="42.320104" lon="3.299367">
        <ele>74</ele>
        <time>1970-01-01T00:49:18.000Z</time>
      </trkpt>
      <trkpt lat="42.320085" lon="3.299427">
        <ele>74</ele>
        <time>1970-01-01T00:49:19.000Z</time>
      </trkpt>
      <trkpt lat="42.320066" lon="3.299488">
        <ele>74</ele>
        <time>1970-01-01T00:49:20.000Z</time>
      </trkpt>
      <trkpt lat="42.320047" lon="3.299548">
        <ele>74</ele>
        <time>1970-01-01T00:49:21.000Z</time>
      </trkpt>
      <trkpt lat="42.320028" lon="3.299609">
        <ele>74</ele>
        <time>1970-01-01T00:49:22.000Z</time>
      </trkpt>
      <trkpt lat="42.320009" lon="3.29967">
        <ele>74</ele>
        <time>1970-01-01T00:49:23.000Z</time>
      </trkpt>
      <trkpt lat="42.31999" lon="3.29973">
        <ele>74</ele>
        <time>1970-01-01T00:49:24.000Z</time>
      </trkpt>
      <trkpt lat="42.319971" lon="3.299791">
        <ele>74</ele>
        <time>1970-01-01T00:49:25.000Z</time>
      </trkpt>
      <trkpt lat="42.319952" lon="3.299851">
        <ele>74</ele>
        <time>1970-01-01T00:49:26.000Z</time>
      </trkpt>
      <trkpt lat="42.319933" lon="3.299912">
        <ele>74</ele>
        <time>1970-01-01T00:49:27.000Z</time>
      </trkpt>
      <trkpt lat="42.319887" lon="3.300035">
        <ele>74</ele>
        <time>1970-01-01T00:49:28.000Z</time>
      </trkpt>
      <trkpt lat="42.319865" lon="3.300095">
        <ele>74</ele>
        <time>1970-01-01T00:49:29.000Z</time>
      </trkpt>
      <trkpt lat="42.319844" lon="3.300154">
        <ele>74</ele>
        <time>1970-01-01T00:49:30.000Z</time>
      </trkpt>
      <trkpt lat="42.319823" lon="3.300214">
        <ele>74</ele>
        <time>1970-01-01T00:49:31.000Z</time>
      </trkpt>
      <trkpt lat="42.319802" lon="3.300274">
        <ele>74</ele>
        <time>1970-01-01T00:49:32.000Z</time>
      </trkpt>
      <trkpt lat="42.31978" lon="3.300334">
        <ele>74</ele>
        <time>1970-01-01T00:49:33.000Z</time>
      </trkpt>
      <trkpt lat="42.319759" lon="3.300394">
        <ele>74</ele>
        <time>1970-01-01T00:49:34.000Z</time>
      </trkpt>
      <trkpt lat="42.319738" lon="3.300453">
        <ele>74</ele>
        <time>1970-01-01T00:49:35.000Z</time>
      </trkpt>
      <trkpt lat="42.319716" lon="3.300513">
        <ele>74</ele>
        <time>1970-01-01T00:49:36.000Z</time>
      </trkpt>
      <trkpt lat="42.319695" lon="3.300573">
        <ele>74</ele>
        <time>1970-01-01T00:49:37.000Z</time>
      </trkpt>
      <trkpt lat="42.319645" lon="3.300684">
        <ele>74</ele>
        <time>1970-01-01T00:49:38.000Z</time>
      </trkpt>
      <trkpt lat="42.319622" lon="3.300732">
        <ele>74</ele>
        <time>1970-01-01T00:49:39.000Z</time>
      </trkpt>
      <trkpt lat="42.319599" lon="3.30078">
        <ele>74</ele>
        <time>1970-01-01T00:49:40.000Z</time>
      </trkpt>
      <trkpt lat="42.319576" lon="3.300828">
        <ele>74</ele>
        <time>1970-01-01T00:49:41.000Z</time>
      </trkpt>
      <trkpt lat="42.319553" lon="3.300877">
        <ele>74</ele>
        <time>1970-01-01T00:49:42.000Z</time>
      </trkpt>
      <trkpt lat="42.31953" lon="3.300925">
        <ele>74</ele>
        <time>1970-01-01T00:49:43.000Z</time>
      </trkpt>
      <trkpt lat="42.319507" lon="3.300973">
        <ele>74</ele>
        <time>1970-01-01T00:49:44.000Z</time>
      </trkpt>
      <trkpt lat="42.319484" lon="3.301021">
        <ele>74</ele>
        <time>1970-01-01T00:49:45.000Z</time>
      </trkpt>
      <trkpt lat="42.319461" lon="3.301069">
        <ele>74</ele>
        <time>1970-01-01T00:49:46.000Z</time>
      </trkpt>
      <trkpt lat="42.319438" lon="3.301117">
        <ele>72</ele>
        <time>1970-01-01T00:49:47.000Z</time>
      </trkpt>
      <trkpt lat="42.319395" lon="3.301196">
        <ele>72</ele>
        <time>1970-01-01T00:49:48.000Z</time>
      </trkpt>
      <trkpt lat="42.319375" lon="3.30123">
        <ele>72</ele>
        <time>1970-01-01T00:49:49.000Z</time>
      </trkpt>
      <trkpt lat="42.319355" lon="3.301264">
        <ele>72</ele>
        <time>1970-01-01T00:49:50.000Z</time>
      </trkpt>
      <trkpt lat="42.319335" lon="3.301298">
        <ele>72</ele>
        <time>1970-01-01T00:49:51.000Z</time>
      </trkpt>
      <trkpt lat="42.319316" lon="3.301332">
        <ele>72</ele>
        <time>1970-01-01T00:49:52.000Z</time>
      </trkpt>
      <trkpt lat="42.319296" lon="3.301366">
        <ele>72</ele>
        <time>1970-01-01T00:49:53.000Z</time>
      </trkpt>
      <trkpt lat="42.319276" lon="3.3014">
        <ele>72</ele>
        <time>1970-01-01T00:49:54.000Z</time>
      </trkpt>
      <trkpt lat="42.319256" lon="3.301434">
        <ele>72</ele>
        <time>1970-01-01T00:49:55.000Z</time>
      </trkpt>
      <trkpt lat="42.319236" lon="3.301468">
        <ele>72</ele>
        <time>1970-01-01T00:49:56.000Z</time>
      </trkpt>
      <trkpt lat="42.319216" lon="3.301502">
        <ele>71</ele>
        <time>1970-01-01T00:49:57.000Z</time>
      </trkpt>
      <trkpt lat="42.319179" lon="3.301566">
        <ele>71</ele>
        <time>1970-01-01T00:49:58.000Z</time>
      </trkpt>
      <trkpt lat="42.319162" lon="3.301595">
        <ele>71</ele>
        <time>1970-01-01T00:49:59.000Z</time>
      </trkpt>
      <trkpt lat="42.319146" lon="3.301625">
        <ele>71</ele>
        <time>1970-01-01T00:50:00.000Z</time>
      </trkpt>
      <trkpt lat="42.319129" lon="3.301654">
        <ele>71</ele>
        <time>1970-01-01T00:50:01.000Z</time>
      </trkpt>
      <trkpt lat="42.319113" lon="3.301684">
        <ele>71</ele>
        <time>1970-01-01T00:50:02.000Z</time>
      </trkpt>
      <trkpt lat="42.319097" lon="3.301714">
        <ele>71</ele>
        <time>1970-01-01T00:50:03.000Z</time>
      </trkpt>
      <trkpt lat="42.31908" lon="3.301743">
        <ele>71</ele>
        <time>1970-01-01T00:50:04.000Z</time>
      </trkpt>
      <trkpt lat="42.319064" lon="3.301773">
        <ele>71</ele>
        <time>1970-01-01T00:50:05.000Z</time>
      </trkpt>
      <trkpt lat="42.319047" lon="3.301802">
        <ele>71</ele>
        <time>1970-01-01T00:50:06.000Z</time>
      </trkpt>
      <trkpt lat="42.319031" lon="3.301832">
        <ele>71</ele>
        <time>1970-01-01T00:50:07.000Z</time>
      </trkpt>
      <trkpt lat="42.318999" lon="3.301907">
        <ele>71</ele>
        <time>1970-01-01T00:50:08.000Z</time>
      </trkpt>
      <trkpt lat="42.318985" lon="3.301944">
        <ele>71</ele>
        <time>1970-01-01T00:50:09.000Z</time>
      </trkpt>
      <trkpt lat="42.318972" lon="3.301981">
        <ele>71</ele>
        <time>1970-01-01T00:50:10.000Z</time>
      </trkpt>
      <trkpt lat="42.318958" lon="3.302018">
        <ele>71</ele>
        <time>1970-01-01T00:50:11.000Z</time>
      </trkpt>
      <trkpt lat="42.318945" lon="3.302055">
        <ele>71</ele>
        <time>1970-01-01T00:50:12.000Z</time>
      </trkpt>
      <trkpt lat="42.318932" lon="3.302092">
        <ele>71</ele>
        <time>1970-01-01T00:50:13.000Z</time>
      </trkpt>
      <trkpt lat="42.318918" lon="3.302129">
        <ele>71</ele>
        <time>1970-01-01T00:50:14.000Z</time>
      </trkpt>
      <trkpt lat="42.318905" lon="3.302166">
        <ele>71</ele>
        <time>1970-01-01T00:50:15.000Z</time>
      </trkpt>
      <trkpt lat="42.318891" lon="3.302203">
        <ele>71</ele>
        <time>1970-01-01T00:50:16.000Z</time>
      </trkpt>
      <trkpt lat="42.318878" lon="3.30224">
        <ele>72</ele>
        <time>1970-01-01T00:50:17.000Z</time>
      </trkpt>
      <trkpt lat="42.31887" lon="3.302324">
        <ele>72</ele>
        <time>1970-01-01T00:50:18.000Z</time>
      </trkpt>
      <trkpt lat="42.318871" lon="3.302364">
        <ele>72</ele>
        <time>1970-01-01T00:50:19.000Z</time>
      </trkpt>
      <trkpt lat="42.318871" lon="3.302405">
        <ele>72</ele>
        <time>1970-01-01T00:50:20.000Z</time>
      </trkpt>
      <trkpt lat="42.318872" lon="3.302445">
        <ele>72</ele>
        <time>1970-01-01T00:50:21.000Z</time>
      </trkpt>
      <trkpt lat="42.318873" lon="3.302485">
        <ele>72</ele>
        <time>1970-01-01T00:50:22.000Z</time>
      </trkpt>
      <trkpt lat="42.318874" lon="3.302525">
        <ele>72</ele>
        <time>1970-01-01T00:50:23.000Z</time>
      </trkpt>
      <trkpt lat="42.318875" lon="3.302565">
        <ele>72</ele>
        <time>1970-01-01T00:50:24.000Z</time>
      </trkpt>
      <trkpt lat="42.318875" lon="3.302606">
        <ele>72</ele>
        <time>1970-01-01T00:50:25.000Z</time>
      </trkpt>
      <trkpt lat="42.318876" lon="3.302646">
        <ele>72</ele>
        <time>1970-01-01T00:50:26.000Z</time>
      </trkpt>
      <trkpt lat="42.318877" lon="3.302686">
        <ele>61</ele>
        <time>1970-01-01T00:50:27.000Z</time>
      </trkpt>
      <trkpt lat="42.318886" lon="3.302766">
        <ele>61</ele>
        <time>1970-01-01T00:50:28.000Z</time>
      </trkpt>
      <trkpt lat="42.318892" lon="3.302805">
        <ele>61</ele>
        <time>1970-01-01T00:50:29.000Z</time>
      </trkpt>
      <trkpt lat="42.318898" lon="3.302843">
        <ele>61</ele>
        <time>1970-01-01T00:50:30.000Z</time>
      </trkpt>
      <trkpt lat="42.318904" lon="3.302881">
        <ele>61</ele>
        <time>1970-01-01T00:50:31.000Z</time>
      </trkpt>
      <trkpt lat="42.31891" lon="3.302919">
        <ele>61</ele>
        <time>1970-01-01T00:50:32.000Z</time>
      </trkpt>
      <trkpt lat="42.318915" lon="3.302958">
        <ele>61</ele>
        <time>1970-01-01T00:50:33.000Z</time>
      </trkpt>
      <trkpt lat="42.318921" lon="3.302996">
        <ele>61</ele>
        <time>1970-01-01T00:50:34.000Z</time>
      </trkpt>
      <trkpt lat="42.318927" lon="3.303034">
        <ele>61</ele>
        <time>1970-01-01T00:50:35.000Z</time>
      </trkpt>
      <trkpt lat="42.318933" lon="3.303073">
        <ele>61</ele>
        <time>1970-01-01T00:50:36.000Z</time>
      </trkpt>
      <trkpt lat="42.318939" lon="3.303111">
        <ele>62</ele>
        <time>1970-01-01T00:50:37.000Z</time>
      </trkpt>
      <trkpt lat="42.318954" lon="3.303198">
        <ele>62</ele>
        <time>1970-01-01T00:50:38.000Z</time>
      </trkpt>
      <trkpt lat="42.318962" lon="3.303241">
        <ele>62</ele>
        <time>1970-01-01T00:50:39.000Z</time>
      </trkpt>
      <trkpt lat="42.318969" lon="3.303283">
        <ele>62</ele>
        <time>1970-01-01T00:50:40.000Z</time>
      </trkpt>
      <trkpt lat="42.318977" lon="3.303325">
        <ele>62</ele>
        <time>1970-01-01T00:50:41.000Z</time>
      </trkpt>
      <trkpt lat="42.318985" lon="3.303367">
        <ele>62</ele>
        <time>1970-01-01T00:50:42.000Z</time>
      </trkpt>
      <trkpt lat="42.318993" lon="3.30341">
        <ele>62</ele>
        <time>1970-01-01T00:50:43.000Z</time>
      </trkpt>
      <trkpt lat="42.319001" lon="3.303452">
        <ele>62</ele>
        <time>1970-01-01T00:50:44.000Z</time>
      </trkpt>
      <trkpt lat="42.319008" lon="3.303494">
        <ele>62</ele>
        <time>1970-01-01T00:50:45.000Z</time>
      </trkpt>
      <trkpt lat="42.319016" lon="3.303537">
        <ele>62</ele>
        <time>1970-01-01T00:50:46.000Z</time>
      </trkpt>
      <trkpt lat="42.319024" lon="3.303579">
        <ele>63</ele>
        <time>1970-01-01T00:50:47.000Z</time>
      </trkpt>
      <trkpt lat="42.319041" lon="3.303669">
        <ele>63</ele>
        <time>1970-01-01T00:50:48.000Z</time>
      </trkpt>
      <trkpt lat="42.319049" lon="3.303712">
        <ele>63</ele>
        <time>1970-01-01T00:50:49.000Z</time>
      </trkpt>
      <trkpt lat="42.319057" lon="3.303756">
        <ele>63</ele>
        <time>1970-01-01T00:50:50.000Z</time>
      </trkpt>
      <trkpt lat="42.319065" lon="3.3038">
        <ele>63</ele>
        <time>1970-01-01T00:50:51.000Z</time>
      </trkpt>
      <trkpt lat="42.319073" lon="3.303844">
        <ele>63</ele>
        <time>1970-01-01T00:50:52.000Z</time>
      </trkpt>
      <trkpt lat="42.31908" lon="3.303887">
        <ele>63</ele>
        <time>1970-01-01T00:50:53.000Z</time>
      </trkpt>
      <trkpt lat="42.319088" lon="3.303931">
        <ele>63</ele>
        <time>1970-01-01T00:50:54.000Z</time>
      </trkpt>
      <trkpt lat="42.319096" lon="3.303975">
        <ele>63</ele>
        <time>1970-01-01T00:50:55.000Z</time>
      </trkpt>
      <trkpt lat="42.319104" lon="3.304019">
        <ele>63</ele>
        <time>1970-01-01T00:50:56.000Z</time>
      </trkpt>
      <trkpt lat="42.319112" lon="3.304062">
        <ele>63</ele>
        <time>1970-01-01T00:50:57.000Z</time>
      </trkpt>
      <trkpt lat="42.31912" lon="3.304106">
        <ele>64</ele>
        <time>1970-01-01T00:50:58.000Z</time>
      </trkpt>
      <trkpt lat="42.319136" lon="3.304204">
        <ele>64</ele>
        <time>1970-01-01T00:50:59.000Z</time>
      </trkpt>
      <trkpt lat="42.319144" lon="3.304252">
        <ele>64</ele>
        <time>1970-01-01T00:51:00.000Z</time>
      </trkpt>
      <trkpt lat="42.319152" lon="3.304299">
        <ele>64</ele>
        <time>1970-01-01T00:51:01.000Z</time>
      </trkpt>
      <trkpt lat="42.31916" lon="3.304347">
        <ele>64</ele>
        <time>1970-01-01T00:51:02.000Z</time>
      </trkpt>
      <trkpt lat="42.319169" lon="3.304394">
        <ele>64</ele>
        <time>1970-01-01T00:51:03.000Z</time>
      </trkpt>
      <trkpt lat="42.319177" lon="3.304442">
        <ele>64</ele>
        <time>1970-01-01T00:51:04.000Z</time>
      </trkpt>
      <trkpt lat="42.319185" lon="3.304489">
        <ele>64</ele>
        <time>1970-01-01T00:51:05.000Z</time>
      </trkpt>
      <trkpt lat="42.319193" lon="3.304537">
        <ele>64</ele>
        <time>1970-01-01T00:51:06.000Z</time>
      </trkpt>
      <trkpt lat="42.319201" lon="3.304584">
        <ele>65</ele>
        <time>1970-01-01T00:51:07.000Z</time>
      </trkpt>
      <trkpt lat="42.319219" lon="3.304688">
        <ele>65</ele>
        <time>1970-01-01T00:51:08.000Z</time>
      </trkpt>
      <trkpt lat="42.319228" lon="3.304739">
        <ele>65</ele>
        <time>1970-01-01T00:51:09.000Z</time>
      </trkpt>
      <trkpt lat="42.319236" lon="3.304791">
        <ele>65</ele>
        <time>1970-01-01T00:51:10.000Z</time>
      </trkpt>
      <trkpt lat="42.319245" lon="3.304842">
        <ele>65</ele>
        <time>1970-01-01T00:51:11.000Z</time>
      </trkpt>
      <trkpt lat="42.319254" lon="3.304893">
        <ele>65</ele>
        <time>1970-01-01T00:51:12.000Z</time>
      </trkpt>
      <trkpt lat="42.319263" lon="3.304944">
        <ele>65</ele>
        <time>1970-01-01T00:51:13.000Z</time>
      </trkpt>
      <trkpt lat="42.319272" lon="3.304995">
        <ele>65</ele>
        <time>1970-01-01T00:51:14.000Z</time>
      </trkpt>
      <trkpt lat="42.31928" lon="3.305047">
        <ele>65</ele>
        <time>1970-01-01T00:51:15.000Z</time>
      </trkpt>
      <trkpt lat="42.319289" lon="3.305098">
        <ele>65</ele>
        <time>1970-01-01T00:51:16.000Z</time>
      </trkpt>
      <trkpt lat="42.319298" lon="3.305149">
        <ele>66</ele>
        <time>1970-01-01T00:51:17.000Z</time>
      </trkpt>
      <trkpt lat="42.31932" lon="3.305272">
        <ele>66</ele>
        <time>1970-01-01T00:51:18.000Z</time>
      </trkpt>
      <trkpt lat="42.319331" lon="3.305333">
        <ele>66</ele>
        <time>1970-01-01T00:51:19.000Z</time>
      </trkpt>
      <trkpt lat="42.319343" lon="3.305394">
        <ele>66</ele>
        <time>1970-01-01T00:51:20.000Z</time>
      </trkpt>
      <trkpt lat="42.319354" lon="3.305455">
        <ele>66</ele>
        <time>1970-01-01T00:51:21.000Z</time>
      </trkpt>
      <trkpt lat="42.319366" lon="3.305516">
        <ele>66</ele>
        <time>1970-01-01T00:51:22.000Z</time>
      </trkpt>
      <trkpt lat="42.319377" lon="3.305577">
        <ele>66</ele>
        <time>1970-01-01T00:51:23.000Z</time>
      </trkpt>
      <trkpt lat="42.319389" lon="3.305638">
        <ele>66</ele>
        <time>1970-01-01T00:51:24.000Z</time>
      </trkpt>
      <trkpt lat="42.3194" lon="3.305699">
        <ele>66</ele>
        <time>1970-01-01T00:51:25.000Z</time>
      </trkpt>
      <trkpt lat="42.319412" lon="3.30576">
        <ele>66</ele>
        <time>1970-01-01T00:51:26.000Z</time>
      </trkpt>
      <trkpt lat="42.319423" lon="3.305821">
        <ele>64</ele>
        <time>1970-01-01T00:51:27.000Z</time>
      </trkpt>
      <trkpt lat="42.319451" lon="3.30597">
        <ele>64</ele>
        <time>1970-01-01T00:51:28.000Z</time>
      </trkpt>
      <trkpt lat="42.319465" lon="3.306044">
        <ele>64</ele>
        <time>1970-01-01T00:51:29.000Z</time>
      </trkpt>
      <trkpt lat="42.319478" lon="3.306117">
        <ele>64</ele>
        <time>1970-01-01T00:51:30.000Z</time>
      </trkpt>
      <trkpt lat="42.319491" lon="3.306191">
        <ele>64</ele>
        <time>1970-01-01T00:51:31.000Z</time>
      </trkpt>
      <trkpt lat="42.319505" lon="3.306264">
        <ele>64</ele>
        <time>1970-01-01T00:51:32.000Z</time>
      </trkpt>
      <trkpt lat="42.319518" lon="3.306337">
        <ele>64</ele>
        <time>1970-01-01T00:51:33.000Z</time>
      </trkpt>
      <trkpt lat="42.319531" lon="3.306411">
        <ele>64</ele>
        <time>1970-01-01T00:51:34.000Z</time>
      </trkpt>
      <trkpt lat="42.319544" lon="3.306484">
        <ele>64</ele>
        <time>1970-01-01T00:51:35.000Z</time>
      </trkpt>
      <trkpt lat="42.319558" lon="3.306558">
        <ele>64</ele>
        <time>1970-01-01T00:51:36.000Z</time>
      </trkpt>
      <trkpt lat="42.319571" lon="3.306631">
        <ele>63</ele>
        <time>1970-01-01T00:51:37.000Z</time>
      </trkpt>
      <trkpt lat="42.319603" lon="3.306795">
        <ele>63</ele>
        <time>1970-01-01T00:51:38.000Z</time>
      </trkpt>
      <trkpt lat="42.319617" lon="3.306871">
        <ele>63</ele>
        <time>1970-01-01T00:51:39.000Z</time>
      </trkpt>
      <trkpt lat="42.319632" lon="3.306948">
        <ele>63</ele>
        <time>1970-01-01T00:51:40.000Z</time>
      </trkpt>
      <trkpt lat="42.319646" lon="3.307024">
        <ele>63</ele>
        <time>1970-01-01T00:51:41.000Z</time>
      </trkpt>
      <trkpt lat="42.319661" lon="3.3071">
        <ele>63</ele>
        <time>1970-01-01T00:51:42.000Z</time>
      </trkpt>
      <trkpt lat="42.319676" lon="3.307176">
        <ele>63</ele>
        <time>1970-01-01T00:51:43.000Z</time>
      </trkpt>
      <trkpt lat="42.31969" lon="3.307252">
        <ele>63</ele>
        <time>1970-01-01T00:51:44.000Z</time>
      </trkpt>
      <trkpt lat="42.319705" lon="3.307329">
        <ele>63</ele>
        <time>1970-01-01T00:51:45.000Z</time>
      </trkpt>
      <trkpt lat="42.319719" lon="3.307405">
        <ele>63</ele>
        <time>1970-01-01T00:51:46.000Z</time>
      </trkpt>
      <trkpt lat="42.319734" lon="3.307481">
        <ele>59</ele>
        <time>1970-01-01T00:51:47.000Z</time>
      </trkpt>
      <trkpt lat="42.319759" lon="3.307629">
        <ele>59</ele>
        <time>1970-01-01T00:51:48.000Z</time>
      </trkpt>
      <trkpt lat="42.319769" lon="3.307698">
        <ele>59</ele>
        <time>1970-01-01T00:51:49.000Z</time>
      </trkpt>
      <trkpt lat="42.319778" lon="3.307766">
        <ele>59</ele>
        <time>1970-01-01T00:51:50.000Z</time>
      </trkpt>
      <trkpt lat="42.319788" lon="3.307835">
        <ele>59</ele>
        <time>1970-01-01T00:51:51.000Z</time>
      </trkpt>
      <trkpt lat="42.319797" lon="3.307903">
        <ele>59</ele>
        <time>1970-01-01T00:51:52.000Z</time>
      </trkpt>
      <trkpt lat="42.319806" lon="3.307971">
        <ele>59</ele>
        <time>1970-01-01T00:51:53.000Z</time>
      </trkpt>
      <trkpt lat="42.319816" lon="3.30804">
        <ele>59</ele>
        <time>1970-01-01T00:51:54.000Z</time>
      </trkpt>
      <trkpt lat="42.319825" lon="3.308108">
        <ele>59</ele>
        <time>1970-01-01T00:51:55.000Z</time>
      </trkpt>
      <trkpt lat="42.319835" lon="3.308177">
        <ele>59</ele>
        <time>1970-01-01T00:51:56.000Z</time>
      </trkpt>
      <trkpt lat="42.319844" lon="3.308245">
        <ele>56</ele>
        <time>1970-01-01T00:51:57.000Z</time>
      </trkpt>
      <trkpt lat="42.319824" lon="3.308369">
        <ele>56</ele>
        <time>1970-01-01T00:51:58.000Z</time>
      </trkpt>
      <trkpt lat="42.319805" lon="3.308429">
        <ele>56</ele>
        <time>1970-01-01T00:51:59.000Z</time>
      </trkpt>
      <trkpt lat="42.319785" lon="3.308488">
        <ele>56</ele>
        <time>1970-01-01T00:52:00.000Z</time>
      </trkpt>
      <trkpt lat="42.319766" lon="3.308548">
        <ele>56</ele>
        <time>1970-01-01T00:52:01.000Z</time>
      </trkpt>
      <trkpt lat="42.319747" lon="3.308607">
        <ele>56</ele>
        <time>1970-01-01T00:52:02.000Z</time>
      </trkpt>
      <trkpt lat="42.319728" lon="3.308666">
        <ele>56</ele>
        <time>1970-01-01T00:52:03.000Z</time>
      </trkpt>
      <trkpt lat="42.319709" lon="3.308726">
        <ele>56</ele>
        <time>1970-01-01T00:52:04.000Z</time>
      </trkpt>
      <trkpt lat="42.319689" lon="3.308785">
        <ele>56</ele>
        <time>1970-01-01T00:52:05.000Z</time>
      </trkpt>
      <trkpt lat="42.31967" lon="3.308845">
        <ele>56</ele>
        <time>1970-01-01T00:52:06.000Z</time>
      </trkpt>
      <trkpt lat="42.319651" lon="3.308904">
        <ele>50</ele>
        <time>1970-01-01T00:52:07.000Z</time>
      </trkpt>
      <trkpt lat="42.319588" lon="3.308987">
        <ele>50</ele>
        <time>1970-01-01T00:52:08.000Z</time>
      </trkpt>
      <trkpt lat="42.319557" lon="3.309018">
        <ele>50</ele>
        <time>1970-01-01T00:52:09.000Z</time>
      </trkpt>
      <trkpt lat="42.319525" lon="3.309048">
        <ele>50</ele>
        <time>1970-01-01T00:52:10.000Z</time>
      </trkpt>
      <trkpt lat="42.319493" lon="3.309079">
        <ele>50</ele>
        <time>1970-01-01T00:52:11.000Z</time>
      </trkpt>
      <trkpt lat="42.319462" lon="3.309109">
        <ele>50</ele>
        <time>1970-01-01T00:52:12.000Z</time>
      </trkpt>
      <trkpt lat="42.31943" lon="3.309139">
        <ele>50</ele>
        <time>1970-01-01T00:52:13.000Z</time>
      </trkpt>
      <trkpt lat="42.319398" lon="3.30917">
        <ele>50</ele>
        <time>1970-01-01T00:52:14.000Z</time>
      </trkpt>
      <trkpt lat="42.319366" lon="3.3092">
        <ele>50</ele>
        <time>1970-01-01T00:52:15.000Z</time>
      </trkpt>
      <trkpt lat="42.319335" lon="3.309231">
        <ele>50</ele>
        <time>1970-01-01T00:52:16.000Z</time>
      </trkpt>
      <trkpt lat="42.319303" lon="3.309261">
        <ele>46</ele>
        <time>1970-01-01T00:52:17.000Z</time>
      </trkpt>
      <trkpt lat="42.319214" lon="3.309301">
        <ele>46</ele>
        <time>1970-01-01T00:52:18.000Z</time>
      </trkpt>
      <trkpt lat="42.319171" lon="3.309321">
        <ele>46</ele>
        <time>1970-01-01T00:52:19.000Z</time>
      </trkpt>
      <trkpt lat="42.319129" lon="3.309342">
        <ele>46</ele>
        <time>1970-01-01T00:52:20.000Z</time>
      </trkpt>
      <trkpt lat="42.319086" lon="3.309362">
        <ele>46</ele>
        <time>1970-01-01T00:52:21.000Z</time>
      </trkpt>
      <trkpt lat="42.319044" lon="3.309383">
        <ele>46</ele>
        <time>1970-01-01T00:52:22.000Z</time>
      </trkpt>
      <trkpt lat="42.319002" lon="3.309404">
        <ele>46</ele>
        <time>1970-01-01T00:52:23.000Z</time>
      </trkpt>
      <trkpt lat="42.318959" lon="3.309424">
        <ele>46</ele>
        <time>1970-01-01T00:52:24.000Z</time>
      </trkpt>
      <trkpt lat="42.318917" lon="3.309445">
        <ele>46</ele>
        <time>1970-01-01T00:52:25.000Z</time>
      </trkpt>
      <trkpt lat="42.318874" lon="3.309465">
        <ele>46</ele>
        <time>1970-01-01T00:52:26.000Z</time>
      </trkpt>
      <trkpt lat="42.318832" lon="3.309486">
        <ele>41</ele>
        <time>1970-01-01T00:52:27.000Z</time>
      </trkpt>
      <trkpt lat="42.318779" lon="3.30956">
        <ele>41</ele>
        <time>1970-01-01T00:52:28.000Z</time>
      </trkpt>
      <trkpt lat="42.318766" lon="3.309607">
        <ele>41</ele>
        <time>1970-01-01T00:52:29.000Z</time>
      </trkpt>
      <trkpt lat="42.318753" lon="3.309655">
        <ele>41</ele>
        <time>1970-01-01T00:52:30.000Z</time>
      </trkpt>
      <trkpt lat="42.31874" lon="3.309702">
        <ele>41</ele>
        <time>1970-01-01T00:52:31.000Z</time>
      </trkpt>
      <trkpt lat="42.318727" lon="3.30975">
        <ele>41</ele>
        <time>1970-01-01T00:52:32.000Z</time>
      </trkpt>
      <trkpt lat="42.318713" lon="3.309798">
        <ele>41</ele>
        <time>1970-01-01T00:52:33.000Z</time>
      </trkpt>
      <trkpt lat="42.3187" lon="3.309845">
        <ele>41</ele>
        <time>1970-01-01T00:52:34.000Z</time>
      </trkpt>
      <trkpt lat="42.318687" lon="3.309893">
        <ele>41</ele>
        <time>1970-01-01T00:52:35.000Z</time>
      </trkpt>
      <trkpt lat="42.318674" lon="3.30994">
        <ele>41</ele>
        <time>1970-01-01T00:52:36.000Z</time>
      </trkpt>
      <trkpt lat="42.318661" lon="3.309988">
        <ele>39</ele>
        <time>1970-01-01T00:52:37.000Z</time>
      </trkpt>
      <trkpt lat="42.318734" lon="3.310055">
        <ele>39</ele>
        <time>1970-01-01T00:52:38.000Z</time>
      </trkpt>
      <trkpt lat="42.318784" lon="3.310062">
        <ele>39</ele>
        <time>1970-01-01T00:52:39.000Z</time>
      </trkpt>
      <trkpt lat="42.318834" lon="3.31007">
        <ele>39</ele>
        <time>1970-01-01T00:52:40.000Z</time>
      </trkpt>
      <trkpt lat="42.318884" lon="3.310077">
        <ele>39</ele>
        <time>1970-01-01T00:52:41.000Z</time>
      </trkpt>
      <trkpt lat="42.318935" lon="3.310084">
        <ele>39</ele>
        <time>1970-01-01T00:52:42.000Z</time>
      </trkpt>
      <trkpt lat="42.318985" lon="3.310091">
        <ele>39</ele>
        <time>1970-01-01T00:52:43.000Z</time>
      </trkpt>
      <trkpt lat="42.319035" lon="3.310098">
        <ele>39</ele>
        <time>1970-01-01T00:52:44.000Z</time>
      </trkpt>
      <trkpt lat="42.319085" lon="3.310106">
        <ele>39</ele>
        <time>1970-01-01T00:52:45.000Z</time>
      </trkpt>
      <trkpt lat="42.319135" lon="3.310113">
        <ele>39</ele>
        <time>1970-01-01T00:52:46.000Z</time>
      </trkpt>
      <trkpt lat="42.319185" lon="3.31012">
        <ele>35</ele>
        <time>1970-01-01T00:52:47.000Z</time>
      </trkpt>
      <trkpt lat="42.319261" lon="3.310182">
        <ele>35</ele>
        <time>1970-01-01T00:52:48.000Z</time>
      </trkpt>
      <trkpt lat="42.319279" lon="3.310233">
        <ele>35</ele>
        <time>1970-01-01T00:52:49.000Z</time>
      </trkpt>
      <trkpt lat="42.319298" lon="3.310284">
        <ele>35</ele>
        <time>1970-01-01T00:52:50.000Z</time>
      </trkpt>
      <trkpt lat="42.319316" lon="3.310335">
        <ele>35</ele>
        <time>1970-01-01T00:52:51.000Z</time>
      </trkpt>
      <trkpt lat="42.319334" lon="3.310386">
        <ele>35</ele>
        <time>1970-01-01T00:52:52.000Z</time>
      </trkpt>
      <trkpt lat="42.319352" lon="3.310438">
        <ele>35</ele>
        <time>1970-01-01T00:52:53.000Z</time>
      </trkpt>
      <trkpt lat="42.31937" lon="3.310489">
        <ele>35</ele>
        <time>1970-01-01T00:52:54.000Z</time>
      </trkpt>
      <trkpt lat="42.319389" lon="3.31054">
        <ele>35</ele>
        <time>1970-01-01T00:52:55.000Z</time>
      </trkpt>
      <trkpt lat="42.319407" lon="3.310591">
        <ele>35</ele>
        <time>1970-01-01T00:52:56.000Z</time>
      </trkpt>
      <trkpt lat="42.319425" lon="3.310642">
        <ele>29</ele>
        <time>1970-01-01T00:52:57.000Z</time>
      </trkpt>
      <trkpt lat="42.319409" lon="3.310785">
        <ele>29</ele>
        <time>1970-01-01T00:52:58.000Z</time>
      </trkpt>
      <trkpt lat="42.319403" lon="3.310858">
        <ele>29</ele>
        <time>1970-01-01T00:52:59.000Z</time>
      </trkpt>
      <trkpt lat="42.319397" lon="3.310932">
        <ele>29</ele>
        <time>1970-01-01T00:53:00.000Z</time>
      </trkpt>
      <trkpt lat="42.319391" lon="3.311005">
        <ele>29</ele>
        <time>1970-01-01T00:53:01.000Z</time>
      </trkpt>
      <trkpt lat="42.319385" lon="3.311079">
        <ele>29</ele>
        <time>1970-01-01T00:53:02.000Z</time>
      </trkpt>
      <trkpt lat="42.319378" lon="3.311152">
        <ele>29</ele>
        <time>1970-01-01T00:53:03.000Z</time>
      </trkpt>
      <trkpt lat="42.319372" lon="3.311226">
        <ele>29</ele>
        <time>1970-01-01T00:53:04.000Z</time>
      </trkpt>
      <trkpt lat="42.319366" lon="3.311299">
        <ele>29</ele>
        <time>1970-01-01T00:53:05.000Z</time>
      </trkpt>
      <trkpt lat="42.31936" lon="3.311373">
        <ele>29</ele>
        <time>1970-01-01T00:53:06.000Z</time>
      </trkpt>
      <trkpt lat="42.319354" lon="3.311446">
        <ele>28</ele>
        <time>1970-01-01T00:53:07.000Z</time>
      </trkpt>
      <trkpt lat="42.319337" lon="3.311592">
        <ele>28</ele>
        <time>1970-01-01T00:53:08.000Z</time>
      </trkpt>
      <trkpt lat="42.319331" lon="3.311656">
        <ele>28</ele>
        <time>1970-01-01T00:53:09.000Z</time>
      </trkpt>
      <trkpt lat="42.319324" lon="3.311721">
        <ele>28</ele>
        <time>1970-01-01T00:53:10.000Z</time>
      </trkpt>
      <trkpt lat="42.319318" lon="3.311785">
        <ele>28</ele>
        <time>1970-01-01T00:53:11.000Z</time>
      </trkpt>
      <trkpt lat="42.319311" lon="3.311849">
        <ele>28</ele>
        <time>1970-01-01T00:53:12.000Z</time>
      </trkpt>
      <trkpt lat="42.319304" lon="3.311913">
        <ele>28</ele>
        <time>1970-01-01T00:53:13.000Z</time>
      </trkpt>
      <trkpt lat="42.319298" lon="3.311977">
        <ele>28</ele>
        <time>1970-01-01T00:53:14.000Z</time>
      </trkpt>
      <trkpt lat="42.319291" lon="3.312042">
        <ele>28</ele>
        <time>1970-01-01T00:53:15.000Z</time>
      </trkpt>
      <trkpt lat="42.319285" lon="3.312106">
        <ele>28</ele>
        <time>1970-01-01T00:53:16.000Z</time>
      </trkpt>
      <trkpt lat="42.319278" lon="3.31217">
        <ele>26</ele>
        <time>1970-01-01T00:53:17.000Z</time>
      </trkpt>
      <trkpt lat="42.319271" lon="3.312252">
        <ele>26</ele>
        <time>1970-01-01T00:53:18.000Z</time>
      </trkpt>
      <trkpt lat="42.319269" lon="3.31228">
        <ele>26</ele>
        <time>1970-01-01T00:53:19.000Z</time>
      </trkpt>
      <trkpt lat="42.319266" lon="3.312307">
        <ele>26</ele>
        <time>1970-01-01T00:53:20.000Z</time>
      </trkpt>
      <trkpt lat="42.319263" lon="3.312334">
        <ele>26</ele>
        <time>1970-01-01T00:53:21.000Z</time>
      </trkpt>
      <trkpt lat="42.319261" lon="3.312362">
        <ele>26</ele>
        <time>1970-01-01T00:53:22.000Z</time>
      </trkpt>
      <trkpt lat="42.319258" lon="3.312389">
        <ele>26</ele>
        <time>1970-01-01T00:53:23.000Z</time>
      </trkpt>
      <trkpt lat="42.319255" lon="3.312416">
        <ele>26</ele>
        <time>1970-01-01T00:53:24.000Z</time>
      </trkpt>
      <trkpt lat="42.319252" lon="3.312443">
        <ele>26</ele>
        <time>1970-01-01T00:53:25.000Z</time>
      </trkpt>
      <trkpt lat="42.31925" lon="3.312471">
        <ele>26</ele>
        <time>1970-01-01T00:53:26.000Z</time>
      </trkpt>
      <trkpt lat="42.319247" lon="3.312498">
        <ele>26</ele>
        <time>1970-01-01T00:53:27.000Z</time>
      </trkpt>
      <trkpt lat="42.319237" lon="3.312548">
        <ele>26</ele>
        <time>1970-01-01T00:53:28.000Z</time>
      </trkpt>
      <trkpt lat="42.319234" lon="3.312573">
        <ele>26</ele>
        <time>1970-01-01T00:53:29.000Z</time>
      </trkpt>
      <trkpt lat="42.31923" lon="3.312598">
        <ele>26</ele>
        <time>1970-01-01T00:53:30.000Z</time>
      </trkpt>
      <trkpt lat="42.319227" lon="3.312623">
        <ele>26</ele>
        <time>1970-01-01T00:53:31.000Z</time>
      </trkpt>
      <trkpt lat="42.319223" lon="3.312648">
        <ele>26</ele>
        <time>1970-01-01T00:53:32.000Z</time>
      </trkpt>
      <trkpt lat="42.319219" lon="3.312673">
        <ele>26</ele>
        <time>1970-01-01T00:53:33.000Z</time>
      </trkpt>
      <trkpt lat="42.319216" lon="3.312698">
        <ele>26</ele>
        <time>1970-01-01T00:53:34.000Z</time>
      </trkpt>
      <trkpt lat="42.319212" lon="3.312723">
        <ele>26</ele>
        <time>1970-01-01T00:53:35.000Z</time>
      </trkpt>
      <trkpt lat="42.319209" lon="3.312748">
        <ele>26</ele>
        <time>1970-01-01T00:53:36.000Z</time>
      </trkpt>
      <trkpt lat="42.319205" lon="3.312773">
        <ele>28</ele>
        <time>1970-01-01T00:53:37.000Z</time>
      </trkpt>
      <trkpt lat="42.319199" lon="3.312825">
        <ele>28</ele>
        <time>1970-01-01T00:53:38.000Z</time>
      </trkpt>
      <trkpt lat="42.319197" lon="3.312849">
        <ele>28</ele>
        <time>1970-01-01T00:53:39.000Z</time>
      </trkpt>
      <trkpt lat="42.319195" lon="3.312873">
        <ele>28</ele>
        <time>1970-01-01T00:53:40.000Z</time>
      </trkpt>
      <trkpt lat="42.319193" lon="3.312897">
        <ele>28</ele>
        <time>1970-01-01T00:53:41.000Z</time>
      </trkpt>
      <trkpt lat="42.319192" lon="3.312921">
        <ele>28</ele>
        <time>1970-01-01T00:53:42.000Z</time>
      </trkpt>
      <trkpt lat="42.31919" lon="3.312945">
        <ele>28</ele>
        <time>1970-01-01T00:53:43.000Z</time>
      </trkpt>
      <trkpt lat="42.319188" lon="3.312969">
        <ele>28</ele>
        <time>1970-01-01T00:53:44.000Z</time>
      </trkpt>
      <trkpt lat="42.319186" lon="3.312993">
        <ele>28</ele>
        <time>1970-01-01T00:53:45.000Z</time>
      </trkpt>
      <trkpt lat="42.319184" lon="3.313017">
        <ele>28</ele>
        <time>1970-01-01T00:53:46.000Z</time>
      </trkpt>
      <trkpt lat="42.319182" lon="3.313041">
        <ele>29</ele>
        <time>1970-01-01T00:53:47.000Z</time>
      </trkpt>
      <trkpt lat="42.31917" lon="3.313087">
        <ele>29</ele>
        <time>1970-01-01T00:53:48.000Z</time>
      </trkpt>
      <trkpt lat="42.319162" lon="3.313108">
        <ele>29</ele>
        <time>1970-01-01T00:53:49.000Z</time>
      </trkpt>
      <trkpt lat="42.319154" lon="3.313128">
        <ele>29</ele>
        <time>1970-01-01T00:53:50.000Z</time>
      </trkpt>
      <trkpt lat="42.319146" lon="3.313148">
        <ele>29</ele>
        <time>1970-01-01T00:53:51.000Z</time>
      </trkpt>
      <trkpt lat="42.319138" lon="3.313169">
        <ele>29</ele>
        <time>1970-01-01T00:53:52.000Z</time>
      </trkpt>
      <trkpt lat="42.319129" lon="3.313189">
        <ele>29</ele>
        <time>1970-01-01T00:53:53.000Z</time>
      </trkpt>
      <trkpt lat="42.319121" lon="3.313209">
        <ele>29</ele>
        <time>1970-01-01T00:53:54.000Z</time>
      </trkpt>
      <trkpt lat="42.319113" lon="3.313229">
        <ele>29</ele>
        <time>1970-01-01T00:53:55.000Z</time>
      </trkpt>
      <trkpt lat="42.319105" lon="3.31325">
        <ele>29</ele>
        <time>1970-01-01T00:53:56.000Z</time>
      </trkpt>
      <trkpt lat="42.319097" lon="3.31327">
        <ele>30</ele>
        <time>1970-01-01T00:53:57.000Z</time>
      </trkpt>
      <trkpt lat="42.319065" lon="3.313293">
        <ele>30</ele>
        <time>1970-01-01T00:53:58.000Z</time>
      </trkpt>
      <trkpt lat="42.319049" lon="3.313299">
        <ele>30</ele>
        <time>1970-01-01T00:53:59.000Z</time>
      </trkpt>
      <trkpt lat="42.319032" lon="3.313306">
        <ele>30</ele>
        <time>1970-01-01T00:54:00.000Z</time>
      </trkpt>
      <trkpt lat="42.319016" lon="3.313312">
        <ele>30</ele>
        <time>1970-01-01T00:54:01.000Z</time>
      </trkpt>
      <trkpt lat="42.318999" lon="3.313319">
        <ele>30</ele>
        <time>1970-01-01T00:54:02.000Z</time>
      </trkpt>
      <trkpt lat="42.318982" lon="3.313326">
        <ele>30</ele>
        <time>1970-01-01T00:54:03.000Z</time>
      </trkpt>
      <trkpt lat="42.318966" lon="3.313332">
        <ele>30</ele>
        <time>1970-01-01T00:54:04.000Z</time>
      </trkpt>
      <trkpt lat="42.318949" lon="3.313339">
        <ele>30</ele>
        <time>1970-01-01T00:54:05.000Z</time>
      </trkpt>
      <trkpt lat="42.318933" lon="3.313345">
        <ele>30</ele>
        <time>1970-01-01T00:54:06.000Z</time>
      </trkpt>
      <trkpt lat="42.318916" lon="3.313352">
        <ele>31</ele>
        <time>1970-01-01T00:54:07.000Z</time>
      </trkpt>
      <trkpt lat="42.318878" lon="3.313358">
        <ele>31</ele>
        <time>1970-01-01T00:54:08.000Z</time>
      </trkpt>
      <trkpt lat="42.31886" lon="3.313361">
        <ele>31</ele>
        <time>1970-01-01T00:54:09.000Z</time>
      </trkpt>
      <trkpt lat="42.318843" lon="3.313363">
        <ele>31</ele>
        <time>1970-01-01T00:54:10.000Z</time>
      </trkpt>
      <trkpt lat="42.318825" lon="3.313366">
        <ele>31</ele>
        <time>1970-01-01T00:54:11.000Z</time>
      </trkpt>
      <trkpt lat="42.318808" lon="3.313369">
        <ele>31</ele>
        <time>1970-01-01T00:54:12.000Z</time>
      </trkpt>
      <trkpt lat="42.318791" lon="3.313372">
        <ele>31</ele>
        <time>1970-01-01T00:54:13.000Z</time>
      </trkpt>
      <trkpt lat="42.318773" lon="3.313375">
        <ele>31</ele>
        <time>1970-01-01T00:54:14.000Z</time>
      </trkpt>
      <trkpt lat="42.318756" lon="3.313377">
        <ele>31</ele>
        <time>1970-01-01T00:54:15.000Z</time>
      </trkpt>
      <trkpt lat="42.318738" lon="3.31338">
        <ele>31</ele>
        <time>1970-01-01T00:54:16.000Z</time>
      </trkpt>
      <trkpt lat="42.318721" lon="3.313383">
        <ele>35</ele>
        <time>1970-01-01T00:54:17.000Z</time>
      </trkpt>
      <trkpt lat="42.318686" lon="3.313395">
        <ele>35</ele>
        <time>1970-01-01T00:54:18.000Z</time>
      </trkpt>
      <trkpt lat="42.318669" lon="3.313403">
        <ele>35</ele>
        <time>1970-01-01T00:54:19.000Z</time>
      </trkpt>
      <trkpt lat="42.318653" lon="3.313411">
        <ele>35</ele>
        <time>1970-01-01T00:54:20.000Z</time>
      </trkpt>
      <trkpt lat="42.318636" lon="3.313419">
        <ele>35</ele>
        <time>1970-01-01T00:54:21.000Z</time>
      </trkpt>
      <trkpt lat="42.31862" lon="3.313428">
        <ele>35</ele>
        <time>1970-01-01T00:54:22.000Z</time>
      </trkpt>
      <trkpt lat="42.318604" lon="3.313436">
        <ele>35</ele>
        <time>1970-01-01T00:54:23.000Z</time>
      </trkpt>
      <trkpt lat="42.318587" lon="3.313444">
        <ele>35</ele>
        <time>1970-01-01T00:54:24.000Z</time>
      </trkpt>
      <trkpt lat="42.318571" lon="3.313452">
        <ele>35</ele>
        <time>1970-01-01T00:54:25.000Z</time>
      </trkpt>
      <trkpt lat="42.318554" lon="3.31346">
        <ele>35</ele>
        <time>1970-01-01T00:54:26.000Z</time>
      </trkpt>
      <trkpt lat="42.318538" lon="3.313468">
        <ele>36</ele>
        <time>1970-01-01T00:54:27.000Z</time>
      </trkpt>
      <trkpt lat="42.318511" lon="3.313506">
        <ele>36</ele>
        <time>1970-01-01T00:54:28.000Z</time>
      </trkpt>
      <trkpt lat="42.318502" lon="3.313529">
        <ele>36</ele>
        <time>1970-01-01T00:54:29.000Z</time>
      </trkpt>
      <trkpt lat="42.318492" lon="3.313553">
        <ele>36</ele>
        <time>1970-01-01T00:54:30.000Z</time>
      </trkpt>
      <trkpt lat="42.318483" lon="3.313576">
        <ele>36</ele>
        <time>1970-01-01T00:54:31.000Z</time>
      </trkpt>
      <trkpt lat="42.318474" lon="3.3136">
        <ele>36</ele>
        <time>1970-01-01T00:54:32.000Z</time>
      </trkpt>
      <trkpt lat="42.318465" lon="3.313623">
        <ele>36</ele>
        <time>1970-01-01T00:54:33.000Z</time>
      </trkpt>
      <trkpt lat="42.318455" lon="3.313647">
        <ele>36</ele>
        <time>1970-01-01T00:54:35.000Z</time>
      </trkpt>
      <trkpt lat="42.318446" lon="3.31367">
        <ele>38</ele>
        <time>1970-01-01T00:54:37.000Z</time>
      </trkpt>
      <trkpt lat="42.31846" lon="3.31374">
        <ele>38</ele>
        <time>1970-01-01T00:54:39.000Z</time>
      </trkpt>
      <trkpt lat="42.318469" lon="3.313762">
        <ele>38</ele>
        <time>1970-01-01T00:54:41.000Z</time>
      </trkpt>
      <trkpt lat="42.318479" lon="3.313785">
        <ele>38</ele>
        <time>1970-01-01T00:54:43.000Z</time>
      </trkpt>
      <trkpt lat="42.318489" lon="3.313808">
        <ele>38</ele>
        <time>1970-01-01T00:54:44.000Z</time>
      </trkpt>
      <trkpt lat="42.318499" lon="3.313831">
        <ele>38</ele>
        <time>1970-01-01T00:54:45.000Z</time>
      </trkpt>
      <trkpt lat="42.318508" lon="3.313853">
        <ele>38</ele>
        <time>1970-01-01T00:54:46.000Z</time>
      </trkpt>
      <trkpt lat="42.318518" lon="3.313876">
        <ele>39</ele>
        <time>1970-01-01T00:54:47.000Z</time>
      </trkpt>
      <trkpt lat="42.318555" lon="3.313893">
        <ele>39</ele>
        <time>1970-01-01T00:54:48.000Z</time>
      </trkpt>
      <trkpt lat="42.318578" lon="3.313896">
        <ele>39</ele>
        <time>1970-01-01T00:54:50.000Z</time>
      </trkpt>
      <trkpt lat="42.318601" lon="3.313898">
        <ele>39</ele>
        <time>1970-01-01T00:54:52.000Z</time>
      </trkpt>
      <trkpt lat="42.318623" lon="3.3139">
        <ele>39</ele>
        <time>1970-01-01T00:54:54.000Z</time>
      </trkpt>
      <trkpt lat="42.318646" lon="3.313903">
        <ele>39</ele>
        <time>1970-01-01T00:54:56.000Z</time>
      </trkpt>
      <trkpt lat="42.318669" lon="3.313905">
        <ele>41</ele>
        <time>1970-01-01T00:54:57.000Z</time>
      </trkpt>
      <trkpt lat="42.318703" lon="3.313887">
        <ele>41</ele>
        <time>1970-01-01T00:54:58.000Z</time>
      </trkpt>
      <trkpt lat="42.318721" lon="3.313879">
        <ele>41</ele>
        <time>1970-01-01T00:55:00.000Z</time>
      </trkpt>
      <trkpt lat="42.318738" lon="3.31387">
        <ele>41</ele>
        <time>1970-01-01T00:55:01.000Z</time>
      </trkpt>
      <trkpt lat="42.318756" lon="3.313861">
        <ele>41</ele>
        <time>1970-01-01T00:55:02.000Z</time>
      </trkpt>
      <trkpt lat="42.318774" lon="3.313853">
        <ele>41</ele>
        <time>1970-01-01T00:55:03.000Z</time>
      </trkpt>
      <trkpt lat="42.318792" lon="3.313844">
        <ele>41</ele>
        <time>1970-01-01T00:55:04.000Z</time>
      </trkpt>
      <trkpt lat="42.318809" lon="3.313835">
        <ele>41</ele>
        <time>1970-01-01T00:55:05.000Z</time>
      </trkpt>
      <trkpt lat="42.318827" lon="3.313827">
        <ele>41</ele>
        <time>1970-01-01T00:55:06.000Z</time>
      </trkpt>
      <trkpt lat="42.318845" lon="3.313818">
        <ele>42</ele>
        <time>1970-01-01T00:55:07.000Z</time>
      </trkpt>
      <trkpt lat="42.318881" lon="3.313799">
        <ele>42</ele>
        <time>1970-01-01T00:55:08.000Z</time>
      </trkpt>
      <trkpt lat="42.318899" lon="3.313789">
        <ele>42</ele>
        <time>1970-01-01T00:55:09.000Z</time>
      </trkpt>
      <trkpt lat="42.318917" lon="3.31378">
        <ele>42</ele>
        <time>1970-01-01T00:55:10.000Z</time>
      </trkpt>
      <trkpt lat="42.318935" lon="3.31377">
        <ele>42</ele>
        <time>1970-01-01T00:55:11.000Z</time>
      </trkpt>
      <trkpt lat="42.318954" lon="3.313761">
        <ele>42</ele>
        <time>1970-01-01T00:55:12.000Z</time>
      </trkpt>
      <trkpt lat="42.318972" lon="3.313752">
        <ele>42</ele>
        <time>1970-01-01T00:55:13.000Z</time>
      </trkpt>
      <trkpt lat="42.31899" lon="3.313742">
        <ele>42</ele>
        <time>1970-01-01T00:55:14.000Z</time>
      </trkpt>
      <trkpt lat="42.319008" lon="3.313733">
        <ele>42</ele>
        <time>1970-01-01T00:55:15.000Z</time>
      </trkpt>
      <trkpt lat="42.319026" lon="3.313723">
        <ele>42</ele>
        <time>1970-01-01T00:55:16.000Z</time>
      </trkpt>
      <trkpt lat="42.319044" lon="3.313714">
        <ele>44</ele>
        <time>1970-01-01T00:55:17.000Z</time>
      </trkpt>
      <trkpt lat="42.319086" lon="3.313707">
        <ele>44</ele>
        <time>1970-01-01T00:55:18.000Z</time>
      </trkpt>
      <trkpt lat="42.319107" lon="3.313709">
        <ele>44</ele>
        <time>1970-01-01T00:55:19.000Z</time>
      </trkpt>
      <trkpt lat="42.319127" lon="3.31371">
        <ele>44</ele>
        <time>1970-01-01T00:55:20.000Z</time>
      </trkpt>
      <trkpt lat="42.319147" lon="3.313712">
        <ele>44</ele>
        <time>1970-01-01T00:55:21.000Z</time>
      </trkpt>
      <trkpt lat="42.319168" lon="3.313713">
        <ele>44</ele>
        <time>1970-01-01T00:55:22.000Z</time>
      </trkpt>
      <trkpt lat="42.319188" lon="3.313715">
        <ele>44</ele>
        <time>1970-01-01T00:55:23.000Z</time>
      </trkpt>
      <trkpt lat="42.319208" lon="3.313716">
        <ele>44</ele>
        <time>1970-01-01T00:55:24.000Z</time>
      </trkpt>
      <trkpt lat="42.319228" lon="3.313718">
        <ele>44</ele>
        <time>1970-01-01T00:55:25.000Z</time>
      </trkpt>
      <trkpt lat="42.319249" lon="3.313719">
        <ele>44</ele>
        <time>1970-01-01T00:55:26.000Z</time>
      </trkpt>
      <trkpt lat="42.319269" lon="3.313721">
        <ele>46</ele>
        <time>1970-01-01T00:55:27.000Z</time>
      </trkpt>
      <trkpt lat="42.319309" lon="3.313739">
        <ele>46</ele>
        <time>1970-01-01T00:55:28.000Z</time>
      </trkpt>
      <trkpt lat="42.319326" lon="3.313751">
        <ele>46</ele>
        <time>1970-01-01T00:55:29.000Z</time>
      </trkpt>
      <trkpt lat="42.319344" lon="3.313764">
        <ele>46</ele>
        <time>1970-01-01T00:55:30.000Z</time>
      </trkpt>
      <trkpt lat="42.319361" lon="3.313776">
        <ele>46</ele>
        <time>1970-01-01T00:55:31.000Z</time>
      </trkpt>
      <trkpt lat="42.319379" lon="3.313789">
        <ele>46</ele>
        <time>1970-01-01T00:55:32.000Z</time>
      </trkpt>
      <trkpt lat="42.319396" lon="3.313802">
        <ele>46</ele>
        <time>1970-01-01T00:55:33.000Z</time>
      </trkpt>
      <trkpt lat="42.319414" lon="3.313814">
        <ele>46</ele>
        <time>1970-01-01T00:55:34.000Z</time>
      </trkpt>
      <trkpt lat="42.319431" lon="3.313827">
        <ele>46</ele>
        <time>1970-01-01T00:55:35.000Z</time>
      </trkpt>
      <trkpt lat="42.319449" lon="3.313839">
        <ele>46</ele>
        <time>1970-01-01T00:55:36.000Z</time>
      </trkpt>
      <trkpt lat="42.319466" lon="3.313852">
        <ele>47</ele>
        <time>1970-01-01T00:55:37.000Z</time>
      </trkpt>
      <trkpt lat="42.319498" lon="3.313887">
        <ele>47</ele>
        <time>1970-01-01T00:55:38.000Z</time>
      </trkpt>
      <trkpt lat="42.319513" lon="3.313905">
        <ele>47</ele>
        <time>1970-01-01T00:55:39.000Z</time>
      </trkpt>
      <trkpt lat="42.319528" lon="3.313922">
        <ele>47</ele>
        <time>1970-01-01T00:55:40.000Z</time>
      </trkpt>
      <trkpt lat="42.319543" lon="3.31394">
        <ele>47</ele>
        <time>1970-01-01T00:55:41.000Z</time>
      </trkpt>
      <trkpt lat="42.319558" lon="3.313957">
        <ele>47</ele>
        <time>1970-01-01T00:55:42.000Z</time>
      </trkpt>
      <trkpt lat="42.319572" lon="3.313974">
        <ele>47</ele>
        <time>1970-01-01T00:55:43.000Z</time>
      </trkpt>
      <trkpt lat="42.319587" lon="3.313992">
        <ele>47</ele>
        <time>1970-01-01T00:55:44.000Z</time>
      </trkpt>
      <trkpt lat="42.319602" lon="3.314009">
        <ele>47</ele>
        <time>1970-01-01T00:55:45.000Z</time>
      </trkpt>
      <trkpt lat="42.319617" lon="3.314027">
        <ele>47</ele>
        <time>1970-01-01T00:55:46.000Z</time>
      </trkpt>
      <trkpt lat="42.319632" lon="3.314044">
        <ele>49</ele>
        <time>1970-01-01T00:55:47.000Z</time>
      </trkpt>
      <trkpt lat="42.319664" lon="3.314081">
        <ele>49</ele>
        <time>1970-01-01T00:55:48.000Z</time>
      </trkpt>
      <trkpt lat="42.319678" lon="3.314098">
        <ele>49</ele>
        <time>1970-01-01T00:55:49.000Z</time>
      </trkpt>
      <trkpt lat="42.319691" lon="3.314116">
        <ele>49</ele>
        <time>1970-01-01T00:55:50.000Z</time>
      </trkpt>
      <trkpt lat="42.319705" lon="3.314133">
        <ele>49</ele>
        <time>1970-01-01T00:55:51.000Z</time>
      </trkpt>
      <trkpt lat="42.319719" lon="3.31415">
        <ele>49</ele>
        <time>1970-01-01T00:55:52.000Z</time>
      </trkpt>
      <trkpt lat="42.319733" lon="3.314167">
        <ele>49</ele>
        <time>1970-01-01T00:55:53.000Z</time>
      </trkpt>
      <trkpt lat="42.319747" lon="3.314184">
        <ele>49</ele>
        <time>1970-01-01T00:55:54.000Z</time>
      </trkpt>
      <trkpt lat="42.31976" lon="3.314202">
        <ele>49</ele>
        <time>1970-01-01T00:55:55.000Z</time>
      </trkpt>
      <trkpt lat="42.319774" lon="3.314219">
        <ele>49</ele>
        <time>1970-01-01T00:55:56.000Z</time>
      </trkpt>
      <trkpt lat="42.319788" lon="3.314236">
        <ele>51</ele>
        <time>1970-01-01T00:55:57.000Z</time>
      </trkpt>
      <trkpt lat="42.319815" lon="3.314274">
        <ele>51</ele>
        <time>1970-01-01T00:55:58.000Z</time>
      </trkpt>
      <trkpt lat="42.319827" lon="3.314292">
        <ele>51</ele>
        <time>1970-01-01T00:55:59.000Z</time>
      </trkpt>
      <trkpt lat="42.319838" lon="3.314311">
        <ele>51</ele>
        <time>1970-01-01T00:56:00.000Z</time>
      </trkpt>
      <trkpt lat="42.319849" lon="3.314329">
        <ele>51</ele>
        <time>1970-01-01T00:56:01.000Z</time>
      </trkpt>
      <trkpt lat="42.319861" lon="3.314348">
        <ele>51</ele>
        <time>1970-01-01T00:56:02.000Z</time>
      </trkpt>
      <trkpt lat="42.319872" lon="3.314367">
        <ele>51</ele>
        <time>1970-01-01T00:56:03.000Z</time>
      </trkpt>
      <trkpt lat="42.319883" lon="3.314385">
        <ele>51</ele>
        <time>1970-01-01T00:56:04.000Z</time>
      </trkpt>
      <trkpt lat="42.319894" lon="3.314404">
        <ele>51</ele>
        <time>1970-01-01T00:56:05.000Z</time>
      </trkpt>
      <trkpt lat="42.319906" lon="3.314422">
        <ele>51</ele>
        <time>1970-01-01T00:56:06.000Z</time>
      </trkpt>
      <trkpt lat="42.319917" lon="3.314441">
        <ele>55</ele>
        <time>1970-01-01T00:56:07.000Z</time>
      </trkpt>
      <trkpt lat="42.319932" lon="3.314488">
        <ele>55</ele>
        <time>1970-01-01T00:56:08.000Z</time>
      </trkpt>
      <trkpt lat="42.319934" lon="3.314512">
        <ele>55</ele>
        <time>1970-01-01T00:56:09.000Z</time>
      </trkpt>
      <trkpt lat="42.319936" lon="3.314536">
        <ele>55</ele>
        <time>1970-01-01T00:56:10.000Z</time>
      </trkpt>
      <trkpt lat="42.319938" lon="3.31456">
        <ele>55</ele>
        <time>1970-01-01T00:56:11.000Z</time>
      </trkpt>
      <trkpt lat="42.319941" lon="3.314584">
        <ele>55</ele>
        <time>1970-01-01T00:56:12.000Z</time>
      </trkpt>
      <trkpt lat="42.319943" lon="3.314608">
        <ele>55</ele>
        <time>1970-01-01T00:56:13.000Z</time>
      </trkpt>
      <trkpt lat="42.319945" lon="3.314632">
        <ele>55</ele>
        <time>1970-01-01T00:56:14.000Z</time>
      </trkpt>
      <trkpt lat="42.319947" lon="3.314656">
        <ele>55</ele>
        <time>1970-01-01T00:56:15.000Z</time>
      </trkpt>
      <trkpt lat="42.319949" lon="3.31468">
        <ele>55</ele>
        <time>1970-01-01T00:56:16.000Z</time>
      </trkpt>
      <trkpt lat="42.319951" lon="3.314704">
        <ele>56</ele>
        <time>1970-01-01T00:56:17.000Z</time>
      </trkpt>
      <trkpt lat="42.319932" lon="3.314768">
        <ele>56</ele>
        <time>1970-01-01T00:56:19.000Z</time>
      </trkpt>
      <trkpt lat="42.31992" lon="3.314785">
        <ele>56</ele>
        <time>1970-01-01T00:56:20.000Z</time>
      </trkpt>
      <trkpt lat="42.319908" lon="3.314801">
        <ele>56</ele>
        <time>1970-01-01T00:56:21.000Z</time>
      </trkpt>
      <trkpt lat="42.319896" lon="3.314818">
        <ele>56</ele>
        <time>1970-01-01T00:56:22.000Z</time>
      </trkpt>
      <trkpt lat="42.319885" lon="3.314834">
        <ele>56</ele>
        <time>1970-01-01T00:56:23.000Z</time>
      </trkpt>
      <trkpt lat="42.319873" lon="3.314851">
        <ele>56</ele>
        <time>1970-01-01T00:56:24.000Z</time>
      </trkpt>
      <trkpt lat="42.319861" lon="3.314867">
        <ele>56</ele>
        <time>1970-01-01T00:56:25.000Z</time>
      </trkpt>
      <trkpt lat="42.319849" lon="3.314884">
        <ele>56</ele>
        <time>1970-01-01T00:56:26.000Z</time>
      </trkpt>
      <trkpt lat="42.319837" lon="3.3149">
        <ele>58</ele>
        <time>1970-01-01T00:56:27.000Z</time>
      </trkpt>
      <trkpt lat="42.3198" lon="3.314916">
        <ele>58</ele>
        <time>1970-01-01T00:56:28.000Z</time>
      </trkpt>
      <trkpt lat="42.319781" lon="3.314918">
        <ele>58</ele>
        <time>1970-01-01T00:56:29.000Z</time>
      </trkpt>
      <trkpt lat="42.319761" lon="3.314921">
        <ele>58</ele>
        <time>1970-01-01T00:56:30.000Z</time>
      </trkpt>
      <trkpt lat="42.319742" lon="3.314923">
        <ele>58</ele>
        <time>1970-01-01T00:56:31.000Z</time>
      </trkpt>
      <trkpt lat="42.319722" lon="3.314926">
        <ele>58</ele>
        <time>1970-01-01T00:56:32.000Z</time>
      </trkpt>
      <trkpt lat="42.319702" lon="3.314928">
        <ele>58</ele>
        <time>1970-01-01T00:56:33.000Z</time>
      </trkpt>
      <trkpt lat="42.319683" lon="3.314931">
        <ele>58</ele>
        <time>1970-01-01T00:56:34.000Z</time>
      </trkpt>
      <trkpt lat="42.319663" lon="3.314933">
        <ele>58</ele>
        <time>1970-01-01T00:56:35.000Z</time>
      </trkpt>
      <trkpt lat="42.319644" lon="3.314936">
        <ele>58</ele>
        <time>1970-01-01T00:56:36.000Z</time>
      </trkpt>
      <trkpt lat="42.319624" lon="3.314938">
        <ele>59</ele>
        <time>1970-01-01T00:56:37.000Z</time>
      </trkpt>
      <trkpt lat="42.319578" lon="3.314934">
        <ele>59</ele>
        <time>1970-01-01T00:56:38.000Z</time>
      </trkpt>
      <trkpt lat="42.319557" lon="3.314933">
        <ele>59</ele>
        <time>1970-01-01T00:56:39.000Z</time>
      </trkpt>
      <trkpt lat="42.319535" lon="3.314933">
        <ele>59</ele>
        <time>1970-01-01T00:56:40.000Z</time>
      </trkpt>
      <trkpt lat="42.319514" lon="3.314932">
        <ele>59</ele>
        <time>1970-01-01T00:56:41.000Z</time>
      </trkpt>
      <trkpt lat="42.319493" lon="3.314932">
        <ele>59</ele>
        <time>1970-01-01T00:56:42.000Z</time>
      </trkpt>
      <trkpt lat="42.319472" lon="3.314932">
        <ele>59</ele>
        <time>1970-01-01T00:56:43.000Z</time>
      </trkpt>
      <trkpt lat="42.319451" lon="3.314931">
        <ele>59</ele>
        <time>1970-01-01T00:56:44.000Z</time>
      </trkpt>
      <trkpt lat="42.319429" lon="3.314931">
        <ele>59</ele>
        <time>1970-01-01T00:56:45.000Z</time>
      </trkpt>
      <trkpt lat="42.319408" lon="3.31493">
        <ele>59</ele>
        <time>1970-01-01T00:56:46.000Z</time>
      </trkpt>
      <trkpt lat="42.319387" lon="3.31493">
        <ele>60</ele>
        <time>1970-01-01T00:56:47.000Z</time>
      </trkpt>
      <trkpt lat="42.319355" lon="3.314959">
        <ele>60</ele>
        <time>1970-01-01T00:56:48.000Z</time>
      </trkpt>
      <trkpt lat="42.319342" lon="3.31498">
        <ele>60</ele>
        <time>1970-01-01T00:56:49.000Z</time>
      </trkpt>
      <trkpt lat="42.31933" lon="3.315">
        <ele>60</ele>
        <time>1970-01-01T00:56:50.000Z</time>
      </trkpt>
      <trkpt lat="42.319318" lon="3.31502">
        <ele>60</ele>
        <time>1970-01-01T00:56:51.000Z</time>
      </trkpt>
      <trkpt lat="42.319306" lon="3.315041">
        <ele>60</ele>
        <time>1970-01-01T00:56:52.000Z</time>
      </trkpt>
      <trkpt lat="42.319293" lon="3.315061">
        <ele>60</ele>
        <time>1970-01-01T00:56:53.000Z</time>
      </trkpt>
      <trkpt lat="42.319281" lon="3.315081">
        <ele>60</ele>
        <time>1970-01-01T00:56:54.000Z</time>
      </trkpt>
      <trkpt lat="42.319269" lon="3.315101">
        <ele>60</ele>
        <time>1970-01-01T00:56:55.000Z</time>
      </trkpt>
      <trkpt lat="42.319256" lon="3.315122">
        <ele>60</ele>
        <time>1970-01-01T00:56:56.000Z</time>
      </trkpt>
      <trkpt lat="42.319244" lon="3.315142">
        <ele>62</ele>
        <time>1970-01-01T00:56:57.000Z</time>
      </trkpt>
      <trkpt lat="42.31924" lon="3.315198">
        <ele>62</ele>
        <time>1970-01-01T00:56:58.000Z</time>
      </trkpt>
      <trkpt lat="42.319243" lon="3.315225">
        <ele>62</ele>
        <time>1970-01-01T00:56:59.000Z</time>
      </trkpt>
      <trkpt lat="42.319247" lon="3.315251">
        <ele>62</ele>
        <time>1970-01-01T00:57:00.000Z</time>
      </trkpt>
      <trkpt lat="42.31925" lon="3.315278">
        <ele>62</ele>
        <time>1970-01-01T00:57:01.000Z</time>
      </trkpt>
      <trkpt lat="42.319253" lon="3.315305">
        <ele>62</ele>
        <time>1970-01-01T00:57:02.000Z</time>
      </trkpt>
      <trkpt lat="42.319256" lon="3.315332">
        <ele>62</ele>
        <time>1970-01-01T00:57:03.000Z</time>
      </trkpt>
      <trkpt lat="42.319259" lon="3.315359">
        <ele>62</ele>
        <time>1970-01-01T00:57:04.000Z</time>
      </trkpt>
      <trkpt lat="42.319263" lon="3.315385">
        <ele>62</ele>
        <time>1970-01-01T00:57:05.000Z</time>
      </trkpt>
      <trkpt lat="42.319266" lon="3.315412">
        <ele>62</ele>
        <time>1970-01-01T00:57:06.000Z</time>
      </trkpt>
      <trkpt lat="42.319269" lon="3.315439">
        <ele>63</ele>
        <time>1970-01-01T00:57:07.000Z</time>
      </trkpt>
      <trkpt lat="42.31928" lon="3.315495">
        <ele>63</ele>
        <time>1970-01-01T00:57:08.000Z</time>
      </trkpt>
      <trkpt lat="42.319283" lon="3.315522">
        <ele>63</ele>
        <time>1970-01-01T00:57:09.000Z</time>
      </trkpt>
      <trkpt lat="42.319285" lon="3.315549">
        <ele>63</ele>
        <time>1970-01-01T00:57:10.000Z</time>
      </trkpt>
      <trkpt lat="42.319288" lon="3.315576">
        <ele>63</ele>
        <time>1970-01-01T00:57:11.000Z</time>
      </trkpt>
      <trkpt lat="42.31929" lon="3.315603">
        <ele>63</ele>
        <time>1970-01-01T00:57:12.000Z</time>
      </trkpt>
      <trkpt lat="42.319292" lon="3.315631">
        <ele>63</ele>
        <time>1970-01-01T00:57:13.000Z</time>
      </trkpt>
      <trkpt lat="42.319295" lon="3.315658">
        <ele>63</ele>
        <time>1970-01-01T00:57:14.000Z</time>
      </trkpt>
      <trkpt lat="42.319297" lon="3.315685">
        <ele>63</ele>
        <time>1970-01-01T00:57:15.000Z</time>
      </trkpt>
      <trkpt lat="42.3193" lon="3.315712">
        <ele>63</ele>
        <time>1970-01-01T00:57:16.000Z</time>
      </trkpt>
      <trkpt lat="42.319302" lon="3.315739">
        <ele>66</ele>
        <time>1970-01-01T00:57:17.000Z</time>
      </trkpt>
      <trkpt lat="42.319298" lon="3.315794">
        <ele>66</ele>
        <time>1970-01-01T00:57:18.000Z</time>
      </trkpt>
      <trkpt lat="42.319295" lon="3.315818">
        <ele>66</ele>
        <time>1970-01-01T00:57:19.000Z</time>
      </trkpt>
      <trkpt lat="42.319293" lon="3.315841">
        <ele>66</ele>
        <time>1970-01-01T00:57:20.000Z</time>
      </trkpt>
      <trkpt lat="42.31929" lon="3.315865">
        <ele>66</ele>
        <time>1970-01-01T00:57:21.000Z</time>
      </trkpt>
      <trkpt lat="42.319287" lon="3.315889">
        <ele>66</ele>
        <time>1970-01-01T00:57:22.000Z</time>
      </trkpt>
      <trkpt lat="42.319284" lon="3.315913">
        <ele>66</ele>
        <time>1970-01-01T00:57:23.000Z</time>
      </trkpt>
      <trkpt lat="42.319281" lon="3.315937">
        <ele>66</ele>
        <time>1970-01-01T00:57:24.000Z</time>
      </trkpt>
      <trkpt lat="42.319279" lon="3.31596">
        <ele>66</ele>
        <time>1970-01-01T00:57:25.000Z</time>
      </trkpt>
      <trkpt lat="42.319276" lon="3.315984">
        <ele>66</ele>
        <time>1970-01-01T00:57:26.000Z</time>
      </trkpt>
      <trkpt lat="42.319273" lon="3.316008">
        <ele>68</ele>
        <time>1970-01-01T00:57:27.000Z</time>
      </trkpt>
      <trkpt lat="42.319242" lon="3.316036">
        <ele>68</ele>
        <time>1970-01-01T00:57:28.000Z</time>
      </trkpt>
      <trkpt lat="42.319226" lon="3.316047">
        <ele>68</ele>
        <time>1970-01-01T00:57:29.000Z</time>
      </trkpt>
      <trkpt lat="42.31921" lon="3.316059">
        <ele>68</ele>
        <time>1970-01-01T00:57:30.000Z</time>
      </trkpt>
      <trkpt lat="42.319194" lon="3.31607">
        <ele>68</ele>
        <time>1970-01-01T00:57:31.000Z</time>
      </trkpt>
      <trkpt lat="42.319178" lon="3.316081">
        <ele>68</ele>
        <time>1970-01-01T00:57:32.000Z</time>
      </trkpt>
      <trkpt lat="42.319162" lon="3.316092">
        <ele>68</ele>
        <time>1970-01-01T00:57:33.000Z</time>
      </trkpt>
      <trkpt lat="42.319146" lon="3.316103">
        <ele>68</ele>
        <time>1970-01-01T00:57:34.000Z</time>
      </trkpt>
      <trkpt lat="42.31913" lon="3.316114">
        <ele>68</ele>
        <time>1970-01-01T00:57:35.000Z</time>
      </trkpt>
      <trkpt lat="42.319114" lon="3.316126">
        <ele>68</ele>
        <time>1970-01-01T00:57:36.000Z</time>
      </trkpt>
      <trkpt lat="42.319098" lon="3.316137">
        <ele>68</ele>
        <time>1970-01-01T00:57:37.000Z</time>
      </trkpt>
      <trkpt lat="42.319082" lon="3.316148">
        <ele>68</ele>
        <time>1970-01-01T00:57:38.000Z</time>
      </trkpt>
      <trkpt lat="42.319046" lon="3.316159">
        <ele>68</ele>
        <time>1970-01-01T00:57:39.000Z</time>
      </trkpt>
      <trkpt lat="42.319027" lon="3.316159">
        <ele>68</ele>
        <time>1970-01-01T00:57:40.000Z</time>
      </trkpt>
      <trkpt lat="42.319009" lon="3.316159">
        <ele>68</ele>
        <time>1970-01-01T00:57:42.000Z</time>
      </trkpt>
      <trkpt lat="42.31899" lon="3.316158">
        <ele>68</ele>
        <time>1970-01-01T00:57:43.000Z</time>
      </trkpt>
      <trkpt lat="42.318972" lon="3.316158">
        <ele>68</ele>
        <time>1970-01-01T00:57:44.000Z</time>
      </trkpt>
      <trkpt lat="42.318954" lon="3.316158">
        <ele>68</ele>
        <time>1970-01-01T00:57:45.000Z</time>
      </trkpt>
      <trkpt lat="42.318935" lon="3.316158">
        <ele>68</ele>
        <time>1970-01-01T00:57:46.000Z</time>
      </trkpt>
      <trkpt lat="42.318917" lon="3.316158">
        <ele>72</ele>
        <time>1970-01-01T00:57:47.000Z</time>
      </trkpt>
      <trkpt lat="42.318881" lon="3.31615">
        <ele>72</ele>
        <time>1970-01-01T00:57:49.000Z</time>
      </trkpt>
      <trkpt lat="42.318848" lon="3.316145">
        <ele>72</ele>
        <time>1970-01-01T00:57:51.000Z</time>
      </trkpt>
      <trkpt lat="42.318811" lon="3.316139">
        <ele>72</ele>
        <time>1970-01-01T00:57:53.000Z</time>
      </trkpt>
      <trkpt lat="42.318781" lon="3.316131">
        <ele>72</ele>
        <time>1970-01-01T00:57:55.000Z</time>
      </trkpt>
      <trkpt lat="42.318781" lon="3.316131">
        <ele>73</ele>
        <time>1970-01-01T00:57:57.000Z</time>
      </trkpt>
      <trkpt lat="42.318777" lon="3.316128">
        <ele>73</ele>
        <time>1970-01-01T00:57:58.000Z</time>
      </trkpt>
      <trkpt lat="42.319" lon="3.316159">
        <ele>75</ele>
        <time>1970-01-01T00:00:00.000Z</time>
      </trkpt>
      <trkpt lat="42.319055" lon="3.316123">
        <ele>75</ele>
        <time>1970-01-01T00:00:06.000Z</time>
      </trkpt>
      <trkpt lat="42.319082" lon="3.316099">
        <ele>75</ele>
        <time>1970-01-01T00:00:08.000Z</time>
      </trkpt>
      <trkpt lat="42.319109" lon="3.316076">
        <ele>75</ele>
        <time>1970-01-01T00:00:09.000Z</time>
      </trkpt>
      <trkpt lat="42.319136" lon="3.316052">
        <ele>75</ele>
        <time>1970-01-01T00:00:10.000Z</time>
      </trkpt>
      <trkpt lat="42.319163" lon="3.316028">
        <ele>75</ele>
        <time>1970-01-01T00:00:11.000Z</time>
      </trkpt>
      <trkpt lat="42.31919" lon="3.316004">
        <ele>75</ele>
        <time>1970-01-01T00:00:12.000Z</time>
      </trkpt>
      <trkpt lat="42.319217" lon="3.315981">
        <ele>75</ele>
        <time>1970-01-01T00:00:13.000Z</time>
      </trkpt>
      <trkpt lat="42.319244" lon="3.315957">
        <ele>75</ele>
        <time>1970-01-01T00:00:14.000Z</time>
      </trkpt>
      <trkpt lat="42.319271" lon="3.315933">
        <ele>75</ele>
        <time>1970-01-01T00:00:15.000Z</time>
      </trkpt>
      <trkpt lat="42.31929" lon="3.315876">
        <ele>75</ele>
        <time>1970-01-01T00:00:16.000Z</time>
      </trkpt>
      <trkpt lat="42.319295" lon="3.315857">
        <ele>75</ele>
        <time>1970-01-01T00:00:17.000Z</time>
      </trkpt>
      <trkpt lat="42.319299" lon="3.315837">
        <ele>75</ele>
        <time>1970-01-01T00:00:18.000Z</time>
      </trkpt>
      <trkpt lat="42.319304" lon="3.315817">
        <ele>75</ele>
        <time>1970-01-01T00:00:19.000Z</time>
      </trkpt>
      <trkpt lat="42.319308" lon="3.315797">
        <ele>75</ele>
        <time>1970-01-01T00:00:21.000Z</time>
      </trkpt>
      <trkpt lat="42.319313" lon="3.315778">
        <ele>75</ele>
        <time>1970-01-01T00:00:24.000Z</time>
      </trkpt>
      <trkpt lat="42.319317" lon="3.315758">
        <ele>73</ele>
        <time>1970-01-01T00:00:25.000Z</time>
      </trkpt>
      <trkpt lat="42.319312" lon="3.315717">
        <ele>73</ele>
        <time>1970-01-01T00:00:27.000Z</time>
      </trkpt>
      <trkpt lat="42.319307" lon="3.315675">
        <ele>72</ele>
        <time>1970-01-01T00:01:05.000Z</time>
      </trkpt>
      <trkpt lat="42.319302" lon="3.315633">
        <ele>72</ele>
        <time>1970-01-01T00:01:06.000Z</time>
      </trkpt>
      <trkpt lat="42.319297" lon="3.315591">
        <ele>72</ele>
        <time>1970-01-01T00:01:07.000Z</time>
      </trkpt>
      <trkpt lat="42.319292" lon="3.315549">
        <ele>72</ele>
        <time>1970-01-01T00:01:08.000Z</time>
      </trkpt>
      <trkpt lat="42.319288" lon="3.315507">
        <ele>72</ele>
        <time>1970-01-01T00:01:09.000Z</time>
      </trkpt>
      <trkpt lat="42.319283" lon="3.315466">
        <ele>72</ele>
        <time>1970-01-01T00:01:10.000Z</time>
      </trkpt>
      <trkpt lat="42.319278" lon="3.315424">
        <ele>72</ele>
        <time>1970-01-01T00:01:11.000Z</time>
      </trkpt>
      <trkpt lat="42.319273" lon="3.315382">
        <ele>72</ele>
        <time>1970-01-01T00:01:12.000Z</time>
      </trkpt>
      <trkpt lat="42.319268" lon="3.31534">
        <ele>72</ele>
        <time>1970-01-01T00:01:13.000Z</time>
      </trkpt>
      <trkpt lat="42.319263" lon="3.315298">
        <ele>72</ele>
        <time>1970-01-01T00:01:14.000Z</time>
      </trkpt>
      <trkpt lat="42.319258" lon="3.315256">
        <ele>70</ele>
        <time>1970-01-01T00:01:15.000Z</time>
      </trkpt>
      <trkpt lat="42.319296" lon="3.315169">
        <ele>70</ele>
        <time>1970-01-01T00:01:16.000Z</time>
      </trkpt>
      <trkpt lat="42.319337" lon="3.315146">
        <ele>70</ele>
        <time>1970-01-01T00:01:17.000Z</time>
      </trkpt>
      <trkpt lat="42.319377" lon="3.315122">
        <ele>70</ele>
        <time>1970-01-01T00:01:18.000Z</time>
      </trkpt>
      <trkpt lat="42.319418" lon="3.315099">
        <ele>70</ele>
        <time>1970-01-01T00:01:19.000Z</time>
      </trkpt>
      <trkpt lat="42.319458" lon="3.315076">
        <ele>70</ele>
        <time>1970-01-01T00:01:20.000Z</time>
      </trkpt>
      <trkpt lat="42.319498" lon="3.315053">
        <ele>70</ele>
        <time>1970-01-01T00:01:21.000Z</time>
      </trkpt>
      <trkpt lat="42.319539" lon="3.31503">
        <ele>70</ele>
        <time>1970-01-01T00:01:22.000Z</time>
      </trkpt>
      <trkpt lat="42.319579" lon="3.315006">
        <ele>70</ele>
        <time>1970-01-01T00:01:23.000Z</time>
      </trkpt>
      <trkpt lat="42.31962" lon="3.314983">
        <ele>70</ele>
        <time>1970-01-01T00:01:24.000Z</time>
      </trkpt>
      <trkpt lat="42.31966" lon="3.31496">
        <ele>67</ele>
        <time>1970-01-01T00:01:25.000Z</time>
      </trkpt>
      <trkpt lat="42.319741" lon="3.314912">
        <ele>67</ele>
        <time>1970-01-01T00:01:26.000Z</time>
      </trkpt>
      <trkpt lat="42.319763" lon="3.314866">
        <ele>67</ele>
        <time>1970-01-01T00:01:27.000Z</time>
      </trkpt>
      <trkpt lat="42.319785" lon="3.314821">
        <ele>67</ele>
        <time>1970-01-01T00:01:28.000Z</time>
      </trkpt>
      <trkpt lat="42.319807" lon="3.314775">
        <ele>67</ele>
        <time>1970-01-01T00:01:29.000Z</time>
      </trkpt>
      <trkpt lat="42.319829" lon="3.314729">
        <ele>67</ele>
        <time>1970-01-01T00:01:30.000Z</time>
      </trkpt>
      <trkpt lat="42.31985" lon="3.314683">
        <ele>67</ele>
        <time>1970-01-01T00:01:31.000Z</time>
      </trkpt>
      <trkpt lat="42.319872" lon="3.314637">
        <ele>67</ele>
        <time>1970-01-01T00:01:32.000Z</time>
      </trkpt>
      <trkpt lat="42.319894" lon="3.314592">
        <ele>67</ele>
        <time>1970-01-01T00:01:33.000Z</time>
      </trkpt>
      <trkpt lat="42.319916" lon="3.314546">
        <ele>67</ele>
        <time>1970-01-01T00:01:34.000Z</time>
      </trkpt>
      <trkpt lat="42.319938" lon="3.3145">
        <ele>63</ele>
        <time>1970-01-01T00:01:35.000Z</time>
      </trkpt>
      <trkpt lat="42.319873" lon="3.314359">
        <ele>63</ele>
        <time>1970-01-01T00:01:36.000Z</time>
      </trkpt>
      <trkpt lat="42.31983" lon="3.3143">
        <ele>63</ele>
        <time>1970-01-01T00:01:37.000Z</time>
      </trkpt>
      <trkpt lat="42.319786" lon="3.31424">
        <ele>63</ele>
        <time>1970-01-01T00:01:38.000Z</time>
      </trkpt>
      <trkpt lat="42.319742" lon="3.31418">
        <ele>63</ele>
        <time>1970-01-01T00:01:39.000Z</time>
      </trkpt>
      <trkpt lat="42.319699" lon="3.314121">
        <ele>63</ele>
        <time>1970-01-01T00:01:40.000Z</time>
      </trkpt>
      <trkpt lat="42.319655" lon="3.314061">
        <ele>63</ele>
        <time>1970-01-01T00:01:41.000Z</time>
      </trkpt>
      <trkpt lat="42.319612" lon="3.314002">
        <ele>63</ele>
        <time>1970-01-01T00:01:42.000Z</time>
      </trkpt>
      <trkpt lat="42.319568" lon="3.313942">
        <ele>63</ele>
        <time>1970-01-01T00:01:43.000Z</time>
      </trkpt>
      <trkpt lat="42.319524" lon="3.313882">
        <ele>63</ele>
        <time>1970-01-01T00:01:44.000Z</time>
      </trkpt>
      <trkpt lat="42.319481" lon="3.313823">
        <ele>63</ele>
        <time>1970-01-01T00:01:45.000Z</time>
      </trkpt>
      <trkpt lat="42.319437" lon="3.313763">
        <ele>58</ele>
        <time>1970-01-01T00:01:46.000Z</time>
      </trkpt>
      <trkpt lat="42.319311" lon="3.313716">
        <ele>58</ele>
        <time>1970-01-01T00:01:47.000Z</time>
      </trkpt>
      <trkpt lat="42.319248" lon="3.313721">
        <ele>58</ele>
        <time>1970-01-01T00:01:48.000Z</time>
      </trkpt>
      <trkpt lat="42.319186" lon="3.313727">
        <ele>58</ele>
        <time>1970-01-01T00:01:49.000Z</time>
      </trkpt>
      <trkpt lat="42.319124" lon="3.313732">
        <ele>58</ele>
        <time>1970-01-01T00:01:50.000Z</time>
      </trkpt>
      <trkpt lat="42.319061" lon="3.313737">
        <ele>58</ele>
        <time>1970-01-01T00:01:51.000Z</time>
      </trkpt>
      <trkpt lat="42.318999" lon="3.313742">
        <ele>58</ele>
        <time>1970-01-01T00:01:52.000Z</time>
      </trkpt>
      <trkpt lat="42.318937" lon="3.313748">
        <ele>58</ele>
        <time>1970-01-01T00:01:53.000Z</time>
      </trkpt>
      <trkpt lat="42.318874" lon="3.313753">
        <ele>58</ele>
        <time>1970-01-01T00:01:54.000Z</time>
      </trkpt>
      <trkpt lat="42.318812" lon="3.313758">
        <ele>51</ele>
        <time>1970-01-01T00:01:55.000Z</time>
      </trkpt>
      <trkpt lat="42.318713" lon="3.313776">
        <ele>51</ele>
        <time>1970-01-01T00:01:56.000Z</time>
      </trkpt>
      <trkpt lat="42.318682" lon="3.313756">
        <ele>51</ele>
        <time>1970-01-01T00:01:57.000Z</time>
      </trkpt>
      <trkpt lat="42.31865" lon="3.313735">
        <ele>51</ele>
        <time>1970-01-01T00:01:58.000Z</time>
      </trkpt>
      <trkpt lat="42.318619" lon="3.313715">
        <ele>51</ele>
        <time>1970-01-01T00:01:59.000Z</time>
      </trkpt>
      <trkpt lat="42.318588" lon="3.313695">
        <ele>51</ele>
        <time>1970-01-01T00:02:00.000Z</time>
      </trkpt>
      <trkpt lat="42.318557" lon="3.313675">
        <ele>51</ele>
        <time>1970-01-01T00:02:01.000Z</time>
      </trkpt>
      <trkpt lat="42.318526" lon="3.313655">
        <ele>51</ele>
        <time>1970-01-01T00:02:02.000Z</time>
      </trkpt>
      <trkpt lat="42.318494" lon="3.313634">
        <ele>51</ele>
        <time>1970-01-01T00:02:03.000Z</time>
      </trkpt>
      <trkpt lat="42.318463" lon="3.313614">
        <ele>51</ele>
        <time>1970-01-01T00:02:04.000Z</time>
      </trkpt>
      <trkpt lat="42.318432" lon="3.313594">
        <ele>48</ele>
        <time>1970-01-01T00:02:05.000Z</time>
      </trkpt>
      <trkpt lat="42.318486" lon="3.313513">
        <ele>48</ele>
        <time>1970-01-01T00:02:06.000Z</time>
      </trkpt>
      <trkpt lat="42.31853" lon="3.313494">
        <ele>48</ele>
        <time>1970-01-01T00:02:07.000Z</time>
      </trkpt>
      <trkpt lat="42.318574" lon="3.313474">
        <ele>48</ele>
        <time>1970-01-01T00:02:08.000Z</time>
      </trkpt>
      <trkpt lat="42.318618" lon="3.313455">
        <ele>48</ele>
        <time>1970-01-01T00:02:09.000Z</time>
      </trkpt>
      <trkpt lat="42.318662" lon="3.313435">
        <ele>48</ele>
        <time>1970-01-01T00:02:10.000Z</time>
      </trkpt>
      <trkpt lat="42.318706" lon="3.313415">
        <ele>48</ele>
        <time>1970-01-01T00:02:11.000Z</time>
      </trkpt>
      <trkpt lat="42.31875" lon="3.313396">
        <ele>48</ele>
        <time>1970-01-01T00:02:12.000Z</time>
      </trkpt>
      <trkpt lat="42.318794" lon="3.313376">
        <ele>48</ele>
        <time>1970-01-01T00:02:13.000Z</time>
      </trkpt>
      <trkpt lat="42.318838" lon="3.313357">
        <ele>48</ele>
        <time>1970-01-01T00:02:14.000Z</time>
      </trkpt>
      <trkpt lat="42.318882" lon="3.313337">
        <ele>42</ele>
        <time>1970-01-01T00:02:15.000Z</time>
      </trkpt>
      <trkpt lat="42.318979" lon="3.313239">
        <ele>42</ele>
        <time>1970-01-01T00:02:16.000Z</time>
      </trkpt>
      <trkpt lat="42.319006" lon="3.313155">
        <ele>42</ele>
        <time>1970-01-01T00:02:17.000Z</time>
      </trkpt>
      <trkpt lat="42.319034" lon="3.31307">
        <ele>42</ele>
        <time>1970-01-01T00:02:18.000Z</time>
      </trkpt>
      <trkpt lat="42.319061" lon="3.312986">
        <ele>42</ele>
        <time>1970-01-01T00:02:19.000Z</time>
      </trkpt>
      <trkpt lat="42.319089" lon="3.312901">
        <ele>42</ele>
        <time>1970-01-01T00:02:20.000Z</time>
      </trkpt>
      <trkpt lat="42.319117" lon="3.312816">
        <ele>42</ele>
        <time>1970-01-01T00:02:21.000Z</time>
      </trkpt>
      <trkpt lat="42.319144" lon="3.312732">
        <ele>42</ele>
        <time>1970-01-01T00:02:22.000Z</time>
      </trkpt>
      <trkpt lat="42.319172" lon="3.312647">
        <ele>42</ele>
        <time>1970-01-01T00:02:23.000Z</time>
      </trkpt>
      <trkpt lat="42.319199" lon="3.312563">
        <ele>42</ele>
        <time>1970-01-01T00:02:24.000Z</time>
      </trkpt>
      <trkpt lat="42.319227" lon="3.312478">
        <ele>38</ele>
        <time>1970-01-01T00:02:25.000Z</time>
      </trkpt>
      <trkpt lat="42.319241" lon="3.312349">
        <ele>38</ele>
        <time>1970-01-01T00:02:26.000Z</time>
      </trkpt>
      <trkpt lat="42.319252" lon="3.312217">
        <ele>38</ele>
        <time>1970-01-01T00:02:27.000Z</time>
      </trkpt>
      <trkpt lat="42.319263" lon="3.312085">
        <ele>38</ele>
        <time>1970-01-01T00:02:28.000Z</time>
      </trkpt>
      <trkpt lat="42.319281" lon="3.311956">
        <ele>38</ele>
        <time>1970-01-01T00:02:29.000Z</time>
      </trkpt>
      <trkpt lat="42.319302" lon="3.311829">
        <ele>38</ele>
        <time>1970-01-01T00:02:30.000Z</time>
      </trkpt>
      <trkpt lat="42.319326" lon="3.311707">
        <ele>38</ele>
        <time>1970-01-01T00:02:31.000Z</time>
      </trkpt>
      <trkpt lat="42.319345" lon="3.311586">
        <ele>38</ele>
        <time>1970-01-01T00:02:32.000Z</time>
      </trkpt>
      <trkpt lat="42.319359" lon="3.31147">
        <ele>38</ele>
        <time>1970-01-01T00:02:33.000Z</time>
      </trkpt>
      <trkpt lat="42.319376" lon="3.311361">
        <ele>38</ele>
        <time>1970-01-01T00:02:34.000Z</time>
      </trkpt>
      <trkpt lat="42.319389" lon="3.31126">
        <ele>34</ele>
        <time>1970-01-01T00:02:35.000Z</time>
      </trkpt>
      <trkpt lat="42.31941" lon="3.311103">
        <ele>34</ele>
        <time>1970-01-01T00:02:36.000Z</time>
      </trkpt>
      <trkpt lat="42.319419" lon="3.311048">
        <ele>34</ele>
        <time>1970-01-01T00:02:37.000Z</time>
      </trkpt>
      <trkpt lat="42.319427" lon="3.310993">
        <ele>34</ele>
        <time>1970-01-01T00:02:38.000Z</time>
      </trkpt>
      <trkpt lat="42.319436" lon="3.310938">
        <ele>34</ele>
        <time>1970-01-01T00:02:39.000Z</time>
      </trkpt>
      <trkpt lat="42.319444" lon="3.310884">
        <ele>34</ele>
        <time>1970-01-01T00:02:40.000Z</time>
      </trkpt>
      <trkpt lat="42.319452" lon="3.310829">
        <ele>34</ele>
        <time>1970-01-01T00:02:41.000Z</time>
      </trkpt>
      <trkpt lat="42.319461" lon="3.310774">
        <ele>34</ele>
        <time>1970-01-01T00:02:42.000Z</time>
      </trkpt>
      <trkpt lat="42.319469" lon="3.310719">
        <ele>34</ele>
        <time>1970-01-01T00:02:43.000Z</time>
      </trkpt>
      <trkpt lat="42.319478" lon="3.310664">
        <ele>34</ele>
        <time>1970-01-01T00:02:44.000Z</time>
      </trkpt>
      <trkpt lat="42.319486" lon="3.310609">
        <ele>34</ele>
        <time>1970-01-01T00:02:45.000Z</time>
      </trkpt>
      <trkpt lat="42.31949" lon="3.310547">
        <ele>34</ele>
        <time>1970-01-01T00:02:46.000Z</time>
      </trkpt>
      <trkpt lat="42.319489" lon="3.310519">
        <ele>34</ele>
        <time>1970-01-01T00:02:47.000Z</time>
      </trkpt>
      <trkpt lat="42.319487" lon="3.31049">
        <ele>34</ele>
        <time>1970-01-01T00:02:48.000Z</time>
      </trkpt>
      <trkpt lat="42.319486" lon="3.310462">
        <ele>34</ele>
        <time>1970-01-01T00:02:49.000Z</time>
      </trkpt>
      <trkpt lat="42.319484" lon="3.310433">
        <ele>34</ele>
        <time>1970-01-01T00:02:50.000Z</time>
      </trkpt>
      <trkpt lat="42.319482" lon="3.310404">
        <ele>34</ele>
        <time>1970-01-01T00:02:51.000Z</time>
      </trkpt>
      <trkpt lat="42.319481" lon="3.310376">
        <ele>34</ele>
        <time>1970-01-01T00:02:52.000Z</time>
      </trkpt>
      <trkpt lat="42.319479" lon="3.310347">
        <ele>34</ele>
        <time>1970-01-01T00:02:53.000Z</time>
      </trkpt>
      <trkpt lat="42.319478" lon="3.310319">
        <ele>34</ele>
        <time>1970-01-01T00:02:54.000Z</time>
      </trkpt>
      <trkpt lat="42.319476" lon="3.31029">
        <ele>34</ele>
        <time>1970-01-01T00:02:55.000Z</time>
      </trkpt>
      <trkpt lat="42.319451" lon="3.310244">
        <ele>34</ele>
        <time>1970-01-01T00:02:56.000Z</time>
      </trkpt>
      <trkpt lat="42.319436" lon="3.310227">
        <ele>34</ele>
        <time>1970-01-01T00:02:57.000Z</time>
      </trkpt>
      <trkpt lat="42.319421" lon="3.310209">
        <ele>34</ele>
        <time>1970-01-01T00:02:58.000Z</time>
      </trkpt>
      <trkpt lat="42.319406" lon="3.310192">
        <ele>34</ele>
        <time>1970-01-01T00:02:59.000Z</time>
      </trkpt>
      <trkpt lat="42.319392" lon="3.310175">
        <ele>34</ele>
        <time>1970-01-01T00:03:00.000Z</time>
      </trkpt>
      <trkpt lat="42.319377" lon="3.310158">
        <ele>34</ele>
        <time>1970-01-01T00:03:01.000Z</time>
      </trkpt>
      <trkpt lat="42.319362" lon="3.310141">
        <ele>34</ele>
        <time>1970-01-01T00:03:02.000Z</time>
      </trkpt>
      <trkpt lat="42.319347" lon="3.310123">
        <ele>34</ele>
        <time>1970-01-01T00:03:03.000Z</time>
      </trkpt>
      <trkpt lat="42.319332" lon="3.310106">
        <ele>34</ele>
        <time>1970-01-01T00:03:04.000Z</time>
      </trkpt>
      <trkpt lat="42.319317" lon="3.310089">
        <ele>35</ele>
        <time>1970-01-01T00:03:05.000Z</time>
      </trkpt>
      <trkpt lat="42.319276" lon="3.310079">
        <ele>35</ele>
        <time>1970-01-01T00:03:06.000Z</time>
      </trkpt>
      <trkpt lat="42.319257" lon="3.310076">
        <ele>35</ele>
        <time>1970-01-01T00:03:07.000Z</time>
      </trkpt>
      <trkpt lat="42.319239" lon="3.310074">
        <ele>35</ele>
        <time>1970-01-01T00:03:08.000Z</time>
      </trkpt>
      <trkpt lat="42.31922" lon="3.310071">
        <ele>35</ele>
        <time>1970-01-01T00:03:09.000Z</time>
      </trkpt>
      <trkpt lat="42.319202" lon="3.310068">
        <ele>35</ele>
        <time>1970-01-01T00:03:10.000Z</time>
      </trkpt>
      <trkpt lat="42.319183" lon="3.310065">
        <ele>35</ele>
        <time>1970-01-01T00:03:11.000Z</time>
      </trkpt>
      <trkpt lat="42.319165" lon="3.310062">
        <ele>35</ele>
        <time>1970-01-01T00:03:12.000Z</time>
      </trkpt>
      <trkpt lat="42.319146" lon="3.31006">
        <ele>35</ele>
        <time>1970-01-01T00:03:13.000Z</time>
      </trkpt>
      <trkpt lat="42.319128" lon="3.310057">
        <ele>35</ele>
        <time>1970-01-01T00:03:14.000Z</time>
      </trkpt>
      <trkpt lat="42.319109" lon="3.310054">
        <ele>37</ele>
        <time>1970-01-01T00:03:15.000Z</time>
      </trkpt>
      <trkpt lat="42.319073" lon="3.310056">
        <ele>37</ele>
        <time>1970-01-01T00:03:16.000Z</time>
      </trkpt>
      <trkpt lat="42.319055" lon="3.310057">
        <ele>37</ele>
        <time>1970-01-01T00:03:17.000Z</time>
      </trkpt>
      <trkpt lat="42.319038" lon="3.310059">
        <ele>37</ele>
        <time>1970-01-01T00:03:18.000Z</time>
      </trkpt>
      <trkpt lat="42.319021" lon="3.310061">
        <ele>37</ele>
        <time>1970-01-01T00:03:19.000Z</time>
      </trkpt>
      <trkpt lat="42.319004" lon="3.310063">
        <ele>37</ele>
        <time>1970-01-01T00:03:20.000Z</time>
      </trkpt>
      <trkpt lat="42.318986" lon="3.310064">
        <ele>37</ele>
        <time>1970-01-01T00:03:21.000Z</time>
      </trkpt>
      <trkpt lat="42.318969" lon="3.310066">
        <ele>37</ele>
        <time>1970-01-01T00:03:22.000Z</time>
      </trkpt>
      <trkpt lat="42.318952" lon="3.310068">
        <ele>37</ele>
        <time>1970-01-01T00:03:23.000Z</time>
      </trkpt>
      <trkpt lat="42.318934" lon="3.310069">
        <ele>37</ele>
        <time>1970-01-01T00:03:24.000Z</time>
      </trkpt>
      <trkpt lat="42.318917" lon="3.310071">
        <ele>39</ele>
        <time>1970-01-01T00:03:25.000Z</time>
      </trkpt>
      <trkpt lat="42.318866" lon="3.310065">
        <ele>39</ele>
        <time>1970-01-01T00:03:27.000Z</time>
      </trkpt>
      <trkpt lat="42.318851" lon="3.310057">
        <ele>39</ele>
        <time>1970-01-01T00:03:28.000Z</time>
      </trkpt>
      <trkpt lat="42.318836" lon="3.310048">
        <ele>39</ele>
        <time>1970-01-01T00:03:29.000Z</time>
      </trkpt>
      <trkpt lat="42.318821" lon="3.31004">
        <ele>39</ele>
        <time>1970-01-01T00:03:30.000Z</time>
      </trkpt>
      <trkpt lat="42.318807" lon="3.310031">
        <ele>39</ele>
        <time>1970-01-01T00:03:31.000Z</time>
      </trkpt>
      <trkpt lat="42.318792" lon="3.310023">
        <ele>39</ele>
        <time>1970-01-01T00:03:32.000Z</time>
      </trkpt>
      <trkpt lat="42.318777" lon="3.310014">
        <ele>39</ele>
        <time>1970-01-01T00:03:33.000Z</time>
      </trkpt>
      <trkpt lat="42.318762" lon="3.310006">
        <ele>39</ele>
        <time>1970-01-01T00:03:34.000Z</time>
      </trkpt>
      <trkpt lat="42.318747" lon="3.309997">
        <ele>41</ele>
        <time>1970-01-01T00:03:35.000Z</time>
      </trkpt>
      <trkpt lat="42.318732" lon="3.309957">
        <ele>41</ele>
        <time>1970-01-01T00:03:36.000Z</time>
      </trkpt>
      <trkpt lat="42.31873" lon="3.309935">
        <ele>41</ele>
        <time>1970-01-01T00:03:37.000Z</time>
      </trkpt>
      <trkpt lat="42.318729" lon="3.309913">
        <ele>41</ele>
        <time>1970-01-01T00:03:38.000Z</time>
      </trkpt>
      <trkpt lat="42.318727" lon="3.309891">
        <ele>41</ele>
        <time>1970-01-01T00:03:39.000Z</time>
      </trkpt>
      <trkpt lat="42.318725" lon="3.309869">
        <ele>41</ele>
        <time>1970-01-01T00:03:40.000Z</time>
      </trkpt>
      <trkpt lat="42.318723" lon="3.309848">
        <ele>41</ele>
        <time>1970-01-01T00:03:41.000Z</time>
      </trkpt>
      <trkpt lat="42.318721" lon="3.309826">
        <ele>41</ele>
        <time>1970-01-01T00:03:42.000Z</time>
      </trkpt>
      <trkpt lat="42.31872" lon="3.309804">
        <ele>41</ele>
        <time>1970-01-01T00:03:43.000Z</time>
      </trkpt>
      <trkpt lat="42.318718" lon="3.309782">
        <ele>41</ele>
        <time>1970-01-01T00:03:44.000Z</time>
      </trkpt>
      <trkpt lat="42.318716" lon="3.30976">
        <ele>43</ele>
        <time>1970-01-01T00:03:45.000Z</time>
      </trkpt>
      <trkpt lat="42.318731" lon="3.309716">
        <ele>43</ele>
        <time>1970-01-01T00:03:46.000Z</time>
      </trkpt>
      <trkpt lat="42.318739" lon="3.309696">
        <ele>43</ele>
        <time>1970-01-01T00:03:47.000Z</time>
      </trkpt>
      <trkpt lat="42.318748" lon="3.309677">
        <ele>43</ele>
        <time>1970-01-01T00:03:48.000Z</time>
      </trkpt>
      <trkpt lat="42.318756" lon="3.309657">
        <ele>43</ele>
        <time>1970-01-01T00:03:49.000Z</time>
      </trkpt>
      <trkpt lat="42.318765" lon="3.309638">
        <ele>43</ele>
        <time>1970-01-01T00:03:50.000Z</time>
      </trkpt>
      <trkpt lat="42.318773" lon="3.309619">
        <ele>43</ele>
        <time>1970-01-01T00:03:51.000Z</time>
      </trkpt>
      <trkpt lat="42.318782" lon="3.309599">
        <ele>43</ele>
        <time>1970-01-01T00:03:52.000Z</time>
      </trkpt>
      <trkpt lat="42.31879" lon="3.30958">
        <ele>43</ele>
        <time>1970-01-01T00:03:53.000Z</time>
      </trkpt>
      <trkpt lat="42.318799" lon="3.30956">
        <ele>43</ele>
        <time>1970-01-01T00:03:54.000Z</time>
      </trkpt>
      <trkpt lat="42.318807" lon="3.309541">
        <ele>44</ele>
        <time>1970-01-01T00:03:55.000Z</time>
      </trkpt>
      <trkpt lat="42.318839" lon="3.309512">
        <ele>44</ele>
        <time>1970-01-01T00:03:56.000Z</time>
      </trkpt>
      <trkpt lat="42.31886" lon="3.3095">
        <ele>44</ele>
        <time>1970-01-01T00:03:58.000Z</time>
      </trkpt>
      <trkpt lat="42.31888" lon="3.309488">
        <ele>44</ele>
        <time>1970-01-01T00:04:00.000Z</time>
      </trkpt>
      <trkpt lat="42.3189" lon="3.309477">
        <ele>44</ele>
        <time>1970-01-01T00:04:02.000Z</time>
      </trkpt>
      <trkpt lat="42.31892" lon="3.309465">
        <ele>44</ele>
        <time>1970-01-01T00:04:03.000Z</time>
      </trkpt>
      <trkpt lat="42.318941" lon="3.309453">
        <ele>44</ele>
        <time>1970-01-01T00:04:04.000Z</time>
      </trkpt>
      <trkpt lat="42.318961" lon="3.309441">
        <ele>46</ele>
        <time>1970-01-01T00:04:05.000Z</time>
      </trkpt>
      <trkpt lat="42.319001" lon="3.309421">
        <ele>46</ele>
        <time>1970-01-01T00:04:06.000Z</time>
      </trkpt>
      <trkpt lat="42.319025" lon="3.309411">
        <ele>46</ele>
        <time>1970-01-01T00:04:08.000Z</time>
      </trkpt>
      <trkpt lat="42.31905" lon="3.309401">
        <ele>46</ele>
        <time>1970-01-01T00:04:10.000Z</time>
      </trkpt>
      <trkpt lat="42.319074" lon="3.30939">
        <ele>46</ele>
        <time>1970-01-01T00:04:12.000Z</time>
      </trkpt>
      <trkpt lat="42.319099" lon="3.30938">
        <ele>46</ele>
        <time>1970-01-01T00:04:14.000Z</time>
      </trkpt>
      <trkpt lat="42.319123" lon="3.30937">
        <ele>47</ele>
        <time>1970-01-01T00:04:15.000Z</time>
      </trkpt>
      <trkpt lat="42.319155" lon="3.309355">
        <ele>47</ele>
        <time>1970-01-01T00:04:16.000Z</time>
      </trkpt>
      <trkpt lat="42.319171" lon="3.309347">
        <ele>47</ele>
        <time>1970-01-01T00:04:17.000Z</time>
      </trkpt>
      <trkpt lat="42.319186" lon="3.309339">
        <ele>47</ele>
        <time>1970-01-01T00:04:18.000Z</time>
      </trkpt>
      <trkpt lat="42.319202" lon="3.309331">
        <ele>47</ele>
        <time>1970-01-01T00:04:19.000Z</time>
      </trkpt>
      <trkpt lat="42.319218" lon="3.309323">
        <ele>47</ele>
        <time>1970-01-01T00:04:20.000Z</time>
      </trkpt>
      <trkpt lat="42.319234" lon="3.309314">
        <ele>47</ele>
        <time>1970-01-01T00:04:21.000Z</time>
      </trkpt>
      <trkpt lat="42.31925" lon="3.309306">
        <ele>47</ele>
        <time>1970-01-01T00:04:22.000Z</time>
      </trkpt>
      <trkpt lat="42.319265" lon="3.309298">
        <ele>47</ele>
        <time>1970-01-01T00:04:23.000Z</time>
      </trkpt>
      <trkpt lat="42.319281" lon="3.30929">
        <ele>47</ele>
        <time>1970-01-01T00:04:24.000Z</time>
      </trkpt>
      <trkpt lat="42.319297" lon="3.309282">
        <ele>48</ele>
        <time>1970-01-01T00:04:25.000Z</time>
      </trkpt>
      <trkpt lat="42.319354" lon="3.309253">
        <ele>48</ele>
        <time>1970-01-01T00:04:27.000Z</time>
      </trkpt>
      <trkpt lat="42.319378" lon="3.309239">
        <ele>48</ele>
        <time>1970-01-01T00:04:29.000Z</time>
      </trkpt>
      <trkpt lat="42.319401" lon="3.309225">
        <ele>48</ele>
        <time>1970-01-01T00:04:31.000Z</time>
      </trkpt>
      <trkpt lat="42.319425" lon="3.309211">
        <ele>48</ele>
        <time>1970-01-01T00:04:33.000Z</time>
      </trkpt>
      <trkpt lat="42.319448" lon="3.309197">
        <ele>50</ele>
        <time>1970-01-01T00:04:35.000Z</time>
      </trkpt>
      <trkpt lat="42.319471" lon="3.309172">
        <ele>50</ele>
        <time>1970-01-01T00:04:37.000Z</time>
      </trkpt>
      <trkpt lat="42.319501" lon="3.309152">
        <ele>50</ele>
        <time>1970-01-01T00:04:39.000Z</time>
      </trkpt>
      <trkpt lat="42.319528" lon="3.309129">
        <ele>50</ele>
        <time>1970-01-01T00:04:41.000Z</time>
      </trkpt>
      <trkpt lat="42.319555" lon="3.309108">
        <ele>50</ele>
        <time>1970-01-01T00:04:43.000Z</time>
      </trkpt>
      <trkpt lat="42.319569" lon="3.309081">
        <ele>51</ele>
        <time>1970-01-01T00:04:45.000Z</time>
      </trkpt>
      <trkpt lat="42.319585" lon="3.309058">
        <ele>51</ele>
        <time>1970-01-01T00:04:47.000Z</time>
      </trkpt>
      <trkpt lat="42.319608" lon="3.309035">
        <ele>51</ele>
        <time>1970-01-01T00:04:49.000Z</time>
      </trkpt>
      <trkpt lat="42.319628" lon="3.309005">
        <ele>51</ele>
        <time>1970-01-01T00:04:51.000Z</time>
      </trkpt>
      <trkpt lat="42.319653" lon="3.308973">
        <ele>51</ele>
        <time>1970-01-01T00:04:53.000Z</time>
      </trkpt>
      <trkpt lat="42.319679" lon="3.308942">
        <ele>53</ele>
        <time>1970-01-01T00:04:55.000Z</time>
      </trkpt>
      <trkpt lat="42.319714" lon="3.308876">
        <ele>53</ele>
        <time>1970-01-01T00:04:57.000Z</time>
      </trkpt>
      <trkpt lat="42.319728" lon="3.308844">
        <ele>53</ele>
        <time>1970-01-01T00:04:59.000Z</time>
      </trkpt>
      <trkpt lat="42.319743" lon="3.308812">
        <ele>53</ele>
        <time>1970-01-01T00:05:01.000Z</time>
      </trkpt>
      <trkpt lat="42.319757" lon="3.30878">
        <ele>53</ele>
        <time>1970-01-01T00:05:03.000Z</time>
      </trkpt>
      <trkpt lat="42.319772" lon="3.308748">
        <ele>55</ele>
        <time>1970-01-01T00:05:05.000Z</time>
      </trkpt>
      <trkpt lat="42.319799" lon="3.308677">
        <ele>55</ele>
        <time>1970-01-01T00:05:07.000Z</time>
      </trkpt>
      <trkpt lat="42.319807" lon="3.308648">
        <ele>55</ele>
        <time>1970-01-01T00:05:08.000Z</time>
      </trkpt>
      <trkpt lat="42.319816" lon="3.308618">
        <ele>55</ele>
        <time>1970-01-01T00:05:09.000Z</time>
      </trkpt>
      <trkpt lat="42.319824" lon="3.308588">
        <ele>55</ele>
        <time>1970-01-01T00:05:11.000Z</time>
      </trkpt>
      <trkpt lat="42.319833" lon="3.308559">
        <ele>55</ele>
        <time>1970-01-01T00:05:13.000Z</time>
      </trkpt>
      <trkpt lat="42.319841" lon="3.308529">
        <ele>56</ele>
        <time>1970-01-01T00:05:15.000Z</time>
      </trkpt>
      <trkpt lat="42.31986" lon="3.308453">
        <ele>56</ele>
        <time>1970-01-01T00:05:17.000Z</time>
      </trkpt>
      <trkpt lat="42.319865" lon="3.308418">
        <ele>56</ele>
        <time>1970-01-01T00:05:19.000Z</time>
      </trkpt>
      <trkpt lat="42.319869" lon="3.308382">
        <ele>56</ele>
        <time>1970-01-01T00:05:21.000Z</time>
      </trkpt>
      <trkpt lat="42.319874" lon="3.308347">
        <ele>56</ele>
        <time>1970-01-01T00:05:23.000Z</time>
      </trkpt>
      <trkpt lat="42.319879" lon="3.308311">
        <ele>57</ele>
        <time>1970-01-01T00:05:25.000Z</time>
      </trkpt>
      <trkpt lat="42.319885" lon="3.308237">
        <ele>57</ele>
        <time>1970-01-01T00:05:27.000Z</time>
      </trkpt>
      <trkpt lat="42.319885" lon="3.308207">
        <ele>57</ele>
        <time>1970-01-01T00:05:29.000Z</time>
      </trkpt>
      <trkpt lat="42.319885" lon="3.308176">
        <ele>57</ele>
        <time>1970-01-01T00:05:31.000Z</time>
      </trkpt>
      <trkpt lat="42.319885" lon="3.308145">
        <ele>57</ele>
        <time>1970-01-01T00:05:33.000Z</time>
      </trkpt>
      <trkpt lat="42.319885" lon="3.308115">
        <ele>57</ele>
        <time>1970-01-01T00:05:34.000Z</time>
      </trkpt>
      <trkpt lat="42.319885" lon="3.308084">
        <ele>59</ele>
        <time>1970-01-01T00:05:35.000Z</time>
      </trkpt>
      <trkpt lat="42.319881" lon="3.308005">
        <ele>59</ele>
        <time>1970-01-01T00:05:37.000Z</time>
      </trkpt>
      <trkpt lat="42.319877" lon="3.307973">
        <ele>59</ele>
        <time>1970-01-01T00:05:39.000Z</time>
      </trkpt>
      <trkpt lat="42.319874" lon="3.307942">
        <ele>59</ele>
        <time>1970-01-01T00:05:41.000Z</time>
      </trkpt>
      <trkpt lat="42.319871" lon="3.307911">
        <ele>59</ele>
        <time>1970-01-01T00:05:42.000Z</time>
      </trkpt>
      <trkpt lat="42.319867" lon="3.307879">
        <ele>59</ele>
        <time>1970-01-01T00:05:43.000Z</time>
      </trkpt>
      <trkpt lat="42.319864" lon="3.307848">
        <ele>60</ele>
        <time>1970-01-01T00:05:45.000Z</time>
      </trkpt>
      <trkpt lat="42.319853" lon="3.307803">
        <ele>60</ele>
        <time>1970-01-01T00:05:47.000Z</time>
      </trkpt>
      <trkpt lat="42.31984" lon="3.307758">
        <ele>60</ele>
        <time>1970-01-01T00:05:49.000Z</time>
      </trkpt>
      <trkpt lat="42.319834" lon="3.307734">
        <ele>60</ele>
        <time>1970-01-01T00:05:50.000Z</time>
      </trkpt>
      <trkpt lat="42.319831" lon="3.30771">
        <ele>60</ele>
        <time>1970-01-01T00:05:51.000Z</time>
      </trkpt>
      <trkpt lat="42.31983" lon="3.307686">
        <ele>60</ele>
        <time>1970-01-01T00:05:52.000Z</time>
      </trkpt>
      <trkpt lat="42.319828" lon="3.307662">
        <ele>60</ele>
        <time>1970-01-01T00:05:53.000Z</time>
      </trkpt>
      <trkpt lat="42.319821" lon="3.307615">
        <ele>63</ele>
        <time>1970-01-01T00:05:55.000Z</time>
      </trkpt>
      <trkpt lat="42.319808" lon="3.307546">
        <ele>63</ele>
        <time>1970-01-01T00:05:57.000Z</time>
      </trkpt>
      <trkpt lat="42.319804" lon="3.307524">
        <ele>63</ele>
        <time>1970-01-01T00:05:58.000Z</time>
      </trkpt>
      <trkpt lat="42.319799" lon="3.307501">
        <ele>63</ele>
        <time>1970-01-01T00:05:59.000Z</time>
      </trkpt>
      <trkpt lat="42.319794" lon="3.307479">
        <ele>63</ele>
        <time>1970-01-01T00:06:00.000Z</time>
      </trkpt>
      <trkpt lat="42.31979" lon="3.307457">
        <ele>63</ele>
        <time>1970-01-01T00:06:01.000Z</time>
      </trkpt>
      <trkpt lat="42.319785" lon="3.307435">
        <ele>63</ele>
        <time>1970-01-01T00:06:02.000Z</time>
      </trkpt>
      <trkpt lat="42.31978" lon="3.307412">
        <ele>63</ele>
        <time>1970-01-01T00:06:03.000Z</time>
      </trkpt>
      <trkpt lat="42.319776" lon="3.30739">
        <ele>63</ele>
        <time>1970-01-01T00:06:04.000Z</time>
      </trkpt>
      <trkpt lat="42.319771" lon="3.307368">
        <ele>63</ele>
        <time>1970-01-01T00:06:05.000Z</time>
      </trkpt>
      <trkpt lat="42.319762" lon="3.307319">
        <ele>63</ele>
        <time>1970-01-01T00:06:06.000Z</time>
      </trkpt>
      <trkpt lat="42.319758" lon="3.307297">
        <ele>63</ele>
        <time>1970-01-01T00:06:07.000Z</time>
      </trkpt>
      <trkpt lat="42.319754" lon="3.307274">
        <ele>63</ele>
        <time>1970-01-01T00:06:08.000Z</time>
      </trkpt>
      <trkpt lat="42.31975" lon="3.307251">
        <ele>63</ele>
        <time>1970-01-01T00:06:09.000Z</time>
      </trkpt>
      <trkpt lat="42.319746" lon="3.307228">
        <ele>63</ele>
        <time>1970-01-01T00:06:10.000Z</time>
      </trkpt>
      <trkpt lat="42.319741" lon="3.307206">
        <ele>63</ele>
        <time>1970-01-01T00:06:11.000Z</time>
      </trkpt>
      <trkpt lat="42.319737" lon="3.307183">
        <ele>63</ele>
        <time>1970-01-01T00:06:12.000Z</time>
      </trkpt>
      <trkpt lat="42.319733" lon="3.30716">
        <ele>63</ele>
        <time>1970-01-01T00:06:13.000Z</time>
      </trkpt>
      <trkpt lat="42.319729" lon="3.307138">
        <ele>63</ele>
        <time>1970-01-01T00:06:14.000Z</time>
      </trkpt>
      <trkpt lat="42.319725" lon="3.307115">
        <ele>64</ele>
        <time>1970-01-01T00:06:15.000Z</time>
      </trkpt>
      <trkpt lat="42.319713" lon="3.307046">
        <ele>64</ele>
        <time>1970-01-01T00:06:17.000Z</time>
      </trkpt>
      <trkpt lat="42.319708" lon="3.307023">
        <ele>64</ele>
        <time>1970-01-01T00:06:18.000Z</time>
      </trkpt>
      <trkpt lat="42.319704" lon="3.307001">
        <ele>64</ele>
        <time>1970-01-01T00:06:19.000Z</time>
      </trkpt>
      <trkpt lat="42.3197" lon="3.306979">
        <ele>64</ele>
        <time>1970-01-01T00:06:20.000Z</time>
      </trkpt>
      <trkpt lat="42.319695" lon="3.306956">
        <ele>64</ele>
        <time>1970-01-01T00:06:21.000Z</time>
      </trkpt>
      <trkpt lat="42.319691" lon="3.306934">
        <ele>64</ele>
        <time>1970-01-01T00:06:22.000Z</time>
      </trkpt>
      <trkpt lat="42.319687" lon="3.306912">
        <ele>64</ele>
        <time>1970-01-01T00:06:23.000Z</time>
      </trkpt>
      <trkpt lat="42.319682" lon="3.306889">
        <ele>64</ele>
        <time>1970-01-01T00:06:24.000Z</time>
      </trkpt>
      <trkpt lat="42.319678" lon="3.306867">
        <ele>65</ele>
        <time>1970-01-01T00:06:25.000Z</time>
      </trkpt>
      <trkpt lat="42.319667" lon="3.306818">
        <ele>65</ele>
        <time>1970-01-01T00:06:26.000Z</time>
      </trkpt>
      <trkpt lat="42.319663" lon="3.306794">
        <ele>65</ele>
        <time>1970-01-01T00:06:27.000Z</time>
      </trkpt>
      <trkpt lat="42.319658" lon="3.306771">
        <ele>65</ele>
        <time>1970-01-01T00:06:28.000Z</time>
      </trkpt>
      <trkpt lat="42.319654" lon="3.306747">
        <ele>65</ele>
        <time>1970-01-01T00:06:29.000Z</time>
      </trkpt>
      <trkpt lat="42.319649" lon="3.306724">
        <ele>65</ele>
        <time>1970-01-01T00:06:30.000Z</time>
      </trkpt>
      <trkpt lat="42.319644" lon="3.306701">
        <ele>65</ele>
        <time>1970-01-01T00:06:31.000Z</time>
      </trkpt>
      <trkpt lat="42.31964" lon="3.306677">
        <ele>65</ele>
        <time>1970-01-01T00:06:32.000Z</time>
      </trkpt>
      <trkpt lat="42.319635" lon="3.306654">
        <ele>65</ele>
        <time>1970-01-01T00:06:33.000Z</time>
      </trkpt>
      <trkpt lat="42.319631" lon="3.30663">
        <ele>65</ele>
        <time>1970-01-01T00:06:34.000Z</time>
      </trkpt>
      <trkpt lat="42.319626" lon="3.306607">
        <ele>66</ele>
        <time>1970-01-01T00:06:35.000Z</time>
      </trkpt>
      <trkpt lat="42.319616" lon="3.306559">
        <ele>66</ele>
        <time>1970-01-01T00:06:36.000Z</time>
      </trkpt>
      <trkpt lat="42.319612" lon="3.306536">
        <ele>66</ele>
        <time>1970-01-01T00:06:37.000Z</time>
      </trkpt>
      <trkpt lat="42.319608" lon="3.306512">
        <ele>66</ele>
        <time>1970-01-01T00:06:38.000Z</time>
      </trkpt>
      <trkpt lat="42.319604" lon="3.306488">
        <ele>66</ele>
        <time>1970-01-01T00:06:39.000Z</time>
      </trkpt>
      <trkpt lat="42.319601" lon="3.306464">
        <ele>66</ele>
        <time>1970-01-01T00:06:40.000Z</time>
      </trkpt>
      <trkpt lat="42.319597" lon="3.306441">
        <ele>66</ele>
        <time>1970-01-01T00:06:41.000Z</time>
      </trkpt>
      <trkpt lat="42.319593" lon="3.306417">
        <ele>66</ele>
        <time>1970-01-01T00:06:42.000Z</time>
      </trkpt>
      <trkpt lat="42.319589" lon="3.306393">
        <ele>66</ele>
        <time>1970-01-01T00:06:43.000Z</time>
      </trkpt>
      <trkpt lat="42.319585" lon="3.30637">
        <ele>66</ele>
        <time>1970-01-01T00:06:44.000Z</time>
      </trkpt>
      <trkpt lat="42.319581" lon="3.306346">
        <ele>68</ele>
        <time>1970-01-01T00:06:45.000Z</time>
      </trkpt>
      <trkpt lat="42.31957" lon="3.306295">
        <ele>68</ele>
        <time>1970-01-01T00:06:46.000Z</time>
      </trkpt>
      <trkpt lat="42.319566" lon="3.306271">
        <ele>68</ele>
        <time>1970-01-01T00:06:47.000Z</time>
      </trkpt>
      <trkpt lat="42.319561" lon="3.306246">
        <ele>68</ele>
        <time>1970-01-01T00:06:48.000Z</time>
      </trkpt>
      <trkpt lat="42.319557" lon="3.306222">
        <ele>68</ele>
        <time>1970-01-01T00:06:49.000Z</time>
      </trkpt>
      <trkpt lat="42.319552" lon="3.306197">
        <ele>68</ele>
        <time>1970-01-01T00:06:50.000Z</time>
      </trkpt>
      <trkpt lat="42.319547" lon="3.306173">
        <ele>68</ele>
        <time>1970-01-01T00:06:51.000Z</time>
      </trkpt>
      <trkpt lat="42.319543" lon="3.306148">
        <ele>68</ele>
        <time>1970-01-01T00:06:52.000Z</time>
      </trkpt>
      <trkpt lat="42.319538" lon="3.306124">
        <ele>68</ele>
        <time>1970-01-01T00:06:53.000Z</time>
      </trkpt>
      <trkpt lat="42.319534" lon="3.306099">
        <ele>68</ele>
        <time>1970-01-01T00:06:54.000Z</time>
      </trkpt>
      <trkpt lat="42.319529" lon="3.306075">
        <ele>69</ele>
        <time>1970-01-01T00:06:55.000Z</time>
      </trkpt>
      <trkpt lat="42.319518" lon="3.306023">
        <ele>69</ele>
        <time>1970-01-01T00:06:56.000Z</time>
      </trkpt>
      <trkpt lat="42.319514" lon="3.305997">
        <ele>69</ele>
        <time>1970-01-01T00:06:57.000Z</time>
      </trkpt>
      <trkpt lat="42.31951" lon="3.305972">
        <ele>69</ele>
        <time>1970-01-01T00:06:58.000Z</time>
      </trkpt>
      <trkpt lat="42.319506" lon="3.305946">
        <ele>69</ele>
        <time>1970-01-01T00:06:59.000Z</time>
      </trkpt>
      <trkpt lat="42.319503" lon="3.305921">
        <ele>69</ele>
        <time>1970-01-01T00:07:00.000Z</time>
      </trkpt>
      <trkpt lat="42.319499" lon="3.305896">
        <ele>69</ele>
        <time>1970-01-01T00:07:01.000Z</time>
      </trkpt>
      <trkpt lat="42.319495" lon="3.30587">
        <ele>69</ele>
        <time>1970-01-01T00:07:02.000Z</time>
      </trkpt>
      <trkpt lat="42.319491" lon="3.305845">
        <ele>69</ele>
        <time>1970-01-01T00:07:03.000Z</time>
      </trkpt>
      <trkpt lat="42.319487" lon="3.305819">
        <ele>69</ele>
        <time>1970-01-01T00:07:04.000Z</time>
      </trkpt>
      <trkpt lat="42.319483" lon="3.305794">
        <ele>69</ele>
        <time>1970-01-01T00:07:05.000Z</time>
      </trkpt>
      <trkpt lat="42.31947" lon="3.305738">
        <ele>69</ele>
        <time>1970-01-01T00:07:06.000Z</time>
      </trkpt>
      <trkpt lat="42.319465" lon="3.30571">
        <ele>69</ele>
        <time>1970-01-01T00:07:07.000Z</time>
      </trkpt>
      <trkpt lat="42.31946" lon="3.305682">
        <ele>69</ele>
        <time>1970-01-01T00:07:08.000Z</time>
      </trkpt>
      <trkpt lat="42.319455" lon="3.305654">
        <ele>69</ele>
        <time>1970-01-01T00:07:09.000Z</time>
      </trkpt>
      <trkpt lat="42.319451" lon="3.305626">
        <ele>69</ele>
        <time>1970-01-01T00:07:10.000Z</time>
      </trkpt>
      <trkpt lat="42.319446" lon="3.305598">
        <ele>69</ele>
        <time>1970-01-01T00:07:11.000Z</time>
      </trkpt>
      <trkpt lat="42.319441" lon="3.30557">
        <ele>69</ele>
        <time>1970-01-01T00:07:12.000Z</time>
      </trkpt>
      <trkpt lat="42.319436" lon="3.305542">
        <ele>69</ele>
        <time>1970-01-01T00:07:13.000Z</time>
      </trkpt>
      <trkpt lat="42.319431" lon="3.305514">
        <ele>69</ele>
        <time>1970-01-01T00:07:14.000Z</time>
      </trkpt>
      <trkpt lat="42.319426" lon="3.305486">
        <ele>71</ele>
        <time>1970-01-01T00:07:15.000Z</time>
      </trkpt>
      <trkpt lat="42.319413" lon="3.305423">
        <ele>71</ele>
        <time>1970-01-01T00:07:16.000Z</time>
      </trkpt>
      <trkpt lat="42.319408" lon="3.305393">
        <ele>71</ele>
        <time>1970-01-01T00:07:17.000Z</time>
      </trkpt>
      <trkpt lat="42.319402" lon="3.305362">
        <ele>71</ele>
        <time>1970-01-01T00:07:18.000Z</time>
      </trkpt>
      <trkpt lat="42.319397" lon="3.305332">
        <ele>71</ele>
        <time>1970-01-01T00:07:19.000Z</time>
      </trkpt>
      <trkpt lat="42.319392" lon="3.305301">
        <ele>71</ele>
        <time>1970-01-01T00:07:20.000Z</time>
      </trkpt>
      <trkpt lat="42.319387" lon="3.30527">
        <ele>71</ele>
        <time>1970-01-01T00:07:21.000Z</time>
      </trkpt>
      <trkpt lat="42.319382" lon="3.30524">
        <ele>71</ele>
        <time>1970-01-01T00:07:22.000Z</time>
      </trkpt>
      <trkpt lat="42.319376" lon="3.305209">
        <ele>71</ele>
        <time>1970-01-01T00:07:23.000Z</time>
      </trkpt>
      <trkpt lat="42.319371" lon="3.305179">
        <ele>71</ele>
        <time>1970-01-01T00:07:24.000Z</time>
      </trkpt>
      <trkpt lat="42.319366" lon="3.305148">
        <ele>72</ele>
        <time>1970-01-01T00:07:25.000Z</time>
      </trkpt>
      <trkpt lat="42.319354" lon="3.305081">
        <ele>72</ele>
        <time>1970-01-01T00:07:26.000Z</time>
      </trkpt>
      <trkpt lat="42.319347" lon="3.305049">
        <ele>72</ele>
        <time>1970-01-01T00:07:27.000Z</time>
      </trkpt>
      <trkpt lat="42.319341" lon="3.305016">
        <ele>72</ele>
        <time>1970-01-01T00:07:28.000Z</time>
      </trkpt>
      <trkpt lat="42.319335" lon="3.304984">
        <ele>72</ele>
        <time>1970-01-01T00:07:29.000Z</time>
      </trkpt>
      <trkpt lat="42.319329" lon="3.304951">
        <ele>72</ele>
        <time>1970-01-01T00:07:30.000Z</time>
      </trkpt>
      <trkpt lat="42.319322" lon="3.304918">
        <ele>72</ele>
        <time>1970-01-01T00:07:31.000Z</time>
      </trkpt>
      <trkpt lat="42.319316" lon="3.304886">
        <ele>72</ele>
        <time>1970-01-01T00:07:32.000Z</time>
      </trkpt>
      <trkpt lat="42.31931" lon="3.304853">
        <ele>72</ele>
        <time>1970-01-01T00:07:33.000Z</time>
      </trkpt>
      <trkpt lat="42.319303" lon="3.304821">
        <ele>72</ele>
        <time>1970-01-01T00:07:34.000Z</time>
      </trkpt>
      <trkpt lat="42.319297" lon="3.304788">
        <ele>72</ele>
        <time>1970-01-01T00:07:35.000Z</time>
      </trkpt>
      <trkpt lat="42.319284" lon="3.304712">
        <ele>72</ele>
        <time>1970-01-01T00:07:36.000Z</time>
      </trkpt>
      <trkpt lat="42.319278" lon="3.304675">
        <ele>72</ele>
        <time>1970-01-01T00:07:37.000Z</time>
      </trkpt>
      <trkpt lat="42.319271" lon="3.304639">
        <ele>72</ele>
        <time>1970-01-01T00:07:38.000Z</time>
      </trkpt>
      <trkpt lat="42.319264" lon="3.304602">
        <ele>72</ele>
        <time>1970-01-01T00:07:39.000Z</time>
      </trkpt>
      <trkpt lat="42.319258" lon="3.304565">
        <ele>72</ele>
        <time>1970-01-01T00:07:40.000Z</time>
      </trkpt>
      <trkpt lat="42.319251" lon="3.304528">
        <ele>72</ele>
        <time>1970-01-01T00:07:41.000Z</time>
      </trkpt>
      <trkpt lat="42.319244" lon="3.304491">
        <ele>72</ele>
        <time>1970-01-01T00:07:42.000Z</time>
      </trkpt>
      <trkpt lat="42.319237" lon="3.304455">
        <ele>72</ele>
        <time>1970-01-01T00:07:43.000Z</time>
      </trkpt>
      <trkpt lat="42.319231" lon="3.304418">
        <ele>72</ele>
        <time>1970-01-01T00:07:44.000Z</time>
      </trkpt>
      <trkpt lat="42.319224" lon="3.304381">
        <ele>72</ele>
        <time>1970-01-01T00:07:45.000Z</time>
      </trkpt>
      <trkpt lat="42.319208" lon="3.304298">
        <ele>72</ele>
        <time>1970-01-01T00:07:46.000Z</time>
      </trkpt>
      <trkpt lat="42.3192" lon="3.304257">
        <ele>72</ele>
        <time>1970-01-01T00:07:47.000Z</time>
      </trkpt>
      <trkpt lat="42.319193" lon="3.304215">
        <ele>72</ele>
        <time>1970-01-01T00:07:48.000Z</time>
      </trkpt>
      <trkpt lat="42.319185" lon="3.304174">
        <ele>72</ele>
        <time>1970-01-01T00:07:49.000Z</time>
      </trkpt>
      <trkpt lat="42.319177" lon="3.304133">
        <ele>72</ele>
        <time>1970-01-01T00:07:50.000Z</time>
      </trkpt>
      <trkpt lat="42.319169" lon="3.304092">
        <ele>72</ele>
        <time>1970-01-01T00:07:51.000Z</time>
      </trkpt>
      <trkpt lat="42.319161" lon="3.304051">
        <ele>72</ele>
        <time>1970-01-01T00:07:52.000Z</time>
      </trkpt>
      <trkpt lat="42.319154" lon="3.304009">
        <ele>72</ele>
        <time>1970-01-01T00:07:53.000Z</time>
      </trkpt>
      <trkpt lat="42.319146" lon="3.303968">
        <ele>72</ele>
        <time>1970-01-01T00:07:54.000Z</time>
      </trkpt>
      <trkpt lat="42.319138" lon="3.303927">
        <ele>72</ele>
        <time>1970-01-01T00:07:55.000Z</time>
      </trkpt>
      <trkpt lat="42.319123" lon="3.303838">
        <ele>72</ele>
        <time>1970-01-01T00:07:56.000Z</time>
      </trkpt>
      <trkpt lat="42.319116" lon="3.303794">
        <ele>72</ele>
        <time>1970-01-01T00:07:57.000Z</time>
      </trkpt>
      <trkpt lat="42.319108" lon="3.303749">
        <ele>72</ele>
        <time>1970-01-01T00:07:58.000Z</time>
      </trkpt>
      <trkpt lat="42.3191" lon="3.303705">
        <ele>72</ele>
        <time>1970-01-01T00:07:59.000Z</time>
      </trkpt>
      <trkpt lat="42.319093" lon="3.303661">
        <ele>72</ele>
        <time>1970-01-01T00:08:00.000Z</time>
      </trkpt>
      <trkpt lat="42.319085" lon="3.303617">
        <ele>72</ele>
        <time>1970-01-01T00:08:01.000Z</time>
      </trkpt>
      <trkpt lat="42.319077" lon="3.303573">
        <ele>72</ele>
        <time>1970-01-01T00:08:02.000Z</time>
      </trkpt>
      <trkpt lat="42.319069" lon="3.303528">
        <ele>72</ele>
        <time>1970-01-01T00:08:03.000Z</time>
      </trkpt>
      <trkpt lat="42.319062" lon="3.303484">
        <ele>72</ele>
        <time>1970-01-01T00:08:04.000Z</time>
      </trkpt>
      <trkpt lat="42.319054" lon="3.30344">
        <ele>72</ele>
        <time>1970-01-01T00:08:05.000Z</time>
      </trkpt>
      <trkpt lat="42.319034" lon="3.303337">
        <ele>72</ele>
        <time>1970-01-01T00:08:06.000Z</time>
      </trkpt>
      <trkpt lat="42.319027" lon="3.303285">
        <ele>72</ele>
        <time>1970-01-01T00:08:07.000Z</time>
      </trkpt>
      <trkpt lat="42.319019" lon="3.303234">
        <ele>72</ele>
        <time>1970-01-01T00:08:08.000Z</time>
      </trkpt>
      <trkpt lat="42.319012" lon="3.303182">
        <ele>72</ele>
        <time>1970-01-01T00:08:09.000Z</time>
      </trkpt>
      <trkpt lat="42.319004" lon="3.30313">
        <ele>72</ele>
        <time>1970-01-01T00:08:10.000Z</time>
      </trkpt>
      <trkpt lat="42.318996" lon="3.303078">
        <ele>72</ele>
        <time>1970-01-01T00:08:11.000Z</time>
      </trkpt>
      <trkpt lat="42.318989" lon="3.303026">
        <ele>72</ele>
        <time>1970-01-01T00:08:12.000Z</time>
      </trkpt>
      <trkpt lat="42.318981" lon="3.302975">
        <ele>72</ele>
        <time>1970-01-01T00:08:13.000Z</time>
      </trkpt>
      <trkpt lat="42.318974" lon="3.302923">
        <ele>72</ele>
        <time>1970-01-01T00:08:14.000Z</time>
      </trkpt>
      <trkpt lat="42.318966" lon="3.302871">
        <ele>71</ele>
        <time>1970-01-01T00:08:15.000Z</time>
      </trkpt>
      <trkpt lat="42.318959" lon="3.302719">
        <ele>71</ele>
        <time>1970-01-01T00:08:16.000Z</time>
      </trkpt>
      <trkpt lat="42.318963" lon="3.30263">
        <ele>71</ele>
        <time>1970-01-01T00:08:17.000Z</time>
      </trkpt>
      <trkpt lat="42.318968" lon="3.302542">
        <ele>71</ele>
        <time>1970-01-01T00:08:18.000Z</time>
      </trkpt>
      <trkpt lat="42.318972" lon="3.302453">
        <ele>71</ele>
        <time>1970-01-01T00:08:19.000Z</time>
      </trkpt>
      <trkpt lat="42.318977" lon="3.302365">
        <ele>71</ele>
        <time>1970-01-01T00:08:20.000Z</time>
      </trkpt>
      <trkpt lat="42.318981" lon="3.302276">
        <ele>71</ele>
        <time>1970-01-01T00:08:21.000Z</time>
      </trkpt>
      <trkpt lat="42.318986" lon="3.302188">
        <ele>71</ele>
        <time>1970-01-01T00:08:22.000Z</time>
      </trkpt>
      <trkpt lat="42.31899" lon="3.302099">
        <ele>71</ele>
        <time>1970-01-01T00:08:24.000Z</time>
      </trkpt>
      <trkpt lat="42.318995" lon="3.302011">
        <ele>71</ele>
        <time>1970-01-01T00:08:25.000Z</time>
      </trkpt>
      <trkpt lat="42.319065" lon="3.301855">
        <ele>71</ele>
        <time>1970-01-01T00:08:26.000Z</time>
      </trkpt>
      <trkpt lat="42.319103" lon="3.301789">
        <ele>71</ele>
        <time>1970-01-01T00:08:27.000Z</time>
      </trkpt>
      <trkpt lat="42.31914" lon="3.301723">
        <ele>71</ele>
        <time>1970-01-01T00:08:28.000Z</time>
      </trkpt>
      <trkpt lat="42.319178" lon="3.301657">
        <ele>71</ele>
        <time>1970-01-01T00:08:29.000Z</time>
      </trkpt>
      <trkpt lat="42.319216" lon="3.301592">
        <ele>71</ele>
        <time>1970-01-01T00:08:30.000Z</time>
      </trkpt>
      <trkpt lat="42.319254" lon="3.301526">
        <ele>71</ele>
        <time>1970-01-01T00:08:31.000Z</time>
      </trkpt>
      <trkpt lat="42.319292" lon="3.30146">
        <ele>71</ele>
        <time>1970-01-01T00:08:32.000Z</time>
      </trkpt>
      <trkpt lat="42.319329" lon="3.301394">
        <ele>71</ele>
        <time>1970-01-01T00:08:33.000Z</time>
      </trkpt>
      <trkpt lat="42.319367" lon="3.301328">
        <ele>71</ele>
        <time>1970-01-01T00:08:34.000Z</time>
      </trkpt>
      <trkpt lat="42.319405" lon="3.301262">
        <ele>69</ele>
        <time>1970-01-01T00:08:35.000Z</time>
      </trkpt>
      <trkpt lat="42.319472" lon="3.301137">
        <ele>69</ele>
        <time>1970-01-01T00:08:36.000Z</time>
      </trkpt>
      <trkpt lat="42.3195" lon="3.301079">
        <ele>69</ele>
        <time>1970-01-01T00:08:37.000Z</time>
      </trkpt>
      <trkpt lat="42.319528" lon="3.301022">
        <ele>69</ele>
        <time>1970-01-01T00:08:38.000Z</time>
      </trkpt>
      <trkpt lat="42.319556" lon="3.300964">
        <ele>69</ele>
        <time>1970-01-01T00:08:39.000Z</time>
      </trkpt>
      <trkpt lat="42.319584" lon="3.300907">
        <ele>69</ele>
        <time>1970-01-01T00:08:40.000Z</time>
      </trkpt>
      <trkpt lat="42.319612" lon="3.30085">
        <ele>69</ele>
        <time>1970-01-01T00:08:41.000Z</time>
      </trkpt>
      <trkpt lat="42.31964" lon="3.300792">
        <ele>69</ele>
        <time>1970-01-01T00:08:42.000Z</time>
      </trkpt>
      <trkpt lat="42.319668" lon="3.300735">
        <ele>69</ele>
        <time>1970-01-01T00:08:43.000Z</time>
      </trkpt>
      <trkpt lat="42.319696" lon="3.300677">
        <ele>69</ele>
        <time>1970-01-01T00:08:44.000Z</time>
      </trkpt>
      <trkpt lat="42.319724" lon="3.30062">
        <ele>66</ele>
        <time>1970-01-01T00:08:45.000Z</time>
      </trkpt>
      <trkpt lat="42.319764" lon="3.300522">
        <ele>66</ele>
        <time>1970-01-01T00:08:46.000Z</time>
      </trkpt>
      <trkpt lat="42.319779" lon="3.300479">
        <ele>66</ele>
        <time>1970-01-01T00:08:47.000Z</time>
      </trkpt>
      <trkpt lat="42.319794" lon="3.300437">
        <ele>66</ele>
        <time>1970-01-01T00:08:48.000Z</time>
      </trkpt>
      <trkpt lat="42.319809" lon="3.300395">
        <ele>66</ele>
        <time>1970-01-01T00:08:49.000Z</time>
      </trkpt>
      <trkpt lat="42.319824" lon="3.300353">
        <ele>66</ele>
        <time>1970-01-01T00:08:50.000Z</time>
      </trkpt>
      <trkpt lat="42.319839" lon="3.30031">
        <ele>66</ele>
        <time>1970-01-01T00:08:51.000Z</time>
      </trkpt>
      <trkpt lat="42.319854" lon="3.300268">
        <ele>66</ele>
        <time>1970-01-01T00:08:52.000Z</time>
      </trkpt>
      <trkpt lat="42.319869" lon="3.300226">
        <ele>66</ele>
        <time>1970-01-01T00:08:53.000Z</time>
      </trkpt>
      <trkpt lat="42.319884" lon="3.300183">
        <ele>66</ele>
        <time>1970-01-01T00:08:54.000Z</time>
      </trkpt>
      <trkpt lat="42.319899" lon="3.300141">
        <ele>64</ele>
        <time>1970-01-01T00:08:55.000Z</time>
      </trkpt>
      <trkpt lat="42.319927" lon="3.300059">
        <ele>64</ele>
        <time>1970-01-01T00:08:56.000Z</time>
      </trkpt>
      <trkpt lat="42.319941" lon="3.300021">
        <ele>64</ele>
        <time>1970-01-01T00:08:57.000Z</time>
      </trkpt>
      <trkpt lat="42.319954" lon="3.299983">
        <ele>64</ele>
        <time>1970-01-01T00:08:58.000Z</time>
      </trkpt>
      <trkpt lat="42.319968" lon="3.299945">
        <ele>64</ele>
        <time>1970-01-01T00:08:59.000Z</time>
      </trkpt>
      <trkpt lat="42.319981" lon="3.299907">
        <ele>64</ele>
        <time>1970-01-01T00:09:00.000Z</time>
      </trkpt>
      <trkpt lat="42.319994" lon="3.299869">
        <ele>64</ele>
        <time>1970-01-01T00:09:01.000Z</time>
      </trkpt>
      <trkpt lat="42.320008" lon="3.299831">
        <ele>64</ele>
        <time>1970-01-01T00:09:02.000Z</time>
      </trkpt>
      <trkpt lat="42.320021" lon="3.299793">
        <ele>64</ele>
        <time>1970-01-01T00:09:03.000Z</time>
      </trkpt>
      <trkpt lat="42.320035" lon="3.299755">
        <ele>64</ele>
        <time>1970-01-01T00:09:04.000Z</time>
      </trkpt>
      <trkpt lat="42.320048" lon="3.299717">
        <ele>65</ele>
        <time>1970-01-01T00:09:05.000Z</time>
      </trkpt>
      <trkpt lat="42.320073" lon="3.299637">
        <ele>65</ele>
        <time>1970-01-01T00:09:06.000Z</time>
      </trkpt>
      <trkpt lat="42.320086" lon="3.299599">
        <ele>65</ele>
        <time>1970-01-01T00:09:07.000Z</time>
      </trkpt>
      <trkpt lat="42.320098" lon="3.299562">
        <ele>65</ele>
        <time>1970-01-01T00:09:08.000Z</time>
      </trkpt>
      <trkpt lat="42.32011" lon="3.299524">
        <ele>65</ele>
        <time>1970-01-01T00:09:09.000Z</time>
      </trkpt>
      <trkpt lat="42.320123" lon="3.299487">
        <ele>65</ele>
        <time>1970-01-01T00:09:10.000Z</time>
      </trkpt>
      <trkpt lat="42.320135" lon="3.29945">
        <ele>65</ele>
        <time>1970-01-01T00:09:11.000Z</time>
      </trkpt>
      <trkpt lat="42.320147" lon="3.299412">
        <ele>65</ele>
        <time>1970-01-01T00:09:12.000Z</time>
      </trkpt>
      <trkpt lat="42.320159" lon="3.299375">
        <ele>65</ele>
        <time>1970-01-01T00:09:13.000Z</time>
      </trkpt>
      <trkpt lat="42.320172" lon="3.299337">
        <ele>65</ele>
        <time>1970-01-01T00:09:14.000Z</time>
      </trkpt>
      <trkpt lat="42.320184" lon="3.2993">
        <ele>65</ele>
        <time>1970-01-01T00:09:15.000Z</time>
      </trkpt>
      <trkpt lat="42.320211" lon="3.299223">
        <ele>65</ele>
        <time>1970-01-01T00:09:16.000Z</time>
      </trkpt>
      <trkpt lat="42.320224" lon="3.299187">
        <ele>65</ele>
        <time>1970-01-01T00:09:17.000Z</time>
      </trkpt>
      <trkpt lat="42.320238" lon="3.29915">
        <ele>65</ele>
        <time>1970-01-01T00:09:18.000Z</time>
      </trkpt>
      <trkpt lat="42.320251" lon="3.299114">
        <ele>65</ele>
        <time>1970-01-01T00:09:19.000Z</time>
      </trkpt>
      <trkpt lat="42.320265" lon="3.299077">
        <ele>65</ele>
        <time>1970-01-01T00:09:20.000Z</time>
      </trkpt>
      <trkpt lat="42.320279" lon="3.29904">
        <ele>65</ele>
        <time>1970-01-01T00:09:21.000Z</time>
      </trkpt>
      <trkpt lat="42.320292" lon="3.299004">
        <ele>65</ele>
        <time>1970-01-01T00:09:22.000Z</time>
      </trkpt>
      <trkpt lat="42.320306" lon="3.298967">
        <ele>65</ele>
        <time>1970-01-01T00:09:23.000Z</time>
      </trkpt>
      <trkpt lat="42.320319" lon="3.298931">
        <ele>65</ele>
        <time>1970-01-01T00:09:24.000Z</time>
      </trkpt>
      <trkpt lat="42.320333" lon="3.298894">
        <ele>67</ele>
        <time>1970-01-01T00:09:25.000Z</time>
      </trkpt>
      <trkpt lat="42.320373" lon="3.298824">
        <ele>67</ele>
        <time>1970-01-01T00:09:26.000Z</time>
      </trkpt>
      <trkpt lat="42.320395" lon="3.298793">
        <ele>67</ele>
        <time>1970-01-01T00:09:27.000Z</time>
      </trkpt>
      <trkpt lat="42.320418" lon="3.298762">
        <ele>67</ele>
        <time>1970-01-01T00:09:28.000Z</time>
      </trkpt>
      <trkpt lat="42.320441" lon="3.298731">
        <ele>67</ele>
        <time>1970-01-01T00:09:29.000Z</time>
      </trkpt>
      <trkpt lat="42.320464" lon="3.2987">
        <ele>67</ele>
        <time>1970-01-01T00:09:30.000Z</time>
      </trkpt>
      <trkpt lat="42.320486" lon="3.298669">
        <ele>67</ele>
        <time>1970-01-01T00:09:31.000Z</time>
      </trkpt>
      <trkpt lat="42.320509" lon="3.298638">
        <ele>67</ele>
        <time>1970-01-01T00:09:32.000Z</time>
      </trkpt>
      <trkpt lat="42.320532" lon="3.298607">
        <ele>67</ele>
        <time>1970-01-01T00:09:33.000Z</time>
      </trkpt>
      <trkpt lat="42.320554" lon="3.298576">
        <ele>67</ele>
        <time>1970-01-01T00:09:34.000Z</time>
      </trkpt>
      <trkpt lat="42.320577" lon="3.298545">
        <ele>68</ele>
        <time>1970-01-01T00:09:35.000Z</time>
      </trkpt>
      <trkpt lat="42.320629" lon="3.298482">
        <ele>68</ele>
        <time>1970-01-01T00:09:36.000Z</time>
      </trkpt>
      <trkpt lat="42.320654" lon="3.298452">
        <ele>68</ele>
        <time>1970-01-01T00:09:37.000Z</time>
      </trkpt>
      <trkpt lat="42.320678" lon="3.298422">
        <ele>68</ele>
        <time>1970-01-01T00:09:38.000Z</time>
      </trkpt>
      <trkpt lat="42.320702" lon="3.298392">
        <ele>68</ele>
        <time>1970-01-01T00:09:39.000Z</time>
      </trkpt>
      <trkpt lat="42.320727" lon="3.298363">
        <ele>68</ele>
        <time>1970-01-01T00:09:40.000Z</time>
      </trkpt>
      <trkpt lat="42.320751" lon="3.298333">
        <ele>68</ele>
        <time>1970-01-01T00:09:41.000Z</time>
      </trkpt>
      <trkpt lat="42.320775" lon="3.298303">
        <ele>68</ele>
        <time>1970-01-01T00:09:42.000Z</time>
      </trkpt>
      <trkpt lat="42.320799" lon="3.298273">
        <ele>68</ele>
        <time>1970-01-01T00:09:43.000Z</time>
      </trkpt>
      <trkpt lat="42.320824" lon="3.298243">
        <ele>68</ele>
        <time>1970-01-01T00:09:44.000Z</time>
      </trkpt>
      <trkpt lat="42.320848" lon="3.298213">
        <ele>68</ele>
        <time>1970-01-01T00:09:45.000Z</time>
      </trkpt>
      <trkpt lat="42.320898" lon="3.298146">
        <ele>68</ele>
        <time>1970-01-01T00:09:46.000Z</time>
      </trkpt>
      <trkpt lat="42.320923" lon="3.298114">
        <ele>68</ele>
        <time>1970-01-01T00:09:47.000Z</time>
      </trkpt>
      <trkpt lat="42.320947" lon="3.298081">
        <ele>68</ele>
        <time>1970-01-01T00:09:48.000Z</time>
      </trkpt>
      <trkpt lat="42.320972" lon="3.298049">
        <ele>68</ele>
        <time>1970-01-01T00:09:49.000Z</time>
      </trkpt>
      <trkpt lat="42.320996" lon="3.298016">
        <ele>68</ele>
        <time>1970-01-01T00:09:50.000Z</time>
      </trkpt>
      <trkpt lat="42.32102" lon="3.297983">
        <ele>68</ele>
        <time>1970-01-01T00:09:51.000Z</time>
      </trkpt>
      <trkpt lat="42.321045" lon="3.297951">
        <ele>68</ele>
        <time>1970-01-01T00:09:52.000Z</time>
      </trkpt>
      <trkpt lat="42.321069" lon="3.297918">
        <ele>68</ele>
        <time>1970-01-01T00:09:53.000Z</time>
      </trkpt>
      <trkpt lat="42.321094" lon="3.297886">
        <ele>68</ele>
        <time>1970-01-01T00:09:54.000Z</time>
      </trkpt>
      <trkpt lat="42.321118" lon="3.297853">
        <ele>67</ele>
        <time>1970-01-01T00:09:55.000Z</time>
      </trkpt>
      <trkpt lat="42.321166" lon="3.297766">
        <ele>67</ele>
        <time>1970-01-01T00:09:56.000Z</time>
      </trkpt>
      <trkpt lat="42.321186" lon="3.297719">
        <ele>67</ele>
        <time>1970-01-01T00:09:57.000Z</time>
      </trkpt>
      <trkpt lat="42.321207" lon="3.297673">
        <ele>67</ele>
        <time>1970-01-01T00:09:58.000Z</time>
      </trkpt>
      <trkpt lat="42.321227" lon="3.297627">
        <ele>67</ele>
        <time>1970-01-01T00:09:59.000Z</time>
      </trkpt>
      <trkpt lat="42.321248" lon="3.297581">
        <ele>67</ele>
        <time>1970-01-01T00:10:00.000Z</time>
      </trkpt>
      <trkpt lat="42.321269" lon="3.297534">
        <ele>67</ele>
        <time>1970-01-01T00:10:01.000Z</time>
      </trkpt>
      <trkpt lat="42.321289" lon="3.297488">
        <ele>67</ele>
        <time>1970-01-01T00:10:02.000Z</time>
      </trkpt>
      <trkpt lat="42.32131" lon="3.297442">
        <ele>67</ele>
        <time>1970-01-01T00:10:03.000Z</time>
      </trkpt>
      <trkpt lat="42.32133" lon="3.297395">
        <ele>67</ele>
        <time>1970-01-01T00:10:04.000Z</time>
      </trkpt>
      <trkpt lat="42.321351" lon="3.297349">
        <ele>67</ele>
        <time>1970-01-01T00:10:05.000Z</time>
      </trkpt>
      <trkpt lat="42.321369" lon="3.29727">
        <ele>67</ele>
        <time>1970-01-01T00:10:06.000Z</time>
      </trkpt>
      <trkpt lat="42.321374" lon="3.297242">
        <ele>67</ele>
        <time>1970-01-01T00:10:07.000Z</time>
      </trkpt>
      <trkpt lat="42.321378" lon="3.297214">
        <ele>67</ele>
        <time>1970-01-01T00:10:08.000Z</time>
      </trkpt>
      <trkpt lat="42.321382" lon="3.297186">
        <ele>67</ele>
        <time>1970-01-01T00:10:09.000Z</time>
      </trkpt>
      <trkpt lat="42.321387" lon="3.297159">
        <ele>67</ele>
        <time>1970-01-01T00:10:10.000Z</time>
      </trkpt>
      <trkpt lat="42.321391" lon="3.297131">
        <ele>67</ele>
        <time>1970-01-01T00:10:11.000Z</time>
      </trkpt>
      <trkpt lat="42.321395" lon="3.297103">
        <ele>67</ele>
        <time>1970-01-01T00:10:13.000Z</time>
      </trkpt>
      <trkpt lat="42.3214" lon="3.297075">
        <ele>67</ele>
        <time>1970-01-01T00:10:14.000Z</time>
      </trkpt>
      <trkpt lat="42.321404" lon="3.297047">
        <ele>68</ele>
        <time>1970-01-01T00:10:15.000Z</time>
      </trkpt>
      <trkpt lat="42.321413" lon="3.296996">
        <ele>68</ele>
        <time>1970-01-01T00:10:16.000Z</time>
      </trkpt>
      <trkpt lat="42.321417" lon="3.296969">
        <ele>68</ele>
        <time>1970-01-01T00:10:17.000Z</time>
      </trkpt>
      <trkpt lat="42.321421" lon="3.296942">
        <ele>68</ele>
        <time>1970-01-01T00:10:18.000Z</time>
      </trkpt>
      <trkpt lat="42.321425" lon="3.296915">
        <ele>68</ele>
        <time>1970-01-01T00:10:19.000Z</time>
      </trkpt>
      <trkpt lat="42.321429" lon="3.296887">
        <ele>68</ele>
        <time>1970-01-01T00:10:21.000Z</time>
      </trkpt>
      <trkpt lat="42.321433" lon="3.29686">
        <ele>68</ele>
        <time>1970-01-01T00:10:22.000Z</time>
      </trkpt>
      <trkpt lat="42.321437" lon="3.296833">
        <ele>68</ele>
        <time>1970-01-01T00:10:24.000Z</time>
      </trkpt>
      <trkpt lat="42.321441" lon="3.296806">
        <ele>70</ele>
        <time>1970-01-01T00:10:25.000Z</time>
      </trkpt>
      <trkpt lat="42.321455" lon="3.296755">
        <ele>70</ele>
        <time>1970-01-01T00:10:26.000Z</time>
      </trkpt>
      <trkpt lat="42.321465" lon="3.296726">
        <ele>70</ele>
        <time>1970-01-01T00:10:27.000Z</time>
      </trkpt>
      <trkpt lat="42.321474" lon="3.296697">
        <ele>70</ele>
        <time>1970-01-01T00:10:29.000Z</time>
      </trkpt>
      <trkpt lat="42.321483" lon="3.296669">
        <ele>70</ele>
        <time>1970-01-01T00:10:31.000Z</time>
      </trkpt>
      <trkpt lat="42.321492" lon="3.29664">
        <ele>70</ele>
        <time>1970-01-01T00:10:33.000Z</time>
      </trkpt>
      <trkpt lat="42.321502" lon="3.296611">
        <ele>70</ele>
        <time>1970-01-01T00:10:34.000Z</time>
      </trkpt>
      <trkpt lat="42.321511" lon="3.296582">
        <ele>72</ele>
        <time>1970-01-01T00:10:35.000Z</time>
      </trkpt>
      <trkpt lat="42.321526" lon="3.296536">
        <ele>72</ele>
        <time>1970-01-01T00:10:36.000Z</time>
      </trkpt>
      <trkpt lat="42.321533" lon="3.296514">
        <ele>72</ele>
        <time>1970-01-01T00:10:37.000Z</time>
      </trkpt>
      <trkpt lat="42.32154" lon="3.296493">
        <ele>72</ele>
        <time>1970-01-01T00:10:38.000Z</time>
      </trkpt>
      <trkpt lat="42.321547" lon="3.296471">
        <ele>72</ele>
        <time>1970-01-01T00:10:39.000Z</time>
      </trkpt>
      <trkpt lat="42.321554" lon="3.296449">
        <ele>72</ele>
        <time>1970-01-01T00:10:40.000Z</time>
      </trkpt>
      <trkpt lat="42.321561" lon="3.296427">
        <ele>72</ele>
        <time>1970-01-01T00:10:41.000Z</time>
      </trkpt>
      <trkpt lat="42.321568" lon="3.296405">
        <ele>72</ele>
        <time>1970-01-01T00:10:42.000Z</time>
      </trkpt>
      <trkpt lat="42.321575" lon="3.296384">
        <ele>72</ele>
        <time>1970-01-01T00:10:43.000Z</time>
      </trkpt>
      <trkpt lat="42.321582" lon="3.296362">
        <ele>72</ele>
        <time>1970-01-01T00:10:44.000Z</time>
      </trkpt>
      <trkpt lat="42.321589" lon="3.29634">
        <ele>74</ele>
        <time>1970-01-01T00:10:45.000Z</time>
      </trkpt>
      <trkpt lat="42.321603" lon="3.296295">
        <ele>74</ele>
        <time>1970-01-01T00:10:46.000Z</time>
      </trkpt>
      <trkpt lat="42.32161" lon="3.296273">
        <ele>74</ele>
        <time>1970-01-01T00:10:47.000Z</time>
      </trkpt>
      <trkpt lat="42.321617" lon="3.296252">
        <ele>74</ele>
        <time>1970-01-01T00:10:48.000Z</time>
      </trkpt>
      <trkpt lat="42.321624" lon="3.29623">
        <ele>74</ele>
        <time>1970-01-01T00:10:49.000Z</time>
      </trkpt>
      <trkpt lat="42.321631" lon="3.296209">
        <ele>74</ele>
        <time>1970-01-01T00:10:50.000Z</time>
      </trkpt>
      <trkpt lat="42.321638" lon="3.296187">
        <ele>74</ele>
        <time>1970-01-01T00:10:51.000Z</time>
      </trkpt>
      <trkpt lat="42.321645" lon="3.296166">
        <ele>74</ele>
        <time>1970-01-01T00:10:52.000Z</time>
      </trkpt>
      <trkpt lat="42.321652" lon="3.296144">
        <ele>74</ele>
        <time>1970-01-01T00:10:53.000Z</time>
      </trkpt>
      <trkpt lat="42.321659" lon="3.296123">
        <ele>74</ele>
        <time>1970-01-01T00:10:54.000Z</time>
      </trkpt>
      <trkpt lat="42.321666" lon="3.296101">
        <ele>76</ele>
        <time>1970-01-01T00:10:55.000Z</time>
      </trkpt>
      <trkpt lat="42.321677" lon="3.296018">
        <ele>76</ele>
        <time>1970-01-01T00:10:57.000Z</time>
      </trkpt>
      <trkpt lat="42.321679" lon="3.295981">
        <ele>76</ele>
        <time>1970-01-01T00:10:59.000Z</time>
      </trkpt>
      <trkpt lat="42.32168" lon="3.295945">
        <ele>76</ele>
        <time>1970-01-01T00:11:01.000Z</time>
      </trkpt>
      <trkpt lat="42.321682" lon="3.295908">
        <ele>76</ele>
        <time>1970-01-01T00:11:03.000Z</time>
      </trkpt>
      <trkpt lat="42.321684" lon="3.295871">
        <ele>77</ele>
        <time>1970-01-01T00:11:05.000Z</time>
      </trkpt>
      <trkpt lat="42.32168" lon="3.295788">
        <ele>77</ele>
        <time>1970-01-01T00:11:07.000Z</time>
      </trkpt>
      <trkpt lat="42.321679" lon="3.295753">
        <ele>77</ele>
        <time>1970-01-01T00:11:09.000Z</time>
      </trkpt>
      <trkpt lat="42.321677" lon="3.295717">
        <ele>77</ele>
        <time>1970-01-01T00:11:11.000Z</time>
      </trkpt>
      <trkpt lat="42.321676" lon="3.295682">
        <ele>77</ele>
        <time>1970-01-01T00:11:13.000Z</time>
      </trkpt>
      <trkpt lat="42.321675" lon="3.295646">
        <ele>78</ele>
        <time>1970-01-01T00:11:15.000Z</time>
      </trkpt>
      <trkpt lat="42.321673" lon="3.29557">
        <ele>78</ele>
        <time>1970-01-01T00:11:17.000Z</time>
      </trkpt>
      <trkpt lat="42.321672" lon="3.295532">
        <ele>78</ele>
        <time>1970-01-01T00:11:19.000Z</time>
      </trkpt>
      <trkpt lat="42.32167" lon="3.295495">
        <ele>78</ele>
        <time>1970-01-01T00:11:21.000Z</time>
      </trkpt>
      <trkpt lat="42.321669" lon="3.295457">
        <ele>78</ele>
        <time>1970-01-01T00:11:23.000Z</time>
      </trkpt>
      <trkpt lat="42.321668" lon="3.29542">
        <ele>80</ele>
        <time>1970-01-01T00:11:25.000Z</time>
      </trkpt>
      <trkpt lat="42.321665" lon="3.295377">
        <ele>80</ele>
        <time>1970-01-01T00:11:27.000Z</time>
      </trkpt>
      <trkpt lat="42.321661" lon="3.295332">
        <ele>80</ele>
        <time>1970-01-01T00:11:29.000Z</time>
      </trkpt>
      <trkpt lat="42.321658" lon="3.295287">
        <ele>80</ele>
        <time>1970-01-01T00:11:31.000Z</time>
      </trkpt>
      <trkpt lat="42.321656" lon="3.295245">
        <ele>80</ele>
        <time>1970-01-01T00:11:33.000Z</time>
      </trkpt>
      <trkpt lat="42.321655" lon="3.295204">
        <ele>81</ele>
        <time>1970-01-01T00:11:35.000Z</time>
      </trkpt>
      <trkpt lat="42.321628" lon="3.295137">
        <ele>81</ele>
        <time>1970-01-01T00:11:37.000Z</time>
      </trkpt>
      <trkpt lat="42.321611" lon="3.295108">
        <ele>81</ele>
        <time>1970-01-01T00:11:39.000Z</time>
      </trkpt>
      <trkpt lat="42.321595" lon="3.295079">
        <ele>81</ele>
        <time>1970-01-01T00:11:41.000Z</time>
      </trkpt>
      <trkpt lat="42.321578" lon="3.29505">
        <ele>81</ele>
        <time>1970-01-01T00:11:43.000Z</time>
      </trkpt>
      <trkpt lat="42.321562" lon="3.295021">
        <ele>83</ele>
        <time>1970-01-01T00:11:45.000Z</time>
      </trkpt>
      <trkpt lat="42.321531" lon="3.294995">
        <ele>83</ele>
        <time>1970-01-01T00:11:46.000Z</time>
      </trkpt>
      <trkpt lat="42.321515" lon="3.294983">
        <ele>83</ele>
        <time>1970-01-01T00:11:47.000Z</time>
      </trkpt>
      <trkpt lat="42.321498" lon="3.294972">
        <ele>83</ele>
        <time>1970-01-01T00:11:48.000Z</time>
      </trkpt>
      <trkpt lat="42.321482" lon="3.29496">
        <ele>83</ele>
        <time>1970-01-01T00:11:50.000Z</time>
      </trkpt>
      <trkpt lat="42.321466" lon="3.294949">
        <ele>83</ele>
        <time>1970-01-01T00:11:51.000Z</time>
      </trkpt>
      <trkpt lat="42.32145" lon="3.294937">
        <ele>83</ele>
        <time>1970-01-01T00:11:52.000Z</time>
      </trkpt>
      <trkpt lat="42.321433" lon="3.294926">
        <ele>83</ele>
        <time>1970-01-01T00:11:53.000Z</time>
      </trkpt>
      <trkpt lat="42.321417" lon="3.294914">
        <ele>83</ele>
        <time>1970-01-01T00:11:54.000Z</time>
      </trkpt>
      <trkpt lat="42.321401" lon="3.294903">
        <ele>85</ele>
        <time>1970-01-01T00:11:55.000Z</time>
      </trkpt>
      <trkpt lat="42.321363" lon="3.294893">
        <ele>85</ele>
        <time>1970-01-01T00:11:56.000Z</time>
      </trkpt>
      <trkpt lat="42.321343" lon="3.294892">
        <ele>85</ele>
        <time>1970-01-01T00:11:57.000Z</time>
      </trkpt>
      <trkpt lat="42.321323" lon="3.29489">
        <ele>85</ele>
        <time>1970-01-01T00:11:58.000Z</time>
      </trkpt>
      <trkpt lat="42.321303" lon="3.294889">
        <ele>85</ele>
        <time>1970-01-01T00:11:59.000Z</time>
      </trkpt>
      <trkpt lat="42.321283" lon="3.294887">
        <ele>85</ele>
        <time>1970-01-01T00:12:00.000Z</time>
      </trkpt>
      <trkpt lat="42.321263" lon="3.294886">
        <ele>85</ele>
        <time>1970-01-01T00:12:01.000Z</time>
      </trkpt>
      <trkpt lat="42.321243" lon="3.294884">
        <ele>85</ele>
        <time>1970-01-01T00:12:03.000Z</time>
      </trkpt>
      <trkpt lat="42.321223" lon="3.294883">
        <ele>86</ele>
        <time>1970-01-01T00:12:05.000Z</time>
      </trkpt>
      <trkpt lat="42.321163" lon="3.294896">
        <ele>86</ele>
        <time>1970-01-01T00:12:07.000Z</time>
      </trkpt>
      <trkpt lat="42.321136" lon="3.294906">
        <ele>86</ele>
        <time>1970-01-01T00:12:09.000Z</time>
      </trkpt>
      <trkpt lat="42.32111" lon="3.294915">
        <ele>86</ele>
        <time>1970-01-01T00:12:12.000Z</time>
      </trkpt>
      <trkpt lat="42.321083" lon="3.294925">
        <ele>86</ele>
        <time>1970-01-01T00:12:13.000Z</time>
      </trkpt>
      <trkpt lat="42.321057" lon="3.294935">
        <ele>89</ele>
        <time>1970-01-01T00:12:15.000Z</time>
      </trkpt>
      <trkpt lat="42.320998" lon="3.294958">
        <ele>89</ele>
        <time>1970-01-01T00:12:17.000Z</time>
      </trkpt>
      <trkpt lat="42.320972" lon="3.294971">
        <ele>89</ele>
        <time>1970-01-01T00:12:19.000Z</time>
      </trkpt>
      <trkpt lat="42.320947" lon="3.294984">
        <ele>89</ele>
        <time>1970-01-01T00:12:21.000Z</time>
      </trkpt>
      <trkpt lat="42.320921" lon="3.294997">
        <ele>89</ele>
        <time>1970-01-01T00:12:23.000Z</time>
      </trkpt>
      <trkpt lat="42.320896" lon="3.29501">
        <ele>91</ele>
        <time>1970-01-01T00:12:25.000Z</time>
      </trkpt>
      <trkpt lat="42.320841" lon="3.295023">
        <ele>91</ele>
        <time>1970-01-01T00:12:27.000Z</time>
      </trkpt>
      <trkpt lat="42.320818" lon="3.295027">
        <ele>91</ele>
        <time>1970-01-01T00:12:29.000Z</time>
      </trkpt>
      <trkpt lat="42.320796" lon="3.295032">
        <ele>91</ele>
        <time>1970-01-01T00:12:31.000Z</time>
      </trkpt>
      <trkpt lat="42.320774" lon="3.295036">
        <ele>91</ele>
        <time>1970-01-01T00:12:33.000Z</time>
      </trkpt>
      <trkpt lat="42.320751" lon="3.295041">
        <ele>91</ele>
        <time>1970-01-01T00:12:34.000Z</time>
      </trkpt>
      <trkpt lat="42.320729" lon="3.295045">
        <ele>93</ele>
        <time>1970-01-01T00:12:35.000Z</time>
      </trkpt>
      <trkpt lat="42.320689" lon="3.295037">
        <ele>93</ele>
        <time>1970-01-01T00:12:36.000Z</time>
      </trkpt>
      <trkpt lat="42.320667" lon="3.295029">
        <ele>93</ele>
        <time>1970-01-01T00:12:37.000Z</time>
      </trkpt>
      <trkpt lat="42.320645" lon="3.29502">
        <ele>93</ele>
        <time>1970-01-01T00:12:39.000Z</time>
      </trkpt>
      <trkpt lat="42.320623" lon="3.295011">
        <ele>93</ele>
        <time>1970-01-01T00:12:41.000Z</time>
      </trkpt>
      <trkpt lat="42.320601" lon="3.295003">
        <ele>93</ele>
        <time>1970-01-01T00:12:43.000Z</time>
      </trkpt>
      <trkpt lat="42.320579" lon="3.294994">
        <ele>94</ele>
        <time>1970-01-01T00:12:45.000Z</time>
      </trkpt>
      <trkpt lat="42.320533" lon="3.294974">
        <ele>94</ele>
        <time>1970-01-01T00:12:47.000Z</time>
      </trkpt>
      <trkpt lat="42.320512" lon="3.294964">
        <ele>94</ele>
        <time>1970-01-01T00:12:51.000Z</time>
      </trkpt>
      <trkpt lat="42.320491" lon="3.294954">
        <ele>94</ele>
        <time>1970-01-01T00:13:52.000Z</time>
      </trkpt>
      <trkpt lat="42.32047" lon="3.294944">
        <ele>94</ele>
        <time>1970-01-01T00:13:53.000Z</time>
      </trkpt>
      <trkpt lat="42.32045" lon="3.294934">
        <ele>94</ele>
        <time>1970-01-01T00:13:55.000Z</time>
      </trkpt>
      <trkpt lat="42.320429" lon="3.294925">
        <ele>94</ele>
        <time>1970-01-01T00:13:56.000Z</time>
      </trkpt>
      <trkpt lat="42.320408" lon="3.294915">
        <ele>94</ele>
        <time>1970-01-01T00:13:57.000Z</time>
      </trkpt>
      <trkpt lat="42.320387" lon="3.294905">
        <ele>94</ele>
        <time>1970-01-01T00:13:58.000Z</time>
      </trkpt>
      <trkpt lat="42.320366" lon="3.294895">
        <ele>94</ele>
        <time>1970-01-01T00:14:00.000Z</time>
      </trkpt>
      <trkpt lat="42.320345" lon="3.294885">
        <ele>95</ele>
        <time>1970-01-01T00:14:02.000Z</time>
      </trkpt>
      <trkpt lat="42.320302" lon="3.29485">
        <ele>95</ele>
        <time>1970-01-01T00:14:03.000Z</time>
      </trkpt>
      <trkpt lat="42.320281" lon="3.294832">
        <ele>95</ele>
        <time>1970-01-01T00:14:04.000Z</time>
      </trkpt>
      <trkpt lat="42.320259" lon="3.294813">
        <ele>95</ele>
        <time>1970-01-01T00:14:05.000Z</time>
      </trkpt>
      <trkpt lat="42.320238" lon="3.294795">
        <ele>95</ele>
        <time>1970-01-01T00:14:06.000Z</time>
      </trkpt>
      <trkpt lat="42.320216" lon="3.294776">
        <ele>95</ele>
        <time>1970-01-01T00:14:07.000Z</time>
      </trkpt>
      <trkpt lat="42.320194" lon="3.294758">
        <ele>95</ele>
        <time>1970-01-01T00:14:08.000Z</time>
      </trkpt>
      <trkpt lat="42.320173" lon="3.294739">
        <ele>95</ele>
        <time>1970-01-01T00:14:09.000Z</time>
      </trkpt>
      <trkpt lat="42.320151" lon="3.294721">
        <ele>95</ele>
        <time>1970-01-01T00:14:10.000Z</time>
      </trkpt>
      <trkpt lat="42.32013" lon="3.294702">
        <ele>95</ele>
        <time>1970-01-01T00:14:11.000Z</time>
      </trkpt>
      <trkpt lat="42.320108" lon="3.294684">
        <ele>95</ele>
        <time>1970-01-01T00:14:12.000Z</time>
      </trkpt>
      <trkpt lat="42.320074" lon="3.294624">
        <ele>95</ele>
        <time>1970-01-01T00:14:13.000Z</time>
      </trkpt>
      <trkpt lat="42.320062" lon="3.294593">
        <ele>95</ele>
        <time>1970-01-01T00:14:14.000Z</time>
      </trkpt>
      <trkpt lat="42.32005" lon="3.294563">
        <ele>95</ele>
        <time>1970-01-01T00:14:15.000Z</time>
      </trkpt>
      <trkpt lat="42.320038" lon="3.294532">
        <ele>95</ele>
        <time>1970-01-01T00:14:16.000Z</time>
      </trkpt>
      <trkpt lat="42.320026" lon="3.294501">
        <ele>95</ele>
        <time>1970-01-01T00:14:17.000Z</time>
      </trkpt>
      <trkpt lat="42.320014" lon="3.29447">
        <ele>95</ele>
        <time>1970-01-01T00:14:18.000Z</time>
      </trkpt>
      <trkpt lat="42.320002" lon="3.294439">
        <ele>95</ele>
        <time>1970-01-01T00:14:19.000Z</time>
      </trkpt>
      <trkpt lat="42.31999" lon="3.294409">
        <ele>95</ele>
        <time>1970-01-01T00:14:20.000Z</time>
      </trkpt>
      <trkpt lat="42.319978" lon="3.294378">
        <ele>95</ele>
        <time>1970-01-01T00:14:21.000Z</time>
      </trkpt>
      <trkpt lat="42.319966" lon="3.294347">
        <ele>96</ele>
        <time>1970-01-01T00:14:22.000Z</time>
      </trkpt>
      <trkpt lat="42.319952" lon="3.294283">
        <ele>96</ele>
        <time>1970-01-01T00:14:23.000Z</time>
      </trkpt>
      <trkpt lat="42.319946" lon="3.294254">
        <ele>96</ele>
        <time>1970-01-01T00:14:24.000Z</time>
      </trkpt>
      <trkpt lat="42.319941" lon="3.294225">
        <ele>96</ele>
        <time>1970-01-01T00:14:25.000Z</time>
      </trkpt>
      <trkpt lat="42.319935" lon="3.294196">
        <ele>96</ele>
        <time>1970-01-01T00:14:26.000Z</time>
      </trkpt>
      <trkpt lat="42.319929" lon="3.294167">
        <ele>96</ele>
        <time>1970-01-01T00:14:27.000Z</time>
      </trkpt>
      <trkpt lat="42.319923" lon="3.294138">
        <ele>96</ele>
        <time>1970-01-01T00:14:28.000Z</time>
      </trkpt>
      <trkpt lat="42.319917" lon="3.294109">
        <ele>96</ele>
        <time>1970-01-01T00:14:29.000Z</time>
      </trkpt>
      <trkpt lat="42.319912" lon="3.29408">
        <ele>96</ele>
        <time>1970-01-01T00:14:30.000Z</time>
      </trkpt>
      <trkpt lat="42.319906" lon="3.294051">
        <ele>96</ele>
        <time>1970-01-01T00:14:31.000Z</time>
      </trkpt>
      <trkpt lat="42.3199" lon="3.294022">
        <ele>96</ele>
        <time>1970-01-01T00:14:32.000Z</time>
      </trkpt>
      <trkpt lat="42.319881" lon="3.293958">
        <ele>96</ele>
        <time>1970-01-01T00:14:33.000Z</time>
      </trkpt>
      <trkpt lat="42.319872" lon="3.293926">
        <ele>96</ele>
        <time>1970-01-01T00:14:34.000Z</time>
      </trkpt>
      <trkpt lat="42.319863" lon="3.293894">
        <ele>96</ele>
        <time>1970-01-01T00:14:35.000Z</time>
      </trkpt>
      <trkpt lat="42.319854" lon="3.293862">
        <ele>96</ele>
        <time>1970-01-01T00:14:36.000Z</time>
      </trkpt>
      <trkpt lat="42.319846" lon="3.29383">
        <ele>96</ele>
        <time>1970-01-01T00:14:37.000Z</time>
      </trkpt>
      <trkpt lat="42.319837" lon="3.293799">
        <ele>96</ele>
        <time>1970-01-01T00:14:38.000Z</time>
      </trkpt>
      <trkpt lat="42.319828" lon="3.293767">
        <ele>96</ele>
        <time>1970-01-01T00:14:39.000Z</time>
      </trkpt>
      <trkpt lat="42.319819" lon="3.293735">
        <ele>96</ele>
        <time>1970-01-01T00:14:40.000Z</time>
      </trkpt>
      <trkpt lat="42.31981" lon="3.293703">
        <ele>96</ele>
        <time>1970-01-01T00:14:41.000Z</time>
      </trkpt>
      <trkpt lat="42.319801" lon="3.293671">
        <ele>98</ele>
        <time>1970-01-01T00:14:42.000Z</time>
      </trkpt>
      <trkpt lat="42.319772" lon="3.293615">
        <ele>98</ele>
        <time>1970-01-01T00:14:43.000Z</time>
      </trkpt>
      <trkpt lat="42.319757" lon="3.293591">
        <ele>98</ele>
        <time>1970-01-01T00:14:44.000Z</time>
      </trkpt>
      <trkpt lat="42.319741" lon="3.293566">
        <ele>98</ele>
        <time>1970-01-01T00:14:45.000Z</time>
      </trkpt>
      <trkpt lat="42.319725" lon="3.293542">
        <ele>98</ele>
        <time>1970-01-01T00:14:46.000Z</time>
      </trkpt>
      <trkpt lat="42.31971" lon="3.293518">
        <ele>98</ele>
        <time>1970-01-01T00:14:47.000Z</time>
      </trkpt>
      <trkpt lat="42.319694" lon="3.293494">
        <ele>98</ele>
        <time>1970-01-01T00:14:48.000Z</time>
      </trkpt>
      <trkpt lat="42.319678" lon="3.29347">
        <ele>98</ele>
        <time>1970-01-01T00:14:49.000Z</time>
      </trkpt>
      <trkpt lat="42.319662" lon="3.293445">
        <ele>98</ele>
        <time>1970-01-01T00:14:50.000Z</time>
      </trkpt>
      <trkpt lat="42.319647" lon="3.293421">
        <ele>98</ele>
        <time>1970-01-01T00:14:51.000Z</time>
      </trkpt>
      <trkpt lat="42.319631" lon="3.293397">
        <ele>99</ele>
        <time>1970-01-01T00:14:52.000Z</time>
      </trkpt>
      <trkpt lat="42.319588" lon="3.293354">
        <ele>99</ele>
        <time>1970-01-01T00:14:53.000Z</time>
      </trkpt>
      <trkpt lat="42.319567" lon="3.293337">
        <ele>99</ele>
        <time>1970-01-01T00:14:54.000Z</time>
      </trkpt>
      <trkpt lat="42.319546" lon="3.293319">
        <ele>99</ele>
        <time>1970-01-01T00:14:55.000Z</time>
      </trkpt>
      <trkpt lat="42.319525" lon="3.293302">
        <ele>99</ele>
        <time>1970-01-01T00:14:56.000Z</time>
      </trkpt>
      <trkpt lat="42.319504" lon="3.293284">
        <ele>99</ele>
        <time>1970-01-01T00:14:57.000Z</time>
      </trkpt>
      <trkpt lat="42.319482" lon="3.293267">
        <ele>99</ele>
        <time>1970-01-01T00:14:58.000Z</time>
      </trkpt>
      <trkpt lat="42.319461" lon="3.293249">
        <ele>99</ele>
        <time>1970-01-01T00:14:59.000Z</time>
      </trkpt>
      <trkpt lat="42.31944" lon="3.293232">
        <ele>99</ele>
        <time>1970-01-01T00:15:00.000Z</time>
      </trkpt>
      <trkpt lat="42.319419" lon="3.293214">
        <ele>99</ele>
        <time>1970-01-01T00:15:01.000Z</time>
      </trkpt>
      <trkpt lat="42.319398" lon="3.293197">
        <ele>100</ele>
        <time>1970-01-01T00:15:02.000Z</time>
      </trkpt>
      <trkpt lat="42.319356" lon="3.293185">
        <ele>100</ele>
        <time>1970-01-01T00:15:03.000Z</time>
      </trkpt>
      <trkpt lat="42.319336" lon="3.293183">
        <ele>100</ele>
        <time>1970-01-01T00:15:04.000Z</time>
      </trkpt>
      <trkpt lat="42.319315" lon="3.29318">
        <ele>100</ele>
        <time>1970-01-01T00:15:05.000Z</time>
      </trkpt>
      <trkpt lat="42.319294" lon="3.293178">
        <ele>100</ele>
        <time>1970-01-01T00:15:06.000Z</time>
      </trkpt>
      <trkpt lat="42.319274" lon="3.293175">
        <ele>100</ele>
        <time>1970-01-01T00:15:07.000Z</time>
      </trkpt>
      <trkpt lat="42.319253" lon="3.293173">
        <ele>100</ele>
        <time>1970-01-01T00:15:08.000Z</time>
      </trkpt>
      <trkpt lat="42.319232" lon="3.29317">
        <ele>100</ele>
        <time>1970-01-01T00:15:09.000Z</time>
      </trkpt>
      <trkpt lat="42.319212" lon="3.293168">
        <ele>100</ele>
        <time>1970-01-01T00:15:10.000Z</time>
      </trkpt>
      <trkpt lat="42.319191" lon="3.293165">
        <ele>100</ele>
        <time>1970-01-01T00:15:12.000Z</time>
      </trkpt>
      <trkpt lat="42.319148" lon="3.293165">
        <ele>100</ele>
        <time>1970-01-01T00:15:13.000Z</time>
      </trkpt>
      <trkpt lat="42.319128" lon="3.293168">
        <ele>100</ele>
        <time>1970-01-01T00:15:14.000Z</time>
      </trkpt>
      <trkpt lat="42.319107" lon="3.29317">
        <ele>100</ele>
        <time>1970-01-01T00:15:15.000Z</time>
      </trkpt>
      <trkpt lat="42.319087" lon="3.293173">
        <ele>100</ele>
        <time>1970-01-01T00:15:16.000Z</time>
      </trkpt>
      <trkpt lat="42.319066" lon="3.293175">
        <ele>100</ele>
        <time>1970-01-01T00:15:17.000Z</time>
      </trkpt>
      <trkpt lat="42.319045" lon="3.293177">
        <ele>100</ele>
        <time>1970-01-01T00:15:18.000Z</time>
      </trkpt>
      <trkpt lat="42.319025" lon="3.29318">
        <ele>100</ele>
        <time>1970-01-01T00:15:19.000Z</time>
      </trkpt>
      <trkpt lat="42.319004" lon="3.293182">
        <ele>100</ele>
        <time>1970-01-01T00:15:20.000Z</time>
      </trkpt>
      <trkpt lat="42.318984" lon="3.293185">
        <ele>100</ele>
        <time>1970-01-01T00:15:21.000Z</time>
      </trkpt>
      <trkpt lat="42.318963" lon="3.293187">
        <ele>104</ele>
        <time>1970-01-01T00:15:22.000Z</time>
      </trkpt>
      <trkpt lat="42.318922" lon="3.293194">
        <ele>104</ele>
        <time>1970-01-01T00:15:23.000Z</time>
      </trkpt>
      <trkpt lat="42.318903" lon="3.293196">
        <ele>104</ele>
        <time>1970-01-01T00:15:24.000Z</time>
      </trkpt>
      <trkpt lat="42.318885" lon="3.293198">
        <ele>104</ele>
        <time>1970-01-01T00:15:25.000Z</time>
      </trkpt>
      <trkpt lat="42.318866" lon="3.2932">
        <ele>104</ele>
        <time>1970-01-01T00:15:26.000Z</time>
      </trkpt>
      <trkpt lat="42.318847" lon="3.293202">
        <ele>104</ele>
        <time>1970-01-01T00:15:27.000Z</time>
      </trkpt>
      <trkpt lat="42.318828" lon="3.293204">
        <ele>104</ele>
        <time>1970-01-01T00:15:28.000Z</time>
      </trkpt>
      <trkpt lat="42.318809" lon="3.293206">
        <ele>104</ele>
        <time>1970-01-01T00:15:29.000Z</time>
      </trkpt>
      <trkpt lat="42.318791" lon="3.293208">
        <ele>104</ele>
        <time>1970-01-01T00:15:30.000Z</time>
      </trkpt>
      <trkpt lat="42.318772" lon="3.29321">
        <ele>104</ele>
        <time>1970-01-01T00:15:31.000Z</time>
      </trkpt>
      <trkpt lat="42.318753" lon="3.293212">
        <ele>105</ele>
        <time>1970-01-01T00:15:32.000Z</time>
      </trkpt>
      <trkpt lat="42.318714" lon="3.293207">
        <ele>105</ele>
        <time>1970-01-01T00:15:33.000Z</time>
      </trkpt>
      <trkpt lat="42.318697" lon="3.293202">
        <ele>105</ele>
        <time>1970-01-01T00:15:34.000Z</time>
      </trkpt>
      <trkpt lat="42.318679" lon="3.293197">
        <ele>105</ele>
        <time>1970-01-01T00:15:35.000Z</time>
      </trkpt>
      <trkpt lat="42.318662" lon="3.293192">
        <ele>105</ele>
        <time>1970-01-01T00:15:36.000Z</time>
      </trkpt>
      <trkpt lat="42.318644" lon="3.293187">
        <ele>105</ele>
        <time>1970-01-01T00:15:37.000Z</time>
      </trkpt>
      <trkpt lat="42.318626" lon="3.293182">
        <ele>105</ele>
        <time>1970-01-01T00:15:38.000Z</time>
      </trkpt>
      <trkpt lat="42.318609" lon="3.293177">
        <ele>105</ele>
        <time>1970-01-01T00:15:39.000Z</time>
      </trkpt>
      <trkpt lat="42.318591" lon="3.293172">
        <ele>105</ele>
        <time>1970-01-01T00:15:40.000Z</time>
      </trkpt>
      <trkpt lat="42.318574" lon="3.293167">
        <ele>105</ele>
        <time>1970-01-01T00:15:41.000Z</time>
      </trkpt>
      <trkpt lat="42.318556" lon="3.293162">
        <ele>106</ele>
        <time>1970-01-01T00:15:42.000Z</time>
      </trkpt>
      <trkpt lat="42.318527" lon="3.293124">
        <ele>106</ele>
        <time>1970-01-01T00:15:43.000Z</time>
      </trkpt>
      <trkpt lat="42.318513" lon="3.293098">
        <ele>106</ele>
        <time>1970-01-01T00:15:44.000Z</time>
      </trkpt>
      <trkpt lat="42.3185" lon="3.293072">
        <ele>106</ele>
        <time>1970-01-01T00:15:45.000Z</time>
      </trkpt>
      <trkpt lat="42.318486" lon="3.293046">
        <ele>106</ele>
        <time>1970-01-01T00:15:47.000Z</time>
      </trkpt>
      <trkpt lat="42.318473" lon="3.29302">
        <ele>106</ele>
        <time>1970-01-01T00:15:49.000Z</time>
      </trkpt>
      <trkpt lat="42.318459" lon="3.292994">
        <ele>106</ele>
        <time>1970-01-01T00:15:51.000Z</time>
      </trkpt>
      <trkpt lat="42.318446" lon="3.292968">
        <ele>108</ele>
        <time>1970-01-01T00:15:52.000Z</time>
      </trkpt>
      <trkpt lat="42.31842" lon="3.292901">
        <ele>108</ele>
        <time>1970-01-01T00:15:53.000Z</time>
      </trkpt>
      <trkpt lat="42.318405" lon="3.292862">
        <ele>108</ele>
        <time>1970-01-01T00:15:54.000Z</time>
      </trkpt>
      <trkpt lat="42.318389" lon="3.292823">
        <ele>108</ele>
        <time>1970-01-01T00:15:55.000Z</time>
      </trkpt>
      <trkpt lat="42.318373" lon="3.292784">
        <ele>108</ele>
        <time>1970-01-01T00:15:56.000Z</time>
      </trkpt>
      <trkpt lat="42.318358" lon="3.292744">
        <ele>108</ele>
        <time>1970-01-01T00:15:57.000Z</time>
      </trkpt>
      <trkpt lat="42.318342" lon="3.292705">
        <ele>108</ele>
        <time>1970-01-01T00:15:58.000Z</time>
      </trkpt>
      <trkpt lat="42.318326" lon="3.292666">
        <ele>108</ele>
        <time>1970-01-01T00:15:59.000Z</time>
      </trkpt>
      <trkpt lat="42.31831" lon="3.292627">
        <ele>108</ele>
        <time>1970-01-01T00:16:00.000Z</time>
      </trkpt>
      <trkpt lat="42.318295" lon="3.292588">
        <ele>108</ele>
        <time>1970-01-01T00:16:01.000Z</time>
      </trkpt>
      <trkpt lat="42.318279" lon="3.292549">
        <ele>110</ele>
        <time>1970-01-01T00:16:02.000Z</time>
      </trkpt>
      <trkpt lat="42.318237" lon="3.292438">
        <ele>110</ele>
        <time>1970-01-01T00:16:03.000Z</time>
      </trkpt>
      <trkpt lat="42.318214" lon="3.292382">
        <ele>110</ele>
        <time>1970-01-01T00:16:04.000Z</time>
      </trkpt>
      <trkpt lat="42.318191" lon="3.292325">
        <ele>110</ele>
        <time>1970-01-01T00:16:05.000Z</time>
      </trkpt>
      <trkpt lat="42.318168" lon="3.292269">
        <ele>110</ele>
        <time>1970-01-01T00:16:06.000Z</time>
      </trkpt>
      <trkpt lat="42.318145" lon="3.292212">
        <ele>110</ele>
        <time>1970-01-01T00:16:07.000Z</time>
      </trkpt>
      <trkpt lat="42.318121" lon="3.292156">
        <ele>110</ele>
        <time>1970-01-01T00:16:08.000Z</time>
      </trkpt>
      <trkpt lat="42.318098" lon="3.292099">
        <ele>110</ele>
        <time>1970-01-01T00:16:09.000Z</time>
      </trkpt>
      <trkpt lat="42.318075" lon="3.292043">
        <ele>110</ele>
        <time>1970-01-01T00:16:10.000Z</time>
      </trkpt>
      <trkpt lat="42.318052" lon="3.291986">
        <ele>110</ele>
        <time>1970-01-01T00:16:11.000Z</time>
      </trkpt>
      <trkpt lat="42.318029" lon="3.29193">
        <ele>108</ele>
        <time>1970-01-01T00:16:12.000Z</time>
      </trkpt>
      <trkpt lat="42.31798" lon="3.291812">
        <ele>108</ele>
        <time>1970-01-01T00:16:13.000Z</time>
      </trkpt>
      <trkpt lat="42.317959" lon="3.291756">
        <ele>108</ele>
        <time>1970-01-01T00:16:14.000Z</time>
      </trkpt>
      <trkpt lat="42.317939" lon="3.291699">
        <ele>108</ele>
        <time>1970-01-01T00:16:15.000Z</time>
      </trkpt>
      <trkpt lat="42.317918" lon="3.291642">
        <ele>108</ele>
        <time>1970-01-01T00:16:16.000Z</time>
      </trkpt>
      <trkpt lat="42.317897" lon="3.291585">
        <ele>108</ele>
        <time>1970-01-01T00:16:17.000Z</time>
      </trkpt>
      <trkpt lat="42.317876" lon="3.291529">
        <ele>108</ele>
        <time>1970-01-01T00:16:18.000Z</time>
      </trkpt>
      <trkpt lat="42.317855" lon="3.291472">
        <ele>108</ele>
        <time>1970-01-01T00:16:19.000Z</time>
      </trkpt>
      <trkpt lat="42.317835" lon="3.291415">
        <ele>108</ele>
        <time>1970-01-01T00:16:20.000Z</time>
      </trkpt>
      <trkpt lat="42.317814" lon="3.291359">
        <ele>108</ele>
        <time>1970-01-01T00:16:21.000Z</time>
      </trkpt>
      <trkpt lat="42.317793" lon="3.291302">
        <ele>104</ele>
        <time>1970-01-01T00:16:22.000Z</time>
      </trkpt>
      <trkpt lat="42.317805" lon="3.29117">
        <ele>104</ele>
        <time>1970-01-01T00:16:23.000Z</time>
      </trkpt>
      <trkpt lat="42.317831" lon="3.291102">
        <ele>104</ele>
        <time>1970-01-01T00:16:24.000Z</time>
      </trkpt>
      <trkpt lat="42.317857" lon="3.291035">
        <ele>104</ele>
        <time>1970-01-01T00:16:25.000Z</time>
      </trkpt>
      <trkpt lat="42.317883" lon="3.290967">
        <ele>104</ele>
        <time>1970-01-01T00:16:26.000Z</time>
      </trkpt>
      <trkpt lat="42.317909" lon="3.2909">
        <ele>104</ele>
        <time>1970-01-01T00:16:27.000Z</time>
      </trkpt>
      <trkpt lat="42.317935" lon="3.290833">
        <ele>104</ele>
        <time>1970-01-01T00:16:28.000Z</time>
      </trkpt>
      <trkpt lat="42.317961" lon="3.290765">
        <ele>104</ele>
        <time>1970-01-01T00:16:29.000Z</time>
      </trkpt>
      <trkpt lat="42.317987" lon="3.290698">
        <ele>104</ele>
        <time>1970-01-01T00:16:30.000Z</time>
      </trkpt>
      <trkpt lat="42.318013" lon="3.29063">
        <ele>104</ele>
        <time>1970-01-01T00:16:31.000Z</time>
      </trkpt>
      <trkpt lat="42.318039" lon="3.290563">
        <ele>97</ele>
        <time>1970-01-01T00:16:32.000Z</time>
      </trkpt>
      <trkpt lat="42.318091" lon="3.290416">
        <ele>97</ele>
        <time>1970-01-01T00:16:33.000Z</time>
      </trkpt>
      <trkpt lat="42.318097" lon="3.290348">
        <ele>97</ele>
        <time>1970-01-01T00:16:34.000Z</time>
      </trkpt>
      <trkpt lat="42.318104" lon="3.290281">
        <ele>97</ele>
        <time>1970-01-01T00:16:35.000Z</time>
      </trkpt>
      <trkpt lat="42.31811" lon="3.290213">
        <ele>97</ele>
        <time>1970-01-01T00:16:36.000Z</time>
      </trkpt>
      <trkpt lat="42.318117" lon="3.290146">
        <ele>97</ele>
        <time>1970-01-01T00:16:37.000Z</time>
      </trkpt>
      <trkpt lat="42.318124" lon="3.290078">
        <ele>97</ele>
        <time>1970-01-01T00:16:38.000Z</time>
      </trkpt>
      <trkpt lat="42.31813" lon="3.290011">
        <ele>97</ele>
        <time>1970-01-01T00:16:39.000Z</time>
      </trkpt>
      <trkpt lat="42.318137" lon="3.289943">
        <ele>97</ele>
        <time>1970-01-01T00:16:40.000Z</time>
      </trkpt>
      <trkpt lat="42.318143" lon="3.289876">
        <ele>97</ele>
        <time>1970-01-01T00:16:41.000Z</time>
      </trkpt>
      <trkpt lat="42.31815" lon="3.289808">
        <ele>93</ele>
        <time>1970-01-01T00:16:42.000Z</time>
      </trkpt>
      <trkpt lat="42.318043" lon="3.289743">
        <ele>93</ele>
        <time>1970-01-01T00:16:43.000Z</time>
      </trkpt>
      <trkpt lat="42.317979" lon="3.289744">
        <ele>93</ele>
        <time>1970-01-01T00:16:44.000Z</time>
      </trkpt>
      <trkpt lat="42.317916" lon="3.289745">
        <ele>93</ele>
        <time>1970-01-01T00:16:45.000Z</time>
      </trkpt>
      <trkpt lat="42.317853" lon="3.289746">
        <ele>93</ele>
        <time>1970-01-01T00:16:46.000Z</time>
      </trkpt>
      <trkpt lat="42.31779" lon="3.289748">
        <ele>93</ele>
        <time>1970-01-01T00:16:47.000Z</time>
      </trkpt>
      <trkpt lat="42.317726" lon="3.289749">
        <ele>93</ele>
        <time>1970-01-01T00:16:48.000Z</time>
      </trkpt>
      <trkpt lat="42.317663" lon="3.28975">
        <ele>93</ele>
        <time>1970-01-01T00:16:49.000Z</time>
      </trkpt>
      <trkpt lat="42.3176" lon="3.289751">
        <ele>93</ele>
        <time>1970-01-01T00:16:50.000Z</time>
      </trkpt>
      <trkpt lat="42.317536" lon="3.289752">
        <ele>93</ele>
        <time>1970-01-01T00:16:51.000Z</time>
      </trkpt>
      <trkpt lat="42.317473" lon="3.289753">
        <ele>91</ele>
        <time>1970-01-01T00:16:52.000Z</time>
      </trkpt>
      <trkpt lat="42.31735" lon="3.28974">
        <ele>91</ele>
        <time>1970-01-01T00:16:53.000Z</time>
      </trkpt>
      <trkpt lat="42.317303" lon="3.289711">
        <ele>91</ele>
        <time>1970-01-01T00:16:54.000Z</time>
      </trkpt>
      <trkpt lat="42.317256" lon="3.289682">
        <ele>91</ele>
        <time>1970-01-01T00:16:55.000Z</time>
      </trkpt>
      <trkpt lat="42.317209" lon="3.289653">
        <ele>91</ele>
        <time>1970-01-01T00:16:56.000Z</time>
      </trkpt>
      <trkpt lat="42.317163" lon="3.289624">
        <ele>91</ele>
        <time>1970-01-01T00:16:57.000Z</time>
      </trkpt>
      <trkpt lat="42.317116" lon="3.289595">
        <ele>91</ele>
        <time>1970-01-01T00:16:58.000Z</time>
      </trkpt>
      <trkpt lat="42.317069" lon="3.289566">
        <ele>91</ele>
        <time>1970-01-01T00:16:59.000Z</time>
      </trkpt>
      <trkpt lat="42.317022" lon="3.289537">
        <ele>91</ele>
        <time>1970-01-01T00:17:00.000Z</time>
      </trkpt>
      <trkpt lat="42.316975" lon="3.289508">
        <ele>91</ele>
        <time>1970-01-01T00:17:01.000Z</time>
      </trkpt>
      <trkpt lat="42.316928" lon="3.289479">
        <ele>86</ele>
        <time>1970-01-01T00:17:02.000Z</time>
      </trkpt>
      <trkpt lat="42.316852" lon="3.289351">
        <ele>86</ele>
        <time>1970-01-01T00:17:03.000Z</time>
      </trkpt>
      <trkpt lat="42.316821" lon="3.289284">
        <ele>86</ele>
        <time>1970-01-01T00:17:04.000Z</time>
      </trkpt>
      <trkpt lat="42.316791" lon="3.289218">
        <ele>86</ele>
        <time>1970-01-01T00:17:05.000Z</time>
      </trkpt>
      <trkpt lat="42.31676" lon="3.289151">
        <ele>86</ele>
        <time>1970-01-01T00:17:06.000Z</time>
      </trkpt>
      <trkpt lat="42.31673" lon="3.289084">
        <ele>86</ele>
        <time>1970-01-01T00:17:07.000Z</time>
      </trkpt>
      <trkpt lat="42.316699" lon="3.289017">
        <ele>86</ele>
        <time>1970-01-01T00:17:08.000Z</time>
      </trkpt>
      <trkpt lat="42.316669" lon="3.28895">
        <ele>86</ele>
        <time>1970-01-01T00:17:09.000Z</time>
      </trkpt>
      <trkpt lat="42.316638" lon="3.288884">
        <ele>86</ele>
        <time>1970-01-01T00:17:10.000Z</time>
      </trkpt>
      <trkpt lat="42.316608" lon="3.288817">
        <ele>86</ele>
        <time>1970-01-01T00:17:11.000Z</time>
      </trkpt>
      <trkpt lat="42.316577" lon="3.28875">
        <ele>85</ele>
        <time>1970-01-01T00:17:12.000Z</time>
      </trkpt>
      <trkpt lat="42.316508" lon="3.288665">
        <ele>85</ele>
        <time>1970-01-01T00:17:13.000Z</time>
      </trkpt>
      <trkpt lat="42.316474" lon="3.288647">
        <ele>85</ele>
        <time>1970-01-01T00:17:14.000Z</time>
      </trkpt>
      <trkpt lat="42.316439" lon="3.288629">
        <ele>85</ele>
        <time>1970-01-01T00:17:15.000Z</time>
      </trkpt>
      <trkpt lat="42.316405" lon="3.288611">
        <ele>85</ele>
        <time>1970-01-01T00:17:16.000Z</time>
      </trkpt>
      <trkpt lat="42.316371" lon="3.288593">
        <ele>85</ele>
        <time>1970-01-01T00:17:17.000Z</time>
      </trkpt>
      <trkpt lat="42.316337" lon="3.288576">
        <ele>85</ele>
        <time>1970-01-01T00:17:18.000Z</time>
      </trkpt>
      <trkpt lat="42.316303" lon="3.288558">
        <ele>85</ele>
        <time>1970-01-01T00:17:19.000Z</time>
      </trkpt>
      <trkpt lat="42.316268" lon="3.28854">
        <ele>85</ele>
        <time>1970-01-01T00:17:20.000Z</time>
      </trkpt>
      <trkpt lat="42.316234" lon="3.288522">
        <ele>85</ele>
        <time>1970-01-01T00:17:21.000Z</time>
      </trkpt>
      <trkpt lat="42.3162" lon="3.288504">
        <ele>82</ele>
        <time>1970-01-01T00:17:22.000Z</time>
      </trkpt>
      <trkpt lat="42.316152" lon="3.288494">
        <ele>82</ele>
        <time>1970-01-01T00:17:23.000Z</time>
      </trkpt>
      <trkpt lat="42.31613" lon="3.288489">
        <ele>82</ele>
        <time>1970-01-01T00:17:24.000Z</time>
      </trkpt>
      <trkpt lat="42.316108" lon="3.288485">
        <ele>82</ele>
        <time>1970-01-01T00:17:25.000Z</time>
      </trkpt>
      <trkpt lat="42.316086" lon="3.28848">
        <ele>82</ele>
        <time>1970-01-01T00:17:26.000Z</time>
      </trkpt>
      <trkpt lat="42.316065" lon="3.288476">
        <ele>82</ele>
        <time>1970-01-01T00:17:27.000Z</time>
      </trkpt>
      <trkpt lat="42.316043" lon="3.288472">
        <ele>82</ele>
        <time>1970-01-01T00:17:28.000Z</time>
      </trkpt>
      <trkpt lat="42.316021" lon="3.288467">
        <ele>82</ele>
        <time>1970-01-01T00:17:29.000Z</time>
      </trkpt>
      <trkpt lat="42.315999" lon="3.288463">
        <ele>82</ele>
        <time>1970-01-01T00:17:30.000Z</time>
      </trkpt>
      <trkpt lat="42.315977" lon="3.288458">
        <ele>82</ele>
        <time>1970-01-01T00:17:31.000Z</time>
      </trkpt>
      <trkpt lat="42.315955" lon="3.288454">
        <ele>85</ele>
        <time>1970-01-01T00:17:32.000Z</time>
      </trkpt>
      <trkpt lat="42.315908" lon="3.288443">
        <ele>85</ele>
        <time>1970-01-01T00:17:33.000Z</time>
      </trkpt>
      <trkpt lat="42.315886" lon="3.288438">
        <ele>85</ele>
        <time>1970-01-01T00:17:34.000Z</time>
      </trkpt>
      <trkpt lat="42.315863" lon="3.288434">
        <ele>85</ele>
        <time>1970-01-01T00:17:35.000Z</time>
      </trkpt>
      <trkpt lat="42.315841" lon="3.288429">
        <ele>85</ele>
        <time>1970-01-01T00:17:36.000Z</time>
      </trkpt>
      <trkpt lat="42.315818" lon="3.288424">
        <ele>85</ele>
        <time>1970-01-01T00:17:37.000Z</time>
      </trkpt>
      <trkpt lat="42.315795" lon="3.288419">
        <ele>85</ele>
        <time>1970-01-01T00:17:38.000Z</time>
      </trkpt>
      <trkpt lat="42.315773" lon="3.288414">
        <ele>85</ele>
        <time>1970-01-01T00:17:39.000Z</time>
      </trkpt>
      <trkpt lat="42.31575" lon="3.28841">
        <ele>85</ele>
        <time>1970-01-01T00:17:40.000Z</time>
      </trkpt>
      <trkpt lat="42.315728" lon="3.288405">
        <ele>85</ele>
        <time>1970-01-01T00:17:41.000Z</time>
      </trkpt>
      <trkpt lat="42.315705" lon="3.2884">
        <ele>87</ele>
        <time>1970-01-01T00:17:42.000Z</time>
      </trkpt>
      <trkpt lat="42.315655" lon="3.288392">
        <ele>87</ele>
        <time>1970-01-01T00:17:43.000Z</time>
      </trkpt>
      <trkpt lat="42.315631" lon="3.288387">
        <ele>87</ele>
        <time>1970-01-01T00:17:44.000Z</time>
      </trkpt>
      <trkpt lat="42.315607" lon="3.288382">
        <ele>87</ele>
        <time>1970-01-01T00:17:45.000Z</time>
      </trkpt>
      <trkpt lat="42.315583" lon="3.288377">
        <ele>87</ele>
        <time>1970-01-01T00:17:46.000Z</time>
      </trkpt>
      <trkpt lat="42.31556" lon="3.288372">
        <ele>87</ele>
        <time>1970-01-01T00:17:47.000Z</time>
      </trkpt>
      <trkpt lat="42.315536" lon="3.288367">
        <ele>87</ele>
        <time>1970-01-01T00:17:48.000Z</time>
      </trkpt>
      <trkpt lat="42.315512" lon="3.288362">
        <ele>87</ele>
        <time>1970-01-01T00:17:49.000Z</time>
      </trkpt>
      <trkpt lat="42.315488" lon="3.288357">
        <ele>87</ele>
        <time>1970-01-01T00:17:50.000Z</time>
      </trkpt>
      <trkpt lat="42.315464" lon="3.288352">
        <ele>87</ele>
        <time>1970-01-01T00:17:51.000Z</time>
      </trkpt>
      <trkpt lat="42.31544" lon="3.288347">
        <ele>88</ele>
        <time>1970-01-01T00:17:52.000Z</time>
      </trkpt>
      <trkpt lat="42.315379" lon="3.288333">
        <ele>88</ele>
        <time>1970-01-01T00:17:53.000Z</time>
      </trkpt>
      <trkpt lat="42.315346" lon="3.288326">
        <ele>88</ele>
        <time>1970-01-01T00:17:54.000Z</time>
      </trkpt>
      <trkpt lat="42.315313" lon="3.288319">
        <ele>88</ele>
        <time>1970-01-01T00:17:55.000Z</time>
      </trkpt>
      <trkpt lat="42.31528" lon="3.288312">
        <ele>88</ele>
        <time>1970-01-01T00:17:56.000Z</time>
      </trkpt>
      <trkpt lat="42.315247" lon="3.288305">
        <ele>88</ele>
        <time>1970-01-01T00:17:57.000Z</time>
      </trkpt>
      <trkpt lat="42.315214" lon="3.288298">
        <ele>88</ele>
        <time>1970-01-01T00:17:58.000Z</time>
      </trkpt>
      <trkpt lat="42.315181" lon="3.288291">
        <ele>88</ele>
        <time>1970-01-01T00:17:59.000Z</time>
      </trkpt>
      <trkpt lat="42.315148" lon="3.288284">
        <ele>88</ele>
        <time>1970-01-01T00:18:00.000Z</time>
      </trkpt>
      <trkpt lat="42.315115" lon="3.288277">
        <ele>88</ele>
        <time>1970-01-01T00:18:01.000Z</time>
      </trkpt>
      <trkpt lat="42.315082" lon="3.28827">
        <ele>90</ele>
        <time>1970-01-01T00:18:02.000Z</time>
      </trkpt>
      <trkpt lat="42.314988" lon="3.288251">
        <ele>90</ele>
        <time>1970-01-01T00:18:03.000Z</time>
      </trkpt>
      <trkpt lat="42.314941" lon="3.288241">
        <ele>90</ele>
        <time>1970-01-01T00:18:04.000Z</time>
      </trkpt>
      <trkpt lat="42.314894" lon="3.288231">
        <ele>90</ele>
        <time>1970-01-01T00:18:05.000Z</time>
      </trkpt>
      <trkpt lat="42.314847" lon="3.288221">
        <ele>90</ele>
        <time>1970-01-01T00:18:06.000Z</time>
      </trkpt>
      <trkpt lat="42.3148" lon="3.288211">
        <ele>90</ele>
        <time>1970-01-01T00:18:07.000Z</time>
      </trkpt>
      <trkpt lat="42.314753" lon="3.288201">
        <ele>90</ele>
        <time>1970-01-01T00:18:08.000Z</time>
      </trkpt>
      <trkpt lat="42.314706" lon="3.288191">
        <ele>90</ele>
        <time>1970-01-01T00:18:09.000Z</time>
      </trkpt>
      <trkpt lat="42.314659" lon="3.288181">
        <ele>90</ele>
        <time>1970-01-01T00:18:10.000Z</time>
      </trkpt>
      <trkpt lat="42.314612" lon="3.288171">
        <ele>90</ele>
        <time>1970-01-01T00:18:11.000Z</time>
      </trkpt>
      <trkpt lat="42.314565" lon="3.288161">
        <ele>90</ele>
        <time>1970-01-01T00:18:12.000Z</time>
      </trkpt>
      <trkpt lat="42.314497" lon="3.288143">
        <ele>90</ele>
        <time>1970-01-01T00:18:13.000Z</time>
      </trkpt>
      <trkpt lat="42.31447" lon="3.288137">
        <ele>90</ele>
        <time>1970-01-01T00:18:14.000Z</time>
      </trkpt>
      <trkpt lat="42.314444" lon="3.28813">
        <ele>90</ele>
        <time>1970-01-01T00:18:15.000Z</time>
      </trkpt>
      <trkpt lat="42.314418" lon="3.288123">
        <ele>90</ele>
        <time>1970-01-01T00:18:16.000Z</time>
      </trkpt>
      <trkpt lat="42.314392" lon="3.288116">
        <ele>90</ele>
        <time>1970-01-01T00:18:17.000Z</time>
      </trkpt>
      <trkpt lat="42.314365" lon="3.28811">
        <ele>90</ele>
        <time>1970-01-01T00:18:18.000Z</time>
      </trkpt>
      <trkpt lat="42.314339" lon="3.288103">
        <ele>90</ele>
        <time>1970-01-01T00:18:19.000Z</time>
      </trkpt>
      <trkpt lat="42.314313" lon="3.288096">
        <ele>90</ele>
        <time>1970-01-01T00:18:20.000Z</time>
      </trkpt>
      <trkpt lat="42.314286" lon="3.28809">
        <ele>90</ele>
        <time>1970-01-01T00:18:21.000Z</time>
      </trkpt>
      <trkpt lat="42.31426" lon="3.288083">
        <ele>88</ele>
        <time>1970-01-01T00:18:22.000Z</time>
      </trkpt>
      <trkpt lat="42.314207" lon="3.288073">
        <ele>88</ele>
        <time>1970-01-01T00:18:23.000Z</time>
      </trkpt>
      <trkpt lat="42.314182" lon="3.288068">
        <ele>88</ele>
        <time>1970-01-01T00:18:24.000Z</time>
      </trkpt>
      <trkpt lat="42.314157" lon="3.288064">
        <ele>88</ele>
        <time>1970-01-01T00:18:25.000Z</time>
      </trkpt>
      <trkpt lat="42.314132" lon="3.288059">
        <ele>88</ele>
        <time>1970-01-01T00:18:26.000Z</time>
      </trkpt>
      <trkpt lat="42.314107" lon="3.288054">
        <ele>88</ele>
        <time>1970-01-01T00:18:27.000Z</time>
      </trkpt>
      <trkpt lat="42.314081" lon="3.288049">
        <ele>88</ele>
        <time>1970-01-01T00:18:28.000Z</time>
      </trkpt>
      <trkpt lat="42.314056" lon="3.288044">
        <ele>88</ele>
        <time>1970-01-01T00:18:29.000Z</time>
      </trkpt>
      <trkpt lat="42.314031" lon="3.28804">
        <ele>88</ele>
        <time>1970-01-01T00:18:30.000Z</time>
      </trkpt>
      <trkpt lat="42.314006" lon="3.288035">
        <ele>88</ele>
        <time>1970-01-01T00:18:31.000Z</time>
      </trkpt>
      <trkpt lat="42.313981" lon="3.28803">
        <ele>90</ele>
        <time>1970-01-01T00:18:32.000Z</time>
      </trkpt>
      <trkpt lat="42.313934" lon="3.288018">
        <ele>90</ele>
        <time>1970-01-01T00:18:33.000Z</time>
      </trkpt>
      <trkpt lat="42.313913" lon="3.288012">
        <ele>90</ele>
        <time>1970-01-01T00:18:34.000Z</time>
      </trkpt>
      <trkpt lat="42.313893" lon="3.288005">
        <ele>90</ele>
        <time>1970-01-01T00:18:35.000Z</time>
      </trkpt>
      <trkpt lat="42.313872" lon="3.287999">
        <ele>90</ele>
        <time>1970-01-01T00:18:36.000Z</time>
      </trkpt>
      <trkpt lat="42.313851" lon="3.287992">
        <ele>90</ele>
        <time>1970-01-01T00:18:37.000Z</time>
      </trkpt>
      <trkpt lat="42.31383" lon="3.287986">
        <ele>90</ele>
        <time>1970-01-01T00:18:38.000Z</time>
      </trkpt>
      <trkpt lat="42.313809" lon="3.287979">
        <ele>90</ele>
        <time>1970-01-01T00:18:39.000Z</time>
      </trkpt>
      <trkpt lat="42.313789" lon="3.287973">
        <ele>90</ele>
        <time>1970-01-01T00:18:40.000Z</time>
      </trkpt>
      <trkpt lat="42.313768" lon="3.287966">
        <ele>90</ele>
        <time>1970-01-01T00:18:41.000Z</time>
      </trkpt>
      <trkpt lat="42.313747" lon="3.28796">
        <ele>93</ele>
        <time>1970-01-01T00:18:42.000Z</time>
      </trkpt>
      <trkpt lat="42.3137" lon="3.287951">
        <ele>93</ele>
        <time>1970-01-01T00:18:43.000Z</time>
      </trkpt>
      <trkpt lat="42.313676" lon="3.287948">
        <ele>93</ele>
        <time>1970-01-01T00:18:44.000Z</time>
      </trkpt>
      <trkpt lat="42.313653" lon="3.287946">
        <ele>93</ele>
        <time>1970-01-01T00:18:45.000Z</time>
      </trkpt>
      <trkpt lat="42.313629" lon="3.287943">
        <ele>93</ele>
        <time>1970-01-01T00:18:46.000Z</time>
      </trkpt>
      <trkpt lat="42.313606" lon="3.287941">
        <ele>93</ele>
        <time>1970-01-01T00:18:47.000Z</time>
      </trkpt>
      <trkpt lat="42.313583" lon="3.287939">
        <ele>93</ele>
        <time>1970-01-01T00:18:48.000Z</time>
      </trkpt>
      <trkpt lat="42.313559" lon="3.287936">
        <ele>93</ele>
        <time>1970-01-01T00:18:49.000Z</time>
      </trkpt>
      <trkpt lat="42.313536" lon="3.287934">
        <ele>93</ele>
        <time>1970-01-01T00:18:50.000Z</time>
      </trkpt>
      <trkpt lat="42.313512" lon="3.287931">
        <ele>93</ele>
        <time>1970-01-01T00:18:51.000Z</time>
      </trkpt>
      <trkpt lat="42.313489" lon="3.287929">
        <ele>94</ele>
        <time>1970-01-01T00:18:52.000Z</time>
      </trkpt>
      <trkpt lat="42.313438" lon="3.287935">
        <ele>94</ele>
        <time>1970-01-01T00:18:53.000Z</time>
      </trkpt>
      <trkpt lat="42.313414" lon="3.287941">
        <ele>94</ele>
        <time>1970-01-01T00:18:54.000Z</time>
      </trkpt>
      <trkpt lat="42.313391" lon="3.287946">
        <ele>94</ele>
        <time>1970-01-01T00:18:55.000Z</time>
      </trkpt>
      <trkpt lat="42.313367" lon="3.287952">
        <ele>94</ele>
        <time>1970-01-01T00:18:56.000Z</time>
      </trkpt>
      <trkpt lat="42.313343" lon="3.287957">
        <ele>94</ele>
        <time>1970-01-01T00:18:57.000Z</time>
      </trkpt>
      <trkpt lat="42.313319" lon="3.287962">
        <ele>94</ele>
        <time>1970-01-01T00:18:58.000Z</time>
      </trkpt>
      <trkpt lat="42.313295" lon="3.287968">
        <ele>94</ele>
        <time>1970-01-01T00:18:59.000Z</time>
      </trkpt>
      <trkpt lat="42.313272" lon="3.287973">
        <ele>94</ele>
        <time>1970-01-01T00:19:00.000Z</time>
      </trkpt>
      <trkpt lat="42.313248" lon="3.287979">
        <ele>94</ele>
        <time>1970-01-01T00:19:01.000Z</time>
      </trkpt>
      <trkpt lat="42.313224" lon="3.287984">
        <ele>95</ele>
        <time>1970-01-01T00:19:02.000Z</time>
      </trkpt>
      <trkpt lat="42.313161" lon="3.288007">
        <ele>95</ele>
        <time>1970-01-01T00:19:03.000Z</time>
      </trkpt>
      <trkpt lat="42.313124" lon="3.288023">
        <ele>95</ele>
        <time>1970-01-01T00:19:04.000Z</time>
      </trkpt>
      <trkpt lat="42.313086" lon="3.288038">
        <ele>95</ele>
        <time>1970-01-01T00:19:05.000Z</time>
      </trkpt>
      <trkpt lat="42.313049" lon="3.288054">
        <ele>95</ele>
        <time>1970-01-01T00:19:06.000Z</time>
      </trkpt>
      <trkpt lat="42.313012" lon="3.28807">
        <ele>95</ele>
        <time>1970-01-01T00:19:07.000Z</time>
      </trkpt>
      <trkpt lat="42.312975" lon="3.288086">
        <ele>95</ele>
        <time>1970-01-01T00:19:08.000Z</time>
      </trkpt>
      <trkpt lat="42.312938" lon="3.288102">
        <ele>95</ele>
        <time>1970-01-01T00:19:09.000Z</time>
      </trkpt>
      <trkpt lat="42.3129" lon="3.288117">
        <ele>95</ele>
        <time>1970-01-01T00:19:10.000Z</time>
      </trkpt>
      <trkpt lat="42.312863" lon="3.288133">
        <ele>95</ele>
        <time>1970-01-01T00:19:11.000Z</time>
      </trkpt>
      <trkpt lat="42.312826" lon="3.288149">
        <ele>97</ele>
        <time>1970-01-01T00:19:12.000Z</time>
      </trkpt>
      <trkpt lat="42.31271" lon="3.288193">
        <ele>97</ele>
        <time>1970-01-01T00:19:13.000Z</time>
      </trkpt>
      <trkpt lat="42.312653" lon="3.288216">
        <ele>97</ele>
        <time>1970-01-01T00:19:14.000Z</time>
      </trkpt>
      <trkpt lat="42.312596" lon="3.28824">
        <ele>97</ele>
        <time>1970-01-01T00:19:15.000Z</time>
      </trkpt>
      <trkpt lat="42.312539" lon="3.288263">
        <ele>97</ele>
        <time>1970-01-01T00:19:16.000Z</time>
      </trkpt>
      <trkpt lat="42.312483" lon="3.288286">
        <ele>97</ele>
        <time>1970-01-01T00:19:17.000Z</time>
      </trkpt>
      <trkpt lat="42.312426" lon="3.288309">
        <ele>97</ele>
        <time>1970-01-01T00:19:18.000Z</time>
      </trkpt>
      <trkpt lat="42.312369" lon="3.288332">
        <ele>97</ele>
        <time>1970-01-01T00:19:19.000Z</time>
      </trkpt>
      <trkpt lat="42.312312" lon="3.288356">
        <ele>97</ele>
        <time>1970-01-01T00:19:20.000Z</time>
      </trkpt>
      <trkpt lat="42.312255" lon="3.288379">
        <ele>97</ele>
        <time>1970-01-01T00:19:21.000Z</time>
      </trkpt>
      <trkpt lat="42.312198" lon="3.288402">
        <ele>94</ele>
        <time>1970-01-01T00:19:22.000Z</time>
      </trkpt>
      <trkpt lat="42.31209" lon="3.288419">
        <ele>94</ele>
        <time>1970-01-01T00:19:23.000Z</time>
      </trkpt>
      <trkpt lat="42.312043" lon="3.288411">
        <ele>94</ele>
        <time>1970-01-01T00:19:24.000Z</time>
      </trkpt>
      <trkpt lat="42.311997" lon="3.288404">
        <ele>94</ele>
        <time>1970-01-01T00:19:25.000Z</time>
      </trkpt>
      <trkpt lat="42.31195" lon="3.288396">
        <ele>94</ele>
        <time>1970-01-01T00:19:26.000Z</time>
      </trkpt>
      <trkpt lat="42.311904" lon="3.288389">
        <ele>94</ele>
        <time>1970-01-01T00:19:27.000Z</time>
      </trkpt>
      <trkpt lat="42.311858" lon="3.288382">
        <ele>94</ele>
        <time>1970-01-01T00:19:28.000Z</time>
      </trkpt>
      <trkpt lat="42.311811" lon="3.288374">
        <ele>94</ele>
        <time>1970-01-01T00:19:29.000Z</time>
      </trkpt>
      <trkpt lat="42.311765" lon="3.288367">
        <ele>94</ele>
        <time>1970-01-01T00:19:30.000Z</time>
      </trkpt>
      <trkpt lat="42.311718" lon="3.288359">
        <ele>94</ele>
        <time>1970-01-01T00:19:31.000Z</time>
      </trkpt>
      <trkpt lat="42.311672" lon="3.288352">
        <ele>93</ele>
        <time>1970-01-01T00:19:32.000Z</time>
      </trkpt>
      <trkpt lat="42.311583" lon="3.288294">
        <ele>93</ele>
        <time>1970-01-01T00:19:33.000Z</time>
      </trkpt>
      <trkpt lat="42.311538" lon="3.288266">
        <ele>93</ele>
        <time>1970-01-01T00:19:34.000Z</time>
      </trkpt>
      <trkpt lat="42.311492" lon="3.288237">
        <ele>93</ele>
        <time>1970-01-01T00:19:35.000Z</time>
      </trkpt>
      <trkpt lat="42.311446" lon="3.288209">
        <ele>93</ele>
        <time>1970-01-01T00:19:36.000Z</time>
      </trkpt>
      <trkpt lat="42.311401" lon="3.288181">
        <ele>93</ele>
        <time>1970-01-01T00:19:37.000Z</time>
      </trkpt>
      <trkpt lat="42.311355" lon="3.288153">
        <ele>93</ele>
        <time>1970-01-01T00:19:38.000Z</time>
      </trkpt>
      <trkpt lat="42.311309" lon="3.288125">
        <ele>93</ele>
        <time>1970-01-01T00:19:39.000Z</time>
      </trkpt>
      <trkpt lat="42.311263" lon="3.288096">
        <ele>93</ele>
        <time>1970-01-01T00:19:40.000Z</time>
      </trkpt>
      <trkpt lat="42.311218" lon="3.288068">
        <ele>93</ele>
        <time>1970-01-01T00:19:41.000Z</time>
      </trkpt>
      <trkpt lat="42.311172" lon="3.28804">
        <ele>93</ele>
        <time>1970-01-01T00:19:42.000Z</time>
      </trkpt>
      <trkpt lat="42.311074" lon="3.287976">
        <ele>93</ele>
        <time>1970-01-01T00:19:43.000Z</time>
      </trkpt>
      <trkpt lat="42.311034" lon="3.287939">
        <ele>93</ele>
        <time>1970-01-01T00:19:44.000Z</time>
      </trkpt>
      <trkpt lat="42.310993" lon="3.287903">
        <ele>93</ele>
        <time>1970-01-01T00:19:45.000Z</time>
      </trkpt>
      <trkpt lat="42.310953" lon="3.287866">
        <ele>93</ele>
        <time>1970-01-01T00:19:46.000Z</time>
      </trkpt>
      <trkpt lat="42.310912" lon="3.28783">
        <ele>93</ele>
        <time>1970-01-01T00:19:47.000Z</time>
      </trkpt>
      <trkpt lat="42.310871" lon="3.287794">
        <ele>93</ele>
        <time>1970-01-01T00:19:48.000Z</time>
      </trkpt>
      <trkpt lat="42.310831" lon="3.287757">
        <ele>93</ele>
        <time>1970-01-01T00:19:49.000Z</time>
      </trkpt>
      <trkpt lat="42.31079" lon="3.287721">
        <ele>93</ele>
        <time>1970-01-01T00:19:50.000Z</time>
      </trkpt>
      <trkpt lat="42.31075" lon="3.287684">
        <ele>93</ele>
        <time>1970-01-01T00:19:51.000Z</time>
      </trkpt>
      <trkpt lat="42.310709" lon="3.287648">
        <ele>86</ele>
        <time>1970-01-01T00:19:52.000Z</time>
      </trkpt>
      <trkpt lat="42.310637" lon="3.287558">
        <ele>86</ele>
        <time>1970-01-01T00:19:53.000Z</time>
      </trkpt>
      <trkpt lat="42.3106" lon="3.287514">
        <ele>86</ele>
        <time>1970-01-01T00:19:54.000Z</time>
      </trkpt>
      <trkpt lat="42.310564" lon="3.28747">
        <ele>86</ele>
        <time>1970-01-01T00:19:55.000Z</time>
      </trkpt>
      <trkpt lat="42.310527" lon="3.287426">
        <ele>86</ele>
        <time>1970-01-01T00:19:56.000Z</time>
      </trkpt>
      <trkpt lat="42.310491" lon="3.287382">
        <ele>86</ele>
        <time>1970-01-01T00:19:57.000Z</time>
      </trkpt>
      <trkpt lat="42.310454" lon="3.287338">
        <ele>86</ele>
        <time>1970-01-01T00:19:58.000Z</time>
      </trkpt>
      <trkpt lat="42.310418" lon="3.287294">
        <ele>86</ele>
        <time>1970-01-01T00:19:59.000Z</time>
      </trkpt>
      <trkpt lat="42.310381" lon="3.28725">
        <ele>86</ele>
        <time>1970-01-01T00:20:00.000Z</time>
      </trkpt>
      <trkpt lat="42.310345" lon="3.287206">
        <ele>86</ele>
        <time>1970-01-01T00:20:01.000Z</time>
      </trkpt>
      <trkpt lat="42.310308" lon="3.287162">
        <ele>80</ele>
        <time>1970-01-01T00:20:02.000Z</time>
      </trkpt>
      <trkpt lat="42.3102" lon="3.287152">
        <ele>80</ele>
        <time>1970-01-01T00:20:03.000Z</time>
      </trkpt>
      <trkpt lat="42.310144" lon="3.287165">
        <ele>80</ele>
        <time>1970-01-01T00:20:04.000Z</time>
      </trkpt>
      <trkpt lat="42.310089" lon="3.287177">
        <ele>80</ele>
        <time>1970-01-01T00:20:05.000Z</time>
      </trkpt>
      <trkpt lat="42.310034" lon="3.28719">
        <ele>80</ele>
        <time>1970-01-01T00:20:06.000Z</time>
      </trkpt>
      <trkpt lat="42.309979" lon="3.287203">
        <ele>80</ele>
        <time>1970-01-01T00:20:07.000Z</time>
      </trkpt>
      <trkpt lat="42.309923" lon="3.287216">
        <ele>80</ele>
        <time>1970-01-01T00:20:08.000Z</time>
      </trkpt>
      <trkpt lat="42.309868" lon="3.287229">
        <ele>80</ele>
        <time>1970-01-01T00:20:09.000Z</time>
      </trkpt>
      <trkpt lat="42.309813" lon="3.287241">
        <ele>80</ele>
        <time>1970-01-01T00:20:10.000Z</time>
      </trkpt>
      <trkpt lat="42.309757" lon="3.287254">
        <ele>80</ele>
        <time>1970-01-01T00:20:11.000Z</time>
      </trkpt>
      <trkpt lat="42.309702" lon="3.287267">
        <ele>74</ele>
        <time>1970-01-01T00:20:12.000Z</time>
      </trkpt>
      <trkpt lat="42.309603" lon="3.287366">
        <ele>74</ele>
        <time>1970-01-01T00:20:13.000Z</time>
      </trkpt>
      <trkpt lat="42.309558" lon="3.287403">
        <ele>74</ele>
        <time>1970-01-01T00:20:14.000Z</time>
      </trkpt>
      <trkpt lat="42.309514" lon="3.287441">
        <ele>74</ele>
        <time>1970-01-01T00:20:15.000Z</time>
      </trkpt>
      <trkpt lat="42.309469" lon="3.287478">
        <ele>74</ele>
        <time>1970-01-01T00:20:16.000Z</time>
      </trkpt>
      <trkpt lat="42.309425" lon="3.287515">
        <ele>74</ele>
        <time>1970-01-01T00:20:17.000Z</time>
      </trkpt>
      <trkpt lat="42.309381" lon="3.287552">
        <ele>74</ele>
        <time>1970-01-01T00:20:18.000Z</time>
      </trkpt>
      <trkpt lat="42.309336" lon="3.287589">
        <ele>74</ele>
        <time>1970-01-01T00:20:19.000Z</time>
      </trkpt>
      <trkpt lat="42.309292" lon="3.287627">
        <ele>74</ele>
        <time>1970-01-01T00:20:20.000Z</time>
      </trkpt>
      <trkpt lat="42.309247" lon="3.287664">
        <ele>74</ele>
        <time>1970-01-01T00:20:21.000Z</time>
      </trkpt>
      <trkpt lat="42.309203" lon="3.287701">
        <ele>72</ele>
        <time>1970-01-01T00:20:22.000Z</time>
      </trkpt>
      <trkpt lat="42.309084" lon="3.287635">
        <ele>72</ele>
        <time>1970-01-01T00:20:23.000Z</time>
      </trkpt>
      <trkpt lat="42.309027" lon="3.287589">
        <ele>72</ele>
        <time>1970-01-01T00:20:24.000Z</time>
      </trkpt>
      <trkpt lat="42.308969" lon="3.287544">
        <ele>72</ele>
        <time>1970-01-01T00:20:25.000Z</time>
      </trkpt>
      <trkpt lat="42.308912" lon="3.287499">
        <ele>72</ele>
        <time>1970-01-01T00:20:26.000Z</time>
      </trkpt>
      <trkpt lat="42.308854" lon="3.287453">
        <ele>72</ele>
        <time>1970-01-01T00:20:27.000Z</time>
      </trkpt>
      <trkpt lat="42.308796" lon="3.287408">
        <ele>72</ele>
        <time>1970-01-01T00:20:28.000Z</time>
      </trkpt>
      <trkpt lat="42.308739" lon="3.287363">
        <ele>72</ele>
        <time>1970-01-01T00:20:29.000Z</time>
      </trkpt>
      <trkpt lat="42.308681" lon="3.287318">
        <ele>72</ele>
        <time>1970-01-01T00:20:30.000Z</time>
      </trkpt>
      <trkpt lat="42.308624" lon="3.287272">
        <ele>72</ele>
        <time>1970-01-01T00:20:31.000Z</time>
      </trkpt>
      <trkpt lat="42.308566" lon="3.287227">
        <ele>70</ele>
        <time>1970-01-01T00:20:33.000Z</time>
      </trkpt>
      <trkpt lat="42.308509" lon="3.287126">
        <ele>70</ele>
        <time>1970-01-01T00:20:34.000Z</time>
      </trkpt>
      <trkpt lat="42.308497" lon="3.287066">
        <ele>70</ele>
        <time>1970-01-01T00:20:35.000Z</time>
      </trkpt>
      <trkpt lat="42.308484" lon="3.287007">
        <ele>70</ele>
        <time>1970-01-01T00:20:36.000Z</time>
      </trkpt>
      <trkpt lat="42.308472" lon="3.286947">
        <ele>70</ele>
        <time>1970-01-01T00:20:37.000Z</time>
      </trkpt>
      <trkpt lat="42.30846" lon="3.286887">
        <ele>70</ele>
        <time>1970-01-01T00:20:38.000Z</time>
      </trkpt>
      <trkpt lat="42.308448" lon="3.286827">
        <ele>70</ele>
        <time>1970-01-01T00:20:39.000Z</time>
      </trkpt>
      <trkpt lat="42.308435" lon="3.286768">
        <ele>70</ele>
        <time>1970-01-01T00:20:40.000Z</time>
      </trkpt>
      <trkpt lat="42.308423" lon="3.286708">
        <ele>70</ele>
        <time>1970-01-01T00:20:41.000Z</time>
      </trkpt>
      <trkpt lat="42.308411" lon="3.286648">
        <ele>66</ele>
        <time>1970-01-01T00:20:42.000Z</time>
      </trkpt>
      <trkpt lat="42.308441" lon="3.286503">
        <ele>66</ele>
        <time>1970-01-01T00:20:43.000Z</time>
      </trkpt>
      <trkpt lat="42.308461" lon="3.286427">
        <ele>66</ele>
        <time>1970-01-01T00:20:44.000Z</time>
      </trkpt>
      <trkpt lat="42.308482" lon="3.286352">
        <ele>66</ele>
        <time>1970-01-01T00:20:45.000Z</time>
      </trkpt>
      <trkpt lat="42.308503" lon="3.286276">
        <ele>66</ele>
        <time>1970-01-01T00:20:46.000Z</time>
      </trkpt>
      <trkpt lat="42.308523" lon="3.2862">
        <ele>66</ele>
        <time>1970-01-01T00:20:47.000Z</time>
      </trkpt>
      <trkpt lat="42.308544" lon="3.286124">
        <ele>66</ele>
        <time>1970-01-01T00:20:48.000Z</time>
      </trkpt>
      <trkpt lat="42.308564" lon="3.286048">
        <ele>66</ele>
        <time>1970-01-01T00:20:49.000Z</time>
      </trkpt>
      <trkpt lat="42.308585" lon="3.285972">
        <ele>66</ele>
        <time>1970-01-01T00:20:50.000Z</time>
      </trkpt>
      <trkpt lat="42.308606" lon="3.285897">
        <ele>66</ele>
        <time>1970-01-01T00:20:51.000Z</time>
      </trkpt>
      <trkpt lat="42.308626" lon="3.285821">
        <ele>66</ele>
        <time>1970-01-01T00:20:52.000Z</time>
      </trkpt>
      <trkpt lat="42.308647" lon="3.285745">
        <ele>66</ele>
        <time>1970-01-01T00:20:53.000Z</time>
      </trkpt>
      <trkpt lat="42.3086" lon="3.285576">
        <ele>66</ele>
        <time>1970-01-01T00:20:54.000Z</time>
      </trkpt>
      <trkpt lat="42.308567" lon="3.285507">
        <ele>66</ele>
        <time>1970-01-01T00:20:55.000Z</time>
      </trkpt>
      <trkpt lat="42.308534" lon="3.285437">
        <ele>66</ele>
        <time>1970-01-01T00:20:56.000Z</time>
      </trkpt>
      <trkpt lat="42.308501" lon="3.285368">
        <ele>66</ele>
        <time>1970-01-01T00:20:57.000Z</time>
      </trkpt>
      <trkpt lat="42.308467" lon="3.285298">
        <ele>66</ele>
        <time>1970-01-01T00:20:58.000Z</time>
      </trkpt>
      <trkpt lat="42.308434" lon="3.285229">
        <ele>66</ele>
        <time>1970-01-01T00:20:59.000Z</time>
      </trkpt>
      <trkpt lat="42.308401" lon="3.285159">
        <ele>66</ele>
        <time>1970-01-01T00:21:00.000Z</time>
      </trkpt>
      <trkpt lat="42.308368" lon="3.28509">
        <ele>66</ele>
        <time>1970-01-01T00:21:01.000Z</time>
      </trkpt>
      <trkpt lat="42.308335" lon="3.28502">
        <ele>59</ele>
        <time>1970-01-01T00:21:02.000Z</time>
      </trkpt>
      <trkpt lat="42.308238" lon="3.285061">
        <ele>59</ele>
        <time>1970-01-01T00:21:03.000Z</time>
      </trkpt>
      <trkpt lat="42.308195" lon="3.285134">
        <ele>59</ele>
        <time>1970-01-01T00:21:04.000Z</time>
      </trkpt>
      <trkpt lat="42.308151" lon="3.285208">
        <ele>59</ele>
        <time>1970-01-01T00:21:05.000Z</time>
      </trkpt>
      <trkpt lat="42.308108" lon="3.285282">
        <ele>59</ele>
        <time>1970-01-01T00:21:06.000Z</time>
      </trkpt>
      <trkpt lat="42.308065" lon="3.285355">
        <ele>59</ele>
        <time>1970-01-01T00:21:07.000Z</time>
      </trkpt>
      <trkpt lat="42.308022" lon="3.285429">
        <ele>59</ele>
        <time>1970-01-01T00:21:08.000Z</time>
      </trkpt>
      <trkpt lat="42.307978" lon="3.285503">
        <ele>59</ele>
        <time>1970-01-01T00:21:09.000Z</time>
      </trkpt>
      <trkpt lat="42.307935" lon="3.285576">
        <ele>59</ele>
        <time>1970-01-01T00:21:10.000Z</time>
      </trkpt>
      <trkpt lat="42.307892" lon="3.28565">
        <ele>52</ele>
        <time>1970-01-01T00:21:12.000Z</time>
      </trkpt>
      <trkpt lat="42.307814" lon="3.28581">
        <ele>52</ele>
        <time>1970-01-01T00:21:13.000Z</time>
      </trkpt>
      <trkpt lat="42.30777" lon="3.285872">
        <ele>52</ele>
        <time>1970-01-01T00:21:14.000Z</time>
      </trkpt>
      <trkpt lat="42.307725" lon="3.285935">
        <ele>52</ele>
        <time>1970-01-01T00:21:15.000Z</time>
      </trkpt>
      <trkpt lat="42.307681" lon="3.285998">
        <ele>52</ele>
        <time>1970-01-01T00:21:16.000Z</time>
      </trkpt>
      <trkpt lat="42.307636" lon="3.286061">
        <ele>52</ele>
        <time>1970-01-01T00:21:17.000Z</time>
      </trkpt>
      <trkpt lat="42.307591" lon="3.286123">
        <ele>52</ele>
        <time>1970-01-01T00:21:18.000Z</time>
      </trkpt>
      <trkpt lat="42.307547" lon="3.286186">
        <ele>52</ele>
        <time>1970-01-01T00:21:19.000Z</time>
      </trkpt>
      <trkpt lat="42.307502" lon="3.286249">
        <ele>52</ele>
        <time>1970-01-01T00:21:20.000Z</time>
      </trkpt>
      <trkpt lat="42.307458" lon="3.286311">
        <ele>52</ele>
        <time>1970-01-01T00:21:21.000Z</time>
      </trkpt>
      <trkpt lat="42.307413" lon="3.286374">
        <ele>41</ele>
        <time>1970-01-01T00:21:22.000Z</time>
      </trkpt>
      <trkpt lat="42.30729" lon="3.286421">
        <ele>41</ele>
        <time>1970-01-01T00:21:23.000Z</time>
      </trkpt>
      <trkpt lat="42.30723" lon="3.286427">
        <ele>41</ele>
        <time>1970-01-01T00:21:24.000Z</time>
      </trkpt>
      <trkpt lat="42.307169" lon="3.286432">
        <ele>41</ele>
        <time>1970-01-01T00:21:25.000Z</time>
      </trkpt>
      <trkpt lat="42.307109" lon="3.286438">
        <ele>41</ele>
        <time>1970-01-01T00:21:26.000Z</time>
      </trkpt>
      <trkpt lat="42.307048" lon="3.286443">
        <ele>41</ele>
        <time>1970-01-01T00:21:27.000Z</time>
      </trkpt>
      <trkpt lat="42.306987" lon="3.286448">
        <ele>41</ele>
        <time>1970-01-01T00:21:28.000Z</time>
      </trkpt>
      <trkpt lat="42.306927" lon="3.286454">
        <ele>41</ele>
        <time>1970-01-01T00:21:29.000Z</time>
      </trkpt>
      <trkpt lat="42.306866" lon="3.286459">
        <ele>41</ele>
        <time>1970-01-01T00:21:30.000Z</time>
      </trkpt>
      <trkpt lat="42.306806" lon="3.286465">
        <ele>41</ele>
        <time>1970-01-01T00:21:31.000Z</time>
      </trkpt>
      <trkpt lat="42.306745" lon="3.28647">
        <ele>35</ele>
        <time>1970-01-01T00:21:32.000Z</time>
      </trkpt>
      <trkpt lat="42.306624" lon="3.286451">
        <ele>35</ele>
        <time>1970-01-01T00:21:33.000Z</time>
      </trkpt>
      <trkpt lat="42.306574" lon="3.286427">
        <ele>35</ele>
        <time>1970-01-01T00:21:34.000Z</time>
      </trkpt>
      <trkpt lat="42.306524" lon="3.286402">
        <ele>35</ele>
        <time>1970-01-01T00:21:35.000Z</time>
      </trkpt>
      <trkpt lat="42.306474" lon="3.286378">
        <ele>35</ele>
        <time>1970-01-01T00:21:36.000Z</time>
      </trkpt>
      <trkpt lat="42.306424" lon="3.286353">
        <ele>35</ele>
        <time>1970-01-01T00:21:37.000Z</time>
      </trkpt>
      <trkpt lat="42.306373" lon="3.286329">
        <ele>35</ele>
        <time>1970-01-01T00:21:38.000Z</time>
      </trkpt>
      <trkpt lat="42.306323" lon="3.286304">
        <ele>35</ele>
        <time>1970-01-01T00:21:39.000Z</time>
      </trkpt>
      <trkpt lat="42.306273" lon="3.28628">
        <ele>35</ele>
        <time>1970-01-01T00:21:40.000Z</time>
      </trkpt>
      <trkpt lat="42.306223" lon="3.286255">
        <ele>35</ele>
        <time>1970-01-01T00:21:41.000Z</time>
      </trkpt>
      <trkpt lat="42.306173" lon="3.286231">
        <ele>28</ele>
        <time>1970-01-01T00:21:42.000Z</time>
      </trkpt>
      <trkpt lat="42.306104" lon="3.286086">
        <ele>28</ele>
        <time>1970-01-01T00:21:43.000Z</time>
      </trkpt>
      <trkpt lat="42.306078" lon="3.286016">
        <ele>28</ele>
        <time>1970-01-01T00:21:44.000Z</time>
      </trkpt>
      <trkpt lat="42.306051" lon="3.285945">
        <ele>28</ele>
        <time>1970-01-01T00:21:45.000Z</time>
      </trkpt>
      <trkpt lat="42.306025" lon="3.285875">
        <ele>28</ele>
        <time>1970-01-01T00:21:46.000Z</time>
      </trkpt>
      <trkpt lat="42.305998" lon="3.285804">
        <ele>28</ele>
        <time>1970-01-01T00:21:47.000Z</time>
      </trkpt>
      <trkpt lat="42.305971" lon="3.285733">
        <ele>28</ele>
        <time>1970-01-01T00:21:48.000Z</time>
      </trkpt>
      <trkpt lat="42.305945" lon="3.285663">
        <ele>28</ele>
        <time>1970-01-01T00:21:49.000Z</time>
      </trkpt>
      <trkpt lat="42.305918" lon="3.285592">
        <ele>28</ele>
        <time>1970-01-01T00:21:50.000Z</time>
      </trkpt>
      <trkpt lat="42.305892" lon="3.285522">
        <ele>28</ele>
        <time>1970-01-01T00:21:51.000Z</time>
      </trkpt>
      <trkpt lat="42.305865" lon="3.285451">
        <ele>22</ele>
        <time>1970-01-01T00:21:52.000Z</time>
      </trkpt>
      <trkpt lat="42.305903" lon="3.285308">
        <ele>22</ele>
        <time>1970-01-01T00:21:53.000Z</time>
      </trkpt>
      <trkpt lat="42.305925" lon="3.285246">
        <ele>22</ele>
        <time>1970-01-01T00:21:54.000Z</time>
      </trkpt>
      <trkpt lat="42.305948" lon="3.285184">
        <ele>22</ele>
        <time>1970-01-01T00:21:55.000Z</time>
      </trkpt>
      <trkpt lat="42.30597" lon="3.285122">
        <ele>22</ele>
        <time>1970-01-01T00:21:56.000Z</time>
      </trkpt>
      <trkpt lat="42.305992" lon="3.28506">
        <ele>22</ele>
        <time>1970-01-01T00:21:57.000Z</time>
      </trkpt>
      <trkpt lat="42.306014" lon="3.284997">
        <ele>22</ele>
        <time>1970-01-01T00:21:58.000Z</time>
      </trkpt>
      <trkpt lat="42.306036" lon="3.284935">
        <ele>22</ele>
        <time>1970-01-01T00:21:59.000Z</time>
      </trkpt>
      <trkpt lat="42.306059" lon="3.284873">
        <ele>22</ele>
        <time>1970-01-01T00:22:00.000Z</time>
      </trkpt>
      <trkpt lat="42.306081" lon="3.284811">
        <ele>22</ele>
        <time>1970-01-01T00:22:01.000Z</time>
      </trkpt>
      <trkpt lat="42.306103" lon="3.284749">
        <ele>20</ele>
        <time>1970-01-01T00:22:02.000Z</time>
      </trkpt>
      <trkpt lat="42.30607" lon="3.284679">
        <ele>20</ele>
        <time>1970-01-01T00:22:03.000Z</time>
      </trkpt>
      <trkpt lat="42.306039" lon="3.284672">
        <ele>20</ele>
        <time>1970-01-01T00:22:04.000Z</time>
      </trkpt>
      <trkpt lat="42.306008" lon="3.284664">
        <ele>20</ele>
        <time>1970-01-01T00:22:05.000Z</time>
      </trkpt>
      <trkpt lat="42.305977" lon="3.284657">
        <ele>20</ele>
        <time>1970-01-01T00:22:06.000Z</time>
      </trkpt>
      <trkpt lat="42.305946" lon="3.284649">
        <ele>20</ele>
        <time>1970-01-01T00:22:07.000Z</time>
      </trkpt>
      <trkpt lat="42.305915" lon="3.284641">
        <ele>20</ele>
        <time>1970-01-01T00:22:08.000Z</time>
      </trkpt>
      <trkpt lat="42.305884" lon="3.284634">
        <ele>20</ele>
        <time>1970-01-01T00:22:09.000Z</time>
      </trkpt>
      <trkpt lat="42.305853" lon="3.284626">
        <ele>20</ele>
        <time>1970-01-01T00:22:10.000Z</time>
      </trkpt>
      <trkpt lat="42.305822" lon="3.284619">
        <ele>20</ele>
        <time>1970-01-01T00:22:11.000Z</time>
      </trkpt>
      <trkpt lat="42.305791" lon="3.284611">
        <ele>20</ele>
        <time>1970-01-01T00:22:12.000Z</time>
      </trkpt>
      <trkpt lat="42.305726" lon="3.284667">
        <ele>20</ele>
        <time>1970-01-01T00:22:13.000Z</time>
      </trkpt>
      <trkpt lat="42.305696" lon="3.284694">
        <ele>20</ele>
        <time>1970-01-01T00:22:14.000Z</time>
      </trkpt>
      <trkpt lat="42.305665" lon="3.284722">
        <ele>20</ele>
        <time>1970-01-01T00:22:15.000Z</time>
      </trkpt>
      <trkpt lat="42.305634" lon="3.284749">
        <ele>20</ele>
        <time>1970-01-01T00:22:16.000Z</time>
      </trkpt>
      <trkpt lat="42.305604" lon="3.284777">
        <ele>20</ele>
        <time>1970-01-01T00:22:17.000Z</time>
      </trkpt>
      <trkpt lat="42.305573" lon="3.284804">
        <ele>20</ele>
        <time>1970-01-01T00:22:18.000Z</time>
      </trkpt>
      <trkpt lat="42.305542" lon="3.284832">
        <ele>20</ele>
        <time>1970-01-01T00:22:19.000Z</time>
      </trkpt>
      <trkpt lat="42.305511" lon="3.284859">
        <ele>20</ele>
        <time>1970-01-01T00:22:20.000Z</time>
      </trkpt>
      <trkpt lat="42.305481" lon="3.284887">
        <ele>20</ele>
        <time>1970-01-01T00:22:21.000Z</time>
      </trkpt>
      <trkpt lat="42.30545" lon="3.284914">
        <ele>19</ele>
        <time>1970-01-01T00:22:22.000Z</time>
      </trkpt>
      <trkpt lat="42.305381" lon="3.284928">
        <ele>19</ele>
        <time>1970-01-01T00:22:23.000Z</time>
      </trkpt>
      <trkpt lat="42.305352" lon="3.284925">
        <ele>19</ele>
        <time>1970-01-01T00:22:24.000Z</time>
      </trkpt>
      <trkpt lat="42.305322" lon="3.284923">
        <ele>19</ele>
        <time>1970-01-01T00:22:25.000Z</time>
      </trkpt>
      <trkpt lat="42.305293" lon="3.28492">
        <ele>19</ele>
        <time>1970-01-01T00:22:26.000Z</time>
      </trkpt>
      <trkpt lat="42.305263" lon="3.284918">
        <ele>19</ele>
        <time>1970-01-01T00:22:27.000Z</time>
      </trkpt>
      <trkpt lat="42.305233" lon="3.284916">
        <ele>19</ele>
        <time>1970-01-01T00:22:28.000Z</time>
      </trkpt>
      <trkpt lat="42.305204" lon="3.284913">
        <ele>19</ele>
        <time>1970-01-01T00:22:29.000Z</time>
      </trkpt>
      <trkpt lat="42.305174" lon="3.284911">
        <ele>19</ele>
        <time>1970-01-01T00:22:30.000Z</time>
      </trkpt>
      <trkpt lat="42.305145" lon="3.284908">
        <ele>19</ele>
        <time>1970-01-01T00:22:31.000Z</time>
      </trkpt>
      <trkpt lat="42.305115" lon="3.284906">
        <ele>20</ele>
        <time>1970-01-01T00:22:32.000Z</time>
      </trkpt>
      <trkpt lat="42.305065" lon="3.284884">
        <ele>20</ele>
        <time>1970-01-01T00:22:33.000Z</time>
      </trkpt>
      <trkpt lat="42.305043" lon="3.284874">
        <ele>20</ele>
        <time>1970-01-01T00:22:34.000Z</time>
      </trkpt>
      <trkpt lat="42.305022" lon="3.284864">
        <ele>20</ele>
        <time>1970-01-01T00:22:35.000Z</time>
      </trkpt>
      <trkpt lat="42.305" lon="3.284854">
        <ele>20</ele>
        <time>1970-01-01T00:22:36.000Z</time>
      </trkpt>
      <trkpt lat="42.304978" lon="3.284844">
        <ele>20</ele>
        <time>1970-01-01T00:22:37.000Z</time>
      </trkpt>
      <trkpt lat="42.304956" lon="3.284835">
        <ele>20</ele>
        <time>1970-01-01T00:22:38.000Z</time>
      </trkpt>
      <trkpt lat="42.304934" lon="3.284825">
        <ele>20</ele>
        <time>1970-01-01T00:22:39.000Z</time>
      </trkpt>
      <trkpt lat="42.304913" lon="3.284815">
        <ele>20</ele>
        <time>1970-01-01T00:22:40.000Z</time>
      </trkpt>
      <trkpt lat="42.304891" lon="3.284805">
        <ele>20</ele>
        <time>1970-01-01T00:22:41.000Z</time>
      </trkpt>
      <trkpt lat="42.304869" lon="3.284795">
        <ele>23</ele>
        <time>1970-01-01T00:22:42.000Z</time>
      </trkpt>
      <trkpt lat="42.304821" lon="3.28478">
        <ele>23</ele>
        <time>1970-01-01T00:22:43.000Z</time>
      </trkpt>
      <trkpt lat="42.304797" lon="3.284772">
        <ele>23</ele>
        <time>1970-01-01T00:22:44.000Z</time>
      </trkpt>
      <trkpt lat="42.304772" lon="3.284765">
        <ele>23</ele>
        <time>1970-01-01T00:22:46.000Z</time>
      </trkpt>
      <trkpt lat="42.304748" lon="3.284757">
        <ele>23</ele>
        <time>1970-01-01T00:22:47.000Z</time>
      </trkpt>
      <trkpt lat="42.304724" lon="3.28475">
        <ele>23</ele>
        <time>1970-01-01T00:22:48.000Z</time>
      </trkpt>
      <trkpt lat="42.3047" lon="3.284742">
        <ele>23</ele>
        <time>1970-01-01T00:22:49.000Z</time>
      </trkpt>
      <trkpt lat="42.304675" lon="3.284735">
        <ele>23</ele>
        <time>1970-01-01T00:22:50.000Z</time>
      </trkpt>
      <trkpt lat="42.304651" lon="3.284727">
        <ele>23</ele>
        <time>1970-01-01T00:22:51.000Z</time>
      </trkpt>
      <trkpt lat="42.304627" lon="3.28472">
        <ele>24</ele>
        <time>1970-01-01T00:22:52.000Z</time>
      </trkpt>
      <trkpt lat="42.304584" lon="3.284702">
        <ele>24</ele>
        <time>1970-01-01T00:22:53.000Z</time>
      </trkpt>
      <trkpt lat="42.304565" lon="3.284694">
        <ele>24</ele>
        <time>1970-01-01T00:22:54.000Z</time>
      </trkpt>
      <trkpt lat="42.304545" lon="3.284687">
        <ele>24</ele>
        <time>1970-01-01T00:22:55.000Z</time>
      </trkpt>
      <trkpt lat="42.304526" lon="3.284679">
        <ele>24</ele>
        <time>1970-01-01T00:22:56.000Z</time>
      </trkpt>
      <trkpt lat="42.304506" lon="3.284672">
        <ele>24</ele>
        <time>1970-01-01T00:22:57.000Z</time>
      </trkpt>
      <trkpt lat="42.304486" lon="3.284665">
        <ele>24</ele>
        <time>1970-01-01T00:22:58.000Z</time>
      </trkpt>
      <trkpt lat="42.304467" lon="3.284657">
        <ele>24</ele>
        <time>1970-01-01T00:22:59.000Z</time>
      </trkpt>
      <trkpt lat="42.304447" lon="3.28465">
        <ele>24</ele>
        <time>1970-01-01T00:23:00.000Z</time>
      </trkpt>
      <trkpt lat="42.304428" lon="3.284642">
        <ele>24</ele>
        <time>1970-01-01T00:23:01.000Z</time>
      </trkpt>
      <trkpt lat="42.304408" lon="3.284635">
        <ele>26</ele>
        <time>1970-01-01T00:23:02.000Z</time>
      </trkpt>
      <trkpt lat="42.30437" lon="3.284614">
        <ele>26</ele>
        <time>1970-01-01T00:23:03.000Z</time>
      </trkpt>
      <trkpt lat="42.304354" lon="3.284602">
        <ele>26</ele>
        <time>1970-01-01T00:23:04.000Z</time>
      </trkpt>
      <trkpt lat="42.304338" lon="3.284589">
        <ele>26</ele>
        <time>1970-01-01T00:23:05.000Z</time>
      </trkpt>
      <trkpt lat="42.304322" lon="3.284577">
        <ele>26</ele>
        <time>1970-01-01T00:23:06.000Z</time>
      </trkpt>
      <trkpt lat="42.304306" lon="3.284564">
        <ele>26</ele>
        <time>1970-01-01T00:23:07.000Z</time>
      </trkpt>
      <trkpt lat="42.30429" lon="3.284551">
        <ele>26</ele>
        <time>1970-01-01T00:23:08.000Z</time>
      </trkpt>
      <trkpt lat="42.304274" lon="3.284539">
        <ele>26</ele>
        <time>1970-01-01T00:23:09.000Z</time>
      </trkpt>
      <trkpt lat="42.304258" lon="3.284526">
        <ele>26</ele>
        <time>1970-01-01T00:23:10.000Z</time>
      </trkpt>
      <trkpt lat="42.304242" lon="3.284514">
        <ele>26</ele>
        <time>1970-01-01T00:23:11.000Z</time>
      </trkpt>
      <trkpt lat="42.304226" lon="3.284501">
        <ele>28</ele>
        <time>1970-01-01T00:23:12.000Z</time>
      </trkpt>
      <trkpt lat="42.304197" lon="3.284463">
        <ele>28</ele>
        <time>1970-01-01T00:23:13.000Z</time>
      </trkpt>
      <trkpt lat="42.304181" lon="3.284447">
        <ele>28</ele>
        <time>1970-01-01T00:23:14.000Z</time>
      </trkpt>
      <trkpt lat="42.304166" lon="3.28443">
        <ele>28</ele>
        <time>1970-01-01T00:23:15.000Z</time>
      </trkpt>
      <trkpt lat="42.304151" lon="3.284414">
        <ele>28</ele>
        <time>1970-01-01T00:23:16.000Z</time>
      </trkpt>
      <trkpt lat="42.304136" lon="3.284397">
        <ele>28</ele>
        <time>1970-01-01T00:23:17.000Z</time>
      </trkpt>
      <trkpt lat="42.30412" lon="3.28438">
        <ele>28</ele>
        <time>1970-01-01T00:23:18.000Z</time>
      </trkpt>
      <trkpt lat="42.304105" lon="3.284364">
        <ele>28</ele>
        <time>1970-01-01T00:23:19.000Z</time>
      </trkpt>
      <trkpt lat="42.30409" lon="3.284347">
        <ele>28</ele>
        <time>1970-01-01T00:23:20.000Z</time>
      </trkpt>
      <trkpt lat="42.304074" lon="3.284331">
        <ele>28</ele>
        <time>1970-01-01T00:23:21.000Z</time>
      </trkpt>
      <trkpt lat="42.304059" lon="3.284314">
        <ele>28</ele>
        <time>1970-01-01T00:23:22.000Z</time>
      </trkpt>
      <trkpt lat="42.304017" lon="3.28432">
        <ele>28</ele>
        <time>1970-01-01T00:23:23.000Z</time>
      </trkpt>
      <trkpt lat="42.303999" lon="3.284329">
        <ele>28</ele>
        <time>1970-01-01T00:23:24.000Z</time>
      </trkpt>
      <trkpt lat="42.303981" lon="3.284338">
        <ele>28</ele>
        <time>1970-01-01T00:23:25.000Z</time>
      </trkpt>
      <trkpt lat="42.303963" lon="3.284347">
        <ele>28</ele>
        <time>1970-01-01T00:23:26.000Z</time>
      </trkpt>
      <trkpt lat="42.303945" lon="3.284356">
        <ele>28</ele>
        <time>1970-01-01T00:23:27.000Z</time>
      </trkpt>
      <trkpt lat="42.303926" lon="3.284364">
        <ele>28</ele>
        <time>1970-01-01T00:23:28.000Z</time>
      </trkpt>
      <trkpt lat="42.303908" lon="3.284373">
        <ele>28</ele>
        <time>1970-01-01T00:23:29.000Z</time>
      </trkpt>
      <trkpt lat="42.30389" lon="3.284382">
        <ele>28</ele>
        <time>1970-01-01T00:23:30.000Z</time>
      </trkpt>
      <trkpt lat="42.303872" lon="3.284391">
        <ele>28</ele>
        <time>1970-01-01T00:23:31.000Z</time>
      </trkpt>
      <trkpt lat="42.303854" lon="3.2844">
        <ele>30</ele>
        <time>1970-01-01T00:23:32.000Z</time>
      </trkpt>
      <trkpt lat="42.303821" lon="3.284421">
        <ele>30</ele>
        <time>1970-01-01T00:23:33.000Z</time>
      </trkpt>
      <trkpt lat="42.303804" lon="3.28443">
        <ele>30</ele>
        <time>1970-01-01T00:23:34.000Z</time>
      </trkpt>
      <trkpt lat="42.303788" lon="3.284438">
        <ele>30</ele>
        <time>1970-01-01T00:23:35.000Z</time>
      </trkpt>
      <trkpt lat="42.303771" lon="3.284447">
        <ele>30</ele>
        <time>1970-01-01T00:23:36.000Z</time>
      </trkpt>
      <trkpt lat="42.303755" lon="3.284456">
        <ele>30</ele>
        <time>1970-01-01T00:23:37.000Z</time>
      </trkpt>
      <trkpt lat="42.303739" lon="3.284465">
        <ele>30</ele>
        <time>1970-01-01T00:23:38.000Z</time>
      </trkpt>
      <trkpt lat="42.303722" lon="3.284474">
        <ele>30</ele>
        <time>1970-01-01T00:23:39.000Z</time>
      </trkpt>
      <trkpt lat="42.303706" lon="3.284482">
        <ele>30</ele>
        <time>1970-01-01T00:23:40.000Z</time>
      </trkpt>
      <trkpt lat="42.303689" lon="3.284491">
        <ele>30</ele>
        <time>1970-01-01T00:23:41.000Z</time>
      </trkpt>
      <trkpt lat="42.303673" lon="3.2845">
        <ele>34</ele>
        <time>1970-01-01T00:23:42.000Z</time>
      </trkpt>
      <trkpt lat="42.303636" lon="3.284515">
        <ele>34</ele>
        <time>1970-01-01T00:23:43.000Z</time>
      </trkpt>
      <trkpt lat="42.303618" lon="3.284521">
        <ele>34</ele>
        <time>1970-01-01T00:23:44.000Z</time>
      </trkpt>
      <trkpt lat="42.3036" lon="3.284526">
        <ele>34</ele>
        <time>1970-01-01T00:23:45.000Z</time>
      </trkpt>
      <trkpt lat="42.303582" lon="3.284532">
        <ele>34</ele>
        <time>1970-01-01T00:23:46.000Z</time>
      </trkpt>
      <trkpt lat="42.303564" lon="3.284538">
        <ele>34</ele>
        <time>1970-01-01T00:23:47.000Z</time>
      </trkpt>
      <trkpt lat="42.303545" lon="3.284544">
        <ele>34</ele>
        <time>1970-01-01T00:23:48.000Z</time>
      </trkpt>
      <trkpt lat="42.303527" lon="3.28455">
        <ele>34</ele>
        <time>1970-01-01T00:23:49.000Z</time>
      </trkpt>
      <trkpt lat="42.303509" lon="3.284555">
        <ele>34</ele>
        <time>1970-01-01T00:23:50.000Z</time>
      </trkpt>
      <trkpt lat="42.303491" lon="3.284561">
        <ele>34</ele>
        <time>1970-01-01T00:23:51.000Z</time>
      </trkpt>
      <trkpt lat="42.303473" lon="3.284567">
        <ele>34</ele>
        <time>1970-01-01T00:23:52.000Z</time>
      </trkpt>
      <trkpt lat="42.303434" lon="3.284577">
        <ele>34</ele>
        <time>1970-01-01T00:23:53.000Z</time>
      </trkpt>
      <trkpt lat="42.303415" lon="3.284581">
        <ele>34</ele>
        <time>1970-01-01T00:23:54.000Z</time>
      </trkpt>
      <trkpt lat="42.303395" lon="3.284586">
        <ele>34</ele>
        <time>1970-01-01T00:23:55.000Z</time>
      </trkpt>
      <trkpt lat="42.303376" lon="3.284591">
        <ele>34</ele>
        <time>1970-01-01T00:23:56.000Z</time>
      </trkpt>
      <trkpt lat="42.303357" lon="3.284596">
        <ele>34</ele>
        <time>1970-01-01T00:23:57.000Z</time>
      </trkpt>
      <trkpt lat="42.303338" lon="3.2846">
        <ele>34</ele>
        <time>1970-01-01T00:23:58.000Z</time>
      </trkpt>
      <trkpt lat="42.303319" lon="3.284605">
        <ele>34</ele>
        <time>1970-01-01T00:23:59.000Z</time>
      </trkpt>
      <trkpt lat="42.303299" lon="3.28461">
        <ele>34</ele>
        <time>1970-01-01T00:24:00.000Z</time>
      </trkpt>
      <trkpt lat="42.30328" lon="3.284614">
        <ele>34</ele>
        <time>1970-01-01T00:24:01.000Z</time>
      </trkpt>
      <trkpt lat="42.303261" lon="3.284619">
        <ele>35</ele>
        <time>1970-01-01T00:24:02.000Z</time>
      </trkpt>
      <trkpt lat="42.30322" lon="3.284628">
        <ele>35</ele>
        <time>1970-01-01T00:24:03.000Z</time>
      </trkpt>
      <trkpt lat="42.303201" lon="3.284633">
        <ele>35</ele>
        <time>1970-01-01T00:24:04.000Z</time>
      </trkpt>
      <trkpt lat="42.303182" lon="3.284639">
        <ele>35</ele>
        <time>1970-01-01T00:24:05.000Z</time>
      </trkpt>
      <trkpt lat="42.303163" lon="3.284645">
        <ele>35</ele>
        <time>1970-01-01T00:24:06.000Z</time>
      </trkpt>
      <trkpt lat="42.303145" lon="3.284651">
        <ele>35</ele>
        <time>1970-01-01T00:24:07.000Z</time>
      </trkpt>
      <trkpt lat="42.303126" lon="3.284656">
        <ele>35</ele>
        <time>1970-01-01T00:24:08.000Z</time>
      </trkpt>
      <trkpt lat="42.303107" lon="3.284662">
        <ele>35</ele>
        <time>1970-01-01T00:24:09.000Z</time>
      </trkpt>
      <trkpt lat="42.303088" lon="3.284668">
        <ele>35</ele>
        <time>1970-01-01T00:24:10.000Z</time>
      </trkpt>
      <trkpt lat="42.303069" lon="3.284673">
        <ele>35</ele>
        <time>1970-01-01T00:24:11.000Z</time>
      </trkpt>
      <trkpt lat="42.30305" lon="3.284679">
        <ele>38</ele>
        <time>1970-01-01T00:24:12.000Z</time>
      </trkpt>
      <trkpt lat="42.303013" lon="3.284696">
        <ele>38</ele>
        <time>1970-01-01T00:24:13.000Z</time>
      </trkpt>
      <trkpt lat="42.302995" lon="3.284704">
        <ele>38</ele>
        <time>1970-01-01T00:24:14.000Z</time>
      </trkpt>
      <trkpt lat="42.302976" lon="3.284711">
        <ele>38</ele>
        <time>1970-01-01T00:24:15.000Z</time>
      </trkpt>
      <trkpt lat="42.302958" lon="3.284719">
        <ele>38</ele>
        <time>1970-01-01T00:24:16.000Z</time>
      </trkpt>
      <trkpt lat="42.30294" lon="3.284727">
        <ele>38</ele>
        <time>1970-01-01T00:24:17.000Z</time>
      </trkpt>
      <trkpt lat="42.302922" lon="3.284735">
        <ele>38</ele>
        <time>1970-01-01T00:24:18.000Z</time>
      </trkpt>
      <trkpt lat="42.302904" lon="3.284743">
        <ele>38</ele>
        <time>1970-01-01T00:24:19.000Z</time>
      </trkpt>
      <trkpt lat="42.302885" lon="3.28475">
        <ele>38</ele>
        <time>1970-01-01T00:24:20.000Z</time>
      </trkpt>
      <trkpt lat="42.302867" lon="3.284758">
        <ele>38</ele>
        <time>1970-01-01T00:24:21.000Z</time>
      </trkpt>
      <trkpt lat="42.302849" lon="3.284766">
        <ele>41</ele>
        <time>1970-01-01T00:24:22.000Z</time>
      </trkpt>
      <trkpt lat="42.302807" lon="3.284775">
        <ele>41</ele>
        <time>1970-01-01T00:24:23.000Z</time>
      </trkpt>
      <trkpt lat="42.302786" lon="3.284779">
        <ele>41</ele>
        <time>1970-01-01T00:24:24.000Z</time>
      </trkpt>
      <trkpt lat="42.302766" lon="3.284783">
        <ele>41</ele>
        <time>1970-01-01T00:24:25.000Z</time>
      </trkpt>
      <trkpt lat="42.302746" lon="3.284787">
        <ele>41</ele>
        <time>1970-01-01T00:24:26.000Z</time>
      </trkpt>
      <trkpt lat="42.302726" lon="3.284792">
        <ele>41</ele>
        <time>1970-01-01T00:24:27.000Z</time>
      </trkpt>
      <trkpt lat="42.302705" lon="3.284796">
        <ele>41</ele>
        <time>1970-01-01T00:24:28.000Z</time>
      </trkpt>
      <trkpt lat="42.302685" lon="3.2848">
        <ele>41</ele>
        <time>1970-01-01T00:24:29.000Z</time>
      </trkpt>
      <trkpt lat="42.302665" lon="3.284804">
        <ele>41</ele>
        <time>1970-01-01T00:24:30.000Z</time>
      </trkpt>
      <trkpt lat="42.302644" lon="3.284808">
        <ele>41</ele>
        <time>1970-01-01T00:24:31.000Z</time>
      </trkpt>
      <trkpt lat="42.302624" lon="3.284812">
        <ele>42</ele>
        <time>1970-01-01T00:24:32.000Z</time>
      </trkpt>
      <trkpt lat="42.302577" lon="3.284813">
        <ele>42</ele>
        <time>1970-01-01T00:24:33.000Z</time>
      </trkpt>
      <trkpt lat="42.302554" lon="3.284813">
        <ele>42</ele>
        <time>1970-01-01T00:24:34.000Z</time>
      </trkpt>
      <trkpt lat="42.30253" lon="3.284812">
        <ele>42</ele>
        <time>1970-01-01T00:24:35.000Z</time>
      </trkpt>
      <trkpt lat="42.302506" lon="3.284811">
        <ele>42</ele>
        <time>1970-01-01T00:24:36.000Z</time>
      </trkpt>
      <trkpt lat="42.302483" lon="3.284811">
        <ele>42</ele>
        <time>1970-01-01T00:24:37.000Z</time>
      </trkpt>
      <trkpt lat="42.302459" lon="3.28481">
        <ele>42</ele>
        <time>1970-01-01T00:24:38.000Z</time>
      </trkpt>
      <trkpt lat="42.302435" lon="3.284809">
        <ele>42</ele>
        <time>1970-01-01T00:24:40.000Z</time>
      </trkpt>
      <trkpt lat="42.302412" lon="3.284809">
        <ele>42</ele>
        <time>1970-01-01T00:24:41.000Z</time>
      </trkpt>
      <trkpt lat="42.302388" lon="3.284808">
        <ele>44</ele>
        <time>1970-01-01T00:24:42.000Z</time>
      </trkpt>
      <trkpt lat="42.302343" lon="3.284812">
        <ele>44</ele>
        <time>1970-01-01T00:24:43.000Z</time>
      </trkpt>
      <trkpt lat="42.302322" lon="3.284815">
        <ele>44</ele>
        <time>1970-01-01T00:24:44.000Z</time>
      </trkpt>
      <trkpt lat="42.302301" lon="3.284818">
        <ele>44</ele>
        <time>1970-01-01T00:24:45.000Z</time>
      </trkpt>
      <trkpt lat="42.30228" lon="3.284821">
        <ele>44</ele>
        <time>1970-01-01T00:24:46.000Z</time>
      </trkpt>
      <trkpt lat="42.302259" lon="3.284824">
        <ele>44</ele>
        <time>1970-01-01T00:24:47.000Z</time>
      </trkpt>
      <trkpt lat="42.302237" lon="3.284826">
        <ele>44</ele>
        <time>1970-01-01T00:24:48.000Z</time>
      </trkpt>
      <trkpt lat="42.302216" lon="3.284829">
        <ele>44</ele>
        <time>1970-01-01T00:24:49.000Z</time>
      </trkpt>
      <trkpt lat="42.302195" lon="3.284832">
        <ele>44</ele>
        <time>1970-01-01T00:24:50.000Z</time>
      </trkpt>
      <trkpt lat="42.302174" lon="3.284835">
        <ele>44</ele>
        <time>1970-01-01T00:24:51.000Z</time>
      </trkpt>
      <trkpt lat="42.302153" lon="3.284838">
        <ele>44</ele>
        <time>1970-01-01T00:24:52.000Z</time>
      </trkpt>
      <trkpt lat="42.302106" lon="3.284845">
        <ele>44</ele>
        <time>1970-01-01T00:24:53.000Z</time>
      </trkpt>
      <trkpt lat="42.302084" lon="3.284849">
        <ele>44</ele>
        <time>1970-01-01T00:24:54.000Z</time>
      </trkpt>
      <trkpt lat="42.302061" lon="3.284852">
        <ele>44</ele>
        <time>1970-01-01T00:24:55.000Z</time>
      </trkpt>
      <trkpt lat="42.302038" lon="3.284855">
        <ele>44</ele>
        <time>1970-01-01T00:24:56.000Z</time>
      </trkpt>
      <trkpt lat="42.302016" lon="3.284859">
        <ele>44</ele>
        <time>1970-01-01T00:24:57.000Z</time>
      </trkpt>
      <trkpt lat="42.301993" lon="3.284862">
        <ele>44</ele>
        <time>1970-01-01T00:24:58.000Z</time>
      </trkpt>
      <trkpt lat="42.30197" lon="3.284865">
        <ele>44</ele>
        <time>1970-01-01T00:24:59.000Z</time>
      </trkpt>
      <trkpt lat="42.301947" lon="3.284868">
        <ele>44</ele>
        <time>1970-01-01T00:25:00.000Z</time>
      </trkpt>
      <trkpt lat="42.301925" lon="3.284872">
        <ele>44</ele>
        <time>1970-01-01T00:25:01.000Z</time>
      </trkpt>
      <trkpt lat="42.301902" lon="3.284875">
        <ele>44</ele>
        <time>1970-01-01T00:25:02.000Z</time>
      </trkpt>
      <trkpt lat="42.301851" lon="3.28488">
        <ele>44</ele>
        <time>1970-01-01T00:25:03.000Z</time>
      </trkpt>
      <trkpt lat="42.301827" lon="3.28488">
        <ele>44</ele>
        <time>1970-01-01T00:25:04.000Z</time>
      </trkpt>
      <trkpt lat="42.301803" lon="3.284881">
        <ele>44</ele>
        <time>1970-01-01T00:25:05.000Z</time>
      </trkpt>
      <trkpt lat="42.301779" lon="3.284882">
        <ele>44</ele>
        <time>1970-01-01T00:25:06.000Z</time>
      </trkpt>
      <trkpt lat="42.301756" lon="3.284883">
        <ele>44</ele>
        <time>1970-01-01T00:25:07.000Z</time>
      </trkpt>
      <trkpt lat="42.301732" lon="3.284883">
        <ele>44</ele>
        <time>1970-01-01T00:25:08.000Z</time>
      </trkpt>
      <trkpt lat="42.301708" lon="3.284884">
        <ele>44</ele>
        <time>1970-01-01T00:25:09.000Z</time>
      </trkpt>
      <trkpt lat="42.301684" lon="3.284885">
        <ele>44</ele>
        <time>1970-01-01T00:25:10.000Z</time>
      </trkpt>
      <trkpt lat="42.30166" lon="3.284885">
        <ele>44</ele>
        <time>1970-01-01T00:25:11.000Z</time>
      </trkpt>
      <trkpt lat="42.301636" lon="3.284886">
        <ele>46</ele>
        <time>1970-01-01T00:25:12.000Z</time>
      </trkpt>
      <trkpt lat="42.301582" lon="3.284885">
        <ele>46</ele>
        <time>1970-01-01T00:25:13.000Z</time>
      </trkpt>
      <trkpt lat="42.301555" lon="3.284884">
        <ele>46</ele>
        <time>1970-01-01T00:25:14.000Z</time>
      </trkpt>
      <trkpt lat="42.301528" lon="3.284883">
        <ele>46</ele>
        <time>1970-01-01T00:25:15.000Z</time>
      </trkpt>
      <trkpt lat="42.301501" lon="3.284882">
        <ele>46</ele>
        <time>1970-01-01T00:25:16.000Z</time>
      </trkpt>
      <trkpt lat="42.301474" lon="3.28488">
        <ele>46</ele>
        <time>1970-01-01T00:25:17.000Z</time>
      </trkpt>
      <trkpt lat="42.301446" lon="3.284879">
        <ele>46</ele>
        <time>1970-01-01T00:25:18.000Z</time>
      </trkpt>
      <trkpt lat="42.301419" lon="3.284878">
        <ele>46</ele>
        <time>1970-01-01T00:25:19.000Z</time>
      </trkpt>
      <trkpt lat="42.301392" lon="3.284877">
        <ele>46</ele>
        <time>1970-01-01T00:25:20.000Z</time>
      </trkpt>
      <trkpt lat="42.301365" lon="3.284876">
        <ele>46</ele>
        <time>1970-01-01T00:25:21.000Z</time>
      </trkpt>
      <trkpt lat="42.301338" lon="3.284875">
        <ele>46</ele>
        <time>1970-01-01T00:25:22.000Z</time>
      </trkpt>
      <trkpt lat="42.301263" lon="3.284888">
        <ele>46</ele>
        <time>1970-01-01T00:25:23.000Z</time>
      </trkpt>
      <trkpt lat="42.301222" lon="3.284903">
        <ele>46</ele>
        <time>1970-01-01T00:25:24.000Z</time>
      </trkpt>
      <trkpt lat="42.30118" lon="3.284917">
        <ele>46</ele>
        <time>1970-01-01T00:25:25.000Z</time>
      </trkpt>
      <trkpt lat="42.301138" lon="3.284932">
        <ele>46</ele>
        <time>1970-01-01T00:25:26.000Z</time>
      </trkpt>
      <trkpt lat="42.301097" lon="3.284946">
        <ele>46</ele>
        <time>1970-01-01T00:25:27.000Z</time>
      </trkpt>
      <trkpt lat="42.301055" lon="3.28496">
        <ele>46</ele>
        <time>1970-01-01T00:25:28.000Z</time>
      </trkpt>
      <trkpt lat="42.301013" lon="3.284975">
        <ele>46</ele>
        <time>1970-01-01T00:25:29.000Z</time>
      </trkpt>
      <trkpt lat="42.300971" lon="3.284989">
        <ele>46</ele>
        <time>1970-01-01T00:25:30.000Z</time>
      </trkpt>
      <trkpt lat="42.30093" lon="3.285004">
        <ele>46</ele>
        <time>1970-01-01T00:25:31.000Z</time>
      </trkpt>
      <trkpt lat="42.300888" lon="3.285018">
        <ele>46</ele>
        <time>1970-01-01T00:25:32.000Z</time>
      </trkpt>
      <trkpt lat="42.300801" lon="3.285091">
        <ele>46</ele>
        <time>1970-01-01T00:25:33.000Z</time>
      </trkpt>
      <trkpt lat="42.300759" lon="3.285127">
        <ele>46</ele>
        <time>1970-01-01T00:25:34.000Z</time>
      </trkpt>
      <trkpt lat="42.300717" lon="3.285162">
        <ele>46</ele>
        <time>1970-01-01T00:25:35.000Z</time>
      </trkpt>
      <trkpt lat="42.300675" lon="3.285198">
        <ele>46</ele>
        <time>1970-01-01T00:25:36.000Z</time>
      </trkpt>
      <trkpt lat="42.300634" lon="3.285233">
        <ele>46</ele>
        <time>1970-01-01T00:25:37.000Z</time>
      </trkpt>
      <trkpt lat="42.300592" lon="3.285268">
        <ele>46</ele>
        <time>1970-01-01T00:25:38.000Z</time>
      </trkpt>
      <trkpt lat="42.30055" lon="3.285304">
        <ele>46</ele>
        <time>1970-01-01T00:25:39.000Z</time>
      </trkpt>
      <trkpt lat="42.300508" lon="3.285339">
        <ele>46</ele>
        <time>1970-01-01T00:25:40.000Z</time>
      </trkpt>
      <trkpt lat="42.300466" lon="3.285375">
        <ele>46</ele>
        <time>1970-01-01T00:25:41.000Z</time>
      </trkpt>
      <trkpt lat="42.300424" lon="3.28541">
        <ele>45</ele>
        <time>1970-01-01T00:25:42.000Z</time>
      </trkpt>
      <trkpt lat="42.300317" lon="3.285497">
        <ele>45</ele>
        <time>1970-01-01T00:25:43.000Z</time>
      </trkpt>
      <trkpt lat="42.300263" lon="3.285544">
        <ele>45</ele>
        <time>1970-01-01T00:25:44.000Z</time>
      </trkpt>
      <trkpt lat="42.30021" lon="3.285592">
        <ele>45</ele>
        <time>1970-01-01T00:25:45.000Z</time>
      </trkpt>
      <trkpt lat="42.300156" lon="3.285639">
        <ele>45</ele>
        <time>1970-01-01T00:25:46.000Z</time>
      </trkpt>
      <trkpt lat="42.300102" lon="3.285686">
        <ele>45</ele>
        <time>1970-01-01T00:25:47.000Z</time>
      </trkpt>
      <trkpt lat="42.300048" lon="3.285733">
        <ele>45</ele>
        <time>1970-01-01T00:25:48.000Z</time>
      </trkpt>
      <trkpt lat="42.299994" lon="3.28578">
        <ele>45</ele>
        <time>1970-01-01T00:25:49.000Z</time>
      </trkpt>
      <trkpt lat="42.299941" lon="3.285828">
        <ele>45</ele>
        <time>1970-01-01T00:25:50.000Z</time>
      </trkpt>
      <trkpt lat="42.299887" lon="3.285875">
        <ele>45</ele>
        <time>1970-01-01T00:25:51.000Z</time>
      </trkpt>
      <trkpt lat="42.299833" lon="3.285922">
        <ele>39</ele>
        <time>1970-01-01T00:25:52.000Z</time>
      </trkpt>
      <trkpt lat="42.299707" lon="3.285979">
        <ele>39</ele>
        <time>1970-01-01T00:25:53.000Z</time>
      </trkpt>
      <trkpt lat="42.299646" lon="3.285983">
        <ele>39</ele>
        <time>1970-01-01T00:25:54.000Z</time>
      </trkpt>
      <trkpt lat="42.299585" lon="3.285988">
        <ele>39</ele>
        <time>1970-01-01T00:25:56.000Z</time>
      </trkpt>
      <trkpt lat="42.299524" lon="3.285992">
        <ele>39</ele>
        <time>1970-01-01T00:25:57.000Z</time>
      </trkpt>
      <trkpt lat="42.299464" lon="3.285996">
        <ele>39</ele>
        <time>1970-01-01T00:25:58.000Z</time>
      </trkpt>
      <trkpt lat="42.299403" lon="3.286">
        <ele>39</ele>
        <time>1970-01-01T00:25:59.000Z</time>
      </trkpt>
      <trkpt lat="42.299342" lon="3.286005">
        <ele>39</ele>
        <time>1970-01-01T00:26:00.000Z</time>
      </trkpt>
      <trkpt lat="42.299281" lon="3.286009">
        <ele>39</ele>
        <time>1970-01-01T00:26:01.000Z</time>
      </trkpt>
      <trkpt lat="42.29922" lon="3.286013">
        <ele>33</ele>
        <time>1970-01-01T00:26:02.000Z</time>
      </trkpt>
      <trkpt lat="42.299154" lon="3.285865">
        <ele>33</ele>
        <time>1970-01-01T00:26:03.000Z</time>
      </trkpt>
      <trkpt lat="42.299131" lon="3.285774">
        <ele>33</ele>
        <time>1970-01-01T00:26:04.000Z</time>
      </trkpt>
      <trkpt lat="42.299107" lon="3.285684">
        <ele>33</ele>
        <time>1970-01-01T00:26:05.000Z</time>
      </trkpt>
      <trkpt lat="42.299084" lon="3.285593">
        <ele>33</ele>
        <time>1970-01-01T00:26:06.000Z</time>
      </trkpt>
      <trkpt lat="42.299061" lon="3.285502">
        <ele>33</ele>
        <time>1970-01-01T00:26:07.000Z</time>
      </trkpt>
      <trkpt lat="42.299038" lon="3.285411">
        <ele>33</ele>
        <time>1970-01-01T00:26:08.000Z</time>
      </trkpt>
      <trkpt lat="42.299015" lon="3.28532">
        <ele>33</ele>
        <time>1970-01-01T00:26:09.000Z</time>
      </trkpt>
      <trkpt lat="42.298991" lon="3.28523">
        <ele>33</ele>
        <time>1970-01-01T00:26:10.000Z</time>
      </trkpt>
      <trkpt lat="42.298968" lon="3.285139">
        <ele>33</ele>
        <time>1970-01-01T00:26:11.000Z</time>
      </trkpt>
      <trkpt lat="42.298945" lon="3.285048">
        <ele>29</ele>
        <time>1970-01-01T00:26:12.000Z</time>
      </trkpt>
      <trkpt lat="42.298923" lon="3.284924">
        <ele>29</ele>
        <time>1970-01-01T00:26:13.000Z</time>
      </trkpt>
      <trkpt lat="42.298901" lon="3.284791">
        <ele>29</ele>
        <time>1970-01-01T00:26:14.000Z</time>
      </trkpt>
      <trkpt lat="42.298876" lon="3.284656">
        <ele>29</ele>
        <time>1970-01-01T00:26:15.000Z</time>
      </trkpt>
      <trkpt lat="42.298848" lon="3.284518">
        <ele>29</ele>
        <time>1970-01-01T00:26:16.000Z</time>
      </trkpt>
      <trkpt lat="42.298818" lon="3.28438">
        <ele>29</ele>
        <time>1970-01-01T00:26:17.000Z</time>
      </trkpt>
      <trkpt lat="42.29879" lon="3.284239">
        <ele>29</ele>
        <time>1970-01-01T00:26:18.000Z</time>
      </trkpt>
      <trkpt lat="42.29876" lon="3.2841">
        <ele>29</ele>
        <time>1970-01-01T00:26:19.000Z</time>
      </trkpt>
      <trkpt lat="42.29873" lon="3.283964">
        <ele>29</ele>
        <time>1970-01-01T00:26:20.000Z</time>
      </trkpt>
      <trkpt lat="42.298694" lon="3.283768">
        <ele>29</ele>
        <time>1970-01-01T00:26:21.000Z</time>
      </trkpt>
      <trkpt lat="42.298682" lon="3.283707">
        <ele>20</ele>
        <time>1970-01-01T00:26:22.000Z</time>
      </trkpt>
      <trkpt lat="42.298627" lon="3.28351">
        <ele>20</ele>
        <time>1970-01-01T00:26:23.000Z</time>
      </trkpt>
      <trkpt lat="42.298596" lon="3.283435">
        <ele>20</ele>
        <time>1970-01-01T00:26:24.000Z</time>
      </trkpt>
      <trkpt lat="42.298565" lon="3.283361">
        <ele>20</ele>
        <time>1970-01-01T00:26:25.000Z</time>
      </trkpt>
      <trkpt lat="42.298534" lon="3.283287">
        <ele>20</ele>
        <time>1970-01-01T00:26:26.000Z</time>
      </trkpt>
      <trkpt lat="42.298503" lon="3.283212">
        <ele>20</ele>
        <time>1970-01-01T00:26:27.000Z</time>
      </trkpt>
      <trkpt lat="42.298472" lon="3.283138">
        <ele>20</ele>
        <time>1970-01-01T00:26:28.000Z</time>
      </trkpt>
      <trkpt lat="42.298441" lon="3.283064">
        <ele>20</ele>
        <time>1970-01-01T00:26:29.000Z</time>
      </trkpt>
      <trkpt lat="42.29841" lon="3.28299">
        <ele>20</ele>
        <time>1970-01-01T00:26:30.000Z</time>
      </trkpt>
      <trkpt lat="42.298379" lon="3.282915">
        <ele>20</ele>
        <time>1970-01-01T00:26:31.000Z</time>
      </trkpt>
      <trkpt lat="42.298348" lon="3.282841">
        <ele>20</ele>
        <time>1970-01-01T00:26:32.000Z</time>
      </trkpt>
      <trkpt lat="42.298288" lon="3.282762">
        <ele>20</ele>
        <time>1970-01-01T00:26:33.000Z</time>
      </trkpt>
      <trkpt lat="42.298267" lon="3.282739">
        <ele>20</ele>
        <time>1970-01-01T00:26:34.000Z</time>
      </trkpt>
      <trkpt lat="42.298246" lon="3.282715">
        <ele>20</ele>
        <time>1970-01-01T00:26:35.000Z</time>
      </trkpt>
      <trkpt lat="42.298225" lon="3.282692">
        <ele>20</ele>
        <time>1970-01-01T00:26:36.000Z</time>
      </trkpt>
      <trkpt lat="42.298205" lon="3.282668">
        <ele>20</ele>
        <time>1970-01-01T00:26:37.000Z</time>
      </trkpt>
      <trkpt lat="42.298184" lon="3.282645">
        <ele>20</ele>
        <time>1970-01-01T00:26:38.000Z</time>
      </trkpt>
      <trkpt lat="42.298163" lon="3.282621">
        <ele>20</ele>
        <time>1970-01-01T00:26:39.000Z</time>
      </trkpt>
      <trkpt lat="42.298142" lon="3.282598">
        <ele>20</ele>
        <time>1970-01-01T00:26:40.000Z</time>
      </trkpt>
      <trkpt lat="42.298121" lon="3.282574">
        <ele>20</ele>
        <time>1970-01-01T00:26:41.000Z</time>
      </trkpt>
      <trkpt lat="42.2981" lon="3.282551">
        <ele>21</ele>
        <time>1970-01-01T00:26:42.000Z</time>
      </trkpt>
      <trkpt lat="42.298061" lon="3.282526">
        <ele>21</ele>
        <time>1970-01-01T00:26:43.000Z</time>
      </trkpt>
      <trkpt lat="42.298043" lon="3.282517">
        <ele>21</ele>
        <time>1970-01-01T00:26:44.000Z</time>
      </trkpt>
      <trkpt lat="42.298024" lon="3.282507">
        <ele>21</ele>
        <time>1970-01-01T00:26:45.000Z</time>
      </trkpt>
      <trkpt lat="42.298006" lon="3.282498">
        <ele>21</ele>
        <time>1970-01-01T00:26:46.000Z</time>
      </trkpt>
      <trkpt lat="42.297987" lon="3.282488">
        <ele>21</ele>
        <time>1970-01-01T00:26:47.000Z</time>
      </trkpt>
      <trkpt lat="42.297968" lon="3.282479">
        <ele>21</ele>
        <time>1970-01-01T00:26:48.000Z</time>
      </trkpt>
      <trkpt lat="42.29795" lon="3.282469">
        <ele>21</ele>
        <time>1970-01-01T00:26:49.000Z</time>
      </trkpt>
      <trkpt lat="42.297931" lon="3.28246">
        <ele>21</ele>
        <time>1970-01-01T00:26:50.000Z</time>
      </trkpt>
      <trkpt lat="42.297913" lon="3.28245">
        <ele>21</ele>
        <time>1970-01-01T00:26:51.000Z</time>
      </trkpt>
      <trkpt lat="42.297894" lon="3.282441">
        <ele>23</ele>
        <time>1970-01-01T00:26:52.000Z</time>
      </trkpt>
      <trkpt lat="42.297852" lon="3.282439">
        <ele>23</ele>
        <time>1970-01-01T00:26:53.000Z</time>
      </trkpt>
      <trkpt lat="42.297832" lon="3.28244">
        <ele>23</ele>
        <time>1970-01-01T00:26:54.000Z</time>
      </trkpt>
      <trkpt lat="42.297813" lon="3.282441">
        <ele>23</ele>
        <time>1970-01-01T00:26:55.000Z</time>
      </trkpt>
      <trkpt lat="42.297793" lon="3.282442">
        <ele>23</ele>
        <time>1970-01-01T00:26:56.000Z</time>
      </trkpt>
      <trkpt lat="42.297774" lon="3.282443">
        <ele>23</ele>
        <time>1970-01-01T00:26:57.000Z</time>
      </trkpt>
      <trkpt lat="42.297755" lon="3.282443">
        <ele>23</ele>
        <time>1970-01-01T00:26:58.000Z</time>
      </trkpt>
      <trkpt lat="42.297735" lon="3.282444">
        <ele>23</ele>
        <time>1970-01-01T00:26:59.000Z</time>
      </trkpt>
      <trkpt lat="42.297716" lon="3.282445">
        <ele>23</ele>
        <time>1970-01-01T00:27:00.000Z</time>
      </trkpt>
      <trkpt lat="42.297696" lon="3.282446">
        <ele>23</ele>
        <time>1970-01-01T00:27:01.000Z</time>
      </trkpt>
      <trkpt lat="42.297677" lon="3.282447">
        <ele>24</ele>
        <time>1970-01-01T00:27:02.000Z</time>
      </trkpt>
      <trkpt lat="42.297634" lon="3.282459">
        <ele>24</ele>
        <time>1970-01-01T00:27:03.000Z</time>
      </trkpt>
      <trkpt lat="42.297613" lon="3.282465">
        <ele>24</ele>
        <time>1970-01-01T00:27:04.000Z</time>
      </trkpt>
      <trkpt lat="42.297593" lon="3.282472">
        <ele>24</ele>
        <time>1970-01-01T00:27:05.000Z</time>
      </trkpt>
      <trkpt lat="42.297573" lon="3.282479">
        <ele>24</ele>
        <time>1970-01-01T00:27:06.000Z</time>
      </trkpt>
      <trkpt lat="42.297553" lon="3.282485">
        <ele>24</ele>
        <time>1970-01-01T00:27:07.000Z</time>
      </trkpt>
      <trkpt lat="42.297532" lon="3.282492">
        <ele>24</ele>
        <time>1970-01-01T00:27:08.000Z</time>
      </trkpt>
      <trkpt lat="42.297512" lon="3.282498">
        <ele>24</ele>
        <time>1970-01-01T00:27:09.000Z</time>
      </trkpt>
      <trkpt lat="42.297492" lon="3.282505">
        <ele>24</ele>
        <time>1970-01-01T00:27:10.000Z</time>
      </trkpt>
      <trkpt lat="42.297472" lon="3.282512">
        <ele>24</ele>
        <time>1970-01-01T00:27:11.000Z</time>
      </trkpt>
      <trkpt lat="42.297451" lon="3.282518">
        <ele>24</ele>
        <time>1970-01-01T00:27:12.000Z</time>
      </trkpt>
      <trkpt lat="42.297431" lon="3.282525">
        <ele>28</ele>
        <time>1970-01-01T00:27:13.000Z</time>
      </trkpt>
      <trkpt lat="42.297389" lon="3.282548">
        <ele>28</ele>
        <time>1970-01-01T00:27:14.000Z</time>
      </trkpt>
      <trkpt lat="42.297368" lon="3.282559">
        <ele>28</ele>
        <time>1970-01-01T00:27:15.000Z</time>
      </trkpt>
      <trkpt lat="42.297348" lon="3.282571">
        <ele>28</ele>
        <time>1970-01-01T00:27:16.000Z</time>
      </trkpt>
      <trkpt lat="42.297328" lon="3.282583">
        <ele>28</ele>
        <time>1970-01-01T00:27:17.000Z</time>
      </trkpt>
      <trkpt lat="42.297307" lon="3.282594">
        <ele>28</ele>
        <time>1970-01-01T00:27:18.000Z</time>
      </trkpt>
      <trkpt lat="42.297287" lon="3.282606">
        <ele>28</ele>
        <time>1970-01-01T00:27:19.000Z</time>
      </trkpt>
      <trkpt lat="42.297267" lon="3.282618">
        <ele>28</ele>
        <time>1970-01-01T00:27:20.000Z</time>
      </trkpt>
      <trkpt lat="42.297246" lon="3.282629">
        <ele>28</ele>
        <time>1970-01-01T00:27:21.000Z</time>
      </trkpt>
      <trkpt lat="42.297226" lon="3.282641">
        <ele>31</ele>
        <time>1970-01-01T00:27:22.000Z</time>
      </trkpt>
      <trkpt lat="42.297182" lon="3.282669">
        <ele>31</ele>
        <time>1970-01-01T00:27:23.000Z</time>
      </trkpt>
      <trkpt lat="42.297161" lon="3.282682">
        <ele>31</ele>
        <time>1970-01-01T00:27:24.000Z</time>
      </trkpt>
      <trkpt lat="42.297139" lon="3.282696">
        <ele>31</ele>
        <time>1970-01-01T00:27:25.000Z</time>
      </trkpt>
      <trkpt lat="42.297118" lon="3.282709">
        <ele>31</ele>
        <time>1970-01-01T00:27:26.000Z</time>
      </trkpt>
      <trkpt lat="42.297097" lon="3.282722">
        <ele>31</ele>
        <time>1970-01-01T00:27:27.000Z</time>
      </trkpt>
      <trkpt lat="42.297076" lon="3.282735">
        <ele>31</ele>
        <time>1970-01-01T00:27:28.000Z</time>
      </trkpt>
      <trkpt lat="42.297055" lon="3.282748">
        <ele>31</ele>
        <time>1970-01-01T00:27:29.000Z</time>
      </trkpt>
      <trkpt lat="42.297033" lon="3.282762">
        <ele>31</ele>
        <time>1970-01-01T00:27:30.000Z</time>
      </trkpt>
      <trkpt lat="42.297012" lon="3.282775">
        <ele>31</ele>
        <time>1970-01-01T00:27:31.000Z</time>
      </trkpt>
      <trkpt lat="42.296991" lon="3.282788">
        <ele>31</ele>
        <time>1970-01-01T00:27:32.000Z</time>
      </trkpt>
      <trkpt lat="42.29694" lon="3.282818">
        <ele>31</ele>
        <time>1970-01-01T00:27:33.000Z</time>
      </trkpt>
      <trkpt lat="42.296914" lon="3.282834">
        <ele>31</ele>
        <time>1970-01-01T00:27:34.000Z</time>
      </trkpt>
      <trkpt lat="42.296888" lon="3.282849">
        <ele>31</ele>
        <time>1970-01-01T00:27:35.000Z</time>
      </trkpt>
      <trkpt lat="42.296862" lon="3.282865">
        <ele>31</ele>
        <time>1970-01-01T00:27:36.000Z</time>
      </trkpt>
      <trkpt lat="42.296837" lon="3.282881">
        <ele>31</ele>
        <time>1970-01-01T00:27:37.000Z</time>
      </trkpt>
      <trkpt lat="42.296811" lon="3.282897">
        <ele>31</ele>
        <time>1970-01-01T00:27:38.000Z</time>
      </trkpt>
      <trkpt lat="42.296785" lon="3.282913">
        <ele>31</ele>
        <time>1970-01-01T00:27:39.000Z</time>
      </trkpt>
      <trkpt lat="42.296759" lon="3.282928">
        <ele>31</ele>
        <time>1970-01-01T00:27:40.000Z</time>
      </trkpt>
      <trkpt lat="42.296733" lon="3.282944">
        <ele>31</ele>
        <time>1970-01-01T00:27:41.000Z</time>
      </trkpt>
      <trkpt lat="42.296707" lon="3.28296">
        <ele>32</ele>
        <time>1970-01-01T00:27:42.000Z</time>
      </trkpt>
      <trkpt lat="42.296627" lon="3.282988">
        <ele>32</ele>
        <time>1970-01-01T00:27:43.000Z</time>
      </trkpt>
      <trkpt lat="42.296583" lon="3.282996">
        <ele>32</ele>
        <time>1970-01-01T00:27:44.000Z</time>
      </trkpt>
      <trkpt lat="42.296539" lon="3.283004">
        <ele>32</ele>
        <time>1970-01-01T00:27:45.000Z</time>
      </trkpt>
      <trkpt lat="42.296495" lon="3.283012">
        <ele>32</ele>
        <time>1970-01-01T00:27:46.000Z</time>
      </trkpt>
      <trkpt lat="42.296452" lon="3.28302">
        <ele>32</ele>
        <time>1970-01-01T00:27:47.000Z</time>
      </trkpt>
      <trkpt lat="42.296408" lon="3.283028">
        <ele>32</ele>
        <time>1970-01-01T00:27:48.000Z</time>
      </trkpt>
      <trkpt lat="42.296364" lon="3.283036">
        <ele>32</ele>
        <time>1970-01-01T00:27:49.000Z</time>
      </trkpt>
      <trkpt lat="42.29632" lon="3.283044">
        <ele>32</ele>
        <time>1970-01-01T00:27:50.000Z</time>
      </trkpt>
      <trkpt lat="42.296276" lon="3.283052">
        <ele>32</ele>
        <time>1970-01-01T00:27:51.000Z</time>
      </trkpt>
      <trkpt lat="42.296232" lon="3.28306">
        <ele>33</ele>
        <time>1970-01-01T00:27:52.000Z</time>
      </trkpt>
      <trkpt lat="42.296139" lon="3.28304">
        <ele>33</ele>
        <time>1970-01-01T00:27:53.000Z</time>
      </trkpt>
      <trkpt lat="42.296101" lon="3.283029">
        <ele>33</ele>
        <time>1970-01-01T00:27:54.000Z</time>
      </trkpt>
      <trkpt lat="42.296063" lon="3.283017">
        <ele>33</ele>
        <time>1970-01-01T00:27:55.000Z</time>
      </trkpt>
      <trkpt lat="42.296025" lon="3.283005">
        <ele>33</ele>
        <time>1970-01-01T00:27:56.000Z</time>
      </trkpt>
      <trkpt lat="42.295988" lon="3.282993">
        <ele>33</ele>
        <time>1970-01-01T00:27:57.000Z</time>
      </trkpt>
      <trkpt lat="42.29595" lon="3.282982">
        <ele>33</ele>
        <time>1970-01-01T00:27:58.000Z</time>
      </trkpt>
      <trkpt lat="42.295912" lon="3.28297">
        <ele>33</ele>
        <time>1970-01-01T00:27:59.000Z</time>
      </trkpt>
      <trkpt lat="42.295874" lon="3.282958">
        <ele>33</ele>
        <time>1970-01-01T00:28:00.000Z</time>
      </trkpt>
      <trkpt lat="42.295836" lon="3.282947">
        <ele>33</ele>
        <time>1970-01-01T00:28:01.000Z</time>
      </trkpt>
      <trkpt lat="42.295798" lon="3.282935">
        <ele>32</ele>
        <time>1970-01-01T00:28:02.000Z</time>
      </trkpt>
      <trkpt lat="42.295746" lon="3.282915">
        <ele>32</ele>
        <time>1970-01-01T00:28:03.000Z</time>
      </trkpt>
      <trkpt lat="42.295723" lon="3.282905">
        <ele>32</ele>
        <time>1970-01-01T00:28:04.000Z</time>
      </trkpt>
      <trkpt lat="42.295701" lon="3.282896">
        <ele>32</ele>
        <time>1970-01-01T00:28:05.000Z</time>
      </trkpt>
      <trkpt lat="42.295678" lon="3.282886">
        <ele>32</ele>
        <time>1970-01-01T00:28:06.000Z</time>
      </trkpt>
      <trkpt lat="42.295656" lon="3.282877">
        <ele>32</ele>
        <time>1970-01-01T00:28:07.000Z</time>
      </trkpt>
      <trkpt lat="42.295634" lon="3.282868">
        <ele>32</ele>
        <time>1970-01-01T00:28:08.000Z</time>
      </trkpt>
      <trkpt lat="42.295611" lon="3.282858">
        <ele>32</ele>
        <time>1970-01-01T00:28:09.000Z</time>
      </trkpt>
      <trkpt lat="42.295589" lon="3.282849">
        <ele>32</ele>
        <time>1970-01-01T00:28:10.000Z</time>
      </trkpt>
      <trkpt lat="42.295566" lon="3.282839">
        <ele>32</ele>
        <time>1970-01-01T00:28:11.000Z</time>
      </trkpt>
      <trkpt lat="42.295544" lon="3.28283">
        <ele>33</ele>
        <time>1970-01-01T00:28:12.000Z</time>
      </trkpt>
      <trkpt lat="42.295504" lon="3.282797">
        <ele>33</ele>
        <time>1970-01-01T00:28:13.000Z</time>
      </trkpt>
      <trkpt lat="42.295484" lon="3.282776">
        <ele>33</ele>
        <time>1970-01-01T00:28:14.000Z</time>
      </trkpt>
      <trkpt lat="42.295464" lon="3.282754">
        <ele>33</ele>
        <time>1970-01-01T00:28:15.000Z</time>
      </trkpt>
      <trkpt lat="42.295444" lon="3.282733">
        <ele>33</ele>
        <time>1970-01-01T00:28:16.000Z</time>
      </trkpt>
      <trkpt lat="42.295424" lon="3.282712">
        <ele>33</ele>
        <time>1970-01-01T00:28:17.000Z</time>
      </trkpt>
      <trkpt lat="42.295403" lon="3.282691">
        <ele>33</ele>
        <time>1970-01-01T00:28:18.000Z</time>
      </trkpt>
      <trkpt lat="42.295383" lon="3.28267">
        <ele>33</ele>
        <time>1970-01-01T00:28:19.000Z</time>
      </trkpt>
      <trkpt lat="42.295363" lon="3.282648">
        <ele>33</ele>
        <time>1970-01-01T00:28:20.000Z</time>
      </trkpt>
      <trkpt lat="42.295343" lon="3.282627">
        <ele>33</ele>
        <time>1970-01-01T00:28:21.000Z</time>
      </trkpt>
      <trkpt lat="42.295323" lon="3.282606">
        <ele>37</ele>
        <time>1970-01-01T00:28:22.000Z</time>
      </trkpt>
      <trkpt lat="42.295291" lon="3.282537">
        <ele>37</ele>
        <time>1970-01-01T00:28:23.000Z</time>
      </trkpt>
      <trkpt lat="42.295278" lon="3.2825">
        <ele>37</ele>
        <time>1970-01-01T00:28:24.000Z</time>
      </trkpt>
      <trkpt lat="42.295266" lon="3.282464">
        <ele>37</ele>
        <time>1970-01-01T00:28:25.000Z</time>
      </trkpt>
      <trkpt lat="42.295253" lon="3.282427">
        <ele>37</ele>
        <time>1970-01-01T00:28:26.000Z</time>
      </trkpt>
      <trkpt lat="42.295241" lon="3.28239">
        <ele>37</ele>
        <time>1970-01-01T00:28:28.000Z</time>
      </trkpt>
      <trkpt lat="42.295228" lon="3.282353">
        <ele>37</ele>
        <time>1970-01-01T00:28:29.000Z</time>
      </trkpt>
      <trkpt lat="42.295216" lon="3.282317">
        <ele>37</ele>
        <time>1970-01-01T00:28:30.000Z</time>
      </trkpt>
      <trkpt lat="42.295203" lon="3.28228">
        <ele>37</ele>
        <time>1970-01-01T00:28:31.000Z</time>
      </trkpt>
      <trkpt lat="42.295191" lon="3.282243">
        <ele>36</ele>
        <time>1970-01-01T00:28:32.000Z</time>
      </trkpt>
      <trkpt lat="42.295159" lon="3.282185">
        <ele>36</ele>
        <time>1970-01-01T00:28:33.000Z</time>
      </trkpt>
      <trkpt lat="42.295143" lon="3.282164">
        <ele>36</ele>
        <time>1970-01-01T00:28:34.000Z</time>
      </trkpt>
      <trkpt lat="42.295128" lon="3.282142">
        <ele>36</ele>
        <time>1970-01-01T00:28:35.000Z</time>
      </trkpt>
      <trkpt lat="42.295113" lon="3.282121">
        <ele>36</ele>
        <time>1970-01-01T00:28:36.000Z</time>
      </trkpt>
      <trkpt lat="42.295098" lon="3.2821">
        <ele>36</ele>
        <time>1970-01-01T00:28:37.000Z</time>
      </trkpt>
      <trkpt lat="42.295082" lon="3.282079">
        <ele>36</ele>
        <time>1970-01-01T00:28:38.000Z</time>
      </trkpt>
      <trkpt lat="42.295067" lon="3.282058">
        <ele>36</ele>
        <time>1970-01-01T00:28:39.000Z</time>
      </trkpt>
      <trkpt lat="42.295052" lon="3.282036">
        <ele>36</ele>
        <time>1970-01-01T00:28:40.000Z</time>
      </trkpt>
      <trkpt lat="42.295036" lon="3.282015">
        <ele>36</ele>
        <time>1970-01-01T00:28:41.000Z</time>
      </trkpt>
      <trkpt lat="42.295021" lon="3.281994">
        <ele>37</ele>
        <time>1970-01-01T00:28:42.000Z</time>
      </trkpt>
      <trkpt lat="42.294992" lon="3.281958">
        <ele>37</ele>
        <time>1970-01-01T00:28:43.000Z</time>
      </trkpt>
      <trkpt lat="42.294979" lon="3.281941">
        <ele>37</ele>
        <time>1970-01-01T00:28:44.000Z</time>
      </trkpt>
      <trkpt lat="42.294966" lon="3.281923">
        <ele>37</ele>
        <time>1970-01-01T00:28:45.000Z</time>
      </trkpt>
      <trkpt lat="42.294953" lon="3.281906">
        <ele>37</ele>
        <time>1970-01-01T00:28:46.000Z</time>
      </trkpt>
      <trkpt lat="42.29494" lon="3.281888">
        <ele>37</ele>
        <time>1970-01-01T00:28:47.000Z</time>
      </trkpt>
      <trkpt lat="42.294927" lon="3.281871">
        <ele>37</ele>
        <time>1970-01-01T00:28:48.000Z</time>
      </trkpt>
      <trkpt lat="42.294914" lon="3.281853">
        <ele>37</ele>
        <time>1970-01-01T00:28:49.000Z</time>
      </trkpt>
      <trkpt lat="42.294901" lon="3.281836">
        <ele>37</ele>
        <time>1970-01-01T00:28:50.000Z</time>
      </trkpt>
      <trkpt lat="42.294888" lon="3.281818">
        <ele>37</ele>
        <time>1970-01-01T00:28:51.000Z</time>
      </trkpt>
      <trkpt lat="42.294875" lon="3.281801">
        <ele>38</ele>
        <time>1970-01-01T00:28:52.000Z</time>
      </trkpt>
      <trkpt lat="42.294857" lon="3.281755">
        <ele>38</ele>
        <time>1970-01-01T00:28:53.000Z</time>
      </trkpt>
      <trkpt lat="42.29485" lon="3.281733">
        <ele>38</ele>
        <time>1970-01-01T00:28:54.000Z</time>
      </trkpt>
      <trkpt lat="42.294842" lon="3.281712">
        <ele>38</ele>
        <time>1970-01-01T00:28:55.000Z</time>
      </trkpt>
      <trkpt lat="42.294835" lon="3.28169">
        <ele>38</ele>
        <time>1970-01-01T00:28:56.000Z</time>
      </trkpt>
      <trkpt lat="42.294827" lon="3.281668">
        <ele>38</ele>
        <time>1970-01-01T00:28:57.000Z</time>
      </trkpt>
      <trkpt lat="42.294819" lon="3.281646">
        <ele>38</ele>
        <time>1970-01-01T00:28:58.000Z</time>
      </trkpt>
      <trkpt lat="42.294812" lon="3.281624">
        <ele>38</ele>
        <time>1970-01-01T00:28:59.000Z</time>
      </trkpt>
      <trkpt lat="42.294804" lon="3.281603">
        <ele>38</ele>
        <time>1970-01-01T00:29:00.000Z</time>
      </trkpt>
      <trkpt lat="42.294797" lon="3.281581">
        <ele>38</ele>
        <time>1970-01-01T00:29:01.000Z</time>
      </trkpt>
      <trkpt lat="42.294789" lon="3.281559">
        <ele>40</ele>
        <time>1970-01-01T00:29:02.000Z</time>
      </trkpt>
      <trkpt lat="42.294777" lon="3.281513">
        <ele>40</ele>
        <time>1970-01-01T00:29:03.000Z</time>
      </trkpt>
      <trkpt lat="42.29477" lon="3.281492">
        <ele>40</ele>
        <time>1970-01-01T00:29:04.000Z</time>
      </trkpt>
      <trkpt lat="42.294762" lon="3.281472">
        <ele>40</ele>
        <time>1970-01-01T00:29:05.000Z</time>
      </trkpt>
      <trkpt lat="42.294754" lon="3.281451">
        <ele>40</ele>
        <time>1970-01-01T00:29:06.000Z</time>
      </trkpt>
      <trkpt lat="42.294747" lon="3.281431">
        <ele>40</ele>
        <time>1970-01-01T00:29:07.000Z</time>
      </trkpt>
      <trkpt lat="42.294739" lon="3.281411">
        <ele>40</ele>
        <time>1970-01-01T00:29:08.000Z</time>
      </trkpt>
      <trkpt lat="42.294731" lon="3.28139">
        <ele>40</ele>
        <time>1970-01-01T00:29:09.000Z</time>
      </trkpt>
      <trkpt lat="42.294723" lon="3.28137">
        <ele>40</ele>
        <time>1970-01-01T00:29:10.000Z</time>
      </trkpt>
      <trkpt lat="42.294716" lon="3.281349">
        <ele>40</ele>
        <time>1970-01-01T00:29:11.000Z</time>
      </trkpt>
      <trkpt lat="42.294708" lon="3.281329">
        <ele>44</ele>
        <time>1970-01-01T00:29:12.000Z</time>
      </trkpt>
      <trkpt lat="42.294685" lon="3.281289">
        <ele>44</ele>
        <time>1970-01-01T00:29:13.000Z</time>
      </trkpt>
      <trkpt lat="42.294672" lon="3.28127">
        <ele>44</ele>
        <time>1970-01-01T00:29:14.000Z</time>
      </trkpt>
      <trkpt lat="42.29466" lon="3.281252">
        <ele>44</ele>
        <time>1970-01-01T00:29:15.000Z</time>
      </trkpt>
      <trkpt lat="42.294647" lon="3.281233">
        <ele>44</ele>
        <time>1970-01-01T00:29:16.000Z</time>
      </trkpt>
      <trkpt lat="42.294635" lon="3.281214">
        <ele>44</ele>
        <time>1970-01-01T00:29:17.000Z</time>
      </trkpt>
      <trkpt lat="42.294622" lon="3.281195">
        <ele>44</ele>
        <time>1970-01-01T00:29:18.000Z</time>
      </trkpt>
      <trkpt lat="42.29461" lon="3.281176">
        <ele>44</ele>
        <time>1970-01-01T00:29:19.000Z</time>
      </trkpt>
      <trkpt lat="42.294597" lon="3.281158">
        <ele>44</ele>
        <time>1970-01-01T00:29:20.000Z</time>
      </trkpt>
      <trkpt lat="42.294585" lon="3.281139">
        <ele>44</ele>
        <time>1970-01-01T00:29:21.000Z</time>
      </trkpt>
      <trkpt lat="42.294572" lon="3.28112">
        <ele>46</ele>
        <time>1970-01-01T00:29:22.000Z</time>
      </trkpt>
      <trkpt lat="42.294536" lon="3.281096">
        <ele>46</ele>
        <time>1970-01-01T00:29:23.000Z</time>
      </trkpt>
      <trkpt lat="42.294517" lon="3.281086">
        <ele>46</ele>
        <time>1970-01-01T00:29:24.000Z</time>
      </trkpt>
      <trkpt lat="42.294499" lon="3.281076">
        <ele>46</ele>
        <time>1970-01-01T00:29:25.000Z</time>
      </trkpt>
      <trkpt lat="42.294481" lon="3.281066">
        <ele>46</ele>
        <time>1970-01-01T00:29:26.000Z</time>
      </trkpt>
      <trkpt lat="42.294463" lon="3.281055">
        <ele>46</ele>
        <time>1970-01-01T00:29:27.000Z</time>
      </trkpt>
      <trkpt lat="42.294444" lon="3.281045">
        <ele>46</ele>
        <time>1970-01-01T00:29:28.000Z</time>
      </trkpt>
      <trkpt lat="42.294426" lon="3.281035">
        <ele>46</ele>
        <time>1970-01-01T00:29:29.000Z</time>
      </trkpt>
      <trkpt lat="42.294408" lon="3.281025">
        <ele>46</ele>
        <time>1970-01-01T00:29:30.000Z</time>
      </trkpt>
      <trkpt lat="42.294389" lon="3.281015">
        <ele>46</ele>
        <time>1970-01-01T00:29:31.000Z</time>
      </trkpt>
      <trkpt lat="42.294371" lon="3.281005">
        <ele>47</ele>
        <time>1970-01-01T00:29:32.000Z</time>
      </trkpt>
      <trkpt lat="42.294329" lon="3.280993">
        <ele>47</ele>
        <time>1970-01-01T00:29:33.000Z</time>
      </trkpt>
      <trkpt lat="42.294308" lon="3.280989">
        <ele>47</ele>
        <time>1970-01-01T00:29:34.000Z</time>
      </trkpt>
      <trkpt lat="42.294287" lon="3.280984">
        <ele>47</ele>
        <time>1970-01-01T00:29:35.000Z</time>
      </trkpt>
      <trkpt lat="42.294266" lon="3.28098">
        <ele>47</ele>
        <time>1970-01-01T00:29:36.000Z</time>
      </trkpt>
      <trkpt lat="42.294246" lon="3.280975">
        <ele>47</ele>
        <time>1970-01-01T00:29:37.000Z</time>
      </trkpt>
      <trkpt lat="42.294225" lon="3.280971">
        <ele>47</ele>
        <time>1970-01-01T00:29:38.000Z</time>
      </trkpt>
      <trkpt lat="42.294204" lon="3.280966">
        <ele>47</ele>
        <time>1970-01-01T00:29:39.000Z</time>
      </trkpt>
      <trkpt lat="42.294183" lon="3.280962">
        <ele>47</ele>
        <time>1970-01-01T00:29:40.000Z</time>
      </trkpt>
      <trkpt lat="42.294162" lon="3.280957">
        <ele>47</ele>
        <time>1970-01-01T00:29:41.000Z</time>
      </trkpt>
      <trkpt lat="42.294141" lon="3.280953">
        <ele>49</ele>
        <time>1970-01-01T00:29:42.000Z</time>
      </trkpt>
      <trkpt lat="42.294089" lon="3.28096">
        <ele>49</ele>
        <time>1970-01-01T00:29:43.000Z</time>
      </trkpt>
      <trkpt lat="42.294063" lon="3.280966">
        <ele>49</ele>
        <time>1970-01-01T00:29:44.000Z</time>
      </trkpt>
      <trkpt lat="42.294036" lon="3.280973">
        <ele>49</ele>
        <time>1970-01-01T00:29:45.000Z</time>
      </trkpt>
      <trkpt lat="42.294009" lon="3.280979">
        <ele>49</ele>
        <time>1970-01-01T00:29:46.000Z</time>
      </trkpt>
      <trkpt lat="42.293983" lon="3.280986">
        <ele>49</ele>
        <time>1970-01-01T00:29:47.000Z</time>
      </trkpt>
      <trkpt lat="42.293956" lon="3.280992">
        <ele>49</ele>
        <time>1970-01-01T00:29:48.000Z</time>
      </trkpt>
      <trkpt lat="42.293929" lon="3.280999">
        <ele>49</ele>
        <time>1970-01-01T00:29:49.000Z</time>
      </trkpt>
      <trkpt lat="42.293902" lon="3.281005">
        <ele>49</ele>
        <time>1970-01-01T00:29:50.000Z</time>
      </trkpt>
      <trkpt lat="42.293876" lon="3.281012">
        <ele>49</ele>
        <time>1970-01-01T00:29:51.000Z</time>
      </trkpt>
      <trkpt lat="42.293849" lon="3.281018">
        <ele>49</ele>
        <time>1970-01-01T00:29:52.000Z</time>
      </trkpt>
      <trkpt lat="42.293777" lon="3.281032">
        <ele>49</ele>
        <time>1970-01-01T00:29:53.000Z</time>
      </trkpt>
      <trkpt lat="42.293739" lon="3.281035">
        <ele>49</ele>
        <time>1970-01-01T00:29:54.000Z</time>
      </trkpt>
      <trkpt lat="42.293702" lon="3.281039">
        <ele>49</ele>
        <time>1970-01-01T00:29:55.000Z</time>
      </trkpt>
      <trkpt lat="42.293664" lon="3.281042">
        <ele>49</ele>
        <time>1970-01-01T00:29:56.000Z</time>
      </trkpt>
      <trkpt lat="42.293627" lon="3.281046">
        <ele>49</ele>
        <time>1970-01-01T00:29:57.000Z</time>
      </trkpt>
      <trkpt lat="42.293589" lon="3.281049">
        <ele>49</ele>
        <time>1970-01-01T00:29:58.000Z</time>
      </trkpt>
      <trkpt lat="42.293552" lon="3.281053">
        <ele>49</ele>
        <time>1970-01-01T00:29:59.000Z</time>
      </trkpt>
      <trkpt lat="42.293514" lon="3.281056">
        <ele>49</ele>
        <time>1970-01-01T00:30:00.000Z</time>
      </trkpt>
      <trkpt lat="42.293477" lon="3.28106">
        <ele>49</ele>
        <time>1970-01-01T00:30:01.000Z</time>
      </trkpt>
      <trkpt lat="42.293439" lon="3.281063">
        <ele>49</ele>
        <time>1970-01-01T00:30:02.000Z</time>
      </trkpt>
      <trkpt lat="42.293365" lon="3.281045">
        <ele>49</ele>
        <time>1970-01-01T00:30:03.000Z</time>
      </trkpt>
      <trkpt lat="42.293331" lon="3.28103">
        <ele>49</ele>
        <time>1970-01-01T00:30:04.000Z</time>
      </trkpt>
      <trkpt lat="42.293298" lon="3.281015">
        <ele>49</ele>
        <time>1970-01-01T00:30:05.000Z</time>
      </trkpt>
      <trkpt lat="42.293264" lon="3.281">
        <ele>49</ele>
        <time>1970-01-01T00:30:06.000Z</time>
      </trkpt>
      <trkpt lat="42.293231" lon="3.280985">
        <ele>49</ele>
        <time>1970-01-01T00:30:07.000Z</time>
      </trkpt>
      <trkpt lat="42.293198" lon="3.28097">
        <ele>49</ele>
        <time>1970-01-01T00:30:08.000Z</time>
      </trkpt>
      <trkpt lat="42.293164" lon="3.280955">
        <ele>49</ele>
        <time>1970-01-01T00:30:09.000Z</time>
      </trkpt>
      <trkpt lat="42.293131" lon="3.28094">
        <ele>49</ele>
        <time>1970-01-01T00:30:10.000Z</time>
      </trkpt>
      <trkpt lat="42.293097" lon="3.280925">
        <ele>49</ele>
        <time>1970-01-01T00:30:11.000Z</time>
      </trkpt>
      <trkpt lat="42.293064" lon="3.28091">
        <ele>48</ele>
        <time>1970-01-01T00:30:12.000Z</time>
      </trkpt>
      <trkpt lat="42.293018" lon="3.280864">
        <ele>48</ele>
        <time>1970-01-01T00:30:13.000Z</time>
      </trkpt>
      <trkpt lat="42.292994" lon="3.280837">
        <ele>48</ele>
        <time>1970-01-01T00:30:14.000Z</time>
      </trkpt>
      <trkpt lat="42.292971" lon="3.280811">
        <ele>48</ele>
        <time>1970-01-01T00:30:15.000Z</time>
      </trkpt>
      <trkpt lat="42.292947" lon="3.280784">
        <ele>48</ele>
        <time>1970-01-01T00:30:16.000Z</time>
      </trkpt>
      <trkpt lat="42.292923" lon="3.280758">
        <ele>48</ele>
        <time>1970-01-01T00:30:17.000Z</time>
      </trkpt>
      <trkpt lat="42.292899" lon="3.280731">
        <ele>48</ele>
        <time>1970-01-01T00:30:18.000Z</time>
      </trkpt>
      <trkpt lat="42.292875" lon="3.280705">
        <ele>48</ele>
        <time>1970-01-01T00:30:19.000Z</time>
      </trkpt>
      <trkpt lat="42.292851" lon="3.280678">
        <ele>48</ele>
        <time>1970-01-01T00:30:20.000Z</time>
      </trkpt>
      <trkpt lat="42.292828" lon="3.280652">
        <ele>48</ele>
        <time>1970-01-01T00:30:21.000Z</time>
      </trkpt>
      <trkpt lat="42.292804" lon="3.280625">
        <ele>48</ele>
        <time>1970-01-01T00:30:22.000Z</time>
      </trkpt>
      <trkpt lat="42.29278" lon="3.280599">
        <ele>48</ele>
        <time>1970-01-01T00:30:23.000Z</time>
      </trkpt>
      <trkpt lat="42.29269" lon="3.280532">
        <ele>48</ele>
        <time>1970-01-01T00:30:24.000Z</time>
      </trkpt>
      <trkpt lat="42.29265" lon="3.280492">
        <ele>48</ele>
        <time>1970-01-01T00:30:25.000Z</time>
      </trkpt>
      <trkpt lat="42.29261" lon="3.280452">
        <ele>48</ele>
        <time>1970-01-01T00:30:26.000Z</time>
      </trkpt>
      <trkpt lat="42.29257" lon="3.280412">
        <ele>48</ele>
        <time>1970-01-01T00:30:27.000Z</time>
      </trkpt>
      <trkpt lat="42.29253" lon="3.280372">
        <ele>48</ele>
        <time>1970-01-01T00:30:28.000Z</time>
      </trkpt>
      <trkpt lat="42.29249" lon="3.280332">
        <ele>48</ele>
        <time>1970-01-01T00:30:29.000Z</time>
      </trkpt>
      <trkpt lat="42.29245" lon="3.280292">
        <ele>48</ele>
        <time>1970-01-01T00:30:30.000Z</time>
      </trkpt>
      <trkpt lat="42.29241" lon="3.280252">
        <ele>48</ele>
        <time>1970-01-01T00:30:31.000Z</time>
      </trkpt>
      <trkpt lat="42.29237" lon="3.280212">
        <ele>46</ele>
        <time>1970-01-01T00:30:32.000Z</time>
      </trkpt>
      <trkpt lat="42.292307" lon="3.28012">
        <ele>46</ele>
        <time>1970-01-01T00:30:33.000Z</time>
      </trkpt>
      <trkpt lat="42.292278" lon="3.280079">
        <ele>46</ele>
        <time>1970-01-01T00:30:34.000Z</time>
      </trkpt>
      <trkpt lat="42.292248" lon="3.280037">
        <ele>46</ele>
        <time>1970-01-01T00:30:35.000Z</time>
      </trkpt>
      <trkpt lat="42.292219" lon="3.279996">
        <ele>46</ele>
        <time>1970-01-01T00:30:36.000Z</time>
      </trkpt>
      <trkpt lat="42.29219" lon="3.279955">
        <ele>46</ele>
        <time>1970-01-01T00:30:37.000Z</time>
      </trkpt>
      <trkpt lat="42.292161" lon="3.279914">
        <ele>46</ele>
        <time>1970-01-01T00:30:38.000Z</time>
      </trkpt>
      <trkpt lat="42.292132" lon="3.279873">
        <ele>46</ele>
        <time>1970-01-01T00:30:39.000Z</time>
      </trkpt>
      <trkpt lat="42.292102" lon="3.279831">
        <ele>46</ele>
        <time>1970-01-01T00:30:40.000Z</time>
      </trkpt>
      <trkpt lat="42.292073" lon="3.27979">
        <ele>46</ele>
        <time>1970-01-01T00:30:41.000Z</time>
      </trkpt>
      <trkpt lat="42.292044" lon="3.279749">
        <ele>40</ele>
        <time>1970-01-01T00:30:42.000Z</time>
      </trkpt>
      <trkpt lat="42.292057" lon="3.279654">
        <ele>40</ele>
        <time>1970-01-01T00:30:43.000Z</time>
      </trkpt>
      <trkpt lat="42.292072" lon="3.27961">
        <ele>40</ele>
        <time>1970-01-01T00:30:44.000Z</time>
      </trkpt>
      <trkpt lat="42.292087" lon="3.279567">
        <ele>40</ele>
        <time>1970-01-01T00:30:45.000Z</time>
      </trkpt>
      <trkpt lat="42.292102" lon="3.279523">
        <ele>40</ele>
        <time>1970-01-01T00:30:46.000Z</time>
      </trkpt>
      <trkpt lat="42.292118" lon="3.27948">
        <ele>40</ele>
        <time>1970-01-01T00:30:47.000Z</time>
      </trkpt>
      <trkpt lat="42.292133" lon="3.279436">
        <ele>40</ele>
        <time>1970-01-01T00:30:48.000Z</time>
      </trkpt>
      <trkpt lat="42.292148" lon="3.279393">
        <ele>40</ele>
        <time>1970-01-01T00:30:49.000Z</time>
      </trkpt>
      <trkpt lat="42.292163" lon="3.279349">
        <ele>40</ele>
        <time>1970-01-01T00:30:50.000Z</time>
      </trkpt>
      <trkpt lat="42.292178" lon="3.279306">
        <ele>40</ele>
        <time>1970-01-01T00:30:51.000Z</time>
      </trkpt>
      <trkpt lat="42.292193" lon="3.279262">
        <ele>38</ele>
        <time>1970-01-01T00:30:52.000Z</time>
      </trkpt>
      <trkpt lat="42.29223" lon="3.279179">
        <ele>38</ele>
        <time>1970-01-01T00:30:53.000Z</time>
      </trkpt>
      <trkpt lat="42.292246" lon="3.27914">
        <ele>38</ele>
        <time>1970-01-01T00:30:54.000Z</time>
      </trkpt>
      <trkpt lat="42.292263" lon="3.2791">
        <ele>38</ele>
        <time>1970-01-01T00:30:55.000Z</time>
      </trkpt>
      <trkpt lat="42.292279" lon="3.279061">
        <ele>38</ele>
        <time>1970-01-01T00:30:56.000Z</time>
      </trkpt>
      <trkpt lat="42.292295" lon="3.279022">
        <ele>38</ele>
        <time>1970-01-01T00:30:57.000Z</time>
      </trkpt>
      <trkpt lat="42.292311" lon="3.278983">
        <ele>38</ele>
        <time>1970-01-01T00:30:58.000Z</time>
      </trkpt>
      <trkpt lat="42.292327" lon="3.278944">
        <ele>38</ele>
        <time>1970-01-01T00:30:59.000Z</time>
      </trkpt>
      <trkpt lat="42.292344" lon="3.278904">
        <ele>38</ele>
        <time>1970-01-01T00:31:00.000Z</time>
      </trkpt>
      <trkpt lat="42.29236" lon="3.278865">
        <ele>38</ele>
        <time>1970-01-01T00:31:01.000Z</time>
      </trkpt>
      <trkpt lat="42.292376" lon="3.278826">
        <ele>39</ele>
        <time>1970-01-01T00:31:02.000Z</time>
      </trkpt>
      <trkpt lat="42.29242" lon="3.278755">
        <ele>39</ele>
        <time>1970-01-01T00:31:03.000Z</time>
      </trkpt>
      <trkpt lat="42.292446" lon="3.278728">
        <ele>39</ele>
        <time>1970-01-01T00:31:04.000Z</time>
      </trkpt>
      <trkpt lat="42.292471" lon="3.2787">
        <ele>39</ele>
        <time>1970-01-01T00:31:05.000Z</time>
      </trkpt>
      <trkpt lat="42.292497" lon="3.278673">
        <ele>39</ele>
        <time>1970-01-01T00:31:06.000Z</time>
      </trkpt>
      <trkpt lat="42.292523" lon="3.278645">
        <ele>39</ele>
        <time>1970-01-01T00:31:07.000Z</time>
      </trkpt>
      <trkpt lat="42.292549" lon="3.278617">
        <ele>39</ele>
        <time>1970-01-01T00:31:08.000Z</time>
      </trkpt>
      <trkpt lat="42.292575" lon="3.27859">
        <ele>39</ele>
        <time>1970-01-01T00:31:09.000Z</time>
      </trkpt>
      <trkpt lat="42.2926" lon="3.278562">
        <ele>39</ele>
        <time>1970-01-01T00:31:10.000Z</time>
      </trkpt>
      <trkpt lat="42.292626" lon="3.278535">
        <ele>39</ele>
        <time>1970-01-01T00:31:11.000Z</time>
      </trkpt>
      <trkpt lat="42.292652" lon="3.278507">
        <ele>39</ele>
        <time>1970-01-01T00:31:12.000Z</time>
      </trkpt>
      <trkpt lat="42.292726" lon="3.278462">
        <ele>39</ele>
        <time>1970-01-01T00:31:13.000Z</time>
      </trkpt>
      <trkpt lat="42.292764" lon="3.278439">
        <ele>39</ele>
        <time>1970-01-01T00:31:14.000Z</time>
      </trkpt>
      <trkpt lat="42.292802" lon="3.278416">
        <ele>39</ele>
        <time>1970-01-01T00:31:15.000Z</time>
      </trkpt>
      <trkpt lat="42.29284" lon="3.278393">
        <ele>39</ele>
        <time>1970-01-01T00:31:16.000Z</time>
      </trkpt>
      <trkpt lat="42.292878" lon="3.278369">
        <ele>39</ele>
        <time>1970-01-01T00:31:17.000Z</time>
      </trkpt>
      <trkpt lat="42.292916" lon="3.278346">
        <ele>39</ele>
        <time>1970-01-01T00:31:19.000Z</time>
      </trkpt>
      <trkpt lat="42.292954" lon="3.278323">
        <ele>39</ele>
        <time>1970-01-01T00:31:20.000Z</time>
      </trkpt>
      <trkpt lat="42.292992" lon="3.2783">
        <ele>39</ele>
        <time>1970-01-01T00:31:21.000Z</time>
      </trkpt>
      <trkpt lat="42.29303" lon="3.278277">
        <ele>39</ele>
        <time>1970-01-01T00:31:22.000Z</time>
      </trkpt>
      <trkpt lat="42.293089" lon="3.278211">
        <ele>39</ele>
        <time>1970-01-01T00:31:23.000Z</time>
      </trkpt>
      <trkpt lat="42.293116" lon="3.278179">
        <ele>39</ele>
        <time>1970-01-01T00:31:24.000Z</time>
      </trkpt>
      <trkpt lat="42.293142" lon="3.278147">
        <ele>39</ele>
        <time>1970-01-01T00:31:25.000Z</time>
      </trkpt>
      <trkpt lat="42.293168" lon="3.278115">
        <ele>39</ele>
        <time>1970-01-01T00:31:26.000Z</time>
      </trkpt>
      <trkpt lat="42.293195" lon="3.278083">
        <ele>39</ele>
        <time>1970-01-01T00:31:27.000Z</time>
      </trkpt>
      <trkpt lat="42.293221" lon="3.278051">
        <ele>39</ele>
        <time>1970-01-01T00:31:28.000Z</time>
      </trkpt>
      <trkpt lat="42.293247" lon="3.278019">
        <ele>39</ele>
        <time>1970-01-01T00:31:29.000Z</time>
      </trkpt>
      <trkpt lat="42.293273" lon="3.277987">
        <ele>39</ele>
        <time>1970-01-01T00:31:30.000Z</time>
      </trkpt>
      <trkpt lat="42.2933" lon="3.277955">
        <ele>39</ele>
        <time>1970-01-01T00:31:31.000Z</time>
      </trkpt>
      <trkpt lat="42.293326" lon="3.277923">
        <ele>39</ele>
        <time>1970-01-01T00:31:32.000Z</time>
      </trkpt>
      <trkpt lat="42.293338" lon="3.277846">
        <ele>39</ele>
        <time>1970-01-01T00:31:33.000Z</time>
      </trkpt>
      <trkpt lat="42.293324" lon="3.277808">
        <ele>39</ele>
        <time>1970-01-01T00:31:34.000Z</time>
      </trkpt>
      <trkpt lat="42.293311" lon="3.277769">
        <ele>39</ele>
        <time>1970-01-01T00:31:35.000Z</time>
      </trkpt>
      <trkpt lat="42.293297" lon="3.277731">
        <ele>39</ele>
        <time>1970-01-01T00:31:36.000Z</time>
      </trkpt>
      <trkpt lat="42.293283" lon="3.277693">
        <ele>39</ele>
        <time>1970-01-01T00:31:37.000Z</time>
      </trkpt>
      <trkpt lat="42.293269" lon="3.277655">
        <ele>39</ele>
        <time>1970-01-01T00:31:38.000Z</time>
      </trkpt>
      <trkpt lat="42.293255" lon="3.277617">
        <ele>39</ele>
        <time>1970-01-01T00:31:39.000Z</time>
      </trkpt>
      <trkpt lat="42.293242" lon="3.277578">
        <ele>39</ele>
        <time>1970-01-01T00:31:40.000Z</time>
      </trkpt>
      <trkpt lat="42.293228" lon="3.27754">
        <ele>39</ele>
        <time>1970-01-01T00:31:41.000Z</time>
      </trkpt>
      <trkpt lat="42.293214" lon="3.277502">
        <ele>39</ele>
        <time>1970-01-01T00:31:42.000Z</time>
      </trkpt>
      <trkpt lat="42.293129" lon="3.277484">
        <ele>39</ele>
        <time>1970-01-01T00:31:43.000Z</time>
      </trkpt>
      <trkpt lat="42.293089" lon="3.277478">
        <ele>39</ele>
        <time>1970-01-01T00:31:44.000Z</time>
      </trkpt>
      <trkpt lat="42.29305" lon="3.277471">
        <ele>39</ele>
        <time>1970-01-01T00:31:45.000Z</time>
      </trkpt>
      <trkpt lat="42.293011" lon="3.277464">
        <ele>39</ele>
        <time>1970-01-01T00:31:46.000Z</time>
      </trkpt>
      <trkpt lat="42.292972" lon="3.277457">
        <ele>39</ele>
        <time>1970-01-01T00:31:47.000Z</time>
      </trkpt>
      <trkpt lat="42.292932" lon="3.277451">
        <ele>39</ele>
        <time>1970-01-01T00:31:48.000Z</time>
      </trkpt>
      <trkpt lat="42.292893" lon="3.277444">
        <ele>39</ele>
        <time>1970-01-01T00:31:49.000Z</time>
      </trkpt>
      <trkpt lat="42.292854" lon="3.277437">
        <ele>39</ele>
        <time>1970-01-01T00:31:50.000Z</time>
      </trkpt>
      <trkpt lat="42.292814" lon="3.277431">
        <ele>39</ele>
        <time>1970-01-01T00:31:51.000Z</time>
      </trkpt>
      <trkpt lat="42.292775" lon="3.277424">
        <ele>38</ele>
        <time>1970-01-01T00:31:52.000Z</time>
      </trkpt>
      <trkpt lat="42.292699" lon="3.277382">
        <ele>38</ele>
        <time>1970-01-01T00:31:53.000Z</time>
      </trkpt>
      <trkpt lat="42.292665" lon="3.277357">
        <ele>38</ele>
        <time>1970-01-01T00:31:54.000Z</time>
      </trkpt>
      <trkpt lat="42.29263" lon="3.277332">
        <ele>38</ele>
        <time>1970-01-01T00:31:55.000Z</time>
      </trkpt>
      <trkpt lat="42.292596" lon="3.277307">
        <ele>38</ele>
        <time>1970-01-01T00:31:56.000Z</time>
      </trkpt>
      <trkpt lat="42.292561" lon="3.277281">
        <ele>38</ele>
        <time>1970-01-01T00:31:57.000Z</time>
      </trkpt>
      <trkpt lat="42.292526" lon="3.277256">
        <ele>38</ele>
        <time>1970-01-01T00:31:58.000Z</time>
      </trkpt>
      <trkpt lat="42.292492" lon="3.277231">
        <ele>38</ele>
        <time>1970-01-01T00:31:59.000Z</time>
      </trkpt>
      <trkpt lat="42.292457" lon="3.277206">
        <ele>38</ele>
        <time>1970-01-01T00:32:00.000Z</time>
      </trkpt>
      <trkpt lat="42.292423" lon="3.277181">
        <ele>38</ele>
        <time>1970-01-01T00:32:01.000Z</time>
      </trkpt>
      <trkpt lat="42.292388" lon="3.277156">
        <ele>38</ele>
        <time>1970-01-01T00:32:02.000Z</time>
      </trkpt>
      <trkpt lat="42.292344" lon="3.277066">
        <ele>38</ele>
        <time>1970-01-01T00:32:03.000Z</time>
      </trkpt>
      <trkpt lat="42.292334" lon="3.277015">
        <ele>38</ele>
        <time>1970-01-01T00:32:04.000Z</time>
      </trkpt>
      <trkpt lat="42.292325" lon="3.276965">
        <ele>38</ele>
        <time>1970-01-01T00:32:05.000Z</time>
      </trkpt>
      <trkpt lat="42.292315" lon="3.276914">
        <ele>38</ele>
        <time>1970-01-01T00:32:06.000Z</time>
      </trkpt>
      <trkpt lat="42.292305" lon="3.276864">
        <ele>38</ele>
        <time>1970-01-01T00:32:07.000Z</time>
      </trkpt>
      <trkpt lat="42.292295" lon="3.276814">
        <ele>38</ele>
        <time>1970-01-01T00:32:08.000Z</time>
      </trkpt>
      <trkpt lat="42.292285" lon="3.276763">
        <ele>38</ele>
        <time>1970-01-01T00:32:09.000Z</time>
      </trkpt>
      <trkpt lat="42.292276" lon="3.276713">
        <ele>38</ele>
        <time>1970-01-01T00:32:10.000Z</time>
      </trkpt>
      <trkpt lat="42.292266" lon="3.276662">
        <ele>38</ele>
        <time>1970-01-01T00:32:11.000Z</time>
      </trkpt>
      <trkpt lat="42.292256" lon="3.276612">
        <ele>39</ele>
        <time>1970-01-01T00:32:12.000Z</time>
      </trkpt>
      <trkpt lat="42.292248" lon="3.276509">
        <ele>39</ele>
        <time>1970-01-01T00:32:13.000Z</time>
      </trkpt>
      <trkpt lat="42.292245" lon="3.276463">
        <ele>39</ele>
        <time>1970-01-01T00:32:14.000Z</time>
      </trkpt>
      <trkpt lat="42.292242" lon="3.276417">
        <ele>39</ele>
        <time>1970-01-01T00:32:15.000Z</time>
      </trkpt>
      <trkpt lat="42.292239" lon="3.276371">
        <ele>39</ele>
        <time>1970-01-01T00:32:16.000Z</time>
      </trkpt>
      <trkpt lat="42.292236" lon="3.276325">
        <ele>39</ele>
        <time>1970-01-01T00:32:17.000Z</time>
      </trkpt>
      <trkpt lat="42.292232" lon="3.27628">
        <ele>39</ele>
        <time>1970-01-01T00:32:18.000Z</time>
      </trkpt>
      <trkpt lat="42.292229" lon="3.276234">
        <ele>39</ele>
        <time>1970-01-01T00:32:19.000Z</time>
      </trkpt>
      <trkpt lat="42.292226" lon="3.276188">
        <ele>39</ele>
        <time>1970-01-01T00:32:20.000Z</time>
      </trkpt>
      <trkpt lat="42.292223" lon="3.276142">
        <ele>39</ele>
        <time>1970-01-01T00:32:21.000Z</time>
      </trkpt>
      <trkpt lat="42.29222" lon="3.276096">
        <ele>39</ele>
        <time>1970-01-01T00:32:22.000Z</time>
      </trkpt>
      <trkpt lat="42.29225" lon="3.276009">
        <ele>39</ele>
        <time>1970-01-01T00:32:23.000Z</time>
      </trkpt>
      <trkpt lat="42.292272" lon="3.275973">
        <ele>39</ele>
        <time>1970-01-01T00:32:24.000Z</time>
      </trkpt>
      <trkpt lat="42.292294" lon="3.275936">
        <ele>39</ele>
        <time>1970-01-01T00:32:25.000Z</time>
      </trkpt>
      <trkpt lat="42.292316" lon="3.2759">
        <ele>39</ele>
        <time>1970-01-01T00:32:26.000Z</time>
      </trkpt>
      <trkpt lat="42.292338" lon="3.275863">
        <ele>39</ele>
        <time>1970-01-01T00:32:27.000Z</time>
      </trkpt>
      <trkpt lat="42.29236" lon="3.275826">
        <ele>39</ele>
        <time>1970-01-01T00:32:28.000Z</time>
      </trkpt>
      <trkpt lat="42.292382" lon="3.27579">
        <ele>39</ele>
        <time>1970-01-01T00:32:29.000Z</time>
      </trkpt>
      <trkpt lat="42.292404" lon="3.275753">
        <ele>39</ele>
        <time>1970-01-01T00:32:30.000Z</time>
      </trkpt>
      <trkpt lat="42.292426" lon="3.275717">
        <ele>39</ele>
        <time>1970-01-01T00:32:31.000Z</time>
      </trkpt>
      <trkpt lat="42.292448" lon="3.27568">
        <ele>40</ele>
        <time>1970-01-01T00:32:32.000Z</time>
      </trkpt>
      <trkpt lat="42.292514" lon="3.275627">
        <ele>40</ele>
        <time>1970-01-01T00:32:33.000Z</time>
      </trkpt>
      <trkpt lat="42.292548" lon="3.275607">
        <ele>40</ele>
        <time>1970-01-01T00:32:34.000Z</time>
      </trkpt>
      <trkpt lat="42.292583" lon="3.275586">
        <ele>40</ele>
        <time>1970-01-01T00:32:35.000Z</time>
      </trkpt>
      <trkpt lat="42.292617" lon="3.275566">
        <ele>40</ele>
        <time>1970-01-01T00:32:36.000Z</time>
      </trkpt>
      <trkpt lat="42.292651" lon="3.275545">
        <ele>40</ele>
        <time>1970-01-01T00:32:37.000Z</time>
      </trkpt>
      <trkpt lat="42.292685" lon="3.275524">
        <ele>40</ele>
        <time>1970-01-01T00:32:38.000Z</time>
      </trkpt>
      <trkpt lat="42.292719" lon="3.275504">
        <ele>40</ele>
        <time>1970-01-01T00:32:39.000Z</time>
      </trkpt>
      <trkpt lat="42.292754" lon="3.275483">
        <ele>40</ele>
        <time>1970-01-01T00:32:40.000Z</time>
      </trkpt>
      <trkpt lat="42.292788" lon="3.275463">
        <ele>40</ele>
        <time>1970-01-01T00:32:41.000Z</time>
      </trkpt>
      <trkpt lat="42.292822" lon="3.275442">
        <ele>40</ele>
        <time>1970-01-01T00:32:42.000Z</time>
      </trkpt>
      <trkpt lat="42.292903" lon="3.275402">
        <ele>40</ele>
        <time>1970-01-01T00:32:43.000Z</time>
      </trkpt>
      <trkpt lat="42.292943" lon="3.275382">
        <ele>40</ele>
        <time>1970-01-01T00:32:44.000Z</time>
      </trkpt>
      <trkpt lat="42.292982" lon="3.275362">
        <ele>40</ele>
        <time>1970-01-01T00:32:45.000Z</time>
      </trkpt>
      <trkpt lat="42.293022" lon="3.275342">
        <ele>40</ele>
        <time>1970-01-01T00:32:46.000Z</time>
      </trkpt>
      <trkpt lat="42.293062" lon="3.275322">
        <ele>40</ele>
        <time>1970-01-01T00:32:47.000Z</time>
      </trkpt>
      <trkpt lat="42.293102" lon="3.275301">
        <ele>40</ele>
        <time>1970-01-01T00:32:48.000Z</time>
      </trkpt>
      <trkpt lat="42.293142" lon="3.275281">
        <ele>40</ele>
        <time>1970-01-01T00:32:49.000Z</time>
      </trkpt>
      <trkpt lat="42.293181" lon="3.275261">
        <ele>40</ele>
        <time>1970-01-01T00:32:50.000Z</time>
      </trkpt>
      <trkpt lat="42.293221" lon="3.275241">
        <ele>40</ele>
        <time>1970-01-01T00:32:51.000Z</time>
      </trkpt>
      <trkpt lat="42.293261" lon="3.275221">
        <ele>40</ele>
        <time>1970-01-01T00:32:52.000Z</time>
      </trkpt>
      <trkpt lat="42.293313" lon="3.275093">
        <ele>40</ele>
        <time>1970-01-01T00:32:53.000Z</time>
      </trkpt>
      <trkpt lat="42.293325" lon="3.275013">
        <ele>40</ele>
        <time>1970-01-01T00:32:54.000Z</time>
      </trkpt>
      <trkpt lat="42.293336" lon="3.274934">
        <ele>40</ele>
        <time>1970-01-01T00:32:55.000Z</time>
      </trkpt>
      <trkpt lat="42.293348" lon="3.274855">
        <ele>40</ele>
        <time>1970-01-01T00:32:56.000Z</time>
      </trkpt>
      <trkpt lat="42.293359" lon="3.274776">
        <ele>40</ele>
        <time>1970-01-01T00:32:57.000Z</time>
      </trkpt>
      <trkpt lat="42.29337" lon="3.274696">
        <ele>40</ele>
        <time>1970-01-01T00:32:58.000Z</time>
      </trkpt>
      <trkpt lat="42.293382" lon="3.274617">
        <ele>40</ele>
        <time>1970-01-01T00:32:59.000Z</time>
      </trkpt>
      <trkpt lat="42.293393" lon="3.274538">
        <ele>40</ele>
        <time>1970-01-01T00:33:00.000Z</time>
      </trkpt>
      <trkpt lat="42.293405" lon="3.274458">
        <ele>40</ele>
        <time>1970-01-01T00:33:01.000Z</time>
      </trkpt>
      <trkpt lat="42.293416" lon="3.274379">
        <ele>40</ele>
        <time>1970-01-01T00:33:02.000Z</time>
      </trkpt>
      <trkpt lat="42.293364" lon="3.274276">
        <ele>40</ele>
        <time>1970-01-01T00:33:03.000Z</time>
      </trkpt>
      <trkpt lat="42.293314" lon="3.274266">
        <ele>40</ele>
        <time>1970-01-01T00:33:04.000Z</time>
      </trkpt>
      <trkpt lat="42.293265" lon="3.274256">
        <ele>40</ele>
        <time>1970-01-01T00:33:05.000Z</time>
      </trkpt>
      <trkpt lat="42.293215" lon="3.274246">
        <ele>40</ele>
        <time>1970-01-01T00:33:06.000Z</time>
      </trkpt>
      <trkpt lat="42.293165" lon="3.274235">
        <ele>40</ele>
        <time>1970-01-01T00:33:07.000Z</time>
      </trkpt>
      <trkpt lat="42.293115" lon="3.274225">
        <ele>40</ele>
        <time>1970-01-01T00:33:08.000Z</time>
      </trkpt>
      <trkpt lat="42.293065" lon="3.274215">
        <ele>40</ele>
        <time>1970-01-01T00:33:09.000Z</time>
      </trkpt>
      <trkpt lat="42.293016" lon="3.274205">
        <ele>40</ele>
        <time>1970-01-01T00:33:10.000Z</time>
      </trkpt>
      <trkpt lat="42.292966" lon="3.274195">
        <ele>40</ele>
        <time>1970-01-01T00:33:11.000Z</time>
      </trkpt>
      <trkpt lat="42.292916" lon="3.274185">
        <ele>35</ele>
        <time>1970-01-01T00:33:12.000Z</time>
      </trkpt>
      <trkpt lat="42.292794" lon="3.274291">
        <ele>35</ele>
        <time>1970-01-01T00:33:13.000Z</time>
      </trkpt>
      <trkpt lat="42.292732" lon="3.274316">
        <ele>35</ele>
        <time>1970-01-01T00:33:14.000Z</time>
      </trkpt>
      <trkpt lat="42.292671" lon="3.27434">
        <ele>35</ele>
        <time>1970-01-01T00:33:15.000Z</time>
      </trkpt>
      <trkpt lat="42.292609" lon="3.274365">
        <ele>35</ele>
        <time>1970-01-01T00:33:16.000Z</time>
      </trkpt>
      <trkpt lat="42.292548" lon="3.27439">
        <ele>35</ele>
        <time>1970-01-01T00:33:17.000Z</time>
      </trkpt>
      <trkpt lat="42.292487" lon="3.274415">
        <ele>35</ele>
        <time>1970-01-01T00:33:18.000Z</time>
      </trkpt>
      <trkpt lat="42.292425" lon="3.27444">
        <ele>35</ele>
        <time>1970-01-01T00:33:19.000Z</time>
      </trkpt>
      <trkpt lat="42.292364" lon="3.274464">
        <ele>35</ele>
        <time>1970-01-01T00:33:20.000Z</time>
      </trkpt>
      <trkpt lat="42.292302" lon="3.274489">
        <ele>35</ele>
        <time>1970-01-01T00:33:21.000Z</time>
      </trkpt>
      <trkpt lat="42.292241" lon="3.274514">
        <ele>28</ele>
        <time>1970-01-01T00:33:22.000Z</time>
      </trkpt>
      <trkpt lat="42.292159" lon="3.2745">
        <ele>28</ele>
        <time>1970-01-01T00:33:23.000Z</time>
      </trkpt>
      <trkpt lat="42.292116" lon="3.274488">
        <ele>28</ele>
        <time>1970-01-01T00:33:24.000Z</time>
      </trkpt>
      <trkpt lat="42.292072" lon="3.274475">
        <ele>28</ele>
        <time>1970-01-01T00:33:25.000Z</time>
      </trkpt>
      <trkpt lat="42.292029" lon="3.274463">
        <ele>28</ele>
        <time>1970-01-01T00:33:26.000Z</time>
      </trkpt>
      <trkpt lat="42.291986" lon="3.27445">
        <ele>28</ele>
        <time>1970-01-01T00:33:27.000Z</time>
      </trkpt>
      <trkpt lat="42.291943" lon="3.274438">
        <ele>28</ele>
        <time>1970-01-01T00:33:28.000Z</time>
      </trkpt>
      <trkpt lat="42.2919" lon="3.274425">
        <ele>28</ele>
        <time>1970-01-01T00:33:29.000Z</time>
      </trkpt>
      <trkpt lat="42.291856" lon="3.274413">
        <ele>28</ele>
        <time>1970-01-01T00:33:30.000Z</time>
      </trkpt>
      <trkpt lat="42.291813" lon="3.2744">
        <ele>28</ele>
        <time>1970-01-01T00:33:31.000Z</time>
      </trkpt>
      <trkpt lat="42.29177" lon="3.274388">
        <ele>26</ele>
        <time>1970-01-01T00:33:32.000Z</time>
      </trkpt>
      <trkpt lat="42.291676" lon="3.274313">
        <ele>26</ele>
        <time>1970-01-01T00:33:33.000Z</time>
      </trkpt>
      <trkpt lat="42.29163" lon="3.274277">
        <ele>26</ele>
        <time>1970-01-01T00:33:34.000Z</time>
      </trkpt>
      <trkpt lat="42.291585" lon="3.274242">
        <ele>26</ele>
        <time>1970-01-01T00:33:35.000Z</time>
      </trkpt>
      <trkpt lat="42.29154" lon="3.274206">
        <ele>26</ele>
        <time>1970-01-01T00:33:36.000Z</time>
      </trkpt>
      <trkpt lat="42.291495" lon="3.27417">
        <ele>26</ele>
        <time>1970-01-01T00:33:37.000Z</time>
      </trkpt>
      <trkpt lat="42.291449" lon="3.274134">
        <ele>26</ele>
        <time>1970-01-01T00:33:38.000Z</time>
      </trkpt>
      <trkpt lat="42.291404" lon="3.274098">
        <ele>26</ele>
        <time>1970-01-01T00:33:39.000Z</time>
      </trkpt>
      <trkpt lat="42.291359" lon="3.274063">
        <ele>26</ele>
        <time>1970-01-01T00:33:40.000Z</time>
      </trkpt>
      <trkpt lat="42.291313" lon="3.274027">
        <ele>26</ele>
        <time>1970-01-01T00:33:41.000Z</time>
      </trkpt>
      <trkpt lat="42.291268" lon="3.273991">
        <ele>22</ele>
        <time>1970-01-01T00:33:42.000Z</time>
      </trkpt>
      <trkpt lat="42.291171" lon="3.273954">
        <ele>22</ele>
        <time>1970-01-01T00:33:43.000Z</time>
      </trkpt>
      <trkpt lat="42.291121" lon="3.273939">
        <ele>22</ele>
        <time>1970-01-01T00:33:44.000Z</time>
      </trkpt>
      <trkpt lat="42.291072" lon="3.273923">
        <ele>22</ele>
        <time>1970-01-01T00:33:45.000Z</time>
      </trkpt>
      <trkpt lat="42.291023" lon="3.273907">
        <ele>22</ele>
        <time>1970-01-01T00:33:46.000Z</time>
      </trkpt>
      <trkpt lat="42.290974" lon="3.273891">
        <ele>22</ele>
        <time>1970-01-01T00:33:47.000Z</time>
      </trkpt>
      <trkpt lat="42.290924" lon="3.273876">
        <ele>22</ele>
        <time>1970-01-01T00:33:48.000Z</time>
      </trkpt>
      <trkpt lat="42.290875" lon="3.27386">
        <ele>22</ele>
        <time>1970-01-01T00:33:49.000Z</time>
      </trkpt>
      <trkpt lat="42.290826" lon="3.273844">
        <ele>22</ele>
        <time>1970-01-01T00:33:50.000Z</time>
      </trkpt>
      <trkpt lat="42.290776" lon="3.273829">
        <ele>22</ele>
        <time>1970-01-01T00:33:51.000Z</time>
      </trkpt>
      <trkpt lat="42.290727" lon="3.273813">
        <ele>19</ele>
        <time>1970-01-01T00:33:52.000Z</time>
      </trkpt>
      <trkpt lat="42.290633" lon="3.273813">
        <ele>19</ele>
        <time>1970-01-01T00:33:53.000Z</time>
      </trkpt>
      <trkpt lat="42.290603" lon="3.273799">
        <ele>19</ele>
        <time>1970-01-01T00:33:54.000Z</time>
      </trkpt>
      <trkpt lat="42.290573" lon="3.273786">
        <ele>19</ele>
        <time>1970-01-01T00:33:55.000Z</time>
      </trkpt>
      <trkpt lat="42.290543" lon="3.273773">
        <ele>19</ele>
        <time>1970-01-01T00:33:56.000Z</time>
      </trkpt>
      <trkpt lat="42.290513" lon="3.273759">
        <ele>19</ele>
        <time>1970-01-01T00:33:57.000Z</time>
      </trkpt>
      <trkpt lat="42.290483" lon="3.273746">
        <ele>19</ele>
        <time>1970-01-01T00:33:58.000Z</time>
      </trkpt>
      <trkpt lat="42.290453" lon="3.273733">
        <ele>19</ele>
        <time>1970-01-01T00:33:59.000Z</time>
      </trkpt>
      <trkpt lat="42.290423" lon="3.27372">
        <ele>19</ele>
        <time>1970-01-01T00:34:00.000Z</time>
      </trkpt>
      <trkpt lat="42.290393" lon="3.273706">
        <ele>19</ele>
        <time>1970-01-01T00:34:01.000Z</time>
      </trkpt>
      <trkpt lat="42.290363" lon="3.273693">
        <ele>15</ele>
        <time>1970-01-01T00:34:02.000Z</time>
      </trkpt>
      <trkpt lat="42.290393" lon="3.273614">
        <ele>15</ele>
        <time>1970-01-01T00:34:03.000Z</time>
      </trkpt>
      <trkpt lat="42.290409" lon="3.273587">
        <ele>15</ele>
        <time>1970-01-01T00:34:04.000Z</time>
      </trkpt>
      <trkpt lat="42.290424" lon="3.273561">
        <ele>15</ele>
        <time>1970-01-01T00:34:05.000Z</time>
      </trkpt>
      <trkpt lat="42.29044" lon="3.273534">
        <ele>15</ele>
        <time>1970-01-01T00:34:06.000Z</time>
      </trkpt>
      <trkpt lat="42.290455" lon="3.273508">
        <ele>15</ele>
        <time>1970-01-01T00:34:07.000Z</time>
      </trkpt>
      <trkpt lat="42.29047" lon="3.273481">
        <ele>15</ele>
        <time>1970-01-01T00:34:08.000Z</time>
      </trkpt>
      <trkpt lat="42.290486" lon="3.273455">
        <ele>15</ele>
        <time>1970-01-01T00:34:09.000Z</time>
      </trkpt>
      <trkpt lat="42.290501" lon="3.273428">
        <ele>15</ele>
        <time>1970-01-01T00:34:10.000Z</time>
      </trkpt>
      <trkpt lat="42.290517" lon="3.273402">
        <ele>15</ele>
        <time>1970-01-01T00:34:11.000Z</time>
      </trkpt>
      <trkpt lat="42.290532" lon="3.273375">
        <ele>14</ele>
        <time>1970-01-01T00:34:12.000Z</time>
      </trkpt>
      <trkpt lat="42.290561" lon="3.273325">
        <ele>14</ele>
        <time>1970-01-01T00:34:13.000Z</time>
      </trkpt>
      <trkpt lat="42.290576" lon="3.273301">
        <ele>14</ele>
        <time>1970-01-01T00:34:14.000Z</time>
      </trkpt>
      <trkpt lat="42.29059" lon="3.273278">
        <ele>14</ele>
        <time>1970-01-01T00:34:15.000Z</time>
      </trkpt>
      <trkpt lat="42.290605" lon="3.273254">
        <ele>14</ele>
        <time>1970-01-01T00:34:16.000Z</time>
      </trkpt>
      <trkpt lat="42.29062" lon="3.27323">
        <ele>14</ele>
        <time>1970-01-01T00:34:17.000Z</time>
      </trkpt>
      <trkpt lat="42.290635" lon="3.273206">
        <ele>14</ele>
        <time>1970-01-01T00:34:18.000Z</time>
      </trkpt>
      <trkpt lat="42.29065" lon="3.273182">
        <ele>14</ele>
        <time>1970-01-01T00:34:19.000Z</time>
      </trkpt>
      <trkpt lat="42.290664" lon="3.273159">
        <ele>14</ele>
        <time>1970-01-01T00:34:20.000Z</time>
      </trkpt>
      <trkpt lat="42.290679" lon="3.273135">
        <ele>14</ele>
        <time>1970-01-01T00:34:21.000Z</time>
      </trkpt>
      <trkpt lat="42.290694" lon="3.273111">
        <ele>14</ele>
        <time>1970-01-01T00:34:22.000Z</time>
      </trkpt>
      <trkpt lat="42.290726" lon="3.273057">
        <ele>14</ele>
        <time>1970-01-01T00:34:23.000Z</time>
      </trkpt>
      <trkpt lat="42.290741" lon="3.27303">
        <ele>14</ele>
        <time>1970-01-01T00:34:24.000Z</time>
      </trkpt>
      <trkpt lat="42.290755" lon="3.273004">
        <ele>14</ele>
        <time>1970-01-01T00:34:25.000Z</time>
      </trkpt>
      <trkpt lat="42.29077" lon="3.272977">
        <ele>14</ele>
        <time>1970-01-01T00:34:26.000Z</time>
      </trkpt>
      <trkpt lat="42.290785" lon="3.27295">
        <ele>14</ele>
        <time>1970-01-01T00:34:27.000Z</time>
      </trkpt>
      <trkpt lat="42.2908" lon="3.272923">
        <ele>14</ele>
        <time>1970-01-01T00:34:29.000Z</time>
      </trkpt>
      <trkpt lat="42.290814" lon="3.272897">
        <ele>14</ele>
        <time>1970-01-01T00:34:30.000Z</time>
      </trkpt>
      <trkpt lat="42.290829" lon="3.27287">
        <ele>14</ele>
        <time>1970-01-01T00:34:31.000Z</time>
      </trkpt>
      <trkpt lat="42.290844" lon="3.272843">
        <ele>17</ele>
        <time>1970-01-01T00:34:32.000Z</time>
      </trkpt>
      <trkpt lat="42.290859" lon="3.272786">
        <ele>17</ele>
        <time>1970-01-01T00:34:33.000Z</time>
      </trkpt>
      <trkpt lat="42.290862" lon="3.272757">
        <ele>17</ele>
        <time>1970-01-01T00:34:34.000Z</time>
      </trkpt>
      <trkpt lat="42.290864" lon="3.272729">
        <ele>17</ele>
        <time>1970-01-01T00:34:35.000Z</time>
      </trkpt>
      <trkpt lat="42.290867" lon="3.2727">
        <ele>17</ele>
        <time>1970-01-01T00:34:36.000Z</time>
      </trkpt>
      <trkpt lat="42.29087" lon="3.272671">
        <ele>17</ele>
        <time>1970-01-01T00:34:37.000Z</time>
      </trkpt>
      <trkpt lat="42.290873" lon="3.272642">
        <ele>17</ele>
        <time>1970-01-01T00:34:38.000Z</time>
      </trkpt>
      <trkpt lat="42.290876" lon="3.272613">
        <ele>17</ele>
        <time>1970-01-01T00:34:39.000Z</time>
      </trkpt>
      <trkpt lat="42.290878" lon="3.272585">
        <ele>17</ele>
        <time>1970-01-01T00:34:40.000Z</time>
      </trkpt>
      <trkpt lat="42.290881" lon="3.272556">
        <ele>17</ele>
        <time>1970-01-01T00:34:41.000Z</time>
      </trkpt>
      <trkpt lat="42.290884" lon="3.272527">
        <ele>17</ele>
        <time>1970-01-01T00:34:42.000Z</time>
      </trkpt>
      <trkpt lat="42.290854" lon="3.272476">
        <ele>17</ele>
        <time>1970-01-01T00:34:43.000Z</time>
      </trkpt>
      <trkpt lat="42.290835" lon="3.272459">
        <ele>17</ele>
        <time>1970-01-01T00:34:44.000Z</time>
      </trkpt>
      <trkpt lat="42.290816" lon="3.272441">
        <ele>17</ele>
        <time>1970-01-01T00:34:45.000Z</time>
      </trkpt>
      <trkpt lat="42.290797" lon="3.272424">
        <ele>17</ele>
        <time>1970-01-01T00:34:46.000Z</time>
      </trkpt>
      <trkpt lat="42.290779" lon="3.272406">
        <ele>17</ele>
        <time>1970-01-01T00:34:47.000Z</time>
      </trkpt>
      <trkpt lat="42.29076" lon="3.272389">
        <ele>17</ele>
        <time>1970-01-01T00:34:48.000Z</time>
      </trkpt>
      <trkpt lat="42.290741" lon="3.272371">
        <ele>17</ele>
        <time>1970-01-01T00:34:49.000Z</time>
      </trkpt>
      <trkpt lat="42.290722" lon="3.272354">
        <ele>17</ele>
        <time>1970-01-01T00:34:50.000Z</time>
      </trkpt>
      <trkpt lat="42.290703" lon="3.272336">
        <ele>17</ele>
        <time>1970-01-01T00:34:51.000Z</time>
      </trkpt>
      <trkpt lat="42.290684" lon="3.272319">
        <ele>19</ele>
        <time>1970-01-01T00:34:52.000Z</time>
      </trkpt>
      <trkpt lat="42.290633" lon="3.272317">
        <ele>19</ele>
        <time>1970-01-01T00:34:53.000Z</time>
      </trkpt>
      <trkpt lat="42.290609" lon="3.272317">
        <ele>19</ele>
        <time>1970-01-01T00:34:54.000Z</time>
      </trkpt>
      <trkpt lat="42.290586" lon="3.272318">
        <ele>19</ele>
        <time>1970-01-01T00:34:55.000Z</time>
      </trkpt>
      <trkpt lat="42.290563" lon="3.272318">
        <ele>19</ele>
        <time>1970-01-01T00:34:56.000Z</time>
      </trkpt>
      <trkpt lat="42.29054" lon="3.272319">
        <ele>19</ele>
        <time>1970-01-01T00:34:57.000Z</time>
      </trkpt>
      <trkpt lat="42.290516" lon="3.272319">
        <ele>19</ele>
        <time>1970-01-01T00:34:58.000Z</time>
      </trkpt>
      <trkpt lat="42.290493" lon="3.27232">
        <ele>19</ele>
        <time>1970-01-01T00:34:59.000Z</time>
      </trkpt>
      <trkpt lat="42.29047" lon="3.27232">
        <ele>19</ele>
        <time>1970-01-01T00:35:00.000Z</time>
      </trkpt>
      <trkpt lat="42.290446" lon="3.272321">
        <ele>19</ele>
        <time>1970-01-01T00:35:01.000Z</time>
      </trkpt>
      <trkpt lat="42.290423" lon="3.272321">
        <ele>22</ele>
        <time>1970-01-01T00:35:02.000Z</time>
      </trkpt>
      <trkpt lat="42.290376" lon="3.272315">
        <ele>22</ele>
        <time>1970-01-01T00:35:03.000Z</time>
      </trkpt>
      <trkpt lat="42.290354" lon="3.272308">
        <ele>22</ele>
        <time>1970-01-01T00:35:04.000Z</time>
      </trkpt>
      <trkpt lat="42.290333" lon="3.2723">
        <ele>22</ele>
        <time>1970-01-01T00:35:05.000Z</time>
      </trkpt>
      <trkpt lat="42.290311" lon="3.272293">
        <ele>22</ele>
        <time>1970-01-01T00:35:06.000Z</time>
      </trkpt>
      <trkpt lat="42.29029" lon="3.272286">
        <ele>22</ele>
        <time>1970-01-01T00:35:07.000Z</time>
      </trkpt>
      <trkpt lat="42.290268" lon="3.272279">
        <ele>22</ele>
        <time>1970-01-01T00:35:08.000Z</time>
      </trkpt>
      <trkpt lat="42.290247" lon="3.272272">
        <ele>22</ele>
        <time>1970-01-01T00:35:09.000Z</time>
      </trkpt>
      <trkpt lat="42.290225" lon="3.272264">
        <ele>22</ele>
        <time>1970-01-01T00:35:10.000Z</time>
      </trkpt>
      <trkpt lat="42.290204" lon="3.272257">
        <ele>22</ele>
        <time>1970-01-01T00:35:11.000Z</time>
      </trkpt>
      <trkpt lat="42.290182" lon="3.27225">
        <ele>23</ele>
        <time>1970-01-01T00:35:12.000Z</time>
      </trkpt>
      <trkpt lat="42.290141" lon="3.272218">
        <ele>23</ele>
        <time>1970-01-01T00:35:13.000Z</time>
      </trkpt>
      <trkpt lat="42.290122" lon="3.2722">
        <ele>23</ele>
        <time>1970-01-01T00:35:14.000Z</time>
      </trkpt>
      <trkpt lat="42.290104" lon="3.272182">
        <ele>23</ele>
        <time>1970-01-01T00:35:15.000Z</time>
      </trkpt>
      <trkpt lat="42.290085" lon="3.272164">
        <ele>23</ele>
        <time>1970-01-01T00:35:16.000Z</time>
      </trkpt>
      <trkpt lat="42.290067" lon="3.272146">
        <ele>23</ele>
        <time>1970-01-01T00:35:17.000Z</time>
      </trkpt>
      <trkpt lat="42.290049" lon="3.272129">
        <ele>23</ele>
        <time>1970-01-01T00:35:18.000Z</time>
      </trkpt>
      <trkpt lat="42.29003" lon="3.272111">
        <ele>23</ele>
        <time>1970-01-01T00:35:19.000Z</time>
      </trkpt>
      <trkpt lat="42.290012" lon="3.272093">
        <ele>23</ele>
        <time>1970-01-01T00:35:20.000Z</time>
      </trkpt>
      <trkpt lat="42.289993" lon="3.272075">
        <ele>23</ele>
        <time>1970-01-01T00:35:21.000Z</time>
      </trkpt>
      <trkpt lat="42.289975" lon="3.272057">
        <ele>24</ele>
        <time>1970-01-01T00:35:22.000Z</time>
      </trkpt>
      <trkpt lat="42.289934" lon="3.272022">
        <ele>24</ele>
        <time>1970-01-01T00:35:23.000Z</time>
      </trkpt>
      <trkpt lat="42.289914" lon="3.272005">
        <ele>24</ele>
        <time>1970-01-01T00:35:24.000Z</time>
      </trkpt>
      <trkpt lat="42.289894" lon="3.271989">
        <ele>24</ele>
        <time>1970-01-01T00:35:25.000Z</time>
      </trkpt>
      <trkpt lat="42.289874" lon="3.271973">
        <ele>24</ele>
        <time>1970-01-01T00:35:26.000Z</time>
      </trkpt>
      <trkpt lat="42.289855" lon="3.271956">
        <ele>24</ele>
        <time>1970-01-01T00:35:27.000Z</time>
      </trkpt>
      <trkpt lat="42.289835" lon="3.27194">
        <ele>24</ele>
        <time>1970-01-01T00:35:28.000Z</time>
      </trkpt>
      <trkpt lat="42.289815" lon="3.271924">
        <ele>24</ele>
        <time>1970-01-01T00:35:29.000Z</time>
      </trkpt>
      <trkpt lat="42.289795" lon="3.271908">
        <ele>24</ele>
        <time>1970-01-01T00:35:30.000Z</time>
      </trkpt>
      <trkpt lat="42.289775" lon="3.271891">
        <ele>24</ele>
        <time>1970-01-01T00:35:31.000Z</time>
      </trkpt>
      <trkpt lat="42.289755" lon="3.271875">
        <ele>26</ele>
        <time>1970-01-01T00:35:32.000Z</time>
      </trkpt>
      <trkpt lat="42.289714" lon="3.271843">
        <ele>26</ele>
        <time>1970-01-01T00:35:33.000Z</time>
      </trkpt>
      <trkpt lat="42.289695" lon="3.271827">
        <ele>26</ele>
        <time>1970-01-01T00:35:34.000Z</time>
      </trkpt>
      <trkpt lat="42.289676" lon="3.271812">
        <ele>26</ele>
        <time>1970-01-01T00:35:35.000Z</time>
      </trkpt>
      <trkpt lat="42.289657" lon="3.271797">
        <ele>26</ele>
        <time>1970-01-01T00:35:36.000Z</time>
      </trkpt>
      <trkpt lat="42.289638" lon="3.271781">
        <ele>26</ele>
        <time>1970-01-01T00:35:37.000Z</time>
      </trkpt>
      <trkpt lat="42.289618" lon="3.271766">
        <ele>26</ele>
        <time>1970-01-01T00:35:38.000Z</time>
      </trkpt>
      <trkpt lat="42.289599" lon="3.271751">
        <ele>26</ele>
        <time>1970-01-01T00:35:39.000Z</time>
      </trkpt>
      <trkpt lat="42.28958" lon="3.271736">
        <ele>26</ele>
        <time>1970-01-01T00:35:40.000Z</time>
      </trkpt>
      <trkpt lat="42.289561" lon="3.27172">
        <ele>26</ele>
        <time>1970-01-01T00:35:41.000Z</time>
      </trkpt>
      <trkpt lat="42.289542" lon="3.271705">
        <ele>27</ele>
        <time>1970-01-01T00:35:42.000Z</time>
      </trkpt>
      <trkpt lat="42.289504" lon="3.271673">
        <ele>27</ele>
        <time>1970-01-01T00:35:43.000Z</time>
      </trkpt>
      <trkpt lat="42.289487" lon="3.271656">
        <ele>27</ele>
        <time>1970-01-01T00:35:44.000Z</time>
      </trkpt>
      <trkpt lat="42.289469" lon="3.27164">
        <ele>27</ele>
        <time>1970-01-01T00:35:45.000Z</time>
      </trkpt>
      <trkpt lat="42.289452" lon="3.271623">
        <ele>27</ele>
        <time>1970-01-01T00:35:46.000Z</time>
      </trkpt>
      <trkpt lat="42.289435" lon="3.271607">
        <ele>27</ele>
        <time>1970-01-01T00:35:47.000Z</time>
      </trkpt>
      <trkpt lat="42.289418" lon="3.271591">
        <ele>27</ele>
        <time>1970-01-01T00:35:48.000Z</time>
      </trkpt>
      <trkpt lat="42.289401" lon="3.271574">
        <ele>27</ele>
        <time>1970-01-01T00:35:49.000Z</time>
      </trkpt>
      <trkpt lat="42.289383" lon="3.271558">
        <ele>27</ele>
        <time>1970-01-01T00:35:50.000Z</time>
      </trkpt>
      <trkpt lat="42.289366" lon="3.271541">
        <ele>27</ele>
        <time>1970-01-01T00:35:51.000Z</time>
      </trkpt>
      <trkpt lat="42.289349" lon="3.271525">
        <ele>28</ele>
        <time>1970-01-01T00:35:52.000Z</time>
      </trkpt>
      <trkpt lat="42.289317" lon="3.271483">
        <ele>28</ele>
        <time>1970-01-01T00:35:53.000Z</time>
      </trkpt>
      <trkpt lat="42.289304" lon="3.271461">
        <ele>28</ele>
        <time>1970-01-01T00:35:54.000Z</time>
      </trkpt>
      <trkpt lat="42.289292" lon="3.271439">
        <ele>28</ele>
        <time>1970-01-01T00:35:55.000Z</time>
      </trkpt>
      <trkpt lat="42.289279" lon="3.271417">
        <ele>28</ele>
        <time>1970-01-01T00:35:56.000Z</time>
      </trkpt>
      <trkpt lat="42.289266" lon="3.271394">
        <ele>28</ele>
        <time>1970-01-01T00:35:57.000Z</time>
      </trkpt>
      <trkpt lat="42.289253" lon="3.271372">
        <ele>28</ele>
        <time>1970-01-01T00:35:58.000Z</time>
      </trkpt>
      <trkpt lat="42.28924" lon="3.27135">
        <ele>28</ele>
        <time>1970-01-01T00:35:59.000Z</time>
      </trkpt>
      <trkpt lat="42.289228" lon="3.271328">
        <ele>28</ele>
        <time>1970-01-01T00:36:00.000Z</time>
      </trkpt>
      <trkpt lat="42.289215" lon="3.271306">
        <ele>28</ele>
        <time>1970-01-01T00:36:01.000Z</time>
      </trkpt>
      <trkpt lat="42.289202" lon="3.271284">
        <ele>31</ele>
        <time>1970-01-01T00:36:02.000Z</time>
      </trkpt>
      <trkpt lat="42.289187" lon="3.271233">
        <ele>31</ele>
        <time>1970-01-01T00:36:03.000Z</time>
      </trkpt>
      <trkpt lat="42.289181" lon="3.27121">
        <ele>31</ele>
        <time>1970-01-01T00:36:04.000Z</time>
      </trkpt>
      <trkpt lat="42.289175" lon="3.271186">
        <ele>31</ele>
        <time>1970-01-01T00:36:05.000Z</time>
      </trkpt>
      <trkpt lat="42.289169" lon="3.271163">
        <ele>31</ele>
        <time>1970-01-01T00:36:06.000Z</time>
      </trkpt>
      <trkpt lat="42.289163" lon="3.271139">
        <ele>31</ele>
        <time>1970-01-01T00:36:07.000Z</time>
      </trkpt>
      <trkpt lat="42.289157" lon="3.271115">
        <ele>31</ele>
        <time>1970-01-01T00:36:08.000Z</time>
      </trkpt>
      <trkpt lat="42.289151" lon="3.271092">
        <ele>31</ele>
        <time>1970-01-01T00:36:09.000Z</time>
      </trkpt>
      <trkpt lat="42.289145" lon="3.271068">
        <ele>31</ele>
        <time>1970-01-01T00:36:10.000Z</time>
      </trkpt>
      <trkpt lat="42.289139" lon="3.271045">
        <ele>31</ele>
        <time>1970-01-01T00:36:11.000Z</time>
      </trkpt>
      <trkpt lat="42.289133" lon="3.271021">
        <ele>32</ele>
        <time>1970-01-01T00:36:12.000Z</time>
      </trkpt>
      <trkpt lat="42.289122" lon="3.270967">
        <ele>32</ele>
        <time>1970-01-01T00:36:13.000Z</time>
      </trkpt>
      <trkpt lat="42.289117" lon="3.270941">
        <ele>32</ele>
        <time>1970-01-01T00:36:14.000Z</time>
      </trkpt>
      <trkpt lat="42.289111" lon="3.270914">
        <ele>32</ele>
        <time>1970-01-01T00:36:15.000Z</time>
      </trkpt>
      <trkpt lat="42.289106" lon="3.270888">
        <ele>32</ele>
        <time>1970-01-01T00:36:16.000Z</time>
      </trkpt>
      <trkpt lat="42.289101" lon="3.270862">
        <ele>32</ele>
        <time>1970-01-01T00:36:17.000Z</time>
      </trkpt>
      <trkpt lat="42.289096" lon="3.270836">
        <ele>32</ele>
        <time>1970-01-01T00:36:18.000Z</time>
      </trkpt>
      <trkpt lat="42.289091" lon="3.27081">
        <ele>32</ele>
        <time>1970-01-01T00:36:19.000Z</time>
      </trkpt>
      <trkpt lat="42.289085" lon="3.270783">
        <ele>32</ele>
        <time>1970-01-01T00:36:20.000Z</time>
      </trkpt>
      <trkpt lat="42.28908" lon="3.270757">
        <ele>32</ele>
        <time>1970-01-01T00:36:21.000Z</time>
      </trkpt>
      <trkpt lat="42.289075" lon="3.270731">
        <ele>34</ele>
        <time>1970-01-01T00:36:22.000Z</time>
      </trkpt>
      <trkpt lat="42.289064" lon="3.270675">
        <ele>34</ele>
        <time>1970-01-01T00:36:23.000Z</time>
      </trkpt>
      <trkpt lat="42.289058" lon="3.270649">
        <ele>34</ele>
        <time>1970-01-01T00:36:24.000Z</time>
      </trkpt>
      <trkpt lat="42.289053" lon="3.270622">
        <ele>34</ele>
        <time>1970-01-01T00:36:25.000Z</time>
      </trkpt>
      <trkpt lat="42.289047" lon="3.270596">
        <ele>34</ele>
        <time>1970-01-01T00:36:26.000Z</time>
      </trkpt>
      <trkpt lat="42.289042" lon="3.270569">
        <ele>34</ele>
        <time>1970-01-01T00:36:27.000Z</time>
      </trkpt>
      <trkpt lat="42.289037" lon="3.270543">
        <ele>34</ele>
        <time>1970-01-01T00:36:28.000Z</time>
      </trkpt>
      <trkpt lat="42.289031" lon="3.270516">
        <ele>34</ele>
        <time>1970-01-01T00:36:29.000Z</time>
      </trkpt>
      <trkpt lat="42.289026" lon="3.27049">
        <ele>34</ele>
        <time>1970-01-01T00:36:30.000Z</time>
      </trkpt>
      <trkpt lat="42.28902" lon="3.270463">
        <ele>34</ele>
        <time>1970-01-01T00:36:31.000Z</time>
      </trkpt>
      <trkpt lat="42.289015" lon="3.270437">
        <ele>36</ele>
        <time>1970-01-01T00:36:32.000Z</time>
      </trkpt>
      <trkpt lat="42.289012" lon="3.270381">
        <ele>36</ele>
        <time>1970-01-01T00:36:33.000Z</time>
      </trkpt>
      <trkpt lat="42.289013" lon="3.270354">
        <ele>36</ele>
        <time>1970-01-01T00:36:34.000Z</time>
      </trkpt>
      <trkpt lat="42.289015" lon="3.270328">
        <ele>36</ele>
        <time>1970-01-01T00:36:35.000Z</time>
      </trkpt>
      <trkpt lat="42.289016" lon="3.270302">
        <ele>36</ele>
        <time>1970-01-01T00:36:36.000Z</time>
      </trkpt>
      <trkpt lat="42.289017" lon="3.270276">
        <ele>36</ele>
        <time>1970-01-01T00:36:37.000Z</time>
      </trkpt>
      <trkpt lat="42.289018" lon="3.270249">
        <ele>36</ele>
        <time>1970-01-01T00:36:38.000Z</time>
      </trkpt>
      <trkpt lat="42.289019" lon="3.270223">
        <ele>36</ele>
        <time>1970-01-01T00:36:39.000Z</time>
      </trkpt>
      <trkpt lat="42.289021" lon="3.270197">
        <ele>36</ele>
        <time>1970-01-01T00:36:40.000Z</time>
      </trkpt>
      <trkpt lat="42.289022" lon="3.27017">
        <ele>36</ele>
        <time>1970-01-01T00:36:41.000Z</time>
      </trkpt>
      <trkpt lat="42.289023" lon="3.270144">
        <ele>37</ele>
        <time>1970-01-01T00:36:42.000Z</time>
      </trkpt>
      <trkpt lat="42.289038" lon="3.270094">
        <ele>37</ele>
        <time>1970-01-01T00:36:43.000Z</time>
      </trkpt>
      <trkpt lat="42.289048" lon="3.270074">
        <ele>37</ele>
        <time>1970-01-01T00:36:44.000Z</time>
      </trkpt>
      <trkpt lat="42.289058" lon="3.270053">
        <ele>37</ele>
        <time>1970-01-01T00:36:45.000Z</time>
      </trkpt>
      <trkpt lat="42.289068" lon="3.270033">
        <ele>37</ele>
        <time>1970-01-01T00:36:46.000Z</time>
      </trkpt>
      <trkpt lat="42.289078" lon="3.270012">
        <ele>37</ele>
        <time>1970-01-01T00:36:47.000Z</time>
      </trkpt>
      <trkpt lat="42.289087" lon="3.269991">
        <ele>37</ele>
        <time>1970-01-01T00:36:48.000Z</time>
      </trkpt>
      <trkpt lat="42.289097" lon="3.269971">
        <ele>37</ele>
        <time>1970-01-01T00:36:49.000Z</time>
      </trkpt>
      <trkpt lat="42.289107" lon="3.26995">
        <ele>37</ele>
        <time>1970-01-01T00:36:50.000Z</time>
      </trkpt>
      <trkpt lat="42.289117" lon="3.26993">
        <ele>37</ele>
        <time>1970-01-01T00:36:51.000Z</time>
      </trkpt>
      <trkpt lat="42.289127" lon="3.269909">
        <ele>39</ele>
        <time>1970-01-01T00:36:52.000Z</time>
      </trkpt>
      <trkpt lat="42.289161" lon="3.269891">
        <ele>39</ele>
        <time>1970-01-01T00:36:53.000Z</time>
      </trkpt>
      <trkpt lat="42.289179" lon="3.269886">
        <ele>39</ele>
        <time>1970-01-01T00:36:54.000Z</time>
      </trkpt>
      <trkpt lat="42.289197" lon="3.269882">
        <ele>39</ele>
        <time>1970-01-01T00:36:55.000Z</time>
      </trkpt>
      <trkpt lat="42.289215" lon="3.269877">
        <ele>39</ele>
        <time>1970-01-01T00:36:56.000Z</time>
      </trkpt>
      <trkpt lat="42.289233" lon="3.269873">
        <ele>39</ele>
        <time>1970-01-01T00:36:57.000Z</time>
      </trkpt>
      <trkpt lat="42.289251" lon="3.269869">
        <ele>39</ele>
        <time>1970-01-01T00:36:58.000Z</time>
      </trkpt>
      <trkpt lat="42.289269" lon="3.269864">
        <ele>39</ele>
        <time>1970-01-01T00:36:59.000Z</time>
      </trkpt>
      <trkpt lat="42.289287" lon="3.26986">
        <ele>39</ele>
        <time>1970-01-01T00:37:00.000Z</time>
      </trkpt>
      <trkpt lat="42.289305" lon="3.269855">
        <ele>39</ele>
        <time>1970-01-01T00:37:01.000Z</time>
      </trkpt>
      <trkpt lat="42.289323" lon="3.269851">
        <ele>40</ele>
        <time>1970-01-01T00:37:02.000Z</time>
      </trkpt>
      <trkpt lat="42.289365" lon="3.269856">
        <ele>40</ele>
        <time>1970-01-01T00:37:03.000Z</time>
      </trkpt>
      <trkpt lat="42.289385" lon="3.269858">
        <ele>40</ele>
        <time>1970-01-01T00:37:04.000Z</time>
      </trkpt>
      <trkpt lat="42.289404" lon="3.26986">
        <ele>40</ele>
        <time>1970-01-01T00:37:05.000Z</time>
      </trkpt>
      <trkpt lat="42.289424" lon="3.269862">
        <ele>40</ele>
        <time>1970-01-01T00:37:06.000Z</time>
      </trkpt>
      <trkpt lat="42.289444" lon="3.269864">
        <ele>40</ele>
        <time>1970-01-01T00:37:07.000Z</time>
      </trkpt>
      <trkpt lat="42.289464" lon="3.269867">
        <ele>40</ele>
        <time>1970-01-01T00:37:08.000Z</time>
      </trkpt>
      <trkpt lat="42.289484" lon="3.269869">
        <ele>40</ele>
        <time>1970-01-01T00:37:09.000Z</time>
      </trkpt>
      <trkpt lat="42.289503" lon="3.269871">
        <ele>40</ele>
        <time>1970-01-01T00:37:10.000Z</time>
      </trkpt>
      <trkpt lat="42.289523" lon="3.269873">
        <ele>40</ele>
        <time>1970-01-01T00:37:11.000Z</time>
      </trkpt>
      <trkpt lat="42.289543" lon="3.269875">
        <ele>43</ele>
        <time>1970-01-01T00:37:12.000Z</time>
      </trkpt>
      <trkpt lat="42.289585" lon="3.269882">
        <ele>43</ele>
        <time>1970-01-01T00:37:13.000Z</time>
      </trkpt>
      <trkpt lat="42.289605" lon="3.269884">
        <ele>43</ele>
        <time>1970-01-01T00:37:14.000Z</time>
      </trkpt>
      <trkpt lat="42.289624" lon="3.269887">
        <ele>43</ele>
        <time>1970-01-01T00:37:15.000Z</time>
      </trkpt>
      <trkpt lat="42.289644" lon="3.269889">
        <ele>43</ele>
        <time>1970-01-01T00:37:16.000Z</time>
      </trkpt>
      <trkpt lat="42.289664" lon="3.269892">
        <ele>43</ele>
        <time>1970-01-01T00:37:17.000Z</time>
      </trkpt>
      <trkpt lat="42.289684" lon="3.269895">
        <ele>43</ele>
        <time>1970-01-01T00:37:18.000Z</time>
      </trkpt>
      <trkpt lat="42.289704" lon="3.269897">
        <ele>43</ele>
        <time>1970-01-01T00:37:19.000Z</time>
      </trkpt>
      <trkpt lat="42.289723" lon="3.2699">
        <ele>43</ele>
        <time>1970-01-01T00:37:20.000Z</time>
      </trkpt>
      <trkpt lat="42.289743" lon="3.269902">
        <ele>43</ele>
        <time>1970-01-01T00:37:21.000Z</time>
      </trkpt>
      <trkpt lat="42.289763" lon="3.269905">
        <ele>44</ele>
        <time>1970-01-01T00:37:22.000Z</time>
      </trkpt>
      <trkpt lat="42.289805" lon="3.26991">
        <ele>44</ele>
        <time>1970-01-01T00:37:23.000Z</time>
      </trkpt>
      <trkpt lat="42.289825" lon="3.269912">
        <ele>44</ele>
        <time>1970-01-01T00:37:24.000Z</time>
      </trkpt>
      <trkpt lat="42.289845" lon="3.269913">
        <ele>44</ele>
        <time>1970-01-01T00:37:25.000Z</time>
      </trkpt>
      <trkpt lat="42.289865" lon="3.269915">
        <ele>44</ele>
        <time>1970-01-01T00:37:26.000Z</time>
      </trkpt>
      <trkpt lat="42.289885" lon="3.269917">
        <ele>44</ele>
        <time>1970-01-01T00:37:27.000Z</time>
      </trkpt>
      <trkpt lat="42.289904" lon="3.269919">
        <ele>44</ele>
        <time>1970-01-01T00:37:28.000Z</time>
      </trkpt>
      <trkpt lat="42.289924" lon="3.269921">
        <ele>44</ele>
        <time>1970-01-01T00:37:29.000Z</time>
      </trkpt>
      <trkpt lat="42.289944" lon="3.269922">
        <ele>44</ele>
        <time>1970-01-01T00:37:30.000Z</time>
      </trkpt>
      <trkpt lat="42.289964" lon="3.269924">
        <ele>44</ele>
        <time>1970-01-01T00:37:31.000Z</time>
      </trkpt>
      <trkpt lat="42.289984" lon="3.269926">
        <ele>44</ele>
        <time>1970-01-01T00:37:32.000Z</time>
      </trkpt>
      <trkpt lat="42.290026" lon="3.269932">
        <ele>44</ele>
        <time>1970-01-01T00:37:33.000Z</time>
      </trkpt>
      <trkpt lat="42.290048" lon="3.269935">
        <ele>44</ele>
        <time>1970-01-01T00:37:34.000Z</time>
      </trkpt>
      <trkpt lat="42.290069" lon="3.269937">
        <ele>44</ele>
        <time>1970-01-01T00:37:35.000Z</time>
      </trkpt>
      <trkpt lat="42.290091" lon="3.26994">
        <ele>44</ele>
        <time>1970-01-01T00:37:36.000Z</time>
      </trkpt>
      <trkpt lat="42.290112" lon="3.269942">
        <ele>44</ele>
        <time>1970-01-01T00:37:37.000Z</time>
      </trkpt>
      <trkpt lat="42.290133" lon="3.269945">
        <ele>44</ele>
        <time>1970-01-01T00:37:38.000Z</time>
      </trkpt>
      <trkpt lat="42.290155" lon="3.269947">
        <ele>44</ele>
        <time>1970-01-01T00:37:39.000Z</time>
      </trkpt>
      <trkpt lat="42.290176" lon="3.26995">
        <ele>44</ele>
        <time>1970-01-01T00:37:40.000Z</time>
      </trkpt>
      <trkpt lat="42.290198" lon="3.269952">
        <ele>44</ele>
        <time>1970-01-01T00:37:41.000Z</time>
      </trkpt>
      <trkpt lat="42.290219" lon="3.269955">
        <ele>46</ele>
        <time>1970-01-01T00:37:42.000Z</time>
      </trkpt>
      <trkpt lat="42.290264" lon="3.269964">
        <ele>46</ele>
        <time>1970-01-01T00:37:43.000Z</time>
      </trkpt>
      <trkpt lat="42.290285" lon="3.269969">
        <ele>46</ele>
        <time>1970-01-01T00:37:44.000Z</time>
      </trkpt>
      <trkpt lat="42.290305" lon="3.269973">
        <ele>46</ele>
        <time>1970-01-01T00:37:45.000Z</time>
      </trkpt>
      <trkpt lat="42.290325" lon="3.269978">
        <ele>46</ele>
        <time>1970-01-01T00:37:46.000Z</time>
      </trkpt>
      <trkpt lat="42.290346" lon="3.269983">
        <ele>46</ele>
        <time>1970-01-01T00:37:47.000Z</time>
      </trkpt>
      <trkpt lat="42.290366" lon="3.269988">
        <ele>46</ele>
        <time>1970-01-01T00:37:48.000Z</time>
      </trkpt>
      <trkpt lat="42.290386" lon="3.269993">
        <ele>46</ele>
        <time>1970-01-01T00:37:49.000Z</time>
      </trkpt>
      <trkpt lat="42.290406" lon="3.269997">
        <ele>46</ele>
        <time>1970-01-01T00:37:50.000Z</time>
      </trkpt>
      <trkpt lat="42.290427" lon="3.270002">
        <ele>46</ele>
        <time>1970-01-01T00:37:51.000Z</time>
      </trkpt>
      <trkpt lat="42.290447" lon="3.270007">
        <ele>48</ele>
        <time>1970-01-01T00:37:52.000Z</time>
      </trkpt>
      <trkpt lat="42.290487" lon="3.270026">
        <ele>48</ele>
        <time>1970-01-01T00:37:53.000Z</time>
      </trkpt>
      <trkpt lat="42.290506" lon="3.270037">
        <ele>48</ele>
        <time>1970-01-01T00:37:54.000Z</time>
      </trkpt>
      <trkpt lat="42.290524" lon="3.270048">
        <ele>48</ele>
        <time>1970-01-01T00:37:55.000Z</time>
      </trkpt>
      <trkpt lat="42.290543" lon="3.270059">
        <ele>48</ele>
        <time>1970-01-01T00:37:56.000Z</time>
      </trkpt>
      <trkpt lat="42.290561" lon="3.27007">
        <ele>48</ele>
        <time>1970-01-01T00:37:57.000Z</time>
      </trkpt>
      <trkpt lat="42.290579" lon="3.270082">
        <ele>48</ele>
        <time>1970-01-01T00:37:58.000Z</time>
      </trkpt>
      <trkpt lat="42.290598" lon="3.270093">
        <ele>48</ele>
        <time>1970-01-01T00:37:59.000Z</time>
      </trkpt>
      <trkpt lat="42.290616" lon="3.270104">
        <ele>48</ele>
        <time>1970-01-01T00:38:00.000Z</time>
      </trkpt>
      <trkpt lat="42.290635" lon="3.270115">
        <ele>48</ele>
        <time>1970-01-01T00:38:01.000Z</time>
      </trkpt>
      <trkpt lat="42.290653" lon="3.270126">
        <ele>49</ele>
        <time>1970-01-01T00:38:02.000Z</time>
      </trkpt>
      <trkpt lat="42.290689" lon="3.270155">
        <ele>49</ele>
        <time>1970-01-01T00:38:03.000Z</time>
      </trkpt>
      <trkpt lat="42.290706" lon="3.270169">
        <ele>49</ele>
        <time>1970-01-01T00:38:04.000Z</time>
      </trkpt>
      <trkpt lat="42.290723" lon="3.270182">
        <ele>49</ele>
        <time>1970-01-01T00:38:05.000Z</time>
      </trkpt>
      <trkpt lat="42.29074" lon="3.270196">
        <ele>49</ele>
        <time>1970-01-01T00:38:06.000Z</time>
      </trkpt>
      <trkpt lat="42.290758" lon="3.27021">
        <ele>49</ele>
        <time>1970-01-01T00:38:07.000Z</time>
      </trkpt>
      <trkpt lat="42.290775" lon="3.270224">
        <ele>49</ele>
        <time>1970-01-01T00:38:08.000Z</time>
      </trkpt>
      <trkpt lat="42.290792" lon="3.270238">
        <ele>49</ele>
        <time>1970-01-01T00:38:09.000Z</time>
      </trkpt>
      <trkpt lat="42.290809" lon="3.270251">
        <ele>49</ele>
        <time>1970-01-01T00:38:10.000Z</time>
      </trkpt>
      <trkpt lat="42.290826" lon="3.270265">
        <ele>49</ele>
        <time>1970-01-01T00:38:11.000Z</time>
      </trkpt>
      <trkpt lat="42.290843" lon="3.270279">
        <ele>51</ele>
        <time>1970-01-01T00:38:12.000Z</time>
      </trkpt>
      <trkpt lat="42.290882" lon="3.270299">
        <ele>51</ele>
        <time>1970-01-01T00:38:13.000Z</time>
      </trkpt>
      <trkpt lat="42.2909" lon="3.270306">
        <ele>51</ele>
        <time>1970-01-01T00:38:14.000Z</time>
      </trkpt>
      <trkpt lat="42.290919" lon="3.270312">
        <ele>51</ele>
        <time>1970-01-01T00:38:15.000Z</time>
      </trkpt>
      <trkpt lat="42.290937" lon="3.270319">
        <ele>51</ele>
        <time>1970-01-01T00:38:16.000Z</time>
      </trkpt>
      <trkpt lat="42.290956" lon="3.270326">
        <ele>51</ele>
        <time>1970-01-01T00:38:17.000Z</time>
      </trkpt>
      <trkpt lat="42.290974" lon="3.270333">
        <ele>51</ele>
        <time>1970-01-01T00:38:18.000Z</time>
      </trkpt>
      <trkpt lat="42.290993" lon="3.27034">
        <ele>51</ele>
        <time>1970-01-01T00:38:19.000Z</time>
      </trkpt>
      <trkpt lat="42.291011" lon="3.270346">
        <ele>51</ele>
        <time>1970-01-01T00:38:20.000Z</time>
      </trkpt>
      <trkpt lat="42.29103" lon="3.270353">
        <ele>51</ele>
        <time>1970-01-01T00:38:21.000Z</time>
      </trkpt>
      <trkpt lat="42.291048" lon="3.27036">
        <ele>52</ele>
        <time>1970-01-01T00:38:22.000Z</time>
      </trkpt>
      <trkpt lat="42.291091" lon="3.270365">
        <ele>52</ele>
        <time>1970-01-01T00:38:23.000Z</time>
      </trkpt>
      <trkpt lat="42.291113" lon="3.270365">
        <ele>52</ele>
        <time>1970-01-01T00:38:24.000Z</time>
      </trkpt>
      <trkpt lat="42.291135" lon="3.270364">
        <ele>52</ele>
        <time>1970-01-01T00:38:25.000Z</time>
      </trkpt>
      <trkpt lat="42.291157" lon="3.270364">
        <ele>52</ele>
        <time>1970-01-01T00:38:26.000Z</time>
      </trkpt>
      <trkpt lat="42.291179" lon="3.270364">
        <ele>52</ele>
        <time>1970-01-01T00:38:27.000Z</time>
      </trkpt>
      <trkpt lat="42.291201" lon="3.270364">
        <ele>52</ele>
        <time>1970-01-01T00:38:28.000Z</time>
      </trkpt>
      <trkpt lat="42.291223" lon="3.270364">
        <ele>52</ele>
        <time>1970-01-01T00:38:29.000Z</time>
      </trkpt>
      <trkpt lat="42.291245" lon="3.270363">
        <ele>52</ele>
        <time>1970-01-01T00:38:30.000Z</time>
      </trkpt>
      <trkpt lat="42.291267" lon="3.270363">
        <ele>52</ele>
        <time>1970-01-01T00:38:31.000Z</time>
      </trkpt>
      <trkpt lat="42.291289" lon="3.270363">
        <ele>53</ele>
        <time>1970-01-01T00:38:32.000Z</time>
      </trkpt>
      <trkpt lat="42.291336" lon="3.270349">
        <ele>53</ele>
        <time>1970-01-01T00:38:33.000Z</time>
      </trkpt>
      <trkpt lat="42.29136" lon="3.270343">
        <ele>53</ele>
        <time>1970-01-01T00:38:34.000Z</time>
      </trkpt>
      <trkpt lat="42.291383" lon="3.270336">
        <ele>53</ele>
        <time>1970-01-01T00:38:35.000Z</time>
      </trkpt>
      <trkpt lat="42.291406" lon="3.27033">
        <ele>53</ele>
        <time>1970-01-01T00:38:36.000Z</time>
      </trkpt>
      <trkpt lat="42.29143" lon="3.270323">
        <ele>53</ele>
        <time>1970-01-01T00:38:37.000Z</time>
      </trkpt>
      <trkpt lat="42.291453" lon="3.270316">
        <ele>53</ele>
        <time>1970-01-01T00:38:38.000Z</time>
      </trkpt>
      <trkpt lat="42.291476" lon="3.27031">
        <ele>53</ele>
        <time>1970-01-01T00:38:39.000Z</time>
      </trkpt>
      <trkpt lat="42.291499" lon="3.270303">
        <ele>53</ele>
        <time>1970-01-01T00:38:40.000Z</time>
      </trkpt>
      <trkpt lat="42.291523" lon="3.270297">
        <ele>53</ele>
        <time>1970-01-01T00:38:41.000Z</time>
      </trkpt>
      <trkpt lat="42.291546" lon="3.27029">
        <ele>54</ele>
        <time>1970-01-01T00:38:42.000Z</time>
      </trkpt>
      <trkpt lat="42.29159" lon="3.270281">
        <ele>54</ele>
        <time>1970-01-01T00:38:43.000Z</time>
      </trkpt>
      <trkpt lat="42.291609" lon="3.270278">
        <ele>54</ele>
        <time>1970-01-01T00:38:44.000Z</time>
      </trkpt>
      <trkpt lat="42.291629" lon="3.270276">
        <ele>54</ele>
        <time>1970-01-01T00:38:45.000Z</time>
      </trkpt>
      <trkpt lat="42.291649" lon="3.270273">
        <ele>54</ele>
        <time>1970-01-01T00:38:46.000Z</time>
      </trkpt>
      <trkpt lat="42.291669" lon="3.270271">
        <ele>54</ele>
        <time>1970-01-01T00:38:47.000Z</time>
      </trkpt>
      <trkpt lat="42.291688" lon="3.270268">
        <ele>54</ele>
        <time>1970-01-01T00:38:48.000Z</time>
      </trkpt>
      <trkpt lat="42.291708" lon="3.270266">
        <ele>54</ele>
        <time>1970-01-01T00:38:49.000Z</time>
      </trkpt>
      <trkpt lat="42.291728" lon="3.270263">
        <ele>54</ele>
        <time>1970-01-01T00:38:50.000Z</time>
      </trkpt>
      <trkpt lat="42.291747" lon="3.270261">
        <ele>54</ele>
        <time>1970-01-01T00:38:51.000Z</time>
      </trkpt>
      <trkpt lat="42.291767" lon="3.270258">
        <ele>56</ele>
        <time>1970-01-01T00:38:52.000Z</time>
      </trkpt>
      <trkpt lat="42.291809" lon="3.270252">
        <ele>56</ele>
        <time>1970-01-01T00:38:53.000Z</time>
      </trkpt>
      <trkpt lat="42.29183" lon="3.270249">
        <ele>56</ele>
        <time>1970-01-01T00:38:54.000Z</time>
      </trkpt>
      <trkpt lat="42.29185" lon="3.270247">
        <ele>56</ele>
        <time>1970-01-01T00:38:55.000Z</time>
      </trkpt>
      <trkpt lat="42.291871" lon="3.270244">
        <ele>56</ele>
        <time>1970-01-01T00:38:56.000Z</time>
      </trkpt>
      <trkpt lat="42.291891" lon="3.270242">
        <ele>56</ele>
        <time>1970-01-01T00:38:57.000Z</time>
      </trkpt>
      <trkpt lat="42.291911" lon="3.270239">
        <ele>56</ele>
        <time>1970-01-01T00:38:58.000Z</time>
      </trkpt>
      <trkpt lat="42.291932" lon="3.270237">
        <ele>56</ele>
        <time>1970-01-01T00:38:59.000Z</time>
      </trkpt>
      <trkpt lat="42.291952" lon="3.270234">
        <ele>56</ele>
        <time>1970-01-01T00:39:00.000Z</time>
      </trkpt>
      <trkpt lat="42.291973" lon="3.270232">
        <ele>56</ele>
        <time>1970-01-01T00:39:01.000Z</time>
      </trkpt>
      <trkpt lat="42.291993" lon="3.270229">
        <ele>60</ele>
        <time>1970-01-01T00:39:02.000Z</time>
      </trkpt>
      <trkpt lat="42.292035" lon="3.270221">
        <ele>60</ele>
        <time>1970-01-01T00:39:03.000Z</time>
      </trkpt>
      <trkpt lat="42.292054" lon="3.270214">
        <ele>60</ele>
        <time>1970-01-01T00:39:04.000Z</time>
      </trkpt>
      <trkpt lat="42.292074" lon="3.270208">
        <ele>60</ele>
        <time>1970-01-01T00:39:05.000Z</time>
      </trkpt>
      <trkpt lat="42.292093" lon="3.270201">
        <ele>60</ele>
        <time>1970-01-01T00:39:06.000Z</time>
      </trkpt>
      <trkpt lat="42.292113" lon="3.270195">
        <ele>60</ele>
        <time>1970-01-01T00:39:07.000Z</time>
      </trkpt>
      <trkpt lat="42.292133" lon="3.270188">
        <ele>60</ele>
        <time>1970-01-01T00:39:08.000Z</time>
      </trkpt>
      <trkpt lat="42.292152" lon="3.270182">
        <ele>60</ele>
        <time>1970-01-01T00:39:09.000Z</time>
      </trkpt>
      <trkpt lat="42.292172" lon="3.270175">
        <ele>60</ele>
        <time>1970-01-01T00:39:10.000Z</time>
      </trkpt>
      <trkpt lat="42.292191" lon="3.270169">
        <ele>60</ele>
        <time>1970-01-01T00:39:11.000Z</time>
      </trkpt>
      <trkpt lat="42.292211" lon="3.270162">
        <ele>60</ele>
        <time>1970-01-01T00:39:12.000Z</time>
      </trkpt>
      <trkpt lat="42.292248" lon="3.270131">
        <ele>60</ele>
        <time>1970-01-01T00:39:13.000Z</time>
      </trkpt>
      <trkpt lat="42.292265" lon="3.270114">
        <ele>60</ele>
        <time>1970-01-01T00:39:14.000Z</time>
      </trkpt>
      <trkpt lat="42.292282" lon="3.270097">
        <ele>60</ele>
        <time>1970-01-01T00:39:15.000Z</time>
      </trkpt>
      <trkpt lat="42.292299" lon="3.27008">
        <ele>60</ele>
        <time>1970-01-01T00:39:16.000Z</time>
      </trkpt>
      <trkpt lat="42.292317" lon="3.270064">
        <ele>60</ele>
        <time>1970-01-01T00:39:17.000Z</time>
      </trkpt>
      <trkpt lat="42.292334" lon="3.270047">
        <ele>60</ele>
        <time>1970-01-01T00:39:18.000Z</time>
      </trkpt>
      <trkpt lat="42.292351" lon="3.27003">
        <ele>60</ele>
        <time>1970-01-01T00:39:19.000Z</time>
      </trkpt>
      <trkpt lat="42.292368" lon="3.270013">
        <ele>60</ele>
        <time>1970-01-01T00:39:20.000Z</time>
      </trkpt>
      <trkpt lat="42.292385" lon="3.269996">
        <ele>60</ele>
        <time>1970-01-01T00:39:21.000Z</time>
      </trkpt>
      <trkpt lat="42.292402" lon="3.269979">
        <ele>61</ele>
        <time>1970-01-01T00:39:22.000Z</time>
      </trkpt>
      <trkpt lat="42.292439" lon="3.269952">
        <ele>61</ele>
        <time>1970-01-01T00:39:23.000Z</time>
      </trkpt>
      <trkpt lat="42.292457" lon="3.269942">
        <ele>61</ele>
        <time>1970-01-01T00:39:24.000Z</time>
      </trkpt>
      <trkpt lat="42.292476" lon="3.269933">
        <ele>61</ele>
        <time>1970-01-01T00:39:25.000Z</time>
      </trkpt>
      <trkpt lat="42.292494" lon="3.269923">
        <ele>61</ele>
        <time>1970-01-01T00:39:26.000Z</time>
      </trkpt>
      <trkpt lat="42.292513" lon="3.269913">
        <ele>61</ele>
        <time>1970-01-01T00:39:27.000Z</time>
      </trkpt>
      <trkpt lat="42.292532" lon="3.269903">
        <ele>61</ele>
        <time>1970-01-01T00:39:28.000Z</time>
      </trkpt>
      <trkpt lat="42.29255" lon="3.269893">
        <ele>61</ele>
        <time>1970-01-01T00:39:29.000Z</time>
      </trkpt>
      <trkpt lat="42.292569" lon="3.269884">
        <ele>61</ele>
        <time>1970-01-01T00:39:30.000Z</time>
      </trkpt>
      <trkpt lat="42.292587" lon="3.269874">
        <ele>61</ele>
        <time>1970-01-01T00:39:31.000Z</time>
      </trkpt>
      <trkpt lat="42.292606" lon="3.269864">
        <ele>62</ele>
        <time>1970-01-01T00:39:32.000Z</time>
      </trkpt>
      <trkpt lat="42.292646" lon="3.269852">
        <ele>62</ele>
        <time>1970-01-01T00:39:33.000Z</time>
      </trkpt>
      <trkpt lat="42.292664" lon="3.269845">
        <ele>62</ele>
        <time>1970-01-01T00:39:34.000Z</time>
      </trkpt>
      <trkpt lat="42.292683" lon="3.269839">
        <ele>62</ele>
        <time>1970-01-01T00:39:35.000Z</time>
      </trkpt>
      <trkpt lat="42.292701" lon="3.269833">
        <ele>62</ele>
        <time>1970-01-01T00:39:36.000Z</time>
      </trkpt>
      <trkpt lat="42.29272" lon="3.269827">
        <ele>62</ele>
        <time>1970-01-01T00:39:37.000Z</time>
      </trkpt>
      <trkpt lat="42.292738" lon="3.26982">
        <ele>62</ele>
        <time>1970-01-01T00:39:38.000Z</time>
      </trkpt>
      <trkpt lat="42.292757" lon="3.269814">
        <ele>62</ele>
        <time>1970-01-01T00:39:39.000Z</time>
      </trkpt>
      <trkpt lat="42.292775" lon="3.269808">
        <ele>62</ele>
        <time>1970-01-01T00:39:40.000Z</time>
      </trkpt>
      <trkpt lat="42.292794" lon="3.269801">
        <ele>62</ele>
        <time>1970-01-01T00:39:41.000Z</time>
      </trkpt>
      <trkpt lat="42.292812" lon="3.269795">
        <ele>63</ele>
        <time>1970-01-01T00:39:42.000Z</time>
      </trkpt>
      <trkpt lat="42.292844" lon="3.269761">
        <ele>63</ele>
        <time>1970-01-01T00:39:43.000Z</time>
      </trkpt>
      <trkpt lat="42.292857" lon="3.269737">
        <ele>63</ele>
        <time>1970-01-01T00:39:44.000Z</time>
      </trkpt>
      <trkpt lat="42.292869" lon="3.269714">
        <ele>63</ele>
        <time>1970-01-01T00:39:45.000Z</time>
      </trkpt>
      <trkpt lat="42.292882" lon="3.26969">
        <ele>63</ele>
        <time>1970-01-01T00:39:46.000Z</time>
      </trkpt>
      <trkpt lat="42.292894" lon="3.269667">
        <ele>63</ele>
        <time>1970-01-01T00:39:47.000Z</time>
      </trkpt>
      <trkpt lat="42.292907" lon="3.269643">
        <ele>63</ele>
        <time>1970-01-01T00:39:48.000Z</time>
      </trkpt>
      <trkpt lat="42.292919" lon="3.26962">
        <ele>63</ele>
        <time>1970-01-01T00:39:49.000Z</time>
      </trkpt>
      <trkpt lat="42.292932" lon="3.269596">
        <ele>63</ele>
        <time>1970-01-01T00:39:50.000Z</time>
      </trkpt>
      <trkpt lat="42.292944" lon="3.269573">
        <ele>65</ele>
        <time>1970-01-01T00:39:52.000Z</time>
      </trkpt>
      <trkpt lat="42.292934" lon="3.269514">
        <ele>65</ele>
        <time>1970-01-01T00:39:53.000Z</time>
      </trkpt>
      <trkpt lat="42.292927" lon="3.269487">
        <ele>65</ele>
        <time>1970-01-01T00:39:54.000Z</time>
      </trkpt>
      <trkpt lat="42.29292" lon="3.26946">
        <ele>65</ele>
        <time>1970-01-01T00:39:55.000Z</time>
      </trkpt>
      <trkpt lat="42.292913" lon="3.269433">
        <ele>65</ele>
        <time>1970-01-01T00:39:56.000Z</time>
      </trkpt>
      <trkpt lat="42.292907" lon="3.269406">
        <ele>65</ele>
        <time>1970-01-01T00:39:57.000Z</time>
      </trkpt>
      <trkpt lat="42.2929" lon="3.269379">
        <ele>65</ele>
        <time>1970-01-01T00:39:58.000Z</time>
      </trkpt>
      <trkpt lat="42.292893" lon="3.269352">
        <ele>65</ele>
        <time>1970-01-01T00:39:59.000Z</time>
      </trkpt>
      <trkpt lat="42.292886" lon="3.269325">
        <ele>65</ele>
        <time>1970-01-01T00:40:00.000Z</time>
      </trkpt>
      <trkpt lat="42.292879" lon="3.269298">
        <ele>65</ele>
        <time>1970-01-01T00:40:01.000Z</time>
      </trkpt>
      <trkpt lat="42.292872" lon="3.269271">
        <ele>67</ele>
        <time>1970-01-01T00:40:02.000Z</time>
      </trkpt>
      <trkpt lat="42.292854" lon="3.269219">
        <ele>67</ele>
        <time>1970-01-01T00:40:03.000Z</time>
      </trkpt>
      <trkpt lat="42.292846" lon="3.269194">
        <ele>67</ele>
        <time>1970-01-01T00:40:04.000Z</time>
      </trkpt>
      <trkpt lat="42.292837" lon="3.269169">
        <ele>67</ele>
        <time>1970-01-01T00:40:05.000Z</time>
      </trkpt>
      <trkpt lat="42.292829" lon="3.269144">
        <ele>67</ele>
        <time>1970-01-01T00:40:06.000Z</time>
      </trkpt>
      <trkpt lat="42.292821" lon="3.269118">
        <ele>67</ele>
        <time>1970-01-01T00:40:07.000Z</time>
      </trkpt>
      <trkpt lat="42.292813" lon="3.269093">
        <ele>67</ele>
        <time>1970-01-01T00:40:08.000Z</time>
      </trkpt>
      <trkpt lat="42.292805" lon="3.269068">
        <ele>67</ele>
        <time>1970-01-01T00:40:09.000Z</time>
      </trkpt>
      <trkpt lat="42.292796" lon="3.269043">
        <ele>67</ele>
        <time>1970-01-01T00:40:10.000Z</time>
      </trkpt>
      <trkpt lat="42.292788" lon="3.269018">
        <ele>67</ele>
        <time>1970-01-01T00:40:11.000Z</time>
      </trkpt>
      <trkpt lat="42.29278" lon="3.268993">
        <ele>69</ele>
        <time>1970-01-01T00:40:12.000Z</time>
      </trkpt>
      <trkpt lat="42.292767" lon="3.268938">
        <ele>69</ele>
        <time>1970-01-01T00:40:13.000Z</time>
      </trkpt>
      <trkpt lat="42.292763" lon="3.26891">
        <ele>69</ele>
        <time>1970-01-01T00:40:14.000Z</time>
      </trkpt>
      <trkpt lat="42.292759" lon="3.268883">
        <ele>69</ele>
        <time>1970-01-01T00:40:15.000Z</time>
      </trkpt>
      <trkpt lat="42.292755" lon="3.268856">
        <ele>69</ele>
        <time>1970-01-01T00:40:16.000Z</time>
      </trkpt>
      <trkpt lat="42.292751" lon="3.268828">
        <ele>69</ele>
        <time>1970-01-01T00:40:17.000Z</time>
      </trkpt>
      <trkpt lat="42.292747" lon="3.268801">
        <ele>69</ele>
        <time>1970-01-01T00:40:18.000Z</time>
      </trkpt>
      <trkpt lat="42.292743" lon="3.268774">
        <ele>69</ele>
        <time>1970-01-01T00:40:19.000Z</time>
      </trkpt>
      <trkpt lat="42.292739" lon="3.268747">
        <ele>69</ele>
        <time>1970-01-01T00:40:20.000Z</time>
      </trkpt>
      <trkpt lat="42.292735" lon="3.268719">
        <ele>69</ele>
        <time>1970-01-01T00:40:21.000Z</time>
      </trkpt>
      <trkpt lat="42.292731" lon="3.268692">
        <ele>69</ele>
        <time>1970-01-01T00:40:22.000Z</time>
      </trkpt>
      <trkpt lat="42.292729" lon="3.268635">
        <ele>69</ele>
        <time>1970-01-01T00:40:23.000Z</time>
      </trkpt>
      <trkpt lat="42.292729" lon="3.268608">
        <ele>69</ele>
        <time>1970-01-01T00:40:24.000Z</time>
      </trkpt>
      <trkpt lat="42.29273" lon="3.268581">
        <ele>69</ele>
        <time>1970-01-01T00:40:25.000Z</time>
      </trkpt>
      <trkpt lat="42.29273" lon="3.268554">
        <ele>69</ele>
        <time>1970-01-01T00:40:26.000Z</time>
      </trkpt>
      <trkpt lat="42.29273" lon="3.268527">
        <ele>69</ele>
        <time>1970-01-01T00:40:27.000Z</time>
      </trkpt>
      <trkpt lat="42.29273" lon="3.2685">
        <ele>69</ele>
        <time>1970-01-01T00:40:28.000Z</time>
      </trkpt>
      <trkpt lat="42.29273" lon="3.268473">
        <ele>69</ele>
        <time>1970-01-01T00:40:29.000Z</time>
      </trkpt>
      <trkpt lat="42.292731" lon="3.268446">
        <ele>69</ele>
        <time>1970-01-01T00:40:30.000Z</time>
      </trkpt>
      <trkpt lat="42.292731" lon="3.268419">
        <ele>69</ele>
        <time>1970-01-01T00:40:31.000Z</time>
      </trkpt>
      <trkpt lat="42.292731" lon="3.268392">
        <ele>70</ele>
        <time>1970-01-01T00:40:32.000Z</time>
      </trkpt>
      <trkpt lat="42.292731" lon="3.268334">
        <ele>70</ele>
        <time>1970-01-01T00:40:33.000Z</time>
      </trkpt>
      <trkpt lat="42.29273" lon="3.268307">
        <ele>70</ele>
        <time>1970-01-01T00:40:34.000Z</time>
      </trkpt>
      <trkpt lat="42.29273" lon="3.268279">
        <ele>70</ele>
        <time>1970-01-01T00:40:35.000Z</time>
      </trkpt>
      <trkpt lat="42.292729" lon="3.268252">
        <ele>70</ele>
        <time>1970-01-01T00:40:36.000Z</time>
      </trkpt>
      <trkpt lat="42.292729" lon="3.268224">
        <ele>70</ele>
        <time>1970-01-01T00:40:37.000Z</time>
      </trkpt>
      <trkpt lat="42.292729" lon="3.268196">
        <ele>70</ele>
        <time>1970-01-01T00:40:38.000Z</time>
      </trkpt>
      <trkpt lat="42.292728" lon="3.268169">
        <ele>70</ele>
        <time>1970-01-01T00:40:39.000Z</time>
      </trkpt>
      <trkpt lat="42.292728" lon="3.268141">
        <ele>70</ele>
        <time>1970-01-01T00:40:40.000Z</time>
      </trkpt>
      <trkpt lat="42.292727" lon="3.268114">
        <ele>70</ele>
        <time>1970-01-01T00:40:41.000Z</time>
      </trkpt>
      <trkpt lat="42.292727" lon="3.268086">
        <ele>72</ele>
        <time>1970-01-01T00:40:42.000Z</time>
      </trkpt>
      <trkpt lat="42.292727" lon="3.268028">
        <ele>72</ele>
        <time>1970-01-01T00:40:43.000Z</time>
      </trkpt>
      <trkpt lat="42.292727" lon="3.268">
        <ele>72</ele>
        <time>1970-01-01T00:40:44.000Z</time>
      </trkpt>
      <trkpt lat="42.292728" lon="3.267973">
        <ele>72</ele>
        <time>1970-01-01T00:40:45.000Z</time>
      </trkpt>
      <trkpt lat="42.292728" lon="3.267946">
        <ele>72</ele>
        <time>1970-01-01T00:40:46.000Z</time>
      </trkpt>
      <trkpt lat="42.292728" lon="3.267919">
        <ele>72</ele>
        <time>1970-01-01T00:40:47.000Z</time>
      </trkpt>
      <trkpt lat="42.292728" lon="3.267891">
        <ele>72</ele>
        <time>1970-01-01T00:40:48.000Z</time>
      </trkpt>
      <trkpt lat="42.292728" lon="3.267864">
        <ele>72</ele>
        <time>1970-01-01T00:40:49.000Z</time>
      </trkpt>
      <trkpt lat="42.292729" lon="3.267837">
        <ele>72</ele>
        <time>1970-01-01T00:40:50.000Z</time>
      </trkpt>
      <trkpt lat="42.292729" lon="3.267809">
        <ele>72</ele>
        <time>1970-01-01T00:40:51.000Z</time>
      </trkpt>
      <trkpt lat="42.292729" lon="3.267782">
        <ele>74</ele>
        <time>1970-01-01T00:40:52.000Z</time>
      </trkpt>
      <trkpt lat="42.292728" lon="3.267724">
        <ele>74</ele>
        <time>1970-01-01T00:40:53.000Z</time>
      </trkpt>
      <trkpt lat="42.292728" lon="3.267696">
        <ele>74</ele>
        <time>1970-01-01T00:40:54.000Z</time>
      </trkpt>
      <trkpt lat="42.292728" lon="3.267669">
        <ele>74</ele>
        <time>1970-01-01T00:40:55.000Z</time>
      </trkpt>
      <trkpt lat="42.292728" lon="3.267642">
        <ele>74</ele>
        <time>1970-01-01T00:40:56.000Z</time>
      </trkpt>
      <trkpt lat="42.292728" lon="3.267614">
        <ele>74</ele>
        <time>1970-01-01T00:40:57.000Z</time>
      </trkpt>
      <trkpt lat="42.292727" lon="3.267587">
        <ele>74</ele>
        <time>1970-01-01T00:40:58.000Z</time>
      </trkpt>
      <trkpt lat="42.292727" lon="3.26756">
        <ele>74</ele>
        <time>1970-01-01T00:40:59.000Z</time>
      </trkpt>
      <trkpt lat="42.292727" lon="3.267533">
        <ele>74</ele>
        <time>1970-01-01T00:41:00.000Z</time>
      </trkpt>
      <trkpt lat="42.292727" lon="3.267505">
        <ele>74</ele>
        <time>1970-01-01T00:41:01.000Z</time>
      </trkpt>
      <trkpt lat="42.292727" lon="3.267478">
        <ele>75</ele>
        <time>1970-01-01T00:41:02.000Z</time>
      </trkpt>
      <trkpt lat="42.292724" lon="3.267421">
        <ele>75</ele>
        <time>1970-01-01T00:41:03.000Z</time>
      </trkpt>
      <trkpt lat="42.292724" lon="3.267395">
        <ele>75</ele>
        <time>1970-01-01T00:41:04.000Z</time>
      </trkpt>
      <trkpt lat="42.292723" lon="3.267368">
        <ele>75</ele>
        <time>1970-01-01T00:41:05.000Z</time>
      </trkpt>
      <trkpt lat="42.292723" lon="3.267342">
        <ele>75</ele>
        <time>1970-01-01T00:41:06.000Z</time>
      </trkpt>
      <trkpt lat="42.292722" lon="3.267315">
        <ele>75</ele>
        <time>1970-01-01T00:41:07.000Z</time>
      </trkpt>
      <trkpt lat="42.292721" lon="3.267289">
        <ele>75</ele>
        <time>1970-01-01T00:41:08.000Z</time>
      </trkpt>
      <trkpt lat="42.292721" lon="3.267262">
        <ele>75</ele>
        <time>1970-01-01T00:41:09.000Z</time>
      </trkpt>
      <trkpt lat="42.29272" lon="3.267236">
        <ele>75</ele>
        <time>1970-01-01T00:41:10.000Z</time>
      </trkpt>
      <trkpt lat="42.29272" lon="3.267209">
        <ele>75</ele>
        <time>1970-01-01T00:41:11.000Z</time>
      </trkpt>
      <trkpt lat="42.292719" lon="3.267183">
        <ele>77</ele>
        <time>1970-01-01T00:41:12.000Z</time>
      </trkpt>
      <trkpt lat="42.292714" lon="3.267127">
        <ele>77</ele>
        <time>1970-01-01T00:41:13.000Z</time>
      </trkpt>
      <trkpt lat="42.29271" lon="3.267101">
        <ele>77</ele>
        <time>1970-01-01T00:41:14.000Z</time>
      </trkpt>
      <trkpt lat="42.292707" lon="3.267074">
        <ele>77</ele>
        <time>1970-01-01T00:41:15.000Z</time>
      </trkpt>
      <trkpt lat="42.292703" lon="3.267047">
        <ele>77</ele>
        <time>1970-01-01T00:41:16.000Z</time>
      </trkpt>
      <trkpt lat="42.2927" lon="3.26702">
        <ele>77</ele>
        <time>1970-01-01T00:41:17.000Z</time>
      </trkpt>
      <trkpt lat="42.292696" lon="3.266994">
        <ele>77</ele>
        <time>1970-01-01T00:41:18.000Z</time>
      </trkpt>
      <trkpt lat="42.292693" lon="3.266967">
        <ele>77</ele>
        <time>1970-01-01T00:41:19.000Z</time>
      </trkpt>
      <trkpt lat="42.292689" lon="3.26694">
        <ele>77</ele>
        <time>1970-01-01T00:41:20.000Z</time>
      </trkpt>
      <trkpt lat="42.292686" lon="3.266914">
        <ele>77</ele>
        <time>1970-01-01T00:41:21.000Z</time>
      </trkpt>
      <trkpt lat="42.292682" lon="3.266887">
        <ele>78</ele>
        <time>1970-01-01T00:41:22.000Z</time>
      </trkpt>
      <trkpt lat="42.292664" lon="3.266834">
        <ele>78</ele>
        <time>1970-01-01T00:41:23.000Z</time>
      </trkpt>
      <trkpt lat="42.292655" lon="3.266809">
        <ele>78</ele>
        <time>1970-01-01T00:41:24.000Z</time>
      </trkpt>
      <trkpt lat="42.292645" lon="3.266785">
        <ele>78</ele>
        <time>1970-01-01T00:41:25.000Z</time>
      </trkpt>
      <trkpt lat="42.292636" lon="3.26676">
        <ele>78</ele>
        <time>1970-01-01T00:41:26.000Z</time>
      </trkpt>
      <trkpt lat="42.292626" lon="3.266736">
        <ele>78</ele>
        <time>1970-01-01T00:41:27.000Z</time>
      </trkpt>
      <trkpt lat="42.292616" lon="3.266712">
        <ele>78</ele>
        <time>1970-01-01T00:41:28.000Z</time>
      </trkpt>
      <trkpt lat="42.292607" lon="3.266687">
        <ele>78</ele>
        <time>1970-01-01T00:41:29.000Z</time>
      </trkpt>
      <trkpt lat="42.292597" lon="3.266663">
        <ele>78</ele>
        <time>1970-01-01T00:41:30.000Z</time>
      </trkpt>
      <trkpt lat="42.292588" lon="3.266638">
        <ele>78</ele>
        <time>1970-01-01T00:41:31.000Z</time>
      </trkpt>
      <trkpt lat="42.292578" lon="3.266614">
        <ele>80</ele>
        <time>1970-01-01T00:41:32.000Z</time>
      </trkpt>
      <trkpt lat="42.292558" lon="3.266563">
        <ele>80</ele>
        <time>1970-01-01T00:41:33.000Z</time>
      </trkpt>
      <trkpt lat="42.292548" lon="3.266539">
        <ele>80</ele>
        <time>1970-01-01T00:41:34.000Z</time>
      </trkpt>
      <trkpt lat="42.292539" lon="3.266515">
        <ele>80</ele>
        <time>1970-01-01T00:41:35.000Z</time>
      </trkpt>
      <trkpt lat="42.292529" lon="3.266491">
        <ele>80</ele>
        <time>1970-01-01T00:41:36.000Z</time>
      </trkpt>
      <trkpt lat="42.29252" lon="3.266467">
        <ele>80</ele>
        <time>1970-01-01T00:41:37.000Z</time>
      </trkpt>
      <trkpt lat="42.292511" lon="3.266444">
        <ele>80</ele>
        <time>1970-01-01T00:41:38.000Z</time>
      </trkpt>
      <trkpt lat="42.292501" lon="3.26642">
        <ele>80</ele>
        <time>1970-01-01T00:41:39.000Z</time>
      </trkpt>
      <trkpt lat="42.292492" lon="3.266396">
        <ele>80</ele>
        <time>1970-01-01T00:41:40.000Z</time>
      </trkpt>
      <trkpt lat="42.292482" lon="3.266372">
        <ele>80</ele>
        <time>1970-01-01T00:41:41.000Z</time>
      </trkpt>
      <trkpt lat="42.292473" lon="3.266348">
        <ele>82</ele>
        <time>1970-01-01T00:41:42.000Z</time>
      </trkpt>
      <trkpt lat="42.292464" lon="3.266295">
        <ele>82</ele>
        <time>1970-01-01T00:41:43.000Z</time>
      </trkpt>
      <trkpt lat="42.292463" lon="3.266269">
        <ele>82</ele>
        <time>1970-01-01T00:41:44.000Z</time>
      </trkpt>
      <trkpt lat="42.292462" lon="3.266244">
        <ele>82</ele>
        <time>1970-01-01T00:41:45.000Z</time>
      </trkpt>
      <trkpt lat="42.292461" lon="3.266218">
        <ele>82</ele>
        <time>1970-01-01T00:41:46.000Z</time>
      </trkpt>
      <trkpt lat="42.29246" lon="3.266192">
        <ele>82</ele>
        <time>1970-01-01T00:41:47.000Z</time>
      </trkpt>
      <trkpt lat="42.292458" lon="3.266166">
        <ele>82</ele>
        <time>1970-01-01T00:41:48.000Z</time>
      </trkpt>
      <trkpt lat="42.292457" lon="3.26614">
        <ele>82</ele>
        <time>1970-01-01T00:41:49.000Z</time>
      </trkpt>
      <trkpt lat="42.292456" lon="3.266115">
        <ele>82</ele>
        <time>1970-01-01T00:41:50.000Z</time>
      </trkpt>
      <trkpt lat="42.292455" lon="3.266089">
        <ele>82</ele>
        <time>1970-01-01T00:41:51.000Z</time>
      </trkpt>
      <trkpt lat="42.292454" lon="3.266063">
        <ele>83</ele>
        <time>1970-01-01T00:41:52.000Z</time>
      </trkpt>
      <trkpt lat="42.292464" lon="3.26601">
        <ele>83</ele>
        <time>1970-01-01T00:41:53.000Z</time>
      </trkpt>
      <trkpt lat="42.292469" lon="3.265985">
        <ele>83</ele>
        <time>1970-01-01T00:41:54.000Z</time>
      </trkpt>
      <trkpt lat="42.292475" lon="3.265959">
        <ele>83</ele>
        <time>1970-01-01T00:41:55.000Z</time>
      </trkpt>
      <trkpt lat="42.29248" lon="3.265934">
        <ele>83</ele>
        <time>1970-01-01T00:41:56.000Z</time>
      </trkpt>
      <trkpt lat="42.292486" lon="3.265909">
        <ele>83</ele>
        <time>1970-01-01T00:41:57.000Z</time>
      </trkpt>
      <trkpt lat="42.292492" lon="3.265884">
        <ele>83</ele>
        <time>1970-01-01T00:41:58.000Z</time>
      </trkpt>
      <trkpt lat="42.292497" lon="3.265859">
        <ele>83</ele>
        <time>1970-01-01T00:41:59.000Z</time>
      </trkpt>
      <trkpt lat="42.292503" lon="3.265833">
        <ele>83</ele>
        <time>1970-01-01T00:42:00.000Z</time>
      </trkpt>
      <trkpt lat="42.292508" lon="3.265808">
        <ele>83</ele>
        <time>1970-01-01T00:42:01.000Z</time>
      </trkpt>
      <trkpt lat="42.292514" lon="3.265783">
        <ele>84</ele>
        <time>1970-01-01T00:42:02.000Z</time>
      </trkpt>
      <trkpt lat="42.292528" lon="3.265732">
        <ele>84</ele>
        <time>1970-01-01T00:42:03.000Z</time>
      </trkpt>
      <trkpt lat="42.292535" lon="3.265708">
        <ele>84</ele>
        <time>1970-01-01T00:42:04.000Z</time>
      </trkpt>
      <trkpt lat="42.292543" lon="3.265684">
        <ele>84</ele>
        <time>1970-01-01T00:42:05.000Z</time>
      </trkpt>
      <trkpt lat="42.292551" lon="3.26566">
        <ele>84</ele>
        <time>1970-01-01T00:42:06.000Z</time>
      </trkpt>
      <trkpt lat="42.292559" lon="3.265637">
        <ele>84</ele>
        <time>1970-01-01T00:42:07.000Z</time>
      </trkpt>
      <trkpt lat="42.292566" lon="3.265613">
        <ele>84</ele>
        <time>1970-01-01T00:42:08.000Z</time>
      </trkpt>
      <trkpt lat="42.292574" lon="3.265589">
        <ele>84</ele>
        <time>1970-01-01T00:42:09.000Z</time>
      </trkpt>
      <trkpt lat="42.292582" lon="3.265565">
        <ele>84</ele>
        <time>1970-01-01T00:42:10.000Z</time>
      </trkpt>
      <trkpt lat="42.292589" lon="3.265541">
        <ele>84</ele>
        <time>1970-01-01T00:42:11.000Z</time>
      </trkpt>
      <trkpt lat="42.292597" lon="3.265517">
        <ele>86</ele>
        <time>1970-01-01T00:42:12.000Z</time>
      </trkpt>
      <trkpt lat="42.292619" lon="3.265473">
        <ele>86</ele>
        <time>1970-01-01T00:42:13.000Z</time>
      </trkpt>
      <trkpt lat="42.292632" lon="3.265454">
        <ele>86</ele>
        <time>1970-01-01T00:42:14.000Z</time>
      </trkpt>
      <trkpt lat="42.292644" lon="3.265436">
        <ele>86</ele>
        <time>1970-01-01T00:42:15.000Z</time>
      </trkpt>
      <trkpt lat="42.292656" lon="3.265417">
        <ele>86</ele>
        <time>1970-01-01T00:42:16.000Z</time>
      </trkpt>
      <trkpt lat="42.292669" lon="3.265399">
        <ele>86</ele>
        <time>1970-01-01T00:42:17.000Z</time>
      </trkpt>
      <trkpt lat="42.292681" lon="3.26538">
        <ele>86</ele>
        <time>1970-01-01T00:42:18.000Z</time>
      </trkpt>
      <trkpt lat="42.292693" lon="3.265362">
        <ele>86</ele>
        <time>1970-01-01T00:42:19.000Z</time>
      </trkpt>
      <trkpt lat="42.292705" lon="3.265343">
        <ele>86</ele>
        <time>1970-01-01T00:42:20.000Z</time>
      </trkpt>
      <trkpt lat="42.292718" lon="3.265325">
        <ele>86</ele>
        <time>1970-01-01T00:42:21.000Z</time>
      </trkpt>
      <trkpt lat="42.29273" lon="3.265306">
        <ele>87</ele>
        <time>1970-01-01T00:42:22.000Z</time>
      </trkpt>
      <trkpt lat="42.292763" lon="3.265274">
        <ele>87</ele>
        <time>1970-01-01T00:42:23.000Z</time>
      </trkpt>
      <trkpt lat="42.292778" lon="3.265256">
        <ele>87</ele>
        <time>1970-01-01T00:42:24.000Z</time>
      </trkpt>
      <trkpt lat="42.292794" lon="3.265237">
        <ele>87</ele>
        <time>1970-01-01T00:42:25.000Z</time>
      </trkpt>
      <trkpt lat="42.29281" lon="3.265219">
        <ele>87</ele>
        <time>1970-01-01T00:42:26.000Z</time>
      </trkpt>
      <trkpt lat="42.292825" lon="3.265201">
        <ele>87</ele>
        <time>1970-01-01T00:42:27.000Z</time>
      </trkpt>
      <trkpt lat="42.292841" lon="3.265183">
        <ele>87</ele>
        <time>1970-01-01T00:42:28.000Z</time>
      </trkpt>
      <trkpt lat="42.292856" lon="3.265164">
        <ele>87</ele>
        <time>1970-01-01T00:42:30.000Z</time>
      </trkpt>
      <trkpt lat="42.292872" lon="3.265146">
        <ele>88</ele>
        <time>1970-01-01T00:42:32.000Z</time>
      </trkpt>
      <trkpt lat="42.292911" lon="3.265092">
        <ele>88</ele>
        <time>1970-01-01T00:42:34.000Z</time>
      </trkpt>
      <trkpt lat="42.292926" lon="3.265067">
        <ele>88</ele>
        <time>1970-01-01T00:42:36.000Z</time>
      </trkpt>
      <trkpt lat="42.29294" lon="3.265041">
        <ele>88</ele>
        <time>1970-01-01T00:42:38.000Z</time>
      </trkpt>
      <trkpt lat="42.292955" lon="3.265016">
        <ele>88</ele>
        <time>1970-01-01T00:42:40.000Z</time>
      </trkpt>
      <trkpt lat="42.292969" lon="3.264991">
        <ele>90</ele>
        <time>1970-01-01T00:42:42.000Z</time>
      </trkpt>
      <trkpt lat="42.292993" lon="3.264918">
        <ele>90</ele>
        <time>1970-01-01T00:42:44.000Z</time>
      </trkpt>
      <trkpt lat="42.293006" lon="3.264885">
        <ele>90</ele>
        <time>1970-01-01T00:42:46.000Z</time>
      </trkpt>
      <trkpt lat="42.293018" lon="3.264851">
        <ele>90</ele>
        <time>1970-01-01T00:42:50.000Z</time>
      </trkpt>
      <trkpt lat="42.293031" lon="3.264818">
        <ele>90</ele>
        <time>1970-01-01T00:42:51.000Z</time>
      </trkpt>
      <trkpt lat="42.293043" lon="3.264784">
        <ele>91</ele>
        <time>1970-01-01T00:42:52.000Z</time>
      </trkpt>
      <trkpt lat="42.293058" lon="3.264734">
        <ele>91</ele>
        <time>1970-01-01T00:42:53.000Z</time>
      </trkpt>
      <trkpt lat="42.293065" lon="3.264706">
        <ele>91</ele>
        <time>1970-01-01T00:42:54.000Z</time>
      </trkpt>
      <trkpt lat="42.293072" lon="3.264678">
        <ele>91</ele>
        <time>1970-01-01T00:42:55.000Z</time>
      </trkpt>
      <trkpt lat="42.293078" lon="3.26465">
        <ele>91</ele>
        <time>1970-01-01T00:42:57.000Z</time>
      </trkpt>
      <trkpt lat="42.293085" lon="3.264622">
        <ele>91</ele>
        <time>1970-01-01T00:42:59.000Z</time>
      </trkpt>
      <trkpt lat="42.293092" lon="3.264594">
        <ele>91</ele>
        <time>1970-01-01T00:43:01.000Z</time>
      </trkpt>
      <trkpt lat="42.293099" lon="3.264566">
        <ele>91</ele>
        <time>1970-01-01T00:43:02.000Z</time>
      </trkpt>
      <trkpt lat="42.293097" lon="3.264516">
        <ele>91</ele>
        <time>1970-01-01T00:43:03.000Z</time>
      </trkpt>
      <trkpt lat="42.293093" lon="3.264491">
        <ele>91</ele>
        <time>1970-01-01T00:43:04.000Z</time>
      </trkpt>
      <trkpt lat="42.293088" lon="3.264467">
        <ele>91</ele>
        <time>1970-01-01T00:43:05.000Z</time>
      </trkpt>
      <trkpt lat="42.293083" lon="3.264443">
        <ele>91</ele>
        <time>1970-01-01T00:43:06.000Z</time>
      </trkpt>
      <trkpt lat="42.293079" lon="3.264418">
        <ele>91</ele>
        <time>1970-01-01T00:43:07.000Z</time>
      </trkpt>
      <trkpt lat="42.293074" lon="3.264394">
        <ele>91</ele>
        <time>1970-01-01T00:43:08.000Z</time>
      </trkpt>
      <trkpt lat="42.293069" lon="3.26437">
        <ele>91</ele>
        <time>1970-01-01T00:43:09.000Z</time>
      </trkpt>
      <trkpt lat="42.293064" lon="3.264346">
        <ele>91</ele>
        <time>1970-01-01T00:43:10.000Z</time>
      </trkpt>
      <trkpt lat="42.29306" lon="3.264321">
        <ele>91</ele>
        <time>1970-01-01T00:43:11.000Z</time>
      </trkpt>
      <trkpt lat="42.293055" lon="3.264297">
        <ele>92</ele>
        <time>1970-01-01T00:43:12.000Z</time>
      </trkpt>
      <trkpt lat="42.293031" lon="3.264242">
        <ele>92</ele>
        <time>1970-01-01T00:43:13.000Z</time>
      </trkpt>
      <trkpt lat="42.293019" lon="3.264212">
        <ele>92</ele>
        <time>1970-01-01T00:43:14.000Z</time>
      </trkpt>
      <trkpt lat="42.293007" lon="3.264183">
        <ele>92</ele>
        <time>1970-01-01T00:43:15.000Z</time>
      </trkpt>
      <trkpt lat="42.292995" lon="3.264154">
        <ele>92</ele>
        <time>1970-01-01T00:43:16.000Z</time>
      </trkpt>
      <trkpt lat="42.292983" lon="3.264125">
        <ele>92</ele>
        <time>1970-01-01T00:43:17.000Z</time>
      </trkpt>
      <trkpt lat="42.292971" lon="3.264095">
        <ele>92</ele>
        <time>1970-01-01T00:43:18.000Z</time>
      </trkpt>
      <trkpt lat="42.292959" lon="3.264066">
        <ele>92</ele>
        <time>1970-01-01T00:43:21.000Z</time>
      </trkpt>
      <trkpt lat="42.292947" lon="3.264037">
        <ele>93</ele>
        <time>1970-01-01T00:43:22.000Z</time>
      </trkpt>
      <trkpt lat="42.292928" lon="3.263986">
        <ele>93</ele>
        <time>1970-01-01T00:43:23.000Z</time>
      </trkpt>
      <trkpt lat="42.292922" lon="3.263961">
        <ele>93</ele>
        <time>1970-01-01T00:43:24.000Z</time>
      </trkpt>
      <trkpt lat="42.292916" lon="3.263937">
        <ele>93</ele>
        <time>1970-01-01T00:43:25.000Z</time>
      </trkpt>
      <trkpt lat="42.29291" lon="3.263912">
        <ele>93</ele>
        <time>1970-01-01T00:43:26.000Z</time>
      </trkpt>
      <trkpt lat="42.292904" lon="3.263887">
        <ele>93</ele>
        <time>1970-01-01T00:43:27.000Z</time>
      </trkpt>
      <trkpt lat="42.292897" lon="3.263862">
        <ele>93</ele>
        <time>1970-01-01T00:43:28.000Z</time>
      </trkpt>
      <trkpt lat="42.292891" lon="3.263837">
        <ele>93</ele>
        <time>1970-01-01T00:43:29.000Z</time>
      </trkpt>
      <trkpt lat="42.292885" lon="3.263813">
        <ele>93</ele>
        <time>1970-01-01T00:43:30.000Z</time>
      </trkpt>
      <trkpt lat="42.292879" lon="3.263788">
        <ele>93</ele>
        <time>1970-01-01T00:43:31.000Z</time>
      </trkpt>
      <trkpt lat="42.292873" lon="3.263763">
        <ele>94</ele>
        <time>1970-01-01T00:43:32.000Z</time>
      </trkpt>
      <trkpt lat="42.292871" lon="3.26371">
        <ele>94</ele>
        <time>1970-01-01T00:43:33.000Z</time>
      </trkpt>
      <trkpt lat="42.292871" lon="3.263684">
        <ele>94</ele>
        <time>1970-01-01T00:43:34.000Z</time>
      </trkpt>
      <trkpt lat="42.292872" lon="3.263659">
        <ele>94</ele>
        <time>1970-01-01T00:43:35.000Z</time>
      </trkpt>
      <trkpt lat="42.292873" lon="3.263633">
        <ele>94</ele>
        <time>1970-01-01T00:43:36.000Z</time>
      </trkpt>
      <trkpt lat="42.292874" lon="3.263608">
        <ele>94</ele>
        <time>1970-01-01T00:43:37.000Z</time>
      </trkpt>
      <trkpt lat="42.292874" lon="3.263583">
        <ele>94</ele>
        <time>1970-01-01T00:43:38.000Z</time>
      </trkpt>
      <trkpt lat="42.292875" lon="3.263557">
        <ele>94</ele>
        <time>1970-01-01T00:43:39.000Z</time>
      </trkpt>
      <trkpt lat="42.292876" lon="3.263532">
        <ele>94</ele>
        <time>1970-01-01T00:43:40.000Z</time>
      </trkpt>
      <trkpt lat="42.292876" lon="3.263506">
        <ele>94</ele>
        <time>1970-01-01T00:43:41.000Z</time>
      </trkpt>
      <trkpt lat="42.292877" lon="3.263481">
        <ele>95</ele>
        <time>1970-01-01T00:43:42.000Z</time>
      </trkpt>
      <trkpt lat="42.292882" lon="3.26343">
        <ele>95</ele>
        <time>1970-01-01T00:43:43.000Z</time>
      </trkpt>
      <trkpt lat="42.292885" lon="3.263404">
        <ele>95</ele>
        <time>1970-01-01T00:43:44.000Z</time>
      </trkpt>
      <trkpt lat="42.292887" lon="3.263379">
        <ele>95</ele>
        <time>1970-01-01T00:43:45.000Z</time>
      </trkpt>
      <trkpt lat="42.292889" lon="3.263353">
        <ele>95</ele>
        <time>1970-01-01T00:43:46.000Z</time>
      </trkpt>
      <trkpt lat="42.292892" lon="3.263328">
        <ele>95</ele>
        <time>1970-01-01T00:43:47.000Z</time>
      </trkpt>
      <trkpt lat="42.292894" lon="3.263303">
        <ele>95</ele>
        <time>1970-01-01T00:43:48.000Z</time>
      </trkpt>
      <trkpt lat="42.292896" lon="3.263277">
        <ele>95</ele>
        <time>1970-01-01T00:43:49.000Z</time>
      </trkpt>
      <trkpt lat="42.292898" lon="3.263252">
        <ele>95</ele>
        <time>1970-01-01T00:43:50.000Z</time>
      </trkpt>
      <trkpt lat="42.292901" lon="3.263226">
        <ele>95</ele>
        <time>1970-01-01T00:43:51.000Z</time>
      </trkpt>
      <trkpt lat="42.292903" lon="3.263201">
        <ele>96</ele>
        <time>1970-01-01T00:43:52.000Z</time>
      </trkpt>
      <trkpt lat="42.292916" lon="3.263152">
        <ele>96</ele>
        <time>1970-01-01T00:43:53.000Z</time>
      </trkpt>
      <trkpt lat="42.292925" lon="3.263129">
        <ele>96</ele>
        <time>1970-01-01T00:43:54.000Z</time>
      </trkpt>
      <trkpt lat="42.292934" lon="3.263107">
        <ele>96</ele>
        <time>1970-01-01T00:43:55.000Z</time>
      </trkpt>
      <trkpt lat="42.292943" lon="3.263085">
        <ele>96</ele>
        <time>1970-01-01T00:43:56.000Z</time>
      </trkpt>
      <trkpt lat="42.292953" lon="3.263062">
        <ele>96</ele>
        <time>1970-01-01T00:43:58.000Z</time>
      </trkpt>
      <trkpt lat="42.292962" lon="3.26304">
        <ele>96</ele>
        <time>1970-01-01T00:43:59.000Z</time>
      </trkpt>
      <trkpt lat="42.292971" lon="3.263018">
        <ele>96</ele>
        <time>1970-01-01T00:44:00.000Z</time>
      </trkpt>
      <trkpt lat="42.29298" lon="3.262995">
        <ele>96</ele>
        <time>1970-01-01T00:44:01.000Z</time>
      </trkpt>
      <trkpt lat="42.292989" lon="3.262973">
        <ele>97</ele>
        <time>1970-01-01T00:44:02.000Z</time>
      </trkpt>
      <trkpt lat="42.293017" lon="3.262938">
        <ele>97</ele>
        <time>1970-01-01T00:44:03.000Z</time>
      </trkpt>
      <trkpt lat="42.293031" lon="3.262924">
        <ele>97</ele>
        <time>1970-01-01T00:44:04.000Z</time>
      </trkpt>
      <trkpt lat="42.293046" lon="3.262909">
        <ele>97</ele>
        <time>1970-01-01T00:44:05.000Z</time>
      </trkpt>
      <trkpt lat="42.29306" lon="3.262894">
        <ele>97</ele>
        <time>1970-01-01T00:44:06.000Z</time>
      </trkpt>
      <trkpt lat="42.293074" lon="3.26288">
        <ele>97</ele>
        <time>1970-01-01T00:44:07.000Z</time>
      </trkpt>
      <trkpt lat="42.293088" lon="3.262865">
        <ele>97</ele>
        <time>1970-01-01T00:44:08.000Z</time>
      </trkpt>
      <trkpt lat="42.293102" lon="3.26285">
        <ele>97</ele>
        <time>1970-01-01T00:44:09.000Z</time>
      </trkpt>
      <trkpt lat="42.293117" lon="3.262835">
        <ele>97</ele>
        <time>1970-01-01T00:44:10.000Z</time>
      </trkpt>
      <trkpt lat="42.293131" lon="3.262821">
        <ele>97</ele>
        <time>1970-01-01T00:44:11.000Z</time>
      </trkpt>
      <trkpt lat="42.293145" lon="3.262806">
        <ele>97</ele>
        <time>1970-01-01T00:44:12.000Z</time>
      </trkpt>
      <trkpt lat="42.293178" lon="3.26278">
        <ele>97</ele>
        <time>1970-01-01T00:44:13.000Z</time>
      </trkpt>
      <trkpt lat="42.293194" lon="3.262768">
        <ele>97</ele>
        <time>1970-01-01T00:44:14.000Z</time>
      </trkpt>
      <trkpt lat="42.293211" lon="3.262757">
        <ele>97</ele>
        <time>1970-01-01T00:44:15.000Z</time>
      </trkpt>
      <trkpt lat="42.293227" lon="3.262745">
        <ele>97</ele>
        <time>1970-01-01T00:44:16.000Z</time>
      </trkpt>
      <trkpt lat="42.293243" lon="3.262734">
        <ele>97</ele>
        <time>1970-01-01T00:44:17.000Z</time>
      </trkpt>
      <trkpt lat="42.293259" lon="3.262722">
        <ele>97</ele>
        <time>1970-01-01T00:44:18.000Z</time>
      </trkpt>
      <trkpt lat="42.293275" lon="3.262711">
        <ele>97</ele>
        <time>1970-01-01T00:44:19.000Z</time>
      </trkpt>
      <trkpt lat="42.293292" lon="3.262699">
        <ele>97</ele>
        <time>1970-01-01T00:44:20.000Z</time>
      </trkpt>
      <trkpt lat="42.293308" lon="3.262688">
        <ele>97</ele>
        <time>1970-01-01T00:44:21.000Z</time>
      </trkpt>
      <trkpt lat="42.293324" lon="3.262676">
        <ele>99</ele>
        <time>1970-01-01T00:44:22.000Z</time>
      </trkpt>
      <trkpt lat="42.293364" lon="3.262656">
        <ele>99</ele>
        <time>1970-01-01T00:44:23.000Z</time>
      </trkpt>
      <trkpt lat="42.293382" lon="3.262647">
        <ele>99</ele>
        <time>1970-01-01T00:44:24.000Z</time>
      </trkpt>
      <trkpt lat="42.293401" lon="3.262637">
        <ele>99</ele>
        <time>1970-01-01T00:44:25.000Z</time>
      </trkpt>
      <trkpt lat="42.293419" lon="3.262627">
        <ele>99</ele>
        <time>1970-01-01T00:44:26.000Z</time>
      </trkpt>
      <trkpt lat="42.293438" lon="3.262618">
        <ele>99</ele>
        <time>1970-01-01T00:44:27.000Z</time>
      </trkpt>
      <trkpt lat="42.293456" lon="3.262608">
        <ele>99</ele>
        <time>1970-01-01T00:44:28.000Z</time>
      </trkpt>
      <trkpt lat="42.293475" lon="3.262598">
        <ele>99</ele>
        <time>1970-01-01T00:44:29.000Z</time>
      </trkpt>
      <trkpt lat="42.293493" lon="3.262588">
        <ele>99</ele>
        <time>1970-01-01T00:44:30.000Z</time>
      </trkpt>
      <trkpt lat="42.293512" lon="3.262579">
        <ele>99</ele>
        <time>1970-01-01T00:44:31.000Z</time>
      </trkpt>
      <trkpt lat="42.29353" lon="3.262569">
        <ele>99</ele>
        <time>1970-01-01T00:44:32.000Z</time>
      </trkpt>
      <trkpt lat="42.293579" lon="3.262546">
        <ele>99</ele>
        <time>1970-01-01T00:44:33.000Z</time>
      </trkpt>
      <trkpt lat="42.293606" lon="3.262533">
        <ele>99</ele>
        <time>1970-01-01T00:44:34.000Z</time>
      </trkpt>
      <trkpt lat="42.293634" lon="3.26252">
        <ele>99</ele>
        <time>1970-01-01T00:44:38.000Z</time>
      </trkpt>
      <trkpt lat="42.293661" lon="3.262506">
        <ele>99</ele>
        <time>1970-01-01T00:44:39.000Z</time>
      </trkpt>
      <trkpt lat="42.293689" lon="3.262493">
        <ele>99</ele>
        <time>1970-01-01T00:44:40.000Z</time>
      </trkpt>
      <trkpt lat="42.293716" lon="3.26248">
        <ele>99</ele>
        <time>1970-01-01T00:44:41.000Z</time>
      </trkpt>
      <trkpt lat="42.293744" lon="3.262467">
        <ele>101</ele>
        <time>1970-01-01T00:44:42.000Z</time>
      </trkpt>
      <trkpt lat="42.293786" lon="3.262445">
        <ele>101</ele>
        <time>1970-01-01T00:44:43.000Z</time>
      </trkpt>
      <trkpt lat="42.293807" lon="3.262433">
        <ele>101</ele>
        <time>1970-01-01T00:44:44.000Z</time>
      </trkpt>
      <trkpt lat="42.293828" lon="3.262422">
        <ele>101</ele>
        <time>1970-01-01T00:44:45.000Z</time>
      </trkpt>
      <trkpt lat="42.293849" lon="3.262411">
        <ele>101</ele>
        <time>1970-01-01T00:44:46.000Z</time>
      </trkpt>
      <trkpt lat="42.293871" lon="3.262399">
        <ele>101</ele>
        <time>1970-01-01T00:44:47.000Z</time>
      </trkpt>
      <trkpt lat="42.293892" lon="3.262388">
        <ele>101</ele>
        <time>1970-01-01T00:44:49.000Z</time>
      </trkpt>
      <trkpt lat="42.293913" lon="3.262377">
        <ele>101</ele>
        <time>1970-01-01T00:44:50.000Z</time>
      </trkpt>
      <trkpt lat="42.293934" lon="3.262365">
        <ele>101</ele>
        <time>1970-01-01T00:44:51.000Z</time>
      </trkpt>
      <trkpt lat="42.293955" lon="3.262354">
        <ele>102</ele>
        <time>1970-01-01T00:44:52.000Z</time>
      </trkpt>
      <trkpt lat="42.293993" lon="3.26233">
        <ele>102</ele>
        <time>1970-01-01T00:44:53.000Z</time>
      </trkpt>
      <trkpt lat="42.294012" lon="3.262318">
        <ele>102</ele>
        <time>1970-01-01T00:44:54.000Z</time>
      </trkpt>
      <trkpt lat="42.29403" lon="3.262307">
        <ele>102</ele>
        <time>1970-01-01T00:44:55.000Z</time>
      </trkpt>
      <trkpt lat="42.294048" lon="3.262296">
        <ele>102</ele>
        <time>1970-01-01T00:44:56.000Z</time>
      </trkpt>
      <trkpt lat="42.294067" lon="3.262285">
        <ele>102</ele>
        <time>1970-01-01T00:44:57.000Z</time>
      </trkpt>
      <trkpt lat="42.294085" lon="3.262273">
        <ele>102</ele>
        <time>1970-01-01T00:44:58.000Z</time>
      </trkpt>
      <trkpt lat="42.294103" lon="3.262262">
        <ele>102</ele>
        <time>1970-01-01T00:44:59.000Z</time>
      </trkpt>
      <trkpt lat="42.294121" lon="3.262251">
        <ele>102</ele>
        <time>1970-01-01T00:45:00.000Z</time>
      </trkpt>
      <trkpt lat="42.29414" lon="3.262239">
        <ele>102</ele>
        <time>1970-01-01T00:45:01.000Z</time>
      </trkpt>
      <trkpt lat="42.294158" lon="3.262228">
        <ele>103</ele>
        <time>1970-01-01T00:45:02.000Z</time>
      </trkpt>
      <trkpt lat="42.294182" lon="3.262184">
        <ele>103</ele>
        <time>1970-01-01T00:45:03.000Z</time>
      </trkpt>
      <trkpt lat="42.294188" lon="3.262158">
        <ele>103</ele>
        <time>1970-01-01T00:45:04.000Z</time>
      </trkpt>
      <trkpt lat="42.294194" lon="3.262132">
        <ele>103</ele>
        <time>1970-01-01T00:45:05.000Z</time>
      </trkpt>
      <trkpt lat="42.2942" lon="3.262106">
        <ele>103</ele>
        <time>1970-01-01T00:45:06.000Z</time>
      </trkpt>
      <trkpt lat="42.294205" lon="3.26208">
        <ele>103</ele>
        <time>1970-01-01T00:45:07.000Z</time>
      </trkpt>
      <trkpt lat="42.294211" lon="3.262054">
        <ele>103</ele>
        <time>1970-01-01T00:45:08.000Z</time>
      </trkpt>
      <trkpt lat="42.294217" lon="3.262028">
        <ele>103</ele>
        <time>1970-01-01T00:45:10.000Z</time>
      </trkpt>
      <trkpt lat="42.294223" lon="3.262002">
        <ele>103</ele>
        <time>1970-01-01T00:45:12.000Z</time>
      </trkpt>
      <trkpt lat="42.294192" lon="3.261875">
        <ele>103</ele>
        <time>1970-01-01T00:45:13.000Z</time>
      </trkpt>
      <trkpt lat="42.294174" lon="3.26185">
        <ele>103</ele>
        <time>1970-01-01T00:45:14.000Z</time>
      </trkpt>
      <trkpt lat="42.294156" lon="3.261825">
        <ele>103</ele>
        <time>1970-01-01T00:45:15.000Z</time>
      </trkpt>
      <trkpt lat="42.294138" lon="3.2618">
        <ele>103</ele>
        <time>1970-01-01T00:45:16.000Z</time>
      </trkpt>
      <trkpt lat="42.29412" lon="3.261774">
        <ele>103</ele>
        <time>1970-01-01T00:45:18.000Z</time>
      </trkpt>
      <trkpt lat="42.294102" lon="3.261749">
        <ele>103</ele>
        <time>1970-01-01T00:45:19.000Z</time>
      </trkpt>
      <trkpt lat="42.294084" lon="3.261724">
        <ele>103</ele>
        <time>1970-01-01T00:45:20.000Z</time>
      </trkpt>
      <trkpt lat="42.294066" lon="3.261699">
        <ele>103</ele>
        <time>1970-01-01T00:45:21.000Z</time>
      </trkpt>
      <trkpt lat="42.294048" lon="3.261674">
        <ele>105</ele>
        <time>1970-01-01T00:45:22.000Z</time>
      </trkpt>
      <trkpt lat="42.294004" lon="3.261634">
        <ele>105</ele>
        <time>1970-01-01T00:45:23.000Z</time>
      </trkpt>
      <trkpt lat="42.293982" lon="3.261615">
        <ele>105</ele>
        <time>1970-01-01T00:45:24.000Z</time>
      </trkpt>
      <trkpt lat="42.293961" lon="3.261595">
        <ele>105</ele>
        <time>1970-01-01T00:45:25.000Z</time>
      </trkpt>
      <trkpt lat="42.29394" lon="3.261576">
        <ele>105</ele>
        <time>1970-01-01T00:45:26.000Z</time>
      </trkpt>
      <trkpt lat="42.293919" lon="3.261557">
        <ele>105</ele>
        <time>1970-01-01T00:45:27.000Z</time>
      </trkpt>
      <trkpt lat="42.293897" lon="3.261538">
        <ele>105</ele>
        <time>1970-01-01T00:45:28.000Z</time>
      </trkpt>
      <trkpt lat="42.293876" lon="3.261519">
        <ele>105</ele>
        <time>1970-01-01T00:45:29.000Z</time>
      </trkpt>
      <trkpt lat="42.293855" lon="3.261499">
        <ele>105</ele>
        <time>1970-01-01T00:45:30.000Z</time>
      </trkpt>
      <trkpt lat="42.293833" lon="3.26148">
        <ele>105</ele>
        <time>1970-01-01T00:45:31.000Z</time>
      </trkpt>
      <trkpt lat="42.293812" lon="3.261461">
        <ele>107</ele>
        <time>1970-01-01T00:45:32.000Z</time>
      </trkpt>
      <trkpt lat="42.293767" lon="3.26142">
        <ele>107</ele>
        <time>1970-01-01T00:45:33.000Z</time>
      </trkpt>
      <trkpt lat="42.293746" lon="3.2614">
        <ele>107</ele>
        <time>1970-01-01T00:45:34.000Z</time>
      </trkpt>
      <trkpt lat="42.293725" lon="3.261381">
        <ele>107</ele>
        <time>1970-01-01T00:45:35.000Z</time>
      </trkpt>
      <trkpt lat="42.293704" lon="3.261362">
        <ele>107</ele>
        <time>1970-01-01T00:45:36.000Z</time>
      </trkpt>
      <trkpt lat="42.293683" lon="3.261342">
        <ele>107</ele>
        <time>1970-01-01T00:45:37.000Z</time>
      </trkpt>
      <trkpt lat="42.293661" lon="3.261323">
        <ele>107</ele>
        <time>1970-01-01T00:45:38.000Z</time>
      </trkpt>
      <trkpt lat="42.29364" lon="3.261304">
        <ele>107</ele>
        <time>1970-01-01T00:45:39.000Z</time>
      </trkpt>
      <trkpt lat="42.293619" lon="3.261285">
        <ele>107</ele>
        <time>1970-01-01T00:45:40.000Z</time>
      </trkpt>
      <trkpt lat="42.293598" lon="3.261265">
        <ele>107</ele>
        <time>1970-01-01T00:45:41.000Z</time>
      </trkpt>
      <trkpt lat="42.293577" lon="3.261246">
        <ele>108</ele>
        <time>1970-01-01T00:45:42.000Z</time>
      </trkpt>
      <trkpt lat="42.293537" lon="3.261201">
        <ele>108</ele>
        <time>1970-01-01T00:45:43.000Z</time>
      </trkpt>
      <trkpt lat="42.293519" lon="3.261177">
        <ele>108</ele>
        <time>1970-01-01T00:45:44.000Z</time>
      </trkpt>
      <trkpt lat="42.293502" lon="3.261152">
        <ele>108</ele>
        <time>1970-01-01T00:45:45.000Z</time>
      </trkpt>
      <trkpt lat="42.293484" lon="3.261127">
        <ele>108</ele>
        <time>1970-01-01T00:45:46.000Z</time>
      </trkpt>
      <trkpt lat="42.293467" lon="3.261102">
        <ele>108</ele>
        <time>1970-01-01T00:45:47.000Z</time>
      </trkpt>
      <trkpt lat="42.293449" lon="3.261078">
        <ele>108</ele>
        <time>1970-01-01T00:45:48.000Z</time>
      </trkpt>
      <trkpt lat="42.293432" lon="3.261053">
        <ele>108</ele>
        <time>1970-01-01T00:45:49.000Z</time>
      </trkpt>
      <trkpt lat="42.293414" lon="3.261028">
        <ele>108</ele>
        <time>1970-01-01T00:45:50.000Z</time>
      </trkpt>
      <trkpt lat="42.293397" lon="3.261004">
        <ele>108</ele>
        <time>1970-01-01T00:45:51.000Z</time>
      </trkpt>
      <trkpt lat="42.293379" lon="3.260979">
        <ele>108</ele>
        <time>1970-01-01T00:45:52.000Z</time>
      </trkpt>
      <trkpt lat="42.293367" lon="3.260911">
        <ele>108</ele>
        <time>1970-01-01T00:45:53.000Z</time>
      </trkpt>
      <trkpt lat="42.293368" lon="3.260878">
        <ele>108</ele>
        <time>1970-01-01T00:45:54.000Z</time>
      </trkpt>
      <trkpt lat="42.293368" lon="3.260844">
        <ele>108</ele>
        <time>1970-01-01T00:45:55.000Z</time>
      </trkpt>
      <trkpt lat="42.293369" lon="3.260811">
        <ele>108</ele>
        <time>1970-01-01T00:45:56.000Z</time>
      </trkpt>
      <trkpt lat="42.29337" lon="3.260778">
        <ele>108</ele>
        <time>1970-01-01T00:45:57.000Z</time>
      </trkpt>
      <trkpt lat="42.293371" lon="3.260745">
        <ele>108</ele>
        <time>1970-01-01T00:45:58.000Z</time>
      </trkpt>
      <trkpt lat="42.293372" lon="3.260712">
        <ele>108</ele>
        <time>1970-01-01T00:45:59.000Z</time>
      </trkpt>
      <trkpt lat="42.293372" lon="3.260678">
        <ele>108</ele>
        <time>1970-01-01T00:46:00.000Z</time>
      </trkpt>
      <trkpt lat="42.293373" lon="3.260645">
        <ele>108</ele>
        <time>1970-01-01T00:46:01.000Z</time>
      </trkpt>
      <trkpt lat="42.293374" lon="3.260612">
        <ele>108</ele>
        <time>1970-01-01T00:46:02.000Z</time>
      </trkpt>
      <trkpt lat="42.293392" lon="3.260546">
        <ele>108</ele>
        <time>1970-01-01T00:46:03.000Z</time>
      </trkpt>
      <trkpt lat="42.293404" lon="3.260516">
        <ele>108</ele>
        <time>1970-01-01T00:46:04.000Z</time>
      </trkpt>
      <trkpt lat="42.293415" lon="3.260486">
        <ele>108</ele>
        <time>1970-01-01T00:46:05.000Z</time>
      </trkpt>
      <trkpt lat="42.293426" lon="3.260456">
        <ele>108</ele>
        <time>1970-01-01T00:46:06.000Z</time>
      </trkpt>
      <trkpt lat="42.293438" lon="3.260427">
        <ele>108</ele>
        <time>1970-01-01T00:46:07.000Z</time>
      </trkpt>
      <trkpt lat="42.293449" lon="3.260397">
        <ele>108</ele>
        <time>1970-01-01T00:46:08.000Z</time>
      </trkpt>
      <trkpt lat="42.29346" lon="3.260367">
        <ele>108</ele>
        <time>1970-01-01T00:46:09.000Z</time>
      </trkpt>
      <trkpt lat="42.293471" lon="3.260337">
        <ele>108</ele>
        <time>1970-01-01T00:46:10.000Z</time>
      </trkpt>
      <trkpt lat="42.293483" lon="3.260307">
        <ele>108</ele>
        <time>1970-01-01T00:46:11.000Z</time>
      </trkpt>
      <trkpt lat="42.293494" lon="3.260277">
        <ele>109</ele>
        <time>1970-01-01T00:46:12.000Z</time>
      </trkpt>
      <trkpt lat="42.293521" lon="3.260217">
        <ele>109</ele>
        <time>1970-01-01T00:46:13.000Z</time>
      </trkpt>
      <trkpt lat="42.293535" lon="3.260189">
        <ele>109</ele>
        <time>1970-01-01T00:46:14.000Z</time>
      </trkpt>
      <trkpt lat="42.293548" lon="3.260161">
        <ele>109</ele>
        <time>1970-01-01T00:46:15.000Z</time>
      </trkpt>
      <trkpt lat="42.293562" lon="3.260133">
        <ele>109</ele>
        <time>1970-01-01T00:46:16.000Z</time>
      </trkpt>
      <trkpt lat="42.293575" lon="3.260106">
        <ele>109</ele>
        <time>1970-01-01T00:46:17.000Z</time>
      </trkpt>
      <trkpt lat="42.293588" lon="3.260078">
        <ele>109</ele>
        <time>1970-01-01T00:46:18.000Z</time>
      </trkpt>
      <trkpt lat="42.293602" lon="3.26005">
        <ele>109</ele>
        <time>1970-01-01T00:46:19.000Z</time>
      </trkpt>
      <trkpt lat="42.293615" lon="3.260022">
        <ele>109</ele>
        <time>1970-01-01T00:46:20.000Z</time>
      </trkpt>
      <trkpt lat="42.293629" lon="3.259994">
        <ele>109</ele>
        <time>1970-01-01T00:46:21.000Z</time>
      </trkpt>
      <trkpt lat="42.293642" lon="3.259966">
        <ele>110</ele>
        <time>1970-01-01T00:46:22.000Z</time>
      </trkpt>
      <trkpt lat="42.293682" lon="3.259916">
        <ele>110</ele>
        <time>1970-01-01T00:46:23.000Z</time>
      </trkpt>
      <trkpt lat="42.293704" lon="3.259893">
        <ele>110</ele>
        <time>1970-01-01T00:46:24.000Z</time>
      </trkpt>
      <trkpt lat="42.293727" lon="3.259871">
        <ele>110</ele>
        <time>1970-01-01T00:46:25.000Z</time>
      </trkpt>
      <trkpt lat="42.293749" lon="3.259849">
        <ele>110</ele>
        <time>1970-01-01T00:46:26.000Z</time>
      </trkpt>
      <trkpt lat="42.293771" lon="3.259826">
        <ele>110</ele>
        <time>1970-01-01T00:46:27.000Z</time>
      </trkpt>
      <trkpt lat="42.293793" lon="3.259804">
        <ele>110</ele>
        <time>1970-01-01T00:46:28.000Z</time>
      </trkpt>
      <trkpt lat="42.293816" lon="3.259782">
        <ele>110</ele>
        <time>1970-01-01T00:46:29.000Z</time>
      </trkpt>
      <trkpt lat="42.293838" lon="3.259759">
        <ele>110</ele>
        <time>1970-01-01T00:46:31.000Z</time>
      </trkpt>
      <trkpt lat="42.29386" lon="3.259737">
        <ele>112</ele>
        <time>1970-01-01T00:46:32.000Z</time>
      </trkpt>
      <trkpt lat="42.293908" lon="3.259707">
        <ele>112</ele>
        <time>1970-01-01T00:46:33.000Z</time>
      </trkpt>
      <trkpt lat="42.293931" lon="3.259695">
        <ele>112</ele>
        <time>1970-01-01T00:46:34.000Z</time>
      </trkpt>
      <trkpt lat="42.293955" lon="3.259684">
        <ele>112</ele>
        <time>1970-01-01T00:46:35.000Z</time>
      </trkpt>
      <trkpt lat="42.293978" lon="3.259673">
        <ele>112</ele>
        <time>1970-01-01T00:46:36.000Z</time>
      </trkpt>
      <trkpt lat="42.294002" lon="3.259662">
        <ele>112</ele>
        <time>1970-01-01T00:46:37.000Z</time>
      </trkpt>
      <trkpt lat="42.294025" lon="3.25965">
        <ele>112</ele>
        <time>1970-01-01T00:46:38.000Z</time>
      </trkpt>
      <trkpt lat="42.294049" lon="3.259639">
        <ele>112</ele>
        <time>1970-01-01T00:46:39.000Z</time>
      </trkpt>
      <trkpt lat="42.294072" lon="3.259628">
        <ele>112</ele>
        <time>1970-01-01T00:46:40.000Z</time>
      </trkpt>
      <trkpt lat="42.294096" lon="3.259616">
        <ele>112</ele>
        <time>1970-01-01T00:46:41.000Z</time>
      </trkpt>
      <trkpt lat="42.294119" lon="3.259605">
        <ele>112</ele>
        <time>1970-01-01T00:46:42.000Z</time>
      </trkpt>
      <trkpt lat="42.294172" lon="3.259608">
        <ele>112</ele>
        <time>1970-01-01T00:46:43.000Z</time>
      </trkpt>
      <trkpt lat="42.294198" lon="3.259613">
        <ele>112</ele>
        <time>1970-01-01T00:46:44.000Z</time>
      </trkpt>
      <trkpt lat="42.294223" lon="3.259618">
        <ele>112</ele>
        <time>1970-01-01T00:46:45.000Z</time>
      </trkpt>
      <trkpt lat="42.294249" lon="3.259623">
        <ele>112</ele>
        <time>1970-01-01T00:46:46.000Z</time>
      </trkpt>
      <trkpt lat="42.294275" lon="3.259628">
        <ele>112</ele>
        <time>1970-01-01T00:46:47.000Z</time>
      </trkpt>
      <trkpt lat="42.294301" lon="3.259633">
        <ele>112</ele>
        <time>1970-01-01T00:46:48.000Z</time>
      </trkpt>
      <trkpt lat="42.294326" lon="3.259638">
        <ele>112</ele>
        <time>1970-01-01T00:46:50.000Z</time>
      </trkpt>
      <trkpt lat="42.294352" lon="3.259643">
        <ele>112</ele>
        <time>1970-01-01T00:46:51.000Z</time>
      </trkpt>
      <trkpt lat="42.294378" lon="3.259648">
        <ele>112</ele>
        <time>1970-01-01T00:46:52.000Z</time>
      </trkpt>
      <trkpt lat="42.294427" lon="3.259659">
        <ele>112</ele>
        <time>1970-01-01T00:46:53.000Z</time>
      </trkpt>
      <trkpt lat="42.29445" lon="3.259664">
        <ele>112</ele>
        <time>1970-01-01T00:46:54.000Z</time>
      </trkpt>
      <trkpt lat="42.294473" lon="3.259669">
        <ele>112</ele>
        <time>1970-01-01T00:46:55.000Z</time>
      </trkpt>
      <trkpt lat="42.294496" lon="3.259674">
        <ele>112</ele>
        <time>1970-01-01T00:46:56.000Z</time>
      </trkpt>
      <trkpt lat="42.29452" lon="3.259679">
        <ele>112</ele>
        <time>1970-01-01T00:46:57.000Z</time>
      </trkpt>
      <trkpt lat="42.294543" lon="3.259684">
        <ele>112</ele>
        <time>1970-01-01T00:46:58.000Z</time>
      </trkpt>
      <trkpt lat="42.294566" lon="3.259689">
        <ele>112</ele>
        <time>1970-01-01T00:46:59.000Z</time>
      </trkpt>
      <trkpt lat="42.294589" lon="3.259694">
        <ele>112</ele>
        <time>1970-01-01T00:47:00.000Z</time>
      </trkpt>
      <trkpt lat="42.294612" lon="3.259699">
        <ele>112</ele>
        <time>1970-01-01T00:47:01.000Z</time>
      </trkpt>
      <trkpt lat="42.294635" lon="3.259704">
        <ele>113</ele>
        <time>1970-01-01T00:47:02.000Z</time>
      </trkpt>
      <trkpt lat="42.294687" lon="3.259715">
        <ele>113</ele>
        <time>1970-01-01T00:47:03.000Z</time>
      </trkpt>
      <trkpt lat="42.294713" lon="3.25972">
        <ele>113</ele>
        <time>1970-01-01T00:47:04.000Z</time>
      </trkpt>
      <trkpt lat="42.294739" lon="3.259726">
        <ele>113</ele>
        <time>1970-01-01T00:47:05.000Z</time>
      </trkpt>
      <trkpt lat="42.294765" lon="3.259731">
        <ele>113</ele>
        <time>1970-01-01T00:47:06.000Z</time>
      </trkpt>
      <trkpt lat="42.294791" lon="3.259736">
        <ele>113</ele>
        <time>1970-01-01T00:47:07.000Z</time>
      </trkpt>
      <trkpt lat="42.294817" lon="3.259741">
        <ele>113</ele>
        <time>1970-01-01T00:47:09.000Z</time>
      </trkpt>
      <trkpt lat="42.294843" lon="3.259747">
        <ele>113</ele>
        <time>1970-01-01T00:47:10.000Z</time>
      </trkpt>
      <trkpt lat="42.294869" lon="3.259752">
        <ele>113</ele>
        <time>1970-01-01T00:47:11.000Z</time>
      </trkpt>
      <trkpt lat="42.294895" lon="3.259757">
        <ele>115</ele>
        <time>1970-01-01T00:47:12.000Z</time>
      </trkpt>
      <trkpt lat="42.29492" lon="3.259759">
        <ele>115</ele>
        <time>1970-01-01T00:47:13.000Z</time>
      </trkpt>
      <trkpt lat="42.294946" lon="3.259756">
        <ele>115</ele>
        <time>1970-01-01T00:47:14.000Z</time>
      </trkpt>
      <trkpt lat="42.294972" lon="3.259749">
        <ele>115</ele>
        <time>1970-01-01T00:47:15.000Z</time>
      </trkpt>
      <trkpt lat="42.295058" lon="3.259707">
        <ele>115</ele>
        <time>1970-01-01T00:47:18.000Z</time>
      </trkpt>
      <trkpt lat="42.295134" lon="3.259595">
        <ele>115</ele>
        <time>1970-01-01T00:47:22.000Z</time>
      </trkpt>
      <trkpt lat="42.29516" lon="3.259448">
        <ele>115</ele>
        <time>1970-01-01T00:47:26.000Z</time>
      </trkpt>
      <trkpt lat="42.295147" lon="3.259319">
        <ele>115</ele>
        <time>1970-01-01T00:47:29.000Z</time>
      </trkpt>
      <trkpt lat="42.295147" lon="3.259319">
        <ele>120</ele>
        <time>1970-01-01T00:47:32.000Z</time>
      </trkpt>
      <trkpt lat="42.295082" lon="3.259157">
        <ele>120</ele>
        <time>1970-01-01T00:47:33.000Z</time>
      </trkpt>
      <trkpt lat="42.295071" lon="3.259129">
        <ele>120</ele>
        <time>1970-01-01T00:47:34.000Z</time>
      </trkpt>
      <trkpt lat="42.29506" lon="3.259101">
        <ele>120</ele>
        <time>1970-01-01T00:47:35.000Z</time>
      </trkpt>
      <trkpt lat="42.295049" lon="3.259073">
        <ele>120</ele>
        <time>1970-01-01T00:47:36.000Z</time>
      </trkpt>
      <trkpt lat="42.295038" lon="3.259045">
        <ele>120</ele>
        <time>1970-01-01T00:47:37.000Z</time>
      </trkpt>
      <trkpt lat="42.295026" lon="3.259017">
        <ele>120</ele>
        <time>1970-01-01T00:47:38.000Z</time>
      </trkpt>
      <trkpt lat="42.295015" lon="3.258989">
        <ele>120</ele>
        <time>1970-01-01T00:47:39.000Z</time>
      </trkpt>
      <trkpt lat="42.295004" lon="3.258961">
        <ele>120</ele>
        <time>1970-01-01T00:47:40.000Z</time>
      </trkpt>
      <trkpt lat="42.294993" lon="3.258933">
        <ele>120</ele>
        <time>1970-01-01T00:47:41.000Z</time>
      </trkpt>
      <trkpt lat="42.294982" lon="3.258905">
        <ele>121</ele>
        <time>1970-01-01T00:47:42.000Z</time>
      </trkpt>
      <trkpt lat="42.294964" lon="3.258845">
        <ele>121</ele>
        <time>1970-01-01T00:47:43.000Z</time>
      </trkpt>
      <trkpt lat="42.294957" lon="3.258816">
        <ele>121</ele>
        <time>1970-01-01T00:47:44.000Z</time>
      </trkpt>
      <trkpt lat="42.294951" lon="3.258787">
        <ele>121</ele>
        <time>1970-01-01T00:47:45.000Z</time>
      </trkpt>
      <trkpt lat="42.294944" lon="3.258758">
        <ele>121</ele>
        <time>1970-01-01T00:47:46.000Z</time>
      </trkpt>
      <trkpt lat="42.294938" lon="3.258728">
        <ele>121</ele>
        <time>1970-01-01T00:47:47.000Z</time>
      </trkpt>
      <trkpt lat="42.294932" lon="3.258699">
        <ele>121</ele>
        <time>1970-01-01T00:47:48.000Z</time>
      </trkpt>
      <trkpt lat="42.294925" lon="3.25867">
        <ele>121</ele>
        <time>1970-01-01T00:47:49.000Z</time>
      </trkpt>
      <trkpt lat="42.294919" lon="3.258641">
        <ele>121</ele>
        <time>1970-01-01T00:47:50.000Z</time>
      </trkpt>
      <trkpt lat="42.294912" lon="3.258612">
        <ele>121</ele>
        <time>1970-01-01T00:47:51.000Z</time>
      </trkpt>
      <trkpt lat="42.294906" lon="3.258583">
        <ele>121</ele>
        <time>1970-01-01T00:47:52.000Z</time>
      </trkpt>
      <trkpt lat="42.294898" lon="3.258518">
        <ele>121</ele>
        <time>1970-01-01T00:47:53.000Z</time>
      </trkpt>
      <trkpt lat="42.294897" lon="3.258488">
        <ele>121</ele>
        <time>1970-01-01T00:47:54.000Z</time>
      </trkpt>
      <trkpt lat="42.294895" lon="3.258457">
        <ele>121</ele>
        <time>1970-01-01T00:47:55.000Z</time>
      </trkpt>
      <trkpt lat="42.294893" lon="3.258426">
        <ele>121</ele>
        <time>1970-01-01T00:47:56.000Z</time>
      </trkpt>
      <trkpt lat="42.294892" lon="3.258395">
        <ele>121</ele>
        <time>1970-01-01T00:47:57.000Z</time>
      </trkpt>
      <trkpt lat="42.29489" lon="3.258365">
        <ele>121</ele>
        <time>1970-01-01T00:47:58.000Z</time>
      </trkpt>
      <trkpt lat="42.294888" lon="3.258334">
        <ele>121</ele>
        <time>1970-01-01T00:47:59.000Z</time>
      </trkpt>
      <trkpt lat="42.294886" lon="3.258303">
        <ele>121</ele>
        <time>1970-01-01T00:48:00.000Z</time>
      </trkpt>
      <trkpt lat="42.294885" lon="3.258273">
        <ele>121</ele>
        <time>1970-01-01T00:48:01.000Z</time>
      </trkpt>
      <trkpt lat="42.294883" lon="3.258242">
        <ele>122</ele>
        <time>1970-01-01T00:48:02.000Z</time>
      </trkpt>
      <trkpt lat="42.2949" lon="3.258186">
        <ele>122</ele>
        <time>1970-01-01T00:48:03.000Z</time>
      </trkpt>
      <trkpt lat="42.294911" lon="3.258162">
        <ele>122</ele>
        <time>1970-01-01T00:48:04.000Z</time>
      </trkpt>
      <trkpt lat="42.294923" lon="3.258139">
        <ele>122</ele>
        <time>1970-01-01T00:48:05.000Z</time>
      </trkpt>
      <trkpt lat="42.294934" lon="3.258116">
        <ele>122</ele>
        <time>1970-01-01T00:48:06.000Z</time>
      </trkpt>
      <trkpt lat="42.294946" lon="3.258093">
        <ele>122</ele>
        <time>1970-01-01T00:48:07.000Z</time>
      </trkpt>
      <trkpt lat="42.294958" lon="3.258069">
        <ele>122</ele>
        <time>1970-01-01T00:48:08.000Z</time>
      </trkpt>
      <trkpt lat="42.294969" lon="3.258046">
        <ele>122</ele>
        <time>1970-01-01T00:48:09.000Z</time>
      </trkpt>
      <trkpt lat="42.294981" lon="3.258023">
        <ele>122</ele>
        <time>1970-01-01T00:48:10.000Z</time>
      </trkpt>
      <trkpt lat="42.294992" lon="3.257999">
        <ele>122</ele>
        <time>1970-01-01T00:48:11.000Z</time>
      </trkpt>
      <trkpt lat="42.295004" lon="3.257976">
        <ele>124</ele>
        <time>1970-01-01T00:48:12.000Z</time>
      </trkpt>
      <trkpt lat="42.295033" lon="3.257935">
        <ele>124</ele>
        <time>1970-01-01T00:48:13.000Z</time>
      </trkpt>
      <trkpt lat="42.295047" lon="3.257914">
        <ele>124</ele>
        <time>1970-01-01T00:48:14.000Z</time>
      </trkpt>
      <trkpt lat="42.29506" lon="3.257894">
        <ele>124</ele>
        <time>1970-01-01T00:48:15.000Z</time>
      </trkpt>
      <trkpt lat="42.295073" lon="3.257873">
        <ele>124</ele>
        <time>1970-01-01T00:48:16.000Z</time>
      </trkpt>
      <trkpt lat="42.295087" lon="3.257853">
        <ele>124</ele>
        <time>1970-01-01T00:48:17.000Z</time>
      </trkpt>
      <trkpt lat="42.2951" lon="3.257833">
        <ele>124</ele>
        <time>1970-01-01T00:48:18.000Z</time>
      </trkpt>
      <trkpt lat="42.295113" lon="3.257812">
        <ele>124</ele>
        <time>1970-01-01T00:48:19.000Z</time>
      </trkpt>
      <trkpt lat="42.295126" lon="3.257792">
        <ele>124</ele>
        <time>1970-01-01T00:48:20.000Z</time>
      </trkpt>
      <trkpt lat="42.29514" lon="3.257771">
        <ele>124</ele>
        <time>1970-01-01T00:48:21.000Z</time>
      </trkpt>
      <trkpt lat="42.295153" lon="3.257751">
        <ele>125</ele>
        <time>1970-01-01T00:48:22.000Z</time>
      </trkpt>
      <trkpt lat="42.295181" lon="3.257707">
        <ele>125</ele>
        <time>1970-01-01T00:48:23.000Z</time>
      </trkpt>
      <trkpt lat="42.295194" lon="3.257687">
        <ele>125</ele>
        <time>1970-01-01T00:48:24.000Z</time>
      </trkpt>
      <trkpt lat="42.295208" lon="3.257668">
        <ele>125</ele>
        <time>1970-01-01T00:48:25.000Z</time>
      </trkpt>
      <trkpt lat="42.295222" lon="3.257648">
        <ele>125</ele>
        <time>1970-01-01T00:48:26.000Z</time>
      </trkpt>
      <trkpt lat="42.295236" lon="3.257628">
        <ele>125</ele>
        <time>1970-01-01T00:48:27.000Z</time>
      </trkpt>
      <trkpt lat="42.295249" lon="3.257608">
        <ele>125</ele>
        <time>1970-01-01T00:48:28.000Z</time>
      </trkpt>
      <trkpt lat="42.295263" lon="3.257588">
        <ele>125</ele>
        <time>1970-01-01T00:48:29.000Z</time>
      </trkpt>
      <trkpt lat="42.295277" lon="3.257569">
        <ele>125</ele>
        <time>1970-01-01T00:48:30.000Z</time>
      </trkpt>
      <trkpt lat="42.29529" lon="3.257549">
        <ele>125</ele>
        <time>1970-01-01T00:48:31.000Z</time>
      </trkpt>
      <trkpt lat="42.295304" lon="3.257529">
        <ele>126</ele>
        <time>1970-01-01T00:48:32.000Z</time>
      </trkpt>
      <trkpt lat="42.295333" lon="3.257487">
        <ele>126</ele>
        <time>1970-01-01T00:48:33.000Z</time>
      </trkpt>
      <trkpt lat="42.295346" lon="3.257467">
        <ele>126</ele>
        <time>1970-01-01T00:48:34.000Z</time>
      </trkpt>
      <trkpt lat="42.29536" lon="3.257448">
        <ele>126</ele>
        <time>1970-01-01T00:48:35.000Z</time>
      </trkpt>
      <trkpt lat="42.295374" lon="3.257428">
        <ele>126</ele>
        <time>1970-01-01T00:48:36.000Z</time>
      </trkpt>
      <trkpt lat="42.295388" lon="3.257409">
        <ele>126</ele>
        <time>1970-01-01T00:48:37.000Z</time>
      </trkpt>
      <trkpt lat="42.295401" lon="3.257389">
        <ele>126</ele>
        <time>1970-01-01T00:48:38.000Z</time>
      </trkpt>
      <trkpt lat="42.295415" lon="3.25737">
        <ele>126</ele>
        <time>1970-01-01T00:48:39.000Z</time>
      </trkpt>
      <trkpt lat="42.295429" lon="3.25735">
        <ele>126</ele>
        <time>1970-01-01T00:48:40.000Z</time>
      </trkpt>
      <trkpt lat="42.295442" lon="3.257331">
        <ele>126</ele>
        <time>1970-01-01T00:48:41.000Z</time>
      </trkpt>
      <trkpt lat="42.295456" lon="3.257311">
        <ele>128</ele>
        <time>1970-01-01T00:48:42.000Z</time>
      </trkpt>
      <trkpt lat="42.295487" lon="3.257279">
        <ele>128</ele>
        <time>1970-01-01T00:48:43.000Z</time>
      </trkpt>
      <trkpt lat="42.295502" lon="3.257266">
        <ele>128</ele>
        <time>1970-01-01T00:48:44.000Z</time>
      </trkpt>
      <trkpt lat="42.295516" lon="3.257252">
        <ele>128</ele>
        <time>1970-01-01T00:48:45.000Z</time>
      </trkpt>
      <trkpt lat="42.295531" lon="3.257239">
        <ele>128</ele>
        <time>1970-01-01T00:48:46.000Z</time>
      </trkpt>
      <trkpt lat="42.295545" lon="3.257226">
        <ele>128</ele>
        <time>1970-01-01T00:48:47.000Z</time>
      </trkpt>
      <trkpt lat="42.29556" lon="3.257213">
        <ele>128</ele>
        <time>1970-01-01T00:48:48.000Z</time>
      </trkpt>
      <trkpt lat="42.295574" lon="3.257199">
        <ele>128</ele>
        <time>1970-01-01T00:48:49.000Z</time>
      </trkpt>
      <trkpt lat="42.295589" lon="3.257186">
        <ele>128</ele>
        <time>1970-01-01T00:48:50.000Z</time>
      </trkpt>
      <trkpt lat="42.295603" lon="3.257173">
        <ele>129</ele>
        <time>1970-01-01T00:48:52.000Z</time>
      </trkpt>
      <trkpt lat="42.295679" lon="3.257106">
        <ele>129</ele>
        <time>1970-01-01T00:48:54.000Z</time>
      </trkpt>
      <trkpt lat="42.295759" lon="3.257042">
        <ele>129</ele>
        <time>1970-01-01T00:48:58.000Z</time>
      </trkpt>
      <trkpt lat="42.295838" lon="3.256975">
        <ele>131</ele>
        <time>1970-01-01T00:49:02.000Z</time>
      </trkpt>
      <trkpt lat="42.295942" lon="3.256888">
        <ele>131</ele>
        <time>1970-01-01T00:49:06.000Z</time>
      </trkpt>
      <trkpt lat="42.295967" lon="3.256864">
        <ele>131</ele>
        <time>1970-01-01T00:49:10.000Z</time>
      </trkpt>
      <trkpt lat="42.295992" lon="3.256841">
        <ele>132</ele>
        <time>1970-01-01T00:49:12.000Z</time>
      </trkpt>
      <trkpt lat="42.296065" lon="3.256674">
        <ele>132</ele>
        <time>1970-01-01T00:49:14.000Z</time>
      </trkpt>
      <trkpt lat="42.296072" lon="3.256601">
        <ele>132</ele>
        <time>1970-01-01T00:49:18.000Z</time>
      </trkpt>
      <trkpt lat="42.29608" lon="3.256528">
        <ele>132</ele>
        <time>1970-01-01T00:49:22.000Z</time>
      </trkpt>
      <trkpt lat="42.296087" lon="3.256455">
        <ele>132</ele>
        <time>1970-01-01T00:49:23.000Z</time>
      </trkpt>
      <trkpt lat="42.296052" lon="3.256368">
        <ele>132</ele>
        <time>1970-01-01T00:49:25.000Z</time>
      </trkpt>
      <trkpt lat="42.296039" lon="3.256345">
        <ele>132</ele>
        <time>1970-01-01T00:49:26.000Z</time>
      </trkpt>
      <trkpt lat="42.296027" lon="3.256323">
        <ele>132</ele>
        <time>1970-01-01T00:49:27.000Z</time>
      </trkpt>
      <trkpt lat="42.296015" lon="3.256301">
        <ele>132</ele>
        <time>1970-01-01T00:49:28.000Z</time>
      </trkpt>
      <trkpt lat="42.296002" lon="3.256279">
        <ele>132</ele>
        <time>1970-01-01T00:49:29.000Z</time>
      </trkpt>
      <trkpt lat="42.29599" lon="3.256256">
        <ele>132</ele>
        <time>1970-01-01T00:49:30.000Z</time>
      </trkpt>
      <trkpt lat="42.295977" lon="3.256234">
        <ele>132</ele>
        <time>1970-01-01T00:49:31.000Z</time>
      </trkpt>
      <trkpt lat="42.295965" lon="3.256212">
        <ele>134</ele>
        <time>1970-01-01T00:49:32.000Z</time>
      </trkpt>
      <trkpt lat="42.295935" lon="3.256171">
        <ele>134</ele>
        <time>1970-01-01T00:49:33.000Z</time>
      </trkpt>
      <trkpt lat="42.295923" lon="3.256152">
        <ele>134</ele>
        <time>1970-01-01T00:49:34.000Z</time>
      </trkpt>
      <trkpt lat="42.29591" lon="3.256133">
        <ele>134</ele>
        <time>1970-01-01T00:49:35.000Z</time>
      </trkpt>
      <trkpt lat="42.295897" lon="3.256114">
        <ele>134</ele>
        <time>1970-01-01T00:49:36.000Z</time>
      </trkpt>
      <trkpt lat="42.295885" lon="3.256094">
        <ele>134</ele>
        <time>1970-01-01T00:49:37.000Z</time>
      </trkpt>
      <trkpt lat="42.295872" lon="3.256075">
        <ele>134</ele>
        <time>1970-01-01T00:49:38.000Z</time>
      </trkpt>
      <trkpt lat="42.295859" lon="3.256056">
        <ele>134</ele>
        <time>1970-01-01T00:49:39.000Z</time>
      </trkpt>
      <trkpt lat="42.295846" lon="3.256037">
        <ele>134</ele>
        <time>1970-01-01T00:49:40.000Z</time>
      </trkpt>
      <trkpt lat="42.295834" lon="3.256018">
        <ele>134</ele>
        <time>1970-01-01T00:49:41.000Z</time>
      </trkpt>
      <trkpt lat="42.295821" lon="3.255999">
        <ele>136</ele>
        <time>1970-01-01T00:49:42.000Z</time>
      </trkpt>
      <trkpt lat="42.29579" lon="3.255963">
        <ele>136</ele>
        <time>1970-01-01T00:49:43.000Z</time>
      </trkpt>
      <trkpt lat="42.295774" lon="3.255945">
        <ele>136</ele>
        <time>1970-01-01T00:49:45.000Z</time>
      </trkpt>
      <trkpt lat="42.295758" lon="3.255927">
        <ele>136</ele>
        <time>1970-01-01T00:49:47.000Z</time>
      </trkpt>
      <trkpt lat="42.295742" lon="3.255908">
        <ele>136</ele>
        <time>1970-01-01T00:49:48.000Z</time>
      </trkpt>
      <trkpt lat="42.295725" lon="3.25589">
        <ele>136</ele>
        <time>1970-01-01T00:49:49.000Z</time>
      </trkpt>
      <trkpt lat="42.295709" lon="3.255872">
        <ele>136</ele>
        <time>1970-01-01T00:49:50.000Z</time>
      </trkpt>
      <trkpt lat="42.295693" lon="3.255854">
        <ele>136</ele>
        <time>1970-01-01T00:49:51.000Z</time>
      </trkpt>
      <trkpt lat="42.295677" lon="3.255836">
        <ele>137</ele>
        <time>1970-01-01T00:49:52.000Z</time>
      </trkpt>
      <trkpt lat="42.295638" lon="3.255817">
        <ele>137</ele>
        <time>1970-01-01T00:49:53.000Z</time>
      </trkpt>
      <trkpt lat="42.295617" lon="3.255813">
        <ele>137</ele>
        <time>1970-01-01T00:49:54.000Z</time>
      </trkpt>
      <trkpt lat="42.295597" lon="3.255809">
        <ele>137</ele>
        <time>1970-01-01T00:49:55.000Z</time>
      </trkpt>
      <trkpt lat="42.295576" lon="3.255805">
        <ele>137</ele>
        <time>1970-01-01T00:49:56.000Z</time>
      </trkpt>
      <trkpt lat="42.295556" lon="3.255801">
        <ele>137</ele>
        <time>1970-01-01T00:49:57.000Z</time>
      </trkpt>
      <trkpt lat="42.295536" lon="3.255798">
        <ele>137</ele>
        <time>1970-01-01T00:49:58.000Z</time>
      </trkpt>
      <trkpt lat="42.295515" lon="3.255794">
        <ele>137</ele>
        <time>1970-01-01T00:49:59.000Z</time>
      </trkpt>
      <trkpt lat="42.295495" lon="3.25579">
        <ele>137</ele>
        <time>1970-01-01T00:50:00.000Z</time>
      </trkpt>
      <trkpt lat="42.295474" lon="3.255786">
        <ele>137</ele>
        <time>1970-01-01T00:50:01.000Z</time>
      </trkpt>
      <trkpt lat="42.295454" lon="3.255782">
        <ele>138</ele>
        <time>1970-01-01T00:50:02.000Z</time>
      </trkpt>
      <trkpt lat="42.295409" lon="3.255789">
        <ele>138</ele>
        <time>1970-01-01T00:50:03.000Z</time>
      </trkpt>
      <trkpt lat="42.295388" lon="3.255793">
        <ele>138</ele>
        <time>1970-01-01T00:50:04.000Z</time>
      </trkpt>
      <trkpt lat="42.295367" lon="3.255796">
        <ele>138</ele>
        <time>1970-01-01T00:50:05.000Z</time>
      </trkpt>
      <trkpt lat="42.295346" lon="3.2558">
        <ele>138</ele>
        <time>1970-01-01T00:50:06.000Z</time>
      </trkpt>
      <trkpt lat="42.295325" lon="3.255804">
        <ele>138</ele>
        <time>1970-01-01T00:50:07.000Z</time>
      </trkpt>
      <trkpt lat="42.295303" lon="3.255808">
        <ele>138</ele>
        <time>1970-01-01T00:50:08.000Z</time>
      </trkpt>
      <trkpt lat="42.295282" lon="3.255812">
        <ele>138</ele>
        <time>1970-01-01T00:50:09.000Z</time>
      </trkpt>
      <trkpt lat="42.295261" lon="3.255815">
        <ele>138</ele>
        <time>1970-01-01T00:50:10.000Z</time>
      </trkpt>
      <trkpt lat="42.29524" lon="3.255819">
        <ele>138</ele>
        <time>1970-01-01T00:50:11.000Z</time>
      </trkpt>
      <trkpt lat="42.295219" lon="3.255823">
        <ele>138</ele>
        <time>1970-01-01T00:50:12.000Z</time>
      </trkpt>
      <trkpt lat="42.295174" lon="3.25583">
        <ele>138</ele>
        <time>1970-01-01T00:50:13.000Z</time>
      </trkpt>
      <trkpt lat="42.295153" lon="3.255833">
        <ele>138</ele>
        <time>1970-01-01T00:50:14.000Z</time>
      </trkpt>
      <trkpt lat="42.295133" lon="3.255836">
        <ele>138</ele>
        <time>1970-01-01T00:50:15.000Z</time>
      </trkpt>
      <trkpt lat="42.295112" lon="3.255839">
        <ele>138</ele>
        <time>1970-01-01T00:50:16.000Z</time>
      </trkpt>
      <trkpt lat="42.295091" lon="3.255842">
        <ele>138</ele>
        <time>1970-01-01T00:50:17.000Z</time>
      </trkpt>
      <trkpt lat="42.29507" lon="3.255845">
        <ele>138</ele>
        <time>1970-01-01T00:50:18.000Z</time>
      </trkpt>
      <trkpt lat="42.295049" lon="3.255848">
        <ele>138</ele>
        <time>1970-01-01T00:50:19.000Z</time>
      </trkpt>
      <trkpt lat="42.295029" lon="3.255851">
        <ele>138</ele>
        <time>1970-01-01T00:50:20.000Z</time>
      </trkpt>
      <trkpt lat="42.295008" lon="3.255854">
        <ele>138</ele>
        <time>1970-01-01T00:50:21.000Z</time>
      </trkpt>
      <trkpt lat="42.294987" lon="3.255857">
        <ele>139</ele>
        <time>1970-01-01T00:50:22.000Z</time>
      </trkpt>
      <trkpt lat="42.294941" lon="3.255862">
        <ele>139</ele>
        <time>1970-01-01T00:50:23.000Z</time>
      </trkpt>
      <trkpt lat="42.294919" lon="3.255865">
        <ele>139</ele>
        <time>1970-01-01T00:50:24.000Z</time>
      </trkpt>
      <trkpt lat="42.294897" lon="3.255868">
        <ele>139</ele>
        <time>1970-01-01T00:50:25.000Z</time>
      </trkpt>
      <trkpt lat="42.294875" lon="3.255871">
        <ele>139</ele>
        <time>1970-01-01T00:50:26.000Z</time>
      </trkpt>
      <trkpt lat="42.294853" lon="3.255874">
        <ele>139</ele>
        <time>1970-01-01T00:50:27.000Z</time>
      </trkpt>
      <trkpt lat="42.29483" lon="3.255876">
        <ele>139</ele>
        <time>1970-01-01T00:50:28.000Z</time>
      </trkpt>
      <trkpt lat="42.294808" lon="3.255879">
        <ele>139</ele>
        <time>1970-01-01T00:50:29.000Z</time>
      </trkpt>
      <trkpt lat="42.294786" lon="3.255882">
        <ele>139</ele>
        <time>1970-01-01T00:50:30.000Z</time>
      </trkpt>
      <trkpt lat="42.294764" lon="3.255885">
        <ele>139</ele>
        <time>1970-01-01T00:50:31.000Z</time>
      </trkpt>
      <trkpt lat="42.294742" lon="3.255888">
        <ele>141</ele>
        <time>1970-01-01T00:50:32.000Z</time>
      </trkpt>
      <trkpt lat="42.294694" lon="3.255894">
        <ele>141</ele>
        <time>1970-01-01T00:50:33.000Z</time>
      </trkpt>
      <trkpt lat="42.29467" lon="3.255896">
        <ele>141</ele>
        <time>1970-01-01T00:50:34.000Z</time>
      </trkpt>
      <trkpt lat="42.294647" lon="3.255899">
        <ele>141</ele>
        <time>1970-01-01T00:50:35.000Z</time>
      </trkpt>
      <trkpt lat="42.294623" lon="3.255902">
        <ele>141</ele>
        <time>1970-01-01T00:50:36.000Z</time>
      </trkpt>
      <trkpt lat="42.2946" lon="3.255905">
        <ele>141</ele>
        <time>1970-01-01T00:50:37.000Z</time>
      </trkpt>
      <trkpt lat="42.294577" lon="3.255907">
        <ele>141</ele>
        <time>1970-01-01T00:50:38.000Z</time>
      </trkpt>
      <trkpt lat="42.294553" lon="3.25591">
        <ele>141</ele>
        <time>1970-01-01T00:50:39.000Z</time>
      </trkpt>
      <trkpt lat="42.29453" lon="3.255913">
        <ele>141</ele>
        <time>1970-01-01T00:50:40.000Z</time>
      </trkpt>
      <trkpt lat="42.294506" lon="3.255915">
        <ele>141</ele>
        <time>1970-01-01T00:50:41.000Z</time>
      </trkpt>
      <trkpt lat="42.294483" lon="3.255918">
        <ele>143</ele>
        <time>1970-01-01T00:50:42.000Z</time>
      </trkpt>
      <trkpt lat="42.294433" lon="3.25592">
        <ele>143</ele>
        <time>1970-01-01T00:50:43.000Z</time>
      </trkpt>
      <trkpt lat="42.294411" lon="3.255919">
        <ele>143</ele>
        <time>1970-01-01T00:50:44.000Z</time>
      </trkpt>
      <trkpt lat="42.294388" lon="3.255917">
        <ele>143</ele>
        <time>1970-01-01T00:50:45.000Z</time>
      </trkpt>
      <trkpt lat="42.294366" lon="3.255916">
        <ele>143</ele>
        <time>1970-01-01T00:50:46.000Z</time>
      </trkpt>
      <trkpt lat="42.294343" lon="3.255915">
        <ele>143</ele>
        <time>1970-01-01T00:50:47.000Z</time>
      </trkpt>
      <trkpt lat="42.29432" lon="3.255914">
        <ele>143</ele>
        <time>1970-01-01T00:50:48.000Z</time>
      </trkpt>
      <trkpt lat="42.294298" lon="3.255913">
        <ele>143</ele>
        <time>1970-01-01T00:50:49.000Z</time>
      </trkpt>
      <trkpt lat="42.294275" lon="3.255911">
        <ele>143</ele>
        <time>1970-01-01T00:50:50.000Z</time>
      </trkpt>
      <trkpt lat="42.294253" lon="3.25591">
        <ele>143</ele>
        <time>1970-01-01T00:50:51.000Z</time>
      </trkpt>
      <trkpt lat="42.29423" lon="3.255909">
        <ele>144</ele>
        <time>1970-01-01T00:50:52.000Z</time>
      </trkpt>
      <trkpt lat="42.294191" lon="3.255883">
        <ele>144</ele>
        <time>1970-01-01T00:50:53.000Z</time>
      </trkpt>
      <trkpt lat="42.294176" lon="3.255865">
        <ele>144</ele>
        <time>1970-01-01T00:50:54.000Z</time>
      </trkpt>
      <trkpt lat="42.294162" lon="3.255848">
        <ele>144</ele>
        <time>1970-01-01T00:50:55.000Z</time>
      </trkpt>
      <trkpt lat="42.294147" lon="3.25583">
        <ele>144</ele>
        <time>1970-01-01T00:50:56.000Z</time>
      </trkpt>
      <trkpt lat="42.294133" lon="3.255812">
        <ele>144</ele>
        <time>1970-01-01T00:50:57.000Z</time>
      </trkpt>
      <trkpt lat="42.294119" lon="3.255794">
        <ele>144</ele>
        <time>1970-01-01T00:50:58.000Z</time>
      </trkpt>
      <trkpt lat="42.294104" lon="3.255776">
        <ele>144</ele>
        <time>1970-01-01T00:50:59.000Z</time>
      </trkpt>
      <trkpt lat="42.29409" lon="3.255759">
        <ele>144</ele>
        <time>1970-01-01T00:51:00.000Z</time>
      </trkpt>
      <trkpt lat="42.294075" lon="3.255741">
        <ele>144</ele>
        <time>1970-01-01T00:51:01.000Z</time>
      </trkpt>
      <trkpt lat="42.294061" lon="3.255723">
        <ele>145</ele>
        <time>1970-01-01T00:51:02.000Z</time>
      </trkpt>
      <trkpt lat="42.294053" lon="3.255667">
        <ele>145</ele>
        <time>1970-01-01T00:51:03.000Z</time>
      </trkpt>
      <trkpt lat="42.294052" lon="3.255639">
        <ele>145</ele>
        <time>1970-01-01T00:51:04.000Z</time>
      </trkpt>
      <trkpt lat="42.29405" lon="3.255611">
        <ele>145</ele>
        <time>1970-01-01T00:51:05.000Z</time>
      </trkpt>
      <trkpt lat="42.294048" lon="3.255583">
        <ele>145</ele>
        <time>1970-01-01T00:51:06.000Z</time>
      </trkpt>
      <trkpt lat="42.294047" lon="3.255555">
        <ele>145</ele>
        <time>1970-01-01T00:51:07.000Z</time>
      </trkpt>
      <trkpt lat="42.294045" lon="3.255527">
        <ele>145</ele>
        <time>1970-01-01T00:51:08.000Z</time>
      </trkpt>
      <trkpt lat="42.294043" lon="3.255499">
        <ele>145</ele>
        <time>1970-01-01T00:51:09.000Z</time>
      </trkpt>
      <trkpt lat="42.294041" lon="3.255471">
        <ele>145</ele>
        <time>1970-01-01T00:51:10.000Z</time>
      </trkpt>
      <trkpt lat="42.29404" lon="3.255443">
        <ele>145</ele>
        <time>1970-01-01T00:51:11.000Z</time>
      </trkpt>
      <trkpt lat="42.294038" lon="3.255415">
        <ele>147</ele>
        <time>1970-01-01T00:51:12.000Z</time>
      </trkpt>
      <trkpt lat="42.294025" lon="3.25527">
        <ele>147</ele>
        <time>1970-01-01T00:51:15.000Z</time>
      </trkpt>
      <trkpt lat="42.29402" lon="3.255231">
        <ele>147</ele>
        <time>1970-01-01T00:51:19.000Z</time>
      </trkpt>
      <trkpt lat="42.294016" lon="3.255191">
        <ele>147</ele>
        <time>1970-01-01T00:51:20.000Z</time>
      </trkpt>
      <trkpt lat="42.294011" lon="3.255152">
        <ele>147</ele>
        <time>1970-01-01T00:51:21.000Z</time>
      </trkpt>
      <trkpt lat="42.294007" lon="3.255112">
        <ele>149</ele>
        <time>1970-01-01T00:51:22.000Z</time>
      </trkpt>
      <trkpt lat="42.293993" lon="3.255066">
        <ele>149</ele>
        <time>1970-01-01T00:51:23.000Z</time>
      </trkpt>
      <trkpt lat="42.293983" lon="3.255046">
        <ele>149</ele>
        <time>1970-01-01T00:51:24.000Z</time>
      </trkpt>
      <trkpt lat="42.293972" lon="3.255027">
        <ele>149</ele>
        <time>1970-01-01T00:51:25.000Z</time>
      </trkpt>
      <trkpt lat="42.293962" lon="3.255007">
        <ele>149</ele>
        <time>1970-01-01T00:51:26.000Z</time>
      </trkpt>
      <trkpt lat="42.293951" lon="3.254987">
        <ele>149</ele>
        <time>1970-01-01T00:51:27.000Z</time>
      </trkpt>
      <trkpt lat="42.29394" lon="3.254967">
        <ele>149</ele>
        <time>1970-01-01T00:51:28.000Z</time>
      </trkpt>
      <trkpt lat="42.29393" lon="3.254947">
        <ele>149</ele>
        <time>1970-01-01T00:51:29.000Z</time>
      </trkpt>
      <trkpt lat="42.293919" lon="3.254928">
        <ele>149</ele>
        <time>1970-01-01T00:51:30.000Z</time>
      </trkpt>
      <trkpt lat="42.293909" lon="3.254908">
        <ele>149</ele>
        <time>1970-01-01T00:51:31.000Z</time>
      </trkpt>
      <trkpt lat="42.293898" lon="3.254888">
        <ele>151</ele>
        <time>1970-01-01T00:51:32.000Z</time>
      </trkpt>
      <trkpt lat="42.293858" lon="3.254869">
        <ele>151</ele>
        <time>1970-01-01T00:51:33.000Z</time>
      </trkpt>
      <trkpt lat="42.293836" lon="3.254865">
        <ele>151</ele>
        <time>1970-01-01T00:51:34.000Z</time>
      </trkpt>
      <trkpt lat="42.293815" lon="3.254862">
        <ele>151</ele>
        <time>1970-01-01T00:51:35.000Z</time>
      </trkpt>
      <trkpt lat="42.293793" lon="3.254858">
        <ele>151</ele>
        <time>1970-01-01T00:51:36.000Z</time>
      </trkpt>
      <trkpt lat="42.293772" lon="3.254855">
        <ele>151</ele>
        <time>1970-01-01T00:51:37.000Z</time>
      </trkpt>
      <trkpt lat="42.293751" lon="3.254852">
        <ele>151</ele>
        <time>1970-01-01T00:51:38.000Z</time>
      </trkpt>
      <trkpt lat="42.293729" lon="3.254848">
        <ele>151</ele>
        <time>1970-01-01T00:51:39.000Z</time>
      </trkpt>
      <trkpt lat="42.293708" lon="3.254845">
        <ele>151</ele>
        <time>1970-01-01T00:51:40.000Z</time>
      </trkpt>
      <trkpt lat="42.293686" lon="3.254841">
        <ele>151</ele>
        <time>1970-01-01T00:51:41.000Z</time>
      </trkpt>
      <trkpt lat="42.293665" lon="3.254838">
        <ele>151</ele>
        <time>1970-01-01T00:51:42.000Z</time>
      </trkpt>
      <trkpt lat="42.293616" lon="3.254842">
        <ele>151</ele>
        <time>1970-01-01T00:51:43.000Z</time>
      </trkpt>
      <trkpt lat="42.293594" lon="3.254844">
        <ele>151</ele>
        <time>1970-01-01T00:51:44.000Z</time>
      </trkpt>
      <trkpt lat="42.293572" lon="3.254847">
        <ele>151</ele>
        <time>1970-01-01T00:51:45.000Z</time>
      </trkpt>
      <trkpt lat="42.29355" lon="3.254849">
        <ele>151</ele>
        <time>1970-01-01T00:51:46.000Z</time>
      </trkpt>
      <trkpt lat="42.293529" lon="3.254851">
        <ele>151</ele>
        <time>1970-01-01T00:51:47.000Z</time>
      </trkpt>
      <trkpt lat="42.293507" lon="3.254853">
        <ele>151</ele>
        <time>1970-01-01T00:51:48.000Z</time>
      </trkpt>
      <trkpt lat="42.293485" lon="3.254855">
        <ele>151</ele>
        <time>1970-01-01T00:51:49.000Z</time>
      </trkpt>
      <trkpt lat="42.293463" lon="3.254858">
        <ele>151</ele>
        <time>1970-01-01T00:51:50.000Z</time>
      </trkpt>
      <trkpt lat="42.293441" lon="3.25486">
        <ele>151</ele>
        <time>1970-01-01T00:51:51.000Z</time>
      </trkpt>
      <trkpt lat="42.293419" lon="3.254862">
        <ele>153</ele>
        <time>1970-01-01T00:51:52.000Z</time>
      </trkpt>
      <trkpt lat="42.293376" lon="3.254851">
        <ele>153</ele>
        <time>1970-01-01T00:51:53.000Z</time>
      </trkpt>
      <trkpt lat="42.293358" lon="3.254841">
        <ele>153</ele>
        <time>1970-01-01T00:51:54.000Z</time>
      </trkpt>
      <trkpt lat="42.293339" lon="3.254831">
        <ele>153</ele>
        <time>1970-01-01T00:51:55.000Z</time>
      </trkpt>
      <trkpt lat="42.293321" lon="3.254821">
        <ele>153</ele>
        <time>1970-01-01T00:51:56.000Z</time>
      </trkpt>
      <trkpt lat="42.293302" lon="3.254811">
        <ele>153</ele>
        <time>1970-01-01T00:51:57.000Z</time>
      </trkpt>
      <trkpt lat="42.293283" lon="3.254801">
        <ele>153</ele>
        <time>1970-01-01T00:51:58.000Z</time>
      </trkpt>
      <trkpt lat="42.293265" lon="3.254791">
        <ele>153</ele>
        <time>1970-01-01T00:51:59.000Z</time>
      </trkpt>
      <trkpt lat="42.293246" lon="3.254781">
        <ele>153</ele>
        <time>1970-01-01T00:52:00.000Z</time>
      </trkpt>
      <trkpt lat="42.293228" lon="3.254771">
        <ele>153</ele>
        <time>1970-01-01T00:52:01.000Z</time>
      </trkpt>
      <trkpt lat="42.293209" lon="3.254761">
        <ele>153</ele>
        <time>1970-01-01T00:52:02.000Z</time>
      </trkpt>
      <trkpt lat="42.293181" lon="3.254722">
        <ele>153</ele>
        <time>1970-01-01T00:52:03.000Z</time>
      </trkpt>
      <trkpt lat="42.293172" lon="3.254699">
        <ele>153</ele>
        <time>1970-01-01T00:52:04.000Z</time>
      </trkpt>
      <trkpt lat="42.293163" lon="3.254675">
        <ele>153</ele>
        <time>1970-01-01T00:52:05.000Z</time>
      </trkpt>
      <trkpt lat="42.293154" lon="3.254652">
        <ele>153</ele>
        <time>1970-01-01T00:52:06.000Z</time>
      </trkpt>
      <trkpt lat="42.293146" lon="3.254629">
        <ele>153</ele>
        <time>1970-01-01T00:52:07.000Z</time>
      </trkpt>
      <trkpt lat="42.293137" lon="3.254606">
        <ele>153</ele>
        <time>1970-01-01T00:52:08.000Z</time>
      </trkpt>
      <trkpt lat="42.293128" lon="3.254583">
        <ele>153</ele>
        <time>1970-01-01T00:52:09.000Z</time>
      </trkpt>
      <trkpt lat="42.293119" lon="3.254559">
        <ele>153</ele>
        <time>1970-01-01T00:52:10.000Z</time>
      </trkpt>
      <trkpt lat="42.29311" lon="3.254536">
        <ele>153</ele>
        <time>1970-01-01T00:52:11.000Z</time>
      </trkpt>
      <trkpt lat="42.293101" lon="3.254513">
        <ele>155</ele>
        <time>1970-01-01T00:52:12.000Z</time>
      </trkpt>
      <trkpt lat="42.293097" lon="3.254456">
        <ele>155</ele>
        <time>1970-01-01T00:52:13.000Z</time>
      </trkpt>
      <trkpt lat="42.293096" lon="3.254429">
        <ele>155</ele>
        <time>1970-01-01T00:52:14.000Z</time>
      </trkpt>
      <trkpt lat="42.293094" lon="3.254402">
        <ele>155</ele>
        <time>1970-01-01T00:52:15.000Z</time>
      </trkpt>
      <trkpt lat="42.293093" lon="3.254375">
        <ele>155</ele>
        <time>1970-01-01T00:52:16.000Z</time>
      </trkpt>
      <trkpt lat="42.293091" lon="3.254348">
        <ele>155</ele>
        <time>1970-01-01T00:52:17.000Z</time>
      </trkpt>
      <trkpt lat="42.293089" lon="3.254322">
        <ele>155</ele>
        <time>1970-01-01T00:52:18.000Z</time>
      </trkpt>
      <trkpt lat="42.293088" lon="3.254295">
        <ele>155</ele>
        <time>1970-01-01T00:52:19.000Z</time>
      </trkpt>
      <trkpt lat="42.293086" lon="3.254268">
        <ele>155</ele>
        <time>1970-01-01T00:52:20.000Z</time>
      </trkpt>
      <trkpt lat="42.293085" lon="3.254241">
        <ele>155</ele>
        <time>1970-01-01T00:52:21.000Z</time>
      </trkpt>
      <trkpt lat="42.293083" lon="3.254214">
        <ele>156</ele>
        <time>1970-01-01T00:52:22.000Z</time>
      </trkpt>
      <trkpt lat="42.293078" lon="3.254154">
        <ele>156</ele>
        <time>1970-01-01T00:52:23.000Z</time>
      </trkpt>
      <trkpt lat="42.293076" lon="3.254122">
        <ele>156</ele>
        <time>1970-01-01T00:52:24.000Z</time>
      </trkpt>
      <trkpt lat="42.293074" lon="3.254091">
        <ele>156</ele>
        <time>1970-01-01T00:52:25.000Z</time>
      </trkpt>
      <trkpt lat="42.293072" lon="3.25406">
        <ele>156</ele>
        <time>1970-01-01T00:52:26.000Z</time>
      </trkpt>
      <trkpt lat="42.29307" lon="3.254029">
        <ele>156</ele>
        <time>1970-01-01T00:52:27.000Z</time>
      </trkpt>
      <trkpt lat="42.293068" lon="3.253997">
        <ele>156</ele>
        <time>1970-01-01T00:52:28.000Z</time>
      </trkpt>
      <trkpt lat="42.293066" lon="3.253966">
        <ele>156</ele>
        <time>1970-01-01T00:52:29.000Z</time>
      </trkpt>
      <trkpt lat="42.293064" lon="3.253935">
        <ele>156</ele>
        <time>1970-01-01T00:52:30.000Z</time>
      </trkpt>
      <trkpt lat="42.293062" lon="3.253904">
        <ele>156</ele>
        <time>1970-01-01T00:52:31.000Z</time>
      </trkpt>
      <trkpt lat="42.29306" lon="3.253872">
        <ele>156</ele>
        <time>1970-01-01T00:52:32.000Z</time>
      </trkpt>
      <trkpt lat="42.293058" lon="3.253841">
        <ele>158</ele>
        <time>1970-01-01T00:52:33.000Z</time>
      </trkpt>
      <trkpt lat="42.293054" lon="3.253773">
        <ele>158</ele>
        <time>1970-01-01T00:52:34.000Z</time>
      </trkpt>
      <trkpt lat="42.293052" lon="3.25374">
        <ele>158</ele>
        <time>1970-01-01T00:52:35.000Z</time>
      </trkpt>
      <trkpt lat="42.293049" lon="3.253707">
        <ele>158</ele>
        <time>1970-01-01T00:52:36.000Z</time>
      </trkpt>
      <trkpt lat="42.293047" lon="3.253674">
        <ele>158</ele>
        <time>1970-01-01T00:52:37.000Z</time>
      </trkpt>
      <trkpt lat="42.293045" lon="3.25364">
        <ele>158</ele>
        <time>1970-01-01T00:52:38.000Z</time>
      </trkpt>
      <trkpt lat="42.293043" lon="3.253607">
        <ele>158</ele>
        <time>1970-01-01T00:52:39.000Z</time>
      </trkpt>
      <trkpt lat="42.29304" lon="3.253574">
        <ele>158</ele>
        <time>1970-01-01T00:52:40.000Z</time>
      </trkpt>
      <trkpt lat="42.293038" lon="3.253541">
        <ele>158</ele>
        <time>1970-01-01T00:52:41.000Z</time>
      </trkpt>
      <trkpt lat="42.293036" lon="3.253508">
        <ele>158</ele>
        <time>1970-01-01T00:52:42.000Z</time>
      </trkpt>
      <trkpt lat="42.293034" lon="3.253436">
        <ele>158</ele>
        <time>1970-01-01T00:52:43.000Z</time>
      </trkpt>
      <trkpt lat="42.293034" lon="3.253402">
        <ele>158</ele>
        <time>1970-01-01T00:52:44.000Z</time>
      </trkpt>
      <trkpt lat="42.293033" lon="3.253367">
        <ele>158</ele>
        <time>1970-01-01T00:52:45.000Z</time>
      </trkpt>
      <trkpt lat="42.293033" lon="3.253333">
        <ele>158</ele>
        <time>1970-01-01T00:52:46.000Z</time>
      </trkpt>
      <trkpt lat="42.293033" lon="3.253299">
        <ele>158</ele>
        <time>1970-01-01T00:52:47.000Z</time>
      </trkpt>
      <trkpt lat="42.293033" lon="3.253265">
        <ele>158</ele>
        <time>1970-01-01T00:52:48.000Z</time>
      </trkpt>
      <trkpt lat="42.293033" lon="3.253231">
        <ele>158</ele>
        <time>1970-01-01T00:52:49.000Z</time>
      </trkpt>
      <trkpt lat="42.293032" lon="3.253196">
        <ele>158</ele>
        <time>1970-01-01T00:52:50.000Z</time>
      </trkpt>
      <trkpt lat="42.293032" lon="3.253162">
        <ele>158</ele>
        <time>1970-01-01T00:52:51.000Z</time>
      </trkpt>
      <trkpt lat="42.293032" lon="3.253128">
        <ele>160</ele>
        <time>1970-01-01T00:52:52.000Z</time>
      </trkpt>
      <trkpt lat="42.29304" lon="3.253057">
        <ele>160</ele>
        <time>1970-01-01T00:52:53.000Z</time>
      </trkpt>
      <trkpt lat="42.293045" lon="3.253023">
        <ele>160</ele>
        <time>1970-01-01T00:52:54.000Z</time>
      </trkpt>
      <trkpt lat="42.293049" lon="3.25299">
        <ele>160</ele>
        <time>1970-01-01T00:52:55.000Z</time>
      </trkpt>
      <trkpt lat="42.293054" lon="3.252956">
        <ele>160</ele>
        <time>1970-01-01T00:52:56.000Z</time>
      </trkpt>
      <trkpt lat="42.293059" lon="3.252922">
        <ele>160</ele>
        <time>1970-01-01T00:52:57.000Z</time>
      </trkpt>
      <trkpt lat="42.293064" lon="3.252888">
        <ele>160</ele>
        <time>1970-01-01T00:52:58.000Z</time>
      </trkpt>
      <trkpt lat="42.293069" lon="3.252854">
        <ele>160</ele>
        <time>1970-01-01T00:52:59.000Z</time>
      </trkpt>
      <trkpt lat="42.293073" lon="3.252821">
        <ele>160</ele>
        <time>1970-01-01T00:53:00.000Z</time>
      </trkpt>
      <trkpt lat="42.293078" lon="3.252787">
        <ele>160</ele>
        <time>1970-01-01T00:53:01.000Z</time>
      </trkpt>
      <trkpt lat="42.293083" lon="3.252753">
        <ele>162</ele>
        <time>1970-01-01T00:53:02.000Z</time>
      </trkpt>
      <trkpt lat="42.293099" lon="3.252687">
        <ele>162</ele>
        <time>1970-01-01T00:53:03.000Z</time>
      </trkpt>
      <trkpt lat="42.293108" lon="3.252657">
        <ele>162</ele>
        <time>1970-01-01T00:53:04.000Z</time>
      </trkpt>
      <trkpt lat="42.293118" lon="3.252626">
        <ele>162</ele>
        <time>1970-01-01T00:53:05.000Z</time>
      </trkpt>
      <trkpt lat="42.293127" lon="3.252595">
        <ele>162</ele>
        <time>1970-01-01T00:53:06.000Z</time>
      </trkpt>
      <trkpt lat="42.293136" lon="3.252565">
        <ele>162</ele>
        <time>1970-01-01T00:53:07.000Z</time>
      </trkpt>
      <trkpt lat="42.293145" lon="3.252534">
        <ele>162</ele>
        <time>1970-01-01T00:53:08.000Z</time>
      </trkpt>
      <trkpt lat="42.293154" lon="3.252503">
        <ele>162</ele>
        <time>1970-01-01T00:53:09.000Z</time>
      </trkpt>
      <trkpt lat="42.293164" lon="3.252472">
        <ele>162</ele>
        <time>1970-01-01T00:53:10.000Z</time>
      </trkpt>
      <trkpt lat="42.293173" lon="3.252442">
        <ele>162</ele>
        <time>1970-01-01T00:53:11.000Z</time>
      </trkpt>
      <trkpt lat="42.293182" lon="3.252411">
        <ele>163</ele>
        <time>1970-01-01T00:53:12.000Z</time>
      </trkpt>
      <trkpt lat="42.293206" lon="3.252353">
        <ele>163</ele>
        <time>1970-01-01T00:53:13.000Z</time>
      </trkpt>
      <trkpt lat="42.293218" lon="3.252324">
        <ele>163</ele>
        <time>1970-01-01T00:53:14.000Z</time>
      </trkpt>
      <trkpt lat="42.293229" lon="3.252296">
        <ele>163</ele>
        <time>1970-01-01T00:53:15.000Z</time>
      </trkpt>
      <trkpt lat="42.293241" lon="3.252267">
        <ele>163</ele>
        <time>1970-01-01T00:53:16.000Z</time>
      </trkpt>
      <trkpt lat="42.293253" lon="3.252239">
        <ele>163</ele>
        <time>1970-01-01T00:53:17.000Z</time>
      </trkpt>
      <trkpt lat="42.293265" lon="3.252211">
        <ele>163</ele>
        <time>1970-01-01T00:53:18.000Z</time>
      </trkpt>
      <trkpt lat="42.293277" lon="3.252182">
        <ele>163</ele>
        <time>1970-01-01T00:53:19.000Z</time>
      </trkpt>
      <trkpt lat="42.293288" lon="3.252154">
        <ele>163</ele>
        <time>1970-01-01T00:53:20.000Z</time>
      </trkpt>
      <trkpt lat="42.2933" lon="3.252125">
        <ele>163</ele>
        <time>1970-01-01T00:53:21.000Z</time>
      </trkpt>
      <trkpt lat="42.293312" lon="3.252097">
        <ele>164</ele>
        <time>1970-01-01T00:53:22.000Z</time>
      </trkpt>
      <trkpt lat="42.293339" lon="3.25203">
        <ele>164</ele>
        <time>1970-01-01T00:53:23.000Z</time>
      </trkpt>
      <trkpt lat="42.293352" lon="3.251997">
        <ele>164</ele>
        <time>1970-01-01T00:53:24.000Z</time>
      </trkpt>
      <trkpt lat="42.293366" lon="3.251965">
        <ele>164</ele>
        <time>1970-01-01T00:53:25.000Z</time>
      </trkpt>
      <trkpt lat="42.293379" lon="3.251932">
        <ele>164</ele>
        <time>1970-01-01T00:53:26.000Z</time>
      </trkpt>
      <trkpt lat="42.293393" lon="3.251899">
        <ele>164</ele>
        <time>1970-01-01T00:53:27.000Z</time>
      </trkpt>
      <trkpt lat="42.293407" lon="3.251866">
        <ele>164</ele>
        <time>1970-01-01T00:53:28.000Z</time>
      </trkpt>
      <trkpt lat="42.29342" lon="3.251833">
        <ele>164</ele>
        <time>1970-01-01T00:53:29.000Z</time>
      </trkpt>
      <trkpt lat="42.293434" lon="3.251801">
        <ele>164</ele>
        <time>1970-01-01T00:53:30.000Z</time>
      </trkpt>
      <trkpt lat="42.293447" lon="3.251768">
        <ele>164</ele>
        <time>1970-01-01T00:53:31.000Z</time>
      </trkpt>
      <trkpt lat="42.293461" lon="3.251735">
        <ele>164</ele>
        <time>1970-01-01T00:53:32.000Z</time>
      </trkpt>
      <trkpt lat="42.293481" lon="3.251653">
        <ele>164</ele>
        <time>1970-01-01T00:53:33.000Z</time>
      </trkpt>
      <trkpt lat="42.293488" lon="3.251609">
        <ele>164</ele>
        <time>1970-01-01T00:53:34.000Z</time>
      </trkpt>
      <trkpt lat="42.293496" lon="3.251564">
        <ele>164</ele>
        <time>1970-01-01T00:53:35.000Z</time>
      </trkpt>
      <trkpt lat="42.293504" lon="3.251519">
        <ele>164</ele>
        <time>1970-01-01T00:53:36.000Z</time>
      </trkpt>
      <trkpt lat="42.293512" lon="3.251474">
        <ele>164</ele>
        <time>1970-01-01T00:53:37.000Z</time>
      </trkpt>
      <trkpt lat="42.293519" lon="3.25143">
        <ele>164</ele>
        <time>1970-01-01T00:53:41.000Z</time>
      </trkpt>
      <trkpt lat="42.293527" lon="3.251385">
        <ele>166</ele>
        <time>1970-01-01T00:53:42.000Z</time>
      </trkpt>
      <trkpt lat="42.293521" lon="3.251272">
        <ele>166</ele>
        <time>1970-01-01T00:53:45.000Z</time>
      </trkpt>
      <trkpt lat="42.293501" lon="3.25112">
        <ele>166</ele>
        <time>1970-01-01T00:53:49.000Z</time>
      </trkpt>
      <trkpt lat="42.293501" lon="3.25112">
        <ele>169</ele>
        <time>1970-01-01T00:53:52.000Z</time>
      </trkpt>
      <trkpt lat="42.293475" lon="3.250896">
        <ele>169</ele>
        <time>1970-01-01T00:53:53.000Z</time>
      </trkpt>
      <trkpt lat="42.293468" lon="3.250819">
        <ele>169</ele>
        <time>1970-01-01T00:53:57.000Z</time>
      </trkpt>
      <trkpt lat="42.29346" lon="3.250743">
        <ele>169</ele>
        <time>1970-01-01T00:54:01.000Z</time>
      </trkpt>
      <trkpt lat="42.293452" lon="3.250666">
        <ele>170</ele>
        <time>1970-01-01T00:54:02.000Z</time>
      </trkpt>
      <trkpt lat="42.293439" lon="3.250564">
        <ele>170</ele>
        <time>1970-01-01T00:54:05.000Z</time>
      </trkpt>
      <trkpt lat="42.293425" lon="3.250425">
        <ele>170</ele>
        <time>1970-01-01T00:54:09.000Z</time>
      </trkpt>
      <trkpt lat="42.293427" lon="3.250323">
        <ele>171</ele>
        <time>1970-01-01T00:54:12.000Z</time>
      </trkpt>
      <trkpt lat="42.293449" lon="3.250261">
        <ele>171</ele>
        <time>1970-01-01T00:54:13.000Z</time>
      </trkpt>
      <trkpt lat="42.293464" lon="3.250231">
        <ele>171</ele>
        <time>1970-01-01T00:54:15.000Z</time>
      </trkpt>
      <trkpt lat="42.293479" lon="3.250202">
        <ele>171</ele>
        <time>1970-01-01T00:54:16.000Z</time>
      </trkpt>
      <trkpt lat="42.293494" lon="3.250173">
        <ele>171</ele>
        <time>1970-01-01T00:54:17.000Z</time>
      </trkpt>
      <trkpt lat="42.29351" lon="3.250143">
        <ele>171</ele>
        <time>1970-01-01T00:54:18.000Z</time>
      </trkpt>
      <trkpt lat="42.293525" lon="3.250114">
        <ele>171</ele>
        <time>1970-01-01T00:54:19.000Z</time>
      </trkpt>
      <trkpt lat="42.29354" lon="3.250085">
        <ele>171</ele>
        <time>1970-01-01T00:54:20.000Z</time>
      </trkpt>
      <trkpt lat="42.293555" lon="3.250055">
        <ele>171</ele>
        <time>1970-01-01T00:54:21.000Z</time>
      </trkpt>
      <trkpt lat="42.29357" lon="3.250026">
        <ele>174</ele>
        <time>1970-01-01T00:54:22.000Z</time>
      </trkpt>
      <trkpt lat="42.293605" lon="3.249975">
        <ele>174</ele>
        <time>1970-01-01T00:54:23.000Z</time>
      </trkpt>
      <trkpt lat="42.293622" lon="3.24995">
        <ele>174</ele>
        <time>1970-01-01T00:54:24.000Z</time>
      </trkpt>
      <trkpt lat="42.293638" lon="3.249926">
        <ele>174</ele>
        <time>1970-01-01T00:54:25.000Z</time>
      </trkpt>
      <trkpt lat="42.293655" lon="3.249902">
        <ele>174</ele>
        <time>1970-01-01T00:54:26.000Z</time>
      </trkpt>
      <trkpt lat="42.293671" lon="3.249878">
        <ele>174</ele>
        <time>1970-01-01T00:54:27.000Z</time>
      </trkpt>
      <trkpt lat="42.293687" lon="3.249853">
        <ele>174</ele>
        <time>1970-01-01T00:54:28.000Z</time>
      </trkpt>
      <trkpt lat="42.293704" lon="3.249829">
        <ele>174</ele>
        <time>1970-01-01T00:54:29.000Z</time>
      </trkpt>
      <trkpt lat="42.29372" lon="3.249805">
        <ele>174</ele>
        <time>1970-01-01T00:54:30.000Z</time>
      </trkpt>
      <trkpt lat="42.293737" lon="3.24978">
        <ele>174</ele>
        <time>1970-01-01T00:54:31.000Z</time>
      </trkpt>
      <trkpt lat="42.293753" lon="3.249756">
        <ele>176</ele>
        <time>1970-01-01T00:54:32.000Z</time>
      </trkpt>
      <trkpt lat="42.293786" lon="3.249705">
        <ele>176</ele>
        <time>1970-01-01T00:54:33.000Z</time>
      </trkpt>
      <trkpt lat="42.293802" lon="3.24968">
        <ele>176</ele>
        <time>1970-01-01T00:54:34.000Z</time>
      </trkpt>
      <trkpt lat="42.293818" lon="3.249656">
        <ele>176</ele>
        <time>1970-01-01T00:54:35.000Z</time>
      </trkpt>
      <trkpt lat="42.293834" lon="3.249632">
        <ele>176</ele>
        <time>1970-01-01T00:54:36.000Z</time>
      </trkpt>
      <trkpt lat="42.29385" lon="3.249608">
        <ele>176</ele>
        <time>1970-01-01T00:54:37.000Z</time>
      </trkpt>
      <trkpt lat="42.293866" lon="3.249583">
        <ele>176</ele>
        <time>1970-01-01T00:54:38.000Z</time>
      </trkpt>
      <trkpt lat="42.293882" lon="3.249559">
        <ele>176</ele>
        <time>1970-01-01T00:54:39.000Z</time>
      </trkpt>
      <trkpt lat="42.293898" lon="3.249535">
        <ele>176</ele>
        <time>1970-01-01T00:54:40.000Z</time>
      </trkpt>
      <trkpt lat="42.293914" lon="3.24951">
        <ele>176</ele>
        <time>1970-01-01T00:54:41.000Z</time>
      </trkpt>
      <trkpt lat="42.29393" lon="3.249486">
        <ele>176</ele>
        <time>1970-01-01T00:54:42.000Z</time>
      </trkpt>
      <trkpt lat="42.293963" lon="3.249436">
        <ele>176</ele>
        <time>1970-01-01T00:54:43.000Z</time>
      </trkpt>
      <trkpt lat="42.293979" lon="3.249413">
        <ele>176</ele>
        <time>1970-01-01T00:54:44.000Z</time>
      </trkpt>
      <trkpt lat="42.293994" lon="3.249389">
        <ele>176</ele>
        <time>1970-01-01T00:54:45.000Z</time>
      </trkpt>
      <trkpt lat="42.29401" lon="3.249366">
        <ele>176</ele>
        <time>1970-01-01T00:54:46.000Z</time>
      </trkpt>
      <trkpt lat="42.294026" lon="3.249342">
        <ele>176</ele>
        <time>1970-01-01T00:54:47.000Z</time>
      </trkpt>
      <trkpt lat="42.294042" lon="3.249318">
        <ele>176</ele>
        <time>1970-01-01T00:54:48.000Z</time>
      </trkpt>
      <trkpt lat="42.294058" lon="3.249295">
        <ele>176</ele>
        <time>1970-01-01T00:54:49.000Z</time>
      </trkpt>
      <trkpt lat="42.294073" lon="3.249271">
        <ele>176</ele>
        <time>1970-01-01T00:54:50.000Z</time>
      </trkpt>
      <trkpt lat="42.294089" lon="3.249248">
        <ele>176</ele>
        <time>1970-01-01T00:54:51.000Z</time>
      </trkpt>
      <trkpt lat="42.294105" lon="3.249224">
        <ele>177</ele>
        <time>1970-01-01T00:54:52.000Z</time>
      </trkpt>
      <trkpt lat="42.294143" lon="3.249182">
        <ele>177</ele>
        <time>1970-01-01T00:54:53.000Z</time>
      </trkpt>
      <trkpt lat="42.294163" lon="3.249166">
        <ele>177</ele>
        <time>1970-01-01T00:54:54.000Z</time>
      </trkpt>
      <trkpt lat="42.294182" lon="3.24915">
        <ele>177</ele>
        <time>1970-01-01T00:54:55.000Z</time>
      </trkpt>
      <trkpt lat="42.294202" lon="3.249134">
        <ele>177</ele>
        <time>1970-01-01T00:54:56.000Z</time>
      </trkpt>
      <trkpt lat="42.294222" lon="3.249118">
        <ele>177</ele>
        <time>1970-01-01T00:54:57.000Z</time>
      </trkpt>
      <trkpt lat="42.294242" lon="3.249101">
        <ele>177</ele>
        <time>1970-01-01T00:54:58.000Z</time>
      </trkpt>
      <trkpt lat="42.294262" lon="3.249085">
        <ele>177</ele>
        <time>1970-01-01T00:54:59.000Z</time>
      </trkpt>
      <trkpt lat="42.294281" lon="3.249069">
        <ele>177</ele>
        <time>1970-01-01T00:55:00.000Z</time>
      </trkpt>
      <trkpt lat="42.294301" lon="3.249053">
        <ele>177</ele>
        <time>1970-01-01T00:55:01.000Z</time>
      </trkpt>
      <trkpt lat="42.294321" lon="3.249037">
        <ele>178</ele>
        <time>1970-01-01T00:55:02.000Z</time>
      </trkpt>
      <trkpt lat="42.294366" lon="3.249023">
        <ele>178</ele>
        <time>1970-01-01T00:55:03.000Z</time>
      </trkpt>
      <trkpt lat="42.294386" lon="3.249017">
        <ele>178</ele>
        <time>1970-01-01T00:55:04.000Z</time>
      </trkpt>
      <trkpt lat="42.294407" lon="3.24901">
        <ele>178</ele>
        <time>1970-01-01T00:55:05.000Z</time>
      </trkpt>
      <trkpt lat="42.294427" lon="3.249004">
        <ele>178</ele>
        <time>1970-01-01T00:55:06.000Z</time>
      </trkpt>
      <trkpt lat="42.294448" lon="3.248997">
        <ele>178</ele>
        <time>1970-01-01T00:55:07.000Z</time>
      </trkpt>
      <trkpt lat="42.294468" lon="3.24899">
        <ele>178</ele>
        <time>1970-01-01T00:55:08.000Z</time>
      </trkpt>
      <trkpt lat="42.294489" lon="3.248984">
        <ele>178</ele>
        <time>1970-01-01T00:55:09.000Z</time>
      </trkpt>
      <trkpt lat="42.294509" lon="3.248977">
        <ele>178</ele>
        <time>1970-01-01T00:55:10.000Z</time>
      </trkpt>
      <trkpt lat="42.29453" lon="3.248971">
        <ele>178</ele>
        <time>1970-01-01T00:55:11.000Z</time>
      </trkpt>
      <trkpt lat="42.29455" lon="3.248964">
        <ele>180</ele>
        <time>1970-01-01T00:55:12.000Z</time>
      </trkpt>
      <trkpt lat="42.29458" lon="3.248919">
        <ele>180</ele>
        <time>1970-01-01T00:55:13.000Z</time>
      </trkpt>
      <trkpt lat="42.29459" lon="3.248891">
        <ele>180</ele>
        <time>1970-01-01T00:55:14.000Z</time>
      </trkpt>
      <trkpt lat="42.294599" lon="3.248862">
        <ele>180</ele>
        <time>1970-01-01T00:55:15.000Z</time>
      </trkpt>
      <trkpt lat="42.294609" lon="3.248834">
        <ele>180</ele>
        <time>1970-01-01T00:55:17.000Z</time>
      </trkpt>
      <trkpt lat="42.294619" lon="3.248806">
        <ele>180</ele>
        <time>1970-01-01T00:55:18.000Z</time>
      </trkpt>
      <trkpt lat="42.294629" lon="3.248778">
        <ele>180</ele>
        <time>1970-01-01T00:55:19.000Z</time>
      </trkpt>
      <trkpt lat="42.294638" lon="3.248749">
        <ele>180</ele>
        <time>1970-01-01T00:55:20.000Z</time>
      </trkpt>
      <trkpt lat="42.294648" lon="3.248721">
        <ele>180</ele>
        <time>1970-01-01T00:55:21.000Z</time>
      </trkpt>
      <trkpt lat="42.294658" lon="3.248693">
        <ele>181</ele>
        <time>1970-01-01T00:55:22.000Z</time>
      </trkpt>
      <trkpt lat="42.294653" lon="3.248623">
        <ele>181</ele>
        <time>1970-01-01T00:55:23.000Z</time>
      </trkpt>
      <trkpt lat="42.294648" lon="3.248587">
        <ele>181</ele>
        <time>1970-01-01T00:55:26.000Z</time>
      </trkpt>
      <trkpt lat="42.294643" lon="3.24855">
        <ele>181</ele>
        <time>1970-01-01T00:55:27.000Z</time>
      </trkpt>
      <trkpt lat="42.294638" lon="3.248513">
        <ele>181</ele>
        <time>1970-01-01T00:55:28.000Z</time>
      </trkpt>
      <trkpt lat="42.294632" lon="3.248477">
        <ele>181</ele>
        <time>1970-01-01T00:55:29.000Z</time>
      </trkpt>
      <trkpt lat="42.294627" lon="3.24844">
        <ele>181</ele>
        <time>1970-01-01T00:55:30.000Z</time>
      </trkpt>
      <trkpt lat="42.294622" lon="3.248404">
        <ele>181</ele>
        <time>1970-01-01T00:55:31.000Z</time>
      </trkpt>
      <trkpt lat="42.294617" lon="3.248367">
        <ele>183</ele>
        <time>1970-01-01T00:55:32.000Z</time>
      </trkpt>
      <trkpt lat="42.294621" lon="3.248308">
        <ele>183</ele>
        <time>1970-01-01T00:55:33.000Z</time>
      </trkpt>
      <trkpt lat="42.29463" lon="3.248282">
        <ele>183</ele>
        <time>1970-01-01T00:55:34.000Z</time>
      </trkpt>
      <trkpt lat="42.294638" lon="3.248257">
        <ele>183</ele>
        <time>1970-01-01T00:55:35.000Z</time>
      </trkpt>
      <trkpt lat="42.294647" lon="3.248231">
        <ele>183</ele>
        <time>1970-01-01T00:55:36.000Z</time>
      </trkpt>
      <trkpt lat="42.294655" lon="3.248206">
        <ele>183</ele>
        <time>1970-01-01T00:55:37.000Z</time>
      </trkpt>
      <trkpt lat="42.294664" lon="3.24818">
        <ele>183</ele>
        <time>1970-01-01T00:55:38.000Z</time>
      </trkpt>
      <trkpt lat="42.294672" lon="3.248155">
        <ele>183</ele>
        <time>1970-01-01T00:55:39.000Z</time>
      </trkpt>
      <trkpt lat="42.294681" lon="3.248129">
        <ele>183</ele>
        <time>1970-01-01T00:55:40.000Z</time>
      </trkpt>
      <trkpt lat="42.294689" lon="3.248104">
        <ele>183</ele>
        <time>1970-01-01T00:55:41.000Z</time>
      </trkpt>
      <trkpt lat="42.294698" lon="3.248078">
        <ele>183</ele>
        <time>1970-01-01T00:55:42.000Z</time>
      </trkpt>
      <trkpt lat="42.294706" lon="3.248053">
        <ele>183</ele>
        <time>1970-01-01T00:55:43.000Z</time>
      </trkpt>
      <trkpt lat="42.294741" lon="3.24802">
        <ele>183</ele>
        <time>1970-01-01T00:55:44.000Z</time>
      </trkpt>
      <trkpt lat="42.294759" lon="3.248007">
        <ele>183</ele>
        <time>1970-01-01T00:55:45.000Z</time>
      </trkpt>
      <trkpt lat="42.294777" lon="3.247995">
        <ele>183</ele>
        <time>1970-01-01T00:55:46.000Z</time>
      </trkpt>
      <trkpt lat="42.294795" lon="3.247983">
        <ele>183</ele>
        <time>1970-01-01T00:55:47.000Z</time>
      </trkpt>
      <trkpt lat="42.294813" lon="3.24797">
        <ele>183</ele>
        <time>1970-01-01T00:55:48.000Z</time>
      </trkpt>
      <trkpt lat="42.294831" lon="3.247958">
        <ele>183</ele>
        <time>1970-01-01T00:55:49.000Z</time>
      </trkpt>
      <trkpt lat="42.294849" lon="3.247946">
        <ele>183</ele>
        <time>1970-01-01T00:55:50.000Z</time>
      </trkpt>
      <trkpt lat="42.294867" lon="3.247933">
        <ele>183</ele>
        <time>1970-01-01T00:55:51.000Z</time>
      </trkpt>
      <trkpt lat="42.294885" lon="3.247921">
        <ele>184</ele>
        <time>1970-01-01T00:55:52.000Z</time>
      </trkpt>
      <trkpt lat="42.294923" lon="3.247894">
        <ele>184</ele>
        <time>1970-01-01T00:55:53.000Z</time>
      </trkpt>
      <trkpt lat="42.294941" lon="3.247882">
        <ele>184</ele>
        <time>1970-01-01T00:55:54.000Z</time>
      </trkpt>
      <trkpt lat="42.29496" lon="3.24787">
        <ele>184</ele>
        <time>1970-01-01T00:55:55.000Z</time>
      </trkpt>
      <trkpt lat="42.294978" lon="3.247858">
        <ele>184</ele>
        <time>1970-01-01T00:55:56.000Z</time>
      </trkpt>
      <trkpt lat="42.294996" lon="3.247846">
        <ele>184</ele>
        <time>1970-01-01T00:55:57.000Z</time>
      </trkpt>
      <trkpt lat="42.295014" lon="3.247834">
        <ele>184</ele>
        <time>1970-01-01T00:55:58.000Z</time>
      </trkpt>
      <trkpt lat="42.295032" lon="3.247822">
        <ele>184</ele>
        <time>1970-01-01T00:55:59.000Z</time>
      </trkpt>
      <trkpt lat="42.295051" lon="3.24781">
        <ele>184</ele>
        <time>1970-01-01T00:56:00.000Z</time>
      </trkpt>
      <trkpt lat="42.295069" lon="3.247798">
        <ele>184</ele>
        <time>1970-01-01T00:56:01.000Z</time>
      </trkpt>
      <trkpt lat="42.295087" lon="3.247786">
        <ele>186</ele>
        <time>1970-01-01T00:56:02.000Z</time>
      </trkpt>
      <trkpt lat="42.295115" lon="3.24775">
        <ele>186</ele>
        <time>1970-01-01T00:56:03.000Z</time>
      </trkpt>
      <trkpt lat="42.295125" lon="3.247729">
        <ele>186</ele>
        <time>1970-01-01T00:56:04.000Z</time>
      </trkpt>
      <trkpt lat="42.295134" lon="3.247709">
        <ele>186</ele>
        <time>1970-01-01T00:56:05.000Z</time>
      </trkpt>
      <trkpt lat="42.295144" lon="3.247688">
        <ele>186</ele>
        <time>1970-01-01T00:56:06.000Z</time>
      </trkpt>
      <trkpt lat="42.295154" lon="3.247667">
        <ele>186</ele>
        <time>1970-01-01T00:56:07.000Z</time>
      </trkpt>
      <trkpt lat="42.295164" lon="3.247646">
        <ele>186</ele>
        <time>1970-01-01T00:56:08.000Z</time>
      </trkpt>
      <trkpt lat="42.295174" lon="3.247625">
        <ele>186</ele>
        <time>1970-01-01T00:56:09.000Z</time>
      </trkpt>
      <trkpt lat="42.295183" lon="3.247605">
        <ele>186</ele>
        <time>1970-01-01T00:56:10.000Z</time>
      </trkpt>
      <trkpt lat="42.295193" lon="3.247584">
        <ele>186</ele>
        <time>1970-01-01T00:56:11.000Z</time>
      </trkpt>
      <trkpt lat="42.295203" lon="3.247563">
        <ele>187</ele>
        <time>1970-01-01T00:56:12.000Z</time>
      </trkpt>
      <trkpt lat="42.295205" lon="3.247532">
        <ele>187</ele>
        <time>1970-01-01T00:56:13.000Z</time>
      </trkpt>
      <trkpt lat="42.295206" lon="3.247501">
        <ele>187</ele>
        <time>1970-01-01T00:56:14.000Z</time>
      </trkpt>
      <trkpt lat="42.295203" lon="3.24747">
        <ele>187</ele>
        <time>1970-01-01T00:56:15.000Z</time>
      </trkpt>
      <trkpt lat="42.295182" lon="3.247343">
        <ele>187</ele>
        <time>1970-01-01T00:56:19.000Z</time>
      </trkpt>
      <trkpt lat="42.295182" lon="3.247343">
        <ele>189</ele>
        <time>1970-01-01T00:56:22.000Z</time>
      </trkpt>
      <trkpt lat="42.295161" lon="3.247212">
        <ele>189</ele>
        <time>1970-01-01T00:56:23.000Z</time>
      </trkpt>
      <trkpt lat="42.295176" lon="3.247081">
        <ele>189</ele>
        <time>1970-01-01T00:56:27.000Z</time>
      </trkpt>
      <trkpt lat="42.295214" lon="3.246942">
        <ele>190</ele>
        <time>1970-01-01T00:56:32.000Z</time>
      </trkpt>
      <trkpt lat="42.29526" lon="3.24677">
        <ele>190</ele>
        <time>1970-01-01T00:56:36.000Z</time>
      </trkpt>
      <trkpt lat="42.29527" lon="3.246713">
        <ele>190</ele>
        <time>1970-01-01T00:56:41.000Z</time>
      </trkpt>
      <trkpt lat="42.295279" lon="3.246655">
        <ele>191</ele>
        <time>1970-01-01T00:56:42.000Z</time>
      </trkpt>
      <trkpt lat="42.295281" lon="3.246563">
        <ele>191</ele>
        <time>1970-01-01T00:56:45.000Z</time>
      </trkpt>
      <trkpt lat="42.295267" lon="3.24644">
        <ele>191</ele>
        <time>1970-01-01T00:56:49.000Z</time>
      </trkpt>
      <trkpt lat="42.295267" lon="3.24644">
        <ele>193</ele>
        <time>1970-01-01T00:56:52.000Z</time>
      </trkpt>
      <trkpt lat="42.295254" lon="3.246319">
        <ele>193</ele>
        <time>1970-01-01T00:56:53.000Z</time>
      </trkpt>
      <trkpt lat="42.295222" lon="3.246181">
        <ele>193</ele>
        <time>1970-01-01T00:56:58.000Z</time>
      </trkpt>
      <trkpt lat="42.295184" lon="3.24607">
        <ele>195</ele>
        <time>1970-01-01T00:57:02.000Z</time>
      </trkpt>
      <trkpt lat="42.295099" lon="3.245926">
        <ele>195</ele>
        <time>1970-01-01T00:57:06.000Z</time>
      </trkpt>
      <trkpt lat="42.295072" lon="3.245883">
        <ele>195</ele>
        <time>1970-01-01T00:57:11.000Z</time>
      </trkpt>
      <trkpt lat="42.295044" lon="3.245839">
        <ele>195</ele>
        <time>1970-01-01T00:57:12.000Z</time>
      </trkpt>
      <trkpt lat="42.294991" lon="3.245746">
        <ele>195</ele>
        <time>1970-01-01T00:57:15.000Z</time>
      </trkpt>
      <trkpt lat="42.29498" lon="3.24572">
        <ele>195</ele>
        <time>1970-01-01T00:57:17.000Z</time>
      </trkpt>
      <trkpt lat="42.294968" lon="3.245694">
        <ele>195</ele>
        <time>1970-01-01T00:57:18.000Z</time>
      </trkpt>
      <trkpt lat="42.294956" lon="3.245667">
        <ele>195</ele>
        <time>1970-01-01T00:57:19.000Z</time>
      </trkpt>
      <trkpt lat="42.294944" lon="3.245641">
        <ele>195</ele>
        <time>1970-01-01T00:57:20.000Z</time>
      </trkpt>
      <trkpt lat="42.294933" lon="3.245615">
        <ele>195</ele>
        <time>1970-01-01T00:57:21.000Z</time>
      </trkpt>
      <trkpt lat="42.294921" lon="3.245589">
        <ele>197</ele>
        <time>1970-01-01T00:57:22.000Z</time>
      </trkpt>
      <trkpt lat="42.294914" lon="3.245533">
        <ele>197</ele>
        <time>1970-01-01T00:57:23.000Z</time>
      </trkpt>
      <trkpt lat="42.294916" lon="3.245507">
        <ele>197</ele>
        <time>1970-01-01T00:57:24.000Z</time>
      </trkpt>
      <trkpt lat="42.294917" lon="3.24548">
        <ele>197</ele>
        <time>1970-01-01T00:57:25.000Z</time>
      </trkpt>
      <trkpt lat="42.294919" lon="3.245454">
        <ele>197</ele>
        <time>1970-01-01T00:57:26.000Z</time>
      </trkpt>
      <trkpt lat="42.294921" lon="3.245428">
        <ele>197</ele>
        <time>1970-01-01T00:57:27.000Z</time>
      </trkpt>
      <trkpt lat="42.294923" lon="3.245402">
        <ele>197</ele>
        <time>1970-01-01T00:57:28.000Z</time>
      </trkpt>
      <trkpt lat="42.294925" lon="3.245376">
        <ele>197</ele>
        <time>1970-01-01T00:57:29.000Z</time>
      </trkpt>
      <trkpt lat="42.294926" lon="3.245349">
        <ele>197</ele>
        <time>1970-01-01T00:57:30.000Z</time>
      </trkpt>
      <trkpt lat="42.294928" lon="3.245323">
        <ele>197</ele>
        <time>1970-01-01T00:57:31.000Z</time>
      </trkpt>
      <trkpt lat="42.29493" lon="3.245297">
        <ele>199</ele>
        <time>1970-01-01T00:57:32.000Z</time>
      </trkpt>
      <trkpt lat="42.294952" lon="3.245247">
        <ele>199</ele>
        <time>1970-01-01T00:57:33.000Z</time>
      </trkpt>
      <trkpt lat="42.294964" lon="3.245222">
        <ele>199</ele>
        <time>1970-01-01T00:57:34.000Z</time>
      </trkpt>
      <trkpt lat="42.294977" lon="3.245198">
        <ele>199</ele>
        <time>1970-01-01T00:57:35.000Z</time>
      </trkpt>
      <trkpt lat="42.294989" lon="3.245174">
        <ele>199</ele>
        <time>1970-01-01T00:57:36.000Z</time>
      </trkpt>
      <trkpt lat="42.295002" lon="3.245149">
        <ele>199</ele>
        <time>1970-01-01T00:57:37.000Z</time>
      </trkpt>
      <trkpt lat="42.295014" lon="3.245125">
        <ele>199</ele>
        <time>1970-01-01T00:57:38.000Z</time>
      </trkpt>
      <trkpt lat="42.295027" lon="3.245101">
        <ele>199</ele>
        <time>1970-01-01T00:57:39.000Z</time>
      </trkpt>
      <trkpt lat="42.295039" lon="3.245076">
        <ele>199</ele>
        <time>1970-01-01T00:57:40.000Z</time>
      </trkpt>
      <trkpt lat="42.295052" lon="3.245052">
        <ele>200</ele>
        <time>1970-01-01T00:57:42.000Z</time>
      </trkpt>
      <trkpt lat="42.295076" lon="3.245005">
        <ele>200</ele>
        <time>1970-01-01T00:57:43.000Z</time>
      </trkpt>
      <trkpt lat="42.295086" lon="3.244983">
        <ele>200</ele>
        <time>1970-01-01T00:57:44.000Z</time>
      </trkpt>
      <trkpt lat="42.295097" lon="3.244961">
        <ele>200</ele>
        <time>1970-01-01T00:57:45.000Z</time>
      </trkpt>
      <trkpt lat="42.295107" lon="3.244939">
        <ele>200</ele>
        <time>1970-01-01T00:57:46.000Z</time>
      </trkpt>
      <trkpt lat="42.295118" lon="3.244918">
        <ele>200</ele>
        <time>1970-01-01T00:57:47.000Z</time>
      </trkpt>
      <trkpt lat="42.295128" lon="3.244896">
        <ele>200</ele>
        <time>1970-01-01T00:57:48.000Z</time>
      </trkpt>
      <trkpt lat="42.295139" lon="3.244874">
        <ele>200</ele>
        <time>1970-01-01T00:57:49.000Z</time>
      </trkpt>
      <trkpt lat="42.295149" lon="3.244852">
        <ele>200</ele>
        <time>1970-01-01T00:57:50.000Z</time>
      </trkpt>
      <trkpt lat="42.29516" lon="3.24483">
        <ele>200</ele>
        <time>1970-01-01T00:57:51.000Z</time>
      </trkpt>
      <trkpt lat="42.29517" lon="3.244808">
        <ele>201</ele>
        <time>1970-01-01T00:57:52.000Z</time>
      </trkpt>
      <trkpt lat="42.295193" lon="3.244759">
        <ele>201</ele>
        <time>1970-01-01T00:57:53.000Z</time>
      </trkpt>
      <trkpt lat="42.295204" lon="3.244735">
        <ele>201</ele>
        <time>1970-01-01T00:57:54.000Z</time>
      </trkpt>
      <trkpt lat="42.295216" lon="3.244712">
        <ele>201</ele>
        <time>1970-01-01T00:57:55.000Z</time>
      </trkpt>
      <trkpt lat="42.295227" lon="3.244689">
        <ele>201</ele>
        <time>1970-01-01T00:57:56.000Z</time>
      </trkpt>
      <trkpt lat="42.295238" lon="3.244666">
        <ele>201</ele>
        <time>1970-01-01T00:57:57.000Z</time>
      </trkpt>
      <trkpt lat="42.295249" lon="3.244642">
        <ele>201</ele>
        <time>1970-01-01T00:57:58.000Z</time>
      </trkpt>
      <trkpt lat="42.29526" lon="3.244619">
        <ele>201</ele>
        <time>1970-01-01T00:57:59.000Z</time>
      </trkpt>
      <trkpt lat="42.295272" lon="3.244596">
        <ele>201</ele>
        <time>1970-01-01T00:58:00.000Z</time>
      </trkpt>
      <trkpt lat="42.295283" lon="3.244572">
        <ele>201</ele>
        <time>1970-01-01T00:58:01.000Z</time>
      </trkpt>
      <trkpt lat="42.295294" lon="3.244549">
        <ele>202</ele>
        <time>1970-01-01T00:58:02.000Z</time>
      </trkpt>
      <trkpt lat="42.295332" lon="3.244482">
        <ele>202</ele>
        <time>1970-01-01T00:58:04.000Z</time>
      </trkpt>
      <trkpt lat="42.295345" lon="3.244463">
        <ele>202</ele>
        <time>1970-01-01T00:58:05.000Z</time>
      </trkpt>
      <trkpt lat="42.295357" lon="3.244443">
        <ele>202</ele>
        <time>1970-01-01T00:58:06.000Z</time>
      </trkpt>
      <trkpt lat="42.29537" lon="3.244424">
        <ele>202</ele>
        <time>1970-01-01T00:58:07.000Z</time>
      </trkpt>
      <trkpt lat="42.295383" lon="3.244404">
        <ele>202</ele>
        <time>1970-01-01T00:58:08.000Z</time>
      </trkpt>
      <trkpt lat="42.295396" lon="3.244385">
        <ele>202</ele>
        <time>1970-01-01T00:58:09.000Z</time>
      </trkpt>
      <trkpt lat="42.295408" lon="3.244365">
        <ele>202</ele>
        <time>1970-01-01T00:58:10.000Z</time>
      </trkpt>
      <trkpt lat="42.295421" lon="3.244346">
        <ele>202</ele>
        <time>1970-01-01T00:58:11.000Z</time>
      </trkpt>
      <trkpt lat="42.295434" lon="3.244326">
        <ele>204</ele>
        <time>1970-01-01T00:58:12.000Z</time>
      </trkpt>
      <trkpt lat="42.295469" lon="3.244296">
        <ele>204</ele>
        <time>1970-01-01T00:58:13.000Z</time>
      </trkpt>
      <trkpt lat="42.295486" lon="3.244283">
        <ele>204</ele>
        <time>1970-01-01T00:58:14.000Z</time>
      </trkpt>
      <trkpt lat="42.295504" lon="3.244271">
        <ele>204</ele>
        <time>1970-01-01T00:58:15.000Z</time>
      </trkpt>
      <trkpt lat="42.295522" lon="3.244259">
        <ele>204</ele>
        <time>1970-01-01T00:58:16.000Z</time>
      </trkpt>
      <trkpt lat="42.29554" lon="3.244247">
        <ele>204</ele>
        <time>1970-01-01T00:58:17.000Z</time>
      </trkpt>
      <trkpt lat="42.295557" lon="3.244234">
        <ele>204</ele>
        <time>1970-01-01T00:58:18.000Z</time>
      </trkpt>
      <trkpt lat="42.295575" lon="3.244222">
        <ele>204</ele>
        <time>1970-01-01T00:58:19.000Z</time>
      </trkpt>
      <trkpt lat="42.295593" lon="3.24421">
        <ele>204</ele>
        <time>1970-01-01T00:58:20.000Z</time>
      </trkpt>
      <trkpt lat="42.29561" lon="3.244197">
        <ele>204</ele>
        <time>1970-01-01T00:58:21.000Z</time>
      </trkpt>
      <trkpt lat="42.295628" lon="3.244185">
        <ele>206</ele>
        <time>1970-01-01T00:58:22.000Z</time>
      </trkpt>
      <trkpt lat="42.295666" lon="3.244172">
        <ele>206</ele>
        <time>1970-01-01T00:58:23.000Z</time>
      </trkpt>
      <trkpt lat="42.295685" lon="3.244168">
        <ele>206</ele>
        <time>1970-01-01T00:58:24.000Z</time>
      </trkpt>
      <trkpt lat="42.295703" lon="3.244164">
        <ele>206</ele>
        <time>1970-01-01T00:58:25.000Z</time>
      </trkpt>
      <trkpt lat="42.295721" lon="3.24416">
        <ele>206</ele>
        <time>1970-01-01T00:58:26.000Z</time>
      </trkpt>
      <trkpt lat="42.29574" lon="3.244156">
        <ele>206</ele>
        <time>1970-01-01T00:58:27.000Z</time>
      </trkpt>
      <trkpt lat="42.295758" lon="3.244151">
        <ele>206</ele>
        <time>1970-01-01T00:58:28.000Z</time>
      </trkpt>
      <trkpt lat="42.295776" lon="3.244147">
        <ele>206</ele>
        <time>1970-01-01T00:58:29.000Z</time>
      </trkpt>
      <trkpt lat="42.295794" lon="3.244143">
        <ele>206</ele>
        <time>1970-01-01T00:58:30.000Z</time>
      </trkpt>
      <trkpt lat="42.295813" lon="3.244139">
        <ele>206</ele>
        <time>1970-01-01T00:58:31.000Z</time>
      </trkpt>
      <trkpt lat="42.295831" lon="3.244135">
        <ele>207</ele>
        <time>1970-01-01T00:58:32.000Z</time>
      </trkpt>
      <trkpt lat="42.295875" lon="3.244142">
        <ele>207</ele>
        <time>1970-01-01T00:58:33.000Z</time>
      </trkpt>
      <trkpt lat="42.295895" lon="3.244146">
        <ele>207</ele>
        <time>1970-01-01T00:58:34.000Z</time>
      </trkpt>
      <trkpt lat="42.295915" lon="3.244151">
        <ele>207</ele>
        <time>1970-01-01T00:58:35.000Z</time>
      </trkpt>
      <trkpt lat="42.295935" lon="3.244155">
        <ele>207</ele>
        <time>1970-01-01T00:58:36.000Z</time>
      </trkpt>
      <trkpt lat="42.295955" lon="3.244159">
        <ele>207</ele>
        <time>1970-01-01T00:58:37.000Z</time>
      </trkpt>
      <trkpt lat="42.295974" lon="3.244163">
        <ele>207</ele>
        <time>1970-01-01T00:58:38.000Z</time>
      </trkpt>
      <trkpt lat="42.295994" lon="3.244167">
        <ele>207</ele>
        <time>1970-01-01T00:58:39.000Z</time>
      </trkpt>
      <trkpt lat="42.296014" lon="3.244172">
        <ele>207</ele>
        <time>1970-01-01T00:58:40.000Z</time>
      </trkpt>
      <trkpt lat="42.296034" lon="3.244176">
        <ele>207</ele>
        <time>1970-01-01T00:58:41.000Z</time>
      </trkpt>
      <trkpt lat="42.296054" lon="3.24418">
        <ele>207</ele>
        <time>1970-01-01T00:58:42.000Z</time>
      </trkpt>
      <trkpt lat="42.296096" lon="3.244181">
        <ele>207</ele>
        <time>1970-01-01T00:58:43.000Z</time>
      </trkpt>
      <trkpt lat="42.296116" lon="3.244176">
        <ele>207</ele>
        <time>1970-01-01T00:58:44.000Z</time>
      </trkpt>
      <trkpt lat="42.296136" lon="3.244172">
        <ele>207</ele>
        <time>1970-01-01T00:58:45.000Z</time>
      </trkpt>
      <trkpt lat="42.296156" lon="3.244168">
        <ele>207</ele>
        <time>1970-01-01T00:58:46.000Z</time>
      </trkpt>
      <trkpt lat="42.296176" lon="3.244164">
        <ele>207</ele>
        <time>1970-01-01T00:58:47.000Z</time>
      </trkpt>
      <trkpt lat="42.296195" lon="3.244159">
        <ele>207</ele>
        <time>1970-01-01T00:58:48.000Z</time>
      </trkpt>
      <trkpt lat="42.296215" lon="3.244155">
        <ele>207</ele>
        <time>1970-01-01T00:58:49.000Z</time>
      </trkpt>
      <trkpt lat="42.296235" lon="3.244151">
        <ele>207</ele>
        <time>1970-01-01T00:58:50.000Z</time>
      </trkpt>
      <trkpt lat="42.296255" lon="3.244146">
        <ele>207</ele>
        <time>1970-01-01T00:58:51.000Z</time>
      </trkpt>
      <trkpt lat="42.296275" lon="3.244142">
        <ele>209</ele>
        <time>1970-01-01T00:58:52.000Z</time>
      </trkpt>
      <trkpt lat="42.296344" lon="3.24401">
        <ele>209</ele>
        <time>1970-01-01T00:58:56.000Z</time>
      </trkpt>
      <trkpt lat="42.296347" lon="3.243967">
        <ele>209</ele>
        <time>1970-01-01T00:58:59.000Z</time>
      </trkpt>
      <trkpt lat="42.29635" lon="3.243924">
        <ele>209</ele>
        <time>1970-01-01T00:59:00.000Z</time>
      </trkpt>
      <trkpt lat="42.296353" lon="3.243881">
        <ele>209</ele>
        <time>1970-01-01T00:59:01.000Z</time>
      </trkpt>
      <trkpt lat="42.296356" lon="3.243838">
        <ele>211</ele>
        <time>1970-01-01T00:59:02.000Z</time>
      </trkpt>
      <trkpt lat="42.29633" lon="3.243768">
        <ele>211</ele>
        <time>1970-01-01T00:59:03.000Z</time>
      </trkpt>
      <trkpt lat="42.29631" lon="3.243735">
        <ele>211</ele>
        <time>1970-01-01T00:59:04.000Z</time>
      </trkpt>
      <trkpt lat="42.29629" lon="3.243702">
        <ele>211</ele>
        <time>1970-01-01T00:59:05.000Z</time>
      </trkpt>
      <trkpt lat="42.296269" lon="3.24367">
        <ele>211</ele>
        <time>1970-01-01T00:59:06.000Z</time>
      </trkpt>
      <trkpt lat="42.296249" lon="3.243637">
        <ele>211</ele>
        <time>1970-01-01T00:59:10.000Z</time>
      </trkpt>
      <trkpt lat="42.296229" lon="3.243604">
        <ele>212</ele>
        <time>1970-01-01T00:59:12.000Z</time>
      </trkpt>
      <trkpt lat="42.296089" lon="3.243453">
        <ele>212</ele>
        <time>1970-01-01T00:59:13.000Z</time>
      </trkpt>
      <trkpt lat="42.296022" lon="3.24338">
        <ele>212</ele>
        <time>1970-01-01T00:59:16.000Z</time>
      </trkpt>
      <trkpt lat="42.295954" lon="3.243306">
        <ele>212</ele>
        <time>1970-01-01T00:59:19.000Z</time>
      </trkpt>
      <trkpt lat="42.295886" lon="3.243233">
        <ele>213</ele>
        <time>1970-01-01T00:59:22.000Z</time>
      </trkpt>
      <trkpt lat="42.295845" lon="3.243157">
        <ele>213</ele>
        <time>1970-01-01T00:59:23.000Z</time>
      </trkpt>
      <trkpt lat="42.295833" lon="3.243116">
        <ele>213</ele>
        <time>1970-01-01T00:59:24.000Z</time>
      </trkpt>
      <trkpt lat="42.295822" lon="3.243075">
        <ele>213</ele>
        <time>1970-01-01T00:59:25.000Z</time>
      </trkpt>
      <trkpt lat="42.29581" lon="3.243034">
        <ele>213</ele>
        <time>1970-01-01T00:59:26.000Z</time>
      </trkpt>
      <trkpt lat="42.295798" lon="3.242993">
        <ele>213</ele>
        <time>1970-01-01T00:59:27.000Z</time>
      </trkpt>
      <trkpt lat="42.295786" lon="3.242952">
        <ele>213</ele>
        <time>1970-01-01T00:59:28.000Z</time>
      </trkpt>
      <trkpt lat="42.295775" lon="3.242911">
        <ele>213</ele>
        <time>1970-01-01T00:59:29.000Z</time>
      </trkpt>
      <trkpt lat="42.295763" lon="3.24287">
        <ele>213</ele>
        <time>1970-01-01T00:59:30.000Z</time>
      </trkpt>
      <trkpt lat="42.295751" lon="3.242829">
        <ele>214</ele>
        <time>1970-01-01T00:59:32.000Z</time>
      </trkpt>
      <trkpt lat="42.295766" lon="3.24276">
        <ele>214</ele>
        <time>1970-01-01T00:59:33.000Z</time>
      </trkpt>
      <trkpt lat="42.295776" lon="3.242731">
        <ele>214</ele>
        <time>1970-01-01T00:59:34.000Z</time>
      </trkpt>
      <trkpt lat="42.295785" lon="3.242702">
        <ele>214</ele>
        <time>1970-01-01T00:59:35.000Z</time>
      </trkpt>
      <trkpt lat="42.295795" lon="3.242673">
        <ele>214</ele>
        <time>1970-01-01T00:59:36.000Z</time>
      </trkpt>
      <trkpt lat="42.295804" lon="3.242644">
        <ele>214</ele>
        <time>1970-01-01T00:59:37.000Z</time>
      </trkpt>
      <trkpt lat="42.295813" lon="3.242615">
        <ele>214</ele>
        <time>1970-01-01T00:59:38.000Z</time>
      </trkpt>
      <trkpt lat="42.295823" lon="3.242586">
        <ele>214</ele>
        <time>1970-01-01T00:59:39.000Z</time>
      </trkpt>
      <trkpt lat="42.295832" lon="3.242557">
        <ele>214</ele>
        <time>1970-01-01T00:59:40.000Z</time>
      </trkpt>
      <trkpt lat="42.295842" lon="3.242528">
        <ele>214</ele>
        <time>1970-01-01T00:59:41.000Z</time>
      </trkpt>
      <trkpt lat="42.295851" lon="3.242499">
        <ele>215</ele>
        <time>1970-01-01T00:59:42.000Z</time>
      </trkpt>
      <trkpt lat="42.295871" lon="3.242445">
        <ele>215</ele>
        <time>1970-01-01T00:59:43.000Z</time>
      </trkpt>
      <trkpt lat="42.295881" lon="3.242419">
        <ele>215</ele>
        <time>1970-01-01T00:59:44.000Z</time>
      </trkpt>
      <trkpt lat="42.295891" lon="3.242394">
        <ele>215</ele>
        <time>1970-01-01T00:59:45.000Z</time>
      </trkpt>
      <trkpt lat="42.295901" lon="3.242368">
        <ele>215</ele>
        <time>1970-01-01T00:59:46.000Z</time>
      </trkpt>
      <trkpt lat="42.295911" lon="3.242343">
        <ele>215</ele>
        <time>1970-01-01T00:59:47.000Z</time>
      </trkpt>
      <trkpt lat="42.295921" lon="3.242318">
        <ele>215</ele>
        <time>1970-01-01T00:59:48.000Z</time>
      </trkpt>
      <trkpt lat="42.295931" lon="3.242292">
        <ele>215</ele>
        <time>1970-01-01T00:59:49.000Z</time>
      </trkpt>
      <trkpt lat="42.295941" lon="3.242267">
        <ele>215</ele>
        <time>1970-01-01T00:59:50.000Z</time>
      </trkpt>
      <trkpt lat="42.295951" lon="3.242241">
        <ele>215</ele>
        <time>1970-01-01T00:59:51.000Z</time>
      </trkpt>
      <trkpt lat="42.295961" lon="3.242216">
        <ele>217</ele>
        <time>1970-01-01T00:59:52.000Z</time>
      </trkpt>
      <trkpt lat="42.29598" lon="3.242159">
        <ele>217</ele>
        <time>1970-01-01T00:59:53.000Z</time>
      </trkpt>
      <trkpt lat="42.29599" lon="3.242132">
        <ele>217</ele>
        <time>1970-01-01T00:59:54.000Z</time>
      </trkpt>
      <trkpt lat="42.295999" lon="3.242104">
        <ele>217</ele>
        <time>1970-01-01T00:59:55.000Z</time>
      </trkpt>
      <trkpt lat="42.296008" lon="3.242077">
        <ele>217</ele>
        <time>1970-01-01T00:59:56.000Z</time>
      </trkpt>
      <trkpt lat="42.296018" lon="3.242049">
        <ele>217</ele>
        <time>1970-01-01T00:59:57.000Z</time>
      </trkpt>
      <trkpt lat="42.296027" lon="3.242021">
        <ele>217</ele>
        <time>1970-01-01T00:59:58.000Z</time>
      </trkpt>
      <trkpt lat="42.296036" lon="3.241994">
        <ele>217</ele>
        <time>1970-01-01T00:59:59.000Z</time>
      </trkpt>
      <trkpt lat="42.296045" lon="3.241966">
        <ele>217</ele>
        <time>1970-01-01T01:00:00.000Z</time>
      </trkpt>
      <trkpt lat="42.296055" lon="3.241939">
        <ele>217</ele>
        <time>1970-01-01T01:00:01.000Z</time>
      </trkpt>
      <trkpt lat="42.296064" lon="3.241911">
        <ele>218</ele>
        <time>1970-01-01T01:00:02.000Z</time>
      </trkpt>
      <trkpt lat="42.296083" lon="3.24185">
        <ele>218</ele>
        <time>1970-01-01T01:00:03.000Z</time>
      </trkpt>
      <trkpt lat="42.296094" lon="3.241819">
        <ele>218</ele>
        <time>1970-01-01T01:00:04.000Z</time>
      </trkpt>
      <trkpt lat="42.296105" lon="3.241787">
        <ele>218</ele>
        <time>1970-01-01T01:00:05.000Z</time>
      </trkpt>
      <trkpt lat="42.296116" lon="3.241756">
        <ele>218</ele>
        <time>1970-01-01T01:00:06.000Z</time>
      </trkpt>
      <trkpt lat="42.296126" lon="3.241725">
        <ele>218</ele>
        <time>1970-01-01T01:00:07.000Z</time>
      </trkpt>
      <trkpt lat="42.296137" lon="3.241694">
        <ele>218</ele>
        <time>1970-01-01T01:00:08.000Z</time>
      </trkpt>
      <trkpt lat="42.296148" lon="3.241662">
        <ele>218</ele>
        <time>1970-01-01T01:00:09.000Z</time>
      </trkpt>
      <trkpt lat="42.296159" lon="3.241631">
        <ele>218</ele>
        <time>1970-01-01T01:00:10.000Z</time>
      </trkpt>
      <trkpt lat="42.29617" lon="3.2416">
        <ele>220</ele>
        <time>1970-01-01T01:00:12.000Z</time>
      </trkpt>
      <trkpt lat="42.29619" lon="3.241542">
        <ele>220</ele>
        <time>1970-01-01T01:00:13.000Z</time>
      </trkpt>
      <trkpt lat="42.2962" lon="3.241514">
        <ele>220</ele>
        <time>1970-01-01T01:00:14.000Z</time>
      </trkpt>
      <trkpt lat="42.296209" lon="3.241486">
        <ele>220</ele>
        <time>1970-01-01T01:00:15.000Z</time>
      </trkpt>
      <trkpt lat="42.296219" lon="3.241458">
        <ele>220</ele>
        <time>1970-01-01T01:00:16.000Z</time>
      </trkpt>
      <trkpt lat="42.296229" lon="3.24143">
        <ele>220</ele>
        <time>1970-01-01T01:00:17.000Z</time>
      </trkpt>
      <trkpt lat="42.296239" lon="3.241401">
        <ele>220</ele>
        <time>1970-01-01T01:00:18.000Z</time>
      </trkpt>
      <trkpt lat="42.296249" lon="3.241373">
        <ele>220</ele>
        <time>1970-01-01T01:00:19.000Z</time>
      </trkpt>
      <trkpt lat="42.296258" lon="3.241345">
        <ele>220</ele>
        <time>1970-01-01T01:00:20.000Z</time>
      </trkpt>
      <trkpt lat="42.296268" lon="3.241317">
        <ele>220</ele>
        <time>1970-01-01T01:00:21.000Z</time>
      </trkpt>
      <trkpt lat="42.296278" lon="3.241289">
        <ele>221</ele>
        <time>1970-01-01T01:00:22.000Z</time>
      </trkpt>
      <trkpt lat="42.296299" lon="3.241231">
        <ele>221</ele>
        <time>1970-01-01T01:00:23.000Z</time>
      </trkpt>
      <trkpt lat="42.296309" lon="3.241204">
        <ele>221</ele>
        <time>1970-01-01T01:00:24.000Z</time>
      </trkpt>
      <trkpt lat="42.296318" lon="3.241178">
        <ele>221</ele>
        <time>1970-01-01T01:00:25.000Z</time>
      </trkpt>
      <trkpt lat="42.296328" lon="3.241151">
        <ele>221</ele>
        <time>1970-01-01T01:00:26.000Z</time>
      </trkpt>
      <trkpt lat="42.296338" lon="3.241125">
        <ele>221</ele>
        <time>1970-01-01T01:00:27.000Z</time>
      </trkpt>
      <trkpt lat="42.296348" lon="3.241098">
        <ele>221</ele>
        <time>1970-01-01T01:00:28.000Z</time>
      </trkpt>
      <trkpt lat="42.296358" lon="3.241072">
        <ele>221</ele>
        <time>1970-01-01T01:00:29.000Z</time>
      </trkpt>
      <trkpt lat="42.296367" lon="3.241045">
        <ele>221</ele>
        <time>1970-01-01T01:00:30.000Z</time>
      </trkpt>
      <trkpt lat="42.296377" lon="3.241019">
        <ele>221</ele>
        <time>1970-01-01T01:00:31.000Z</time>
      </trkpt>
      <trkpt lat="42.296387" lon="3.240992">
        <ele>222</ele>
        <time>1970-01-01T01:00:32.000Z</time>
      </trkpt>
      <trkpt lat="42.296406" lon="3.240933">
        <ele>222</ele>
        <time>1970-01-01T01:00:33.000Z</time>
      </trkpt>
      <trkpt lat="42.296414" lon="3.240904">
        <ele>222</ele>
        <time>1970-01-01T01:00:34.000Z</time>
      </trkpt>
      <trkpt lat="42.296422" lon="3.240876">
        <ele>222</ele>
        <time>1970-01-01T01:00:35.000Z</time>
      </trkpt>
      <trkpt lat="42.29643" lon="3.240847">
        <ele>222</ele>
        <time>1970-01-01T01:00:36.000Z</time>
      </trkpt>
      <trkpt lat="42.296439" lon="3.240819">
        <ele>222</ele>
        <time>1970-01-01T01:00:37.000Z</time>
      </trkpt>
      <trkpt lat="42.296447" lon="3.24079">
        <ele>222</ele>
        <time>1970-01-01T01:00:38.000Z</time>
      </trkpt>
      <trkpt lat="42.296455" lon="3.240762">
        <ele>222</ele>
        <time>1970-01-01T01:00:39.000Z</time>
      </trkpt>
      <trkpt lat="42.296463" lon="3.240733">
        <ele>222</ele>
        <time>1970-01-01T01:00:40.000Z</time>
      </trkpt>
      <trkpt lat="42.296471" lon="3.240705">
        <ele>222</ele>
        <time>1970-01-01T01:00:41.000Z</time>
      </trkpt>
      <trkpt lat="42.296479" lon="3.240676">
        <ele>224</ele>
        <time>1970-01-01T01:00:42.000Z</time>
      </trkpt>
      <trkpt lat="42.296487" lon="3.240609">
        <ele>224</ele>
        <time>1970-01-01T01:00:43.000Z</time>
      </trkpt>
      <trkpt lat="42.296489" lon="3.240578">
        <ele>224</ele>
        <time>1970-01-01T01:00:44.000Z</time>
      </trkpt>
      <trkpt lat="42.29649" lon="3.240546">
        <ele>224</ele>
        <time>1970-01-01T01:00:45.000Z</time>
      </trkpt>
      <trkpt lat="42.296492" lon="3.240515">
        <ele>224</ele>
        <time>1970-01-01T01:00:46.000Z</time>
      </trkpt>
      <trkpt lat="42.296494" lon="3.240483">
        <ele>224</ele>
        <time>1970-01-01T01:00:47.000Z</time>
      </trkpt>
      <trkpt lat="42.296496" lon="3.240451">
        <ele>224</ele>
        <time>1970-01-01T01:00:48.000Z</time>
      </trkpt>
      <trkpt lat="42.296498" lon="3.24042">
        <ele>224</ele>
        <time>1970-01-01T01:00:49.000Z</time>
      </trkpt>
      <trkpt lat="42.296499" lon="3.240388">
        <ele>224</ele>
        <time>1970-01-01T01:00:50.000Z</time>
      </trkpt>
      <trkpt lat="42.296501" lon="3.240357">
        <ele>224</ele>
        <time>1970-01-01T01:00:51.000Z</time>
      </trkpt>
      <trkpt lat="42.296503" lon="3.240325">
        <ele>226</ele>
        <time>1970-01-01T01:00:52.000Z</time>
      </trkpt>
      <trkpt lat="42.296503" lon="3.240261">
        <ele>226</ele>
        <time>1970-01-01T01:00:53.000Z</time>
      </trkpt>
      <trkpt lat="42.296505" lon="3.240231">
        <ele>226</ele>
        <time>1970-01-01T01:00:54.000Z</time>
      </trkpt>
      <trkpt lat="42.296506" lon="3.240202">
        <ele>226</ele>
        <time>1970-01-01T01:00:55.000Z</time>
      </trkpt>
      <trkpt lat="42.296507" lon="3.240172">
        <ele>226</ele>
        <time>1970-01-01T01:00:56.000Z</time>
      </trkpt>
      <trkpt lat="42.296509" lon="3.240142">
        <ele>226</ele>
        <time>1970-01-01T01:00:57.000Z</time>
      </trkpt>
      <trkpt lat="42.29651" lon="3.240112">
        <ele>226</ele>
        <time>1970-01-01T01:00:58.000Z</time>
      </trkpt>
      <trkpt lat="42.296511" lon="3.240082">
        <ele>226</ele>
        <time>1970-01-01T01:00:59.000Z</time>
      </trkpt>
      <trkpt lat="42.296512" lon="3.240053">
        <ele>226</ele>
        <time>1970-01-01T01:01:00.000Z</time>
      </trkpt>
      <trkpt lat="42.296514" lon="3.240023">
        <ele>226</ele>
        <time>1970-01-01T01:01:01.000Z</time>
      </trkpt>
      <trkpt lat="42.296515" lon="3.239993">
        <ele>226</ele>
        <time>1970-01-01T01:01:02.000Z</time>
      </trkpt>
      <trkpt lat="42.296525" lon="3.239936">
        <ele>226</ele>
        <time>1970-01-01T01:01:03.000Z</time>
      </trkpt>
      <trkpt lat="42.296532" lon="3.23991">
        <ele>226</ele>
        <time>1970-01-01T01:01:04.000Z</time>
      </trkpt>
      <trkpt lat="42.29654" lon="3.239885">
        <ele>226</ele>
        <time>1970-01-01T01:01:05.000Z</time>
      </trkpt>
      <trkpt lat="42.296547" lon="3.239859">
        <ele>226</ele>
        <time>1970-01-01T01:01:06.000Z</time>
      </trkpt>
      <trkpt lat="42.296555" lon="3.239834">
        <ele>226</ele>
        <time>1970-01-01T01:01:07.000Z</time>
      </trkpt>
      <trkpt lat="42.296562" lon="3.239808">
        <ele>226</ele>
        <time>1970-01-01T01:01:08.000Z</time>
      </trkpt>
      <trkpt lat="42.29657" lon="3.239783">
        <ele>226</ele>
        <time>1970-01-01T01:01:09.000Z</time>
      </trkpt>
      <trkpt lat="42.296577" lon="3.239757">
        <ele>226</ele>
        <time>1970-01-01T01:01:10.000Z</time>
      </trkpt>
      <trkpt lat="42.296585" lon="3.239732">
        <ele>226</ele>
        <time>1970-01-01T01:01:11.000Z</time>
      </trkpt>
      <trkpt lat="42.296592" lon="3.239706">
        <ele>228</ele>
        <time>1970-01-01T01:01:12.000Z</time>
      </trkpt>
      <trkpt lat="42.296609" lon="3.239654">
        <ele>228</ele>
        <time>1970-01-01T01:01:13.000Z</time>
      </trkpt>
      <trkpt lat="42.296616" lon="3.239629">
        <ele>228</ele>
        <time>1970-01-01T01:01:14.000Z</time>
      </trkpt>
      <trkpt lat="42.296624" lon="3.239604">
        <ele>228</ele>
        <time>1970-01-01T01:01:15.000Z</time>
      </trkpt>
      <trkpt lat="42.296631" lon="3.239579">
        <ele>228</ele>
        <time>1970-01-01T01:01:16.000Z</time>
      </trkpt>
      <trkpt lat="42.296638" lon="3.239554">
        <ele>228</ele>
        <time>1970-01-01T01:01:17.000Z</time>
      </trkpt>
      <trkpt lat="42.296645" lon="3.239528">
        <ele>228</ele>
        <time>1970-01-01T01:01:18.000Z</time>
      </trkpt>
      <trkpt lat="42.296652" lon="3.239503">
        <ele>228</ele>
        <time>1970-01-01T01:01:19.000Z</time>
      </trkpt>
      <trkpt lat="42.29666" lon="3.239478">
        <ele>228</ele>
        <time>1970-01-01T01:01:20.000Z</time>
      </trkpt>
      <trkpt lat="42.296667" lon="3.239453">
        <ele>228</ele>
        <time>1970-01-01T01:01:21.000Z</time>
      </trkpt>
      <trkpt lat="42.296674" lon="3.239428">
        <ele>229</ele>
        <time>1970-01-01T01:01:22.000Z</time>
      </trkpt>
      <trkpt lat="42.296681" lon="3.239368">
        <ele>229</ele>
        <time>1970-01-01T01:01:23.000Z</time>
      </trkpt>
      <trkpt lat="42.296683" lon="3.239337">
        <ele>229</ele>
        <time>1970-01-01T01:01:24.000Z</time>
      </trkpt>
      <trkpt lat="42.296686" lon="3.239307">
        <ele>229</ele>
        <time>1970-01-01T01:01:25.000Z</time>
      </trkpt>
      <trkpt lat="42.296688" lon="3.239276">
        <ele>229</ele>
        <time>1970-01-01T01:01:26.000Z</time>
      </trkpt>
      <trkpt lat="42.29669" lon="3.239246">
        <ele>229</ele>
        <time>1970-01-01T01:01:27.000Z</time>
      </trkpt>
      <trkpt lat="42.296692" lon="3.239216">
        <ele>229</ele>
        <time>1970-01-01T01:01:28.000Z</time>
      </trkpt>
      <trkpt lat="42.296694" lon="3.239185">
        <ele>229</ele>
        <time>1970-01-01T01:01:29.000Z</time>
      </trkpt>
      <trkpt lat="42.296697" lon="3.239155">
        <ele>229</ele>
        <time>1970-01-01T01:01:30.000Z</time>
      </trkpt>
      <trkpt lat="42.296699" lon="3.239124">
        <ele>229</ele>
        <time>1970-01-01T01:01:31.000Z</time>
      </trkpt>
      <trkpt lat="42.296701" lon="3.239094">
        <ele>230</ele>
        <time>1970-01-01T01:01:32.000Z</time>
      </trkpt>
      <trkpt lat="42.296699" lon="3.239028">
        <ele>230</ele>
        <time>1970-01-01T01:01:33.000Z</time>
      </trkpt>
      <trkpt lat="42.296697" lon="3.238995">
        <ele>230</ele>
        <time>1970-01-01T01:01:34.000Z</time>
      </trkpt>
      <trkpt lat="42.296694" lon="3.238961">
        <ele>230</ele>
        <time>1970-01-01T01:01:35.000Z</time>
      </trkpt>
      <trkpt lat="42.296692" lon="3.238928">
        <ele>230</ele>
        <time>1970-01-01T01:01:36.000Z</time>
      </trkpt>
      <trkpt lat="42.296689" lon="3.238895">
        <ele>230</ele>
        <time>1970-01-01T01:01:37.000Z</time>
      </trkpt>
      <trkpt lat="42.296686" lon="3.238862">
        <ele>230</ele>
        <time>1970-01-01T01:01:38.000Z</time>
      </trkpt>
      <trkpt lat="42.296684" lon="3.238829">
        <ele>230</ele>
        <time>1970-01-01T01:01:39.000Z</time>
      </trkpt>
      <trkpt lat="42.296681" lon="3.238795">
        <ele>230</ele>
        <time>1970-01-01T01:01:40.000Z</time>
      </trkpt>
      <trkpt lat="42.296679" lon="3.238762">
        <ele>230</ele>
        <time>1970-01-01T01:01:41.000Z</time>
      </trkpt>
      <trkpt lat="42.296676" lon="3.238729">
        <ele>232</ele>
        <time>1970-01-01T01:01:43.000Z</time>
      </trkpt>
      <trkpt lat="42.296659" lon="3.23867">
        <ele>232</ele>
        <time>1970-01-01T01:01:44.000Z</time>
      </trkpt>
      <trkpt lat="42.296649" lon="3.238642">
        <ele>232</ele>
        <time>1970-01-01T01:01:45.000Z</time>
      </trkpt>
      <trkpt lat="42.29664" lon="3.238614">
        <ele>232</ele>
        <time>1970-01-01T01:01:46.000Z</time>
      </trkpt>
      <trkpt lat="42.296631" lon="3.238586">
        <ele>232</ele>
        <time>1970-01-01T01:01:47.000Z</time>
      </trkpt>
      <trkpt lat="42.296621" lon="3.238558">
        <ele>232</ele>
        <time>1970-01-01T01:01:48.000Z</time>
      </trkpt>
      <trkpt lat="42.296612" lon="3.23853">
        <ele>232</ele>
        <time>1970-01-01T01:01:49.000Z</time>
      </trkpt>
      <trkpt lat="42.296603" lon="3.238502">
        <ele>232</ele>
        <time>1970-01-01T01:01:50.000Z</time>
      </trkpt>
      <trkpt lat="42.296593" lon="3.238474">
        <ele>232</ele>
        <time>1970-01-01T01:01:51.000Z</time>
      </trkpt>
      <trkpt lat="42.296584" lon="3.238446">
        <ele>233</ele>
        <time>1970-01-01T01:01:52.000Z</time>
      </trkpt>
      <trkpt lat="42.296564" lon="3.238387">
        <ele>233</ele>
        <time>1970-01-01T01:01:53.000Z</time>
      </trkpt>
      <trkpt lat="42.296555" lon="3.23836">
        <ele>233</ele>
        <time>1970-01-01T01:01:54.000Z</time>
      </trkpt>
      <trkpt lat="42.296545" lon="3.238332">
        <ele>233</ele>
        <time>1970-01-01T01:01:55.000Z</time>
      </trkpt>
      <trkpt lat="42.296536" lon="3.238305">
        <ele>233</ele>
        <time>1970-01-01T01:01:56.000Z</time>
      </trkpt>
      <trkpt lat="42.296526" lon="3.238277">
        <ele>233</ele>
        <time>1970-01-01T01:01:57.000Z</time>
      </trkpt>
      <trkpt lat="42.296516" lon="3.238249">
        <ele>233</ele>
        <time>1970-01-01T01:01:58.000Z</time>
      </trkpt>
      <trkpt lat="42.296507" lon="3.238222">
        <ele>233</ele>
        <time>1970-01-01T01:01:59.000Z</time>
      </trkpt>
      <trkpt lat="42.296497" lon="3.238194">
        <ele>233</ele>
        <time>1970-01-01T01:02:00.000Z</time>
      </trkpt>
      <trkpt lat="42.296488" lon="3.238167">
        <ele>233</ele>
        <time>1970-01-01T01:02:01.000Z</time>
      </trkpt>
      <trkpt lat="42.296478" lon="3.238139">
        <ele>233</ele>
        <time>1970-01-01T01:02:02.000Z</time>
      </trkpt>
      <trkpt lat="42.296457" lon="3.238082">
        <ele>233</ele>
        <time>1970-01-01T01:02:03.000Z</time>
      </trkpt>
      <trkpt lat="42.296447" lon="3.238055">
        <ele>233</ele>
        <time>1970-01-01T01:02:04.000Z</time>
      </trkpt>
      <trkpt lat="42.296436" lon="3.238028">
        <ele>233</ele>
        <time>1970-01-01T01:02:05.000Z</time>
      </trkpt>
      <trkpt lat="42.296426" lon="3.238001">
        <ele>233</ele>
        <time>1970-01-01T01:02:06.000Z</time>
      </trkpt>
      <trkpt lat="42.296416" lon="3.237974">
        <ele>233</ele>
        <time>1970-01-01T01:02:07.000Z</time>
      </trkpt>
      <trkpt lat="42.296406" lon="3.237947">
        <ele>233</ele>
        <time>1970-01-01T01:02:08.000Z</time>
      </trkpt>
      <trkpt lat="42.296396" lon="3.23792">
        <ele>233</ele>
        <time>1970-01-01T01:02:09.000Z</time>
      </trkpt>
      <trkpt lat="42.296385" lon="3.237893">
        <ele>233</ele>
        <time>1970-01-01T01:02:10.000Z</time>
      </trkpt>
      <trkpt lat="42.296375" lon="3.237866">
        <ele>233</ele>
        <time>1970-01-01T01:02:11.000Z</time>
      </trkpt>
      <trkpt lat="42.296365" lon="3.237839">
        <ele>235</ele>
        <time>1970-01-01T01:02:12.000Z</time>
      </trkpt>
      <trkpt lat="42.296353" lon="3.237779">
        <ele>235</ele>
        <time>1970-01-01T01:02:13.000Z</time>
      </trkpt>
      <trkpt lat="42.296352" lon="3.23775">
        <ele>235</ele>
        <time>1970-01-01T01:02:14.000Z</time>
      </trkpt>
      <trkpt lat="42.296352" lon="3.23772">
        <ele>235</ele>
        <time>1970-01-01T01:02:15.000Z</time>
      </trkpt>
      <trkpt lat="42.296351" lon="3.23769">
        <ele>235</ele>
        <time>1970-01-01T01:02:16.000Z</time>
      </trkpt>
      <trkpt lat="42.296351" lon="3.23766">
        <ele>235</ele>
        <time>1970-01-01T01:02:17.000Z</time>
      </trkpt>
      <trkpt lat="42.29635" lon="3.237631">
        <ele>235</ele>
        <time>1970-01-01T01:02:18.000Z</time>
      </trkpt>
      <trkpt lat="42.29635" lon="3.237601">
        <ele>235</ele>
        <time>1970-01-01T01:02:19.000Z</time>
      </trkpt>
      <trkpt lat="42.296349" lon="3.237571">
        <ele>235</ele>
        <time>1970-01-01T01:02:20.000Z</time>
      </trkpt>
      <trkpt lat="42.296349" lon="3.237542">
        <ele>235</ele>
        <time>1970-01-01T01:02:21.000Z</time>
      </trkpt>
      <trkpt lat="42.296348" lon="3.237512">
        <ele>236</ele>
        <time>1970-01-01T01:02:22.000Z</time>
      </trkpt>
      <trkpt lat="42.296368" lon="3.237451">
        <ele>236</ele>
        <time>1970-01-01T01:02:23.000Z</time>
      </trkpt>
      <trkpt lat="42.296379" lon="3.23742">
        <ele>236</ele>
        <time>1970-01-01T01:02:24.000Z</time>
      </trkpt>
      <trkpt lat="42.296389" lon="3.23739">
        <ele>236</ele>
        <time>1970-01-01T01:02:25.000Z</time>
      </trkpt>
      <trkpt lat="42.2964" lon="3.237359">
        <ele>236</ele>
        <time>1970-01-01T01:02:26.000Z</time>
      </trkpt>
      <trkpt lat="42.29641" lon="3.237328">
        <ele>236</ele>
        <time>1970-01-01T01:02:27.000Z</time>
      </trkpt>
      <trkpt lat="42.29642" lon="3.237297">
        <ele>236</ele>
        <time>1970-01-01T01:02:28.000Z</time>
      </trkpt>
      <trkpt lat="42.296431" lon="3.237266">
        <ele>236</ele>
        <time>1970-01-01T01:02:29.000Z</time>
      </trkpt>
      <trkpt lat="42.296441" lon="3.237236">
        <ele>236</ele>
        <time>1970-01-01T01:02:30.000Z</time>
      </trkpt>
      <trkpt lat="42.296452" lon="3.237205">
        <ele>236</ele>
        <time>1970-01-01T01:02:31.000Z</time>
      </trkpt>
      <trkpt lat="42.296462" lon="3.237174">
        <ele>236</ele>
        <time>1970-01-01T01:02:32.000Z</time>
      </trkpt>
      <trkpt lat="42.296484" lon="3.237101">
        <ele>236</ele>
        <time>1970-01-01T01:02:33.000Z</time>
      </trkpt>
      <trkpt lat="42.296496" lon="3.237068">
        <ele>236</ele>
        <time>1970-01-01T01:02:34.000Z</time>
      </trkpt>
      <trkpt lat="42.296507" lon="3.237034">
        <ele>236</ele>
        <time>1970-01-01T01:02:35.000Z</time>
      </trkpt>
      <trkpt lat="42.296519" lon="3.237">
        <ele>236</ele>
        <time>1970-01-01T01:02:36.000Z</time>
      </trkpt>
      <trkpt lat="42.29653" lon="3.236967">
        <ele>236</ele>
        <time>1970-01-01T01:02:37.000Z</time>
      </trkpt>
      <trkpt lat="42.296541" lon="3.236933">
        <ele>236</ele>
        <time>1970-01-01T01:02:38.000Z</time>
      </trkpt>
      <trkpt lat="42.296553" lon="3.236899">
        <ele>236</ele>
        <time>1970-01-01T01:02:39.000Z</time>
      </trkpt>
      <trkpt lat="42.296564" lon="3.236865">
        <ele>236</ele>
        <time>1970-01-01T01:02:40.000Z</time>
      </trkpt>
      <trkpt lat="42.296576" lon="3.236832">
        <ele>236</ele>
        <time>1970-01-01T01:02:41.000Z</time>
      </trkpt>
      <trkpt lat="42.296587" lon="3.236798">
        <ele>237</ele>
        <time>1970-01-01T01:02:42.000Z</time>
      </trkpt>
      <trkpt lat="42.296619" lon="3.236734">
        <ele>237</ele>
        <time>1970-01-01T01:02:43.000Z</time>
      </trkpt>
      <trkpt lat="42.296638" lon="3.236709">
        <ele>237</ele>
        <time>1970-01-01T01:02:44.000Z</time>
      </trkpt>
      <trkpt lat="42.296657" lon="3.236684">
        <ele>237</ele>
        <time>1970-01-01T01:02:45.000Z</time>
      </trkpt>
      <trkpt lat="42.296676" lon="3.236659">
        <ele>237</ele>
        <time>1970-01-01T01:02:46.000Z</time>
      </trkpt>
      <trkpt lat="42.296696" lon="3.236634">
        <ele>237</ele>
        <time>1970-01-01T01:02:47.000Z</time>
      </trkpt>
      <trkpt lat="42.296715" lon="3.236609">
        <ele>237</ele>
        <time>1970-01-01T01:02:48.000Z</time>
      </trkpt>
      <trkpt lat="42.296734" lon="3.236584">
        <ele>237</ele>
        <time>1970-01-01T01:02:49.000Z</time>
      </trkpt>
      <trkpt lat="42.296753" lon="3.236559">
        <ele>237</ele>
        <time>1970-01-01T01:02:50.000Z</time>
      </trkpt>
      <trkpt lat="42.296772" lon="3.236534">
        <ele>237</ele>
        <time>1970-01-01T01:02:51.000Z</time>
      </trkpt>
      <trkpt lat="42.296791" lon="3.236509">
        <ele>238</ele>
        <time>1970-01-01T01:02:52.000Z</time>
      </trkpt>
      <trkpt lat="42.296812" lon="3.23648">
        <ele>238</ele>
        <time>1970-01-01T01:02:54.000Z</time>
      </trkpt>
      <trkpt lat="42.296812" lon="3.236453">
        <ele>238</ele>
        <time>1970-01-01T01:02:59.000Z</time>
      </trkpt>
      <trkpt lat="42.296812" lon="3.236453">
        <ele>237</ele>
        <time>1970-01-01T01:03:02.000Z</time>
      </trkpt>
      <trkpt lat="42.296812" lon="3.236437">
        <ele>237</ele>
        <time>1970-01-01T01:03:06.000Z</time>
      </trkpt>
      <trkpt lat="42.29688" lon="3.236454">
        <ele>244</ele>
        <time>1970-01-01T01:13:20.000Z</time>
      </trkpt>
      <trkpt lat="42.296887" lon="3.236428">
        <ele>244</ele>
        <time>1970-01-01T01:13:21.000Z</time>
      </trkpt>
      <trkpt lat="42.296886" lon="3.236383">
        <ele>244</ele>
        <time>1970-01-01T01:13:23.000Z</time>
      </trkpt>
      <trkpt lat="42.296877" lon="3.236342">
        <ele>244</ele>
        <time>1970-01-01T01:13:25.000Z</time>
      </trkpt>
      <trkpt lat="42.296871" lon="3.236304">
        <ele>244</ele>
        <time>1970-01-01T01:13:27.000Z</time>
      </trkpt>
      <trkpt lat="42.296868" lon="3.236274">
        <ele>244</ele>
        <time>1970-01-01T01:13:29.000Z</time>
      </trkpt>
      <trkpt lat="42.296855" lon="3.236203">
        <ele>244</ele>
        <time>1970-01-01T01:13:31.000Z</time>
      </trkpt>
      <trkpt lat="42.296853" lon="3.236174">
        <ele>244</ele>
        <time>1970-01-01T01:13:32.000Z</time>
      </trkpt>
      <trkpt lat="42.296852" lon="3.236146">
        <ele>244</ele>
        <time>1970-01-01T01:13:33.000Z</time>
      </trkpt>
      <trkpt lat="42.29685" lon="3.236118">
        <ele>244</ele>
        <time>1970-01-01T01:13:34.000Z</time>
      </trkpt>
      <trkpt lat="42.296848" lon="3.236089">
        <ele>244</ele>
        <time>1970-01-01T01:13:35.000Z</time>
      </trkpt>
      <trkpt lat="42.296846" lon="3.236061">
        <ele>244</ele>
        <time>1970-01-01T01:13:36.000Z</time>
      </trkpt>
      <trkpt lat="42.296845" lon="3.236033">
        <ele>244</ele>
        <time>1970-01-01T01:13:37.000Z</time>
      </trkpt>
      <trkpt lat="42.296843" lon="3.236004">
        <ele>244</ele>
        <time>1970-01-01T01:13:38.000Z</time>
      </trkpt>
      <trkpt lat="42.296841" lon="3.235976">
        <ele>245</ele>
        <time>1970-01-01T01:13:39.000Z</time>
      </trkpt>
      <trkpt lat="42.296854" lon="3.235913">
        <ele>245</ele>
        <time>1970-01-01T01:13:40.000Z</time>
      </trkpt>
      <trkpt lat="42.296863" lon="3.235883">
        <ele>245</ele>
        <time>1970-01-01T01:13:41.000Z</time>
      </trkpt>
      <trkpt lat="42.296872" lon="3.235853">
        <ele>245</ele>
        <time>1970-01-01T01:13:42.000Z</time>
      </trkpt>
      <trkpt lat="42.296881" lon="3.235823">
        <ele>245</ele>
        <time>1970-01-01T01:13:43.000Z</time>
      </trkpt>
      <trkpt lat="42.29689" lon="3.235794">
        <ele>245</ele>
        <time>1970-01-01T01:13:44.000Z</time>
      </trkpt>
      <trkpt lat="42.296899" lon="3.235764">
        <ele>245</ele>
        <time>1970-01-01T01:13:45.000Z</time>
      </trkpt>
      <trkpt lat="42.296908" lon="3.235734">
        <ele>245</ele>
        <time>1970-01-01T01:13:46.000Z</time>
      </trkpt>
      <trkpt lat="42.296917" lon="3.235704">
        <ele>245</ele>
        <time>1970-01-01T01:13:47.000Z</time>
      </trkpt>
      <trkpt lat="42.296926" lon="3.235674">
        <ele>245</ele>
        <time>1970-01-01T01:13:48.000Z</time>
      </trkpt>
      <trkpt lat="42.296935" lon="3.235644">
        <ele>246</ele>
        <time>1970-01-01T01:13:49.000Z</time>
      </trkpt>
      <trkpt lat="42.296945" lon="3.235577">
        <ele>246</ele>
        <time>1970-01-01T01:13:50.000Z</time>
      </trkpt>
      <trkpt lat="42.296944" lon="3.235543">
        <ele>246</ele>
        <time>1970-01-01T01:13:51.000Z</time>
      </trkpt>
      <trkpt lat="42.296943" lon="3.235509">
        <ele>246</ele>
        <time>1970-01-01T01:13:52.000Z</time>
      </trkpt>
      <trkpt lat="42.296942" lon="3.235475">
        <ele>246</ele>
        <time>1970-01-01T01:13:53.000Z</time>
      </trkpt>
      <trkpt lat="42.296942" lon="3.235441">
        <ele>246</ele>
        <time>1970-01-01T01:13:54.000Z</time>
      </trkpt>
      <trkpt lat="42.296941" lon="3.235407">
        <ele>246</ele>
        <time>1970-01-01T01:13:55.000Z</time>
      </trkpt>
      <trkpt lat="42.29694" lon="3.235373">
        <ele>246</ele>
        <time>1970-01-01T01:13:56.000Z</time>
      </trkpt>
      <trkpt lat="42.296939" lon="3.235339">
        <ele>246</ele>
        <time>1970-01-01T01:13:57.000Z</time>
      </trkpt>
      <trkpt lat="42.296938" lon="3.235305">
        <ele>246</ele>
        <time>1970-01-01T01:13:58.000Z</time>
      </trkpt>
      <trkpt lat="42.296937" lon="3.235271">
        <ele>246</ele>
        <time>1970-01-01T01:13:59.000Z</time>
      </trkpt>
      <trkpt lat="42.296899" lon="3.235216">
        <ele>246</ele>
        <time>1970-01-01T01:14:00.000Z</time>
      </trkpt>
      <trkpt lat="42.296874" lon="3.235195">
        <ele>246</ele>
        <time>1970-01-01T01:14:01.000Z</time>
      </trkpt>
      <trkpt lat="42.296848" lon="3.235173">
        <ele>246</ele>
        <time>1970-01-01T01:14:02.000Z</time>
      </trkpt>
      <trkpt lat="42.296823" lon="3.235152">
        <ele>246</ele>
        <time>1970-01-01T01:14:03.000Z</time>
      </trkpt>
      <trkpt lat="42.296798" lon="3.23513">
        <ele>246</ele>
        <time>1970-01-01T01:14:04.000Z</time>
      </trkpt>
      <trkpt lat="42.296773" lon="3.235108">
        <ele>246</ele>
        <time>1970-01-01T01:14:05.000Z</time>
      </trkpt>
      <trkpt lat="42.296748" lon="3.235087">
        <ele>246</ele>
        <time>1970-01-01T01:14:06.000Z</time>
      </trkpt>
      <trkpt lat="42.296722" lon="3.235065">
        <ele>246</ele>
        <time>1970-01-01T01:14:07.000Z</time>
      </trkpt>
      <trkpt lat="42.296697" lon="3.235044">
        <ele>246</ele>
        <time>1970-01-01T01:14:08.000Z</time>
      </trkpt>
      <trkpt lat="42.296672" lon="3.235022">
        <ele>247</ele>
        <time>1970-01-01T01:14:09.000Z</time>
      </trkpt>
      <trkpt lat="42.296605" lon="3.235">
        <ele>247</ele>
        <time>1970-01-01T01:14:10.000Z</time>
      </trkpt>
      <trkpt lat="42.296574" lon="3.234988">
        <ele>247</ele>
        <time>1970-01-01T01:14:11.000Z</time>
      </trkpt>
      <trkpt lat="42.296543" lon="3.234977">
        <ele>247</ele>
        <time>1970-01-01T01:14:12.000Z</time>
      </trkpt>
      <trkpt lat="42.296512" lon="3.234966">
        <ele>247</ele>
        <time>1970-01-01T01:14:13.000Z</time>
      </trkpt>
      <trkpt lat="42.296481" lon="3.234954">
        <ele>247</ele>
        <time>1970-01-01T01:14:14.000Z</time>
      </trkpt>
      <trkpt lat="42.296449" lon="3.234943">
        <ele>247</ele>
        <time>1970-01-01T01:14:15.000Z</time>
      </trkpt>
      <trkpt lat="42.296418" lon="3.234932">
        <ele>247</ele>
        <time>1970-01-01T01:14:16.000Z</time>
      </trkpt>
      <trkpt lat="42.296387" lon="3.234921">
        <ele>247</ele>
        <time>1970-01-01T01:14:17.000Z</time>
      </trkpt>
      <trkpt lat="42.296356" lon="3.234909">
        <ele>247</ele>
        <time>1970-01-01T01:14:18.000Z</time>
      </trkpt>
      <trkpt lat="42.296325" lon="3.234898">
        <ele>246</ele>
        <time>1970-01-01T01:14:19.000Z</time>
      </trkpt>
      <trkpt lat="42.296254" lon="3.234871">
        <ele>246</ele>
        <time>1970-01-01T01:14:20.000Z</time>
      </trkpt>
      <trkpt lat="42.296218" lon="3.234859">
        <ele>246</ele>
        <time>1970-01-01T01:14:21.000Z</time>
      </trkpt>
      <trkpt lat="42.296183" lon="3.234846">
        <ele>246</ele>
        <time>1970-01-01T01:14:22.000Z</time>
      </trkpt>
      <trkpt lat="42.296147" lon="3.234834">
        <ele>246</ele>
        <time>1970-01-01T01:14:23.000Z</time>
      </trkpt>
      <trkpt lat="42.296112" lon="3.234821">
        <ele>246</ele>
        <time>1970-01-01T01:14:24.000Z</time>
      </trkpt>
      <trkpt lat="42.296076" lon="3.234808">
        <ele>246</ele>
        <time>1970-01-01T01:14:25.000Z</time>
      </trkpt>
      <trkpt lat="42.296041" lon="3.234796">
        <ele>246</ele>
        <time>1970-01-01T01:14:26.000Z</time>
      </trkpt>
      <trkpt lat="42.296005" lon="3.234783">
        <ele>246</ele>
        <time>1970-01-01T01:14:27.000Z</time>
      </trkpt>
      <trkpt lat="42.29597" lon="3.234771">
        <ele>246</ele>
        <time>1970-01-01T01:14:28.000Z</time>
      </trkpt>
      <trkpt lat="42.295934" lon="3.234758">
        <ele>246</ele>
        <time>1970-01-01T01:14:29.000Z</time>
      </trkpt>
      <trkpt lat="42.295858" lon="3.234728">
        <ele>246</ele>
        <time>1970-01-01T01:14:30.000Z</time>
      </trkpt>
      <trkpt lat="42.295821" lon="3.234715">
        <ele>246</ele>
        <time>1970-01-01T01:14:31.000Z</time>
      </trkpt>
      <trkpt lat="42.295785" lon="3.234701">
        <ele>246</ele>
        <time>1970-01-01T01:14:32.000Z</time>
      </trkpt>
      <trkpt lat="42.295748" lon="3.234687">
        <ele>246</ele>
        <time>1970-01-01T01:14:33.000Z</time>
      </trkpt>
      <trkpt lat="42.295712" lon="3.234673">
        <ele>246</ele>
        <time>1970-01-01T01:14:34.000Z</time>
      </trkpt>
      <trkpt lat="42.295675" lon="3.23466">
        <ele>246</ele>
        <time>1970-01-01T01:14:35.000Z</time>
      </trkpt>
      <trkpt lat="42.295639" lon="3.234646">
        <ele>246</ele>
        <time>1970-01-01T01:14:36.000Z</time>
      </trkpt>
      <trkpt lat="42.295602" lon="3.234632">
        <ele>246</ele>
        <time>1970-01-01T01:14:37.000Z</time>
      </trkpt>
      <trkpt lat="42.295566" lon="3.234619">
        <ele>246</ele>
        <time>1970-01-01T01:14:38.000Z</time>
      </trkpt>
      <trkpt lat="42.295529" lon="3.234605">
        <ele>246</ele>
        <time>1970-01-01T01:14:39.000Z</time>
      </trkpt>
      <trkpt lat="42.295444" lon="3.234593">
        <ele>246</ele>
        <time>1970-01-01T01:14:40.000Z</time>
      </trkpt>
      <trkpt lat="42.295403" lon="3.234596">
        <ele>246</ele>
        <time>1970-01-01T01:14:41.000Z</time>
      </trkpt>
      <trkpt lat="42.295362" lon="3.234598">
        <ele>246</ele>
        <time>1970-01-01T01:14:42.000Z</time>
      </trkpt>
      <trkpt lat="42.295321" lon="3.234601">
        <ele>246</ele>
        <time>1970-01-01T01:14:43.000Z</time>
      </trkpt>
      <trkpt lat="42.29528" lon="3.234604">
        <ele>246</ele>
        <time>1970-01-01T01:14:44.000Z</time>
      </trkpt>
      <trkpt lat="42.295238" lon="3.234607">
        <ele>246</ele>
        <time>1970-01-01T01:14:45.000Z</time>
      </trkpt>
      <trkpt lat="42.295197" lon="3.23461">
        <ele>246</ele>
        <time>1970-01-01T01:14:46.000Z</time>
      </trkpt>
      <trkpt lat="42.295156" lon="3.234612">
        <ele>246</ele>
        <time>1970-01-01T01:14:47.000Z</time>
      </trkpt>
      <trkpt lat="42.295115" lon="3.234615">
        <ele>246</ele>
        <time>1970-01-01T01:14:48.000Z</time>
      </trkpt>
      <trkpt lat="42.295074" lon="3.234618">
        <ele>246</ele>
        <time>1970-01-01T01:14:49.000Z</time>
      </trkpt>
      <trkpt lat="42.29499" lon="3.234631">
        <ele>246</ele>
        <time>1970-01-01T01:14:50.000Z</time>
      </trkpt>
      <trkpt lat="42.294951" lon="3.234635">
        <ele>246</ele>
        <time>1970-01-01T01:14:51.000Z</time>
      </trkpt>
      <trkpt lat="42.294913" lon="3.234639">
        <ele>246</ele>
        <time>1970-01-01T01:14:52.000Z</time>
      </trkpt>
      <trkpt lat="42.294874" lon="3.234643">
        <ele>246</ele>
        <time>1970-01-01T01:14:53.000Z</time>
      </trkpt>
      <trkpt lat="42.294835" lon="3.234648">
        <ele>246</ele>
        <time>1970-01-01T01:14:54.000Z</time>
      </trkpt>
      <trkpt lat="42.294796" lon="3.234652">
        <ele>246</ele>
        <time>1970-01-01T01:14:55.000Z</time>
      </trkpt>
      <trkpt lat="42.294757" lon="3.234656">
        <ele>246</ele>
        <time>1970-01-01T01:14:56.000Z</time>
      </trkpt>
      <trkpt lat="42.294719" lon="3.23466">
        <ele>246</ele>
        <time>1970-01-01T01:14:57.000Z</time>
      </trkpt>
      <trkpt lat="42.29468" lon="3.234664">
        <ele>246</ele>
        <time>1970-01-01T01:14:58.000Z</time>
      </trkpt>
      <trkpt lat="42.294641" lon="3.234668">
        <ele>246</ele>
        <time>1970-01-01T01:14:59.000Z</time>
      </trkpt>
      <trkpt lat="42.294566" lon="3.234636">
        <ele>246</ele>
        <time>1970-01-01T01:15:00.000Z</time>
      </trkpt>
      <trkpt lat="42.294533" lon="3.234615">
        <ele>246</ele>
        <time>1970-01-01T01:15:01.000Z</time>
      </trkpt>
      <trkpt lat="42.2945" lon="3.234594">
        <ele>246</ele>
        <time>1970-01-01T01:15:02.000Z</time>
      </trkpt>
      <trkpt lat="42.294467" lon="3.234573">
        <ele>246</ele>
        <time>1970-01-01T01:15:03.000Z</time>
      </trkpt>
      <trkpt lat="42.294434" lon="3.234551">
        <ele>246</ele>
        <time>1970-01-01T01:15:04.000Z</time>
      </trkpt>
      <trkpt lat="42.2944" lon="3.23453">
        <ele>246</ele>
        <time>1970-01-01T01:15:05.000Z</time>
      </trkpt>
      <trkpt lat="42.294367" lon="3.234509">
        <ele>246</ele>
        <time>1970-01-01T01:15:06.000Z</time>
      </trkpt>
      <trkpt lat="42.294334" lon="3.234488">
        <ele>246</ele>
        <time>1970-01-01T01:15:07.000Z</time>
      </trkpt>
      <trkpt lat="42.294301" lon="3.234467">
        <ele>246</ele>
        <time>1970-01-01T01:15:08.000Z</time>
      </trkpt>
      <trkpt lat="42.294268" lon="3.234446">
        <ele>245</ele>
        <time>1970-01-01T01:15:09.000Z</time>
      </trkpt>
      <trkpt lat="42.2942" lon="3.234401">
        <ele>245</ele>
        <time>1970-01-01T01:15:10.000Z</time>
      </trkpt>
      <trkpt lat="42.294167" lon="3.23438">
        <ele>245</ele>
        <time>1970-01-01T01:15:12.000Z</time>
      </trkpt>
      <trkpt lat="42.294133" lon="3.234359">
        <ele>245</ele>
        <time>1970-01-01T01:15:13.000Z</time>
      </trkpt>
      <trkpt lat="42.2941" lon="3.234338">
        <ele>245</ele>
        <time>1970-01-01T01:15:14.000Z</time>
      </trkpt>
      <trkpt lat="42.294066" lon="3.234316">
        <ele>245</ele>
        <time>1970-01-01T01:15:15.000Z</time>
      </trkpt>
      <trkpt lat="42.294033" lon="3.234295">
        <ele>245</ele>
        <time>1970-01-01T01:15:16.000Z</time>
      </trkpt>
      <trkpt lat="42.293999" lon="3.234274">
        <ele>245</ele>
        <time>1970-01-01T01:15:17.000Z</time>
      </trkpt>
      <trkpt lat="42.293966" lon="3.234253">
        <ele>245</ele>
        <time>1970-01-01T01:15:18.000Z</time>
      </trkpt>
      <trkpt lat="42.293932" lon="3.234232">
        <ele>245</ele>
        <time>1970-01-01T01:15:19.000Z</time>
      </trkpt>
      <trkpt lat="42.293876" lon="3.234174">
        <ele>245</ele>
        <time>1970-01-01T01:15:20.000Z</time>
      </trkpt>
      <trkpt lat="42.293853" lon="3.234138">
        <ele>245</ele>
        <time>1970-01-01T01:15:21.000Z</time>
      </trkpt>
      <trkpt lat="42.293829" lon="3.234101">
        <ele>245</ele>
        <time>1970-01-01T01:15:22.000Z</time>
      </trkpt>
      <trkpt lat="42.293805" lon="3.234065">
        <ele>245</ele>
        <time>1970-01-01T01:15:23.000Z</time>
      </trkpt>
      <trkpt lat="42.293782" lon="3.234028">
        <ele>245</ele>
        <time>1970-01-01T01:15:24.000Z</time>
      </trkpt>
      <trkpt lat="42.293758" lon="3.233992">
        <ele>245</ele>
        <time>1970-01-01T01:15:25.000Z</time>
      </trkpt>
      <trkpt lat="42.293734" lon="3.233955">
        <ele>245</ele>
        <time>1970-01-01T01:15:26.000Z</time>
      </trkpt>
      <trkpt lat="42.29371" lon="3.233919">
        <ele>245</ele>
        <time>1970-01-01T01:15:27.000Z</time>
      </trkpt>
      <trkpt lat="42.293687" lon="3.233882">
        <ele>245</ele>
        <time>1970-01-01T01:15:28.000Z</time>
      </trkpt>
      <trkpt lat="42.293663" lon="3.233846">
        <ele>245</ele>
        <time>1970-01-01T01:15:29.000Z</time>
      </trkpt>
      <trkpt lat="42.293625" lon="3.233751">
        <ele>245</ele>
        <time>1970-01-01T01:15:30.000Z</time>
      </trkpt>
      <trkpt lat="42.293606" lon="3.233706">
        <ele>245</ele>
        <time>1970-01-01T01:15:31.000Z</time>
      </trkpt>
      <trkpt lat="42.293588" lon="3.23366">
        <ele>245</ele>
        <time>1970-01-01T01:15:32.000Z</time>
      </trkpt>
      <trkpt lat="42.293569" lon="3.233615">
        <ele>245</ele>
        <time>1970-01-01T01:15:33.000Z</time>
      </trkpt>
      <trkpt lat="42.293551" lon="3.23357">
        <ele>245</ele>
        <time>1970-01-01T01:15:34.000Z</time>
      </trkpt>
      <trkpt lat="42.293532" lon="3.233525">
        <ele>245</ele>
        <time>1970-01-01T01:15:35.000Z</time>
      </trkpt>
      <trkpt lat="42.293514" lon="3.23348">
        <ele>245</ele>
        <time>1970-01-01T01:15:36.000Z</time>
      </trkpt>
      <trkpt lat="42.293495" lon="3.233434">
        <ele>245</ele>
        <time>1970-01-01T01:15:37.000Z</time>
      </trkpt>
      <trkpt lat="42.293477" lon="3.233389">
        <ele>245</ele>
        <time>1970-01-01T01:15:38.000Z</time>
      </trkpt>
      <trkpt lat="42.293458" lon="3.233344">
        <ele>245</ele>
        <time>1970-01-01T01:15:39.000Z</time>
      </trkpt>
      <trkpt lat="42.293397" lon="3.233282">
        <ele>245</ele>
        <time>1970-01-01T01:15:40.000Z</time>
      </trkpt>
      <trkpt lat="42.293361" lon="3.233264">
        <ele>245</ele>
        <time>1970-01-01T01:15:41.000Z</time>
      </trkpt>
      <trkpt lat="42.293326" lon="3.233247">
        <ele>245</ele>
        <time>1970-01-01T01:15:42.000Z</time>
      </trkpt>
      <trkpt lat="42.29329" lon="3.233229">
        <ele>245</ele>
        <time>1970-01-01T01:15:43.000Z</time>
      </trkpt>
      <trkpt lat="42.293254" lon="3.233212">
        <ele>245</ele>
        <time>1970-01-01T01:15:44.000Z</time>
      </trkpt>
      <trkpt lat="42.293218" lon="3.233195">
        <ele>245</ele>
        <time>1970-01-01T01:15:45.000Z</time>
      </trkpt>
      <trkpt lat="42.293182" lon="3.233177">
        <ele>245</ele>
        <time>1970-01-01T01:15:46.000Z</time>
      </trkpt>
      <trkpt lat="42.293147" lon="3.23316">
        <ele>245</ele>
        <time>1970-01-01T01:15:47.000Z</time>
      </trkpt>
      <trkpt lat="42.293111" lon="3.233142">
        <ele>245</ele>
        <time>1970-01-01T01:15:48.000Z</time>
      </trkpt>
      <trkpt lat="42.293075" lon="3.233125">
        <ele>245</ele>
        <time>1970-01-01T01:15:49.000Z</time>
      </trkpt>
      <trkpt lat="42.292988" lon="3.233113">
        <ele>245</ele>
        <time>1970-01-01T01:15:50.000Z</time>
      </trkpt>
      <trkpt lat="42.292947" lon="3.233108">
        <ele>245</ele>
        <time>1970-01-01T01:15:51.000Z</time>
      </trkpt>
      <trkpt lat="42.292905" lon="3.233103">
        <ele>245</ele>
        <time>1970-01-01T01:15:52.000Z</time>
      </trkpt>
      <trkpt lat="42.292864" lon="3.233098">
        <ele>245</ele>
        <time>1970-01-01T01:15:53.000Z</time>
      </trkpt>
      <trkpt lat="42.292823" lon="3.233093">
        <ele>245</ele>
        <time>1970-01-01T01:15:54.000Z</time>
      </trkpt>
      <trkpt lat="42.292782" lon="3.233089">
        <ele>245</ele>
        <time>1970-01-01T01:15:55.000Z</time>
      </trkpt>
      <trkpt lat="42.292741" lon="3.233084">
        <ele>245</ele>
        <time>1970-01-01T01:15:56.000Z</time>
      </trkpt>
      <trkpt lat="42.292699" lon="3.233079">
        <ele>245</ele>
        <time>1970-01-01T01:15:57.000Z</time>
      </trkpt>
      <trkpt lat="42.292658" lon="3.233074">
        <ele>245</ele>
        <time>1970-01-01T01:15:58.000Z</time>
      </trkpt>
      <trkpt lat="42.292617" lon="3.233069">
        <ele>244</ele>
        <time>1970-01-01T01:15:59.000Z</time>
      </trkpt>
      <trkpt lat="42.292531" lon="3.233079">
        <ele>244</ele>
        <time>1970-01-01T01:16:00.000Z</time>
      </trkpt>
      <trkpt lat="42.29249" lon="3.233088">
        <ele>244</ele>
        <time>1970-01-01T01:16:01.000Z</time>
      </trkpt>
      <trkpt lat="42.29245" lon="3.233098">
        <ele>244</ele>
        <time>1970-01-01T01:16:02.000Z</time>
      </trkpt>
      <trkpt lat="42.292409" lon="3.233107">
        <ele>244</ele>
        <time>1970-01-01T01:16:03.000Z</time>
      </trkpt>
      <trkpt lat="42.292368" lon="3.233117">
        <ele>244</ele>
        <time>1970-01-01T01:16:04.000Z</time>
      </trkpt>
      <trkpt lat="42.292327" lon="3.233127">
        <ele>244</ele>
        <time>1970-01-01T01:16:05.000Z</time>
      </trkpt>
      <trkpt lat="42.292286" lon="3.233136">
        <ele>244</ele>
        <time>1970-01-01T01:16:06.000Z</time>
      </trkpt>
      <trkpt lat="42.292246" lon="3.233146">
        <ele>244</ele>
        <time>1970-01-01T01:16:07.000Z</time>
      </trkpt>
      <trkpt lat="42.292205" lon="3.233155">
        <ele>244</ele>
        <time>1970-01-01T01:16:08.000Z</time>
      </trkpt>
      <trkpt lat="42.292164" lon="3.233165">
        <ele>244</ele>
        <time>1970-01-01T01:16:09.000Z</time>
      </trkpt>
      <trkpt lat="42.292076" lon="3.233186">
        <ele>244</ele>
        <time>1970-01-01T01:16:10.000Z</time>
      </trkpt>
      <trkpt lat="42.292034" lon="3.233195">
        <ele>244</ele>
        <time>1970-01-01T01:16:11.000Z</time>
      </trkpt>
      <trkpt lat="42.291993" lon="3.233205">
        <ele>244</ele>
        <time>1970-01-01T01:16:12.000Z</time>
      </trkpt>
      <trkpt lat="42.291951" lon="3.233214">
        <ele>244</ele>
        <time>1970-01-01T01:16:13.000Z</time>
      </trkpt>
      <trkpt lat="42.291909" lon="3.233224">
        <ele>244</ele>
        <time>1970-01-01T01:16:14.000Z</time>
      </trkpt>
      <trkpt lat="42.291867" lon="3.233234">
        <ele>244</ele>
        <time>1970-01-01T01:16:15.000Z</time>
      </trkpt>
      <trkpt lat="42.291825" lon="3.233243">
        <ele>244</ele>
        <time>1970-01-01T01:16:16.000Z</time>
      </trkpt>
      <trkpt lat="42.291784" lon="3.233253">
        <ele>244</ele>
        <time>1970-01-01T01:16:17.000Z</time>
      </trkpt>
      <trkpt lat="42.291742" lon="3.233262">
        <ele>244</ele>
        <time>1970-01-01T01:16:18.000Z</time>
      </trkpt>
      <trkpt lat="42.2917" lon="3.233272">
        <ele>244</ele>
        <time>1970-01-01T01:16:19.000Z</time>
      </trkpt>
      <trkpt lat="42.291624" lon="3.233249">
        <ele>244</ele>
        <time>1970-01-01T01:16:20.000Z</time>
      </trkpt>
      <trkpt lat="42.291594" lon="3.23322">
        <ele>244</ele>
        <time>1970-01-01T01:16:21.000Z</time>
      </trkpt>
      <trkpt lat="42.291565" lon="3.233191">
        <ele>244</ele>
        <time>1970-01-01T01:16:22.000Z</time>
      </trkpt>
      <trkpt lat="42.291535" lon="3.233162">
        <ele>244</ele>
        <time>1970-01-01T01:16:23.000Z</time>
      </trkpt>
      <trkpt lat="42.291506" lon="3.233132">
        <ele>244</ele>
        <time>1970-01-01T01:16:24.000Z</time>
      </trkpt>
      <trkpt lat="42.291477" lon="3.233103">
        <ele>244</ele>
        <time>1970-01-01T01:16:25.000Z</time>
      </trkpt>
      <trkpt lat="42.291447" lon="3.233074">
        <ele>244</ele>
        <time>1970-01-01T01:16:26.000Z</time>
      </trkpt>
      <trkpt lat="42.291418" lon="3.233045">
        <ele>244</ele>
        <time>1970-01-01T01:16:27.000Z</time>
      </trkpt>
      <trkpt lat="42.291388" lon="3.233016">
        <ele>244</ele>
        <time>1970-01-01T01:16:28.000Z</time>
      </trkpt>
      <trkpt lat="42.291359" lon="3.232987">
        <ele>244</ele>
        <time>1970-01-01T01:16:29.000Z</time>
      </trkpt>
      <trkpt lat="42.291355" lon="3.232882">
        <ele>244</ele>
        <time>1970-01-01T01:16:30.000Z</time>
      </trkpt>
      <trkpt lat="42.291364" lon="3.232833">
        <ele>244</ele>
        <time>1970-01-01T01:16:31.000Z</time>
      </trkpt>
      <trkpt lat="42.291372" lon="3.232784">
        <ele>244</ele>
        <time>1970-01-01T01:16:32.000Z</time>
      </trkpt>
      <trkpt lat="42.29138" lon="3.232735">
        <ele>244</ele>
        <time>1970-01-01T01:16:33.000Z</time>
      </trkpt>
      <trkpt lat="42.291389" lon="3.232686">
        <ele>244</ele>
        <time>1970-01-01T01:16:34.000Z</time>
      </trkpt>
      <trkpt lat="42.291397" lon="3.232636">
        <ele>244</ele>
        <time>1970-01-01T01:16:35.000Z</time>
      </trkpt>
      <trkpt lat="42.291405" lon="3.232587">
        <ele>244</ele>
        <time>1970-01-01T01:16:36.000Z</time>
      </trkpt>
      <trkpt lat="42.291413" lon="3.232538">
        <ele>244</ele>
        <time>1970-01-01T01:16:37.000Z</time>
      </trkpt>
      <trkpt lat="42.291422" lon="3.232489">
        <ele>244</ele>
        <time>1970-01-01T01:16:38.000Z</time>
      </trkpt>
      <trkpt lat="42.29143" lon="3.23244">
        <ele>244</ele>
        <time>1970-01-01T01:16:39.000Z</time>
      </trkpt>
      <trkpt lat="42.291499" lon="3.232366">
        <ele>244</ele>
        <time>1970-01-01T01:16:40.000Z</time>
      </trkpt>
      <trkpt lat="42.291537" lon="3.232335">
        <ele>244</ele>
        <time>1970-01-01T01:16:41.000Z</time>
      </trkpt>
      <trkpt lat="42.291575" lon="3.232303">
        <ele>244</ele>
        <time>1970-01-01T01:16:42.000Z</time>
      </trkpt>
      <trkpt lat="42.291613" lon="3.232271">
        <ele>244</ele>
        <time>1970-01-01T01:16:43.000Z</time>
      </trkpt>
      <trkpt lat="42.291651" lon="3.23224">
        <ele>244</ele>
        <time>1970-01-01T01:16:44.000Z</time>
      </trkpt>
      <trkpt lat="42.291688" lon="3.232208">
        <ele>244</ele>
        <time>1970-01-01T01:16:45.000Z</time>
      </trkpt>
      <trkpt lat="42.291726" lon="3.232176">
        <ele>244</ele>
        <time>1970-01-01T01:16:46.000Z</time>
      </trkpt>
      <trkpt lat="42.291764" lon="3.232144">
        <ele>244</ele>
        <time>1970-01-01T01:16:47.000Z</time>
      </trkpt>
      <trkpt lat="42.291802" lon="3.232113">
        <ele>244</ele>
        <time>1970-01-01T01:16:48.000Z</time>
      </trkpt>
      <trkpt lat="42.29184" lon="3.232081">
        <ele>245</ele>
        <time>1970-01-01T01:16:50.000Z</time>
      </trkpt>
      <trkpt lat="42.291896" lon="3.232002">
        <ele>245</ele>
        <time>1970-01-01T01:16:51.000Z</time>
      </trkpt>
      <trkpt lat="42.291917" lon="3.231959">
        <ele>245</ele>
        <time>1970-01-01T01:16:52.000Z</time>
      </trkpt>
      <trkpt lat="42.291939" lon="3.231916">
        <ele>245</ele>
        <time>1970-01-01T01:16:53.000Z</time>
      </trkpt>
      <trkpt lat="42.29196" lon="3.231873">
        <ele>245</ele>
        <time>1970-01-01T01:16:54.000Z</time>
      </trkpt>
      <trkpt lat="42.291981" lon="3.231829">
        <ele>245</ele>
        <time>1970-01-01T01:16:55.000Z</time>
      </trkpt>
      <trkpt lat="42.292002" lon="3.231786">
        <ele>245</ele>
        <time>1970-01-01T01:16:56.000Z</time>
      </trkpt>
      <trkpt lat="42.292024" lon="3.231743">
        <ele>245</ele>
        <time>1970-01-01T01:16:57.000Z</time>
      </trkpt>
      <trkpt lat="42.292045" lon="3.2317">
        <ele>245</ele>
        <time>1970-01-01T01:16:58.000Z</time>
      </trkpt>
      <trkpt lat="42.292066" lon="3.231657">
        <ele>245</ele>
        <time>1970-01-01T01:16:59.000Z</time>
      </trkpt>
      <trkpt lat="42.292055" lon="3.231552">
        <ele>245</ele>
        <time>1970-01-01T01:17:00.000Z</time>
      </trkpt>
      <trkpt lat="42.292034" lon="3.231507">
        <ele>245</ele>
        <time>1970-01-01T01:17:01.000Z</time>
      </trkpt>
      <trkpt lat="42.292012" lon="3.231461">
        <ele>245</ele>
        <time>1970-01-01T01:17:02.000Z</time>
      </trkpt>
      <trkpt lat="42.291991" lon="3.231415">
        <ele>245</ele>
        <time>1970-01-01T01:17:03.000Z</time>
      </trkpt>
      <trkpt lat="42.291969" lon="3.23137">
        <ele>245</ele>
        <time>1970-01-01T01:17:04.000Z</time>
      </trkpt>
      <trkpt lat="42.291948" lon="3.231324">
        <ele>245</ele>
        <time>1970-01-01T01:17:05.000Z</time>
      </trkpt>
      <trkpt lat="42.291926" lon="3.231279">
        <ele>245</ele>
        <time>1970-01-01T01:17:06.000Z</time>
      </trkpt>
      <trkpt lat="42.291905" lon="3.231233">
        <ele>245</ele>
        <time>1970-01-01T01:17:07.000Z</time>
      </trkpt>
      <trkpt lat="42.291883" lon="3.231187">
        <ele>245</ele>
        <time>1970-01-01T01:17:08.000Z</time>
      </trkpt>
      <trkpt lat="42.291862" lon="3.231142">
        <ele>245</ele>
        <time>1970-01-01T01:17:09.000Z</time>
      </trkpt>
      <trkpt lat="42.29184" lon="3.231096">
        <ele>245</ele>
        <time>1970-01-01T01:17:10.000Z</time>
      </trkpt>
      <trkpt lat="42.29178" lon="3.231012">
        <ele>245</ele>
        <time>1970-01-01T01:17:11.000Z</time>
      </trkpt>
      <trkpt lat="42.29176" lon="3.230966">
        <ele>245</ele>
        <time>1970-01-01T01:17:12.000Z</time>
      </trkpt>
      <trkpt lat="42.29174" lon="3.230921">
        <ele>245</ele>
        <time>1970-01-01T01:17:13.000Z</time>
      </trkpt>
      <trkpt lat="42.29172" lon="3.230875">
        <ele>245</ele>
        <time>1970-01-01T01:17:14.000Z</time>
      </trkpt>
      <trkpt lat="42.2917" lon="3.230829">
        <ele>245</ele>
        <time>1970-01-01T01:17:15.000Z</time>
      </trkpt>
      <trkpt lat="42.29168" lon="3.230783">
        <ele>245</ele>
        <time>1970-01-01T01:17:16.000Z</time>
      </trkpt>
      <trkpt lat="42.29166" lon="3.230738">
        <ele>245</ele>
        <time>1970-01-01T01:17:17.000Z</time>
      </trkpt>
      <trkpt lat="42.29164" lon="3.230692">
        <ele>245</ele>
        <time>1970-01-01T01:17:18.000Z</time>
      </trkpt>
      <trkpt lat="42.29162" lon="3.230646">
        <ele>246</ele>
        <time>1970-01-01T01:17:19.000Z</time>
      </trkpt>
      <trkpt lat="42.291664" lon="3.230571">
        <ele>246</ele>
        <time>1970-01-01T01:17:20.000Z</time>
      </trkpt>
      <trkpt lat="42.291697" lon="3.230557">
        <ele>246</ele>
        <time>1970-01-01T01:17:21.000Z</time>
      </trkpt>
      <trkpt lat="42.291731" lon="3.230544">
        <ele>246</ele>
        <time>1970-01-01T01:17:22.000Z</time>
      </trkpt>
      <trkpt lat="42.291764" lon="3.230531">
        <ele>246</ele>
        <time>1970-01-01T01:17:23.000Z</time>
      </trkpt>
      <trkpt lat="42.291798" lon="3.230518">
        <ele>246</ele>
        <time>1970-01-01T01:17:24.000Z</time>
      </trkpt>
      <trkpt lat="42.291832" lon="3.230504">
        <ele>246</ele>
        <time>1970-01-01T01:17:25.000Z</time>
      </trkpt>
      <trkpt lat="42.291865" lon="3.230491">
        <ele>246</ele>
        <time>1970-01-01T01:17:26.000Z</time>
      </trkpt>
      <trkpt lat="42.291899" lon="3.230478">
        <ele>246</ele>
        <time>1970-01-01T01:17:27.000Z</time>
      </trkpt>
      <trkpt lat="42.291932" lon="3.230464">
        <ele>246</ele>
        <time>1970-01-01T01:17:28.000Z</time>
      </trkpt>
      <trkpt lat="42.291966" lon="3.230451">
        <ele>246</ele>
        <time>1970-01-01T01:17:29.000Z</time>
      </trkpt>
      <trkpt lat="42.292028" lon="3.23046">
        <ele>246</ele>
        <time>1970-01-01T01:17:30.000Z</time>
      </trkpt>
      <trkpt lat="42.292054" lon="3.230461">
        <ele>246</ele>
        <time>1970-01-01T01:17:31.000Z</time>
      </trkpt>
      <trkpt lat="42.292079" lon="3.230463">
        <ele>246</ele>
        <time>1970-01-01T01:17:32.000Z</time>
      </trkpt>
      <trkpt lat="42.292105" lon="3.230464">
        <ele>246</ele>
        <time>1970-01-01T01:17:33.000Z</time>
      </trkpt>
      <trkpt lat="42.292131" lon="3.230466">
        <ele>246</ele>
        <time>1970-01-01T01:17:34.000Z</time>
      </trkpt>
      <trkpt lat="42.292157" lon="3.230468">
        <ele>246</ele>
        <time>1970-01-01T01:17:35.000Z</time>
      </trkpt>
      <trkpt lat="42.292183" lon="3.230469">
        <ele>246</ele>
        <time>1970-01-01T01:17:36.000Z</time>
      </trkpt>
      <trkpt lat="42.292208" lon="3.230471">
        <ele>246</ele>
        <time>1970-01-01T01:17:37.000Z</time>
      </trkpt>
      <trkpt lat="42.292234" lon="3.230472">
        <ele>246</ele>
        <time>1970-01-01T01:17:38.000Z</time>
      </trkpt>
      <trkpt lat="42.29226" lon="3.230474">
        <ele>247</ele>
        <time>1970-01-01T01:17:39.000Z</time>
      </trkpt>
      <trkpt lat="42.292305" lon="3.230467">
        <ele>247</ele>
        <time>1970-01-01T01:17:40.000Z</time>
      </trkpt>
      <trkpt lat="42.292326" lon="3.230461">
        <ele>247</ele>
        <time>1970-01-01T01:17:41.000Z</time>
      </trkpt>
      <trkpt lat="42.292346" lon="3.230456">
        <ele>247</ele>
        <time>1970-01-01T01:17:42.000Z</time>
      </trkpt>
      <trkpt lat="42.292366" lon="3.23045">
        <ele>247</ele>
        <time>1970-01-01T01:17:43.000Z</time>
      </trkpt>
      <trkpt lat="42.292387" lon="3.230444">
        <ele>247</ele>
        <time>1970-01-01T01:17:44.000Z</time>
      </trkpt>
      <trkpt lat="42.292407" lon="3.230438">
        <ele>247</ele>
        <time>1970-01-01T01:17:45.000Z</time>
      </trkpt>
      <trkpt lat="42.292427" lon="3.230432">
        <ele>247</ele>
        <time>1970-01-01T01:17:46.000Z</time>
      </trkpt>
      <trkpt lat="42.292447" lon="3.230427">
        <ele>247</ele>
        <time>1970-01-01T01:17:47.000Z</time>
      </trkpt>
      <trkpt lat="42.292468" lon="3.230421">
        <ele>247</ele>
        <time>1970-01-01T01:17:48.000Z</time>
      </trkpt>
      <trkpt lat="42.292488" lon="3.230415">
        <ele>249</ele>
        <time>1970-01-01T01:17:49.000Z</time>
      </trkpt>
      <trkpt lat="42.292527" lon="3.230386">
        <ele>249</ele>
        <time>1970-01-01T01:17:50.000Z</time>
      </trkpt>
      <trkpt lat="42.292546" lon="3.230373">
        <ele>249</ele>
        <time>1970-01-01T01:17:51.000Z</time>
      </trkpt>
      <trkpt lat="42.292564" lon="3.230359">
        <ele>249</ele>
        <time>1970-01-01T01:17:52.000Z</time>
      </trkpt>
      <trkpt lat="42.292583" lon="3.230346">
        <ele>249</ele>
        <time>1970-01-01T01:17:53.000Z</time>
      </trkpt>
      <trkpt lat="42.292602" lon="3.230332">
        <ele>249</ele>
        <time>1970-01-01T01:17:54.000Z</time>
      </trkpt>
      <trkpt lat="42.292621" lon="3.230318">
        <ele>249</ele>
        <time>1970-01-01T01:17:55.000Z</time>
      </trkpt>
      <trkpt lat="42.29264" lon="3.230305">
        <ele>249</ele>
        <time>1970-01-01T01:17:56.000Z</time>
      </trkpt>
      <trkpt lat="42.292658" lon="3.230291">
        <ele>249</ele>
        <time>1970-01-01T01:17:57.000Z</time>
      </trkpt>
      <trkpt lat="42.292677" lon="3.230278">
        <ele>249</ele>
        <time>1970-01-01T01:17:58.000Z</time>
      </trkpt>
      <trkpt lat="42.292696" lon="3.230264">
        <ele>250</ele>
        <time>1970-01-01T01:17:59.000Z</time>
      </trkpt>
      <trkpt lat="42.292734" lon="3.230233">
        <ele>250</ele>
        <time>1970-01-01T01:18:00.000Z</time>
      </trkpt>
      <trkpt lat="42.292751" lon="3.230217">
        <ele>250</ele>
        <time>1970-01-01T01:18:01.000Z</time>
      </trkpt>
      <trkpt lat="42.292769" lon="3.230202">
        <ele>250</ele>
        <time>1970-01-01T01:18:02.000Z</time>
      </trkpt>
      <trkpt lat="42.292787" lon="3.230186">
        <ele>250</ele>
        <time>1970-01-01T01:18:03.000Z</time>
      </trkpt>
      <trkpt lat="42.292805" lon="3.230171">
        <ele>250</ele>
        <time>1970-01-01T01:18:04.000Z</time>
      </trkpt>
      <trkpt lat="42.292822" lon="3.230155">
        <ele>250</ele>
        <time>1970-01-01T01:18:05.000Z</time>
      </trkpt>
      <trkpt lat="42.29284" lon="3.23014">
        <ele>250</ele>
        <time>1970-01-01T01:18:06.000Z</time>
      </trkpt>
      <trkpt lat="42.292858" lon="3.230124">
        <ele>250</ele>
        <time>1970-01-01T01:18:07.000Z</time>
      </trkpt>
      <trkpt lat="42.292875" lon="3.230109">
        <ele>250</ele>
        <time>1970-01-01T01:18:08.000Z</time>
      </trkpt>
      <trkpt lat="42.292893" lon="3.230093">
        <ele>252</ele>
        <time>1970-01-01T01:18:09.000Z</time>
      </trkpt>
      <trkpt lat="42.292928" lon="3.230055">
        <ele>252</ele>
        <time>1970-01-01T01:18:10.000Z</time>
      </trkpt>
      <trkpt lat="42.292944" lon="3.230037">
        <ele>252</ele>
        <time>1970-01-01T01:18:11.000Z</time>
      </trkpt>
      <trkpt lat="42.292961" lon="3.230019">
        <ele>252</ele>
        <time>1970-01-01T01:18:12.000Z</time>
      </trkpt>
      <trkpt lat="42.292978" lon="3.230001">
        <ele>252</ele>
        <time>1970-01-01T01:18:13.000Z</time>
      </trkpt>
      <trkpt lat="42.292995" lon="3.229983">
        <ele>252</ele>
        <time>1970-01-01T01:18:14.000Z</time>
      </trkpt>
      <trkpt lat="42.293011" lon="3.229965">
        <ele>252</ele>
        <time>1970-01-01T01:18:15.000Z</time>
      </trkpt>
      <trkpt lat="42.293028" lon="3.229947">
        <ele>252</ele>
        <time>1970-01-01T01:18:16.000Z</time>
      </trkpt>
      <trkpt lat="42.293045" lon="3.229929">
        <ele>252</ele>
        <time>1970-01-01T01:18:17.000Z</time>
      </trkpt>
      <trkpt lat="42.293061" lon="3.229911">
        <ele>252</ele>
        <time>1970-01-01T01:18:18.000Z</time>
      </trkpt>
      <trkpt lat="42.293078" lon="3.229893">
        <ele>253</ele>
        <time>1970-01-01T01:18:19.000Z</time>
      </trkpt>
      <trkpt lat="42.293113" lon="3.229853">
        <ele>253</ele>
        <time>1970-01-01T01:18:20.000Z</time>
      </trkpt>
      <trkpt lat="42.29313" lon="3.229834">
        <ele>253</ele>
        <time>1970-01-01T01:18:21.000Z</time>
      </trkpt>
      <trkpt lat="42.293147" lon="3.229815">
        <ele>253</ele>
        <time>1970-01-01T01:18:22.000Z</time>
      </trkpt>
      <trkpt lat="42.293164" lon="3.229796">
        <ele>253</ele>
        <time>1970-01-01T01:18:23.000Z</time>
      </trkpt>
      <trkpt lat="42.293182" lon="3.229777">
        <ele>253</ele>
        <time>1970-01-01T01:18:24.000Z</time>
      </trkpt>
      <trkpt lat="42.293199" lon="3.229757">
        <ele>253</ele>
        <time>1970-01-01T01:18:25.000Z</time>
      </trkpt>
      <trkpt lat="42.293216" lon="3.229738">
        <ele>253</ele>
        <time>1970-01-01T01:18:26.000Z</time>
      </trkpt>
      <trkpt lat="42.293233" lon="3.229719">
        <ele>253</ele>
        <time>1970-01-01T01:18:27.000Z</time>
      </trkpt>
      <trkpt lat="42.29325" lon="3.2297">
        <ele>253</ele>
        <time>1970-01-01T01:18:28.000Z</time>
      </trkpt>
      <trkpt lat="42.293267" lon="3.229681">
        <ele>254</ele>
        <time>1970-01-01T01:18:29.000Z</time>
      </trkpt>
      <trkpt lat="42.293302" lon="3.229641">
        <ele>254</ele>
        <time>1970-01-01T01:18:30.000Z</time>
      </trkpt>
      <trkpt lat="42.293318" lon="3.229622">
        <ele>254</ele>
        <time>1970-01-01T01:18:31.000Z</time>
      </trkpt>
      <trkpt lat="42.293335" lon="3.229604">
        <ele>254</ele>
        <time>1970-01-01T01:18:32.000Z</time>
      </trkpt>
      <trkpt lat="42.293351" lon="3.229585">
        <ele>254</ele>
        <time>1970-01-01T01:18:33.000Z</time>
      </trkpt>
      <trkpt lat="42.293368" lon="3.229567">
        <ele>254</ele>
        <time>1970-01-01T01:18:34.000Z</time>
      </trkpt>
      <trkpt lat="42.293385" lon="3.229548">
        <ele>254</ele>
        <time>1970-01-01T01:18:35.000Z</time>
      </trkpt>
      <trkpt lat="42.293401" lon="3.22953">
        <ele>254</ele>
        <time>1970-01-01T01:18:36.000Z</time>
      </trkpt>
      <trkpt lat="42.293418" lon="3.229511">
        <ele>254</ele>
        <time>1970-01-01T01:18:37.000Z</time>
      </trkpt>
      <trkpt lat="42.293434" lon="3.229493">
        <ele>254</ele>
        <time>1970-01-01T01:18:38.000Z</time>
      </trkpt>
      <trkpt lat="42.293451" lon="3.229474">
        <ele>256</ele>
        <time>1970-01-01T01:18:39.000Z</time>
      </trkpt>
      <trkpt lat="42.293485" lon="3.229435">
        <ele>256</ele>
        <time>1970-01-01T01:18:40.000Z</time>
      </trkpt>
      <trkpt lat="42.293502" lon="3.229416">
        <ele>256</ele>
        <time>1970-01-01T01:18:41.000Z</time>
      </trkpt>
      <trkpt lat="42.293518" lon="3.229397">
        <ele>256</ele>
        <time>1970-01-01T01:18:42.000Z</time>
      </trkpt>
      <trkpt lat="42.293535" lon="3.229378">
        <ele>256</ele>
        <time>1970-01-01T01:18:43.000Z</time>
      </trkpt>
      <trkpt lat="42.293551" lon="3.229359">
        <ele>256</ele>
        <time>1970-01-01T01:18:44.000Z</time>
      </trkpt>
      <trkpt lat="42.293567" lon="3.22934">
        <ele>256</ele>
        <time>1970-01-01T01:18:45.000Z</time>
      </trkpt>
      <trkpt lat="42.293584" lon="3.229321">
        <ele>256</ele>
        <time>1970-01-01T01:18:46.000Z</time>
      </trkpt>
      <trkpt lat="42.2936" lon="3.229302">
        <ele>256</ele>
        <time>1970-01-01T01:18:47.000Z</time>
      </trkpt>
      <trkpt lat="42.293617" lon="3.229283">
        <ele>256</ele>
        <time>1970-01-01T01:18:48.000Z</time>
      </trkpt>
      <trkpt lat="42.293633" lon="3.229264">
        <ele>257</ele>
        <time>1970-01-01T01:18:49.000Z</time>
      </trkpt>
      <trkpt lat="42.293664" lon="3.229221">
        <ele>257</ele>
        <time>1970-01-01T01:18:50.000Z</time>
      </trkpt>
      <trkpt lat="42.293677" lon="3.229198">
        <ele>257</ele>
        <time>1970-01-01T01:18:51.000Z</time>
      </trkpt>
      <trkpt lat="42.293691" lon="3.229176">
        <ele>257</ele>
        <time>1970-01-01T01:18:52.000Z</time>
      </trkpt>
      <trkpt lat="42.293704" lon="3.229153">
        <ele>257</ele>
        <time>1970-01-01T01:18:53.000Z</time>
      </trkpt>
      <trkpt lat="42.293717" lon="3.229131">
        <ele>257</ele>
        <time>1970-01-01T01:18:54.000Z</time>
      </trkpt>
      <trkpt lat="42.29373" lon="3.229109">
        <ele>257</ele>
        <time>1970-01-01T01:18:55.000Z</time>
      </trkpt>
      <trkpt lat="42.293743" lon="3.229086">
        <ele>257</ele>
        <time>1970-01-01T01:18:56.000Z</time>
      </trkpt>
      <trkpt lat="42.293757" lon="3.229064">
        <ele>257</ele>
        <time>1970-01-01T01:18:57.000Z</time>
      </trkpt>
      <trkpt lat="42.29377" lon="3.229041">
        <ele>257</ele>
        <time>1970-01-01T01:18:58.000Z</time>
      </trkpt>
      <trkpt lat="42.293783" lon="3.229019">
        <ele>259</ele>
        <time>1970-01-01T01:18:59.000Z</time>
      </trkpt>
      <trkpt lat="42.293798" lon="3.228957">
        <ele>259</ele>
        <time>1970-01-01T01:19:00.000Z</time>
      </trkpt>
      <trkpt lat="42.293803" lon="3.228926">
        <ele>259</ele>
        <time>1970-01-01T01:19:01.000Z</time>
      </trkpt>
      <trkpt lat="42.293808" lon="3.228894">
        <ele>259</ele>
        <time>1970-01-01T01:19:02.000Z</time>
      </trkpt>
      <trkpt lat="42.293813" lon="3.228863">
        <ele>259</ele>
        <time>1970-01-01T01:19:03.000Z</time>
      </trkpt>
      <trkpt lat="42.293819" lon="3.228831">
        <ele>259</ele>
        <time>1970-01-01T01:19:04.000Z</time>
      </trkpt>
      <trkpt lat="42.293824" lon="3.228799">
        <ele>259</ele>
        <time>1970-01-01T01:19:05.000Z</time>
      </trkpt>
      <trkpt lat="42.293829" lon="3.228768">
        <ele>259</ele>
        <time>1970-01-01T01:19:06.000Z</time>
      </trkpt>
      <trkpt lat="42.293834" lon="3.228736">
        <ele>259</ele>
        <time>1970-01-01T01:19:07.000Z</time>
      </trkpt>
      <trkpt lat="42.293839" lon="3.228705">
        <ele>259</ele>
        <time>1970-01-01T01:19:08.000Z</time>
      </trkpt>
      <trkpt lat="42.293844" lon="3.228673">
        <ele>261</ele>
        <time>1970-01-01T01:19:09.000Z</time>
      </trkpt>
      <trkpt lat="42.293851" lon="3.228592">
        <ele>261</ele>
        <time>1970-01-01T01:19:10.000Z</time>
      </trkpt>
      <trkpt lat="42.293855" lon="3.228553">
        <ele>261</ele>
        <time>1970-01-01T01:19:11.000Z</time>
      </trkpt>
      <trkpt lat="42.293858" lon="3.228514">
        <ele>261</ele>
        <time>1970-01-01T01:19:12.000Z</time>
      </trkpt>
      <trkpt lat="42.293862" lon="3.228475">
        <ele>261</ele>
        <time>1970-01-01T01:19:13.000Z</time>
      </trkpt>
      <trkpt lat="42.293865" lon="3.228436">
        <ele>261</ele>
        <time>1970-01-01T01:19:14.000Z</time>
      </trkpt>
      <trkpt lat="42.293868" lon="3.228397">
        <ele>261</ele>
        <time>1970-01-01T01:19:15.000Z</time>
      </trkpt>
      <trkpt lat="42.293872" lon="3.228358">
        <ele>261</ele>
        <time>1970-01-01T01:19:16.000Z</time>
      </trkpt>
      <trkpt lat="42.293875" lon="3.228319">
        <ele>261</ele>
        <time>1970-01-01T01:19:17.000Z</time>
      </trkpt>
      <trkpt lat="42.293879" lon="3.22828">
        <ele>261</ele>
        <time>1970-01-01T01:19:18.000Z</time>
      </trkpt>
      <trkpt lat="42.293882" lon="3.228241">
        <ele>261</ele>
        <time>1970-01-01T01:19:19.000Z</time>
      </trkpt>
      <trkpt lat="42.293888" lon="3.228151">
        <ele>261</ele>
        <time>1970-01-01T01:19:20.000Z</time>
      </trkpt>
      <trkpt lat="42.293892" lon="3.228108">
        <ele>261</ele>
        <time>1970-01-01T01:19:21.000Z</time>
      </trkpt>
      <trkpt lat="42.293895" lon="3.228064">
        <ele>261</ele>
        <time>1970-01-01T01:19:22.000Z</time>
      </trkpt>
      <trkpt lat="42.293898" lon="3.228021">
        <ele>261</ele>
        <time>1970-01-01T01:19:23.000Z</time>
      </trkpt>
      <trkpt lat="42.293902" lon="3.227977">
        <ele>261</ele>
        <time>1970-01-01T01:19:24.000Z</time>
      </trkpt>
      <trkpt lat="42.293905" lon="3.227933">
        <ele>261</ele>
        <time>1970-01-01T01:19:25.000Z</time>
      </trkpt>
      <trkpt lat="42.293908" lon="3.22789">
        <ele>261</ele>
        <time>1970-01-01T01:19:26.000Z</time>
      </trkpt>
      <trkpt lat="42.293911" lon="3.227846">
        <ele>261</ele>
        <time>1970-01-01T01:19:27.000Z</time>
      </trkpt>
      <trkpt lat="42.293915" lon="3.227803">
        <ele>261</ele>
        <time>1970-01-01T01:19:28.000Z</time>
      </trkpt>
      <trkpt lat="42.293918" lon="3.227759">
        <ele>261</ele>
        <time>1970-01-01T01:19:29.000Z</time>
      </trkpt>
      <trkpt lat="42.293923" lon="3.227666">
        <ele>261</ele>
        <time>1970-01-01T01:19:30.000Z</time>
      </trkpt>
      <trkpt lat="42.293927" lon="3.227622">
        <ele>261</ele>
        <time>1970-01-01T01:19:31.000Z</time>
      </trkpt>
      <trkpt lat="42.29393" lon="3.227579">
        <ele>261</ele>
        <time>1970-01-01T01:19:32.000Z</time>
      </trkpt>
      <trkpt lat="42.293933" lon="3.227535">
        <ele>261</ele>
        <time>1970-01-01T01:19:33.000Z</time>
      </trkpt>
      <trkpt lat="42.293937" lon="3.227491">
        <ele>261</ele>
        <time>1970-01-01T01:19:34.000Z</time>
      </trkpt>
      <trkpt lat="42.29394" lon="3.227447">
        <ele>261</ele>
        <time>1970-01-01T01:19:35.000Z</time>
      </trkpt>
      <trkpt lat="42.293943" lon="3.227403">
        <ele>261</ele>
        <time>1970-01-01T01:19:36.000Z</time>
      </trkpt>
      <trkpt lat="42.293946" lon="3.22736">
        <ele>261</ele>
        <time>1970-01-01T01:19:37.000Z</time>
      </trkpt>
      <trkpt lat="42.29395" lon="3.227316">
        <ele>261</ele>
        <time>1970-01-01T01:19:38.000Z</time>
      </trkpt>
      <trkpt lat="42.293953" lon="3.227272">
        <ele>261</ele>
        <time>1970-01-01T01:19:39.000Z</time>
      </trkpt>
      <trkpt lat="42.29396" lon="3.227177">
        <ele>261</ele>
        <time>1970-01-01T01:19:40.000Z</time>
      </trkpt>
      <trkpt lat="42.293963" lon="3.227132">
        <ele>261</ele>
        <time>1970-01-01T01:19:41.000Z</time>
      </trkpt>
      <trkpt lat="42.293965" lon="3.227088">
        <ele>261</ele>
        <time>1970-01-01T01:19:42.000Z</time>
      </trkpt>
      <trkpt lat="42.293968" lon="3.227043">
        <ele>261</ele>
        <time>1970-01-01T01:19:43.000Z</time>
      </trkpt>
      <trkpt lat="42.29397" lon="3.226998">
        <ele>261</ele>
        <time>1970-01-01T01:19:44.000Z</time>
      </trkpt>
      <trkpt lat="42.293972" lon="3.226953">
        <ele>261</ele>
        <time>1970-01-01T01:19:45.000Z</time>
      </trkpt>
      <trkpt lat="42.293975" lon="3.226908">
        <ele>261</ele>
        <time>1970-01-01T01:19:46.000Z</time>
      </trkpt>
      <trkpt lat="42.293977" lon="3.226864">
        <ele>261</ele>
        <time>1970-01-01T01:19:47.000Z</time>
      </trkpt>
      <trkpt lat="42.29398" lon="3.226819">
        <ele>261</ele>
        <time>1970-01-01T01:19:48.000Z</time>
      </trkpt>
      <trkpt lat="42.293982" lon="3.226774">
        <ele>261</ele>
        <time>1970-01-01T01:19:49.000Z</time>
      </trkpt>
      <trkpt lat="42.293968" lon="3.226681">
        <ele>261</ele>
        <time>1970-01-01T01:19:50.000Z</time>
      </trkpt>
      <trkpt lat="42.293958" lon="3.226637">
        <ele>261</ele>
        <time>1970-01-01T01:19:51.000Z</time>
      </trkpt>
      <trkpt lat="42.293949" lon="3.226592">
        <ele>261</ele>
        <time>1970-01-01T01:19:52.000Z</time>
      </trkpt>
      <trkpt lat="42.293939" lon="3.226548">
        <ele>261</ele>
        <time>1970-01-01T01:19:53.000Z</time>
      </trkpt>
      <trkpt lat="42.293929" lon="3.226504">
        <ele>261</ele>
        <time>1970-01-01T01:19:54.000Z</time>
      </trkpt>
      <trkpt lat="42.293919" lon="3.22646">
        <ele>261</ele>
        <time>1970-01-01T01:19:55.000Z</time>
      </trkpt>
      <trkpt lat="42.293909" lon="3.226416">
        <ele>261</ele>
        <time>1970-01-01T01:19:56.000Z</time>
      </trkpt>
      <trkpt lat="42.2939" lon="3.226371">
        <ele>261</ele>
        <time>1970-01-01T01:19:57.000Z</time>
      </trkpt>
      <trkpt lat="42.29389" lon="3.226327">
        <ele>261</ele>
        <time>1970-01-01T01:19:58.000Z</time>
      </trkpt>
      <trkpt lat="42.29388" lon="3.226283">
        <ele>262</ele>
        <time>1970-01-01T01:19:59.000Z</time>
      </trkpt>
      <trkpt lat="42.293857" lon="3.22619">
        <ele>262</ele>
        <time>1970-01-01T01:20:00.000Z</time>
      </trkpt>
      <trkpt lat="42.293846" lon="3.226146">
        <ele>262</ele>
        <time>1970-01-01T01:20:01.000Z</time>
      </trkpt>
      <trkpt lat="42.293834" lon="3.226103">
        <ele>262</ele>
        <time>1970-01-01T01:20:02.000Z</time>
      </trkpt>
      <trkpt lat="42.293822" lon="3.226059">
        <ele>262</ele>
        <time>1970-01-01T01:20:03.000Z</time>
      </trkpt>
      <trkpt lat="42.293811" lon="3.226016">
        <ele>262</ele>
        <time>1970-01-01T01:20:04.000Z</time>
      </trkpt>
      <trkpt lat="42.293799" lon="3.225973">
        <ele>262</ele>
        <time>1970-01-01T01:20:05.000Z</time>
      </trkpt>
      <trkpt lat="42.293787" lon="3.225929">
        <ele>262</ele>
        <time>1970-01-01T01:20:06.000Z</time>
      </trkpt>
      <trkpt lat="42.293775" lon="3.225886">
        <ele>262</ele>
        <time>1970-01-01T01:20:07.000Z</time>
      </trkpt>
      <trkpt lat="42.293764" lon="3.225842">
        <ele>262</ele>
        <time>1970-01-01T01:20:08.000Z</time>
      </trkpt>
      <trkpt lat="42.293752" lon="3.225799">
        <ele>263</ele>
        <time>1970-01-01T01:20:09.000Z</time>
      </trkpt>
      <trkpt lat="42.293718" lon="3.225716">
        <ele>263</ele>
        <time>1970-01-01T01:20:10.000Z</time>
      </trkpt>
      <trkpt lat="42.293699" lon="3.225679">
        <ele>263</ele>
        <time>1970-01-01T01:20:11.000Z</time>
      </trkpt>
      <trkpt lat="42.29368" lon="3.225641">
        <ele>263</ele>
        <time>1970-01-01T01:20:12.000Z</time>
      </trkpt>
      <trkpt lat="42.293661" lon="3.225604">
        <ele>263</ele>
        <time>1970-01-01T01:20:13.000Z</time>
      </trkpt>
      <trkpt lat="42.293643" lon="3.225566">
        <ele>263</ele>
        <time>1970-01-01T01:20:14.000Z</time>
      </trkpt>
      <trkpt lat="42.293624" lon="3.225528">
        <ele>263</ele>
        <time>1970-01-01T01:20:15.000Z</time>
      </trkpt>
      <trkpt lat="42.293605" lon="3.225491">
        <ele>263</ele>
        <time>1970-01-01T01:20:16.000Z</time>
      </trkpt>
      <trkpt lat="42.293586" lon="3.225453">
        <ele>263</ele>
        <time>1970-01-01T01:20:17.000Z</time>
      </trkpt>
      <trkpt lat="42.293567" lon="3.225416">
        <ele>263</ele>
        <time>1970-01-01T01:20:18.000Z</time>
      </trkpt>
      <trkpt lat="42.293548" lon="3.225378">
        <ele>263</ele>
        <time>1970-01-01T01:20:19.000Z</time>
      </trkpt>
      <trkpt lat="42.293491" lon="3.225329">
        <ele>263</ele>
        <time>1970-01-01T01:20:20.000Z</time>
      </trkpt>
      <trkpt lat="42.293459" lon="3.225318">
        <ele>263</ele>
        <time>1970-01-01T01:20:21.000Z</time>
      </trkpt>
      <trkpt lat="42.293428" lon="3.225306">
        <ele>263</ele>
        <time>1970-01-01T01:20:22.000Z</time>
      </trkpt>
      <trkpt lat="42.293396" lon="3.225295">
        <ele>263</ele>
        <time>1970-01-01T01:20:23.000Z</time>
      </trkpt>
      <trkpt lat="42.293365" lon="3.225283">
        <ele>263</ele>
        <time>1970-01-01T01:20:24.000Z</time>
      </trkpt>
      <trkpt lat="42.293334" lon="3.225272">
        <ele>263</ele>
        <time>1970-01-01T01:20:25.000Z</time>
      </trkpt>
      <trkpt lat="42.293302" lon="3.22526">
        <ele>263</ele>
        <time>1970-01-01T01:20:26.000Z</time>
      </trkpt>
      <trkpt lat="42.293271" lon="3.225249">
        <ele>263</ele>
        <time>1970-01-01T01:20:27.000Z</time>
      </trkpt>
      <trkpt lat="42.293239" lon="3.225237">
        <ele>263</ele>
        <time>1970-01-01T01:20:28.000Z</time>
      </trkpt>
      <trkpt lat="42.293208" lon="3.225226">
        <ele>264</ele>
        <time>1970-01-01T01:20:29.000Z</time>
      </trkpt>
      <trkpt lat="42.293131" lon="3.225237">
        <ele>264</ele>
        <time>1970-01-01T01:20:30.000Z</time>
      </trkpt>
      <trkpt lat="42.293092" lon="3.225243">
        <ele>264</ele>
        <time>1970-01-01T01:20:31.000Z</time>
      </trkpt>
      <trkpt lat="42.293054" lon="3.22525">
        <ele>264</ele>
        <time>1970-01-01T01:20:32.000Z</time>
      </trkpt>
      <trkpt lat="42.293016" lon="3.225256">
        <ele>264</ele>
        <time>1970-01-01T01:20:33.000Z</time>
      </trkpt>
      <trkpt lat="42.292977" lon="3.225262">
        <ele>264</ele>
        <time>1970-01-01T01:20:34.000Z</time>
      </trkpt>
      <trkpt lat="42.292939" lon="3.225268">
        <ele>264</ele>
        <time>1970-01-01T01:20:35.000Z</time>
      </trkpt>
      <trkpt lat="42.292901" lon="3.225275">
        <ele>264</ele>
        <time>1970-01-01T01:20:36.000Z</time>
      </trkpt>
      <trkpt lat="42.292862" lon="3.225281">
        <ele>264</ele>
        <time>1970-01-01T01:20:38.000Z</time>
      </trkpt>
      <trkpt lat="42.292824" lon="3.225287">
        <ele>264</ele>
        <time>1970-01-01T01:20:39.000Z</time>
      </trkpt>
      <trkpt lat="42.292756" lon="3.225277">
        <ele>264</ele>
        <time>1970-01-01T01:20:40.000Z</time>
      </trkpt>
      <trkpt lat="42.292727" lon="3.225262">
        <ele>264</ele>
        <time>1970-01-01T01:20:41.000Z</time>
      </trkpt>
      <trkpt lat="42.292698" lon="3.225246">
        <ele>264</ele>
        <time>1970-01-01T01:20:42.000Z</time>
      </trkpt>
      <trkpt lat="42.292669" lon="3.22523">
        <ele>264</ele>
        <time>1970-01-01T01:20:43.000Z</time>
      </trkpt>
      <trkpt lat="42.29264" lon="3.225214">
        <ele>264</ele>
        <time>1970-01-01T01:20:44.000Z</time>
      </trkpt>
      <trkpt lat="42.29261" lon="3.225199">
        <ele>264</ele>
        <time>1970-01-01T01:20:45.000Z</time>
      </trkpt>
      <trkpt lat="42.292581" lon="3.225183">
        <ele>264</ele>
        <time>1970-01-01T01:20:46.000Z</time>
      </trkpt>
      <trkpt lat="42.292552" lon="3.225167">
        <ele>264</ele>
        <time>1970-01-01T01:20:47.000Z</time>
      </trkpt>
      <trkpt lat="42.292523" lon="3.225152">
        <ele>264</ele>
        <time>1970-01-01T01:20:48.000Z</time>
      </trkpt>
      <trkpt lat="42.292494" lon="3.225136">
        <ele>265</ele>
        <time>1970-01-01T01:20:49.000Z</time>
      </trkpt>
      <trkpt lat="42.292473" lon="3.225046">
        <ele>265</ele>
        <time>1970-01-01T01:20:50.000Z</time>
      </trkpt>
      <trkpt lat="42.292466" lon="3.225001">
        <ele>265</ele>
        <time>1970-01-01T01:20:51.000Z</time>
      </trkpt>
      <trkpt lat="42.29246" lon="3.224955">
        <ele>265</ele>
        <time>1970-01-01T01:20:52.000Z</time>
      </trkpt>
      <trkpt lat="42.292453" lon="3.22491">
        <ele>265</ele>
        <time>1970-01-01T01:20:53.000Z</time>
      </trkpt>
      <trkpt lat="42.292447" lon="3.224865">
        <ele>265</ele>
        <time>1970-01-01T01:20:54.000Z</time>
      </trkpt>
      <trkpt lat="42.292441" lon="3.22482">
        <ele>265</ele>
        <time>1970-01-01T01:20:55.000Z</time>
      </trkpt>
      <trkpt lat="42.292434" lon="3.224775">
        <ele>265</ele>
        <time>1970-01-01T01:20:56.000Z</time>
      </trkpt>
      <trkpt lat="42.292428" lon="3.224729">
        <ele>265</ele>
        <time>1970-01-01T01:20:57.000Z</time>
      </trkpt>
      <trkpt lat="42.292421" lon="3.224684">
        <ele>265</ele>
        <time>1970-01-01T01:20:58.000Z</time>
      </trkpt>
      <trkpt lat="42.292415" lon="3.224639">
        <ele>266</ele>
        <time>1970-01-01T01:20:59.000Z</time>
      </trkpt>
      <trkpt lat="42.29239" lon="3.224546">
        <ele>266</ele>
        <time>1970-01-01T01:21:00.000Z</time>
      </trkpt>
      <trkpt lat="42.292372" lon="3.224505">
        <ele>266</ele>
        <time>1970-01-01T01:21:01.000Z</time>
      </trkpt>
      <trkpt lat="42.292355" lon="3.224463">
        <ele>266</ele>
        <time>1970-01-01T01:21:02.000Z</time>
      </trkpt>
      <trkpt lat="42.292337" lon="3.224421">
        <ele>266</ele>
        <time>1970-01-01T01:21:03.000Z</time>
      </trkpt>
      <trkpt lat="42.29232" lon="3.224379">
        <ele>266</ele>
        <time>1970-01-01T01:21:04.000Z</time>
      </trkpt>
      <trkpt lat="42.292303" lon="3.224338">
        <ele>266</ele>
        <time>1970-01-01T01:21:05.000Z</time>
      </trkpt>
      <trkpt lat="42.292285" lon="3.224296">
        <ele>266</ele>
        <time>1970-01-01T01:21:06.000Z</time>
      </trkpt>
      <trkpt lat="42.292268" lon="3.224254">
        <ele>266</ele>
        <time>1970-01-01T01:21:07.000Z</time>
      </trkpt>
      <trkpt lat="42.29225" lon="3.224213">
        <ele>266</ele>
        <time>1970-01-01T01:21:08.000Z</time>
      </trkpt>
      <trkpt lat="42.292233" lon="3.224171">
        <ele>266</ele>
        <time>1970-01-01T01:21:09.000Z</time>
      </trkpt>
      <trkpt lat="42.292173" lon="3.2241">
        <ele>266</ele>
        <time>1970-01-01T01:21:10.000Z</time>
      </trkpt>
      <trkpt lat="42.292144" lon="3.224068">
        <ele>266</ele>
        <time>1970-01-01T01:21:11.000Z</time>
      </trkpt>
      <trkpt lat="42.292114" lon="3.224037">
        <ele>266</ele>
        <time>1970-01-01T01:21:12.000Z</time>
      </trkpt>
      <trkpt lat="42.292085" lon="3.224005">
        <ele>266</ele>
        <time>1970-01-01T01:21:13.000Z</time>
      </trkpt>
      <trkpt lat="42.292055" lon="3.223974">
        <ele>266</ele>
        <time>1970-01-01T01:21:14.000Z</time>
      </trkpt>
      <trkpt lat="42.292025" lon="3.223943">
        <ele>266</ele>
        <time>1970-01-01T01:21:15.000Z</time>
      </trkpt>
      <trkpt lat="42.291996" lon="3.223911">
        <ele>266</ele>
        <time>1970-01-01T01:21:16.000Z</time>
      </trkpt>
      <trkpt lat="42.291966" lon="3.22388">
        <ele>266</ele>
        <time>1970-01-01T01:21:17.000Z</time>
      </trkpt>
      <trkpt lat="42.291937" lon="3.223848">
        <ele>266</ele>
        <time>1970-01-01T01:21:18.000Z</time>
      </trkpt>
      <trkpt lat="42.291907" lon="3.223817">
        <ele>266</ele>
        <time>1970-01-01T01:21:19.000Z</time>
      </trkpt>
      <trkpt lat="42.291837" lon="3.223767">
        <ele>266</ele>
        <time>1970-01-01T01:21:20.000Z</time>
      </trkpt>
      <trkpt lat="42.291802" lon="3.223746">
        <ele>266</ele>
        <time>1970-01-01T01:21:21.000Z</time>
      </trkpt>
      <trkpt lat="42.291768" lon="3.223726">
        <ele>266</ele>
        <time>1970-01-01T01:21:22.000Z</time>
      </trkpt>
      <trkpt lat="42.291733" lon="3.223706">
        <ele>266</ele>
        <time>1970-01-01T01:21:23.000Z</time>
      </trkpt>
      <trkpt lat="42.291698" lon="3.223685">
        <ele>266</ele>
        <time>1970-01-01T01:21:24.000Z</time>
      </trkpt>
      <trkpt lat="42.291663" lon="3.223665">
        <ele>266</ele>
        <time>1970-01-01T01:21:25.000Z</time>
      </trkpt>
      <trkpt lat="42.291628" lon="3.223645">
        <ele>266</ele>
        <time>1970-01-01T01:21:26.000Z</time>
      </trkpt>
      <trkpt lat="42.291594" lon="3.223625">
        <ele>266</ele>
        <time>1970-01-01T01:21:27.000Z</time>
      </trkpt>
      <trkpt lat="42.291559" lon="3.223604">
        <ele>266</ele>
        <time>1970-01-01T01:21:28.000Z</time>
      </trkpt>
      <trkpt lat="42.291524" lon="3.223584">
        <ele>267</ele>
        <time>1970-01-01T01:21:29.000Z</time>
      </trkpt>
      <trkpt lat="42.291445" lon="3.223547">
        <ele>267</ele>
        <time>1970-01-01T01:21:30.000Z</time>
      </trkpt>
      <trkpt lat="42.291407" lon="3.223529">
        <ele>267</ele>
        <time>1970-01-01T01:21:31.000Z</time>
      </trkpt>
      <trkpt lat="42.29137" lon="3.22351">
        <ele>267</ele>
        <time>1970-01-01T01:21:32.000Z</time>
      </trkpt>
      <trkpt lat="42.291332" lon="3.223492">
        <ele>267</ele>
        <time>1970-01-01T01:21:33.000Z</time>
      </trkpt>
      <trkpt lat="42.291294" lon="3.223474">
        <ele>267</ele>
        <time>1970-01-01T01:21:34.000Z</time>
      </trkpt>
      <trkpt lat="42.291256" lon="3.223456">
        <ele>267</ele>
        <time>1970-01-01T01:21:35.000Z</time>
      </trkpt>
      <trkpt lat="42.291218" lon="3.223438">
        <ele>267</ele>
        <time>1970-01-01T01:21:36.000Z</time>
      </trkpt>
      <trkpt lat="42.291181" lon="3.223419">
        <ele>267</ele>
        <time>1970-01-01T01:21:37.000Z</time>
      </trkpt>
      <trkpt lat="42.291143" lon="3.223401">
        <ele>267</ele>
        <time>1970-01-01T01:21:38.000Z</time>
      </trkpt>
      <trkpt lat="42.291105" lon="3.223383">
        <ele>267</ele>
        <time>1970-01-01T01:21:39.000Z</time>
      </trkpt>
      <trkpt lat="42.291023" lon="3.223345">
        <ele>267</ele>
        <time>1970-01-01T01:21:40.000Z</time>
      </trkpt>
      <trkpt lat="42.290985" lon="3.223326">
        <ele>267</ele>
        <time>1970-01-01T01:21:41.000Z</time>
      </trkpt>
      <trkpt lat="42.290947" lon="3.223308">
        <ele>267</ele>
        <time>1970-01-01T01:21:42.000Z</time>
      </trkpt>
      <trkpt lat="42.290909" lon="3.223289">
        <ele>267</ele>
        <time>1970-01-01T01:21:43.000Z</time>
      </trkpt>
      <trkpt lat="42.290872" lon="3.22327">
        <ele>267</ele>
        <time>1970-01-01T01:21:44.000Z</time>
      </trkpt>
      <trkpt lat="42.290834" lon="3.223251">
        <ele>267</ele>
        <time>1970-01-01T01:21:45.000Z</time>
      </trkpt>
      <trkpt lat="42.290796" lon="3.223232">
        <ele>267</ele>
        <time>1970-01-01T01:21:46.000Z</time>
      </trkpt>
      <trkpt lat="42.290758" lon="3.223214">
        <ele>267</ele>
        <time>1970-01-01T01:21:47.000Z</time>
      </trkpt>
      <trkpt lat="42.29072" lon="3.223195">
        <ele>267</ele>
        <time>1970-01-01T01:21:48.000Z</time>
      </trkpt>
      <trkpt lat="42.290682" lon="3.223176">
        <ele>267</ele>
        <time>1970-01-01T01:21:49.000Z</time>
      </trkpt>
      <trkpt lat="42.290603" lon="3.223139">
        <ele>267</ele>
        <time>1970-01-01T01:21:50.000Z</time>
      </trkpt>
      <trkpt lat="42.290566" lon="3.223123">
        <ele>267</ele>
        <time>1970-01-01T01:21:51.000Z</time>
      </trkpt>
      <trkpt lat="42.290529" lon="3.223107">
        <ele>267</ele>
        <time>1970-01-01T01:21:52.000Z</time>
      </trkpt>
      <trkpt lat="42.290492" lon="3.223091">
        <ele>267</ele>
        <time>1970-01-01T01:21:53.000Z</time>
      </trkpt>
      <trkpt lat="42.290456" lon="3.223075">
        <ele>267</ele>
        <time>1970-01-01T01:21:54.000Z</time>
      </trkpt>
      <trkpt lat="42.290419" lon="3.22306">
        <ele>267</ele>
        <time>1970-01-01T01:21:55.000Z</time>
      </trkpt>
      <trkpt lat="42.290382" lon="3.223044">
        <ele>267</ele>
        <time>1970-01-01T01:21:56.000Z</time>
      </trkpt>
      <trkpt lat="42.290345" lon="3.223028">
        <ele>267</ele>
        <time>1970-01-01T01:21:57.000Z</time>
      </trkpt>
      <trkpt lat="42.290308" lon="3.223012">
        <ele>267</ele>
        <time>1970-01-01T01:21:58.000Z</time>
      </trkpt>
      <trkpt lat="42.290271" lon="3.222996">
        <ele>268</ele>
        <time>1970-01-01T01:21:59.000Z</time>
      </trkpt>
      <trkpt lat="42.290193" lon="3.222976">
        <ele>268</ele>
        <time>1970-01-01T01:22:00.000Z</time>
      </trkpt>
      <trkpt lat="42.290155" lon="3.222969">
        <ele>268</ele>
        <time>1970-01-01T01:22:01.000Z</time>
      </trkpt>
      <trkpt lat="42.290118" lon="3.222963">
        <ele>268</ele>
        <time>1970-01-01T01:22:02.000Z</time>
      </trkpt>
      <trkpt lat="42.29008" lon="3.222956">
        <ele>268</ele>
        <time>1970-01-01T01:22:03.000Z</time>
      </trkpt>
      <trkpt lat="42.290043" lon="3.222949">
        <ele>268</ele>
        <time>1970-01-01T01:22:04.000Z</time>
      </trkpt>
      <trkpt lat="42.290006" lon="3.222942">
        <ele>268</ele>
        <time>1970-01-01T01:22:05.000Z</time>
      </trkpt>
      <trkpt lat="42.289968" lon="3.222935">
        <ele>268</ele>
        <time>1970-01-01T01:22:06.000Z</time>
      </trkpt>
      <trkpt lat="42.289931" lon="3.222929">
        <ele>268</ele>
        <time>1970-01-01T01:22:07.000Z</time>
      </trkpt>
      <trkpt lat="42.289893" lon="3.222922">
        <ele>268</ele>
        <time>1970-01-01T01:22:08.000Z</time>
      </trkpt>
      <trkpt lat="42.289856" lon="3.222915">
        <ele>269</ele>
        <time>1970-01-01T01:22:09.000Z</time>
      </trkpt>
      <trkpt lat="42.289777" lon="3.222899">
        <ele>269</ele>
        <time>1970-01-01T01:22:10.000Z</time>
      </trkpt>
      <trkpt lat="42.28974" lon="3.222892">
        <ele>269</ele>
        <time>1970-01-01T01:22:11.000Z</time>
      </trkpt>
      <trkpt lat="42.289702" lon="3.222884">
        <ele>269</ele>
        <time>1970-01-01T01:22:12.000Z</time>
      </trkpt>
      <trkpt lat="42.289665" lon="3.222876">
        <ele>269</ele>
        <time>1970-01-01T01:22:13.000Z</time>
      </trkpt>
      <trkpt lat="42.289628" lon="3.222868">
        <ele>269</ele>
        <time>1970-01-01T01:22:14.000Z</time>
      </trkpt>
      <trkpt lat="42.289591" lon="3.222861">
        <ele>269</ele>
        <time>1970-01-01T01:22:15.000Z</time>
      </trkpt>
      <trkpt lat="42.289554" lon="3.222853">
        <ele>269</ele>
        <time>1970-01-01T01:22:16.000Z</time>
      </trkpt>
      <trkpt lat="42.289516" lon="3.222845">
        <ele>269</ele>
        <time>1970-01-01T01:22:17.000Z</time>
      </trkpt>
      <trkpt lat="42.289479" lon="3.222838">
        <ele>269</ele>
        <time>1970-01-01T01:22:18.000Z</time>
      </trkpt>
      <trkpt lat="42.289442" lon="3.22283">
        <ele>269</ele>
        <time>1970-01-01T01:22:19.000Z</time>
      </trkpt>
      <trkpt lat="42.289367" lon="3.222803">
        <ele>269</ele>
        <time>1970-01-01T01:22:20.000Z</time>
      </trkpt>
      <trkpt lat="42.289332" lon="3.222786">
        <ele>269</ele>
        <time>1970-01-01T01:22:21.000Z</time>
      </trkpt>
      <trkpt lat="42.289298" lon="3.222768">
        <ele>269</ele>
        <time>1970-01-01T01:22:22.000Z</time>
      </trkpt>
      <trkpt lat="42.289263" lon="3.222751">
        <ele>269</ele>
        <time>1970-01-01T01:22:23.000Z</time>
      </trkpt>
      <trkpt lat="42.289229" lon="3.222734">
        <ele>269</ele>
        <time>1970-01-01T01:22:24.000Z</time>
      </trkpt>
      <trkpt lat="42.289194" lon="3.222717">
        <ele>269</ele>
        <time>1970-01-01T01:22:25.000Z</time>
      </trkpt>
      <trkpt lat="42.28916" lon="3.2227">
        <ele>269</ele>
        <time>1970-01-01T01:22:26.000Z</time>
      </trkpt>
      <trkpt lat="42.289125" lon="3.222682">
        <ele>269</ele>
        <time>1970-01-01T01:22:27.000Z</time>
      </trkpt>
      <trkpt lat="42.289091" lon="3.222665">
        <ele>269</ele>
        <time>1970-01-01T01:22:28.000Z</time>
      </trkpt>
      <trkpt lat="42.289056" lon="3.222648">
        <ele>269</ele>
        <time>1970-01-01T01:22:29.000Z</time>
      </trkpt>
      <trkpt lat="42.288985" lon="3.222609">
        <ele>269</ele>
        <time>1970-01-01T01:22:30.000Z</time>
      </trkpt>
      <trkpt lat="42.288952" lon="3.222593">
        <ele>269</ele>
        <time>1970-01-01T01:22:31.000Z</time>
      </trkpt>
      <trkpt lat="42.288918" lon="3.222577">
        <ele>269</ele>
        <time>1970-01-01T01:22:32.000Z</time>
      </trkpt>
      <trkpt lat="42.288885" lon="3.222561">
        <ele>269</ele>
        <time>1970-01-01T01:22:33.000Z</time>
      </trkpt>
      <trkpt lat="42.288851" lon="3.222545">
        <ele>269</ele>
        <time>1970-01-01T01:22:34.000Z</time>
      </trkpt>
      <trkpt lat="42.288817" lon="3.222529">
        <ele>269</ele>
        <time>1970-01-01T01:22:35.000Z</time>
      </trkpt>
      <trkpt lat="42.288784" lon="3.222513">
        <ele>269</ele>
        <time>1970-01-01T01:22:36.000Z</time>
      </trkpt>
      <trkpt lat="42.28875" lon="3.222497">
        <ele>269</ele>
        <time>1970-01-01T01:22:37.000Z</time>
      </trkpt>
      <trkpt lat="42.288717" lon="3.222481">
        <ele>269</ele>
        <time>1970-01-01T01:22:38.000Z</time>
      </trkpt>
      <trkpt lat="42.288683" lon="3.222465">
        <ele>271</ele>
        <time>1970-01-01T01:22:39.000Z</time>
      </trkpt>
      <trkpt lat="42.288609" lon="3.222451">
        <ele>271</ele>
        <time>1970-01-01T01:22:40.000Z</time>
      </trkpt>
      <trkpt lat="42.288573" lon="3.222448">
        <ele>271</ele>
        <time>1970-01-01T01:22:41.000Z</time>
      </trkpt>
      <trkpt lat="42.288536" lon="3.222444">
        <ele>271</ele>
        <time>1970-01-01T01:22:42.000Z</time>
      </trkpt>
      <trkpt lat="42.2885" lon="3.22244">
        <ele>271</ele>
        <time>1970-01-01T01:22:43.000Z</time>
      </trkpt>
      <trkpt lat="42.288464" lon="3.222436">
        <ele>271</ele>
        <time>1970-01-01T01:22:44.000Z</time>
      </trkpt>
      <trkpt lat="42.288428" lon="3.222433">
        <ele>271</ele>
        <time>1970-01-01T01:22:45.000Z</time>
      </trkpt>
      <trkpt lat="42.288392" lon="3.222429">
        <ele>271</ele>
        <time>1970-01-01T01:22:46.000Z</time>
      </trkpt>
      <trkpt lat="42.288355" lon="3.222425">
        <ele>271</ele>
        <time>1970-01-01T01:22:47.000Z</time>
      </trkpt>
      <trkpt lat="42.288319" lon="3.222422">
        <ele>271</ele>
        <time>1970-01-01T01:22:48.000Z</time>
      </trkpt>
      <trkpt lat="42.288283" lon="3.222418">
        <ele>271</ele>
        <time>1970-01-01T01:22:49.000Z</time>
      </trkpt>
      <trkpt lat="42.288167" lon="3.222407">
        <ele>271</ele>
        <time>1970-01-01T01:22:51.000Z</time>
      </trkpt>
      <trkpt lat="42.288131" lon="3.222403">
        <ele>271</ele>
        <time>1970-01-01T01:22:52.000Z</time>
      </trkpt>
      <trkpt lat="42.288094" lon="3.222398">
        <ele>271</ele>
        <time>1970-01-01T01:22:53.000Z</time>
      </trkpt>
      <trkpt lat="42.288058" lon="3.222394">
        <ele>271</ele>
        <time>1970-01-01T01:22:54.000Z</time>
      </trkpt>
      <trkpt lat="42.288022" lon="3.22239">
        <ele>271</ele>
        <time>1970-01-01T01:22:55.000Z</time>
      </trkpt>
      <trkpt lat="42.287986" lon="3.222386">
        <ele>271</ele>
        <time>1970-01-01T01:22:56.000Z</time>
      </trkpt>
      <trkpt lat="42.287949" lon="3.222381">
        <ele>271</ele>
        <time>1970-01-01T01:22:57.000Z</time>
      </trkpt>
      <trkpt lat="42.287913" lon="3.222377">
        <ele>271</ele>
        <time>1970-01-01T01:22:58.000Z</time>
      </trkpt>
      <trkpt lat="42.287877" lon="3.222373">
        <ele>272</ele>
        <time>1970-01-01T01:22:59.000Z</time>
      </trkpt>
      <trkpt lat="42.287801" lon="3.222364">
        <ele>272</ele>
        <time>1970-01-01T01:23:00.000Z</time>
      </trkpt>
      <trkpt lat="42.287765" lon="3.22236">
        <ele>272</ele>
        <time>1970-01-01T01:23:01.000Z</time>
      </trkpt>
      <trkpt lat="42.28773" lon="3.222355">
        <ele>272</ele>
        <time>1970-01-01T01:23:02.000Z</time>
      </trkpt>
      <trkpt lat="42.287694" lon="3.222351">
        <ele>272</ele>
        <time>1970-01-01T01:23:03.000Z</time>
      </trkpt>
      <trkpt lat="42.287658" lon="3.222347">
        <ele>272</ele>
        <time>1970-01-01T01:23:04.000Z</time>
      </trkpt>
      <trkpt lat="42.287622" lon="3.222343">
        <ele>272</ele>
        <time>1970-01-01T01:23:05.000Z</time>
      </trkpt>
      <trkpt lat="42.287586" lon="3.222339">
        <ele>272</ele>
        <time>1970-01-01T01:23:06.000Z</time>
      </trkpt>
      <trkpt lat="42.287551" lon="3.222334">
        <ele>272</ele>
        <time>1970-01-01T01:23:07.000Z</time>
      </trkpt>
      <trkpt lat="42.287515" lon="3.22233">
        <ele>272</ele>
        <time>1970-01-01T01:23:08.000Z</time>
      </trkpt>
      <trkpt lat="42.287479" lon="3.222326">
        <ele>272</ele>
        <time>1970-01-01T01:23:09.000Z</time>
      </trkpt>
      <trkpt lat="42.287404" lon="3.222302">
        <ele>272</ele>
        <time>1970-01-01T01:23:10.000Z</time>
      </trkpt>
      <trkpt lat="42.28737" lon="3.222285">
        <ele>272</ele>
        <time>1970-01-01T01:23:11.000Z</time>
      </trkpt>
      <trkpt lat="42.287336" lon="3.222268">
        <ele>272</ele>
        <time>1970-01-01T01:23:12.000Z</time>
      </trkpt>
      <trkpt lat="42.287302" lon="3.222251">
        <ele>272</ele>
        <time>1970-01-01T01:23:13.000Z</time>
      </trkpt>
      <trkpt lat="42.287269" lon="3.222234">
        <ele>272</ele>
        <time>1970-01-01T01:23:14.000Z</time>
      </trkpt>
      <trkpt lat="42.287235" lon="3.222217">
        <ele>272</ele>
        <time>1970-01-01T01:23:15.000Z</time>
      </trkpt>
      <trkpt lat="42.287201" lon="3.2222">
        <ele>272</ele>
        <time>1970-01-01T01:23:16.000Z</time>
      </trkpt>
      <trkpt lat="42.287167" lon="3.222183">
        <ele>272</ele>
        <time>1970-01-01T01:23:17.000Z</time>
      </trkpt>
      <trkpt lat="42.287133" lon="3.222166">
        <ele>272</ele>
        <time>1970-01-01T01:23:18.000Z</time>
      </trkpt>
      <trkpt lat="42.287099" lon="3.222149">
        <ele>274</ele>
        <time>1970-01-01T01:23:19.000Z</time>
      </trkpt>
      <trkpt lat="42.287113" lon="3.222064">
        <ele>274</ele>
        <time>1970-01-01T01:23:20.000Z</time>
      </trkpt>
      <trkpt lat="42.287144" lon="3.222036">
        <ele>274</ele>
        <time>1970-01-01T01:23:21.000Z</time>
      </trkpt>
      <trkpt lat="42.287174" lon="3.222007">
        <ele>274</ele>
        <time>1970-01-01T01:23:22.000Z</time>
      </trkpt>
      <trkpt lat="42.287205" lon="3.221978">
        <ele>274</ele>
        <time>1970-01-01T01:23:23.000Z</time>
      </trkpt>
      <trkpt lat="42.287235" lon="3.22195">
        <ele>274</ele>
        <time>1970-01-01T01:23:24.000Z</time>
      </trkpt>
      <trkpt lat="42.287265" lon="3.221921">
        <ele>274</ele>
        <time>1970-01-01T01:23:25.000Z</time>
      </trkpt>
      <trkpt lat="42.287296" lon="3.221892">
        <ele>274</ele>
        <time>1970-01-01T01:23:26.000Z</time>
      </trkpt>
      <trkpt lat="42.287326" lon="3.221863">
        <ele>274</ele>
        <time>1970-01-01T01:23:27.000Z</time>
      </trkpt>
      <trkpt lat="42.287357" lon="3.221835">
        <ele>274</ele>
        <time>1970-01-01T01:23:28.000Z</time>
      </trkpt>
      <trkpt lat="42.287387" lon="3.221806">
        <ele>274</ele>
        <time>1970-01-01T01:23:29.000Z</time>
      </trkpt>
      <trkpt lat="42.287472" lon="3.221787">
        <ele>274</ele>
        <time>1970-01-01T01:23:30.000Z</time>
      </trkpt>
      <trkpt lat="42.287513" lon="3.221778">
        <ele>274</ele>
        <time>1970-01-01T01:23:31.000Z</time>
      </trkpt>
      <trkpt lat="42.287553" lon="3.22177">
        <ele>274</ele>
        <time>1970-01-01T01:23:32.000Z</time>
      </trkpt>
      <trkpt lat="42.287593" lon="3.221761">
        <ele>274</ele>
        <time>1970-01-01T01:23:33.000Z</time>
      </trkpt>
      <trkpt lat="42.287634" lon="3.221752">
        <ele>274</ele>
        <time>1970-01-01T01:23:34.000Z</time>
      </trkpt>
      <trkpt lat="42.287674" lon="3.221743">
        <ele>274</ele>
        <time>1970-01-01T01:23:35.000Z</time>
      </trkpt>
      <trkpt lat="42.287714" lon="3.221734">
        <ele>274</ele>
        <time>1970-01-01T01:23:36.000Z</time>
      </trkpt>
      <trkpt lat="42.287754" lon="3.221726">
        <ele>274</ele>
        <time>1970-01-01T01:23:37.000Z</time>
      </trkpt>
      <trkpt lat="42.287795" lon="3.221717">
        <ele>274</ele>
        <time>1970-01-01T01:23:38.000Z</time>
      </trkpt>
      <trkpt lat="42.287835" lon="3.221708">
        <ele>274</ele>
        <time>1970-01-01T01:23:39.000Z</time>
      </trkpt>
      <trkpt lat="42.287921" lon="3.221685">
        <ele>274</ele>
        <time>1970-01-01T01:23:40.000Z</time>
      </trkpt>
      <trkpt lat="42.287961" lon="3.221675">
        <ele>274</ele>
        <time>1970-01-01T01:23:41.000Z</time>
      </trkpt>
      <trkpt lat="42.288002" lon="3.221666">
        <ele>274</ele>
        <time>1970-01-01T01:23:42.000Z</time>
      </trkpt>
      <trkpt lat="42.288043" lon="3.221656">
        <ele>274</ele>
        <time>1970-01-01T01:23:43.000Z</time>
      </trkpt>
      <trkpt lat="42.288084" lon="3.221646">
        <ele>274</ele>
        <time>1970-01-01T01:23:44.000Z</time>
      </trkpt>
      <trkpt lat="42.288124" lon="3.221636">
        <ele>274</ele>
        <time>1970-01-01T01:23:45.000Z</time>
      </trkpt>
      <trkpt lat="42.288165" lon="3.221626">
        <ele>274</ele>
        <time>1970-01-01T01:23:46.000Z</time>
      </trkpt>
      <trkpt lat="42.288206" lon="3.221617">
        <ele>274</ele>
        <time>1970-01-01T01:23:47.000Z</time>
      </trkpt>
      <trkpt lat="42.288246" lon="3.221607">
        <ele>274</ele>
        <time>1970-01-01T01:23:48.000Z</time>
      </trkpt>
      <trkpt lat="42.288287" lon="3.221597">
        <ele>273</ele>
        <time>1970-01-01T01:23:49.000Z</time>
      </trkpt>
      <trkpt lat="42.288369" lon="3.221575">
        <ele>273</ele>
        <time>1970-01-01T01:23:50.000Z</time>
      </trkpt>
      <trkpt lat="42.288409" lon="3.221564">
        <ele>273</ele>
        <time>1970-01-01T01:23:51.000Z</time>
      </trkpt>
      <trkpt lat="42.288448" lon="3.221554">
        <ele>273</ele>
        <time>1970-01-01T01:23:52.000Z</time>
      </trkpt>
      <trkpt lat="42.288488" lon="3.221543">
        <ele>273</ele>
        <time>1970-01-01T01:23:53.000Z</time>
      </trkpt>
      <trkpt lat="42.288527" lon="3.221533">
        <ele>273</ele>
        <time>1970-01-01T01:23:54.000Z</time>
      </trkpt>
      <trkpt lat="42.288566" lon="3.221522">
        <ele>273</ele>
        <time>1970-01-01T01:23:55.000Z</time>
      </trkpt>
      <trkpt lat="42.288606" lon="3.221512">
        <ele>273</ele>
        <time>1970-01-01T01:23:56.000Z</time>
      </trkpt>
      <trkpt lat="42.288645" lon="3.221501">
        <ele>273</ele>
        <time>1970-01-01T01:23:57.000Z</time>
      </trkpt>
      <trkpt lat="42.288685" lon="3.221491">
        <ele>273</ele>
        <time>1970-01-01T01:23:58.000Z</time>
      </trkpt>
      <trkpt lat="42.288724" lon="3.22148">
        <ele>274</ele>
        <time>1970-01-01T01:23:59.000Z</time>
      </trkpt>
      <trkpt lat="42.288804" lon="3.221445">
        <ele>274</ele>
        <time>1970-01-01T01:24:00.000Z</time>
      </trkpt>
      <trkpt lat="42.28884" lon="3.221423">
        <ele>274</ele>
        <time>1970-01-01T01:24:01.000Z</time>
      </trkpt>
      <trkpt lat="42.288877" lon="3.221401">
        <ele>274</ele>
        <time>1970-01-01T01:24:02.000Z</time>
      </trkpt>
      <trkpt lat="42.288913" lon="3.221379">
        <ele>274</ele>
        <time>1970-01-01T01:24:03.000Z</time>
      </trkpt>
      <trkpt lat="42.288949" lon="3.221357">
        <ele>274</ele>
        <time>1970-01-01T01:24:04.000Z</time>
      </trkpt>
      <trkpt lat="42.288985" lon="3.221335">
        <ele>274</ele>
        <time>1970-01-01T01:24:05.000Z</time>
      </trkpt>
      <trkpt lat="42.289021" lon="3.221313">
        <ele>274</ele>
        <time>1970-01-01T01:24:06.000Z</time>
      </trkpt>
      <trkpt lat="42.289058" lon="3.221291">
        <ele>274</ele>
        <time>1970-01-01T01:24:07.000Z</time>
      </trkpt>
      <trkpt lat="42.289094" lon="3.221269">
        <ele>274</ele>
        <time>1970-01-01T01:24:08.000Z</time>
      </trkpt>
      <trkpt lat="42.28913" lon="3.221247">
        <ele>275</ele>
        <time>1970-01-01T01:24:09.000Z</time>
      </trkpt>
      <trkpt lat="42.289203" lon="3.221191">
        <ele>275</ele>
        <time>1970-01-01T01:24:10.000Z</time>
      </trkpt>
      <trkpt lat="42.289239" lon="3.221168">
        <ele>275</ele>
        <time>1970-01-01T01:24:11.000Z</time>
      </trkpt>
      <trkpt lat="42.289274" lon="3.221145">
        <ele>275</ele>
        <time>1970-01-01T01:24:12.000Z</time>
      </trkpt>
      <trkpt lat="42.28931" lon="3.221122">
        <ele>275</ele>
        <time>1970-01-01T01:24:13.000Z</time>
      </trkpt>
      <trkpt lat="42.289346" lon="3.2211">
        <ele>275</ele>
        <time>1970-01-01T01:24:14.000Z</time>
      </trkpt>
      <trkpt lat="42.289382" lon="3.221077">
        <ele>275</ele>
        <time>1970-01-01T01:24:15.000Z</time>
      </trkpt>
      <trkpt lat="42.289418" lon="3.221054">
        <ele>275</ele>
        <time>1970-01-01T01:24:16.000Z</time>
      </trkpt>
      <trkpt lat="42.289453" lon="3.221031">
        <ele>275</ele>
        <time>1970-01-01T01:24:17.000Z</time>
      </trkpt>
      <trkpt lat="42.289489" lon="3.221008">
        <ele>275</ele>
        <time>1970-01-01T01:24:18.000Z</time>
      </trkpt>
      <trkpt lat="42.289525" lon="3.220985">
        <ele>275</ele>
        <time>1970-01-01T01:24:19.000Z</time>
      </trkpt>
      <trkpt lat="42.289606" lon="3.220955">
        <ele>275</ele>
        <time>1970-01-01T01:24:20.000Z</time>
      </trkpt>
      <trkpt lat="42.289643" lon="3.220938">
        <ele>275</ele>
        <time>1970-01-01T01:24:21.000Z</time>
      </trkpt>
      <trkpt lat="42.289681" lon="3.220921">
        <ele>275</ele>
        <time>1970-01-01T01:24:22.000Z</time>
      </trkpt>
      <trkpt lat="42.289718" lon="3.220904">
        <ele>275</ele>
        <time>1970-01-01T01:24:23.000Z</time>
      </trkpt>
      <trkpt lat="42.289756" lon="3.220887">
        <ele>275</ele>
        <time>1970-01-01T01:24:24.000Z</time>
      </trkpt>
      <trkpt lat="42.289794" lon="3.220869">
        <ele>275</ele>
        <time>1970-01-01T01:24:25.000Z</time>
      </trkpt>
      <trkpt lat="42.289831" lon="3.220852">
        <ele>275</ele>
        <time>1970-01-01T01:24:26.000Z</time>
      </trkpt>
      <trkpt lat="42.289869" lon="3.220835">
        <ele>275</ele>
        <time>1970-01-01T01:24:27.000Z</time>
      </trkpt>
      <trkpt lat="42.289906" lon="3.220818">
        <ele>275</ele>
        <time>1970-01-01T01:24:28.000Z</time>
      </trkpt>
      <trkpt lat="42.289944" lon="3.220801">
        <ele>275</ele>
        <time>1970-01-01T01:24:29.000Z</time>
      </trkpt>
      <trkpt lat="42.29001" lon="3.22074">
        <ele>275</ele>
        <time>1970-01-01T01:24:30.000Z</time>
      </trkpt>
      <trkpt lat="42.290036" lon="3.220704">
        <ele>275</ele>
        <time>1970-01-01T01:24:31.000Z</time>
      </trkpt>
      <trkpt lat="42.290063" lon="3.220667">
        <ele>275</ele>
        <time>1970-01-01T01:24:32.000Z</time>
      </trkpt>
      <trkpt lat="42.290089" lon="3.220631">
        <ele>275</ele>
        <time>1970-01-01T01:24:33.000Z</time>
      </trkpt>
      <trkpt lat="42.290116" lon="3.220595">
        <ele>275</ele>
        <time>1970-01-01T01:24:34.000Z</time>
      </trkpt>
      <trkpt lat="42.290142" lon="3.220559">
        <ele>275</ele>
        <time>1970-01-01T01:24:35.000Z</time>
      </trkpt>
      <trkpt lat="42.290169" lon="3.220523">
        <ele>275</ele>
        <time>1970-01-01T01:24:36.000Z</time>
      </trkpt>
      <trkpt lat="42.290195" lon="3.220486">
        <ele>275</ele>
        <time>1970-01-01T01:24:37.000Z</time>
      </trkpt>
      <trkpt lat="42.290222" lon="3.22045">
        <ele>275</ele>
        <time>1970-01-01T01:24:38.000Z</time>
      </trkpt>
      <trkpt lat="42.290248" lon="3.220414">
        <ele>277</ele>
        <time>1970-01-01T01:24:39.000Z</time>
      </trkpt>
      <trkpt lat="42.29027" lon="3.220308">
        <ele>277</ele>
        <time>1970-01-01T01:24:40.000Z</time>
      </trkpt>
      <trkpt lat="42.290279" lon="3.220259">
        <ele>277</ele>
        <time>1970-01-01T01:24:41.000Z</time>
      </trkpt>
      <trkpt lat="42.290287" lon="3.220209">
        <ele>277</ele>
        <time>1970-01-01T01:24:42.000Z</time>
      </trkpt>
      <trkpt lat="42.290296" lon="3.220159">
        <ele>277</ele>
        <time>1970-01-01T01:24:43.000Z</time>
      </trkpt>
      <trkpt lat="42.290305" lon="3.22011">
        <ele>277</ele>
        <time>1970-01-01T01:24:44.000Z</time>
      </trkpt>
      <trkpt lat="42.290314" lon="3.22006">
        <ele>277</ele>
        <time>1970-01-01T01:24:45.000Z</time>
      </trkpt>
      <trkpt lat="42.290323" lon="3.22001">
        <ele>277</ele>
        <time>1970-01-01T01:24:46.000Z</time>
      </trkpt>
      <trkpt lat="42.290331" lon="3.21996">
        <ele>277</ele>
        <time>1970-01-01T01:24:47.000Z</time>
      </trkpt>
      <trkpt lat="42.29034" lon="3.219911">
        <ele>277</ele>
        <time>1970-01-01T01:24:48.000Z</time>
      </trkpt>
      <trkpt lat="42.290349" lon="3.219861">
        <ele>277</ele>
        <time>1970-01-01T01:24:49.000Z</time>
      </trkpt>
      <trkpt lat="42.2904" lon="3.219789">
        <ele>277</ele>
        <time>1970-01-01T01:24:50.000Z</time>
      </trkpt>
      <trkpt lat="42.290434" lon="3.219769">
        <ele>277</ele>
        <time>1970-01-01T01:24:51.000Z</time>
      </trkpt>
      <trkpt lat="42.290469" lon="3.219748">
        <ele>277</ele>
        <time>1970-01-01T01:24:52.000Z</time>
      </trkpt>
      <trkpt lat="42.290503" lon="3.219727">
        <ele>277</ele>
        <time>1970-01-01T01:24:53.000Z</time>
      </trkpt>
      <trkpt lat="42.290537" lon="3.219707">
        <ele>277</ele>
        <time>1970-01-01T01:24:54.000Z</time>
      </trkpt>
      <trkpt lat="42.290571" lon="3.219686">
        <ele>277</ele>
        <time>1970-01-01T01:24:55.000Z</time>
      </trkpt>
      <trkpt lat="42.290605" lon="3.219665">
        <ele>277</ele>
        <time>1970-01-01T01:24:56.000Z</time>
      </trkpt>
      <trkpt lat="42.29064" lon="3.219644">
        <ele>277</ele>
        <time>1970-01-01T01:24:57.000Z</time>
      </trkpt>
      <trkpt lat="42.290674" lon="3.219624">
        <ele>277</ele>
        <time>1970-01-01T01:24:58.000Z</time>
      </trkpt>
      <trkpt lat="42.290708" lon="3.219603">
        <ele>277</ele>
        <time>1970-01-01T01:24:59.000Z</time>
      </trkpt>
      <trkpt lat="42.290789" lon="3.219602">
        <ele>277</ele>
        <time>1970-01-01T01:25:00.000Z</time>
      </trkpt>
      <trkpt lat="42.290828" lon="3.219614">
        <ele>277</ele>
        <time>1970-01-01T01:25:01.000Z</time>
      </trkpt>
      <trkpt lat="42.290866" lon="3.219625">
        <ele>277</ele>
        <time>1970-01-01T01:25:02.000Z</time>
      </trkpt>
      <trkpt lat="42.290904" lon="3.219636">
        <ele>277</ele>
        <time>1970-01-01T01:25:03.000Z</time>
      </trkpt>
      <trkpt lat="42.290943" lon="3.219647">
        <ele>277</ele>
        <time>1970-01-01T01:25:04.000Z</time>
      </trkpt>
      <trkpt lat="42.290981" lon="3.219659">
        <ele>277</ele>
        <time>1970-01-01T01:25:05.000Z</time>
      </trkpt>
      <trkpt lat="42.291019" lon="3.21967">
        <ele>277</ele>
        <time>1970-01-01T01:25:06.000Z</time>
      </trkpt>
      <trkpt lat="42.291057" lon="3.219681">
        <ele>277</ele>
        <time>1970-01-01T01:25:07.000Z</time>
      </trkpt>
      <trkpt lat="42.291096" lon="3.219693">
        <ele>277</ele>
        <time>1970-01-01T01:25:08.000Z</time>
      </trkpt>
      <trkpt lat="42.291134" lon="3.219704">
        <ele>277</ele>
        <time>1970-01-01T01:25:09.000Z</time>
      </trkpt>
      <trkpt lat="42.291209" lon="3.219722">
        <ele>277</ele>
        <time>1970-01-01T01:25:10.000Z</time>
      </trkpt>
      <trkpt lat="42.291245" lon="3.219713">
        <ele>277</ele>
        <time>1970-01-01T01:25:11.000Z</time>
      </trkpt>
      <trkpt lat="42.29128" lon="3.219705">
        <ele>277</ele>
        <time>1970-01-01T01:25:12.000Z</time>
      </trkpt>
      <trkpt lat="42.291315" lon="3.219697">
        <ele>277</ele>
        <time>1970-01-01T01:25:13.000Z</time>
      </trkpt>
      <trkpt lat="42.291351" lon="3.219689">
        <ele>277</ele>
        <time>1970-01-01T01:25:14.000Z</time>
      </trkpt>
      <trkpt lat="42.291386" lon="3.21968">
        <ele>277</ele>
        <time>1970-01-01T01:25:15.000Z</time>
      </trkpt>
      <trkpt lat="42.291421" lon="3.219672">
        <ele>277</ele>
        <time>1970-01-01T01:25:16.000Z</time>
      </trkpt>
      <trkpt lat="42.291456" lon="3.219664">
        <ele>277</ele>
        <time>1970-01-01T01:25:17.000Z</time>
      </trkpt>
      <trkpt lat="42.291492" lon="3.219655">
        <ele>277</ele>
        <time>1970-01-01T01:25:18.000Z</time>
      </trkpt>
      <trkpt lat="42.291527" lon="3.219647">
        <ele>278</ele>
        <time>1970-01-01T01:25:19.000Z</time>
      </trkpt>
      <trkpt lat="42.291566" lon="3.219555">
        <ele>278</ele>
        <time>1970-01-01T01:25:20.000Z</time>
      </trkpt>
      <trkpt lat="42.291577" lon="3.219506">
        <ele>278</ele>
        <time>1970-01-01T01:25:21.000Z</time>
      </trkpt>
      <trkpt lat="42.291587" lon="3.219457">
        <ele>278</ele>
        <time>1970-01-01T01:25:22.000Z</time>
      </trkpt>
      <trkpt lat="42.291597" lon="3.219408">
        <ele>278</ele>
        <time>1970-01-01T01:25:23.000Z</time>
      </trkpt>
      <trkpt lat="42.291608" lon="3.219359">
        <ele>278</ele>
        <time>1970-01-01T01:25:24.000Z</time>
      </trkpt>
      <trkpt lat="42.291618" lon="3.21931">
        <ele>278</ele>
        <time>1970-01-01T01:25:25.000Z</time>
      </trkpt>
      <trkpt lat="42.291628" lon="3.219261">
        <ele>278</ele>
        <time>1970-01-01T01:25:26.000Z</time>
      </trkpt>
      <trkpt lat="42.291638" lon="3.219212">
        <ele>278</ele>
        <time>1970-01-01T01:25:27.000Z</time>
      </trkpt>
      <trkpt lat="42.291649" lon="3.219163">
        <ele>278</ele>
        <time>1970-01-01T01:25:28.000Z</time>
      </trkpt>
      <trkpt lat="42.291659" lon="3.219114">
        <ele>279</ele>
        <time>1970-01-01T01:25:29.000Z</time>
      </trkpt>
      <trkpt lat="42.291644" lon="3.219001">
        <ele>279</ele>
        <time>1970-01-01T01:25:30.000Z</time>
      </trkpt>
      <trkpt lat="42.291634" lon="3.218948">
        <ele>279</ele>
        <time>1970-01-01T01:25:31.000Z</time>
      </trkpt>
      <trkpt lat="42.291625" lon="3.218894">
        <ele>279</ele>
        <time>1970-01-01T01:25:32.000Z</time>
      </trkpt>
      <trkpt lat="42.291615" lon="3.218841">
        <ele>279</ele>
        <time>1970-01-01T01:25:33.000Z</time>
      </trkpt>
      <trkpt lat="42.291606" lon="3.218788">
        <ele>279</ele>
        <time>1970-01-01T01:25:34.000Z</time>
      </trkpt>
      <trkpt lat="42.291596" lon="3.218735">
        <ele>279</ele>
        <time>1970-01-01T01:25:35.000Z</time>
      </trkpt>
      <trkpt lat="42.291587" lon="3.218682">
        <ele>279</ele>
        <time>1970-01-01T01:25:36.000Z</time>
      </trkpt>
      <trkpt lat="42.291577" lon="3.218628">
        <ele>279</ele>
        <time>1970-01-01T01:25:37.000Z</time>
      </trkpt>
      <trkpt lat="42.291568" lon="3.218575">
        <ele>279</ele>
        <time>1970-01-01T01:25:38.000Z</time>
      </trkpt>
      <trkpt lat="42.291558" lon="3.218522">
        <ele>279</ele>
        <time>1970-01-01T01:25:39.000Z</time>
      </trkpt>
      <trkpt lat="42.291533" lon="3.218414">
        <ele>279</ele>
        <time>1970-01-01T01:25:40.000Z</time>
      </trkpt>
      <trkpt lat="42.29152" lon="3.218363">
        <ele>279</ele>
        <time>1970-01-01T01:25:41.000Z</time>
      </trkpt>
      <trkpt lat="42.291506" lon="3.218312">
        <ele>279</ele>
        <time>1970-01-01T01:25:42.000Z</time>
      </trkpt>
      <trkpt lat="42.291493" lon="3.218261">
        <ele>279</ele>
        <time>1970-01-01T01:25:43.000Z</time>
      </trkpt>
      <trkpt lat="42.29148" lon="3.21821">
        <ele>279</ele>
        <time>1970-01-01T01:25:44.000Z</time>
      </trkpt>
      <trkpt lat="42.291467" lon="3.21816">
        <ele>279</ele>
        <time>1970-01-01T01:25:45.000Z</time>
      </trkpt>
      <trkpt lat="42.291454" lon="3.218109">
        <ele>279</ele>
        <time>1970-01-01T01:25:46.000Z</time>
      </trkpt>
      <trkpt lat="42.29144" lon="3.218058">
        <ele>279</ele>
        <time>1970-01-01T01:25:47.000Z</time>
      </trkpt>
      <trkpt lat="42.291427" lon="3.218007">
        <ele>279</ele>
        <time>1970-01-01T01:25:48.000Z</time>
      </trkpt>
      <trkpt lat="42.291414" lon="3.217956">
        <ele>280</ele>
        <time>1970-01-01T01:25:49.000Z</time>
      </trkpt>
      <trkpt lat="42.291362" lon="3.217871">
        <ele>280</ele>
        <time>1970-01-01T01:25:50.000Z</time>
      </trkpt>
      <trkpt lat="42.29133" lon="3.217836">
        <ele>280</ele>
        <time>1970-01-01T01:25:51.000Z</time>
      </trkpt>
      <trkpt lat="42.291299" lon="3.217802">
        <ele>280</ele>
        <time>1970-01-01T01:25:52.000Z</time>
      </trkpt>
      <trkpt lat="42.291267" lon="3.217768">
        <ele>280</ele>
        <time>1970-01-01T01:25:53.000Z</time>
      </trkpt>
      <trkpt lat="42.291236" lon="3.217733">
        <ele>280</ele>
        <time>1970-01-01T01:25:54.000Z</time>
      </trkpt>
      <trkpt lat="42.291205" lon="3.217699">
        <ele>280</ele>
        <time>1970-01-01T01:25:55.000Z</time>
      </trkpt>
      <trkpt lat="42.291173" lon="3.217665">
        <ele>280</ele>
        <time>1970-01-01T01:25:56.000Z</time>
      </trkpt>
      <trkpt lat="42.291142" lon="3.217631">
        <ele>280</ele>
        <time>1970-01-01T01:25:57.000Z</time>
      </trkpt>
      <trkpt lat="42.29111" lon="3.217596">
        <ele>280</ele>
        <time>1970-01-01T01:25:58.000Z</time>
      </trkpt>
      <trkpt lat="42.291079" lon="3.217562">
        <ele>280</ele>
        <time>1970-01-01T01:25:59.000Z</time>
      </trkpt>
      <trkpt lat="42.291007" lon="3.2175">
        <ele>280</ele>
        <time>1970-01-01T01:26:00.000Z</time>
      </trkpt>
      <trkpt lat="42.290974" lon="3.217471">
        <ele>280</ele>
        <time>1970-01-01T01:26:01.000Z</time>
      </trkpt>
      <trkpt lat="42.29094" lon="3.217441">
        <ele>280</ele>
        <time>1970-01-01T01:26:02.000Z</time>
      </trkpt>
      <trkpt lat="42.290907" lon="3.217412">
        <ele>280</ele>
        <time>1970-01-01T01:26:03.000Z</time>
      </trkpt>
      <trkpt lat="42.290873" lon="3.217383">
        <ele>280</ele>
        <time>1970-01-01T01:26:04.000Z</time>
      </trkpt>
      <trkpt lat="42.290839" lon="3.217354">
        <ele>280</ele>
        <time>1970-01-01T01:26:05.000Z</time>
      </trkpt>
      <trkpt lat="42.290806" lon="3.217325">
        <ele>280</ele>
        <time>1970-01-01T01:26:06.000Z</time>
      </trkpt>
      <trkpt lat="42.290772" lon="3.217295">
        <ele>280</ele>
        <time>1970-01-01T01:26:07.000Z</time>
      </trkpt>
      <trkpt lat="42.290739" lon="3.217266">
        <ele>280</ele>
        <time>1970-01-01T01:26:08.000Z</time>
      </trkpt>
      <trkpt lat="42.290705" lon="3.217237">
        <ele>282</ele>
        <time>1970-01-01T01:26:09.000Z</time>
      </trkpt>
      <trkpt lat="42.290633" lon="3.217175">
        <ele>282</ele>
        <time>1970-01-01T01:26:10.000Z</time>
      </trkpt>
      <trkpt lat="42.290599" lon="3.217147">
        <ele>282</ele>
        <time>1970-01-01T01:26:11.000Z</time>
      </trkpt>
      <trkpt lat="42.290566" lon="3.217118">
        <ele>282</ele>
        <time>1970-01-01T01:26:12.000Z</time>
      </trkpt>
      <trkpt lat="42.290532" lon="3.21709">
        <ele>282</ele>
        <time>1970-01-01T01:26:13.000Z</time>
      </trkpt>
      <trkpt lat="42.290498" lon="3.217061">
        <ele>282</ele>
        <time>1970-01-01T01:26:14.000Z</time>
      </trkpt>
      <trkpt lat="42.290464" lon="3.217032">
        <ele>282</ele>
        <time>1970-01-01T01:26:15.000Z</time>
      </trkpt>
      <trkpt lat="42.29043" lon="3.217004">
        <ele>282</ele>
        <time>1970-01-01T01:26:16.000Z</time>
      </trkpt>
      <trkpt lat="42.290397" lon="3.216975">
        <ele>282</ele>
        <time>1970-01-01T01:26:17.000Z</time>
      </trkpt>
      <trkpt lat="42.290363" lon="3.216947">
        <ele>282</ele>
        <time>1970-01-01T01:26:18.000Z</time>
      </trkpt>
      <trkpt lat="42.290329" lon="3.216918">
        <ele>281</ele>
        <time>1970-01-01T01:26:19.000Z</time>
      </trkpt>
      <trkpt lat="42.290252" lon="3.216882">
        <ele>281</ele>
        <time>1970-01-01T01:26:20.000Z</time>
      </trkpt>
      <trkpt lat="42.290212" lon="3.216874">
        <ele>281</ele>
        <time>1970-01-01T01:26:21.000Z</time>
      </trkpt>
      <trkpt lat="42.290173" lon="3.216867">
        <ele>281</ele>
        <time>1970-01-01T01:26:22.000Z</time>
      </trkpt>
      <trkpt lat="42.290134" lon="3.21686">
        <ele>281</ele>
        <time>1970-01-01T01:26:23.000Z</time>
      </trkpt>
      <trkpt lat="42.290095" lon="3.216852">
        <ele>281</ele>
        <time>1970-01-01T01:26:24.000Z</time>
      </trkpt>
      <trkpt lat="42.290055" lon="3.216845">
        <ele>281</ele>
        <time>1970-01-01T01:26:25.000Z</time>
      </trkpt>
      <trkpt lat="42.290016" lon="3.216838">
        <ele>281</ele>
        <time>1970-01-01T01:26:26.000Z</time>
      </trkpt>
      <trkpt lat="42.289977" lon="3.216831">
        <ele>281</ele>
        <time>1970-01-01T01:26:27.000Z</time>
      </trkpt>
      <trkpt lat="42.289937" lon="3.216823">
        <ele>281</ele>
        <time>1970-01-01T01:26:28.000Z</time>
      </trkpt>
      <trkpt lat="42.289898" lon="3.216816">
        <ele>282</ele>
        <time>1970-01-01T01:26:29.000Z</time>
      </trkpt>
      <trkpt lat="42.289809" lon="3.216815">
        <ele>282</ele>
        <time>1970-01-01T01:26:30.000Z</time>
      </trkpt>
      <trkpt lat="42.289767" lon="3.216814">
        <ele>282</ele>
        <time>1970-01-01T01:26:31.000Z</time>
      </trkpt>
      <trkpt lat="42.289724" lon="3.216814">
        <ele>282</ele>
        <time>1970-01-01T01:26:32.000Z</time>
      </trkpt>
      <trkpt lat="42.289682" lon="3.216813">
        <ele>282</ele>
        <time>1970-01-01T01:26:33.000Z</time>
      </trkpt>
      <trkpt lat="42.28964" lon="3.216813">
        <ele>282</ele>
        <time>1970-01-01T01:26:34.000Z</time>
      </trkpt>
      <trkpt lat="42.289598" lon="3.216813">
        <ele>282</ele>
        <time>1970-01-01T01:26:35.000Z</time>
      </trkpt>
      <trkpt lat="42.289556" lon="3.216812">
        <ele>282</ele>
        <time>1970-01-01T01:26:36.000Z</time>
      </trkpt>
      <trkpt lat="42.289513" lon="3.216812">
        <ele>282</ele>
        <time>1970-01-01T01:26:37.000Z</time>
      </trkpt>
      <trkpt lat="42.289471" lon="3.216811">
        <ele>282</ele>
        <time>1970-01-01T01:26:38.000Z</time>
      </trkpt>
      <trkpt lat="42.289429" lon="3.216811">
        <ele>282</ele>
        <time>1970-01-01T01:26:39.000Z</time>
      </trkpt>
      <trkpt lat="42.28934" lon="3.216805">
        <ele>282</ele>
        <time>1970-01-01T01:26:40.000Z</time>
      </trkpt>
      <trkpt lat="42.289297" lon="3.2168">
        <ele>282</ele>
        <time>1970-01-01T01:26:41.000Z</time>
      </trkpt>
      <trkpt lat="42.289255" lon="3.216795">
        <ele>282</ele>
        <time>1970-01-01T01:26:42.000Z</time>
      </trkpt>
      <trkpt lat="42.289212" lon="3.21679">
        <ele>282</ele>
        <time>1970-01-01T01:26:43.000Z</time>
      </trkpt>
      <trkpt lat="42.28917" lon="3.216785">
        <ele>282</ele>
        <time>1970-01-01T01:26:44.000Z</time>
      </trkpt>
      <trkpt lat="42.289128" lon="3.21678">
        <ele>282</ele>
        <time>1970-01-01T01:26:45.000Z</time>
      </trkpt>
      <trkpt lat="42.289085" lon="3.216775">
        <ele>282</ele>
        <time>1970-01-01T01:26:46.000Z</time>
      </trkpt>
      <trkpt lat="42.289043" lon="3.21677">
        <ele>282</ele>
        <time>1970-01-01T01:26:47.000Z</time>
      </trkpt>
      <trkpt lat="42.289" lon="3.216765">
        <ele>282</ele>
        <time>1970-01-01T01:26:48.000Z</time>
      </trkpt>
      <trkpt lat="42.288958" lon="3.21676">
        <ele>283</ele>
        <time>1970-01-01T01:26:49.000Z</time>
      </trkpt>
      <trkpt lat="42.288874" lon="3.216715">
        <ele>283</ele>
        <time>1970-01-01T01:26:50.000Z</time>
      </trkpt>
      <trkpt lat="42.288836" lon="3.21669">
        <ele>283</ele>
        <time>1970-01-01T01:26:51.000Z</time>
      </trkpt>
      <trkpt lat="42.288797" lon="3.216664">
        <ele>283</ele>
        <time>1970-01-01T01:26:52.000Z</time>
      </trkpt>
      <trkpt lat="42.288759" lon="3.216638">
        <ele>283</ele>
        <time>1970-01-01T01:26:53.000Z</time>
      </trkpt>
      <trkpt lat="42.28872" lon="3.216612">
        <ele>283</ele>
        <time>1970-01-01T01:26:54.000Z</time>
      </trkpt>
      <trkpt lat="42.288681" lon="3.216587">
        <ele>283</ele>
        <time>1970-01-01T01:26:55.000Z</time>
      </trkpt>
      <trkpt lat="42.288643" lon="3.216561">
        <ele>283</ele>
        <time>1970-01-01T01:26:56.000Z</time>
      </trkpt>
      <trkpt lat="42.288604" lon="3.216535">
        <ele>283</ele>
        <time>1970-01-01T01:26:57.000Z</time>
      </trkpt>
      <trkpt lat="42.288566" lon="3.21651">
        <ele>283</ele>
        <time>1970-01-01T01:26:58.000Z</time>
      </trkpt>
      <trkpt lat="42.288527" lon="3.216484">
        <ele>283</ele>
        <time>1970-01-01T01:26:59.000Z</time>
      </trkpt>
      <trkpt lat="42.288494" lon="3.216397">
        <ele>283</ele>
        <time>1970-01-01T01:27:00.000Z</time>
      </trkpt>
      <trkpt lat="42.288499" lon="3.216346">
        <ele>283</ele>
        <time>1970-01-01T01:27:01.000Z</time>
      </trkpt>
      <trkpt lat="42.288505" lon="3.216294">
        <ele>283</ele>
        <time>1970-01-01T01:27:02.000Z</time>
      </trkpt>
      <trkpt lat="42.288511" lon="3.216243">
        <ele>283</ele>
        <time>1970-01-01T01:27:03.000Z</time>
      </trkpt>
      <trkpt lat="42.288517" lon="3.216191">
        <ele>283</ele>
        <time>1970-01-01T01:27:04.000Z</time>
      </trkpt>
      <trkpt lat="42.288522" lon="3.216139">
        <ele>283</ele>
        <time>1970-01-01T01:27:05.000Z</time>
      </trkpt>
      <trkpt lat="42.288528" lon="3.216088">
        <ele>283</ele>
        <time>1970-01-01T01:27:06.000Z</time>
      </trkpt>
      <trkpt lat="42.288534" lon="3.216036">
        <ele>283</ele>
        <time>1970-01-01T01:27:07.000Z</time>
      </trkpt>
      <trkpt lat="42.288539" lon="3.215985">
        <ele>283</ele>
        <time>1970-01-01T01:27:08.000Z</time>
      </trkpt>
      <trkpt lat="42.288545" lon="3.215933">
        <ele>284</ele>
        <time>1970-01-01T01:27:09.000Z</time>
      </trkpt>
      <trkpt lat="42.288598" lon="3.215834">
        <ele>284</ele>
        <time>1970-01-01T01:27:10.000Z</time>
      </trkpt>
      <trkpt lat="42.288622" lon="3.215789">
        <ele>284</ele>
        <time>1970-01-01T01:27:11.000Z</time>
      </trkpt>
      <trkpt lat="42.288646" lon="3.215743">
        <ele>284</ele>
        <time>1970-01-01T01:27:12.000Z</time>
      </trkpt>
      <trkpt lat="42.28867" lon="3.215698">
        <ele>284</ele>
        <time>1970-01-01T01:27:13.000Z</time>
      </trkpt>
      <trkpt lat="42.288695" lon="3.215653">
        <ele>284</ele>
        <time>1970-01-01T01:27:14.000Z</time>
      </trkpt>
      <trkpt lat="42.288719" lon="3.215608">
        <ele>284</ele>
        <time>1970-01-01T01:27:15.000Z</time>
      </trkpt>
      <trkpt lat="42.288743" lon="3.215563">
        <ele>284</ele>
        <time>1970-01-01T01:27:16.000Z</time>
      </trkpt>
      <trkpt lat="42.288767" lon="3.215517">
        <ele>284</ele>
        <time>1970-01-01T01:27:17.000Z</time>
      </trkpt>
      <trkpt lat="42.288791" lon="3.215472">
        <ele>284</ele>
        <time>1970-01-01T01:27:18.000Z</time>
      </trkpt>
      <trkpt lat="42.288815" lon="3.215427">
        <ele>285</ele>
        <time>1970-01-01T01:27:19.000Z</time>
      </trkpt>
      <trkpt lat="42.288846" lon="3.215332">
        <ele>285</ele>
        <time>1970-01-01T01:27:20.000Z</time>
      </trkpt>
      <trkpt lat="42.288857" lon="3.215281">
        <ele>285</ele>
        <time>1970-01-01T01:27:21.000Z</time>
      </trkpt>
      <trkpt lat="42.288868" lon="3.215231">
        <ele>285</ele>
        <time>1970-01-01T01:27:22.000Z</time>
      </trkpt>
      <trkpt lat="42.288879" lon="3.21518">
        <ele>285</ele>
        <time>1970-01-01T01:27:23.000Z</time>
      </trkpt>
      <trkpt lat="42.288891" lon="3.21513">
        <ele>285</ele>
        <time>1970-01-01T01:27:24.000Z</time>
      </trkpt>
      <trkpt lat="42.288902" lon="3.215079">
        <ele>285</ele>
        <time>1970-01-01T01:27:25.000Z</time>
      </trkpt>
      <trkpt lat="42.288913" lon="3.215029">
        <ele>285</ele>
        <time>1970-01-01T01:27:26.000Z</time>
      </trkpt>
      <trkpt lat="42.288924" lon="3.214978">
        <ele>285</ele>
        <time>1970-01-01T01:27:27.000Z</time>
      </trkpt>
      <trkpt lat="42.288935" lon="3.214928">
        <ele>285</ele>
        <time>1970-01-01T01:27:28.000Z</time>
      </trkpt>
      <trkpt lat="42.288946" lon="3.214877">
        <ele>286</ele>
        <time>1970-01-01T01:27:29.000Z</time>
      </trkpt>
      <trkpt lat="42.288957" lon="3.21477">
        <ele>286</ele>
        <time>1970-01-01T01:27:30.000Z</time>
      </trkpt>
      <trkpt lat="42.288961" lon="3.214726">
        <ele>286</ele>
        <time>1970-01-01T01:27:31.000Z</time>
      </trkpt>
      <trkpt lat="42.288964" lon="3.214681">
        <ele>286</ele>
        <time>1970-01-01T01:27:32.000Z</time>
      </trkpt>
      <trkpt lat="42.288967" lon="3.214637">
        <ele>286</ele>
        <time>1970-01-01T01:27:33.000Z</time>
      </trkpt>
      <trkpt lat="42.288971" lon="3.214592">
        <ele>286</ele>
        <time>1970-01-01T01:27:34.000Z</time>
      </trkpt>
      <trkpt lat="42.288974" lon="3.214547">
        <ele>286</ele>
        <time>1970-01-01T01:27:35.000Z</time>
      </trkpt>
      <trkpt lat="42.288977" lon="3.214503">
        <ele>286</ele>
        <time>1970-01-01T01:27:36.000Z</time>
      </trkpt>
      <trkpt lat="42.28898" lon="3.214458">
        <ele>286</ele>
        <time>1970-01-01T01:27:37.000Z</time>
      </trkpt>
      <trkpt lat="42.288984" lon="3.214414">
        <ele>286</ele>
        <time>1970-01-01T01:27:38.000Z</time>
      </trkpt>
      <trkpt lat="42.288987" lon="3.214369">
        <ele>286</ele>
        <time>1970-01-01T01:27:39.000Z</time>
      </trkpt>
      <trkpt lat="42.28897" lon="3.214263">
        <ele>286</ele>
        <time>1970-01-01T01:27:40.000Z</time>
      </trkpt>
      <trkpt lat="42.288957" lon="3.214204">
        <ele>286</ele>
        <time>1970-01-01T01:27:41.000Z</time>
      </trkpt>
      <trkpt lat="42.288943" lon="3.214144">
        <ele>286</ele>
        <time>1970-01-01T01:27:42.000Z</time>
      </trkpt>
      <trkpt lat="42.28893" lon="3.214085">
        <ele>286</ele>
        <time>1970-01-01T01:27:43.000Z</time>
      </trkpt>
      <trkpt lat="42.288917" lon="3.214026">
        <ele>286</ele>
        <time>1970-01-01T01:27:44.000Z</time>
      </trkpt>
      <trkpt lat="42.288904" lon="3.213967">
        <ele>286</ele>
        <time>1970-01-01T01:27:45.000Z</time>
      </trkpt>
      <trkpt lat="42.288891" lon="3.213908">
        <ele>286</ele>
        <time>1970-01-01T01:27:46.000Z</time>
      </trkpt>
      <trkpt lat="42.288877" lon="3.213848">
        <ele>286</ele>
        <time>1970-01-01T01:27:47.000Z</time>
      </trkpt>
      <trkpt lat="42.288864" lon="3.213789">
        <ele>286</ele>
        <time>1970-01-01T01:27:48.000Z</time>
      </trkpt>
      <trkpt lat="42.288851" lon="3.21373">
        <ele>287</ele>
        <time>1970-01-01T01:27:49.000Z</time>
      </trkpt>
      <trkpt lat="42.288821" lon="3.21357">
        <ele>287</ele>
        <time>1970-01-01T01:27:50.000Z</time>
      </trkpt>
      <trkpt lat="42.288808" lon="3.213489">
        <ele>287</ele>
        <time>1970-01-01T01:27:51.000Z</time>
      </trkpt>
      <trkpt lat="42.288794" lon="3.213407">
        <ele>287</ele>
        <time>1970-01-01T01:27:52.000Z</time>
      </trkpt>
      <trkpt lat="42.28878" lon="3.213326">
        <ele>287</ele>
        <time>1970-01-01T01:27:53.000Z</time>
      </trkpt>
      <trkpt lat="42.288767" lon="3.213244">
        <ele>287</ele>
        <time>1970-01-01T01:27:54.000Z</time>
      </trkpt>
      <trkpt lat="42.288753" lon="3.213163">
        <ele>287</ele>
        <time>1970-01-01T01:27:55.000Z</time>
      </trkpt>
      <trkpt lat="42.288739" lon="3.213081">
        <ele>287</ele>
        <time>1970-01-01T01:27:56.000Z</time>
      </trkpt>
      <trkpt lat="42.288725" lon="3.213">
        <ele>287</ele>
        <time>1970-01-01T01:27:57.000Z</time>
      </trkpt>
      <trkpt lat="42.288712" lon="3.212918">
        <ele>287</ele>
        <time>1970-01-01T01:27:58.000Z</time>
      </trkpt>
      <trkpt lat="42.288698" lon="3.212837">
        <ele>285</ele>
        <time>1970-01-01T01:27:59.000Z</time>
      </trkpt>
      <trkpt lat="42.28868" lon="3.212653">
        <ele>285</ele>
        <time>1970-01-01T01:28:00.000Z</time>
      </trkpt>
      <trkpt lat="42.288676" lon="3.21257">
        <ele>285</ele>
        <time>1970-01-01T01:28:01.000Z</time>
      </trkpt>
      <trkpt lat="42.288672" lon="3.212486">
        <ele>285</ele>
        <time>1970-01-01T01:28:02.000Z</time>
      </trkpt>
      <trkpt lat="42.288668" lon="3.212403">
        <ele>285</ele>
        <time>1970-01-01T01:28:03.000Z</time>
      </trkpt>
      <trkpt lat="42.288664" lon="3.212319">
        <ele>285</ele>
        <time>1970-01-01T01:28:04.000Z</time>
      </trkpt>
      <trkpt lat="42.28866" lon="3.212235">
        <ele>285</ele>
        <time>1970-01-01T01:28:05.000Z</time>
      </trkpt>
      <trkpt lat="42.288656" lon="3.212152">
        <ele>285</ele>
        <time>1970-01-01T01:28:06.000Z</time>
      </trkpt>
      <trkpt lat="42.288652" lon="3.212068">
        <ele>285</ele>
        <time>1970-01-01T01:28:07.000Z</time>
      </trkpt>
      <trkpt lat="42.288648" lon="3.211985">
        <ele>285</ele>
        <time>1970-01-01T01:28:08.000Z</time>
      </trkpt>
      <trkpt lat="42.288644" lon="3.211901">
        <ele>283</ele>
        <time>1970-01-01T01:28:09.000Z</time>
      </trkpt>
      <trkpt lat="42.288598" lon="3.211746">
        <ele>283</ele>
        <time>1970-01-01T01:28:10.000Z</time>
      </trkpt>
      <trkpt lat="42.288574" lon="3.211672">
        <ele>283</ele>
        <time>1970-01-01T01:28:11.000Z</time>
      </trkpt>
      <trkpt lat="42.288551" lon="3.211597">
        <ele>283</ele>
        <time>1970-01-01T01:28:12.000Z</time>
      </trkpt>
      <trkpt lat="42.288527" lon="3.211522">
        <ele>283</ele>
        <time>1970-01-01T01:28:13.000Z</time>
      </trkpt>
      <trkpt lat="42.288504" lon="3.211447">
        <ele>283</ele>
        <time>1970-01-01T01:28:14.000Z</time>
      </trkpt>
      <trkpt lat="42.28848" lon="3.211373">
        <ele>283</ele>
        <time>1970-01-01T01:28:15.000Z</time>
      </trkpt>
      <trkpt lat="42.288457" lon="3.211298">
        <ele>283</ele>
        <time>1970-01-01T01:28:16.000Z</time>
      </trkpt>
      <trkpt lat="42.288433" lon="3.211223">
        <ele>283</ele>
        <time>1970-01-01T01:28:17.000Z</time>
      </trkpt>
      <trkpt lat="42.28841" lon="3.211149">
        <ele>283</ele>
        <time>1970-01-01T01:28:18.000Z</time>
      </trkpt>
      <trkpt lat="42.288386" lon="3.211074">
        <ele>283</ele>
        <time>1970-01-01T01:28:19.000Z</time>
      </trkpt>
      <trkpt lat="42.28842" lon="3.210931">
        <ele>283</ele>
        <time>1970-01-01T01:28:20.000Z</time>
      </trkpt>
      <trkpt lat="42.28846" lon="3.210879">
        <ele>283</ele>
        <time>1970-01-01T01:28:21.000Z</time>
      </trkpt>
      <trkpt lat="42.2885" lon="3.210827">
        <ele>283</ele>
        <time>1970-01-01T01:28:22.000Z</time>
      </trkpt>
      <trkpt lat="42.28854" lon="3.210775">
        <ele>283</ele>
        <time>1970-01-01T01:28:23.000Z</time>
      </trkpt>
      <trkpt lat="42.28858" lon="3.210724">
        <ele>283</ele>
        <time>1970-01-01T01:28:24.000Z</time>
      </trkpt>
      <trkpt lat="42.288619" lon="3.210672">
        <ele>283</ele>
        <time>1970-01-01T01:28:25.000Z</time>
      </trkpt>
      <trkpt lat="42.288659" lon="3.21062">
        <ele>283</ele>
        <time>1970-01-01T01:28:26.000Z</time>
      </trkpt>
      <trkpt lat="42.288699" lon="3.210568">
        <ele>283</ele>
        <time>1970-01-01T01:28:27.000Z</time>
      </trkpt>
      <trkpt lat="42.288739" lon="3.210516">
        <ele>283</ele>
        <time>1970-01-01T01:28:28.000Z</time>
      </trkpt>
      <trkpt lat="42.288779" lon="3.210464">
        <ele>283</ele>
        <time>1970-01-01T01:28:29.000Z</time>
      </trkpt>
      <trkpt lat="42.288872" lon="3.210369">
        <ele>283</ele>
        <time>1970-01-01T01:28:30.000Z</time>
      </trkpt>
      <trkpt lat="42.288916" lon="3.210323">
        <ele>283</ele>
        <time>1970-01-01T01:28:31.000Z</time>
      </trkpt>
      <trkpt lat="42.288959" lon="3.210278">
        <ele>283</ele>
        <time>1970-01-01T01:28:32.000Z</time>
      </trkpt>
      <trkpt lat="42.289002" lon="3.210232">
        <ele>283</ele>
        <time>1970-01-01T01:28:33.000Z</time>
      </trkpt>
      <trkpt lat="42.289046" lon="3.210187">
        <ele>283</ele>
        <time>1970-01-01T01:28:34.000Z</time>
      </trkpt>
      <trkpt lat="42.289089" lon="3.210141">
        <ele>283</ele>
        <time>1970-01-01T01:28:35.000Z</time>
      </trkpt>
      <trkpt lat="42.289132" lon="3.210096">
        <ele>283</ele>
        <time>1970-01-01T01:28:36.000Z</time>
      </trkpt>
      <trkpt lat="42.289175" lon="3.21005">
        <ele>283</ele>
        <time>1970-01-01T01:28:37.000Z</time>
      </trkpt>
      <trkpt lat="42.289219" lon="3.210005">
        <ele>283</ele>
        <time>1970-01-01T01:28:38.000Z</time>
      </trkpt>
      <trkpt lat="42.289262" lon="3.209959">
        <ele>282</ele>
        <time>1970-01-01T01:28:39.000Z</time>
      </trkpt>
      <trkpt lat="42.289321" lon="3.209832">
        <ele>282</ele>
        <time>1970-01-01T01:28:40.000Z</time>
      </trkpt>
      <trkpt lat="42.289342" lon="3.209766">
        <ele>282</ele>
        <time>1970-01-01T01:28:41.000Z</time>
      </trkpt>
      <trkpt lat="42.289362" lon="3.209701">
        <ele>282</ele>
        <time>1970-01-01T01:28:42.000Z</time>
      </trkpt>
      <trkpt lat="42.289383" lon="3.209636">
        <ele>282</ele>
        <time>1970-01-01T01:28:43.000Z</time>
      </trkpt>
      <trkpt lat="42.289404" lon="3.209571">
        <ele>282</ele>
        <time>1970-01-01T01:28:44.000Z</time>
      </trkpt>
      <trkpt lat="42.289425" lon="3.209505">
        <ele>282</ele>
        <time>1970-01-01T01:28:45.000Z</time>
      </trkpt>
      <trkpt lat="42.289446" lon="3.20944">
        <ele>282</ele>
        <time>1970-01-01T01:28:46.000Z</time>
      </trkpt>
      <trkpt lat="42.289466" lon="3.209375">
        <ele>282</ele>
        <time>1970-01-01T01:28:47.000Z</time>
      </trkpt>
      <trkpt lat="42.289487" lon="3.209309">
        <ele>282</ele>
        <time>1970-01-01T01:28:48.000Z</time>
      </trkpt>
      <trkpt lat="42.289508" lon="3.209244">
        <ele>282</ele>
        <time>1970-01-01T01:28:49.000Z</time>
      </trkpt>
      <trkpt lat="42.289552" lon="3.209112">
        <ele>282</ele>
        <time>1970-01-01T01:28:50.000Z</time>
      </trkpt>
      <trkpt lat="42.289576" lon="3.209053">
        <ele>282</ele>
        <time>1970-01-01T01:28:51.000Z</time>
      </trkpt>
      <trkpt lat="42.289601" lon="3.208995">
        <ele>282</ele>
        <time>1970-01-01T01:28:52.000Z</time>
      </trkpt>
      <trkpt lat="42.289626" lon="3.208936">
        <ele>282</ele>
        <time>1970-01-01T01:28:53.000Z</time>
      </trkpt>
      <trkpt lat="42.289651" lon="3.208878">
        <ele>282</ele>
        <time>1970-01-01T01:28:54.000Z</time>
      </trkpt>
      <trkpt lat="42.289675" lon="3.208819">
        <ele>282</ele>
        <time>1970-01-01T01:28:55.000Z</time>
      </trkpt>
      <trkpt lat="42.2897" lon="3.208761">
        <ele>282</ele>
        <time>1970-01-01T01:28:56.000Z</time>
      </trkpt>
      <trkpt lat="42.289725" lon="3.208702">
        <ele>282</ele>
        <time>1970-01-01T01:28:57.000Z</time>
      </trkpt>
      <trkpt lat="42.289749" lon="3.208644">
        <ele>282</ele>
        <time>1970-01-01T01:28:58.000Z</time>
      </trkpt>
      <trkpt lat="42.289774" lon="3.208585">
        <ele>281</ele>
        <time>1970-01-01T01:28:59.000Z</time>
      </trkpt>
      <trkpt lat="42.289838" lon="3.208481">
        <ele>281</ele>
        <time>1970-01-01T01:29:00.000Z</time>
      </trkpt>
      <trkpt lat="42.289861" lon="3.208423">
        <ele>281</ele>
        <time>1970-01-01T01:29:01.000Z</time>
      </trkpt>
      <trkpt lat="42.289885" lon="3.208366">
        <ele>281</ele>
        <time>1970-01-01T01:29:02.000Z</time>
      </trkpt>
      <trkpt lat="42.289908" lon="3.208308">
        <ele>281</ele>
        <time>1970-01-01T01:29:03.000Z</time>
      </trkpt>
      <trkpt lat="42.289932" lon="3.208251">
        <ele>281</ele>
        <time>1970-01-01T01:29:04.000Z</time>
      </trkpt>
      <trkpt lat="42.289956" lon="3.208194">
        <ele>281</ele>
        <time>1970-01-01T01:29:05.000Z</time>
      </trkpt>
      <trkpt lat="42.289979" lon="3.208136">
        <ele>281</ele>
        <time>1970-01-01T01:29:06.000Z</time>
      </trkpt>
      <trkpt lat="42.290003" lon="3.208079">
        <ele>281</ele>
        <time>1970-01-01T01:29:07.000Z</time>
      </trkpt>
      <trkpt lat="42.290026" lon="3.208021">
        <ele>281</ele>
        <time>1970-01-01T01:29:08.000Z</time>
      </trkpt>
      <trkpt lat="42.29005" lon="3.207964">
        <ele>281</ele>
        <time>1970-01-01T01:29:09.000Z</time>
      </trkpt>
      <trkpt lat="42.290129" lon="3.207892">
        <ele>281</ele>
        <time>1970-01-01T01:29:10.000Z</time>
      </trkpt>
      <trkpt lat="42.290181" lon="3.207899">
        <ele>281</ele>
        <time>1970-01-01T01:29:11.000Z</time>
      </trkpt>
      <trkpt lat="42.290233" lon="3.207907">
        <ele>281</ele>
        <time>1970-01-01T01:29:12.000Z</time>
      </trkpt>
      <trkpt lat="42.290285" lon="3.207914">
        <ele>281</ele>
        <time>1970-01-01T01:29:13.000Z</time>
      </trkpt>
      <trkpt lat="42.290337" lon="3.207921">
        <ele>281</ele>
        <time>1970-01-01T01:29:14.000Z</time>
      </trkpt>
      <trkpt lat="42.290389" lon="3.207928">
        <ele>281</ele>
        <time>1970-01-01T01:29:15.000Z</time>
      </trkpt>
      <trkpt lat="42.290441" lon="3.207935">
        <ele>281</ele>
        <time>1970-01-01T01:29:16.000Z</time>
      </trkpt>
      <trkpt lat="42.290493" lon="3.207943">
        <ele>281</ele>
        <time>1970-01-01T01:29:17.000Z</time>
      </trkpt>
      <trkpt lat="42.290545" lon="3.20795">
        <ele>281</ele>
        <time>1970-01-01T01:29:18.000Z</time>
      </trkpt>
      <trkpt lat="42.290597" lon="3.207957">
        <ele>277</ele>
        <time>1970-01-01T01:29:19.000Z</time>
      </trkpt>
      <trkpt lat="42.290711" lon="3.208015">
        <ele>277</ele>
        <time>1970-01-01T01:29:20.000Z</time>
      </trkpt>
      <trkpt lat="42.290769" lon="3.208038">
        <ele>277</ele>
        <time>1970-01-01T01:29:21.000Z</time>
      </trkpt>
      <trkpt lat="42.290826" lon="3.208061">
        <ele>277</ele>
        <time>1970-01-01T01:29:22.000Z</time>
      </trkpt>
      <trkpt lat="42.290884" lon="3.208084">
        <ele>277</ele>
        <time>1970-01-01T01:29:23.000Z</time>
      </trkpt>
      <trkpt lat="42.290942" lon="3.208107">
        <ele>277</ele>
        <time>1970-01-01T01:29:24.000Z</time>
      </trkpt>
      <trkpt lat="42.291" lon="3.20813">
        <ele>277</ele>
        <time>1970-01-01T01:29:25.000Z</time>
      </trkpt>
      <trkpt lat="42.291058" lon="3.208153">
        <ele>277</ele>
        <time>1970-01-01T01:29:26.000Z</time>
      </trkpt>
      <trkpt lat="42.291115" lon="3.208176">
        <ele>277</ele>
        <time>1970-01-01T01:29:27.000Z</time>
      </trkpt>
      <trkpt lat="42.291173" lon="3.208199">
        <ele>277</ele>
        <time>1970-01-01T01:29:28.000Z</time>
      </trkpt>
      <trkpt lat="42.291231" lon="3.208222">
        <ele>278</ele>
        <time>1970-01-01T01:29:30.000Z</time>
      </trkpt>
      <trkpt lat="42.291356" lon="3.208184">
        <ele>278</ele>
        <time>1970-01-01T01:29:31.000Z</time>
      </trkpt>
      <trkpt lat="42.291417" lon="3.208148">
        <ele>278</ele>
        <time>1970-01-01T01:29:32.000Z</time>
      </trkpt>
      <trkpt lat="42.291477" lon="3.208113">
        <ele>278</ele>
        <time>1970-01-01T01:29:33.000Z</time>
      </trkpt>
      <trkpt lat="42.291537" lon="3.208077">
        <ele>278</ele>
        <time>1970-01-01T01:29:34.000Z</time>
      </trkpt>
      <trkpt lat="42.291598" lon="3.208042">
        <ele>278</ele>
        <time>1970-01-01T01:29:35.000Z</time>
      </trkpt>
      <trkpt lat="42.291658" lon="3.208006">
        <ele>278</ele>
        <time>1970-01-01T01:29:36.000Z</time>
      </trkpt>
      <trkpt lat="42.291718" lon="3.207971">
        <ele>278</ele>
        <time>1970-01-01T01:29:37.000Z</time>
      </trkpt>
      <trkpt lat="42.291779" lon="3.207935">
        <ele>278</ele>
        <time>1970-01-01T01:29:38.000Z</time>
      </trkpt>
      <trkpt lat="42.291839" lon="3.2079">
        <ele>278</ele>
        <time>1970-01-01T01:29:39.000Z</time>
      </trkpt>
      <trkpt lat="42.291913" lon="3.207856">
        <ele>278</ele>
        <time>1970-01-01T01:29:40.000Z</time>
      </trkpt>
      <trkpt lat="42.291991" lon="3.207819">
        <ele>278</ele>
        <time>1970-01-01T01:29:41.000Z</time>
      </trkpt>
      <trkpt lat="42.292072" lon="3.207787">
        <ele>278</ele>
        <time>1970-01-01T01:29:42.000Z</time>
      </trkpt>
      <trkpt lat="42.292155" lon="3.207762">
        <ele>278</ele>
        <time>1970-01-01T01:29:43.000Z</time>
      </trkpt>
      <trkpt lat="42.292239" lon="3.207739">
        <ele>278</ele>
        <time>1970-01-01T01:29:44.000Z</time>
      </trkpt>
      <trkpt lat="42.292322" lon="3.207712">
        <ele>278</ele>
        <time>1970-01-01T01:29:45.000Z</time>
      </trkpt>
      <trkpt lat="42.292407" lon="3.207686">
        <ele>278</ele>
        <time>1970-01-01T01:29:46.000Z</time>
      </trkpt>
      <trkpt lat="42.292494" lon="3.207663">
        <ele>278</ele>
        <time>1970-01-01T01:29:47.000Z</time>
      </trkpt>
      <trkpt lat="42.292581" lon="3.207642">
        <ele>278</ele>
        <time>1970-01-01T01:29:48.000Z</time>
      </trkpt>
      <trkpt lat="42.292669" lon="3.20762">
        <ele>278</ele>
        <time>1970-01-01T01:29:49.000Z</time>
      </trkpt>
      <trkpt lat="42.292758" lon="3.207601">
        <ele>274</ele>
        <time>1970-01-01T01:29:50.000Z</time>
      </trkpt>
      <trkpt lat="42.29293" lon="3.207576">
        <ele>274</ele>
        <time>1970-01-01T01:29:51.000Z</time>
      </trkpt>
      <trkpt lat="42.293013" lon="3.207569">
        <ele>274</ele>
        <time>1970-01-01T01:29:52.000Z</time>
      </trkpt>
      <trkpt lat="42.293096" lon="3.207563">
        <ele>274</ele>
        <time>1970-01-01T01:29:53.000Z</time>
      </trkpt>
      <trkpt lat="42.293179" lon="3.207556">
        <ele>274</ele>
        <time>1970-01-01T01:29:54.000Z</time>
      </trkpt>
      <trkpt lat="42.293262" lon="3.20755">
        <ele>274</ele>
        <time>1970-01-01T01:29:55.000Z</time>
      </trkpt>
      <trkpt lat="42.293345" lon="3.207543">
        <ele>274</ele>
        <time>1970-01-01T01:29:56.000Z</time>
      </trkpt>
      <trkpt lat="42.293428" lon="3.207537">
        <ele>274</ele>
        <time>1970-01-01T01:29:57.000Z</time>
      </trkpt>
      <trkpt lat="42.293511" lon="3.20753">
        <ele>274</ele>
        <time>1970-01-01T01:29:58.000Z</time>
      </trkpt>
      <trkpt lat="42.293594" lon="3.207524">
        <ele>271</ele>
        <time>1970-01-01T01:29:59.000Z</time>
      </trkpt>
      <trkpt lat="42.293684" lon="3.207478">
        <ele>271</ele>
        <time>1970-01-01T01:30:00.000Z</time>
      </trkpt>
      <trkpt lat="42.29377" lon="3.207417">
        <ele>271</ele>
        <time>1970-01-01T01:30:01.000Z</time>
      </trkpt>
      <trkpt lat="42.293853" lon="3.207347">
        <ele>271</ele>
        <time>1970-01-01T01:30:02.000Z</time>
      </trkpt>
      <trkpt lat="42.29393" lon="3.207266">
        <ele>271</ele>
        <time>1970-01-01T01:30:03.000Z</time>
      </trkpt>
      <trkpt lat="42.294003" lon="3.207176">
        <ele>271</ele>
        <time>1970-01-01T01:30:04.000Z</time>
      </trkpt>
      <trkpt lat="42.294074" lon="3.20708">
        <ele>271</ele>
        <time>1970-01-01T01:30:05.000Z</time>
      </trkpt>
      <trkpt lat="42.294144" lon="3.206981">
        <ele>271</ele>
        <time>1970-01-01T01:30:06.000Z</time>
      </trkpt>
      <trkpt lat="42.294213" lon="3.206886">
        <ele>271</ele>
        <time>1970-01-01T01:30:07.000Z</time>
      </trkpt>
      <trkpt lat="42.294281" lon="3.206791">
        <ele>271</ele>
        <time>1970-01-01T01:30:08.000Z</time>
      </trkpt>
      <trkpt lat="42.294348" lon="3.206696">
        <ele>270</ele>
        <time>1970-01-01T01:30:09.000Z</time>
      </trkpt>
      <trkpt lat="42.294415" lon="3.2066">
        <ele>270</ele>
        <time>1970-01-01T01:30:10.000Z</time>
      </trkpt>
      <trkpt lat="42.294478" lon="3.206502">
        <ele>270</ele>
        <time>1970-01-01T01:30:11.000Z</time>
      </trkpt>
      <trkpt lat="42.29454" lon="3.206403">
        <ele>270</ele>
        <time>1970-01-01T01:30:12.000Z</time>
      </trkpt>
      <trkpt lat="42.294601" lon="3.206305">
        <ele>270</ele>
        <time>1970-01-01T01:30:13.000Z</time>
      </trkpt>
      <trkpt lat="42.294661" lon="3.206204">
        <ele>270</ele>
        <time>1970-01-01T01:30:14.000Z</time>
      </trkpt>
      <trkpt lat="42.294719" lon="3.206104">
        <ele>270</ele>
        <time>1970-01-01T01:30:15.000Z</time>
      </trkpt>
      <trkpt lat="42.294776" lon="3.206004">
        <ele>270</ele>
        <time>1970-01-01T01:30:16.000Z</time>
      </trkpt>
      <trkpt lat="42.294833" lon="3.205906">
        <ele>270</ele>
        <time>1970-01-01T01:30:17.000Z</time>
      </trkpt>
      <trkpt lat="42.294888" lon="3.205811">
        <ele>270</ele>
        <time>1970-01-01T01:30:18.000Z</time>
      </trkpt>
      <trkpt lat="42.294937" lon="3.205716">
        <ele>266</ele>
        <time>1970-01-01T01:30:19.000Z</time>
      </trkpt>
      <trkpt lat="42.295053" lon="3.2056">
        <ele>266</ele>
        <time>1970-01-01T01:30:20.000Z</time>
      </trkpt>
      <trkpt lat="42.29512" lon="3.20558">
        <ele>266</ele>
        <time>1970-01-01T01:30:21.000Z</time>
      </trkpt>
      <trkpt lat="42.295188" lon="3.20556">
        <ele>266</ele>
        <time>1970-01-01T01:30:22.000Z</time>
      </trkpt>
      <trkpt lat="42.295255" lon="3.20554">
        <ele>266</ele>
        <time>1970-01-01T01:30:23.000Z</time>
      </trkpt>
      <trkpt lat="42.295322" lon="3.205519">
        <ele>266</ele>
        <time>1970-01-01T01:30:24.000Z</time>
      </trkpt>
      <trkpt lat="42.295389" lon="3.205499">
        <ele>266</ele>
        <time>1970-01-01T01:30:25.000Z</time>
      </trkpt>
      <trkpt lat="42.295457" lon="3.205479">
        <ele>266</ele>
        <time>1970-01-01T01:30:27.000Z</time>
      </trkpt>
      <trkpt lat="42.295524" lon="3.205459">
        <ele>266</ele>
        <time>1970-01-01T01:30:28.000Z</time>
      </trkpt>
      <trkpt lat="42.295591" lon="3.205439">
        <ele>265</ele>
        <time>1970-01-01T01:30:29.000Z</time>
      </trkpt>
      <trkpt lat="42.29571" lon="3.205374">
        <ele>265</ele>
        <time>1970-01-01T01:30:30.000Z</time>
      </trkpt>
      <trkpt lat="42.295749" lon="3.205303">
        <ele>265</ele>
        <time>1970-01-01T01:30:31.000Z</time>
      </trkpt>
      <trkpt lat="42.295788" lon="3.205232">
        <ele>265</ele>
        <time>1970-01-01T01:30:32.000Z</time>
      </trkpt>
      <trkpt lat="42.295827" lon="3.205161">
        <ele>265</ele>
        <time>1970-01-01T01:30:33.000Z</time>
      </trkpt>
      <trkpt lat="42.295866" lon="3.20509">
        <ele>265</ele>
        <time>1970-01-01T01:30:34.000Z</time>
      </trkpt>
      <trkpt lat="42.295904" lon="3.205019">
        <ele>265</ele>
        <time>1970-01-01T01:30:35.000Z</time>
      </trkpt>
      <trkpt lat="42.295943" lon="3.204948">
        <ele>265</ele>
        <time>1970-01-01T01:30:36.000Z</time>
      </trkpt>
      <trkpt lat="42.295982" lon="3.204877">
        <ele>265</ele>
        <time>1970-01-01T01:30:37.000Z</time>
      </trkpt>
      <trkpt lat="42.296021" lon="3.204806">
        <ele>265</ele>
        <time>1970-01-01T01:30:38.000Z</time>
      </trkpt>
      <trkpt lat="42.29606" lon="3.204735">
        <ele>258</ele>
        <time>1970-01-01T01:30:39.000Z</time>
      </trkpt>
      <trkpt lat="42.296051" lon="3.204601">
        <ele>258</ele>
        <time>1970-01-01T01:30:40.000Z</time>
      </trkpt>
      <trkpt lat="42.296031" lon="3.204465">
        <ele>258</ele>
        <time>1970-01-01T01:30:41.000Z</time>
      </trkpt>
      <trkpt lat="42.296002" lon="3.204327">
        <ele>258</ele>
        <time>1970-01-01T01:30:42.000Z</time>
      </trkpt>
      <trkpt lat="42.295966" lon="3.20419">
        <ele>258</ele>
        <time>1970-01-01T01:30:43.000Z</time>
      </trkpt>
      <trkpt lat="42.295928" lon="3.204059">
        <ele>258</ele>
        <time>1970-01-01T01:30:44.000Z</time>
      </trkpt>
      <trkpt lat="42.295892" lon="3.203942">
        <ele>258</ele>
        <time>1970-01-01T01:30:45.000Z</time>
      </trkpt>
      <trkpt lat="42.295864" lon="3.203832">
        <ele>258</ele>
        <time>1970-01-01T01:30:46.000Z</time>
      </trkpt>
      <trkpt lat="42.29585" lon="3.203723">
        <ele>258</ele>
        <time>1970-01-01T01:30:47.000Z</time>
      </trkpt>
      <trkpt lat="42.295858" lon="3.203609">
        <ele>258</ele>
        <time>1970-01-01T01:30:48.000Z</time>
      </trkpt>
      <trkpt lat="42.295898" lon="3.2035">
        <ele>252</ele>
        <time>1970-01-01T01:30:49.000Z</time>
      </trkpt>
      <trkpt lat="42.295937" lon="3.20339">
        <ele>252</ele>
        <time>1970-01-01T01:30:50.000Z</time>
      </trkpt>
      <trkpt lat="42.295985" lon="3.203277">
        <ele>252</ele>
        <time>1970-01-01T01:30:51.000Z</time>
      </trkpt>
      <trkpt lat="42.296025" lon="3.203153">
        <ele>252</ele>
        <time>1970-01-01T01:30:52.000Z</time>
      </trkpt>
      <trkpt lat="42.296053" lon="3.203018">
        <ele>252</ele>
        <time>1970-01-01T01:30:53.000Z</time>
      </trkpt>
      <trkpt lat="42.296073" lon="3.202878">
        <ele>252</ele>
        <time>1970-01-01T01:30:54.000Z</time>
      </trkpt>
      <trkpt lat="42.296089" lon="3.202739">
        <ele>252</ele>
        <time>1970-01-01T01:30:55.000Z</time>
      </trkpt>
      <trkpt lat="42.296101" lon="3.202611">
        <ele>252</ele>
        <time>1970-01-01T01:30:56.000Z</time>
      </trkpt>
      <trkpt lat="42.296115" lon="3.202492">
        <ele>252</ele>
        <time>1970-01-01T01:30:57.000Z</time>
      </trkpt>
      <trkpt lat="42.296143" lon="3.202382">
        <ele>252</ele>
        <time>1970-01-01T01:30:58.000Z</time>
      </trkpt>
      <trkpt lat="42.2962" lon="3.202288">
        <ele>246</ele>
        <time>1970-01-01T01:30:59.000Z</time>
      </trkpt>
      <trkpt lat="42.296256" lon="3.202194">
        <ele>246</ele>
        <time>1970-01-01T01:31:00.000Z</time>
      </trkpt>
      <trkpt lat="42.296336" lon="3.20212">
        <ele>246</ele>
        <time>1970-01-01T01:31:01.000Z</time>
      </trkpt>
      <trkpt lat="42.296427" lon="3.202062">
        <ele>246</ele>
        <time>1970-01-01T01:31:02.000Z</time>
      </trkpt>
      <trkpt lat="42.296525" lon="3.202017">
        <ele>246</ele>
        <time>1970-01-01T01:31:03.000Z</time>
      </trkpt>
      <trkpt lat="42.296626" lon="3.201974">
        <ele>246</ele>
        <time>1970-01-01T01:31:04.000Z</time>
      </trkpt>
      <trkpt lat="42.296728" lon="3.201924">
        <ele>246</ele>
        <time>1970-01-01T01:31:05.000Z</time>
      </trkpt>
      <trkpt lat="42.296825" lon="3.201859">
        <ele>246</ele>
        <time>1970-01-01T01:31:06.000Z</time>
      </trkpt>
      <trkpt lat="42.296915" lon="3.201778">
        <ele>246</ele>
        <time>1970-01-01T01:31:07.000Z</time>
      </trkpt>
      <trkpt lat="42.297018" lon="3.201643">
        <ele>246</ele>
        <time>1970-01-01T01:31:08.000Z</time>
      </trkpt>
      <trkpt lat="42.297045" lon="3.201597">
        <ele>239</ele>
        <time>1970-01-01T01:31:09.000Z</time>
      </trkpt>
      <trkpt lat="42.297058" lon="3.20141">
        <ele>239</ele>
        <time>1970-01-01T01:31:10.000Z</time>
      </trkpt>
      <trkpt lat="42.297017" lon="3.201316">
        <ele>239</ele>
        <time>1970-01-01T01:31:11.000Z</time>
      </trkpt>
      <trkpt lat="42.296976" lon="3.201221">
        <ele>239</ele>
        <time>1970-01-01T01:31:12.000Z</time>
      </trkpt>
      <trkpt lat="42.296935" lon="3.201127">
        <ele>239</ele>
        <time>1970-01-01T01:31:13.000Z</time>
      </trkpt>
      <trkpt lat="42.296894" lon="3.201032">
        <ele>239</ele>
        <time>1970-01-01T01:31:14.000Z</time>
      </trkpt>
      <trkpt lat="42.296852" lon="3.200938">
        <ele>239</ele>
        <time>1970-01-01T01:31:15.000Z</time>
      </trkpt>
      <trkpt lat="42.296811" lon="3.200843">
        <ele>239</ele>
        <time>1970-01-01T01:31:16.000Z</time>
      </trkpt>
      <trkpt lat="42.29677" lon="3.200749">
        <ele>239</ele>
        <time>1970-01-01T01:31:17.000Z</time>
      </trkpt>
      <trkpt lat="42.296729" lon="3.200654">
        <ele>239</ele>
        <time>1970-01-01T01:31:18.000Z</time>
      </trkpt>
      <trkpt lat="42.296688" lon="3.20056">
        <ele>232</ele>
        <time>1970-01-01T01:31:19.000Z</time>
      </trkpt>
      <trkpt lat="42.296612" lon="3.200444">
        <ele>232</ele>
        <time>1970-01-01T01:31:20.000Z</time>
      </trkpt>
      <trkpt lat="42.296527" lon="3.200335">
        <ele>232</ele>
        <time>1970-01-01T01:31:21.000Z</time>
      </trkpt>
      <trkpt lat="42.296432" lon="3.200234">
        <ele>232</ele>
        <time>1970-01-01T01:31:22.000Z</time>
      </trkpt>
      <trkpt lat="42.29633" lon="3.200143">
        <ele>232</ele>
        <time>1970-01-01T01:31:23.000Z</time>
      </trkpt>
      <trkpt lat="42.296218" lon="3.200065">
        <ele>232</ele>
        <time>1970-01-01T01:31:24.000Z</time>
      </trkpt>
      <trkpt lat="42.296097" lon="3.199999">
        <ele>232</ele>
        <time>1970-01-01T01:31:25.000Z</time>
      </trkpt>
      <trkpt lat="42.295973" lon="3.199942">
        <ele>232</ele>
        <time>1970-01-01T01:31:26.000Z</time>
      </trkpt>
      <trkpt lat="42.295759" lon="3.19985">
        <ele>232</ele>
        <time>1970-01-01T01:31:27.000Z</time>
      </trkpt>
      <trkpt lat="42.295675" lon="3.19981">
        <ele>232</ele>
        <time>1970-01-01T01:31:28.000Z</time>
      </trkpt>
      <trkpt lat="42.29559" lon="3.19977">
        <ele>225</ele>
        <time>1970-01-01T01:31:29.000Z</time>
      </trkpt>
      <trkpt lat="42.295404" lon="3.199667">
        <ele>225</ele>
        <time>1970-01-01T01:31:30.000Z</time>
      </trkpt>
      <trkpt lat="42.295344" lon="3.199626">
        <ele>225</ele>
        <time>1970-01-01T01:31:31.000Z</time>
      </trkpt>
      <trkpt lat="42.295283" lon="3.199586">
        <ele>225</ele>
        <time>1970-01-01T01:31:32.000Z</time>
      </trkpt>
      <trkpt lat="42.295222" lon="3.199545">
        <ele>225</ele>
        <time>1970-01-01T01:31:33.000Z</time>
      </trkpt>
      <trkpt lat="42.295162" lon="3.199504">
        <ele>225</ele>
        <time>1970-01-01T01:31:34.000Z</time>
      </trkpt>
      <trkpt lat="42.295101" lon="3.199463">
        <ele>225</ele>
        <time>1970-01-01T01:31:35.000Z</time>
      </trkpt>
      <trkpt lat="42.29504" lon="3.199422">
        <ele>225</ele>
        <time>1970-01-01T01:31:36.000Z</time>
      </trkpt>
      <trkpt lat="42.294979" lon="3.199382">
        <ele>225</ele>
        <time>1970-01-01T01:31:37.000Z</time>
      </trkpt>
      <trkpt lat="42.294919" lon="3.199341">
        <ele>225</ele>
        <time>1970-01-01T01:31:38.000Z</time>
      </trkpt>
      <trkpt lat="42.294858" lon="3.1993">
        <ele>218</ele>
        <time>1970-01-01T01:31:39.000Z</time>
      </trkpt>
      <trkpt lat="42.294937" lon="3.199171">
        <ele>218</ele>
        <time>1970-01-01T01:31:40.000Z</time>
      </trkpt>
      <trkpt lat="42.295002" lon="3.199127">
        <ele>218</ele>
        <time>1970-01-01T01:31:41.000Z</time>
      </trkpt>
      <trkpt lat="42.295066" lon="3.199082">
        <ele>218</ele>
        <time>1970-01-01T01:31:42.000Z</time>
      </trkpt>
      <trkpt lat="42.295131" lon="3.199038">
        <ele>218</ele>
        <time>1970-01-01T01:31:43.000Z</time>
      </trkpt>
      <trkpt lat="42.295195" lon="3.198994">
        <ele>218</ele>
        <time>1970-01-01T01:31:44.000Z</time>
      </trkpt>
      <trkpt lat="42.295259" lon="3.19895">
        <ele>218</ele>
        <time>1970-01-01T01:31:45.000Z</time>
      </trkpt>
      <trkpt lat="42.295324" lon="3.198906">
        <ele>218</ele>
        <time>1970-01-01T01:31:46.000Z</time>
      </trkpt>
      <trkpt lat="42.295388" lon="3.198861">
        <ele>218</ele>
        <time>1970-01-01T01:31:47.000Z</time>
      </trkpt>
      <trkpt lat="42.295453" lon="3.198817">
        <ele>218</ele>
        <time>1970-01-01T01:31:48.000Z</time>
      </trkpt>
      <trkpt lat="42.295517" lon="3.198773">
        <ele>214</ele>
        <time>1970-01-01T01:31:49.000Z</time>
      </trkpt>
      <trkpt lat="42.295591" lon="3.198714">
        <ele>214</ele>
        <time>1970-01-01T01:31:50.000Z</time>
      </trkpt>
      <trkpt lat="42.295657" lon="3.198641">
        <ele>214</ele>
        <time>1970-01-01T01:31:51.000Z</time>
      </trkpt>
      <trkpt lat="42.295715" lon="3.198553">
        <ele>214</ele>
        <time>1970-01-01T01:31:52.000Z</time>
      </trkpt>
      <trkpt lat="42.295769" lon="3.198456">
        <ele>214</ele>
        <time>1970-01-01T01:31:53.000Z</time>
      </trkpt>
      <trkpt lat="42.295822" lon="3.198355">
        <ele>214</ele>
        <time>1970-01-01T01:31:54.000Z</time>
      </trkpt>
      <trkpt lat="42.295883" lon="3.198257">
        <ele>214</ele>
        <time>1970-01-01T01:31:55.000Z</time>
      </trkpt>
      <trkpt lat="42.295955" lon="3.198171">
        <ele>214</ele>
        <time>1970-01-01T01:31:56.000Z</time>
      </trkpt>
      <trkpt lat="42.296039" lon="3.198099">
        <ele>214</ele>
        <time>1970-01-01T01:31:57.000Z</time>
      </trkpt>
      <trkpt lat="42.296125" lon="3.198028">
        <ele>214</ele>
        <time>1970-01-01T01:31:58.000Z</time>
      </trkpt>
      <trkpt lat="42.296203" lon="3.197944">
        <ele>209</ele>
        <time>1970-01-01T01:31:59.000Z</time>
      </trkpt>
      <trkpt lat="42.296275" lon="3.197774">
        <ele>209</ele>
        <time>1970-01-01T01:32:00.000Z</time>
      </trkpt>
      <trkpt lat="42.296269" lon="3.197689">
        <ele>209</ele>
        <time>1970-01-01T01:32:01.000Z</time>
      </trkpt>
      <trkpt lat="42.296262" lon="3.197603">
        <ele>209</ele>
        <time>1970-01-01T01:32:02.000Z</time>
      </trkpt>
      <trkpt lat="42.296256" lon="3.197518">
        <ele>209</ele>
        <time>1970-01-01T01:32:03.000Z</time>
      </trkpt>
      <trkpt lat="42.29625" lon="3.197433">
        <ele>209</ele>
        <time>1970-01-01T01:32:04.000Z</time>
      </trkpt>
      <trkpt lat="42.296244" lon="3.197348">
        <ele>209</ele>
        <time>1970-01-01T01:32:05.000Z</time>
      </trkpt>
      <trkpt lat="42.296238" lon="3.197263">
        <ele>209</ele>
        <time>1970-01-01T01:32:06.000Z</time>
      </trkpt>
      <trkpt lat="42.296231" lon="3.197177">
        <ele>209</ele>
        <time>1970-01-01T01:32:07.000Z</time>
      </trkpt>
      <trkpt lat="42.296225" lon="3.197092">
        <ele>209</ele>
        <time>1970-01-01T01:32:08.000Z</time>
      </trkpt>
      <trkpt lat="42.296219" lon="3.197007">
        <ele>205</ele>
        <time>1970-01-01T01:32:09.000Z</time>
      </trkpt>
      <trkpt lat="42.296153" lon="3.196909">
        <ele>205</ele>
        <time>1970-01-01T01:32:10.000Z</time>
      </trkpt>
      <trkpt lat="42.296107" lon="3.196781">
        <ele>205</ele>
        <time>1970-01-01T01:32:11.000Z</time>
      </trkpt>
      <trkpt lat="42.29607" lon="3.196649">
        <ele>205</ele>
        <time>1970-01-01T01:32:12.000Z</time>
      </trkpt>
      <trkpt lat="42.296036" lon="3.196521">
        <ele>205</ele>
        <time>1970-01-01T01:32:13.000Z</time>
      </trkpt>
      <trkpt lat="42.295995" lon="3.196405">
        <ele>205</ele>
        <time>1970-01-01T01:32:14.000Z</time>
      </trkpt>
      <trkpt lat="42.295936" lon="3.196304">
        <ele>205</ele>
        <time>1970-01-01T01:32:15.000Z</time>
      </trkpt>
      <trkpt lat="42.295861" lon="3.19622">
        <ele>205</ele>
        <time>1970-01-01T01:32:16.000Z</time>
      </trkpt>
      <trkpt lat="42.295774" lon="3.196149">
        <ele>205</ele>
        <time>1970-01-01T01:32:17.000Z</time>
      </trkpt>
      <trkpt lat="42.295679" lon="3.196087">
        <ele>205</ele>
        <time>1970-01-01T01:32:18.000Z</time>
      </trkpt>
      <trkpt lat="42.295579" lon="3.196027">
        <ele>196</ele>
        <time>1970-01-01T01:32:19.000Z</time>
      </trkpt>
      <trkpt lat="42.295478" lon="3.195967">
        <ele>196</ele>
        <time>1970-01-01T01:32:20.000Z</time>
      </trkpt>
      <trkpt lat="42.295374" lon="3.195907">
        <ele>196</ele>
        <time>1970-01-01T01:32:21.000Z</time>
      </trkpt>
      <trkpt lat="42.295269" lon="3.195845">
        <ele>196</ele>
        <time>1970-01-01T01:32:22.000Z</time>
      </trkpt>
      <trkpt lat="42.295163" lon="3.195781">
        <ele>196</ele>
        <time>1970-01-01T01:32:23.000Z</time>
      </trkpt>
      <trkpt lat="42.295055" lon="3.195716">
        <ele>196</ele>
        <time>1970-01-01T01:32:24.000Z</time>
      </trkpt>
      <trkpt lat="42.294948" lon="3.195645">
        <ele>196</ele>
        <time>1970-01-01T01:32:25.000Z</time>
      </trkpt>
      <trkpt lat="42.294846" lon="3.19556">
        <ele>196</ele>
        <time>1970-01-01T01:32:26.000Z</time>
      </trkpt>
      <trkpt lat="42.29475" lon="3.19546">
        <ele>196</ele>
        <time>1970-01-01T01:32:27.000Z</time>
      </trkpt>
      <trkpt lat="42.294619" lon="3.195288">
        <ele>196</ele>
        <time>1970-01-01T01:32:28.000Z</time>
      </trkpt>
      <trkpt lat="42.294576" lon="3.195228">
        <ele>190</ele>
        <time>1970-01-01T01:32:29.000Z</time>
      </trkpt>
      <trkpt lat="42.294491" lon="3.195109">
        <ele>190</ele>
        <time>1970-01-01T01:32:30.000Z</time>
      </trkpt>
      <trkpt lat="42.294406" lon="3.194989">
        <ele>190</ele>
        <time>1970-01-01T01:32:31.000Z</time>
      </trkpt>
      <trkpt lat="42.294324" lon="3.194879">
        <ele>190</ele>
        <time>1970-01-01T01:32:32.000Z</time>
      </trkpt>
      <trkpt lat="42.29425" lon="3.194777">
        <ele>190</ele>
        <time>1970-01-01T01:32:33.000Z</time>
      </trkpt>
      <trkpt lat="42.294179" lon="3.194682">
        <ele>190</ele>
        <time>1970-01-01T01:32:34.000Z</time>
      </trkpt>
      <trkpt lat="42.294106" lon="3.194587">
        <ele>190</ele>
        <time>1970-01-01T01:32:35.000Z</time>
      </trkpt>
      <trkpt lat="42.294039" lon="3.194492">
        <ele>190</ele>
        <time>1970-01-01T01:32:36.000Z</time>
      </trkpt>
      <trkpt lat="42.293982" lon="3.194387">
        <ele>190</ele>
        <time>1970-01-01T01:32:37.000Z</time>
      </trkpt>
      <trkpt lat="42.293918" lon="3.194175">
        <ele>190</ele>
        <time>1970-01-01T01:32:38.000Z</time>
      </trkpt>
      <trkpt lat="42.293899" lon="3.194084">
        <ele>190</ele>
        <time>1970-01-01T01:32:39.000Z</time>
      </trkpt>
      <trkpt lat="42.29388" lon="3.193994">
        <ele>182</ele>
        <time>1970-01-01T01:32:40.000Z</time>
      </trkpt>
      <trkpt lat="42.293893" lon="3.193757">
        <ele>182</ele>
        <time>1970-01-01T01:32:41.000Z</time>
      </trkpt>
      <trkpt lat="42.293929" lon="3.193657">
        <ele>182</ele>
        <time>1970-01-01T01:32:42.000Z</time>
      </trkpt>
      <trkpt lat="42.293964" lon="3.193556">
        <ele>182</ele>
        <time>1970-01-01T01:32:43.000Z</time>
      </trkpt>
      <trkpt lat="42.294" lon="3.193456">
        <ele>182</ele>
        <time>1970-01-01T01:32:44.000Z</time>
      </trkpt>
      <trkpt lat="42.294036" lon="3.193356">
        <ele>182</ele>
        <time>1970-01-01T01:32:45.000Z</time>
      </trkpt>
      <trkpt lat="42.294072" lon="3.193256">
        <ele>182</ele>
        <time>1970-01-01T01:32:46.000Z</time>
      </trkpt>
      <trkpt lat="42.294107" lon="3.193155">
        <ele>182</ele>
        <time>1970-01-01T01:32:47.000Z</time>
      </trkpt>
      <trkpt lat="42.294143" lon="3.193055">
        <ele>182</ele>
        <time>1970-01-01T01:32:48.000Z</time>
      </trkpt>
      <trkpt lat="42.294179" lon="3.192955">
        <ele>175</ele>
        <time>1970-01-01T01:32:49.000Z</time>
      </trkpt>
      <trkpt lat="42.294263" lon="3.1929">
        <ele>175</ele>
        <time>1970-01-01T01:32:50.000Z</time>
      </trkpt>
      <trkpt lat="42.294357" lon="3.192869">
        <ele>175</ele>
        <time>1970-01-01T01:32:51.000Z</time>
      </trkpt>
      <trkpt lat="42.294454" lon="3.192847">
        <ele>175</ele>
        <time>1970-01-01T01:32:52.000Z</time>
      </trkpt>
      <trkpt lat="42.294554" lon="3.192824">
        <ele>175</ele>
        <time>1970-01-01T01:32:53.000Z</time>
      </trkpt>
      <trkpt lat="42.294655" lon="3.192796">
        <ele>175</ele>
        <time>1970-01-01T01:32:54.000Z</time>
      </trkpt>
      <trkpt lat="42.294757" lon="3.192767">
        <ele>175</ele>
        <time>1970-01-01T01:32:55.000Z</time>
      </trkpt>
      <trkpt lat="42.294862" lon="3.192736">
        <ele>175</ele>
        <time>1970-01-01T01:32:56.000Z</time>
      </trkpt>
      <trkpt lat="42.29497" lon="3.192705">
        <ele>175</ele>
        <time>1970-01-01T01:32:57.000Z</time>
      </trkpt>
      <trkpt lat="42.295135" lon="3.192658">
        <ele>175</ele>
        <time>1970-01-01T01:32:58.000Z</time>
      </trkpt>
      <trkpt lat="42.295191" lon="3.192643">
        <ele>168</ele>
        <time>1970-01-01T01:32:59.000Z</time>
      </trkpt>
      <trkpt lat="42.295302" lon="3.192613">
        <ele>168</ele>
        <time>1970-01-01T01:33:00.000Z</time>
      </trkpt>
      <trkpt lat="42.295418" lon="3.192601">
        <ele>168</ele>
        <time>1970-01-01T01:33:01.000Z</time>
      </trkpt>
      <trkpt lat="42.295535" lon="3.192602">
        <ele>168</ele>
        <time>1970-01-01T01:33:02.000Z</time>
      </trkpt>
      <trkpt lat="42.295652" lon="3.19261">
        <ele>168</ele>
        <time>1970-01-01T01:33:03.000Z</time>
      </trkpt>
      <trkpt lat="42.29577" lon="3.192618">
        <ele>168</ele>
        <time>1970-01-01T01:33:04.000Z</time>
      </trkpt>
      <trkpt lat="42.295888" lon="3.192626">
        <ele>168</ele>
        <time>1970-01-01T01:33:05.000Z</time>
      </trkpt>
      <trkpt lat="42.296003" lon="3.192634">
        <ele>168</ele>
        <time>1970-01-01T01:33:06.000Z</time>
      </trkpt>
      <trkpt lat="42.296109" lon="3.192645">
        <ele>168</ele>
        <time>1970-01-01T01:33:07.000Z</time>
      </trkpt>
      <trkpt lat="42.296255" lon="3.192692">
        <ele>168</ele>
        <time>1970-01-01T01:33:08.000Z</time>
      </trkpt>
      <trkpt lat="42.2963" lon="3.192713">
        <ele>161</ele>
        <time>1970-01-01T01:33:09.000Z</time>
      </trkpt>
      <trkpt lat="42.296397" lon="3.192698">
        <ele>161</ele>
        <time>1970-01-01T01:33:10.000Z</time>
      </trkpt>
      <trkpt lat="42.296405" lon="3.19264">
        <ele>161</ele>
        <time>1970-01-01T01:33:11.000Z</time>
      </trkpt>
      <trkpt lat="42.296412" lon="3.192582">
        <ele>161</ele>
        <time>1970-01-01T01:33:12.000Z</time>
      </trkpt>
      <trkpt lat="42.29642" lon="3.192524">
        <ele>161</ele>
        <time>1970-01-01T01:33:13.000Z</time>
      </trkpt>
      <trkpt lat="42.296428" lon="3.192466">
        <ele>161</ele>
        <time>1970-01-01T01:33:14.000Z</time>
      </trkpt>
      <trkpt lat="42.296436" lon="3.192408">
        <ele>161</ele>
        <time>1970-01-01T01:33:15.000Z</time>
      </trkpt>
      <trkpt lat="42.296444" lon="3.19235">
        <ele>161</ele>
        <time>1970-01-01T01:33:16.000Z</time>
      </trkpt>
      <trkpt lat="42.296451" lon="3.192292">
        <ele>161</ele>
        <time>1970-01-01T01:33:17.000Z</time>
      </trkpt>
      <trkpt lat="42.296459" lon="3.192234">
        <ele>161</ele>
        <time>1970-01-01T01:33:18.000Z</time>
      </trkpt>
      <trkpt lat="42.296467" lon="3.192176">
        <ele>157</ele>
        <time>1970-01-01T01:33:19.000Z</time>
      </trkpt>
      <trkpt lat="42.296406" lon="3.192089">
        <ele>157</ele>
        <time>1970-01-01T01:33:20.000Z</time>
      </trkpt>
      <trkpt lat="42.296338" lon="3.191988">
        <ele>157</ele>
        <time>1970-01-01T01:33:21.000Z</time>
      </trkpt>
      <trkpt lat="42.296268" lon="3.191881">
        <ele>157</ele>
        <time>1970-01-01T01:33:22.000Z</time>
      </trkpt>
      <trkpt lat="42.296197" lon="3.191768">
        <ele>157</ele>
        <time>1970-01-01T01:33:23.000Z</time>
      </trkpt>
      <trkpt lat="42.296126" lon="3.191653">
        <ele>157</ele>
        <time>1970-01-01T01:33:24.000Z</time>
      </trkpt>
      <trkpt lat="42.296057" lon="3.191535">
        <ele>157</ele>
        <time>1970-01-01T01:33:25.000Z</time>
      </trkpt>
      <trkpt lat="42.295983" lon="3.191417">
        <ele>157</ele>
        <time>1970-01-01T01:33:26.000Z</time>
      </trkpt>
      <trkpt lat="42.295899" lon="3.191302">
        <ele>157</ele>
        <time>1970-01-01T01:33:27.000Z</time>
      </trkpt>
      <trkpt lat="42.295764" lon="3.19114">
        <ele>157</ele>
        <time>1970-01-01T01:33:28.000Z</time>
      </trkpt>
      <trkpt lat="42.295717" lon="3.191089">
        <ele>150</ele>
        <time>1970-01-01T01:33:29.000Z</time>
      </trkpt>
      <trkpt lat="42.295624" lon="3.190986">
        <ele>150</ele>
        <time>1970-01-01T01:33:30.000Z</time>
      </trkpt>
      <trkpt lat="42.295537" lon="3.190889">
        <ele>150</ele>
        <time>1970-01-01T01:33:31.000Z</time>
      </trkpt>
      <trkpt lat="42.295461" lon="3.190783">
        <ele>150</ele>
        <time>1970-01-01T01:33:32.000Z</time>
      </trkpt>
      <trkpt lat="42.295396" lon="3.190658">
        <ele>150</ele>
        <time>1970-01-01T01:33:33.000Z</time>
      </trkpt>
      <trkpt lat="42.295343" lon="3.190518">
        <ele>150</ele>
        <time>1970-01-01T01:33:34.000Z</time>
      </trkpt>
      <trkpt lat="42.295298" lon="3.19037">
        <ele>150</ele>
        <time>1970-01-01T01:33:35.000Z</time>
      </trkpt>
      <trkpt lat="42.295256" lon="3.190215">
        <ele>150</ele>
        <time>1970-01-01T01:33:36.000Z</time>
      </trkpt>
      <trkpt lat="42.295221" lon="3.190057">
        <ele>150</ele>
        <time>1970-01-01T01:33:37.000Z</time>
      </trkpt>
      <trkpt lat="42.295183" lon="3.189821">
        <ele>150</ele>
        <time>1970-01-01T01:33:38.000Z</time>
      </trkpt>
      <trkpt lat="42.295175" lon="3.189748">
        <ele>141</ele>
        <time>1970-01-01T01:33:39.000Z</time>
      </trkpt>
      <trkpt lat="42.295158" lon="3.189602">
        <ele>141</ele>
        <time>1970-01-01T01:33:40.000Z</time>
      </trkpt>
      <trkpt lat="42.295158" lon="3.189469">
        <ele>141</ele>
        <time>1970-01-01T01:33:41.000Z</time>
      </trkpt>
      <trkpt lat="42.295179" lon="3.189348">
        <ele>141</ele>
        <time>1970-01-01T01:33:42.000Z</time>
      </trkpt>
      <trkpt lat="42.295223" lon="3.189237">
        <ele>141</ele>
        <time>1970-01-01T01:33:43.000Z</time>
      </trkpt>
      <trkpt lat="42.295288" lon="3.18914">
        <ele>141</ele>
        <time>1970-01-01T01:33:44.000Z</time>
      </trkpt>
      <trkpt lat="42.295368" lon="3.189062">
        <ele>141</ele>
        <time>1970-01-01T01:33:45.000Z</time>
      </trkpt>
      <trkpt lat="42.295457" lon="3.188994">
        <ele>141</ele>
        <time>1970-01-01T01:33:46.000Z</time>
      </trkpt>
      <trkpt lat="42.29555" lon="3.188932">
        <ele>141</ele>
        <time>1970-01-01T01:33:47.000Z</time>
      </trkpt>
      <trkpt lat="42.295644" lon="3.188869">
        <ele>141</ele>
        <time>1970-01-01T01:33:48.000Z</time>
      </trkpt>
      <trkpt lat="42.29573" lon="3.188804">
        <ele>134</ele>
        <time>1970-01-01T01:33:49.000Z</time>
      </trkpt>
      <trkpt lat="42.295789" lon="3.188673">
        <ele>134</ele>
        <time>1970-01-01T01:33:50.000Z</time>
      </trkpt>
      <trkpt lat="42.295764" lon="3.188607">
        <ele>134</ele>
        <time>1970-01-01T01:33:51.000Z</time>
      </trkpt>
      <trkpt lat="42.295738" lon="3.188542">
        <ele>134</ele>
        <time>1970-01-01T01:33:52.000Z</time>
      </trkpt>
      <trkpt lat="42.295713" lon="3.188476">
        <ele>134</ele>
        <time>1970-01-01T01:33:53.000Z</time>
      </trkpt>
      <trkpt lat="42.295687" lon="3.188411">
        <ele>134</ele>
        <time>1970-01-01T01:33:54.000Z</time>
      </trkpt>
      <trkpt lat="42.295661" lon="3.188346">
        <ele>134</ele>
        <time>1970-01-01T01:33:55.000Z</time>
      </trkpt>
      <trkpt lat="42.295636" lon="3.18828">
        <ele>134</ele>
        <time>1970-01-01T01:33:56.000Z</time>
      </trkpt>
      <trkpt lat="42.29561" lon="3.188215">
        <ele>134</ele>
        <time>1970-01-01T01:33:57.000Z</time>
      </trkpt>
      <trkpt lat="42.295585" lon="3.188149">
        <ele>134</ele>
        <time>1970-01-01T01:33:58.000Z</time>
      </trkpt>
      <trkpt lat="42.295559" lon="3.188084">
        <ele>130</ele>
        <time>1970-01-01T01:33:59.000Z</time>
      </trkpt>
      <trkpt lat="42.295471" lon="3.188037">
        <ele>130</ele>
        <time>1970-01-01T01:34:00.000Z</time>
      </trkpt>
      <trkpt lat="42.295385" lon="3.187979">
        <ele>130</ele>
        <time>1970-01-01T01:34:01.000Z</time>
      </trkpt>
      <trkpt lat="42.295303" lon="3.187904">
        <ele>130</ele>
        <time>1970-01-01T01:34:02.000Z</time>
      </trkpt>
      <trkpt lat="42.295228" lon="3.187814">
        <ele>130</ele>
        <time>1970-01-01T01:34:03.000Z</time>
      </trkpt>
      <trkpt lat="42.295154" lon="3.187717">
        <ele>130</ele>
        <time>1970-01-01T01:34:04.000Z</time>
      </trkpt>
      <trkpt lat="42.295078" lon="3.187616">
        <ele>130</ele>
        <time>1970-01-01T01:34:05.000Z</time>
      </trkpt>
      <trkpt lat="42.295001" lon="3.187512">
        <ele>130</ele>
        <time>1970-01-01T01:34:06.000Z</time>
      </trkpt>
      <trkpt lat="42.294921" lon="3.187407">
        <ele>130</ele>
        <time>1970-01-01T01:34:07.000Z</time>
      </trkpt>
      <trkpt lat="42.294807" lon="3.187235">
        <ele>130</ele>
        <time>1970-01-01T01:34:08.000Z</time>
      </trkpt>
      <trkpt lat="42.294773" lon="3.187172">
        <ele>123</ele>
        <time>1970-01-01T01:34:09.000Z</time>
      </trkpt>
      <trkpt lat="42.294706" lon="3.187047">
        <ele>123</ele>
        <time>1970-01-01T01:34:10.000Z</time>
      </trkpt>
      <trkpt lat="42.294659" lon="3.18691">
        <ele>123</ele>
        <time>1970-01-01T01:34:11.000Z</time>
      </trkpt>
      <trkpt lat="42.294618" lon="3.18678">
        <ele>123</ele>
        <time>1970-01-01T01:34:12.000Z</time>
      </trkpt>
      <trkpt lat="42.294578" lon="3.186663">
        <ele>123</ele>
        <time>1970-01-01T01:34:13.000Z</time>
      </trkpt>
      <trkpt lat="42.294526" lon="3.186558">
        <ele>123</ele>
        <time>1970-01-01T01:34:14.000Z</time>
      </trkpt>
      <trkpt lat="42.294457" lon="3.186467">
        <ele>123</ele>
        <time>1970-01-01T01:34:15.000Z</time>
      </trkpt>
      <trkpt lat="42.294373" lon="3.186395">
        <ele>123</ele>
        <time>1970-01-01T01:34:16.000Z</time>
      </trkpt>
      <trkpt lat="42.294278" lon="3.186344">
        <ele>123</ele>
        <time>1970-01-01T01:34:17.000Z</time>
      </trkpt>
      <trkpt lat="42.294176" lon="3.186307">
        <ele>123</ele>
        <time>1970-01-01T01:34:18.000Z</time>
      </trkpt>
      <trkpt lat="42.29408" lon="3.186266">
        <ele>115</ele>
        <time>1970-01-01T01:34:19.000Z</time>
      </trkpt>
      <trkpt lat="42.293926" lon="3.186159">
        <ele>115</ele>
        <time>1970-01-01T01:34:20.000Z</time>
      </trkpt>
      <trkpt lat="42.293869" lon="3.186094">
        <ele>115</ele>
        <time>1970-01-01T01:34:21.000Z</time>
      </trkpt>
      <trkpt lat="42.293811" lon="3.186028">
        <ele>115</ele>
        <time>1970-01-01T01:34:22.000Z</time>
      </trkpt>
      <trkpt lat="42.293753" lon="3.185963">
        <ele>115</ele>
        <time>1970-01-01T01:34:23.000Z</time>
      </trkpt>
      <trkpt lat="42.293696" lon="3.185897">
        <ele>115</ele>
        <time>1970-01-01T01:34:24.000Z</time>
      </trkpt>
      <trkpt lat="42.293638" lon="3.185831">
        <ele>115</ele>
        <time>1970-01-01T01:34:25.000Z</time>
      </trkpt>
      <trkpt lat="42.29358" lon="3.185766">
        <ele>115</ele>
        <time>1970-01-01T01:34:26.000Z</time>
      </trkpt>
      <trkpt lat="42.293522" lon="3.1857">
        <ele>115</ele>
        <time>1970-01-01T01:34:27.000Z</time>
      </trkpt>
      <trkpt lat="42.293465" lon="3.185635">
        <ele>115</ele>
        <time>1970-01-01T01:34:28.000Z</time>
      </trkpt>
      <trkpt lat="42.293407" lon="3.185569">
        <ele>109</ele>
        <time>1970-01-01T01:34:29.000Z</time>
      </trkpt>
      <trkpt lat="42.293308" lon="3.185569">
        <ele>109</ele>
        <time>1970-01-01T01:34:30.000Z</time>
      </trkpt>
      <trkpt lat="42.293206" lon="3.185557">
        <ele>109</ele>
        <time>1970-01-01T01:34:31.000Z</time>
      </trkpt>
      <trkpt lat="42.293103" lon="3.18553">
        <ele>109</ele>
        <time>1970-01-01T01:34:32.000Z</time>
      </trkpt>
      <trkpt lat="42.293002" lon="3.185487">
        <ele>109</ele>
        <time>1970-01-01T01:34:33.000Z</time>
      </trkpt>
      <trkpt lat="42.292904" lon="3.185428">
        <ele>109</ele>
        <time>1970-01-01T01:34:34.000Z</time>
      </trkpt>
      <trkpt lat="42.292808" lon="3.185357">
        <ele>109</ele>
        <time>1970-01-01T01:34:35.000Z</time>
      </trkpt>
      <trkpt lat="42.292712" lon="3.185277">
        <ele>109</ele>
        <time>1970-01-01T01:34:36.000Z</time>
      </trkpt>
      <trkpt lat="42.292616" lon="3.185196">
        <ele>109</ele>
        <time>1970-01-01T01:34:37.000Z</time>
      </trkpt>
      <trkpt lat="42.292468" lon="3.185076">
        <ele>109</ele>
        <time>1970-01-01T01:34:38.000Z</time>
      </trkpt>
      <trkpt lat="42.292419" lon="3.185036">
        <ele>103</ele>
        <time>1970-01-01T01:34:39.000Z</time>
      </trkpt>
      <trkpt lat="42.29232" lon="3.184955">
        <ele>103</ele>
        <time>1970-01-01T01:34:40.000Z</time>
      </trkpt>
      <trkpt lat="42.292234" lon="3.184868">
        <ele>103</ele>
        <time>1970-01-01T01:34:41.000Z</time>
      </trkpt>
      <trkpt lat="42.292163" lon="3.184777">
        <ele>103</ele>
        <time>1970-01-01T01:34:42.000Z</time>
      </trkpt>
      <trkpt lat="42.292094" lon="3.184696">
        <ele>103</ele>
        <time>1970-01-01T01:34:43.000Z</time>
      </trkpt>
      <trkpt lat="42.292014" lon="3.184637">
        <ele>103</ele>
        <time>1970-01-01T01:34:44.000Z</time>
      </trkpt>
      <trkpt lat="42.291925" lon="3.184601">
        <ele>103</ele>
        <time>1970-01-01T01:34:45.000Z</time>
      </trkpt>
      <trkpt lat="42.29183" lon="3.184589">
        <ele>103</ele>
        <time>1970-01-01T01:34:46.000Z</time>
      </trkpt>
      <trkpt lat="42.291734" lon="3.184597">
        <ele>103</ele>
        <time>1970-01-01T01:34:47.000Z</time>
      </trkpt>
      <trkpt lat="42.291637" lon="3.184624">
        <ele>103</ele>
        <time>1970-01-01T01:34:48.000Z</time>
      </trkpt>
      <trkpt lat="42.291541" lon="3.184652">
        <ele>98</ele>
        <time>1970-01-01T01:34:49.000Z</time>
      </trkpt>
      <trkpt lat="42.291389" lon="3.184599">
        <ele>98</ele>
        <time>1970-01-01T01:34:50.000Z</time>
      </trkpt>
      <trkpt lat="42.291333" lon="3.184519">
        <ele>98</ele>
        <time>1970-01-01T01:34:51.000Z</time>
      </trkpt>
      <trkpt lat="42.291278" lon="3.184438">
        <ele>98</ele>
        <time>1970-01-01T01:34:52.000Z</time>
      </trkpt>
      <trkpt lat="42.291222" lon="3.184357">
        <ele>98</ele>
        <time>1970-01-01T01:34:53.000Z</time>
      </trkpt>
      <trkpt lat="42.291166" lon="3.184276">
        <ele>98</ele>
        <time>1970-01-01T01:34:54.000Z</time>
      </trkpt>
      <trkpt lat="42.29111" lon="3.184196">
        <ele>98</ele>
        <time>1970-01-01T01:34:55.000Z</time>
      </trkpt>
      <trkpt lat="42.291054" lon="3.184115">
        <ele>98</ele>
        <time>1970-01-01T01:34:56.000Z</time>
      </trkpt>
      <trkpt lat="42.290999" lon="3.184034">
        <ele>98</ele>
        <time>1970-01-01T01:34:57.000Z</time>
      </trkpt>
      <trkpt lat="42.290943" lon="3.183954">
        <ele>98</ele>
        <time>1970-01-01T01:34:58.000Z</time>
      </trkpt>
      <trkpt lat="42.290887" lon="3.183873">
        <ele>91</ele>
        <time>1970-01-01T01:34:59.000Z</time>
      </trkpt>
      <trkpt lat="42.290843" lon="3.183742">
        <ele>91</ele>
        <time>1970-01-01T01:35:00.000Z</time>
      </trkpt>
      <trkpt lat="42.2908" lon="3.183625">
        <ele>91</ele>
        <time>1970-01-01T01:35:01.000Z</time>
      </trkpt>
      <trkpt lat="42.290745" lon="3.183525">
        <ele>91</ele>
        <time>1970-01-01T01:35:02.000Z</time>
      </trkpt>
      <trkpt lat="42.290672" lon="3.183446">
        <ele>91</ele>
        <time>1970-01-01T01:35:03.000Z</time>
      </trkpt>
      <trkpt lat="42.290582" lon="3.18339">
        <ele>91</ele>
        <time>1970-01-01T01:35:04.000Z</time>
      </trkpt>
      <trkpt lat="42.290485" lon="3.183356">
        <ele>91</ele>
        <time>1970-01-01T01:35:05.000Z</time>
      </trkpt>
      <trkpt lat="42.290383" lon="3.183335">
        <ele>91</ele>
        <time>1970-01-01T01:35:06.000Z</time>
      </trkpt>
      <trkpt lat="42.290277" lon="3.18332">
        <ele>91</ele>
        <time>1970-01-01T01:35:07.000Z</time>
      </trkpt>
      <trkpt lat="42.290169" lon="3.183309">
        <ele>91</ele>
        <time>1970-01-01T01:35:08.000Z</time>
      </trkpt>
      <trkpt lat="42.290058" lon="3.183298">
        <ele>84</ele>
        <time>1970-01-01T01:35:09.000Z</time>
      </trkpt>
      <trkpt lat="42.289884" lon="3.183251">
        <ele>84</ele>
        <time>1970-01-01T01:35:10.000Z</time>
      </trkpt>
      <trkpt lat="42.289822" lon="3.183214">
        <ele>84</ele>
        <time>1970-01-01T01:35:11.000Z</time>
      </trkpt>
      <trkpt lat="42.28976" lon="3.183178">
        <ele>84</ele>
        <time>1970-01-01T01:35:12.000Z</time>
      </trkpt>
      <trkpt lat="42.289698" lon="3.183142">
        <ele>84</ele>
        <time>1970-01-01T01:35:13.000Z</time>
      </trkpt>
      <trkpt lat="42.289636" lon="3.183105">
        <ele>84</ele>
        <time>1970-01-01T01:35:14.000Z</time>
      </trkpt>
      <trkpt lat="42.289574" lon="3.183069">
        <ele>84</ele>
        <time>1970-01-01T01:35:15.000Z</time>
      </trkpt>
      <trkpt lat="42.289512" lon="3.183033">
        <ele>84</ele>
        <time>1970-01-01T01:35:16.000Z</time>
      </trkpt>
      <trkpt lat="42.28945" lon="3.182997">
        <ele>84</ele>
        <time>1970-01-01T01:35:17.000Z</time>
      </trkpt>
      <trkpt lat="42.289388" lon="3.18296">
        <ele>84</ele>
        <time>1970-01-01T01:35:18.000Z</time>
      </trkpt>
      <trkpt lat="42.289326" lon="3.182924">
        <ele>78</ele>
        <time>1970-01-01T01:35:19.000Z</time>
      </trkpt>
      <trkpt lat="42.289308" lon="3.182741">
        <ele>78</ele>
        <time>1970-01-01T01:35:20.000Z</time>
      </trkpt>
      <trkpt lat="42.289291" lon="3.18266">
        <ele>78</ele>
        <time>1970-01-01T01:35:21.000Z</time>
      </trkpt>
      <trkpt lat="42.289274" lon="3.18258">
        <ele>78</ele>
        <time>1970-01-01T01:35:22.000Z</time>
      </trkpt>
      <trkpt lat="42.289257" lon="3.182499">
        <ele>78</ele>
        <time>1970-01-01T01:35:23.000Z</time>
      </trkpt>
      <trkpt lat="42.28924" lon="3.182418">
        <ele>78</ele>
        <time>1970-01-01T01:35:24.000Z</time>
      </trkpt>
      <trkpt lat="42.289222" lon="3.182337">
        <ele>78</ele>
        <time>1970-01-01T01:35:25.000Z</time>
      </trkpt>
      <trkpt lat="42.289205" lon="3.182256">
        <ele>78</ele>
        <time>1970-01-01T01:35:26.000Z</time>
      </trkpt>
      <trkpt lat="42.289188" lon="3.182176">
        <ele>78</ele>
        <time>1970-01-01T01:35:27.000Z</time>
      </trkpt>
      <trkpt lat="42.289171" lon="3.182095">
        <ele>78</ele>
        <time>1970-01-01T01:35:28.000Z</time>
      </trkpt>
      <trkpt lat="42.289154" lon="3.182014">
        <ele>72</ele>
        <time>1970-01-01T01:35:29.000Z</time>
      </trkpt>
      <trkpt lat="42.289071" lon="3.181962">
        <ele>72</ele>
        <time>1970-01-01T01:35:30.000Z</time>
      </trkpt>
      <trkpt lat="42.288985" lon="3.181909">
        <ele>72</ele>
        <time>1970-01-01T01:35:31.000Z</time>
      </trkpt>
      <trkpt lat="42.288898" lon="3.181849">
        <ele>72</ele>
        <time>1970-01-01T01:35:32.000Z</time>
      </trkpt>
      <trkpt lat="42.288812" lon="3.181777">
        <ele>72</ele>
        <time>1970-01-01T01:35:33.000Z</time>
      </trkpt>
      <trkpt lat="42.288732" lon="3.181691">
        <ele>72</ele>
        <time>1970-01-01T01:35:34.000Z</time>
      </trkpt>
      <trkpt lat="42.288657" lon="3.181588">
        <ele>72</ele>
        <time>1970-01-01T01:35:35.000Z</time>
      </trkpt>
      <trkpt lat="42.288589" lon="3.181475">
        <ele>72</ele>
        <time>1970-01-01T01:35:36.000Z</time>
      </trkpt>
      <trkpt lat="42.288519" lon="3.18136">
        <ele>72</ele>
        <time>1970-01-01T01:35:37.000Z</time>
      </trkpt>
      <trkpt lat="42.288444" lon="3.181248">
        <ele>72</ele>
        <time>1970-01-01T01:35:38.000Z</time>
      </trkpt>
      <trkpt lat="42.288368" lon="3.181133">
        <ele>66</ele>
        <time>1970-01-01T01:35:39.000Z</time>
      </trkpt>
      <trkpt lat="42.288291" lon="3.181019">
        <ele>66</ele>
        <time>1970-01-01T01:35:40.000Z</time>
      </trkpt>
      <trkpt lat="42.288213" lon="3.180902">
        <ele>66</ele>
        <time>1970-01-01T01:35:41.000Z</time>
      </trkpt>
      <trkpt lat="42.288132" lon="3.180783">
        <ele>66</ele>
        <time>1970-01-01T01:35:42.000Z</time>
      </trkpt>
      <trkpt lat="42.288052" lon="3.180664">
        <ele>66</ele>
        <time>1970-01-01T01:35:43.000Z</time>
      </trkpt>
      <trkpt lat="42.28797" lon="3.180543">
        <ele>66</ele>
        <time>1970-01-01T01:35:44.000Z</time>
      </trkpt>
      <trkpt lat="42.287888" lon="3.180422">
        <ele>66</ele>
        <time>1970-01-01T01:35:45.000Z</time>
      </trkpt>
      <trkpt lat="42.287802" lon="3.180301">
        <ele>66</ele>
        <time>1970-01-01T01:35:46.000Z</time>
      </trkpt>
      <trkpt lat="42.287652" lon="3.180103">
        <ele>66</ele>
        <time>1970-01-01T01:35:47.000Z</time>
      </trkpt>
      <trkpt lat="42.287591" lon="3.180024">
        <ele>66</ele>
        <time>1970-01-01T01:35:48.000Z</time>
      </trkpt>
      <trkpt lat="42.287529" lon="3.179946">
        <ele>61</ele>
        <time>1970-01-01T01:35:49.000Z</time>
      </trkpt>
      <trkpt lat="42.287435" lon="3.179829">
        <ele>61</ele>
        <time>1970-01-01T01:35:50.000Z</time>
      </trkpt>
      <trkpt lat="42.28734" lon="3.179712">
        <ele>61</ele>
        <time>1970-01-01T01:35:51.000Z</time>
      </trkpt>
      <trkpt lat="42.287244" lon="3.179593">
        <ele>61</ele>
        <time>1970-01-01T01:35:52.000Z</time>
      </trkpt>
      <trkpt lat="42.287148" lon="3.179472">
        <ele>61</ele>
        <time>1970-01-01T01:35:53.000Z</time>
      </trkpt>
      <trkpt lat="42.287051" lon="3.179354">
        <ele>61</ele>
        <time>1970-01-01T01:35:54.000Z</time>
      </trkpt>
      <trkpt lat="42.286955" lon="3.179237">
        <ele>61</ele>
        <time>1970-01-01T01:35:55.000Z</time>
      </trkpt>
      <trkpt lat="42.286861" lon="3.179121">
        <ele>61</ele>
        <time>1970-01-01T01:35:56.000Z</time>
      </trkpt>
      <trkpt lat="42.286713" lon="3.178916">
        <ele>61</ele>
        <time>1970-01-01T01:35:57.000Z</time>
      </trkpt>
      <trkpt lat="42.286656" lon="3.178831">
        <ele>61</ele>
        <time>1970-01-01T01:35:58.000Z</time>
      </trkpt>
      <trkpt lat="42.286599" lon="3.178746">
        <ele>56</ele>
        <time>1970-01-01T01:35:59.000Z</time>
      </trkpt>
      <trkpt lat="42.286519" lon="3.178615">
        <ele>56</ele>
        <time>1970-01-01T01:36:00.000Z</time>
      </trkpt>
      <trkpt lat="42.286455" lon="3.17847">
        <ele>56</ele>
        <time>1970-01-01T01:36:01.000Z</time>
      </trkpt>
      <trkpt lat="42.286402" lon="3.178316">
        <ele>56</ele>
        <time>1970-01-01T01:36:02.000Z</time>
      </trkpt>
      <trkpt lat="42.28636" lon="3.178158">
        <ele>56</ele>
        <time>1970-01-01T01:36:03.000Z</time>
      </trkpt>
      <trkpt lat="42.286325" lon="3.177997">
        <ele>56</ele>
        <time>1970-01-01T01:36:04.000Z</time>
      </trkpt>
      <trkpt lat="42.286292" lon="3.177836">
        <ele>56</ele>
        <time>1970-01-01T01:36:05.000Z</time>
      </trkpt>
      <trkpt lat="42.286262" lon="3.177675">
        <ele>56</ele>
        <time>1970-01-01T01:36:06.000Z</time>
      </trkpt>
      <trkpt lat="42.286213" lon="3.177393">
        <ele>56</ele>
        <time>1970-01-01T01:36:07.000Z</time>
      </trkpt>
      <trkpt lat="42.286193" lon="3.177272">
        <ele>56</ele>
        <time>1970-01-01T01:36:08.000Z</time>
      </trkpt>
      <trkpt lat="42.286174" lon="3.177152">
        <ele>56</ele>
        <time>1970-01-01T01:36:09.000Z</time>
      </trkpt>
      <trkpt lat="42.286154" lon="3.177031">
        <ele>52</ele>
        <time>1970-01-01T01:36:10.000Z</time>
      </trkpt>
      <trkpt lat="42.286128" lon="3.176869">
        <ele>52</ele>
        <time>1970-01-01T01:36:11.000Z</time>
      </trkpt>
      <trkpt lat="42.286099" lon="3.176707">
        <ele>52</ele>
        <time>1970-01-01T01:36:12.000Z</time>
      </trkpt>
      <trkpt lat="42.286066" lon="3.176547">
        <ele>52</ele>
        <time>1970-01-01T01:36:13.000Z</time>
      </trkpt>
      <trkpt lat="42.286026" lon="3.176393">
        <ele>52</ele>
        <time>1970-01-01T01:36:14.000Z</time>
      </trkpt>
      <trkpt lat="42.285978" lon="3.176243">
        <ele>52</ele>
        <time>1970-01-01T01:36:15.000Z</time>
      </trkpt>
      <trkpt lat="42.285922" lon="3.176099">
        <ele>52</ele>
        <time>1970-01-01T01:36:16.000Z</time>
      </trkpt>
      <trkpt lat="42.28586" lon="3.17596">
        <ele>52</ele>
        <time>1970-01-01T01:36:17.000Z</time>
      </trkpt>
      <trkpt lat="42.285757" lon="3.175762">
        <ele>52</ele>
        <time>1970-01-01T01:36:18.000Z</time>
      </trkpt>
      <trkpt lat="42.285721" lon="3.175697">
        <ele>48</ele>
        <time>1970-01-01T01:36:19.000Z</time>
      </trkpt>
      <trkpt lat="42.285649" lon="3.175568">
        <ele>48</ele>
        <time>1970-01-01T01:36:20.000Z</time>
      </trkpt>
      <trkpt lat="42.285581" lon="3.175441">
        <ele>48</ele>
        <time>1970-01-01T01:36:21.000Z</time>
      </trkpt>
      <trkpt lat="42.285514" lon="3.175316">
        <ele>48</ele>
        <time>1970-01-01T01:36:22.000Z</time>
      </trkpt>
      <trkpt lat="42.285449" lon="3.175194">
        <ele>48</ele>
        <time>1970-01-01T01:36:23.000Z</time>
      </trkpt>
      <trkpt lat="42.285384" lon="3.175075">
        <ele>48</ele>
        <time>1970-01-01T01:36:24.000Z</time>
      </trkpt>
      <trkpt lat="42.28532" lon="3.174959">
        <ele>48</ele>
        <time>1970-01-01T01:36:25.000Z</time>
      </trkpt>
      <trkpt lat="42.285257" lon="3.174846">
        <ele>48</ele>
        <time>1970-01-01T01:36:26.000Z</time>
      </trkpt>
      <trkpt lat="42.285197" lon="3.174736">
        <ele>48</ele>
        <time>1970-01-01T01:36:27.000Z</time>
      </trkpt>
      <trkpt lat="42.28511" lon="3.174577">
        <ele>48</ele>
        <time>1970-01-01T01:36:28.000Z</time>
      </trkpt>
      <trkpt lat="42.285081" lon="3.174526">
        <ele>47</ele>
        <time>1970-01-01T01:36:29.000Z</time>
      </trkpt>
      <trkpt lat="42.284979" lon="3.174341">
        <ele>47</ele>
        <time>1970-01-01T01:36:30.000Z</time>
      </trkpt>
      <trkpt lat="42.284934" lon="3.174257">
        <ele>47</ele>
        <time>1970-01-01T01:36:31.000Z</time>
      </trkpt>
      <trkpt lat="42.28489" lon="3.174173">
        <ele>47</ele>
        <time>1970-01-01T01:36:32.000Z</time>
      </trkpt>
      <trkpt lat="42.284846" lon="3.174089">
        <ele>47</ele>
        <time>1970-01-01T01:36:33.000Z</time>
      </trkpt>
      <trkpt lat="42.284802" lon="3.174005">
        <ele>47</ele>
        <time>1970-01-01T01:36:34.000Z</time>
      </trkpt>
      <trkpt lat="42.284757" lon="3.173922">
        <ele>47</ele>
        <time>1970-01-01T01:36:35.000Z</time>
      </trkpt>
      <trkpt lat="42.284713" lon="3.173838">
        <ele>47</ele>
        <time>1970-01-01T01:36:36.000Z</time>
      </trkpt>
      <trkpt lat="42.284669" lon="3.173754">
        <ele>47</ele>
        <time>1970-01-01T01:36:37.000Z</time>
      </trkpt>
      <trkpt lat="42.284624" lon="3.17367">
        <ele>47</ele>
        <time>1970-01-01T01:36:38.000Z</time>
      </trkpt>
      <trkpt lat="42.28458" lon="3.173586">
        <ele>47</ele>
        <time>1970-01-01T01:36:39.000Z</time>
      </trkpt>
      <trkpt lat="42.284496" lon="3.173431">
        <ele>47</ele>
        <time>1970-01-01T01:36:40.000Z</time>
      </trkpt>
      <trkpt lat="42.284457" lon="3.173361">
        <ele>47</ele>
        <time>1970-01-01T01:36:41.000Z</time>
      </trkpt>
      <trkpt lat="42.284417" lon="3.173292">
        <ele>47</ele>
        <time>1970-01-01T01:36:42.000Z</time>
      </trkpt>
      <trkpt lat="42.284377" lon="3.173222">
        <ele>47</ele>
        <time>1970-01-01T01:36:43.000Z</time>
      </trkpt>
      <trkpt lat="42.284338" lon="3.173153">
        <ele>47</ele>
        <time>1970-01-01T01:36:44.000Z</time>
      </trkpt>
      <trkpt lat="42.284298" lon="3.173084">
        <ele>47</ele>
        <time>1970-01-01T01:36:45.000Z</time>
      </trkpt>
      <trkpt lat="42.284258" lon="3.173014">
        <ele>47</ele>
        <time>1970-01-01T01:36:46.000Z</time>
      </trkpt>
      <trkpt lat="42.284218" lon="3.172945">
        <ele>47</ele>
        <time>1970-01-01T01:36:47.000Z</time>
      </trkpt>
      <trkpt lat="42.284179" lon="3.172875">
        <ele>47</ele>
        <time>1970-01-01T01:36:48.000Z</time>
      </trkpt>
      <trkpt lat="42.284139" lon="3.172806">
        <ele>47</ele>
        <time>1970-01-01T01:36:49.000Z</time>
      </trkpt>
      <trkpt lat="42.284067" lon="3.172669">
        <ele>47</ele>
        <time>1970-01-01T01:36:50.000Z</time>
      </trkpt>
      <trkpt lat="42.284036" lon="3.172606">
        <ele>47</ele>
        <time>1970-01-01T01:36:51.000Z</time>
      </trkpt>
      <trkpt lat="42.284006" lon="3.172544">
        <ele>47</ele>
        <time>1970-01-01T01:36:52.000Z</time>
      </trkpt>
      <trkpt lat="42.283975" lon="3.172481">
        <ele>47</ele>
        <time>1970-01-01T01:36:53.000Z</time>
      </trkpt>
      <trkpt lat="42.283944" lon="3.172418">
        <ele>47</ele>
        <time>1970-01-01T01:36:54.000Z</time>
      </trkpt>
      <trkpt lat="42.283913" lon="3.172355">
        <ele>47</ele>
        <time>1970-01-01T01:36:55.000Z</time>
      </trkpt>
      <trkpt lat="42.283882" lon="3.172292">
        <ele>47</ele>
        <time>1970-01-01T01:36:56.000Z</time>
      </trkpt>
      <trkpt lat="42.283852" lon="3.17223">
        <ele>47</ele>
        <time>1970-01-01T01:36:57.000Z</time>
      </trkpt>
      <trkpt lat="42.283821" lon="3.172167">
        <ele>47</ele>
        <time>1970-01-01T01:36:58.000Z</time>
      </trkpt>
      <trkpt lat="42.28379" lon="3.172104">
        <ele>47</ele>
        <time>1970-01-01T01:36:59.000Z</time>
      </trkpt>
      <trkpt lat="42.283751" lon="3.172021">
        <ele>47</ele>
        <time>1970-01-01T01:37:00.000Z</time>
      </trkpt>
      <trkpt lat="42.283732" lon="3.171989">
        <ele>47</ele>
        <time>1970-01-01T01:37:01.000Z</time>
      </trkpt>
      <trkpt lat="42.283713" lon="3.171958">
        <ele>47</ele>
        <time>1970-01-01T01:37:06.000Z</time>
      </trkpt>
      <trkpt lat="42.283695" lon="3.171927">
        <ele>46</ele>
        <time>1970-01-01T01:37:20.000Z</time>
      </trkpt>
      <trkpt lat="42.283676" lon="3.171895">
        <ele>46</ele>
        <time>1970-01-01T01:37:21.000Z</time>
      </trkpt>
      <trkpt lat="42.283657" lon="3.171864">
        <ele>46</ele>
        <time>1970-01-01T01:37:22.000Z</time>
      </trkpt>
      <trkpt lat="42.283638" lon="3.171832">
        <ele>46</ele>
        <time>1970-01-01T01:37:23.000Z</time>
      </trkpt>
      <trkpt lat="42.283619" lon="3.171801">
        <ele>46</ele>
        <time>1970-01-01T01:37:24.000Z</time>
      </trkpt>
      <trkpt lat="42.2836" lon="3.17177">
        <ele>46</ele>
        <time>1970-01-01T01:37:25.000Z</time>
      </trkpt>
      <trkpt lat="42.283581" lon="3.171738">
        <ele>46</ele>
        <time>1970-01-01T01:37:26.000Z</time>
      </trkpt>
      <trkpt lat="42.283563" lon="3.171707">
        <ele>46</ele>
        <time>1970-01-01T01:37:27.000Z</time>
      </trkpt>
      <trkpt lat="42.283544" lon="3.171676">
        <ele>46</ele>
        <time>1970-01-01T01:37:28.000Z</time>
      </trkpt>
      <trkpt lat="42.283525" lon="3.171644">
        <ele>46</ele>
        <time>1970-01-01T01:37:29.000Z</time>
      </trkpt>
      <trkpt lat="42.283506" lon="3.171613">
        <ele>46</ele>
        <time>1970-01-01T01:37:30.000Z</time>
      </trkpt>
      <trkpt lat="42.283453" lon="3.171524">
        <ele>46</ele>
        <time>1970-01-01T01:37:31.000Z</time>
      </trkpt>
      <trkpt lat="42.283424" lon="3.171475">
        <ele>46</ele>
        <time>1970-01-01T01:37:32.000Z</time>
      </trkpt>
      <trkpt lat="42.283396" lon="3.171426">
        <ele>46</ele>
        <time>1970-01-01T01:37:33.000Z</time>
      </trkpt>
      <trkpt lat="42.283367" lon="3.171377">
        <ele>46</ele>
        <time>1970-01-01T01:37:34.000Z</time>
      </trkpt>
      <trkpt lat="42.283339" lon="3.171328">
        <ele>46</ele>
        <time>1970-01-01T01:37:35.000Z</time>
      </trkpt>
      <trkpt lat="42.28331" lon="3.171279">
        <ele>46</ele>
        <time>1970-01-01T01:37:36.000Z</time>
      </trkpt>
      <trkpt lat="42.283282" lon="3.17123">
        <ele>46</ele>
        <time>1970-01-01T01:37:37.000Z</time>
      </trkpt>
      <trkpt lat="42.283253" lon="3.171181">
        <ele>46</ele>
        <time>1970-01-01T01:37:38.000Z</time>
      </trkpt>
      <trkpt lat="42.283225" lon="3.171132">
        <ele>46</ele>
        <time>1970-01-01T01:37:39.000Z</time>
      </trkpt>
      <trkpt lat="42.283196" lon="3.171083">
        <ele>46</ele>
        <time>1970-01-01T01:37:40.000Z</time>
      </trkpt>
      <trkpt lat="42.283131" lon="3.170964">
        <ele>46</ele>
        <time>1970-01-01T01:37:41.000Z</time>
      </trkpt>
      <trkpt lat="42.283098" lon="3.170906">
        <ele>46</ele>
        <time>1970-01-01T01:37:42.000Z</time>
      </trkpt>
      <trkpt lat="42.283066" lon="3.170849">
        <ele>46</ele>
        <time>1970-01-01T01:37:43.000Z</time>
      </trkpt>
      <trkpt lat="42.283033" lon="3.170791">
        <ele>46</ele>
        <time>1970-01-01T01:37:44.000Z</time>
      </trkpt>
      <trkpt lat="42.283001" lon="3.170734">
        <ele>46</ele>
        <time>1970-01-01T01:37:45.000Z</time>
      </trkpt>
      <trkpt lat="42.282968" lon="3.170677">
        <ele>46</ele>
        <time>1970-01-01T01:37:46.000Z</time>
      </trkpt>
      <trkpt lat="42.282936" lon="3.170619">
        <ele>46</ele>
        <time>1970-01-01T01:37:47.000Z</time>
      </trkpt>
      <trkpt lat="42.282903" lon="3.170562">
        <ele>46</ele>
        <time>1970-01-01T01:37:48.000Z</time>
      </trkpt>
      <trkpt lat="42.282871" lon="3.170504">
        <ele>46</ele>
        <time>1970-01-01T01:37:49.000Z</time>
      </trkpt>
      <trkpt lat="42.282838" lon="3.170447">
        <ele>46</ele>
        <time>1970-01-01T01:37:50.000Z</time>
      </trkpt>
      <trkpt lat="42.282765" lon="3.170318">
        <ele>46</ele>
        <time>1970-01-01T01:37:51.000Z</time>
      </trkpt>
      <trkpt lat="42.28273" lon="3.170255">
        <ele>46</ele>
        <time>1970-01-01T01:37:52.000Z</time>
      </trkpt>
      <trkpt lat="42.282696" lon="3.170192">
        <ele>46</ele>
        <time>1970-01-01T01:37:53.000Z</time>
      </trkpt>
      <trkpt lat="42.282661" lon="3.170129">
        <ele>46</ele>
        <time>1970-01-01T01:37:54.000Z</time>
      </trkpt>
      <trkpt lat="42.282626" lon="3.170066">
        <ele>46</ele>
        <time>1970-01-01T01:37:55.000Z</time>
      </trkpt>
      <trkpt lat="42.282591" lon="3.170004">
        <ele>46</ele>
        <time>1970-01-01T01:37:56.000Z</time>
      </trkpt>
      <trkpt lat="42.282556" lon="3.169941">
        <ele>46</ele>
        <time>1970-01-01T01:37:57.000Z</time>
      </trkpt>
      <trkpt lat="42.282522" lon="3.169878">
        <ele>46</ele>
        <time>1970-01-01T01:37:58.000Z</time>
      </trkpt>
      <trkpt lat="42.282487" lon="3.169815">
        <ele>46</ele>
        <time>1970-01-01T01:37:59.000Z</time>
      </trkpt>
      <trkpt lat="42.282452" lon="3.169752">
        <ele>44</ele>
        <time>1970-01-01T01:38:00.000Z</time>
      </trkpt>
      <trkpt lat="42.282374" lon="3.169613">
        <ele>44</ele>
        <time>1970-01-01T01:38:01.000Z</time>
      </trkpt>
      <trkpt lat="42.282337" lon="3.169545">
        <ele>44</ele>
        <time>1970-01-01T01:38:02.000Z</time>
      </trkpt>
      <trkpt lat="42.282299" lon="3.169478">
        <ele>44</ele>
        <time>1970-01-01T01:38:03.000Z</time>
      </trkpt>
      <trkpt lat="42.282262" lon="3.169411">
        <ele>44</ele>
        <time>1970-01-01T01:38:04.000Z</time>
      </trkpt>
      <trkpt lat="42.282224" lon="3.169343">
        <ele>44</ele>
        <time>1970-01-01T01:38:05.000Z</time>
      </trkpt>
      <trkpt lat="42.282186" lon="3.169276">
        <ele>44</ele>
        <time>1970-01-01T01:38:06.000Z</time>
      </trkpt>
      <trkpt lat="42.282149" lon="3.169209">
        <ele>44</ele>
        <time>1970-01-01T01:38:07.000Z</time>
      </trkpt>
      <trkpt lat="42.282111" lon="3.169142">
        <ele>44</ele>
        <time>1970-01-01T01:38:08.000Z</time>
      </trkpt>
      <trkpt lat="42.282074" lon="3.169074">
        <ele>44</ele>
        <time>1970-01-01T01:38:09.000Z</time>
      </trkpt>
      <trkpt lat="42.282036" lon="3.169007">
        <ele>43</ele>
        <time>1970-01-01T01:38:10.000Z</time>
      </trkpt>
      <trkpt lat="42.281955" lon="3.168861">
        <ele>43</ele>
        <time>1970-01-01T01:38:11.000Z</time>
      </trkpt>
      <trkpt lat="42.281916" lon="3.16879">
        <ele>43</ele>
        <time>1970-01-01T01:38:12.000Z</time>
      </trkpt>
      <trkpt lat="42.281876" lon="3.16872">
        <ele>43</ele>
        <time>1970-01-01T01:38:13.000Z</time>
      </trkpt>
      <trkpt lat="42.281837" lon="3.168649">
        <ele>43</ele>
        <time>1970-01-01T01:38:14.000Z</time>
      </trkpt>
      <trkpt lat="42.281798" lon="3.168579">
        <ele>43</ele>
        <time>1970-01-01T01:38:15.000Z</time>
      </trkpt>
      <trkpt lat="42.281759" lon="3.168509">
        <ele>43</ele>
        <time>1970-01-01T01:38:16.000Z</time>
      </trkpt>
      <trkpt lat="42.28172" lon="3.168438">
        <ele>43</ele>
        <time>1970-01-01T01:38:17.000Z</time>
      </trkpt>
      <trkpt lat="42.28168" lon="3.168368">
        <ele>43</ele>
        <time>1970-01-01T01:38:18.000Z</time>
      </trkpt>
      <trkpt lat="42.281641" lon="3.168297">
        <ele>43</ele>
        <time>1970-01-01T01:38:19.000Z</time>
      </trkpt>
      <trkpt lat="42.281602" lon="3.168227">
        <ele>41</ele>
        <time>1970-01-01T01:38:20.000Z</time>
      </trkpt>
      <trkpt lat="42.281519" lon="3.168078">
        <ele>41</ele>
        <time>1970-01-01T01:38:21.000Z</time>
      </trkpt>
      <trkpt lat="42.281479" lon="3.168007">
        <ele>41</ele>
        <time>1970-01-01T01:38:22.000Z</time>
      </trkpt>
      <trkpt lat="42.28144" lon="3.167935">
        <ele>41</ele>
        <time>1970-01-01T01:38:23.000Z</time>
      </trkpt>
      <trkpt lat="42.2814" lon="3.167864">
        <ele>41</ele>
        <time>1970-01-01T01:38:24.000Z</time>
      </trkpt>
      <trkpt lat="42.281361" lon="3.167793">
        <ele>41</ele>
        <time>1970-01-01T01:38:25.000Z</time>
      </trkpt>
      <trkpt lat="42.281322" lon="3.167722">
        <ele>41</ele>
        <time>1970-01-01T01:38:26.000Z</time>
      </trkpt>
      <trkpt lat="42.281282" lon="3.167651">
        <ele>41</ele>
        <time>1970-01-01T01:38:27.000Z</time>
      </trkpt>
      <trkpt lat="42.281243" lon="3.167579">
        <ele>41</ele>
        <time>1970-01-01T01:38:28.000Z</time>
      </trkpt>
      <trkpt lat="42.281203" lon="3.167508">
        <ele>41</ele>
        <time>1970-01-01T01:38:29.000Z</time>
      </trkpt>
      <trkpt lat="42.281164" lon="3.167437">
        <ele>40</ele>
        <time>1970-01-01T01:38:30.000Z</time>
      </trkpt>
      <trkpt lat="42.28108" lon="3.167286">
        <ele>40</ele>
        <time>1970-01-01T01:38:31.000Z</time>
      </trkpt>
      <trkpt lat="42.28104" lon="3.167215">
        <ele>40</ele>
        <time>1970-01-01T01:38:32.000Z</time>
      </trkpt>
      <trkpt lat="42.281001" lon="3.167143">
        <ele>40</ele>
        <time>1970-01-01T01:38:33.000Z</time>
      </trkpt>
      <trkpt lat="42.280962" lon="3.167072">
        <ele>40</ele>
        <time>1970-01-01T01:38:34.000Z</time>
      </trkpt>
      <trkpt lat="42.280923" lon="3.167">
        <ele>40</ele>
        <time>1970-01-01T01:38:35.000Z</time>
      </trkpt>
      <trkpt lat="42.280883" lon="3.166928">
        <ele>40</ele>
        <time>1970-01-01T01:38:36.000Z</time>
      </trkpt>
      <trkpt lat="42.280844" lon="3.166857">
        <ele>40</ele>
        <time>1970-01-01T01:38:37.000Z</time>
      </trkpt>
      <trkpt lat="42.280805" lon="3.166785">
        <ele>40</ele>
        <time>1970-01-01T01:38:38.000Z</time>
      </trkpt>
      <trkpt lat="42.280765" lon="3.166714">
        <ele>40</ele>
        <time>1970-01-01T01:38:39.000Z</time>
      </trkpt>
      <trkpt lat="42.280726" lon="3.166642">
        <ele>36</ele>
        <time>1970-01-01T01:38:40.000Z</time>
      </trkpt>
      <trkpt lat="42.280636" lon="3.166484">
        <ele>36</ele>
        <time>1970-01-01T01:38:41.000Z</time>
      </trkpt>
      <trkpt lat="42.280595" lon="3.166411">
        <ele>36</ele>
        <time>1970-01-01T01:38:42.000Z</time>
      </trkpt>
      <trkpt lat="42.280553" lon="3.166337">
        <ele>36</ele>
        <time>1970-01-01T01:38:43.000Z</time>
      </trkpt>
      <trkpt lat="42.280511" lon="3.166264">
        <ele>36</ele>
        <time>1970-01-01T01:38:44.000Z</time>
      </trkpt>
      <trkpt lat="42.28047" lon="3.166191">
        <ele>36</ele>
        <time>1970-01-01T01:38:45.000Z</time>
      </trkpt>
      <trkpt lat="42.280428" lon="3.166118">
        <ele>36</ele>
        <time>1970-01-01T01:38:46.000Z</time>
      </trkpt>
      <trkpt lat="42.280386" lon="3.166045">
        <ele>36</ele>
        <time>1970-01-01T01:38:47.000Z</time>
      </trkpt>
      <trkpt lat="42.280344" lon="3.165971">
        <ele>36</ele>
        <time>1970-01-01T01:38:48.000Z</time>
      </trkpt>
      <trkpt lat="42.280303" lon="3.165898">
        <ele>36</ele>
        <time>1970-01-01T01:38:49.000Z</time>
      </trkpt>
      <trkpt lat="42.280261" lon="3.165825">
        <ele>36</ele>
        <time>1970-01-01T01:38:50.000Z</time>
      </trkpt>
      <trkpt lat="42.28017" lon="3.165665">
        <ele>36</ele>
        <time>1970-01-01T01:38:51.000Z</time>
      </trkpt>
      <trkpt lat="42.280129" lon="3.165589">
        <ele>36</ele>
        <time>1970-01-01T01:38:52.000Z</time>
      </trkpt>
      <trkpt lat="42.280087" lon="3.165514">
        <ele>36</ele>
        <time>1970-01-01T01:38:53.000Z</time>
      </trkpt>
      <trkpt lat="42.280046" lon="3.165438">
        <ele>36</ele>
        <time>1970-01-01T01:38:54.000Z</time>
      </trkpt>
      <trkpt lat="42.280004" lon="3.165363">
        <ele>36</ele>
        <time>1970-01-01T01:38:55.000Z</time>
      </trkpt>
      <trkpt lat="42.279962" lon="3.165288">
        <ele>36</ele>
        <time>1970-01-01T01:38:56.000Z</time>
      </trkpt>
      <trkpt lat="42.279921" lon="3.165212">
        <ele>36</ele>
        <time>1970-01-01T01:38:57.000Z</time>
      </trkpt>
      <trkpt lat="42.279879" lon="3.165137">
        <ele>36</ele>
        <time>1970-01-01T01:38:58.000Z</time>
      </trkpt>
      <trkpt lat="42.279838" lon="3.165061">
        <ele>36</ele>
        <time>1970-01-01T01:38:59.000Z</time>
      </trkpt>
      <trkpt lat="42.279796" lon="3.164986">
        <ele>35</ele>
        <time>1970-01-01T01:39:00.000Z</time>
      </trkpt>
      <trkpt lat="42.279708" lon="3.164826">
        <ele>35</ele>
        <time>1970-01-01T01:39:01.000Z</time>
      </trkpt>
      <trkpt lat="42.279666" lon="3.16475">
        <ele>35</ele>
        <time>1970-01-01T01:39:02.000Z</time>
      </trkpt>
      <trkpt lat="42.279623" lon="3.164673">
        <ele>35</ele>
        <time>1970-01-01T01:39:03.000Z</time>
      </trkpt>
      <trkpt lat="42.279581" lon="3.164596">
        <ele>35</ele>
        <time>1970-01-01T01:39:04.000Z</time>
      </trkpt>
      <trkpt lat="42.279539" lon="3.164519">
        <ele>35</ele>
        <time>1970-01-01T01:39:05.000Z</time>
      </trkpt>
      <trkpt lat="42.279497" lon="3.164443">
        <ele>35</ele>
        <time>1970-01-01T01:39:06.000Z</time>
      </trkpt>
      <trkpt lat="42.279455" lon="3.164366">
        <ele>35</ele>
        <time>1970-01-01T01:39:07.000Z</time>
      </trkpt>
      <trkpt lat="42.279412" lon="3.164289">
        <ele>35</ele>
        <time>1970-01-01T01:39:08.000Z</time>
      </trkpt>
      <trkpt lat="42.27937" lon="3.164213">
        <ele>35</ele>
        <time>1970-01-01T01:39:09.000Z</time>
      </trkpt>
      <trkpt lat="42.279328" lon="3.164136">
        <ele>34</ele>
        <time>1970-01-01T01:39:10.000Z</time>
      </trkpt>
      <trkpt lat="42.279238" lon="3.163975">
        <ele>34</ele>
        <time>1970-01-01T01:39:11.000Z</time>
      </trkpt>
      <trkpt lat="42.279197" lon="3.163899">
        <ele>34</ele>
        <time>1970-01-01T01:39:12.000Z</time>
      </trkpt>
      <trkpt lat="42.279155" lon="3.163823">
        <ele>34</ele>
        <time>1970-01-01T01:39:13.000Z</time>
      </trkpt>
      <trkpt lat="42.279114" lon="3.163747">
        <ele>34</ele>
        <time>1970-01-01T01:39:14.000Z</time>
      </trkpt>
      <trkpt lat="42.279072" lon="3.163671">
        <ele>34</ele>
        <time>1970-01-01T01:39:15.000Z</time>
      </trkpt>
      <trkpt lat="42.27903" lon="3.163595">
        <ele>34</ele>
        <time>1970-01-01T01:39:16.000Z</time>
      </trkpt>
      <trkpt lat="42.278989" lon="3.163519">
        <ele>34</ele>
        <time>1970-01-01T01:39:17.000Z</time>
      </trkpt>
      <trkpt lat="42.278947" lon="3.163443">
        <ele>34</ele>
        <time>1970-01-01T01:39:18.000Z</time>
      </trkpt>
      <trkpt lat="42.278906" lon="3.163367">
        <ele>34</ele>
        <time>1970-01-01T01:39:19.000Z</time>
      </trkpt>
      <trkpt lat="42.278864" lon="3.163291">
        <ele>31</ele>
        <time>1970-01-01T01:39:20.000Z</time>
      </trkpt>
      <trkpt lat="42.278774" lon="3.163129">
        <ele>31</ele>
        <time>1970-01-01T01:39:21.000Z</time>
      </trkpt>
      <trkpt lat="42.278731" lon="3.16305">
        <ele>31</ele>
        <time>1970-01-01T01:39:22.000Z</time>
      </trkpt>
      <trkpt lat="42.278689" lon="3.162972">
        <ele>31</ele>
        <time>1970-01-01T01:39:23.000Z</time>
      </trkpt>
      <trkpt lat="42.278646" lon="3.162893">
        <ele>31</ele>
        <time>1970-01-01T01:39:24.000Z</time>
      </trkpt>
      <trkpt lat="42.278604" lon="3.162815">
        <ele>31</ele>
        <time>1970-01-01T01:39:25.000Z</time>
      </trkpt>
      <trkpt lat="42.278561" lon="3.162737">
        <ele>31</ele>
        <time>1970-01-01T01:39:26.000Z</time>
      </trkpt>
      <trkpt lat="42.278519" lon="3.162658">
        <ele>31</ele>
        <time>1970-01-01T01:39:27.000Z</time>
      </trkpt>
      <trkpt lat="42.278476" lon="3.16258">
        <ele>31</ele>
        <time>1970-01-01T01:39:28.000Z</time>
      </trkpt>
      <trkpt lat="42.278434" lon="3.162501">
        <ele>31</ele>
        <time>1970-01-01T01:39:29.000Z</time>
      </trkpt>
      <trkpt lat="42.278391" lon="3.162423">
        <ele>31</ele>
        <time>1970-01-01T01:39:30.000Z</time>
      </trkpt>
      <trkpt lat="42.278298" lon="3.162253">
        <ele>31</ele>
        <time>1970-01-01T01:39:31.000Z</time>
      </trkpt>
      <trkpt lat="42.278253" lon="3.162172">
        <ele>31</ele>
        <time>1970-01-01T01:39:32.000Z</time>
      </trkpt>
      <trkpt lat="42.278209" lon="3.162091">
        <ele>31</ele>
        <time>1970-01-01T01:39:33.000Z</time>
      </trkpt>
      <trkpt lat="42.278164" lon="3.16201">
        <ele>31</ele>
        <time>1970-01-01T01:39:34.000Z</time>
      </trkpt>
      <trkpt lat="42.27812" lon="3.161929">
        <ele>31</ele>
        <time>1970-01-01T01:39:35.000Z</time>
      </trkpt>
      <trkpt lat="42.278076" lon="3.161849">
        <ele>31</ele>
        <time>1970-01-01T01:39:36.000Z</time>
      </trkpt>
      <trkpt lat="42.278031" lon="3.161768">
        <ele>31</ele>
        <time>1970-01-01T01:39:37.000Z</time>
      </trkpt>
      <trkpt lat="42.277987" lon="3.161687">
        <ele>31</ele>
        <time>1970-01-01T01:39:38.000Z</time>
      </trkpt>
      <trkpt lat="42.277942" lon="3.161606">
        <ele>31</ele>
        <time>1970-01-01T01:39:39.000Z</time>
      </trkpt>
      <trkpt lat="42.277898" lon="3.161525">
        <ele>31</ele>
        <time>1970-01-01T01:39:40.000Z</time>
      </trkpt>
      <trkpt lat="42.277806" lon="3.161361">
        <ele>31</ele>
        <time>1970-01-01T01:39:41.000Z</time>
      </trkpt>
      <trkpt lat="42.277765" lon="3.161285">
        <ele>31</ele>
        <time>1970-01-01T01:39:42.000Z</time>
      </trkpt>
      <trkpt lat="42.277723" lon="3.161208">
        <ele>31</ele>
        <time>1970-01-01T01:39:43.000Z</time>
      </trkpt>
      <trkpt lat="42.277681" lon="3.161132">
        <ele>31</ele>
        <time>1970-01-01T01:39:44.000Z</time>
      </trkpt>
      <trkpt lat="42.27764" lon="3.161056">
        <ele>31</ele>
        <time>1970-01-01T01:39:45.000Z</time>
      </trkpt>
      <trkpt lat="42.277598" lon="3.16098">
        <ele>31</ele>
        <time>1970-01-01T01:39:46.000Z</time>
      </trkpt>
      <trkpt lat="42.277556" lon="3.160904">
        <ele>31</ele>
        <time>1970-01-01T01:39:47.000Z</time>
      </trkpt>
      <trkpt lat="42.277514" lon="3.160827">
        <ele>31</ele>
        <time>1970-01-01T01:39:48.000Z</time>
      </trkpt>
      <trkpt lat="42.277473" lon="3.160751">
        <ele>31</ele>
        <time>1970-01-01T01:39:49.000Z</time>
      </trkpt>
      <trkpt lat="42.277431" lon="3.160675">
        <ele>31</ele>
        <time>1970-01-01T01:39:50.000Z</time>
      </trkpt>
      <trkpt lat="42.277345" lon="3.160513">
        <ele>31</ele>
        <time>1970-01-01T01:39:51.000Z</time>
      </trkpt>
      <trkpt lat="42.277303" lon="3.160436">
        <ele>31</ele>
        <time>1970-01-01T01:39:52.000Z</time>
      </trkpt>
      <trkpt lat="42.277262" lon="3.160359">
        <ele>31</ele>
        <time>1970-01-01T01:39:53.000Z</time>
      </trkpt>
      <trkpt lat="42.27722" lon="3.160282">
        <ele>31</ele>
        <time>1970-01-01T01:39:54.000Z</time>
      </trkpt>
      <trkpt lat="42.277179" lon="3.160205">
        <ele>31</ele>
        <time>1970-01-01T01:39:55.000Z</time>
      </trkpt>
      <trkpt lat="42.277138" lon="3.160129">
        <ele>31</ele>
        <time>1970-01-01T01:39:56.000Z</time>
      </trkpt>
      <trkpt lat="42.277096" lon="3.160052">
        <ele>31</ele>
        <time>1970-01-01T01:39:57.000Z</time>
      </trkpt>
      <trkpt lat="42.277055" lon="3.159975">
        <ele>31</ele>
        <time>1970-01-01T01:39:58.000Z</time>
      </trkpt>
      <trkpt lat="42.277013" lon="3.159898">
        <ele>31</ele>
        <time>1970-01-01T01:39:59.000Z</time>
      </trkpt>
      <trkpt lat="42.276972" lon="3.159821">
        <ele>30</ele>
        <time>1970-01-01T01:40:00.000Z</time>
      </trkpt>
      <trkpt lat="42.276914" lon="3.159672">
        <ele>30</ele>
        <time>1970-01-01T01:40:01.000Z</time>
      </trkpt>
      <trkpt lat="42.2769" lon="3.159612">
        <ele>30</ele>
        <time>1970-01-01T01:40:02.000Z</time>
      </trkpt>
      <trkpt lat="42.276886" lon="3.159551">
        <ele>30</ele>
        <time>1970-01-01T01:40:03.000Z</time>
      </trkpt>
      <trkpt lat="42.276872" lon="3.15949">
        <ele>30</ele>
        <time>1970-01-01T01:40:04.000Z</time>
      </trkpt>
      <trkpt lat="42.276859" lon="3.159429">
        <ele>30</ele>
        <time>1970-01-01T01:40:05.000Z</time>
      </trkpt>
      <trkpt lat="42.276845" lon="3.159369">
        <ele>30</ele>
        <time>1970-01-01T01:40:06.000Z</time>
      </trkpt>
      <trkpt lat="42.276831" lon="3.159308">
        <ele>30</ele>
        <time>1970-01-01T01:40:07.000Z</time>
      </trkpt>
      <trkpt lat="42.276817" lon="3.159247">
        <ele>30</ele>
        <time>1970-01-01T01:40:08.000Z</time>
      </trkpt>
      <trkpt lat="42.276803" lon="3.159187">
        <ele>30</ele>
        <time>1970-01-01T01:40:09.000Z</time>
      </trkpt>
      <trkpt lat="42.276789" lon="3.159126">
        <ele>27</ele>
        <time>1970-01-01T01:40:10.000Z</time>
      </trkpt>
      <trkpt lat="42.27675" lon="3.158996">
        <ele>27</ele>
        <time>1970-01-01T01:40:11.000Z</time>
      </trkpt>
      <trkpt lat="42.276705" lon="3.158948">
        <ele>27</ele>
        <time>1970-01-01T01:40:12.000Z</time>
      </trkpt>
      <trkpt lat="42.276661" lon="3.158901">
        <ele>27</ele>
        <time>1970-01-01T01:40:13.000Z</time>
      </trkpt>
      <trkpt lat="42.276616" lon="3.158853">
        <ele>27</ele>
        <time>1970-01-01T01:40:14.000Z</time>
      </trkpt>
      <trkpt lat="42.276572" lon="3.158805">
        <ele>27</ele>
        <time>1970-01-01T01:40:15.000Z</time>
      </trkpt>
      <trkpt lat="42.276528" lon="3.158757">
        <ele>27</ele>
        <time>1970-01-01T01:40:16.000Z</time>
      </trkpt>
      <trkpt lat="42.276483" lon="3.158709">
        <ele>27</ele>
        <time>1970-01-01T01:40:17.000Z</time>
      </trkpt>
      <trkpt lat="42.276439" lon="3.158662">
        <ele>27</ele>
        <time>1970-01-01T01:40:18.000Z</time>
      </trkpt>
      <trkpt lat="42.276394" lon="3.158614">
        <ele>27</ele>
        <time>1970-01-01T01:40:19.000Z</time>
      </trkpt>
      <trkpt lat="42.27635" lon="3.158566">
        <ele>26</ele>
        <time>1970-01-01T01:40:20.000Z</time>
      </trkpt>
      <trkpt lat="42.276245" lon="3.158441">
        <ele>26</ele>
        <time>1970-01-01T01:40:21.000Z</time>
      </trkpt>
      <trkpt lat="42.276201" lon="3.158369">
        <ele>26</ele>
        <time>1970-01-01T01:40:22.000Z</time>
      </trkpt>
      <trkpt lat="42.276157" lon="3.158296">
        <ele>26</ele>
        <time>1970-01-01T01:40:23.000Z</time>
      </trkpt>
      <trkpt lat="42.276113" lon="3.158224">
        <ele>26</ele>
        <time>1970-01-01T01:40:24.000Z</time>
      </trkpt>
      <trkpt lat="42.27607" lon="3.158152">
        <ele>26</ele>
        <time>1970-01-01T01:40:25.000Z</time>
      </trkpt>
      <trkpt lat="42.276026" lon="3.15808">
        <ele>26</ele>
        <time>1970-01-01T01:40:26.000Z</time>
      </trkpt>
      <trkpt lat="42.275982" lon="3.158008">
        <ele>26</ele>
        <time>1970-01-01T01:40:27.000Z</time>
      </trkpt>
      <trkpt lat="42.275938" lon="3.157935">
        <ele>26</ele>
        <time>1970-01-01T01:40:28.000Z</time>
      </trkpt>
      <trkpt lat="42.275894" lon="3.157863">
        <ele>26</ele>
        <time>1970-01-01T01:40:29.000Z</time>
      </trkpt>
      <trkpt lat="42.27585" lon="3.157791">
        <ele>25</ele>
        <time>1970-01-01T01:40:30.000Z</time>
      </trkpt>
      <trkpt lat="42.275758" lon="3.157624">
        <ele>25</ele>
        <time>1970-01-01T01:40:31.000Z</time>
      </trkpt>
      <trkpt lat="42.275714" lon="3.157546">
        <ele>25</ele>
        <time>1970-01-01T01:40:32.000Z</time>
      </trkpt>
      <trkpt lat="42.275671" lon="3.157467">
        <ele>25</ele>
        <time>1970-01-01T01:40:33.000Z</time>
      </trkpt>
      <trkpt lat="42.275628" lon="3.157389">
        <ele>25</ele>
        <time>1970-01-01T01:40:34.000Z</time>
      </trkpt>
      <trkpt lat="42.275585" lon="3.15731">
        <ele>25</ele>
        <time>1970-01-01T01:40:35.000Z</time>
      </trkpt>
      <trkpt lat="42.275541" lon="3.157232">
        <ele>25</ele>
        <time>1970-01-01T01:40:36.000Z</time>
      </trkpt>
      <trkpt lat="42.275498" lon="3.157153">
        <ele>25</ele>
        <time>1970-01-01T01:40:37.000Z</time>
      </trkpt>
      <trkpt lat="42.275455" lon="3.157075">
        <ele>25</ele>
        <time>1970-01-01T01:40:38.000Z</time>
      </trkpt>
      <trkpt lat="42.275411" lon="3.156996">
        <ele>25</ele>
        <time>1970-01-01T01:40:39.000Z</time>
      </trkpt>
      <trkpt lat="42.275368" lon="3.156918">
        <ele>23</ele>
        <time>1970-01-01T01:40:40.000Z</time>
      </trkpt>
      <trkpt lat="42.275272" lon="3.156743">
        <ele>23</ele>
        <time>1970-01-01T01:40:41.000Z</time>
      </trkpt>
      <trkpt lat="42.275224" lon="3.156654">
        <ele>23</ele>
        <time>1970-01-01T01:40:42.000Z</time>
      </trkpt>
      <trkpt lat="42.275176" lon="3.156565">
        <ele>23</ele>
        <time>1970-01-01T01:40:43.000Z</time>
      </trkpt>
      <trkpt lat="42.275128" lon="3.156476">
        <ele>23</ele>
        <time>1970-01-01T01:40:44.000Z</time>
      </trkpt>
      <trkpt lat="42.27508" lon="3.156387">
        <ele>23</ele>
        <time>1970-01-01T01:40:45.000Z</time>
      </trkpt>
      <trkpt lat="42.275032" lon="3.156299">
        <ele>23</ele>
        <time>1970-01-01T01:40:46.000Z</time>
      </trkpt>
      <trkpt lat="42.274984" lon="3.15621">
        <ele>23</ele>
        <time>1970-01-01T01:40:47.000Z</time>
      </trkpt>
      <trkpt lat="42.274936" lon="3.156121">
        <ele>23</ele>
        <time>1970-01-01T01:40:48.000Z</time>
      </trkpt>
      <trkpt lat="42.274888" lon="3.156032">
        <ele>23</ele>
        <time>1970-01-01T01:40:49.000Z</time>
      </trkpt>
      <trkpt lat="42.27484" lon="3.155943">
        <ele>22</ele>
        <time>1970-01-01T01:40:51.000Z</time>
      </trkpt>
      <trkpt lat="42.274752" lon="3.155782">
        <ele>22</ele>
        <time>1970-01-01T01:40:52.000Z</time>
      </trkpt>
      <trkpt lat="42.274711" lon="3.155708">
        <ele>22</ele>
        <time>1970-01-01T01:40:53.000Z</time>
      </trkpt>
      <trkpt lat="42.274671" lon="3.155635">
        <ele>22</ele>
        <time>1970-01-01T01:40:54.000Z</time>
      </trkpt>
      <trkpt lat="42.27463" lon="3.155561">
        <ele>22</ele>
        <time>1970-01-01T01:40:55.000Z</time>
      </trkpt>
      <trkpt lat="42.274589" lon="3.155487">
        <ele>22</ele>
        <time>1970-01-01T01:40:56.000Z</time>
      </trkpt>
      <trkpt lat="42.274548" lon="3.155413">
        <ele>22</ele>
        <time>1970-01-01T01:40:57.000Z</time>
      </trkpt>
      <trkpt lat="42.274508" lon="3.15534">
        <ele>22</ele>
        <time>1970-01-01T01:40:58.000Z</time>
      </trkpt>
      <trkpt lat="42.274467" lon="3.155266">
        <ele>22</ele>
        <time>1970-01-01T01:40:59.000Z</time>
      </trkpt>
      <trkpt lat="42.274426" lon="3.155192">
        <ele>21</ele>
        <time>1970-01-01T01:41:00.000Z</time>
      </trkpt>
      <trkpt lat="42.274338" lon="3.155032">
        <ele>21</ele>
        <time>1970-01-01T01:41:01.000Z</time>
      </trkpt>
      <trkpt lat="42.274296" lon="3.154955">
        <ele>21</ele>
        <time>1970-01-01T01:41:02.000Z</time>
      </trkpt>
      <trkpt lat="42.274254" lon="3.154878">
        <ele>21</ele>
        <time>1970-01-01T01:41:03.000Z</time>
      </trkpt>
      <trkpt lat="42.274212" lon="3.154801">
        <ele>21</ele>
        <time>1970-01-01T01:41:04.000Z</time>
      </trkpt>
      <trkpt lat="42.27417" lon="3.154724">
        <ele>21</ele>
        <time>1970-01-01T01:41:05.000Z</time>
      </trkpt>
      <trkpt lat="42.274128" lon="3.154646">
        <ele>21</ele>
        <time>1970-01-01T01:41:06.000Z</time>
      </trkpt>
      <trkpt lat="42.274086" lon="3.154569">
        <ele>21</ele>
        <time>1970-01-01T01:41:07.000Z</time>
      </trkpt>
      <trkpt lat="42.274044" lon="3.154492">
        <ele>21</ele>
        <time>1970-01-01T01:41:08.000Z</time>
      </trkpt>
      <trkpt lat="42.274002" lon="3.154415">
        <ele>21</ele>
        <time>1970-01-01T01:41:09.000Z</time>
      </trkpt>
      <trkpt lat="42.27396" lon="3.154338">
        <ele>21</ele>
        <time>1970-01-01T01:41:10.000Z</time>
      </trkpt>
      <trkpt lat="42.273918" lon="3.154261">
        <ele>20</ele>
        <time>1970-01-01T01:41:11.000Z</time>
      </trkpt>
      <trkpt lat="42.273826" lon="3.154102">
        <ele>20</ele>
        <time>1970-01-01T01:41:12.000Z</time>
      </trkpt>
      <trkpt lat="42.273782" lon="3.154025">
        <ele>20</ele>
        <time>1970-01-01T01:41:13.000Z</time>
      </trkpt>
      <trkpt lat="42.273739" lon="3.153949">
        <ele>20</ele>
        <time>1970-01-01T01:41:14.000Z</time>
      </trkpt>
      <trkpt lat="42.273695" lon="3.153872">
        <ele>20</ele>
        <time>1970-01-01T01:41:15.000Z</time>
      </trkpt>
      <trkpt lat="42.273651" lon="3.153796">
        <ele>20</ele>
        <time>1970-01-01T01:41:16.000Z</time>
      </trkpt>
      <trkpt lat="42.273607" lon="3.153719">
        <ele>20</ele>
        <time>1970-01-01T01:41:17.000Z</time>
      </trkpt>
      <trkpt lat="42.273564" lon="3.153643">
        <ele>20</ele>
        <time>1970-01-01T01:41:18.000Z</time>
      </trkpt>
      <trkpt lat="42.27352" lon="3.153566">
        <ele>20</ele>
        <time>1970-01-01T01:41:19.000Z</time>
      </trkpt>
      <trkpt lat="42.273476" lon="3.15349">
        <ele>19</ele>
        <time>1970-01-01T01:41:20.000Z</time>
      </trkpt>
      <trkpt lat="42.273378" lon="3.153313">
        <ele>19</ele>
        <time>1970-01-01T01:41:21.000Z</time>
      </trkpt>
      <trkpt lat="42.27333" lon="3.153224">
        <ele>19</ele>
        <time>1970-01-01T01:41:22.000Z</time>
      </trkpt>
      <trkpt lat="42.273281" lon="3.153136">
        <ele>19</ele>
        <time>1970-01-01T01:41:23.000Z</time>
      </trkpt>
      <trkpt lat="42.273233" lon="3.153048">
        <ele>19</ele>
        <time>1970-01-01T01:41:24.000Z</time>
      </trkpt>
      <trkpt lat="42.273185" lon="3.152959">
        <ele>19</ele>
        <time>1970-01-01T01:41:25.000Z</time>
      </trkpt>
      <trkpt lat="42.273137" lon="3.152871">
        <ele>19</ele>
        <time>1970-01-01T01:41:26.000Z</time>
      </trkpt>
      <trkpt lat="42.273088" lon="3.152783">
        <ele>19</ele>
        <time>1970-01-01T01:41:27.000Z</time>
      </trkpt>
      <trkpt lat="42.27304" lon="3.152694">
        <ele>19</ele>
        <time>1970-01-01T01:41:29.000Z</time>
      </trkpt>
      <trkpt lat="42.272992" lon="3.152606">
        <ele>18</ele>
        <time>1970-01-01T01:41:30.000Z</time>
      </trkpt>
      <trkpt lat="42.272903" lon="3.15245">
        <ele>18</ele>
        <time>1970-01-01T01:41:31.000Z</time>
      </trkpt>
      <trkpt lat="42.272863" lon="3.152378">
        <ele>18</ele>
        <time>1970-01-01T01:41:32.000Z</time>
      </trkpt>
      <trkpt lat="42.272822" lon="3.152307">
        <ele>18</ele>
        <time>1970-01-01T01:41:33.000Z</time>
      </trkpt>
      <trkpt lat="42.272781" lon="3.152236">
        <ele>18</ele>
        <time>1970-01-01T01:41:34.000Z</time>
      </trkpt>
      <trkpt lat="42.272741" lon="3.152164">
        <ele>18</ele>
        <time>1970-01-01T01:41:35.000Z</time>
      </trkpt>
      <trkpt lat="42.2727" lon="3.152093">
        <ele>18</ele>
        <time>1970-01-01T01:41:36.000Z</time>
      </trkpt>
      <trkpt lat="42.272659" lon="3.152022">
        <ele>18</ele>
        <time>1970-01-01T01:41:37.000Z</time>
      </trkpt>
      <trkpt lat="42.272618" lon="3.151951">
        <ele>18</ele>
        <time>1970-01-01T01:41:38.000Z</time>
      </trkpt>
      <trkpt lat="42.272578" lon="3.151879">
        <ele>18</ele>
        <time>1970-01-01T01:41:39.000Z</time>
      </trkpt>
      <trkpt lat="42.272537" lon="3.151808">
        <ele>17</ele>
        <time>1970-01-01T01:41:40.000Z</time>
      </trkpt>
      <trkpt lat="42.272458" lon="3.151665">
        <ele>17</ele>
        <time>1970-01-01T01:41:41.000Z</time>
      </trkpt>
      <trkpt lat="42.272421" lon="3.151599">
        <ele>17</ele>
        <time>1970-01-01T01:41:42.000Z</time>
      </trkpt>
      <trkpt lat="42.272384" lon="3.151532">
        <ele>17</ele>
        <time>1970-01-01T01:41:43.000Z</time>
      </trkpt>
      <trkpt lat="42.272347" lon="3.151465">
        <ele>17</ele>
        <time>1970-01-01T01:41:44.000Z</time>
      </trkpt>
      <trkpt lat="42.272311" lon="3.151398">
        <ele>17</ele>
        <time>1970-01-01T01:41:45.000Z</time>
      </trkpt>
      <trkpt lat="42.272274" lon="3.151332">
        <ele>17</ele>
        <time>1970-01-01T01:41:46.000Z</time>
      </trkpt>
      <trkpt lat="42.272237" lon="3.151265">
        <ele>17</ele>
        <time>1970-01-01T01:41:47.000Z</time>
      </trkpt>
      <trkpt lat="42.2722" lon="3.151198">
        <ele>17</ele>
        <time>1970-01-01T01:41:48.000Z</time>
      </trkpt>
      <trkpt lat="42.272163" lon="3.151132">
        <ele>17</ele>
        <time>1970-01-01T01:41:49.000Z</time>
      </trkpt>
      <trkpt lat="42.272126" lon="3.151065">
        <ele>15</ele>
        <time>1970-01-01T01:41:50.000Z</time>
      </trkpt>
      <trkpt lat="42.272059" lon="3.150975">
        <ele>15</ele>
        <time>1970-01-01T01:41:51.000Z</time>
      </trkpt>
      <trkpt lat="42.27203" lon="3.150948">
        <ele>15</ele>
        <time>1970-01-01T01:41:52.000Z</time>
      </trkpt>
      <trkpt lat="42.272002" lon="3.150921">
        <ele>15</ele>
        <time>1970-01-01T01:41:53.000Z</time>
      </trkpt>
      <trkpt lat="42.271974" lon="3.150894">
        <ele>15</ele>
        <time>1970-01-01T01:41:54.000Z</time>
      </trkpt>
      <trkpt lat="42.271946" lon="3.150866">
        <ele>15</ele>
        <time>1970-01-01T01:41:55.000Z</time>
      </trkpt>
      <trkpt lat="42.271917" lon="3.150839">
        <ele>15</ele>
        <time>1970-01-01T01:41:56.000Z</time>
      </trkpt>
      <trkpt lat="42.271889" lon="3.150812">
        <ele>15</ele>
        <time>1970-01-01T01:41:57.000Z</time>
      </trkpt>
      <trkpt lat="42.271861" lon="3.150785">
        <ele>15</ele>
        <time>1970-01-01T01:41:58.000Z</time>
      </trkpt>
      <trkpt lat="42.271832" lon="3.150758">
        <ele>15</ele>
        <time>1970-01-01T01:41:59.000Z</time>
      </trkpt>
      <trkpt lat="42.271804" lon="3.150731">
        <ele>14</ele>
        <time>1970-01-01T01:42:00.000Z</time>
      </trkpt>
      <trkpt lat="42.271767" lon="3.150677">
        <ele>14</ele>
        <time>1970-01-01T01:42:01.000Z</time>
      </trkpt>
      <trkpt lat="42.271747" lon="3.150644">
        <ele>14</ele>
        <time>1970-01-01T01:42:02.000Z</time>
      </trkpt>
      <trkpt lat="42.271728" lon="3.150612">
        <ele>14</ele>
        <time>1970-01-01T01:42:03.000Z</time>
      </trkpt>
      <trkpt lat="42.271708" lon="3.15058">
        <ele>14</ele>
        <time>1970-01-01T01:42:04.000Z</time>
      </trkpt>
      <trkpt lat="42.271689" lon="3.150547">
        <ele>14</ele>
        <time>1970-01-01T01:42:05.000Z</time>
      </trkpt>
      <trkpt lat="42.271669" lon="3.150515">
        <ele>14</ele>
        <time>1970-01-01T01:42:06.000Z</time>
      </trkpt>
      <trkpt lat="42.27165" lon="3.150483">
        <ele>14</ele>
        <time>1970-01-01T01:42:07.000Z</time>
      </trkpt>
      <trkpt lat="42.27163" lon="3.150451">
        <ele>14</ele>
        <time>1970-01-01T01:42:08.000Z</time>
      </trkpt>
      <trkpt lat="42.271611" lon="3.150418">
        <ele>14</ele>
        <time>1970-01-01T01:42:09.000Z</time>
      </trkpt>
      <trkpt lat="42.271591" lon="3.150386">
        <ele>13</ele>
        <time>1970-01-01T01:42:10.000Z</time>
      </trkpt>
      <trkpt lat="42.271545" lon="3.15034">
        <ele>13</ele>
        <time>1970-01-01T01:42:11.000Z</time>
      </trkpt>
      <trkpt lat="42.271523" lon="3.150331">
        <ele>13</ele>
        <time>1970-01-01T01:42:12.000Z</time>
      </trkpt>
      <trkpt lat="42.2715" lon="3.150323">
        <ele>13</ele>
        <time>1970-01-01T01:42:13.000Z</time>
      </trkpt>
      <trkpt lat="42.271478" lon="3.150314">
        <ele>13</ele>
        <time>1970-01-01T01:42:14.000Z</time>
      </trkpt>
      <trkpt lat="42.271456" lon="3.150306">
        <ele>13</ele>
        <time>1970-01-01T01:42:15.000Z</time>
      </trkpt>
      <trkpt lat="42.271434" lon="3.150298">
        <ele>13</ele>
        <time>1970-01-01T01:42:16.000Z</time>
      </trkpt>
      <trkpt lat="42.271411" lon="3.150289">
        <ele>13</ele>
        <time>1970-01-01T01:42:18.000Z</time>
      </trkpt>
      <trkpt lat="42.271389" lon="3.150281">
        <ele>13</ele>
        <time>1970-01-01T01:42:20.000Z</time>
      </trkpt>
      <trkpt lat="42.271383" lon="3.150262">
        <ele>13</ele>
        <time>1970-01-01T01:42:22.000Z</time>
      </trkpt>
      <trkpt lat="42.271393" lon="3.15027">
        <ele>13</ele>
        <time>1970-01-01T01:42:24.000Z</time>
      </trkpt>
      <trkpt lat="42.271403" lon="3.150277">
        <ele>13</ele>
        <time>1970-01-01T01:42:26.000Z</time>
      </trkpt>
      <trkpt lat="42.271413" lon="3.150284">
        <ele>13</ele>
        <time>1970-01-01T01:42:27.000Z</time>
      </trkpt>
      <trkpt lat="42.271423" lon="3.150291">
        <ele>13</ele>
        <time>1970-01-01T01:42:28.000Z</time>
      </trkpt>
      <trkpt lat="42.271433" lon="3.150299">
        <ele>13</ele>
        <time>1970-01-01T01:42:29.000Z</time>
      </trkpt>
      <trkpt lat="42.271443" lon="3.150306">
        <ele>13</ele>
        <time>1970-01-01T01:42:30.000Z</time>
      </trkpt>
      <trkpt lat="42.271429" lon="3.150344">
        <ele>13</ele>
        <time>1970-01-01T01:42:32.000Z</time>
      </trkpt>
      <trkpt lat="42.271426" lon="3.150372">
        <ele>13</ele>
        <time>1970-01-01T01:42:34.000Z</time>
      </trkpt>
      <trkpt lat="42.271426" lon="3.150372">
        <ele>13</ele>
        <time>1970-01-01T01:42:39.000Z</time>
      </trkpt>
      <trkpt lat="42.271436" lon="3.150427">
        <ele>13</ele>
        <time>1970-01-01T01:43:14.000Z</time>
      </trkpt>
      <trkpt lat="42.271453" lon="3.150414">
        <ele>13</ele>
        <time>1970-01-01T01:43:17.000Z</time>
      </trkpt>
      <trkpt lat="42.271469" lon="3.1504">
        <ele>13</ele>
        <time>1970-01-01T01:43:22.000Z</time>
      </trkpt>
      <trkpt lat="42.271492" lon="3.150371">
        <ele>13</ele>
        <time>1970-01-01T01:43:24.000Z</time>
      </trkpt>
      <trkpt lat="42.271527" lon="3.15038">
        <ele>13</ele>
        <time>1970-01-01T01:43:25.000Z</time>
      </trkpt>
      <trkpt lat="42.271542" lon="3.150399">
        <ele>13</ele>
        <time>1970-01-01T01:43:26.000Z</time>
      </trkpt>
      <trkpt lat="42.271558" lon="3.150418">
        <ele>13</ele>
        <time>1970-01-01T01:43:27.000Z</time>
      </trkpt>
      <trkpt lat="42.271574" lon="3.150437">
        <ele>13</ele>
        <time>1970-01-01T01:43:28.000Z</time>
      </trkpt>
      <trkpt lat="42.27159" lon="3.150456">
        <ele>13</ele>
        <time>1970-01-01T01:43:29.000Z</time>
      </trkpt>
      <trkpt lat="42.271605" lon="3.150476">
        <ele>13</ele>
        <time>1970-01-01T01:43:30.000Z</time>
      </trkpt>
      <trkpt lat="42.271621" lon="3.150495">
        <ele>13</ele>
        <time>1970-01-01T01:43:31.000Z</time>
      </trkpt>
      <trkpt lat="42.271637" lon="3.150514">
        <ele>13</ele>
        <time>1970-01-01T01:43:32.000Z</time>
      </trkpt>
      <trkpt lat="42.271652" lon="3.150533">
        <ele>13</ele>
        <time>1970-01-01T01:43:33.000Z</time>
      </trkpt>
      <trkpt lat="42.271668" lon="3.150552">
        <ele>12</ele>
        <time>1970-01-01T01:43:34.000Z</time>
      </trkpt>
      <trkpt lat="42.2717" lon="3.150601">
        <ele>12</ele>
        <time>1970-01-01T01:43:35.000Z</time>
      </trkpt>
      <trkpt lat="42.271711" lon="3.150629">
        <ele>12</ele>
        <time>1970-01-01T01:43:36.000Z</time>
      </trkpt>
      <trkpt lat="42.271721" lon="3.150656">
        <ele>12</ele>
        <time>1970-01-01T01:43:37.000Z</time>
      </trkpt>
      <trkpt lat="42.271732" lon="3.150684">
        <ele>12</ele>
        <time>1970-01-01T01:43:38.000Z</time>
      </trkpt>
      <trkpt lat="42.271742" lon="3.150711">
        <ele>12</ele>
        <time>1970-01-01T01:43:39.000Z</time>
      </trkpt>
      <trkpt lat="42.271752" lon="3.150739">
        <ele>12</ele>
        <time>1970-01-01T01:43:40.000Z</time>
      </trkpt>
      <trkpt lat="42.271763" lon="3.150766">
        <ele>12</ele>
        <time>1970-01-01T01:43:41.000Z</time>
      </trkpt>
      <trkpt lat="42.271773" lon="3.150794">
        <ele>12</ele>
        <time>1970-01-01T01:43:42.000Z</time>
      </trkpt>
      <trkpt lat="42.271784" lon="3.150821">
        <ele>12</ele>
        <time>1970-01-01T01:43:43.000Z</time>
      </trkpt>
      <trkpt lat="42.271794" lon="3.150849">
        <ele>12</ele>
        <time>1970-01-01T01:43:44.000Z</time>
      </trkpt>
      <trkpt lat="42.27182" lon="3.150876">
        <ele>12</ele>
        <time>1970-01-01T01:43:45.000Z</time>
      </trkpt>
      <trkpt lat="42.271834" lon="3.150867">
        <ele>12</ele>
        <time>1970-01-01T01:43:46.000Z</time>
      </trkpt>
      <trkpt lat="42.271849" lon="3.150858">
        <ele>12</ele>
        <time>1970-01-01T01:43:47.000Z</time>
      </trkpt>
      <trkpt lat="42.271863" lon="3.150849">
        <ele>12</ele>
        <time>1970-01-01T01:43:48.000Z</time>
      </trkpt>
      <trkpt lat="42.271878" lon="3.150839">
        <ele>12</ele>
        <time>1970-01-01T01:43:50.000Z</time>
      </trkpt>
      <trkpt lat="42.271892" lon="3.15083">
        <ele>12</ele>
        <time>1970-01-01T01:43:52.000Z</time>
      </trkpt>
      <trkpt lat="42.271907" lon="3.150821">
        <ele>12</ele>
        <time>1970-01-01T01:43:53.000Z</time>
      </trkpt>
      <trkpt lat="42.271921" lon="3.150812">
        <ele>12</ele>
        <time>1970-01-01T01:43:54.000Z</time>
      </trkpt>
      <trkpt lat="42.271936" lon="3.150803">
        <ele>12</ele>
        <time>1970-01-01T01:43:55.000Z</time>
      </trkpt>
      <trkpt lat="42.271917" lon="3.150722">
        <ele>12</ele>
        <time>1970-01-01T01:43:56.000Z</time>
      </trkpt>
      <trkpt lat="42.271897" lon="3.150681">
        <ele>12</ele>
        <time>1970-01-01T01:43:57.000Z</time>
      </trkpt>
      <trkpt lat="42.271878" lon="3.150641">
        <ele>12</ele>
        <time>1970-01-01T01:43:58.000Z</time>
      </trkpt>
      <trkpt lat="42.271858" lon="3.1506">
        <ele>12</ele>
        <time>1970-01-01T01:43:59.000Z</time>
      </trkpt>
      <trkpt lat="42.271839" lon="3.15056">
        <ele>12</ele>
        <time>1970-01-01T01:44:00.000Z</time>
      </trkpt>
      <trkpt lat="42.271819" lon="3.150519">
        <ele>12</ele>
        <time>1970-01-01T01:44:01.000Z</time>
      </trkpt>
      <trkpt lat="42.2718" lon="3.150479">
        <ele>12</ele>
        <time>1970-01-01T01:44:02.000Z</time>
      </trkpt>
      <trkpt lat="42.27178" lon="3.150438">
        <ele>12</ele>
        <time>1970-01-01T01:44:03.000Z</time>
      </trkpt>
      <trkpt lat="42.271761" lon="3.150398">
        <ele>13</ele>
        <time>1970-01-01T01:44:04.000Z</time>
      </trkpt>
      <trkpt lat="42.271717" lon="3.150294">
        <ele>13</ele>
        <time>1970-01-01T01:44:05.000Z</time>
      </trkpt>
      <trkpt lat="42.271701" lon="3.150241">
        <ele>13</ele>
        <time>1970-01-01T01:44:06.000Z</time>
      </trkpt>
      <trkpt lat="42.271684" lon="3.150187">
        <ele>13</ele>
        <time>1970-01-01T01:44:07.000Z</time>
      </trkpt>
      <trkpt lat="42.271667" lon="3.150133">
        <ele>13</ele>
        <time>1970-01-01T01:44:08.000Z</time>
      </trkpt>
      <trkpt lat="42.271651" lon="3.150079">
        <ele>13</ele>
        <time>1970-01-01T01:44:09.000Z</time>
      </trkpt>
      <trkpt lat="42.271634" lon="3.150026">
        <ele>13</ele>
        <time>1970-01-01T01:44:10.000Z</time>
      </trkpt>
      <trkpt lat="42.271617" lon="3.149972">
        <ele>13</ele>
        <time>1970-01-01T01:44:11.000Z</time>
      </trkpt>
      <trkpt lat="42.2716" lon="3.149918">
        <ele>13</ele>
        <time>1970-01-01T01:44:12.000Z</time>
      </trkpt>
      <trkpt lat="42.271584" lon="3.149865">
        <ele>13</ele>
        <time>1970-01-01T01:44:13.000Z</time>
      </trkpt>
      <trkpt lat="42.271567" lon="3.149811">
        <ele>12</ele>
        <time>1970-01-01T01:44:14.000Z</time>
      </trkpt>
      <trkpt lat="42.271574" lon="3.149687">
        <ele>12</ele>
        <time>1970-01-01T01:44:15.000Z</time>
      </trkpt>
      <trkpt lat="42.271586" lon="3.149631">
        <ele>12</ele>
        <time>1970-01-01T01:44:16.000Z</time>
      </trkpt>
      <trkpt lat="42.271598" lon="3.149575">
        <ele>12</ele>
        <time>1970-01-01T01:44:17.000Z</time>
      </trkpt>
      <trkpt lat="42.27161" lon="3.149519">
        <ele>12</ele>
        <time>1970-01-01T01:44:18.000Z</time>
      </trkpt>
      <trkpt lat="42.271623" lon="3.149463">
        <ele>12</ele>
        <time>1970-01-01T01:44:19.000Z</time>
      </trkpt>
      <trkpt lat="42.271635" lon="3.149406">
        <ele>12</ele>
        <time>1970-01-01T01:44:20.000Z</time>
      </trkpt>
      <trkpt lat="42.271647" lon="3.14935">
        <ele>12</ele>
        <time>1970-01-01T01:44:21.000Z</time>
      </trkpt>
      <trkpt lat="42.271659" lon="3.149294">
        <ele>12</ele>
        <time>1970-01-01T01:44:22.000Z</time>
      </trkpt>
      <trkpt lat="42.271671" lon="3.149238">
        <ele>12</ele>
        <time>1970-01-01T01:44:23.000Z</time>
      </trkpt>
      <trkpt lat="42.271683" lon="3.149182">
        <ele>12</ele>
        <time>1970-01-01T01:44:24.000Z</time>
      </trkpt>
      <trkpt lat="42.271713" lon="3.149078">
        <ele>12</ele>
        <time>1970-01-01T01:44:25.000Z</time>
      </trkpt>
      <trkpt lat="42.27172" lon="3.149031">
        <ele>12</ele>
        <time>1970-01-01T01:44:26.000Z</time>
      </trkpt>
      <trkpt lat="42.271727" lon="3.148984">
        <ele>12</ele>
        <time>1970-01-01T01:44:27.000Z</time>
      </trkpt>
      <trkpt lat="42.271734" lon="3.148937">
        <ele>12</ele>
        <time>1970-01-01T01:44:28.000Z</time>
      </trkpt>
      <trkpt lat="42.271741" lon="3.14889">
        <ele>12</ele>
        <time>1970-01-01T01:44:29.000Z</time>
      </trkpt>
      <trkpt lat="42.271748" lon="3.148842">
        <ele>12</ele>
        <time>1970-01-01T01:44:30.000Z</time>
      </trkpt>
      <trkpt lat="42.271755" lon="3.148795">
        <ele>12</ele>
        <time>1970-01-01T01:44:31.000Z</time>
      </trkpt>
      <trkpt lat="42.271762" lon="3.148748">
        <ele>12</ele>
        <time>1970-01-01T01:44:32.000Z</time>
      </trkpt>
      <trkpt lat="42.271769" lon="3.148701">
        <ele>12</ele>
        <time>1970-01-01T01:44:33.000Z</time>
      </trkpt>
      <trkpt lat="42.271776" lon="3.148654">
        <ele>13</ele>
        <time>1970-01-01T01:44:34.000Z</time>
      </trkpt>
      <trkpt lat="42.271757" lon="3.148593">
        <ele>13</ele>
        <time>1970-01-01T01:44:35.000Z</time>
      </trkpt>
      <trkpt lat="42.271747" lon="3.148571">
        <ele>13</ele>
        <time>1970-01-01T01:44:36.000Z</time>
      </trkpt>
      <trkpt lat="42.271737" lon="3.148548">
        <ele>13</ele>
        <time>1970-01-01T01:44:37.000Z</time>
      </trkpt>
      <trkpt lat="42.271727" lon="3.148525">
        <ele>13</ele>
        <time>1970-01-01T01:44:38.000Z</time>
      </trkpt>
      <trkpt lat="42.271717" lon="3.148503">
        <ele>13</ele>
        <time>1970-01-01T01:44:39.000Z</time>
      </trkpt>
      <trkpt lat="42.271707" lon="3.14848">
        <ele>13</ele>
        <time>1970-01-01T01:44:40.000Z</time>
      </trkpt>
      <trkpt lat="42.271697" lon="3.148457">
        <ele>13</ele>
        <time>1970-01-01T01:44:41.000Z</time>
      </trkpt>
      <trkpt lat="42.271687" lon="3.148435">
        <ele>13</ele>
        <time>1970-01-01T01:44:43.000Z</time>
      </trkpt>
      <trkpt lat="42.271677" lon="3.148412">
        <ele>12</ele>
        <time>1970-01-01T01:44:44.000Z</time>
      </trkpt>
      <trkpt lat="42.271667" lon="3.148357">
        <ele>12</ele>
        <time>1970-01-01T01:44:45.000Z</time>
      </trkpt>
      <trkpt lat="42.271665" lon="3.148319">
        <ele>12</ele>
        <time>1970-01-01T01:44:47.000Z</time>
      </trkpt>
      <trkpt lat="42.271662" lon="3.148281">
        <ele>12</ele>
        <time>1970-01-01T01:44:49.000Z</time>
      </trkpt>
      <trkpt lat="42.27166" lon="3.148244">
        <ele>12</ele>
        <time>1970-01-01T01:44:51.000Z</time>
      </trkpt>
      <trkpt lat="42.271657" lon="3.148206">
        <ele>12</ele>
        <time>1970-01-01T01:44:52.000Z</time>
      </trkpt>
      <trkpt lat="42.271655" lon="3.148168">
        <ele>12</ele>
        <time>1970-01-01T01:44:53.000Z</time>
      </trkpt>
      <trkpt lat="42.271652" lon="3.14813">
        <ele>12</ele>
        <time>1970-01-01T01:44:54.000Z</time>
      </trkpt>
      <trkpt lat="42.271634" lon="3.14803">
        <ele>12</ele>
        <time>1970-01-01T01:44:55.000Z</time>
      </trkpt>
      <trkpt lat="42.271626" lon="3.147981">
        <ele>12</ele>
        <time>1970-01-01T01:44:56.000Z</time>
      </trkpt>
      <trkpt lat="42.271619" lon="3.147931">
        <ele>12</ele>
        <time>1970-01-01T01:44:57.000Z</time>
      </trkpt>
      <trkpt lat="42.271611" lon="3.147882">
        <ele>12</ele>
        <time>1970-01-01T01:44:58.000Z</time>
      </trkpt>
      <trkpt lat="42.271603" lon="3.147832">
        <ele>12</ele>
        <time>1970-01-01T01:44:59.000Z</time>
      </trkpt>
      <trkpt lat="42.271595" lon="3.147782">
        <ele>12</ele>
        <time>1970-01-01T01:45:00.000Z</time>
      </trkpt>
      <trkpt lat="42.271587" lon="3.147733">
        <ele>12</ele>
        <time>1970-01-01T01:45:01.000Z</time>
      </trkpt>
      <trkpt lat="42.27158" lon="3.147683">
        <ele>12</ele>
        <time>1970-01-01T01:45:02.000Z</time>
      </trkpt>
      <trkpt lat="42.271572" lon="3.147634">
        <ele>12</ele>
        <time>1970-01-01T01:45:03.000Z</time>
      </trkpt>
      <trkpt lat="42.271564" lon="3.147584">
        <ele>12</ele>
        <time>1970-01-01T01:45:04.000Z</time>
      </trkpt>
      <trkpt lat="42.271571" lon="3.147475">
        <ele>12</ele>
        <time>1970-01-01T01:45:05.000Z</time>
      </trkpt>
      <trkpt lat="42.271576" lon="3.147422">
        <ele>12</ele>
        <time>1970-01-01T01:45:06.000Z</time>
      </trkpt>
      <trkpt lat="42.27158" lon="3.147368">
        <ele>12</ele>
        <time>1970-01-01T01:45:07.000Z</time>
      </trkpt>
      <trkpt lat="42.271585" lon="3.147315">
        <ele>12</ele>
        <time>1970-01-01T01:45:08.000Z</time>
      </trkpt>
      <trkpt lat="42.271589" lon="3.147262">
        <ele>12</ele>
        <time>1970-01-01T01:45:09.000Z</time>
      </trkpt>
      <trkpt lat="42.271593" lon="3.147209">
        <ele>12</ele>
        <time>1970-01-01T01:45:10.000Z</time>
      </trkpt>
      <trkpt lat="42.271598" lon="3.147156">
        <ele>12</ele>
        <time>1970-01-01T01:45:11.000Z</time>
      </trkpt>
      <trkpt lat="42.271602" lon="3.147102">
        <ele>12</ele>
        <time>1970-01-01T01:45:12.000Z</time>
      </trkpt>
      <trkpt lat="42.271607" lon="3.147049">
        <ele>12</ele>
        <time>1970-01-01T01:45:13.000Z</time>
      </trkpt>
      <trkpt lat="42.271611" lon="3.146996">
        <ele>12</ele>
        <time>1970-01-01T01:45:14.000Z</time>
      </trkpt>
      <trkpt lat="42.27162" lon="3.146857">
        <ele>12</ele>
        <time>1970-01-01T01:45:15.000Z</time>
      </trkpt>
      <trkpt lat="42.271623" lon="3.146789">
        <ele>12</ele>
        <time>1970-01-01T01:45:16.000Z</time>
      </trkpt>
      <trkpt lat="42.271627" lon="3.146722">
        <ele>12</ele>
        <time>1970-01-01T01:45:17.000Z</time>
      </trkpt>
      <trkpt lat="42.271631" lon="3.146654">
        <ele>12</ele>
        <time>1970-01-01T01:45:18.000Z</time>
      </trkpt>
      <trkpt lat="42.271635" lon="3.146586">
        <ele>12</ele>
        <time>1970-01-01T01:45:19.000Z</time>
      </trkpt>
      <trkpt lat="42.271638" lon="3.146518">
        <ele>12</ele>
        <time>1970-01-01T01:45:20.000Z</time>
      </trkpt>
      <trkpt lat="42.271642" lon="3.14645">
        <ele>12</ele>
        <time>1970-01-01T01:45:21.000Z</time>
      </trkpt>
      <trkpt lat="42.271646" lon="3.146383">
        <ele>12</ele>
        <time>1970-01-01T01:45:22.000Z</time>
      </trkpt>
      <trkpt lat="42.271649" lon="3.146315">
        <ele>12</ele>
        <time>1970-01-01T01:45:23.000Z</time>
      </trkpt>
      <trkpt lat="42.271653" lon="3.146247">
        <ele>12</ele>
        <time>1970-01-01T01:45:24.000Z</time>
      </trkpt>
      <trkpt lat="42.27166" lon="3.146103">
        <ele>12</ele>
        <time>1970-01-01T01:45:25.000Z</time>
      </trkpt>
      <trkpt lat="42.271663" lon="3.146034">
        <ele>12</ele>
        <time>1970-01-01T01:45:26.000Z</time>
      </trkpt>
      <trkpt lat="42.271667" lon="3.145966">
        <ele>12</ele>
        <time>1970-01-01T01:45:27.000Z</time>
      </trkpt>
      <trkpt lat="42.27167" lon="3.145897">
        <ele>12</ele>
        <time>1970-01-01T01:45:28.000Z</time>
      </trkpt>
      <trkpt lat="42.271673" lon="3.145829">
        <ele>12</ele>
        <time>1970-01-01T01:45:29.000Z</time>
      </trkpt>
      <trkpt lat="42.271676" lon="3.14576">
        <ele>12</ele>
        <time>1970-01-01T01:45:30.000Z</time>
      </trkpt>
      <trkpt lat="42.271679" lon="3.145692">
        <ele>12</ele>
        <time>1970-01-01T01:45:31.000Z</time>
      </trkpt>
      <trkpt lat="42.271683" lon="3.145623">
        <ele>12</ele>
        <time>1970-01-01T01:45:32.000Z</time>
      </trkpt>
      <trkpt lat="42.271686" lon="3.145555">
        <ele>12</ele>
        <time>1970-01-01T01:45:33.000Z</time>
      </trkpt>
      <trkpt lat="42.271689" lon="3.145486">
        <ele>11</ele>
        <time>1970-01-01T01:45:34.000Z</time>
      </trkpt>
      <trkpt lat="42.271696" lon="3.14534">
        <ele>11</ele>
        <time>1970-01-01T01:45:35.000Z</time>
      </trkpt>
      <trkpt lat="42.271699" lon="3.145271">
        <ele>11</ele>
        <time>1970-01-01T01:45:36.000Z</time>
      </trkpt>
      <trkpt lat="42.271703" lon="3.145203">
        <ele>11</ele>
        <time>1970-01-01T01:45:37.000Z</time>
      </trkpt>
      <trkpt lat="42.271706" lon="3.145134">
        <ele>11</ele>
        <time>1970-01-01T01:45:38.000Z</time>
      </trkpt>
      <trkpt lat="42.27171" lon="3.145065">
        <ele>11</ele>
        <time>1970-01-01T01:45:39.000Z</time>
      </trkpt>
      <trkpt lat="42.271714" lon="3.144996">
        <ele>11</ele>
        <time>1970-01-01T01:45:40.000Z</time>
      </trkpt>
      <trkpt lat="42.271717" lon="3.144927">
        <ele>11</ele>
        <time>1970-01-01T01:45:41.000Z</time>
      </trkpt>
      <trkpt lat="42.271721" lon="3.144859">
        <ele>11</ele>
        <time>1970-01-01T01:45:42.000Z</time>
      </trkpt>
      <trkpt lat="42.271724" lon="3.14479">
        <ele>11</ele>
        <time>1970-01-01T01:45:43.000Z</time>
      </trkpt>
      <trkpt lat="42.271728" lon="3.144721">
        <ele>12</ele>
        <time>1970-01-01T01:45:44.000Z</time>
      </trkpt>
      <trkpt lat="42.271735" lon="3.144569">
        <ele>12</ele>
        <time>1970-01-01T01:45:45.000Z</time>
      </trkpt>
      <trkpt lat="42.271737" lon="3.144492">
        <ele>12</ele>
        <time>1970-01-01T01:45:46.000Z</time>
      </trkpt>
      <trkpt lat="42.27174" lon="3.144416">
        <ele>12</ele>
        <time>1970-01-01T01:45:48.000Z</time>
      </trkpt>
      <trkpt lat="42.271742" lon="3.14434">
        <ele>12</ele>
        <time>1970-01-01T01:45:49.000Z</time>
      </trkpt>
      <trkpt lat="42.271745" lon="3.144263">
        <ele>12</ele>
        <time>1970-01-01T01:45:50.000Z</time>
      </trkpt>
      <trkpt lat="42.271747" lon="3.144187">
        <ele>12</ele>
        <time>1970-01-01T01:45:51.000Z</time>
      </trkpt>
      <trkpt lat="42.27175" lon="3.144111">
        <ele>12</ele>
        <time>1970-01-01T01:45:52.000Z</time>
      </trkpt>
      <trkpt lat="42.271752" lon="3.144034">
        <ele>12</ele>
        <time>1970-01-01T01:45:53.000Z</time>
      </trkpt>
      <trkpt lat="42.271755" lon="3.143958">
        <ele>12</ele>
        <time>1970-01-01T01:45:54.000Z</time>
      </trkpt>
      <trkpt lat="42.271761" lon="3.143809">
        <ele>12</ele>
        <time>1970-01-01T01:45:55.000Z</time>
      </trkpt>
      <trkpt lat="42.271765" lon="3.143736">
        <ele>12</ele>
        <time>1970-01-01T01:45:56.000Z</time>
      </trkpt>
      <trkpt lat="42.271768" lon="3.143664">
        <ele>12</ele>
        <time>1970-01-01T01:45:57.000Z</time>
      </trkpt>
      <trkpt lat="42.271771" lon="3.143592">
        <ele>12</ele>
        <time>1970-01-01T01:45:58.000Z</time>
      </trkpt>
      <trkpt lat="42.271775" lon="3.14352">
        <ele>12</ele>
        <time>1970-01-01T01:45:59.000Z</time>
      </trkpt>
      <trkpt lat="42.271778" lon="3.143447">
        <ele>12</ele>
        <time>1970-01-01T01:46:00.000Z</time>
      </trkpt>
      <trkpt lat="42.271781" lon="3.143375">
        <ele>12</ele>
        <time>1970-01-01T01:46:01.000Z</time>
      </trkpt>
      <trkpt lat="42.271784" lon="3.143303">
        <ele>12</ele>
        <time>1970-01-01T01:46:02.000Z</time>
      </trkpt>
      <trkpt lat="42.271788" lon="3.14323">
        <ele>12</ele>
        <time>1970-01-01T01:46:03.000Z</time>
      </trkpt>
      <trkpt lat="42.271791" lon="3.143158">
        <ele>11</ele>
        <time>1970-01-01T01:46:04.000Z</time>
      </trkpt>
      <trkpt lat="42.271798" lon="3.143005">
        <ele>11</ele>
        <time>1970-01-01T01:46:05.000Z</time>
      </trkpt>
      <trkpt lat="42.271802" lon="3.142931">
        <ele>11</ele>
        <time>1970-01-01T01:46:06.000Z</time>
      </trkpt>
      <trkpt lat="42.271805" lon="3.142858">
        <ele>11</ele>
        <time>1970-01-01T01:46:07.000Z</time>
      </trkpt>
      <trkpt lat="42.271808" lon="3.142785">
        <ele>11</ele>
        <time>1970-01-01T01:46:08.000Z</time>
      </trkpt>
      <trkpt lat="42.271812" lon="3.142712">
        <ele>11</ele>
        <time>1970-01-01T01:46:09.000Z</time>
      </trkpt>
      <trkpt lat="42.271815" lon="3.142638">
        <ele>11</ele>
        <time>1970-01-01T01:46:10.000Z</time>
      </trkpt>
      <trkpt lat="42.271818" lon="3.142565">
        <ele>11</ele>
        <time>1970-01-01T01:46:11.000Z</time>
      </trkpt>
      <trkpt lat="42.271821" lon="3.142492">
        <ele>11</ele>
        <time>1970-01-01T01:46:12.000Z</time>
      </trkpt>
      <trkpt lat="42.271825" lon="3.142418">
        <ele>11</ele>
        <time>1970-01-01T01:46:13.000Z</time>
      </trkpt>
      <trkpt lat="42.271828" lon="3.142345">
        <ele>10</ele>
        <time>1970-01-01T01:46:14.000Z</time>
      </trkpt>
      <trkpt lat="42.271834" lon="3.14218">
        <ele>10</ele>
        <time>1970-01-01T01:46:15.000Z</time>
      </trkpt>
      <trkpt lat="42.271837" lon="3.142098">
        <ele>10</ele>
        <time>1970-01-01T01:46:16.000Z</time>
      </trkpt>
      <trkpt lat="42.27184" lon="3.142015">
        <ele>10</ele>
        <time>1970-01-01T01:46:17.000Z</time>
      </trkpt>
      <trkpt lat="42.271843" lon="3.141933">
        <ele>10</ele>
        <time>1970-01-01T01:46:18.000Z</time>
      </trkpt>
      <trkpt lat="42.271845" lon="3.141851">
        <ele>10</ele>
        <time>1970-01-01T01:46:19.000Z</time>
      </trkpt>
      <trkpt lat="42.271848" lon="3.141769">
        <ele>10</ele>
        <time>1970-01-01T01:46:20.000Z</time>
      </trkpt>
      <trkpt lat="42.271851" lon="3.141686">
        <ele>10</ele>
        <time>1970-01-01T01:46:22.000Z</time>
      </trkpt>
      <trkpt lat="42.271854" lon="3.141604">
        <ele>10</ele>
        <time>1970-01-01T01:46:23.000Z</time>
      </trkpt>
      <trkpt lat="42.271857" lon="3.141522">
        <ele>11</ele>
        <time>1970-01-01T01:46:24.000Z</time>
      </trkpt>
      <trkpt lat="42.271863" lon="3.141368">
        <ele>11</ele>
        <time>1970-01-01T01:46:25.000Z</time>
      </trkpt>
      <trkpt lat="42.271867" lon="3.141294">
        <ele>11</ele>
        <time>1970-01-01T01:46:26.000Z</time>
      </trkpt>
      <trkpt lat="42.271872" lon="3.141221">
        <ele>11</ele>
        <time>1970-01-01T01:46:27.000Z</time>
      </trkpt>
      <trkpt lat="42.271876" lon="3.141147">
        <ele>11</ele>
        <time>1970-01-01T01:46:28.000Z</time>
      </trkpt>
      <trkpt lat="42.271881" lon="3.141073">
        <ele>11</ele>
        <time>1970-01-01T01:46:29.000Z</time>
      </trkpt>
      <trkpt lat="42.271886" lon="3.140999">
        <ele>11</ele>
        <time>1970-01-01T01:46:30.000Z</time>
      </trkpt>
      <trkpt lat="42.27189" lon="3.140925">
        <ele>11</ele>
        <time>1970-01-01T01:46:31.000Z</time>
      </trkpt>
      <trkpt lat="42.271895" lon="3.140852">
        <ele>11</ele>
        <time>1970-01-01T01:46:32.000Z</time>
      </trkpt>
      <trkpt lat="42.271899" lon="3.140778">
        <ele>11</ele>
        <time>1970-01-01T01:46:33.000Z</time>
      </trkpt>
      <trkpt lat="42.271904" lon="3.140704">
        <ele>11</ele>
        <time>1970-01-01T01:46:34.000Z</time>
      </trkpt>
      <trkpt lat="42.271912" lon="3.14055">
        <ele>11</ele>
        <time>1970-01-01T01:46:35.000Z</time>
      </trkpt>
      <trkpt lat="42.271916" lon="3.140477">
        <ele>11</ele>
        <time>1970-01-01T01:46:36.000Z</time>
      </trkpt>
      <trkpt lat="42.271919" lon="3.140403">
        <ele>11</ele>
        <time>1970-01-01T01:46:37.000Z</time>
      </trkpt>
      <trkpt lat="42.271923" lon="3.14033">
        <ele>11</ele>
        <time>1970-01-01T01:46:38.000Z</time>
      </trkpt>
      <trkpt lat="42.271926" lon="3.140257">
        <ele>11</ele>
        <time>1970-01-01T01:46:39.000Z</time>
      </trkpt>
      <trkpt lat="42.271929" lon="3.140184">
        <ele>11</ele>
        <time>1970-01-01T01:46:40.000Z</time>
      </trkpt>
      <trkpt lat="42.271933" lon="3.140111">
        <ele>11</ele>
        <time>1970-01-01T01:46:41.000Z</time>
      </trkpt>
      <trkpt lat="42.271936" lon="3.140037">
        <ele>11</ele>
        <time>1970-01-01T01:46:42.000Z</time>
      </trkpt>
      <trkpt lat="42.27194" lon="3.139964">
        <ele>11</ele>
        <time>1970-01-01T01:46:43.000Z</time>
      </trkpt>
      <trkpt lat="42.271943" lon="3.139891">
        <ele>11</ele>
        <time>1970-01-01T01:46:44.000Z</time>
      </trkpt>
      <trkpt lat="42.271949" lon="3.139738">
        <ele>11</ele>
        <time>1970-01-01T01:46:45.000Z</time>
      </trkpt>
      <trkpt lat="42.271953" lon="3.139664">
        <ele>11</ele>
        <time>1970-01-01T01:46:46.000Z</time>
      </trkpt>
      <trkpt lat="42.271957" lon="3.139591">
        <ele>11</ele>
        <time>1970-01-01T01:46:47.000Z</time>
      </trkpt>
      <trkpt lat="42.271961" lon="3.139517">
        <ele>11</ele>
        <time>1970-01-01T01:46:48.000Z</time>
      </trkpt>
      <trkpt lat="42.271966" lon="3.139444">
        <ele>11</ele>
        <time>1970-01-01T01:46:49.000Z</time>
      </trkpt>
      <trkpt lat="42.27197" lon="3.139371">
        <ele>11</ele>
        <time>1970-01-01T01:46:50.000Z</time>
      </trkpt>
      <trkpt lat="42.271974" lon="3.139297">
        <ele>11</ele>
        <time>1970-01-01T01:46:51.000Z</time>
      </trkpt>
      <trkpt lat="42.271978" lon="3.139224">
        <ele>11</ele>
        <time>1970-01-01T01:46:52.000Z</time>
      </trkpt>
      <trkpt lat="42.271982" lon="3.13915">
        <ele>11</ele>
        <time>1970-01-01T01:46:53.000Z</time>
      </trkpt>
      <trkpt lat="42.271986" lon="3.139077">
        <ele>10</ele>
        <time>1970-01-01T01:46:54.000Z</time>
      </trkpt>
      <trkpt lat="42.271993" lon="3.138916">
        <ele>10</ele>
        <time>1970-01-01T01:46:55.000Z</time>
      </trkpt>
      <trkpt lat="42.271997" lon="3.138838">
        <ele>10</ele>
        <time>1970-01-01T01:46:56.000Z</time>
      </trkpt>
      <trkpt lat="42.272" lon="3.13876">
        <ele>10</ele>
        <time>1970-01-01T01:46:57.000Z</time>
      </trkpt>
      <trkpt lat="42.272004" lon="3.138682">
        <ele>10</ele>
        <time>1970-01-01T01:46:58.000Z</time>
      </trkpt>
      <trkpt lat="42.272008" lon="3.138604">
        <ele>10</ele>
        <time>1970-01-01T01:46:59.000Z</time>
      </trkpt>
      <trkpt lat="42.272012" lon="3.138526">
        <ele>10</ele>
        <time>1970-01-01T01:47:00.000Z</time>
      </trkpt>
      <trkpt lat="42.272015" lon="3.138448">
        <ele>10</ele>
        <time>1970-01-01T01:47:01.000Z</time>
      </trkpt>
      <trkpt lat="42.272019" lon="3.13837">
        <ele>10</ele>
        <time>1970-01-01T01:47:03.000Z</time>
      </trkpt>
      <trkpt lat="42.272023" lon="3.138292">
        <ele>9</ele>
        <time>1970-01-01T01:47:04.000Z</time>
      </trkpt>
      <trkpt lat="42.272036" lon="3.138083">
        <ele>9</ele>
        <time>1970-01-01T01:47:05.000Z</time>
      </trkpt>
      <trkpt lat="42.272044" lon="3.137998">
        <ele>9</ele>
        <time>1970-01-01T01:47:06.000Z</time>
      </trkpt>
      <trkpt lat="42.272051" lon="3.137914">
        <ele>9</ele>
        <time>1970-01-01T01:47:07.000Z</time>
      </trkpt>
      <trkpt lat="42.272058" lon="3.13783">
        <ele>9</ele>
        <time>1970-01-01T01:47:08.000Z</time>
      </trkpt>
      <trkpt lat="42.272066" lon="3.137745">
        <ele>9</ele>
        <time>1970-01-01T01:47:10.000Z</time>
      </trkpt>
      <trkpt lat="42.272073" lon="3.137661">
        <ele>9</ele>
        <time>1970-01-01T01:47:11.000Z</time>
      </trkpt>
      <trkpt lat="42.27208" lon="3.137577">
        <ele>9</ele>
        <time>1970-01-01T01:47:12.000Z</time>
      </trkpt>
      <trkpt lat="42.272088" lon="3.137492">
        <ele>9</ele>
        <time>1970-01-01T01:47:13.000Z</time>
      </trkpt>
      <trkpt lat="42.272095" lon="3.137408">
        <ele>8</ele>
        <time>1970-01-01T01:47:14.000Z</time>
      </trkpt>
      <trkpt lat="42.272121" lon="3.137237">
        <ele>8</ele>
        <time>1970-01-01T01:47:15.000Z</time>
      </trkpt>
      <trkpt lat="42.272136" lon="3.137147">
        <ele>8</ele>
        <time>1970-01-01T01:47:16.000Z</time>
      </trkpt>
      <trkpt lat="42.27215" lon="3.137058">
        <ele>8</ele>
        <time>1970-01-01T01:47:17.000Z</time>
      </trkpt>
      <trkpt lat="42.272165" lon="3.136969">
        <ele>8</ele>
        <time>1970-01-01T01:47:19.000Z</time>
      </trkpt>
      <trkpt lat="42.27218" lon="3.136879">
        <ele>8</ele>
        <time>1970-01-01T01:47:20.000Z</time>
      </trkpt>
      <trkpt lat="42.272195" lon="3.13679">
        <ele>8</ele>
        <time>1970-01-01T01:47:21.000Z</time>
      </trkpt>
      <trkpt lat="42.272209" lon="3.1367">
        <ele>8</ele>
        <time>1970-01-01T01:47:23.000Z</time>
      </trkpt>
      <trkpt lat="42.272224" lon="3.136611">
        <ele>8</ele>
        <time>1970-01-01T01:47:24.000Z</time>
      </trkpt>
      <trkpt lat="42.272252" lon="3.136457">
        <ele>8</ele>
        <time>1970-01-01T01:47:25.000Z</time>
      </trkpt>
      <trkpt lat="42.272266" lon="3.136382">
        <ele>8</ele>
        <time>1970-01-01T01:47:27.000Z</time>
      </trkpt>
      <trkpt lat="42.272279" lon="3.136306">
        <ele>8</ele>
        <time>1970-01-01T01:47:28.000Z</time>
      </trkpt>
      <trkpt lat="42.272293" lon="3.136231">
        <ele>8</ele>
        <time>1970-01-01T01:47:29.000Z</time>
      </trkpt>
      <trkpt lat="42.272307" lon="3.136155">
        <ele>8</ele>
        <time>1970-01-01T01:47:30.000Z</time>
      </trkpt>
      <trkpt lat="42.272321" lon="3.13608">
        <ele>8</ele>
        <time>1970-01-01T01:47:31.000Z</time>
      </trkpt>
      <trkpt lat="42.272334" lon="3.136004">
        <ele>8</ele>
        <time>1970-01-01T01:47:32.000Z</time>
      </trkpt>
      <trkpt lat="42.272348" lon="3.135929">
        <ele>8</ele>
        <time>1970-01-01T01:47:33.000Z</time>
      </trkpt>
      <trkpt lat="42.272362" lon="3.135853">
        <ele>9</ele>
        <time>1970-01-01T01:47:34.000Z</time>
      </trkpt>
      <trkpt lat="42.272391" lon="3.135645">
        <ele>9</ele>
        <time>1970-01-01T01:47:36.000Z</time>
      </trkpt>
      <trkpt lat="42.272402" lon="3.135582">
        <ele>9</ele>
        <time>1970-01-01T01:47:37.000Z</time>
      </trkpt>
      <trkpt lat="42.272412" lon="3.135518">
        <ele>9</ele>
        <time>1970-01-01T01:47:38.000Z</time>
      </trkpt>
      <trkpt lat="42.272422" lon="3.135455">
        <ele>9</ele>
        <time>1970-01-01T01:47:39.000Z</time>
      </trkpt>
      <trkpt lat="42.272432" lon="3.135392">
        <ele>9</ele>
        <time>1970-01-01T01:47:40.000Z</time>
      </trkpt>
      <trkpt lat="42.272443" lon="3.135329">
        <ele>9</ele>
        <time>1970-01-01T01:47:42.000Z</time>
      </trkpt>
      <trkpt lat="42.272453" lon="3.135265">
        <ele>9</ele>
        <time>1970-01-01T01:47:43.000Z</time>
      </trkpt>
      <trkpt lat="42.272463" lon="3.135202">
        <ele>9</ele>
        <time>1970-01-01T01:47:44.000Z</time>
      </trkpt>
      <trkpt lat="42.272505" lon="3.135055">
        <ele>9</ele>
        <time>1970-01-01T01:47:46.000Z</time>
      </trkpt>
      <trkpt lat="42.2725" lon="3.135003">
        <ele>9</ele>
        <time>1970-01-01T01:47:47.000Z</time>
      </trkpt>
      <trkpt lat="42.272494" lon="3.134951">
        <ele>9</ele>
        <time>1970-01-01T01:47:48.000Z</time>
      </trkpt>
      <trkpt lat="42.272489" lon="3.134899">
        <ele>9</ele>
        <time>1970-01-01T01:47:49.000Z</time>
      </trkpt>
      <trkpt lat="42.272483" lon="3.134846">
        <ele>9</ele>
        <time>1970-01-01T01:47:50.000Z</time>
      </trkpt>
      <trkpt lat="42.272478" lon="3.134794">
        <ele>9</ele>
        <time>1970-01-01T01:47:51.000Z</time>
      </trkpt>
      <trkpt lat="42.272472" lon="3.134742">
        <ele>9</ele>
        <time>1970-01-01T01:47:52.000Z</time>
      </trkpt>
      <trkpt lat="42.272467" lon="3.13469">
        <ele>9</ele>
        <time>1970-01-01T01:47:53.000Z</time>
      </trkpt>
      <trkpt lat="42.272461" lon="3.134638">
        <ele>10</ele>
        <time>1970-01-01T01:47:54.000Z</time>
      </trkpt>
      <trkpt lat="42.272399" lon="3.134515">
        <ele>10</ele>
        <time>1970-01-01T01:47:55.000Z</time>
      </trkpt>
      <trkpt lat="42.272372" lon="3.134446">
        <ele>10</ele>
        <time>1970-01-01T01:47:57.000Z</time>
      </trkpt>
      <trkpt lat="42.272344" lon="3.134378">
        <ele>10</ele>
        <time>1970-01-01T01:47:58.000Z</time>
      </trkpt>
      <trkpt lat="42.272316" lon="3.134309">
        <ele>10</ele>
        <time>1970-01-01T01:47:59.000Z</time>
      </trkpt>
      <trkpt lat="42.272288" lon="3.13424">
        <ele>10</ele>
        <time>1970-01-01T01:48:01.000Z</time>
      </trkpt>
      <trkpt lat="42.272261" lon="3.134171">
        <ele>10</ele>
        <time>1970-01-01T01:48:02.000Z</time>
      </trkpt>
      <trkpt lat="42.272233" lon="3.134103">
        <ele>10</ele>
        <time>1970-01-01T01:48:03.000Z</time>
      </trkpt>
      <trkpt lat="42.272205" lon="3.134034">
        <ele>10</ele>
        <time>1970-01-01T01:48:04.000Z</time>
      </trkpt>
      <trkpt lat="42.272151" lon="3.133903">
        <ele>10</ele>
        <time>1970-01-01T01:48:06.000Z</time>
      </trkpt>
      <trkpt lat="42.272136" lon="3.13387">
        <ele>10</ele>
        <time>1970-01-01T01:48:07.000Z</time>
      </trkpt>
      <trkpt lat="42.272122" lon="3.133838">
        <ele>10</ele>
        <time>1970-01-01T01:48:08.000Z</time>
      </trkpt>
      <trkpt lat="42.272107" lon="3.133805">
        <ele>10</ele>
        <time>1970-01-01T01:48:09.000Z</time>
      </trkpt>
      <trkpt lat="42.272092" lon="3.133772">
        <ele>10</ele>
        <time>1970-01-01T01:48:10.000Z</time>
      </trkpt>
      <trkpt lat="42.272077" lon="3.133739">
        <ele>10</ele>
        <time>1970-01-01T01:48:11.000Z</time>
      </trkpt>
      <trkpt lat="42.272063" lon="3.133707">
        <ele>10</ele>
        <time>1970-01-01T01:48:12.000Z</time>
      </trkpt>
      <trkpt lat="42.272048" lon="3.133674">
        <ele>10</ele>
        <time>1970-01-01T01:48:13.000Z</time>
      </trkpt>
      <trkpt lat="42.272033" lon="3.133641">
        <ele>12</ele>
        <time>1970-01-01T01:48:14.000Z</time>
      </trkpt>
      <trkpt lat="42.271993" lon="3.133575">
        <ele>12</ele>
        <time>1970-01-01T01:48:15.000Z</time>
      </trkpt>
      <trkpt lat="42.271969" lon="3.133536">
        <ele>12</ele>
        <time>1970-01-01T01:48:16.000Z</time>
      </trkpt>
      <trkpt lat="42.271946" lon="3.133498">
        <ele>12</ele>
        <time>1970-01-01T01:48:17.000Z</time>
      </trkpt>
      <trkpt lat="42.271922" lon="3.13346">
        <ele>12</ele>
        <time>1970-01-01T01:48:18.000Z</time>
      </trkpt>
      <trkpt lat="42.271898" lon="3.133421">
        <ele>12</ele>
        <time>1970-01-01T01:48:20.000Z</time>
      </trkpt>
      <trkpt lat="42.271874" lon="3.133383">
        <ele>12</ele>
        <time>1970-01-01T01:48:21.000Z</time>
      </trkpt>
      <trkpt lat="42.271851" lon="3.133345">
        <ele>12</ele>
        <time>1970-01-01T01:48:22.000Z</time>
      </trkpt>
      <trkpt lat="42.271827" lon="3.133306">
        <ele>12</ele>
        <time>1970-01-01T01:48:23.000Z</time>
      </trkpt>
      <trkpt lat="42.271803" lon="3.133268">
        <ele>13</ele>
        <time>1970-01-01T01:48:24.000Z</time>
      </trkpt>
      <trkpt lat="42.27174" lon="3.133174">
        <ele>13</ele>
        <time>1970-01-01T01:48:25.000Z</time>
      </trkpt>
      <trkpt lat="42.271706" lon="3.133124">
        <ele>13</ele>
        <time>1970-01-01T01:48:26.000Z</time>
      </trkpt>
      <trkpt lat="42.271673" lon="3.133073">
        <ele>13</ele>
        <time>1970-01-01T01:48:27.000Z</time>
      </trkpt>
      <trkpt lat="42.271639" lon="3.133022">
        <ele>13</ele>
        <time>1970-01-01T01:48:28.000Z</time>
      </trkpt>
      <trkpt lat="42.271605" lon="3.132972">
        <ele>13</ele>
        <time>1970-01-01T01:48:29.000Z</time>
      </trkpt>
      <trkpt lat="42.271571" lon="3.132921">
        <ele>13</ele>
        <time>1970-01-01T01:48:30.000Z</time>
      </trkpt>
      <trkpt lat="42.271538" lon="3.13287">
        <ele>13</ele>
        <time>1970-01-01T01:48:32.000Z</time>
      </trkpt>
      <trkpt lat="42.271504" lon="3.13282">
        <ele>13</ele>
        <time>1970-01-01T01:48:33.000Z</time>
      </trkpt>
      <trkpt lat="42.27147" lon="3.132769">
        <ele>13</ele>
        <time>1970-01-01T01:48:34.000Z</time>
      </trkpt>
      <trkpt lat="42.271387" lon="3.132642">
        <ele>13</ele>
        <time>1970-01-01T01:48:35.000Z</time>
      </trkpt>
      <trkpt lat="42.271341" lon="3.132573">
        <ele>13</ele>
        <time>1970-01-01T01:48:36.000Z</time>
      </trkpt>
      <trkpt lat="42.271295" lon="3.132503">
        <ele>13</ele>
        <time>1970-01-01T01:48:37.000Z</time>
      </trkpt>
      <trkpt lat="42.27125" lon="3.132434">
        <ele>13</ele>
        <time>1970-01-01T01:48:39.000Z</time>
      </trkpt>
      <trkpt lat="42.271204" lon="3.132364">
        <ele>13</ele>
        <time>1970-01-01T01:48:41.000Z</time>
      </trkpt>
      <trkpt lat="42.271158" lon="3.132295">
        <ele>13</ele>
        <time>1970-01-01T01:48:42.000Z</time>
      </trkpt>
      <trkpt lat="42.271112" lon="3.132225">
        <ele>13</ele>
        <time>1970-01-01T01:48:43.000Z</time>
      </trkpt>
      <trkpt lat="42.271066" lon="3.132156">
        <ele>12</ele>
        <time>1970-01-01T01:48:44.000Z</time>
      </trkpt>
      <trkpt lat="42.270976" lon="3.13202">
        <ele>12</ele>
        <time>1970-01-01T01:48:45.000Z</time>
      </trkpt>
      <trkpt lat="42.27093" lon="3.131949">
        <ele>12</ele>
        <time>1970-01-01T01:48:46.000Z</time>
      </trkpt>
      <trkpt lat="42.270884" lon="3.131879">
        <ele>12</ele>
        <time>1970-01-01T01:48:47.000Z</time>
      </trkpt>
      <trkpt lat="42.270838" lon="3.131808">
        <ele>12</ele>
        <time>1970-01-01T01:48:49.000Z</time>
      </trkpt>
      <trkpt lat="42.270793" lon="3.131738">
        <ele>12</ele>
        <time>1970-01-01T01:48:50.000Z</time>
      </trkpt>
      <trkpt lat="42.270747" lon="3.131667">
        <ele>12</ele>
        <time>1970-01-01T01:48:51.000Z</time>
      </trkpt>
      <trkpt lat="42.270701" lon="3.131597">
        <ele>12</ele>
        <time>1970-01-01T01:48:52.000Z</time>
      </trkpt>
      <trkpt lat="42.270655" lon="3.131526">
        <ele>12</ele>
        <time>1970-01-01T01:48:53.000Z</time>
      </trkpt>
      <trkpt lat="42.270609" lon="3.131456">
        <ele>11</ele>
        <time>1970-01-01T01:48:54.000Z</time>
      </trkpt>
      <trkpt lat="42.27046" lon="3.131228">
        <ele>11</ele>
        <time>1970-01-01T01:48:56.000Z</time>
      </trkpt>
      <trkpt lat="42.270405" lon="3.131144">
        <ele>11</ele>
        <time>1970-01-01T01:48:58.000Z</time>
      </trkpt>
      <trkpt lat="42.27035" lon="3.13106">
        <ele>11</ele>
        <time>1970-01-01T01:48:59.000Z</time>
      </trkpt>
      <trkpt lat="42.270296" lon="3.130975">
        <ele>11</ele>
        <time>1970-01-01T01:49:00.000Z</time>
      </trkpt>
      <trkpt lat="42.270241" lon="3.130891">
        <ele>11</ele>
        <time>1970-01-01T01:49:01.000Z</time>
      </trkpt>
      <trkpt lat="42.270186" lon="3.130807">
        <ele>11</ele>
        <time>1970-01-01T01:49:03.000Z</time>
      </trkpt>
      <trkpt lat="42.270131" lon="3.130723">
        <ele>10</ele>
        <time>1970-01-01T01:49:04.000Z</time>
      </trkpt>
      <trkpt lat="42.270036" lon="3.130577">
        <ele>10</ele>
        <time>1970-01-01T01:49:05.000Z</time>
      </trkpt>
      <trkpt lat="42.269988" lon="3.130506">
        <ele>10</ele>
        <time>1970-01-01T01:49:06.000Z</time>
      </trkpt>
      <trkpt lat="42.269941" lon="3.130434">
        <ele>10</ele>
        <time>1970-01-01T01:49:07.000Z</time>
      </trkpt>
      <trkpt lat="42.269893" lon="3.130362">
        <ele>10</ele>
        <time>1970-01-01T01:49:08.000Z</time>
      </trkpt>
      <trkpt lat="42.269846" lon="3.130291">
        <ele>10</ele>
        <time>1970-01-01T01:49:10.000Z</time>
      </trkpt>
      <trkpt lat="42.269798" lon="3.130219">
        <ele>10</ele>
        <time>1970-01-01T01:49:11.000Z</time>
      </trkpt>
      <trkpt lat="42.269751" lon="3.130147">
        <ele>10</ele>
        <time>1970-01-01T01:49:12.000Z</time>
      </trkpt>
      <trkpt lat="42.269703" lon="3.130076">
        <ele>10</ele>
        <time>1970-01-01T01:49:13.000Z</time>
      </trkpt>
      <trkpt lat="42.269656" lon="3.130004">
        <ele>8</ele>
        <time>1970-01-01T01:49:14.000Z</time>
      </trkpt>
      <trkpt lat="42.269556" lon="3.129856">
        <ele>8</ele>
        <time>1970-01-01T01:49:15.000Z</time>
      </trkpt>
      <trkpt lat="42.269504" lon="3.129777">
        <ele>8</ele>
        <time>1970-01-01T01:49:17.000Z</time>
      </trkpt>
      <trkpt lat="42.269451" lon="3.129698">
        <ele>8</ele>
        <time>1970-01-01T01:49:18.000Z</time>
      </trkpt>
      <trkpt lat="42.269399" lon="3.129619">
        <ele>8</ele>
        <time>1970-01-01T01:49:19.000Z</time>
      </trkpt>
      <trkpt lat="42.269346" lon="3.12954">
        <ele>8</ele>
        <time>1970-01-01T01:49:20.000Z</time>
      </trkpt>
      <trkpt lat="42.269293" lon="3.129461">
        <ele>8</ele>
        <time>1970-01-01T01:49:21.000Z</time>
      </trkpt>
      <trkpt lat="42.269241" lon="3.129382">
        <ele>8</ele>
        <time>1970-01-01T01:49:22.000Z</time>
      </trkpt>
      <trkpt lat="42.269188" lon="3.129303">
        <ele>8</ele>
        <time>1970-01-01T01:49:24.000Z</time>
      </trkpt>
      <trkpt lat="42.269096" lon="3.129163">
        <ele>8</ele>
        <time>1970-01-01T01:49:25.000Z</time>
      </trkpt>
      <trkpt lat="42.26905" lon="3.129093">
        <ele>8</ele>
        <time>1970-01-01T01:49:26.000Z</time>
      </trkpt>
      <trkpt lat="42.269005" lon="3.129024">
        <ele>8</ele>
        <time>1970-01-01T01:49:27.000Z</time>
      </trkpt>
      <trkpt lat="42.268959" lon="3.128954">
        <ele>8</ele>
        <time>1970-01-01T01:49:28.000Z</time>
      </trkpt>
      <trkpt lat="42.268914" lon="3.128885">
        <ele>8</ele>
        <time>1970-01-01T01:49:29.000Z</time>
      </trkpt>
      <trkpt lat="42.268868" lon="3.128815">
        <ele>8</ele>
        <time>1970-01-01T01:49:31.000Z</time>
      </trkpt>
      <trkpt lat="42.268823" lon="3.128746">
        <ele>8</ele>
        <time>1970-01-01T01:49:32.000Z</time>
      </trkpt>
      <trkpt lat="42.268777" lon="3.128676">
        <ele>8</ele>
        <time>1970-01-01T01:49:33.000Z</time>
      </trkpt>
      <trkpt lat="42.268732" lon="3.128607">
        <ele>9</ele>
        <time>1970-01-01T01:49:34.000Z</time>
      </trkpt>
      <trkpt lat="42.268595" lon="3.128399">
        <ele>9</ele>
        <time>1970-01-01T01:49:36.000Z</time>
      </trkpt>
      <trkpt lat="42.26855" lon="3.12833">
        <ele>9</ele>
        <time>1970-01-01T01:49:37.000Z</time>
      </trkpt>
      <trkpt lat="42.268504" lon="3.128261">
        <ele>9</ele>
        <time>1970-01-01T01:49:39.000Z</time>
      </trkpt>
      <trkpt lat="42.268458" lon="3.128191">
        <ele>9</ele>
        <time>1970-01-01T01:49:40.000Z</time>
      </trkpt>
      <trkpt lat="42.268412" lon="3.128122">
        <ele>9</ele>
        <time>1970-01-01T01:49:41.000Z</time>
      </trkpt>
      <trkpt lat="42.268367" lon="3.128053">
        <ele>9</ele>
        <time>1970-01-01T01:49:42.000Z</time>
      </trkpt>
      <trkpt lat="42.268321" lon="3.127984">
        <ele>9</ele>
        <time>1970-01-01T01:49:43.000Z</time>
      </trkpt>
      <trkpt lat="42.268275" lon="3.127915">
        <ele>8</ele>
        <time>1970-01-01T01:49:44.000Z</time>
      </trkpt>
      <trkpt lat="42.268134" lon="3.127699">
        <ele>8</ele>
        <time>1970-01-01T01:49:46.000Z</time>
      </trkpt>
      <trkpt lat="42.268084" lon="3.127621">
        <ele>8</ele>
        <time>1970-01-01T01:49:47.000Z</time>
      </trkpt>
      <trkpt lat="42.268034" lon="3.127544">
        <ele>8</ele>
        <time>1970-01-01T01:49:48.000Z</time>
      </trkpt>
      <trkpt lat="42.267984" lon="3.127466">
        <ele>8</ele>
        <time>1970-01-01T01:49:49.000Z</time>
      </trkpt>
      <trkpt lat="42.267933" lon="3.127389">
        <ele>8</ele>
        <time>1970-01-01T01:49:50.000Z</time>
      </trkpt>
      <trkpt lat="42.267883" lon="3.127312">
        <ele>8</ele>
        <time>1970-01-01T01:49:51.000Z</time>
      </trkpt>
      <trkpt lat="42.267833" lon="3.127234">
        <ele>8</ele>
        <time>1970-01-01T01:49:53.000Z</time>
      </trkpt>
      <trkpt lat="42.267783" lon="3.127157">
        <ele>8</ele>
        <time>1970-01-01T01:49:55.000Z</time>
      </trkpt>
      <trkpt lat="42.267702" lon="3.127024">
        <ele>8</ele>
        <time>1970-01-01T01:49:56.000Z</time>
      </trkpt>
      <trkpt lat="42.267664" lon="3.12696">
        <ele>8</ele>
        <time>1970-01-01T01:49:57.000Z</time>
      </trkpt>
      <trkpt lat="42.267627" lon="3.126896">
        <ele>8</ele>
        <time>1970-01-01T01:49:58.000Z</time>
      </trkpt>
      <trkpt lat="42.26759" lon="3.126832">
        <ele>8</ele>
        <time>1970-01-01T01:49:59.000Z</time>
      </trkpt>
      <trkpt lat="42.267552" lon="3.126767">
        <ele>8</ele>
        <time>1970-01-01T01:50:00.000Z</time>
      </trkpt>
      <trkpt lat="42.267515" lon="3.126703">
        <ele>8</ele>
        <time>1970-01-01T01:50:01.000Z</time>
      </trkpt>
      <trkpt lat="42.267478" lon="3.126639">
        <ele>8</ele>
        <time>1970-01-01T01:50:02.000Z</time>
      </trkpt>
      <trkpt lat="42.26744" lon="3.126575">
        <ele>8</ele>
        <time>1970-01-01T01:50:03.000Z</time>
      </trkpt>
      <trkpt lat="42.267403" lon="3.126511">
        <ele>7</ele>
        <time>1970-01-01T01:50:04.000Z</time>
      </trkpt>
      <trkpt lat="42.26733" lon="3.126342">
        <ele>7</ele>
        <time>1970-01-01T01:50:05.000Z</time>
      </trkpt>
      <trkpt lat="42.267296" lon="3.126251">
        <ele>7</ele>
        <time>1970-01-01T01:50:06.000Z</time>
      </trkpt>
      <trkpt lat="42.267261" lon="3.12616">
        <ele>7</ele>
        <time>1970-01-01T01:50:08.000Z</time>
      </trkpt>
      <trkpt lat="42.267227" lon="3.126069">
        <ele>7</ele>
        <time>1970-01-01T01:50:09.000Z</time>
      </trkpt>
      <trkpt lat="42.267192" lon="3.125978">
        <ele>7</ele>
        <time>1970-01-01T01:50:10.000Z</time>
      </trkpt>
      <trkpt lat="42.267157" lon="3.125887">
        <ele>7</ele>
        <time>1970-01-01T01:50:11.000Z</time>
      </trkpt>
      <trkpt lat="42.267123" lon="3.125796">
        <ele>7</ele>
        <time>1970-01-01T01:50:12.000Z</time>
      </trkpt>
      <trkpt lat="42.267088" lon="3.125705">
        <ele>7</ele>
        <time>1970-01-01T01:50:14.000Z</time>
      </trkpt>
      <trkpt lat="42.267002" lon="3.12546">
        <ele>7</ele>
        <time>1970-01-01T01:50:16.000Z</time>
      </trkpt>
      <trkpt lat="42.266973" lon="3.125377">
        <ele>7</ele>
        <time>1970-01-01T01:50:17.000Z</time>
      </trkpt>
      <trkpt lat="42.266944" lon="3.125294">
        <ele>7</ele>
        <time>1970-01-01T01:50:18.000Z</time>
      </trkpt>
      <trkpt lat="42.266915" lon="3.125211">
        <ele>7</ele>
        <time>1970-01-01T01:50:19.000Z</time>
      </trkpt>
      <trkpt lat="42.266886" lon="3.125128">
        <ele>7</ele>
        <time>1970-01-01T01:50:20.000Z</time>
      </trkpt>
      <trkpt lat="42.266857" lon="3.125045">
        <ele>7</ele>
        <time>1970-01-01T01:50:21.000Z</time>
      </trkpt>
      <trkpt lat="42.266828" lon="3.124962">
        <ele>7</ele>
        <time>1970-01-01T01:50:23.000Z</time>
      </trkpt>
      <trkpt lat="42.266799" lon="3.124879">
        <ele>6</ele>
        <time>1970-01-01T01:50:24.000Z</time>
      </trkpt>
      <trkpt lat="42.266735" lon="3.124698">
        <ele>6</ele>
        <time>1970-01-01T01:50:25.000Z</time>
      </trkpt>
      <trkpt lat="42.266701" lon="3.124601">
        <ele>6</ele>
        <time>1970-01-01T01:50:26.000Z</time>
      </trkpt>
      <trkpt lat="42.266667" lon="3.124504">
        <ele>6</ele>
        <time>1970-01-01T01:50:27.000Z</time>
      </trkpt>
      <trkpt lat="42.266633" lon="3.124406">
        <ele>6</ele>
        <time>1970-01-01T01:50:28.000Z</time>
      </trkpt>
      <trkpt lat="42.266598" lon="3.124309">
        <ele>6</ele>
        <time>1970-01-01T01:50:30.000Z</time>
      </trkpt>
      <trkpt lat="42.266564" lon="3.124212">
        <ele>6</ele>
        <time>1970-01-01T01:50:31.000Z</time>
      </trkpt>
      <trkpt lat="42.26653" lon="3.124115">
        <ele>6</ele>
        <time>1970-01-01T01:50:33.000Z</time>
      </trkpt>
      <trkpt lat="42.266496" lon="3.124018">
        <ele>7</ele>
        <time>1970-01-01T01:50:34.000Z</time>
      </trkpt>
      <trkpt lat="42.266435" lon="3.123844">
        <ele>7</ele>
        <time>1970-01-01T01:50:35.000Z</time>
      </trkpt>
      <trkpt lat="42.266405" lon="3.123758">
        <ele>7</ele>
        <time>1970-01-01T01:50:37.000Z</time>
      </trkpt>
      <trkpt lat="42.266375" lon="3.123673">
        <ele>7</ele>
        <time>1970-01-01T01:50:38.000Z</time>
      </trkpt>
      <trkpt lat="42.266345" lon="3.123587">
        <ele>7</ele>
        <time>1970-01-01T01:50:39.000Z</time>
      </trkpt>
      <trkpt lat="42.266314" lon="3.123501">
        <ele>7</ele>
        <time>1970-01-01T01:50:40.000Z</time>
      </trkpt>
      <trkpt lat="42.266284" lon="3.123415">
        <ele>7</ele>
        <time>1970-01-01T01:50:41.000Z</time>
      </trkpt>
      <trkpt lat="42.266254" lon="3.12333">
        <ele>7</ele>
        <time>1970-01-01T01:50:42.000Z</time>
      </trkpt>
      <trkpt lat="42.266224" lon="3.123244">
        <ele>7</ele>
        <time>1970-01-01T01:50:43.000Z</time>
      </trkpt>
      <trkpt lat="42.266194" lon="3.123158">
        <ele>7</ele>
        <time>1970-01-01T01:50:44.000Z</time>
      </trkpt>
      <trkpt lat="42.266135" lon="3.122991">
        <ele>7</ele>
        <time>1970-01-01T01:50:45.000Z</time>
      </trkpt>
      <trkpt lat="42.266105" lon="3.122907">
        <ele>7</ele>
        <time>1970-01-01T01:50:46.000Z</time>
      </trkpt>
      <trkpt lat="42.266076" lon="3.122824">
        <ele>7</ele>
        <time>1970-01-01T01:50:47.000Z</time>
      </trkpt>
      <trkpt lat="42.266046" lon="3.122741">
        <ele>7</ele>
        <time>1970-01-01T01:50:48.000Z</time>
      </trkpt>
      <trkpt lat="42.266017" lon="3.122657">
        <ele>7</ele>
        <time>1970-01-01T01:50:49.000Z</time>
      </trkpt>
      <trkpt lat="42.265987" lon="3.122574">
        <ele>7</ele>
        <time>1970-01-01T01:50:51.000Z</time>
      </trkpt>
      <trkpt lat="42.265958" lon="3.122491">
        <ele>7</ele>
        <time>1970-01-01T01:50:52.000Z</time>
      </trkpt>
      <trkpt lat="42.265928" lon="3.122407">
        <ele>7</ele>
        <time>1970-01-01T01:50:53.000Z</time>
      </trkpt>
      <trkpt lat="42.265899" lon="3.122324">
        <ele>7</ele>
        <time>1970-01-01T01:50:54.000Z</time>
      </trkpt>
      <trkpt lat="42.265841" lon="3.12216">
        <ele>7</ele>
        <time>1970-01-01T01:50:55.000Z</time>
      </trkpt>
      <trkpt lat="42.265812" lon="3.122078">
        <ele>7</ele>
        <time>1970-01-01T01:50:56.000Z</time>
      </trkpt>
      <trkpt lat="42.265783" lon="3.121996">
        <ele>7</ele>
        <time>1970-01-01T01:50:57.000Z</time>
      </trkpt>
      <trkpt lat="42.265754" lon="3.121914">
        <ele>7</ele>
        <time>1970-01-01T01:50:59.000Z</time>
      </trkpt>
      <trkpt lat="42.265725" lon="3.121832">
        <ele>7</ele>
        <time>1970-01-01T01:51:00.000Z</time>
      </trkpt>
      <trkpt lat="42.265696" lon="3.12175">
        <ele>7</ele>
        <time>1970-01-01T01:51:01.000Z</time>
      </trkpt>
      <trkpt lat="42.265667" lon="3.121668">
        <ele>7</ele>
        <time>1970-01-01T01:51:02.000Z</time>
      </trkpt>
      <trkpt lat="42.265638" lon="3.121586">
        <ele>7</ele>
        <time>1970-01-01T01:51:03.000Z</time>
      </trkpt>
      <trkpt lat="42.265609" lon="3.121504">
        <ele>7</ele>
        <time>1970-01-01T01:51:04.000Z</time>
      </trkpt>
      <trkpt lat="42.265527" lon="3.121256">
        <ele>7</ele>
        <time>1970-01-01T01:51:06.000Z</time>
      </trkpt>
      <trkpt lat="42.265502" lon="3.12117">
        <ele>7</ele>
        <time>1970-01-01T01:51:07.000Z</time>
      </trkpt>
      <trkpt lat="42.265477" lon="3.121085">
        <ele>7</ele>
        <time>1970-01-01T01:51:08.000Z</time>
      </trkpt>
      <trkpt lat="42.265452" lon="3.120999">
        <ele>7</ele>
        <time>1970-01-01T01:51:09.000Z</time>
      </trkpt>
      <trkpt lat="42.265427" lon="3.120913">
        <ele>7</ele>
        <time>1970-01-01T01:51:11.000Z</time>
      </trkpt>
      <trkpt lat="42.265402" lon="3.120827">
        <ele>7</ele>
        <time>1970-01-01T01:51:12.000Z</time>
      </trkpt>
      <trkpt lat="42.265377" lon="3.120742">
        <ele>7</ele>
        <time>1970-01-01T01:51:13.000Z</time>
      </trkpt>
      <trkpt lat="42.265352" lon="3.120656">
        <ele>8</ele>
        <time>1970-01-01T01:51:14.000Z</time>
      </trkpt>
      <trkpt lat="42.265325" lon="3.120477">
        <ele>8</ele>
        <time>1970-01-01T01:51:15.000Z</time>
      </trkpt>
      <trkpt lat="42.265317" lon="3.120388">
        <ele>8</ele>
        <time>1970-01-01T01:51:16.000Z</time>
      </trkpt>
      <trkpt lat="42.265309" lon="3.120298">
        <ele>8</ele>
        <time>1970-01-01T01:51:17.000Z</time>
      </trkpt>
      <trkpt lat="42.265301" lon="3.120209">
        <ele>8</ele>
        <time>1970-01-01T01:51:18.000Z</time>
      </trkpt>
      <trkpt lat="42.265292" lon="3.12012">
        <ele>8</ele>
        <time>1970-01-01T01:51:19.000Z</time>
      </trkpt>
      <trkpt lat="42.265284" lon="3.120031">
        <ele>8</ele>
        <time>1970-01-01T01:51:21.000Z</time>
      </trkpt>
      <trkpt lat="42.265276" lon="3.119941">
        <ele>8</ele>
        <time>1970-01-01T01:51:22.000Z</time>
      </trkpt>
      <trkpt lat="42.265268" lon="3.119852">
        <ele>8</ele>
        <time>1970-01-01T01:51:23.000Z</time>
      </trkpt>
      <trkpt lat="42.26526" lon="3.119763">
        <ele>7</ele>
        <time>1970-01-01T01:51:24.000Z</time>
      </trkpt>
      <trkpt lat="42.265257" lon="3.119587">
        <ele>7</ele>
        <time>1970-01-01T01:51:25.000Z</time>
      </trkpt>
      <trkpt lat="42.265256" lon="3.119499">
        <ele>7</ele>
        <time>1970-01-01T01:51:26.000Z</time>
      </trkpt>
      <trkpt lat="42.265255" lon="3.119411">
        <ele>7</ele>
        <time>1970-01-01T01:51:27.000Z</time>
      </trkpt>
      <trkpt lat="42.265254" lon="3.119323">
        <ele>7</ele>
        <time>1970-01-01T01:51:29.000Z</time>
      </trkpt>
      <trkpt lat="42.265252" lon="3.119235">
        <ele>7</ele>
        <time>1970-01-01T01:51:30.000Z</time>
      </trkpt>
      <trkpt lat="42.265251" lon="3.119147">
        <ele>7</ele>
        <time>1970-01-01T01:51:31.000Z</time>
      </trkpt>
      <trkpt lat="42.26525" lon="3.119059">
        <ele>7</ele>
        <time>1970-01-01T01:51:32.000Z</time>
      </trkpt>
      <trkpt lat="42.265249" lon="3.118971">
        <ele>7</ele>
        <time>1970-01-01T01:51:33.000Z</time>
      </trkpt>
      <trkpt lat="42.265248" lon="3.118883">
        <ele>7</ele>
        <time>1970-01-01T01:51:34.000Z</time>
      </trkpt>
      <trkpt lat="42.265243" lon="3.118623">
        <ele>7</ele>
        <time>1970-01-01T01:51:36.000Z</time>
      </trkpt>
      <trkpt lat="42.265241" lon="3.118535">
        <ele>7</ele>
        <time>1970-01-01T01:51:37.000Z</time>
      </trkpt>
      <trkpt lat="42.26524" lon="3.118447">
        <ele>7</ele>
        <time>1970-01-01T01:51:38.000Z</time>
      </trkpt>
      <trkpt lat="42.265238" lon="3.118359">
        <ele>7</ele>
        <time>1970-01-01T01:51:39.000Z</time>
      </trkpt>
      <trkpt lat="42.265237" lon="3.118271">
        <ele>7</ele>
        <time>1970-01-01T01:51:40.000Z</time>
      </trkpt>
      <trkpt lat="42.265235" lon="3.118183">
        <ele>7</ele>
        <time>1970-01-01T01:51:41.000Z</time>
      </trkpt>
      <trkpt lat="42.265234" lon="3.118095">
        <ele>7</ele>
        <time>1970-01-01T01:51:42.000Z</time>
      </trkpt>
      <trkpt lat="42.265232" lon="3.118007">
        <ele>7</ele>
        <time>1970-01-01T01:51:44.000Z</time>
      </trkpt>
      <trkpt lat="42.265229" lon="3.117829">
        <ele>7</ele>
        <time>1970-01-01T01:51:45.000Z</time>
      </trkpt>
      <trkpt lat="42.265227" lon="3.117739">
        <ele>7</ele>
        <time>1970-01-01T01:51:46.000Z</time>
      </trkpt>
      <trkpt lat="42.265226" lon="3.117649">
        <ele>7</ele>
        <time>1970-01-01T01:51:47.000Z</time>
      </trkpt>
      <trkpt lat="42.265224" lon="3.117559">
        <ele>7</ele>
        <time>1970-01-01T01:51:49.000Z</time>
      </trkpt>
      <trkpt lat="42.265223" lon="3.117468">
        <ele>7</ele>
        <time>1970-01-01T01:51:50.000Z</time>
      </trkpt>
      <trkpt lat="42.265221" lon="3.117378">
        <ele>7</ele>
        <time>1970-01-01T01:51:51.000Z</time>
      </trkpt>
      <trkpt lat="42.26522" lon="3.117288">
        <ele>7</ele>
        <time>1970-01-01T01:51:52.000Z</time>
      </trkpt>
      <trkpt lat="42.265218" lon="3.117198">
        <ele>7</ele>
        <time>1970-01-01T01:51:53.000Z</time>
      </trkpt>
      <trkpt lat="42.265217" lon="3.117108">
        <ele>7</ele>
        <time>1970-01-01T01:51:54.000Z</time>
      </trkpt>
      <trkpt lat="42.265213" lon="3.116926">
        <ele>7</ele>
        <time>1970-01-01T01:51:55.000Z</time>
      </trkpt>
      <trkpt lat="42.265211" lon="3.116833">
        <ele>7</ele>
        <time>1970-01-01T01:51:56.000Z</time>
      </trkpt>
      <trkpt lat="42.26521" lon="3.116741">
        <ele>7</ele>
        <time>1970-01-01T01:51:57.000Z</time>
      </trkpt>
      <trkpt lat="42.265208" lon="3.116648">
        <ele>7</ele>
        <time>1970-01-01T01:51:59.000Z</time>
      </trkpt>
      <trkpt lat="42.265206" lon="3.116556">
        <ele>7</ele>
        <time>1970-01-01T01:52:00.000Z</time>
      </trkpt>
      <trkpt lat="42.265204" lon="3.116463">
        <ele>7</ele>
        <time>1970-01-01T01:52:01.000Z</time>
      </trkpt>
      <trkpt lat="42.265203" lon="3.116371">
        <ele>7</ele>
        <time>1970-01-01T01:52:02.000Z</time>
      </trkpt>
      <trkpt lat="42.265201" lon="3.116278">
        <ele>7</ele>
        <time>1970-01-01T01:52:03.000Z</time>
      </trkpt>
      <trkpt lat="42.265199" lon="3.116186">
        <ele>7</ele>
        <time>1970-01-01T01:52:04.000Z</time>
      </trkpt>
      <trkpt lat="42.265192" lon="3.115893">
        <ele>7</ele>
        <time>1970-01-01T01:52:06.000Z</time>
      </trkpt>
      <trkpt lat="42.26519" lon="3.115787">
        <ele>7</ele>
        <time>1970-01-01T01:52:08.000Z</time>
      </trkpt>
      <trkpt lat="42.265188" lon="3.115681">
        <ele>7</ele>
        <time>1970-01-01T01:52:09.000Z</time>
      </trkpt>
      <trkpt lat="42.265185" lon="3.115574">
        <ele>7</ele>
        <time>1970-01-01T01:52:10.000Z</time>
      </trkpt>
      <trkpt lat="42.265183" lon="3.115468">
        <ele>7</ele>
        <time>1970-01-01T01:52:11.000Z</time>
      </trkpt>
      <trkpt lat="42.265181" lon="3.115362">
        <ele>7</ele>
        <time>1970-01-01T01:52:13.000Z</time>
      </trkpt>
      <trkpt lat="42.265179" lon="3.115256">
        <ele>7</ele>
        <time>1970-01-01T01:52:14.000Z</time>
      </trkpt>
      <trkpt lat="42.265174" lon="3.115075">
        <ele>7</ele>
        <time>1970-01-01T01:52:15.000Z</time>
      </trkpt>
      <trkpt lat="42.265173" lon="3.114985">
        <ele>7</ele>
        <time>1970-01-01T01:52:16.000Z</time>
      </trkpt>
      <trkpt lat="42.265171" lon="3.114895">
        <ele>7</ele>
        <time>1970-01-01T01:52:17.000Z</time>
      </trkpt>
      <trkpt lat="42.26517" lon="3.114805">
        <ele>7</ele>
        <time>1970-01-01T01:52:18.000Z</time>
      </trkpt>
      <trkpt lat="42.265168" lon="3.114714">
        <ele>7</ele>
        <time>1970-01-01T01:52:19.000Z</time>
      </trkpt>
      <trkpt lat="42.265167" lon="3.114624">
        <ele>7</ele>
        <time>1970-01-01T01:52:21.000Z</time>
      </trkpt>
      <trkpt lat="42.265165" lon="3.114534">
        <ele>7</ele>
        <time>1970-01-01T01:52:22.000Z</time>
      </trkpt>
      <trkpt lat="42.265164" lon="3.114444">
        <ele>7</ele>
        <time>1970-01-01T01:52:23.000Z</time>
      </trkpt>
      <trkpt lat="42.265162" lon="3.114354">
        <ele>7</ele>
        <time>1970-01-01T01:52:24.000Z</time>
      </trkpt>
      <trkpt lat="42.265159" lon="3.114172">
        <ele>7</ele>
        <time>1970-01-01T01:52:25.000Z</time>
      </trkpt>
      <trkpt lat="42.265157" lon="3.114076">
        <ele>7</ele>
        <time>1970-01-01T01:52:27.000Z</time>
      </trkpt>
      <trkpt lat="42.265155" lon="3.113981">
        <ele>7</ele>
        <time>1970-01-01T01:52:29.000Z</time>
      </trkpt>
      <trkpt lat="42.265153" lon="3.113885">
        <ele>7</ele>
        <time>1970-01-01T01:52:30.000Z</time>
      </trkpt>
      <trkpt lat="42.265151" lon="3.11379">
        <ele>7</ele>
        <time>1970-01-01T01:52:31.000Z</time>
      </trkpt>
      <trkpt lat="42.265149" lon="3.113695">
        <ele>7</ele>
        <time>1970-01-01T01:52:32.000Z</time>
      </trkpt>
      <trkpt lat="42.265147" lon="3.113599">
        <ele>7</ele>
        <time>1970-01-01T01:52:33.000Z</time>
      </trkpt>
      <trkpt lat="42.265145" lon="3.113504">
        <ele>7</ele>
        <time>1970-01-01T01:52:34.000Z</time>
      </trkpt>
      <trkpt lat="42.26514" lon="3.113262">
        <ele>7</ele>
        <time>1970-01-01T01:52:36.000Z</time>
      </trkpt>
      <trkpt lat="42.265138" lon="3.113185">
        <ele>7</ele>
        <time>1970-01-01T01:52:37.000Z</time>
      </trkpt>
      <trkpt lat="42.265136" lon="3.113108">
        <ele>7</ele>
        <time>1970-01-01T01:52:38.000Z</time>
      </trkpt>
      <trkpt lat="42.265134" lon="3.113031">
        <ele>7</ele>
        <time>1970-01-01T01:52:39.000Z</time>
      </trkpt>
      <trkpt lat="42.265132" lon="3.112955">
        <ele>7</ele>
        <time>1970-01-01T01:52:40.000Z</time>
      </trkpt>
      <trkpt lat="42.26513" lon="3.112878">
        <ele>7</ele>
        <time>1970-01-01T01:52:41.000Z</time>
      </trkpt>
      <trkpt lat="42.265128" lon="3.112801">
        <ele>7</ele>
        <time>1970-01-01T01:52:42.000Z</time>
      </trkpt>
      <trkpt lat="42.265126" lon="3.112724">
        <ele>7</ele>
        <time>1970-01-01T01:52:43.000Z</time>
      </trkpt>
      <trkpt lat="42.265124" lon="3.112647">
        <ele>7</ele>
        <time>1970-01-01T01:52:45.000Z</time>
      </trkpt>
      <trkpt lat="42.265119" lon="3.112492">
        <ele>7</ele>
        <time>1970-01-01T01:52:46.000Z</time>
      </trkpt>
      <trkpt lat="42.265117" lon="3.112413">
        <ele>7</ele>
        <time>1970-01-01T01:52:47.000Z</time>
      </trkpt>
      <trkpt lat="42.265114" lon="3.112335">
        <ele>7</ele>
        <time>1970-01-01T01:52:48.000Z</time>
      </trkpt>
      <trkpt lat="42.265112" lon="3.112256">
        <ele>7</ele>
        <time>1970-01-01T01:52:49.000Z</time>
      </trkpt>
      <trkpt lat="42.265109" lon="3.112177">
        <ele>7</ele>
        <time>1970-01-01T01:52:50.000Z</time>
      </trkpt>
      <trkpt lat="42.265106" lon="3.112098">
        <ele>7</ele>
        <time>1970-01-01T01:52:51.000Z</time>
      </trkpt>
      <trkpt lat="42.265104" lon="3.11202">
        <ele>7</ele>
        <time>1970-01-01T01:52:52.000Z</time>
      </trkpt>
      <trkpt lat="42.265101" lon="3.111941">
        <ele>7</ele>
        <time>1970-01-01T01:52:54.000Z</time>
      </trkpt>
      <trkpt lat="42.265095" lon="3.111802">
        <ele>7</ele>
        <time>1970-01-01T01:52:55.000Z</time>
      </trkpt>
      <trkpt lat="42.265091" lon="3.11174">
        <ele>7</ele>
        <time>1970-01-01T01:52:56.000Z</time>
      </trkpt>
      <trkpt lat="42.265088" lon="3.111679">
        <ele>7</ele>
        <time>1970-01-01T01:52:57.000Z</time>
      </trkpt>
      <trkpt lat="42.265085" lon="3.111617">
        <ele>7</ele>
        <time>1970-01-01T01:52:58.000Z</time>
      </trkpt>
      <trkpt lat="42.265081" lon="3.111556">
        <ele>7</ele>
        <time>1970-01-01T01:52:59.000Z</time>
      </trkpt>
      <trkpt lat="42.265078" lon="3.111494">
        <ele>7</ele>
        <time>1970-01-01T01:53:00.000Z</time>
      </trkpt>
      <trkpt lat="42.265075" lon="3.111433">
        <ele>7</ele>
        <time>1970-01-01T01:53:01.000Z</time>
      </trkpt>
      <trkpt lat="42.265071" lon="3.111371">
        <ele>7</ele>
        <time>1970-01-01T01:53:03.000Z</time>
      </trkpt>
      <trkpt lat="42.265068" lon="3.11131">
        <ele>7</ele>
        <time>1970-01-01T01:53:04.000Z</time>
      </trkpt>
      <trkpt lat="42.265078" lon="3.111224">
        <ele>7</ele>
        <time>1970-01-01T01:53:05.000Z</time>
      </trkpt>
      <trkpt lat="42.26508" lon="3.111181">
        <ele>7</ele>
        <time>1970-01-01T01:53:06.000Z</time>
      </trkpt>
      <trkpt lat="42.265082" lon="3.111137">
        <ele>7</ele>
        <time>1970-01-01T01:53:07.000Z</time>
      </trkpt>
      <trkpt lat="42.265084" lon="3.111094">
        <ele>7</ele>
        <time>1970-01-01T01:53:08.000Z</time>
      </trkpt>
      <trkpt lat="42.265086" lon="3.111051">
        <ele>7</ele>
        <time>1970-01-01T01:53:09.000Z</time>
      </trkpt>
      <trkpt lat="42.265088" lon="3.111008">
        <ele>7</ele>
        <time>1970-01-01T01:53:10.000Z</time>
      </trkpt>
      <trkpt lat="42.26509" lon="3.110965">
        <ele>7</ele>
        <time>1970-01-01T01:53:11.000Z</time>
      </trkpt>
      <trkpt lat="42.265092" lon="3.110921">
        <ele>7</ele>
        <time>1970-01-01T01:53:12.000Z</time>
      </trkpt>
      <trkpt lat="42.265094" lon="3.110878">
        <ele>7</ele>
        <time>1970-01-01T01:53:13.000Z</time>
      </trkpt>
      <trkpt lat="42.265096" lon="3.110835">
        <ele>7</ele>
        <time>1970-01-01T01:53:14.000Z</time>
      </trkpt>
      <trkpt lat="42.265003" lon="3.110666">
        <ele>7</ele>
        <time>1970-01-01T01:53:16.000Z</time>
      </trkpt>
      <trkpt lat="42.264968" lon="3.110604">
        <ele>7</ele>
        <time>1970-01-01T01:53:17.000Z</time>
      </trkpt>
      <trkpt lat="42.264933" lon="3.110542">
        <ele>7</ele>
        <time>1970-01-01T01:53:18.000Z</time>
      </trkpt>
      <trkpt lat="42.264898" lon="3.110479">
        <ele>7</ele>
        <time>1970-01-01T01:53:19.000Z</time>
      </trkpt>
      <trkpt lat="42.264862" lon="3.110417">
        <ele>7</ele>
        <time>1970-01-01T01:53:20.000Z</time>
      </trkpt>
      <trkpt lat="42.264827" lon="3.110355">
        <ele>7</ele>
        <time>1970-01-01T01:53:21.000Z</time>
      </trkpt>
      <trkpt lat="42.264792" lon="3.110293">
        <ele>7</ele>
        <time>1970-01-01T01:53:22.000Z</time>
      </trkpt>
      <trkpt lat="42.264757" lon="3.110231">
        <ele>7</ele>
        <time>1970-01-01T01:53:24.000Z</time>
      </trkpt>
      <trkpt lat="42.26471" lon="3.110079">
        <ele>7</ele>
        <time>1970-01-01T01:53:25.000Z</time>
      </trkpt>
      <trkpt lat="42.264688" lon="3.110001">
        <ele>7</ele>
        <time>1970-01-01T01:53:26.000Z</time>
      </trkpt>
      <trkpt lat="42.264666" lon="3.109923">
        <ele>7</ele>
        <time>1970-01-01T01:53:27.000Z</time>
      </trkpt>
      <trkpt lat="42.264644" lon="3.109845">
        <ele>7</ele>
        <time>1970-01-01T01:53:28.000Z</time>
      </trkpt>
      <trkpt lat="42.264622" lon="3.109766">
        <ele>7</ele>
        <time>1970-01-01T01:53:29.000Z</time>
      </trkpt>
      <trkpt lat="42.2646" lon="3.109688">
        <ele>7</ele>
        <time>1970-01-01T01:53:30.000Z</time>
      </trkpt>
      <trkpt lat="42.264578" lon="3.10961">
        <ele>7</ele>
        <time>1970-01-01T01:53:31.000Z</time>
      </trkpt>
      <trkpt lat="42.264556" lon="3.109532">
        <ele>7</ele>
        <time>1970-01-01T01:53:33.000Z</time>
      </trkpt>
      <trkpt lat="42.264534" lon="3.109454">
        <ele>6</ele>
        <time>1970-01-01T01:53:34.000Z</time>
      </trkpt>
      <trkpt lat="42.264485" lon="3.109283">
        <ele>6</ele>
        <time>1970-01-01T01:53:35.000Z</time>
      </trkpt>
      <trkpt lat="42.26446" lon="3.109192">
        <ele>6</ele>
        <time>1970-01-01T01:53:36.000Z</time>
      </trkpt>
      <trkpt lat="42.264434" lon="3.109101">
        <ele>6</ele>
        <time>1970-01-01T01:53:37.000Z</time>
      </trkpt>
      <trkpt lat="42.264409" lon="3.10901">
        <ele>6</ele>
        <time>1970-01-01T01:53:38.000Z</time>
      </trkpt>
      <trkpt lat="42.264384" lon="3.10892">
        <ele>6</ele>
        <time>1970-01-01T01:53:39.000Z</time>
      </trkpt>
      <trkpt lat="42.264359" lon="3.108829">
        <ele>6</ele>
        <time>1970-01-01T01:53:41.000Z</time>
      </trkpt>
      <trkpt lat="42.264333" lon="3.108738">
        <ele>6</ele>
        <time>1970-01-01T01:53:43.000Z</time>
      </trkpt>
      <trkpt lat="42.264308" lon="3.108647">
        <ele>6</ele>
        <time>1970-01-01T01:53:44.000Z</time>
      </trkpt>
      <trkpt lat="42.264263" lon="3.108487">
        <ele>6</ele>
        <time>1970-01-01T01:53:45.000Z</time>
      </trkpt>
      <trkpt lat="42.264241" lon="3.108406">
        <ele>6</ele>
        <time>1970-01-01T01:53:46.000Z</time>
      </trkpt>
      <trkpt lat="42.26422" lon="3.108326">
        <ele>6</ele>
        <time>1970-01-01T01:53:47.000Z</time>
      </trkpt>
      <trkpt lat="42.264198" lon="3.108246">
        <ele>6</ele>
        <time>1970-01-01T01:53:49.000Z</time>
      </trkpt>
      <trkpt lat="42.264176" lon="3.108165">
        <ele>6</ele>
        <time>1970-01-01T01:53:50.000Z</time>
      </trkpt>
      <trkpt lat="42.264154" lon="3.108085">
        <ele>6</ele>
        <time>1970-01-01T01:53:51.000Z</time>
      </trkpt>
      <trkpt lat="42.264133" lon="3.108005">
        <ele>6</ele>
        <time>1970-01-01T01:53:52.000Z</time>
      </trkpt>
      <trkpt lat="42.264111" lon="3.107924">
        <ele>6</ele>
        <time>1970-01-01T01:53:53.000Z</time>
      </trkpt>
      <trkpt lat="42.264089" lon="3.107844">
        <ele>6</ele>
        <time>1970-01-01T01:53:54.000Z</time>
      </trkpt>
      <trkpt lat="42.264046" lon="3.10767">
        <ele>6</ele>
        <time>1970-01-01T01:53:55.000Z</time>
      </trkpt>
      <trkpt lat="42.264025" lon="3.107577">
        <ele>6</ele>
        <time>1970-01-01T01:53:57.000Z</time>
      </trkpt>
      <trkpt lat="42.264004" lon="3.107483">
        <ele>6</ele>
        <time>1970-01-01T01:53:58.000Z</time>
      </trkpt>
      <trkpt lat="42.263983" lon="3.10739">
        <ele>6</ele>
        <time>1970-01-01T01:53:59.000Z</time>
      </trkpt>
      <trkpt lat="42.263961" lon="3.107296">
        <ele>6</ele>
        <time>1970-01-01T01:54:00.000Z</time>
      </trkpt>
      <trkpt lat="42.26394" lon="3.107203">
        <ele>6</ele>
        <time>1970-01-01T01:54:02.000Z</time>
      </trkpt>
      <trkpt lat="42.263919" lon="3.107109">
        <ele>6</ele>
        <time>1970-01-01T01:54:03.000Z</time>
      </trkpt>
      <trkpt lat="42.263898" lon="3.107016">
        <ele>5</ele>
        <time>1970-01-01T01:54:04.000Z</time>
      </trkpt>
      <trkpt lat="42.263858" lon="3.106859">
        <ele>5</ele>
        <time>1970-01-01T01:54:05.000Z</time>
      </trkpt>
      <trkpt lat="42.263839" lon="3.106781">
        <ele>5</ele>
        <time>1970-01-01T01:54:06.000Z</time>
      </trkpt>
      <trkpt lat="42.263819" lon="3.106703">
        <ele>5</ele>
        <time>1970-01-01T01:54:07.000Z</time>
      </trkpt>
      <trkpt lat="42.263799" lon="3.106625">
        <ele>5</ele>
        <time>1970-01-01T01:54:08.000Z</time>
      </trkpt>
      <trkpt lat="42.26378" lon="3.106548">
        <ele>5</ele>
        <time>1970-01-01T01:54:09.000Z</time>
      </trkpt>
      <trkpt lat="42.26376" lon="3.10647">
        <ele>5</ele>
        <time>1970-01-01T01:54:10.000Z</time>
      </trkpt>
      <trkpt lat="42.26374" lon="3.106392">
        <ele>5</ele>
        <time>1970-01-01T01:54:11.000Z</time>
      </trkpt>
      <trkpt lat="42.263721" lon="3.106314">
        <ele>5</ele>
        <time>1970-01-01T01:54:13.000Z</time>
      </trkpt>
      <trkpt lat="42.263701" lon="3.106236">
        <ele>6</ele>
        <time>1970-01-01T01:54:14.000Z</time>
      </trkpt>
      <trkpt lat="42.263669" lon="3.106082">
        <ele>6</ele>
        <time>1970-01-01T01:54:15.000Z</time>
      </trkpt>
      <trkpt lat="42.263653" lon="3.106007">
        <ele>6</ele>
        <time>1970-01-01T01:54:16.000Z</time>
      </trkpt>
      <trkpt lat="42.263637" lon="3.105933">
        <ele>6</ele>
        <time>1970-01-01T01:54:17.000Z</time>
      </trkpt>
      <trkpt lat="42.263621" lon="3.105858">
        <ele>6</ele>
        <time>1970-01-01T01:54:18.000Z</time>
      </trkpt>
      <trkpt lat="42.263605" lon="3.105784">
        <ele>6</ele>
        <time>1970-01-01T01:54:19.000Z</time>
      </trkpt>
      <trkpt lat="42.263589" lon="3.105709">
        <ele>6</ele>
        <time>1970-01-01T01:54:21.000Z</time>
      </trkpt>
      <trkpt lat="42.263573" lon="3.105635">
        <ele>6</ele>
        <time>1970-01-01T01:54:22.000Z</time>
      </trkpt>
      <trkpt lat="42.263557" lon="3.10556">
        <ele>6</ele>
        <time>1970-01-01T01:54:23.000Z</time>
      </trkpt>
      <trkpt lat="42.263541" lon="3.105486">
        <ele>6</ele>
        <time>1970-01-01T01:54:24.000Z</time>
      </trkpt>
      <trkpt lat="42.263511" lon="3.10536">
        <ele>6</ele>
        <time>1970-01-01T01:54:25.000Z</time>
      </trkpt>
      <trkpt lat="42.2635" lon="3.105302">
        <ele>6</ele>
        <time>1970-01-01T01:54:26.000Z</time>
      </trkpt>
      <trkpt lat="42.263488" lon="3.105243">
        <ele>6</ele>
        <time>1970-01-01T01:54:27.000Z</time>
      </trkpt>
      <trkpt lat="42.263477" lon="3.105184">
        <ele>6</ele>
        <time>1970-01-01T01:54:28.000Z</time>
      </trkpt>
      <trkpt lat="42.263465" lon="3.105126">
        <ele>6</ele>
        <time>1970-01-01T01:54:30.000Z</time>
      </trkpt>
      <trkpt lat="42.263454" lon="3.105067">
        <ele>6</ele>
        <time>1970-01-01T01:54:31.000Z</time>
      </trkpt>
      <trkpt lat="42.263442" lon="3.105008">
        <ele>6</ele>
        <time>1970-01-01T01:54:32.000Z</time>
      </trkpt>
      <trkpt lat="42.263431" lon="3.10495">
        <ele>6</ele>
        <time>1970-01-01T01:54:33.000Z</time>
      </trkpt>
      <trkpt lat="42.263419" lon="3.104891">
        <ele>6</ele>
        <time>1970-01-01T01:54:34.000Z</time>
      </trkpt>
      <trkpt lat="42.263416" lon="3.104793">
        <ele>6</ele>
        <time>1970-01-01T01:54:35.000Z</time>
      </trkpt>
      <trkpt lat="42.263407" lon="3.104743">
        <ele>6</ele>
        <time>1970-01-01T01:54:36.000Z</time>
      </trkpt>
      <trkpt lat="42.263399" lon="3.104693">
        <ele>6</ele>
        <time>1970-01-01T01:54:37.000Z</time>
      </trkpt>
      <trkpt lat="42.26339" lon="3.104643">
        <ele>6</ele>
        <time>1970-01-01T01:54:38.000Z</time>
      </trkpt>
      <trkpt lat="42.263382" lon="3.104593">
        <ele>6</ele>
        <time>1970-01-01T01:54:40.000Z</time>
      </trkpt>
      <trkpt lat="42.263373" lon="3.104543">
        <ele>6</ele>
        <time>1970-01-01T01:54:41.000Z</time>
      </trkpt>
      <trkpt lat="42.263365" lon="3.104493">
        <ele>6</ele>
        <time>1970-01-01T01:54:43.000Z</time>
      </trkpt>
      <trkpt lat="42.263356" lon="3.104443">
        <ele>5</ele>
        <time>1970-01-01T01:54:44.000Z</time>
      </trkpt>
      <trkpt lat="42.263325" lon="3.104359">
        <ele>5</ele>
        <time>1970-01-01T01:54:45.000Z</time>
      </trkpt>
      <trkpt lat="42.263314" lon="3.104322">
        <ele>5</ele>
        <time>1970-01-01T01:54:46.000Z</time>
      </trkpt>
      <trkpt lat="42.263304" lon="3.104284">
        <ele>5</ele>
        <time>1970-01-01T01:54:47.000Z</time>
      </trkpt>
      <trkpt lat="42.263294" lon="3.104246">
        <ele>5</ele>
        <time>1970-01-01T01:54:48.000Z</time>
      </trkpt>
      <trkpt lat="42.263284" lon="3.104208">
        <ele>5</ele>
        <time>1970-01-01T01:54:49.000Z</time>
      </trkpt>
      <trkpt lat="42.263273" lon="3.104171">
        <ele>5</ele>
        <time>1970-01-01T01:54:50.000Z</time>
      </trkpt>
      <trkpt lat="42.263263" lon="3.104133">
        <ele>5</ele>
        <time>1970-01-01T01:54:51.000Z</time>
      </trkpt>
      <trkpt lat="42.263253" lon="3.104095">
        <ele>5</ele>
        <time>1970-01-01T01:54:52.000Z</time>
      </trkpt>
      <trkpt lat="42.263242" lon="3.104058">
        <ele>5</ele>
        <time>1970-01-01T01:54:53.000Z</time>
      </trkpt>
      <trkpt lat="42.263232" lon="3.10402">
        <ele>5</ele>
        <time>1970-01-01T01:54:54.000Z</time>
      </trkpt>
      <trkpt lat="42.263236" lon="3.104015">
        <ele>5</ele>
        <time>1970-01-01T01:54:55.000Z</time>
      </trkpt>
      <trkpt lat="42.263242" lon="3.104039">
        <ele>5</ele>
        <time>1970-01-01T01:54:57.000Z</time>
      </trkpt>
      <trkpt lat="42.263247" lon="3.104063">
        <ele>5</ele>
        <time>1970-01-01T01:54:59.000Z</time>
      </trkpt>
      <trkpt lat="42.263252" lon="3.104087">
        <ele>5</ele>
        <time>1970-01-01T01:55:01.000Z</time>
      </trkpt>
      <trkpt lat="42.263258" lon="3.104111">
        <ele>5</ele>
        <time>1970-01-01T01:55:03.000Z</time>
      </trkpt>
      <trkpt lat="42.263263" lon="3.104135">
        <ele>5</ele>
        <time>1970-01-01T01:55:04.000Z</time>
      </trkpt>
      <trkpt lat="42.263282" lon="3.104199">
        <ele>5</ele>
        <time>1970-01-01T01:55:05.000Z</time>
      </trkpt>
      <trkpt lat="42.263289" lon="3.104227">
        <ele>5</ele>
        <time>1970-01-01T01:55:06.000Z</time>
      </trkpt>
      <trkpt lat="42.263297" lon="3.104254">
        <ele>5</ele>
        <time>1970-01-01T01:55:07.000Z</time>
      </trkpt>
      <trkpt lat="42.263304" lon="3.104282">
        <ele>5</ele>
        <time>1970-01-01T01:55:08.000Z</time>
      </trkpt>
      <trkpt lat="42.263311" lon="3.104309">
        <ele>5</ele>
        <time>1970-01-01T01:55:09.000Z</time>
      </trkpt>
      <trkpt lat="42.263318" lon="3.104336">
        <ele>5</ele>
        <time>1970-01-01T01:55:10.000Z</time>
      </trkpt>
      <trkpt lat="42.263325" lon="3.104364">
        <ele>5</ele>
        <time>1970-01-01T01:55:11.000Z</time>
      </trkpt>
      <trkpt lat="42.263333" lon="3.104391">
        <ele>5</ele>
        <time>1970-01-01T01:55:12.000Z</time>
      </trkpt>
      <trkpt lat="42.26334" lon="3.104419">
        <ele>5</ele>
        <time>1970-01-01T01:55:13.000Z</time>
      </trkpt>
      <trkpt lat="42.263347" lon="3.104446">
        <ele>5</ele>
        <time>1970-01-01T01:55:14.000Z</time>
      </trkpt>
      <trkpt lat="42.263355" lon="3.104471">
        <ele>5</ele>
        <time>1970-01-01T01:55:15.000Z</time>
      </trkpt>
      <trkpt lat="42.26335" lon="3.104474">
        <ele>5</ele>
        <time>1970-01-01T01:55:16.000Z</time>
      </trkpt>
      <trkpt lat="42.263346" lon="3.104477">
        <ele>5</ele>
        <time>1970-01-01T01:55:18.000Z</time>
      </trkpt>
      <trkpt lat="42.263341" lon="3.104481">
        <ele>5</ele>
        <time>1970-01-01T01:55:19.000Z</time>
      </trkpt>
      <trkpt lat="42.263337" lon="3.104484">
        <ele>5</ele>
        <time>1970-01-01T01:55:21.000Z</time>
      </trkpt>
      <trkpt lat="42.263332" lon="3.104487">
        <ele>5</ele>
        <time>1970-01-01T01:55:22.000Z</time>
      </trkpt>
      <trkpt lat="42.263328" lon="3.10449">
        <ele>5</ele>
        <time>1970-01-01T01:55:24.000Z</time>
      </trkpt>
      <trkpt lat="42.26331" lon="3.104405">
        <ele>5</ele>
        <time>1970-01-01T01:55:25.000Z</time>
      </trkpt>
      <trkpt lat="42.263302" lon="3.104366">
        <ele>5</ele>
        <time>1970-01-01T01:55:26.000Z</time>
      </trkpt>
      <trkpt lat="42.263293" lon="3.104327">
        <ele>5</ele>
        <time>1970-01-01T01:55:27.000Z</time>
      </trkpt>
      <trkpt lat="42.263285" lon="3.104288">
        <ele>5</ele>
        <time>1970-01-01T01:55:28.000Z</time>
      </trkpt>
      <trkpt lat="42.263277" lon="3.104249">
        <ele>5</ele>
        <time>1970-01-01T01:55:29.000Z</time>
      </trkpt>
      <trkpt lat="42.263269" lon="3.104211">
        <ele>5</ele>
        <time>1970-01-01T01:55:30.000Z</time>
      </trkpt>
      <trkpt lat="42.263261" lon="3.104172">
        <ele>5</ele>
        <time>1970-01-01T01:55:31.000Z</time>
      </trkpt>
      <trkpt lat="42.263252" lon="3.104133">
        <ele>5</ele>
        <time>1970-01-01T01:55:32.000Z</time>
      </trkpt>
      <trkpt lat="42.263244" lon="3.104094">
        <ele>5</ele>
        <time>1970-01-01T01:55:33.000Z</time>
      </trkpt>
      <trkpt lat="42.263236" lon="3.104055">
        <ele>5</ele>
        <time>1970-01-01T01:55:34.000Z</time>
      </trkpt>
      <trkpt lat="42.263225" lon="3.103973">
        <ele>5</ele>
        <time>1970-01-01T01:55:35.000Z</time>
      </trkpt>
      <trkpt lat="42.263224" lon="3.103933">
        <ele>5</ele>
        <time>1970-01-01T01:55:37.000Z</time>
      </trkpt>
      <trkpt lat="42.263223" lon="3.103894">
        <ele>5</ele>
        <time>1970-01-01T01:55:39.000Z</time>
      </trkpt>
      <trkpt lat="42.263222" lon="3.103854">
        <ele>5</ele>
        <time>1970-01-01T01:55:40.000Z</time>
      </trkpt>
      <trkpt lat="42.26322" lon="3.103814">
        <ele>5</ele>
        <time>1970-01-01T01:55:41.000Z</time>
      </trkpt>
      <trkpt lat="42.263219" lon="3.103774">
        <ele>5</ele>
        <time>1970-01-01T01:55:42.000Z</time>
      </trkpt>
      <trkpt lat="42.263218" lon="3.103735">
        <ele>5</ele>
        <time>1970-01-01T01:55:43.000Z</time>
      </trkpt>
      <trkpt lat="42.263217" lon="3.103695">
        <ele>5</ele>
        <time>1970-01-01T01:55:44.000Z</time>
      </trkpt>
      <trkpt lat="42.263229" lon="3.103666">
        <ele>5</ele>
        <time>1970-01-01T01:55:45.000Z</time>
      </trkpt>
      <trkpt lat="42.263235" lon="3.103632">
        <ele>5</ele>
        <time>1970-01-01T01:55:46.000Z</time>
      </trkpt>
      <trkpt lat="42.263236" lon="3.103595">
        <ele>5</ele>
        <time>1970-01-01T01:55:47.000Z</time>
      </trkpt>
      <trkpt lat="42.263232" lon="3.103561">
        <ele>5</ele>
        <time>1970-01-01T01:55:48.000Z</time>
      </trkpt>
      <trkpt lat="42.263227" lon="3.103533">
        <ele>5</ele>
        <time>1970-01-01T01:55:49.000Z</time>
      </trkpt>
      <trkpt lat="42.263224" lon="3.10349">
        <ele>5</ele>
        <time>1970-01-01T01:55:51.000Z</time>
      </trkpt>
      <trkpt lat="42.263224" lon="3.10349">
        <ele>6</ele>
        <time>1970-01-01T01:55:54.000Z</time>
      </trkpt>
      <trkpt lat="42.263214" lon="3.103461">
        <ele>6</ele>
        <time>1970-01-01T01:55:55.000Z</time>
      </trkpt>
      <trkpt lat="42.263192" lon="3.103435">
        <ele>6</ele>
        <time>1970-01-01T01:55:57.000Z</time>
      </trkpt>
      <trkpt lat="42.26317" lon="3.103436">
        <ele>6</ele>
        <time>1970-01-01T01:55:59.000Z</time>
      </trkpt>
      <trkpt lat="42.263152" lon="3.103443">
        <ele>6</ele>
        <time>1970-01-01T01:56:04.000Z</time>
      </trkpt>
      <trkpt lat="42.26315" lon="3.103449">
        <ele>6</ele>
        <time>1970-01-01T01:56:08.000Z</time>
      </trkpt>
      <trkpt lat="42.263122" lon="3.103532">
        <ele>6</ele>
        <time>1970-01-01T01:57:12.000Z</time>
      </trkpt>
      <trkpt lat="42.263122" lon="3.103532">
        <ele>6</ele>
        <time>1970-01-01T01:57:17.000Z</time>
      </trkpt>
      <trkpt lat="42.263072" lon="3.103549">
        <ele>6</ele>
        <time>1970-01-01T02:04:54.000Z</time>
      </trkpt>
      <trkpt lat="42.263066" lon="3.103563">
        <ele>5</ele>
        <time>1970-01-01T02:04:58.000Z</time>
      </trkpt>
      <trkpt lat="42.263088" lon="3.103627">
        <ele>5</ele>
        <time>1970-01-01T02:05:40.000Z</time>
      </trkpt>
      <trkpt lat="42.263088" lon="3.103627">
        <ele>5</ele>
        <time>1970-01-01T02:05:47.000Z</time>
      </trkpt>
      <trkpt lat="42.263061" lon="3.103545">
        <ele>5</ele>
        <time>1970-01-01T02:06:16.000Z</time>
      </trkpt>
      <trkpt lat="42.263061" lon="3.103545">
        <ele>5</ele>
        <time>1970-01-01T02:06:25.000Z</time>
      </trkpt>
      <trkpt lat="42.263027" lon="3.103506">
        <ele>5</ele>
        <time>1970-01-01T02:06:30.000Z</time>
      </trkpt>
      <trkpt lat="42.263027" lon="3.103506">
        <ele>5</ele>
        <time>1970-01-01T02:06:35.000Z</time>
      </trkpt>
      <trkpt lat="42.263019" lon="3.103482">
        <ele>5</ele>
        <time>1970-01-01T02:06:38.000Z</time>
      </trkpt>
      <trkpt lat="42.263027" lon="3.103497">
        <ele>5</ele>
        <time>1970-01-01T02:06:39.000Z</time>
      </trkpt>
      <trkpt lat="42.263036" lon="3.103512">
        <ele>5</ele>
        <time>1970-01-01T02:07:30.000Z</time>
      </trkpt>
      <trkpt lat="42.263044" lon="3.103527">
        <ele>5</ele>
        <time>1970-01-01T02:07:39.000Z</time>
      </trkpt>
      <trkpt lat="42.263053" lon="3.103541">
        <ele>5</ele>
        <time>1970-01-01T02:07:40.000Z</time>
      </trkpt>
      <trkpt lat="42.263062" lon="3.103556">
        <ele>5</ele>
        <time>1970-01-01T02:08:00.000Z</time>
      </trkpt>
      <trkpt lat="42.26307" lon="3.103571">
        <ele>5</ele>
        <time>1970-01-01T02:08:04.000Z</time>
      </trkpt>
      <trkpt lat="42.263079" lon="3.103586">
        <ele>5</ele>
        <time>1970-01-01T02:09:08.000Z</time>
      </trkpt>
      <trkpt lat="42.263087" lon="3.103601">
        <ele>5</ele>
        <time>1970-01-01T02:09:11.000Z</time>
      </trkpt>
      <trkpt lat="42.263096" lon="3.103616">
        <ele>5</ele>
        <time>1970-01-01T02:11:28.000Z</time>
      </trkpt>
      <trkpt lat="42.263105" lon="3.103631">
        <ele>5</ele>
        <time>1970-01-01T02:11:31.000Z</time>
      </trkpt>
      <trkpt lat="42.263113" lon="3.103646">
        <ele>5</ele>
        <time>1970-01-01T02:12:30.000Z</time>
      </trkpt>
      <trkpt lat="42.263122" lon="3.103661">
        <ele>5</ele>
        <time>1970-01-01T02:12:33.000Z</time>
      </trkpt>
      <trkpt lat="42.26313" lon="3.103676">
        <ele>6</ele>
        <time>1970-01-01T02:22:32.000Z</time>
      </trkpt>
      <trkpt lat="42.263139" lon="3.10369">
        <ele>6</ele>
        <time>1970-01-01T02:22:33.000Z</time>
      </trkpt>
      <trkpt lat="42.263148" lon="3.103705">
        <ele>6</ele>
        <time>1970-01-01T02:22:34.000Z</time>
      </trkpt>
      <trkpt lat="42.263156" lon="3.10372">
        <ele>6</ele>
        <time>1970-01-01T02:22:36.000Z</time>
      </trkpt>
      <trkpt lat="42.263165" lon="3.103735">
        <ele>6</ele>
        <time>1970-01-01T02:22:38.000Z</time>
      </trkpt>
      <trkpt lat="42.263173" lon="3.10375">
        <ele>6</ele>
        <time>1970-01-01T02:22:40.000Z</time>
      </trkpt>
      <trkpt lat="42.263182" lon="3.103765">
        <ele>6</ele>
        <time>1970-01-01T02:22:41.000Z</time>
      </trkpt>
      <trkpt lat="42.263182" lon="3.103825">
        <ele>6</ele>
        <time>1970-01-01T02:22:42.000Z</time>
      </trkpt>
      <trkpt lat="42.263186" lon="3.103855">
        <ele>6</ele>
        <time>1970-01-01T02:22:43.000Z</time>
      </trkpt>
      <trkpt lat="42.263191" lon="3.103885">
        <ele>6</ele>
        <time>1970-01-01T02:22:44.000Z</time>
      </trkpt>
      <trkpt lat="42.263195" lon="3.103915">
        <ele>6</ele>
        <time>1970-01-01T02:22:45.000Z</time>
      </trkpt>
      <trkpt lat="42.2632" lon="3.103945">
        <ele>6</ele>
        <time>1970-01-01T02:22:46.000Z</time>
      </trkpt>
      <trkpt lat="42.263205" lon="3.103975">
        <ele>6</ele>
        <time>1970-01-01T02:22:47.000Z</time>
      </trkpt>
      <trkpt lat="42.263209" lon="3.104005">
        <ele>6</ele>
        <time>1970-01-01T02:22:48.000Z</time>
      </trkpt>
      <trkpt lat="42.263214" lon="3.104035">
        <ele>6</ele>
        <time>1970-01-01T02:22:49.000Z</time>
      </trkpt>
      <trkpt lat="42.263218" lon="3.104065">
        <ele>6</ele>
        <time>1970-01-01T02:22:50.000Z</time>
      </trkpt>
      <trkpt lat="42.263223" lon="3.104095">
        <ele>6</ele>
        <time>1970-01-01T02:22:51.000Z</time>
      </trkpt>
      <trkpt lat="42.26324" lon="3.104164">
        <ele>6</ele>
        <time>1970-01-01T02:22:52.000Z</time>
      </trkpt>
      <trkpt lat="42.263252" lon="3.104199">
        <ele>6</ele>
        <time>1970-01-01T02:22:53.000Z</time>
      </trkpt>
      <trkpt lat="42.263264" lon="3.104233">
        <ele>6</ele>
        <time>1970-01-01T02:22:54.000Z</time>
      </trkpt>
      <trkpt lat="42.263276" lon="3.104268">
        <ele>6</ele>
        <time>1970-01-01T02:22:55.000Z</time>
      </trkpt>
      <trkpt lat="42.263289" lon="3.104302">
        <ele>6</ele>
        <time>1970-01-01T02:22:56.000Z</time>
      </trkpt>
      <trkpt lat="42.263301" lon="3.104336">
        <ele>6</ele>
        <time>1970-01-01T02:22:57.000Z</time>
      </trkpt>
      <trkpt lat="42.263313" lon="3.104371">
        <ele>6</ele>
        <time>1970-01-01T02:22:58.000Z</time>
      </trkpt>
      <trkpt lat="42.263325" lon="3.104405">
        <ele>6</ele>
        <time>1970-01-01T02:22:59.000Z</time>
      </trkpt>
      <trkpt lat="42.263337" lon="3.10444">
        <ele>6</ele>
        <time>1970-01-01T02:23:00.000Z</time>
      </trkpt>
      <trkpt lat="42.263349" lon="3.104474">
        <ele>6</ele>
        <time>1970-01-01T02:23:01.000Z</time>
      </trkpt>
      <trkpt lat="42.263363" lon="3.104541">
        <ele>6</ele>
        <time>1970-01-01T02:23:02.000Z</time>
      </trkpt>
      <trkpt lat="42.263365" lon="3.104567">
        <ele>6</ele>
        <time>1970-01-01T02:23:03.000Z</time>
      </trkpt>
      <trkpt lat="42.263368" lon="3.104592">
        <ele>6</ele>
        <time>1970-01-01T02:23:04.000Z</time>
      </trkpt>
      <trkpt lat="42.26337" lon="3.104618">
        <ele>6</ele>
        <time>1970-01-01T02:23:05.000Z</time>
      </trkpt>
      <trkpt lat="42.263373" lon="3.104643">
        <ele>6</ele>
        <time>1970-01-01T02:23:06.000Z</time>
      </trkpt>
      <trkpt lat="42.263375" lon="3.104669">
        <ele>6</ele>
        <time>1970-01-01T02:23:07.000Z</time>
      </trkpt>
      <trkpt lat="42.263378" lon="3.104694">
        <ele>6</ele>
        <time>1970-01-01T02:23:08.000Z</time>
      </trkpt>
      <trkpt lat="42.26338" lon="3.10472">
        <ele>6</ele>
        <time>1970-01-01T02:23:10.000Z</time>
      </trkpt>
      <trkpt lat="42.263383" lon="3.104745">
        <ele>6</ele>
        <time>1970-01-01T02:23:11.000Z</time>
      </trkpt>
      <trkpt lat="42.263338" lon="3.104697">
        <ele>6</ele>
        <time>1970-01-01T02:23:12.000Z</time>
      </trkpt>
      <trkpt lat="42.263324" lon="3.104662">
        <ele>6</ele>
        <time>1970-01-01T02:23:13.000Z</time>
      </trkpt>
      <trkpt lat="42.26331" lon="3.104627">
        <ele>6</ele>
        <time>1970-01-01T02:23:14.000Z</time>
      </trkpt>
      <trkpt lat="42.263296" lon="3.104592">
        <ele>6</ele>
        <time>1970-01-01T02:23:15.000Z</time>
      </trkpt>
      <trkpt lat="42.263283" lon="3.104557">
        <ele>6</ele>
        <time>1970-01-01T02:23:16.000Z</time>
      </trkpt>
      <trkpt lat="42.263269" lon="3.104523">
        <ele>6</ele>
        <time>1970-01-01T02:23:17.000Z</time>
      </trkpt>
      <trkpt lat="42.263255" lon="3.104488">
        <ele>6</ele>
        <time>1970-01-01T02:23:18.000Z</time>
      </trkpt>
      <trkpt lat="42.263241" lon="3.104453">
        <ele>6</ele>
        <time>1970-01-01T02:23:19.000Z</time>
      </trkpt>
      <trkpt lat="42.263227" lon="3.104418">
        <ele>6</ele>
        <time>1970-01-01T02:23:20.000Z</time>
      </trkpt>
      <trkpt lat="42.263213" lon="3.104383">
        <ele>6</ele>
        <time>1970-01-01T02:23:21.000Z</time>
      </trkpt>
      <trkpt lat="42.263182" lon="3.104294">
        <ele>6</ele>
        <time>1970-01-01T02:23:22.000Z</time>
      </trkpt>
      <trkpt lat="42.263169" lon="3.104244">
        <ele>6</ele>
        <time>1970-01-01T02:23:23.000Z</time>
      </trkpt>
      <trkpt lat="42.263155" lon="3.104195">
        <ele>6</ele>
        <time>1970-01-01T02:23:24.000Z</time>
      </trkpt>
      <trkpt lat="42.263141" lon="3.104145">
        <ele>6</ele>
        <time>1970-01-01T02:23:26.000Z</time>
      </trkpt>
      <trkpt lat="42.263127" lon="3.104096">
        <ele>6</ele>
        <time>1970-01-01T02:23:27.000Z</time>
      </trkpt>
      <trkpt lat="42.263114" lon="3.104047">
        <ele>6</ele>
        <time>1970-01-01T02:23:28.000Z</time>
      </trkpt>
      <trkpt lat="42.2631" lon="3.103997">
        <ele>6</ele>
        <time>1970-01-01T02:23:30.000Z</time>
      </trkpt>
      <trkpt lat="42.263086" lon="3.103948">
        <ele>6</ele>
        <time>1970-01-01T02:23:31.000Z</time>
      </trkpt>
      <trkpt lat="42.263069" lon="3.103855">
        <ele>6</ele>
        <time>1970-01-01T02:23:32.000Z</time>
      </trkpt>
      <trkpt lat="42.263056" lon="3.103808">
        <ele>6</ele>
        <time>1970-01-01T02:23:33.000Z</time>
      </trkpt>
      <trkpt lat="42.263042" lon="3.10376">
        <ele>6</ele>
        <time>1970-01-01T02:23:34.000Z</time>
      </trkpt>
      <trkpt lat="42.263029" lon="3.103712">
        <ele>6</ele>
        <time>1970-01-01T02:23:35.000Z</time>
      </trkpt>
      <trkpt lat="42.263015" lon="3.103665">
        <ele>6</ele>
        <time>1970-01-01T02:23:36.000Z</time>
      </trkpt>
      <trkpt lat="42.263002" lon="3.103617">
        <ele>6</ele>
        <time>1970-01-01T02:23:37.000Z</time>
      </trkpt>
      <trkpt lat="42.262988" lon="3.103569">
        <ele>6</ele>
        <time>1970-01-01T02:23:38.000Z</time>
      </trkpt>
      <trkpt lat="42.262975" lon="3.103522">
        <ele>6</ele>
        <time>1970-01-01T02:23:40.000Z</time>
      </trkpt>
      <trkpt lat="42.262961" lon="3.103474">
        <ele>6</ele>
        <time>1970-01-01T02:23:41.000Z</time>
      </trkpt>
      <trkpt lat="42.262933" lon="3.103361">
        <ele>6</ele>
        <time>1970-01-01T02:23:42.000Z</time>
      </trkpt>
      <trkpt lat="42.262924" lon="3.103298">
        <ele>6</ele>
        <time>1970-01-01T02:23:43.000Z</time>
      </trkpt>
      <trkpt lat="42.262916" lon="3.103236">
        <ele>6</ele>
        <time>1970-01-01T02:23:44.000Z</time>
      </trkpt>
      <trkpt lat="42.262907" lon="3.103173">
        <ele>6</ele>
        <time>1970-01-01T02:23:45.000Z</time>
      </trkpt>
      <trkpt lat="42.262898" lon="3.10311">
        <ele>6</ele>
        <time>1970-01-01T02:23:46.000Z</time>
      </trkpt>
      <trkpt lat="42.262889" lon="3.103047">
        <ele>6</ele>
        <time>1970-01-01T02:23:47.000Z</time>
      </trkpt>
      <trkpt lat="42.262881" lon="3.102985">
        <ele>6</ele>
        <time>1970-01-01T02:23:49.000Z</time>
      </trkpt>
      <trkpt lat="42.262872" lon="3.102922">
        <ele>6</ele>
        <time>1970-01-01T02:23:50.000Z</time>
      </trkpt>
      <trkpt lat="42.262863" lon="3.102859">
        <ele>5</ele>
        <time>1970-01-01T02:23:52.000Z</time>
      </trkpt>
      <trkpt lat="42.262846" lon="3.102752">
        <ele>5</ele>
        <time>1970-01-01T02:23:53.000Z</time>
      </trkpt>
      <trkpt lat="42.262836" lon="3.102703">
        <ele>5</ele>
        <time>1970-01-01T02:23:54.000Z</time>
      </trkpt>
      <trkpt lat="42.262826" lon="3.102653">
        <ele>5</ele>
        <time>1970-01-01T02:23:55.000Z</time>
      </trkpt>
      <trkpt lat="42.262816" lon="3.102603">
        <ele>5</ele>
        <time>1970-01-01T02:23:56.000Z</time>
      </trkpt>
      <trkpt lat="42.262807" lon="3.102554">
        <ele>5</ele>
        <time>1970-01-01T02:23:57.000Z</time>
      </trkpt>
      <trkpt lat="42.262797" lon="3.102504">
        <ele>5</ele>
        <time>1970-01-01T02:23:58.000Z</time>
      </trkpt>
      <trkpt lat="42.262787" lon="3.102454">
        <ele>5</ele>
        <time>1970-01-01T02:23:59.000Z</time>
      </trkpt>
      <trkpt lat="42.262777" lon="3.102405">
        <ele>5</ele>
        <time>1970-01-01T02:24:00.000Z</time>
      </trkpt>
      <trkpt lat="42.262767" lon="3.102355">
        <ele>6</ele>
        <time>1970-01-01T02:24:01.000Z</time>
      </trkpt>
      <trkpt lat="42.262734" lon="3.102204">
        <ele>6</ele>
        <time>1970-01-01T02:24:03.000Z</time>
      </trkpt>
      <trkpt lat="42.262723" lon="3.102157">
        <ele>6</ele>
        <time>1970-01-01T02:24:04.000Z</time>
      </trkpt>
      <trkpt lat="42.262713" lon="3.10211">
        <ele>6</ele>
        <time>1970-01-01T02:24:05.000Z</time>
      </trkpt>
      <trkpt lat="42.262702" lon="3.102062">
        <ele>6</ele>
        <time>1970-01-01T02:24:06.000Z</time>
      </trkpt>
      <trkpt lat="42.262692" lon="3.102015">
        <ele>6</ele>
        <time>1970-01-01T02:24:08.000Z</time>
      </trkpt>
      <trkpt lat="42.262681" lon="3.101968">
        <ele>6</ele>
        <time>1970-01-01T02:24:09.000Z</time>
      </trkpt>
      <trkpt lat="42.262671" lon="3.101921">
        <ele>6</ele>
        <time>1970-01-01T02:24:10.000Z</time>
      </trkpt>
      <trkpt lat="42.26266" lon="3.101874">
        <ele>6</ele>
        <time>1970-01-01T02:24:11.000Z</time>
      </trkpt>
      <trkpt lat="42.262634" lon="3.101785">
        <ele>6</ele>
        <time>1970-01-01T02:24:12.000Z</time>
      </trkpt>
      <trkpt lat="42.262622" lon="3.10174">
        <ele>6</ele>
        <time>1970-01-01T02:24:13.000Z</time>
      </trkpt>
      <trkpt lat="42.26261" lon="3.101694">
        <ele>6</ele>
        <time>1970-01-01T02:24:14.000Z</time>
      </trkpt>
      <trkpt lat="42.262598" lon="3.101649">
        <ele>6</ele>
        <time>1970-01-01T02:24:15.000Z</time>
      </trkpt>
      <trkpt lat="42.262586" lon="3.101603">
        <ele>6</ele>
        <time>1970-01-01T02:24:17.000Z</time>
      </trkpt>
      <trkpt lat="42.262574" lon="3.101558">
        <ele>6</ele>
        <time>1970-01-01T02:24:18.000Z</time>
      </trkpt>
      <trkpt lat="42.262562" lon="3.101512">
        <ele>6</ele>
        <time>1970-01-01T02:24:19.000Z</time>
      </trkpt>
      <trkpt lat="42.26255" lon="3.101467">
        <ele>6</ele>
        <time>1970-01-01T02:24:20.000Z</time>
      </trkpt>
      <trkpt lat="42.262538" lon="3.101421">
        <ele>5</ele>
        <time>1970-01-01T02:24:21.000Z</time>
      </trkpt>
      <trkpt lat="42.262507" lon="3.101306">
        <ele>5</ele>
        <time>1970-01-01T02:24:22.000Z</time>
      </trkpt>
      <trkpt lat="42.262488" lon="3.101243">
        <ele>5</ele>
        <time>1970-01-01T02:24:23.000Z</time>
      </trkpt>
      <trkpt lat="42.262468" lon="3.101179">
        <ele>5</ele>
        <time>1970-01-01T02:24:24.000Z</time>
      </trkpt>
      <trkpt lat="42.262449" lon="3.101115">
        <ele>5</ele>
        <time>1970-01-01T02:24:25.000Z</time>
      </trkpt>
      <trkpt lat="42.26243" lon="3.101052">
        <ele>5</ele>
        <time>1970-01-01T02:24:27.000Z</time>
      </trkpt>
      <trkpt lat="42.262411" lon="3.100988">
        <ele>5</ele>
        <time>1970-01-01T02:24:28.000Z</time>
      </trkpt>
      <trkpt lat="42.262391" lon="3.100925">
        <ele>5</ele>
        <time>1970-01-01T02:24:30.000Z</time>
      </trkpt>
      <trkpt lat="42.262372" lon="3.100861">
        <ele>5</ele>
        <time>1970-01-01T02:24:31.000Z</time>
      </trkpt>
      <trkpt lat="42.262337" lon="3.100743">
        <ele>5</ele>
        <time>1970-01-01T02:24:32.000Z</time>
      </trkpt>
      <trkpt lat="42.262321" lon="3.100682">
        <ele>5</ele>
        <time>1970-01-01T02:24:33.000Z</time>
      </trkpt>
      <trkpt lat="42.262304" lon="3.100622">
        <ele>5</ele>
        <time>1970-01-01T02:24:34.000Z</time>
      </trkpt>
      <trkpt lat="42.262287" lon="3.100562">
        <ele>5</ele>
        <time>1970-01-01T02:24:35.000Z</time>
      </trkpt>
      <trkpt lat="42.262271" lon="3.100501">
        <ele>5</ele>
        <time>1970-01-01T02:24:36.000Z</time>
      </trkpt>
      <trkpt lat="42.262254" lon="3.100441">
        <ele>5</ele>
        <time>1970-01-01T02:24:37.000Z</time>
      </trkpt>
      <trkpt lat="42.262237" lon="3.100381">
        <ele>5</ele>
        <time>1970-01-01T02:24:38.000Z</time>
      </trkpt>
      <trkpt lat="42.262221" lon="3.10032">
        <ele>5</ele>
        <time>1970-01-01T02:24:40.000Z</time>
      </trkpt>
      <trkpt lat="42.262204" lon="3.10026">
        <ele>5</ele>
        <time>1970-01-01T02:24:41.000Z</time>
      </trkpt>
      <trkpt lat="42.26217" lon="3.100127">
        <ele>5</ele>
        <time>1970-01-01T02:24:42.000Z</time>
      </trkpt>
      <trkpt lat="42.262151" lon="3.100056">
        <ele>5</ele>
        <time>1970-01-01T02:24:43.000Z</time>
      </trkpt>
      <trkpt lat="42.262133" lon="3.099985">
        <ele>5</ele>
        <time>1970-01-01T02:24:44.000Z</time>
      </trkpt>
      <trkpt lat="42.262115" lon="3.099914">
        <ele>5</ele>
        <time>1970-01-01T02:24:46.000Z</time>
      </trkpt>
      <trkpt lat="42.262096" lon="3.099844">
        <ele>5</ele>
        <time>1970-01-01T02:24:47.000Z</time>
      </trkpt>
      <trkpt lat="42.262078" lon="3.099773">
        <ele>5</ele>
        <time>1970-01-01T02:24:48.000Z</time>
      </trkpt>
      <trkpt lat="42.262059" lon="3.099702">
        <ele>5</ele>
        <time>1970-01-01T02:24:49.000Z</time>
      </trkpt>
      <trkpt lat="42.262041" lon="3.099631">
        <ele>5</ele>
        <time>1970-01-01T02:24:51.000Z</time>
      </trkpt>
      <trkpt lat="42.262006" lon="3.099499">
        <ele>5</ele>
        <time>1970-01-01T02:24:52.000Z</time>
      </trkpt>
      <trkpt lat="42.261989" lon="3.099433">
        <ele>5</ele>
        <time>1970-01-01T02:24:53.000Z</time>
      </trkpt>
      <trkpt lat="42.261971" lon="3.099366">
        <ele>5</ele>
        <time>1970-01-01T02:24:54.000Z</time>
      </trkpt>
      <trkpt lat="42.261953" lon="3.099299">
        <ele>5</ele>
        <time>1970-01-01T02:24:55.000Z</time>
      </trkpt>
      <trkpt lat="42.261936" lon="3.099233">
        <ele>5</ele>
        <time>1970-01-01T02:24:56.000Z</time>
      </trkpt>
      <trkpt lat="42.261918" lon="3.099166">
        <ele>5</ele>
        <time>1970-01-01T02:24:57.000Z</time>
      </trkpt>
      <trkpt lat="42.2619" lon="3.099099">
        <ele>5</ele>
        <time>1970-01-01T02:24:58.000Z</time>
      </trkpt>
      <trkpt lat="42.261883" lon="3.099033">
        <ele>5</ele>
        <time>1970-01-01T02:25:00.000Z</time>
      </trkpt>
      <trkpt lat="42.261865" lon="3.098966">
        <ele>5</ele>
        <time>1970-01-01T02:25:01.000Z</time>
      </trkpt>
      <trkpt lat="42.261824" lon="3.098823">
        <ele>5</ele>
        <time>1970-01-01T02:25:02.000Z</time>
      </trkpt>
      <trkpt lat="42.261803" lon="3.098746">
        <ele>5</ele>
        <time>1970-01-01T02:25:03.000Z</time>
      </trkpt>
      <trkpt lat="42.261781" lon="3.09867">
        <ele>5</ele>
        <time>1970-01-01T02:25:05.000Z</time>
      </trkpt>
      <trkpt lat="42.26176" lon="3.098594">
        <ele>5</ele>
        <time>1970-01-01T02:25:06.000Z</time>
      </trkpt>
      <trkpt lat="42.261738" lon="3.098518">
        <ele>5</ele>
        <time>1970-01-01T02:25:07.000Z</time>
      </trkpt>
      <trkpt lat="42.261716" lon="3.098441">
        <ele>5</ele>
        <time>1970-01-01T02:25:08.000Z</time>
      </trkpt>
      <trkpt lat="42.261695" lon="3.098365">
        <ele>5</ele>
        <time>1970-01-01T02:25:10.000Z</time>
      </trkpt>
      <trkpt lat="42.261673" lon="3.098289">
        <ele>6</ele>
        <time>1970-01-01T02:25:11.000Z</time>
      </trkpt>
      <trkpt lat="42.261636" lon="3.098149">
        <ele>6</ele>
        <time>1970-01-01T02:25:12.000Z</time>
      </trkpt>
      <trkpt lat="42.261617" lon="3.098079">
        <ele>6</ele>
        <time>1970-01-01T02:25:13.000Z</time>
      </trkpt>
      <trkpt lat="42.261599" lon="3.098008">
        <ele>6</ele>
        <time>1970-01-01T02:25:14.000Z</time>
      </trkpt>
      <trkpt lat="42.26158" lon="3.097938">
        <ele>6</ele>
        <time>1970-01-01T02:25:15.000Z</time>
      </trkpt>
      <trkpt lat="42.261562" lon="3.097867">
        <ele>6</ele>
        <time>1970-01-01T02:25:16.000Z</time>
      </trkpt>
      <trkpt lat="42.261543" lon="3.097797">
        <ele>6</ele>
        <time>1970-01-01T02:25:17.000Z</time>
      </trkpt>
      <trkpt lat="42.261525" lon="3.097726">
        <ele>6</ele>
        <time>1970-01-01T02:25:19.000Z</time>
      </trkpt>
      <trkpt lat="42.261506" lon="3.097656">
        <ele>6</ele>
        <time>1970-01-01T02:25:20.000Z</time>
      </trkpt>
      <trkpt lat="42.261488" lon="3.097585">
        <ele>6</ele>
        <time>1970-01-01T02:25:21.000Z</time>
      </trkpt>
      <trkpt lat="42.261453" lon="3.097441">
        <ele>6</ele>
        <time>1970-01-01T02:25:22.000Z</time>
      </trkpt>
      <trkpt lat="42.261434" lon="3.097368">
        <ele>6</ele>
        <time>1970-01-01T02:25:24.000Z</time>
      </trkpt>
      <trkpt lat="42.261416" lon="3.097296">
        <ele>6</ele>
        <time>1970-01-01T02:25:25.000Z</time>
      </trkpt>
      <trkpt lat="42.261398" lon="3.097223">
        <ele>6</ele>
        <time>1970-01-01T02:25:26.000Z</time>
      </trkpt>
      <trkpt lat="42.261379" lon="3.09715">
        <ele>6</ele>
        <time>1970-01-01T02:25:28.000Z</time>
      </trkpt>
      <trkpt lat="42.261361" lon="3.097077">
        <ele>6</ele>
        <time>1970-01-01T02:25:29.000Z</time>
      </trkpt>
      <trkpt lat="42.261342" lon="3.097005">
        <ele>6</ele>
        <time>1970-01-01T02:25:30.000Z</time>
      </trkpt>
      <trkpt lat="42.261324" lon="3.096932">
        <ele>6</ele>
        <time>1970-01-01T02:25:31.000Z</time>
      </trkpt>
      <trkpt lat="42.261293" lon="3.096805">
        <ele>6</ele>
        <time>1970-01-01T02:25:32.000Z</time>
      </trkpt>
      <trkpt lat="42.261277" lon="3.096739">
        <ele>6</ele>
        <time>1970-01-01T02:25:33.000Z</time>
      </trkpt>
      <trkpt lat="42.26126" lon="3.096673">
        <ele>6</ele>
        <time>1970-01-01T02:25:34.000Z</time>
      </trkpt>
      <trkpt lat="42.261243" lon="3.096607">
        <ele>6</ele>
        <time>1970-01-01T02:25:35.000Z</time>
      </trkpt>
      <trkpt lat="42.261227" lon="3.096542">
        <ele>6</ele>
        <time>1970-01-01T02:25:36.000Z</time>
      </trkpt>
      <trkpt lat="42.26121" lon="3.096476">
        <ele>6</ele>
        <time>1970-01-01T02:25:38.000Z</time>
      </trkpt>
      <trkpt lat="42.261193" lon="3.09641">
        <ele>6</ele>
        <time>1970-01-01T02:25:39.000Z</time>
      </trkpt>
      <trkpt lat="42.261177" lon="3.096344">
        <ele>6</ele>
        <time>1970-01-01T02:25:40.000Z</time>
      </trkpt>
      <trkpt lat="42.26116" lon="3.096278">
        <ele>6</ele>
        <time>1970-01-01T02:25:41.000Z</time>
      </trkpt>
      <trkpt lat="42.261109" lon="3.09608">
        <ele>6</ele>
        <time>1970-01-01T02:25:43.000Z</time>
      </trkpt>
      <trkpt lat="42.261093" lon="3.096014">
        <ele>6</ele>
        <time>1970-01-01T02:25:44.000Z</time>
      </trkpt>
      <trkpt lat="42.261077" lon="3.095949">
        <ele>6</ele>
        <time>1970-01-01T02:25:45.000Z</time>
      </trkpt>
      <trkpt lat="42.261062" lon="3.095884">
        <ele>6</ele>
        <time>1970-01-01T02:25:46.000Z</time>
      </trkpt>
      <trkpt lat="42.261046" lon="3.095819">
        <ele>6</ele>
        <time>1970-01-01T02:25:48.000Z</time>
      </trkpt>
      <trkpt lat="42.26103" lon="3.095753">
        <ele>6</ele>
        <time>1970-01-01T02:25:49.000Z</time>
      </trkpt>
      <trkpt lat="42.261014" lon="3.095688">
        <ele>6</ele>
        <time>1970-01-01T02:25:50.000Z</time>
      </trkpt>
      <trkpt lat="42.260998" lon="3.095623">
        <ele>5</ele>
        <time>1970-01-01T02:25:51.000Z</time>
      </trkpt>
      <trkpt lat="42.260968" lon="3.095505">
        <ele>5</ele>
        <time>1970-01-01T02:25:52.000Z</time>
      </trkpt>
      <trkpt lat="42.260953" lon="3.095449">
        <ele>5</ele>
        <time>1970-01-01T02:25:53.000Z</time>
      </trkpt>
      <trkpt lat="42.260939" lon="3.095393">
        <ele>5</ele>
        <time>1970-01-01T02:25:54.000Z</time>
      </trkpt>
      <trkpt lat="42.260925" lon="3.095337">
        <ele>5</ele>
        <time>1970-01-01T02:25:55.000Z</time>
      </trkpt>
      <trkpt lat="42.26091" lon="3.095281">
        <ele>5</ele>
        <time>1970-01-01T02:25:56.000Z</time>
      </trkpt>
      <trkpt lat="42.260896" lon="3.095225">
        <ele>5</ele>
        <time>1970-01-01T02:25:58.000Z</time>
      </trkpt>
      <trkpt lat="42.260882" lon="3.095169">
        <ele>5</ele>
        <time>1970-01-01T02:25:59.000Z</time>
      </trkpt>
      <trkpt lat="42.260867" lon="3.095113">
        <ele>5</ele>
        <time>1970-01-01T02:26:00.000Z</time>
      </trkpt>
      <trkpt lat="42.260853" lon="3.095057">
        <ele>5</ele>
        <time>1970-01-01T02:26:01.000Z</time>
      </trkpt>
      <trkpt lat="42.26083" lon="3.09496">
        <ele>5</ele>
        <time>1970-01-01T02:26:02.000Z</time>
      </trkpt>
      <trkpt lat="42.260818" lon="3.094915">
        <ele>5</ele>
        <time>1970-01-01T02:26:03.000Z</time>
      </trkpt>
      <trkpt lat="42.260807" lon="3.094871">
        <ele>5</ele>
        <time>1970-01-01T02:26:04.000Z</time>
      </trkpt>
      <trkpt lat="42.260795" lon="3.094826">
        <ele>5</ele>
        <time>1970-01-01T02:26:05.000Z</time>
      </trkpt>
      <trkpt lat="42.260784" lon="3.094781">
        <ele>5</ele>
        <time>1970-01-01T02:26:06.000Z</time>
      </trkpt>
      <trkpt lat="42.260772" lon="3.094736">
        <ele>5</ele>
        <time>1970-01-01T02:26:07.000Z</time>
      </trkpt>
      <trkpt lat="42.260761" lon="3.094691">
        <ele>5</ele>
        <time>1970-01-01T02:26:08.000Z</time>
      </trkpt>
      <trkpt lat="42.260749" lon="3.094647">
        <ele>5</ele>
        <time>1970-01-01T02:26:09.000Z</time>
      </trkpt>
      <trkpt lat="42.260738" lon="3.094602">
        <ele>5</ele>
        <time>1970-01-01T02:26:10.000Z</time>
      </trkpt>
      <trkpt lat="42.260726" lon="3.094557">
        <ele>5</ele>
        <time>1970-01-01T02:26:11.000Z</time>
      </trkpt>
      <trkpt lat="42.260712" lon="3.094441">
        <ele>5</ele>
        <time>1970-01-01T02:26:12.000Z</time>
      </trkpt>
      <trkpt lat="42.260711" lon="3.094379">
        <ele>5</ele>
        <time>1970-01-01T02:26:13.000Z</time>
      </trkpt>
      <trkpt lat="42.260711" lon="3.094318">
        <ele>5</ele>
        <time>1970-01-01T02:26:14.000Z</time>
      </trkpt>
      <trkpt lat="42.26071" lon="3.094257">
        <ele>5</ele>
        <time>1970-01-01T02:26:15.000Z</time>
      </trkpt>
      <trkpt lat="42.26071" lon="3.094195">
        <ele>5</ele>
        <time>1970-01-01T02:26:16.000Z</time>
      </trkpt>
      <trkpt lat="42.260709" lon="3.094134">
        <ele>5</ele>
        <time>1970-01-01T02:26:17.000Z</time>
      </trkpt>
      <trkpt lat="42.260709" lon="3.094073">
        <ele>5</ele>
        <time>1970-01-01T02:26:18.000Z</time>
      </trkpt>
      <trkpt lat="42.260708" lon="3.094011">
        <ele>5</ele>
        <time>1970-01-01T02:26:19.000Z</time>
      </trkpt>
      <trkpt lat="42.260708" lon="3.09395">
        <ele>5</ele>
        <time>1970-01-01T02:26:21.000Z</time>
      </trkpt>
      <trkpt lat="42.260693" lon="3.093837">
        <ele>5</ele>
        <time>1970-01-01T02:26:22.000Z</time>
      </trkpt>
      <trkpt lat="42.260667" lon="3.093789">
        <ele>5</ele>
        <time>1970-01-01T02:26:23.000Z</time>
      </trkpt>
      <trkpt lat="42.26064" lon="3.09374">
        <ele>5</ele>
        <time>1970-01-01T02:26:24.000Z</time>
      </trkpt>
      <trkpt lat="42.260613" lon="3.093692">
        <ele>5</ele>
        <time>1970-01-01T02:26:25.000Z</time>
      </trkpt>
      <trkpt lat="42.260587" lon="3.093643">
        <ele>5</ele>
        <time>1970-01-01T02:26:26.000Z</time>
      </trkpt>
      <trkpt lat="42.26056" lon="3.093594">
        <ele>5</ele>
        <time>1970-01-01T02:26:27.000Z</time>
      </trkpt>
      <trkpt lat="42.260533" lon="3.093546">
        <ele>5</ele>
        <time>1970-01-01T02:26:28.000Z</time>
      </trkpt>
      <trkpt lat="42.260506" lon="3.093497">
        <ele>5</ele>
        <time>1970-01-01T02:26:29.000Z</time>
      </trkpt>
      <trkpt lat="42.26048" lon="3.093449">
        <ele>5</ele>
        <time>1970-01-01T02:26:30.000Z</time>
      </trkpt>
      <trkpt lat="42.260453" lon="3.0934">
        <ele>6</ele>
        <time>1970-01-01T02:26:31.000Z</time>
      </trkpt>
      <trkpt lat="42.260397" lon="3.093273">
        <ele>6</ele>
        <time>1970-01-01T02:26:32.000Z</time>
      </trkpt>
      <trkpt lat="42.260376" lon="3.093202">
        <ele>6</ele>
        <time>1970-01-01T02:26:33.000Z</time>
      </trkpt>
      <trkpt lat="42.260356" lon="3.093131">
        <ele>6</ele>
        <time>1970-01-01T02:26:34.000Z</time>
      </trkpt>
      <trkpt lat="42.260335" lon="3.09306">
        <ele>6</ele>
        <time>1970-01-01T02:26:35.000Z</time>
      </trkpt>
      <trkpt lat="42.260315" lon="3.09299">
        <ele>6</ele>
        <time>1970-01-01T02:26:36.000Z</time>
      </trkpt>
      <trkpt lat="42.260294" lon="3.092919">
        <ele>6</ele>
        <time>1970-01-01T02:26:37.000Z</time>
      </trkpt>
      <trkpt lat="42.260274" lon="3.092848">
        <ele>6</ele>
        <time>1970-01-01T02:26:38.000Z</time>
      </trkpt>
      <trkpt lat="42.260253" lon="3.092777">
        <ele>6</ele>
        <time>1970-01-01T02:26:40.000Z</time>
      </trkpt>
      <trkpt lat="42.260233" lon="3.092706">
        <ele>6</ele>
        <time>1970-01-01T02:26:41.000Z</time>
      </trkpt>
      <trkpt lat="42.260196" lon="3.092568">
        <ele>6</ele>
        <time>1970-01-01T02:26:42.000Z</time>
      </trkpt>
      <trkpt lat="42.260177" lon="3.092499">
        <ele>6</ele>
        <time>1970-01-01T02:26:43.000Z</time>
      </trkpt>
      <trkpt lat="42.260159" lon="3.092431">
        <ele>6</ele>
        <time>1970-01-01T02:26:44.000Z</time>
      </trkpt>
      <trkpt lat="42.260141" lon="3.092363">
        <ele>6</ele>
        <time>1970-01-01T02:26:45.000Z</time>
      </trkpt>
      <trkpt lat="42.260122" lon="3.092294">
        <ele>6</ele>
        <time>1970-01-01T02:26:46.000Z</time>
      </trkpt>
      <trkpt lat="42.260104" lon="3.092226">
        <ele>6</ele>
        <time>1970-01-01T02:26:47.000Z</time>
      </trkpt>
      <trkpt lat="42.260086" lon="3.092158">
        <ele>6</ele>
        <time>1970-01-01T02:26:49.000Z</time>
      </trkpt>
      <trkpt lat="42.260067" lon="3.092089">
        <ele>6</ele>
        <time>1970-01-01T02:26:50.000Z</time>
      </trkpt>
      <trkpt lat="42.260049" lon="3.092021">
        <ele>6</ele>
        <time>1970-01-01T02:26:51.000Z</time>
      </trkpt>
      <trkpt lat="42.260009" lon="3.091889">
        <ele>6</ele>
        <time>1970-01-01T02:26:52.000Z</time>
      </trkpt>
      <trkpt lat="42.259987" lon="3.091823">
        <ele>6</ele>
        <time>1970-01-01T02:26:53.000Z</time>
      </trkpt>
      <trkpt lat="42.259965" lon="3.091758">
        <ele>6</ele>
        <time>1970-01-01T02:26:54.000Z</time>
      </trkpt>
      <trkpt lat="42.259943" lon="3.091692">
        <ele>6</ele>
        <time>1970-01-01T02:26:55.000Z</time>
      </trkpt>
      <trkpt lat="42.259922" lon="3.091627">
        <ele>6</ele>
        <time>1970-01-01T02:26:56.000Z</time>
      </trkpt>
      <trkpt lat="42.2599" lon="3.091561">
        <ele>6</ele>
        <time>1970-01-01T02:26:57.000Z</time>
      </trkpt>
      <trkpt lat="42.259878" lon="3.091496">
        <ele>6</ele>
        <time>1970-01-01T02:26:59.000Z</time>
      </trkpt>
      <trkpt lat="42.259856" lon="3.09143">
        <ele>6</ele>
        <time>1970-01-01T02:27:00.000Z</time>
      </trkpt>
      <trkpt lat="42.259834" lon="3.091365">
        <ele>6</ele>
        <time>1970-01-01T02:27:01.000Z</time>
      </trkpt>
      <trkpt lat="42.259781" lon="3.091234">
        <ele>6</ele>
        <time>1970-01-01T02:27:02.000Z</time>
      </trkpt>
      <trkpt lat="42.259754" lon="3.09117">
        <ele>6</ele>
        <time>1970-01-01T02:27:03.000Z</time>
      </trkpt>
      <trkpt lat="42.259726" lon="3.091106">
        <ele>6</ele>
        <time>1970-01-01T02:27:04.000Z</time>
      </trkpt>
      <trkpt lat="42.259699" lon="3.091042">
        <ele>6</ele>
        <time>1970-01-01T02:27:05.000Z</time>
      </trkpt>
      <trkpt lat="42.259671" lon="3.090979">
        <ele>6</ele>
        <time>1970-01-01T02:27:06.000Z</time>
      </trkpt>
      <trkpt lat="42.259644" lon="3.090915">
        <ele>6</ele>
        <time>1970-01-01T02:27:08.000Z</time>
      </trkpt>
      <trkpt lat="42.259616" lon="3.090851">
        <ele>6</ele>
        <time>1970-01-01T02:27:09.000Z</time>
      </trkpt>
      <trkpt lat="42.259589" lon="3.090787">
        <ele>6</ele>
        <time>1970-01-01T02:27:10.000Z</time>
      </trkpt>
      <trkpt lat="42.259561" lon="3.090723">
        <ele>6</ele>
        <time>1970-01-01T02:27:11.000Z</time>
      </trkpt>
      <trkpt lat="42.2595" lon="3.090605">
        <ele>6</ele>
        <time>1970-01-01T02:27:12.000Z</time>
      </trkpt>
      <trkpt lat="42.259468" lon="3.090548">
        <ele>6</ele>
        <time>1970-01-01T02:27:13.000Z</time>
      </trkpt>
      <trkpt lat="42.259437" lon="3.090491">
        <ele>6</ele>
        <time>1970-01-01T02:27:14.000Z</time>
      </trkpt>
      <trkpt lat="42.259406" lon="3.090434">
        <ele>6</ele>
        <time>1970-01-01T02:27:15.000Z</time>
      </trkpt>
      <trkpt lat="42.259374" lon="3.090377">
        <ele>6</ele>
        <time>1970-01-01T02:27:17.000Z</time>
      </trkpt>
      <trkpt lat="42.259343" lon="3.09032">
        <ele>6</ele>
        <time>1970-01-01T02:27:18.000Z</time>
      </trkpt>
      <trkpt lat="42.259312" lon="3.090263">
        <ele>6</ele>
        <time>1970-01-01T02:27:19.000Z</time>
      </trkpt>
      <trkpt lat="42.25928" lon="3.090206">
        <ele>6</ele>
        <time>1970-01-01T02:27:20.000Z</time>
      </trkpt>
      <trkpt lat="42.259249" lon="3.090149">
        <ele>6</ele>
        <time>1970-01-01T02:27:21.000Z</time>
      </trkpt>
      <trkpt lat="42.259184" lon="3.090046">
        <ele>6</ele>
        <time>1970-01-01T02:27:22.000Z</time>
      </trkpt>
      <trkpt lat="42.25915" lon="3.089996">
        <ele>6</ele>
        <time>1970-01-01T02:27:23.000Z</time>
      </trkpt>
      <trkpt lat="42.259117" lon="3.089947">
        <ele>6</ele>
        <time>1970-01-01T02:27:24.000Z</time>
      </trkpt>
      <trkpt lat="42.259083" lon="3.089897">
        <ele>6</ele>
        <time>1970-01-01T02:27:25.000Z</time>
      </trkpt>
      <trkpt lat="42.25905" lon="3.089847">
        <ele>6</ele>
        <time>1970-01-01T02:27:27.000Z</time>
      </trkpt>
      <trkpt lat="42.259016" lon="3.089797">
        <ele>6</ele>
        <time>1970-01-01T02:27:28.000Z</time>
      </trkpt>
      <trkpt lat="42.258983" lon="3.089748">
        <ele>6</ele>
        <time>1970-01-01T02:27:29.000Z</time>
      </trkpt>
      <trkpt lat="42.258949" lon="3.089698">
        <ele>6</ele>
        <time>1970-01-01T02:27:30.000Z</time>
      </trkpt>
      <trkpt lat="42.258916" lon="3.089648">
        <ele>8</ele>
        <time>1970-01-01T02:27:31.000Z</time>
      </trkpt>
      <trkpt lat="42.258846" lon="3.089557">
        <ele>8</ele>
        <time>1970-01-01T02:27:32.000Z</time>
      </trkpt>
      <trkpt lat="42.25881" lon="3.089513">
        <ele>8</ele>
        <time>1970-01-01T02:27:33.000Z</time>
      </trkpt>
      <trkpt lat="42.258774" lon="3.089469">
        <ele>8</ele>
        <time>1970-01-01T02:27:34.000Z</time>
      </trkpt>
      <trkpt lat="42.258738" lon="3.089425">
        <ele>8</ele>
        <time>1970-01-01T02:27:35.000Z</time>
      </trkpt>
      <trkpt lat="42.258703" lon="3.08938">
        <ele>8</ele>
        <time>1970-01-01T02:27:37.000Z</time>
      </trkpt>
      <trkpt lat="42.258667" lon="3.089336">
        <ele>8</ele>
        <time>1970-01-01T02:27:38.000Z</time>
      </trkpt>
      <trkpt lat="42.258631" lon="3.089292">
        <ele>8</ele>
        <time>1970-01-01T02:27:39.000Z</time>
      </trkpt>
      <trkpt lat="42.258595" lon="3.089248">
        <ele>8</ele>
        <time>1970-01-01T02:27:40.000Z</time>
      </trkpt>
      <trkpt lat="42.258559" lon="3.089204">
        <ele>9</ele>
        <time>1970-01-01T02:27:41.000Z</time>
      </trkpt>
      <trkpt lat="42.258484" lon="3.089123">
        <ele>9</ele>
        <time>1970-01-01T02:27:42.000Z</time>
      </trkpt>
      <trkpt lat="42.258446" lon="3.089084">
        <ele>9</ele>
        <time>1970-01-01T02:27:43.000Z</time>
      </trkpt>
      <trkpt lat="42.258408" lon="3.089046">
        <ele>9</ele>
        <time>1970-01-01T02:27:44.000Z</time>
      </trkpt>
      <trkpt lat="42.25837" lon="3.089007">
        <ele>9</ele>
        <time>1970-01-01T02:27:45.000Z</time>
      </trkpt>
      <trkpt lat="42.258332" lon="3.088968">
        <ele>9</ele>
        <time>1970-01-01T02:27:47.000Z</time>
      </trkpt>
      <trkpt lat="42.258294" lon="3.088929">
        <ele>9</ele>
        <time>1970-01-01T02:27:48.000Z</time>
      </trkpt>
      <trkpt lat="42.258256" lon="3.088891">
        <ele>9</ele>
        <time>1970-01-01T02:27:49.000Z</time>
      </trkpt>
      <trkpt lat="42.258218" lon="3.088852">
        <ele>9</ele>
        <time>1970-01-01T02:27:50.000Z</time>
      </trkpt>
      <trkpt lat="42.25818" lon="3.088813">
        <ele>9</ele>
        <time>1970-01-01T02:27:51.000Z</time>
      </trkpt>
      <trkpt lat="42.258093" lon="3.088738">
        <ele>9</ele>
        <time>1970-01-01T02:27:52.000Z</time>
      </trkpt>
      <trkpt lat="42.258046" lon="3.088699">
        <ele>9</ele>
        <time>1970-01-01T02:27:53.000Z</time>
      </trkpt>
      <trkpt lat="42.257999" lon="3.08866">
        <ele>9</ele>
        <time>1970-01-01T02:27:54.000Z</time>
      </trkpt>
      <trkpt lat="42.257953" lon="3.088621">
        <ele>9</ele>
        <time>1970-01-01T02:27:56.000Z</time>
      </trkpt>
      <trkpt lat="42.257906" lon="3.088582">
        <ele>9</ele>
        <time>1970-01-01T02:27:58.000Z</time>
      </trkpt>
      <trkpt lat="42.257859" lon="3.088543">
        <ele>9</ele>
        <time>1970-01-01T02:27:59.000Z</time>
      </trkpt>
      <trkpt lat="42.257812" lon="3.088504">
        <ele>9</ele>
        <time>1970-01-01T02:28:00.000Z</time>
      </trkpt>
      <trkpt lat="42.257765" lon="3.088465">
        <ele>10</ele>
        <time>1970-01-01T02:28:01.000Z</time>
      </trkpt>
      <trkpt lat="42.257676" lon="3.088399">
        <ele>10</ele>
        <time>1970-01-01T02:28:02.000Z</time>
      </trkpt>
      <trkpt lat="42.257631" lon="3.088368">
        <ele>10</ele>
        <time>1970-01-01T02:28:03.000Z</time>
      </trkpt>
      <trkpt lat="42.257585" lon="3.088336">
        <ele>10</ele>
        <time>1970-01-01T02:28:04.000Z</time>
      </trkpt>
      <trkpt lat="42.25754" lon="3.088304">
        <ele>10</ele>
        <time>1970-01-01T02:28:05.000Z</time>
      </trkpt>
      <trkpt lat="42.257494" lon="3.088273">
        <ele>10</ele>
        <time>1970-01-01T02:28:06.000Z</time>
      </trkpt>
      <trkpt lat="42.257449" lon="3.088241">
        <ele>10</ele>
        <time>1970-01-01T02:28:08.000Z</time>
      </trkpt>
      <trkpt lat="42.257403" lon="3.088209">
        <ele>10</ele>
        <time>1970-01-01T02:28:09.000Z</time>
      </trkpt>
      <trkpt lat="42.257358" lon="3.088178">
        <ele>10</ele>
        <time>1970-01-01T02:28:10.000Z</time>
      </trkpt>
      <trkpt lat="42.257312" lon="3.088146">
        <ele>10</ele>
        <time>1970-01-01T02:28:11.000Z</time>
      </trkpt>
      <trkpt lat="42.257214" lon="3.088079">
        <ele>10</ele>
        <time>1970-01-01T02:28:12.000Z</time>
      </trkpt>
      <trkpt lat="42.257163" lon="3.088044">
        <ele>10</ele>
        <time>1970-01-01T02:28:13.000Z</time>
      </trkpt>
      <trkpt lat="42.257111" lon="3.088009">
        <ele>10</ele>
        <time>1970-01-01T02:28:15.000Z</time>
      </trkpt>
      <trkpt lat="42.257059" lon="3.087974">
        <ele>10</ele>
        <time>1970-01-01T02:28:17.000Z</time>
      </trkpt>
      <trkpt lat="42.257007" lon="3.08794">
        <ele>10</ele>
        <time>1970-01-01T02:28:18.000Z</time>
      </trkpt>
      <trkpt lat="42.256956" lon="3.087905">
        <ele>10</ele>
        <time>1970-01-01T02:28:19.000Z</time>
      </trkpt>
      <trkpt lat="42.256904" lon="3.08787">
        <ele>10</ele>
        <time>1970-01-01T02:28:20.000Z</time>
      </trkpt>
      <trkpt lat="42.256852" lon="3.087835">
        <ele>11</ele>
        <time>1970-01-01T02:28:21.000Z</time>
      </trkpt>
      <trkpt lat="42.256767" lon="3.087776">
        <ele>11</ele>
        <time>1970-01-01T02:28:22.000Z</time>
      </trkpt>
      <trkpt lat="42.256727" lon="3.087748">
        <ele>11</ele>
        <time>1970-01-01T02:28:23.000Z</time>
      </trkpt>
      <trkpt lat="42.256687" lon="3.08772">
        <ele>11</ele>
        <time>1970-01-01T02:28:24.000Z</time>
      </trkpt>
      <trkpt lat="42.256647" lon="3.087692">
        <ele>11</ele>
        <time>1970-01-01T02:28:25.000Z</time>
      </trkpt>
      <trkpt lat="42.256608" lon="3.087664">
        <ele>11</ele>
        <time>1970-01-01T02:28:26.000Z</time>
      </trkpt>
      <trkpt lat="42.256568" lon="3.087637">
        <ele>11</ele>
        <time>1970-01-01T02:28:27.000Z</time>
      </trkpt>
      <trkpt lat="42.256528" lon="3.087609">
        <ele>11</ele>
        <time>1970-01-01T02:28:28.000Z</time>
      </trkpt>
      <trkpt lat="42.256488" lon="3.087581">
        <ele>11</ele>
        <time>1970-01-01T02:28:29.000Z</time>
      </trkpt>
      <trkpt lat="42.256448" lon="3.087553">
        <ele>11</ele>
        <time>1970-01-01T02:28:30.000Z</time>
      </trkpt>
      <trkpt lat="42.256408" lon="3.087525">
        <ele>12</ele>
        <time>1970-01-01T02:28:31.000Z</time>
      </trkpt>
      <trkpt lat="42.256312" lon="3.087457">
        <ele>12</ele>
        <time>1970-01-01T02:28:32.000Z</time>
      </trkpt>
      <trkpt lat="42.256261" lon="3.087422">
        <ele>12</ele>
        <time>1970-01-01T02:28:34.000Z</time>
      </trkpt>
      <trkpt lat="42.25621" lon="3.087387">
        <ele>12</ele>
        <time>1970-01-01T02:28:35.000Z</time>
      </trkpt>
      <trkpt lat="42.256159" lon="3.087351">
        <ele>12</ele>
        <time>1970-01-01T02:28:37.000Z</time>
      </trkpt>
      <trkpt lat="42.256107" lon="3.087316">
        <ele>12</ele>
        <time>1970-01-01T02:28:38.000Z</time>
      </trkpt>
      <trkpt lat="42.256056" lon="3.087281">
        <ele>12</ele>
        <time>1970-01-01T02:28:39.000Z</time>
      </trkpt>
      <trkpt lat="42.256005" lon="3.087246">
        <ele>12</ele>
        <time>1970-01-01T02:28:40.000Z</time>
      </trkpt>
      <trkpt lat="42.255954" lon="3.087211">
        <ele>12</ele>
        <time>1970-01-01T02:28:41.000Z</time>
      </trkpt>
      <trkpt lat="42.255865" lon="3.08715">
        <ele>12</ele>
        <time>1970-01-01T02:28:42.000Z</time>
      </trkpt>
      <trkpt lat="42.255822" lon="3.087121">
        <ele>12</ele>
        <time>1970-01-01T02:28:43.000Z</time>
      </trkpt>
      <trkpt lat="42.255779" lon="3.087091">
        <ele>12</ele>
        <time>1970-01-01T02:28:44.000Z</time>
      </trkpt>
      <trkpt lat="42.255736" lon="3.087061">
        <ele>12</ele>
        <time>1970-01-01T02:28:45.000Z</time>
      </trkpt>
      <trkpt lat="42.255693" lon="3.087032">
        <ele>12</ele>
        <time>1970-01-01T02:28:47.000Z</time>
      </trkpt>
      <trkpt lat="42.25565" lon="3.087002">
        <ele>12</ele>
        <time>1970-01-01T02:28:48.000Z</time>
      </trkpt>
      <trkpt lat="42.255607" lon="3.086972">
        <ele>12</ele>
        <time>1970-01-01T02:28:49.000Z</time>
      </trkpt>
      <trkpt lat="42.255564" lon="3.086943">
        <ele>12</ele>
        <time>1970-01-01T02:28:50.000Z</time>
      </trkpt>
      <trkpt lat="42.255521" lon="3.086913">
        <ele>14</ele>
        <time>1970-01-01T02:28:51.000Z</time>
      </trkpt>
      <trkpt lat="42.25539" lon="3.086824">
        <ele>14</ele>
        <time>1970-01-01T02:28:53.000Z</time>
      </trkpt>
      <trkpt lat="42.255344" lon="3.086794">
        <ele>14</ele>
        <time>1970-01-01T02:28:54.000Z</time>
      </trkpt>
      <trkpt lat="42.255298" lon="3.086764">
        <ele>14</ele>
        <time>1970-01-01T02:28:55.000Z</time>
      </trkpt>
      <trkpt lat="42.255252" lon="3.086734">
        <ele>14</ele>
        <time>1970-01-01T02:28:56.000Z</time>
      </trkpt>
      <trkpt lat="42.255206" lon="3.086704">
        <ele>14</ele>
        <time>1970-01-01T02:28:58.000Z</time>
      </trkpt>
      <trkpt lat="42.25516" lon="3.086674">
        <ele>14</ele>
        <time>1970-01-01T02:28:59.000Z</time>
      </trkpt>
      <trkpt lat="42.255114" lon="3.086644">
        <ele>14</ele>
        <time>1970-01-01T02:29:00.000Z</time>
      </trkpt>
      <trkpt lat="42.255068" lon="3.086614">
        <ele>14</ele>
        <time>1970-01-01T02:29:01.000Z</time>
      </trkpt>
      <trkpt lat="42.254965" lon="3.086546">
        <ele>14</ele>
        <time>1970-01-01T02:29:02.000Z</time>
      </trkpt>
      <trkpt lat="42.254911" lon="3.08651">
        <ele>14</ele>
        <time>1970-01-01T02:29:03.000Z</time>
      </trkpt>
      <trkpt lat="42.254856" lon="3.086473">
        <ele>14</ele>
        <time>1970-01-01T02:29:04.000Z</time>
      </trkpt>
      <trkpt lat="42.254802" lon="3.086436">
        <ele>14</ele>
        <time>1970-01-01T02:29:05.000Z</time>
      </trkpt>
      <trkpt lat="42.254747" lon="3.0864">
        <ele>14</ele>
        <time>1970-01-01T02:29:07.000Z</time>
      </trkpt>
      <trkpt lat="42.254693" lon="3.086363">
        <ele>14</ele>
        <time>1970-01-01T02:29:08.000Z</time>
      </trkpt>
      <trkpt lat="42.254638" lon="3.086326">
        <ele>14</ele>
        <time>1970-01-01T02:29:09.000Z</time>
      </trkpt>
      <trkpt lat="42.254584" lon="3.08629">
        <ele>14</ele>
        <time>1970-01-01T02:29:10.000Z</time>
      </trkpt>
      <trkpt lat="42.254529" lon="3.086253">
        <ele>13</ele>
        <time>1970-01-01T02:29:12.000Z</time>
      </trkpt>
      <trkpt lat="42.254425" lon="3.086184">
        <ele>13</ele>
        <time>1970-01-01T02:29:13.000Z</time>
      </trkpt>
      <trkpt lat="42.254373" lon="3.086148">
        <ele>13</ele>
        <time>1970-01-01T02:29:14.000Z</time>
      </trkpt>
      <trkpt lat="42.25432" lon="3.086113">
        <ele>13</ele>
        <time>1970-01-01T02:29:16.000Z</time>
      </trkpt>
      <trkpt lat="42.254267" lon="3.086077">
        <ele>13</ele>
        <time>1970-01-01T02:29:17.000Z</time>
      </trkpt>
      <trkpt lat="42.254214" lon="3.086042">
        <ele>13</ele>
        <time>1970-01-01T02:29:18.000Z</time>
      </trkpt>
      <trkpt lat="42.254162" lon="3.086007">
        <ele>13</ele>
        <time>1970-01-01T02:29:19.000Z</time>
      </trkpt>
      <trkpt lat="42.254109" lon="3.085971">
        <ele>13</ele>
        <time>1970-01-01T02:29:20.000Z</time>
      </trkpt>
      <trkpt lat="42.254056" lon="3.085936">
        <ele>13</ele>
        <time>1970-01-01T02:29:21.000Z</time>
      </trkpt>
      <trkpt lat="42.253944" lon="3.085856">
        <ele>13</ele>
        <time>1970-01-01T02:29:22.000Z</time>
      </trkpt>
      <trkpt lat="42.253886" lon="3.085809">
        <ele>13</ele>
        <time>1970-01-01T02:29:24.000Z</time>
      </trkpt>
      <trkpt lat="42.253827" lon="3.085763">
        <ele>13</ele>
        <time>1970-01-01T02:29:25.000Z</time>
      </trkpt>
      <trkpt lat="42.253769" lon="3.085717">
        <ele>13</ele>
        <time>1970-01-01T02:29:26.000Z</time>
      </trkpt>
      <trkpt lat="42.253711" lon="3.08567">
        <ele>13</ele>
        <time>1970-01-01T02:29:27.000Z</time>
      </trkpt>
      <trkpt lat="42.253653" lon="3.085624">
        <ele>13</ele>
        <time>1970-01-01T02:29:28.000Z</time>
      </trkpt>
      <trkpt lat="42.253594" lon="3.085578">
        <ele>13</ele>
        <time>1970-01-01T02:29:29.000Z</time>
      </trkpt>
      <trkpt lat="42.253536" lon="3.085531">
        <ele>13</ele>
        <time>1970-01-01T02:29:31.000Z</time>
      </trkpt>
      <trkpt lat="42.253478" lon="3.085485">
        <ele>13</ele>
        <time>1970-01-01T02:29:32.000Z</time>
      </trkpt>
      <trkpt lat="42.253348" lon="3.08533">
        <ele>13</ele>
        <time>1970-01-01T02:29:33.000Z</time>
      </trkpt>
      <trkpt lat="42.2533" lon="3.085258">
        <ele>13</ele>
        <time>1970-01-01T02:29:34.000Z</time>
      </trkpt>
      <trkpt lat="42.253252" lon="3.085187">
        <ele>13</ele>
        <time>1970-01-01T02:29:35.000Z</time>
      </trkpt>
      <trkpt lat="42.253204" lon="3.085116">
        <ele>13</ele>
        <time>1970-01-01T02:29:36.000Z</time>
      </trkpt>
      <trkpt lat="42.253155" lon="3.085045">
        <ele>13</ele>
        <time>1970-01-01T02:29:37.000Z</time>
      </trkpt>
      <trkpt lat="42.253107" lon="3.084973">
        <ele>13</ele>
        <time>1970-01-01T02:29:38.000Z</time>
      </trkpt>
      <trkpt lat="42.253059" lon="3.084902">
        <ele>13</ele>
        <time>1970-01-01T02:29:40.000Z</time>
      </trkpt>
      <trkpt lat="42.253011" lon="3.084831">
        <ele>11</ele>
        <time>1970-01-01T02:29:41.000Z</time>
      </trkpt>
      <trkpt lat="42.252935" lon="3.084662">
        <ele>11</ele>
        <time>1970-01-01T02:29:42.000Z</time>
      </trkpt>
      <trkpt lat="42.252903" lon="3.084575">
        <ele>11</ele>
        <time>1970-01-01T02:29:43.000Z</time>
      </trkpt>
      <trkpt lat="42.25287" lon="3.084487">
        <ele>11</ele>
        <time>1970-01-01T02:29:44.000Z</time>
      </trkpt>
      <trkpt lat="42.252838" lon="3.084399">
        <ele>11</ele>
        <time>1970-01-01T02:29:45.000Z</time>
      </trkpt>
      <trkpt lat="42.252805" lon="3.084312">
        <ele>11</ele>
        <time>1970-01-01T02:29:46.000Z</time>
      </trkpt>
      <trkpt lat="42.252773" lon="3.084224">
        <ele>11</ele>
        <time>1970-01-01T02:29:47.000Z</time>
      </trkpt>
      <trkpt lat="42.25274" lon="3.084136">
        <ele>11</ele>
        <time>1970-01-01T02:29:48.000Z</time>
      </trkpt>
      <trkpt lat="42.252708" lon="3.084049">
        <ele>11</ele>
        <time>1970-01-01T02:29:50.000Z</time>
      </trkpt>
      <trkpt lat="42.252675" lon="3.083961">
        <ele>10</ele>
        <time>1970-01-01T02:29:51.000Z</time>
      </trkpt>
      <trkpt lat="42.252593" lon="3.083696">
        <ele>10</ele>
        <time>1970-01-01T02:29:53.000Z</time>
      </trkpt>
      <trkpt lat="42.252566" lon="3.083608">
        <ele>10</ele>
        <time>1970-01-01T02:29:54.000Z</time>
      </trkpt>
      <trkpt lat="42.252539" lon="3.083521">
        <ele>10</ele>
        <time>1970-01-01T02:29:55.000Z</time>
      </trkpt>
      <trkpt lat="42.252512" lon="3.083433">
        <ele>10</ele>
        <time>1970-01-01T02:29:56.000Z</time>
      </trkpt>
      <trkpt lat="42.252485" lon="3.083345">
        <ele>10</ele>
        <time>1970-01-01T02:29:57.000Z</time>
      </trkpt>
      <trkpt lat="42.252458" lon="3.083257">
        <ele>10</ele>
        <time>1970-01-01T02:29:58.000Z</time>
      </trkpt>
      <trkpt lat="42.252431" lon="3.08317">
        <ele>10</ele>
        <time>1970-01-01T02:30:00.000Z</time>
      </trkpt>
      <trkpt lat="42.252404" lon="3.083082">
        <ele>9</ele>
        <time>1970-01-01T02:30:01.000Z</time>
      </trkpt>
      <trkpt lat="42.252351" lon="3.082914">
        <ele>9</ele>
        <time>1970-01-01T02:30:02.000Z</time>
      </trkpt>
      <trkpt lat="42.252326" lon="3.082831">
        <ele>9</ele>
        <time>1970-01-01T02:30:03.000Z</time>
      </trkpt>
      <trkpt lat="42.2523" lon="3.082747">
        <ele>9</ele>
        <time>1970-01-01T02:30:04.000Z</time>
      </trkpt>
      <trkpt lat="42.252275" lon="3.082663">
        <ele>9</ele>
        <time>1970-01-01T02:30:05.000Z</time>
      </trkpt>
      <trkpt lat="42.25225" lon="3.08258">
        <ele>9</ele>
        <time>1970-01-01T02:30:06.000Z</time>
      </trkpt>
      <trkpt lat="42.252225" lon="3.082496">
        <ele>9</ele>
        <time>1970-01-01T02:30:08.000Z</time>
      </trkpt>
      <trkpt lat="42.252199" lon="3.082412">
        <ele>9</ele>
        <time>1970-01-01T02:30:09.000Z</time>
      </trkpt>
      <trkpt lat="42.252174" lon="3.082329">
        <ele>9</ele>
        <time>1970-01-01T02:30:10.000Z</time>
      </trkpt>
      <trkpt lat="42.252149" lon="3.082245">
        <ele>10</ele>
        <time>1970-01-01T02:30:11.000Z</time>
      </trkpt>
      <trkpt lat="42.252097" lon="3.082075">
        <ele>10</ele>
        <time>1970-01-01T02:30:12.000Z</time>
      </trkpt>
      <trkpt lat="42.252072" lon="3.081988">
        <ele>10</ele>
        <time>1970-01-01T02:30:13.000Z</time>
      </trkpt>
      <trkpt lat="42.252046" lon="3.081902">
        <ele>10</ele>
        <time>1970-01-01T02:30:15.000Z</time>
      </trkpt>
      <trkpt lat="42.252021" lon="3.081815">
        <ele>10</ele>
        <time>1970-01-01T02:30:16.000Z</time>
      </trkpt>
      <trkpt lat="42.251995" lon="3.081728">
        <ele>10</ele>
        <time>1970-01-01T02:30:17.000Z</time>
      </trkpt>
      <trkpt lat="42.25197" lon="3.081641">
        <ele>10</ele>
        <time>1970-01-01T02:30:18.000Z</time>
      </trkpt>
      <trkpt lat="42.251944" lon="3.081555">
        <ele>10</ele>
        <time>1970-01-01T02:30:19.000Z</time>
      </trkpt>
      <trkpt lat="42.251919" lon="3.081468">
        <ele>10</ele>
        <time>1970-01-01T02:30:20.000Z</time>
      </trkpt>
      <trkpt lat="42.251893" lon="3.081381">
        <ele>10</ele>
        <time>1970-01-01T02:30:21.000Z</time>
      </trkpt>
      <trkpt lat="42.25185" lon="3.0812">
        <ele>10</ele>
        <time>1970-01-01T02:30:22.000Z</time>
      </trkpt>
      <trkpt lat="42.25183" lon="3.081109">
        <ele>10</ele>
        <time>1970-01-01T02:30:23.000Z</time>
      </trkpt>
      <trkpt lat="42.251811" lon="3.081018">
        <ele>10</ele>
        <time>1970-01-01T02:30:24.000Z</time>
      </trkpt>
      <trkpt lat="42.251791" lon="3.080927">
        <ele>10</ele>
        <time>1970-01-01T02:30:25.000Z</time>
      </trkpt>
      <trkpt lat="42.251772" lon="3.080835">
        <ele>10</ele>
        <time>1970-01-01T02:30:26.000Z</time>
      </trkpt>
      <trkpt lat="42.251752" lon="3.080744">
        <ele>10</ele>
        <time>1970-01-01T02:30:28.000Z</time>
      </trkpt>
      <trkpt lat="42.251733" lon="3.080653">
        <ele>10</ele>
        <time>1970-01-01T02:30:29.000Z</time>
      </trkpt>
      <trkpt lat="42.251713" lon="3.080562">
        <ele>10</ele>
        <time>1970-01-01T02:30:30.000Z</time>
      </trkpt>
      <trkpt lat="42.251694" lon="3.080471">
        <ele>9</ele>
        <time>1970-01-01T02:30:31.000Z</time>
      </trkpt>
      <trkpt lat="42.251667" lon="3.080289">
        <ele>9</ele>
        <time>1970-01-01T02:30:32.000Z</time>
      </trkpt>
      <trkpt lat="42.251657" lon="3.080198">
        <ele>9</ele>
        <time>1970-01-01T02:30:33.000Z</time>
      </trkpt>
      <trkpt lat="42.251646" lon="3.080107">
        <ele>9</ele>
        <time>1970-01-01T02:30:34.000Z</time>
      </trkpt>
      <trkpt lat="42.251635" lon="3.080016">
        <ele>9</ele>
        <time>1970-01-01T02:30:35.000Z</time>
      </trkpt>
      <trkpt lat="42.251625" lon="3.079924">
        <ele>9</ele>
        <time>1970-01-01T02:30:37.000Z</time>
      </trkpt>
      <trkpt lat="42.251614" lon="3.079833">
        <ele>9</ele>
        <time>1970-01-01T02:30:38.000Z</time>
      </trkpt>
      <trkpt lat="42.251603" lon="3.079742">
        <ele>9</ele>
        <time>1970-01-01T02:30:39.000Z</time>
      </trkpt>
      <trkpt lat="42.251593" lon="3.079651">
        <ele>9</ele>
        <time>1970-01-01T02:30:40.000Z</time>
      </trkpt>
      <trkpt lat="42.251582" lon="3.07956">
        <ele>10</ele>
        <time>1970-01-01T02:30:41.000Z</time>
      </trkpt>
      <trkpt lat="42.25157" lon="3.079353">
        <ele>10</ele>
        <time>1970-01-01T02:30:42.000Z</time>
      </trkpt>
      <trkpt lat="42.251566" lon="3.079238">
        <ele>10</ele>
        <time>1970-01-01T02:30:44.000Z</time>
      </trkpt>
      <trkpt lat="42.251562" lon="3.079122">
        <ele>10</ele>
        <time>1970-01-01T02:30:45.000Z</time>
      </trkpt>
      <trkpt lat="42.251557" lon="3.079006">
        <ele>10</ele>
        <time>1970-01-01T02:30:47.000Z</time>
      </trkpt>
      <trkpt lat="42.251553" lon="3.07889">
        <ele>10</ele>
        <time>1970-01-01T02:30:48.000Z</time>
      </trkpt>
      <trkpt lat="42.251549" lon="3.078775">
        <ele>10</ele>
        <time>1970-01-01T02:30:49.000Z</time>
      </trkpt>
      <trkpt lat="42.251545" lon="3.078659">
        <ele>9</ele>
        <time>1970-01-01T02:30:51.000Z</time>
      </trkpt>
      <trkpt lat="42.251541" lon="3.078481">
        <ele>9</ele>
        <time>1970-01-01T02:30:52.000Z</time>
      </trkpt>
      <trkpt lat="42.251539" lon="3.078392">
        <ele>9</ele>
        <time>1970-01-01T02:30:53.000Z</time>
      </trkpt>
      <trkpt lat="42.251537" lon="3.078303">
        <ele>9</ele>
        <time>1970-01-01T02:30:54.000Z</time>
      </trkpt>
      <trkpt lat="42.251535" lon="3.078214">
        <ele>9</ele>
        <time>1970-01-01T02:30:55.000Z</time>
      </trkpt>
      <trkpt lat="42.251533" lon="3.078125">
        <ele>9</ele>
        <time>1970-01-01T02:30:56.000Z</time>
      </trkpt>
      <trkpt lat="42.251531" lon="3.078036">
        <ele>9</ele>
        <time>1970-01-01T02:30:57.000Z</time>
      </trkpt>
      <trkpt lat="42.251529" lon="3.077947">
        <ele>9</ele>
        <time>1970-01-01T02:30:59.000Z</time>
      </trkpt>
      <trkpt lat="42.251527" lon="3.077858">
        <ele>9</ele>
        <time>1970-01-01T02:31:00.000Z</time>
      </trkpt>
      <trkpt lat="42.251525" lon="3.077769">
        <ele>9</ele>
        <time>1970-01-01T02:31:01.000Z</time>
      </trkpt>
      <trkpt lat="42.251521" lon="3.077594">
        <ele>9</ele>
        <time>1970-01-01T02:31:02.000Z</time>
      </trkpt>
      <trkpt lat="42.25152" lon="3.077509">
        <ele>9</ele>
        <time>1970-01-01T02:31:03.000Z</time>
      </trkpt>
      <trkpt lat="42.251518" lon="3.077425">
        <ele>9</ele>
        <time>1970-01-01T02:31:04.000Z</time>
      </trkpt>
      <trkpt lat="42.251516" lon="3.07734">
        <ele>9</ele>
        <time>1970-01-01T02:31:06.000Z</time>
      </trkpt>
      <trkpt lat="42.251515" lon="3.077255">
        <ele>9</ele>
        <time>1970-01-01T02:31:07.000Z</time>
      </trkpt>
      <trkpt lat="42.251513" lon="3.07717">
        <ele>9</ele>
        <time>1970-01-01T02:31:08.000Z</time>
      </trkpt>
      <trkpt lat="42.251511" lon="3.077086">
        <ele>9</ele>
        <time>1970-01-01T02:31:09.000Z</time>
      </trkpt>
      <trkpt lat="42.25151" lon="3.077001">
        <ele>9</ele>
        <time>1970-01-01T02:31:10.000Z</time>
      </trkpt>
      <trkpt lat="42.251508" lon="3.076916">
        <ele>9</ele>
        <time>1970-01-01T02:31:11.000Z</time>
      </trkpt>
      <trkpt lat="42.251536" lon="3.076777">
        <ele>9</ele>
        <time>1970-01-01T02:31:12.000Z</time>
      </trkpt>
      <trkpt lat="42.251561" lon="3.076718">
        <ele>9</ele>
        <time>1970-01-01T02:31:13.000Z</time>
      </trkpt>
      <trkpt lat="42.251586" lon="3.076659">
        <ele>9</ele>
        <time>1970-01-01T02:31:15.000Z</time>
      </trkpt>
      <trkpt lat="42.251611" lon="3.0766">
        <ele>9</ele>
        <time>1970-01-01T02:31:16.000Z</time>
      </trkpt>
      <trkpt lat="42.251636" lon="3.076542">
        <ele>9</ele>
        <time>1970-01-01T02:31:17.000Z</time>
      </trkpt>
      <trkpt lat="42.251661" lon="3.076483">
        <ele>9</ele>
        <time>1970-01-01T02:31:18.000Z</time>
      </trkpt>
      <trkpt lat="42.251686" lon="3.076424">
        <ele>9</ele>
        <time>1970-01-01T02:31:19.000Z</time>
      </trkpt>
      <trkpt lat="42.251711" lon="3.076365">
        <ele>9</ele>
        <time>1970-01-01T02:31:20.000Z</time>
      </trkpt>
      <trkpt lat="42.251736" lon="3.076306">
        <ele>10</ele>
        <time>1970-01-01T02:31:21.000Z</time>
      </trkpt>
      <trkpt lat="42.251764" lon="3.076165">
        <ele>10</ele>
        <time>1970-01-01T02:31:22.000Z</time>
      </trkpt>
      <trkpt lat="42.251775" lon="3.076089">
        <ele>10</ele>
        <time>1970-01-01T02:31:24.000Z</time>
      </trkpt>
      <trkpt lat="42.251786" lon="3.076014">
        <ele>10</ele>
        <time>1970-01-01T02:31:25.000Z</time>
      </trkpt>
      <trkpt lat="42.251797" lon="3.075938">
        <ele>10</ele>
        <time>1970-01-01T02:31:26.000Z</time>
      </trkpt>
      <trkpt lat="42.251807" lon="3.075863">
        <ele>10</ele>
        <time>1970-01-01T02:31:27.000Z</time>
      </trkpt>
      <trkpt lat="42.251818" lon="3.075787">
        <ele>10</ele>
        <time>1970-01-01T02:31:28.000Z</time>
      </trkpt>
      <trkpt lat="42.251829" lon="3.075712">
        <ele>10</ele>
        <time>1970-01-01T02:31:29.000Z</time>
      </trkpt>
      <trkpt lat="42.25184" lon="3.075636">
        <ele>10</ele>
        <time>1970-01-01T02:31:30.000Z</time>
      </trkpt>
      <trkpt lat="42.251851" lon="3.075561">
        <ele>11</ele>
        <time>1970-01-01T02:31:31.000Z</time>
      </trkpt>
      <trkpt lat="42.251934" lon="3.075436">
        <ele>11</ele>
        <time>1970-01-01T02:31:32.000Z</time>
      </trkpt>
      <trkpt lat="42.251977" lon="3.075376">
        <ele>11</ele>
        <time>1970-01-01T02:31:33.000Z</time>
      </trkpt>
      <trkpt lat="42.25202" lon="3.075317">
        <ele>11</ele>
        <time>1970-01-01T02:31:34.000Z</time>
      </trkpt>
      <trkpt lat="42.252063" lon="3.075257">
        <ele>11</ele>
        <time>1970-01-01T02:31:35.000Z</time>
      </trkpt>
      <trkpt lat="42.252105" lon="3.075197">
        <ele>11</ele>
        <time>1970-01-01T02:31:36.000Z</time>
      </trkpt>
      <trkpt lat="42.252148" lon="3.075137">
        <ele>11</ele>
        <time>1970-01-01T02:31:37.000Z</time>
      </trkpt>
      <trkpt lat="42.252191" lon="3.075078">
        <ele>11</ele>
        <time>1970-01-01T02:31:38.000Z</time>
      </trkpt>
      <trkpt lat="42.252234" lon="3.075018">
        <ele>11</ele>
        <time>1970-01-01T02:31:39.000Z</time>
      </trkpt>
      <trkpt lat="42.252277" lon="3.074958">
        <ele>11</ele>
        <time>1970-01-01T02:31:41.000Z</time>
      </trkpt>
      <trkpt lat="42.252358" lon="3.074814">
        <ele>11</ele>
        <time>1970-01-01T02:31:42.000Z</time>
      </trkpt>
      <trkpt lat="42.252401" lon="3.074735">
        <ele>11</ele>
        <time>1970-01-01T02:31:44.000Z</time>
      </trkpt>
      <trkpt lat="42.252444" lon="3.074656">
        <ele>11</ele>
        <time>1970-01-01T02:31:45.000Z</time>
      </trkpt>
      <trkpt lat="42.252487" lon="3.074578">
        <ele>11</ele>
        <time>1970-01-01T02:31:46.000Z</time>
      </trkpt>
      <trkpt lat="42.252529" lon="3.074499">
        <ele>11</ele>
        <time>1970-01-01T02:31:47.000Z</time>
      </trkpt>
      <trkpt lat="42.252572" lon="3.07442">
        <ele>11</ele>
        <time>1970-01-01T02:31:49.000Z</time>
      </trkpt>
      <trkpt lat="42.252615" lon="3.074341">
        <ele>11</ele>
        <time>1970-01-01T02:31:50.000Z</time>
      </trkpt>
      <trkpt lat="42.252658" lon="3.074262">
        <ele>10</ele>
        <time>1970-01-01T02:31:51.000Z</time>
      </trkpt>
      <trkpt lat="42.252732" lon="3.074124">
        <ele>10</ele>
        <time>1970-01-01T02:31:52.000Z</time>
      </trkpt>
      <trkpt lat="42.25277" lon="3.074056">
        <ele>10</ele>
        <time>1970-01-01T02:31:53.000Z</time>
      </trkpt>
      <trkpt lat="42.252807" lon="3.073987">
        <ele>10</ele>
        <time>1970-01-01T02:31:54.000Z</time>
      </trkpt>
      <trkpt lat="42.252844" lon="3.073919">
        <ele>10</ele>
        <time>1970-01-01T02:31:55.000Z</time>
      </trkpt>
      <trkpt lat="42.252882" lon="3.073851">
        <ele>10</ele>
        <time>1970-01-01T02:31:57.000Z</time>
      </trkpt>
      <trkpt lat="42.252919" lon="3.073783">
        <ele>10</ele>
        <time>1970-01-01T02:31:58.000Z</time>
      </trkpt>
      <trkpt lat="42.252956" lon="3.073714">
        <ele>10</ele>
        <time>1970-01-01T02:31:59.000Z</time>
      </trkpt>
      <trkpt lat="42.252994" lon="3.073646">
        <ele>10</ele>
        <time>1970-01-01T02:32:00.000Z</time>
      </trkpt>
      <trkpt lat="42.253031" lon="3.073578">
        <ele>10</ele>
        <time>1970-01-01T02:32:01.000Z</time>
      </trkpt>
      <trkpt lat="42.253146" lon="3.073366">
        <ele>10</ele>
        <time>1970-01-01T02:32:03.000Z</time>
      </trkpt>
      <trkpt lat="42.253187" lon="3.073288">
        <ele>10</ele>
        <time>1970-01-01T02:32:05.000Z</time>
      </trkpt>
      <trkpt lat="42.253229" lon="3.073211">
        <ele>10</ele>
        <time>1970-01-01T02:32:06.000Z</time>
      </trkpt>
      <trkpt lat="42.253271" lon="3.073133">
        <ele>10</ele>
        <time>1970-01-01T02:32:07.000Z</time>
      </trkpt>
      <trkpt lat="42.253313" lon="3.073056">
        <ele>10</ele>
        <time>1970-01-01T02:32:08.000Z</time>
      </trkpt>
      <trkpt lat="42.253354" lon="3.072978">
        <ele>10</ele>
        <time>1970-01-01T02:32:10.000Z</time>
      </trkpt>
      <trkpt lat="42.253396" lon="3.072901">
        <ele>10</ele>
        <time>1970-01-01T02:32:11.000Z</time>
      </trkpt>
      <trkpt lat="42.253469" lon="3.072768">
        <ele>10</ele>
        <time>1970-01-01T02:32:12.000Z</time>
      </trkpt>
      <trkpt lat="42.253505" lon="3.072703">
        <ele>10</ele>
        <time>1970-01-01T02:32:13.000Z</time>
      </trkpt>
      <trkpt lat="42.25354" lon="3.072638">
        <ele>10</ele>
        <time>1970-01-01T02:32:14.000Z</time>
      </trkpt>
      <trkpt lat="42.253576" lon="3.072573">
        <ele>10</ele>
        <time>1970-01-01T02:32:15.000Z</time>
      </trkpt>
      <trkpt lat="42.253612" lon="3.072509">
        <ele>10</ele>
        <time>1970-01-01T02:32:16.000Z</time>
      </trkpt>
      <trkpt lat="42.253648" lon="3.072444">
        <ele>10</ele>
        <time>1970-01-01T02:32:17.000Z</time>
      </trkpt>
      <trkpt lat="42.253683" lon="3.072379">
        <ele>10</ele>
        <time>1970-01-01T02:32:18.000Z</time>
      </trkpt>
      <trkpt lat="42.253719" lon="3.072314">
        <ele>10</ele>
        <time>1970-01-01T02:32:19.000Z</time>
      </trkpt>
      <trkpt lat="42.253755" lon="3.072249">
        <ele>10</ele>
        <time>1970-01-01T02:32:21.000Z</time>
      </trkpt>
      <trkpt lat="42.253818" lon="3.072136">
        <ele>10</ele>
        <time>1970-01-01T02:32:22.000Z</time>
      </trkpt>
      <trkpt lat="42.253847" lon="3.072084">
        <ele>10</ele>
        <time>1970-01-01T02:32:23.000Z</time>
      </trkpt>
      <trkpt lat="42.253875" lon="3.072032">
        <ele>10</ele>
        <time>1970-01-01T02:32:24.000Z</time>
      </trkpt>
      <trkpt lat="42.253904" lon="3.07198">
        <ele>10</ele>
        <time>1970-01-01T02:32:25.000Z</time>
      </trkpt>
      <trkpt lat="42.253932" lon="3.071928">
        <ele>10</ele>
        <time>1970-01-01T02:32:26.000Z</time>
      </trkpt>
      <trkpt lat="42.25396" lon="3.071875">
        <ele>10</ele>
        <time>1970-01-01T02:32:27.000Z</time>
      </trkpt>
      <trkpt lat="42.253989" lon="3.071823">
        <ele>10</ele>
        <time>1970-01-01T02:32:28.000Z</time>
      </trkpt>
      <trkpt lat="42.254017" lon="3.071771">
        <ele>10</ele>
        <time>1970-01-01T02:32:29.000Z</time>
      </trkpt>
      <trkpt lat="42.254046" lon="3.071719">
        <ele>10</ele>
        <time>1970-01-01T02:32:30.000Z</time>
      </trkpt>
      <trkpt lat="42.254074" lon="3.071667">
        <ele>11</ele>
        <time>1970-01-01T02:32:31.000Z</time>
      </trkpt>
      <trkpt lat="42.254132" lon="3.07153">
        <ele>11</ele>
        <time>1970-01-01T02:32:32.000Z</time>
      </trkpt>
      <trkpt lat="42.254158" lon="3.071454">
        <ele>11</ele>
        <time>1970-01-01T02:32:33.000Z</time>
      </trkpt>
      <trkpt lat="42.254185" lon="3.071377">
        <ele>11</ele>
        <time>1970-01-01T02:32:34.000Z</time>
      </trkpt>
      <trkpt lat="42.254212" lon="3.0713">
        <ele>11</ele>
        <time>1970-01-01T02:32:35.000Z</time>
      </trkpt>
      <trkpt lat="42.254238" lon="3.071223">
        <ele>11</ele>
        <time>1970-01-01T02:32:36.000Z</time>
      </trkpt>
      <trkpt lat="42.254265" lon="3.071147">
        <ele>11</ele>
        <time>1970-01-01T02:32:37.000Z</time>
      </trkpt>
      <trkpt lat="42.254291" lon="3.07107">
        <ele>11</ele>
        <time>1970-01-01T02:32:39.000Z</time>
      </trkpt>
      <trkpt lat="42.254318" lon="3.070993">
        <ele>12</ele>
        <time>1970-01-01T02:32:41.000Z</time>
      </trkpt>
      <trkpt lat="42.254353" lon="3.070832">
        <ele>12</ele>
        <time>1970-01-01T02:32:42.000Z</time>
      </trkpt>
      <trkpt lat="42.254371" lon="3.070746">
        <ele>12</ele>
        <time>1970-01-01T02:32:43.000Z</time>
      </trkpt>
      <trkpt lat="42.25439" lon="3.07066">
        <ele>12</ele>
        <time>1970-01-01T02:32:44.000Z</time>
      </trkpt>
      <trkpt lat="42.254408" lon="3.070574">
        <ele>12</ele>
        <time>1970-01-01T02:32:45.000Z</time>
      </trkpt>
      <trkpt lat="42.254426" lon="3.070487">
        <ele>12</ele>
        <time>1970-01-01T02:32:46.000Z</time>
      </trkpt>
      <trkpt lat="42.254444" lon="3.070401">
        <ele>12</ele>
        <time>1970-01-01T02:32:48.000Z</time>
      </trkpt>
      <trkpt lat="42.254463" lon="3.070315">
        <ele>12</ele>
        <time>1970-01-01T02:32:49.000Z</time>
      </trkpt>
      <trkpt lat="42.254481" lon="3.070229">
        <ele>12</ele>
        <time>1970-01-01T02:32:50.000Z</time>
      </trkpt>
      <trkpt lat="42.254499" lon="3.070143">
        <ele>12</ele>
        <time>1970-01-01T02:32:51.000Z</time>
      </trkpt>
      <trkpt lat="42.254549" lon="3.069936">
        <ele>12</ele>
        <time>1970-01-01T02:32:52.000Z</time>
      </trkpt>
      <trkpt lat="42.254578" lon="3.069821">
        <ele>12</ele>
        <time>1970-01-01T02:32:53.000Z</time>
      </trkpt>
      <trkpt lat="42.254607" lon="3.069705">
        <ele>12</ele>
        <time>1970-01-01T02:32:55.000Z</time>
      </trkpt>
      <trkpt lat="42.254636" lon="3.06959">
        <ele>12</ele>
        <time>1970-01-01T02:32:56.000Z</time>
      </trkpt>
      <trkpt lat="42.254664" lon="3.069475">
        <ele>12</ele>
        <time>1970-01-01T02:32:57.000Z</time>
      </trkpt>
      <trkpt lat="42.254693" lon="3.06936">
        <ele>12</ele>
        <time>1970-01-01T02:32:58.000Z</time>
      </trkpt>
      <trkpt lat="42.254722" lon="3.069244">
        <ele>12</ele>
        <time>1970-01-01T02:33:00.000Z</time>
      </trkpt>
      <trkpt lat="42.254751" lon="3.069129">
        <ele>11</ele>
        <time>1970-01-01T02:33:02.000Z</time>
      </trkpt>
      <trkpt lat="42.254795" lon="3.068934">
        <ele>11</ele>
        <time>1970-01-01T02:33:03.000Z</time>
      </trkpt>
      <trkpt lat="42.254816" lon="3.068835">
        <ele>11</ele>
        <time>1970-01-01T02:33:04.000Z</time>
      </trkpt>
      <trkpt lat="42.254837" lon="3.068737">
        <ele>11</ele>
        <time>1970-01-01T02:33:05.000Z</time>
      </trkpt>
      <trkpt lat="42.254858" lon="3.068638">
        <ele>11</ele>
        <time>1970-01-01T02:33:06.000Z</time>
      </trkpt>
      <trkpt lat="42.254879" lon="3.06854">
        <ele>11</ele>
        <time>1970-01-01T02:33:07.000Z</time>
      </trkpt>
      <trkpt lat="42.2549" lon="3.068441">
        <ele>11</ele>
        <time>1970-01-01T02:33:09.000Z</time>
      </trkpt>
      <trkpt lat="42.254921" lon="3.068343">
        <ele>11</ele>
        <time>1970-01-01T02:33:10.000Z</time>
      </trkpt>
      <trkpt lat="42.254942" lon="3.068244">
        <ele>11</ele>
        <time>1970-01-01T02:33:11.000Z</time>
      </trkpt>
      <trkpt lat="42.254989" lon="3.068035">
        <ele>11</ele>
        <time>1970-01-01T02:33:12.000Z</time>
      </trkpt>
      <trkpt lat="42.255013" lon="3.067925">
        <ele>11</ele>
        <time>1970-01-01T02:33:13.000Z</time>
      </trkpt>
      <trkpt lat="42.255038" lon="3.067815">
        <ele>11</ele>
        <time>1970-01-01T02:33:15.000Z</time>
      </trkpt>
      <trkpt lat="42.255063" lon="3.067705">
        <ele>11</ele>
        <time>1970-01-01T02:33:16.000Z</time>
      </trkpt>
      <trkpt lat="42.255087" lon="3.067595">
        <ele>11</ele>
        <time>1970-01-01T02:33:17.000Z</time>
      </trkpt>
      <trkpt lat="42.255112" lon="3.067485">
        <ele>11</ele>
        <time>1970-01-01T02:33:19.000Z</time>
      </trkpt>
      <trkpt lat="42.255136" lon="3.067375">
        <ele>11</ele>
        <time>1970-01-01T02:33:20.000Z</time>
      </trkpt>
      <trkpt lat="42.255161" lon="3.067265">
        <ele>9</ele>
        <time>1970-01-01T02:33:21.000Z</time>
      </trkpt>
      <trkpt lat="42.255209" lon="3.06707">
        <ele>9</ele>
        <time>1970-01-01T02:33:22.000Z</time>
      </trkpt>
      <trkpt lat="42.255233" lon="3.066972">
        <ele>9</ele>
        <time>1970-01-01T02:33:23.000Z</time>
      </trkpt>
      <trkpt lat="42.255257" lon="3.066874">
        <ele>9</ele>
        <time>1970-01-01T02:33:24.000Z</time>
      </trkpt>
      <trkpt lat="42.255281" lon="3.066776">
        <ele>9</ele>
        <time>1970-01-01T02:33:25.000Z</time>
      </trkpt>
      <trkpt lat="42.255304" lon="3.066677">
        <ele>9</ele>
        <time>1970-01-01T02:33:26.000Z</time>
      </trkpt>
      <trkpt lat="42.255328" lon="3.066579">
        <ele>9</ele>
        <time>1970-01-01T02:33:28.000Z</time>
      </trkpt>
      <trkpt lat="42.255352" lon="3.066481">
        <ele>9</ele>
        <time>1970-01-01T02:33:29.000Z</time>
      </trkpt>
      <trkpt lat="42.255376" lon="3.066383">
        <ele>9</ele>
        <time>1970-01-01T02:33:30.000Z</time>
      </trkpt>
      <trkpt lat="42.2554" lon="3.066285">
        <ele>9</ele>
        <time>1970-01-01T02:33:31.000Z</time>
      </trkpt>
      <trkpt lat="42.255452" lon="3.066079">
        <ele>9</ele>
        <time>1970-01-01T02:33:32.000Z</time>
      </trkpt>
      <trkpt lat="42.255479" lon="3.065969">
        <ele>9</ele>
        <time>1970-01-01T02:33:33.000Z</time>
      </trkpt>
      <trkpt lat="42.255506" lon="3.06586">
        <ele>9</ele>
        <time>1970-01-01T02:33:35.000Z</time>
      </trkpt>
      <trkpt lat="42.255533" lon="3.06575">
        <ele>9</ele>
        <time>1970-01-01T02:33:36.000Z</time>
      </trkpt>
      <trkpt lat="42.25556" lon="3.065641">
        <ele>9</ele>
        <time>1970-01-01T02:33:38.000Z</time>
      </trkpt>
      <trkpt lat="42.255587" lon="3.065531">
        <ele>9</ele>
        <time>1970-01-01T02:33:39.000Z</time>
      </trkpt>
      <trkpt lat="42.255614" lon="3.065422">
        <ele>9</ele>
        <time>1970-01-01T02:33:40.000Z</time>
      </trkpt>
      <trkpt lat="42.255641" lon="3.065312">
        <ele>9</ele>
        <time>1970-01-01T02:33:41.000Z</time>
      </trkpt>
      <trkpt lat="42.255687" lon="3.065116">
        <ele>9</ele>
        <time>1970-01-01T02:33:42.000Z</time>
      </trkpt>
      <trkpt lat="42.25571" lon="3.065019">
        <ele>9</ele>
        <time>1970-01-01T02:33:43.000Z</time>
      </trkpt>
      <trkpt lat="42.255732" lon="3.064921">
        <ele>9</ele>
        <time>1970-01-01T02:33:44.000Z</time>
      </trkpt>
      <trkpt lat="42.255755" lon="3.064824">
        <ele>9</ele>
        <time>1970-01-01T02:33:45.000Z</time>
      </trkpt>
      <trkpt lat="42.255778" lon="3.064726">
        <ele>9</ele>
        <time>1970-01-01T02:33:46.000Z</time>
      </trkpt>
      <trkpt lat="42.255801" lon="3.064629">
        <ele>9</ele>
        <time>1970-01-01T02:33:48.000Z</time>
      </trkpt>
      <trkpt lat="42.255823" lon="3.064531">
        <ele>9</ele>
        <time>1970-01-01T02:33:49.000Z</time>
      </trkpt>
      <trkpt lat="42.255846" lon="3.064434">
        <ele>9</ele>
        <time>1970-01-01T02:33:50.000Z</time>
      </trkpt>
      <trkpt lat="42.255869" lon="3.064336">
        <ele>8</ele>
        <time>1970-01-01T02:33:51.000Z</time>
      </trkpt>
      <trkpt lat="42.255919" lon="3.064114">
        <ele>8</ele>
        <time>1970-01-01T02:33:52.000Z</time>
      </trkpt>
      <trkpt lat="42.255948" lon="3.06399">
        <ele>8</ele>
        <time>1970-01-01T02:33:53.000Z</time>
      </trkpt>
      <trkpt lat="42.255976" lon="3.063865">
        <ele>8</ele>
        <time>1970-01-01T02:33:55.000Z</time>
      </trkpt>
      <trkpt lat="42.256005" lon="3.063741">
        <ele>8</ele>
        <time>1970-01-01T02:33:57.000Z</time>
      </trkpt>
      <trkpt lat="42.256033" lon="3.063616">
        <ele>8</ele>
        <time>1970-01-01T02:33:58.000Z</time>
      </trkpt>
      <trkpt lat="42.256062" lon="3.063492">
        <ele>8</ele>
        <time>1970-01-01T02:33:59.000Z</time>
      </trkpt>
      <trkpt lat="42.25609" lon="3.063367">
        <ele>8</ele>
        <time>1970-01-01T02:34:01.000Z</time>
      </trkpt>
      <trkpt lat="42.256134" lon="3.063176">
        <ele>8</ele>
        <time>1970-01-01T02:34:02.000Z</time>
      </trkpt>
      <trkpt lat="42.256156" lon="3.063081">
        <ele>8</ele>
        <time>1970-01-01T02:34:03.000Z</time>
      </trkpt>
      <trkpt lat="42.256177" lon="3.062986">
        <ele>8</ele>
        <time>1970-01-01T02:34:04.000Z</time>
      </trkpt>
      <trkpt lat="42.256199" lon="3.062891">
        <ele>8</ele>
        <time>1970-01-01T02:34:05.000Z</time>
      </trkpt>
      <trkpt lat="42.256221" lon="3.062797">
        <ele>8</ele>
        <time>1970-01-01T02:34:06.000Z</time>
      </trkpt>
      <trkpt lat="42.256243" lon="3.062702">
        <ele>8</ele>
        <time>1970-01-01T02:34:08.000Z</time>
      </trkpt>
      <trkpt lat="42.256264" lon="3.062607">
        <ele>8</ele>
        <time>1970-01-01T02:34:09.000Z</time>
      </trkpt>
      <trkpt lat="42.256286" lon="3.062512">
        <ele>8</ele>
        <time>1970-01-01T02:34:10.000Z</time>
      </trkpt>
      <trkpt lat="42.256308" lon="3.062417">
        <ele>8</ele>
        <time>1970-01-01T02:34:11.000Z</time>
      </trkpt>
      <trkpt lat="42.25635" lon="3.062231">
        <ele>8</ele>
        <time>1970-01-01T02:34:12.000Z</time>
      </trkpt>
      <trkpt lat="42.25637" lon="3.062139">
        <ele>8</ele>
        <time>1970-01-01T02:34:13.000Z</time>
      </trkpt>
      <trkpt lat="42.256391" lon="3.062047">
        <ele>8</ele>
        <time>1970-01-01T02:34:15.000Z</time>
      </trkpt>
      <trkpt lat="42.256412" lon="3.061955">
        <ele>8</ele>
        <time>1970-01-01T02:34:16.000Z</time>
      </trkpt>
      <trkpt lat="42.256432" lon="3.061864">
        <ele>8</ele>
        <time>1970-01-01T02:34:17.000Z</time>
      </trkpt>
      <trkpt lat="42.256453" lon="3.061772">
        <ele>8</ele>
        <time>1970-01-01T02:34:18.000Z</time>
      </trkpt>
      <trkpt lat="42.256474" lon="3.06168">
        <ele>8</ele>
        <time>1970-01-01T02:34:19.000Z</time>
      </trkpt>
      <trkpt lat="42.256494" lon="3.061588">
        <ele>8</ele>
        <time>1970-01-01T02:34:20.000Z</time>
      </trkpt>
      <trkpt lat="42.256515" lon="3.061496">
        <ele>8</ele>
        <time>1970-01-01T02:34:21.000Z</time>
      </trkpt>
      <trkpt lat="42.256554" lon="3.061317">
        <ele>8</ele>
        <time>1970-01-01T02:34:22.000Z</time>
      </trkpt>
      <trkpt lat="42.256574" lon="3.061229">
        <ele>8</ele>
        <time>1970-01-01T02:34:23.000Z</time>
      </trkpt>
      <trkpt lat="42.256593" lon="3.061141">
        <ele>8</ele>
        <time>1970-01-01T02:34:24.000Z</time>
      </trkpt>
      <trkpt lat="42.256613" lon="3.061053">
        <ele>8</ele>
        <time>1970-01-01T02:34:25.000Z</time>
      </trkpt>
      <trkpt lat="42.256633" lon="3.060965">
        <ele>8</ele>
        <time>1970-01-01T02:34:26.000Z</time>
      </trkpt>
      <trkpt lat="42.256653" lon="3.060877">
        <ele>8</ele>
        <time>1970-01-01T02:34:27.000Z</time>
      </trkpt>
      <trkpt lat="42.256672" lon="3.060789">
        <ele>8</ele>
        <time>1970-01-01T02:34:29.000Z</time>
      </trkpt>
      <trkpt lat="42.256692" lon="3.060701">
        <ele>8</ele>
        <time>1970-01-01T02:34:30.000Z</time>
      </trkpt>
      <trkpt lat="42.256712" lon="3.060613">
        <ele>8</ele>
        <time>1970-01-01T02:34:31.000Z</time>
      </trkpt>
      <trkpt lat="42.256752" lon="3.060435">
        <ele>8</ele>
        <time>1970-01-01T02:34:32.000Z</time>
      </trkpt>
      <trkpt lat="42.256772" lon="3.060346">
        <ele>8</ele>
        <time>1970-01-01T02:34:33.000Z</time>
      </trkpt>
      <trkpt lat="42.256793" lon="3.060257">
        <ele>8</ele>
        <time>1970-01-01T02:34:35.000Z</time>
      </trkpt>
      <trkpt lat="42.256813" lon="3.060168">
        <ele>8</ele>
        <time>1970-01-01T02:34:36.000Z</time>
      </trkpt>
      <trkpt lat="42.256833" lon="3.06008">
        <ele>8</ele>
        <time>1970-01-01T02:34:37.000Z</time>
      </trkpt>
      <trkpt lat="42.256853" lon="3.059991">
        <ele>8</ele>
        <time>1970-01-01T02:34:38.000Z</time>
      </trkpt>
      <trkpt lat="42.256874" lon="3.059902">
        <ele>8</ele>
        <time>1970-01-01T02:34:39.000Z</time>
      </trkpt>
      <trkpt lat="42.256894" lon="3.059813">
        <ele>8</ele>
        <time>1970-01-01T02:34:40.000Z</time>
      </trkpt>
      <trkpt lat="42.256914" lon="3.059724">
        <ele>8</ele>
        <time>1970-01-01T02:34:41.000Z</time>
      </trkpt>
      <trkpt lat="42.256956" lon="3.059535">
        <ele>8</ele>
        <time>1970-01-01T02:34:42.000Z</time>
      </trkpt>
      <trkpt lat="42.256978" lon="3.059437">
        <ele>8</ele>
        <time>1970-01-01T02:34:44.000Z</time>
      </trkpt>
      <trkpt lat="42.257" lon="3.059338">
        <ele>8</ele>
        <time>1970-01-01T02:34:45.000Z</time>
      </trkpt>
      <trkpt lat="42.257022" lon="3.059239">
        <ele>8</ele>
        <time>1970-01-01T02:34:46.000Z</time>
      </trkpt>
      <trkpt lat="42.257044" lon="3.05914">
        <ele>8</ele>
        <time>1970-01-01T02:34:47.000Z</time>
      </trkpt>
      <trkpt lat="42.257066" lon="3.059042">
        <ele>8</ele>
        <time>1970-01-01T02:34:48.000Z</time>
      </trkpt>
      <trkpt lat="42.257088" lon="3.058943">
        <ele>8</ele>
        <time>1970-01-01T02:34:49.000Z</time>
      </trkpt>
      <trkpt lat="42.25711" lon="3.058844">
        <ele>8</ele>
        <time>1970-01-01T02:34:51.000Z</time>
      </trkpt>
      <trkpt lat="42.257152" lon="3.058662">
        <ele>8</ele>
        <time>1970-01-01T02:34:52.000Z</time>
      </trkpt>
      <trkpt lat="42.257173" lon="3.058566">
        <ele>8</ele>
        <time>1970-01-01T02:34:54.000Z</time>
      </trkpt>
      <trkpt lat="42.257195" lon="3.058469">
        <ele>8</ele>
        <time>1970-01-01T02:34:55.000Z</time>
      </trkpt>
      <trkpt lat="42.257217" lon="3.058373">
        <ele>8</ele>
        <time>1970-01-01T02:34:56.000Z</time>
      </trkpt>
      <trkpt lat="42.257238" lon="3.058277">
        <ele>8</ele>
        <time>1970-01-01T02:34:58.000Z</time>
      </trkpt>
      <trkpt lat="42.25726" lon="3.058181">
        <ele>8</ele>
        <time>1970-01-01T02:34:59.000Z</time>
      </trkpt>
      <trkpt lat="42.257281" lon="3.058084">
        <ele>8</ele>
        <time>1970-01-01T02:35:00.000Z</time>
      </trkpt>
      <trkpt lat="42.257303" lon="3.057988">
        <ele>8</ele>
        <time>1970-01-01T02:35:01.000Z</time>
      </trkpt>
      <trkpt lat="42.257356" lon="3.057846">
        <ele>8</ele>
        <time>1970-01-01T02:35:02.000Z</time>
      </trkpt>
      <trkpt lat="42.257389" lon="3.057788">
        <ele>8</ele>
        <time>1970-01-01T02:35:03.000Z</time>
      </trkpt>
      <trkpt lat="42.257423" lon="3.05773">
        <ele>8</ele>
        <time>1970-01-01T02:35:04.000Z</time>
      </trkpt>
      <trkpt lat="42.257457" lon="3.057672">
        <ele>8</ele>
        <time>1970-01-01T02:35:06.000Z</time>
      </trkpt>
      <trkpt lat="42.25749" lon="3.057613">
        <ele>8</ele>
        <time>1970-01-01T02:35:07.000Z</time>
      </trkpt>
      <trkpt lat="42.257524" lon="3.057555">
        <ele>8</ele>
        <time>1970-01-01T02:35:08.000Z</time>
      </trkpt>
      <trkpt lat="42.257558" lon="3.057497">
        <ele>8</ele>
        <time>1970-01-01T02:35:09.000Z</time>
      </trkpt>
      <trkpt lat="42.257591" lon="3.057439">
        <ele>8</ele>
        <time>1970-01-01T02:35:10.000Z</time>
      </trkpt>
      <trkpt lat="42.257625" lon="3.057381">
        <ele>8</ele>
        <time>1970-01-01T02:35:11.000Z</time>
      </trkpt>
      <trkpt lat="42.257678" lon="3.057233">
        <ele>8</ele>
        <time>1970-01-01T02:35:13.000Z</time>
      </trkpt>
      <trkpt lat="42.257666" lon="3.057151">
        <ele>8</ele>
        <time>1970-01-01T02:35:14.000Z</time>
      </trkpt>
      <trkpt lat="42.257653" lon="3.057068">
        <ele>8</ele>
        <time>1970-01-01T02:35:15.000Z</time>
      </trkpt>
      <trkpt lat="42.257641" lon="3.056985">
        <ele>8</ele>
        <time>1970-01-01T02:35:16.000Z</time>
      </trkpt>
      <trkpt lat="42.257629" lon="3.056903">
        <ele>8</ele>
        <time>1970-01-01T02:35:17.000Z</time>
      </trkpt>
      <trkpt lat="42.257617" lon="3.05682">
        <ele>8</ele>
        <time>1970-01-01T02:35:18.000Z</time>
      </trkpt>
      <trkpt lat="42.257604" lon="3.056737">
        <ele>8</ele>
        <time>1970-01-01T02:35:19.000Z</time>
      </trkpt>
      <trkpt lat="42.257592" lon="3.056655">
        <ele>8</ele>
        <time>1970-01-01T02:35:20.000Z</time>
      </trkpt>
      <trkpt lat="42.25758" lon="3.056572">
        <ele>7</ele>
        <time>1970-01-01T02:35:22.000Z</time>
      </trkpt>
      <trkpt lat="42.257453" lon="3.056546">
        <ele>7</ele>
        <time>1970-01-01T02:35:23.000Z</time>
      </trkpt>
      <trkpt lat="42.257383" lon="3.056568">
        <ele>7</ele>
        <time>1970-01-01T02:35:24.000Z</time>
      </trkpt>
      <trkpt lat="42.257313" lon="3.05659">
        <ele>7</ele>
        <time>1970-01-01T02:35:25.000Z</time>
      </trkpt>
      <trkpt lat="42.257244" lon="3.056613">
        <ele>7</ele>
        <time>1970-01-01T02:35:26.000Z</time>
      </trkpt>
      <trkpt lat="42.257174" lon="3.056635">
        <ele>7</ele>
        <time>1970-01-01T02:35:27.000Z</time>
      </trkpt>
      <trkpt lat="42.257104" lon="3.056657">
        <ele>7</ele>
        <time>1970-01-01T02:35:29.000Z</time>
      </trkpt>
      <trkpt lat="42.257034" lon="3.056679">
        <ele>7</ele>
        <time>1970-01-01T02:35:30.000Z</time>
      </trkpt>
      <trkpt lat="42.256964" lon="3.056701">
        <ele>8</ele>
        <time>1970-01-01T02:35:32.000Z</time>
      </trkpt>
      <trkpt lat="42.256849" lon="3.056682">
        <ele>8</ele>
        <time>1970-01-01T02:35:33.000Z</time>
      </trkpt>
      <trkpt lat="42.256797" lon="3.056662">
        <ele>8</ele>
        <time>1970-01-01T02:35:34.000Z</time>
      </trkpt>
      <trkpt lat="42.256746" lon="3.056642">
        <ele>8</ele>
        <time>1970-01-01T02:35:35.000Z</time>
      </trkpt>
      <trkpt lat="42.256694" lon="3.056622">
        <ele>8</ele>
        <time>1970-01-01T02:35:36.000Z</time>
      </trkpt>
      <trkpt lat="42.256643" lon="3.056602">
        <ele>8</ele>
        <time>1970-01-01T02:35:37.000Z</time>
      </trkpt>
      <trkpt lat="42.256591" lon="3.056582">
        <ele>8</ele>
        <time>1970-01-01T02:35:38.000Z</time>
      </trkpt>
      <trkpt lat="42.25654" lon="3.056562">
        <ele>8</ele>
        <time>1970-01-01T02:35:39.000Z</time>
      </trkpt>
      <trkpt lat="42.256488" lon="3.056542">
        <ele>8</ele>
        <time>1970-01-01T02:35:40.000Z</time>
      </trkpt>
      <trkpt lat="42.256437" lon="3.056522">
        <ele>7</ele>
        <time>1970-01-01T02:35:41.000Z</time>
      </trkpt>
      <trkpt lat="42.25633" lon="3.056477">
        <ele>7</ele>
        <time>1970-01-01T02:35:42.000Z</time>
      </trkpt>
      <trkpt lat="42.256276" lon="3.05645">
        <ele>7</ele>
        <time>1970-01-01T02:35:43.000Z</time>
      </trkpt>
      <trkpt lat="42.256223" lon="3.056424">
        <ele>7</ele>
        <time>1970-01-01T02:35:44.000Z</time>
      </trkpt>
      <trkpt lat="42.25617" lon="3.056398">
        <ele>7</ele>
        <time>1970-01-01T02:35:46.000Z</time>
      </trkpt>
      <trkpt lat="42.256116" lon="3.056372">
        <ele>7</ele>
        <time>1970-01-01T02:35:47.000Z</time>
      </trkpt>
      <trkpt lat="42.256063" lon="3.056345">
        <ele>7</ele>
        <time>1970-01-01T02:35:48.000Z</time>
      </trkpt>
      <trkpt lat="42.256009" lon="3.056319">
        <ele>7</ele>
        <time>1970-01-01T02:35:49.000Z</time>
      </trkpt>
      <trkpt lat="42.255956" lon="3.056293">
        <ele>7</ele>
        <time>1970-01-01T02:35:51.000Z</time>
      </trkpt>
      <trkpt lat="42.255866" lon="3.056218">
        <ele>7</ele>
        <time>1970-01-01T02:35:52.000Z</time>
      </trkpt>
      <trkpt lat="42.255824" lon="3.056172">
        <ele>7</ele>
        <time>1970-01-01T02:35:53.000Z</time>
      </trkpt>
      <trkpt lat="42.255782" lon="3.056126">
        <ele>7</ele>
        <time>1970-01-01T02:35:54.000Z</time>
      </trkpt>
      <trkpt lat="42.25574" lon="3.05608">
        <ele>7</ele>
        <time>1970-01-01T02:35:56.000Z</time>
      </trkpt>
      <trkpt lat="42.255699" lon="3.056033">
        <ele>7</ele>
        <time>1970-01-01T02:35:57.000Z</time>
      </trkpt>
      <trkpt lat="42.255657" lon="3.055987">
        <ele>7</ele>
        <time>1970-01-01T02:35:58.000Z</time>
      </trkpt>
      <trkpt lat="42.255615" lon="3.055941">
        <ele>7</ele>
        <time>1970-01-01T02:35:59.000Z</time>
      </trkpt>
      <trkpt lat="42.255573" lon="3.055895">
        <ele>7</ele>
        <time>1970-01-01T02:36:00.000Z</time>
      </trkpt>
      <trkpt lat="42.255531" lon="3.055849">
        <ele>7</ele>
        <time>1970-01-01T02:36:01.000Z</time>
      </trkpt>
      <trkpt lat="42.255446" lon="3.055728">
        <ele>7</ele>
        <time>1970-01-01T02:36:02.000Z</time>
      </trkpt>
      <trkpt lat="42.255401" lon="3.055662">
        <ele>7</ele>
        <time>1970-01-01T02:36:03.000Z</time>
      </trkpt>
      <trkpt lat="42.255356" lon="3.055595">
        <ele>7</ele>
        <time>1970-01-01T02:36:05.000Z</time>
      </trkpt>
      <trkpt lat="42.255312" lon="3.055528">
        <ele>7</ele>
        <time>1970-01-01T02:36:06.000Z</time>
      </trkpt>
      <trkpt lat="42.255267" lon="3.055462">
        <ele>7</ele>
        <time>1970-01-01T02:36:07.000Z</time>
      </trkpt>
      <trkpt lat="42.255222" lon="3.055395">
        <ele>7</ele>
        <time>1970-01-01T02:36:08.000Z</time>
      </trkpt>
      <trkpt lat="42.255177" lon="3.055329">
        <ele>7</ele>
        <time>1970-01-01T02:36:10.000Z</time>
      </trkpt>
      <trkpt lat="42.255132" lon="3.055262">
        <ele>7</ele>
        <time>1970-01-01T02:36:11.000Z</time>
      </trkpt>
      <trkpt lat="42.255018" lon="3.055093">
        <ele>7</ele>
        <time>1970-01-01T02:36:13.000Z</time>
      </trkpt>
      <trkpt lat="42.254983" lon="3.05504">
        <ele>7</ele>
        <time>1970-01-01T02:36:14.000Z</time>
      </trkpt>
      <trkpt lat="42.254948" lon="3.054988">
        <ele>7</ele>
        <time>1970-01-01T02:36:15.000Z</time>
      </trkpt>
      <trkpt lat="42.254913" lon="3.054935">
        <ele>7</ele>
        <time>1970-01-01T02:36:16.000Z</time>
      </trkpt>
      <trkpt lat="42.254879" lon="3.054883">
        <ele>7</ele>
        <time>1970-01-01T02:36:17.000Z</time>
      </trkpt>
      <trkpt lat="42.254844" lon="3.05483">
        <ele>7</ele>
        <time>1970-01-01T02:36:18.000Z</time>
      </trkpt>
      <trkpt lat="42.254809" lon="3.054778">
        <ele>7</ele>
        <time>1970-01-01T02:36:19.000Z</time>
      </trkpt>
      <trkpt lat="42.254774" lon="3.054725">
        <ele>7</ele>
        <time>1970-01-01T02:36:20.000Z</time>
      </trkpt>
      <trkpt lat="42.254739" lon="3.054673">
        <ele>6</ele>
        <time>1970-01-01T02:36:21.000Z</time>
      </trkpt>
      <trkpt lat="42.254658" lon="3.054553">
        <ele>6</ele>
        <time>1970-01-01T02:36:22.000Z</time>
      </trkpt>
      <trkpt lat="42.254619" lon="3.054492">
        <ele>6</ele>
        <time>1970-01-01T02:36:23.000Z</time>
      </trkpt>
      <trkpt lat="42.254579" lon="3.054432">
        <ele>6</ele>
        <time>1970-01-01T02:36:24.000Z</time>
      </trkpt>
      <trkpt lat="42.25454" lon="3.054371">
        <ele>6</ele>
        <time>1970-01-01T02:36:25.000Z</time>
      </trkpt>
      <trkpt lat="42.2545" lon="3.05431">
        <ele>6</ele>
        <time>1970-01-01T02:36:26.000Z</time>
      </trkpt>
      <trkpt lat="42.254461" lon="3.054249">
        <ele>6</ele>
        <time>1970-01-01T02:36:27.000Z</time>
      </trkpt>
      <trkpt lat="42.254421" lon="3.054189">
        <ele>6</ele>
        <time>1970-01-01T02:36:29.000Z</time>
      </trkpt>
      <trkpt lat="42.254382" lon="3.054128">
        <ele>6</ele>
        <time>1970-01-01T02:36:30.000Z</time>
      </trkpt>
      <trkpt lat="42.254342" lon="3.054067">
        <ele>6</ele>
        <time>1970-01-01T02:36:31.000Z</time>
      </trkpt>
      <trkpt lat="42.254261" lon="3.053947">
        <ele>6</ele>
        <time>1970-01-01T02:36:32.000Z</time>
      </trkpt>
      <trkpt lat="42.254219" lon="3.053887">
        <ele>6</ele>
        <time>1970-01-01T02:36:33.000Z</time>
      </trkpt>
      <trkpt lat="42.254178" lon="3.053826">
        <ele>6</ele>
        <time>1970-01-01T02:36:34.000Z</time>
      </trkpt>
      <trkpt lat="42.254137" lon="3.053766">
        <ele>6</ele>
        <time>1970-01-01T02:36:35.000Z</time>
      </trkpt>
      <trkpt lat="42.254095" lon="3.053706">
        <ele>6</ele>
        <time>1970-01-01T02:36:36.000Z</time>
      </trkpt>
      <trkpt lat="42.254054" lon="3.053646">
        <ele>6</ele>
        <time>1970-01-01T02:36:38.000Z</time>
      </trkpt>
      <trkpt lat="42.254013" lon="3.053585">
        <ele>6</ele>
        <time>1970-01-01T02:36:39.000Z</time>
      </trkpt>
      <trkpt lat="42.253971" lon="3.053525">
        <ele>6</ele>
        <time>1970-01-01T02:36:40.000Z</time>
      </trkpt>
      <trkpt lat="42.25393" lon="3.053465">
        <ele>6</ele>
        <time>1970-01-01T02:36:41.000Z</time>
      </trkpt>
      <trkpt lat="42.25385" lon="3.053349">
        <ele>6</ele>
        <time>1970-01-01T02:36:42.000Z</time>
      </trkpt>
      <trkpt lat="42.253811" lon="3.053291">
        <ele>6</ele>
        <time>1970-01-01T02:36:43.000Z</time>
      </trkpt>
      <trkpt lat="42.253772" lon="3.053234">
        <ele>6</ele>
        <time>1970-01-01T02:36:44.000Z</time>
      </trkpt>
      <trkpt lat="42.253733" lon="3.053177">
        <ele>6</ele>
        <time>1970-01-01T02:36:45.000Z</time>
      </trkpt>
      <trkpt lat="42.253693" lon="3.053119">
        <ele>6</ele>
        <time>1970-01-01T02:36:47.000Z</time>
      </trkpt>
      <trkpt lat="42.253654" lon="3.053062">
        <ele>6</ele>
        <time>1970-01-01T02:36:48.000Z</time>
      </trkpt>
      <trkpt lat="42.253615" lon="3.053005">
        <ele>6</ele>
        <time>1970-01-01T02:36:49.000Z</time>
      </trkpt>
      <trkpt lat="42.253576" lon="3.052947">
        <ele>6</ele>
        <time>1970-01-01T02:36:50.000Z</time>
      </trkpt>
      <trkpt lat="42.253537" lon="3.05289">
        <ele>5</ele>
        <time>1970-01-01T02:36:51.000Z</time>
      </trkpt>
      <trkpt lat="42.253468" lon="3.052786">
        <ele>5</ele>
        <time>1970-01-01T02:36:52.000Z</time>
      </trkpt>
      <trkpt lat="42.253433" lon="3.052735">
        <ele>5</ele>
        <time>1970-01-01T02:36:53.000Z</time>
      </trkpt>
      <trkpt lat="42.253398" lon="3.052683">
        <ele>5</ele>
        <time>1970-01-01T02:36:54.000Z</time>
      </trkpt>
      <trkpt lat="42.253363" lon="3.052632">
        <ele>5</ele>
        <time>1970-01-01T02:36:56.000Z</time>
      </trkpt>
      <trkpt lat="42.253328" lon="3.05258">
        <ele>5</ele>
        <time>1970-01-01T02:36:57.000Z</time>
      </trkpt>
      <trkpt lat="42.253293" lon="3.052529">
        <ele>5</ele>
        <time>1970-01-01T02:36:58.000Z</time>
      </trkpt>
      <trkpt lat="42.253258" lon="3.052477">
        <ele>5</ele>
        <time>1970-01-01T02:36:59.000Z</time>
      </trkpt>
      <trkpt lat="42.253223" lon="3.052426">
        <ele>5</ele>
        <time>1970-01-01T02:37:00.000Z</time>
      </trkpt>
      <trkpt lat="42.253188" lon="3.052374">
        <ele>5</ele>
        <time>1970-01-01T02:37:01.000Z</time>
      </trkpt>
      <trkpt lat="42.253121" lon="3.052269">
        <ele>5</ele>
        <time>1970-01-01T02:37:02.000Z</time>
      </trkpt>
      <trkpt lat="42.253086" lon="3.052214">
        <ele>5</ele>
        <time>1970-01-01T02:37:03.000Z</time>
      </trkpt>
      <trkpt lat="42.253051" lon="3.05216">
        <ele>5</ele>
        <time>1970-01-01T02:37:05.000Z</time>
      </trkpt>
      <trkpt lat="42.253016" lon="3.052106">
        <ele>5</ele>
        <time>1970-01-01T02:37:06.000Z</time>
      </trkpt>
      <trkpt lat="42.252981" lon="3.052051">
        <ele>5</ele>
        <time>1970-01-01T02:37:07.000Z</time>
      </trkpt>
      <trkpt lat="42.252946" lon="3.051997">
        <ele>5</ele>
        <time>1970-01-01T02:37:08.000Z</time>
      </trkpt>
      <trkpt lat="42.252911" lon="3.051943">
        <ele>5</ele>
        <time>1970-01-01T02:37:09.000Z</time>
      </trkpt>
      <trkpt lat="42.252876" lon="3.051888">
        <ele>5</ele>
        <time>1970-01-01T02:37:10.000Z</time>
      </trkpt>
      <trkpt lat="42.252841" lon="3.051834">
        <ele>6</ele>
        <time>1970-01-01T02:37:11.000Z</time>
      </trkpt>
      <trkpt lat="42.252781" lon="3.051712">
        <ele>6</ele>
        <time>1970-01-01T02:37:12.000Z</time>
      </trkpt>
      <trkpt lat="42.252755" lon="3.051649">
        <ele>6</ele>
        <time>1970-01-01T02:37:13.000Z</time>
      </trkpt>
      <trkpt lat="42.252728" lon="3.051585">
        <ele>6</ele>
        <time>1970-01-01T02:37:15.000Z</time>
      </trkpt>
      <trkpt lat="42.252702" lon="3.051522">
        <ele>6</ele>
        <time>1970-01-01T02:37:16.000Z</time>
      </trkpt>
      <trkpt lat="42.252676" lon="3.051458">
        <ele>6</ele>
        <time>1970-01-01T02:37:17.000Z</time>
      </trkpt>
      <trkpt lat="42.25265" lon="3.051395">
        <ele>6</ele>
        <time>1970-01-01T02:37:18.000Z</time>
      </trkpt>
      <trkpt lat="42.252623" lon="3.051331">
        <ele>6</ele>
        <time>1970-01-01T02:37:19.000Z</time>
      </trkpt>
      <trkpt lat="42.252597" lon="3.051268">
        <ele>6</ele>
        <time>1970-01-01T02:37:20.000Z</time>
      </trkpt>
      <trkpt lat="42.252571" lon="3.051204">
        <ele>5</ele>
        <time>1970-01-01T02:37:21.000Z</time>
      </trkpt>
      <trkpt lat="42.252533" lon="3.051061">
        <ele>5</ele>
        <time>1970-01-01T02:37:22.000Z</time>
      </trkpt>
      <trkpt lat="42.252516" lon="3.050987">
        <ele>5</ele>
        <time>1970-01-01T02:37:23.000Z</time>
      </trkpt>
      <trkpt lat="42.252498" lon="3.050914">
        <ele>5</ele>
        <time>1970-01-01T02:37:24.000Z</time>
      </trkpt>
      <trkpt lat="42.252481" lon="3.050841">
        <ele>5</ele>
        <time>1970-01-01T02:37:26.000Z</time>
      </trkpt>
      <trkpt lat="42.252463" lon="3.050767">
        <ele>5</ele>
        <time>1970-01-01T02:37:27.000Z</time>
      </trkpt>
      <trkpt lat="42.252446" lon="3.050694">
        <ele>5</ele>
        <time>1970-01-01T02:37:28.000Z</time>
      </trkpt>
      <trkpt lat="42.252428" lon="3.050621">
        <ele>5</ele>
        <time>1970-01-01T02:37:29.000Z</time>
      </trkpt>
      <trkpt lat="42.252411" lon="3.050547">
        <ele>5</ele>
        <time>1970-01-01T02:37:30.000Z</time>
      </trkpt>
      <trkpt lat="42.252393" lon="3.050474">
        <ele>5</ele>
        <time>1970-01-01T02:37:31.000Z</time>
      </trkpt>
      <trkpt lat="42.25236" lon="3.05036">
        <ele>5</ele>
        <time>1970-01-01T02:37:32.000Z</time>
      </trkpt>
      <trkpt lat="42.252343" lon="3.050314">
        <ele>5</ele>
        <time>1970-01-01T02:37:33.000Z</time>
      </trkpt>
      <trkpt lat="42.252327" lon="3.050269">
        <ele>5</ele>
        <time>1970-01-01T02:37:34.000Z</time>
      </trkpt>
      <trkpt lat="42.252311" lon="3.050223">
        <ele>5</ele>
        <time>1970-01-01T02:37:35.000Z</time>
      </trkpt>
      <trkpt lat="42.252295" lon="3.050177">
        <ele>5</ele>
        <time>1970-01-01T02:37:36.000Z</time>
      </trkpt>
      <trkpt lat="42.252278" lon="3.050131">
        <ele>5</ele>
        <time>1970-01-01T02:37:37.000Z</time>
      </trkpt>
      <trkpt lat="42.252262" lon="3.050085">
        <ele>5</ele>
        <time>1970-01-01T02:37:38.000Z</time>
      </trkpt>
      <trkpt lat="42.252246" lon="3.05004">
        <ele>5</ele>
        <time>1970-01-01T02:37:39.000Z</time>
      </trkpt>
      <trkpt lat="42.252229" lon="3.049994">
        <ele>5</ele>
        <time>1970-01-01T02:37:40.000Z</time>
      </trkpt>
      <trkpt lat="42.252213" lon="3.049948">
        <ele>6</ele>
        <time>1970-01-01T02:37:41.000Z</time>
      </trkpt>
      <trkpt lat="42.252172" lon="3.04985">
        <ele>6</ele>
        <time>1970-01-01T02:37:42.000Z</time>
      </trkpt>
      <trkpt lat="42.25215" lon="3.049802">
        <ele>6</ele>
        <time>1970-01-01T02:37:43.000Z</time>
      </trkpt>
      <trkpt lat="42.252128" lon="3.049755">
        <ele>6</ele>
        <time>1970-01-01T02:37:44.000Z</time>
      </trkpt>
      <trkpt lat="42.252106" lon="3.049707">
        <ele>6</ele>
        <time>1970-01-01T02:37:45.000Z</time>
      </trkpt>
      <trkpt lat="42.252084" lon="3.04966">
        <ele>6</ele>
        <time>1970-01-01T02:37:46.000Z</time>
      </trkpt>
      <trkpt lat="42.252061" lon="3.049613">
        <ele>6</ele>
        <time>1970-01-01T02:37:47.000Z</time>
      </trkpt>
      <trkpt lat="42.252039" lon="3.049565">
        <ele>6</ele>
        <time>1970-01-01T02:37:48.000Z</time>
      </trkpt>
      <trkpt lat="42.252017" lon="3.049518">
        <ele>6</ele>
        <time>1970-01-01T02:37:49.000Z</time>
      </trkpt>
      <trkpt lat="42.251995" lon="3.04947">
        <ele>6</ele>
        <time>1970-01-01T02:37:50.000Z</time>
      </trkpt>
      <trkpt lat="42.251973" lon="3.049423">
        <ele>6</ele>
        <time>1970-01-01T02:37:51.000Z</time>
      </trkpt>
      <trkpt lat="42.251915" lon="3.049319">
        <ele>6</ele>
        <time>1970-01-01T02:37:52.000Z</time>
      </trkpt>
      <trkpt lat="42.251887" lon="3.049267">
        <ele>6</ele>
        <time>1970-01-01T02:37:53.000Z</time>
      </trkpt>
      <trkpt lat="42.251858" lon="3.049215">
        <ele>6</ele>
        <time>1970-01-01T02:37:55.000Z</time>
      </trkpt>
      <trkpt lat="42.25183" lon="3.049163">
        <ele>6</ele>
        <time>1970-01-01T02:37:56.000Z</time>
      </trkpt>
      <trkpt lat="42.251801" lon="3.049112">
        <ele>6</ele>
        <time>1970-01-01T02:37:57.000Z</time>
      </trkpt>
      <trkpt lat="42.251773" lon="3.04906">
        <ele>6</ele>
        <time>1970-01-01T02:37:58.000Z</time>
      </trkpt>
      <trkpt lat="42.251744" lon="3.049008">
        <ele>6</ele>
        <time>1970-01-01T02:37:59.000Z</time>
      </trkpt>
      <trkpt lat="42.251716" lon="3.048956">
        <ele>6</ele>
        <time>1970-01-01T02:38:00.000Z</time>
      </trkpt>
      <trkpt lat="42.251687" lon="3.048904">
        <ele>5</ele>
        <time>1970-01-01T02:38:01.000Z</time>
      </trkpt>
      <trkpt lat="42.251625" lon="3.048805">
        <ele>5</ele>
        <time>1970-01-01T02:38:02.000Z</time>
      </trkpt>
      <trkpt lat="42.251594" lon="3.048758">
        <ele>5</ele>
        <time>1970-01-01T02:38:03.000Z</time>
      </trkpt>
      <trkpt lat="42.251563" lon="3.048712">
        <ele>5</ele>
        <time>1970-01-01T02:38:04.000Z</time>
      </trkpt>
      <trkpt lat="42.251532" lon="3.048666">
        <ele>5</ele>
        <time>1970-01-01T02:38:05.000Z</time>
      </trkpt>
      <trkpt lat="42.251501" lon="3.048619">
        <ele>5</ele>
        <time>1970-01-01T02:38:06.000Z</time>
      </trkpt>
      <trkpt lat="42.251469" lon="3.048573">
        <ele>5</ele>
        <time>1970-01-01T02:38:07.000Z</time>
      </trkpt>
      <trkpt lat="42.251438" lon="3.048527">
        <ele>5</ele>
        <time>1970-01-01T02:38:08.000Z</time>
      </trkpt>
      <trkpt lat="42.251407" lon="3.048481">
        <ele>5</ele>
        <time>1970-01-01T02:38:09.000Z</time>
      </trkpt>
      <trkpt lat="42.251376" lon="3.048434">
        <ele>5</ele>
        <time>1970-01-01T02:38:10.000Z</time>
      </trkpt>
      <trkpt lat="42.251345" lon="3.048388">
        <ele>6</ele>
        <time>1970-01-01T02:38:11.000Z</time>
      </trkpt>
      <trkpt lat="42.251272" lon="3.048294">
        <ele>6</ele>
        <time>1970-01-01T02:38:12.000Z</time>
      </trkpt>
      <trkpt lat="42.251235" lon="3.048247">
        <ele>6</ele>
        <time>1970-01-01T02:38:13.000Z</time>
      </trkpt>
      <trkpt lat="42.251197" lon="3.0482">
        <ele>6</ele>
        <time>1970-01-01T02:38:15.000Z</time>
      </trkpt>
      <trkpt lat="42.25116" lon="3.048153">
        <ele>6</ele>
        <time>1970-01-01T02:38:16.000Z</time>
      </trkpt>
      <trkpt lat="42.251123" lon="3.048107">
        <ele>6</ele>
        <time>1970-01-01T02:38:17.000Z</time>
      </trkpt>
      <trkpt lat="42.251086" lon="3.04806">
        <ele>6</ele>
        <time>1970-01-01T02:38:18.000Z</time>
      </trkpt>
      <trkpt lat="42.251048" lon="3.048013">
        <ele>6</ele>
        <time>1970-01-01T02:38:19.000Z</time>
      </trkpt>
      <trkpt lat="42.251011" lon="3.047966">
        <ele>6</ele>
        <time>1970-01-01T02:38:20.000Z</time>
      </trkpt>
      <trkpt lat="42.250974" lon="3.047919">
        <ele>6</ele>
        <time>1970-01-01T02:38:21.000Z</time>
      </trkpt>
      <trkpt lat="42.25086" lon="3.047773">
        <ele>6</ele>
        <time>1970-01-01T02:38:23.000Z</time>
      </trkpt>
      <trkpt lat="42.250821" lon="3.047721">
        <ele>6</ele>
        <time>1970-01-01T02:38:25.000Z</time>
      </trkpt>
      <trkpt lat="42.250782" lon="3.04767">
        <ele>6</ele>
        <time>1970-01-01T02:38:26.000Z</time>
      </trkpt>
      <trkpt lat="42.250743" lon="3.047619">
        <ele>6</ele>
        <time>1970-01-01T02:38:27.000Z</time>
      </trkpt>
      <trkpt lat="42.250703" lon="3.047568">
        <ele>6</ele>
        <time>1970-01-01T02:38:28.000Z</time>
      </trkpt>
      <trkpt lat="42.250664" lon="3.047516">
        <ele>6</ele>
        <time>1970-01-01T02:38:29.000Z</time>
      </trkpt>
      <trkpt lat="42.250625" lon="3.047465">
        <ele>6</ele>
        <time>1970-01-01T02:38:30.000Z</time>
      </trkpt>
      <trkpt lat="42.250586" lon="3.047414">
        <ele>6</ele>
        <time>1970-01-01T02:38:31.000Z</time>
      </trkpt>
      <trkpt lat="42.250508" lon="3.04731">
        <ele>6</ele>
        <time>1970-01-01T02:38:32.000Z</time>
      </trkpt>
      <trkpt lat="42.250469" lon="3.047258">
        <ele>6</ele>
        <time>1970-01-01T02:38:34.000Z</time>
      </trkpt>
      <trkpt lat="42.25043" lon="3.047207">
        <ele>6</ele>
        <time>1970-01-01T02:38:35.000Z</time>
      </trkpt>
      <trkpt lat="42.250391" lon="3.047156">
        <ele>6</ele>
        <time>1970-01-01T02:38:36.000Z</time>
      </trkpt>
      <trkpt lat="42.250353" lon="3.047104">
        <ele>6</ele>
        <time>1970-01-01T02:38:37.000Z</time>
      </trkpt>
      <trkpt lat="42.250314" lon="3.047053">
        <ele>6</ele>
        <time>1970-01-01T02:38:38.000Z</time>
      </trkpt>
      <trkpt lat="42.250275" lon="3.047002">
        <ele>6</ele>
        <time>1970-01-01T02:38:39.000Z</time>
      </trkpt>
      <trkpt lat="42.250236" lon="3.04695">
        <ele>6</ele>
        <time>1970-01-01T02:38:40.000Z</time>
      </trkpt>
      <trkpt lat="42.250197" lon="3.046899">
        <ele>6</ele>
        <time>1970-01-01T02:38:41.000Z</time>
      </trkpt>
      <trkpt lat="42.250117" lon="3.046821">
        <ele>6</ele>
        <time>1970-01-01T02:38:42.000Z</time>
      </trkpt>
      <trkpt lat="42.250077" lon="3.04679">
        <ele>6</ele>
        <time>1970-01-01T02:38:43.000Z</time>
      </trkpt>
      <trkpt lat="42.250038" lon="3.046759">
        <ele>6</ele>
        <time>1970-01-01T02:38:44.000Z</time>
      </trkpt>
      <trkpt lat="42.249998" lon="3.046728">
        <ele>6</ele>
        <time>1970-01-01T02:38:45.000Z</time>
      </trkpt>
      <trkpt lat="42.249959" lon="3.046697">
        <ele>6</ele>
        <time>1970-01-01T02:38:46.000Z</time>
      </trkpt>
      <trkpt lat="42.249919" lon="3.046666">
        <ele>6</ele>
        <time>1970-01-01T02:38:47.000Z</time>
      </trkpt>
      <trkpt lat="42.24988" lon="3.046635">
        <ele>6</ele>
        <time>1970-01-01T02:38:48.000Z</time>
      </trkpt>
      <trkpt lat="42.24984" lon="3.046604">
        <ele>6</ele>
        <time>1970-01-01T02:38:49.000Z</time>
      </trkpt>
      <trkpt lat="42.249801" lon="3.046573">
        <ele>6</ele>
        <time>1970-01-01T02:38:50.000Z</time>
      </trkpt>
      <trkpt lat="42.249761" lon="3.046542">
        <ele>6</ele>
        <time>1970-01-01T02:38:51.000Z</time>
      </trkpt>
      <trkpt lat="42.24963" lon="3.046451">
        <ele>6</ele>
        <time>1970-01-01T02:38:53.000Z</time>
      </trkpt>
      <trkpt lat="42.24959" lon="3.046423">
        <ele>6</ele>
        <time>1970-01-01T02:38:54.000Z</time>
      </trkpt>
      <trkpt lat="42.24955" lon="3.046395">
        <ele>6</ele>
        <time>1970-01-01T02:38:55.000Z</time>
      </trkpt>
      <trkpt lat="42.24951" lon="3.046367">
        <ele>6</ele>
        <time>1970-01-01T02:38:56.000Z</time>
      </trkpt>
      <trkpt lat="42.24947" lon="3.04634">
        <ele>6</ele>
        <time>1970-01-01T02:38:57.000Z</time>
      </trkpt>
      <trkpt lat="42.24943" lon="3.046312">
        <ele>6</ele>
        <time>1970-01-01T02:38:58.000Z</time>
      </trkpt>
      <trkpt lat="42.24939" lon="3.046284">
        <ele>6</ele>
        <time>1970-01-01T02:38:59.000Z</time>
      </trkpt>
      <trkpt lat="42.24935" lon="3.046256">
        <ele>6</ele>
        <time>1970-01-01T02:39:00.000Z</time>
      </trkpt>
      <trkpt lat="42.24931" lon="3.046228">
        <ele>7</ele>
        <time>1970-01-01T02:39:01.000Z</time>
      </trkpt>
      <trkpt lat="42.249224" lon="3.046168">
        <ele>7</ele>
        <time>1970-01-01T02:39:02.000Z</time>
      </trkpt>
      <trkpt lat="42.249185" lon="3.046143">
        <ele>7</ele>
        <time>1970-01-01T02:39:03.000Z</time>
      </trkpt>
      <trkpt lat="42.249145" lon="3.046117">
        <ele>7</ele>
        <time>1970-01-01T02:39:04.000Z</time>
      </trkpt>
      <trkpt lat="42.249106" lon="3.046092">
        <ele>7</ele>
        <time>1970-01-01T02:39:05.000Z</time>
      </trkpt>
      <trkpt lat="42.249066" lon="3.046066">
        <ele>7</ele>
        <time>1970-01-01T02:39:06.000Z</time>
      </trkpt>
      <trkpt lat="42.249026" lon="3.046041">
        <ele>7</ele>
        <time>1970-01-01T02:39:07.000Z</time>
      </trkpt>
      <trkpt lat="42.248987" lon="3.046015">
        <ele>7</ele>
        <time>1970-01-01T02:39:08.000Z</time>
      </trkpt>
      <trkpt lat="42.248947" lon="3.04599">
        <ele>7</ele>
        <time>1970-01-01T02:39:09.000Z</time>
      </trkpt>
      <trkpt lat="42.248908" lon="3.045964">
        <ele>7</ele>
        <time>1970-01-01T02:39:10.000Z</time>
      </trkpt>
      <trkpt lat="42.248868" lon="3.045939">
        <ele>7</ele>
        <time>1970-01-01T02:39:11.000Z</time>
      </trkpt>
      <trkpt lat="42.248781" lon="3.045871">
        <ele>7</ele>
        <time>1970-01-01T02:39:12.000Z</time>
      </trkpt>
      <trkpt lat="42.248733" lon="3.045834">
        <ele>7</ele>
        <time>1970-01-01T02:39:13.000Z</time>
      </trkpt>
      <trkpt lat="42.248686" lon="3.045797">
        <ele>7</ele>
        <time>1970-01-01T02:39:14.000Z</time>
      </trkpt>
      <trkpt lat="42.248639" lon="3.04576">
        <ele>7</ele>
        <time>1970-01-01T02:39:15.000Z</time>
      </trkpt>
      <trkpt lat="42.248591" lon="3.045723">
        <ele>7</ele>
        <time>1970-01-01T02:39:16.000Z</time>
      </trkpt>
      <trkpt lat="42.248544" lon="3.045686">
        <ele>7</ele>
        <time>1970-01-01T02:39:17.000Z</time>
      </trkpt>
      <trkpt lat="42.248497" lon="3.045649">
        <ele>7</ele>
        <time>1970-01-01T02:39:18.000Z</time>
      </trkpt>
      <trkpt lat="42.248449" lon="3.045612">
        <ele>7</ele>
        <time>1970-01-01T02:39:20.000Z</time>
      </trkpt>
      <trkpt lat="42.248402" lon="3.045575">
        <ele>5</ele>
        <time>1970-01-01T02:39:21.000Z</time>
      </trkpt>
      <trkpt lat="42.248299" lon="3.04548">
        <ele>5</ele>
        <time>1970-01-01T02:39:22.000Z</time>
      </trkpt>
      <trkpt lat="42.248248" lon="3.045429">
        <ele>5</ele>
        <time>1970-01-01T02:39:23.000Z</time>
      </trkpt>
      <trkpt lat="42.248197" lon="3.045378">
        <ele>5</ele>
        <time>1970-01-01T02:39:24.000Z</time>
      </trkpt>
      <trkpt lat="42.248146" lon="3.045327">
        <ele>5</ele>
        <time>1970-01-01T02:39:25.000Z</time>
      </trkpt>
      <trkpt lat="42.248096" lon="3.045277">
        <ele>5</ele>
        <time>1970-01-01T02:39:26.000Z</time>
      </trkpt>
      <trkpt lat="42.248045" lon="3.045226">
        <ele>5</ele>
        <time>1970-01-01T02:39:27.000Z</time>
      </trkpt>
      <trkpt lat="42.247994" lon="3.045175">
        <ele>5</ele>
        <time>1970-01-01T02:39:28.000Z</time>
      </trkpt>
      <trkpt lat="42.247943" lon="3.045124">
        <ele>5</ele>
        <time>1970-01-01T02:39:30.000Z</time>
      </trkpt>
      <trkpt lat="42.247892" lon="3.045073">
        <ele>5</ele>
        <time>1970-01-01T02:39:31.000Z</time>
      </trkpt>
      <trkpt lat="42.247798" lon="3.044955">
        <ele>5</ele>
        <time>1970-01-01T02:39:32.000Z</time>
      </trkpt>
      <trkpt lat="42.247753" lon="3.044895">
        <ele>5</ele>
        <time>1970-01-01T02:39:33.000Z</time>
      </trkpt>
      <trkpt lat="42.247707" lon="3.044835">
        <ele>5</ele>
        <time>1970-01-01T02:39:34.000Z</time>
      </trkpt>
      <trkpt lat="42.247661" lon="3.044775">
        <ele>5</ele>
        <time>1970-01-01T02:39:35.000Z</time>
      </trkpt>
      <trkpt lat="42.247616" lon="3.044715">
        <ele>5</ele>
        <time>1970-01-01T02:39:36.000Z</time>
      </trkpt>
      <trkpt lat="42.24757" lon="3.044655">
        <ele>5</ele>
        <time>1970-01-01T02:39:37.000Z</time>
      </trkpt>
      <trkpt lat="42.247524" lon="3.044595">
        <ele>5</ele>
        <time>1970-01-01T02:39:38.000Z</time>
      </trkpt>
      <trkpt lat="42.247479" lon="3.044535">
        <ele>5</ele>
        <time>1970-01-01T02:39:40.000Z</time>
      </trkpt>
      <trkpt lat="42.247433" lon="3.044475">
        <ele>4</ele>
        <time>1970-01-01T02:39:41.000Z</time>
      </trkpt>
      <trkpt lat="42.247346" lon="3.044359">
        <ele>4</ele>
        <time>1970-01-01T02:39:42.000Z</time>
      </trkpt>
      <trkpt lat="42.247303" lon="3.044302">
        <ele>4</ele>
        <time>1970-01-01T02:39:43.000Z</time>
      </trkpt>
      <trkpt lat="42.24726" lon="3.044245">
        <ele>4</ele>
        <time>1970-01-01T02:39:44.000Z</time>
      </trkpt>
      <trkpt lat="42.247217" lon="3.044188">
        <ele>4</ele>
        <time>1970-01-01T02:39:46.000Z</time>
      </trkpt>
      <trkpt lat="42.247174" lon="3.044131">
        <ele>4</ele>
        <time>1970-01-01T02:39:47.000Z</time>
      </trkpt>
      <trkpt lat="42.247131" lon="3.044074">
        <ele>4</ele>
        <time>1970-01-01T02:39:48.000Z</time>
      </trkpt>
      <trkpt lat="42.247088" lon="3.044017">
        <ele>4</ele>
        <time>1970-01-01T02:39:49.000Z</time>
      </trkpt>
      <trkpt lat="42.247045" lon="3.04396">
        <ele>4</ele>
        <time>1970-01-01T02:39:50.000Z</time>
      </trkpt>
      <trkpt lat="42.247002" lon="3.043903">
        <ele>4</ele>
        <time>1970-01-01T02:39:51.000Z</time>
      </trkpt>
      <trkpt lat="42.246921" lon="3.043797">
        <ele>4</ele>
        <time>1970-01-01T02:39:52.000Z</time>
      </trkpt>
      <trkpt lat="42.246882" lon="3.043744">
        <ele>4</ele>
        <time>1970-01-01T02:39:54.000Z</time>
      </trkpt>
      <trkpt lat="42.246842" lon="3.043692">
        <ele>4</ele>
        <time>1970-01-01T02:39:55.000Z</time>
      </trkpt>
      <trkpt lat="42.246802" lon="3.043639">
        <ele>4</ele>
        <time>1970-01-01T02:39:56.000Z</time>
      </trkpt>
      <trkpt lat="42.246762" lon="3.043586">
        <ele>4</ele>
        <time>1970-01-01T02:39:58.000Z</time>
      </trkpt>
      <trkpt lat="42.246723" lon="3.043533">
        <ele>4</ele>
        <time>1970-01-01T02:39:59.000Z</time>
      </trkpt>
      <trkpt lat="42.246683" lon="3.043481">
        <ele>4</ele>
        <time>1970-01-01T02:40:00.000Z</time>
      </trkpt>
      <trkpt lat="42.246643" lon="3.043428">
        <ele>5</ele>
        <time>1970-01-01T02:40:01.000Z</time>
      </trkpt>
      <trkpt lat="42.246592" lon="3.043351">
        <ele>5</ele>
        <time>1970-01-01T02:40:02.000Z</time>
      </trkpt>
      <trkpt lat="42.24657" lon="3.043315">
        <ele>5</ele>
        <time>1970-01-01T02:40:03.000Z</time>
      </trkpt>
      <trkpt lat="42.246547" lon="3.043278">
        <ele>5</ele>
        <time>1970-01-01T02:40:05.000Z</time>
      </trkpt>
      <trkpt lat="42.246525" lon="3.043242">
        <ele>5</ele>
        <time>1970-01-01T02:40:06.000Z</time>
      </trkpt>
      <trkpt lat="42.246503" lon="3.043205">
        <ele>5</ele>
        <time>1970-01-01T02:40:07.000Z</time>
      </trkpt>
      <trkpt lat="42.246481" lon="3.043169">
        <ele>5</ele>
        <time>1970-01-01T02:40:08.000Z</time>
      </trkpt>
      <trkpt lat="42.246458" lon="3.043132">
        <ele>5</ele>
        <time>1970-01-01T02:40:09.000Z</time>
      </trkpt>
      <trkpt lat="42.246436" lon="3.043096">
        <ele>5</ele>
        <time>1970-01-01T02:40:11.000Z</time>
      </trkpt>
      <trkpt lat="42.246416" lon="3.043053">
        <ele>5</ele>
        <time>1970-01-01T02:40:20.000Z</time>
      </trkpt>
      <trkpt lat="42.246396" lon="3.04301">
        <ele>4</ele>
        <time>1970-01-01T02:41:07.000Z</time>
      </trkpt>
      <trkpt lat="42.246377" lon="3.042967">
        <ele>4</ele>
        <time>1970-01-01T02:41:08.000Z</time>
      </trkpt>
      <trkpt lat="42.246357" lon="3.042924">
        <ele>4</ele>
        <time>1970-01-01T02:41:09.000Z</time>
      </trkpt>
      <trkpt lat="42.246337" lon="3.042881">
        <ele>4</ele>
        <time>1970-01-01T02:41:10.000Z</time>
      </trkpt>
      <trkpt lat="42.246317" lon="3.042838">
        <ele>4</ele>
        <time>1970-01-01T02:41:11.000Z</time>
      </trkpt>
      <trkpt lat="42.246297" lon="3.042795">
        <ele>4</ele>
        <time>1970-01-01T02:41:12.000Z</time>
      </trkpt>
      <trkpt lat="42.246277" lon="3.042752">
        <ele>4</ele>
        <time>1970-01-01T02:41:13.000Z</time>
      </trkpt>
      <trkpt lat="42.246258" lon="3.042709">
        <ele>4</ele>
        <time>1970-01-01T02:41:14.000Z</time>
      </trkpt>
      <trkpt lat="42.246238" lon="3.042666">
        <ele>4</ele>
        <time>1970-01-01T02:41:15.000Z</time>
      </trkpt>
      <trkpt lat="42.246218" lon="3.042623">
        <ele>4</ele>
        <time>1970-01-01T02:41:16.000Z</time>
      </trkpt>
      <trkpt lat="42.246198" lon="3.04258">
        <ele>4</ele>
        <time>1970-01-01T02:41:17.000Z</time>
      </trkpt>
      <trkpt lat="42.246161" lon="3.042479">
        <ele>4</ele>
        <time>1970-01-01T02:41:18.000Z</time>
      </trkpt>
      <trkpt lat="42.246144" lon="3.042432">
        <ele>4</ele>
        <time>1970-01-01T02:41:19.000Z</time>
      </trkpt>
      <trkpt lat="42.246128" lon="3.042384">
        <ele>4</ele>
        <time>1970-01-01T02:41:20.000Z</time>
      </trkpt>
      <trkpt lat="42.246111" lon="3.042336">
        <ele>4</ele>
        <time>1970-01-01T02:41:21.000Z</time>
      </trkpt>
      <trkpt lat="42.246095" lon="3.042288">
        <ele>4</ele>
        <time>1970-01-01T02:41:22.000Z</time>
      </trkpt>
      <trkpt lat="42.246078" lon="3.042241">
        <ele>4</ele>
        <time>1970-01-01T02:41:23.000Z</time>
      </trkpt>
      <trkpt lat="42.246062" lon="3.042193">
        <ele>4</ele>
        <time>1970-01-01T02:41:24.000Z</time>
      </trkpt>
      <trkpt lat="42.246045" lon="3.042145">
        <ele>4</ele>
        <time>1970-01-01T02:41:25.000Z</time>
      </trkpt>
      <trkpt lat="42.246029" lon="3.042098">
        <ele>4</ele>
        <time>1970-01-01T02:41:26.000Z</time>
      </trkpt>
      <trkpt lat="42.246012" lon="3.04205">
        <ele>4</ele>
        <time>1970-01-01T02:41:27.000Z</time>
      </trkpt>
      <trkpt lat="42.245974" lon="3.041957">
        <ele>4</ele>
        <time>1970-01-01T02:41:28.000Z</time>
      </trkpt>
      <trkpt lat="42.245953" lon="3.041914">
        <ele>4</ele>
        <time>1970-01-01T02:41:29.000Z</time>
      </trkpt>
      <trkpt lat="42.245931" lon="3.041872">
        <ele>4</ele>
        <time>1970-01-01T02:41:30.000Z</time>
      </trkpt>
      <trkpt lat="42.24591" lon="3.041829">
        <ele>4</ele>
        <time>1970-01-01T02:41:31.000Z</time>
      </trkpt>
      <trkpt lat="42.245889" lon="3.041786">
        <ele>4</ele>
        <time>1970-01-01T02:41:32.000Z</time>
      </trkpt>
      <trkpt lat="42.245868" lon="3.041743">
        <ele>4</ele>
        <time>1970-01-01T02:41:33.000Z</time>
      </trkpt>
      <trkpt lat="42.245847" lon="3.0417">
        <ele>4</ele>
        <time>1970-01-01T02:41:34.000Z</time>
      </trkpt>
      <trkpt lat="42.245825" lon="3.041658">
        <ele>4</ele>
        <time>1970-01-01T02:41:35.000Z</time>
      </trkpt>
      <trkpt lat="42.245804" lon="3.041615">
        <ele>4</ele>
        <time>1970-01-01T02:41:36.000Z</time>
      </trkpt>
      <trkpt lat="42.245783" lon="3.041572">
        <ele>4</ele>
        <time>1970-01-01T02:41:37.000Z</time>
      </trkpt>
      <trkpt lat="42.245721" lon="3.041471">
        <ele>4</ele>
        <time>1970-01-01T02:41:39.000Z</time>
      </trkpt>
      <trkpt lat="42.245702" lon="3.041442">
        <ele>4</ele>
        <time>1970-01-01T02:41:40.000Z</time>
      </trkpt>
      <trkpt lat="42.245683" lon="3.041414">
        <ele>4</ele>
        <time>1970-01-01T02:41:41.000Z</time>
      </trkpt>
      <trkpt lat="42.245664" lon="3.041385">
        <ele>4</ele>
        <time>1970-01-01T02:41:42.000Z</time>
      </trkpt>
      <trkpt lat="42.245645" lon="3.041357">
        <ele>4</ele>
        <time>1970-01-01T02:41:43.000Z</time>
      </trkpt>
      <trkpt lat="42.245626" lon="3.041328">
        <ele>4</ele>
        <time>1970-01-01T02:41:44.000Z</time>
      </trkpt>
      <trkpt lat="42.245607" lon="3.0413">
        <ele>4</ele>
        <time>1970-01-01T02:41:45.000Z</time>
      </trkpt>
      <trkpt lat="42.245588" lon="3.041271">
        <ele>4</ele>
        <time>1970-01-01T02:41:46.000Z</time>
      </trkpt>
      <trkpt lat="42.245569" lon="3.041243">
        <ele>5</ele>
        <time>1970-01-01T02:41:47.000Z</time>
      </trkpt>
      <trkpt lat="42.245531" lon="3.041169">
        <ele>5</ele>
        <time>1970-01-01T02:41:48.000Z</time>
      </trkpt>
      <trkpt lat="42.245511" lon="3.04113">
        <ele>5</ele>
        <time>1970-01-01T02:41:49.000Z</time>
      </trkpt>
      <trkpt lat="42.245492" lon="3.041092">
        <ele>5</ele>
        <time>1970-01-01T02:41:50.000Z</time>
      </trkpt>
      <trkpt lat="42.245472" lon="3.041054">
        <ele>5</ele>
        <time>1970-01-01T02:41:51.000Z</time>
      </trkpt>
      <trkpt lat="42.245453" lon="3.041015">
        <ele>5</ele>
        <time>1970-01-01T02:41:52.000Z</time>
      </trkpt>
      <trkpt lat="42.245433" lon="3.040977">
        <ele>5</ele>
        <time>1970-01-01T02:41:53.000Z</time>
      </trkpt>
      <trkpt lat="42.245414" lon="3.040939">
        <ele>5</ele>
        <time>1970-01-01T02:41:54.000Z</time>
      </trkpt>
      <trkpt lat="42.245394" lon="3.040901">
        <ele>5</ele>
        <time>1970-01-01T02:41:55.000Z</time>
      </trkpt>
      <trkpt lat="42.245375" lon="3.040862">
        <ele>5</ele>
        <time>1970-01-01T02:41:56.000Z</time>
      </trkpt>
      <trkpt lat="42.245355" lon="3.040824">
        <ele>5</ele>
        <time>1970-01-01T02:41:57.000Z</time>
      </trkpt>
      <trkpt lat="42.245311" lon="3.040721">
        <ele>5</ele>
        <time>1970-01-01T02:41:58.000Z</time>
      </trkpt>
      <trkpt lat="42.245286" lon="3.04067">
        <ele>5</ele>
        <time>1970-01-01T02:41:59.000Z</time>
      </trkpt>
      <trkpt lat="42.245262" lon="3.04062">
        <ele>5</ele>
        <time>1970-01-01T02:42:00.000Z</time>
      </trkpt>
      <trkpt lat="42.245238" lon="3.040569">
        <ele>5</ele>
        <time>1970-01-01T02:42:01.000Z</time>
      </trkpt>
      <trkpt lat="42.245213" lon="3.040518">
        <ele>5</ele>
        <time>1970-01-01T02:42:02.000Z</time>
      </trkpt>
      <trkpt lat="42.245189" lon="3.040467">
        <ele>5</ele>
        <time>1970-01-01T02:42:03.000Z</time>
      </trkpt>
      <trkpt lat="42.245165" lon="3.040417">
        <ele>5</ele>
        <time>1970-01-01T02:42:04.000Z</time>
      </trkpt>
      <trkpt lat="42.24514" lon="3.040366">
        <ele>5</ele>
        <time>1970-01-01T02:42:06.000Z</time>
      </trkpt>
      <trkpt lat="42.245116" lon="3.040315">
        <ele>4</ele>
        <time>1970-01-01T02:42:07.000Z</time>
      </trkpt>
      <trkpt lat="42.245071" lon="3.040219">
        <ele>4</ele>
        <time>1970-01-01T02:42:08.000Z</time>
      </trkpt>
      <trkpt lat="42.245049" lon="3.04017">
        <ele>4</ele>
        <time>1970-01-01T02:42:09.000Z</time>
      </trkpt>
      <trkpt lat="42.245028" lon="3.040122">
        <ele>4</ele>
        <time>1970-01-01T02:42:10.000Z</time>
      </trkpt>
      <trkpt lat="42.245006" lon="3.040073">
        <ele>4</ele>
        <time>1970-01-01T02:42:11.000Z</time>
      </trkpt>
      <trkpt lat="42.244985" lon="3.040024">
        <ele>4</ele>
        <time>1970-01-01T02:42:12.000Z</time>
      </trkpt>
      <trkpt lat="42.244964" lon="3.039975">
        <ele>4</ele>
        <time>1970-01-01T02:42:13.000Z</time>
      </trkpt>
      <trkpt lat="42.244942" lon="3.039926">
        <ele>4</ele>
        <time>1970-01-01T02:42:14.000Z</time>
      </trkpt>
      <trkpt lat="42.244921" lon="3.039878">
        <ele>4</ele>
        <time>1970-01-01T02:42:15.000Z</time>
      </trkpt>
      <trkpt lat="42.244899" lon="3.039829">
        <ele>4</ele>
        <time>1970-01-01T02:42:16.000Z</time>
      </trkpt>
      <trkpt lat="42.244878" lon="3.03978">
        <ele>5</ele>
        <time>1970-01-01T02:42:18.000Z</time>
      </trkpt>
      <trkpt lat="42.244841" lon="3.039685">
        <ele>5</ele>
        <time>1970-01-01T02:42:19.000Z</time>
      </trkpt>
      <trkpt lat="42.244824" lon="3.039638">
        <ele>5</ele>
        <time>1970-01-01T02:42:20.000Z</time>
      </trkpt>
      <trkpt lat="42.244808" lon="3.039592">
        <ele>5</ele>
        <time>1970-01-01T02:42:21.000Z</time>
      </trkpt>
      <trkpt lat="42.244792" lon="3.039545">
        <ele>5</ele>
        <time>1970-01-01T02:42:22.000Z</time>
      </trkpt>
      <trkpt lat="42.244775" lon="3.039499">
        <ele>5</ele>
        <time>1970-01-01T02:42:23.000Z</time>
      </trkpt>
      <trkpt lat="42.244759" lon="3.039452">
        <ele>5</ele>
        <time>1970-01-01T02:42:24.000Z</time>
      </trkpt>
      <trkpt lat="42.244743" lon="3.039406">
        <ele>5</ele>
        <time>1970-01-01T02:42:25.000Z</time>
      </trkpt>
      <trkpt lat="42.244726" lon="3.039359">
        <ele>5</ele>
        <time>1970-01-01T02:42:26.000Z</time>
      </trkpt>
      <trkpt lat="42.24471" lon="3.039313">
        <ele>5</ele>
        <time>1970-01-01T02:42:27.000Z</time>
      </trkpt>
      <trkpt lat="42.244662" lon="3.039221">
        <ele>5</ele>
        <time>1970-01-01T02:42:28.000Z</time>
      </trkpt>
      <trkpt lat="42.244635" lon="3.03918">
        <ele>5</ele>
        <time>1970-01-01T02:42:29.000Z</time>
      </trkpt>
      <trkpt lat="42.244608" lon="3.039138">
        <ele>5</ele>
        <time>1970-01-01T02:42:30.000Z</time>
      </trkpt>
      <trkpt lat="42.244581" lon="3.039097">
        <ele>5</ele>
        <time>1970-01-01T02:42:31.000Z</time>
      </trkpt>
      <trkpt lat="42.244554" lon="3.039056">
        <ele>5</ele>
        <time>1970-01-01T02:42:32.000Z</time>
      </trkpt>
      <trkpt lat="42.244527" lon="3.039015">
        <ele>5</ele>
        <time>1970-01-01T02:42:33.000Z</time>
      </trkpt>
      <trkpt lat="42.2445" lon="3.038974">
        <ele>5</ele>
        <time>1970-01-01T02:42:34.000Z</time>
      </trkpt>
      <trkpt lat="42.244473" lon="3.038932">
        <ele>5</ele>
        <time>1970-01-01T02:42:35.000Z</time>
      </trkpt>
      <trkpt lat="42.244446" lon="3.038891">
        <ele>5</ele>
        <time>1970-01-01T02:42:36.000Z</time>
      </trkpt>
      <trkpt lat="42.244419" lon="3.03885">
        <ele>5</ele>
        <time>1970-01-01T02:42:37.000Z</time>
      </trkpt>
      <trkpt lat="42.244362" lon="3.038766">
        <ele>5</ele>
        <time>1970-01-01T02:42:38.000Z</time>
      </trkpt>
      <trkpt lat="42.244336" lon="3.038726">
        <ele>5</ele>
        <time>1970-01-01T02:42:39.000Z</time>
      </trkpt>
      <trkpt lat="42.244311" lon="3.038687">
        <ele>5</ele>
        <time>1970-01-01T02:42:40.000Z</time>
      </trkpt>
      <trkpt lat="42.244285" lon="3.038647">
        <ele>5</ele>
        <time>1970-01-01T02:42:41.000Z</time>
      </trkpt>
      <trkpt lat="42.24426" lon="3.038607">
        <ele>5</ele>
        <time>1970-01-01T02:42:42.000Z</time>
      </trkpt>
      <trkpt lat="42.244234" lon="3.038567">
        <ele>5</ele>
        <time>1970-01-01T02:42:43.000Z</time>
      </trkpt>
      <trkpt lat="42.244209" lon="3.038527">
        <ele>5</ele>
        <time>1970-01-01T02:42:44.000Z</time>
      </trkpt>
      <trkpt lat="42.244183" lon="3.038488">
        <ele>5</ele>
        <time>1970-01-01T02:42:45.000Z</time>
      </trkpt>
      <trkpt lat="42.244158" lon="3.038448">
        <ele>5</ele>
        <time>1970-01-01T02:42:46.000Z</time>
      </trkpt>
      <trkpt lat="42.244132" lon="3.038408">
        <ele>5</ele>
        <time>1970-01-01T02:42:47.000Z</time>
      </trkpt>
      <trkpt lat="42.244072" lon="3.038317">
        <ele>5</ele>
        <time>1970-01-01T02:42:48.000Z</time>
      </trkpt>
      <trkpt lat="42.244041" lon="3.038273">
        <ele>5</ele>
        <time>1970-01-01T02:42:49.000Z</time>
      </trkpt>
      <trkpt lat="42.24401" lon="3.038228">
        <ele>5</ele>
        <time>1970-01-01T02:42:50.000Z</time>
      </trkpt>
      <trkpt lat="42.243979" lon="3.038184">
        <ele>5</ele>
        <time>1970-01-01T02:42:52.000Z</time>
      </trkpt>
      <trkpt lat="42.243949" lon="3.038139">
        <ele>5</ele>
        <time>1970-01-01T02:42:53.000Z</time>
      </trkpt>
      <trkpt lat="42.243918" lon="3.038095">
        <ele>5</ele>
        <time>1970-01-01T02:42:54.000Z</time>
      </trkpt>
      <trkpt lat="42.243887" lon="3.03805">
        <ele>5</ele>
        <time>1970-01-01T02:42:55.000Z</time>
      </trkpt>
      <trkpt lat="42.243856" lon="3.038006">
        <ele>5</ele>
        <time>1970-01-01T02:42:56.000Z</time>
      </trkpt>
      <trkpt lat="42.243825" lon="3.037961">
        <ele>6</ele>
        <time>1970-01-01T02:42:57.000Z</time>
      </trkpt>
      <trkpt lat="42.243766" lon="3.037865">
        <ele>6</ele>
        <time>1970-01-01T02:42:58.000Z</time>
      </trkpt>
      <trkpt lat="42.243736" lon="3.037813">
        <ele>6</ele>
        <time>1970-01-01T02:42:59.000Z</time>
      </trkpt>
      <trkpt lat="42.243705" lon="3.037762">
        <ele>6</ele>
        <time>1970-01-01T02:43:00.000Z</time>
      </trkpt>
      <trkpt lat="42.243675" lon="3.037711">
        <ele>6</ele>
        <time>1970-01-01T02:43:01.000Z</time>
      </trkpt>
      <trkpt lat="42.243644" lon="3.037659">
        <ele>6</ele>
        <time>1970-01-01T02:43:03.000Z</time>
      </trkpt>
      <trkpt lat="42.243614" lon="3.037608">
        <ele>6</ele>
        <time>1970-01-01T02:43:04.000Z</time>
      </trkpt>
      <trkpt lat="42.243583" lon="3.037557">
        <ele>6</ele>
        <time>1970-01-01T02:43:05.000Z</time>
      </trkpt>
      <trkpt lat="42.243553" lon="3.037505">
        <ele>6</ele>
        <time>1970-01-01T02:43:06.000Z</time>
      </trkpt>
      <trkpt lat="42.243522" lon="3.037454">
        <ele>6</ele>
        <time>1970-01-01T02:43:07.000Z</time>
      </trkpt>
      <trkpt lat="42.243458" lon="3.037344">
        <ele>6</ele>
        <time>1970-01-01T02:43:08.000Z</time>
      </trkpt>
      <trkpt lat="42.243425" lon="3.037288">
        <ele>6</ele>
        <time>1970-01-01T02:43:09.000Z</time>
      </trkpt>
      <trkpt lat="42.243393" lon="3.037232">
        <ele>6</ele>
        <time>1970-01-01T02:43:10.000Z</time>
      </trkpt>
      <trkpt lat="42.243361" lon="3.037176">
        <ele>6</ele>
        <time>1970-01-01T02:43:11.000Z</time>
      </trkpt>
      <trkpt lat="42.243328" lon="3.037119">
        <ele>6</ele>
        <time>1970-01-01T02:43:13.000Z</time>
      </trkpt>
      <trkpt lat="42.243296" lon="3.037063">
        <ele>6</ele>
        <time>1970-01-01T02:43:14.000Z</time>
      </trkpt>
      <trkpt lat="42.243264" lon="3.037007">
        <ele>6</ele>
        <time>1970-01-01T02:43:15.000Z</time>
      </trkpt>
      <trkpt lat="42.243231" lon="3.036951">
        <ele>6</ele>
        <time>1970-01-01T02:43:16.000Z</time>
      </trkpt>
      <trkpt lat="42.243199" lon="3.036895">
        <ele>5</ele>
        <time>1970-01-01T02:43:17.000Z</time>
      </trkpt>
      <trkpt lat="42.243134" lon="3.03678">
        <ele>5</ele>
        <time>1970-01-01T02:43:18.000Z</time>
      </trkpt>
      <trkpt lat="42.243104" lon="3.036721">
        <ele>5</ele>
        <time>1970-01-01T02:43:19.000Z</time>
      </trkpt>
      <trkpt lat="42.243073" lon="3.036661">
        <ele>5</ele>
        <time>1970-01-01T02:43:20.000Z</time>
      </trkpt>
      <trkpt lat="42.243043" lon="3.036601">
        <ele>5</ele>
        <time>1970-01-01T02:43:22.000Z</time>
      </trkpt>
      <trkpt lat="42.243012" lon="3.036542">
        <ele>5</ele>
        <time>1970-01-01T02:43:23.000Z</time>
      </trkpt>
      <trkpt lat="42.242982" lon="3.036482">
        <ele>5</ele>
        <time>1970-01-01T02:43:24.000Z</time>
      </trkpt>
      <trkpt lat="42.242951" lon="3.036422">
        <ele>5</ele>
        <time>1970-01-01T02:43:25.000Z</time>
      </trkpt>
      <trkpt lat="42.242921" lon="3.036363">
        <ele>5</ele>
        <time>1970-01-01T02:43:26.000Z</time>
      </trkpt>
      <trkpt lat="42.24289" lon="3.036303">
        <ele>5</ele>
        <time>1970-01-01T02:43:27.000Z</time>
      </trkpt>
      <trkpt lat="42.242844" lon="3.036177">
        <ele>5</ele>
        <time>1970-01-01T02:43:28.000Z</time>
      </trkpt>
      <trkpt lat="42.242824" lon="3.036114">
        <ele>5</ele>
        <time>1970-01-01T02:43:29.000Z</time>
      </trkpt>
      <trkpt lat="42.242804" lon="3.036052">
        <ele>5</ele>
        <time>1970-01-01T02:43:30.000Z</time>
      </trkpt>
      <trkpt lat="42.242784" lon="3.035989">
        <ele>5</ele>
        <time>1970-01-01T02:43:31.000Z</time>
      </trkpt>
      <trkpt lat="42.242764" lon="3.035927">
        <ele>5</ele>
        <time>1970-01-01T02:43:32.000Z</time>
      </trkpt>
      <trkpt lat="42.242744" lon="3.035865">
        <ele>5</ele>
        <time>1970-01-01T02:43:33.000Z</time>
      </trkpt>
      <trkpt lat="42.242724" lon="3.035802">
        <ele>5</ele>
        <time>1970-01-01T02:43:34.000Z</time>
      </trkpt>
      <trkpt lat="42.242704" lon="3.03574">
        <ele>5</ele>
        <time>1970-01-01T02:43:35.000Z</time>
      </trkpt>
      <trkpt lat="42.242684" lon="3.035677">
        <ele>5</ele>
        <time>1970-01-01T02:43:36.000Z</time>
      </trkpt>
      <trkpt lat="42.242664" lon="3.035615">
        <ele>6</ele>
        <time>1970-01-01T02:43:37.000Z</time>
      </trkpt>
      <trkpt lat="42.242619" lon="3.035479">
        <ele>6</ele>
        <time>1970-01-01T02:43:38.000Z</time>
      </trkpt>
      <trkpt lat="42.242599" lon="3.035414">
        <ele>6</ele>
        <time>1970-01-01T02:43:39.000Z</time>
      </trkpt>
      <trkpt lat="42.242578" lon="3.03535">
        <ele>6</ele>
        <time>1970-01-01T02:43:40.000Z</time>
      </trkpt>
      <trkpt lat="42.242557" lon="3.035285">
        <ele>6</ele>
        <time>1970-01-01T02:43:41.000Z</time>
      </trkpt>
      <trkpt lat="42.242537" lon="3.03522">
        <ele>6</ele>
        <time>1970-01-01T02:43:42.000Z</time>
      </trkpt>
      <trkpt lat="42.242516" lon="3.035155">
        <ele>6</ele>
        <time>1970-01-01T02:43:43.000Z</time>
      </trkpt>
      <trkpt lat="42.242495" lon="3.03509">
        <ele>6</ele>
        <time>1970-01-01T02:43:44.000Z</time>
      </trkpt>
      <trkpt lat="42.242474" lon="3.035026">
        <ele>6</ele>
        <time>1970-01-01T02:43:45.000Z</time>
      </trkpt>
      <trkpt lat="42.242454" lon="3.034961">
        <ele>6</ele>
        <time>1970-01-01T02:43:46.000Z</time>
      </trkpt>
      <trkpt lat="42.242433" lon="3.034896">
        <ele>6</ele>
        <time>1970-01-01T02:43:47.000Z</time>
      </trkpt>
      <trkpt lat="42.242387" lon="3.034755">
        <ele>6</ele>
        <time>1970-01-01T02:43:48.000Z</time>
      </trkpt>
      <trkpt lat="42.242364" lon="3.034685">
        <ele>6</ele>
        <time>1970-01-01T02:43:49.000Z</time>
      </trkpt>
      <trkpt lat="42.242342" lon="3.034614">
        <ele>6</ele>
        <time>1970-01-01T02:43:50.000Z</time>
      </trkpt>
      <trkpt lat="42.242319" lon="3.034544">
        <ele>6</ele>
        <time>1970-01-01T02:43:51.000Z</time>
      </trkpt>
      <trkpt lat="42.242297" lon="3.034473">
        <ele>6</ele>
        <time>1970-01-01T02:43:52.000Z</time>
      </trkpt>
      <trkpt lat="42.242275" lon="3.034403">
        <ele>6</ele>
        <time>1970-01-01T02:43:53.000Z</time>
      </trkpt>
      <trkpt lat="42.242252" lon="3.034332">
        <ele>6</ele>
        <time>1970-01-01T02:43:54.000Z</time>
      </trkpt>
      <trkpt lat="42.24223" lon="3.034262">
        <ele>6</ele>
        <time>1970-01-01T02:43:55.000Z</time>
      </trkpt>
      <trkpt lat="42.242207" lon="3.034191">
        <ele>6</ele>
        <time>1970-01-01T02:43:56.000Z</time>
      </trkpt>
      <trkpt lat="42.242185" lon="3.034121">
        <ele>6</ele>
        <time>1970-01-01T02:43:58.000Z</time>
      </trkpt>
      <trkpt lat="42.242143" lon="3.033987">
        <ele>6</ele>
        <time>1970-01-01T02:43:59.000Z</time>
      </trkpt>
      <trkpt lat="42.242122" lon="3.033925">
        <ele>6</ele>
        <time>1970-01-01T02:44:00.000Z</time>
      </trkpt>
      <trkpt lat="42.242102" lon="3.033863">
        <ele>6</ele>
        <time>1970-01-01T02:44:01.000Z</time>
      </trkpt>
      <trkpt lat="42.242081" lon="3.033801">
        <ele>6</ele>
        <time>1970-01-01T02:44:02.000Z</time>
      </trkpt>
      <trkpt lat="42.242061" lon="3.033738">
        <ele>6</ele>
        <time>1970-01-01T02:44:03.000Z</time>
      </trkpt>
      <trkpt lat="42.24204" lon="3.033676">
        <ele>6</ele>
        <time>1970-01-01T02:44:04.000Z</time>
      </trkpt>
      <trkpt lat="42.24202" lon="3.033614">
        <ele>6</ele>
        <time>1970-01-01T02:44:05.000Z</time>
      </trkpt>
      <trkpt lat="42.241999" lon="3.033552">
        <ele>6</ele>
        <time>1970-01-01T02:44:06.000Z</time>
      </trkpt>
      <trkpt lat="42.241979" lon="3.03349">
        <ele>6</ele>
        <time>1970-01-01T02:44:07.000Z</time>
      </trkpt>
      <trkpt lat="42.241951" lon="3.03336">
        <ele>6</ele>
        <time>1970-01-01T02:44:08.000Z</time>
      </trkpt>
      <trkpt lat="42.241943" lon="3.033298">
        <ele>6</ele>
        <time>1970-01-01T02:44:09.000Z</time>
      </trkpt>
      <trkpt lat="42.241936" lon="3.033236">
        <ele>6</ele>
        <time>1970-01-01T02:44:10.000Z</time>
      </trkpt>
      <trkpt lat="42.241928" lon="3.033174">
        <ele>6</ele>
        <time>1970-01-01T02:44:11.000Z</time>
      </trkpt>
      <trkpt lat="42.241921" lon="3.033111">
        <ele>6</ele>
        <time>1970-01-01T02:44:12.000Z</time>
      </trkpt>
      <trkpt lat="42.241913" lon="3.033049">
        <ele>6</ele>
        <time>1970-01-01T02:44:13.000Z</time>
      </trkpt>
      <trkpt lat="42.241906" lon="3.032987">
        <ele>6</ele>
        <time>1970-01-01T02:44:14.000Z</time>
      </trkpt>
      <trkpt lat="42.241898" lon="3.032925">
        <ele>6</ele>
        <time>1970-01-01T02:44:16.000Z</time>
      </trkpt>
      <trkpt lat="42.241891" lon="3.032863">
        <ele>7</ele>
        <time>1970-01-01T02:44:17.000Z</time>
      </trkpt>
      <trkpt lat="42.241815" lon="3.032748">
        <ele>7</ele>
        <time>1970-01-01T02:44:18.000Z</time>
      </trkpt>
      <trkpt lat="42.241786" lon="3.032675">
        <ele>7</ele>
        <time>1970-01-01T02:44:19.000Z</time>
      </trkpt>
      <trkpt lat="42.241756" lon="3.032603">
        <ele>7</ele>
        <time>1970-01-01T02:44:20.000Z</time>
      </trkpt>
      <trkpt lat="42.241727" lon="3.03253">
        <ele>7</ele>
        <time>1970-01-01T02:44:21.000Z</time>
      </trkpt>
      <trkpt lat="42.241697" lon="3.032458">
        <ele>7</ele>
        <time>1970-01-01T02:44:22.000Z</time>
      </trkpt>
      <trkpt lat="42.241668" lon="3.032385">
        <ele>7</ele>
        <time>1970-01-01T02:44:23.000Z</time>
      </trkpt>
      <trkpt lat="42.241638" lon="3.032313">
        <ele>7</ele>
        <time>1970-01-01T02:44:25.000Z</time>
      </trkpt>
      <trkpt lat="42.241609" lon="3.03224">
        <ele>7</ele>
        <time>1970-01-01T02:44:26.000Z</time>
      </trkpt>
      <trkpt lat="42.241579" lon="3.032168">
        <ele>7</ele>
        <time>1970-01-01T02:44:27.000Z</time>
      </trkpt>
      <trkpt lat="42.241521" lon="3.032024">
        <ele>7</ele>
        <time>1970-01-01T02:44:28.000Z</time>
      </trkpt>
      <trkpt lat="42.241491" lon="3.031954">
        <ele>7</ele>
        <time>1970-01-01T02:44:29.000Z</time>
      </trkpt>
      <trkpt lat="42.241461" lon="3.031883">
        <ele>7</ele>
        <time>1970-01-01T02:44:30.000Z</time>
      </trkpt>
      <trkpt lat="42.241431" lon="3.031813">
        <ele>7</ele>
        <time>1970-01-01T02:44:31.000Z</time>
      </trkpt>
      <trkpt lat="42.241401" lon="3.031743">
        <ele>7</ele>
        <time>1970-01-01T02:44:32.000Z</time>
      </trkpt>
      <trkpt lat="42.24137" lon="3.031673">
        <ele>7</ele>
        <time>1970-01-01T02:44:33.000Z</time>
      </trkpt>
      <trkpt lat="42.24134" lon="3.031603">
        <ele>7</ele>
        <time>1970-01-01T02:44:34.000Z</time>
      </trkpt>
      <trkpt lat="42.24131" lon="3.031532">
        <ele>7</ele>
        <time>1970-01-01T02:44:35.000Z</time>
      </trkpt>
      <trkpt lat="42.24128" lon="3.031462">
        <ele>7</ele>
        <time>1970-01-01T02:44:36.000Z</time>
      </trkpt>
      <trkpt lat="42.24125" lon="3.031392">
        <ele>7</ele>
        <time>1970-01-01T02:44:38.000Z</time>
      </trkpt>
      <trkpt lat="42.241188" lon="3.031262">
        <ele>7</ele>
        <time>1970-01-01T02:44:39.000Z</time>
      </trkpt>
      <trkpt lat="42.241158" lon="3.0312">
        <ele>7</ele>
        <time>1970-01-01T02:44:40.000Z</time>
      </trkpt>
      <trkpt lat="42.241129" lon="3.031138">
        <ele>7</ele>
        <time>1970-01-01T02:44:41.000Z</time>
      </trkpt>
      <trkpt lat="42.241099" lon="3.031076">
        <ele>7</ele>
        <time>1970-01-01T02:44:42.000Z</time>
      </trkpt>
      <trkpt lat="42.24107" lon="3.031015">
        <ele>7</ele>
        <time>1970-01-01T02:44:43.000Z</time>
      </trkpt>
      <trkpt lat="42.24104" lon="3.030953">
        <ele>7</ele>
        <time>1970-01-01T02:44:44.000Z</time>
      </trkpt>
      <trkpt lat="42.241011" lon="3.030891">
        <ele>7</ele>
        <time>1970-01-01T02:44:45.000Z</time>
      </trkpt>
      <trkpt lat="42.240981" lon="3.030829">
        <ele>7</ele>
        <time>1970-01-01T02:44:46.000Z</time>
      </trkpt>
      <trkpt lat="42.240952" lon="3.030767">
        <ele>7</ele>
        <time>1970-01-01T02:44:47.000Z</time>
      </trkpt>
      <trkpt lat="42.240876" lon="3.030558">
        <ele>7</ele>
        <time>1970-01-01T02:44:49.000Z</time>
      </trkpt>
      <trkpt lat="42.24086" lon="3.030486">
        <ele>7</ele>
        <time>1970-01-01T02:44:50.000Z</time>
      </trkpt>
      <trkpt lat="42.240844" lon="3.030415">
        <ele>7</ele>
        <time>1970-01-01T02:44:51.000Z</time>
      </trkpt>
      <trkpt lat="42.240828" lon="3.030343">
        <ele>7</ele>
        <time>1970-01-01T02:44:52.000Z</time>
      </trkpt>
      <trkpt lat="42.240811" lon="3.030272">
        <ele>7</ele>
        <time>1970-01-01T02:44:53.000Z</time>
      </trkpt>
      <trkpt lat="42.240795" lon="3.030201">
        <ele>7</ele>
        <time>1970-01-01T02:44:54.000Z</time>
      </trkpt>
      <trkpt lat="42.240779" lon="3.030129">
        <ele>7</ele>
        <time>1970-01-01T02:44:55.000Z</time>
      </trkpt>
      <trkpt lat="42.240763" lon="3.030058">
        <ele>7</ele>
        <time>1970-01-01T02:44:57.000Z</time>
      </trkpt>
      <trkpt lat="42.240736" lon="3.029933">
        <ele>7</ele>
        <time>1970-01-01T02:44:58.000Z</time>
      </trkpt>
      <trkpt lat="42.240725" lon="3.029875">
        <ele>7</ele>
        <time>1970-01-01T02:44:59.000Z</time>
      </trkpt>
      <trkpt lat="42.240713" lon="3.029816">
        <ele>7</ele>
        <time>1970-01-01T02:45:00.000Z</time>
      </trkpt>
      <trkpt lat="42.240701" lon="3.029758">
        <ele>7</ele>
        <time>1970-01-01T02:45:01.000Z</time>
      </trkpt>
      <trkpt lat="42.24069" lon="3.029699">
        <ele>7</ele>
        <time>1970-01-01T02:45:02.000Z</time>
      </trkpt>
      <trkpt lat="42.240678" lon="3.02964">
        <ele>7</ele>
        <time>1970-01-01T02:45:03.000Z</time>
      </trkpt>
      <trkpt lat="42.240666" lon="3.029582">
        <ele>7</ele>
        <time>1970-01-01T02:45:04.000Z</time>
      </trkpt>
      <trkpt lat="42.240654" lon="3.029523">
        <ele>7</ele>
        <time>1970-01-01T02:45:05.000Z</time>
      </trkpt>
      <trkpt lat="42.240643" lon="3.029465">
        <ele>7</ele>
        <time>1970-01-01T02:45:06.000Z</time>
      </trkpt>
      <trkpt lat="42.240631" lon="3.029406">
        <ele>7</ele>
        <time>1970-01-01T02:45:07.000Z</time>
      </trkpt>
      <trkpt lat="42.240606" lon="3.029283">
        <ele>7</ele>
        <time>1970-01-01T02:45:08.000Z</time>
      </trkpt>
      <trkpt lat="42.240594" lon="3.029223">
        <ele>7</ele>
        <time>1970-01-01T02:45:09.000Z</time>
      </trkpt>
      <trkpt lat="42.240582" lon="3.029164">
        <ele>7</ele>
        <time>1970-01-01T02:45:10.000Z</time>
      </trkpt>
      <trkpt lat="42.24057" lon="3.029104">
        <ele>7</ele>
        <time>1970-01-01T02:45:11.000Z</time>
      </trkpt>
      <trkpt lat="42.240559" lon="3.029045">
        <ele>7</ele>
        <time>1970-01-01T02:45:12.000Z</time>
      </trkpt>
      <trkpt lat="42.240547" lon="3.028986">
        <ele>7</ele>
        <time>1970-01-01T02:45:13.000Z</time>
      </trkpt>
      <trkpt lat="42.240535" lon="3.028926">
        <ele>7</ele>
        <time>1970-01-01T02:45:14.000Z</time>
      </trkpt>
      <trkpt lat="42.240523" lon="3.028867">
        <ele>7</ele>
        <time>1970-01-01T02:45:15.000Z</time>
      </trkpt>
      <trkpt lat="42.240511" lon="3.028807">
        <ele>7</ele>
        <time>1970-01-01T02:45:16.000Z</time>
      </trkpt>
      <trkpt lat="42.240499" lon="3.028748">
        <ele>7</ele>
        <time>1970-01-01T02:45:17.000Z</time>
      </trkpt>
      <trkpt lat="42.240476" lon="3.028624">
        <ele>7</ele>
        <time>1970-01-01T02:45:18.000Z</time>
      </trkpt>
      <trkpt lat="42.240464" lon="3.028565">
        <ele>7</ele>
        <time>1970-01-01T02:45:19.000Z</time>
      </trkpt>
      <trkpt lat="42.240453" lon="3.028506">
        <ele>7</ele>
        <time>1970-01-01T02:45:20.000Z</time>
      </trkpt>
      <trkpt lat="42.240441" lon="3.028447">
        <ele>7</ele>
        <time>1970-01-01T02:45:21.000Z</time>
      </trkpt>
      <trkpt lat="42.24043" lon="3.028388">
        <ele>7</ele>
        <time>1970-01-01T02:45:22.000Z</time>
      </trkpt>
      <trkpt lat="42.240419" lon="3.028329">
        <ele>7</ele>
        <time>1970-01-01T02:45:23.000Z</time>
      </trkpt>
      <trkpt lat="42.240407" lon="3.02827">
        <ele>7</ele>
        <time>1970-01-01T02:45:24.000Z</time>
      </trkpt>
      <trkpt lat="42.240396" lon="3.028211">
        <ele>7</ele>
        <time>1970-01-01T02:45:25.000Z</time>
      </trkpt>
      <trkpt lat="42.240384" lon="3.028152">
        <ele>7</ele>
        <time>1970-01-01T02:45:26.000Z</time>
      </trkpt>
      <trkpt lat="42.240373" lon="3.028093">
        <ele>7</ele>
        <time>1970-01-01T02:45:27.000Z</time>
      </trkpt>
      <trkpt lat="42.240347" lon="3.027962">
        <ele>7</ele>
        <time>1970-01-01T02:45:28.000Z</time>
      </trkpt>
      <trkpt lat="42.240335" lon="3.027898">
        <ele>7</ele>
        <time>1970-01-01T02:45:29.000Z</time>
      </trkpt>
      <trkpt lat="42.240323" lon="3.027834">
        <ele>7</ele>
        <time>1970-01-01T02:45:30.000Z</time>
      </trkpt>
      <trkpt lat="42.240311" lon="3.02777">
        <ele>7</ele>
        <time>1970-01-01T02:45:31.000Z</time>
      </trkpt>
      <trkpt lat="42.240298" lon="3.027707">
        <ele>7</ele>
        <time>1970-01-01T02:45:32.000Z</time>
      </trkpt>
      <trkpt lat="42.240286" lon="3.027643">
        <ele>7</ele>
        <time>1970-01-01T02:45:33.000Z</time>
      </trkpt>
      <trkpt lat="42.240274" lon="3.027579">
        <ele>7</ele>
        <time>1970-01-01T02:45:35.000Z</time>
      </trkpt>
      <trkpt lat="42.240262" lon="3.027515">
        <ele>7</ele>
        <time>1970-01-01T02:45:36.000Z</time>
      </trkpt>
      <trkpt lat="42.24025" lon="3.027451">
        <ele>8</ele>
        <time>1970-01-01T02:45:37.000Z</time>
      </trkpt>
      <trkpt lat="42.240225" lon="3.027326">
        <ele>8</ele>
        <time>1970-01-01T02:45:38.000Z</time>
      </trkpt>
      <trkpt lat="42.240212" lon="3.027262">
        <ele>8</ele>
        <time>1970-01-01T02:45:39.000Z</time>
      </trkpt>
      <trkpt lat="42.2402" lon="3.027199">
        <ele>8</ele>
        <time>1970-01-01T02:45:40.000Z</time>
      </trkpt>
      <trkpt lat="42.240188" lon="3.027136">
        <ele>8</ele>
        <time>1970-01-01T02:45:41.000Z</time>
      </trkpt>
      <trkpt lat="42.240176" lon="3.027072">
        <ele>8</ele>
        <time>1970-01-01T02:45:42.000Z</time>
      </trkpt>
      <trkpt lat="42.240163" lon="3.027009">
        <ele>8</ele>
        <time>1970-01-01T02:45:43.000Z</time>
      </trkpt>
      <trkpt lat="42.240151" lon="3.026946">
        <ele>8</ele>
        <time>1970-01-01T02:45:44.000Z</time>
      </trkpt>
      <trkpt lat="42.240139" lon="3.026883">
        <ele>8</ele>
        <time>1970-01-01T02:45:45.000Z</time>
      </trkpt>
      <trkpt lat="42.240126" lon="3.026819">
        <ele>8</ele>
        <time>1970-01-01T02:45:46.000Z</time>
      </trkpt>
      <trkpt lat="42.240114" lon="3.026756">
        <ele>8</ele>
        <time>1970-01-01T02:45:48.000Z</time>
      </trkpt>
      <trkpt lat="42.240082" lon="3.026618">
        <ele>8</ele>
        <time>1970-01-01T02:45:49.000Z</time>
      </trkpt>
      <trkpt lat="42.240064" lon="3.026544">
        <ele>8</ele>
        <time>1970-01-01T02:45:50.000Z</time>
      </trkpt>
      <trkpt lat="42.240046" lon="3.02647">
        <ele>8</ele>
        <time>1970-01-01T02:45:51.000Z</time>
      </trkpt>
      <trkpt lat="42.240028" lon="3.026395">
        <ele>8</ele>
        <time>1970-01-01T02:45:52.000Z</time>
      </trkpt>
      <trkpt lat="42.240009" lon="3.026321">
        <ele>8</ele>
        <time>1970-01-01T02:45:54.000Z</time>
      </trkpt>
      <trkpt lat="42.239991" lon="3.026247">
        <ele>8</ele>
        <time>1970-01-01T02:45:55.000Z</time>
      </trkpt>
      <trkpt lat="42.239973" lon="3.026173">
        <ele>8</ele>
        <time>1970-01-01T02:45:56.000Z</time>
      </trkpt>
      <trkpt lat="42.239955" lon="3.026099">
        <ele>10</ele>
        <time>1970-01-01T02:45:58.000Z</time>
      </trkpt>
      <trkpt lat="42.239923" lon="3.025971">
        <ele>10</ele>
        <time>1970-01-01T02:45:59.000Z</time>
      </trkpt>
      <trkpt lat="42.239908" lon="3.025912">
        <ele>10</ele>
        <time>1970-01-01T02:46:00.000Z</time>
      </trkpt>
      <trkpt lat="42.239894" lon="3.025853">
        <ele>10</ele>
        <time>1970-01-01T02:46:01.000Z</time>
      </trkpt>
      <trkpt lat="42.239879" lon="3.025794">
        <ele>10</ele>
        <time>1970-01-01T02:46:02.000Z</time>
      </trkpt>
      <trkpt lat="42.239864" lon="3.025735">
        <ele>10</ele>
        <time>1970-01-01T02:46:03.000Z</time>
      </trkpt>
      <trkpt lat="42.239849" lon="3.025676">
        <ele>10</ele>
        <time>1970-01-01T02:46:04.000Z</time>
      </trkpt>
      <trkpt lat="42.239835" lon="3.025617">
        <ele>10</ele>
        <time>1970-01-01T02:46:05.000Z</time>
      </trkpt>
      <trkpt lat="42.23982" lon="3.025558">
        <ele>10</ele>
        <time>1970-01-01T02:46:06.000Z</time>
      </trkpt>
      <trkpt lat="42.239805" lon="3.025499">
        <ele>11</ele>
        <time>1970-01-01T02:46:07.000Z</time>
      </trkpt>
      <trkpt lat="42.239771" lon="3.025362">
        <ele>11</ele>
        <time>1970-01-01T02:46:08.000Z</time>
      </trkpt>
      <trkpt lat="42.239753" lon="3.02529">
        <ele>11</ele>
        <time>1970-01-01T02:46:09.000Z</time>
      </trkpt>
      <trkpt lat="42.239734" lon="3.025217">
        <ele>11</ele>
        <time>1970-01-01T02:46:10.000Z</time>
      </trkpt>
      <trkpt lat="42.239716" lon="3.025145">
        <ele>11</ele>
        <time>1970-01-01T02:46:11.000Z</time>
      </trkpt>
      <trkpt lat="42.239698" lon="3.025072">
        <ele>11</ele>
        <time>1970-01-01T02:46:13.000Z</time>
      </trkpt>
      <trkpt lat="42.23968" lon="3.025">
        <ele>11</ele>
        <time>1970-01-01T02:46:14.000Z</time>
      </trkpt>
      <trkpt lat="42.239661" lon="3.024927">
        <ele>11</ele>
        <time>1970-01-01T02:46:15.000Z</time>
      </trkpt>
      <trkpt lat="42.239643" lon="3.024855">
        <ele>11</ele>
        <time>1970-01-01T02:46:16.000Z</time>
      </trkpt>
      <trkpt lat="42.239625" lon="3.024782">
        <ele>11</ele>
        <time>1970-01-01T02:46:18.000Z</time>
      </trkpt>
      <trkpt lat="42.239593" lon="3.024656">
        <ele>11</ele>
        <time>1970-01-01T02:46:19.000Z</time>
      </trkpt>
      <trkpt lat="42.239578" lon="3.024597">
        <ele>11</ele>
        <time>1970-01-01T02:46:20.000Z</time>
      </trkpt>
      <trkpt lat="42.239563" lon="3.024537">
        <ele>11</ele>
        <time>1970-01-01T02:46:21.000Z</time>
      </trkpt>
      <trkpt lat="42.239548" lon="3.024477">
        <ele>11</ele>
        <time>1970-01-01T02:46:22.000Z</time>
      </trkpt>
      <trkpt lat="42.239534" lon="3.024418">
        <ele>11</ele>
        <time>1970-01-01T02:46:23.000Z</time>
      </trkpt>
      <trkpt lat="42.239519" lon="3.024358">
        <ele>11</ele>
        <time>1970-01-01T02:46:24.000Z</time>
      </trkpt>
      <trkpt lat="42.239504" lon="3.024298">
        <ele>11</ele>
        <time>1970-01-01T02:46:25.000Z</time>
      </trkpt>
      <trkpt lat="42.239489" lon="3.024239">
        <ele>11</ele>
        <time>1970-01-01T02:46:26.000Z</time>
      </trkpt>
      <trkpt lat="42.239474" lon="3.024179">
        <ele>11</ele>
        <time>1970-01-01T02:46:27.000Z</time>
      </trkpt>
      <trkpt lat="42.23944" lon="3.024038">
        <ele>11</ele>
        <time>1970-01-01T02:46:28.000Z</time>
      </trkpt>
      <trkpt lat="42.239423" lon="3.023967">
        <ele>11</ele>
        <time>1970-01-01T02:46:29.000Z</time>
      </trkpt>
      <trkpt lat="42.239405" lon="3.023895">
        <ele>11</ele>
        <time>1970-01-01T02:46:30.000Z</time>
      </trkpt>
      <trkpt lat="42.239388" lon="3.023823">
        <ele>11</ele>
        <time>1970-01-01T02:46:31.000Z</time>
      </trkpt>
      <trkpt lat="42.23937" lon="3.023752">
        <ele>11</ele>
        <time>1970-01-01T02:46:32.000Z</time>
      </trkpt>
      <trkpt lat="42.239353" lon="3.02368">
        <ele>11</ele>
        <time>1970-01-01T02:46:33.000Z</time>
      </trkpt>
      <trkpt lat="42.239335" lon="3.023608">
        <ele>11</ele>
        <time>1970-01-01T02:46:34.000Z</time>
      </trkpt>
      <trkpt lat="42.239318" lon="3.023537">
        <ele>11</ele>
        <time>1970-01-01T02:46:36.000Z</time>
      </trkpt>
      <trkpt lat="42.2393" lon="3.023465">
        <ele>11</ele>
        <time>1970-01-01T02:46:37.000Z</time>
      </trkpt>
      <trkpt lat="42.239263" lon="3.023319">
        <ele>11</ele>
        <time>1970-01-01T02:46:38.000Z</time>
      </trkpt>
      <trkpt lat="42.239243" lon="3.023244">
        <ele>11</ele>
        <time>1970-01-01T02:46:39.000Z</time>
      </trkpt>
      <trkpt lat="42.239224" lon="3.023168">
        <ele>11</ele>
        <time>1970-01-01T02:46:40.000Z</time>
      </trkpt>
      <trkpt lat="42.239204" lon="3.023093">
        <ele>11</ele>
        <time>1970-01-01T02:46:41.000Z</time>
      </trkpt>
      <trkpt lat="42.239184" lon="3.023018">
        <ele>11</ele>
        <time>1970-01-01T02:46:42.000Z</time>
      </trkpt>
      <trkpt lat="42.239164" lon="3.022943">
        <ele>11</ele>
        <time>1970-01-01T02:46:43.000Z</time>
      </trkpt>
      <trkpt lat="42.239145" lon="3.022867">
        <ele>11</ele>
        <time>1970-01-01T02:46:45.000Z</time>
      </trkpt>
      <trkpt lat="42.239125" lon="3.022792">
        <ele>11</ele>
        <time>1970-01-01T02:46:46.000Z</time>
      </trkpt>
      <trkpt lat="42.239105" lon="3.022717">
        <ele>11</ele>
        <time>1970-01-01T02:46:47.000Z</time>
      </trkpt>
      <trkpt lat="42.239044" lon="3.022563">
        <ele>11</ele>
        <time>1970-01-01T02:46:48.000Z</time>
      </trkpt>
      <trkpt lat="42.239009" lon="3.022485">
        <ele>11</ele>
        <time>1970-01-01T02:46:49.000Z</time>
      </trkpt>
      <trkpt lat="42.238973" lon="3.022408">
        <ele>11</ele>
        <time>1970-01-01T02:46:51.000Z</time>
      </trkpt>
      <trkpt lat="42.238938" lon="3.02233">
        <ele>11</ele>
        <time>1970-01-01T02:46:53.000Z</time>
      </trkpt>
      <trkpt lat="42.238903" lon="3.022252">
        <ele>11</ele>
        <time>1970-01-01T02:46:54.000Z</time>
      </trkpt>
      <trkpt lat="42.238868" lon="3.022174">
        <ele>11</ele>
        <time>1970-01-01T02:46:55.000Z</time>
      </trkpt>
      <trkpt lat="42.238832" lon="3.022097">
        <ele>11</ele>
        <time>1970-01-01T02:46:56.000Z</time>
      </trkpt>
      <trkpt lat="42.238797" lon="3.022019">
        <ele>11</ele>
        <time>1970-01-01T02:46:57.000Z</time>
      </trkpt>
      <trkpt lat="42.238724" lon="3.021892">
        <ele>11</ele>
        <time>1970-01-01T02:46:58.000Z</time>
      </trkpt>
      <trkpt lat="42.238685" lon="3.021831">
        <ele>11</ele>
        <time>1970-01-01T02:46:59.000Z</time>
      </trkpt>
      <trkpt lat="42.238647" lon="3.021769">
        <ele>11</ele>
        <time>1970-01-01T02:47:00.000Z</time>
      </trkpt>
      <trkpt lat="42.238608" lon="3.021708">
        <ele>11</ele>
        <time>1970-01-01T02:47:02.000Z</time>
      </trkpt>
      <trkpt lat="42.238569" lon="3.021647">
        <ele>11</ele>
        <time>1970-01-01T02:47:03.000Z</time>
      </trkpt>
      <trkpt lat="42.23853" lon="3.021586">
        <ele>11</ele>
        <time>1970-01-01T02:47:04.000Z</time>
      </trkpt>
      <trkpt lat="42.238492" lon="3.021524">
        <ele>11</ele>
        <time>1970-01-01T02:47:05.000Z</time>
      </trkpt>
      <trkpt lat="42.238453" lon="3.021463">
        <ele>11</ele>
        <time>1970-01-01T02:47:06.000Z</time>
      </trkpt>
      <trkpt lat="42.238414" lon="3.021402">
        <ele>11</ele>
        <time>1970-01-01T02:47:07.000Z</time>
      </trkpt>
      <trkpt lat="42.238327" lon="3.021292">
        <ele>11</ele>
        <time>1970-01-01T02:47:08.000Z</time>
      </trkpt>
      <trkpt lat="42.238284" lon="3.021239">
        <ele>11</ele>
        <time>1970-01-01T02:47:10.000Z</time>
      </trkpt>
      <trkpt lat="42.23824" lon="3.021186">
        <ele>11</ele>
        <time>1970-01-01T02:47:11.000Z</time>
      </trkpt>
      <trkpt lat="42.238197" lon="3.021133">
        <ele>11</ele>
        <time>1970-01-01T02:47:12.000Z</time>
      </trkpt>
      <trkpt lat="42.238153" lon="3.021081">
        <ele>11</ele>
        <time>1970-01-01T02:47:13.000Z</time>
      </trkpt>
      <trkpt lat="42.23811" lon="3.021028">
        <ele>11</ele>
        <time>1970-01-01T02:47:14.000Z</time>
      </trkpt>
      <trkpt lat="42.238066" lon="3.020975">
        <ele>11</ele>
        <time>1970-01-01T02:47:15.000Z</time>
      </trkpt>
      <trkpt lat="42.238023" lon="3.020922">
        <ele>11</ele>
        <time>1970-01-01T02:47:16.000Z</time>
      </trkpt>
      <trkpt lat="42.237979" lon="3.020869">
        <ele>11</ele>
        <time>1970-01-01T02:47:17.000Z</time>
      </trkpt>
      <trkpt lat="42.237891" lon="3.020761">
        <ele>11</ele>
        <time>1970-01-01T02:47:18.000Z</time>
      </trkpt>
      <trkpt lat="42.237848" lon="3.020703">
        <ele>11</ele>
        <time>1970-01-01T02:47:19.000Z</time>
      </trkpt>
      <trkpt lat="42.237804" lon="3.020645">
        <ele>11</ele>
        <time>1970-01-01T02:47:20.000Z</time>
      </trkpt>
      <trkpt lat="42.237761" lon="3.020587">
        <ele>11</ele>
        <time>1970-01-01T02:47:21.000Z</time>
      </trkpt>
      <trkpt lat="42.237718" lon="3.02053">
        <ele>11</ele>
        <time>1970-01-01T02:47:22.000Z</time>
      </trkpt>
      <trkpt lat="42.237675" lon="3.020472">
        <ele>11</ele>
        <time>1970-01-01T02:47:23.000Z</time>
      </trkpt>
      <trkpt lat="42.237631" lon="3.020414">
        <ele>11</ele>
        <time>1970-01-01T02:47:24.000Z</time>
      </trkpt>
      <trkpt lat="42.237588" lon="3.020356">
        <ele>11</ele>
        <time>1970-01-01T02:47:25.000Z</time>
      </trkpt>
      <trkpt lat="42.237545" lon="3.020298">
        <ele>11</ele>
        <time>1970-01-01T02:47:27.000Z</time>
      </trkpt>
      <trkpt lat="42.237418" lon="3.020116">
        <ele>11</ele>
        <time>1970-01-01T02:47:29.000Z</time>
      </trkpt>
      <trkpt lat="42.237379" lon="3.020058">
        <ele>11</ele>
        <time>1970-01-01T02:47:30.000Z</time>
      </trkpt>
      <trkpt lat="42.237339" lon="3.019999">
        <ele>11</ele>
        <time>1970-01-01T02:47:31.000Z</time>
      </trkpt>
      <trkpt lat="42.2373" lon="3.01994">
        <ele>11</ele>
        <time>1970-01-01T02:47:32.000Z</time>
      </trkpt>
      <trkpt lat="42.23726" lon="3.019882">
        <ele>11</ele>
        <time>1970-01-01T02:47:33.000Z</time>
      </trkpt>
      <trkpt lat="42.237221" lon="3.019823">
        <ele>11</ele>
        <time>1970-01-01T02:47:34.000Z</time>
      </trkpt>
      <trkpt lat="42.237181" lon="3.019764">
        <ele>11</ele>
        <time>1970-01-01T02:47:35.000Z</time>
      </trkpt>
      <trkpt lat="42.237142" lon="3.019706">
        <ele>11</ele>
        <time>1970-01-01T02:47:36.000Z</time>
      </trkpt>
      <trkpt lat="42.237102" lon="3.019647">
        <ele>11</ele>
        <time>1970-01-01T02:47:37.000Z</time>
      </trkpt>
      <trkpt lat="42.236996" lon="3.019513">
        <ele>11</ele>
        <time>1970-01-01T02:47:38.000Z</time>
      </trkpt>
      <trkpt lat="42.236937" lon="3.019445">
        <ele>11</ele>
        <time>1970-01-01T02:47:39.000Z</time>
      </trkpt>
      <trkpt lat="42.236878" lon="3.019377">
        <ele>11</ele>
        <time>1970-01-01T02:47:40.000Z</time>
      </trkpt>
      <trkpt lat="42.236819" lon="3.019309">
        <ele>11</ele>
        <time>1970-01-01T02:47:42.000Z</time>
      </trkpt>
      <trkpt lat="42.236759" lon="3.019242">
        <ele>11</ele>
        <time>1970-01-01T02:47:43.000Z</time>
      </trkpt>
      <trkpt lat="42.2367" lon="3.019174">
        <ele>11</ele>
        <time>1970-01-01T02:47:44.000Z</time>
      </trkpt>
      <trkpt lat="42.236641" lon="3.019106">
        <ele>11</ele>
        <time>1970-01-01T02:47:45.000Z</time>
      </trkpt>
      <trkpt lat="42.236582" lon="3.019038">
        <ele>11</ele>
        <time>1970-01-01T02:47:46.000Z</time>
      </trkpt>
      <trkpt lat="42.236523" lon="3.01897">
        <ele>11</ele>
        <time>1970-01-01T02:47:48.000Z</time>
      </trkpt>
      <trkpt lat="42.236418" lon="3.018861">
        <ele>11</ele>
        <time>1970-01-01T02:47:49.000Z</time>
      </trkpt>
      <trkpt lat="42.23637" lon="3.018808">
        <ele>11</ele>
        <time>1970-01-01T02:47:50.000Z</time>
      </trkpt>
      <trkpt lat="42.236321" lon="3.018755">
        <ele>11</ele>
        <time>1970-01-01T02:47:51.000Z</time>
      </trkpt>
      <trkpt lat="42.236272" lon="3.018702">
        <ele>11</ele>
        <time>1970-01-01T02:47:52.000Z</time>
      </trkpt>
      <trkpt lat="42.236224" lon="3.018649">
        <ele>11</ele>
        <time>1970-01-01T02:47:53.000Z</time>
      </trkpt>
      <trkpt lat="42.236175" lon="3.018596">
        <ele>11</ele>
        <time>1970-01-01T02:47:54.000Z</time>
      </trkpt>
      <trkpt lat="42.236126" lon="3.018543">
        <ele>11</ele>
        <time>1970-01-01T02:47:55.000Z</time>
      </trkpt>
      <trkpt lat="42.236078" lon="3.01849">
        <ele>11</ele>
        <time>1970-01-01T02:47:56.000Z</time>
      </trkpt>
      <trkpt lat="42.236029" lon="3.018437">
        <ele>11</ele>
        <time>1970-01-01T02:47:57.000Z</time>
      </trkpt>
      <trkpt lat="42.235932" lon="3.018294">
        <ele>11</ele>
        <time>1970-01-01T02:47:58.000Z</time>
      </trkpt>
      <trkpt lat="42.235884" lon="3.018221">
        <ele>11</ele>
        <time>1970-01-01T02:47:59.000Z</time>
      </trkpt>
      <trkpt lat="42.235837" lon="3.018147">
        <ele>11</ele>
        <time>1970-01-01T02:48:00.000Z</time>
      </trkpt>
      <trkpt lat="42.23579" lon="3.018074">
        <ele>11</ele>
        <time>1970-01-01T02:48:01.000Z</time>
      </trkpt>
      <trkpt lat="42.235742" lon="3.018">
        <ele>11</ele>
        <time>1970-01-01T02:48:03.000Z</time>
      </trkpt>
      <trkpt lat="42.235695" lon="3.017927">
        <ele>11</ele>
        <time>1970-01-01T02:48:04.000Z</time>
      </trkpt>
      <trkpt lat="42.235648" lon="3.017853">
        <ele>11</ele>
        <time>1970-01-01T02:48:05.000Z</time>
      </trkpt>
      <trkpt lat="42.2356" lon="3.01778">
        <ele>11</ele>
        <time>1970-01-01T02:48:06.000Z</time>
      </trkpt>
      <trkpt lat="42.235553" lon="3.017706">
        <ele>10</ele>
        <time>1970-01-01T02:48:07.000Z</time>
      </trkpt>
      <trkpt lat="42.235458" lon="3.017559">
        <ele>10</ele>
        <time>1970-01-01T02:48:08.000Z</time>
      </trkpt>
      <trkpt lat="42.235411" lon="3.017486">
        <ele>10</ele>
        <time>1970-01-01T02:48:10.000Z</time>
      </trkpt>
      <trkpt lat="42.235363" lon="3.017412">
        <ele>10</ele>
        <time>1970-01-01T02:48:11.000Z</time>
      </trkpt>
      <trkpt lat="42.235316" lon="3.017339">
        <ele>10</ele>
        <time>1970-01-01T02:48:12.000Z</time>
      </trkpt>
      <trkpt lat="42.235268" lon="3.017265">
        <ele>10</ele>
        <time>1970-01-01T02:48:13.000Z</time>
      </trkpt>
      <trkpt lat="42.235221" lon="3.017192">
        <ele>10</ele>
        <time>1970-01-01T02:48:14.000Z</time>
      </trkpt>
      <trkpt lat="42.235173" lon="3.017118">
        <ele>10</ele>
        <time>1970-01-01T02:48:15.000Z</time>
      </trkpt>
      <trkpt lat="42.235126" lon="3.017045">
        <ele>10</ele>
        <time>1970-01-01T02:48:16.000Z</time>
      </trkpt>
      <trkpt lat="42.235078" lon="3.016971">
        <ele>9</ele>
        <time>1970-01-01T02:48:17.000Z</time>
      </trkpt>
      <trkpt lat="42.234981" lon="3.016822">
        <ele>9</ele>
        <time>1970-01-01T02:48:18.000Z</time>
      </trkpt>
      <trkpt lat="42.234933" lon="3.016748">
        <ele>9</ele>
        <time>1970-01-01T02:48:19.000Z</time>
      </trkpt>
      <trkpt lat="42.234885" lon="3.016673">
        <ele>9</ele>
        <time>1970-01-01T02:48:20.000Z</time>
      </trkpt>
      <trkpt lat="42.234837" lon="3.016599">
        <ele>9</ele>
        <time>1970-01-01T02:48:21.000Z</time>
      </trkpt>
      <trkpt lat="42.234788" lon="3.016525">
        <ele>9</ele>
        <time>1970-01-01T02:48:22.000Z</time>
      </trkpt>
      <trkpt lat="42.23474" lon="3.016451">
        <ele>9</ele>
        <time>1970-01-01T02:48:23.000Z</time>
      </trkpt>
      <trkpt lat="42.234692" lon="3.016376">
        <ele>9</ele>
        <time>1970-01-01T02:48:24.000Z</time>
      </trkpt>
      <trkpt lat="42.234644" lon="3.016302">
        <ele>9</ele>
        <time>1970-01-01T02:48:26.000Z</time>
      </trkpt>
      <trkpt lat="42.234596" lon="3.016228">
        <ele>10</ele>
        <time>1970-01-01T02:48:27.000Z</time>
      </trkpt>
      <trkpt lat="42.234498" lon="3.01609">
        <ele>10</ele>
        <time>1970-01-01T02:48:28.000Z</time>
      </trkpt>
      <trkpt lat="42.234449" lon="3.016022">
        <ele>10</ele>
        <time>1970-01-01T02:48:29.000Z</time>
      </trkpt>
      <trkpt lat="42.234401" lon="3.015955">
        <ele>10</ele>
        <time>1970-01-01T02:48:31.000Z</time>
      </trkpt>
      <trkpt lat="42.234352" lon="3.015888">
        <ele>10</ele>
        <time>1970-01-01T02:48:32.000Z</time>
      </trkpt>
      <trkpt lat="42.234303" lon="3.01582">
        <ele>10</ele>
        <time>1970-01-01T02:48:33.000Z</time>
      </trkpt>
      <trkpt lat="42.234254" lon="3.015753">
        <ele>10</ele>
        <time>1970-01-01T02:48:34.000Z</time>
      </trkpt>
      <trkpt lat="42.234206" lon="3.015686">
        <ele>10</ele>
        <time>1970-01-01T02:48:35.000Z</time>
      </trkpt>
      <trkpt lat="42.234157" lon="3.015618">
        <ele>10</ele>
        <time>1970-01-01T02:48:36.000Z</time>
      </trkpt>
      <trkpt lat="42.234108" lon="3.015551">
        <ele>10</ele>
        <time>1970-01-01T02:48:37.000Z</time>
      </trkpt>
      <trkpt lat="42.23401" lon="3.015423">
        <ele>10</ele>
        <time>1970-01-01T02:48:38.000Z</time>
      </trkpt>
      <trkpt lat="42.23396" lon="3.015358">
        <ele>10</ele>
        <time>1970-01-01T02:48:39.000Z</time>
      </trkpt>
      <trkpt lat="42.233911" lon="3.015294">
        <ele>10</ele>
        <time>1970-01-01T02:48:40.000Z</time>
      </trkpt>
      <trkpt lat="42.233861" lon="3.015229">
        <ele>10</ele>
        <time>1970-01-01T02:48:41.000Z</time>
      </trkpt>
      <trkpt lat="42.233812" lon="3.015165">
        <ele>10</ele>
        <time>1970-01-01T02:48:42.000Z</time>
      </trkpt>
      <trkpt lat="42.233762" lon="3.0151">
        <ele>10</ele>
        <time>1970-01-01T02:48:43.000Z</time>
      </trkpt>
      <trkpt lat="42.233713" lon="3.015036">
        <ele>10</ele>
        <time>1970-01-01T02:48:45.000Z</time>
      </trkpt>
      <trkpt lat="42.233663" lon="3.014971">
        <ele>10</ele>
        <time>1970-01-01T02:48:46.000Z</time>
      </trkpt>
      <trkpt lat="42.233614" lon="3.014907">
        <ele>11</ele>
        <time>1970-01-01T02:48:47.000Z</time>
      </trkpt>
      <trkpt lat="42.233522" lon="3.014779">
        <ele>11</ele>
        <time>1970-01-01T02:48:48.000Z</time>
      </trkpt>
      <trkpt lat="42.23348" lon="3.014719">
        <ele>11</ele>
        <time>1970-01-01T02:48:49.000Z</time>
      </trkpt>
      <trkpt lat="42.233437" lon="3.014659">
        <ele>11</ele>
        <time>1970-01-01T02:48:50.000Z</time>
      </trkpt>
      <trkpt lat="42.233395" lon="3.014599">
        <ele>11</ele>
        <time>1970-01-01T02:48:51.000Z</time>
      </trkpt>
      <trkpt lat="42.233352" lon="3.014539">
        <ele>11</ele>
        <time>1970-01-01T02:48:52.000Z</time>
      </trkpt>
      <trkpt lat="42.233309" lon="3.01448">
        <ele>11</ele>
        <time>1970-01-01T02:48:53.000Z</time>
      </trkpt>
      <trkpt lat="42.233267" lon="3.01442">
        <ele>11</ele>
        <time>1970-01-01T02:48:54.000Z</time>
      </trkpt>
      <trkpt lat="42.233224" lon="3.01436">
        <ele>11</ele>
        <time>1970-01-01T02:48:55.000Z</time>
      </trkpt>
      <trkpt lat="42.233182" lon="3.0143">
        <ele>11</ele>
        <time>1970-01-01T02:48:56.000Z</time>
      </trkpt>
      <trkpt lat="42.233139" lon="3.01424">
        <ele>11</ele>
        <time>1970-01-01T02:48:57.000Z</time>
      </trkpt>
      <trkpt lat="42.233045" lon="3.014096">
        <ele>11</ele>
        <time>1970-01-01T02:48:58.000Z</time>
      </trkpt>
      <trkpt lat="42.232997" lon="3.014019">
        <ele>11</ele>
        <time>1970-01-01T02:48:59.000Z</time>
      </trkpt>
      <trkpt lat="42.232949" lon="3.013942">
        <ele>11</ele>
        <time>1970-01-01T02:49:00.000Z</time>
      </trkpt>
      <trkpt lat="42.232901" lon="3.013864">
        <ele>11</ele>
        <time>1970-01-01T02:49:01.000Z</time>
      </trkpt>
      <trkpt lat="42.232852" lon="3.013787">
        <ele>11</ele>
        <time>1970-01-01T02:49:02.000Z</time>
      </trkpt>
      <trkpt lat="42.232804" lon="3.01371">
        <ele>11</ele>
        <time>1970-01-01T02:49:04.000Z</time>
      </trkpt>
      <trkpt lat="42.232756" lon="3.013633">
        <ele>11</ele>
        <time>1970-01-01T02:49:05.000Z</time>
      </trkpt>
      <trkpt lat="42.232708" lon="3.013556">
        <ele>11</ele>
        <time>1970-01-01T02:49:07.000Z</time>
      </trkpt>
      <trkpt lat="42.232639" lon="3.013415">
        <ele>11</ele>
        <time>1970-01-01T02:49:08.000Z</time>
      </trkpt>
      <trkpt lat="42.232609" lon="3.013345">
        <ele>11</ele>
        <time>1970-01-01T02:49:09.000Z</time>
      </trkpt>
      <trkpt lat="42.232578" lon="3.013276">
        <ele>11</ele>
        <time>1970-01-01T02:49:10.000Z</time>
      </trkpt>
      <trkpt lat="42.232548" lon="3.013206">
        <ele>11</ele>
        <time>1970-01-01T02:49:11.000Z</time>
      </trkpt>
      <trkpt lat="42.232518" lon="3.013136">
        <ele>11</ele>
        <time>1970-01-01T02:49:12.000Z</time>
      </trkpt>
      <trkpt lat="42.232488" lon="3.013066">
        <ele>11</ele>
        <time>1970-01-01T02:49:13.000Z</time>
      </trkpt>
      <trkpt lat="42.232457" lon="3.012997">
        <ele>11</ele>
        <time>1970-01-01T02:49:15.000Z</time>
      </trkpt>
      <trkpt lat="42.232427" lon="3.012927">
        <ele>11</ele>
        <time>1970-01-01T02:49:16.000Z</time>
      </trkpt>
      <trkpt lat="42.232397" lon="3.012857">
        <ele>11</ele>
        <time>1970-01-01T02:49:17.000Z</time>
      </trkpt>
      <trkpt lat="42.232343" lon="3.01272">
        <ele>11</ele>
        <time>1970-01-01T02:49:18.000Z</time>
      </trkpt>
      <trkpt lat="42.232316" lon="3.012651">
        <ele>11</ele>
        <time>1970-01-01T02:49:19.000Z</time>
      </trkpt>
      <trkpt lat="42.232288" lon="3.012582">
        <ele>11</ele>
        <time>1970-01-01T02:49:20.000Z</time>
      </trkpt>
      <trkpt lat="42.232261" lon="3.012513">
        <ele>11</ele>
        <time>1970-01-01T02:49:21.000Z</time>
      </trkpt>
      <trkpt lat="42.232233" lon="3.012445">
        <ele>11</ele>
        <time>1970-01-01T02:49:22.000Z</time>
      </trkpt>
      <trkpt lat="42.232206" lon="3.012376">
        <ele>11</ele>
        <time>1970-01-01T02:49:24.000Z</time>
      </trkpt>
      <trkpt lat="42.232178" lon="3.012307">
        <ele>11</ele>
        <time>1970-01-01T02:49:25.000Z</time>
      </trkpt>
      <trkpt lat="42.232151" lon="3.012238">
        <ele>11</ele>
        <time>1970-01-01T02:49:26.000Z</time>
      </trkpt>
      <trkpt lat="42.232123" lon="3.012169">
        <ele>12</ele>
        <time>1970-01-01T02:49:27.000Z</time>
      </trkpt>
      <trkpt lat="42.23207" lon="3.012046">
        <ele>12</ele>
        <time>1970-01-01T02:49:28.000Z</time>
      </trkpt>
      <trkpt lat="42.232045" lon="3.01199">
        <ele>12</ele>
        <time>1970-01-01T02:49:29.000Z</time>
      </trkpt>
      <trkpt lat="42.232021" lon="3.011933">
        <ele>12</ele>
        <time>1970-01-01T02:49:30.000Z</time>
      </trkpt>
      <trkpt lat="42.231996" lon="3.011876">
        <ele>12</ele>
        <time>1970-01-01T02:49:31.000Z</time>
      </trkpt>
      <trkpt lat="42.231971" lon="3.011819">
        <ele>12</ele>
        <time>1970-01-01T02:49:32.000Z</time>
      </trkpt>
      <trkpt lat="42.231946" lon="3.011763">
        <ele>12</ele>
        <time>1970-01-01T02:49:33.000Z</time>
      </trkpt>
      <trkpt lat="42.231921" lon="3.011706">
        <ele>12</ele>
        <time>1970-01-01T02:49:34.000Z</time>
      </trkpt>
      <trkpt lat="42.231897" lon="3.011649">
        <ele>12</ele>
        <time>1970-01-01T02:49:35.000Z</time>
      </trkpt>
      <trkpt lat="42.231872" lon="3.011593">
        <ele>12</ele>
        <time>1970-01-01T02:49:36.000Z</time>
      </trkpt>
      <trkpt lat="42.231847" lon="3.011536">
        <ele>13</ele>
        <time>1970-01-01T02:49:37.000Z</time>
      </trkpt>
      <trkpt lat="42.231793" lon="3.011419">
        <ele>13</ele>
        <time>1970-01-01T02:49:38.000Z</time>
      </trkpt>
      <trkpt lat="42.231766" lon="3.011362">
        <ele>13</ele>
        <time>1970-01-01T02:49:39.000Z</time>
      </trkpt>
      <trkpt lat="42.231739" lon="3.011305">
        <ele>13</ele>
        <time>1970-01-01T02:49:40.000Z</time>
      </trkpt>
      <trkpt lat="42.231712" lon="3.011248">
        <ele>13</ele>
        <time>1970-01-01T02:49:42.000Z</time>
      </trkpt>
      <trkpt lat="42.231686" lon="3.011191">
        <ele>13</ele>
        <time>1970-01-01T02:49:43.000Z</time>
      </trkpt>
      <trkpt lat="42.231659" lon="3.011134">
        <ele>13</ele>
        <time>1970-01-01T02:49:44.000Z</time>
      </trkpt>
      <trkpt lat="42.231632" lon="3.011077">
        <ele>13</ele>
        <time>1970-01-01T02:49:45.000Z</time>
      </trkpt>
      <trkpt lat="42.231605" lon="3.01102">
        <ele>13</ele>
        <time>1970-01-01T02:49:46.000Z</time>
      </trkpt>
      <trkpt lat="42.231578" lon="3.010963">
        <ele>14</ele>
        <time>1970-01-01T02:49:47.000Z</time>
      </trkpt>
      <trkpt lat="42.231529" lon="3.010863">
        <ele>14</ele>
        <time>1970-01-01T02:49:48.000Z</time>
      </trkpt>
      <trkpt lat="42.231506" lon="3.010815">
        <ele>14</ele>
        <time>1970-01-01T02:49:49.000Z</time>
      </trkpt>
      <trkpt lat="42.231483" lon="3.010767">
        <ele>14</ele>
        <time>1970-01-01T02:49:50.000Z</time>
      </trkpt>
      <trkpt lat="42.23146" lon="3.010719">
        <ele>14</ele>
        <time>1970-01-01T02:49:52.000Z</time>
      </trkpt>
      <trkpt lat="42.231436" lon="3.010672">
        <ele>14</ele>
        <time>1970-01-01T02:49:53.000Z</time>
      </trkpt>
      <trkpt lat="42.231413" lon="3.010624">
        <ele>14</ele>
        <time>1970-01-01T02:49:54.000Z</time>
      </trkpt>
      <trkpt lat="42.23139" lon="3.010576">
        <ele>14</ele>
        <time>1970-01-01T02:49:55.000Z</time>
      </trkpt>
      <trkpt lat="42.231367" lon="3.010528">
        <ele>14</ele>
        <time>1970-01-01T02:49:56.000Z</time>
      </trkpt>
      <trkpt lat="42.231344" lon="3.01048">
        <ele>15</ele>
        <time>1970-01-01T02:49:57.000Z</time>
      </trkpt>
      <trkpt lat="42.231298" lon="3.01039">
        <ele>15</ele>
        <time>1970-01-01T02:49:58.000Z</time>
      </trkpt>
      <trkpt lat="42.231274" lon="3.010347">
        <ele>15</ele>
        <time>1970-01-01T02:49:59.000Z</time>
      </trkpt>
      <trkpt lat="42.231251" lon="3.010303">
        <ele>15</ele>
        <time>1970-01-01T02:50:00.000Z</time>
      </trkpt>
      <trkpt lat="42.231227" lon="3.010259">
        <ele>15</ele>
        <time>1970-01-01T02:50:01.000Z</time>
      </trkpt>
      <trkpt lat="42.231204" lon="3.010215">
        <ele>15</ele>
        <time>1970-01-01T02:50:02.000Z</time>
      </trkpt>
      <trkpt lat="42.23118" lon="3.010172">
        <ele>15</ele>
        <time>1970-01-01T02:50:03.000Z</time>
      </trkpt>
      <trkpt lat="42.231157" lon="3.010128">
        <ele>15</ele>
        <time>1970-01-01T02:50:04.000Z</time>
      </trkpt>
      <trkpt lat="42.231133" lon="3.010084">
        <ele>15</ele>
        <time>1970-01-01T02:50:05.000Z</time>
      </trkpt>
      <trkpt lat="42.23111" lon="3.010041">
        <ele>15</ele>
        <time>1970-01-01T02:50:06.000Z</time>
      </trkpt>
      <trkpt lat="42.231086" lon="3.009997">
        <ele>17</ele>
        <time>1970-01-01T02:50:07.000Z</time>
      </trkpt>
      <trkpt lat="42.231023" lon="3.009887">
        <ele>17</ele>
        <time>1970-01-01T02:50:08.000Z</time>
      </trkpt>
      <trkpt lat="42.23099" lon="3.009827">
        <ele>17</ele>
        <time>1970-01-01T02:50:09.000Z</time>
      </trkpt>
      <trkpt lat="42.230957" lon="3.009767">
        <ele>17</ele>
        <time>1970-01-01T02:50:10.000Z</time>
      </trkpt>
      <trkpt lat="42.230924" lon="3.009707">
        <ele>17</ele>
        <time>1970-01-01T02:50:11.000Z</time>
      </trkpt>
      <trkpt lat="42.230891" lon="3.009648">
        <ele>17</ele>
        <time>1970-01-01T02:50:12.000Z</time>
      </trkpt>
      <trkpt lat="42.230858" lon="3.009588">
        <ele>17</ele>
        <time>1970-01-01T02:50:13.000Z</time>
      </trkpt>
      <trkpt lat="42.230825" lon="3.009528">
        <ele>17</ele>
        <time>1970-01-01T02:50:15.000Z</time>
      </trkpt>
      <trkpt lat="42.230792" lon="3.009468">
        <ele>17</ele>
        <time>1970-01-01T02:50:16.000Z</time>
      </trkpt>
      <trkpt lat="42.230759" lon="3.009408">
        <ele>17</ele>
        <time>1970-01-01T02:50:17.000Z</time>
      </trkpt>
      <trkpt lat="42.230691" lon="3.009268">
        <ele>17</ele>
        <time>1970-01-01T02:50:18.000Z</time>
      </trkpt>
      <trkpt lat="42.230659" lon="3.009196">
        <ele>17</ele>
        <time>1970-01-01T02:50:20.000Z</time>
      </trkpt>
      <trkpt lat="42.230627" lon="3.009123">
        <ele>17</ele>
        <time>1970-01-01T02:50:21.000Z</time>
      </trkpt>
      <trkpt lat="42.230595" lon="3.009051">
        <ele>17</ele>
        <time>1970-01-01T02:50:22.000Z</time>
      </trkpt>
      <trkpt lat="42.230562" lon="3.008978">
        <ele>17</ele>
        <time>1970-01-01T02:50:23.000Z</time>
      </trkpt>
      <trkpt lat="42.23053" lon="3.008906">
        <ele>17</ele>
        <time>1970-01-01T02:50:24.000Z</time>
      </trkpt>
      <trkpt lat="42.230498" lon="3.008833">
        <ele>17</ele>
        <time>1970-01-01T02:50:25.000Z</time>
      </trkpt>
      <trkpt lat="42.230466" lon="3.008761">
        <ele>17</ele>
        <time>1970-01-01T02:50:26.000Z</time>
      </trkpt>
      <trkpt lat="42.230434" lon="3.008688">
        <ele>17</ele>
        <time>1970-01-01T02:50:27.000Z</time>
      </trkpt>
      <trkpt lat="42.230391" lon="3.008542">
        <ele>17</ele>
        <time>1970-01-01T02:50:28.000Z</time>
      </trkpt>
      <trkpt lat="42.230375" lon="3.008472">
        <ele>17</ele>
        <time>1970-01-01T02:50:29.000Z</time>
      </trkpt>
      <trkpt lat="42.230358" lon="3.008401">
        <ele>17</ele>
        <time>1970-01-01T02:50:30.000Z</time>
      </trkpt>
      <trkpt lat="42.230342" lon="3.008331">
        <ele>17</ele>
        <time>1970-01-01T02:50:31.000Z</time>
      </trkpt>
      <trkpt lat="42.230325" lon="3.00826">
        <ele>17</ele>
        <time>1970-01-01T02:50:32.000Z</time>
      </trkpt>
      <trkpt lat="42.230308" lon="3.008189">
        <ele>17</ele>
        <time>1970-01-01T02:50:33.000Z</time>
      </trkpt>
      <trkpt lat="42.230292" lon="3.008119">
        <ele>17</ele>
        <time>1970-01-01T02:50:34.000Z</time>
      </trkpt>
      <trkpt lat="42.230275" lon="3.008048">
        <ele>17</ele>
        <time>1970-01-01T02:50:35.000Z</time>
      </trkpt>
      <trkpt lat="42.230259" lon="3.007978">
        <ele>17</ele>
        <time>1970-01-01T02:50:36.000Z</time>
      </trkpt>
      <trkpt lat="42.230242" lon="3.007907">
        <ele>16</ele>
        <time>1970-01-01T02:50:37.000Z</time>
      </trkpt>
      <trkpt lat="42.230212" lon="3.007664">
        <ele>16</ele>
        <time>1970-01-01T02:50:39.000Z</time>
      </trkpt>
      <trkpt lat="42.230207" lon="3.007584">
        <ele>16</ele>
        <time>1970-01-01T02:50:40.000Z</time>
      </trkpt>
      <trkpt lat="42.230201" lon="3.007503">
        <ele>16</ele>
        <time>1970-01-01T02:50:41.000Z</time>
      </trkpt>
      <trkpt lat="42.230195" lon="3.007423">
        <ele>16</ele>
        <time>1970-01-01T02:50:42.000Z</time>
      </trkpt>
      <trkpt lat="42.230189" lon="3.007342">
        <ele>16</ele>
        <time>1970-01-01T02:50:43.000Z</time>
      </trkpt>
      <trkpt lat="42.230184" lon="3.007262">
        <ele>16</ele>
        <time>1970-01-01T02:50:44.000Z</time>
      </trkpt>
      <trkpt lat="42.230178" lon="3.007181">
        <ele>16</ele>
        <time>1970-01-01T02:50:45.000Z</time>
      </trkpt>
      <trkpt lat="42.230172" lon="3.007101">
        <ele>17</ele>
        <time>1970-01-01T02:50:47.000Z</time>
      </trkpt>
      <trkpt lat="42.230171" lon="3.006934">
        <ele>17</ele>
        <time>1970-01-01T02:50:48.000Z</time>
      </trkpt>
      <trkpt lat="42.230173" lon="3.006848">
        <ele>17</ele>
        <time>1970-01-01T02:50:49.000Z</time>
      </trkpt>
      <trkpt lat="42.230176" lon="3.006762">
        <ele>17</ele>
        <time>1970-01-01T02:50:50.000Z</time>
      </trkpt>
      <trkpt lat="42.230178" lon="3.006676">
        <ele>17</ele>
        <time>1970-01-01T02:50:51.000Z</time>
      </trkpt>
      <trkpt lat="42.23018" lon="3.00659">
        <ele>17</ele>
        <time>1970-01-01T02:50:52.000Z</time>
      </trkpt>
      <trkpt lat="42.230182" lon="3.006503">
        <ele>17</ele>
        <time>1970-01-01T02:50:53.000Z</time>
      </trkpt>
      <trkpt lat="42.230184" lon="3.006417">
        <ele>17</ele>
        <time>1970-01-01T02:50:54.000Z</time>
      </trkpt>
      <trkpt lat="42.230187" lon="3.006331">
        <ele>17</ele>
        <time>1970-01-01T02:50:55.000Z</time>
      </trkpt>
      <trkpt lat="42.230189" lon="3.006245">
        <ele>17</ele>
        <time>1970-01-01T02:50:56.000Z</time>
      </trkpt>
      <trkpt lat="42.230191" lon="3.006159">
        <ele>17</ele>
        <time>1970-01-01T02:50:58.000Z</time>
      </trkpt>
      <trkpt lat="42.230201" lon="3.005994">
        <ele>17</ele>
        <time>1970-01-01T02:50:59.000Z</time>
      </trkpt>
      <trkpt lat="42.230207" lon="3.005917">
        <ele>17</ele>
        <time>1970-01-01T02:51:00.000Z</time>
      </trkpt>
      <trkpt lat="42.230213" lon="3.00584">
        <ele>17</ele>
        <time>1970-01-01T02:51:01.000Z</time>
      </trkpt>
      <trkpt lat="42.230219" lon="3.005763">
        <ele>17</ele>
        <time>1970-01-01T02:51:02.000Z</time>
      </trkpt>
      <trkpt lat="42.230226" lon="3.005686">
        <ele>17</ele>
        <time>1970-01-01T02:51:03.000Z</time>
      </trkpt>
      <trkpt lat="42.230232" lon="3.005609">
        <ele>17</ele>
        <time>1970-01-01T02:51:04.000Z</time>
      </trkpt>
      <trkpt lat="42.230238" lon="3.005532">
        <ele>17</ele>
        <time>1970-01-01T02:51:05.000Z</time>
      </trkpt>
      <trkpt lat="42.230244" lon="3.005455">
        <ele>17</ele>
        <time>1970-01-01T02:51:06.000Z</time>
      </trkpt>
      <trkpt lat="42.23025" lon="3.005378">
        <ele>16</ele>
        <time>1970-01-01T02:51:07.000Z</time>
      </trkpt>
      <trkpt lat="42.230266" lon="3.005197">
        <ele>16</ele>
        <time>1970-01-01T02:51:08.000Z</time>
      </trkpt>
      <trkpt lat="42.230274" lon="3.005103">
        <ele>16</ele>
        <time>1970-01-01T02:51:09.000Z</time>
      </trkpt>
      <trkpt lat="42.230283" lon="3.005008">
        <ele>16</ele>
        <time>1970-01-01T02:51:11.000Z</time>
      </trkpt>
      <trkpt lat="42.230291" lon="3.004914">
        <ele>16</ele>
        <time>1970-01-01T02:51:12.000Z</time>
      </trkpt>
      <trkpt lat="42.2303" lon="3.004819">
        <ele>16</ele>
        <time>1970-01-01T02:51:13.000Z</time>
      </trkpt>
      <trkpt lat="42.230308" lon="3.004724">
        <ele>16</ele>
        <time>1970-01-01T02:51:14.000Z</time>
      </trkpt>
      <trkpt lat="42.230317" lon="3.00463">
        <ele>16</ele>
        <time>1970-01-01T02:51:15.000Z</time>
      </trkpt>
      <trkpt lat="42.230325" lon="3.004535">
        <ele>16</ele>
        <time>1970-01-01T02:51:17.000Z</time>
      </trkpt>
      <trkpt lat="42.23034" lon="3.004375">
        <ele>16</ele>
        <time>1970-01-01T02:51:18.000Z</time>
      </trkpt>
      <trkpt lat="42.230345" lon="3.004298">
        <ele>16</ele>
        <time>1970-01-01T02:51:19.000Z</time>
      </trkpt>
      <trkpt lat="42.230351" lon="3.004221">
        <ele>16</ele>
        <time>1970-01-01T02:51:20.000Z</time>
      </trkpt>
      <trkpt lat="42.230356" lon="3.004144">
        <ele>16</ele>
        <time>1970-01-01T02:51:21.000Z</time>
      </trkpt>
      <trkpt lat="42.230362" lon="3.004067">
        <ele>16</ele>
        <time>1970-01-01T02:51:22.000Z</time>
      </trkpt>
      <trkpt lat="42.230367" lon="3.003989">
        <ele>16</ele>
        <time>1970-01-01T02:51:23.000Z</time>
      </trkpt>
      <trkpt lat="42.230373" lon="3.003912">
        <ele>16</ele>
        <time>1970-01-01T02:51:24.000Z</time>
      </trkpt>
      <trkpt lat="42.230378" lon="3.003835">
        <ele>16</ele>
        <time>1970-01-01T02:51:25.000Z</time>
      </trkpt>
      <trkpt lat="42.230384" lon="3.003758">
        <ele>16</ele>
        <time>1970-01-01T02:51:26.000Z</time>
      </trkpt>
      <trkpt lat="42.230389" lon="3.003681">
        <ele>16</ele>
        <time>1970-01-01T02:51:27.000Z</time>
      </trkpt>
      <trkpt lat="42.230387" lon="3.003508">
        <ele>16</ele>
        <time>1970-01-01T02:51:28.000Z</time>
      </trkpt>
      <trkpt lat="42.230382" lon="3.003422">
        <ele>16</ele>
        <time>1970-01-01T02:51:29.000Z</time>
      </trkpt>
      <trkpt lat="42.230378" lon="3.003337">
        <ele>16</ele>
        <time>1970-01-01T02:51:30.000Z</time>
      </trkpt>
      <trkpt lat="42.230373" lon="3.003251">
        <ele>16</ele>
        <time>1970-01-01T02:51:31.000Z</time>
      </trkpt>
      <trkpt lat="42.230368" lon="3.003166">
        <ele>16</ele>
        <time>1970-01-01T02:51:32.000Z</time>
      </trkpt>
      <trkpt lat="42.230363" lon="3.00308">
        <ele>16</ele>
        <time>1970-01-01T02:51:33.000Z</time>
      </trkpt>
      <trkpt lat="42.230359" lon="3.002995">
        <ele>16</ele>
        <time>1970-01-01T02:51:35.000Z</time>
      </trkpt>
      <trkpt lat="42.230354" lon="3.002909">
        <ele>16</ele>
        <time>1970-01-01T02:51:36.000Z</time>
      </trkpt>
      <trkpt lat="42.230349" lon="3.002824">
        <ele>16</ele>
        <time>1970-01-01T02:51:37.000Z</time>
      </trkpt>
      <trkpt lat="42.230324" lon="3.00266">
        <ele>16</ele>
        <time>1970-01-01T02:51:38.000Z</time>
      </trkpt>
      <trkpt lat="42.230309" lon="3.00258">
        <ele>16</ele>
        <time>1970-01-01T02:51:39.000Z</time>
      </trkpt>
      <trkpt lat="42.230295" lon="3.0025">
        <ele>16</ele>
        <time>1970-01-01T02:51:40.000Z</time>
      </trkpt>
      <trkpt lat="42.23028" lon="3.00242">
        <ele>16</ele>
        <time>1970-01-01T02:51:41.000Z</time>
      </trkpt>
      <trkpt lat="42.230266" lon="3.002339">
        <ele>16</ele>
        <time>1970-01-01T02:51:43.000Z</time>
      </trkpt>
      <trkpt lat="42.230251" lon="3.002259">
        <ele>16</ele>
        <time>1970-01-01T02:51:44.000Z</time>
      </trkpt>
      <trkpt lat="42.230237" lon="3.002179">
        <ele>16</ele>
        <time>1970-01-01T02:51:45.000Z</time>
      </trkpt>
      <trkpt lat="42.230222" lon="3.002099">
        <ele>16</ele>
        <time>1970-01-01T02:51:46.000Z</time>
      </trkpt>
      <trkpt lat="42.230208" lon="3.002019">
        <ele>18</ele>
        <time>1970-01-01T02:51:47.000Z</time>
      </trkpt>
      <trkpt lat="42.230172" lon="3.001858">
        <ele>18</ele>
        <time>1970-01-01T02:51:48.000Z</time>
      </trkpt>
      <trkpt lat="42.230152" lon="3.001773">
        <ele>18</ele>
        <time>1970-01-01T02:51:49.000Z</time>
      </trkpt>
      <trkpt lat="42.230133" lon="3.001689">
        <ele>18</ele>
        <time>1970-01-01T02:51:51.000Z</time>
      </trkpt>
      <trkpt lat="42.230114" lon="3.001605">
        <ele>18</ele>
        <time>1970-01-01T02:51:52.000Z</time>
      </trkpt>
      <trkpt lat="42.230094" lon="3.001521">
        <ele>18</ele>
        <time>1970-01-01T02:51:53.000Z</time>
      </trkpt>
      <trkpt lat="42.230075" lon="3.001436">
        <ele>18</ele>
        <time>1970-01-01T02:51:55.000Z</time>
      </trkpt>
      <trkpt lat="42.230055" lon="3.001352">
        <ele>18</ele>
        <time>1970-01-01T02:51:56.000Z</time>
      </trkpt>
      <trkpt lat="42.230036" lon="3.001268">
        <ele>18</ele>
        <time>1970-01-01T02:51:57.000Z</time>
      </trkpt>
      <trkpt lat="42.229974" lon="3.001051">
        <ele>18</ele>
        <time>1970-01-01T02:51:59.000Z</time>
      </trkpt>
      <trkpt lat="42.229954" lon="3.000983">
        <ele>18</ele>
        <time>1970-01-01T02:52:00.000Z</time>
      </trkpt>
      <trkpt lat="42.229934" lon="3.000915">
        <ele>18</ele>
        <time>1970-01-01T02:52:01.000Z</time>
      </trkpt>
      <trkpt lat="42.229914" lon="3.000847">
        <ele>18</ele>
        <time>1970-01-01T02:52:02.000Z</time>
      </trkpt>
      <trkpt lat="42.229893" lon="3.000779">
        <ele>18</ele>
        <time>1970-01-01T02:52:03.000Z</time>
      </trkpt>
      <trkpt lat="42.229873" lon="3.000711">
        <ele>18</ele>
        <time>1970-01-01T02:52:04.000Z</time>
      </trkpt>
      <trkpt lat="42.229853" lon="3.000643">
        <ele>18</ele>
        <time>1970-01-01T02:52:05.000Z</time>
      </trkpt>
      <trkpt lat="42.229833" lon="3.000575">
        <ele>18</ele>
        <time>1970-01-01T02:52:06.000Z</time>
      </trkpt>
      <trkpt lat="42.229813" lon="3.000507">
        <ele>18</ele>
        <time>1970-01-01T02:52:07.000Z</time>
      </trkpt>
      <trkpt lat="42.229764" lon="3.000357">
        <ele>18</ele>
        <time>1970-01-01T02:52:08.000Z</time>
      </trkpt>
      <trkpt lat="42.229738" lon="3.000282">
        <ele>18</ele>
        <time>1970-01-01T02:52:09.000Z</time>
      </trkpt>
      <trkpt lat="42.229713" lon="3.000207">
        <ele>18</ele>
        <time>1970-01-01T02:52:10.000Z</time>
      </trkpt>
      <trkpt lat="42.229687" lon="3.000132">
        <ele>18</ele>
        <time>1970-01-01T02:52:11.000Z</time>
      </trkpt>
      <trkpt lat="42.229661" lon="3.000058">
        <ele>18</ele>
        <time>1970-01-01T02:52:12.000Z</time>
      </trkpt>
      <trkpt lat="42.229635" lon="2.999983">
        <ele>18</ele>
        <time>1970-01-01T02:52:13.000Z</time>
      </trkpt>
      <trkpt lat="42.22961" lon="2.999908">
        <ele>18</ele>
        <time>1970-01-01T02:52:14.000Z</time>
      </trkpt>
      <trkpt lat="42.229584" lon="2.999833">
        <ele>18</ele>
        <time>1970-01-01T02:52:16.000Z</time>
      </trkpt>
      <trkpt lat="42.229558" lon="2.999758">
        <ele>19</ele>
        <time>1970-01-01T02:52:17.000Z</time>
      </trkpt>
      <trkpt lat="42.229516" lon="2.999608">
        <ele>19</ele>
        <time>1970-01-01T02:52:18.000Z</time>
      </trkpt>
      <trkpt lat="42.229501" lon="2.999532">
        <ele>19</ele>
        <time>1970-01-01T02:52:19.000Z</time>
      </trkpt>
      <trkpt lat="42.229485" lon="2.999457">
        <ele>19</ele>
        <time>1970-01-01T02:52:20.000Z</time>
      </trkpt>
      <trkpt lat="42.229469" lon="2.999381">
        <ele>19</ele>
        <time>1970-01-01T02:52:21.000Z</time>
      </trkpt>
      <trkpt lat="42.229454" lon="2.999305">
        <ele>19</ele>
        <time>1970-01-01T02:52:22.000Z</time>
      </trkpt>
      <trkpt lat="42.229438" lon="2.999229">
        <ele>19</ele>
        <time>1970-01-01T02:52:24.000Z</time>
      </trkpt>
      <trkpt lat="42.229422" lon="2.999154">
        <ele>19</ele>
        <time>1970-01-01T02:52:25.000Z</time>
      </trkpt>
      <trkpt lat="42.229407" lon="2.999078">
        <ele>19</ele>
        <time>1970-01-01T02:52:26.000Z</time>
      </trkpt>
      <trkpt lat="42.229391" lon="2.999002">
        <ele>19</ele>
        <time>1970-01-01T02:52:27.000Z</time>
      </trkpt>
      <trkpt lat="42.229364" lon="2.998873">
        <ele>19</ele>
        <time>1970-01-01T02:52:28.000Z</time>
      </trkpt>
      <trkpt lat="42.229338" lon="2.998819">
        <ele>19</ele>
        <time>1970-01-01T02:52:29.000Z</time>
      </trkpt>
      <trkpt lat="42.229312" lon="2.998766">
        <ele>19</ele>
        <time>1970-01-01T02:52:30.000Z</time>
      </trkpt>
      <trkpt lat="42.229286" lon="2.998712">
        <ele>19</ele>
        <time>1970-01-01T02:52:31.000Z</time>
      </trkpt>
      <trkpt lat="42.229259" lon="2.998658">
        <ele>19</ele>
        <time>1970-01-01T02:52:33.000Z</time>
      </trkpt>
      <trkpt lat="42.229233" lon="2.998604">
        <ele>19</ele>
        <time>1970-01-01T02:52:34.000Z</time>
      </trkpt>
      <trkpt lat="42.229207" lon="2.998551">
        <ele>19</ele>
        <time>1970-01-01T02:52:35.000Z</time>
      </trkpt>
      <trkpt lat="42.229181" lon="2.998497">
        <ele>19</ele>
        <time>1970-01-01T02:52:36.000Z</time>
      </trkpt>
      <trkpt lat="42.229155" lon="2.998443">
        <ele>20</ele>
        <time>1970-01-01T02:52:37.000Z</time>
      </trkpt>
      <trkpt lat="42.229122" lon="2.998342">
        <ele>20</ele>
        <time>1970-01-01T02:52:38.000Z</time>
      </trkpt>
      <trkpt lat="42.229104" lon="2.998299">
        <ele>20</ele>
        <time>1970-01-01T02:52:39.000Z</time>
      </trkpt>
      <trkpt lat="42.229087" lon="2.998255">
        <ele>20</ele>
        <time>1970-01-01T02:52:40.000Z</time>
      </trkpt>
      <trkpt lat="42.229069" lon="2.998212">
        <ele>20</ele>
        <time>1970-01-01T02:52:41.000Z</time>
      </trkpt>
      <trkpt lat="42.229052" lon="2.998168">
        <ele>20</ele>
        <time>1970-01-01T02:52:42.000Z</time>
      </trkpt>
      <trkpt lat="42.229035" lon="2.998125">
        <ele>20</ele>
        <time>1970-01-01T02:52:43.000Z</time>
      </trkpt>
      <trkpt lat="42.229017" lon="2.998081">
        <ele>20</ele>
        <time>1970-01-01T02:52:44.000Z</time>
      </trkpt>
      <trkpt lat="42.229" lon="2.998038">
        <ele>20</ele>
        <time>1970-01-01T02:52:45.000Z</time>
      </trkpt>
      <trkpt lat="42.228982" lon="2.997994">
        <ele>20</ele>
        <time>1970-01-01T02:52:46.000Z</time>
      </trkpt>
      <trkpt lat="42.228965" lon="2.997951">
        <ele>22</ele>
        <time>1970-01-01T02:52:47.000Z</time>
      </trkpt>
      <trkpt lat="42.228917" lon="2.997865">
        <ele>22</ele>
        <time>1970-01-01T02:52:48.000Z</time>
      </trkpt>
      <trkpt lat="42.228894" lon="2.997824">
        <ele>22</ele>
        <time>1970-01-01T02:52:49.000Z</time>
      </trkpt>
      <trkpt lat="42.22887" lon="2.997782">
        <ele>22</ele>
        <time>1970-01-01T02:52:50.000Z</time>
      </trkpt>
      <trkpt lat="42.228846" lon="2.997741">
        <ele>22</ele>
        <time>1970-01-01T02:52:51.000Z</time>
      </trkpt>
      <trkpt lat="42.228823" lon="2.997699">
        <ele>22</ele>
        <time>1970-01-01T02:52:52.000Z</time>
      </trkpt>
      <trkpt lat="42.228799" lon="2.997658">
        <ele>22</ele>
        <time>1970-01-01T02:52:53.000Z</time>
      </trkpt>
      <trkpt lat="42.228775" lon="2.997616">
        <ele>22</ele>
        <time>1970-01-01T02:52:54.000Z</time>
      </trkpt>
      <trkpt lat="42.228752" lon="2.997575">
        <ele>22</ele>
        <time>1970-01-01T02:52:55.000Z</time>
      </trkpt>
      <trkpt lat="42.228728" lon="2.997533">
        <ele>23</ele>
        <time>1970-01-01T02:52:57.000Z</time>
      </trkpt>
      <trkpt lat="42.228683" lon="2.997455">
        <ele>23</ele>
        <time>1970-01-01T02:52:58.000Z</time>
      </trkpt>
      <trkpt lat="42.228648" lon="2.997429">
        <ele>23</ele>
        <time>1970-01-01T02:52:59.000Z</time>
      </trkpt>
      <trkpt lat="42.228612" lon="2.997402">
        <ele>23</ele>
        <time>1970-01-01T02:53:00.000Z</time>
      </trkpt>
      <trkpt lat="42.228577" lon="2.997375">
        <ele>23</ele>
        <time>1970-01-01T02:53:01.000Z</time>
      </trkpt>
      <trkpt lat="42.228542" lon="2.997348">
        <ele>23</ele>
        <time>1970-01-01T02:53:02.000Z</time>
      </trkpt>
      <trkpt lat="42.228507" lon="2.997322">
        <ele>23</ele>
        <time>1970-01-01T02:53:03.000Z</time>
      </trkpt>
      <trkpt lat="42.228472" lon="2.997295">
        <ele>23</ele>
        <time>1970-01-01T02:53:04.000Z</time>
      </trkpt>
      <trkpt lat="42.228436" lon="2.997268">
        <ele>23</ele>
        <time>1970-01-01T02:53:05.000Z</time>
      </trkpt>
      <trkpt lat="42.228401" lon="2.997242">
        <ele>23</ele>
        <time>1970-01-01T02:53:06.000Z</time>
      </trkpt>
      <trkpt lat="42.228366" lon="2.997215">
        <ele>25</ele>
        <time>1970-01-01T02:53:08.000Z</time>
      </trkpt>
      <trkpt lat="42.228282" lon="2.997168">
        <ele>25</ele>
        <time>1970-01-01T02:53:09.000Z</time>
      </trkpt>
      <trkpt lat="42.228246" lon="2.997129">
        <ele>25</ele>
        <time>1970-01-01T02:53:10.000Z</time>
      </trkpt>
      <trkpt lat="42.228209" lon="2.997091">
        <ele>25</ele>
        <time>1970-01-01T02:53:11.000Z</time>
      </trkpt>
      <trkpt lat="42.228172" lon="2.997052">
        <ele>25</ele>
        <time>1970-01-01T02:53:12.000Z</time>
      </trkpt>
      <trkpt lat="42.228136" lon="2.997014">
        <ele>25</ele>
        <time>1970-01-01T02:53:13.000Z</time>
      </trkpt>
      <trkpt lat="42.228099" lon="2.996975">
        <ele>25</ele>
        <time>1970-01-01T02:53:14.000Z</time>
      </trkpt>
      <trkpt lat="42.228062" lon="2.996937">
        <ele>25</ele>
        <time>1970-01-01T02:53:15.000Z</time>
      </trkpt>
      <trkpt lat="42.228026" lon="2.996898">
        <ele>25</ele>
        <time>1970-01-01T02:53:16.000Z</time>
      </trkpt>
      <trkpt lat="42.227989" lon="2.99686">
        <ele>25</ele>
        <time>1970-01-01T02:53:17.000Z</time>
      </trkpt>
      <trkpt lat="42.227931" lon="2.99674">
        <ele>25</ele>
        <time>1970-01-01T02:53:18.000Z</time>
      </trkpt>
      <trkpt lat="42.227904" lon="2.996681">
        <ele>25</ele>
        <time>1970-01-01T02:53:19.000Z</time>
      </trkpt>
      <trkpt lat="42.227877" lon="2.996622">
        <ele>25</ele>
        <time>1970-01-01T02:53:20.000Z</time>
      </trkpt>
      <trkpt lat="42.22785" lon="2.996563">
        <ele>25</ele>
        <time>1970-01-01T02:53:21.000Z</time>
      </trkpt>
      <trkpt lat="42.227824" lon="2.996504">
        <ele>25</ele>
        <time>1970-01-01T02:53:22.000Z</time>
      </trkpt>
      <trkpt lat="42.227797" lon="2.996446">
        <ele>25</ele>
        <time>1970-01-01T02:53:23.000Z</time>
      </trkpt>
      <trkpt lat="42.22777" lon="2.996387">
        <ele>25</ele>
        <time>1970-01-01T02:53:24.000Z</time>
      </trkpt>
      <trkpt lat="42.227743" lon="2.996328">
        <ele>25</ele>
        <time>1970-01-01T02:53:25.000Z</time>
      </trkpt>
      <trkpt lat="42.227716" lon="2.996269">
        <ele>25</ele>
        <time>1970-01-01T02:53:26.000Z</time>
      </trkpt>
      <trkpt lat="42.227689" lon="2.99621">
        <ele>24</ele>
        <time>1970-01-01T02:53:27.000Z</time>
      </trkpt>
      <trkpt lat="42.227679" lon="2.995987">
        <ele>24</ele>
        <time>1970-01-01T02:53:28.000Z</time>
      </trkpt>
      <trkpt lat="42.227668" lon="2.995867">
        <ele>24</ele>
        <time>1970-01-01T02:53:30.000Z</time>
      </trkpt>
      <trkpt lat="42.227656" lon="2.995746">
        <ele>24</ele>
        <time>1970-01-01T02:53:31.000Z</time>
      </trkpt>
      <trkpt lat="42.227645" lon="2.995625">
        <ele>24</ele>
        <time>1970-01-01T02:53:33.000Z</time>
      </trkpt>
      <trkpt lat="42.227633" lon="2.995505">
        <ele>24</ele>
        <time>1970-01-01T02:53:34.000Z</time>
      </trkpt>
      <trkpt lat="42.227621" lon="2.995384">
        <ele>24</ele>
        <time>1970-01-01T02:53:35.000Z</time>
      </trkpt>
      <trkpt lat="42.22761" lon="2.995264">
        <ele>24</ele>
        <time>1970-01-01T02:53:36.000Z</time>
      </trkpt>
      <trkpt lat="42.227598" lon="2.995143">
        <ele>22</ele>
        <time>1970-01-01T02:53:37.000Z</time>
      </trkpt>
      <trkpt lat="42.22754" lon="2.994964">
        <ele>22</ele>
        <time>1970-01-01T02:53:38.000Z</time>
      </trkpt>
      <trkpt lat="42.227515" lon="2.994878">
        <ele>22</ele>
        <time>1970-01-01T02:53:39.000Z</time>
      </trkpt>
      <trkpt lat="42.22749" lon="2.994793">
        <ele>22</ele>
        <time>1970-01-01T02:53:40.000Z</time>
      </trkpt>
      <trkpt lat="42.227465" lon="2.994707">
        <ele>22</ele>
        <time>1970-01-01T02:53:41.000Z</time>
      </trkpt>
      <trkpt lat="42.22744" lon="2.994622">
        <ele>22</ele>
        <time>1970-01-01T02:53:42.000Z</time>
      </trkpt>
      <trkpt lat="42.227415" lon="2.994536">
        <ele>22</ele>
        <time>1970-01-01T02:53:43.000Z</time>
      </trkpt>
      <trkpt lat="42.22739" lon="2.994451">
        <ele>22</ele>
        <time>1970-01-01T02:53:44.000Z</time>
      </trkpt>
      <trkpt lat="42.227365" lon="2.994365">
        <ele>22</ele>
        <time>1970-01-01T02:53:45.000Z</time>
      </trkpt>
      <trkpt lat="42.22734" lon="2.99428">
        <ele>21</ele>
        <time>1970-01-01T02:53:47.000Z</time>
      </trkpt>
      <trkpt lat="42.227253" lon="2.994059">
        <ele>21</ele>
        <time>1970-01-01T02:53:49.000Z</time>
      </trkpt>
      <trkpt lat="42.227224" lon="2.993986">
        <ele>21</ele>
        <time>1970-01-01T02:53:50.000Z</time>
      </trkpt>
      <trkpt lat="42.227194" lon="2.993912">
        <ele>21</ele>
        <time>1970-01-01T02:53:51.000Z</time>
      </trkpt>
      <trkpt lat="42.227165" lon="2.993839">
        <ele>21</ele>
        <time>1970-01-01T02:53:52.000Z</time>
      </trkpt>
      <trkpt lat="42.227136" lon="2.993765">
        <ele>21</ele>
        <time>1970-01-01T02:53:53.000Z</time>
      </trkpt>
      <trkpt lat="42.227107" lon="2.993692">
        <ele>21</ele>
        <time>1970-01-01T02:53:55.000Z</time>
      </trkpt>
      <trkpt lat="42.227077" lon="2.993618">
        <ele>21</ele>
        <time>1970-01-01T02:53:56.000Z</time>
      </trkpt>
      <trkpt lat="42.227048" lon="2.993545">
        <ele>21</ele>
        <time>1970-01-01T02:53:57.000Z</time>
      </trkpt>
      <trkpt lat="42.226991" lon="2.993402">
        <ele>21</ele>
        <time>1970-01-01T02:53:58.000Z</time>
      </trkpt>
      <trkpt lat="42.226963" lon="2.993332">
        <ele>21</ele>
        <time>1970-01-01T02:53:59.000Z</time>
      </trkpt>
      <trkpt lat="42.226935" lon="2.993263">
        <ele>21</ele>
        <time>1970-01-01T02:54:00.000Z</time>
      </trkpt>
      <trkpt lat="42.226907" lon="2.993193">
        <ele>21</ele>
        <time>1970-01-01T02:54:01.000Z</time>
      </trkpt>
      <trkpt lat="42.22688" lon="2.993124">
        <ele>21</ele>
        <time>1970-01-01T02:54:03.000Z</time>
      </trkpt>
      <trkpt lat="42.226852" lon="2.993054">
        <ele>21</ele>
        <time>1970-01-01T02:54:04.000Z</time>
      </trkpt>
      <trkpt lat="42.226824" lon="2.992985">
        <ele>21</ele>
        <time>1970-01-01T02:54:05.000Z</time>
      </trkpt>
      <trkpt lat="42.226796" lon="2.992915">
        <ele>21</ele>
        <time>1970-01-01T02:54:06.000Z</time>
      </trkpt>
      <trkpt lat="42.226768" lon="2.992846">
        <ele>22</ele>
        <time>1970-01-01T02:54:07.000Z</time>
      </trkpt>
      <trkpt lat="42.226723" lon="2.992732">
        <ele>22</ele>
        <time>1970-01-01T02:54:08.000Z</time>
      </trkpt>
      <trkpt lat="42.226703" lon="2.992683">
        <ele>22</ele>
        <time>1970-01-01T02:54:09.000Z</time>
      </trkpt>
      <trkpt lat="42.226684" lon="2.992633">
        <ele>22</ele>
        <time>1970-01-01T02:54:10.000Z</time>
      </trkpt>
      <trkpt lat="42.226664" lon="2.992583">
        <ele>22</ele>
        <time>1970-01-01T02:54:11.000Z</time>
      </trkpt>
      <trkpt lat="42.226645" lon="2.992533">
        <ele>22</ele>
        <time>1970-01-01T02:54:12.000Z</time>
      </trkpt>
      <trkpt lat="42.226626" lon="2.992484">
        <ele>22</ele>
        <time>1970-01-01T02:54:13.000Z</time>
      </trkpt>
      <trkpt lat="42.226606" lon="2.992434">
        <ele>22</ele>
        <time>1970-01-01T02:54:14.000Z</time>
      </trkpt>
      <trkpt lat="42.226587" lon="2.992384">
        <ele>22</ele>
        <time>1970-01-01T02:54:15.000Z</time>
      </trkpt>
      <trkpt lat="42.226567" lon="2.992335">
        <ele>22</ele>
        <time>1970-01-01T02:54:16.000Z</time>
      </trkpt>
      <trkpt lat="42.226548" lon="2.992285">
        <ele>23</ele>
        <time>1970-01-01T02:54:17.000Z</time>
      </trkpt>
      <trkpt lat="42.226501" lon="2.992178">
        <ele>23</ele>
        <time>1970-01-01T02:54:18.000Z</time>
      </trkpt>
      <trkpt lat="42.226476" lon="2.992124">
        <ele>23</ele>
        <time>1970-01-01T02:54:19.000Z</time>
      </trkpt>
      <trkpt lat="42.226452" lon="2.992071">
        <ele>23</ele>
        <time>1970-01-01T02:54:20.000Z</time>
      </trkpt>
      <trkpt lat="42.226427" lon="2.992017">
        <ele>23</ele>
        <time>1970-01-01T02:54:21.000Z</time>
      </trkpt>
      <trkpt lat="42.226402" lon="2.991963">
        <ele>23</ele>
        <time>1970-01-01T02:54:23.000Z</time>
      </trkpt>
      <trkpt lat="42.226377" lon="2.991909">
        <ele>23</ele>
        <time>1970-01-01T02:54:24.000Z</time>
      </trkpt>
      <trkpt lat="42.226353" lon="2.991856">
        <ele>23</ele>
        <time>1970-01-01T02:54:25.000Z</time>
      </trkpt>
      <trkpt lat="42.226328" lon="2.991802">
        <ele>23</ele>
        <time>1970-01-01T02:54:26.000Z</time>
      </trkpt>
      <trkpt lat="42.226303" lon="2.991748">
        <ele>24</ele>
        <time>1970-01-01T02:54:27.000Z</time>
      </trkpt>
      <trkpt lat="42.226246" lon="2.99164">
        <ele>24</ele>
        <time>1970-01-01T02:54:28.000Z</time>
      </trkpt>
      <trkpt lat="42.226217" lon="2.991586">
        <ele>24</ele>
        <time>1970-01-01T02:54:29.000Z</time>
      </trkpt>
      <trkpt lat="42.226188" lon="2.991533">
        <ele>24</ele>
        <time>1970-01-01T02:54:30.000Z</time>
      </trkpt>
      <trkpt lat="42.226159" lon="2.991479">
        <ele>24</ele>
        <time>1970-01-01T02:54:31.000Z</time>
      </trkpt>
      <trkpt lat="42.226131" lon="2.991426">
        <ele>24</ele>
        <time>1970-01-01T02:54:33.000Z</time>
      </trkpt>
      <trkpt lat="42.226102" lon="2.991372">
        <ele>24</ele>
        <time>1970-01-01T02:54:34.000Z</time>
      </trkpt>
      <trkpt lat="42.226073" lon="2.991319">
        <ele>24</ele>
        <time>1970-01-01T02:54:35.000Z</time>
      </trkpt>
      <trkpt lat="42.226044" lon="2.991265">
        <ele>24</ele>
        <time>1970-01-01T02:54:36.000Z</time>
      </trkpt>
      <trkpt lat="42.226015" lon="2.991212">
        <ele>24</ele>
        <time>1970-01-01T02:54:37.000Z</time>
      </trkpt>
      <trkpt lat="42.225947" lon="2.991091">
        <ele>24</ele>
        <time>1970-01-01T02:54:38.000Z</time>
      </trkpt>
      <trkpt lat="42.225909" lon="2.991023">
        <ele>24</ele>
        <time>1970-01-01T02:54:40.000Z</time>
      </trkpt>
      <trkpt lat="42.225871" lon="2.990955">
        <ele>24</ele>
        <time>1970-01-01T02:54:41.000Z</time>
      </trkpt>
      <trkpt lat="42.225834" lon="2.990886">
        <ele>24</ele>
        <time>1970-01-01T02:54:43.000Z</time>
      </trkpt>
      <trkpt lat="42.225796" lon="2.990818">
        <ele>24</ele>
        <time>1970-01-01T02:54:44.000Z</time>
      </trkpt>
      <trkpt lat="42.225758" lon="2.99075">
        <ele>24</ele>
        <time>1970-01-01T02:54:46.000Z</time>
      </trkpt>
      <trkpt lat="42.22572" lon="2.990682">
        <ele>24</ele>
        <time>1970-01-01T02:54:47.000Z</time>
      </trkpt>
      <trkpt lat="42.225662" lon="2.990576">
        <ele>24</ele>
        <time>1970-01-01T02:54:48.000Z</time>
      </trkpt>
      <trkpt lat="42.225633" lon="2.990523">
        <ele>24</ele>
        <time>1970-01-01T02:54:49.000Z</time>
      </trkpt>
      <trkpt lat="42.225604" lon="2.990469">
        <ele>24</ele>
        <time>1970-01-01T02:54:50.000Z</time>
      </trkpt>
      <trkpt lat="42.225575" lon="2.990416">
        <ele>24</ele>
        <time>1970-01-01T02:54:51.000Z</time>
      </trkpt>
      <trkpt lat="42.225547" lon="2.990362">
        <ele>24</ele>
        <time>1970-01-01T02:54:53.000Z</time>
      </trkpt>
      <trkpt lat="42.225518" lon="2.990309">
        <ele>24</ele>
        <time>1970-01-01T02:54:54.000Z</time>
      </trkpt>
      <trkpt lat="42.225489" lon="2.990255">
        <ele>24</ele>
        <time>1970-01-01T02:54:55.000Z</time>
      </trkpt>
      <trkpt lat="42.22546" lon="2.990202">
        <ele>24</ele>
        <time>1970-01-01T02:54:56.000Z</time>
      </trkpt>
      <trkpt lat="42.225431" lon="2.990148">
        <ele>24</ele>
        <time>1970-01-01T02:54:57.000Z</time>
      </trkpt>
      <trkpt lat="42.225372" lon="2.990041">
        <ele>24</ele>
        <time>1970-01-01T02:54:58.000Z</time>
      </trkpt>
      <trkpt lat="42.225343" lon="2.989987">
        <ele>24</ele>
        <time>1970-01-01T02:54:59.000Z</time>
      </trkpt>
      <trkpt lat="42.225314" lon="2.989934">
        <ele>24</ele>
        <time>1970-01-01T02:55:00.000Z</time>
      </trkpt>
      <trkpt lat="42.225285" lon="2.98988">
        <ele>24</ele>
        <time>1970-01-01T02:55:01.000Z</time>
      </trkpt>
      <trkpt lat="42.225255" lon="2.989826">
        <ele>24</ele>
        <time>1970-01-01T02:55:02.000Z</time>
      </trkpt>
      <trkpt lat="42.225226" lon="2.989772">
        <ele>24</ele>
        <time>1970-01-01T02:55:04.000Z</time>
      </trkpt>
      <trkpt lat="42.225197" lon="2.989719">
        <ele>24</ele>
        <time>1970-01-01T02:55:05.000Z</time>
      </trkpt>
      <trkpt lat="42.225168" lon="2.989665">
        <ele>24</ele>
        <time>1970-01-01T02:55:06.000Z</time>
      </trkpt>
      <trkpt lat="42.225139" lon="2.989611">
        <ele>25</ele>
        <time>1970-01-01T02:55:07.000Z</time>
      </trkpt>
      <trkpt lat="42.225091" lon="2.98952">
        <ele>25</ele>
        <time>1970-01-01T02:55:08.000Z</time>
      </trkpt>
      <trkpt lat="42.225069" lon="2.98948">
        <ele>25</ele>
        <time>1970-01-01T02:55:09.000Z</time>
      </trkpt>
      <trkpt lat="42.225048" lon="2.989441">
        <ele>25</ele>
        <time>1970-01-01T02:55:10.000Z</time>
      </trkpt>
      <trkpt lat="42.225026" lon="2.989402">
        <ele>25</ele>
        <time>1970-01-01T02:55:11.000Z</time>
      </trkpt>
      <trkpt lat="42.225005" lon="2.989362">
        <ele>25</ele>
        <time>1970-01-01T02:55:12.000Z</time>
      </trkpt>
      <trkpt lat="42.224984" lon="2.989323">
        <ele>25</ele>
        <time>1970-01-01T02:55:13.000Z</time>
      </trkpt>
      <trkpt lat="42.224962" lon="2.989284">
        <ele>25</ele>
        <time>1970-01-01T02:55:14.000Z</time>
      </trkpt>
      <trkpt lat="42.224941" lon="2.989245">
        <ele>25</ele>
        <time>1970-01-01T02:55:15.000Z</time>
      </trkpt>
      <trkpt lat="42.224919" lon="2.989205">
        <ele>25</ele>
        <time>1970-01-01T02:55:16.000Z</time>
      </trkpt>
      <trkpt lat="42.224898" lon="2.989166">
        <ele>26</ele>
        <time>1970-01-01T02:55:17.000Z</time>
      </trkpt>
      <trkpt lat="42.224851" lon="2.989086">
        <ele>26</ele>
        <time>1970-01-01T02:55:18.000Z</time>
      </trkpt>
      <trkpt lat="42.224827" lon="2.989044">
        <ele>26</ele>
        <time>1970-01-01T02:55:19.000Z</time>
      </trkpt>
      <trkpt lat="42.224803" lon="2.989001">
        <ele>26</ele>
        <time>1970-01-01T02:55:20.000Z</time>
      </trkpt>
      <trkpt lat="42.224779" lon="2.988959">
        <ele>26</ele>
        <time>1970-01-01T02:55:21.000Z</time>
      </trkpt>
      <trkpt lat="42.224754" lon="2.988917">
        <ele>26</ele>
        <time>1970-01-01T02:55:22.000Z</time>
      </trkpt>
      <trkpt lat="42.22473" lon="2.988875">
        <ele>26</ele>
        <time>1970-01-01T02:55:24.000Z</time>
      </trkpt>
      <trkpt lat="42.224706" lon="2.988832">
        <ele>26</ele>
        <time>1970-01-01T02:55:25.000Z</time>
      </trkpt>
      <trkpt lat="42.224682" lon="2.98879">
        <ele>26</ele>
        <time>1970-01-01T02:55:26.000Z</time>
      </trkpt>
      <trkpt lat="42.224658" lon="2.988748">
        <ele>27</ele>
        <time>1970-01-01T02:55:28.000Z</time>
      </trkpt>
      <trkpt lat="42.224615" lon="2.988677">
        <ele>27</ele>
        <time>1970-01-01T02:55:29.000Z</time>
      </trkpt>
      <trkpt lat="42.224594" lon="2.988644">
        <ele>27</ele>
        <time>1970-01-01T02:55:30.000Z</time>
      </trkpt>
      <trkpt lat="42.224572" lon="2.988612">
        <ele>27</ele>
        <time>1970-01-01T02:55:31.000Z</time>
      </trkpt>
      <trkpt lat="42.22455" lon="2.98858">
        <ele>27</ele>
        <time>1970-01-01T02:55:32.000Z</time>
      </trkpt>
      <trkpt lat="42.224529" lon="2.988547">
        <ele>27</ele>
        <time>1970-01-01T02:55:33.000Z</time>
      </trkpt>
      <trkpt lat="42.224507" lon="2.988515">
        <ele>27</ele>
        <time>1970-01-01T02:55:34.000Z</time>
      </trkpt>
      <trkpt lat="42.224485" lon="2.988483">
        <ele>27</ele>
        <time>1970-01-01T02:55:35.000Z</time>
      </trkpt>
      <trkpt lat="42.224464" lon="2.98845">
        <ele>27</ele>
        <time>1970-01-01T02:55:36.000Z</time>
      </trkpt>
      <trkpt lat="42.224442" lon="2.988418">
        <ele>30</ele>
        <time>1970-01-01T02:55:37.000Z</time>
      </trkpt>
      <trkpt lat="42.224388" lon="2.988349">
        <ele>30</ele>
        <time>1970-01-01T02:55:38.000Z</time>
      </trkpt>
      <trkpt lat="42.224361" lon="2.988315">
        <ele>30</ele>
        <time>1970-01-01T02:55:39.000Z</time>
      </trkpt>
      <trkpt lat="42.224335" lon="2.98828">
        <ele>30</ele>
        <time>1970-01-01T02:55:40.000Z</time>
      </trkpt>
      <trkpt lat="42.224309" lon="2.988246">
        <ele>30</ele>
        <time>1970-01-01T02:55:41.000Z</time>
      </trkpt>
      <trkpt lat="42.224283" lon="2.988211">
        <ele>30</ele>
        <time>1970-01-01T02:55:42.000Z</time>
      </trkpt>
      <trkpt lat="42.224256" lon="2.988177">
        <ele>30</ele>
        <time>1970-01-01T02:55:43.000Z</time>
      </trkpt>
      <trkpt lat="42.22423" lon="2.988142">
        <ele>30</ele>
        <time>1970-01-01T02:55:44.000Z</time>
      </trkpt>
      <trkpt lat="42.224204" lon="2.988108">
        <ele>30</ele>
        <time>1970-01-01T02:55:45.000Z</time>
      </trkpt>
      <trkpt lat="42.224177" lon="2.988073">
        <ele>30</ele>
        <time>1970-01-01T02:55:46.000Z</time>
      </trkpt>
      <trkpt lat="42.224151" lon="2.988039">
        <ele>31</ele>
        <time>1970-01-01T02:55:47.000Z</time>
      </trkpt>
      <trkpt lat="42.224085" lon="2.987954">
        <ele>31</ele>
        <time>1970-01-01T02:55:48.000Z</time>
      </trkpt>
      <trkpt lat="42.22405" lon="2.98791">
        <ele>31</ele>
        <time>1970-01-01T02:55:49.000Z</time>
      </trkpt>
      <trkpt lat="42.224016" lon="2.987866">
        <ele>31</ele>
        <time>1970-01-01T02:55:50.000Z</time>
      </trkpt>
      <trkpt lat="42.223982" lon="2.987822">
        <ele>31</ele>
        <time>1970-01-01T02:55:51.000Z</time>
      </trkpt>
      <trkpt lat="42.223947" lon="2.987778">
        <ele>31</ele>
        <time>1970-01-01T02:55:53.000Z</time>
      </trkpt>
      <trkpt lat="42.223913" lon="2.987734">
        <ele>31</ele>
        <time>1970-01-01T02:55:54.000Z</time>
      </trkpt>
      <trkpt lat="42.223879" lon="2.98769">
        <ele>31</ele>
        <time>1970-01-01T02:55:55.000Z</time>
      </trkpt>
      <trkpt lat="42.223844" lon="2.987646">
        <ele>31</ele>
        <time>1970-01-01T02:55:56.000Z</time>
      </trkpt>
      <trkpt lat="42.22381" lon="2.987602">
        <ele>31</ele>
        <time>1970-01-01T02:55:57.000Z</time>
      </trkpt>
      <trkpt lat="42.223739" lon="2.987508">
        <ele>31</ele>
        <time>1970-01-01T02:55:58.000Z</time>
      </trkpt>
      <trkpt lat="42.223704" lon="2.98746">
        <ele>31</ele>
        <time>1970-01-01T02:55:59.000Z</time>
      </trkpt>
      <trkpt lat="42.223668" lon="2.987413">
        <ele>31</ele>
        <time>1970-01-01T02:56:00.000Z</time>
      </trkpt>
      <trkpt lat="42.223632" lon="2.987365">
        <ele>31</ele>
        <time>1970-01-01T02:56:02.000Z</time>
      </trkpt>
      <trkpt lat="42.223597" lon="2.987317">
        <ele>31</ele>
        <time>1970-01-01T02:56:03.000Z</time>
      </trkpt>
      <trkpt lat="42.223561" lon="2.987269">
        <ele>31</ele>
        <time>1970-01-01T02:56:04.000Z</time>
      </trkpt>
      <trkpt lat="42.223525" lon="2.987222">
        <ele>31</ele>
        <time>1970-01-01T02:56:05.000Z</time>
      </trkpt>
      <trkpt lat="42.22349" lon="2.987174">
        <ele>31</ele>
        <time>1970-01-01T02:56:06.000Z</time>
      </trkpt>
      <trkpt lat="42.223454" lon="2.987126">
        <ele>30</ele>
        <time>1970-01-01T02:56:07.000Z</time>
      </trkpt>
      <trkpt lat="42.223377" lon="2.987026">
        <ele>30</ele>
        <time>1970-01-01T02:56:08.000Z</time>
      </trkpt>
      <trkpt lat="42.22334" lon="2.986975">
        <ele>30</ele>
        <time>1970-01-01T02:56:09.000Z</time>
      </trkpt>
      <trkpt lat="42.223302" lon="2.986925">
        <ele>30</ele>
        <time>1970-01-01T02:56:10.000Z</time>
      </trkpt>
      <trkpt lat="42.223264" lon="2.986874">
        <ele>30</ele>
        <time>1970-01-01T02:56:11.000Z</time>
      </trkpt>
      <trkpt lat="42.223227" lon="2.986823">
        <ele>30</ele>
        <time>1970-01-01T02:56:13.000Z</time>
      </trkpt>
      <trkpt lat="42.223189" lon="2.986772">
        <ele>30</ele>
        <time>1970-01-01T02:56:14.000Z</time>
      </trkpt>
      <trkpt lat="42.223151" lon="2.986722">
        <ele>30</ele>
        <time>1970-01-01T02:56:15.000Z</time>
      </trkpt>
      <trkpt lat="42.223114" lon="2.986671">
        <ele>30</ele>
        <time>1970-01-01T02:56:16.000Z</time>
      </trkpt>
      <trkpt lat="42.223076" lon="2.98662">
        <ele>29</ele>
        <time>1970-01-01T02:56:17.000Z</time>
      </trkpt>
      <trkpt lat="42.223009" lon="2.986523">
        <ele>29</ele>
        <time>1970-01-01T02:56:18.000Z</time>
      </trkpt>
      <trkpt lat="42.222978" lon="2.986476">
        <ele>29</ele>
        <time>1970-01-01T02:56:19.000Z</time>
      </trkpt>
      <trkpt lat="42.222946" lon="2.98643">
        <ele>29</ele>
        <time>1970-01-01T02:56:20.000Z</time>
      </trkpt>
      <trkpt lat="42.222915" lon="2.986383">
        <ele>29</ele>
        <time>1970-01-01T02:56:21.000Z</time>
      </trkpt>
      <trkpt lat="42.222883" lon="2.986337">
        <ele>29</ele>
        <time>1970-01-01T02:56:23.000Z</time>
      </trkpt>
      <trkpt lat="42.222852" lon="2.98629">
        <ele>29</ele>
        <time>1970-01-01T02:56:24.000Z</time>
      </trkpt>
      <trkpt lat="42.22282" lon="2.986244">
        <ele>29</ele>
        <time>1970-01-01T02:56:25.000Z</time>
      </trkpt>
      <trkpt lat="42.222789" lon="2.986197">
        <ele>29</ele>
        <time>1970-01-01T02:56:26.000Z</time>
      </trkpt>
      <trkpt lat="42.222757" lon="2.986151">
        <ele>29</ele>
        <time>1970-01-01T02:56:27.000Z</time>
      </trkpt>
      <trkpt lat="42.222708" lon="2.986075">
        <ele>29</ele>
        <time>1970-01-01T02:56:28.000Z</time>
      </trkpt>
      <trkpt lat="42.222689" lon="2.986043">
        <ele>29</ele>
        <time>1970-01-01T02:56:29.000Z</time>
      </trkpt>
      <trkpt lat="42.222669" lon="2.986011">
        <ele>29</ele>
        <time>1970-01-01T02:56:30.000Z</time>
      </trkpt>
      <trkpt lat="42.22265" lon="2.985979">
        <ele>29</ele>
        <time>1970-01-01T02:56:31.000Z</time>
      </trkpt>
      <trkpt lat="42.22263" lon="2.985947">
        <ele>29</ele>
        <time>1970-01-01T02:56:32.000Z</time>
      </trkpt>
      <trkpt lat="42.222611" lon="2.985915">
        <ele>29</ele>
        <time>1970-01-01T02:56:33.000Z</time>
      </trkpt>
      <trkpt lat="42.222591" lon="2.985883">
        <ele>29</ele>
        <time>1970-01-01T02:56:34.000Z</time>
      </trkpt>
      <trkpt lat="42.222572" lon="2.985851">
        <ele>29</ele>
        <time>1970-01-01T02:56:35.000Z</time>
      </trkpt>
      <trkpt lat="42.222552" lon="2.985819">
        <ele>29</ele>
        <time>1970-01-01T02:56:37.000Z</time>
      </trkpt>
      <trkpt lat="42.222511" lon="2.985796">
        <ele>29</ele>
        <time>1970-01-01T02:56:41.000Z</time>
      </trkpt>
      <trkpt lat="42.222496" lon="2.985774">
        <ele>29</ele>
        <time>1970-01-01T02:56:43.000Z</time>
      </trkpt>
      <trkpt lat="42.22248" lon="2.985752">
        <ele>29</ele>
        <time>1970-01-01T02:56:45.000Z</time>
      </trkpt>
      <trkpt lat="42.222465" lon="2.98573">
        <ele>29</ele>
        <time>1970-01-01T02:56:46.000Z</time>
      </trkpt>
      <trkpt lat="42.22245" lon="2.985708">
        <ele>29</ele>
        <time>1970-01-01T02:56:47.000Z</time>
      </trkpt>
      <trkpt lat="42.222417" lon="2.985646">
        <ele>29</ele>
        <time>1970-01-01T02:56:48.000Z</time>
      </trkpt>
      <trkpt lat="42.222403" lon="2.985616">
        <ele>29</ele>
        <time>1970-01-01T02:56:49.000Z</time>
      </trkpt>
      <trkpt lat="42.222389" lon="2.985587">
        <ele>29</ele>
        <time>1970-01-01T02:56:50.000Z</time>
      </trkpt>
      <trkpt lat="42.222375" lon="2.985557">
        <ele>29</ele>
        <time>1970-01-01T02:56:51.000Z</time>
      </trkpt>
      <trkpt lat="42.222362" lon="2.985527">
        <ele>29</ele>
        <time>1970-01-01T02:56:52.000Z</time>
      </trkpt>
      <trkpt lat="42.222348" lon="2.985497">
        <ele>29</ele>
        <time>1970-01-01T02:56:53.000Z</time>
      </trkpt>
      <trkpt lat="42.222334" lon="2.985467">
        <ele>29</ele>
        <time>1970-01-01T02:56:54.000Z</time>
      </trkpt>
      <trkpt lat="42.22232" lon="2.985438">
        <ele>29</ele>
        <time>1970-01-01T02:56:55.000Z</time>
      </trkpt>
      <trkpt lat="42.222306" lon="2.985408">
        <ele>29</ele>
        <time>1970-01-01T02:56:56.000Z</time>
      </trkpt>
      <trkpt lat="42.222292" lon="2.985378">
        <ele>28</ele>
        <time>1970-01-01T02:56:57.000Z</time>
      </trkpt>
      <trkpt lat="42.222259" lon="2.985312">
        <ele>28</ele>
        <time>1970-01-01T02:56:58.000Z</time>
      </trkpt>
      <trkpt lat="42.222243" lon="2.985279">
        <ele>28</ele>
        <time>1970-01-01T02:56:59.000Z</time>
      </trkpt>
      <trkpt lat="42.222226" lon="2.985245">
        <ele>28</ele>
        <time>1970-01-01T02:57:00.000Z</time>
      </trkpt>
      <trkpt lat="42.222209" lon="2.985211">
        <ele>28</ele>
        <time>1970-01-01T02:57:01.000Z</time>
      </trkpt>
      <trkpt lat="42.222193" lon="2.985177">
        <ele>28</ele>
        <time>1970-01-01T02:57:02.000Z</time>
      </trkpt>
      <trkpt lat="42.222176" lon="2.985144">
        <ele>28</ele>
        <time>1970-01-01T02:57:03.000Z</time>
      </trkpt>
      <trkpt lat="42.222159" lon="2.98511">
        <ele>28</ele>
        <time>1970-01-01T02:57:04.000Z</time>
      </trkpt>
      <trkpt lat="42.222142" lon="2.985076">
        <ele>28</ele>
        <time>1970-01-01T02:57:05.000Z</time>
      </trkpt>
      <trkpt lat="42.222126" lon="2.985043">
        <ele>28</ele>
        <time>1970-01-01T02:57:06.000Z</time>
      </trkpt>
      <trkpt lat="42.222109" lon="2.985009">
        <ele>28</ele>
        <time>1970-01-01T02:57:07.000Z</time>
      </trkpt>
      <trkpt lat="42.222057" lon="2.984925">
        <ele>28</ele>
        <time>1970-01-01T02:57:08.000Z</time>
      </trkpt>
      <trkpt lat="42.22203" lon="2.984883">
        <ele>28</ele>
        <time>1970-01-01T02:57:09.000Z</time>
      </trkpt>
      <trkpt lat="42.222004" lon="2.984841">
        <ele>28</ele>
        <time>1970-01-01T02:57:10.000Z</time>
      </trkpt>
      <trkpt lat="42.221978" lon="2.984799">
        <ele>28</ele>
        <time>1970-01-01T02:57:12.000Z</time>
      </trkpt>
      <trkpt lat="42.221951" lon="2.984756">
        <ele>28</ele>
        <time>1970-01-01T02:57:13.000Z</time>
      </trkpt>
      <trkpt lat="42.221925" lon="2.984714">
        <ele>28</ele>
        <time>1970-01-01T02:57:14.000Z</time>
      </trkpt>
      <trkpt lat="42.221899" lon="2.984672">
        <ele>28</ele>
        <time>1970-01-01T02:57:15.000Z</time>
      </trkpt>
      <trkpt lat="42.221872" lon="2.98463">
        <ele>28</ele>
        <time>1970-01-01T02:57:16.000Z</time>
      </trkpt>
      <trkpt lat="42.221846" lon="2.984588">
        <ele>29</ele>
        <time>1970-01-01T02:57:17.000Z</time>
      </trkpt>
      <trkpt lat="42.221787" lon="2.984504">
        <ele>29</ele>
        <time>1970-01-01T02:57:18.000Z</time>
      </trkpt>
      <trkpt lat="42.221756" lon="2.98446">
        <ele>29</ele>
        <time>1970-01-01T02:57:19.000Z</time>
      </trkpt>
      <trkpt lat="42.221726" lon="2.984416">
        <ele>29</ele>
        <time>1970-01-01T02:57:20.000Z</time>
      </trkpt>
      <trkpt lat="42.221695" lon="2.984372">
        <ele>29</ele>
        <time>1970-01-01T02:57:21.000Z</time>
      </trkpt>
      <trkpt lat="42.221665" lon="2.984328">
        <ele>29</ele>
        <time>1970-01-01T02:57:22.000Z</time>
      </trkpt>
      <trkpt lat="42.221635" lon="2.984284">
        <ele>29</ele>
        <time>1970-01-01T02:57:23.000Z</time>
      </trkpt>
      <trkpt lat="42.221604" lon="2.98424">
        <ele>29</ele>
        <time>1970-01-01T02:57:24.000Z</time>
      </trkpt>
      <trkpt lat="42.221574" lon="2.984196">
        <ele>29</ele>
        <time>1970-01-01T02:57:25.000Z</time>
      </trkpt>
      <trkpt lat="42.221543" lon="2.984152">
        <ele>29</ele>
        <time>1970-01-01T02:57:26.000Z</time>
      </trkpt>
      <trkpt lat="42.221513" lon="2.984108">
        <ele>29</ele>
        <time>1970-01-01T02:57:27.000Z</time>
      </trkpt>
      <trkpt lat="42.221433" lon="2.983999">
        <ele>29</ele>
        <time>1970-01-01T02:57:28.000Z</time>
      </trkpt>
      <trkpt lat="42.221393" lon="2.983943">
        <ele>29</ele>
        <time>1970-01-01T02:57:29.000Z</time>
      </trkpt>
      <trkpt lat="42.221353" lon="2.983887">
        <ele>29</ele>
        <time>1970-01-01T02:57:30.000Z</time>
      </trkpt>
      <trkpt lat="42.221313" lon="2.983831">
        <ele>29</ele>
        <time>1970-01-01T02:57:31.000Z</time>
      </trkpt>
      <trkpt lat="42.221273" lon="2.983776">
        <ele>29</ele>
        <time>1970-01-01T02:57:33.000Z</time>
      </trkpt>
      <trkpt lat="42.221233" lon="2.98372">
        <ele>29</ele>
        <time>1970-01-01T02:57:34.000Z</time>
      </trkpt>
      <trkpt lat="42.221193" lon="2.983664">
        <ele>29</ele>
        <time>1970-01-01T02:57:35.000Z</time>
      </trkpt>
      <trkpt lat="42.221153" lon="2.983608">
        <ele>28</ele>
        <time>1970-01-01T02:57:37.000Z</time>
      </trkpt>
      <trkpt lat="42.221094" lon="2.983514">
        <ele>28</ele>
        <time>1970-01-01T02:57:38.000Z</time>
      </trkpt>
      <trkpt lat="42.221068" lon="2.983468">
        <ele>28</ele>
        <time>1970-01-01T02:57:39.000Z</time>
      </trkpt>
      <trkpt lat="42.221042" lon="2.983422">
        <ele>28</ele>
        <time>1970-01-01T02:57:40.000Z</time>
      </trkpt>
      <trkpt lat="42.221016" lon="2.983376">
        <ele>28</ele>
        <time>1970-01-01T02:57:41.000Z</time>
      </trkpt>
      <trkpt lat="42.22099" lon="2.98333">
        <ele>28</ele>
        <time>1970-01-01T02:57:42.000Z</time>
      </trkpt>
      <trkpt lat="42.220963" lon="2.983285">
        <ele>28</ele>
        <time>1970-01-01T02:57:43.000Z</time>
      </trkpt>
      <trkpt lat="42.220937" lon="2.983239">
        <ele>28</ele>
        <time>1970-01-01T02:57:44.000Z</time>
      </trkpt>
      <trkpt lat="42.220911" lon="2.983193">
        <ele>28</ele>
        <time>1970-01-01T02:57:45.000Z</time>
      </trkpt>
      <trkpt lat="42.220885" lon="2.983147">
        <ele>28</ele>
        <time>1970-01-01T02:57:46.000Z</time>
      </trkpt>
      <trkpt lat="42.220859" lon="2.983101">
        <ele>28</ele>
        <time>1970-01-01T02:57:47.000Z</time>
      </trkpt>
      <trkpt lat="42.220814" lon="2.983002">
        <ele>28</ele>
        <time>1970-01-01T02:57:48.000Z</time>
      </trkpt>
      <trkpt lat="42.220796" lon="2.982953">
        <ele>28</ele>
        <time>1970-01-01T02:57:49.000Z</time>
      </trkpt>
      <trkpt lat="42.220777" lon="2.982904">
        <ele>28</ele>
        <time>1970-01-01T02:57:50.000Z</time>
      </trkpt>
      <trkpt lat="42.220759" lon="2.982855">
        <ele>28</ele>
        <time>1970-01-01T02:57:51.000Z</time>
      </trkpt>
      <trkpt lat="42.220741" lon="2.982805">
        <ele>28</ele>
        <time>1970-01-01T02:57:52.000Z</time>
      </trkpt>
      <trkpt lat="42.220723" lon="2.982756">
        <ele>28</ele>
        <time>1970-01-01T02:57:53.000Z</time>
      </trkpt>
      <trkpt lat="42.220705" lon="2.982707">
        <ele>28</ele>
        <time>1970-01-01T02:57:54.000Z</time>
      </trkpt>
      <trkpt lat="42.220686" lon="2.982658">
        <ele>28</ele>
        <time>1970-01-01T02:57:55.000Z</time>
      </trkpt>
      <trkpt lat="42.220668" lon="2.982609">
        <ele>28</ele>
        <time>1970-01-01T02:57:56.000Z</time>
      </trkpt>
      <trkpt lat="42.22065" lon="2.98256">
        <ele>29</ele>
        <time>1970-01-01T02:57:57.000Z</time>
      </trkpt>
      <trkpt lat="42.220614" lon="2.982453">
        <ele>29</ele>
        <time>1970-01-01T02:57:58.000Z</time>
      </trkpt>
      <trkpt lat="42.220599" lon="2.982401">
        <ele>29</ele>
        <time>1970-01-01T02:57:59.000Z</time>
      </trkpt>
      <trkpt lat="42.220583" lon="2.982348">
        <ele>29</ele>
        <time>1970-01-01T02:58:00.000Z</time>
      </trkpt>
      <trkpt lat="42.220568" lon="2.982296">
        <ele>29</ele>
        <time>1970-01-01T02:58:01.000Z</time>
      </trkpt>
      <trkpt lat="42.220552" lon="2.982244">
        <ele>29</ele>
        <time>1970-01-01T02:58:02.000Z</time>
      </trkpt>
      <trkpt lat="42.220536" lon="2.982192">
        <ele>29</ele>
        <time>1970-01-01T02:58:03.000Z</time>
      </trkpt>
      <trkpt lat="42.220521" lon="2.98214">
        <ele>29</ele>
        <time>1970-01-01T02:58:04.000Z</time>
      </trkpt>
      <trkpt lat="42.220505" lon="2.982087">
        <ele>29</ele>
        <time>1970-01-01T02:58:05.000Z</time>
      </trkpt>
      <trkpt lat="42.22049" lon="2.982035">
        <ele>29</ele>
        <time>1970-01-01T02:58:06.000Z</time>
      </trkpt>
      <trkpt lat="42.220474" lon="2.981983">
        <ele>31</ele>
        <time>1970-01-01T02:58:07.000Z</time>
      </trkpt>
      <trkpt lat="42.220435" lon="2.98187">
        <ele>31</ele>
        <time>1970-01-01T02:58:08.000Z</time>
      </trkpt>
      <trkpt lat="42.220413" lon="2.981815">
        <ele>31</ele>
        <time>1970-01-01T02:58:09.000Z</time>
      </trkpt>
      <trkpt lat="42.220392" lon="2.98176">
        <ele>31</ele>
        <time>1970-01-01T02:58:10.000Z</time>
      </trkpt>
      <trkpt lat="42.22037" lon="2.981705">
        <ele>31</ele>
        <time>1970-01-01T02:58:11.000Z</time>
      </trkpt>
      <trkpt lat="42.220349" lon="2.981651">
        <ele>31</ele>
        <time>1970-01-01T02:58:12.000Z</time>
      </trkpt>
      <trkpt lat="42.220327" lon="2.981596">
        <ele>31</ele>
        <time>1970-01-01T02:58:13.000Z</time>
      </trkpt>
      <trkpt lat="42.220306" lon="2.981541">
        <ele>31</ele>
        <time>1970-01-01T02:58:14.000Z</time>
      </trkpt>
      <trkpt lat="42.220284" lon="2.981486">
        <ele>31</ele>
        <time>1970-01-01T02:58:16.000Z</time>
      </trkpt>
      <trkpt lat="42.220263" lon="2.981431">
        <ele>31</ele>
        <time>1970-01-01T02:58:17.000Z</time>
      </trkpt>
      <trkpt lat="42.220215" lon="2.98134">
        <ele>31</ele>
        <time>1970-01-01T02:58:18.000Z</time>
      </trkpt>
      <trkpt lat="42.220192" lon="2.981299">
        <ele>31</ele>
        <time>1970-01-01T02:58:19.000Z</time>
      </trkpt>
      <trkpt lat="42.220169" lon="2.981257">
        <ele>31</ele>
        <time>1970-01-01T02:58:20.000Z</time>
      </trkpt>
      <trkpt lat="42.220146" lon="2.981216">
        <ele>31</ele>
        <time>1970-01-01T02:58:21.000Z</time>
      </trkpt>
      <trkpt lat="42.220123" lon="2.981174">
        <ele>31</ele>
        <time>1970-01-01T02:58:22.000Z</time>
      </trkpt>
      <trkpt lat="42.220099" lon="2.981133">
        <ele>31</ele>
        <time>1970-01-01T02:58:23.000Z</time>
      </trkpt>
      <trkpt lat="42.220076" lon="2.981091">
        <ele>31</ele>
        <time>1970-01-01T02:58:24.000Z</time>
      </trkpt>
      <trkpt lat="42.220053" lon="2.98105">
        <ele>31</ele>
        <time>1970-01-01T02:58:25.000Z</time>
      </trkpt>
      <trkpt lat="42.22003" lon="2.981008">
        <ele>31</ele>
        <time>1970-01-01T02:58:26.000Z</time>
      </trkpt>
      <trkpt lat="42.220007" lon="2.980967">
        <ele>32</ele>
        <time>1970-01-01T02:58:27.000Z</time>
      </trkpt>
      <trkpt lat="42.219952" lon="2.980891">
        <ele>32</ele>
        <time>1970-01-01T02:58:28.000Z</time>
      </trkpt>
      <trkpt lat="42.219925" lon="2.980855">
        <ele>32</ele>
        <time>1970-01-01T02:58:29.000Z</time>
      </trkpt>
      <trkpt lat="42.219899" lon="2.98082">
        <ele>32</ele>
        <time>1970-01-01T02:58:30.000Z</time>
      </trkpt>
      <trkpt lat="42.219872" lon="2.980784">
        <ele>32</ele>
        <time>1970-01-01T02:58:31.000Z</time>
      </trkpt>
      <trkpt lat="42.219845" lon="2.980749">
        <ele>32</ele>
        <time>1970-01-01T02:58:32.000Z</time>
      </trkpt>
      <trkpt lat="42.219818" lon="2.980714">
        <ele>32</ele>
        <time>1970-01-01T02:58:33.000Z</time>
      </trkpt>
      <trkpt lat="42.219791" lon="2.980678">
        <ele>32</ele>
        <time>1970-01-01T02:58:34.000Z</time>
      </trkpt>
      <trkpt lat="42.219765" lon="2.980643">
        <ele>32</ele>
        <time>1970-01-01T02:58:35.000Z</time>
      </trkpt>
      <trkpt lat="42.219738" lon="2.980607">
        <ele>32</ele>
        <time>1970-01-01T02:58:36.000Z</time>
      </trkpt>
      <trkpt lat="42.219711" lon="2.980572">
        <ele>32</ele>
        <time>1970-01-01T02:58:37.000Z</time>
      </trkpt>
      <trkpt lat="42.219643" lon="2.980508">
        <ele>32</ele>
        <time>1970-01-01T02:58:38.000Z</time>
      </trkpt>
      <trkpt lat="42.219607" lon="2.980479">
        <ele>32</ele>
        <time>1970-01-01T02:58:40.000Z</time>
      </trkpt>
      <trkpt lat="42.219571" lon="2.980451">
        <ele>32</ele>
        <time>1970-01-01T02:58:41.000Z</time>
      </trkpt>
      <trkpt lat="42.219535" lon="2.980422">
        <ele>32</ele>
        <time>1970-01-01T02:58:42.000Z</time>
      </trkpt>
      <trkpt lat="42.2195" lon="2.980393">
        <ele>32</ele>
        <time>1970-01-01T02:58:43.000Z</time>
      </trkpt>
      <trkpt lat="42.219464" lon="2.980364">
        <ele>32</ele>
        <time>1970-01-01T02:58:44.000Z</time>
      </trkpt>
      <trkpt lat="42.219428" lon="2.980336">
        <ele>32</ele>
        <time>1970-01-01T02:58:45.000Z</time>
      </trkpt>
      <trkpt lat="42.219392" lon="2.980307">
        <ele>32</ele>
        <time>1970-01-01T02:58:46.000Z</time>
      </trkpt>
      <trkpt lat="42.219356" lon="2.980278">
        <ele>33</ele>
        <time>1970-01-01T02:58:47.000Z</time>
      </trkpt>
      <trkpt lat="42.219276" lon="2.980237">
        <ele>33</ele>
        <time>1970-01-01T02:58:48.000Z</time>
      </trkpt>
      <trkpt lat="42.219237" lon="2.980216">
        <ele>33</ele>
        <time>1970-01-01T02:58:49.000Z</time>
      </trkpt>
      <trkpt lat="42.219199" lon="2.980194">
        <ele>33</ele>
        <time>1970-01-01T02:58:50.000Z</time>
      </trkpt>
      <trkpt lat="42.21916" lon="2.980173">
        <ele>33</ele>
        <time>1970-01-01T02:58:51.000Z</time>
      </trkpt>
      <trkpt lat="42.219121" lon="2.980152">
        <ele>33</ele>
        <time>1970-01-01T02:58:52.000Z</time>
      </trkpt>
      <trkpt lat="42.219082" lon="2.980131">
        <ele>33</ele>
        <time>1970-01-01T02:58:53.000Z</time>
      </trkpt>
      <trkpt lat="42.219043" lon="2.98011">
        <ele>33</ele>
        <time>1970-01-01T02:58:54.000Z</time>
      </trkpt>
      <trkpt lat="42.219005" lon="2.980088">
        <ele>33</ele>
        <time>1970-01-01T02:58:55.000Z</time>
      </trkpt>
      <trkpt lat="42.218966" lon="2.980067">
        <ele>33</ele>
        <time>1970-01-01T02:58:56.000Z</time>
      </trkpt>
      <trkpt lat="42.218927" lon="2.980046">
        <ele>35</ele>
        <time>1970-01-01T02:58:57.000Z</time>
      </trkpt>
      <trkpt lat="42.21885" lon="2.979984">
        <ele>35</ele>
        <time>1970-01-01T02:58:58.000Z</time>
      </trkpt>
      <trkpt lat="42.218817" lon="2.979948">
        <ele>35</ele>
        <time>1970-01-01T02:58:59.000Z</time>
      </trkpt>
      <trkpt lat="42.218784" lon="2.979913">
        <ele>35</ele>
        <time>1970-01-01T02:59:00.000Z</time>
      </trkpt>
      <trkpt lat="42.218751" lon="2.979877">
        <ele>35</ele>
        <time>1970-01-01T02:59:02.000Z</time>
      </trkpt>
      <trkpt lat="42.218718" lon="2.979841">
        <ele>35</ele>
        <time>1970-01-01T02:59:03.000Z</time>
      </trkpt>
      <trkpt lat="42.218685" lon="2.979805">
        <ele>35</ele>
        <time>1970-01-01T02:59:04.000Z</time>
      </trkpt>
      <trkpt lat="42.218652" lon="2.97977">
        <ele>35</ele>
        <time>1970-01-01T02:59:05.000Z</time>
      </trkpt>
      <trkpt lat="42.218619" lon="2.979734">
        <ele>35</ele>
        <time>1970-01-01T02:59:06.000Z</time>
      </trkpt>
      <trkpt lat="42.218586" lon="2.979698">
        <ele>35</ele>
        <time>1970-01-01T02:59:07.000Z</time>
      </trkpt>
      <trkpt lat="42.218542" lon="2.979586">
        <ele>35</ele>
        <time>1970-01-01T02:59:08.000Z</time>
      </trkpt>
      <trkpt lat="42.218523" lon="2.979521">
        <ele>35</ele>
        <time>1970-01-01T02:59:09.000Z</time>
      </trkpt>
      <trkpt lat="42.218503" lon="2.979457">
        <ele>35</ele>
        <time>1970-01-01T02:59:10.000Z</time>
      </trkpt>
      <trkpt lat="42.218484" lon="2.979392">
        <ele>35</ele>
        <time>1970-01-01T02:59:12.000Z</time>
      </trkpt>
      <trkpt lat="42.218465" lon="2.979328">
        <ele>35</ele>
        <time>1970-01-01T02:59:14.000Z</time>
      </trkpt>
      <trkpt lat="42.218446" lon="2.979264">
        <ele>35</ele>
        <time>1970-01-01T02:59:15.000Z</time>
      </trkpt>
      <trkpt lat="42.218426" lon="2.979199">
        <ele>35</ele>
        <time>1970-01-01T02:59:16.000Z</time>
      </trkpt>
      <trkpt lat="42.218407" lon="2.979135">
        <ele>35</ele>
        <time>1970-01-01T02:59:17.000Z</time>
      </trkpt>
      <trkpt lat="42.218376" lon="2.979021">
        <ele>35</ele>
        <time>1970-01-01T02:59:18.000Z</time>
      </trkpt>
      <trkpt lat="42.218361" lon="2.978967">
        <ele>35</ele>
        <time>1970-01-01T02:59:19.000Z</time>
      </trkpt>
      <trkpt lat="42.218347" lon="2.978912">
        <ele>35</ele>
        <time>1970-01-01T02:59:20.000Z</time>
      </trkpt>
      <trkpt lat="42.218332" lon="2.978857">
        <ele>35</ele>
        <time>1970-01-01T02:59:21.000Z</time>
      </trkpt>
      <trkpt lat="42.218318" lon="2.978802">
        <ele>35</ele>
        <time>1970-01-01T02:59:22.000Z</time>
      </trkpt>
      <trkpt lat="42.218304" lon="2.978748">
        <ele>35</ele>
        <time>1970-01-01T02:59:23.000Z</time>
      </trkpt>
      <trkpt lat="42.218289" lon="2.978693">
        <ele>35</ele>
        <time>1970-01-01T02:59:24.000Z</time>
      </trkpt>
      <trkpt lat="42.218275" lon="2.978638">
        <ele>35</ele>
        <time>1970-01-01T02:59:25.000Z</time>
      </trkpt>
      <trkpt lat="42.21826" lon="2.978584">
        <ele>35</ele>
        <time>1970-01-01T02:59:26.000Z</time>
      </trkpt>
      <trkpt lat="42.218246" lon="2.978529">
        <ele>35</ele>
        <time>1970-01-01T02:59:27.000Z</time>
      </trkpt>
      <trkpt lat="42.218214" lon="2.978401">
        <ele>35</ele>
        <time>1970-01-01T02:59:28.000Z</time>
      </trkpt>
      <trkpt lat="42.218197" lon="2.978332">
        <ele>35</ele>
        <time>1970-01-01T02:59:29.000Z</time>
      </trkpt>
      <trkpt lat="42.218181" lon="2.978263">
        <ele>35</ele>
        <time>1970-01-01T02:59:31.000Z</time>
      </trkpt>
      <trkpt lat="42.218164" lon="2.978194">
        <ele>35</ele>
        <time>1970-01-01T02:59:32.000Z</time>
      </trkpt>
      <trkpt lat="42.218148" lon="2.978125">
        <ele>35</ele>
        <time>1970-01-01T02:59:33.000Z</time>
      </trkpt>
      <trkpt lat="42.218131" lon="2.978056">
        <ele>35</ele>
        <time>1970-01-01T02:59:35.000Z</time>
      </trkpt>
      <trkpt lat="42.218115" lon="2.977987">
        <ele>35</ele>
        <time>1970-01-01T02:59:36.000Z</time>
      </trkpt>
      <trkpt lat="42.218098" lon="2.977918">
        <ele>35</ele>
        <time>1970-01-01T02:59:37.000Z</time>
      </trkpt>
      <trkpt lat="42.218062" lon="2.977759">
        <ele>35</ele>
        <time>1970-01-01T02:59:38.000Z</time>
      </trkpt>
      <trkpt lat="42.218039" lon="2.977665">
        <ele>35</ele>
        <time>1970-01-01T02:59:39.000Z</time>
      </trkpt>
      <trkpt lat="42.218017" lon="2.977571">
        <ele>35</ele>
        <time>1970-01-01T02:59:40.000Z</time>
      </trkpt>
      <trkpt lat="42.217995" lon="2.977478">
        <ele>35</ele>
        <time>1970-01-01T02:59:44.000Z</time>
      </trkpt>
      <trkpt lat="42.217972" lon="2.977384">
        <ele>35</ele>
        <time>1970-01-01T02:59:46.000Z</time>
      </trkpt>
      <trkpt lat="42.21795" lon="2.97729">
        <ele>35</ele>
        <time>1970-01-01T02:59:47.000Z</time>
      </trkpt>
      <trkpt lat="42.217913" lon="2.977168">
        <ele>35</ele>
        <time>1970-01-01T02:59:48.000Z</time>
      </trkpt>
      <trkpt lat="42.21789" lon="2.977108">
        <ele>35</ele>
        <time>1970-01-01T02:59:50.000Z</time>
      </trkpt>
      <trkpt lat="42.217868" lon="2.977047">
        <ele>35</ele>
        <time>1970-01-01T02:59:52.000Z</time>
      </trkpt>
      <trkpt lat="42.217846" lon="2.976987">
        <ele>35</ele>
        <time>1970-01-01T02:59:53.000Z</time>
      </trkpt>
      <trkpt lat="42.217823" lon="2.976926">
        <ele>35</ele>
        <time>1970-01-01T02:59:54.000Z</time>
      </trkpt>
      <trkpt lat="42.217801" lon="2.976866">
        <ele>35</ele>
        <time>1970-01-01T02:59:55.000Z</time>
      </trkpt>
      <trkpt lat="42.217778" lon="2.976805">
        <ele>35</ele>
        <time>1970-01-01T02:59:56.000Z</time>
      </trkpt>
      <trkpt lat="42.217756" lon="2.976745">
        <ele>36</ele>
        <time>1970-01-01T02:59:57.000Z</time>
      </trkpt>
      <trkpt lat="42.217712" lon="2.976656">
        <ele>36</ele>
        <time>1970-01-01T02:59:58.000Z</time>
      </trkpt>
      <trkpt lat="42.21769" lon="2.976616">
        <ele>36</ele>
        <time>1970-01-01T02:59:59.000Z</time>
      </trkpt>
      <trkpt lat="42.217669" lon="2.976575">
        <ele>36</ele>
        <time>1970-01-01T03:00:00.000Z</time>
      </trkpt>
      <trkpt lat="42.217647" lon="2.976535">
        <ele>36</ele>
        <time>1970-01-01T03:00:01.000Z</time>
      </trkpt>
      <trkpt lat="42.217626" lon="2.976494">
        <ele>36</ele>
        <time>1970-01-01T03:00:02.000Z</time>
      </trkpt>
      <trkpt lat="42.217605" lon="2.976454">
        <ele>36</ele>
        <time>1970-01-01T03:00:03.000Z</time>
      </trkpt>
      <trkpt lat="42.217583" lon="2.976413">
        <ele>36</ele>
        <time>1970-01-01T03:00:04.000Z</time>
      </trkpt>
      <trkpt lat="42.217562" lon="2.976373">
        <ele>36</ele>
        <time>1970-01-01T03:00:05.000Z</time>
      </trkpt>
      <trkpt lat="42.21754" lon="2.976332">
        <ele>36</ele>
        <time>1970-01-01T03:00:06.000Z</time>
      </trkpt>
      <trkpt lat="42.217519" lon="2.976292">
        <ele>36</ele>
        <time>1970-01-01T03:00:07.000Z</time>
      </trkpt>
      <trkpt lat="42.217484" lon="2.976196">
        <ele>36</ele>
        <time>1970-01-01T03:00:08.000Z</time>
      </trkpt>
      <trkpt lat="42.217469" lon="2.976149">
        <ele>36</ele>
        <time>1970-01-01T03:00:09.000Z</time>
      </trkpt>
      <trkpt lat="42.217455" lon="2.976101">
        <ele>36</ele>
        <time>1970-01-01T03:00:10.000Z</time>
      </trkpt>
      <trkpt lat="42.21744" lon="2.976054">
        <ele>36</ele>
        <time>1970-01-01T03:00:11.000Z</time>
      </trkpt>
      <trkpt lat="42.217426" lon="2.976006">
        <ele>36</ele>
        <time>1970-01-01T03:00:12.000Z</time>
      </trkpt>
      <trkpt lat="42.217411" lon="2.975959">
        <ele>36</ele>
        <time>1970-01-01T03:00:13.000Z</time>
      </trkpt>
      <trkpt lat="42.217397" lon="2.975911">
        <ele>36</ele>
        <time>1970-01-01T03:00:14.000Z</time>
      </trkpt>
      <trkpt lat="42.217382" lon="2.975864">
        <ele>36</ele>
        <time>1970-01-01T03:00:15.000Z</time>
      </trkpt>
      <trkpt lat="42.217368" lon="2.975816">
        <ele>36</ele>
        <time>1970-01-01T03:00:16.000Z</time>
      </trkpt>
      <trkpt lat="42.217353" lon="2.975769">
        <ele>36</ele>
        <time>1970-01-01T03:00:17.000Z</time>
      </trkpt>
      <trkpt lat="42.217321" lon="2.97566">
        <ele>36</ele>
        <time>1970-01-01T03:00:18.000Z</time>
      </trkpt>
      <trkpt lat="42.217305" lon="2.975605">
        <ele>36</ele>
        <time>1970-01-01T03:00:20.000Z</time>
      </trkpt>
      <trkpt lat="42.217288" lon="2.975551">
        <ele>36</ele>
        <time>1970-01-01T03:00:21.000Z</time>
      </trkpt>
      <trkpt lat="42.217272" lon="2.975496">
        <ele>36</ele>
        <time>1970-01-01T03:00:22.000Z</time>
      </trkpt>
      <trkpt lat="42.217255" lon="2.975442">
        <ele>36</ele>
        <time>1970-01-01T03:00:23.000Z</time>
      </trkpt>
      <trkpt lat="42.217239" lon="2.975387">
        <ele>36</ele>
        <time>1970-01-01T03:00:24.000Z</time>
      </trkpt>
      <trkpt lat="42.217222" lon="2.975333">
        <ele>36</ele>
        <time>1970-01-01T03:00:25.000Z</time>
      </trkpt>
      <trkpt lat="42.217206" lon="2.975278">
        <ele>36</ele>
        <time>1970-01-01T03:00:26.000Z</time>
      </trkpt>
      <trkpt lat="42.217189" lon="2.975224">
        <ele>37</ele>
        <time>1970-01-01T03:00:27.000Z</time>
      </trkpt>
      <trkpt lat="42.217158" lon="2.975123">
        <ele>37</ele>
        <time>1970-01-01T03:00:28.000Z</time>
      </trkpt>
      <trkpt lat="42.217143" lon="2.975075">
        <ele>37</ele>
        <time>1970-01-01T03:00:29.000Z</time>
      </trkpt>
      <trkpt lat="42.217129" lon="2.975026">
        <ele>37</ele>
        <time>1970-01-01T03:00:30.000Z</time>
      </trkpt>
      <trkpt lat="42.217115" lon="2.974977">
        <ele>37</ele>
        <time>1970-01-01T03:00:31.000Z</time>
      </trkpt>
      <trkpt lat="42.217101" lon="2.974928">
        <ele>37</ele>
        <time>1970-01-01T03:00:32.000Z</time>
      </trkpt>
      <trkpt lat="42.217086" lon="2.97488">
        <ele>37</ele>
        <time>1970-01-01T03:00:33.000Z</time>
      </trkpt>
      <trkpt lat="42.217072" lon="2.974831">
        <ele>37</ele>
        <time>1970-01-01T03:00:34.000Z</time>
      </trkpt>
      <trkpt lat="42.217058" lon="2.974782">
        <ele>37</ele>
        <time>1970-01-01T03:00:35.000Z</time>
      </trkpt>
      <trkpt lat="42.217043" lon="2.974734">
        <ele>37</ele>
        <time>1970-01-01T03:00:36.000Z</time>
      </trkpt>
      <trkpt lat="42.217029" lon="2.974685">
        <ele>37</ele>
        <time>1970-01-01T03:00:37.000Z</time>
      </trkpt>
      <trkpt lat="42.216994" lon="2.974569">
        <ele>37</ele>
        <time>1970-01-01T03:00:38.000Z</time>
      </trkpt>
      <trkpt lat="42.216976" lon="2.974507">
        <ele>37</ele>
        <time>1970-01-01T03:00:39.000Z</time>
      </trkpt>
      <trkpt lat="42.216957" lon="2.974446">
        <ele>37</ele>
        <time>1970-01-01T03:00:40.000Z</time>
      </trkpt>
      <trkpt lat="42.216938" lon="2.974384">
        <ele>37</ele>
        <time>1970-01-01T03:00:41.000Z</time>
      </trkpt>
      <trkpt lat="42.216919" lon="2.974323">
        <ele>37</ele>
        <time>1970-01-01T03:00:43.000Z</time>
      </trkpt>
      <trkpt lat="42.216901" lon="2.974262">
        <ele>37</ele>
        <time>1970-01-01T03:00:44.000Z</time>
      </trkpt>
      <trkpt lat="42.216882" lon="2.9742">
        <ele>37</ele>
        <time>1970-01-01T03:00:45.000Z</time>
      </trkpt>
      <trkpt lat="42.216863" lon="2.974139">
        <ele>38</ele>
        <time>1970-01-01T03:00:47.000Z</time>
      </trkpt>
      <trkpt lat="42.21683" lon="2.974036">
        <ele>38</ele>
        <time>1970-01-01T03:00:48.000Z</time>
      </trkpt>
      <trkpt lat="42.216813" lon="2.973985">
        <ele>38</ele>
        <time>1970-01-01T03:00:49.000Z</time>
      </trkpt>
      <trkpt lat="42.216797" lon="2.973935">
        <ele>38</ele>
        <time>1970-01-01T03:00:50.000Z</time>
      </trkpt>
      <trkpt lat="42.21678" lon="2.973885">
        <ele>38</ele>
        <time>1970-01-01T03:00:51.000Z</time>
      </trkpt>
      <trkpt lat="42.216764" lon="2.973834">
        <ele>38</ele>
        <time>1970-01-01T03:00:52.000Z</time>
      </trkpt>
      <trkpt lat="42.216747" lon="2.973784">
        <ele>38</ele>
        <time>1970-01-01T03:00:53.000Z</time>
      </trkpt>
      <trkpt lat="42.216731" lon="2.973734">
        <ele>38</ele>
        <time>1970-01-01T03:00:54.000Z</time>
      </trkpt>
      <trkpt lat="42.216714" lon="2.973684">
        <ele>38</ele>
        <time>1970-01-01T03:00:55.000Z</time>
      </trkpt>
      <trkpt lat="42.216698" lon="2.973633">
        <ele>38</ele>
        <time>1970-01-01T03:00:56.000Z</time>
      </trkpt>
      <trkpt lat="42.216681" lon="2.973583">
        <ele>38</ele>
        <time>1970-01-01T03:00:57.000Z</time>
      </trkpt>
      <trkpt lat="42.216641" lon="2.973471">
        <ele>38</ele>
        <time>1970-01-01T03:00:58.000Z</time>
      </trkpt>
      <trkpt lat="42.216622" lon="2.973416">
        <ele>38</ele>
        <time>1970-01-01T03:00:59.000Z</time>
      </trkpt>
      <trkpt lat="42.216603" lon="2.97336">
        <ele>38</ele>
        <time>1970-01-01T03:01:00.000Z</time>
      </trkpt>
      <trkpt lat="42.216584" lon="2.973304">
        <ele>38</ele>
        <time>1970-01-01T03:01:01.000Z</time>
      </trkpt>
      <trkpt lat="42.216566" lon="2.973249">
        <ele>38</ele>
        <time>1970-01-01T03:01:02.000Z</time>
      </trkpt>
      <trkpt lat="42.216547" lon="2.973193">
        <ele>38</ele>
        <time>1970-01-01T03:01:03.000Z</time>
      </trkpt>
      <trkpt lat="42.216528" lon="2.973137">
        <ele>38</ele>
        <time>1970-01-01T03:01:04.000Z</time>
      </trkpt>
      <trkpt lat="42.216509" lon="2.973082">
        <ele>38</ele>
        <time>1970-01-01T03:01:06.000Z</time>
      </trkpt>
      <trkpt lat="42.21649" lon="2.973026">
        <ele>38</ele>
        <time>1970-01-01T03:01:07.000Z</time>
      </trkpt>
      <trkpt lat="42.21647" lon="2.972915">
        <ele>38</ele>
        <time>1970-01-01T03:01:08.000Z</time>
      </trkpt>
      <trkpt lat="42.216464" lon="2.97286">
        <ele>38</ele>
        <time>1970-01-01T03:01:09.000Z</time>
      </trkpt>
      <trkpt lat="42.216457" lon="2.972805">
        <ele>38</ele>
        <time>1970-01-01T03:01:10.000Z</time>
      </trkpt>
      <trkpt lat="42.216451" lon="2.97275">
        <ele>38</ele>
        <time>1970-01-01T03:01:11.000Z</time>
      </trkpt>
      <trkpt lat="42.216445" lon="2.972695">
        <ele>38</ele>
        <time>1970-01-01T03:01:12.000Z</time>
      </trkpt>
      <trkpt lat="42.216439" lon="2.972641">
        <ele>38</ele>
        <time>1970-01-01T03:01:13.000Z</time>
      </trkpt>
      <trkpt lat="42.216433" lon="2.972586">
        <ele>38</ele>
        <time>1970-01-01T03:01:14.000Z</time>
      </trkpt>
      <trkpt lat="42.216426" lon="2.972531">
        <ele>38</ele>
        <time>1970-01-01T03:01:15.000Z</time>
      </trkpt>
      <trkpt lat="42.21642" lon="2.972476">
        <ele>38</ele>
        <time>1970-01-01T03:01:16.000Z</time>
      </trkpt>
      <trkpt lat="42.216414" lon="2.972421">
        <ele>39</ele>
        <time>1970-01-01T03:01:17.000Z</time>
      </trkpt>
      <trkpt lat="42.216418" lon="2.972313">
        <ele>39</ele>
        <time>1970-01-01T03:01:18.000Z</time>
      </trkpt>
      <trkpt lat="42.216427" lon="2.972258">
        <ele>39</ele>
        <time>1970-01-01T03:01:19.000Z</time>
      </trkpt>
      <trkpt lat="42.216435" lon="2.972204">
        <ele>39</ele>
        <time>1970-01-01T03:01:20.000Z</time>
      </trkpt>
      <trkpt lat="42.216444" lon="2.972149">
        <ele>39</ele>
        <time>1970-01-01T03:01:21.000Z</time>
      </trkpt>
      <trkpt lat="42.216452" lon="2.972095">
        <ele>39</ele>
        <time>1970-01-01T03:01:22.000Z</time>
      </trkpt>
      <trkpt lat="42.216461" lon="2.97204">
        <ele>39</ele>
        <time>1970-01-01T03:01:23.000Z</time>
      </trkpt>
      <trkpt lat="42.216469" lon="2.971986">
        <ele>39</ele>
        <time>1970-01-01T03:01:25.000Z</time>
      </trkpt>
      <trkpt lat="42.216478" lon="2.971931">
        <ele>39</ele>
        <time>1970-01-01T03:01:26.000Z</time>
      </trkpt>
      <trkpt lat="42.216486" lon="2.971877">
        <ele>39</ele>
        <time>1970-01-01T03:01:27.000Z</time>
      </trkpt>
      <trkpt lat="42.216552" lon="2.971783">
        <ele>39</ele>
        <time>1970-01-01T03:01:28.000Z</time>
      </trkpt>
      <trkpt lat="42.216586" lon="2.97174">
        <ele>39</ele>
        <time>1970-01-01T03:01:29.000Z</time>
      </trkpt>
      <trkpt lat="42.216621" lon="2.971696">
        <ele>39</ele>
        <time>1970-01-01T03:01:30.000Z</time>
      </trkpt>
      <trkpt lat="42.216655" lon="2.971653">
        <ele>39</ele>
        <time>1970-01-01T03:01:31.000Z</time>
      </trkpt>
      <trkpt lat="42.21669" lon="2.971609">
        <ele>39</ele>
        <time>1970-01-01T03:01:32.000Z</time>
      </trkpt>
      <trkpt lat="42.216724" lon="2.971565">
        <ele>39</ele>
        <time>1970-01-01T03:01:33.000Z</time>
      </trkpt>
      <trkpt lat="42.216759" lon="2.971522">
        <ele>39</ele>
        <time>1970-01-01T03:01:34.000Z</time>
      </trkpt>
      <trkpt lat="42.216793" lon="2.971478">
        <ele>39</ele>
        <time>1970-01-01T03:01:35.000Z</time>
      </trkpt>
      <trkpt lat="42.216828" lon="2.971435">
        <ele>39</ele>
        <time>1970-01-01T03:01:36.000Z</time>
      </trkpt>
      <trkpt lat="42.216862" lon="2.971391">
        <ele>39</ele>
        <time>1970-01-01T03:01:38.000Z</time>
      </trkpt>
      <trkpt lat="42.216935" lon="2.971299">
        <ele>39</ele>
        <time>1970-01-01T03:01:39.000Z</time>
      </trkpt>
      <trkpt lat="42.216965" lon="2.971245">
        <ele>39</ele>
        <time>1970-01-01T03:01:40.000Z</time>
      </trkpt>
      <trkpt lat="42.216995" lon="2.97119">
        <ele>39</ele>
        <time>1970-01-01T03:01:41.000Z</time>
      </trkpt>
      <trkpt lat="42.217025" lon="2.971136">
        <ele>39</ele>
        <time>1970-01-01T03:01:42.000Z</time>
      </trkpt>
      <trkpt lat="42.217055" lon="2.971081">
        <ele>39</ele>
        <time>1970-01-01T03:01:44.000Z</time>
      </trkpt>
      <trkpt lat="42.217085" lon="2.971026">
        <ele>39</ele>
        <time>1970-01-01T03:01:45.000Z</time>
      </trkpt>
      <trkpt lat="42.217115" lon="2.970972">
        <ele>39</ele>
        <time>1970-01-01T03:01:46.000Z</time>
      </trkpt>
      <trkpt lat="42.217145" lon="2.970917">
        <ele>39</ele>
        <time>1970-01-01T03:01:48.000Z</time>
      </trkpt>
      <trkpt lat="42.217152" lon="2.970822">
        <ele>39</ele>
        <time>1970-01-01T03:01:49.000Z</time>
      </trkpt>
      <trkpt lat="42.217143" lon="2.970782">
        <ele>39</ele>
        <time>1970-01-01T03:01:50.000Z</time>
      </trkpt>
      <trkpt lat="42.217134" lon="2.970741">
        <ele>39</ele>
        <time>1970-01-01T03:01:51.000Z</time>
      </trkpt>
      <trkpt lat="42.217125" lon="2.9707">
        <ele>39</ele>
        <time>1970-01-01T03:01:52.000Z</time>
      </trkpt>
      <trkpt lat="42.217116" lon="2.97066">
        <ele>39</ele>
        <time>1970-01-01T03:01:53.000Z</time>
      </trkpt>
      <trkpt lat="42.217107" lon="2.970619">
        <ele>39</ele>
        <time>1970-01-01T03:01:54.000Z</time>
      </trkpt>
      <trkpt lat="42.217098" lon="2.970578">
        <ele>39</ele>
        <time>1970-01-01T03:01:55.000Z</time>
      </trkpt>
      <trkpt lat="42.217089" lon="2.970538">
        <ele>39</ele>
        <time>1970-01-01T03:01:56.000Z</time>
      </trkpt>
      <trkpt lat="42.21708" lon="2.970497">
        <ele>40</ele>
        <time>1970-01-01T03:01:57.000Z</time>
      </trkpt>
      <trkpt lat="42.217064" lon="2.97042">
        <ele>40</ele>
        <time>1970-01-01T03:01:58.000Z</time>
      </trkpt>
      <trkpt lat="42.217061" lon="2.970381">
        <ele>40</ele>
        <time>1970-01-01T03:01:59.000Z</time>
      </trkpt>
      <trkpt lat="42.217058" lon="2.970342">
        <ele>40</ele>
        <time>1970-01-01T03:02:00.000Z</time>
      </trkpt>
      <trkpt lat="42.217055" lon="2.970303">
        <ele>40</ele>
        <time>1970-01-01T03:02:02.000Z</time>
      </trkpt>
      <trkpt lat="42.217051" lon="2.970263">
        <ele>40</ele>
        <time>1970-01-01T03:02:03.000Z</time>
      </trkpt>
      <trkpt lat="42.217048" lon="2.970224">
        <ele>40</ele>
        <time>1970-01-01T03:02:04.000Z</time>
      </trkpt>
      <trkpt lat="42.217045" lon="2.970185">
        <ele>40</ele>
        <time>1970-01-01T03:02:05.000Z</time>
      </trkpt>
      <trkpt lat="42.217042" lon="2.970146">
        <ele>40</ele>
        <time>1970-01-01T03:02:06.000Z</time>
      </trkpt>
      <trkpt lat="42.217039" lon="2.970107">
        <ele>40</ele>
        <time>1970-01-01T03:02:07.000Z</time>
      </trkpt>
      <trkpt lat="42.217048" lon="2.97002">
        <ele>40</ele>
        <time>1970-01-01T03:02:08.000Z</time>
      </trkpt>
      <trkpt lat="42.217054" lon="2.969976">
        <ele>40</ele>
        <time>1970-01-01T03:02:09.000Z</time>
      </trkpt>
      <trkpt lat="42.21706" lon="2.969931">
        <ele>40</ele>
        <time>1970-01-01T03:02:10.000Z</time>
      </trkpt>
      <trkpt lat="42.217066" lon="2.969887">
        <ele>40</ele>
        <time>1970-01-01T03:02:11.000Z</time>
      </trkpt>
      <trkpt lat="42.217072" lon="2.969843">
        <ele>40</ele>
        <time>1970-01-01T03:02:12.000Z</time>
      </trkpt>
      <trkpt lat="42.217078" lon="2.969799">
        <ele>40</ele>
        <time>1970-01-01T03:02:13.000Z</time>
      </trkpt>
      <trkpt lat="42.217084" lon="2.969755">
        <ele>40</ele>
        <time>1970-01-01T03:02:14.000Z</time>
      </trkpt>
      <trkpt lat="42.21709" lon="2.96971">
        <ele>40</ele>
        <time>1970-01-01T03:02:15.000Z</time>
      </trkpt>
      <trkpt lat="42.217096" lon="2.969666">
        <ele>40</ele>
        <time>1970-01-01T03:02:16.000Z</time>
      </trkpt>
      <trkpt lat="42.217102" lon="2.969622">
        <ele>39</ele>
        <time>1970-01-01T03:02:18.000Z</time>
      </trkpt>
      <trkpt lat="42.217107" lon="2.969515">
        <ele>39</ele>
        <time>1970-01-01T03:02:19.000Z</time>
      </trkpt>
      <trkpt lat="42.217107" lon="2.969461">
        <ele>39</ele>
        <time>1970-01-01T03:02:20.000Z</time>
      </trkpt>
      <trkpt lat="42.217108" lon="2.969407">
        <ele>39</ele>
        <time>1970-01-01T03:02:22.000Z</time>
      </trkpt>
      <trkpt lat="42.217109" lon="2.969353">
        <ele>39</ele>
        <time>1970-01-01T03:02:23.000Z</time>
      </trkpt>
      <trkpt lat="42.217109" lon="2.969299">
        <ele>39</ele>
        <time>1970-01-01T03:02:24.000Z</time>
      </trkpt>
      <trkpt lat="42.21711" lon="2.969245">
        <ele>39</ele>
        <time>1970-01-01T03:02:25.000Z</time>
      </trkpt>
      <trkpt lat="42.21711" lon="2.969191">
        <ele>39</ele>
        <time>1970-01-01T03:02:26.000Z</time>
      </trkpt>
      <trkpt lat="42.217111" lon="2.969137">
        <ele>40</ele>
        <time>1970-01-01T03:02:27.000Z</time>
      </trkpt>
      <trkpt lat="42.217118" lon="2.969024">
        <ele>40</ele>
        <time>1970-01-01T03:02:28.000Z</time>
      </trkpt>
      <trkpt lat="42.217121" lon="2.968966">
        <ele>40</ele>
        <time>1970-01-01T03:02:29.000Z</time>
      </trkpt>
      <trkpt lat="42.217124" lon="2.968908">
        <ele>40</ele>
        <time>1970-01-01T03:02:31.000Z</time>
      </trkpt>
      <trkpt lat="42.217127" lon="2.96885">
        <ele>40</ele>
        <time>1970-01-01T03:02:32.000Z</time>
      </trkpt>
      <trkpt lat="42.21713" lon="2.968792">
        <ele>40</ele>
        <time>1970-01-01T03:02:33.000Z</time>
      </trkpt>
      <trkpt lat="42.217133" lon="2.968734">
        <ele>40</ele>
        <time>1970-01-01T03:02:34.000Z</time>
      </trkpt>
      <trkpt lat="42.217136" lon="2.968676">
        <ele>40</ele>
        <time>1970-01-01T03:02:35.000Z</time>
      </trkpt>
      <trkpt lat="42.217139" lon="2.968618">
        <ele>40</ele>
        <time>1970-01-01T03:02:36.000Z</time>
      </trkpt>
      <trkpt lat="42.217142" lon="2.96856">
        <ele>41</ele>
        <time>1970-01-01T03:02:37.000Z</time>
      </trkpt>
      <trkpt lat="42.217146" lon="2.968438">
        <ele>41</ele>
        <time>1970-01-01T03:02:38.000Z</time>
      </trkpt>
      <trkpt lat="42.217152" lon="2.968381">
        <ele>41</ele>
        <time>1970-01-01T03:02:39.000Z</time>
      </trkpt>
      <trkpt lat="42.217157" lon="2.968323">
        <ele>41</ele>
        <time>1970-01-01T03:02:41.000Z</time>
      </trkpt>
      <trkpt lat="42.217162" lon="2.968265">
        <ele>41</ele>
        <time>1970-01-01T03:02:42.000Z</time>
      </trkpt>
      <trkpt lat="42.217168" lon="2.968208">
        <ele>41</ele>
        <time>1970-01-01T03:02:43.000Z</time>
      </trkpt>
      <trkpt lat="42.217173" lon="2.96815">
        <ele>41</ele>
        <time>1970-01-01T03:02:44.000Z</time>
      </trkpt>
      <trkpt lat="42.217178" lon="2.968092">
        <ele>41</ele>
        <time>1970-01-01T03:02:45.000Z</time>
      </trkpt>
      <trkpt lat="42.217184" lon="2.968035">
        <ele>41</ele>
        <time>1970-01-01T03:02:46.000Z</time>
      </trkpt>
      <trkpt lat="42.217189" lon="2.967977">
        <ele>41</ele>
        <time>1970-01-01T03:02:47.000Z</time>
      </trkpt>
      <trkpt lat="42.217205" lon="2.967861">
        <ele>41</ele>
        <time>1970-01-01T03:02:48.000Z</time>
      </trkpt>
      <trkpt lat="42.217214" lon="2.967803">
        <ele>41</ele>
        <time>1970-01-01T03:02:49.000Z</time>
      </trkpt>
      <trkpt lat="42.217222" lon="2.967744">
        <ele>41</ele>
        <time>1970-01-01T03:02:50.000Z</time>
      </trkpt>
      <trkpt lat="42.217231" lon="2.967686">
        <ele>41</ele>
        <time>1970-01-01T03:02:51.000Z</time>
      </trkpt>
      <trkpt lat="42.21724" lon="2.967628">
        <ele>41</ele>
        <time>1970-01-01T03:02:52.000Z</time>
      </trkpt>
      <trkpt lat="42.217249" lon="2.96757">
        <ele>41</ele>
        <time>1970-01-01T03:02:54.000Z</time>
      </trkpt>
      <trkpt lat="42.217257" lon="2.967511">
        <ele>41</ele>
        <time>1970-01-01T03:02:55.000Z</time>
      </trkpt>
      <trkpt lat="42.217266" lon="2.967453">
        <ele>41</ele>
        <time>1970-01-01T03:02:56.000Z</time>
      </trkpt>
      <trkpt lat="42.217275" lon="2.967395">
        <ele>41</ele>
        <time>1970-01-01T03:02:57.000Z</time>
      </trkpt>
      <trkpt lat="42.217296" lon="2.967267">
        <ele>41</ele>
        <time>1970-01-01T03:02:58.000Z</time>
      </trkpt>
      <trkpt lat="42.217308" lon="2.967199">
        <ele>41</ele>
        <time>1970-01-01T03:03:00.000Z</time>
      </trkpt>
      <trkpt lat="42.21732" lon="2.96713">
        <ele>41</ele>
        <time>1970-01-01T03:03:01.000Z</time>
      </trkpt>
      <trkpt lat="42.217333" lon="2.967062">
        <ele>41</ele>
        <time>1970-01-01T03:03:02.000Z</time>
      </trkpt>
      <trkpt lat="42.217345" lon="2.966993">
        <ele>41</ele>
        <time>1970-01-01T03:03:03.000Z</time>
      </trkpt>
      <trkpt lat="42.217357" lon="2.966924">
        <ele>41</ele>
        <time>1970-01-01T03:03:05.000Z</time>
      </trkpt>
      <trkpt lat="42.217369" lon="2.966856">
        <ele>41</ele>
        <time>1970-01-01T03:03:06.000Z</time>
      </trkpt>
      <trkpt lat="42.217381" lon="2.966787">
        <ele>43</ele>
        <time>1970-01-01T03:03:07.000Z</time>
      </trkpt>
      <trkpt lat="42.217409" lon="2.966659">
        <ele>43</ele>
        <time>1970-01-01T03:03:08.000Z</time>
      </trkpt>
      <trkpt lat="42.217425" lon="2.966594">
        <ele>43</ele>
        <time>1970-01-01T03:03:09.000Z</time>
      </trkpt>
      <trkpt lat="42.21744" lon="2.966529">
        <ele>43</ele>
        <time>1970-01-01T03:03:10.000Z</time>
      </trkpt>
      <trkpt lat="42.217456" lon="2.966464">
        <ele>43</ele>
        <time>1970-01-01T03:03:11.000Z</time>
      </trkpt>
      <trkpt lat="42.217471" lon="2.9664">
        <ele>43</ele>
        <time>1970-01-01T03:03:12.000Z</time>
      </trkpt>
      <trkpt lat="42.217487" lon="2.966335">
        <ele>43</ele>
        <time>1970-01-01T03:03:13.000Z</time>
      </trkpt>
      <trkpt lat="42.217502" lon="2.96627">
        <ele>43</ele>
        <time>1970-01-01T03:03:15.000Z</time>
      </trkpt>
      <trkpt lat="42.217518" lon="2.966205">
        <ele>43</ele>
        <time>1970-01-01T03:03:16.000Z</time>
      </trkpt>
      <trkpt lat="42.217533" lon="2.96614">
        <ele>43</ele>
        <time>1970-01-01T03:03:17.000Z</time>
      </trkpt>
      <trkpt lat="42.217586" lon="2.965947">
        <ele>43</ele>
        <time>1970-01-01T03:03:19.000Z</time>
      </trkpt>
      <trkpt lat="42.217605" lon="2.965882">
        <ele>43</ele>
        <time>1970-01-01T03:03:20.000Z</time>
      </trkpt>
      <trkpt lat="42.217625" lon="2.965817">
        <ele>43</ele>
        <time>1970-01-01T03:03:21.000Z</time>
      </trkpt>
      <trkpt lat="42.217644" lon="2.965753">
        <ele>43</ele>
        <time>1970-01-01T03:03:22.000Z</time>
      </trkpt>
      <trkpt lat="42.217664" lon="2.965688">
        <ele>43</ele>
        <time>1970-01-01T03:03:23.000Z</time>
      </trkpt>
      <trkpt lat="42.217683" lon="2.965623">
        <ele>43</ele>
        <time>1970-01-01T03:03:25.000Z</time>
      </trkpt>
      <trkpt lat="42.217703" lon="2.965558">
        <ele>43</ele>
        <time>1970-01-01T03:03:26.000Z</time>
      </trkpt>
      <trkpt lat="42.217722" lon="2.965493">
        <ele>42</ele>
        <time>1970-01-01T03:03:27.000Z</time>
      </trkpt>
      <trkpt lat="42.217759" lon="2.965365">
        <ele>42</ele>
        <time>1970-01-01T03:03:28.000Z</time>
      </trkpt>
      <trkpt lat="42.217778" lon="2.965302">
        <ele>42</ele>
        <time>1970-01-01T03:03:29.000Z</time>
      </trkpt>
      <trkpt lat="42.217796" lon="2.96524">
        <ele>42</ele>
        <time>1970-01-01T03:03:30.000Z</time>
      </trkpt>
      <trkpt lat="42.217815" lon="2.965177">
        <ele>42</ele>
        <time>1970-01-01T03:03:31.000Z</time>
      </trkpt>
      <trkpt lat="42.217834" lon="2.965115">
        <ele>42</ele>
        <time>1970-01-01T03:03:32.000Z</time>
      </trkpt>
      <trkpt lat="42.217853" lon="2.965052">
        <ele>42</ele>
        <time>1970-01-01T03:03:33.000Z</time>
      </trkpt>
      <trkpt lat="42.217871" lon="2.96499">
        <ele>42</ele>
        <time>1970-01-01T03:03:35.000Z</time>
      </trkpt>
      <trkpt lat="42.21789" lon="2.964927">
        <ele>42</ele>
        <time>1970-01-01T03:03:36.000Z</time>
      </trkpt>
      <trkpt lat="42.217909" lon="2.964865">
        <ele>44</ele>
        <time>1970-01-01T03:03:37.000Z</time>
      </trkpt>
      <trkpt lat="42.217943" lon="2.96475">
        <ele>44</ele>
        <time>1970-01-01T03:03:38.000Z</time>
      </trkpt>
      <trkpt lat="42.217958" lon="2.964695">
        <ele>44</ele>
        <time>1970-01-01T03:03:39.000Z</time>
      </trkpt>
      <trkpt lat="42.217974" lon="2.964641">
        <ele>44</ele>
        <time>1970-01-01T03:03:40.000Z</time>
      </trkpt>
      <trkpt lat="42.217989" lon="2.964586">
        <ele>44</ele>
        <time>1970-01-01T03:03:41.000Z</time>
      </trkpt>
      <trkpt lat="42.218005" lon="2.964532">
        <ele>44</ele>
        <time>1970-01-01T03:03:42.000Z</time>
      </trkpt>
      <trkpt lat="42.21802" lon="2.964477">
        <ele>44</ele>
        <time>1970-01-01T03:03:43.000Z</time>
      </trkpt>
      <trkpt lat="42.218036" lon="2.964423">
        <ele>44</ele>
        <time>1970-01-01T03:03:44.000Z</time>
      </trkpt>
      <trkpt lat="42.218051" lon="2.964368">
        <ele>44</ele>
        <time>1970-01-01T03:03:45.000Z</time>
      </trkpt>
      <trkpt lat="42.218067" lon="2.964314">
        <ele>44</ele>
        <time>1970-01-01T03:03:46.000Z</time>
      </trkpt>
      <trkpt lat="42.218082" lon="2.964259">
        <ele>44</ele>
        <time>1970-01-01T03:03:47.000Z</time>
      </trkpt>
      <trkpt lat="42.21811" lon="2.964134">
        <ele>44</ele>
        <time>1970-01-01T03:03:48.000Z</time>
      </trkpt>
      <trkpt lat="42.218126" lon="2.964071">
        <ele>44</ele>
        <time>1970-01-01T03:03:49.000Z</time>
      </trkpt>
      <trkpt lat="42.218141" lon="2.964007">
        <ele>44</ele>
        <time>1970-01-01T03:03:50.000Z</time>
      </trkpt>
      <trkpt lat="42.218156" lon="2.963944">
        <ele>44</ele>
        <time>1970-01-01T03:03:51.000Z</time>
      </trkpt>
      <trkpt lat="42.218172" lon="2.963881">
        <ele>44</ele>
        <time>1970-01-01T03:03:52.000Z</time>
      </trkpt>
      <trkpt lat="42.218187" lon="2.963818">
        <ele>44</ele>
        <time>1970-01-01T03:03:53.000Z</time>
      </trkpt>
      <trkpt lat="42.218202" lon="2.963754">
        <ele>44</ele>
        <time>1970-01-01T03:03:54.000Z</time>
      </trkpt>
      <trkpt lat="42.218218" lon="2.963691">
        <ele>44</ele>
        <time>1970-01-01T03:03:55.000Z</time>
      </trkpt>
      <trkpt lat="42.218233" lon="2.963628">
        <ele>44</ele>
        <time>1970-01-01T03:03:57.000Z</time>
      </trkpt>
      <trkpt lat="42.218261" lon="2.963498">
        <ele>44</ele>
        <time>1970-01-01T03:03:58.000Z</time>
      </trkpt>
      <trkpt lat="42.218275" lon="2.963433">
        <ele>44</ele>
        <time>1970-01-01T03:03:59.000Z</time>
      </trkpt>
      <trkpt lat="42.218288" lon="2.963367">
        <ele>44</ele>
        <time>1970-01-01T03:04:00.000Z</time>
      </trkpt>
      <trkpt lat="42.218301" lon="2.963302">
        <ele>44</ele>
        <time>1970-01-01T03:04:01.000Z</time>
      </trkpt>
      <trkpt lat="42.218315" lon="2.963237">
        <ele>44</ele>
        <time>1970-01-01T03:04:02.000Z</time>
      </trkpt>
      <trkpt lat="42.218328" lon="2.963172">
        <ele>44</ele>
        <time>1970-01-01T03:04:03.000Z</time>
      </trkpt>
      <trkpt lat="42.218341" lon="2.963106">
        <ele>44</ele>
        <time>1970-01-01T03:04:05.000Z</time>
      </trkpt>
      <trkpt lat="42.218355" lon="2.963041">
        <ele>44</ele>
        <time>1970-01-01T03:04:06.000Z</time>
      </trkpt>
      <trkpt lat="42.218368" lon="2.962976">
        <ele>44</ele>
        <time>1970-01-01T03:04:07.000Z</time>
      </trkpt>
      <trkpt lat="42.218394" lon="2.962848">
        <ele>44</ele>
        <time>1970-01-01T03:04:08.000Z</time>
      </trkpt>
      <trkpt lat="42.218408" lon="2.962784">
        <ele>44</ele>
        <time>1970-01-01T03:04:09.000Z</time>
      </trkpt>
      <trkpt lat="42.218421" lon="2.962721">
        <ele>44</ele>
        <time>1970-01-01T03:04:10.000Z</time>
      </trkpt>
      <trkpt lat="42.218434" lon="2.962657">
        <ele>44</ele>
        <time>1970-01-01T03:04:11.000Z</time>
      </trkpt>
      <trkpt lat="42.218448" lon="2.962594">
        <ele>44</ele>
        <time>1970-01-01T03:04:12.000Z</time>
      </trkpt>
      <trkpt lat="42.218461" lon="2.96253">
        <ele>44</ele>
        <time>1970-01-01T03:04:13.000Z</time>
      </trkpt>
      <trkpt lat="42.218474" lon="2.962467">
        <ele>44</ele>
        <time>1970-01-01T03:04:15.000Z</time>
      </trkpt>
      <trkpt lat="42.218488" lon="2.962403">
        <ele>44</ele>
        <time>1970-01-01T03:04:16.000Z</time>
      </trkpt>
      <trkpt lat="42.218501" lon="2.96234">
        <ele>44</ele>
        <time>1970-01-01T03:04:17.000Z</time>
      </trkpt>
      <trkpt lat="42.218523" lon="2.962216">
        <ele>44</ele>
        <time>1970-01-01T03:04:18.000Z</time>
      </trkpt>
      <trkpt lat="42.218534" lon="2.962153">
        <ele>44</ele>
        <time>1970-01-01T03:04:19.000Z</time>
      </trkpt>
      <trkpt lat="42.218544" lon="2.962091">
        <ele>44</ele>
        <time>1970-01-01T03:04:20.000Z</time>
      </trkpt>
      <trkpt lat="42.218555" lon="2.962028">
        <ele>44</ele>
        <time>1970-01-01T03:04:21.000Z</time>
      </trkpt>
      <trkpt lat="42.218565" lon="2.961966">
        <ele>44</ele>
        <time>1970-01-01T03:04:22.000Z</time>
      </trkpt>
      <trkpt lat="42.218576" lon="2.961903">
        <ele>44</ele>
        <time>1970-01-01T03:04:23.000Z</time>
      </trkpt>
      <trkpt lat="42.218586" lon="2.961841">
        <ele>44</ele>
        <time>1970-01-01T03:04:24.000Z</time>
      </trkpt>
      <trkpt lat="42.218597" lon="2.961778">
        <ele>44</ele>
        <time>1970-01-01T03:04:26.000Z</time>
      </trkpt>
      <trkpt lat="42.218607" lon="2.961716">
        <ele>45</ele>
        <time>1970-01-01T03:04:27.000Z</time>
      </trkpt>
      <trkpt lat="42.218625" lon="2.9616">
        <ele>45</ele>
        <time>1970-01-01T03:04:28.000Z</time>
      </trkpt>
      <trkpt lat="42.218635" lon="2.961541">
        <ele>45</ele>
        <time>1970-01-01T03:04:29.000Z</time>
      </trkpt>
      <trkpt lat="42.218644" lon="2.961482">
        <ele>45</ele>
        <time>1970-01-01T03:04:30.000Z</time>
      </trkpt>
      <trkpt lat="42.218654" lon="2.961423">
        <ele>45</ele>
        <time>1970-01-01T03:04:31.000Z</time>
      </trkpt>
      <trkpt lat="42.218663" lon="2.961363">
        <ele>45</ele>
        <time>1970-01-01T03:04:32.000Z</time>
      </trkpt>
      <trkpt lat="42.218673" lon="2.961304">
        <ele>45</ele>
        <time>1970-01-01T03:04:33.000Z</time>
      </trkpt>
      <trkpt lat="42.218682" lon="2.961245">
        <ele>45</ele>
        <time>1970-01-01T03:04:35.000Z</time>
      </trkpt>
      <trkpt lat="42.218692" lon="2.961186">
        <ele>45</ele>
        <time>1970-01-01T03:04:36.000Z</time>
      </trkpt>
      <trkpt lat="42.218701" lon="2.961127">
        <ele>45</ele>
        <time>1970-01-01T03:04:38.000Z</time>
      </trkpt>
      <trkpt lat="42.21872" lon="2.961015">
        <ele>45</ele>
        <time>1970-01-01T03:04:39.000Z</time>
      </trkpt>
      <trkpt lat="42.21873" lon="2.960961">
        <ele>45</ele>
        <time>1970-01-01T03:04:40.000Z</time>
      </trkpt>
      <trkpt lat="42.218739" lon="2.960908">
        <ele>45</ele>
        <time>1970-01-01T03:04:41.000Z</time>
      </trkpt>
      <trkpt lat="42.218748" lon="2.960854">
        <ele>45</ele>
        <time>1970-01-01T03:04:42.000Z</time>
      </trkpt>
      <trkpt lat="42.218758" lon="2.9608">
        <ele>45</ele>
        <time>1970-01-01T03:04:43.000Z</time>
      </trkpt>
      <trkpt lat="42.218767" lon="2.960746">
        <ele>45</ele>
        <time>1970-01-01T03:04:44.000Z</time>
      </trkpt>
      <trkpt lat="42.218776" lon="2.960693">
        <ele>45</ele>
        <time>1970-01-01T03:04:45.000Z</time>
      </trkpt>
      <trkpt lat="42.218786" lon="2.960639">
        <ele>45</ele>
        <time>1970-01-01T03:04:46.000Z</time>
      </trkpt>
      <trkpt lat="42.218795" lon="2.960585">
        <ele>45</ele>
        <time>1970-01-01T03:04:47.000Z</time>
      </trkpt>
      <trkpt lat="42.218818" lon="2.96047">
        <ele>45</ele>
        <time>1970-01-01T03:04:48.000Z</time>
      </trkpt>
      <trkpt lat="42.218832" lon="2.960415">
        <ele>45</ele>
        <time>1970-01-01T03:04:49.000Z</time>
      </trkpt>
      <trkpt lat="42.218845" lon="2.960361">
        <ele>45</ele>
        <time>1970-01-01T03:04:50.000Z</time>
      </trkpt>
      <trkpt lat="42.218858" lon="2.960306">
        <ele>45</ele>
        <time>1970-01-01T03:04:51.000Z</time>
      </trkpt>
      <trkpt lat="42.218872" lon="2.960252">
        <ele>45</ele>
        <time>1970-01-01T03:04:52.000Z</time>
      </trkpt>
      <trkpt lat="42.218885" lon="2.960197">
        <ele>45</ele>
        <time>1970-01-01T03:04:53.000Z</time>
      </trkpt>
      <trkpt lat="42.218898" lon="2.960143">
        <ele>45</ele>
        <time>1970-01-01T03:04:54.000Z</time>
      </trkpt>
      <trkpt lat="42.218911" lon="2.960088">
        <ele>45</ele>
        <time>1970-01-01T03:04:55.000Z</time>
      </trkpt>
      <trkpt lat="42.218925" lon="2.960034">
        <ele>45</ele>
        <time>1970-01-01T03:04:56.000Z</time>
      </trkpt>
      <trkpt lat="42.218938" lon="2.959979">
        <ele>46</ele>
        <time>1970-01-01T03:04:57.000Z</time>
      </trkpt>
      <trkpt lat="42.218975" lon="2.959867">
        <ele>46</ele>
        <time>1970-01-01T03:04:58.000Z</time>
      </trkpt>
      <trkpt lat="42.218992" lon="2.959814">
        <ele>46</ele>
        <time>1970-01-01T03:04:59.000Z</time>
      </trkpt>
      <trkpt lat="42.219009" lon="2.95976">
        <ele>46</ele>
        <time>1970-01-01T03:05:00.000Z</time>
      </trkpt>
      <trkpt lat="42.219026" lon="2.959707">
        <ele>46</ele>
        <time>1970-01-01T03:05:01.000Z</time>
      </trkpt>
      <trkpt lat="42.219043" lon="2.959654">
        <ele>46</ele>
        <time>1970-01-01T03:05:02.000Z</time>
      </trkpt>
      <trkpt lat="42.21906" lon="2.959601">
        <ele>46</ele>
        <time>1970-01-01T03:05:03.000Z</time>
      </trkpt>
      <trkpt lat="42.219077" lon="2.959548">
        <ele>46</ele>
        <time>1970-01-01T03:05:04.000Z</time>
      </trkpt>
      <trkpt lat="42.219094" lon="2.959494">
        <ele>46</ele>
        <time>1970-01-01T03:05:05.000Z</time>
      </trkpt>
      <trkpt lat="42.219111" lon="2.959441">
        <ele>46</ele>
        <time>1970-01-01T03:05:06.000Z</time>
      </trkpt>
      <trkpt lat="42.219128" lon="2.959388">
        <ele>47</ele>
        <time>1970-01-01T03:05:07.000Z</time>
      </trkpt>
      <trkpt lat="42.21917" lon="2.959267">
        <ele>47</ele>
        <time>1970-01-01T03:05:08.000Z</time>
      </trkpt>
      <trkpt lat="42.219192" lon="2.959202">
        <ele>47</ele>
        <time>1970-01-01T03:05:10.000Z</time>
      </trkpt>
      <trkpt lat="42.219214" lon="2.959138">
        <ele>47</ele>
        <time>1970-01-01T03:05:11.000Z</time>
      </trkpt>
      <trkpt lat="42.219237" lon="2.959073">
        <ele>47</ele>
        <time>1970-01-01T03:05:13.000Z</time>
      </trkpt>
      <trkpt lat="42.219259" lon="2.959009">
        <ele>47</ele>
        <time>1970-01-01T03:05:14.000Z</time>
      </trkpt>
      <trkpt lat="42.219281" lon="2.958944">
        <ele>47</ele>
        <time>1970-01-01T03:05:15.000Z</time>
      </trkpt>
      <trkpt lat="42.219303" lon="2.95888">
        <ele>47</ele>
        <time>1970-01-01T03:05:16.000Z</time>
      </trkpt>
      <trkpt lat="42.219325" lon="2.958815">
        <ele>48</ele>
        <time>1970-01-01T03:05:17.000Z</time>
      </trkpt>
      <trkpt lat="42.219358" lon="2.958703">
        <ele>48</ele>
        <time>1970-01-01T03:05:18.000Z</time>
      </trkpt>
      <trkpt lat="42.219372" lon="2.958648">
        <ele>48</ele>
        <time>1970-01-01T03:05:19.000Z</time>
      </trkpt>
      <trkpt lat="42.219387" lon="2.958594">
        <ele>48</ele>
        <time>1970-01-01T03:05:20.000Z</time>
      </trkpt>
      <trkpt lat="42.219402" lon="2.958539">
        <ele>48</ele>
        <time>1970-01-01T03:05:21.000Z</time>
      </trkpt>
      <trkpt lat="42.219417" lon="2.958485">
        <ele>48</ele>
        <time>1970-01-01T03:05:22.000Z</time>
      </trkpt>
      <trkpt lat="42.219431" lon="2.95843">
        <ele>48</ele>
        <time>1970-01-01T03:05:23.000Z</time>
      </trkpt>
      <trkpt lat="42.219446" lon="2.958376">
        <ele>48</ele>
        <time>1970-01-01T03:05:24.000Z</time>
      </trkpt>
      <trkpt lat="42.219461" lon="2.958321">
        <ele>48</ele>
        <time>1970-01-01T03:05:25.000Z</time>
      </trkpt>
      <trkpt lat="42.219475" lon="2.958267">
        <ele>48</ele>
        <time>1970-01-01T03:05:26.000Z</time>
      </trkpt>
      <trkpt lat="42.21949" lon="2.958212">
        <ele>48</ele>
        <time>1970-01-01T03:05:27.000Z</time>
      </trkpt>
      <trkpt lat="42.219515" lon="2.958081">
        <ele>48</ele>
        <time>1970-01-01T03:05:28.000Z</time>
      </trkpt>
      <trkpt lat="42.219528" lon="2.958014">
        <ele>48</ele>
        <time>1970-01-01T03:05:29.000Z</time>
      </trkpt>
      <trkpt lat="42.21954" lon="2.957948">
        <ele>48</ele>
        <time>1970-01-01T03:05:31.000Z</time>
      </trkpt>
      <trkpt lat="42.219552" lon="2.957881">
        <ele>48</ele>
        <time>1970-01-01T03:05:32.000Z</time>
      </trkpt>
      <trkpt lat="42.219565" lon="2.957814">
        <ele>48</ele>
        <time>1970-01-01T03:05:33.000Z</time>
      </trkpt>
      <trkpt lat="42.219577" lon="2.957747">
        <ele>48</ele>
        <time>1970-01-01T03:05:34.000Z</time>
      </trkpt>
      <trkpt lat="42.219589" lon="2.957681">
        <ele>48</ele>
        <time>1970-01-01T03:05:35.000Z</time>
      </trkpt>
      <trkpt lat="42.219602" lon="2.957614">
        <ele>48</ele>
        <time>1970-01-01T03:05:36.000Z</time>
      </trkpt>
      <trkpt lat="42.219614" lon="2.957547">
        <ele>48</ele>
        <time>1970-01-01T03:05:37.000Z</time>
      </trkpt>
      <trkpt lat="42.21964" lon="2.957411">
        <ele>48</ele>
        <time>1970-01-01T03:05:38.000Z</time>
      </trkpt>
      <trkpt lat="42.219652" lon="2.957343">
        <ele>48</ele>
        <time>1970-01-01T03:05:39.000Z</time>
      </trkpt>
      <trkpt lat="42.219665" lon="2.957275">
        <ele>48</ele>
        <time>1970-01-01T03:05:41.000Z</time>
      </trkpt>
      <trkpt lat="42.219677" lon="2.957207">
        <ele>48</ele>
        <time>1970-01-01T03:05:42.000Z</time>
      </trkpt>
      <trkpt lat="42.21969" lon="2.957139">
        <ele>48</ele>
        <time>1970-01-01T03:05:43.000Z</time>
      </trkpt>
      <trkpt lat="42.219702" lon="2.957071">
        <ele>48</ele>
        <time>1970-01-01T03:05:44.000Z</time>
      </trkpt>
      <trkpt lat="42.219715" lon="2.957003">
        <ele>48</ele>
        <time>1970-01-01T03:05:45.000Z</time>
      </trkpt>
      <trkpt lat="42.219727" lon="2.956935">
        <ele>48</ele>
        <time>1970-01-01T03:05:46.000Z</time>
      </trkpt>
      <trkpt lat="42.21974" lon="2.956867">
        <ele>49</ele>
        <time>1970-01-01T03:05:47.000Z</time>
      </trkpt>
      <trkpt lat="42.219768" lon="2.956732">
        <ele>49</ele>
        <time>1970-01-01T03:05:48.000Z</time>
      </trkpt>
      <trkpt lat="42.219784" lon="2.956664">
        <ele>49</ele>
        <time>1970-01-01T03:05:50.000Z</time>
      </trkpt>
      <trkpt lat="42.219801" lon="2.956595">
        <ele>49</ele>
        <time>1970-01-01T03:05:51.000Z</time>
      </trkpt>
      <trkpt lat="42.219817" lon="2.956527">
        <ele>49</ele>
        <time>1970-01-01T03:05:52.000Z</time>
      </trkpt>
      <trkpt lat="42.219833" lon="2.956459">
        <ele>49</ele>
        <time>1970-01-01T03:05:53.000Z</time>
      </trkpt>
      <trkpt lat="42.219849" lon="2.956391">
        <ele>49</ele>
        <time>1970-01-01T03:05:54.000Z</time>
      </trkpt>
      <trkpt lat="42.219866" lon="2.956322">
        <ele>49</ele>
        <time>1970-01-01T03:05:55.000Z</time>
      </trkpt>
      <trkpt lat="42.219882" lon="2.956254">
        <ele>49</ele>
        <time>1970-01-01T03:05:56.000Z</time>
      </trkpt>
      <trkpt lat="42.219898" lon="2.956186">
        <ele>49</ele>
        <time>1970-01-01T03:05:57.000Z</time>
      </trkpt>
      <trkpt lat="42.219954" lon="2.956062">
        <ele>49</ele>
        <time>1970-01-01T03:05:58.000Z</time>
      </trkpt>
      <trkpt lat="42.219987" lon="2.956006">
        <ele>49</ele>
        <time>1970-01-01T03:05:59.000Z</time>
      </trkpt>
      <trkpt lat="42.220019" lon="2.95595">
        <ele>49</ele>
        <time>1970-01-01T03:06:00.000Z</time>
      </trkpt>
      <trkpt lat="42.220052" lon="2.955894">
        <ele>49</ele>
        <time>1970-01-01T03:06:01.000Z</time>
      </trkpt>
      <trkpt lat="42.220085" lon="2.955838">
        <ele>49</ele>
        <time>1970-01-01T03:06:02.000Z</time>
      </trkpt>
      <trkpt lat="42.220118" lon="2.955781">
        <ele>49</ele>
        <time>1970-01-01T03:06:03.000Z</time>
      </trkpt>
      <trkpt lat="42.220151" lon="2.955725">
        <ele>49</ele>
        <time>1970-01-01T03:06:04.000Z</time>
      </trkpt>
      <trkpt lat="42.220183" lon="2.955669">
        <ele>49</ele>
        <time>1970-01-01T03:06:05.000Z</time>
      </trkpt>
      <trkpt lat="42.220216" lon="2.955613">
        <ele>49</ele>
        <time>1970-01-01T03:06:06.000Z</time>
      </trkpt>
      <trkpt lat="42.220249" lon="2.955557">
        <ele>49</ele>
        <time>1970-01-01T03:06:07.000Z</time>
      </trkpt>
      <trkpt lat="42.220313" lon="2.955395">
        <ele>49</ele>
        <time>1970-01-01T03:06:08.000Z</time>
      </trkpt>
      <trkpt lat="42.220336" lon="2.9553">
        <ele>49</ele>
        <time>1970-01-01T03:06:09.000Z</time>
      </trkpt>
      <trkpt lat="42.220358" lon="2.955205">
        <ele>49</ele>
        <time>1970-01-01T03:06:10.000Z</time>
      </trkpt>
      <trkpt lat="42.220381" lon="2.95511">
        <ele>49</ele>
        <time>1970-01-01T03:06:11.000Z</time>
      </trkpt>
      <trkpt lat="42.220403" lon="2.955014">
        <ele>49</ele>
        <time>1970-01-01T03:06:12.000Z</time>
      </trkpt>
      <trkpt lat="42.220426" lon="2.954919">
        <ele>49</ele>
        <time>1970-01-01T03:06:13.000Z</time>
      </trkpt>
      <trkpt lat="42.220448" lon="2.954824">
        <ele>49</ele>
        <time>1970-01-01T03:06:15.000Z</time>
      </trkpt>
      <trkpt lat="42.220471" lon="2.954729">
        <ele>49</ele>
        <time>1970-01-01T03:06:16.000Z</time>
      </trkpt>
      <trkpt lat="42.220493" lon="2.954634">
        <ele>48</ele>
        <time>1970-01-01T03:06:17.000Z</time>
      </trkpt>
      <trkpt lat="42.220533" lon="2.954323">
        <ele>48</ele>
        <time>1970-01-01T03:06:19.000Z</time>
      </trkpt>
      <trkpt lat="42.220546" lon="2.954218">
        <ele>48</ele>
        <time>1970-01-01T03:06:20.000Z</time>
      </trkpt>
      <trkpt lat="42.220558" lon="2.954113">
        <ele>48</ele>
        <time>1970-01-01T03:06:22.000Z</time>
      </trkpt>
      <trkpt lat="42.22057" lon="2.954007">
        <ele>48</ele>
        <time>1970-01-01T03:06:23.000Z</time>
      </trkpt>
      <trkpt lat="42.220582" lon="2.953902">
        <ele>48</ele>
        <time>1970-01-01T03:06:25.000Z</time>
      </trkpt>
      <trkpt lat="42.220595" lon="2.953797">
        <ele>48</ele>
        <time>1970-01-01T03:06:26.000Z</time>
      </trkpt>
      <trkpt lat="42.220607" lon="2.953692">
        <ele>48</ele>
        <time>1970-01-01T03:06:27.000Z</time>
      </trkpt>
      <trkpt lat="42.220623" lon="2.953536">
        <ele>48</ele>
        <time>1970-01-01T03:06:28.000Z</time>
      </trkpt>
      <trkpt lat="42.220634" lon="2.953424">
        <ele>48</ele>
        <time>1970-01-01T03:06:29.000Z</time>
      </trkpt>
      <trkpt lat="42.220645" lon="2.953313">
        <ele>48</ele>
        <time>1970-01-01T03:06:30.000Z</time>
      </trkpt>
      <trkpt lat="42.220657" lon="2.953202">
        <ele>48</ele>
        <time>1970-01-01T03:06:32.000Z</time>
      </trkpt>
      <trkpt lat="42.220668" lon="2.953091">
        <ele>48</ele>
        <time>1970-01-01T03:06:33.000Z</time>
      </trkpt>
      <trkpt lat="42.220679" lon="2.952979">
        <ele>48</ele>
        <time>1970-01-01T03:06:35.000Z</time>
      </trkpt>
      <trkpt lat="42.22069" lon="2.952868">
        <ele>48</ele>
        <time>1970-01-01T03:06:37.000Z</time>
      </trkpt>
      <trkpt lat="42.220701" lon="2.952721">
        <ele>48</ele>
        <time>1970-01-01T03:06:38.000Z</time>
      </trkpt>
      <trkpt lat="42.220708" lon="2.952642">
        <ele>48</ele>
        <time>1970-01-01T03:06:40.000Z</time>
      </trkpt>
      <trkpt lat="42.220714" lon="2.952563">
        <ele>48</ele>
        <time>1970-01-01T03:06:41.000Z</time>
      </trkpt>
      <trkpt lat="42.220721" lon="2.952483">
        <ele>48</ele>
        <time>1970-01-01T03:06:43.000Z</time>
      </trkpt>
      <trkpt lat="42.220727" lon="2.952404">
        <ele>48</ele>
        <time>1970-01-01T03:06:44.000Z</time>
      </trkpt>
      <trkpt lat="42.220734" lon="2.952325">
        <ele>48</ele>
        <time>1970-01-01T03:06:46.000Z</time>
      </trkpt>
      <trkpt lat="42.22074" lon="2.952246">
        <ele>50</ele>
        <time>1970-01-01T03:06:47.000Z</time>
      </trkpt>
      <trkpt lat="42.220754" lon="2.952093">
        <ele>50</ele>
        <time>1970-01-01T03:06:48.000Z</time>
      </trkpt>
      <trkpt lat="42.220758" lon="2.952037">
        <ele>50</ele>
        <time>1970-01-01T03:06:49.000Z</time>
      </trkpt>
      <trkpt lat="42.220763" lon="2.95198">
        <ele>50</ele>
        <time>1970-01-01T03:06:50.000Z</time>
      </trkpt>
      <trkpt lat="42.220767" lon="2.951924">
        <ele>50</ele>
        <time>1970-01-01T03:06:51.000Z</time>
      </trkpt>
      <trkpt lat="42.220772" lon="2.951868">
        <ele>50</ele>
        <time>1970-01-01T03:06:52.000Z</time>
      </trkpt>
      <trkpt lat="42.220777" lon="2.951812">
        <ele>50</ele>
        <time>1970-01-01T03:06:53.000Z</time>
      </trkpt>
      <trkpt lat="42.220781" lon="2.951756">
        <ele>50</ele>
        <time>1970-01-01T03:06:54.000Z</time>
      </trkpt>
      <trkpt lat="42.220786" lon="2.951699">
        <ele>50</ele>
        <time>1970-01-01T03:06:55.000Z</time>
      </trkpt>
      <trkpt lat="42.22079" lon="2.951643">
        <ele>50</ele>
        <time>1970-01-01T03:06:56.000Z</time>
      </trkpt>
      <trkpt lat="42.220795" lon="2.951587">
        <ele>52</ele>
        <time>1970-01-01T03:06:57.000Z</time>
      </trkpt>
      <trkpt lat="42.220821" lon="2.951491">
        <ele>52</ele>
        <time>1970-01-01T03:06:58.000Z</time>
      </trkpt>
      <trkpt lat="42.22084" lon="2.951457">
        <ele>52</ele>
        <time>1970-01-01T03:06:59.000Z</time>
      </trkpt>
      <trkpt lat="42.22086" lon="2.951424">
        <ele>52</ele>
        <time>1970-01-01T03:07:00.000Z</time>
      </trkpt>
      <trkpt lat="42.220879" lon="2.951391">
        <ele>52</ele>
        <time>1970-01-01T03:07:01.000Z</time>
      </trkpt>
      <trkpt lat="42.220899" lon="2.951358">
        <ele>52</ele>
        <time>1970-01-01T03:07:02.000Z</time>
      </trkpt>
      <trkpt lat="42.220918" lon="2.951324">
        <ele>52</ele>
        <time>1970-01-01T03:07:03.000Z</time>
      </trkpt>
      <trkpt lat="42.220938" lon="2.951291">
        <ele>52</ele>
        <time>1970-01-01T03:07:04.000Z</time>
      </trkpt>
      <trkpt lat="42.220957" lon="2.951258">
        <ele>52</ele>
        <time>1970-01-01T03:07:05.000Z</time>
      </trkpt>
      <trkpt lat="42.220977" lon="2.951224">
        <ele>52</ele>
        <time>1970-01-01T03:07:06.000Z</time>
      </trkpt>
      <trkpt lat="42.220996" lon="2.951191">
        <ele>52</ele>
        <time>1970-01-01T03:07:07.000Z</time>
      </trkpt>
      <trkpt lat="42.221076" lon="2.951212">
        <ele>52</ele>
        <time>1970-01-01T03:07:08.000Z</time>
      </trkpt>
      <trkpt lat="42.221121" lon="2.951232">
        <ele>52</ele>
        <time>1970-01-01T03:07:09.000Z</time>
      </trkpt>
      <trkpt lat="42.221165" lon="2.951251">
        <ele>52</ele>
        <time>1970-01-01T03:07:10.000Z</time>
      </trkpt>
      <trkpt lat="42.221209" lon="2.951271">
        <ele>52</ele>
        <time>1970-01-01T03:07:11.000Z</time>
      </trkpt>
      <trkpt lat="42.221254" lon="2.95129">
        <ele>52</ele>
        <time>1970-01-01T03:07:12.000Z</time>
      </trkpt>
      <trkpt lat="42.221298" lon="2.95131">
        <ele>52</ele>
        <time>1970-01-01T03:07:13.000Z</time>
      </trkpt>
      <trkpt lat="42.221342" lon="2.951329">
        <ele>52</ele>
        <time>1970-01-01T03:07:14.000Z</time>
      </trkpt>
      <trkpt lat="42.221386" lon="2.951349">
        <ele>52</ele>
        <time>1970-01-01T03:07:15.000Z</time>
      </trkpt>
      <trkpt lat="42.221431" lon="2.951368">
        <ele>52</ele>
        <time>1970-01-01T03:07:16.000Z</time>
      </trkpt>
      <trkpt lat="42.221475" lon="2.951388">
        <ele>53</ele>
        <time>1970-01-01T03:07:17.000Z</time>
      </trkpt>
      <trkpt lat="42.22159" lon="2.951447">
        <ele>53</ele>
        <time>1970-01-01T03:07:18.000Z</time>
      </trkpt>
      <trkpt lat="42.22165" lon="2.951479">
        <ele>53</ele>
        <time>1970-01-01T03:07:20.000Z</time>
      </trkpt>
      <trkpt lat="42.221711" lon="2.951512">
        <ele>53</ele>
        <time>1970-01-01T03:07:21.000Z</time>
      </trkpt>
      <trkpt lat="42.221772" lon="2.951544">
        <ele>53</ele>
        <time>1970-01-01T03:07:22.000Z</time>
      </trkpt>
      <trkpt lat="42.221832" lon="2.951576">
        <ele>53</ele>
        <time>1970-01-01T03:07:23.000Z</time>
      </trkpt>
      <trkpt lat="42.221893" lon="2.951608">
        <ele>53</ele>
        <time>1970-01-01T03:07:24.000Z</time>
      </trkpt>
      <trkpt lat="42.221953" lon="2.951641">
        <ele>53</ele>
        <time>1970-01-01T03:07:26.000Z</time>
      </trkpt>
      <trkpt lat="42.222014" lon="2.951673">
        <ele>53</ele>
        <time>1970-01-01T03:07:27.000Z</time>
      </trkpt>
      <trkpt lat="42.222089" lon="2.951725">
        <ele>53</ele>
        <time>1970-01-01T03:07:28.000Z</time>
      </trkpt>
      <trkpt lat="42.222119" lon="2.951748">
        <ele>53</ele>
        <time>1970-01-01T03:07:29.000Z</time>
      </trkpt>
      <trkpt lat="42.222148" lon="2.95177">
        <ele>53</ele>
        <time>1970-01-01T03:07:30.000Z</time>
      </trkpt>
      <trkpt lat="42.222178" lon="2.951792">
        <ele>53</ele>
        <time>1970-01-01T03:07:31.000Z</time>
      </trkpt>
      <trkpt lat="42.222207" lon="2.951815">
        <ele>53</ele>
        <time>1970-01-01T03:07:32.000Z</time>
      </trkpt>
      <trkpt lat="42.222237" lon="2.951837">
        <ele>53</ele>
        <time>1970-01-01T03:07:33.000Z</time>
      </trkpt>
      <trkpt lat="42.222266" lon="2.951859">
        <ele>53</ele>
        <time>1970-01-01T03:07:34.000Z</time>
      </trkpt>
      <trkpt lat="42.222296" lon="2.951882">
        <ele>53</ele>
        <time>1970-01-01T03:07:35.000Z</time>
      </trkpt>
      <trkpt lat="42.222325" lon="2.951904">
        <ele>52</ele>
        <time>1970-01-01T03:07:37.000Z</time>
      </trkpt>
      <trkpt lat="42.222286" lon="2.951871">
        <ele>52</ele>
        <time>1970-01-01T03:07:43.000Z</time>
      </trkpt>
      <trkpt lat="42.222246" lon="2.951842">
        <ele>52</ele>
        <time>1970-01-01T03:07:55.000Z</time>
      </trkpt>
      <trkpt lat="42.222207" lon="2.951814">
        <ele>52</ele>
        <time>1970-01-01T03:07:56.000Z</time>
      </trkpt>
      <trkpt lat="42.222167" lon="2.951785">
        <ele>52</ele>
        <time>1970-01-01T03:07:57.000Z</time>
      </trkpt>
      <trkpt lat="42.222128" lon="2.951757">
        <ele>52</ele>
        <time>1970-01-01T03:07:59.000Z</time>
      </trkpt>
      <trkpt lat="42.222088" lon="2.951728">
        <ele>52</ele>
        <time>1970-01-01T03:08:00.000Z</time>
      </trkpt>
      <trkpt lat="42.222049" lon="2.9517">
        <ele>52</ele>
        <time>1970-01-01T03:08:01.000Z</time>
      </trkpt>
      <trkpt lat="42.222009" lon="2.951671">
        <ele>52</ele>
        <time>1970-01-01T03:08:03.000Z</time>
      </trkpt>
      <trkpt lat="42.22197" lon="2.951643">
        <ele>52</ele>
        <time>1970-01-01T03:08:04.000Z</time>
      </trkpt>
      <trkpt lat="42.221869" lon="2.951604">
        <ele>52</ele>
        <time>1970-01-01T03:08:06.000Z</time>
      </trkpt>
      <trkpt lat="42.221852" lon="2.951613">
        <ele>52</ele>
        <time>1970-01-01T03:08:07.000Z</time>
      </trkpt>
      <trkpt lat="42.221835" lon="2.951621">
        <ele>52</ele>
        <time>1970-01-01T03:08:09.000Z</time>
      </trkpt>
      <trkpt lat="42.221817" lon="2.951629">
        <ele>52</ele>
        <time>1970-01-01T03:08:10.000Z</time>
      </trkpt>
      <trkpt lat="42.2218" lon="2.951637">
        <ele>52</ele>
        <time>1970-01-01T03:08:12.000Z</time>
      </trkpt>
      <trkpt lat="42.221783" lon="2.951646">
        <ele>52</ele>
        <time>1970-01-01T03:08:13.000Z</time>
      </trkpt>
      <trkpt lat="42.221766" lon="2.951654">
        <ele>52</ele>
        <time>1970-01-01T03:08:14.000Z</time>
      </trkpt>
      <trkpt lat="42.221804" lon="2.951697">
        <ele>52</ele>
        <time>1970-01-01T03:08:21.000Z</time>
      </trkpt>
      <trkpt lat="42.221833" lon="2.951733">
        <ele>52</ele>
        <time>1970-01-01T03:08:47.000Z</time>
      </trkpt>
      <trkpt lat="42.221862" lon="2.951768">
        <ele>52</ele>
        <time>1970-01-01T03:08:48.000Z</time>
      </trkpt>
      <trkpt lat="42.221891" lon="2.951804">
        <ele>52</ele>
        <time>1970-01-01T03:08:49.000Z</time>
      </trkpt>
      <trkpt lat="42.22192" lon="2.951839">
        <ele>52</ele>
        <time>1970-01-01T03:08:50.000Z</time>
      </trkpt>
      <trkpt lat="42.22195" lon="2.951875">
        <ele>52</ele>
        <time>1970-01-01T03:08:51.000Z</time>
      </trkpt>
      <trkpt lat="42.221979" lon="2.95191">
        <ele>52</ele>
        <time>1970-01-01T03:08:52.000Z</time>
      </trkpt>
      <trkpt lat="42.222008" lon="2.951946">
        <ele>52</ele>
        <time>1970-01-01T03:08:53.000Z</time>
      </trkpt>
      <trkpt lat="42.222037" lon="2.951981">
        <ele>52</ele>
        <time>1970-01-01T03:08:54.000Z</time>
      </trkpt>
      <trkpt lat="42.222066" lon="2.952017">
        <ele>52</ele>
        <time>1970-01-01T03:08:55.000Z</time>
      </trkpt>
      <trkpt lat="42.222095" lon="2.952052">
        <ele>51</ele>
        <time>1970-01-01T03:08:56.000Z</time>
      </trkpt>
      <trkpt lat="42.22212" lon="2.952092">
        <ele>51</ele>
        <time>1970-01-01T03:08:57.000Z</time>
      </trkpt>
      <trkpt lat="42.222157" lon="2.952146">
        <ele>51</ele>
        <time>1970-01-01T03:08:59.000Z</time>
      </trkpt>
      <trkpt lat="42.222171" lon="2.952168">
        <ele>51</ele>
        <time>1970-01-01T03:09:00.000Z</time>
      </trkpt>
      <trkpt lat="42.222182" lon="2.952189">
        <ele>51</ele>
        <time>1970-01-01T03:09:01.000Z</time>
      </trkpt>
      <trkpt lat="42.222198" lon="2.952218">
        <ele>51</ele>
        <time>1970-01-01T03:09:03.000Z</time>
      </trkpt>
      <trkpt lat="42.222198" lon="2.952218">
        <ele>52</ele>
        <time>1970-01-01T03:09:07.000Z</time>
      </trkpt>
      <trkpt lat="42.22224" lon="2.952279">
        <ele>52</ele>
        <time>1970-01-01T03:09:10.000Z</time>
      </trkpt>
      <trkpt lat="42.222281" lon="2.95234">
        <ele>51</ele>
        <time>1970-01-01T03:09:49.000Z</time>
      </trkpt>
      <trkpt lat="42.222323" lon="2.952401">
        <ele>51</ele>
        <time>1970-01-01T03:09:50.000Z</time>
      </trkpt>
      <trkpt lat="42.222364" lon="2.952462">
        <ele>51</ele>
        <time>1970-01-01T03:09:51.000Z</time>
      </trkpt>
      <trkpt lat="42.222406" lon="2.952522">
        <ele>51</ele>
        <time>1970-01-01T03:09:52.000Z</time>
      </trkpt>
      <trkpt lat="42.222448" lon="2.952583">
        <ele>51</ele>
        <time>1970-01-01T03:09:53.000Z</time>
      </trkpt>
      <trkpt lat="42.222489" lon="2.952644">
        <ele>51</ele>
        <time>1970-01-01T03:09:54.000Z</time>
      </trkpt>
      <trkpt lat="42.222531" lon="2.952705">
        <ele>51</ele>
        <time>1970-01-01T03:09:55.000Z</time>
      </trkpt>
      <trkpt lat="42.222572" lon="2.952766">
        <ele>51</ele>
        <time>1970-01-01T03:09:56.000Z</time>
      </trkpt>
      <trkpt lat="42.222614" lon="2.952827">
        <ele>50</ele>
        <time>1970-01-01T03:09:58.000Z</time>
      </trkpt>
      <trkpt lat="42.222759" lon="2.952916">
        <ele>50</ele>
        <time>1970-01-01T03:09:59.000Z</time>
      </trkpt>
      <trkpt lat="42.222848" lon="2.952939">
        <ele>50</ele>
        <time>1970-01-01T03:10:01.000Z</time>
      </trkpt>
      <trkpt lat="42.222938" lon="2.952961">
        <ele>50</ele>
        <time>1970-01-01T03:10:02.000Z</time>
      </trkpt>
      <trkpt lat="42.223028" lon="2.952984">
        <ele>50</ele>
        <time>1970-01-01T03:10:04.000Z</time>
      </trkpt>
      <trkpt lat="42.223117" lon="2.953006">
        <ele>50</ele>
        <time>1970-01-01T03:10:05.000Z</time>
      </trkpt>
      <trkpt lat="42.223207" lon="2.953029">
        <ele>50</ele>
        <time>1970-01-01T03:10:06.000Z</time>
      </trkpt>
      <trkpt lat="42.223296" lon="2.953051">
        <ele>50</ele>
        <time>1970-01-01T03:10:07.000Z</time>
      </trkpt>
      <trkpt lat="42.223386" lon="2.953074">
        <ele>48</ele>
        <time>1970-01-01T03:10:09.000Z</time>
      </trkpt>
      <trkpt lat="42.223516" lon="2.953031">
        <ele>48</ele>
        <time>1970-01-01T03:10:10.000Z</time>
      </trkpt>
      <trkpt lat="42.223576" lon="2.953003">
        <ele>48</ele>
        <time>1970-01-01T03:10:11.000Z</time>
      </trkpt>
      <trkpt lat="42.223636" lon="2.952974">
        <ele>48</ele>
        <time>1970-01-01T03:10:12.000Z</time>
      </trkpt>
      <trkpt lat="42.223696" lon="2.952946">
        <ele>48</ele>
        <time>1970-01-01T03:10:13.000Z</time>
      </trkpt>
      <trkpt lat="42.223756" lon="2.952917">
        <ele>48</ele>
        <time>1970-01-01T03:10:14.000Z</time>
      </trkpt>
      <trkpt lat="42.223816" lon="2.952889">
        <ele>48</ele>
        <time>1970-01-01T03:10:15.000Z</time>
      </trkpt>
      <trkpt lat="42.223876" lon="2.95286">
        <ele>48</ele>
        <time>1970-01-01T03:10:16.000Z</time>
      </trkpt>
      <trkpt lat="42.223936" lon="2.952832">
        <ele>48</ele>
        <time>1970-01-01T03:10:17.000Z</time>
      </trkpt>
      <trkpt lat="42.223996" lon="2.952803">
        <ele>46</ele>
        <time>1970-01-01T03:10:19.000Z</time>
      </trkpt>
      <trkpt lat="42.22411" lon="2.952742">
        <ele>46</ele>
        <time>1970-01-01T03:10:20.000Z</time>
      </trkpt>
      <trkpt lat="42.224166" lon="2.95271">
        <ele>46</ele>
        <time>1970-01-01T03:10:21.000Z</time>
      </trkpt>
      <trkpt lat="42.224223" lon="2.952679">
        <ele>46</ele>
        <time>1970-01-01T03:10:22.000Z</time>
      </trkpt>
      <trkpt lat="42.224279" lon="2.952648">
        <ele>46</ele>
        <time>1970-01-01T03:10:23.000Z</time>
      </trkpt>
      <trkpt lat="42.224336" lon="2.952616">
        <ele>46</ele>
        <time>1970-01-01T03:10:24.000Z</time>
      </trkpt>
      <trkpt lat="42.224392" lon="2.952585">
        <ele>46</ele>
        <time>1970-01-01T03:10:25.000Z</time>
      </trkpt>
      <trkpt lat="42.224449" lon="2.952553">
        <ele>46</ele>
        <time>1970-01-01T03:10:27.000Z</time>
      </trkpt>
      <trkpt lat="42.224505" lon="2.952522">
        <ele>46</ele>
        <time>1970-01-01T03:10:28.000Z</time>
      </trkpt>
      <trkpt lat="42.224596" lon="2.952478">
        <ele>46</ele>
        <time>1970-01-01T03:10:29.000Z</time>
      </trkpt>
      <trkpt lat="42.224634" lon="2.952467">
        <ele>46</ele>
        <time>1970-01-01T03:10:30.000Z</time>
      </trkpt>
      <trkpt lat="42.224673" lon="2.952455">
        <ele>46</ele>
        <time>1970-01-01T03:10:31.000Z</time>
      </trkpt>
      <trkpt lat="42.224711" lon="2.952443">
        <ele>46</ele>
        <time>1970-01-01T03:10:32.000Z</time>
      </trkpt>
      <trkpt lat="42.22475" lon="2.952432">
        <ele>46</ele>
        <time>1970-01-01T03:10:33.000Z</time>
      </trkpt>
      <trkpt lat="42.224788" lon="2.95242">
        <ele>46</ele>
        <time>1970-01-01T03:10:34.000Z</time>
      </trkpt>
      <trkpt lat="42.224827" lon="2.952408">
        <ele>46</ele>
        <time>1970-01-01T03:10:36.000Z</time>
      </trkpt>
      <trkpt lat="42.224865" lon="2.952397">
        <ele>46</ele>
        <time>1970-01-01T03:10:37.000Z</time>
      </trkpt>
      <trkpt lat="42.224904" lon="2.952385">
        <ele>46</ele>
        <time>1970-01-01T03:10:38.000Z</time>
      </trkpt>
      <trkpt lat="42.224932" lon="2.952407">
        <ele>46</ele>
        <time>1970-01-01T03:10:39.000Z</time>
      </trkpt>
      <trkpt lat="42.224947" lon="2.952423">
        <ele>46</ele>
        <time>1970-01-01T03:10:41.000Z</time>
      </trkpt>
      <trkpt lat="42.224962" lon="2.952438">
        <ele>46</ele>
        <time>1970-01-01T03:10:43.000Z</time>
      </trkpt>
      <trkpt lat="42.224977" lon="2.952454">
        <ele>46</ele>
        <time>1970-01-01T03:10:45.000Z</time>
      </trkpt>
      <trkpt lat="42.224992" lon="2.952469">
        <ele>46</ele>
        <time>1970-01-01T03:10:47.000Z</time>
      </trkpt>
      <trkpt lat="42.225007" lon="2.952485">
        <ele>47</ele>
        <time>1970-01-01T03:10:48.000Z</time>
      </trkpt>
      <trkpt lat="42.225047" lon="2.952505">
        <ele>47</ele>
        <time>1970-01-01T03:10:49.000Z</time>
      </trkpt>
      <trkpt lat="42.225081" lon="2.952516">
        <ele>47</ele>
        <time>1970-01-01T03:10:51.000Z</time>
      </trkpt>
      <trkpt lat="42.225114" lon="2.952526">
        <ele>47</ele>
        <time>1970-01-01T03:10:52.000Z</time>
      </trkpt>
      <trkpt lat="42.225147" lon="2.952537">
        <ele>47</ele>
        <time>1970-01-01T03:10:53.000Z</time>
      </trkpt>
      <trkpt lat="42.225181" lon="2.952547">
        <ele>47</ele>
        <time>1970-01-01T03:10:54.000Z</time>
      </trkpt>
      <trkpt lat="42.225214" lon="2.952558">
        <ele>47</ele>
        <time>1970-01-01T03:10:55.000Z</time>
      </trkpt>
      <trkpt lat="42.225247" lon="2.952568">
        <ele>47</ele>
        <time>1970-01-01T03:10:56.000Z</time>
      </trkpt>
      <trkpt lat="42.225281" lon="2.952579">
        <ele>47</ele>
        <time>1970-01-01T03:10:57.000Z</time>
      </trkpt>
      <trkpt lat="42.225314" lon="2.952589">
        <ele>47</ele>
        <time>1970-01-01T03:10:58.000Z</time>
      </trkpt>
      <trkpt lat="42.225393" lon="2.952541">
        <ele>47</ele>
        <time>1970-01-01T03:10:59.000Z</time>
      </trkpt>
      <trkpt lat="42.225424" lon="2.952496">
        <ele>47</ele>
        <time>1970-01-01T03:11:00.000Z</time>
      </trkpt>
      <trkpt lat="42.225456" lon="2.952452">
        <ele>47</ele>
        <time>1970-01-01T03:11:01.000Z</time>
      </trkpt>
      <trkpt lat="42.225487" lon="2.952408">
        <ele>47</ele>
        <time>1970-01-01T03:11:02.000Z</time>
      </trkpt>
      <trkpt lat="42.225519" lon="2.952364">
        <ele>47</ele>
        <time>1970-01-01T03:11:03.000Z</time>
      </trkpt>
      <trkpt lat="42.225551" lon="2.952319">
        <ele>47</ele>
        <time>1970-01-01T03:11:04.000Z</time>
      </trkpt>
      <trkpt lat="42.225582" lon="2.952275">
        <ele>47</ele>
        <time>1970-01-01T03:11:05.000Z</time>
      </trkpt>
      <trkpt lat="42.225614" lon="2.952231">
        <ele>47</ele>
        <time>1970-01-01T03:11:06.000Z</time>
      </trkpt>
      <trkpt lat="42.225645" lon="2.952186">
        <ele>47</ele>
        <time>1970-01-01T03:11:07.000Z</time>
      </trkpt>
      <trkpt lat="42.225677" lon="2.952142">
        <ele>47</ele>
        <time>1970-01-01T03:11:08.000Z</time>
      </trkpt>
      <trkpt lat="42.22566" lon="2.952007">
        <ele>47</ele>
        <time>1970-01-01T03:11:09.000Z</time>
      </trkpt>
      <trkpt lat="42.225634" lon="2.951949">
        <ele>47</ele>
        <time>1970-01-01T03:11:10.000Z</time>
      </trkpt>
      <trkpt lat="42.225608" lon="2.951892">
        <ele>47</ele>
        <time>1970-01-01T03:11:11.000Z</time>
      </trkpt>
      <trkpt lat="42.225582" lon="2.951834">
        <ele>47</ele>
        <time>1970-01-01T03:11:12.000Z</time>
      </trkpt>
      <trkpt lat="42.225556" lon="2.951777">
        <ele>47</ele>
        <time>1970-01-01T03:11:13.000Z</time>
      </trkpt>
      <trkpt lat="42.22553" lon="2.95172">
        <ele>47</ele>
        <time>1970-01-01T03:11:14.000Z</time>
      </trkpt>
      <trkpt lat="42.225504" lon="2.951662">
        <ele>47</ele>
        <time>1970-01-01T03:11:15.000Z</time>
      </trkpt>
      <trkpt lat="42.225478" lon="2.951605">
        <ele>47</ele>
        <time>1970-01-01T03:11:16.000Z</time>
      </trkpt>
      <trkpt lat="42.225452" lon="2.951547">
        <ele>47</ele>
        <time>1970-01-01T03:11:17.000Z</time>
      </trkpt>
      <trkpt lat="42.225426" lon="2.95149">
        <ele>47</ele>
        <time>1970-01-01T03:11:18.000Z</time>
      </trkpt>
      <trkpt lat="42.22532" lon="2.951437">
        <ele>47</ele>
        <time>1970-01-01T03:11:19.000Z</time>
      </trkpt>
      <trkpt lat="42.225269" lon="2.951419">
        <ele>47</ele>
        <time>1970-01-01T03:11:20.000Z</time>
      </trkpt>
      <trkpt lat="42.225217" lon="2.951402">
        <ele>47</ele>
        <time>1970-01-01T03:11:21.000Z</time>
      </trkpt>
      <trkpt lat="42.225166" lon="2.951384">
        <ele>47</ele>
        <time>1970-01-01T03:11:22.000Z</time>
      </trkpt>
      <trkpt lat="42.225114" lon="2.951366">
        <ele>47</ele>
        <time>1970-01-01T03:11:23.000Z</time>
      </trkpt>
      <trkpt lat="42.225063" lon="2.951348">
        <ele>47</ele>
        <time>1970-01-01T03:11:25.000Z</time>
      </trkpt>
      <trkpt lat="42.225011" lon="2.951331">
        <ele>47</ele>
        <time>1970-01-01T03:11:26.000Z</time>
      </trkpt>
      <trkpt lat="42.22496" lon="2.951313">
        <ele>47</ele>
        <time>1970-01-01T03:11:27.000Z</time>
      </trkpt>
      <trkpt lat="42.224908" lon="2.951295">
        <ele>47</ele>
        <time>1970-01-01T03:11:28.000Z</time>
      </trkpt>
      <trkpt lat="42.224841" lon="2.951193">
        <ele>47</ele>
        <time>1970-01-01T03:11:29.000Z</time>
      </trkpt>
      <trkpt lat="42.22481" lon="2.951142">
        <ele>47</ele>
        <time>1970-01-01T03:11:30.000Z</time>
      </trkpt>
      <trkpt lat="42.22478" lon="2.95109">
        <ele>47</ele>
        <time>1970-01-01T03:11:31.000Z</time>
      </trkpt>
      <trkpt lat="42.22475" lon="2.951039">
        <ele>47</ele>
        <time>1970-01-01T03:11:32.000Z</time>
      </trkpt>
      <trkpt lat="42.224719" lon="2.950988">
        <ele>47</ele>
        <time>1970-01-01T03:11:33.000Z</time>
      </trkpt>
      <trkpt lat="42.224689" lon="2.950937">
        <ele>47</ele>
        <time>1970-01-01T03:11:35.000Z</time>
      </trkpt>
      <trkpt lat="42.224659" lon="2.950885">
        <ele>47</ele>
        <time>1970-01-01T03:11:36.000Z</time>
      </trkpt>
      <trkpt lat="42.224628" lon="2.950834">
        <ele>47</ele>
        <time>1970-01-01T03:11:37.000Z</time>
      </trkpt>
      <trkpt lat="42.224598" lon="2.950783">
        <ele>47</ele>
        <time>1970-01-01T03:11:38.000Z</time>
      </trkpt>
      <trkpt lat="42.22455" lon="2.950708">
        <ele>47</ele>
        <time>1970-01-01T03:11:39.000Z</time>
      </trkpt>
      <trkpt lat="42.22453" lon="2.950674">
        <ele>47</ele>
        <time>1970-01-01T03:11:40.000Z</time>
      </trkpt>
      <trkpt lat="42.224509" lon="2.950641">
        <ele>47</ele>
        <time>1970-01-01T03:11:41.000Z</time>
      </trkpt>
      <trkpt lat="42.224489" lon="2.950607">
        <ele>47</ele>
        <time>1970-01-01T03:11:42.000Z</time>
      </trkpt>
      <trkpt lat="42.224469" lon="2.950574">
        <ele>47</ele>
        <time>1970-01-01T03:11:43.000Z</time>
      </trkpt>
      <trkpt lat="42.224449" lon="2.95054">
        <ele>47</ele>
        <time>1970-01-01T03:11:44.000Z</time>
      </trkpt>
      <trkpt lat="42.224428" lon="2.950507">
        <ele>47</ele>
        <time>1970-01-01T03:11:45.000Z</time>
      </trkpt>
      <trkpt lat="42.224408" lon="2.950473">
        <ele>47</ele>
        <time>1970-01-01T03:11:47.000Z</time>
      </trkpt>
      <trkpt lat="42.224388" lon="2.95044">
        <ele>48</ele>
        <time>1970-01-01T03:11:48.000Z</time>
      </trkpt>
      <trkpt lat="42.224358" lon="2.950393">
        <ele>48</ele>
        <time>1970-01-01T03:11:49.000Z</time>
      </trkpt>
      <trkpt lat="42.224342" lon="2.95037">
        <ele>48</ele>
        <time>1970-01-01T03:11:50.000Z</time>
      </trkpt>
      <trkpt lat="42.224326" lon="2.950347">
        <ele>48</ele>
        <time>1970-01-01T03:11:52.000Z</time>
      </trkpt>
      <trkpt lat="42.224309" lon="2.950323">
        <ele>48</ele>
        <time>1970-01-01T03:11:54.000Z</time>
      </trkpt>
      <trkpt lat="42.224293" lon="2.9503">
        <ele>48</ele>
        <time>1970-01-01T03:11:56.000Z</time>
      </trkpt>
      <trkpt lat="42.224277" lon="2.950277">
        <ele>48</ele>
        <time>1970-01-01T03:11:57.000Z</time>
      </trkpt>
      <trkpt lat="42.224261" lon="2.950254">
        <ele>48</ele>
        <time>1970-01-01T03:11:58.000Z</time>
      </trkpt>
      <trkpt lat="42.224196" lon="2.950174">
        <ele>48</ele>
        <time>1970-01-01T03:12:00.000Z</time>
      </trkpt>
      <trkpt lat="42.224168" lon="2.950137">
        <ele>48</ele>
        <time>1970-01-01T03:12:01.000Z</time>
      </trkpt>
      <trkpt lat="42.224141" lon="2.950099">
        <ele>48</ele>
        <time>1970-01-01T03:12:03.000Z</time>
      </trkpt>
      <trkpt lat="42.224113" lon="2.950062">
        <ele>48</ele>
        <time>1970-01-01T03:12:05.000Z</time>
      </trkpt>
      <trkpt lat="42.224086" lon="2.950024">
        <ele>48</ele>
        <time>1970-01-01T03:12:07.000Z</time>
      </trkpt>
      <trkpt lat="42.224058" lon="2.949987">
        <ele>48</ele>
        <time>1970-01-01T03:12:08.000Z</time>
      </trkpt>
      <trkpt lat="42.224" lon="2.949904">
        <ele>48</ele>
        <time>1970-01-01T03:12:09.000Z</time>
      </trkpt>
      <trkpt lat="42.223972" lon="2.949865">
        <ele>48</ele>
        <time>1970-01-01T03:12:10.000Z</time>
      </trkpt>
      <trkpt lat="42.223943" lon="2.949827">
        <ele>48</ele>
        <time>1970-01-01T03:12:11.000Z</time>
      </trkpt>
      <trkpt lat="42.223915" lon="2.949788">
        <ele>48</ele>
        <time>1970-01-01T03:12:12.000Z</time>
      </trkpt>
      <trkpt lat="42.223887" lon="2.949749">
        <ele>48</ele>
        <time>1970-01-01T03:12:13.000Z</time>
      </trkpt>
      <trkpt lat="42.223859" lon="2.94971">
        <ele>48</ele>
        <time>1970-01-01T03:12:15.000Z</time>
      </trkpt>
      <trkpt lat="42.22383" lon="2.949672">
        <ele>48</ele>
        <time>1970-01-01T03:12:16.000Z</time>
      </trkpt>
      <trkpt lat="42.223802" lon="2.949633">
        <ele>49</ele>
        <time>1970-01-01T03:12:18.000Z</time>
      </trkpt>
      <trkpt lat="42.223739" lon="2.94954">
        <ele>49</ele>
        <time>1970-01-01T03:12:19.000Z</time>
      </trkpt>
      <trkpt lat="42.223703" lon="2.949487">
        <ele>49</ele>
        <time>1970-01-01T03:12:21.000Z</time>
      </trkpt>
      <trkpt lat="42.223667" lon="2.949434">
        <ele>49</ele>
        <time>1970-01-01T03:12:22.000Z</time>
      </trkpt>
      <trkpt lat="42.223631" lon="2.949382">
        <ele>49</ele>
        <time>1970-01-01T03:12:23.000Z</time>
      </trkpt>
      <trkpt lat="42.223595" lon="2.949329">
        <ele>49</ele>
        <time>1970-01-01T03:12:25.000Z</time>
      </trkpt>
      <trkpt lat="42.223559" lon="2.949276">
        <ele>49</ele>
        <time>1970-01-01T03:12:26.000Z</time>
      </trkpt>
      <trkpt lat="42.223523" lon="2.949223">
        <ele>50</ele>
        <time>1970-01-01T03:12:28.000Z</time>
      </trkpt>
      <trkpt lat="42.223468" lon="2.949134">
        <ele>50</ele>
        <time>1970-01-01T03:12:29.000Z</time>
      </trkpt>
      <trkpt lat="42.22344" lon="2.949089">
        <ele>50</ele>
        <time>1970-01-01T03:12:30.000Z</time>
      </trkpt>
      <trkpt lat="42.223413" lon="2.949043">
        <ele>50</ele>
        <time>1970-01-01T03:12:31.000Z</time>
      </trkpt>
      <trkpt lat="42.223385" lon="2.948997">
        <ele>50</ele>
        <time>1970-01-01T03:12:32.000Z</time>
      </trkpt>
      <trkpt lat="42.223358" lon="2.948952">
        <ele>50</ele>
        <time>1970-01-01T03:12:34.000Z</time>
      </trkpt>
      <trkpt lat="42.22333" lon="2.948906">
        <ele>50</ele>
        <time>1970-01-01T03:12:35.000Z</time>
      </trkpt>
      <trkpt lat="42.223303" lon="2.94886">
        <ele>50</ele>
        <time>1970-01-01T03:12:36.000Z</time>
      </trkpt>
      <trkpt lat="42.223275" lon="2.948815">
        <ele>50</ele>
        <time>1970-01-01T03:12:37.000Z</time>
      </trkpt>
      <trkpt lat="42.223248" lon="2.948769">
        <ele>50</ele>
        <time>1970-01-01T03:12:38.000Z</time>
      </trkpt>
      <trkpt lat="42.223194" lon="2.948669">
        <ele>50</ele>
        <time>1970-01-01T03:12:39.000Z</time>
      </trkpt>
      <trkpt lat="42.223167" lon="2.948614">
        <ele>50</ele>
        <time>1970-01-01T03:12:41.000Z</time>
      </trkpt>
      <trkpt lat="42.223139" lon="2.94856">
        <ele>50</ele>
        <time>1970-01-01T03:12:42.000Z</time>
      </trkpt>
      <trkpt lat="42.223111" lon="2.948505">
        <ele>50</ele>
        <time>1970-01-01T03:12:43.000Z</time>
      </trkpt>
      <trkpt lat="42.223083" lon="2.948451">
        <ele>50</ele>
        <time>1970-01-01T03:12:44.000Z</time>
      </trkpt>
      <trkpt lat="42.223056" lon="2.948397">
        <ele>50</ele>
        <time>1970-01-01T03:12:46.000Z</time>
      </trkpt>
      <trkpt lat="42.223028" lon="2.948342">
        <ele>50</ele>
        <time>1970-01-01T03:12:47.000Z</time>
      </trkpt>
      <trkpt lat="42.223" lon="2.948288">
        <ele>51</ele>
        <time>1970-01-01T03:12:48.000Z</time>
      </trkpt>
      <trkpt lat="42.222953" lon="2.94819">
        <ele>51</ele>
        <time>1970-01-01T03:12:49.000Z</time>
      </trkpt>
      <trkpt lat="42.222931" lon="2.948139">
        <ele>51</ele>
        <time>1970-01-01T03:12:50.000Z</time>
      </trkpt>
      <trkpt lat="42.222909" lon="2.948089">
        <ele>51</ele>
        <time>1970-01-01T03:12:51.000Z</time>
      </trkpt>
      <trkpt lat="42.222887" lon="2.948039">
        <ele>51</ele>
        <time>1970-01-01T03:12:52.000Z</time>
      </trkpt>
      <trkpt lat="42.222866" lon="2.947988">
        <ele>51</ele>
        <time>1970-01-01T03:12:53.000Z</time>
      </trkpt>
      <trkpt lat="42.222844" lon="2.947938">
        <ele>51</ele>
        <time>1970-01-01T03:12:54.000Z</time>
      </trkpt>
      <trkpt lat="42.222822" lon="2.947888">
        <ele>51</ele>
        <time>1970-01-01T03:12:55.000Z</time>
      </trkpt>
      <trkpt lat="42.2228" lon="2.947837">
        <ele>51</ele>
        <time>1970-01-01T03:12:57.000Z</time>
      </trkpt>
      <trkpt lat="42.222778" lon="2.947787">
        <ele>51</ele>
        <time>1970-01-01T03:12:58.000Z</time>
      </trkpt>
      <trkpt lat="42.222722" lon="2.947626">
        <ele>51</ele>
        <time>1970-01-01T03:13:00.000Z</time>
      </trkpt>
      <trkpt lat="42.222707" lon="2.947575">
        <ele>51</ele>
        <time>1970-01-01T03:13:01.000Z</time>
      </trkpt>
      <trkpt lat="42.222691" lon="2.947525">
        <ele>51</ele>
        <time>1970-01-01T03:13:02.000Z</time>
      </trkpt>
      <trkpt lat="42.222676" lon="2.947475">
        <ele>51</ele>
        <time>1970-01-01T03:13:03.000Z</time>
      </trkpt>
      <trkpt lat="42.22266" lon="2.947424">
        <ele>51</ele>
        <time>1970-01-01T03:13:04.000Z</time>
      </trkpt>
      <trkpt lat="42.222645" lon="2.947374">
        <ele>51</ele>
        <time>1970-01-01T03:13:05.000Z</time>
      </trkpt>
      <trkpt lat="42.222629" lon="2.947324">
        <ele>51</ele>
        <time>1970-01-01T03:13:06.000Z</time>
      </trkpt>
      <trkpt lat="42.222614" lon="2.947273">
        <ele>51</ele>
        <time>1970-01-01T03:13:07.000Z</time>
      </trkpt>
      <trkpt lat="42.222598" lon="2.947223">
        <ele>52</ele>
        <time>1970-01-01T03:13:08.000Z</time>
      </trkpt>
      <trkpt lat="42.222571" lon="2.947103">
        <ele>52</ele>
        <time>1970-01-01T03:13:09.000Z</time>
      </trkpt>
      <trkpt lat="42.222561" lon="2.947043">
        <ele>52</ele>
        <time>1970-01-01T03:13:10.000Z</time>
      </trkpt>
      <trkpt lat="42.22255" lon="2.946982">
        <ele>52</ele>
        <time>1970-01-01T03:13:11.000Z</time>
      </trkpt>
      <trkpt lat="42.22254" lon="2.946922">
        <ele>52</ele>
        <time>1970-01-01T03:13:12.000Z</time>
      </trkpt>
      <trkpt lat="42.222529" lon="2.946861">
        <ele>52</ele>
        <time>1970-01-01T03:13:13.000Z</time>
      </trkpt>
      <trkpt lat="42.222518" lon="2.9468">
        <ele>52</ele>
        <time>1970-01-01T03:13:14.000Z</time>
      </trkpt>
      <trkpt lat="42.222508" lon="2.94674">
        <ele>52</ele>
        <time>1970-01-01T03:13:15.000Z</time>
      </trkpt>
      <trkpt lat="42.222497" lon="2.946679">
        <ele>52</ele>
        <time>1970-01-01T03:13:16.000Z</time>
      </trkpt>
      <trkpt lat="42.222487" lon="2.946619">
        <ele>52</ele>
        <time>1970-01-01T03:13:17.000Z</time>
      </trkpt>
      <trkpt lat="42.222476" lon="2.946558">
        <ele>54</ele>
        <time>1970-01-01T03:13:19.000Z</time>
      </trkpt>
      <trkpt lat="42.222469" lon="2.946439">
        <ele>54</ele>
        <time>1970-01-01T03:13:20.000Z</time>
      </trkpt>
      <trkpt lat="42.222468" lon="2.946383">
        <ele>54</ele>
        <time>1970-01-01T03:13:21.000Z</time>
      </trkpt>
      <trkpt lat="42.222468" lon="2.946326">
        <ele>54</ele>
        <time>1970-01-01T03:13:22.000Z</time>
      </trkpt>
      <trkpt lat="42.222467" lon="2.94627">
        <ele>54</ele>
        <time>1970-01-01T03:13:23.000Z</time>
      </trkpt>
      <trkpt lat="42.222467" lon="2.946214">
        <ele>54</ele>
        <time>1970-01-01T03:13:24.000Z</time>
      </trkpt>
      <trkpt lat="42.222466" lon="2.946158">
        <ele>54</ele>
        <time>1970-01-01T03:13:25.000Z</time>
      </trkpt>
      <trkpt lat="42.222466" lon="2.946101">
        <ele>54</ele>
        <time>1970-01-01T03:13:26.000Z</time>
      </trkpt>
      <trkpt lat="42.222465" lon="2.946045">
        <ele>54</ele>
        <time>1970-01-01T03:13:27.000Z</time>
      </trkpt>
      <trkpt lat="42.222465" lon="2.945989">
        <ele>54</ele>
        <time>1970-01-01T03:13:28.000Z</time>
      </trkpt>
      <trkpt lat="42.222487" lon="2.945795">
        <ele>54</ele>
        <time>1970-01-01T03:13:30.000Z</time>
      </trkpt>
      <trkpt lat="42.222499" lon="2.945728">
        <ele>54</ele>
        <time>1970-01-01T03:13:31.000Z</time>
      </trkpt>
      <trkpt lat="42.22251" lon="2.945661">
        <ele>54</ele>
        <time>1970-01-01T03:13:32.000Z</time>
      </trkpt>
      <trkpt lat="42.222522" lon="2.945595">
        <ele>54</ele>
        <time>1970-01-01T03:13:33.000Z</time>
      </trkpt>
      <trkpt lat="42.222533" lon="2.945528">
        <ele>54</ele>
        <time>1970-01-01T03:13:34.000Z</time>
      </trkpt>
      <trkpt lat="42.222544" lon="2.945461">
        <ele>54</ele>
        <time>1970-01-01T03:13:35.000Z</time>
      </trkpt>
      <trkpt lat="42.222556" lon="2.945394">
        <ele>54</ele>
        <time>1970-01-01T03:13:36.000Z</time>
      </trkpt>
      <trkpt lat="42.222567" lon="2.945327">
        <ele>54</ele>
        <time>1970-01-01T03:13:38.000Z</time>
      </trkpt>
      <trkpt lat="42.2226" lon="2.945195">
        <ele>54</ele>
        <time>1970-01-01T03:13:39.000Z</time>
      </trkpt>
      <trkpt lat="42.222619" lon="2.945131">
        <ele>54</ele>
        <time>1970-01-01T03:13:40.000Z</time>
      </trkpt>
      <trkpt lat="42.222637" lon="2.945068">
        <ele>54</ele>
        <time>1970-01-01T03:13:41.000Z</time>
      </trkpt>
      <trkpt lat="42.222655" lon="2.945004">
        <ele>54</ele>
        <time>1970-01-01T03:13:42.000Z</time>
      </trkpt>
      <trkpt lat="42.222674" lon="2.944941">
        <ele>54</ele>
        <time>1970-01-01T03:13:43.000Z</time>
      </trkpt>
      <trkpt lat="42.222692" lon="2.944877">
        <ele>54</ele>
        <time>1970-01-01T03:13:44.000Z</time>
      </trkpt>
      <trkpt lat="42.22271" lon="2.944814">
        <ele>54</ele>
        <time>1970-01-01T03:13:45.000Z</time>
      </trkpt>
      <trkpt lat="42.222728" lon="2.94475">
        <ele>54</ele>
        <time>1970-01-01T03:13:46.000Z</time>
      </trkpt>
      <trkpt lat="42.222747" lon="2.944687">
        <ele>54</ele>
        <time>1970-01-01T03:13:47.000Z</time>
      </trkpt>
      <trkpt lat="42.222765" lon="2.944623">
        <ele>54</ele>
        <time>1970-01-01T03:13:48.000Z</time>
      </trkpt>
      <trkpt lat="42.222828" lon="2.944479">
        <ele>54</ele>
        <time>1970-01-01T03:13:49.000Z</time>
      </trkpt>
      <trkpt lat="42.222866" lon="2.944406">
        <ele>54</ele>
        <time>1970-01-01T03:13:50.000Z</time>
      </trkpt>
      <trkpt lat="42.222903" lon="2.944332">
        <ele>54</ele>
        <time>1970-01-01T03:13:51.000Z</time>
      </trkpt>
      <trkpt lat="42.22294" lon="2.944259">
        <ele>54</ele>
        <time>1970-01-01T03:13:52.000Z</time>
      </trkpt>
      <trkpt lat="42.222978" lon="2.944186">
        <ele>54</ele>
        <time>1970-01-01T03:13:53.000Z</time>
      </trkpt>
      <trkpt lat="42.223015" lon="2.944113">
        <ele>54</ele>
        <time>1970-01-01T03:13:54.000Z</time>
      </trkpt>
      <trkpt lat="42.223052" lon="2.944039">
        <ele>54</ele>
        <time>1970-01-01T03:13:55.000Z</time>
      </trkpt>
      <trkpt lat="42.22309" lon="2.943966">
        <ele>54</ele>
        <time>1970-01-01T03:13:57.000Z</time>
      </trkpt>
      <trkpt lat="42.223127" lon="2.943893">
        <ele>53</ele>
        <time>1970-01-01T03:13:58.000Z</time>
      </trkpt>
      <trkpt lat="42.223221" lon="2.943739">
        <ele>53</ele>
        <time>1970-01-01T03:13:59.000Z</time>
      </trkpt>
      <trkpt lat="42.22327" lon="2.943663">
        <ele>53</ele>
        <time>1970-01-01T03:14:00.000Z</time>
      </trkpt>
      <trkpt lat="42.223319" lon="2.943588">
        <ele>53</ele>
        <time>1970-01-01T03:14:01.000Z</time>
      </trkpt>
      <trkpt lat="42.223368" lon="2.943512">
        <ele>53</ele>
        <time>1970-01-01T03:14:02.000Z</time>
      </trkpt>
      <trkpt lat="42.223417" lon="2.943436">
        <ele>53</ele>
        <time>1970-01-01T03:14:04.000Z</time>
      </trkpt>
      <trkpt lat="42.223466" lon="2.94336">
        <ele>53</ele>
        <time>1970-01-01T03:14:05.000Z</time>
      </trkpt>
      <trkpt lat="42.223515" lon="2.943285">
        <ele>53</ele>
        <time>1970-01-01T03:14:06.000Z</time>
      </trkpt>
      <trkpt lat="42.223564" lon="2.943209">
        <ele>53</ele>
        <time>1970-01-01T03:14:07.000Z</time>
      </trkpt>
      <trkpt lat="42.223613" lon="2.943133">
        <ele>51</ele>
        <time>1970-01-01T03:14:08.000Z</time>
      </trkpt>
      <trkpt lat="42.22371" lon="2.942965">
        <ele>51</ele>
        <time>1970-01-01T03:14:09.000Z</time>
      </trkpt>
      <trkpt lat="42.223763" lon="2.942874">
        <ele>51</ele>
        <time>1970-01-01T03:14:11.000Z</time>
      </trkpt>
      <trkpt lat="42.223815" lon="2.942783">
        <ele>51</ele>
        <time>1970-01-01T03:14:12.000Z</time>
      </trkpt>
      <trkpt lat="42.223867" lon="2.942691">
        <ele>51</ele>
        <time>1970-01-01T03:14:13.000Z</time>
      </trkpt>
      <trkpt lat="42.223919" lon="2.9426">
        <ele>51</ele>
        <time>1970-01-01T03:14:14.000Z</time>
      </trkpt>
      <trkpt lat="42.223972" lon="2.942509">
        <ele>51</ele>
        <time>1970-01-01T03:14:16.000Z</time>
      </trkpt>
      <trkpt lat="42.224024" lon="2.942418">
        <ele>50</ele>
        <time>1970-01-01T03:14:18.000Z</time>
      </trkpt>
      <trkpt lat="42.224081" lon="2.942297">
        <ele>50</ele>
        <time>1970-01-01T03:14:19.000Z</time>
      </trkpt>
      <trkpt lat="42.224102" lon="2.942242">
        <ele>50</ele>
        <time>1970-01-01T03:14:20.000Z</time>
      </trkpt>
      <trkpt lat="42.224122" lon="2.942187">
        <ele>50</ele>
        <time>1970-01-01T03:14:21.000Z</time>
      </trkpt>
      <trkpt lat="42.224143" lon="2.942132">
        <ele>50</ele>
        <time>1970-01-01T03:14:22.000Z</time>
      </trkpt>
      <trkpt lat="42.224163" lon="2.942076">
        <ele>50</ele>
        <time>1970-01-01T03:14:23.000Z</time>
      </trkpt>
      <trkpt lat="42.224184" lon="2.942021">
        <ele>50</ele>
        <time>1970-01-01T03:14:24.000Z</time>
      </trkpt>
      <trkpt lat="42.224204" lon="2.941966">
        <ele>50</ele>
        <time>1970-01-01T03:14:25.000Z</time>
      </trkpt>
      <trkpt lat="42.224225" lon="2.941911">
        <ele>50</ele>
        <time>1970-01-01T03:14:27.000Z</time>
      </trkpt>
      <trkpt lat="42.224245" lon="2.941856">
        <ele>50</ele>
        <time>1970-01-01T03:14:28.000Z</time>
      </trkpt>
      <trkpt lat="42.224259" lon="2.941751">
        <ele>50</ele>
        <time>1970-01-01T03:14:29.000Z</time>
      </trkpt>
      <trkpt lat="42.224262" lon="2.941699">
        <ele>50</ele>
        <time>1970-01-01T03:14:30.000Z</time>
      </trkpt>
      <trkpt lat="42.224264" lon="2.941647">
        <ele>50</ele>
        <time>1970-01-01T03:14:31.000Z</time>
      </trkpt>
      <trkpt lat="42.224266" lon="2.941595">
        <ele>50</ele>
        <time>1970-01-01T03:14:32.000Z</time>
      </trkpt>
      <trkpt lat="42.224269" lon="2.941544">
        <ele>50</ele>
        <time>1970-01-01T03:14:33.000Z</time>
      </trkpt>
      <trkpt lat="42.224271" lon="2.941492">
        <ele>50</ele>
        <time>1970-01-01T03:14:35.000Z</time>
      </trkpt>
      <trkpt lat="42.224273" lon="2.94144">
        <ele>50</ele>
        <time>1970-01-01T03:14:36.000Z</time>
      </trkpt>
      <trkpt lat="42.224276" lon="2.941388">
        <ele>50</ele>
        <time>1970-01-01T03:14:37.000Z</time>
      </trkpt>
      <trkpt lat="42.224278" lon="2.941336">
        <ele>51</ele>
        <time>1970-01-01T03:14:38.000Z</time>
      </trkpt>
      <trkpt lat="42.224262" lon="2.941245">
        <ele>51</ele>
        <time>1970-01-01T03:14:39.000Z</time>
      </trkpt>
      <trkpt lat="42.224252" lon="2.9412">
        <ele>51</ele>
        <time>1970-01-01T03:14:40.000Z</time>
      </trkpt>
      <trkpt lat="42.224241" lon="2.941156">
        <ele>51</ele>
        <time>1970-01-01T03:14:41.000Z</time>
      </trkpt>
      <trkpt lat="42.224231" lon="2.941111">
        <ele>51</ele>
        <time>1970-01-01T03:14:42.000Z</time>
      </trkpt>
      <trkpt lat="42.224221" lon="2.941067">
        <ele>51</ele>
        <time>1970-01-01T03:14:43.000Z</time>
      </trkpt>
      <trkpt lat="42.224211" lon="2.941023">
        <ele>51</ele>
        <time>1970-01-01T03:14:44.000Z</time>
      </trkpt>
      <trkpt lat="42.224201" lon="2.940978">
        <ele>51</ele>
        <time>1970-01-01T03:14:45.000Z</time>
      </trkpt>
      <trkpt lat="42.22419" lon="2.940934">
        <ele>51</ele>
        <time>1970-01-01T03:14:46.000Z</time>
      </trkpt>
      <trkpt lat="42.22418" lon="2.940889">
        <ele>51</ele>
        <time>1970-01-01T03:14:47.000Z</time>
      </trkpt>
      <trkpt lat="42.22417" lon="2.940845">
        <ele>53</ele>
        <time>1970-01-01T03:14:48.000Z</time>
      </trkpt>
      <trkpt lat="42.22413" lon="2.940754">
        <ele>53</ele>
        <time>1970-01-01T03:14:49.000Z</time>
      </trkpt>
      <trkpt lat="42.224106" lon="2.940711">
        <ele>53</ele>
        <time>1970-01-01T03:14:50.000Z</time>
      </trkpt>
      <trkpt lat="42.224083" lon="2.940668">
        <ele>53</ele>
        <time>1970-01-01T03:14:51.000Z</time>
      </trkpt>
      <trkpt lat="42.22406" lon="2.940625">
        <ele>53</ele>
        <time>1970-01-01T03:14:52.000Z</time>
      </trkpt>
      <trkpt lat="42.224036" lon="2.940581">
        <ele>53</ele>
        <time>1970-01-01T03:14:53.000Z</time>
      </trkpt>
      <trkpt lat="42.224013" lon="2.940538">
        <ele>53</ele>
        <time>1970-01-01T03:14:54.000Z</time>
      </trkpt>
      <trkpt lat="42.22399" lon="2.940495">
        <ele>53</ele>
        <time>1970-01-01T03:14:55.000Z</time>
      </trkpt>
      <trkpt lat="42.223966" lon="2.940452">
        <ele>53</ele>
        <time>1970-01-01T03:14:56.000Z</time>
      </trkpt>
      <trkpt lat="42.223943" lon="2.940409">
        <ele>57</ele>
        <time>1970-01-01T03:14:58.000Z</time>
      </trkpt>
      <trkpt lat="42.22389" lon="2.940336">
        <ele>57</ele>
        <time>1970-01-01T03:14:59.000Z</time>
      </trkpt>
      <trkpt lat="42.223864" lon="2.940301">
        <ele>57</ele>
        <time>1970-01-01T03:15:00.000Z</time>
      </trkpt>
      <trkpt lat="42.223839" lon="2.940267">
        <ele>57</ele>
        <time>1970-01-01T03:15:01.000Z</time>
      </trkpt>
      <trkpt lat="42.223813" lon="2.940232">
        <ele>57</ele>
        <time>1970-01-01T03:15:02.000Z</time>
      </trkpt>
      <trkpt lat="42.223787" lon="2.940197">
        <ele>57</ele>
        <time>1970-01-01T03:15:03.000Z</time>
      </trkpt>
      <trkpt lat="42.223761" lon="2.940162">
        <ele>57</ele>
        <time>1970-01-01T03:15:04.000Z</time>
      </trkpt>
      <trkpt lat="42.223736" lon="2.940128">
        <ele>57</ele>
        <time>1970-01-01T03:15:06.000Z</time>
      </trkpt>
      <trkpt lat="42.22371" lon="2.940093">
        <ele>57</ele>
        <time>1970-01-01T03:15:07.000Z</time>
      </trkpt>
      <trkpt lat="42.223684" lon="2.940058">
        <ele>58</ele>
        <time>1970-01-01T03:15:08.000Z</time>
      </trkpt>
      <trkpt lat="42.223635" lon="2.939993">
        <ele>58</ele>
        <time>1970-01-01T03:15:09.000Z</time>
      </trkpt>
      <trkpt lat="42.223611" lon="2.939963">
        <ele>58</ele>
        <time>1970-01-01T03:15:10.000Z</time>
      </trkpt>
      <trkpt lat="42.223588" lon="2.939932">
        <ele>58</ele>
        <time>1970-01-01T03:15:12.000Z</time>
      </trkpt>
      <trkpt lat="42.223564" lon="2.939901">
        <ele>58</ele>
        <time>1970-01-01T03:15:13.000Z</time>
      </trkpt>
      <trkpt lat="42.22354" lon="2.939871">
        <ele>58</ele>
        <time>1970-01-01T03:15:14.000Z</time>
      </trkpt>
      <trkpt lat="42.223516" lon="2.93984">
        <ele>58</ele>
        <time>1970-01-01T03:15:15.000Z</time>
      </trkpt>
      <trkpt lat="42.223493" lon="2.939809">
        <ele>58</ele>
        <time>1970-01-01T03:15:16.000Z</time>
      </trkpt>
      <trkpt lat="42.223469" lon="2.939779">
        <ele>58</ele>
        <time>1970-01-01T03:15:17.000Z</time>
      </trkpt>
      <trkpt lat="42.223445" lon="2.939748">
        <ele>59</ele>
        <time>1970-01-01T03:15:18.000Z</time>
      </trkpt>
      <trkpt lat="42.223378" lon="2.939662">
        <ele>59</ele>
        <time>1970-01-01T03:15:20.000Z</time>
      </trkpt>
      <trkpt lat="42.223356" lon="2.939632">
        <ele>59</ele>
        <time>1970-01-01T03:15:21.000Z</time>
      </trkpt>
      <trkpt lat="42.223334" lon="2.939603">
        <ele>59</ele>
        <time>1970-01-01T03:15:22.000Z</time>
      </trkpt>
      <trkpt lat="42.223312" lon="2.939574">
        <ele>59</ele>
        <time>1970-01-01T03:15:23.000Z</time>
      </trkpt>
      <trkpt lat="42.223289" lon="2.939544">
        <ele>59</ele>
        <time>1970-01-01T03:15:24.000Z</time>
      </trkpt>
      <trkpt lat="42.223267" lon="2.939515">
        <ele>59</ele>
        <time>1970-01-01T03:15:25.000Z</time>
      </trkpt>
      <trkpt lat="42.223245" lon="2.939486">
        <ele>59</ele>
        <time>1970-01-01T03:15:26.000Z</time>
      </trkpt>
      <trkpt lat="42.223223" lon="2.939456">
        <ele>59</ele>
        <time>1970-01-01T03:15:27.000Z</time>
      </trkpt>
      <trkpt lat="42.223201" lon="2.939427">
        <ele>60</ele>
        <time>1970-01-01T03:15:28.000Z</time>
      </trkpt>
      <trkpt lat="42.223144" lon="2.939351">
        <ele>60</ele>
        <time>1970-01-01T03:15:29.000Z</time>
      </trkpt>
      <trkpt lat="42.223114" lon="2.939311">
        <ele>60</ele>
        <time>1970-01-01T03:15:30.000Z</time>
      </trkpt>
      <trkpt lat="42.223084" lon="2.939271">
        <ele>60</ele>
        <time>1970-01-01T03:15:32.000Z</time>
      </trkpt>
      <trkpt lat="42.223054" lon="2.939231">
        <ele>60</ele>
        <time>1970-01-01T03:15:33.000Z</time>
      </trkpt>
      <trkpt lat="42.223024" lon="2.939191">
        <ele>60</ele>
        <time>1970-01-01T03:15:34.000Z</time>
      </trkpt>
      <trkpt lat="42.222994" lon="2.939151">
        <ele>60</ele>
        <time>1970-01-01T03:15:35.000Z</time>
      </trkpt>
      <trkpt lat="42.222964" lon="2.939111">
        <ele>60</ele>
        <time>1970-01-01T03:15:36.000Z</time>
      </trkpt>
      <trkpt lat="42.222934" lon="2.939071">
        <ele>60</ele>
        <time>1970-01-01T03:15:37.000Z</time>
      </trkpt>
      <trkpt lat="42.222904" lon="2.939031">
        <ele>60</ele>
        <time>1970-01-01T03:15:38.000Z</time>
      </trkpt>
      <trkpt lat="42.222834" lon="2.938938">
        <ele>60</ele>
        <time>1970-01-01T03:15:39.000Z</time>
      </trkpt>
      <trkpt lat="42.222798" lon="2.93889">
        <ele>60</ele>
        <time>1970-01-01T03:15:40.000Z</time>
      </trkpt>
      <trkpt lat="42.222762" lon="2.938843">
        <ele>60</ele>
        <time>1970-01-01T03:15:41.000Z</time>
      </trkpt>
      <trkpt lat="42.222726" lon="2.938796">
        <ele>60</ele>
        <time>1970-01-01T03:15:42.000Z</time>
      </trkpt>
      <trkpt lat="42.222691" lon="2.938748">
        <ele>60</ele>
        <time>1970-01-01T03:15:43.000Z</time>
      </trkpt>
      <trkpt lat="42.222655" lon="2.938701">
        <ele>60</ele>
        <time>1970-01-01T03:15:44.000Z</time>
      </trkpt>
      <trkpt lat="42.222619" lon="2.938654">
        <ele>60</ele>
        <time>1970-01-01T03:15:46.000Z</time>
      </trkpt>
      <trkpt lat="42.222583" lon="2.938606">
        <ele>60</ele>
        <time>1970-01-01T03:15:47.000Z</time>
      </trkpt>
      <trkpt lat="42.222547" lon="2.938559">
        <ele>60</ele>
        <time>1970-01-01T03:15:48.000Z</time>
      </trkpt>
      <trkpt lat="42.222468" lon="2.938458">
        <ele>60</ele>
        <time>1970-01-01T03:15:49.000Z</time>
      </trkpt>
      <trkpt lat="42.222428" lon="2.938404">
        <ele>60</ele>
        <time>1970-01-01T03:15:51.000Z</time>
      </trkpt>
      <trkpt lat="42.222388" lon="2.93835">
        <ele>60</ele>
        <time>1970-01-01T03:15:52.000Z</time>
      </trkpt>
      <trkpt lat="42.222348" lon="2.938296">
        <ele>60</ele>
        <time>1970-01-01T03:15:53.000Z</time>
      </trkpt>
      <trkpt lat="42.222309" lon="2.938243">
        <ele>60</ele>
        <time>1970-01-01T03:15:54.000Z</time>
      </trkpt>
      <trkpt lat="42.222269" lon="2.938189">
        <ele>60</ele>
        <time>1970-01-01T03:15:55.000Z</time>
      </trkpt>
      <trkpt lat="42.222229" lon="2.938135">
        <ele>60</ele>
        <time>1970-01-01T03:15:56.000Z</time>
      </trkpt>
      <trkpt lat="42.222189" lon="2.938081">
        <ele>60</ele>
        <time>1970-01-01T03:15:57.000Z</time>
      </trkpt>
      <trkpt lat="42.222149" lon="2.938027">
        <ele>60</ele>
        <time>1970-01-01T03:15:58.000Z</time>
      </trkpt>
      <trkpt lat="42.222067" lon="2.93792">
        <ele>60</ele>
        <time>1970-01-01T03:15:59.000Z</time>
      </trkpt>
      <trkpt lat="42.222028" lon="2.937866">
        <ele>60</ele>
        <time>1970-01-01T03:16:00.000Z</time>
      </trkpt>
      <trkpt lat="42.221988" lon="2.937813">
        <ele>60</ele>
        <time>1970-01-01T03:16:01.000Z</time>
      </trkpt>
      <trkpt lat="42.221948" lon="2.93776">
        <ele>60</ele>
        <time>1970-01-01T03:16:02.000Z</time>
      </trkpt>
      <trkpt lat="42.221909" lon="2.937706">
        <ele>60</ele>
        <time>1970-01-01T03:16:04.000Z</time>
      </trkpt>
      <trkpt lat="42.221869" lon="2.937653">
        <ele>60</ele>
        <time>1970-01-01T03:16:05.000Z</time>
      </trkpt>
      <trkpt lat="42.221829" lon="2.9376">
        <ele>60</ele>
        <time>1970-01-01T03:16:06.000Z</time>
      </trkpt>
      <trkpt lat="42.22179" lon="2.937546">
        <ele>60</ele>
        <time>1970-01-01T03:16:07.000Z</time>
      </trkpt>
      <trkpt lat="42.22175" lon="2.937493">
        <ele>60</ele>
        <time>1970-01-01T03:16:08.000Z</time>
      </trkpt>
      <trkpt lat="42.221631" lon="2.937334">
        <ele>60</ele>
        <time>1970-01-01T03:16:10.000Z</time>
      </trkpt>
      <trkpt lat="42.22159" lon="2.937279">
        <ele>60</ele>
        <time>1970-01-01T03:16:11.000Z</time>
      </trkpt>
      <trkpt lat="42.22155" lon="2.937225">
        <ele>60</ele>
        <time>1970-01-01T03:16:13.000Z</time>
      </trkpt>
      <trkpt lat="42.22151" lon="2.937171">
        <ele>60</ele>
        <time>1970-01-01T03:16:14.000Z</time>
      </trkpt>
      <trkpt lat="42.221469" lon="2.937117">
        <ele>60</ele>
        <time>1970-01-01T03:16:15.000Z</time>
      </trkpt>
      <trkpt lat="42.221429" lon="2.937062">
        <ele>60</ele>
        <time>1970-01-01T03:16:16.000Z</time>
      </trkpt>
      <trkpt lat="42.221388" lon="2.937008">
        <ele>60</ele>
        <time>1970-01-01T03:16:17.000Z</time>
      </trkpt>
      <trkpt lat="42.221348" lon="2.936954">
        <ele>60</ele>
        <time>1970-01-01T03:16:18.000Z</time>
      </trkpt>
      <trkpt lat="42.22126" lon="2.936835">
        <ele>60</ele>
        <time>1970-01-01T03:16:19.000Z</time>
      </trkpt>
      <trkpt lat="42.221212" lon="2.936772">
        <ele>60</ele>
        <time>1970-01-01T03:16:21.000Z</time>
      </trkpt>
      <trkpt lat="42.221165" lon="2.936708">
        <ele>60</ele>
        <time>1970-01-01T03:16:22.000Z</time>
      </trkpt>
      <trkpt lat="42.221117" lon="2.936645">
        <ele>60</ele>
        <time>1970-01-01T03:16:23.000Z</time>
      </trkpt>
      <trkpt lat="42.22107" lon="2.936582">
        <ele>60</ele>
        <time>1970-01-01T03:16:24.000Z</time>
      </trkpt>
      <trkpt lat="42.221022" lon="2.936519">
        <ele>60</ele>
        <time>1970-01-01T03:16:25.000Z</time>
      </trkpt>
      <trkpt lat="42.220975" lon="2.936455">
        <ele>60</ele>
        <time>1970-01-01T03:16:26.000Z</time>
      </trkpt>
      <trkpt lat="42.220927" lon="2.936392">
        <ele>60</ele>
        <time>1970-01-01T03:16:27.000Z</time>
      </trkpt>
      <trkpt lat="42.22088" lon="2.936329">
        <ele>61</ele>
        <time>1970-01-01T03:16:29.000Z</time>
      </trkpt>
      <trkpt lat="42.220799" lon="2.936222">
        <ele>61</ele>
        <time>1970-01-01T03:16:30.000Z</time>
      </trkpt>
      <trkpt lat="42.220762" lon="2.936173">
        <ele>61</ele>
        <time>1970-01-01T03:16:31.000Z</time>
      </trkpt>
      <trkpt lat="42.220725" lon="2.936124">
        <ele>61</ele>
        <time>1970-01-01T03:16:32.000Z</time>
      </trkpt>
      <trkpt lat="42.220688" lon="2.936075">
        <ele>61</ele>
        <time>1970-01-01T03:16:33.000Z</time>
      </trkpt>
      <trkpt lat="42.220652" lon="2.936025">
        <ele>61</ele>
        <time>1970-01-01T03:16:34.000Z</time>
      </trkpt>
      <trkpt lat="42.220615" lon="2.935976">
        <ele>61</ele>
        <time>1970-01-01T03:16:35.000Z</time>
      </trkpt>
      <trkpt lat="42.220578" lon="2.935927">
        <ele>61</ele>
        <time>1970-01-01T03:16:36.000Z</time>
      </trkpt>
      <trkpt lat="42.220541" lon="2.935878">
        <ele>61</ele>
        <time>1970-01-01T03:16:37.000Z</time>
      </trkpt>
      <trkpt lat="42.220504" lon="2.935829">
        <ele>61</ele>
        <time>1970-01-01T03:16:38.000Z</time>
      </trkpt>
      <trkpt lat="42.2204" lon="2.935692">
        <ele>61</ele>
        <time>1970-01-01T03:16:40.000Z</time>
      </trkpt>
      <trkpt lat="42.220353" lon="2.935629">
        <ele>61</ele>
        <time>1970-01-01T03:16:41.000Z</time>
      </trkpt>
      <trkpt lat="42.220306" lon="2.935567">
        <ele>61</ele>
        <time>1970-01-01T03:16:42.000Z</time>
      </trkpt>
      <trkpt lat="42.220259" lon="2.935505">
        <ele>61</ele>
        <time>1970-01-01T03:16:43.000Z</time>
      </trkpt>
      <trkpt lat="42.220211" lon="2.935443">
        <ele>61</ele>
        <time>1970-01-01T03:16:44.000Z</time>
      </trkpt>
      <trkpt lat="42.220164" lon="2.93538">
        <ele>61</ele>
        <time>1970-01-01T03:16:45.000Z</time>
      </trkpt>
      <trkpt lat="42.220117" lon="2.935318">
        <ele>61</ele>
        <time>1970-01-01T03:16:46.000Z</time>
      </trkpt>
      <trkpt lat="42.22007" lon="2.935256">
        <ele>62</ele>
        <time>1970-01-01T03:16:48.000Z</time>
      </trkpt>
      <trkpt lat="42.219985" lon="2.935145">
        <ele>62</ele>
        <time>1970-01-01T03:16:49.000Z</time>
      </trkpt>
      <trkpt lat="42.219943" lon="2.935089">
        <ele>62</ele>
        <time>1970-01-01T03:16:50.000Z</time>
      </trkpt>
      <trkpt lat="42.2199" lon="2.935034">
        <ele>62</ele>
        <time>1970-01-01T03:16:51.000Z</time>
      </trkpt>
      <trkpt lat="42.219858" lon="2.934978">
        <ele>62</ele>
        <time>1970-01-01T03:16:52.000Z</time>
      </trkpt>
      <trkpt lat="42.219815" lon="2.934922">
        <ele>62</ele>
        <time>1970-01-01T03:16:53.000Z</time>
      </trkpt>
      <trkpt lat="42.219773" lon="2.934866">
        <ele>62</ele>
        <time>1970-01-01T03:16:55.000Z</time>
      </trkpt>
      <trkpt lat="42.21973" lon="2.934811">
        <ele>62</ele>
        <time>1970-01-01T03:16:56.000Z</time>
      </trkpt>
      <trkpt lat="42.219688" lon="2.934755">
        <ele>62</ele>
        <time>1970-01-01T03:16:57.000Z</time>
      </trkpt>
      <trkpt lat="42.219645" lon="2.934699">
        <ele>63</ele>
        <time>1970-01-01T03:16:58.000Z</time>
      </trkpt>
      <trkpt lat="42.219554" lon="2.934579">
        <ele>63</ele>
        <time>1970-01-01T03:16:59.000Z</time>
      </trkpt>
      <trkpt lat="42.219506" lon="2.934516">
        <ele>63</ele>
        <time>1970-01-01T03:17:00.000Z</time>
      </trkpt>
      <trkpt lat="42.219457" lon="2.934452">
        <ele>63</ele>
        <time>1970-01-01T03:17:01.000Z</time>
      </trkpt>
      <trkpt lat="42.219409" lon="2.934388">
        <ele>63</ele>
        <time>1970-01-01T03:17:03.000Z</time>
      </trkpt>
      <trkpt lat="42.21936" lon="2.934325">
        <ele>63</ele>
        <time>1970-01-01T03:17:04.000Z</time>
      </trkpt>
      <trkpt lat="42.219311" lon="2.934261">
        <ele>63</ele>
        <time>1970-01-01T03:17:05.000Z</time>
      </trkpt>
      <trkpt lat="42.219263" lon="2.934198">
        <ele>63</ele>
        <time>1970-01-01T03:17:07.000Z</time>
      </trkpt>
      <trkpt lat="42.219214" lon="2.934134">
        <ele>63</ele>
        <time>1970-01-01T03:17:08.000Z</time>
      </trkpt>
      <trkpt lat="42.219079" lon="2.933958">
        <ele>63</ele>
        <time>1970-01-01T03:17:10.000Z</time>
      </trkpt>
      <trkpt lat="42.219034" lon="2.933899">
        <ele>63</ele>
        <time>1970-01-01T03:17:12.000Z</time>
      </trkpt>
      <trkpt lat="42.21899" lon="2.93384">
        <ele>63</ele>
        <time>1970-01-01T03:17:13.000Z</time>
      </trkpt>
      <trkpt lat="42.218945" lon="2.933781">
        <ele>63</ele>
        <time>1970-01-01T03:17:14.000Z</time>
      </trkpt>
      <trkpt lat="42.218901" lon="2.933722">
        <ele>63</ele>
        <time>1970-01-01T03:17:15.000Z</time>
      </trkpt>
      <trkpt lat="42.218856" lon="2.933663">
        <ele>63</ele>
        <time>1970-01-01T03:17:17.000Z</time>
      </trkpt>
      <trkpt lat="42.218812" lon="2.933604">
        <ele>64</ele>
        <time>1970-01-01T03:17:18.000Z</time>
      </trkpt>
      <trkpt lat="42.218717" lon="2.933476">
        <ele>64</ele>
        <time>1970-01-01T03:17:19.000Z</time>
      </trkpt>
      <trkpt lat="42.218665" lon="2.933406">
        <ele>64</ele>
        <time>1970-01-01T03:17:20.000Z</time>
      </trkpt>
      <trkpt lat="42.218614" lon="2.933337">
        <ele>64</ele>
        <time>1970-01-01T03:17:21.000Z</time>
      </trkpt>
      <trkpt lat="42.218562" lon="2.933267">
        <ele>64</ele>
        <time>1970-01-01T03:17:22.000Z</time>
      </trkpt>
      <trkpt lat="42.218511" lon="2.933197">
        <ele>64</ele>
        <time>1970-01-01T03:17:23.000Z</time>
      </trkpt>
      <trkpt lat="42.218459" lon="2.933127">
        <ele>64</ele>
        <time>1970-01-01T03:17:24.000Z</time>
      </trkpt>
      <trkpt lat="42.218408" lon="2.933058">
        <ele>64</ele>
        <time>1970-01-01T03:17:26.000Z</time>
      </trkpt>
      <trkpt lat="42.218356" lon="2.932988">
        <ele>64</ele>
        <time>1970-01-01T03:17:28.000Z</time>
      </trkpt>
      <trkpt lat="42.218279" lon="2.932877">
        <ele>64</ele>
        <time>1970-01-01T03:17:29.000Z</time>
      </trkpt>
      <trkpt lat="42.218241" lon="2.932821">
        <ele>64</ele>
        <time>1970-01-01T03:17:30.000Z</time>
      </trkpt>
      <trkpt lat="42.218204" lon="2.932765">
        <ele>64</ele>
        <time>1970-01-01T03:17:31.000Z</time>
      </trkpt>
      <trkpt lat="42.218167" lon="2.932709">
        <ele>64</ele>
        <time>1970-01-01T03:17:32.000Z</time>
      </trkpt>
      <trkpt lat="42.218129" lon="2.932654">
        <ele>64</ele>
        <time>1970-01-01T03:17:33.000Z</time>
      </trkpt>
      <trkpt lat="42.218092" lon="2.932598">
        <ele>64</ele>
        <time>1970-01-01T03:17:34.000Z</time>
      </trkpt>
      <trkpt lat="42.218055" lon="2.932542">
        <ele>64</ele>
        <time>1970-01-01T03:17:35.000Z</time>
      </trkpt>
      <trkpt lat="42.218017" lon="2.932486">
        <ele>64</ele>
        <time>1970-01-01T03:17:37.000Z</time>
      </trkpt>
      <trkpt lat="42.21798" lon="2.93243">
        <ele>65</ele>
        <time>1970-01-01T03:17:38.000Z</time>
      </trkpt>
      <trkpt lat="42.21791" lon="2.932317">
        <ele>65</ele>
        <time>1970-01-01T03:17:39.000Z</time>
      </trkpt>
      <trkpt lat="42.217876" lon="2.932259">
        <ele>65</ele>
        <time>1970-01-01T03:17:40.000Z</time>
      </trkpt>
      <trkpt lat="42.217842" lon="2.932201">
        <ele>65</ele>
        <time>1970-01-01T03:17:41.000Z</time>
      </trkpt>
      <trkpt lat="42.217808" lon="2.932143">
        <ele>65</ele>
        <time>1970-01-01T03:17:42.000Z</time>
      </trkpt>
      <trkpt lat="42.217774" lon="2.932085">
        <ele>65</ele>
        <time>1970-01-01T03:17:43.000Z</time>
      </trkpt>
      <trkpt lat="42.21774" lon="2.932027">
        <ele>65</ele>
        <time>1970-01-01T03:17:45.000Z</time>
      </trkpt>
      <trkpt lat="42.217706" lon="2.931969">
        <ele>65</ele>
        <time>1970-01-01T03:17:46.000Z</time>
      </trkpt>
      <trkpt lat="42.217672" lon="2.931911">
        <ele>65</ele>
        <time>1970-01-01T03:17:47.000Z</time>
      </trkpt>
      <trkpt lat="42.217638" lon="2.931853">
        <ele>67</ele>
        <time>1970-01-01T03:17:48.000Z</time>
      </trkpt>
      <trkpt lat="42.217576" lon="2.931735">
        <ele>67</ele>
        <time>1970-01-01T03:17:49.000Z</time>
      </trkpt>
      <trkpt lat="42.217546" lon="2.931676">
        <ele>67</ele>
        <time>1970-01-01T03:17:50.000Z</time>
      </trkpt>
      <trkpt lat="42.217516" lon="2.931617">
        <ele>67</ele>
        <time>1970-01-01T03:17:51.000Z</time>
      </trkpt>
      <trkpt lat="42.217486" lon="2.931558">
        <ele>67</ele>
        <time>1970-01-01T03:17:52.000Z</time>
      </trkpt>
      <trkpt lat="42.217457" lon="2.931499">
        <ele>67</ele>
        <time>1970-01-01T03:17:53.000Z</time>
      </trkpt>
      <trkpt lat="42.217427" lon="2.93144">
        <ele>67</ele>
        <time>1970-01-01T03:17:55.000Z</time>
      </trkpt>
      <trkpt lat="42.217397" lon="2.931381">
        <ele>67</ele>
        <time>1970-01-01T03:17:56.000Z</time>
      </trkpt>
      <trkpt lat="42.217367" lon="2.931322">
        <ele>67</ele>
        <time>1970-01-01T03:17:57.000Z</time>
      </trkpt>
      <trkpt lat="42.217337" lon="2.931263">
        <ele>68</ele>
        <time>1970-01-01T03:17:58.000Z</time>
      </trkpt>
      <trkpt lat="42.217255" lon="2.931079">
        <ele>68</ele>
        <time>1970-01-01T03:18:00.000Z</time>
      </trkpt>
      <trkpt lat="42.217228" lon="2.931017">
        <ele>68</ele>
        <time>1970-01-01T03:18:01.000Z</time>
      </trkpt>
      <trkpt lat="42.217201" lon="2.930954">
        <ele>68</ele>
        <time>1970-01-01T03:18:02.000Z</time>
      </trkpt>
      <trkpt lat="42.217175" lon="2.930892">
        <ele>68</ele>
        <time>1970-01-01T03:18:04.000Z</time>
      </trkpt>
      <trkpt lat="42.217148" lon="2.930829">
        <ele>68</ele>
        <time>1970-01-01T03:18:05.000Z</time>
      </trkpt>
      <trkpt lat="42.217121" lon="2.930767">
        <ele>68</ele>
        <time>1970-01-01T03:18:06.000Z</time>
      </trkpt>
      <trkpt lat="42.217094" lon="2.930704">
        <ele>68</ele>
        <time>1970-01-01T03:18:07.000Z</time>
      </trkpt>
      <trkpt lat="42.217067" lon="2.930642">
        <ele>69</ele>
        <time>1970-01-01T03:18:08.000Z</time>
      </trkpt>
      <trkpt lat="42.217012" lon="2.9305">
        <ele>69</ele>
        <time>1970-01-01T03:18:09.000Z</time>
      </trkpt>
      <trkpt lat="42.216984" lon="2.930422">
        <ele>69</ele>
        <time>1970-01-01T03:18:11.000Z</time>
      </trkpt>
      <trkpt lat="42.216956" lon="2.930345">
        <ele>69</ele>
        <time>1970-01-01T03:18:12.000Z</time>
      </trkpt>
      <trkpt lat="42.216929" lon="2.930267">
        <ele>69</ele>
        <time>1970-01-01T03:18:14.000Z</time>
      </trkpt>
      <trkpt lat="42.216901" lon="2.930189">
        <ele>69</ele>
        <time>1970-01-01T03:18:15.000Z</time>
      </trkpt>
      <trkpt lat="42.216873" lon="2.930111">
        <ele>69</ele>
        <time>1970-01-01T03:18:16.000Z</time>
      </trkpt>
      <trkpt lat="42.216845" lon="2.930034">
        <ele>69</ele>
        <time>1970-01-01T03:18:17.000Z</time>
      </trkpt>
      <trkpt lat="42.216817" lon="2.929956">
        <ele>69</ele>
        <time>1970-01-01T03:18:18.000Z</time>
      </trkpt>
      <trkpt lat="42.216771" lon="2.929813">
        <ele>69</ele>
        <time>1970-01-01T03:18:19.000Z</time>
      </trkpt>
      <trkpt lat="42.21675" lon="2.929743">
        <ele>69</ele>
        <time>1970-01-01T03:18:20.000Z</time>
      </trkpt>
      <trkpt lat="42.216729" lon="2.929672">
        <ele>69</ele>
        <time>1970-01-01T03:18:22.000Z</time>
      </trkpt>
      <trkpt lat="42.216708" lon="2.929602">
        <ele>69</ele>
        <time>1970-01-01T03:18:23.000Z</time>
      </trkpt>
      <trkpt lat="42.216688" lon="2.929532">
        <ele>69</ele>
        <time>1970-01-01T03:18:24.000Z</time>
      </trkpt>
      <trkpt lat="42.216667" lon="2.929462">
        <ele>69</ele>
        <time>1970-01-01T03:18:25.000Z</time>
      </trkpt>
      <trkpt lat="42.216646" lon="2.929391">
        <ele>69</ele>
        <time>1970-01-01T03:18:26.000Z</time>
      </trkpt>
      <trkpt lat="42.216625" lon="2.929321">
        <ele>69</ele>
        <time>1970-01-01T03:18:27.000Z</time>
      </trkpt>
      <trkpt lat="42.216604" lon="2.929251">
        <ele>69</ele>
        <time>1970-01-01T03:18:28.000Z</time>
      </trkpt>
      <trkpt lat="42.216573" lon="2.929118">
        <ele>69</ele>
        <time>1970-01-01T03:18:29.000Z</time>
      </trkpt>
      <trkpt lat="42.216558" lon="2.92905">
        <ele>69</ele>
        <time>1970-01-01T03:18:30.000Z</time>
      </trkpt>
      <trkpt lat="42.216542" lon="2.928982">
        <ele>69</ele>
        <time>1970-01-01T03:18:32.000Z</time>
      </trkpt>
      <trkpt lat="42.216527" lon="2.928914">
        <ele>69</ele>
        <time>1970-01-01T03:18:33.000Z</time>
      </trkpt>
      <trkpt lat="42.216512" lon="2.928847">
        <ele>69</ele>
        <time>1970-01-01T03:18:34.000Z</time>
      </trkpt>
      <trkpt lat="42.216497" lon="2.928779">
        <ele>69</ele>
        <time>1970-01-01T03:18:35.000Z</time>
      </trkpt>
      <trkpt lat="42.216481" lon="2.928711">
        <ele>69</ele>
        <time>1970-01-01T03:18:36.000Z</time>
      </trkpt>
      <trkpt lat="42.216466" lon="2.928643">
        <ele>69</ele>
        <time>1970-01-01T03:18:37.000Z</time>
      </trkpt>
      <trkpt lat="42.216451" lon="2.928575">
        <ele>71</ele>
        <time>1970-01-01T03:18:38.000Z</time>
      </trkpt>
      <trkpt lat="42.216428" lon="2.928443">
        <ele>71</ele>
        <time>1970-01-01T03:18:39.000Z</time>
      </trkpt>
      <trkpt lat="42.216418" lon="2.928377">
        <ele>71</ele>
        <time>1970-01-01T03:18:41.000Z</time>
      </trkpt>
      <trkpt lat="42.216407" lon="2.928312">
        <ele>71</ele>
        <time>1970-01-01T03:18:42.000Z</time>
      </trkpt>
      <trkpt lat="42.216397" lon="2.928247">
        <ele>71</ele>
        <time>1970-01-01T03:18:43.000Z</time>
      </trkpt>
      <trkpt lat="42.216387" lon="2.928181">
        <ele>71</ele>
        <time>1970-01-01T03:18:44.000Z</time>
      </trkpt>
      <trkpt lat="42.216377" lon="2.928116">
        <ele>71</ele>
        <time>1970-01-01T03:18:45.000Z</time>
      </trkpt>
      <trkpt lat="42.216366" lon="2.928051">
        <ele>71</ele>
        <time>1970-01-01T03:18:46.000Z</time>
      </trkpt>
      <trkpt lat="42.216356" lon="2.927985">
        <ele>71</ele>
        <time>1970-01-01T03:18:47.000Z</time>
      </trkpt>
      <trkpt lat="42.216346" lon="2.92792">
        <ele>72</ele>
        <time>1970-01-01T03:18:48.000Z</time>
      </trkpt>
      <trkpt lat="42.216328" lon="2.927786">
        <ele>72</ele>
        <time>1970-01-01T03:18:49.000Z</time>
      </trkpt>
      <trkpt lat="42.21632" lon="2.927716">
        <ele>72</ele>
        <time>1970-01-01T03:18:51.000Z</time>
      </trkpt>
      <trkpt lat="42.216312" lon="2.927647">
        <ele>72</ele>
        <time>1970-01-01T03:18:52.000Z</time>
      </trkpt>
      <trkpt lat="42.216305" lon="2.927577">
        <ele>72</ele>
        <time>1970-01-01T03:18:54.000Z</time>
      </trkpt>
      <trkpt lat="42.216297" lon="2.927508">
        <ele>72</ele>
        <time>1970-01-01T03:18:55.000Z</time>
      </trkpt>
      <trkpt lat="42.216289" lon="2.927439">
        <ele>72</ele>
        <time>1970-01-01T03:18:56.000Z</time>
      </trkpt>
      <trkpt lat="42.216281" lon="2.927369">
        <ele>72</ele>
        <time>1970-01-01T03:18:57.000Z</time>
      </trkpt>
      <trkpt lat="42.216273" lon="2.9273">
        <ele>72</ele>
        <time>1970-01-01T03:18:58.000Z</time>
      </trkpt>
      <trkpt lat="42.216284" lon="2.927189">
        <ele>72</ele>
        <time>1970-01-01T03:18:59.000Z</time>
      </trkpt>
      <trkpt lat="42.216302" lon="2.927139">
        <ele>72</ele>
        <time>1970-01-01T03:19:01.000Z</time>
      </trkpt>
      <trkpt lat="42.216319" lon="2.927088">
        <ele>72</ele>
        <time>1970-01-01T03:19:02.000Z</time>
      </trkpt>
      <trkpt lat="42.216337" lon="2.927037">
        <ele>72</ele>
        <time>1970-01-01T03:19:03.000Z</time>
      </trkpt>
      <trkpt lat="42.216355" lon="2.926987">
        <ele>72</ele>
        <time>1970-01-01T03:19:04.000Z</time>
      </trkpt>
      <trkpt lat="42.216373" lon="2.926936">
        <ele>72</ele>
        <time>1970-01-01T03:19:05.000Z</time>
      </trkpt>
      <trkpt lat="42.21639" lon="2.926885">
        <ele>72</ele>
        <time>1970-01-01T03:19:06.000Z</time>
      </trkpt>
      <trkpt lat="42.216408" lon="2.926835">
        <ele>72</ele>
        <time>1970-01-01T03:19:07.000Z</time>
      </trkpt>
      <trkpt lat="42.216426" lon="2.926784">
        <ele>73</ele>
        <time>1970-01-01T03:19:08.000Z</time>
      </trkpt>
      <trkpt lat="42.216436" lon="2.92668">
        <ele>73</ele>
        <time>1970-01-01T03:19:09.000Z</time>
      </trkpt>
      <trkpt lat="42.216425" lon="2.926629">
        <ele>73</ele>
        <time>1970-01-01T03:19:10.000Z</time>
      </trkpt>
      <trkpt lat="42.216414" lon="2.926578">
        <ele>73</ele>
        <time>1970-01-01T03:19:11.000Z</time>
      </trkpt>
      <trkpt lat="42.216403" lon="2.926527">
        <ele>73</ele>
        <time>1970-01-01T03:19:13.000Z</time>
      </trkpt>
      <trkpt lat="42.216393" lon="2.926477">
        <ele>73</ele>
        <time>1970-01-01T03:19:14.000Z</time>
      </trkpt>
      <trkpt lat="42.216382" lon="2.926426">
        <ele>73</ele>
        <time>1970-01-01T03:19:15.000Z</time>
      </trkpt>
      <trkpt lat="42.216371" lon="2.926375">
        <ele>73</ele>
        <time>1970-01-01T03:19:16.000Z</time>
      </trkpt>
      <trkpt lat="42.21636" lon="2.926324">
        <ele>73</ele>
        <time>1970-01-01T03:19:17.000Z</time>
      </trkpt>
      <trkpt lat="42.216349" lon="2.926273">
        <ele>74</ele>
        <time>1970-01-01T03:19:18.000Z</time>
      </trkpt>
      <trkpt lat="42.216291" lon="2.926145">
        <ele>74</ele>
        <time>1970-01-01T03:19:20.000Z</time>
      </trkpt>
      <trkpt lat="42.216281" lon="2.926101">
        <ele>74</ele>
        <time>1970-01-01T03:19:21.000Z</time>
      </trkpt>
      <trkpt lat="42.216272" lon="2.926056">
        <ele>74</ele>
        <time>1970-01-01T03:19:22.000Z</time>
      </trkpt>
      <trkpt lat="42.216262" lon="2.926011">
        <ele>74</ele>
        <time>1970-01-01T03:19:23.000Z</time>
      </trkpt>
      <trkpt lat="42.216253" lon="2.925967">
        <ele>74</ele>
        <time>1970-01-01T03:19:24.000Z</time>
      </trkpt>
      <trkpt lat="42.216243" lon="2.925922">
        <ele>74</ele>
        <time>1970-01-01T03:19:26.000Z</time>
      </trkpt>
      <trkpt lat="42.216234" lon="2.925878">
        <ele>74</ele>
        <time>1970-01-01T03:19:27.000Z</time>
      </trkpt>
      <trkpt lat="42.216224" lon="2.925833">
        <ele>74</ele>
        <time>1970-01-01T03:19:28.000Z</time>
      </trkpt>
      <trkpt lat="42.216229" lon="2.925674">
        <ele>74</ele>
        <time>1970-01-01T03:19:30.000Z</time>
      </trkpt>
      <trkpt lat="42.216232" lon="2.925615">
        <ele>74</ele>
        <time>1970-01-01T03:19:31.000Z</time>
      </trkpt>
      <trkpt lat="42.216235" lon="2.925556">
        <ele>74</ele>
        <time>1970-01-01T03:19:32.000Z</time>
      </trkpt>
      <trkpt lat="42.216238" lon="2.925497">
        <ele>74</ele>
        <time>1970-01-01T03:19:33.000Z</time>
      </trkpt>
      <trkpt lat="42.21624" lon="2.925437">
        <ele>74</ele>
        <time>1970-01-01T03:19:34.000Z</time>
      </trkpt>
      <trkpt lat="42.216243" lon="2.925378">
        <ele>74</ele>
        <time>1970-01-01T03:19:35.000Z</time>
      </trkpt>
      <trkpt lat="42.216246" lon="2.925319">
        <ele>74</ele>
        <time>1970-01-01T03:19:37.000Z</time>
      </trkpt>
      <trkpt lat="42.216249" lon="2.92526">
        <ele>75</ele>
        <time>1970-01-01T03:19:39.000Z</time>
      </trkpt>
      <trkpt lat="42.216259" lon="2.925157">
        <ele>75</ele>
        <time>1970-01-01T03:19:40.000Z</time>
      </trkpt>
      <trkpt lat="42.216263" lon="2.925107">
        <ele>75</ele>
        <time>1970-01-01T03:19:41.000Z</time>
      </trkpt>
      <trkpt lat="42.216268" lon="2.925056">
        <ele>75</ele>
        <time>1970-01-01T03:19:42.000Z</time>
      </trkpt>
      <trkpt lat="42.216273" lon="2.925006">
        <ele>75</ele>
        <time>1970-01-01T03:19:43.000Z</time>
      </trkpt>
      <trkpt lat="42.216277" lon="2.924956">
        <ele>75</ele>
        <time>1970-01-01T03:19:44.000Z</time>
      </trkpt>
      <trkpt lat="42.216282" lon="2.924906">
        <ele>75</ele>
        <time>1970-01-01T03:19:45.000Z</time>
      </trkpt>
      <trkpt lat="42.216287" lon="2.924855">
        <ele>75</ele>
        <time>1970-01-01T03:19:46.000Z</time>
      </trkpt>
      <trkpt lat="42.216291" lon="2.924805">
        <ele>75</ele>
        <time>1970-01-01T03:19:47.000Z</time>
      </trkpt>
      <trkpt lat="42.216296" lon="2.924755">
        <ele>76</ele>
        <time>1970-01-01T03:19:48.000Z</time>
      </trkpt>
      <trkpt lat="42.216312" lon="2.924622">
        <ele>76</ele>
        <time>1970-01-01T03:19:49.000Z</time>
      </trkpt>
      <trkpt lat="42.216322" lon="2.924546">
        <ele>76</ele>
        <time>1970-01-01T03:19:50.000Z</time>
      </trkpt>
      <trkpt lat="42.216332" lon="2.924471">
        <ele>76</ele>
        <time>1970-01-01T03:19:52.000Z</time>
      </trkpt>
      <trkpt lat="42.216341" lon="2.924396">
        <ele>76</ele>
        <time>1970-01-01T03:19:53.000Z</time>
      </trkpt>
      <trkpt lat="42.216351" lon="2.924321">
        <ele>76</ele>
        <time>1970-01-01T03:19:55.000Z</time>
      </trkpt>
      <trkpt lat="42.216361" lon="2.924245">
        <ele>76</ele>
        <time>1970-01-01T03:19:56.000Z</time>
      </trkpt>
      <trkpt lat="42.216371" lon="2.92417">
        <ele>76</ele>
        <time>1970-01-01T03:19:58.000Z</time>
      </trkpt>
      <trkpt lat="42.216393" lon="2.924042">
        <ele>76</ele>
        <time>1970-01-01T03:19:59.000Z</time>
      </trkpt>
      <trkpt lat="42.216406" lon="2.923975">
        <ele>76</ele>
        <time>1970-01-01T03:20:00.000Z</time>
      </trkpt>
      <trkpt lat="42.216418" lon="2.923907">
        <ele>76</ele>
        <time>1970-01-01T03:20:01.000Z</time>
      </trkpt>
      <trkpt lat="42.216431" lon="2.923839">
        <ele>76</ele>
        <time>1970-01-01T03:20:03.000Z</time>
      </trkpt>
      <trkpt lat="42.216444" lon="2.923771">
        <ele>76</ele>
        <time>1970-01-01T03:20:04.000Z</time>
      </trkpt>
      <trkpt lat="42.216457" lon="2.923704">
        <ele>76</ele>
        <time>1970-01-01T03:20:06.000Z</time>
      </trkpt>
      <trkpt lat="42.216469" lon="2.923636">
        <ele>76</ele>
        <time>1970-01-01T03:20:07.000Z</time>
      </trkpt>
      <trkpt lat="42.216482" lon="2.923568">
        <ele>77</ele>
        <time>1970-01-01T03:20:08.000Z</time>
      </trkpt>
      <trkpt lat="42.216511" lon="2.923438">
        <ele>77</ele>
        <time>1970-01-01T03:20:09.000Z</time>
      </trkpt>
      <trkpt lat="42.216528" lon="2.92337">
        <ele>77</ele>
        <time>1970-01-01T03:20:10.000Z</time>
      </trkpt>
      <trkpt lat="42.216544" lon="2.923302">
        <ele>77</ele>
        <time>1970-01-01T03:20:11.000Z</time>
      </trkpt>
      <trkpt lat="42.216561" lon="2.923235">
        <ele>77</ele>
        <time>1970-01-01T03:20:12.000Z</time>
      </trkpt>
      <trkpt lat="42.216578" lon="2.923167">
        <ele>77</ele>
        <time>1970-01-01T03:20:14.000Z</time>
      </trkpt>
      <trkpt lat="42.216595" lon="2.923099">
        <ele>77</ele>
        <time>1970-01-01T03:20:15.000Z</time>
      </trkpt>
      <trkpt lat="42.216611" lon="2.923031">
        <ele>77</ele>
        <time>1970-01-01T03:20:17.000Z</time>
      </trkpt>
      <trkpt lat="42.216628" lon="2.922963">
        <ele>79</ele>
        <time>1970-01-01T03:20:18.000Z</time>
      </trkpt>
      <trkpt lat="42.216663" lon="2.922833">
        <ele>79</ele>
        <time>1970-01-01T03:20:19.000Z</time>
      </trkpt>
      <trkpt lat="42.216683" lon="2.922764">
        <ele>79</ele>
        <time>1970-01-01T03:20:20.000Z</time>
      </trkpt>
      <trkpt lat="42.216703" lon="2.922696">
        <ele>79</ele>
        <time>1970-01-01T03:20:21.000Z</time>
      </trkpt>
      <trkpt lat="42.216723" lon="2.922627">
        <ele>79</ele>
        <time>1970-01-01T03:20:22.000Z</time>
      </trkpt>
      <trkpt lat="42.216743" lon="2.922559">
        <ele>79</ele>
        <time>1970-01-01T03:20:24.000Z</time>
      </trkpt>
      <trkpt lat="42.216763" lon="2.92249">
        <ele>79</ele>
        <time>1970-01-01T03:20:25.000Z</time>
      </trkpt>
      <trkpt lat="42.216783" lon="2.922422">
        <ele>79</ele>
        <time>1970-01-01T03:20:27.000Z</time>
      </trkpt>
      <trkpt lat="42.216803" lon="2.922353">
        <ele>80</ele>
        <time>1970-01-01T03:20:28.000Z</time>
      </trkpt>
      <trkpt lat="42.216847" lon="2.922222">
        <ele>80</ele>
        <time>1970-01-01T03:20:29.000Z</time>
      </trkpt>
      <trkpt lat="42.216871" lon="2.922152">
        <ele>80</ele>
        <time>1970-01-01T03:20:30.000Z</time>
      </trkpt>
      <trkpt lat="42.216894" lon="2.922082">
        <ele>80</ele>
        <time>1970-01-01T03:20:31.000Z</time>
      </trkpt>
      <trkpt lat="42.216918" lon="2.922012">
        <ele>80</ele>
        <time>1970-01-01T03:20:32.000Z</time>
      </trkpt>
      <trkpt lat="42.216942" lon="2.921941">
        <ele>80</ele>
        <time>1970-01-01T03:20:34.000Z</time>
      </trkpt>
      <trkpt lat="42.216966" lon="2.921871">
        <ele>80</ele>
        <time>1970-01-01T03:20:36.000Z</time>
      </trkpt>
      <trkpt lat="42.216989" lon="2.921801">
        <ele>80</ele>
        <time>1970-01-01T03:20:37.000Z</time>
      </trkpt>
      <trkpt lat="42.217013" lon="2.921731">
        <ele>80</ele>
        <time>1970-01-01T03:20:38.000Z</time>
      </trkpt>
      <trkpt lat="42.217064" lon="2.921606">
        <ele>80</ele>
        <time>1970-01-01T03:20:39.000Z</time>
      </trkpt>
      <trkpt lat="42.217091" lon="2.921541">
        <ele>80</ele>
        <time>1970-01-01T03:20:41.000Z</time>
      </trkpt>
      <trkpt lat="42.217119" lon="2.921476">
        <ele>80</ele>
        <time>1970-01-01T03:20:42.000Z</time>
      </trkpt>
      <trkpt lat="42.217147" lon="2.921411">
        <ele>80</ele>
        <time>1970-01-01T03:20:44.000Z</time>
      </trkpt>
      <trkpt lat="42.217174" lon="2.921345">
        <ele>80</ele>
        <time>1970-01-01T03:20:45.000Z</time>
      </trkpt>
      <trkpt lat="42.217202" lon="2.92128">
        <ele>80</ele>
        <time>1970-01-01T03:20:46.000Z</time>
      </trkpt>
      <trkpt lat="42.217229" lon="2.921215">
        <ele>80</ele>
        <time>1970-01-01T03:20:47.000Z</time>
      </trkpt>
      <trkpt lat="42.217257" lon="2.92115">
        <ele>80</ele>
        <time>1970-01-01T03:20:48.000Z</time>
      </trkpt>
      <trkpt lat="42.21731" lon="2.921032">
        <ele>80</ele>
        <time>1970-01-01T03:20:49.000Z</time>
      </trkpt>
      <trkpt lat="42.217338" lon="2.920973">
        <ele>80</ele>
        <time>1970-01-01T03:20:50.000Z</time>
      </trkpt>
      <trkpt lat="42.217366" lon="2.920915">
        <ele>80</ele>
        <time>1970-01-01T03:20:51.000Z</time>
      </trkpt>
      <trkpt lat="42.217394" lon="2.920856">
        <ele>80</ele>
        <time>1970-01-01T03:20:52.000Z</time>
      </trkpt>
      <trkpt lat="42.217422" lon="2.920798">
        <ele>80</ele>
        <time>1970-01-01T03:20:54.000Z</time>
      </trkpt>
      <trkpt lat="42.21745" lon="2.920739">
        <ele>80</ele>
        <time>1970-01-01T03:20:55.000Z</time>
      </trkpt>
      <trkpt lat="42.217478" lon="2.920681">
        <ele>80</ele>
        <time>1970-01-01T03:20:56.000Z</time>
      </trkpt>
      <trkpt lat="42.217506" lon="2.920622">
        <ele>80</ele>
        <time>1970-01-01T03:20:57.000Z</time>
      </trkpt>
      <trkpt lat="42.217534" lon="2.920564">
        <ele>81</ele>
        <time>1970-01-01T03:20:58.000Z</time>
      </trkpt>
      <trkpt lat="42.217598" lon="2.920446">
        <ele>81</ele>
        <time>1970-01-01T03:20:59.000Z</time>
      </trkpt>
      <trkpt lat="42.217633" lon="2.920385">
        <ele>81</ele>
        <time>1970-01-01T03:21:00.000Z</time>
      </trkpt>
      <trkpt lat="42.217668" lon="2.920325">
        <ele>81</ele>
        <time>1970-01-01T03:21:01.000Z</time>
      </trkpt>
      <trkpt lat="42.217704" lon="2.920264">
        <ele>81</ele>
        <time>1970-01-01T03:21:02.000Z</time>
      </trkpt>
      <trkpt lat="42.217739" lon="2.920204">
        <ele>81</ele>
        <time>1970-01-01T03:21:04.000Z</time>
      </trkpt>
      <trkpt lat="42.217774" lon="2.920143">
        <ele>81</ele>
        <time>1970-01-01T03:21:05.000Z</time>
      </trkpt>
      <trkpt lat="42.217809" lon="2.920083">
        <ele>81</ele>
        <time>1970-01-01T03:21:07.000Z</time>
      </trkpt>
      <trkpt lat="42.217844" lon="2.920022">
        <ele>82</ele>
        <time>1970-01-01T03:21:08.000Z</time>
      </trkpt>
      <trkpt lat="42.217905" lon="2.919919">
        <ele>82</ele>
        <time>1970-01-01T03:21:09.000Z</time>
      </trkpt>
      <trkpt lat="42.217936" lon="2.919868">
        <ele>82</ele>
        <time>1970-01-01T03:21:10.000Z</time>
      </trkpt>
      <trkpt lat="42.217968" lon="2.919818">
        <ele>82</ele>
        <time>1970-01-01T03:21:11.000Z</time>
      </trkpt>
      <trkpt lat="42.218" lon="2.919768">
        <ele>82</ele>
        <time>1970-01-01T03:21:12.000Z</time>
      </trkpt>
      <trkpt lat="42.218031" lon="2.919717">
        <ele>82</ele>
        <time>1970-01-01T03:21:14.000Z</time>
      </trkpt>
      <trkpt lat="42.218063" lon="2.919667">
        <ele>82</ele>
        <time>1970-01-01T03:21:15.000Z</time>
      </trkpt>
      <trkpt lat="42.218095" lon="2.919617">
        <ele>82</ele>
        <time>1970-01-01T03:21:16.000Z</time>
      </trkpt>
      <trkpt lat="42.218126" lon="2.919566">
        <ele>82</ele>
        <time>1970-01-01T03:21:17.000Z</time>
      </trkpt>
      <trkpt lat="42.218158" lon="2.919516">
        <ele>83</ele>
        <time>1970-01-01T03:21:18.000Z</time>
      </trkpt>
      <trkpt lat="42.21822" lon="2.919419">
        <ele>83</ele>
        <time>1970-01-01T03:21:19.000Z</time>
      </trkpt>
      <trkpt lat="42.218251" lon="2.919373">
        <ele>83</ele>
        <time>1970-01-01T03:21:20.000Z</time>
      </trkpt>
      <trkpt lat="42.218281" lon="2.919328">
        <ele>83</ele>
        <time>1970-01-01T03:21:21.000Z</time>
      </trkpt>
      <trkpt lat="42.218311" lon="2.919282">
        <ele>83</ele>
        <time>1970-01-01T03:21:22.000Z</time>
      </trkpt>
      <trkpt lat="42.218342" lon="2.919236">
        <ele>83</ele>
        <time>1970-01-01T03:21:23.000Z</time>
      </trkpt>
      <trkpt lat="42.218372" lon="2.91919">
        <ele>83</ele>
        <time>1970-01-01T03:21:24.000Z</time>
      </trkpt>
      <trkpt lat="42.218402" lon="2.919144">
        <ele>83</ele>
        <time>1970-01-01T03:21:25.000Z</time>
      </trkpt>
      <trkpt lat="42.218432" lon="2.919099">
        <ele>83</ele>
        <time>1970-01-01T03:21:26.000Z</time>
      </trkpt>
      <trkpt lat="42.218463" lon="2.919053">
        <ele>83</ele>
        <time>1970-01-01T03:21:27.000Z</time>
      </trkpt>
      <trkpt lat="42.218493" lon="2.919007">
        <ele>83</ele>
        <time>1970-01-01T03:21:28.000Z</time>
      </trkpt>
      <trkpt lat="42.218561" lon="2.918906">
        <ele>83</ele>
        <time>1970-01-01T03:21:29.000Z</time>
      </trkpt>
      <trkpt lat="42.218596" lon="2.918855">
        <ele>83</ele>
        <time>1970-01-01T03:21:30.000Z</time>
      </trkpt>
      <trkpt lat="42.21863" lon="2.918804">
        <ele>83</ele>
        <time>1970-01-01T03:21:31.000Z</time>
      </trkpt>
      <trkpt lat="42.218664" lon="2.918753">
        <ele>83</ele>
        <time>1970-01-01T03:21:33.000Z</time>
      </trkpt>
      <trkpt lat="42.218699" lon="2.918703">
        <ele>83</ele>
        <time>1970-01-01T03:21:34.000Z</time>
      </trkpt>
      <trkpt lat="42.218733" lon="2.918652">
        <ele>83</ele>
        <time>1970-01-01T03:21:35.000Z</time>
      </trkpt>
      <trkpt lat="42.218767" lon="2.918601">
        <ele>83</ele>
        <time>1970-01-01T03:21:36.000Z</time>
      </trkpt>
      <trkpt lat="42.218802" lon="2.91855">
        <ele>83</ele>
        <time>1970-01-01T03:21:37.000Z</time>
      </trkpt>
      <trkpt lat="42.218836" lon="2.918499">
        <ele>84</ele>
        <time>1970-01-01T03:21:38.000Z</time>
      </trkpt>
      <trkpt lat="42.218905" lon="2.918398">
        <ele>84</ele>
        <time>1970-01-01T03:21:39.000Z</time>
      </trkpt>
      <trkpt lat="42.21894" lon="2.918349">
        <ele>84</ele>
        <time>1970-01-01T03:21:40.000Z</time>
      </trkpt>
      <trkpt lat="42.218975" lon="2.918301">
        <ele>84</ele>
        <time>1970-01-01T03:21:41.000Z</time>
      </trkpt>
      <trkpt lat="42.21901" lon="2.918252">
        <ele>84</ele>
        <time>1970-01-01T03:21:42.000Z</time>
      </trkpt>
      <trkpt lat="42.219046" lon="2.918203">
        <ele>84</ele>
        <time>1970-01-01T03:21:44.000Z</time>
      </trkpt>
      <trkpt lat="42.219081" lon="2.918154">
        <ele>84</ele>
        <time>1970-01-01T03:21:45.000Z</time>
      </trkpt>
      <trkpt lat="42.219116" lon="2.918106">
        <ele>84</ele>
        <time>1970-01-01T03:21:46.000Z</time>
      </trkpt>
      <trkpt lat="42.219151" lon="2.918057">
        <ele>84</ele>
        <time>1970-01-01T03:21:47.000Z</time>
      </trkpt>
      <trkpt lat="42.219186" lon="2.918008">
        <ele>85</ele>
        <time>1970-01-01T03:21:48.000Z</time>
      </trkpt>
      <trkpt lat="42.219272" lon="2.917944">
        <ele>85</ele>
        <time>1970-01-01T03:21:49.000Z</time>
      </trkpt>
      <trkpt lat="42.219316" lon="2.917915">
        <ele>85</ele>
        <time>1970-01-01T03:21:50.000Z</time>
      </trkpt>
      <trkpt lat="42.219359" lon="2.917885">
        <ele>85</ele>
        <time>1970-01-01T03:21:52.000Z</time>
      </trkpt>
      <trkpt lat="42.219402" lon="2.917856">
        <ele>85</ele>
        <time>1970-01-01T03:21:53.000Z</time>
      </trkpt>
      <trkpt lat="42.219446" lon="2.917826">
        <ele>85</ele>
        <time>1970-01-01T03:21:54.000Z</time>
      </trkpt>
      <trkpt lat="42.219489" lon="2.917797">
        <ele>85</ele>
        <time>1970-01-01T03:21:55.000Z</time>
      </trkpt>
      <trkpt lat="42.219532" lon="2.917767">
        <ele>85</ele>
        <time>1970-01-01T03:21:56.000Z</time>
      </trkpt>
      <trkpt lat="42.219576" lon="2.917738">
        <ele>85</ele>
        <time>1970-01-01T03:21:57.000Z</time>
      </trkpt>
      <trkpt lat="42.219619" lon="2.917708">
        <ele>85</ele>
        <time>1970-01-01T03:21:58.000Z</time>
      </trkpt>
      <trkpt lat="42.219658" lon="2.91758">
        <ele>85</ele>
        <time>1970-01-01T03:21:59.000Z</time>
      </trkpt>
      <trkpt lat="42.219675" lon="2.917514">
        <ele>85</ele>
        <time>1970-01-01T03:22:00.000Z</time>
      </trkpt>
      <trkpt lat="42.219692" lon="2.917449">
        <ele>85</ele>
        <time>1970-01-01T03:22:01.000Z</time>
      </trkpt>
      <trkpt lat="42.219709" lon="2.917383">
        <ele>85</ele>
        <time>1970-01-01T03:22:03.000Z</time>
      </trkpt>
      <trkpt lat="42.219727" lon="2.917317">
        <ele>85</ele>
        <time>1970-01-01T03:22:04.000Z</time>
      </trkpt>
      <trkpt lat="42.219744" lon="2.917251">
        <ele>85</ele>
        <time>1970-01-01T03:22:05.000Z</time>
      </trkpt>
      <trkpt lat="42.219761" lon="2.917186">
        <ele>85</ele>
        <time>1970-01-01T03:22:06.000Z</time>
      </trkpt>
      <trkpt lat="42.219778" lon="2.91712">
        <ele>85</ele>
        <time>1970-01-01T03:22:07.000Z</time>
      </trkpt>
      <trkpt lat="42.219795" lon="2.917054">
        <ele>86</ele>
        <time>1970-01-01T03:22:08.000Z</time>
      </trkpt>
      <trkpt lat="42.219865" lon="2.916937">
        <ele>86</ele>
        <time>1970-01-01T03:22:09.000Z</time>
      </trkpt>
      <trkpt lat="42.219904" lon="2.916878">
        <ele>86</ele>
        <time>1970-01-01T03:22:11.000Z</time>
      </trkpt>
      <trkpt lat="42.219942" lon="2.916818">
        <ele>86</ele>
        <time>1970-01-01T03:22:13.000Z</time>
      </trkpt>
      <trkpt lat="42.21998" lon="2.916759">
        <ele>86</ele>
        <time>1970-01-01T03:22:14.000Z</time>
      </trkpt>
      <trkpt lat="42.220018" lon="2.916699">
        <ele>86</ele>
        <time>1970-01-01T03:22:15.000Z</time>
      </trkpt>
      <trkpt lat="42.220057" lon="2.916639">
        <ele>86</ele>
        <time>1970-01-01T03:22:16.000Z</time>
      </trkpt>
      <trkpt lat="42.220095" lon="2.91658">
        <ele>86</ele>
        <time>1970-01-01T03:22:17.000Z</time>
      </trkpt>
      <trkpt lat="42.220133" lon="2.91652">
        <ele>87</ele>
        <time>1970-01-01T03:22:18.000Z</time>
      </trkpt>
      <trkpt lat="42.2202" lon="2.916418">
        <ele>87</ele>
        <time>1970-01-01T03:22:19.000Z</time>
      </trkpt>
      <trkpt lat="42.220232" lon="2.916369">
        <ele>87</ele>
        <time>1970-01-01T03:22:20.000Z</time>
      </trkpt>
      <trkpt lat="42.220265" lon="2.91632">
        <ele>87</ele>
        <time>1970-01-01T03:22:22.000Z</time>
      </trkpt>
      <trkpt lat="42.220298" lon="2.916271">
        <ele>87</ele>
        <time>1970-01-01T03:22:23.000Z</time>
      </trkpt>
      <trkpt lat="42.22033" lon="2.916223">
        <ele>87</ele>
        <time>1970-01-01T03:22:24.000Z</time>
      </trkpt>
      <trkpt lat="42.220363" lon="2.916174">
        <ele>87</ele>
        <time>1970-01-01T03:22:25.000Z</time>
      </trkpt>
      <trkpt lat="42.220396" lon="2.916125">
        <ele>87</ele>
        <time>1970-01-01T03:22:26.000Z</time>
      </trkpt>
      <trkpt lat="42.220428" lon="2.916076">
        <ele>87</ele>
        <time>1970-01-01T03:22:27.000Z</time>
      </trkpt>
      <trkpt lat="42.220461" lon="2.916027">
        <ele>88</ele>
        <time>1970-01-01T03:22:28.000Z</time>
      </trkpt>
      <trkpt lat="42.220539" lon="2.915913">
        <ele>88</ele>
        <time>1970-01-01T03:22:30.000Z</time>
      </trkpt>
      <trkpt lat="42.220572" lon="2.915864">
        <ele>88</ele>
        <time>1970-01-01T03:22:31.000Z</time>
      </trkpt>
      <trkpt lat="42.220606" lon="2.915816">
        <ele>88</ele>
        <time>1970-01-01T03:22:32.000Z</time>
      </trkpt>
      <trkpt lat="42.220639" lon="2.915768">
        <ele>88</ele>
        <time>1970-01-01T03:22:33.000Z</time>
      </trkpt>
      <trkpt lat="42.220672" lon="2.915719">
        <ele>88</ele>
        <time>1970-01-01T03:22:34.000Z</time>
      </trkpt>
      <trkpt lat="42.220705" lon="2.915671">
        <ele>88</ele>
        <time>1970-01-01T03:22:35.000Z</time>
      </trkpt>
      <trkpt lat="42.220739" lon="2.915623">
        <ele>88</ele>
        <time>1970-01-01T03:22:36.000Z</time>
      </trkpt>
      <trkpt lat="42.220772" lon="2.915574">
        <ele>88</ele>
        <time>1970-01-01T03:22:37.000Z</time>
      </trkpt>
      <trkpt lat="42.220805" lon="2.915526">
        <ele>90</ele>
        <time>1970-01-01T03:22:38.000Z</time>
      </trkpt>
      <trkpt lat="42.220874" lon="2.915424">
        <ele>90</ele>
        <time>1970-01-01T03:22:39.000Z</time>
      </trkpt>
      <trkpt lat="42.220909" lon="2.915372">
        <ele>90</ele>
        <time>1970-01-01T03:22:40.000Z</time>
      </trkpt>
      <trkpt lat="42.220945" lon="2.915319">
        <ele>90</ele>
        <time>1970-01-01T03:22:41.000Z</time>
      </trkpt>
      <trkpt lat="42.220981" lon="2.915267">
        <ele>90</ele>
        <time>1970-01-01T03:22:43.000Z</time>
      </trkpt>
      <trkpt lat="42.221016" lon="2.915214">
        <ele>90</ele>
        <time>1970-01-01T03:22:44.000Z</time>
      </trkpt>
      <trkpt lat="42.221052" lon="2.915162">
        <ele>90</ele>
        <time>1970-01-01T03:22:45.000Z</time>
      </trkpt>
      <trkpt lat="42.221088" lon="2.915109">
        <ele>90</ele>
        <time>1970-01-01T03:22:46.000Z</time>
      </trkpt>
      <trkpt lat="42.221123" lon="2.915057">
        <ele>90</ele>
        <time>1970-01-01T03:22:47.000Z</time>
      </trkpt>
      <trkpt lat="42.221159" lon="2.915004">
        <ele>90</ele>
        <time>1970-01-01T03:22:49.000Z</time>
      </trkpt>
      <trkpt lat="42.221217" lon="2.914917">
        <ele>90</ele>
        <time>1970-01-01T03:22:50.000Z</time>
      </trkpt>
      <trkpt lat="42.221245" lon="2.914876">
        <ele>90</ele>
        <time>1970-01-01T03:22:51.000Z</time>
      </trkpt>
      <trkpt lat="42.221272" lon="2.914835">
        <ele>90</ele>
        <time>1970-01-01T03:22:52.000Z</time>
      </trkpt>
      <trkpt lat="42.221299" lon="2.914794">
        <ele>90</ele>
        <time>1970-01-01T03:22:53.000Z</time>
      </trkpt>
      <trkpt lat="42.221327" lon="2.914752">
        <ele>90</ele>
        <time>1970-01-01T03:22:54.000Z</time>
      </trkpt>
      <trkpt lat="42.221354" lon="2.914711">
        <ele>90</ele>
        <time>1970-01-01T03:22:55.000Z</time>
      </trkpt>
      <trkpt lat="42.221381" lon="2.91467">
        <ele>90</ele>
        <time>1970-01-01T03:22:56.000Z</time>
      </trkpt>
      <trkpt lat="42.221409" lon="2.914629">
        <ele>90</ele>
        <time>1970-01-01T03:22:57.000Z</time>
      </trkpt>
      <trkpt lat="42.221436" lon="2.914588">
        <ele>92</ele>
        <time>1970-01-01T03:22:58.000Z</time>
      </trkpt>
      <trkpt lat="42.221497" lon="2.914494">
        <ele>92</ele>
        <time>1970-01-01T03:22:59.000Z</time>
      </trkpt>
      <trkpt lat="42.221527" lon="2.914447">
        <ele>92</ele>
        <time>1970-01-01T03:23:00.000Z</time>
      </trkpt>
      <trkpt lat="42.221557" lon="2.9144">
        <ele>92</ele>
        <time>1970-01-01T03:23:01.000Z</time>
      </trkpt>
      <trkpt lat="42.221587" lon="2.914353">
        <ele>92</ele>
        <time>1970-01-01T03:23:02.000Z</time>
      </trkpt>
      <trkpt lat="42.221618" lon="2.914306">
        <ele>92</ele>
        <time>1970-01-01T03:23:03.000Z</time>
      </trkpt>
      <trkpt lat="42.221648" lon="2.914259">
        <ele>92</ele>
        <time>1970-01-01T03:23:04.000Z</time>
      </trkpt>
      <trkpt lat="42.221678" lon="2.914212">
        <ele>92</ele>
        <time>1970-01-01T03:23:05.000Z</time>
      </trkpt>
      <trkpt lat="42.221708" lon="2.914165">
        <ele>92</ele>
        <time>1970-01-01T03:23:06.000Z</time>
      </trkpt>
      <trkpt lat="42.221738" lon="2.914118">
        <ele>95</ele>
        <time>1970-01-01T03:23:08.000Z</time>
      </trkpt>
      <trkpt lat="42.221796" lon="2.914024">
        <ele>95</ele>
        <time>1970-01-01T03:23:09.000Z</time>
      </trkpt>
      <trkpt lat="42.221825" lon="2.913975">
        <ele>95</ele>
        <time>1970-01-01T03:23:10.000Z</time>
      </trkpt>
      <trkpt lat="42.221855" lon="2.913927">
        <ele>95</ele>
        <time>1970-01-01T03:23:11.000Z</time>
      </trkpt>
      <trkpt lat="42.221884" lon="2.913878">
        <ele>95</ele>
        <time>1970-01-01T03:23:12.000Z</time>
      </trkpt>
      <trkpt lat="42.221913" lon="2.91383">
        <ele>95</ele>
        <time>1970-01-01T03:23:13.000Z</time>
      </trkpt>
      <trkpt lat="42.221942" lon="2.913781">
        <ele>95</ele>
        <time>1970-01-01T03:23:15.000Z</time>
      </trkpt>
      <trkpt lat="42.221972" lon="2.913733">
        <ele>95</ele>
        <time>1970-01-01T03:23:16.000Z</time>
      </trkpt>
      <trkpt lat="42.222001" lon="2.913684">
        <ele>95</ele>
        <time>1970-01-01T03:23:17.000Z</time>
      </trkpt>
      <trkpt lat="42.22203" lon="2.913636">
        <ele>95</ele>
        <time>1970-01-01T03:23:18.000Z</time>
      </trkpt>
      <trkpt lat="42.222085" lon="2.91354">
        <ele>95</ele>
        <time>1970-01-01T03:23:19.000Z</time>
      </trkpt>
      <trkpt lat="42.222111" lon="2.913493">
        <ele>95</ele>
        <time>1970-01-01T03:23:20.000Z</time>
      </trkpt>
      <trkpt lat="42.222138" lon="2.913447">
        <ele>95</ele>
        <time>1970-01-01T03:23:21.000Z</time>
      </trkpt>
      <trkpt lat="42.222164" lon="2.9134">
        <ele>95</ele>
        <time>1970-01-01T03:23:22.000Z</time>
      </trkpt>
      <trkpt lat="42.22219" lon="2.913354">
        <ele>95</ele>
        <time>1970-01-01T03:23:23.000Z</time>
      </trkpt>
      <trkpt lat="42.222216" lon="2.913308">
        <ele>95</ele>
        <time>1970-01-01T03:23:24.000Z</time>
      </trkpt>
      <trkpt lat="42.222242" lon="2.913261">
        <ele>95</ele>
        <time>1970-01-01T03:23:25.000Z</time>
      </trkpt>
      <trkpt lat="42.222269" lon="2.913215">
        <ele>95</ele>
        <time>1970-01-01T03:23:26.000Z</time>
      </trkpt>
      <trkpt lat="42.222295" lon="2.913168">
        <ele>95</ele>
        <time>1970-01-01T03:23:27.000Z</time>
      </trkpt>
      <trkpt lat="42.222321" lon="2.913122">
        <ele>96</ele>
        <time>1970-01-01T03:23:28.000Z</time>
      </trkpt>
      <trkpt lat="42.222375" lon="2.913019">
        <ele>96</ele>
        <time>1970-01-01T03:23:29.000Z</time>
      </trkpt>
      <trkpt lat="42.2224" lon="2.91297">
        <ele>96</ele>
        <time>1970-01-01T03:23:30.000Z</time>
      </trkpt>
      <trkpt lat="42.222426" lon="2.91292">
        <ele>96</ele>
        <time>1970-01-01T03:23:31.000Z</time>
      </trkpt>
      <trkpt lat="42.222451" lon="2.91287">
        <ele>96</ele>
        <time>1970-01-01T03:23:32.000Z</time>
      </trkpt>
      <trkpt lat="42.222476" lon="2.912821">
        <ele>96</ele>
        <time>1970-01-01T03:23:33.000Z</time>
      </trkpt>
      <trkpt lat="42.222501" lon="2.912771">
        <ele>96</ele>
        <time>1970-01-01T03:23:34.000Z</time>
      </trkpt>
      <trkpt lat="42.222526" lon="2.912721">
        <ele>96</ele>
        <time>1970-01-01T03:23:35.000Z</time>
      </trkpt>
      <trkpt lat="42.222552" lon="2.912671">
        <ele>96</ele>
        <time>1970-01-01T03:23:36.000Z</time>
      </trkpt>
      <trkpt lat="42.222577" lon="2.912622">
        <ele>96</ele>
        <time>1970-01-01T03:23:37.000Z</time>
      </trkpt>
      <trkpt lat="42.222602" lon="2.912572">
        <ele>96</ele>
        <time>1970-01-01T03:23:38.000Z</time>
      </trkpt>
      <trkpt lat="42.222656" lon="2.912457">
        <ele>96</ele>
        <time>1970-01-01T03:23:39.000Z</time>
      </trkpt>
      <trkpt lat="42.222682" lon="2.912398">
        <ele>96</ele>
        <time>1970-01-01T03:23:40.000Z</time>
      </trkpt>
      <trkpt lat="42.222708" lon="2.91234">
        <ele>96</ele>
        <time>1970-01-01T03:23:41.000Z</time>
      </trkpt>
      <trkpt lat="42.222734" lon="2.912281">
        <ele>96</ele>
        <time>1970-01-01T03:23:42.000Z</time>
      </trkpt>
      <trkpt lat="42.22276" lon="2.912223">
        <ele>96</ele>
        <time>1970-01-01T03:23:43.000Z</time>
      </trkpt>
      <trkpt lat="42.222786" lon="2.912164">
        <ele>96</ele>
        <time>1970-01-01T03:23:44.000Z</time>
      </trkpt>
      <trkpt lat="42.222812" lon="2.912106">
        <ele>96</ele>
        <time>1970-01-01T03:23:46.000Z</time>
      </trkpt>
      <trkpt lat="42.222838" lon="2.912047">
        <ele>96</ele>
        <time>1970-01-01T03:23:47.000Z</time>
      </trkpt>
      <trkpt lat="42.222864" lon="2.911989">
        <ele>96</ele>
        <time>1970-01-01T03:23:48.000Z</time>
      </trkpt>
      <trkpt lat="42.222915" lon="2.911865">
        <ele>96</ele>
        <time>1970-01-01T03:23:49.000Z</time>
      </trkpt>
      <trkpt lat="42.22294" lon="2.911802">
        <ele>96</ele>
        <time>1970-01-01T03:23:50.000Z</time>
      </trkpt>
      <trkpt lat="42.222965" lon="2.911739">
        <ele>96</ele>
        <time>1970-01-01T03:23:51.000Z</time>
      </trkpt>
      <trkpt lat="42.22299" lon="2.911676">
        <ele>96</ele>
        <time>1970-01-01T03:23:52.000Z</time>
      </trkpt>
      <trkpt lat="42.223016" lon="2.911613">
        <ele>96</ele>
        <time>1970-01-01T03:23:53.000Z</time>
      </trkpt>
      <trkpt lat="42.223041" lon="2.91155">
        <ele>96</ele>
        <time>1970-01-01T03:23:55.000Z</time>
      </trkpt>
      <trkpt lat="42.223066" lon="2.911487">
        <ele>96</ele>
        <time>1970-01-01T03:23:56.000Z</time>
      </trkpt>
      <trkpt lat="42.223091" lon="2.911424">
        <ele>96</ele>
        <time>1970-01-01T03:23:57.000Z</time>
      </trkpt>
      <trkpt lat="42.223116" lon="2.911361">
        <ele>96</ele>
        <time>1970-01-01T03:23:58.000Z</time>
      </trkpt>
      <trkpt lat="42.223162" lon="2.911228">
        <ele>96</ele>
        <time>1970-01-01T03:23:59.000Z</time>
      </trkpt>
      <trkpt lat="42.223185" lon="2.911161">
        <ele>96</ele>
        <time>1970-01-01T03:24:00.000Z</time>
      </trkpt>
      <trkpt lat="42.223207" lon="2.911094">
        <ele>96</ele>
        <time>1970-01-01T03:24:01.000Z</time>
      </trkpt>
      <trkpt lat="42.223229" lon="2.911027">
        <ele>96</ele>
        <time>1970-01-01T03:24:02.000Z</time>
      </trkpt>
      <trkpt lat="42.223252" lon="2.910961">
        <ele>96</ele>
        <time>1970-01-01T03:24:03.000Z</time>
      </trkpt>
      <trkpt lat="42.223274" lon="2.910894">
        <ele>96</ele>
        <time>1970-01-01T03:24:05.000Z</time>
      </trkpt>
      <trkpt lat="42.223296" lon="2.910827">
        <ele>96</ele>
        <time>1970-01-01T03:24:06.000Z</time>
      </trkpt>
      <trkpt lat="42.223319" lon="2.91076">
        <ele>96</ele>
        <time>1970-01-01T03:24:07.000Z</time>
      </trkpt>
      <trkpt lat="42.223341" lon="2.910693">
        <ele>97</ele>
        <time>1970-01-01T03:24:08.000Z</time>
      </trkpt>
      <trkpt lat="42.223379" lon="2.910567">
        <ele>97</ele>
        <time>1970-01-01T03:24:09.000Z</time>
      </trkpt>
      <trkpt lat="42.223396" lon="2.910507">
        <ele>97</ele>
        <time>1970-01-01T03:24:10.000Z</time>
      </trkpt>
      <trkpt lat="42.223414" lon="2.910448">
        <ele>97</ele>
        <time>1970-01-01T03:24:11.000Z</time>
      </trkpt>
      <trkpt lat="42.223431" lon="2.910389">
        <ele>97</ele>
        <time>1970-01-01T03:24:12.000Z</time>
      </trkpt>
      <trkpt lat="42.223448" lon="2.91033">
        <ele>97</ele>
        <time>1970-01-01T03:24:13.000Z</time>
      </trkpt>
      <trkpt lat="42.223465" lon="2.91027">
        <ele>97</ele>
        <time>1970-01-01T03:24:14.000Z</time>
      </trkpt>
      <trkpt lat="42.223482" lon="2.910211">
        <ele>97</ele>
        <time>1970-01-01T03:24:15.000Z</time>
      </trkpt>
      <trkpt lat="42.2235" lon="2.910152">
        <ele>97</ele>
        <time>1970-01-01T03:24:16.000Z</time>
      </trkpt>
      <trkpt lat="42.223517" lon="2.910092">
        <ele>97</ele>
        <time>1970-01-01T03:24:17.000Z</time>
      </trkpt>
      <trkpt lat="42.223534" lon="2.910033">
        <ele>98</ele>
        <time>1970-01-01T03:24:18.000Z</time>
      </trkpt>
      <trkpt lat="42.223568" lon="2.9099">
        <ele>98</ele>
        <time>1970-01-01T03:24:19.000Z</time>
      </trkpt>
      <trkpt lat="42.223584" lon="2.909834">
        <ele>98</ele>
        <time>1970-01-01T03:24:20.000Z</time>
      </trkpt>
      <trkpt lat="42.223599" lon="2.909767">
        <ele>98</ele>
        <time>1970-01-01T03:24:21.000Z</time>
      </trkpt>
      <trkpt lat="42.223615" lon="2.9097">
        <ele>98</ele>
        <time>1970-01-01T03:24:22.000Z</time>
      </trkpt>
      <trkpt lat="42.223631" lon="2.909634">
        <ele>98</ele>
        <time>1970-01-01T03:24:24.000Z</time>
      </trkpt>
      <trkpt lat="42.223647" lon="2.909567">
        <ele>98</ele>
        <time>1970-01-01T03:24:25.000Z</time>
      </trkpt>
      <trkpt lat="42.223662" lon="2.9095">
        <ele>98</ele>
        <time>1970-01-01T03:24:26.000Z</time>
      </trkpt>
      <trkpt lat="42.223678" lon="2.909434">
        <ele>98</ele>
        <time>1970-01-01T03:24:27.000Z</time>
      </trkpt>
      <trkpt lat="42.223694" lon="2.909367">
        <ele>99</ele>
        <time>1970-01-01T03:24:28.000Z</time>
      </trkpt>
      <trkpt lat="42.223721" lon="2.909228">
        <ele>99</ele>
        <time>1970-01-01T03:24:29.000Z</time>
      </trkpt>
      <trkpt lat="42.223734" lon="2.909158">
        <ele>99</ele>
        <time>1970-01-01T03:24:30.000Z</time>
      </trkpt>
      <trkpt lat="42.223747" lon="2.909089">
        <ele>99</ele>
        <time>1970-01-01T03:24:31.000Z</time>
      </trkpt>
      <trkpt lat="42.22376" lon="2.909019">
        <ele>99</ele>
        <time>1970-01-01T03:24:33.000Z</time>
      </trkpt>
      <trkpt lat="42.223773" lon="2.90895">
        <ele>99</ele>
        <time>1970-01-01T03:24:34.000Z</time>
      </trkpt>
      <trkpt lat="42.223786" lon="2.90888">
        <ele>99</ele>
        <time>1970-01-01T03:24:35.000Z</time>
      </trkpt>
      <trkpt lat="42.223799" lon="2.908811">
        <ele>99</ele>
        <time>1970-01-01T03:24:36.000Z</time>
      </trkpt>
      <trkpt lat="42.223812" lon="2.908741">
        <ele>99</ele>
        <time>1970-01-01T03:24:37.000Z</time>
      </trkpt>
      <trkpt lat="42.223825" lon="2.908672">
        <ele>99</ele>
        <time>1970-01-01T03:24:38.000Z</time>
      </trkpt>
      <trkpt lat="42.223845" lon="2.908538">
        <ele>99</ele>
        <time>1970-01-01T03:24:39.000Z</time>
      </trkpt>
      <trkpt lat="42.223855" lon="2.908475">
        <ele>99</ele>
        <time>1970-01-01T03:24:40.000Z</time>
      </trkpt>
      <trkpt lat="42.223864" lon="2.908411">
        <ele>99</ele>
        <time>1970-01-01T03:24:41.000Z</time>
      </trkpt>
      <trkpt lat="42.223873" lon="2.908348">
        <ele>99</ele>
        <time>1970-01-01T03:24:42.000Z</time>
      </trkpt>
      <trkpt lat="42.223883" lon="2.908284">
        <ele>99</ele>
        <time>1970-01-01T03:24:43.000Z</time>
      </trkpt>
      <trkpt lat="42.223892" lon="2.90822">
        <ele>99</ele>
        <time>1970-01-01T03:24:44.000Z</time>
      </trkpt>
      <trkpt lat="42.223901" lon="2.908157">
        <ele>99</ele>
        <time>1970-01-01T03:24:45.000Z</time>
      </trkpt>
      <trkpt lat="42.22391" lon="2.908093">
        <ele>99</ele>
        <time>1970-01-01T03:24:46.000Z</time>
      </trkpt>
      <trkpt lat="42.22392" lon="2.90803">
        <ele>99</ele>
        <time>1970-01-01T03:24:47.000Z</time>
      </trkpt>
      <trkpt lat="42.223929" lon="2.907966">
        <ele>100</ele>
        <time>1970-01-01T03:24:48.000Z</time>
      </trkpt>
      <trkpt lat="42.223943" lon="2.907832">
        <ele>100</ele>
        <time>1970-01-01T03:24:49.000Z</time>
      </trkpt>
      <trkpt lat="42.223949" lon="2.907769">
        <ele>100</ele>
        <time>1970-01-01T03:24:50.000Z</time>
      </trkpt>
      <trkpt lat="42.223956" lon="2.907707">
        <ele>100</ele>
        <time>1970-01-01T03:24:51.000Z</time>
      </trkpt>
      <trkpt lat="42.223962" lon="2.907644">
        <ele>100</ele>
        <time>1970-01-01T03:24:52.000Z</time>
      </trkpt>
      <trkpt lat="42.223968" lon="2.907582">
        <ele>100</ele>
        <time>1970-01-01T03:24:53.000Z</time>
      </trkpt>
      <trkpt lat="42.223974" lon="2.90752">
        <ele>100</ele>
        <time>1970-01-01T03:24:54.000Z</time>
      </trkpt>
      <trkpt lat="42.22398" lon="2.907457">
        <ele>100</ele>
        <time>1970-01-01T03:24:55.000Z</time>
      </trkpt>
      <trkpt lat="42.223987" lon="2.907395">
        <ele>100</ele>
        <time>1970-01-01T03:24:56.000Z</time>
      </trkpt>
      <trkpt lat="42.223993" lon="2.907332">
        <ele>100</ele>
        <time>1970-01-01T03:24:57.000Z</time>
      </trkpt>
      <trkpt lat="42.223999" lon="2.90727">
        <ele>100</ele>
        <time>1970-01-01T03:24:58.000Z</time>
      </trkpt>
      <trkpt lat="42.224003" lon="2.907205">
        <ele>100</ele>
        <time>1970-01-01T03:24:59.000Z</time>
      </trkpt>
      <trkpt lat="42.224009" lon="2.907149">
        <ele>100</ele>
        <time>1970-01-01T03:25:00.000Z</time>
      </trkpt>
      <trkpt lat="42.224013" lon="2.907108">
        <ele>100</ele>
        <time>1970-01-01T03:25:02.000Z</time>
      </trkpt>
      <trkpt lat="42.224013" lon="2.907108">
        <ele>101</ele>
        <time>1970-01-01T03:25:08.000Z</time>
      </trkpt>
      <trkpt lat="42.224015" lon="2.907036">
        <ele>101</ele>
        <time>1970-01-01T03:25:09.000Z</time>
      </trkpt>
      <trkpt lat="42.224017" lon="2.906991">
        <ele>101</ele>
        <time>1970-01-01T03:28:05.000Z</time>
      </trkpt>
      <trkpt lat="42.224019" lon="2.906947">
        <ele>101</ele>
        <time>1970-01-01T03:28:06.000Z</time>
      </trkpt>
      <trkpt lat="42.224021" lon="2.906902">
        <ele>101</ele>
        <time>1970-01-01T03:28:07.000Z</time>
      </trkpt>
      <trkpt lat="42.224023" lon="2.906858">
        <ele>101</ele>
        <time>1970-01-01T03:28:08.000Z</time>
      </trkpt>
      <trkpt lat="42.224026" lon="2.906813">
        <ele>101</ele>
        <time>1970-01-01T03:28:09.000Z</time>
      </trkpt>
      <trkpt lat="42.224028" lon="2.906769">
        <ele>101</ele>
        <time>1970-01-01T03:28:10.000Z</time>
      </trkpt>
      <trkpt lat="42.22403" lon="2.906724">
        <ele>101</ele>
        <time>1970-01-01T03:28:11.000Z</time>
      </trkpt>
      <trkpt lat="42.224032" lon="2.90668">
        <ele>101</ele>
        <time>1970-01-01T03:28:12.000Z</time>
      </trkpt>
      <trkpt lat="42.224034" lon="2.906635">
        <ele>101</ele>
        <time>1970-01-01T03:28:13.000Z</time>
      </trkpt>
      <trkpt lat="42.224036" lon="2.906591">
        <ele>101</ele>
        <time>1970-01-01T03:28:14.000Z</time>
      </trkpt>
      <trkpt lat="42.224043" lon="2.906476">
        <ele>101</ele>
        <time>1970-01-01T03:28:15.000Z</time>
      </trkpt>
      <trkpt lat="42.224046" lon="2.906414">
        <ele>101</ele>
        <time>1970-01-01T03:28:16.000Z</time>
      </trkpt>
      <trkpt lat="42.224049" lon="2.906352">
        <ele>101</ele>
        <time>1970-01-01T03:28:17.000Z</time>
      </trkpt>
      <trkpt lat="42.224052" lon="2.90629">
        <ele>101</ele>
        <time>1970-01-01T03:28:18.000Z</time>
      </trkpt>
      <trkpt lat="42.224055" lon="2.906229">
        <ele>101</ele>
        <time>1970-01-01T03:28:19.000Z</time>
      </trkpt>
      <trkpt lat="42.224057" lon="2.906167">
        <ele>101</ele>
        <time>1970-01-01T03:28:20.000Z</time>
      </trkpt>
      <trkpt lat="42.22406" lon="2.906105">
        <ele>101</ele>
        <time>1970-01-01T03:28:21.000Z</time>
      </trkpt>
      <trkpt lat="42.224063" lon="2.906043">
        <ele>101</ele>
        <time>1970-01-01T03:28:22.000Z</time>
      </trkpt>
      <trkpt lat="42.224066" lon="2.905981">
        <ele>101</ele>
        <time>1970-01-01T03:28:23.000Z</time>
      </trkpt>
      <trkpt lat="42.224069" lon="2.905919">
        <ele>101</ele>
        <time>1970-01-01T03:28:25.000Z</time>
      </trkpt>
      <trkpt lat="42.224072" lon="2.905792">
        <ele>101</ele>
        <time>1970-01-01T03:28:26.000Z</time>
      </trkpt>
      <trkpt lat="42.224073" lon="2.905731">
        <ele>101</ele>
        <time>1970-01-01T03:28:27.000Z</time>
      </trkpt>
      <trkpt lat="42.224074" lon="2.905671">
        <ele>101</ele>
        <time>1970-01-01T03:28:28.000Z</time>
      </trkpt>
      <trkpt lat="42.224075" lon="2.90561">
        <ele>101</ele>
        <time>1970-01-01T03:28:29.000Z</time>
      </trkpt>
      <trkpt lat="42.224076" lon="2.90555">
        <ele>101</ele>
        <time>1970-01-01T03:28:30.000Z</time>
      </trkpt>
      <trkpt lat="42.224077" lon="2.905489">
        <ele>101</ele>
        <time>1970-01-01T03:28:31.000Z</time>
      </trkpt>
      <trkpt lat="42.224078" lon="2.905429">
        <ele>101</ele>
        <time>1970-01-01T03:28:32.000Z</time>
      </trkpt>
      <trkpt lat="42.224079" lon="2.905368">
        <ele>101</ele>
        <time>1970-01-01T03:28:33.000Z</time>
      </trkpt>
      <trkpt lat="42.22408" lon="2.905308">
        <ele>101</ele>
        <time>1970-01-01T03:28:34.000Z</time>
      </trkpt>
      <trkpt lat="42.224082" lon="2.905168">
        <ele>101</ele>
        <time>1970-01-01T03:28:35.000Z</time>
      </trkpt>
      <trkpt lat="42.224083" lon="2.905097">
        <ele>101</ele>
        <time>1970-01-01T03:28:36.000Z</time>
      </trkpt>
      <trkpt lat="42.224084" lon="2.905025">
        <ele>101</ele>
        <time>1970-01-01T03:28:37.000Z</time>
      </trkpt>
      <trkpt lat="42.224085" lon="2.904954">
        <ele>101</ele>
        <time>1970-01-01T03:28:38.000Z</time>
      </trkpt>
      <trkpt lat="42.224087" lon="2.904883">
        <ele>101</ele>
        <time>1970-01-01T03:28:40.000Z</time>
      </trkpt>
      <trkpt lat="42.224088" lon="2.904812">
        <ele>101</ele>
        <time>1970-01-01T03:28:41.000Z</time>
      </trkpt>
      <trkpt lat="42.224089" lon="2.90474">
        <ele>101</ele>
        <time>1970-01-01T03:28:42.000Z</time>
      </trkpt>
      <trkpt lat="42.22409" lon="2.904669">
        <ele>101</ele>
        <time>1970-01-01T03:28:43.000Z</time>
      </trkpt>
      <trkpt lat="42.224091" lon="2.904598">
        <ele>101</ele>
        <time>1970-01-01T03:28:44.000Z</time>
      </trkpt>
      <trkpt lat="42.224094" lon="2.904449">
        <ele>101</ele>
        <time>1970-01-01T03:28:45.000Z</time>
      </trkpt>
      <trkpt lat="42.224095" lon="2.904374">
        <ele>101</ele>
        <time>1970-01-01T03:28:46.000Z</time>
      </trkpt>
      <trkpt lat="42.224096" lon="2.904299">
        <ele>101</ele>
        <time>1970-01-01T03:28:47.000Z</time>
      </trkpt>
      <trkpt lat="42.224097" lon="2.904224">
        <ele>101</ele>
        <time>1970-01-01T03:28:49.000Z</time>
      </trkpt>
      <trkpt lat="42.224099" lon="2.90415">
        <ele>101</ele>
        <time>1970-01-01T03:28:50.000Z</time>
      </trkpt>
      <trkpt lat="42.2241" lon="2.904075">
        <ele>101</ele>
        <time>1970-01-01T03:28:51.000Z</time>
      </trkpt>
      <trkpt lat="42.224101" lon="2.904">
        <ele>101</ele>
        <time>1970-01-01T03:28:52.000Z</time>
      </trkpt>
      <trkpt lat="42.224102" lon="2.903925">
        <ele>101</ele>
        <time>1970-01-01T03:28:53.000Z</time>
      </trkpt>
      <trkpt lat="42.224103" lon="2.90385">
        <ele>101</ele>
        <time>1970-01-01T03:28:54.000Z</time>
      </trkpt>
      <trkpt lat="42.224105" lon="2.903708">
        <ele>101</ele>
        <time>1970-01-01T03:28:55.000Z</time>
      </trkpt>
      <trkpt lat="42.224106" lon="2.903641">
        <ele>101</ele>
        <time>1970-01-01T03:28:56.000Z</time>
      </trkpt>
      <trkpt lat="42.224107" lon="2.903573">
        <ele>101</ele>
        <time>1970-01-01T03:28:57.000Z</time>
      </trkpt>
      <trkpt lat="42.224108" lon="2.903506">
        <ele>101</ele>
        <time>1970-01-01T03:28:58.000Z</time>
      </trkpt>
      <trkpt lat="42.224109" lon="2.903439">
        <ele>101</ele>
        <time>1970-01-01T03:28:59.000Z</time>
      </trkpt>
      <trkpt lat="42.22411" lon="2.903372">
        <ele>101</ele>
        <time>1970-01-01T03:29:00.000Z</time>
      </trkpt>
      <trkpt lat="42.224111" lon="2.903305">
        <ele>101</ele>
        <time>1970-01-01T03:29:01.000Z</time>
      </trkpt>
      <trkpt lat="42.224112" lon="2.903237">
        <ele>101</ele>
        <time>1970-01-01T03:29:02.000Z</time>
      </trkpt>
      <trkpt lat="42.224113" lon="2.90317">
        <ele>101</ele>
        <time>1970-01-01T03:29:03.000Z</time>
      </trkpt>
      <trkpt lat="42.224114" lon="2.903103">
        <ele>101</ele>
        <time>1970-01-01T03:29:04.000Z</time>
      </trkpt>
      <trkpt lat="42.224116" lon="2.902951">
        <ele>101</ele>
        <time>1970-01-01T03:29:05.000Z</time>
      </trkpt>
      <trkpt lat="42.224117" lon="2.902874">
        <ele>101</ele>
        <time>1970-01-01T03:29:07.000Z</time>
      </trkpt>
      <trkpt lat="42.224119" lon="2.902796">
        <ele>101</ele>
        <time>1970-01-01T03:29:08.000Z</time>
      </trkpt>
      <trkpt lat="42.22412" lon="2.902719">
        <ele>101</ele>
        <time>1970-01-01T03:29:09.000Z</time>
      </trkpt>
      <trkpt lat="42.224121" lon="2.902642">
        <ele>101</ele>
        <time>1970-01-01T03:29:10.000Z</time>
      </trkpt>
      <trkpt lat="42.224122" lon="2.902565">
        <ele>101</ele>
        <time>1970-01-01T03:29:11.000Z</time>
      </trkpt>
      <trkpt lat="42.224124" lon="2.902487">
        <ele>101</ele>
        <time>1970-01-01T03:29:12.000Z</time>
      </trkpt>
      <trkpt lat="42.224125" lon="2.90241">
        <ele>101</ele>
        <time>1970-01-01T03:29:13.000Z</time>
      </trkpt>
      <trkpt lat="42.224126" lon="2.902333">
        <ele>101</ele>
        <time>1970-01-01T03:29:14.000Z</time>
      </trkpt>
      <trkpt lat="42.22413" lon="2.902095">
        <ele>101</ele>
        <time>1970-01-01T03:29:16.000Z</time>
      </trkpt>
      <trkpt lat="42.224131" lon="2.902015">
        <ele>101</ele>
        <time>1970-01-01T03:29:17.000Z</time>
      </trkpt>
      <trkpt lat="42.224132" lon="2.901934">
        <ele>101</ele>
        <time>1970-01-01T03:29:18.000Z</time>
      </trkpt>
      <trkpt lat="42.224133" lon="2.901854">
        <ele>101</ele>
        <time>1970-01-01T03:29:19.000Z</time>
      </trkpt>
      <trkpt lat="42.224134" lon="2.901774">
        <ele>101</ele>
        <time>1970-01-01T03:29:20.000Z</time>
      </trkpt>
      <trkpt lat="42.224135" lon="2.901694">
        <ele>101</ele>
        <time>1970-01-01T03:29:21.000Z</time>
      </trkpt>
      <trkpt lat="42.224136" lon="2.901613">
        <ele>101</ele>
        <time>1970-01-01T03:29:22.000Z</time>
      </trkpt>
      <trkpt lat="42.224137" lon="2.901533">
        <ele>101</ele>
        <time>1970-01-01T03:29:24.000Z</time>
      </trkpt>
      <trkpt lat="42.224139" lon="2.901381">
        <ele>101</ele>
        <time>1970-01-01T03:29:25.000Z</time>
      </trkpt>
      <trkpt lat="42.224139" lon="2.901309">
        <ele>101</ele>
        <time>1970-01-01T03:29:26.000Z</time>
      </trkpt>
      <trkpt lat="42.22414" lon="2.901237">
        <ele>101</ele>
        <time>1970-01-01T03:29:27.000Z</time>
      </trkpt>
      <trkpt lat="42.224141" lon="2.901165">
        <ele>101</ele>
        <time>1970-01-01T03:29:28.000Z</time>
      </trkpt>
      <trkpt lat="42.224142" lon="2.901093">
        <ele>101</ele>
        <time>1970-01-01T03:29:29.000Z</time>
      </trkpt>
      <trkpt lat="42.224142" lon="2.901021">
        <ele>101</ele>
        <time>1970-01-01T03:29:30.000Z</time>
      </trkpt>
      <trkpt lat="42.224143" lon="2.900949">
        <ele>101</ele>
        <time>1970-01-01T03:29:31.000Z</time>
      </trkpt>
      <trkpt lat="42.224144" lon="2.900877">
        <ele>101</ele>
        <time>1970-01-01T03:29:32.000Z</time>
      </trkpt>
      <trkpt lat="42.224144" lon="2.900805">
        <ele>101</ele>
        <time>1970-01-01T03:29:33.000Z</time>
      </trkpt>
      <trkpt lat="42.224145" lon="2.900733">
        <ele>103</ele>
        <time>1970-01-01T03:29:34.000Z</time>
      </trkpt>
      <trkpt lat="42.224145" lon="2.900575">
        <ele>103</ele>
        <time>1970-01-01T03:29:35.000Z</time>
      </trkpt>
      <trkpt lat="42.224146" lon="2.900496">
        <ele>103</ele>
        <time>1970-01-01T03:29:36.000Z</time>
      </trkpt>
      <trkpt lat="42.224146" lon="2.900418">
        <ele>103</ele>
        <time>1970-01-01T03:29:37.000Z</time>
      </trkpt>
      <trkpt lat="42.224147" lon="2.900339">
        <ele>103</ele>
        <time>1970-01-01T03:29:38.000Z</time>
      </trkpt>
      <trkpt lat="42.224147" lon="2.900261">
        <ele>103</ele>
        <time>1970-01-01T03:29:39.000Z</time>
      </trkpt>
      <trkpt lat="42.224148" lon="2.900182">
        <ele>103</ele>
        <time>1970-01-01T03:29:41.000Z</time>
      </trkpt>
      <trkpt lat="42.224148" lon="2.900104">
        <ele>103</ele>
        <time>1970-01-01T03:29:42.000Z</time>
      </trkpt>
      <trkpt lat="42.224149" lon="2.900025">
        <ele>103</ele>
        <time>1970-01-01T03:29:43.000Z</time>
      </trkpt>
      <trkpt lat="42.224149" lon="2.899947">
        <ele>103</ele>
        <time>1970-01-01T03:29:44.000Z</time>
      </trkpt>
      <trkpt lat="42.22415" lon="2.899799">
        <ele>103</ele>
        <time>1970-01-01T03:29:45.000Z</time>
      </trkpt>
      <trkpt lat="42.224151" lon="2.89973">
        <ele>103</ele>
        <time>1970-01-01T03:29:46.000Z</time>
      </trkpt>
      <trkpt lat="42.224152" lon="2.89966">
        <ele>103</ele>
        <time>1970-01-01T03:29:47.000Z</time>
      </trkpt>
      <trkpt lat="42.224153" lon="2.89959">
        <ele>103</ele>
        <time>1970-01-01T03:29:48.000Z</time>
      </trkpt>
      <trkpt lat="42.224154" lon="2.899521">
        <ele>103</ele>
        <time>1970-01-01T03:29:49.000Z</time>
      </trkpt>
      <trkpt lat="42.224154" lon="2.899451">
        <ele>103</ele>
        <time>1970-01-01T03:29:50.000Z</time>
      </trkpt>
      <trkpt lat="42.224155" lon="2.899381">
        <ele>103</ele>
        <time>1970-01-01T03:29:51.000Z</time>
      </trkpt>
      <trkpt lat="42.224156" lon="2.899311">
        <ele>103</ele>
        <time>1970-01-01T03:29:52.000Z</time>
      </trkpt>
      <trkpt lat="42.224157" lon="2.899242">
        <ele>103</ele>
        <time>1970-01-01T03:29:53.000Z</time>
      </trkpt>
      <trkpt lat="42.224158" lon="2.899172">
        <ele>104</ele>
        <time>1970-01-01T03:29:54.000Z</time>
      </trkpt>
      <trkpt lat="42.224159" lon="2.89902">
        <ele>104</ele>
        <time>1970-01-01T03:29:55.000Z</time>
      </trkpt>
      <trkpt lat="42.224159" lon="2.898947">
        <ele>104</ele>
        <time>1970-01-01T03:29:56.000Z</time>
      </trkpt>
      <trkpt lat="42.224159" lon="2.898875">
        <ele>104</ele>
        <time>1970-01-01T03:29:57.000Z</time>
      </trkpt>
      <trkpt lat="42.224159" lon="2.898802">
        <ele>104</ele>
        <time>1970-01-01T03:29:58.000Z</time>
      </trkpt>
      <trkpt lat="42.224159" lon="2.898729">
        <ele>104</ele>
        <time>1970-01-01T03:29:59.000Z</time>
      </trkpt>
      <trkpt lat="42.224159" lon="2.898656">
        <ele>104</ele>
        <time>1970-01-01T03:30:00.000Z</time>
      </trkpt>
      <trkpt lat="42.224159" lon="2.898583">
        <ele>104</ele>
        <time>1970-01-01T03:30:01.000Z</time>
      </trkpt>
      <trkpt lat="42.224159" lon="2.898511">
        <ele>104</ele>
        <time>1970-01-01T03:30:02.000Z</time>
      </trkpt>
      <trkpt lat="42.224159" lon="2.898438">
        <ele>104</ele>
        <time>1970-01-01T03:30:03.000Z</time>
      </trkpt>
      <trkpt lat="42.224159" lon="2.898365">
        <ele>104</ele>
        <time>1970-01-01T03:30:04.000Z</time>
      </trkpt>
      <trkpt lat="42.224159" lon="2.898192">
        <ele>104</ele>
        <time>1970-01-01T03:30:05.000Z</time>
      </trkpt>
      <trkpt lat="42.22416" lon="2.898101">
        <ele>104</ele>
        <time>1970-01-01T03:30:07.000Z</time>
      </trkpt>
      <trkpt lat="42.224161" lon="2.89801">
        <ele>104</ele>
        <time>1970-01-01T03:30:08.000Z</time>
      </trkpt>
      <trkpt lat="42.224163" lon="2.897919">
        <ele>104</ele>
        <time>1970-01-01T03:30:09.000Z</time>
      </trkpt>
      <trkpt lat="42.224164" lon="2.897827">
        <ele>104</ele>
        <time>1970-01-01T03:30:10.000Z</time>
      </trkpt>
      <trkpt lat="42.224165" lon="2.897736">
        <ele>104</ele>
        <time>1970-01-01T03:30:12.000Z</time>
      </trkpt>
      <trkpt lat="42.224166" lon="2.897645">
        <ele>104</ele>
        <time>1970-01-01T03:30:13.000Z</time>
      </trkpt>
      <trkpt lat="42.224167" lon="2.897554">
        <ele>104</ele>
        <time>1970-01-01T03:30:14.000Z</time>
      </trkpt>
      <trkpt lat="42.224169" lon="2.897392">
        <ele>104</ele>
        <time>1970-01-01T03:30:15.000Z</time>
      </trkpt>
      <trkpt lat="42.22417" lon="2.897312">
        <ele>104</ele>
        <time>1970-01-01T03:30:16.000Z</time>
      </trkpt>
      <trkpt lat="42.224172" lon="2.897231">
        <ele>104</ele>
        <time>1970-01-01T03:30:17.000Z</time>
      </trkpt>
      <trkpt lat="42.224173" lon="2.897151">
        <ele>104</ele>
        <time>1970-01-01T03:30:18.000Z</time>
      </trkpt>
      <trkpt lat="42.224174" lon="2.89707">
        <ele>104</ele>
        <time>1970-01-01T03:30:19.000Z</time>
      </trkpt>
      <trkpt lat="42.224175" lon="2.89699">
        <ele>104</ele>
        <time>1970-01-01T03:30:20.000Z</time>
      </trkpt>
      <trkpt lat="42.224177" lon="2.896909">
        <ele>104</ele>
        <time>1970-01-01T03:30:21.000Z</time>
      </trkpt>
      <trkpt lat="42.224178" lon="2.896829">
        <ele>104</ele>
        <time>1970-01-01T03:30:22.000Z</time>
      </trkpt>
      <trkpt lat="42.224179" lon="2.896748">
        <ele>104</ele>
        <time>1970-01-01T03:30:24.000Z</time>
      </trkpt>
      <trkpt lat="42.224182" lon="2.896585">
        <ele>104</ele>
        <time>1970-01-01T03:30:25.000Z</time>
      </trkpt>
      <trkpt lat="42.224183" lon="2.896504">
        <ele>104</ele>
        <time>1970-01-01T03:30:26.000Z</time>
      </trkpt>
      <trkpt lat="42.224184" lon="2.896422">
        <ele>104</ele>
        <time>1970-01-01T03:30:27.000Z</time>
      </trkpt>
      <trkpt lat="42.224185" lon="2.89634">
        <ele>104</ele>
        <time>1970-01-01T03:30:28.000Z</time>
      </trkpt>
      <trkpt lat="42.224186" lon="2.896259">
        <ele>104</ele>
        <time>1970-01-01T03:30:29.000Z</time>
      </trkpt>
      <trkpt lat="42.224187" lon="2.896177">
        <ele>104</ele>
        <time>1970-01-01T03:30:30.000Z</time>
      </trkpt>
      <trkpt lat="42.224188" lon="2.896095">
        <ele>104</ele>
        <time>1970-01-01T03:30:32.000Z</time>
      </trkpt>
      <trkpt lat="42.224189" lon="2.896014">
        <ele>104</ele>
        <time>1970-01-01T03:30:33.000Z</time>
      </trkpt>
      <trkpt lat="42.22419" lon="2.895932">
        <ele>104</ele>
        <time>1970-01-01T03:30:34.000Z</time>
      </trkpt>
      <trkpt lat="42.224192" lon="2.895764">
        <ele>104</ele>
        <time>1970-01-01T03:30:35.000Z</time>
      </trkpt>
      <trkpt lat="42.224193" lon="2.89568">
        <ele>104</ele>
        <time>1970-01-01T03:30:36.000Z</time>
      </trkpt>
      <trkpt lat="42.224194" lon="2.895595">
        <ele>104</ele>
        <time>1970-01-01T03:30:38.000Z</time>
      </trkpt>
      <trkpt lat="42.224195" lon="2.895511">
        <ele>104</ele>
        <time>1970-01-01T03:30:39.000Z</time>
      </trkpt>
      <trkpt lat="42.224197" lon="2.895427">
        <ele>104</ele>
        <time>1970-01-01T03:30:40.000Z</time>
      </trkpt>
      <trkpt lat="42.224198" lon="2.895343">
        <ele>104</ele>
        <time>1970-01-01T03:30:41.000Z</time>
      </trkpt>
      <trkpt lat="42.224199" lon="2.895258">
        <ele>104</ele>
        <time>1970-01-01T03:30:42.000Z</time>
      </trkpt>
      <trkpt lat="42.2242" lon="2.895174">
        <ele>104</ele>
        <time>1970-01-01T03:30:43.000Z</time>
      </trkpt>
      <trkpt lat="42.224201" lon="2.89509">
        <ele>105</ele>
        <time>1970-01-01T03:30:44.000Z</time>
      </trkpt>
      <trkpt lat="42.224204" lon="2.894933">
        <ele>105</ele>
        <time>1970-01-01T03:30:45.000Z</time>
      </trkpt>
      <trkpt lat="42.224205" lon="2.894861">
        <ele>105</ele>
        <time>1970-01-01T03:30:46.000Z</time>
      </trkpt>
      <trkpt lat="42.224206" lon="2.894788">
        <ele>105</ele>
        <time>1970-01-01T03:30:47.000Z</time>
      </trkpt>
      <trkpt lat="42.224207" lon="2.894716">
        <ele>105</ele>
        <time>1970-01-01T03:30:48.000Z</time>
      </trkpt>
      <trkpt lat="42.224209" lon="2.894643">
        <ele>105</ele>
        <time>1970-01-01T03:30:49.000Z</time>
      </trkpt>
      <trkpt lat="42.22421" lon="2.89457">
        <ele>105</ele>
        <time>1970-01-01T03:30:50.000Z</time>
      </trkpt>
      <trkpt lat="42.224211" lon="2.894498">
        <ele>105</ele>
        <time>1970-01-01T03:30:51.000Z</time>
      </trkpt>
      <trkpt lat="42.224212" lon="2.894425">
        <ele>105</ele>
        <time>1970-01-01T03:30:52.000Z</time>
      </trkpt>
      <trkpt lat="42.224213" lon="2.894353">
        <ele>105</ele>
        <time>1970-01-01T03:30:53.000Z</time>
      </trkpt>
      <trkpt lat="42.224214" lon="2.89428">
        <ele>105</ele>
        <time>1970-01-01T03:30:54.000Z</time>
      </trkpt>
      <trkpt lat="42.224216" lon="2.894072">
        <ele>105</ele>
        <time>1970-01-01T03:30:56.000Z</time>
      </trkpt>
      <trkpt lat="42.224218" lon="2.893978">
        <ele>105</ele>
        <time>1970-01-01T03:30:57.000Z</time>
      </trkpt>
      <trkpt lat="42.224219" lon="2.893883">
        <ele>105</ele>
        <time>1970-01-01T03:30:58.000Z</time>
      </trkpt>
      <trkpt lat="42.22422" lon="2.893788">
        <ele>105</ele>
        <time>1970-01-01T03:30:59.000Z</time>
      </trkpt>
      <trkpt lat="42.224221" lon="2.893693">
        <ele>105</ele>
        <time>1970-01-01T03:31:00.000Z</time>
      </trkpt>
      <trkpt lat="42.224223" lon="2.893599">
        <ele>105</ele>
        <time>1970-01-01T03:31:01.000Z</time>
      </trkpt>
      <trkpt lat="42.224224" lon="2.893504">
        <ele>105</ele>
        <time>1970-01-01T03:31:02.000Z</time>
      </trkpt>
      <trkpt lat="42.224225" lon="2.893409">
        <ele>105</ele>
        <time>1970-01-01T03:31:04.000Z</time>
      </trkpt>
      <trkpt lat="42.224227" lon="2.893238">
        <ele>105</ele>
        <time>1970-01-01T03:31:05.000Z</time>
      </trkpt>
      <trkpt lat="42.224228" lon="2.893152">
        <ele>105</ele>
        <time>1970-01-01T03:31:06.000Z</time>
      </trkpt>
      <trkpt lat="42.224229" lon="2.893067">
        <ele>105</ele>
        <time>1970-01-01T03:31:07.000Z</time>
      </trkpt>
      <trkpt lat="42.22423" lon="2.892981">
        <ele>105</ele>
        <time>1970-01-01T03:31:08.000Z</time>
      </trkpt>
      <trkpt lat="42.224231" lon="2.892895">
        <ele>105</ele>
        <time>1970-01-01T03:31:09.000Z</time>
      </trkpt>
      <trkpt lat="42.224232" lon="2.892809">
        <ele>105</ele>
        <time>1970-01-01T03:31:10.000Z</time>
      </trkpt>
      <trkpt lat="42.224233" lon="2.892724">
        <ele>105</ele>
        <time>1970-01-01T03:31:12.000Z</time>
      </trkpt>
      <trkpt lat="42.224234" lon="2.892638">
        <ele>105</ele>
        <time>1970-01-01T03:31:13.000Z</time>
      </trkpt>
      <trkpt lat="42.224235" lon="2.892552">
        <ele>106</ele>
        <time>1970-01-01T03:31:14.000Z</time>
      </trkpt>
      <trkpt lat="42.224236" lon="2.892307">
        <ele>106</ele>
        <time>1970-01-01T03:31:16.000Z</time>
      </trkpt>
      <trkpt lat="42.224237" lon="2.892233">
        <ele>106</ele>
        <time>1970-01-01T03:31:17.000Z</time>
      </trkpt>
      <trkpt lat="42.224237" lon="2.892159">
        <ele>106</ele>
        <time>1970-01-01T03:31:18.000Z</time>
      </trkpt>
      <trkpt lat="42.224238" lon="2.892085">
        <ele>106</ele>
        <time>1970-01-01T03:31:19.000Z</time>
      </trkpt>
      <trkpt lat="42.224239" lon="2.892011">
        <ele>106</ele>
        <time>1970-01-01T03:31:20.000Z</time>
      </trkpt>
      <trkpt lat="42.22424" lon="2.891937">
        <ele>106</ele>
        <time>1970-01-01T03:31:21.000Z</time>
      </trkpt>
      <trkpt lat="42.22424" lon="2.891863">
        <ele>106</ele>
        <time>1970-01-01T03:31:22.000Z</time>
      </trkpt>
      <trkpt lat="42.224241" lon="2.891789">
        <ele>106</ele>
        <time>1970-01-01T03:31:23.000Z</time>
      </trkpt>
      <trkpt lat="42.224242" lon="2.891715">
        <ele>106</ele>
        <time>1970-01-01T03:31:24.000Z</time>
      </trkpt>
      <trkpt lat="42.224244" lon="2.891554">
        <ele>106</ele>
        <time>1970-01-01T03:31:25.000Z</time>
      </trkpt>
      <trkpt lat="42.224244" lon="2.891479">
        <ele>106</ele>
        <time>1970-01-01T03:31:26.000Z</time>
      </trkpt>
      <trkpt lat="42.224245" lon="2.891403">
        <ele>106</ele>
        <time>1970-01-01T03:31:27.000Z</time>
      </trkpt>
      <trkpt lat="42.224245" lon="2.891327">
        <ele>106</ele>
        <time>1970-01-01T03:31:28.000Z</time>
      </trkpt>
      <trkpt lat="42.224246" lon="2.891252">
        <ele>106</ele>
        <time>1970-01-01T03:31:29.000Z</time>
      </trkpt>
      <trkpt lat="42.224247" lon="2.891176">
        <ele>106</ele>
        <time>1970-01-01T03:31:30.000Z</time>
      </trkpt>
      <trkpt lat="42.224247" lon="2.8911">
        <ele>106</ele>
        <time>1970-01-01T03:31:31.000Z</time>
      </trkpt>
      <trkpt lat="42.224248" lon="2.891024">
        <ele>106</ele>
        <time>1970-01-01T03:31:32.000Z</time>
      </trkpt>
      <trkpt lat="42.224248" lon="2.890949">
        <ele>106</ele>
        <time>1970-01-01T03:31:33.000Z</time>
      </trkpt>
      <trkpt lat="42.224249" lon="2.890873">
        <ele>107</ele>
        <time>1970-01-01T03:31:34.000Z</time>
      </trkpt>
      <trkpt lat="42.224275" lon="2.890729">
        <ele>107</ele>
        <time>1970-01-01T03:31:35.000Z</time>
      </trkpt>
      <trkpt lat="42.224299" lon="2.890669">
        <ele>107</ele>
        <time>1970-01-01T03:31:36.000Z</time>
      </trkpt>
      <trkpt lat="42.224324" lon="2.890609">
        <ele>107</ele>
        <time>1970-01-01T03:31:37.000Z</time>
      </trkpt>
      <trkpt lat="42.224348" lon="2.890549">
        <ele>107</ele>
        <time>1970-01-01T03:31:38.000Z</time>
      </trkpt>
      <trkpt lat="42.224373" lon="2.89049">
        <ele>107</ele>
        <time>1970-01-01T03:31:39.000Z</time>
      </trkpt>
      <trkpt lat="42.224398" lon="2.89043">
        <ele>107</ele>
        <time>1970-01-01T03:31:40.000Z</time>
      </trkpt>
      <trkpt lat="42.224422" lon="2.89037">
        <ele>107</ele>
        <time>1970-01-01T03:31:41.000Z</time>
      </trkpt>
      <trkpt lat="42.224447" lon="2.89031">
        <ele>107</ele>
        <time>1970-01-01T03:31:42.000Z</time>
      </trkpt>
      <trkpt lat="42.224471" lon="2.89025">
        <ele>107</ele>
        <time>1970-01-01T03:31:43.000Z</time>
      </trkpt>
      <trkpt lat="42.224496" lon="2.89019">
        <ele>108</ele>
        <time>1970-01-01T03:31:44.000Z</time>
      </trkpt>
      <trkpt lat="42.224501" lon="2.890051">
        <ele>108</ele>
        <time>1970-01-01T03:31:45.000Z</time>
      </trkpt>
      <trkpt lat="42.224496" lon="2.889985">
        <ele>108</ele>
        <time>1970-01-01T03:31:46.000Z</time>
      </trkpt>
      <trkpt lat="42.22449" lon="2.889919">
        <ele>108</ele>
        <time>1970-01-01T03:31:47.000Z</time>
      </trkpt>
      <trkpt lat="42.224485" lon="2.889853">
        <ele>108</ele>
        <time>1970-01-01T03:31:48.000Z</time>
      </trkpt>
      <trkpt lat="42.224479" lon="2.889786">
        <ele>108</ele>
        <time>1970-01-01T03:31:49.000Z</time>
      </trkpt>
      <trkpt lat="42.224473" lon="2.88972">
        <ele>108</ele>
        <time>1970-01-01T03:31:50.000Z</time>
      </trkpt>
      <trkpt lat="42.224468" lon="2.889654">
        <ele>108</ele>
        <time>1970-01-01T03:31:51.000Z</time>
      </trkpt>
      <trkpt lat="42.224462" lon="2.889588">
        <ele>108</ele>
        <time>1970-01-01T03:31:52.000Z</time>
      </trkpt>
      <trkpt lat="42.224457" lon="2.889522">
        <ele>108</ele>
        <time>1970-01-01T03:31:53.000Z</time>
      </trkpt>
      <trkpt lat="42.224451" lon="2.889456">
        <ele>108</ele>
        <time>1970-01-01T03:31:54.000Z</time>
      </trkpt>
      <trkpt lat="42.224483" lon="2.889321">
        <ele>108</ele>
        <time>1970-01-01T03:31:55.000Z</time>
      </trkpt>
      <trkpt lat="42.224502" lon="2.88926">
        <ele>108</ele>
        <time>1970-01-01T03:31:56.000Z</time>
      </trkpt>
      <trkpt lat="42.22452" lon="2.889198">
        <ele>108</ele>
        <time>1970-01-01T03:31:57.000Z</time>
      </trkpt>
      <trkpt lat="42.224538" lon="2.889136">
        <ele>108</ele>
        <time>1970-01-01T03:31:58.000Z</time>
      </trkpt>
      <trkpt lat="42.224557" lon="2.889075">
        <ele>108</ele>
        <time>1970-01-01T03:31:59.000Z</time>
      </trkpt>
      <trkpt lat="42.224575" lon="2.889013">
        <ele>108</ele>
        <time>1970-01-01T03:32:00.000Z</time>
      </trkpt>
      <trkpt lat="42.224593" lon="2.888951">
        <ele>108</ele>
        <time>1970-01-01T03:32:01.000Z</time>
      </trkpt>
      <trkpt lat="42.224611" lon="2.888889">
        <ele>108</ele>
        <time>1970-01-01T03:32:02.000Z</time>
      </trkpt>
      <trkpt lat="42.22463" lon="2.888828">
        <ele>108</ele>
        <time>1970-01-01T03:32:03.000Z</time>
      </trkpt>
      <trkpt lat="42.224648" lon="2.888766">
        <ele>108</ele>
        <time>1970-01-01T03:32:04.000Z</time>
      </trkpt>
      <trkpt lat="42.224692" lon="2.888621">
        <ele>108</ele>
        <time>1970-01-01T03:32:05.000Z</time>
      </trkpt>
      <trkpt lat="42.224716" lon="2.888544">
        <ele>108</ele>
        <time>1970-01-01T03:32:06.000Z</time>
      </trkpt>
      <trkpt lat="42.224739" lon="2.888467">
        <ele>108</ele>
        <time>1970-01-01T03:32:07.000Z</time>
      </trkpt>
      <trkpt lat="42.224762" lon="2.888391">
        <ele>108</ele>
        <time>1970-01-01T03:32:08.000Z</time>
      </trkpt>
      <trkpt lat="42.224785" lon="2.888314">
        <ele>108</ele>
        <time>1970-01-01T03:32:10.000Z</time>
      </trkpt>
      <trkpt lat="42.224809" lon="2.888237">
        <ele>108</ele>
        <time>1970-01-01T03:32:12.000Z</time>
      </trkpt>
      <trkpt lat="42.224832" lon="2.88816">
        <ele>108</ele>
        <time>1970-01-01T03:32:13.000Z</time>
      </trkpt>
      <trkpt lat="42.224855" lon="2.888083">
        <ele>110</ele>
        <time>1970-01-01T03:32:14.000Z</time>
      </trkpt>
      <trkpt lat="42.224895" lon="2.887944">
        <ele>110</ele>
        <time>1970-01-01T03:32:15.000Z</time>
      </trkpt>
      <trkpt lat="42.224915" lon="2.887875">
        <ele>110</ele>
        <time>1970-01-01T03:32:16.000Z</time>
      </trkpt>
      <trkpt lat="42.224936" lon="2.887806">
        <ele>110</ele>
        <time>1970-01-01T03:32:17.000Z</time>
      </trkpt>
      <trkpt lat="42.224957" lon="2.887737">
        <ele>110</ele>
        <time>1970-01-01T03:32:18.000Z</time>
      </trkpt>
      <trkpt lat="42.224977" lon="2.887667">
        <ele>110</ele>
        <time>1970-01-01T03:32:19.000Z</time>
      </trkpt>
      <trkpt lat="42.224998" lon="2.887598">
        <ele>110</ele>
        <time>1970-01-01T03:32:21.000Z</time>
      </trkpt>
      <trkpt lat="42.225019" lon="2.887529">
        <ele>110</ele>
        <time>1970-01-01T03:32:22.000Z</time>
      </trkpt>
      <trkpt lat="42.225039" lon="2.88746">
        <ele>110</ele>
        <time>1970-01-01T03:32:23.000Z</time>
      </trkpt>
      <trkpt lat="42.22506" lon="2.887391">
        <ele>110</ele>
        <time>1970-01-01T03:32:24.000Z</time>
      </trkpt>
      <trkpt lat="42.225098" lon="2.887258">
        <ele>110</ele>
        <time>1970-01-01T03:32:25.000Z</time>
      </trkpt>
      <trkpt lat="42.225116" lon="2.887195">
        <ele>110</ele>
        <time>1970-01-01T03:32:26.000Z</time>
      </trkpt>
      <trkpt lat="42.225134" lon="2.887131">
        <ele>110</ele>
        <time>1970-01-01T03:32:27.000Z</time>
      </trkpt>
      <trkpt lat="42.225152" lon="2.887068">
        <ele>110</ele>
        <time>1970-01-01T03:32:28.000Z</time>
      </trkpt>
      <trkpt lat="42.22517" lon="2.887005">
        <ele>110</ele>
        <time>1970-01-01T03:32:29.000Z</time>
      </trkpt>
      <trkpt lat="42.225188" lon="2.886942">
        <ele>110</ele>
        <time>1970-01-01T03:32:30.000Z</time>
      </trkpt>
      <trkpt lat="42.225206" lon="2.886879">
        <ele>110</ele>
        <time>1970-01-01T03:32:31.000Z</time>
      </trkpt>
      <trkpt lat="42.225224" lon="2.886815">
        <ele>110</ele>
        <time>1970-01-01T03:32:32.000Z</time>
      </trkpt>
      <trkpt lat="42.225242" lon="2.886752">
        <ele>110</ele>
        <time>1970-01-01T03:32:33.000Z</time>
      </trkpt>
      <trkpt lat="42.22526" lon="2.886689">
        <ele>112</ele>
        <time>1970-01-01T03:32:34.000Z</time>
      </trkpt>
      <trkpt lat="42.225301" lon="2.88655">
        <ele>112</ele>
        <time>1970-01-01T03:32:35.000Z</time>
      </trkpt>
      <trkpt lat="42.225321" lon="2.88648">
        <ele>112</ele>
        <time>1970-01-01T03:32:36.000Z</time>
      </trkpt>
      <trkpt lat="42.225342" lon="2.886411">
        <ele>112</ele>
        <time>1970-01-01T03:32:37.000Z</time>
      </trkpt>
      <trkpt lat="42.225363" lon="2.886341">
        <ele>112</ele>
        <time>1970-01-01T03:32:39.000Z</time>
      </trkpt>
      <trkpt lat="42.225383" lon="2.886272">
        <ele>112</ele>
        <time>1970-01-01T03:32:40.000Z</time>
      </trkpt>
      <trkpt lat="42.225404" lon="2.886202">
        <ele>112</ele>
        <time>1970-01-01T03:32:41.000Z</time>
      </trkpt>
      <trkpt lat="42.225425" lon="2.886133">
        <ele>112</ele>
        <time>1970-01-01T03:32:42.000Z</time>
      </trkpt>
      <trkpt lat="42.225445" lon="2.886063">
        <ele>112</ele>
        <time>1970-01-01T03:32:43.000Z</time>
      </trkpt>
      <trkpt lat="42.225466" lon="2.885994">
        <ele>113</ele>
        <time>1970-01-01T03:32:44.000Z</time>
      </trkpt>
      <trkpt lat="42.225507" lon="2.885853">
        <ele>113</ele>
        <time>1970-01-01T03:32:45.000Z</time>
      </trkpt>
      <trkpt lat="42.225527" lon="2.885782">
        <ele>113</ele>
        <time>1970-01-01T03:32:46.000Z</time>
      </trkpt>
      <trkpt lat="42.225548" lon="2.885711">
        <ele>113</ele>
        <time>1970-01-01T03:32:48.000Z</time>
      </trkpt>
      <trkpt lat="42.225569" lon="2.88564">
        <ele>113</ele>
        <time>1970-01-01T03:32:49.000Z</time>
      </trkpt>
      <trkpt lat="42.225589" lon="2.885568">
        <ele>113</ele>
        <time>1970-01-01T03:32:50.000Z</time>
      </trkpt>
      <trkpt lat="42.22561" lon="2.885497">
        <ele>113</ele>
        <time>1970-01-01T03:32:51.000Z</time>
      </trkpt>
      <trkpt lat="42.225631" lon="2.885426">
        <ele>113</ele>
        <time>1970-01-01T03:32:52.000Z</time>
      </trkpt>
      <trkpt lat="42.225651" lon="2.885355">
        <ele>113</ele>
        <time>1970-01-01T03:32:53.000Z</time>
      </trkpt>
      <trkpt lat="42.225672" lon="2.885284">
        <ele>114</ele>
        <time>1970-01-01T03:32:54.000Z</time>
      </trkpt>
      <trkpt lat="42.225712" lon="2.885148">
        <ele>114</ele>
        <time>1970-01-01T03:32:55.000Z</time>
      </trkpt>
      <trkpt lat="42.225731" lon="2.885083">
        <ele>114</ele>
        <time>1970-01-01T03:32:56.000Z</time>
      </trkpt>
      <trkpt lat="42.22575" lon="2.885019">
        <ele>114</ele>
        <time>1970-01-01T03:32:57.000Z</time>
      </trkpt>
      <trkpt lat="42.225769" lon="2.884954">
        <ele>114</ele>
        <time>1970-01-01T03:32:58.000Z</time>
      </trkpt>
      <trkpt lat="42.225788" lon="2.88489">
        <ele>114</ele>
        <time>1970-01-01T03:32:59.000Z</time>
      </trkpt>
      <trkpt lat="42.225806" lon="2.884825">
        <ele>114</ele>
        <time>1970-01-01T03:33:00.000Z</time>
      </trkpt>
      <trkpt lat="42.225825" lon="2.884761">
        <ele>114</ele>
        <time>1970-01-01T03:33:01.000Z</time>
      </trkpt>
      <trkpt lat="42.225844" lon="2.884696">
        <ele>114</ele>
        <time>1970-01-01T03:33:02.000Z</time>
      </trkpt>
      <trkpt lat="42.225863" lon="2.884632">
        <ele>114</ele>
        <time>1970-01-01T03:33:03.000Z</time>
      </trkpt>
      <trkpt lat="42.225882" lon="2.884567">
        <ele>115</ele>
        <time>1970-01-01T03:33:04.000Z</time>
      </trkpt>
      <trkpt lat="42.225923" lon="2.884423">
        <ele>115</ele>
        <time>1970-01-01T03:33:05.000Z</time>
      </trkpt>
      <trkpt lat="42.225945" lon="2.884351">
        <ele>115</ele>
        <time>1970-01-01T03:33:06.000Z</time>
      </trkpt>
      <trkpt lat="42.225966" lon="2.884279">
        <ele>115</ele>
        <time>1970-01-01T03:33:07.000Z</time>
      </trkpt>
      <trkpt lat="42.225988" lon="2.884207">
        <ele>115</ele>
        <time>1970-01-01T03:33:08.000Z</time>
      </trkpt>
      <trkpt lat="42.226009" lon="2.884135">
        <ele>115</ele>
        <time>1970-01-01T03:33:09.000Z</time>
      </trkpt>
      <trkpt lat="42.226031" lon="2.884063">
        <ele>115</ele>
        <time>1970-01-01T03:33:10.000Z</time>
      </trkpt>
      <trkpt lat="42.226052" lon="2.883991">
        <ele>115</ele>
        <time>1970-01-01T03:33:11.000Z</time>
      </trkpt>
      <trkpt lat="42.226074" lon="2.883919">
        <ele>115</ele>
        <time>1970-01-01T03:33:12.000Z</time>
      </trkpt>
      <trkpt lat="42.226095" lon="2.883847">
        <ele>120</ele>
        <time>1970-01-01T03:33:14.000Z</time>
      </trkpt>
      <trkpt lat="42.226137" lon="2.883706">
        <ele>120</ele>
        <time>1970-01-01T03:33:15.000Z</time>
      </trkpt>
      <trkpt lat="42.226158" lon="2.883636">
        <ele>120</ele>
        <time>1970-01-01T03:33:16.000Z</time>
      </trkpt>
      <trkpt lat="42.226179" lon="2.883567">
        <ele>120</ele>
        <time>1970-01-01T03:33:17.000Z</time>
      </trkpt>
      <trkpt lat="42.2262" lon="2.883497">
        <ele>120</ele>
        <time>1970-01-01T03:33:18.000Z</time>
      </trkpt>
      <trkpt lat="42.22622" lon="2.883428">
        <ele>120</ele>
        <time>1970-01-01T03:33:19.000Z</time>
      </trkpt>
      <trkpt lat="42.226241" lon="2.883358">
        <ele>120</ele>
        <time>1970-01-01T03:33:20.000Z</time>
      </trkpt>
      <trkpt lat="42.226262" lon="2.883289">
        <ele>120</ele>
        <time>1970-01-01T03:33:21.000Z</time>
      </trkpt>
      <trkpt lat="42.226283" lon="2.883219">
        <ele>120</ele>
        <time>1970-01-01T03:33:23.000Z</time>
      </trkpt>
      <trkpt lat="42.226304" lon="2.88315">
        <ele>120</ele>
        <time>1970-01-01T03:33:24.000Z</time>
      </trkpt>
      <trkpt lat="42.226346" lon="2.88302">
        <ele>120</ele>
        <time>1970-01-01T03:33:25.000Z</time>
      </trkpt>
      <trkpt lat="42.226367" lon="2.882955">
        <ele>120</ele>
        <time>1970-01-01T03:33:26.000Z</time>
      </trkpt>
      <trkpt lat="42.226389" lon="2.882891">
        <ele>120</ele>
        <time>1970-01-01T03:33:27.000Z</time>
      </trkpt>
      <trkpt lat="42.22641" lon="2.882826">
        <ele>120</ele>
        <time>1970-01-01T03:33:29.000Z</time>
      </trkpt>
      <trkpt lat="42.226432" lon="2.882762">
        <ele>120</ele>
        <time>1970-01-01T03:33:30.000Z</time>
      </trkpt>
      <trkpt lat="42.226453" lon="2.882697">
        <ele>120</ele>
        <time>1970-01-01T03:33:31.000Z</time>
      </trkpt>
      <trkpt lat="42.226475" lon="2.882633">
        <ele>120</ele>
        <time>1970-01-01T03:33:32.000Z</time>
      </trkpt>
      <trkpt lat="42.226496" lon="2.882568">
        <ele>120</ele>
        <time>1970-01-01T03:33:33.000Z</time>
      </trkpt>
      <trkpt lat="42.226518" lon="2.882504">
        <ele>122</ele>
        <time>1970-01-01T03:33:34.000Z</time>
      </trkpt>
      <trkpt lat="42.226572" lon="2.882373">
        <ele>122</ele>
        <time>1970-01-01T03:33:35.000Z</time>
      </trkpt>
      <trkpt lat="42.226603" lon="2.882307">
        <ele>122</ele>
        <time>1970-01-01T03:33:36.000Z</time>
      </trkpt>
      <trkpt lat="42.226633" lon="2.882241">
        <ele>122</ele>
        <time>1970-01-01T03:33:37.000Z</time>
      </trkpt>
      <trkpt lat="42.226663" lon="2.882175">
        <ele>122</ele>
        <time>1970-01-01T03:33:38.000Z</time>
      </trkpt>
      <trkpt lat="42.226694" lon="2.88211">
        <ele>122</ele>
        <time>1970-01-01T03:33:39.000Z</time>
      </trkpt>
      <trkpt lat="42.226724" lon="2.882044">
        <ele>122</ele>
        <time>1970-01-01T03:33:41.000Z</time>
      </trkpt>
      <trkpt lat="42.226754" lon="2.881978">
        <ele>122</ele>
        <time>1970-01-01T03:33:42.000Z</time>
      </trkpt>
      <trkpt lat="42.226785" lon="2.881912">
        <ele>122</ele>
        <time>1970-01-01T03:33:43.000Z</time>
      </trkpt>
      <trkpt lat="42.226815" lon="2.881846">
        <ele>122</ele>
        <time>1970-01-01T03:33:44.000Z</time>
      </trkpt>
      <trkpt lat="42.226898" lon="2.881715">
        <ele>122</ele>
        <time>1970-01-01T03:33:45.000Z</time>
      </trkpt>
      <trkpt lat="42.226944" lon="2.881648">
        <ele>122</ele>
        <time>1970-01-01T03:33:46.000Z</time>
      </trkpt>
      <trkpt lat="42.226989" lon="2.881582">
        <ele>122</ele>
        <time>1970-01-01T03:33:47.000Z</time>
      </trkpt>
      <trkpt lat="42.227035" lon="2.881516">
        <ele>122</ele>
        <time>1970-01-01T03:33:48.000Z</time>
      </trkpt>
      <trkpt lat="42.227081" lon="2.881449">
        <ele>122</ele>
        <time>1970-01-01T03:33:50.000Z</time>
      </trkpt>
      <trkpt lat="42.227127" lon="2.881383">
        <ele>122</ele>
        <time>1970-01-01T03:33:51.000Z</time>
      </trkpt>
      <trkpt lat="42.227172" lon="2.881317">
        <ele>122</ele>
        <time>1970-01-01T03:33:52.000Z</time>
      </trkpt>
      <trkpt lat="42.227218" lon="2.88125">
        <ele>122</ele>
        <time>1970-01-01T03:33:53.000Z</time>
      </trkpt>
      <trkpt lat="42.227264" lon="2.881184">
        <ele>123</ele>
        <time>1970-01-01T03:33:54.000Z</time>
      </trkpt>
      <trkpt lat="42.227374" lon="2.881068">
        <ele>123</ele>
        <time>1970-01-01T03:33:55.000Z</time>
      </trkpt>
      <trkpt lat="42.227429" lon="2.881017">
        <ele>123</ele>
        <time>1970-01-01T03:33:56.000Z</time>
      </trkpt>
      <trkpt lat="42.227485" lon="2.880966">
        <ele>123</ele>
        <time>1970-01-01T03:33:57.000Z</time>
      </trkpt>
      <trkpt lat="42.22754" lon="2.880915">
        <ele>123</ele>
        <time>1970-01-01T03:33:58.000Z</time>
      </trkpt>
      <trkpt lat="42.227596" lon="2.880865">
        <ele>123</ele>
        <time>1970-01-01T03:33:59.000Z</time>
      </trkpt>
      <trkpt lat="42.227651" lon="2.880814">
        <ele>123</ele>
        <time>1970-01-01T03:34:00.000Z</time>
      </trkpt>
      <trkpt lat="42.227707" lon="2.880763">
        <ele>123</ele>
        <time>1970-01-01T03:34:01.000Z</time>
      </trkpt>
      <trkpt lat="42.227762" lon="2.880712">
        <ele>123</ele>
        <time>1970-01-01T03:34:02.000Z</time>
      </trkpt>
      <trkpt lat="42.227818" lon="2.880661">
        <ele>123</ele>
        <time>1970-01-01T03:34:03.000Z</time>
      </trkpt>
      <trkpt lat="42.227873" lon="2.88061">
        <ele>123</ele>
        <time>1970-01-01T03:34:04.000Z</time>
      </trkpt>
      <trkpt lat="42.22802" lon="2.880518">
        <ele>123</ele>
        <time>1970-01-01T03:34:05.000Z</time>
      </trkpt>
      <trkpt lat="42.228099" lon="2.880472">
        <ele>123</ele>
        <time>1970-01-01T03:34:07.000Z</time>
      </trkpt>
      <trkpt lat="42.228178" lon="2.880427">
        <ele>123</ele>
        <time>1970-01-01T03:34:08.000Z</time>
      </trkpt>
      <trkpt lat="42.228257" lon="2.880381">
        <ele>123</ele>
        <time>1970-01-01T03:34:10.000Z</time>
      </trkpt>
      <trkpt lat="42.228335" lon="2.880336">
        <ele>123</ele>
        <time>1970-01-01T03:34:11.000Z</time>
      </trkpt>
      <trkpt lat="42.228414" lon="2.88029">
        <ele>123</ele>
        <time>1970-01-01T03:34:12.000Z</time>
      </trkpt>
      <trkpt lat="42.228493" lon="2.880245">
        <ele>123</ele>
        <time>1970-01-01T03:34:13.000Z</time>
      </trkpt>
      <trkpt lat="42.228572" lon="2.880199">
        <ele>123</ele>
        <time>1970-01-01T03:34:14.000Z</time>
      </trkpt>
      <trkpt lat="42.228708" lon="2.88013">
        <ele>123</ele>
        <time>1970-01-01T03:34:15.000Z</time>
      </trkpt>
      <trkpt lat="42.228775" lon="2.880097">
        <ele>123</ele>
        <time>1970-01-01T03:34:16.000Z</time>
      </trkpt>
      <trkpt lat="42.228842" lon="2.880063">
        <ele>123</ele>
        <time>1970-01-01T03:34:17.000Z</time>
      </trkpt>
      <trkpt lat="42.228909" lon="2.880029">
        <ele>123</ele>
        <time>1970-01-01T03:34:18.000Z</time>
      </trkpt>
      <trkpt lat="42.228976" lon="2.879996">
        <ele>123</ele>
        <time>1970-01-01T03:34:19.000Z</time>
      </trkpt>
      <trkpt lat="42.229043" lon="2.879962">
        <ele>123</ele>
        <time>1970-01-01T03:34:20.000Z</time>
      </trkpt>
      <trkpt lat="42.22911" lon="2.879928">
        <ele>123</ele>
        <time>1970-01-01T03:34:21.000Z</time>
      </trkpt>
      <trkpt lat="42.229177" lon="2.879895">
        <ele>123</ele>
        <time>1970-01-01T03:34:22.000Z</time>
      </trkpt>
      <trkpt lat="42.229244" lon="2.879861">
        <ele>123</ele>
        <time>1970-01-01T03:34:24.000Z</time>
      </trkpt>
      <trkpt lat="42.229434" lon="2.879765">
        <ele>123</ele>
        <time>1970-01-01T03:34:26.000Z</time>
      </trkpt>
      <trkpt lat="42.229495" lon="2.879734">
        <ele>123</ele>
        <time>1970-01-01T03:34:27.000Z</time>
      </trkpt>
      <trkpt lat="42.229557" lon="2.879703">
        <ele>123</ele>
        <time>1970-01-01T03:34:28.000Z</time>
      </trkpt>
      <trkpt lat="42.229618" lon="2.879672">
        <ele>123</ele>
        <time>1970-01-01T03:34:29.000Z</time>
      </trkpt>
      <trkpt lat="42.22968" lon="2.879641">
        <ele>123</ele>
        <time>1970-01-01T03:34:31.000Z</time>
      </trkpt>
      <trkpt lat="42.229741" lon="2.87961">
        <ele>123</ele>
        <time>1970-01-01T03:34:32.000Z</time>
      </trkpt>
      <trkpt lat="42.229803" lon="2.879579">
        <ele>123</ele>
        <time>1970-01-01T03:34:33.000Z</time>
      </trkpt>
      <trkpt lat="42.229864" lon="2.879548">
        <ele>124</ele>
        <time>1970-01-01T03:34:34.000Z</time>
      </trkpt>
      <trkpt lat="42.229985" lon="2.879486">
        <ele>124</ele>
        <time>1970-01-01T03:34:35.000Z</time>
      </trkpt>
      <trkpt lat="42.230046" lon="2.879454">
        <ele>124</ele>
        <time>1970-01-01T03:34:36.000Z</time>
      </trkpt>
      <trkpt lat="42.230108" lon="2.879423">
        <ele>124</ele>
        <time>1970-01-01T03:34:37.000Z</time>
      </trkpt>
      <trkpt lat="42.230169" lon="2.879392">
        <ele>124</ele>
        <time>1970-01-01T03:34:39.000Z</time>
      </trkpt>
      <trkpt lat="42.23023" lon="2.87936">
        <ele>124</ele>
        <time>1970-01-01T03:34:40.000Z</time>
      </trkpt>
      <trkpt lat="42.230291" lon="2.879329">
        <ele>124</ele>
        <time>1970-01-01T03:34:41.000Z</time>
      </trkpt>
      <trkpt lat="42.230353" lon="2.879298">
        <ele>124</ele>
        <time>1970-01-01T03:34:42.000Z</time>
      </trkpt>
      <trkpt lat="42.230414" lon="2.879266">
        <ele>124</ele>
        <time>1970-01-01T03:34:43.000Z</time>
      </trkpt>
      <trkpt lat="42.230475" lon="2.879235">
        <ele>125</ele>
        <time>1970-01-01T03:34:44.000Z</time>
      </trkpt>
      <trkpt lat="42.23059" lon="2.879174">
        <ele>125</ele>
        <time>1970-01-01T03:34:45.000Z</time>
      </trkpt>
      <trkpt lat="42.230643" lon="2.879146">
        <ele>125</ele>
        <time>1970-01-01T03:34:46.000Z</time>
      </trkpt>
      <trkpt lat="42.230697" lon="2.879118">
        <ele>125</ele>
        <time>1970-01-01T03:34:47.000Z</time>
      </trkpt>
      <trkpt lat="42.230751" lon="2.87909">
        <ele>125</ele>
        <time>1970-01-01T03:34:48.000Z</time>
      </trkpt>
      <trkpt lat="42.230805" lon="2.879063">
        <ele>125</ele>
        <time>1970-01-01T03:34:49.000Z</time>
      </trkpt>
      <trkpt lat="42.230858" lon="2.879035">
        <ele>125</ele>
        <time>1970-01-01T03:34:50.000Z</time>
      </trkpt>
      <trkpt lat="42.230912" lon="2.879007">
        <ele>125</ele>
        <time>1970-01-01T03:34:51.000Z</time>
      </trkpt>
      <trkpt lat="42.230966" lon="2.878979">
        <ele>125</ele>
        <time>1970-01-01T03:34:52.000Z</time>
      </trkpt>
      <trkpt lat="42.231019" lon="2.878951">
        <ele>125</ele>
        <time>1970-01-01T03:34:53.000Z</time>
      </trkpt>
      <trkpt lat="42.231073" lon="2.878923">
        <ele>126</ele>
        <time>1970-01-01T03:34:54.000Z</time>
      </trkpt>
      <trkpt lat="42.231179" lon="2.878855">
        <ele>126</ele>
        <time>1970-01-01T03:34:55.000Z</time>
      </trkpt>
      <trkpt lat="42.231228" lon="2.87882">
        <ele>126</ele>
        <time>1970-01-01T03:34:56.000Z</time>
      </trkpt>
      <trkpt lat="42.231278" lon="2.878786">
        <ele>126</ele>
        <time>1970-01-01T03:34:57.000Z</time>
      </trkpt>
      <trkpt lat="42.231327" lon="2.878751">
        <ele>126</ele>
        <time>1970-01-01T03:34:58.000Z</time>
      </trkpt>
      <trkpt lat="42.231377" lon="2.878716">
        <ele>126</ele>
        <time>1970-01-01T03:34:59.000Z</time>
      </trkpt>
      <trkpt lat="42.231426" lon="2.878681">
        <ele>126</ele>
        <time>1970-01-01T03:35:00.000Z</time>
      </trkpt>
      <trkpt lat="42.231476" lon="2.878646">
        <ele>126</ele>
        <time>1970-01-01T03:35:01.000Z</time>
      </trkpt>
      <trkpt lat="42.231525" lon="2.878612">
        <ele>126</ele>
        <time>1970-01-01T03:35:02.000Z</time>
      </trkpt>
      <trkpt lat="42.231575" lon="2.878577">
        <ele>126</ele>
        <time>1970-01-01T03:35:03.000Z</time>
      </trkpt>
      <trkpt lat="42.231624" lon="2.878542">
        <ele>126</ele>
        <time>1970-01-01T03:35:04.000Z</time>
      </trkpt>
      <trkpt lat="42.231702" lon="2.87848">
        <ele>126</ele>
        <time>1970-01-01T03:35:05.000Z</time>
      </trkpt>
      <trkpt lat="42.231729" lon="2.878462">
        <ele>126</ele>
        <time>1970-01-01T03:35:06.000Z</time>
      </trkpt>
      <trkpt lat="42.231755" lon="2.878443">
        <ele>126</ele>
        <time>1970-01-01T03:35:07.000Z</time>
      </trkpt>
      <trkpt lat="42.231781" lon="2.878424">
        <ele>126</ele>
        <time>1970-01-01T03:35:08.000Z</time>
      </trkpt>
      <trkpt lat="42.231807" lon="2.878405">
        <ele>126</ele>
        <time>1970-01-01T03:35:09.000Z</time>
      </trkpt>
      <trkpt lat="42.231834" lon="2.878387">
        <ele>126</ele>
        <time>1970-01-01T03:35:10.000Z</time>
      </trkpt>
      <trkpt lat="42.23186" lon="2.878368">
        <ele>126</ele>
        <time>1970-01-01T03:35:11.000Z</time>
      </trkpt>
      <trkpt lat="42.231886" lon="2.878349">
        <ele>123</ele>
        <time>1970-01-01T03:35:14.000Z</time>
      </trkpt>
      <trkpt lat="42.231887" lon="2.878312">
        <ele>122</ele>
        <time>1970-01-01T03:35:22.000Z</time>
      </trkpt>
      <trkpt lat="42.231888" lon="2.878274">
        <ele>122</ele>
        <time>1970-01-01T03:35:30.000Z</time>
      </trkpt>
      <trkpt lat="42.231889" lon="2.878237">
        <ele>122</ele>
        <time>1970-01-01T03:35:33.000Z</time>
      </trkpt>
      <trkpt lat="42.23189" lon="2.8782">
        <ele>122</ele>
        <time>1970-01-01T03:35:39.000Z</time>
      </trkpt>
      <trkpt lat="42.231891" lon="2.878162">
        <ele>122</ele>
        <time>1970-01-01T03:35:41.000Z</time>
      </trkpt>
      <trkpt lat="42.231892" lon="2.878125">
        <ele>122</ele>
        <time>1970-01-01T03:35:48.000Z</time>
      </trkpt>
      <trkpt lat="42.231893" lon="2.878088">
        <ele>122</ele>
        <time>1970-01-01T03:35:49.000Z</time>
      </trkpt>
      <trkpt lat="42.231893" lon="2.87805">
        <ele>122</ele>
        <time>1970-01-01T03:35:50.000Z</time>
      </trkpt>
      <trkpt lat="42.231894" lon="2.878013">
        <ele>122</ele>
        <time>1970-01-01T03:35:51.000Z</time>
      </trkpt>
      <trkpt lat="42.231895" lon="2.877976">
        <ele>122</ele>
        <time>1970-01-01T03:35:52.000Z</time>
      </trkpt>
      <trkpt lat="42.231896" lon="2.877938">
        <ele>122</ele>
        <time>1970-01-01T03:35:53.000Z</time>
      </trkpt>
      <trkpt lat="42.231897" lon="2.877901">
        <ele>122</ele>
        <time>1970-01-01T03:35:54.000Z</time>
      </trkpt>
      <trkpt lat="42.231898" lon="2.877864">
        <ele>122</ele>
        <time>1970-01-01T03:35:55.000Z</time>
      </trkpt>
      <trkpt lat="42.231899" lon="2.877826">
        <ele>122</ele>
        <time>1970-01-01T03:35:56.000Z</time>
      </trkpt>
      <trkpt lat="42.2319" lon="2.877789">
        <ele>123</ele>
        <time>1970-01-01T03:35:57.000Z</time>
      </trkpt>
      <trkpt lat="42.231851" lon="2.877676">
        <ele>123</ele>
        <time>1970-01-01T03:35:58.000Z</time>
      </trkpt>
      <trkpt lat="42.231825" lon="2.877612">
        <ele>123</ele>
        <time>1970-01-01T03:35:59.000Z</time>
      </trkpt>
      <trkpt lat="42.231798" lon="2.877548">
        <ele>123</ele>
        <time>1970-01-01T03:36:01.000Z</time>
      </trkpt>
      <trkpt lat="42.231771" lon="2.877484">
        <ele>123</ele>
        <time>1970-01-01T03:36:02.000Z</time>
      </trkpt>
      <trkpt lat="42.231745" lon="2.87742">
        <ele>123</ele>
        <time>1970-01-01T03:36:03.000Z</time>
      </trkpt>
      <trkpt lat="42.231718" lon="2.877356">
        <ele>123</ele>
        <time>1970-01-01T03:36:04.000Z</time>
      </trkpt>
      <trkpt lat="42.231691" lon="2.877292">
        <ele>123</ele>
        <time>1970-01-01T03:36:05.000Z</time>
      </trkpt>
      <trkpt lat="42.231665" lon="2.877228">
        <ele>123</ele>
        <time>1970-01-01T03:36:06.000Z</time>
      </trkpt>
      <trkpt lat="42.231638" lon="2.877164">
        <ele>123</ele>
        <time>1970-01-01T03:36:08.000Z</time>
      </trkpt>
      <trkpt lat="42.23159" lon="2.877051">
        <ele>123</ele>
        <time>1970-01-01T03:36:09.000Z</time>
      </trkpt>
      <trkpt lat="42.231568" lon="2.876996">
        <ele>123</ele>
        <time>1970-01-01T03:36:10.000Z</time>
      </trkpt>
      <trkpt lat="42.231545" lon="2.876941">
        <ele>123</ele>
        <time>1970-01-01T03:36:11.000Z</time>
      </trkpt>
      <trkpt lat="42.231522" lon="2.876886">
        <ele>123</ele>
        <time>1970-01-01T03:36:12.000Z</time>
      </trkpt>
      <trkpt lat="42.2315" lon="2.876831">
        <ele>123</ele>
        <time>1970-01-01T03:36:13.000Z</time>
      </trkpt>
      <trkpt lat="42.231477" lon="2.876776">
        <ele>123</ele>
        <time>1970-01-01T03:36:14.000Z</time>
      </trkpt>
      <trkpt lat="42.231454" lon="2.876721">
        <ele>123</ele>
        <time>1970-01-01T03:36:15.000Z</time>
      </trkpt>
      <trkpt lat="42.231432" lon="2.876666">
        <ele>123</ele>
        <time>1970-01-01T03:36:16.000Z</time>
      </trkpt>
      <trkpt lat="42.231409" lon="2.876611">
        <ele>124</ele>
        <time>1970-01-01T03:36:17.000Z</time>
      </trkpt>
      <trkpt lat="42.231352" lon="2.876474">
        <ele>124</ele>
        <time>1970-01-01T03:36:18.000Z</time>
      </trkpt>
      <trkpt lat="42.231322" lon="2.876401">
        <ele>124</ele>
        <time>1970-01-01T03:36:20.000Z</time>
      </trkpt>
      <trkpt lat="42.231291" lon="2.876328">
        <ele>124</ele>
        <time>1970-01-01T03:36:21.000Z</time>
      </trkpt>
      <trkpt lat="42.231261" lon="2.876255">
        <ele>124</ele>
        <time>1970-01-01T03:36:22.000Z</time>
      </trkpt>
      <trkpt lat="42.23123" lon="2.876182">
        <ele>124</ele>
        <time>1970-01-01T03:36:23.000Z</time>
      </trkpt>
      <trkpt lat="42.231199" lon="2.876109">
        <ele>124</ele>
        <time>1970-01-01T03:36:24.000Z</time>
      </trkpt>
      <trkpt lat="42.231169" lon="2.876036">
        <ele>124</ele>
        <time>1970-01-01T03:36:25.000Z</time>
      </trkpt>
      <trkpt lat="42.231138" lon="2.875963">
        <ele>124</ele>
        <time>1970-01-01T03:36:27.000Z</time>
      </trkpt>
      <trkpt lat="42.231057" lon="2.875776">
        <ele>124</ele>
        <time>1970-01-01T03:36:29.000Z</time>
      </trkpt>
      <trkpt lat="42.231032" lon="2.875717">
        <ele>124</ele>
        <time>1970-01-01T03:36:30.000Z</time>
      </trkpt>
      <trkpt lat="42.231007" lon="2.875659">
        <ele>124</ele>
        <time>1970-01-01T03:36:31.000Z</time>
      </trkpt>
      <trkpt lat="42.230982" lon="2.8756">
        <ele>124</ele>
        <time>1970-01-01T03:36:32.000Z</time>
      </trkpt>
      <trkpt lat="42.230958" lon="2.875542">
        <ele>124</ele>
        <time>1970-01-01T03:36:33.000Z</time>
      </trkpt>
      <trkpt lat="42.230933" lon="2.875483">
        <ele>124</ele>
        <time>1970-01-01T03:36:34.000Z</time>
      </trkpt>
      <trkpt lat="42.230908" lon="2.875425">
        <ele>124</ele>
        <time>1970-01-01T03:36:35.000Z</time>
      </trkpt>
      <trkpt lat="42.230883" lon="2.875366">
        <ele>124</ele>
        <time>1970-01-01T03:36:36.000Z</time>
      </trkpt>
      <trkpt lat="42.230858" lon="2.875308">
        <ele>123</ele>
        <time>1970-01-01T03:36:37.000Z</time>
      </trkpt>
      <trkpt lat="42.230806" lon="2.875182">
        <ele>123</ele>
        <time>1970-01-01T03:36:38.000Z</time>
      </trkpt>
      <trkpt lat="42.230779" lon="2.87512">
        <ele>123</ele>
        <time>1970-01-01T03:36:39.000Z</time>
      </trkpt>
      <trkpt lat="42.230753" lon="2.875057">
        <ele>123</ele>
        <time>1970-01-01T03:36:40.000Z</time>
      </trkpt>
      <trkpt lat="42.230727" lon="2.874995">
        <ele>123</ele>
        <time>1970-01-01T03:36:41.000Z</time>
      </trkpt>
      <trkpt lat="42.2307" lon="2.874933">
        <ele>123</ele>
        <time>1970-01-01T03:36:42.000Z</time>
      </trkpt>
      <trkpt lat="42.230674" lon="2.874871">
        <ele>123</ele>
        <time>1970-01-01T03:36:43.000Z</time>
      </trkpt>
      <trkpt lat="42.230648" lon="2.874808">
        <ele>123</ele>
        <time>1970-01-01T03:36:44.000Z</time>
      </trkpt>
      <trkpt lat="42.230621" lon="2.874746">
        <ele>123</ele>
        <time>1970-01-01T03:36:46.000Z</time>
      </trkpt>
      <trkpt lat="42.230595" lon="2.874684">
        <ele>125</ele>
        <time>1970-01-01T03:36:47.000Z</time>
      </trkpt>
      <trkpt lat="42.230526" lon="2.874525">
        <ele>125</ele>
        <time>1970-01-01T03:36:48.000Z</time>
      </trkpt>
      <trkpt lat="42.230501" lon="2.874464">
        <ele>125</ele>
        <time>1970-01-01T03:36:49.000Z</time>
      </trkpt>
      <trkpt lat="42.230475" lon="2.874403">
        <ele>125</ele>
        <time>1970-01-01T03:36:50.000Z</time>
      </trkpt>
      <trkpt lat="42.230449" lon="2.874342">
        <ele>125</ele>
        <time>1970-01-01T03:36:51.000Z</time>
      </trkpt>
      <trkpt lat="42.230424" lon="2.874282">
        <ele>125</ele>
        <time>1970-01-01T03:36:52.000Z</time>
      </trkpt>
      <trkpt lat="42.230398" lon="2.874221">
        <ele>125</ele>
        <time>1970-01-01T03:36:53.000Z</time>
      </trkpt>
      <trkpt lat="42.230372" lon="2.87416">
        <ele>125</ele>
        <time>1970-01-01T03:36:54.000Z</time>
      </trkpt>
      <trkpt lat="42.230347" lon="2.874099">
        <ele>125</ele>
        <time>1970-01-01T03:36:56.000Z</time>
      </trkpt>
      <trkpt lat="42.230321" lon="2.874038">
        <ele>125</ele>
        <time>1970-01-01T03:36:57.000Z</time>
      </trkpt>
      <trkpt lat="42.23027" lon="2.873923">
        <ele>125</ele>
        <time>1970-01-01T03:36:58.000Z</time>
      </trkpt>
      <trkpt lat="42.230246" lon="2.873865">
        <ele>125</ele>
        <time>1970-01-01T03:36:59.000Z</time>
      </trkpt>
      <trkpt lat="42.230221" lon="2.873806">
        <ele>125</ele>
        <time>1970-01-01T03:37:00.000Z</time>
      </trkpt>
      <trkpt lat="42.230196" lon="2.873748">
        <ele>125</ele>
        <time>1970-01-01T03:37:01.000Z</time>
      </trkpt>
      <trkpt lat="42.230172" lon="2.87369">
        <ele>125</ele>
        <time>1970-01-01T03:37:02.000Z</time>
      </trkpt>
      <trkpt lat="42.230147" lon="2.873632">
        <ele>125</ele>
        <time>1970-01-01T03:37:03.000Z</time>
      </trkpt>
      <trkpt lat="42.230122" lon="2.873573">
        <ele>125</ele>
        <time>1970-01-01T03:37:05.000Z</time>
      </trkpt>
      <trkpt lat="42.230098" lon="2.873515">
        <ele>125</ele>
        <time>1970-01-01T03:37:06.000Z</time>
      </trkpt>
      <trkpt lat="42.230073" lon="2.873457">
        <ele>126</ele>
        <time>1970-01-01T03:37:07.000Z</time>
      </trkpt>
      <trkpt lat="42.230028" lon="2.873345">
        <ele>126</ele>
        <time>1970-01-01T03:37:08.000Z</time>
      </trkpt>
      <trkpt lat="42.230006" lon="2.873292">
        <ele>126</ele>
        <time>1970-01-01T03:37:09.000Z</time>
      </trkpt>
      <trkpt lat="42.229984" lon="2.87324">
        <ele>126</ele>
        <time>1970-01-01T03:37:10.000Z</time>
      </trkpt>
      <trkpt lat="42.229962" lon="2.873187">
        <ele>126</ele>
        <time>1970-01-01T03:37:11.000Z</time>
      </trkpt>
      <trkpt lat="42.229941" lon="2.873135">
        <ele>126</ele>
        <time>1970-01-01T03:37:12.000Z</time>
      </trkpt>
      <trkpt lat="42.229919" lon="2.873083">
        <ele>126</ele>
        <time>1970-01-01T03:37:13.000Z</time>
      </trkpt>
      <trkpt lat="42.229897" lon="2.87303">
        <ele>126</ele>
        <time>1970-01-01T03:37:14.000Z</time>
      </trkpt>
      <trkpt lat="42.229875" lon="2.872978">
        <ele>126</ele>
        <time>1970-01-01T03:37:15.000Z</time>
      </trkpt>
      <trkpt lat="42.229853" lon="2.872925">
        <ele>126</ele>
        <time>1970-01-01T03:37:16.000Z</time>
      </trkpt>
      <trkpt lat="42.229831" lon="2.872873">
        <ele>128</ele>
        <time>1970-01-01T03:37:17.000Z</time>
      </trkpt>
      <trkpt lat="42.229781" lon="2.872755">
        <ele>128</ele>
        <time>1970-01-01T03:37:18.000Z</time>
      </trkpt>
      <trkpt lat="42.229755" lon="2.872693">
        <ele>128</ele>
        <time>1970-01-01T03:37:19.000Z</time>
      </trkpt>
      <trkpt lat="42.22973" lon="2.872632">
        <ele>128</ele>
        <time>1970-01-01T03:37:20.000Z</time>
      </trkpt>
      <trkpt lat="42.229705" lon="2.872571">
        <ele>128</ele>
        <time>1970-01-01T03:37:21.000Z</time>
      </trkpt>
      <trkpt lat="42.229679" lon="2.87251">
        <ele>128</ele>
        <time>1970-01-01T03:37:22.000Z</time>
      </trkpt>
      <trkpt lat="42.229654" lon="2.872448">
        <ele>128</ele>
        <time>1970-01-01T03:37:24.000Z</time>
      </trkpt>
      <trkpt lat="42.229628" lon="2.872387">
        <ele>128</ele>
        <time>1970-01-01T03:37:25.000Z</time>
      </trkpt>
      <trkpt lat="42.229603" lon="2.872326">
        <ele>130</ele>
        <time>1970-01-01T03:37:27.000Z</time>
      </trkpt>
      <trkpt lat="42.229562" lon="2.872225">
        <ele>130</ele>
        <time>1970-01-01T03:37:28.000Z</time>
      </trkpt>
      <trkpt lat="42.229542" lon="2.872179">
        <ele>130</ele>
        <time>1970-01-01T03:37:29.000Z</time>
      </trkpt>
      <trkpt lat="42.229523" lon="2.872132">
        <ele>130</ele>
        <time>1970-01-01T03:37:30.000Z</time>
      </trkpt>
      <trkpt lat="42.229504" lon="2.872085">
        <ele>130</ele>
        <time>1970-01-01T03:37:31.000Z</time>
      </trkpt>
      <trkpt lat="42.229485" lon="2.872038">
        <ele>130</ele>
        <time>1970-01-01T03:37:32.000Z</time>
      </trkpt>
      <trkpt lat="42.229465" lon="2.871992">
        <ele>130</ele>
        <time>1970-01-01T03:37:33.000Z</time>
      </trkpt>
      <trkpt lat="42.229446" lon="2.871945">
        <ele>130</ele>
        <time>1970-01-01T03:37:34.000Z</time>
      </trkpt>
      <trkpt lat="42.229427" lon="2.871898">
        <ele>130</ele>
        <time>1970-01-01T03:37:35.000Z</time>
      </trkpt>
      <trkpt lat="42.229407" lon="2.871852">
        <ele>130</ele>
        <time>1970-01-01T03:37:36.000Z</time>
      </trkpt>
      <trkpt lat="42.229388" lon="2.871805">
        <ele>132</ele>
        <time>1970-01-01T03:37:37.000Z</time>
      </trkpt>
      <trkpt lat="42.229349" lon="2.87171">
        <ele>132</ele>
        <time>1970-01-01T03:37:38.000Z</time>
      </trkpt>
      <trkpt lat="42.229331" lon="2.871665">
        <ele>132</ele>
        <time>1970-01-01T03:37:39.000Z</time>
      </trkpt>
      <trkpt lat="42.229313" lon="2.871619">
        <ele>132</ele>
        <time>1970-01-01T03:37:40.000Z</time>
      </trkpt>
      <trkpt lat="42.229295" lon="2.871574">
        <ele>132</ele>
        <time>1970-01-01T03:37:41.000Z</time>
      </trkpt>
      <trkpt lat="42.229278" lon="2.871529">
        <ele>132</ele>
        <time>1970-01-01T03:37:42.000Z</time>
      </trkpt>
      <trkpt lat="42.22926" lon="2.871484">
        <ele>132</ele>
        <time>1970-01-01T03:37:43.000Z</time>
      </trkpt>
      <trkpt lat="42.229242" lon="2.871439">
        <ele>132</ele>
        <time>1970-01-01T03:37:44.000Z</time>
      </trkpt>
      <trkpt lat="42.229224" lon="2.871393">
        <ele>132</ele>
        <time>1970-01-01T03:37:45.000Z</time>
      </trkpt>
      <trkpt lat="42.229206" lon="2.871348">
        <ele>132</ele>
        <time>1970-01-01T03:37:46.000Z</time>
      </trkpt>
      <trkpt lat="42.229188" lon="2.871303">
        <ele>133</ele>
        <time>1970-01-01T03:37:47.000Z</time>
      </trkpt>
      <trkpt lat="42.229144" lon="2.871198">
        <ele>133</ele>
        <time>1970-01-01T03:37:48.000Z</time>
      </trkpt>
      <trkpt lat="42.229122" lon="2.871145">
        <ele>133</ele>
        <time>1970-01-01T03:37:50.000Z</time>
      </trkpt>
      <trkpt lat="42.229099" lon="2.871092">
        <ele>133</ele>
        <time>1970-01-01T03:37:51.000Z</time>
      </trkpt>
      <trkpt lat="42.229076" lon="2.871039">
        <ele>133</ele>
        <time>1970-01-01T03:37:52.000Z</time>
      </trkpt>
      <trkpt lat="42.229054" lon="2.870985">
        <ele>133</ele>
        <time>1970-01-01T03:37:53.000Z</time>
      </trkpt>
      <trkpt lat="42.229031" lon="2.870932">
        <ele>133</ele>
        <time>1970-01-01T03:37:54.000Z</time>
      </trkpt>
      <trkpt lat="42.229008" lon="2.870879">
        <ele>133</ele>
        <time>1970-01-01T03:37:55.000Z</time>
      </trkpt>
      <trkpt lat="42.228986" lon="2.870826">
        <ele>133</ele>
        <time>1970-01-01T03:37:56.000Z</time>
      </trkpt>
      <trkpt lat="42.228963" lon="2.870773">
        <ele>135</ele>
        <time>1970-01-01T03:37:57.000Z</time>
      </trkpt>
      <trkpt lat="42.228918" lon="2.870667">
        <ele>135</ele>
        <time>1970-01-01T03:37:58.000Z</time>
      </trkpt>
      <trkpt lat="42.228896" lon="2.870612">
        <ele>135</ele>
        <time>1970-01-01T03:37:59.000Z</time>
      </trkpt>
      <trkpt lat="42.228874" lon="2.870558">
        <ele>135</ele>
        <time>1970-01-01T03:38:01.000Z</time>
      </trkpt>
      <trkpt lat="42.228852" lon="2.870504">
        <ele>135</ele>
        <time>1970-01-01T03:38:02.000Z</time>
      </trkpt>
      <trkpt lat="42.22883" lon="2.870449">
        <ele>135</ele>
        <time>1970-01-01T03:38:03.000Z</time>
      </trkpt>
      <trkpt lat="42.228808" lon="2.870395">
        <ele>135</ele>
        <time>1970-01-01T03:38:04.000Z</time>
      </trkpt>
      <trkpt lat="42.228786" lon="2.870341">
        <ele>135</ele>
        <time>1970-01-01T03:38:05.000Z</time>
      </trkpt>
      <trkpt lat="42.228764" lon="2.870286">
        <ele>135</ele>
        <time>1970-01-01T03:38:06.000Z</time>
      </trkpt>
      <trkpt lat="42.228742" lon="2.870232">
        <ele>137</ele>
        <time>1970-01-01T03:38:07.000Z</time>
      </trkpt>
      <trkpt lat="42.228695" lon="2.870122">
        <ele>137</ele>
        <time>1970-01-01T03:38:08.000Z</time>
      </trkpt>
      <trkpt lat="42.228671" lon="2.870066">
        <ele>137</ele>
        <time>1970-01-01T03:38:09.000Z</time>
      </trkpt>
      <trkpt lat="42.228646" lon="2.870009">
        <ele>137</ele>
        <time>1970-01-01T03:38:10.000Z</time>
      </trkpt>
      <trkpt lat="42.228621" lon="2.869952">
        <ele>137</ele>
        <time>1970-01-01T03:38:12.000Z</time>
      </trkpt>
      <trkpt lat="42.228597" lon="2.869896">
        <ele>137</ele>
        <time>1970-01-01T03:38:13.000Z</time>
      </trkpt>
      <trkpt lat="42.228572" lon="2.869839">
        <ele>137</ele>
        <time>1970-01-01T03:38:14.000Z</time>
      </trkpt>
      <trkpt lat="42.228547" lon="2.869782">
        <ele>137</ele>
        <time>1970-01-01T03:38:15.000Z</time>
      </trkpt>
      <trkpt lat="42.228523" lon="2.869726">
        <ele>137</ele>
        <time>1970-01-01T03:38:16.000Z</time>
      </trkpt>
      <trkpt lat="42.228498" lon="2.869669">
        <ele>138</ele>
        <time>1970-01-01T03:38:17.000Z</time>
      </trkpt>
      <trkpt lat="42.228449" lon="2.869552">
        <ele>138</ele>
        <time>1970-01-01T03:38:18.000Z</time>
      </trkpt>
      <trkpt lat="42.228425" lon="2.869492">
        <ele>138</ele>
        <time>1970-01-01T03:38:19.000Z</time>
      </trkpt>
      <trkpt lat="42.2284" lon="2.869433">
        <ele>138</ele>
        <time>1970-01-01T03:38:20.000Z</time>
      </trkpt>
      <trkpt lat="42.228376" lon="2.869373">
        <ele>138</ele>
        <time>1970-01-01T03:38:22.000Z</time>
      </trkpt>
      <trkpt lat="42.228352" lon="2.869314">
        <ele>138</ele>
        <time>1970-01-01T03:38:23.000Z</time>
      </trkpt>
      <trkpt lat="42.228328" lon="2.869254">
        <ele>138</ele>
        <time>1970-01-01T03:38:24.000Z</time>
      </trkpt>
      <trkpt lat="42.228303" lon="2.869195">
        <ele>138</ele>
        <time>1970-01-01T03:38:25.000Z</time>
      </trkpt>
      <trkpt lat="42.228279" lon="2.869135">
        <ele>138</ele>
        <time>1970-01-01T03:38:26.000Z</time>
      </trkpt>
      <trkpt lat="42.228255" lon="2.869076">
        <ele>140</ele>
        <time>1970-01-01T03:38:27.000Z</time>
      </trkpt>
      <trkpt lat="42.228208" lon="2.868962">
        <ele>140</ele>
        <time>1970-01-01T03:38:28.000Z</time>
      </trkpt>
      <trkpt lat="42.228185" lon="2.868906">
        <ele>140</ele>
        <time>1970-01-01T03:38:29.000Z</time>
      </trkpt>
      <trkpt lat="42.228161" lon="2.868849">
        <ele>140</ele>
        <time>1970-01-01T03:38:30.000Z</time>
      </trkpt>
      <trkpt lat="42.228138" lon="2.868793">
        <ele>140</ele>
        <time>1970-01-01T03:38:32.000Z</time>
      </trkpt>
      <trkpt lat="42.228115" lon="2.868737">
        <ele>140</ele>
        <time>1970-01-01T03:38:33.000Z</time>
      </trkpt>
      <trkpt lat="42.228092" lon="2.868681">
        <ele>140</ele>
        <time>1970-01-01T03:38:34.000Z</time>
      </trkpt>
      <trkpt lat="42.228068" lon="2.868624">
        <ele>140</ele>
        <time>1970-01-01T03:38:35.000Z</time>
      </trkpt>
      <trkpt lat="42.228045" lon="2.868568">
        <ele>140</ele>
        <time>1970-01-01T03:38:36.000Z</time>
      </trkpt>
      <trkpt lat="42.228022" lon="2.868512">
        <ele>142</ele>
        <time>1970-01-01T03:38:37.000Z</time>
      </trkpt>
      <trkpt lat="42.227975" lon="2.868397">
        <ele>142</ele>
        <time>1970-01-01T03:38:38.000Z</time>
      </trkpt>
      <trkpt lat="42.22795" lon="2.868337">
        <ele>142</ele>
        <time>1970-01-01T03:38:39.000Z</time>
      </trkpt>
      <trkpt lat="42.227925" lon="2.868278">
        <ele>142</ele>
        <time>1970-01-01T03:38:40.000Z</time>
      </trkpt>
      <trkpt lat="42.2279" lon="2.868218">
        <ele>142</ele>
        <time>1970-01-01T03:38:41.000Z</time>
      </trkpt>
      <trkpt lat="42.227876" lon="2.868158">
        <ele>142</ele>
        <time>1970-01-01T03:38:43.000Z</time>
      </trkpt>
      <trkpt lat="42.227851" lon="2.868098">
        <ele>142</ele>
        <time>1970-01-01T03:38:44.000Z</time>
      </trkpt>
      <trkpt lat="42.227826" lon="2.868039">
        <ele>142</ele>
        <time>1970-01-01T03:38:45.000Z</time>
      </trkpt>
      <trkpt lat="42.227801" lon="2.867979">
        <ele>142</ele>
        <time>1970-01-01T03:38:46.000Z</time>
      </trkpt>
      <trkpt lat="42.227776" lon="2.867919">
        <ele>142</ele>
        <time>1970-01-01T03:38:47.000Z</time>
      </trkpt>
      <trkpt lat="42.227727" lon="2.867788">
        <ele>142</ele>
        <time>1970-01-01T03:38:48.000Z</time>
      </trkpt>
      <trkpt lat="42.227704" lon="2.867722">
        <ele>142</ele>
        <time>1970-01-01T03:38:49.000Z</time>
      </trkpt>
      <trkpt lat="42.227681" lon="2.867655">
        <ele>142</ele>
        <time>1970-01-01T03:38:50.000Z</time>
      </trkpt>
      <trkpt lat="42.227658" lon="2.867589">
        <ele>142</ele>
        <time>1970-01-01T03:38:52.000Z</time>
      </trkpt>
      <trkpt lat="42.227636" lon="2.867522">
        <ele>142</ele>
        <time>1970-01-01T03:38:53.000Z</time>
      </trkpt>
      <trkpt lat="42.227613" lon="2.867456">
        <ele>142</ele>
        <time>1970-01-01T03:38:54.000Z</time>
      </trkpt>
      <trkpt lat="42.22759" lon="2.867389">
        <ele>142</ele>
        <time>1970-01-01T03:38:55.000Z</time>
      </trkpt>
      <trkpt lat="42.227567" lon="2.867323">
        <ele>142</ele>
        <time>1970-01-01T03:38:56.000Z</time>
      </trkpt>
      <trkpt lat="42.227544" lon="2.867256">
        <ele>143</ele>
        <time>1970-01-01T03:38:57.000Z</time>
      </trkpt>
      <trkpt lat="42.227487" lon="2.86705">
        <ele>143</ele>
        <time>1970-01-01T03:38:59.000Z</time>
      </trkpt>
      <trkpt lat="42.22747" lon="2.866982">
        <ele>143</ele>
        <time>1970-01-01T03:39:01.000Z</time>
      </trkpt>
      <trkpt lat="42.227454" lon="2.866913">
        <ele>143</ele>
        <time>1970-01-01T03:39:02.000Z</time>
      </trkpt>
      <trkpt lat="42.227438" lon="2.866845">
        <ele>143</ele>
        <time>1970-01-01T03:39:03.000Z</time>
      </trkpt>
      <trkpt lat="42.227421" lon="2.866776">
        <ele>143</ele>
        <time>1970-01-01T03:39:04.000Z</time>
      </trkpt>
      <trkpt lat="42.227405" lon="2.866708">
        <ele>143</ele>
        <time>1970-01-01T03:39:05.000Z</time>
      </trkpt>
      <trkpt lat="42.227388" lon="2.866639">
        <ele>143</ele>
        <time>1970-01-01T03:39:06.000Z</time>
      </trkpt>
      <trkpt lat="42.227372" lon="2.866571">
        <ele>143</ele>
        <time>1970-01-01T03:39:07.000Z</time>
      </trkpt>
      <trkpt lat="42.227348" lon="2.866439">
        <ele>143</ele>
        <time>1970-01-01T03:39:08.000Z</time>
      </trkpt>
      <trkpt lat="42.22734" lon="2.866377">
        <ele>143</ele>
        <time>1970-01-01T03:39:09.000Z</time>
      </trkpt>
      <trkpt lat="42.227331" lon="2.866316">
        <ele>143</ele>
        <time>1970-01-01T03:39:10.000Z</time>
      </trkpt>
      <trkpt lat="42.227322" lon="2.866254">
        <ele>143</ele>
        <time>1970-01-01T03:39:11.000Z</time>
      </trkpt>
      <trkpt lat="42.227314" lon="2.866192">
        <ele>143</ele>
        <time>1970-01-01T03:39:12.000Z</time>
      </trkpt>
      <trkpt lat="42.227305" lon="2.86613">
        <ele>143</ele>
        <time>1970-01-01T03:39:13.000Z</time>
      </trkpt>
      <trkpt lat="42.227296" lon="2.866068">
        <ele>143</ele>
        <time>1970-01-01T03:39:14.000Z</time>
      </trkpt>
      <trkpt lat="42.227287" lon="2.866007">
        <ele>143</ele>
        <time>1970-01-01T03:39:15.000Z</time>
      </trkpt>
      <trkpt lat="42.227279" lon="2.865945">
        <ele>143</ele>
        <time>1970-01-01T03:39:16.000Z</time>
      </trkpt>
      <trkpt lat="42.22727" lon="2.865883">
        <ele>143</ele>
        <time>1970-01-01T03:39:17.000Z</time>
      </trkpt>
      <trkpt lat="42.22726" lon="2.865752">
        <ele>143</ele>
        <time>1970-01-01T03:39:18.000Z</time>
      </trkpt>
      <trkpt lat="42.227257" lon="2.865686">
        <ele>143</ele>
        <time>1970-01-01T03:39:19.000Z</time>
      </trkpt>
      <trkpt lat="42.227253" lon="2.865621">
        <ele>143</ele>
        <time>1970-01-01T03:39:20.000Z</time>
      </trkpt>
      <trkpt lat="42.22725" lon="2.865556">
        <ele>143</ele>
        <time>1970-01-01T03:39:21.000Z</time>
      </trkpt>
      <trkpt lat="42.227247" lon="2.86549">
        <ele>143</ele>
        <time>1970-01-01T03:39:22.000Z</time>
      </trkpt>
      <trkpt lat="42.227244" lon="2.865425">
        <ele>143</ele>
        <time>1970-01-01T03:39:23.000Z</time>
      </trkpt>
      <trkpt lat="42.227241" lon="2.86536">
        <ele>143</ele>
        <time>1970-01-01T03:39:24.000Z</time>
      </trkpt>
      <trkpt lat="42.227237" lon="2.865295">
        <ele>143</ele>
        <time>1970-01-01T03:39:25.000Z</time>
      </trkpt>
      <trkpt lat="42.227234" lon="2.865229">
        <ele>143</ele>
        <time>1970-01-01T03:39:26.000Z</time>
      </trkpt>
      <trkpt lat="42.227231" lon="2.865164">
        <ele>143</ele>
        <time>1970-01-01T03:39:27.000Z</time>
      </trkpt>
      <trkpt lat="42.227234" lon="2.865013">
        <ele>143</ele>
        <time>1970-01-01T03:39:28.000Z</time>
      </trkpt>
      <trkpt lat="42.227238" lon="2.864937">
        <ele>143</ele>
        <time>1970-01-01T03:39:30.000Z</time>
      </trkpt>
      <trkpt lat="42.227241" lon="2.864862">
        <ele>143</ele>
        <time>1970-01-01T03:39:31.000Z</time>
      </trkpt>
      <trkpt lat="42.227244" lon="2.864786">
        <ele>143</ele>
        <time>1970-01-01T03:39:32.000Z</time>
      </trkpt>
      <trkpt lat="42.227247" lon="2.864711">
        <ele>143</ele>
        <time>1970-01-01T03:39:33.000Z</time>
      </trkpt>
      <trkpt lat="42.227251" lon="2.864635">
        <ele>143</ele>
        <time>1970-01-01T03:39:34.000Z</time>
      </trkpt>
      <trkpt lat="42.227254" lon="2.86456">
        <ele>143</ele>
        <time>1970-01-01T03:39:35.000Z</time>
      </trkpt>
      <trkpt lat="42.227257" lon="2.864484">
        <ele>144</ele>
        <time>1970-01-01T03:39:37.000Z</time>
      </trkpt>
      <trkpt lat="42.227267" lon="2.864353">
        <ele>144</ele>
        <time>1970-01-01T03:39:38.000Z</time>
      </trkpt>
      <trkpt lat="42.227273" lon="2.864286">
        <ele>144</ele>
        <time>1970-01-01T03:39:40.000Z</time>
      </trkpt>
      <trkpt lat="42.227278" lon="2.864218">
        <ele>144</ele>
        <time>1970-01-01T03:39:41.000Z</time>
      </trkpt>
      <trkpt lat="42.227283" lon="2.864151">
        <ele>144</ele>
        <time>1970-01-01T03:39:42.000Z</time>
      </trkpt>
      <trkpt lat="42.227289" lon="2.864084">
        <ele>144</ele>
        <time>1970-01-01T03:39:43.000Z</time>
      </trkpt>
      <trkpt lat="42.227294" lon="2.864017">
        <ele>144</ele>
        <time>1970-01-01T03:39:44.000Z</time>
      </trkpt>
      <trkpt lat="42.227299" lon="2.863949">
        <ele>144</ele>
        <time>1970-01-01T03:39:45.000Z</time>
      </trkpt>
      <trkpt lat="42.227305" lon="2.863882">
        <ele>144</ele>
        <time>1970-01-01T03:39:46.000Z</time>
      </trkpt>
      <trkpt lat="42.22731" lon="2.863815">
        <ele>145</ele>
        <time>1970-01-01T03:39:47.000Z</time>
      </trkpt>
      <trkpt lat="42.227318" lon="2.863668">
        <ele>145</ele>
        <time>1970-01-01T03:39:48.000Z</time>
      </trkpt>
      <trkpt lat="42.227323" lon="2.863591">
        <ele>145</ele>
        <time>1970-01-01T03:39:50.000Z</time>
      </trkpt>
      <trkpt lat="42.227328" lon="2.863515">
        <ele>145</ele>
        <time>1970-01-01T03:39:51.000Z</time>
      </trkpt>
      <trkpt lat="42.227333" lon="2.863438">
        <ele>145</ele>
        <time>1970-01-01T03:39:52.000Z</time>
      </trkpt>
      <trkpt lat="42.227338" lon="2.863362">
        <ele>145</ele>
        <time>1970-01-01T03:39:53.000Z</time>
      </trkpt>
      <trkpt lat="42.227343" lon="2.863285">
        <ele>145</ele>
        <time>1970-01-01T03:39:54.000Z</time>
      </trkpt>
      <trkpt lat="42.227348" lon="2.863209">
        <ele>145</ele>
        <time>1970-01-01T03:39:55.000Z</time>
      </trkpt>
      <trkpt lat="42.227353" lon="2.863132">
        <ele>145</ele>
        <time>1970-01-01T03:39:56.000Z</time>
      </trkpt>
      <trkpt lat="42.227358" lon="2.863056">
        <ele>145</ele>
        <time>1970-01-01T03:39:57.000Z</time>
      </trkpt>
      <trkpt lat="42.227369" lon="2.862891">
        <ele>145</ele>
        <time>1970-01-01T03:39:58.000Z</time>
      </trkpt>
      <trkpt lat="42.227376" lon="2.862806">
        <ele>145</ele>
        <time>1970-01-01T03:39:59.000Z</time>
      </trkpt>
      <trkpt lat="42.227382" lon="2.862722">
        <ele>145</ele>
        <time>1970-01-01T03:40:00.000Z</time>
      </trkpt>
      <trkpt lat="42.227389" lon="2.862637">
        <ele>145</ele>
        <time>1970-01-01T03:40:01.000Z</time>
      </trkpt>
      <trkpt lat="42.227395" lon="2.862553">
        <ele>145</ele>
        <time>1970-01-01T03:40:02.000Z</time>
      </trkpt>
      <trkpt lat="42.227402" lon="2.862468">
        <ele>145</ele>
        <time>1970-01-01T03:40:03.000Z</time>
      </trkpt>
      <trkpt lat="42.227408" lon="2.862384">
        <ele>145</ele>
        <time>1970-01-01T03:40:04.000Z</time>
      </trkpt>
      <trkpt lat="42.227415" lon="2.862299">
        <ele>145</ele>
        <time>1970-01-01T03:40:05.000Z</time>
      </trkpt>
      <trkpt lat="42.227421" lon="2.862215">
        <ele>145</ele>
        <time>1970-01-01T03:40:07.000Z</time>
      </trkpt>
      <trkpt lat="42.227431" lon="2.862043">
        <ele>145</ele>
        <time>1970-01-01T03:40:08.000Z</time>
      </trkpt>
      <trkpt lat="42.227434" lon="2.861957">
        <ele>145</ele>
        <time>1970-01-01T03:40:09.000Z</time>
      </trkpt>
      <trkpt lat="42.227438" lon="2.861872">
        <ele>145</ele>
        <time>1970-01-01T03:40:10.000Z</time>
      </trkpt>
      <trkpt lat="42.227441" lon="2.861786">
        <ele>145</ele>
        <time>1970-01-01T03:40:11.000Z</time>
      </trkpt>
      <trkpt lat="42.227445" lon="2.8617">
        <ele>145</ele>
        <time>1970-01-01T03:40:12.000Z</time>
      </trkpt>
      <trkpt lat="42.227448" lon="2.861614">
        <ele>145</ele>
        <time>1970-01-01T03:40:14.000Z</time>
      </trkpt>
      <trkpt lat="42.227452" lon="2.861529">
        <ele>145</ele>
        <time>1970-01-01T03:40:15.000Z</time>
      </trkpt>
      <trkpt lat="42.227455" lon="2.861443">
        <ele>145</ele>
        <time>1970-01-01T03:40:16.000Z</time>
      </trkpt>
      <trkpt lat="42.227459" lon="2.861357">
        <ele>146</ele>
        <time>1970-01-01T03:40:17.000Z</time>
      </trkpt>
      <trkpt lat="42.22746" lon="2.861182">
        <ele>146</ele>
        <time>1970-01-01T03:40:18.000Z</time>
      </trkpt>
      <trkpt lat="42.227458" lon="2.861089">
        <ele>146</ele>
        <time>1970-01-01T03:40:19.000Z</time>
      </trkpt>
      <trkpt lat="42.227456" lon="2.860996">
        <ele>146</ele>
        <time>1970-01-01T03:40:20.000Z</time>
      </trkpt>
      <trkpt lat="42.227454" lon="2.860903">
        <ele>146</ele>
        <time>1970-01-01T03:40:22.000Z</time>
      </trkpt>
      <trkpt lat="42.227453" lon="2.860809">
        <ele>146</ele>
        <time>1970-01-01T03:40:23.000Z</time>
      </trkpt>
      <trkpt lat="42.227451" lon="2.860716">
        <ele>146</ele>
        <time>1970-01-01T03:40:24.000Z</time>
      </trkpt>
      <trkpt lat="42.227449" lon="2.860623">
        <ele>146</ele>
        <time>1970-01-01T03:40:25.000Z</time>
      </trkpt>
      <trkpt lat="42.227447" lon="2.86053">
        <ele>146</ele>
        <time>1970-01-01T03:40:26.000Z</time>
      </trkpt>
      <trkpt lat="42.227445" lon="2.860437">
        <ele>146</ele>
        <time>1970-01-01T03:40:27.000Z</time>
      </trkpt>
      <trkpt lat="42.227436" lon="2.860244">
        <ele>146</ele>
        <time>1970-01-01T03:40:28.000Z</time>
      </trkpt>
      <trkpt lat="42.227432" lon="2.860149">
        <ele>146</ele>
        <time>1970-01-01T03:40:29.000Z</time>
      </trkpt>
      <trkpt lat="42.227427" lon="2.860053">
        <ele>146</ele>
        <time>1970-01-01T03:40:30.000Z</time>
      </trkpt>
      <trkpt lat="42.227423" lon="2.859957">
        <ele>146</ele>
        <time>1970-01-01T03:40:31.000Z</time>
      </trkpt>
      <trkpt lat="42.227419" lon="2.859862">
        <ele>146</ele>
        <time>1970-01-01T03:40:32.000Z</time>
      </trkpt>
      <trkpt lat="42.227415" lon="2.859766">
        <ele>146</ele>
        <time>1970-01-01T03:40:33.000Z</time>
      </trkpt>
      <trkpt lat="42.22741" lon="2.85967">
        <ele>146</ele>
        <time>1970-01-01T03:40:34.000Z</time>
      </trkpt>
      <trkpt lat="42.227406" lon="2.859575">
        <ele>146</ele>
        <time>1970-01-01T03:40:36.000Z</time>
      </trkpt>
      <trkpt lat="42.227402" lon="2.859479">
        <ele>145</ele>
        <time>1970-01-01T03:40:37.000Z</time>
      </trkpt>
      <trkpt lat="42.227379" lon="2.859286">
        <ele>145</ele>
        <time>1970-01-01T03:40:38.000Z</time>
      </trkpt>
      <trkpt lat="42.227365" lon="2.85919">
        <ele>145</ele>
        <time>1970-01-01T03:40:39.000Z</time>
      </trkpt>
      <trkpt lat="42.227352" lon="2.859095">
        <ele>145</ele>
        <time>1970-01-01T03:40:40.000Z</time>
      </trkpt>
      <trkpt lat="42.227339" lon="2.858999">
        <ele>145</ele>
        <time>1970-01-01T03:40:41.000Z</time>
      </trkpt>
      <trkpt lat="42.227325" lon="2.858903">
        <ele>145</ele>
        <time>1970-01-01T03:40:43.000Z</time>
      </trkpt>
      <trkpt lat="42.227312" lon="2.858807">
        <ele>145</ele>
        <time>1970-01-01T03:40:44.000Z</time>
      </trkpt>
      <trkpt lat="42.227299" lon="2.858712">
        <ele>145</ele>
        <time>1970-01-01T03:40:45.000Z</time>
      </trkpt>
      <trkpt lat="42.227285" lon="2.858616">
        <ele>145</ele>
        <time>1970-01-01T03:40:46.000Z</time>
      </trkpt>
      <trkpt lat="42.227272" lon="2.85852">
        <ele>145</ele>
        <time>1970-01-01T03:40:47.000Z</time>
      </trkpt>
      <trkpt lat="42.227237" lon="2.858323">
        <ele>145</ele>
        <time>1970-01-01T03:40:48.000Z</time>
      </trkpt>
      <trkpt lat="42.227216" lon="2.85822">
        <ele>145</ele>
        <time>1970-01-01T03:40:49.000Z</time>
      </trkpt>
      <trkpt lat="42.227195" lon="2.858116">
        <ele>145</ele>
        <time>1970-01-01T03:40:50.000Z</time>
      </trkpt>
      <trkpt lat="42.227175" lon="2.858012">
        <ele>145</ele>
        <time>1970-01-01T03:40:51.000Z</time>
      </trkpt>
      <trkpt lat="42.227154" lon="2.857909">
        <ele>145</ele>
        <time>1970-01-01T03:40:53.000Z</time>
      </trkpt>
      <trkpt lat="42.227133" lon="2.857805">
        <ele>145</ele>
        <time>1970-01-01T03:40:54.000Z</time>
      </trkpt>
      <trkpt lat="42.227112" lon="2.857702">
        <ele>145</ele>
        <time>1970-01-01T03:40:55.000Z</time>
      </trkpt>
      <trkpt lat="42.227091" lon="2.857598">
        <ele>145</ele>
        <time>1970-01-01T03:40:57.000Z</time>
      </trkpt>
      <trkpt lat="42.227046" lon="2.857416">
        <ele>145</ele>
        <time>1970-01-01T03:40:58.000Z</time>
      </trkpt>
      <trkpt lat="42.227022" lon="2.857326">
        <ele>145</ele>
        <time>1970-01-01T03:40:59.000Z</time>
      </trkpt>
      <trkpt lat="42.226998" lon="2.857236">
        <ele>145</ele>
        <time>1970-01-01T03:41:00.000Z</time>
      </trkpt>
      <trkpt lat="42.226974" lon="2.857146">
        <ele>145</ele>
        <time>1970-01-01T03:41:01.000Z</time>
      </trkpt>
      <trkpt lat="42.22695" lon="2.857057">
        <ele>145</ele>
        <time>1970-01-01T03:41:02.000Z</time>
      </trkpt>
      <trkpt lat="42.226926" lon="2.856967">
        <ele>145</ele>
        <time>1970-01-01T03:41:04.000Z</time>
      </trkpt>
      <trkpt lat="42.226902" lon="2.856877">
        <ele>145</ele>
        <time>1970-01-01T03:41:05.000Z</time>
      </trkpt>
      <trkpt lat="42.226878" lon="2.856787">
        <ele>145</ele>
        <time>1970-01-01T03:41:06.000Z</time>
      </trkpt>
      <trkpt lat="42.226854" lon="2.856697">
        <ele>144</ele>
        <time>1970-01-01T03:41:07.000Z</time>
      </trkpt>
      <trkpt lat="42.226798" lon="2.856523">
        <ele>144</ele>
        <time>1970-01-01T03:41:08.000Z</time>
      </trkpt>
      <trkpt lat="42.226768" lon="2.856438">
        <ele>144</ele>
        <time>1970-01-01T03:41:09.000Z</time>
      </trkpt>
      <trkpt lat="42.226738" lon="2.856354">
        <ele>144</ele>
        <time>1970-01-01T03:41:11.000Z</time>
      </trkpt>
      <trkpt lat="42.226708" lon="2.856269">
        <ele>144</ele>
        <time>1970-01-01T03:41:12.000Z</time>
      </trkpt>
      <trkpt lat="42.226678" lon="2.856185">
        <ele>144</ele>
        <time>1970-01-01T03:41:13.000Z</time>
      </trkpt>
      <trkpt lat="42.226648" lon="2.8561">
        <ele>144</ele>
        <time>1970-01-01T03:41:14.000Z</time>
      </trkpt>
      <trkpt lat="42.226618" lon="2.856016">
        <ele>144</ele>
        <time>1970-01-01T03:41:15.000Z</time>
      </trkpt>
      <trkpt lat="42.226588" lon="2.855931">
        <ele>144</ele>
        <time>1970-01-01T03:41:16.000Z</time>
      </trkpt>
      <trkpt lat="42.226558" lon="2.855847">
        <ele>143</ele>
        <time>1970-01-01T03:41:17.000Z</time>
      </trkpt>
      <trkpt lat="42.226469" lon="2.855616">
        <ele>143</ele>
        <time>1970-01-01T03:41:19.000Z</time>
      </trkpt>
      <trkpt lat="42.22644" lon="2.855545">
        <ele>143</ele>
        <time>1970-01-01T03:41:20.000Z</time>
      </trkpt>
      <trkpt lat="42.22641" lon="2.855473">
        <ele>143</ele>
        <time>1970-01-01T03:41:21.000Z</time>
      </trkpt>
      <trkpt lat="42.22638" lon="2.855401">
        <ele>143</ele>
        <time>1970-01-01T03:41:22.000Z</time>
      </trkpt>
      <trkpt lat="42.22635" lon="2.85533">
        <ele>143</ele>
        <time>1970-01-01T03:41:23.000Z</time>
      </trkpt>
      <trkpt lat="42.226321" lon="2.855258">
        <ele>143</ele>
        <time>1970-01-01T03:41:24.000Z</time>
      </trkpt>
      <trkpt lat="42.226291" lon="2.855187">
        <ele>143</ele>
        <time>1970-01-01T03:41:25.000Z</time>
      </trkpt>
      <trkpt lat="42.226261" lon="2.855115">
        <ele>143</ele>
        <time>1970-01-01T03:41:27.000Z</time>
      </trkpt>
      <trkpt lat="42.226197" lon="2.854969">
        <ele>143</ele>
        <time>1970-01-01T03:41:28.000Z</time>
      </trkpt>
      <trkpt lat="42.226164" lon="2.854896">
        <ele>143</ele>
        <time>1970-01-01T03:41:29.000Z</time>
      </trkpt>
      <trkpt lat="42.226131" lon="2.854824">
        <ele>143</ele>
        <time>1970-01-01T03:41:30.000Z</time>
      </trkpt>
      <trkpt lat="42.226098" lon="2.854751">
        <ele>143</ele>
        <time>1970-01-01T03:41:31.000Z</time>
      </trkpt>
      <trkpt lat="42.226064" lon="2.854678">
        <ele>143</ele>
        <time>1970-01-01T03:41:32.000Z</time>
      </trkpt>
      <trkpt lat="42.226031" lon="2.854605">
        <ele>143</ele>
        <time>1970-01-01T03:41:33.000Z</time>
      </trkpt>
      <trkpt lat="42.225998" lon="2.854533">
        <ele>143</ele>
        <time>1970-01-01T03:41:35.000Z</time>
      </trkpt>
      <trkpt lat="42.225965" lon="2.85446">
        <ele>143</ele>
        <time>1970-01-01T03:41:36.000Z</time>
      </trkpt>
      <trkpt lat="42.225932" lon="2.854387">
        <ele>144</ele>
        <time>1970-01-01T03:41:37.000Z</time>
      </trkpt>
      <trkpt lat="42.22587" lon="2.854257">
        <ele>144</ele>
        <time>1970-01-01T03:41:38.000Z</time>
      </trkpt>
      <trkpt lat="42.22584" lon="2.854196">
        <ele>144</ele>
        <time>1970-01-01T03:41:39.000Z</time>
      </trkpt>
      <trkpt lat="42.225811" lon="2.854136">
        <ele>144</ele>
        <time>1970-01-01T03:41:40.000Z</time>
      </trkpt>
      <trkpt lat="42.225781" lon="2.854075">
        <ele>144</ele>
        <time>1970-01-01T03:41:41.000Z</time>
      </trkpt>
      <trkpt lat="42.225752" lon="2.854014">
        <ele>144</ele>
        <time>1970-01-01T03:41:42.000Z</time>
      </trkpt>
      <trkpt lat="42.225722" lon="2.853953">
        <ele>144</ele>
        <time>1970-01-01T03:41:43.000Z</time>
      </trkpt>
      <trkpt lat="42.225693" lon="2.853892">
        <ele>144</ele>
        <time>1970-01-01T03:41:44.000Z</time>
      </trkpt>
      <trkpt lat="42.225663" lon="2.853832">
        <ele>144</ele>
        <time>1970-01-01T03:41:45.000Z</time>
      </trkpt>
      <trkpt lat="42.225634" lon="2.853771">
        <ele>144</ele>
        <time>1970-01-01T03:41:46.000Z</time>
      </trkpt>
      <trkpt lat="42.225604" lon="2.85371">
        <ele>145</ele>
        <time>1970-01-01T03:41:47.000Z</time>
      </trkpt>
      <trkpt lat="42.225543" lon="2.853577">
        <ele>145</ele>
        <time>1970-01-01T03:41:48.000Z</time>
      </trkpt>
      <trkpt lat="42.225515" lon="2.853509">
        <ele>145</ele>
        <time>1970-01-01T03:41:50.000Z</time>
      </trkpt>
      <trkpt lat="42.225486" lon="2.853442">
        <ele>145</ele>
        <time>1970-01-01T03:41:51.000Z</time>
      </trkpt>
      <trkpt lat="42.225457" lon="2.853374">
        <ele>145</ele>
        <time>1970-01-01T03:41:52.000Z</time>
      </trkpt>
      <trkpt lat="42.225429" lon="2.853306">
        <ele>145</ele>
        <time>1970-01-01T03:41:53.000Z</time>
      </trkpt>
      <trkpt lat="42.2254" lon="2.853238">
        <ele>145</ele>
        <time>1970-01-01T03:41:54.000Z</time>
      </trkpt>
      <trkpt lat="42.225371" lon="2.853171">
        <ele>145</ele>
        <time>1970-01-01T03:41:55.000Z</time>
      </trkpt>
      <trkpt lat="42.225343" lon="2.853103">
        <ele>145</ele>
        <time>1970-01-01T03:41:56.000Z</time>
      </trkpt>
      <trkpt lat="42.225314" lon="2.853035">
        <ele>146</ele>
        <time>1970-01-01T03:41:57.000Z</time>
      </trkpt>
      <trkpt lat="42.22526" lon="2.852911">
        <ele>146</ele>
        <time>1970-01-01T03:41:58.000Z</time>
      </trkpt>
      <trkpt lat="42.225234" lon="2.852854">
        <ele>146</ele>
        <time>1970-01-01T03:41:59.000Z</time>
      </trkpt>
      <trkpt lat="42.225209" lon="2.852796">
        <ele>146</ele>
        <time>1970-01-01T03:42:00.000Z</time>
      </trkpt>
      <trkpt lat="42.225183" lon="2.852739">
        <ele>146</ele>
        <time>1970-01-01T03:42:01.000Z</time>
      </trkpt>
      <trkpt lat="42.225157" lon="2.852681">
        <ele>146</ele>
        <time>1970-01-01T03:42:02.000Z</time>
      </trkpt>
      <trkpt lat="42.225131" lon="2.852623">
        <ele>146</ele>
        <time>1970-01-01T03:42:03.000Z</time>
      </trkpt>
      <trkpt lat="42.225105" lon="2.852566">
        <ele>146</ele>
        <time>1970-01-01T03:42:04.000Z</time>
      </trkpt>
      <trkpt lat="42.22508" lon="2.852508">
        <ele>146</ele>
        <time>1970-01-01T03:42:05.000Z</time>
      </trkpt>
      <trkpt lat="42.225054" lon="2.852451">
        <ele>146</ele>
        <time>1970-01-01T03:42:06.000Z</time>
      </trkpt>
      <trkpt lat="42.225028" lon="2.852393">
        <ele>147</ele>
        <time>1970-01-01T03:42:07.000Z</time>
      </trkpt>
      <trkpt lat="42.224951" lon="2.852204">
        <ele>147</ele>
        <time>1970-01-01T03:42:09.000Z</time>
      </trkpt>
      <trkpt lat="42.22493" lon="2.852145">
        <ele>147</ele>
        <time>1970-01-01T03:42:10.000Z</time>
      </trkpt>
      <trkpt lat="42.224909" lon="2.852086">
        <ele>147</ele>
        <time>1970-01-01T03:42:11.000Z</time>
      </trkpt>
      <trkpt lat="42.224888" lon="2.852027">
        <ele>147</ele>
        <time>1970-01-01T03:42:12.000Z</time>
      </trkpt>
      <trkpt lat="42.224868" lon="2.851968">
        <ele>147</ele>
        <time>1970-01-01T03:42:13.000Z</time>
      </trkpt>
      <trkpt lat="42.224847" lon="2.851909">
        <ele>147</ele>
        <time>1970-01-01T03:42:14.000Z</time>
      </trkpt>
      <trkpt lat="42.224826" lon="2.85185">
        <ele>147</ele>
        <time>1970-01-01T03:42:15.000Z</time>
      </trkpt>
      <trkpt lat="42.224805" lon="2.851791">
        <ele>147</ele>
        <time>1970-01-01T03:42:16.000Z</time>
      </trkpt>
      <trkpt lat="42.224784" lon="2.851732">
        <ele>148</ele>
        <time>1970-01-01T03:42:17.000Z</time>
      </trkpt>
      <trkpt lat="42.22475" lon="2.851595">
        <ele>148</ele>
        <time>1970-01-01T03:42:18.000Z</time>
      </trkpt>
      <trkpt lat="42.224735" lon="2.851528">
        <ele>148</ele>
        <time>1970-01-01T03:42:19.000Z</time>
      </trkpt>
      <trkpt lat="42.22472" lon="2.85146">
        <ele>148</ele>
        <time>1970-01-01T03:42:20.000Z</time>
      </trkpt>
      <trkpt lat="42.224705" lon="2.851392">
        <ele>148</ele>
        <time>1970-01-01T03:42:21.000Z</time>
      </trkpt>
      <trkpt lat="42.22469" lon="2.851324">
        <ele>148</ele>
        <time>1970-01-01T03:42:22.000Z</time>
      </trkpt>
      <trkpt lat="42.224674" lon="2.851257">
        <ele>148</ele>
        <time>1970-01-01T03:42:23.000Z</time>
      </trkpt>
      <trkpt lat="42.224659" lon="2.851189">
        <ele>148</ele>
        <time>1970-01-01T03:42:24.000Z</time>
      </trkpt>
      <trkpt lat="42.224644" lon="2.851121">
        <ele>148</ele>
        <time>1970-01-01T03:42:25.000Z</time>
      </trkpt>
      <trkpt lat="42.224629" lon="2.851054">
        <ele>148</ele>
        <time>1970-01-01T03:42:26.000Z</time>
      </trkpt>
      <trkpt lat="42.224614" lon="2.850986">
        <ele>150</ele>
        <time>1970-01-01T03:42:27.000Z</time>
      </trkpt>
      <trkpt lat="42.224591" lon="2.850823">
        <ele>150</ele>
        <time>1970-01-01T03:42:28.000Z</time>
      </trkpt>
      <trkpt lat="42.224581" lon="2.850742">
        <ele>150</ele>
        <time>1970-01-01T03:42:29.000Z</time>
      </trkpt>
      <trkpt lat="42.224572" lon="2.850662">
        <ele>150</ele>
        <time>1970-01-01T03:42:30.000Z</time>
      </trkpt>
      <trkpt lat="42.224563" lon="2.850581">
        <ele>150</ele>
        <time>1970-01-01T03:42:31.000Z</time>
      </trkpt>
      <trkpt lat="42.224554" lon="2.850501">
        <ele>150</ele>
        <time>1970-01-01T03:42:32.000Z</time>
      </trkpt>
      <trkpt lat="42.224544" lon="2.850421">
        <ele>150</ele>
        <time>1970-01-01T03:42:33.000Z</time>
      </trkpt>
      <trkpt lat="42.224535" lon="2.85034">
        <ele>150</ele>
        <time>1970-01-01T03:42:34.000Z</time>
      </trkpt>
      <trkpt lat="42.224526" lon="2.85026">
        <ele>150</ele>
        <time>1970-01-01T03:42:35.000Z</time>
      </trkpt>
      <trkpt lat="42.224516" lon="2.850179">
        <ele>150</ele>
        <time>1970-01-01T03:42:36.000Z</time>
      </trkpt>
      <trkpt lat="42.224507" lon="2.850099">
        <ele>150</ele>
        <time>1970-01-01T03:42:37.000Z</time>
      </trkpt>
      <trkpt lat="42.224492" lon="2.849911">
        <ele>150</ele>
        <time>1970-01-01T03:42:38.000Z</time>
      </trkpt>
      <trkpt lat="42.224485" lon="2.849815">
        <ele>150</ele>
        <time>1970-01-01T03:42:39.000Z</time>
      </trkpt>
      <trkpt lat="42.224479" lon="2.849719">
        <ele>150</ele>
        <time>1970-01-01T03:42:40.000Z</time>
      </trkpt>
      <trkpt lat="42.224473" lon="2.849623">
        <ele>150</ele>
        <time>1970-01-01T03:42:42.000Z</time>
      </trkpt>
      <trkpt lat="42.224466" lon="2.849527">
        <ele>150</ele>
        <time>1970-01-01T03:42:43.000Z</time>
      </trkpt>
      <trkpt lat="42.22446" lon="2.849431">
        <ele>150</ele>
        <time>1970-01-01T03:42:44.000Z</time>
      </trkpt>
      <trkpt lat="42.224454" lon="2.849335">
        <ele>150</ele>
        <time>1970-01-01T03:42:45.000Z</time>
      </trkpt>
      <trkpt lat="42.224447" lon="2.849239">
        <ele>150</ele>
        <time>1970-01-01T03:42:46.000Z</time>
      </trkpt>
      <trkpt lat="42.224441" lon="2.849143">
        <ele>150</ele>
        <time>1970-01-01T03:42:47.000Z</time>
      </trkpt>
      <trkpt lat="42.224422" lon="2.848869">
        <ele>150</ele>
        <time>1970-01-01T03:42:49.000Z</time>
      </trkpt>
      <trkpt lat="42.224417" lon="2.848789">
        <ele>150</ele>
        <time>1970-01-01T03:42:50.000Z</time>
      </trkpt>
      <trkpt lat="42.224411" lon="2.848708">
        <ele>150</ele>
        <time>1970-01-01T03:42:51.000Z</time>
      </trkpt>
      <trkpt lat="42.224406" lon="2.848627">
        <ele>150</ele>
        <time>1970-01-01T03:42:52.000Z</time>
      </trkpt>
      <trkpt lat="42.2244" lon="2.848547">
        <ele>150</ele>
        <time>1970-01-01T03:42:53.000Z</time>
      </trkpt>
      <trkpt lat="42.224395" lon="2.848466">
        <ele>150</ele>
        <time>1970-01-01T03:42:54.000Z</time>
      </trkpt>
      <trkpt lat="42.224389" lon="2.848385">
        <ele>150</ele>
        <time>1970-01-01T03:42:55.000Z</time>
      </trkpt>
      <trkpt lat="42.224384" lon="2.848305">
        <ele>150</ele>
        <time>1970-01-01T03:42:56.000Z</time>
      </trkpt>
      <trkpt lat="42.224378" lon="2.848224">
        <ele>150</ele>
        <time>1970-01-01T03:42:57.000Z</time>
      </trkpt>
      <trkpt lat="42.224367" lon="2.848054">
        <ele>150</ele>
        <time>1970-01-01T03:42:58.000Z</time>
      </trkpt>
      <trkpt lat="42.224361" lon="2.847969">
        <ele>150</ele>
        <time>1970-01-01T03:42:59.000Z</time>
      </trkpt>
      <trkpt lat="42.224355" lon="2.847884">
        <ele>150</ele>
        <time>1970-01-01T03:43:00.000Z</time>
      </trkpt>
      <trkpt lat="42.224349" lon="2.847799">
        <ele>150</ele>
        <time>1970-01-01T03:43:01.000Z</time>
      </trkpt>
      <trkpt lat="42.224342" lon="2.847714">
        <ele>150</ele>
        <time>1970-01-01T03:43:02.000Z</time>
      </trkpt>
      <trkpt lat="42.224336" lon="2.847629">
        <ele>150</ele>
        <time>1970-01-01T03:43:04.000Z</time>
      </trkpt>
      <trkpt lat="42.22433" lon="2.847544">
        <ele>150</ele>
        <time>1970-01-01T03:43:05.000Z</time>
      </trkpt>
      <trkpt lat="42.224324" lon="2.847459">
        <ele>150</ele>
        <time>1970-01-01T03:43:06.000Z</time>
      </trkpt>
      <trkpt lat="42.224318" lon="2.847374">
        <ele>150</ele>
        <time>1970-01-01T03:43:07.000Z</time>
      </trkpt>
      <trkpt lat="42.224307" lon="2.847217">
        <ele>150</ele>
        <time>1970-01-01T03:43:08.000Z</time>
      </trkpt>
      <trkpt lat="42.224302" lon="2.847143">
        <ele>150</ele>
        <time>1970-01-01T03:43:09.000Z</time>
      </trkpt>
      <trkpt lat="42.224297" lon="2.847069">
        <ele>150</ele>
        <time>1970-01-01T03:43:10.000Z</time>
      </trkpt>
      <trkpt lat="42.224292" lon="2.846995">
        <ele>150</ele>
        <time>1970-01-01T03:43:12.000Z</time>
      </trkpt>
      <trkpt lat="42.224287" lon="2.84692">
        <ele>150</ele>
        <time>1970-01-01T03:43:13.000Z</time>
      </trkpt>
      <trkpt lat="42.224282" lon="2.846846">
        <ele>150</ele>
        <time>1970-01-01T03:43:14.000Z</time>
      </trkpt>
      <trkpt lat="42.224277" lon="2.846772">
        <ele>150</ele>
        <time>1970-01-01T03:43:15.000Z</time>
      </trkpt>
      <trkpt lat="42.224272" lon="2.846698">
        <ele>150</ele>
        <time>1970-01-01T03:43:16.000Z</time>
      </trkpt>
      <trkpt lat="42.224267" lon="2.846624">
        <ele>151</ele>
        <time>1970-01-01T03:43:17.000Z</time>
      </trkpt>
      <trkpt lat="42.224258" lon="2.846489">
        <ele>151</ele>
        <time>1970-01-01T03:43:18.000Z</time>
      </trkpt>
      <trkpt lat="42.224253" lon="2.846425">
        <ele>151</ele>
        <time>1970-01-01T03:43:19.000Z</time>
      </trkpt>
      <trkpt lat="42.224249" lon="2.846361">
        <ele>151</ele>
        <time>1970-01-01T03:43:20.000Z</time>
      </trkpt>
      <trkpt lat="42.224244" lon="2.846297">
        <ele>151</ele>
        <time>1970-01-01T03:43:21.000Z</time>
      </trkpt>
      <trkpt lat="42.22424" lon="2.846232">
        <ele>151</ele>
        <time>1970-01-01T03:43:22.000Z</time>
      </trkpt>
      <trkpt lat="42.224235" lon="2.846168">
        <ele>151</ele>
        <time>1970-01-01T03:43:23.000Z</time>
      </trkpt>
      <trkpt lat="42.224231" lon="2.846104">
        <ele>151</ele>
        <time>1970-01-01T03:43:24.000Z</time>
      </trkpt>
      <trkpt lat="42.224226" lon="2.84604">
        <ele>151</ele>
        <time>1970-01-01T03:43:25.000Z</time>
      </trkpt>
      <trkpt lat="42.224222" lon="2.845976">
        <ele>151</ele>
        <time>1970-01-01T03:43:26.000Z</time>
      </trkpt>
      <trkpt lat="42.224217" lon="2.845912">
        <ele>152</ele>
        <time>1970-01-01T03:43:27.000Z</time>
      </trkpt>
      <trkpt lat="42.224205" lon="2.845737">
        <ele>152</ele>
        <time>1970-01-01T03:43:28.000Z</time>
      </trkpt>
      <trkpt lat="42.224198" lon="2.845637">
        <ele>152</ele>
        <time>1970-01-01T03:43:30.000Z</time>
      </trkpt>
      <trkpt lat="42.224192" lon="2.845538">
        <ele>152</ele>
        <time>1970-01-01T03:43:31.000Z</time>
      </trkpt>
      <trkpt lat="42.224185" lon="2.845438">
        <ele>152</ele>
        <time>1970-01-01T03:43:32.000Z</time>
      </trkpt>
      <trkpt lat="42.224179" lon="2.845338">
        <ele>152</ele>
        <time>1970-01-01T03:43:33.000Z</time>
      </trkpt>
      <trkpt lat="42.224172" lon="2.845238">
        <ele>152</ele>
        <time>1970-01-01T03:43:34.000Z</time>
      </trkpt>
      <trkpt lat="42.224166" lon="2.845139">
        <ele>152</ele>
        <time>1970-01-01T03:43:35.000Z</time>
      </trkpt>
      <trkpt lat="42.224159" lon="2.845039">
        <ele>152</ele>
        <time>1970-01-01T03:43:36.000Z</time>
      </trkpt>
      <trkpt lat="42.224153" lon="2.844939">
        <ele>153</ele>
        <time>1970-01-01T03:43:38.000Z</time>
      </trkpt>
      <trkpt lat="42.22414" lon="2.84475">
        <ele>153</ele>
        <time>1970-01-01T03:43:39.000Z</time>
      </trkpt>
      <trkpt lat="42.224134" lon="2.844658">
        <ele>153</ele>
        <time>1970-01-01T03:43:40.000Z</time>
      </trkpt>
      <trkpt lat="42.224128" lon="2.844567">
        <ele>153</ele>
        <time>1970-01-01T03:43:41.000Z</time>
      </trkpt>
      <trkpt lat="42.224122" lon="2.844475">
        <ele>153</ele>
        <time>1970-01-01T03:43:42.000Z</time>
      </trkpt>
      <trkpt lat="42.224115" lon="2.844384">
        <ele>153</ele>
        <time>1970-01-01T03:43:43.000Z</time>
      </trkpt>
      <trkpt lat="42.224109" lon="2.844292">
        <ele>153</ele>
        <time>1970-01-01T03:43:44.000Z</time>
      </trkpt>
      <trkpt lat="42.224103" lon="2.844201">
        <ele>153</ele>
        <time>1970-01-01T03:43:45.000Z</time>
      </trkpt>
      <trkpt lat="42.224097" lon="2.844109">
        <ele>153</ele>
        <time>1970-01-01T03:43:46.000Z</time>
      </trkpt>
      <trkpt lat="42.224091" lon="2.844018">
        <ele>151</ele>
        <time>1970-01-01T03:43:47.000Z</time>
      </trkpt>
      <trkpt lat="42.224076" lon="2.843809">
        <ele>151</ele>
        <time>1970-01-01T03:43:48.000Z</time>
      </trkpt>
      <trkpt lat="42.224069" lon="2.843707">
        <ele>151</ele>
        <time>1970-01-01T03:43:49.000Z</time>
      </trkpt>
      <trkpt lat="42.224062" lon="2.843605">
        <ele>151</ele>
        <time>1970-01-01T03:43:50.000Z</time>
      </trkpt>
      <trkpt lat="42.224055" lon="2.843503">
        <ele>151</ele>
        <time>1970-01-01T03:43:51.000Z</time>
      </trkpt>
      <trkpt lat="42.224049" lon="2.8434">
        <ele>151</ele>
        <time>1970-01-01T03:43:52.000Z</time>
      </trkpt>
      <trkpt lat="42.224042" lon="2.843298">
        <ele>151</ele>
        <time>1970-01-01T03:43:53.000Z</time>
      </trkpt>
      <trkpt lat="42.224035" lon="2.843196">
        <ele>151</ele>
        <time>1970-01-01T03:43:54.000Z</time>
      </trkpt>
      <trkpt lat="42.224028" lon="2.843094">
        <ele>151</ele>
        <time>1970-01-01T03:43:55.000Z</time>
      </trkpt>
      <trkpt lat="42.224021" lon="2.842992">
        <ele>151</ele>
        <time>1970-01-01T03:43:56.000Z</time>
      </trkpt>
      <trkpt lat="42.224014" lon="2.84289">
        <ele>149</ele>
        <time>1970-01-01T03:43:57.000Z</time>
      </trkpt>
      <trkpt lat="42.223998" lon="2.842657">
        <ele>149</ele>
        <time>1970-01-01T03:43:58.000Z</time>
      </trkpt>
      <trkpt lat="42.223989" lon="2.842539">
        <ele>149</ele>
        <time>1970-01-01T03:43:59.000Z</time>
      </trkpt>
      <trkpt lat="42.223981" lon="2.842422">
        <ele>149</ele>
        <time>1970-01-01T03:44:00.000Z</time>
      </trkpt>
      <trkpt lat="42.223972" lon="2.842304">
        <ele>149</ele>
        <time>1970-01-01T03:44:01.000Z</time>
      </trkpt>
      <trkpt lat="42.223964" lon="2.842187">
        <ele>149</ele>
        <time>1970-01-01T03:44:03.000Z</time>
      </trkpt>
      <trkpt lat="42.223955" lon="2.842069">
        <ele>149</ele>
        <time>1970-01-01T03:44:04.000Z</time>
      </trkpt>
      <trkpt lat="42.223947" lon="2.841952">
        <ele>149</ele>
        <time>1970-01-01T03:44:05.000Z</time>
      </trkpt>
      <trkpt lat="42.223938" lon="2.841834">
        <ele>149</ele>
        <time>1970-01-01T03:44:06.000Z</time>
      </trkpt>
      <trkpt lat="42.22393" lon="2.841717">
        <ele>146</ele>
        <time>1970-01-01T03:44:07.000Z</time>
      </trkpt>
      <trkpt lat="42.223904" lon="2.841383">
        <ele>146</ele>
        <time>1970-01-01T03:44:09.000Z</time>
      </trkpt>
      <trkpt lat="42.223897" lon="2.841277">
        <ele>146</ele>
        <time>1970-01-01T03:44:10.000Z</time>
      </trkpt>
      <trkpt lat="42.223889" lon="2.84117">
        <ele>146</ele>
        <time>1970-01-01T03:44:11.000Z</time>
      </trkpt>
      <trkpt lat="42.223882" lon="2.841063">
        <ele>146</ele>
        <time>1970-01-01T03:44:12.000Z</time>
      </trkpt>
      <trkpt lat="42.223874" lon="2.840957">
        <ele>146</ele>
        <time>1970-01-01T03:44:13.000Z</time>
      </trkpt>
      <trkpt lat="42.223866" lon="2.84085">
        <ele>146</ele>
        <time>1970-01-01T03:44:15.000Z</time>
      </trkpt>
      <trkpt lat="42.223859" lon="2.840744">
        <ele>146</ele>
        <time>1970-01-01T03:44:16.000Z</time>
      </trkpt>
      <trkpt lat="42.223851" lon="2.840637">
        <ele>145</ele>
        <time>1970-01-01T03:44:17.000Z</time>
      </trkpt>
      <trkpt lat="42.223835" lon="2.840431">
        <ele>145</ele>
        <time>1970-01-01T03:44:18.000Z</time>
      </trkpt>
      <trkpt lat="42.223828" lon="2.840331">
        <ele>145</ele>
        <time>1970-01-01T03:44:19.000Z</time>
      </trkpt>
      <trkpt lat="42.22382" lon="2.84023">
        <ele>145</ele>
        <time>1970-01-01T03:44:20.000Z</time>
      </trkpt>
      <trkpt lat="42.223813" lon="2.840129">
        <ele>145</ele>
        <time>1970-01-01T03:44:21.000Z</time>
      </trkpt>
      <trkpt lat="42.223806" lon="2.840028">
        <ele>145</ele>
        <time>1970-01-01T03:44:22.000Z</time>
      </trkpt>
      <trkpt lat="42.223799" lon="2.839928">
        <ele>145</ele>
        <time>1970-01-01T03:44:23.000Z</time>
      </trkpt>
      <trkpt lat="42.223792" lon="2.839827">
        <ele>145</ele>
        <time>1970-01-01T03:44:24.000Z</time>
      </trkpt>
      <trkpt lat="42.223784" lon="2.839726">
        <ele>145</ele>
        <time>1970-01-01T03:44:25.000Z</time>
      </trkpt>
      <trkpt lat="42.223777" lon="2.839626">
        <ele>145</ele>
        <time>1970-01-01T03:44:26.000Z</time>
      </trkpt>
      <trkpt lat="42.22377" lon="2.839525">
        <ele>145</ele>
        <time>1970-01-01T03:44:27.000Z</time>
      </trkpt>
      <trkpt lat="42.223753" lon="2.839293">
        <ele>145</ele>
        <time>1970-01-01T03:44:28.000Z</time>
      </trkpt>
      <trkpt lat="42.223744" lon="2.839174">
        <ele>145</ele>
        <time>1970-01-01T03:44:29.000Z</time>
      </trkpt>
      <trkpt lat="42.223736" lon="2.839055">
        <ele>145</ele>
        <time>1970-01-01T03:44:30.000Z</time>
      </trkpt>
      <trkpt lat="42.223727" lon="2.838936">
        <ele>145</ele>
        <time>1970-01-01T03:44:31.000Z</time>
      </trkpt>
      <trkpt lat="42.223718" lon="2.838817">
        <ele>145</ele>
        <time>1970-01-01T03:44:32.000Z</time>
      </trkpt>
      <trkpt lat="42.223709" lon="2.838698">
        <ele>145</ele>
        <time>1970-01-01T03:44:33.000Z</time>
      </trkpt>
      <trkpt lat="42.2237" lon="2.838579">
        <ele>145</ele>
        <time>1970-01-01T03:44:34.000Z</time>
      </trkpt>
      <trkpt lat="42.223692" lon="2.83846">
        <ele>145</ele>
        <time>1970-01-01T03:44:35.000Z</time>
      </trkpt>
      <trkpt lat="42.223683" lon="2.838341">
        <ele>145</ele>
        <time>1970-01-01T03:44:36.000Z</time>
      </trkpt>
      <trkpt lat="42.223674" lon="2.838222">
        <ele>143</ele>
        <time>1970-01-01T03:44:38.000Z</time>
      </trkpt>
      <trkpt lat="42.223657" lon="2.837977">
        <ele>143</ele>
        <time>1970-01-01T03:44:39.000Z</time>
      </trkpt>
      <trkpt lat="42.223649" lon="2.837853">
        <ele>143</ele>
        <time>1970-01-01T03:44:41.000Z</time>
      </trkpt>
      <trkpt lat="42.22364" lon="2.83773">
        <ele>143</ele>
        <time>1970-01-01T03:44:42.000Z</time>
      </trkpt>
      <trkpt lat="42.223631" lon="2.837606">
        <ele>143</ele>
        <time>1970-01-01T03:44:43.000Z</time>
      </trkpt>
      <trkpt lat="42.223622" lon="2.837483">
        <ele>143</ele>
        <time>1970-01-01T03:44:44.000Z</time>
      </trkpt>
      <trkpt lat="42.223614" lon="2.83736">
        <ele>143</ele>
        <time>1970-01-01T03:44:45.000Z</time>
      </trkpt>
      <trkpt lat="42.223605" lon="2.837236">
        <ele>143</ele>
        <time>1970-01-01T03:44:46.000Z</time>
      </trkpt>
      <trkpt lat="42.223596" lon="2.837113">
        <ele>142</ele>
        <time>1970-01-01T03:44:47.000Z</time>
      </trkpt>
      <trkpt lat="42.223571" lon="2.83676">
        <ele>142</ele>
        <time>1970-01-01T03:44:49.000Z</time>
      </trkpt>
      <trkpt lat="42.223563" lon="2.836648">
        <ele>142</ele>
        <time>1970-01-01T03:44:50.000Z</time>
      </trkpt>
      <trkpt lat="42.223554" lon="2.836536">
        <ele>142</ele>
        <time>1970-01-01T03:44:51.000Z</time>
      </trkpt>
      <trkpt lat="42.223546" lon="2.836423">
        <ele>142</ele>
        <time>1970-01-01T03:44:52.000Z</time>
      </trkpt>
      <trkpt lat="42.223537" lon="2.836311">
        <ele>142</ele>
        <time>1970-01-01T03:44:53.000Z</time>
      </trkpt>
      <trkpt lat="42.223528" lon="2.836199">
        <ele>142</ele>
        <time>1970-01-01T03:44:55.000Z</time>
      </trkpt>
      <trkpt lat="42.22352" lon="2.836087">
        <ele>142</ele>
        <time>1970-01-01T03:44:56.000Z</time>
      </trkpt>
      <trkpt lat="42.223511" lon="2.835975">
        <ele>143</ele>
        <time>1970-01-01T03:44:57.000Z</time>
      </trkpt>
      <trkpt lat="42.223495" lon="2.83576">
        <ele>143</ele>
        <time>1970-01-01T03:44:58.000Z</time>
      </trkpt>
      <trkpt lat="42.223486" lon="2.835649">
        <ele>143</ele>
        <time>1970-01-01T03:44:59.000Z</time>
      </trkpt>
      <trkpt lat="42.223478" lon="2.835539">
        <ele>143</ele>
        <time>1970-01-01T03:45:01.000Z</time>
      </trkpt>
      <trkpt lat="42.22347" lon="2.835429">
        <ele>143</ele>
        <time>1970-01-01T03:45:02.000Z</time>
      </trkpt>
      <trkpt lat="42.223461" lon="2.835318">
        <ele>143</ele>
        <time>1970-01-01T03:45:03.000Z</time>
      </trkpt>
      <trkpt lat="42.223453" lon="2.835208">
        <ele>143</ele>
        <time>1970-01-01T03:45:04.000Z</time>
      </trkpt>
      <trkpt lat="42.223445" lon="2.835098">
        <ele>143</ele>
        <time>1970-01-01T03:45:05.000Z</time>
      </trkpt>
      <trkpt lat="42.223436" lon="2.834987">
        <ele>143</ele>
        <time>1970-01-01T03:45:06.000Z</time>
      </trkpt>
      <trkpt lat="42.223428" lon="2.834877">
        <ele>144</ele>
        <time>1970-01-01T03:45:08.000Z</time>
      </trkpt>
      <trkpt lat="42.223416" lon="2.834725">
        <ele>144</ele>
        <time>1970-01-01T03:45:09.000Z</time>
      </trkpt>
      <trkpt lat="42.223411" lon="2.834662">
        <ele>144</ele>
        <time>1970-01-01T03:45:10.000Z</time>
      </trkpt>
      <trkpt lat="42.223405" lon="2.8346">
        <ele>144</ele>
        <time>1970-01-01T03:45:11.000Z</time>
      </trkpt>
      <trkpt lat="42.2234" lon="2.834537">
        <ele>144</ele>
        <time>1970-01-01T03:45:12.000Z</time>
      </trkpt>
      <trkpt lat="42.223395" lon="2.834475">
        <ele>144</ele>
        <time>1970-01-01T03:45:13.000Z</time>
      </trkpt>
      <trkpt lat="42.22339" lon="2.834412">
        <ele>144</ele>
        <time>1970-01-01T03:45:14.000Z</time>
      </trkpt>
      <trkpt lat="42.223384" lon="2.83435">
        <ele>144</ele>
        <time>1970-01-01T03:45:15.000Z</time>
      </trkpt>
      <trkpt lat="42.223379" lon="2.834287">
        <ele>144</ele>
        <time>1970-01-01T03:45:16.000Z</time>
      </trkpt>
      <trkpt lat="42.223374" lon="2.834225">
        <ele>146</ele>
        <time>1970-01-01T03:45:17.000Z</time>
      </trkpt>
      <trkpt lat="42.223356" lon="2.83405">
        <ele>146</ele>
        <time>1970-01-01T03:45:19.000Z</time>
      </trkpt>
      <trkpt lat="42.223353" lon="2.833995">
        <ele>146</ele>
        <time>1970-01-01T03:45:20.000Z</time>
      </trkpt>
      <trkpt lat="42.223349" lon="2.833941">
        <ele>146</ele>
        <time>1970-01-01T03:45:21.000Z</time>
      </trkpt>
      <trkpt lat="42.223346" lon="2.833887">
        <ele>146</ele>
        <time>1970-01-01T03:45:22.000Z</time>
      </trkpt>
      <trkpt lat="42.223342" lon="2.833832">
        <ele>146</ele>
        <time>1970-01-01T03:45:23.000Z</time>
      </trkpt>
      <trkpt lat="42.223339" lon="2.833778">
        <ele>146</ele>
        <time>1970-01-01T03:45:24.000Z</time>
      </trkpt>
      <trkpt lat="42.223335" lon="2.833724">
        <ele>146</ele>
        <time>1970-01-01T03:45:25.000Z</time>
      </trkpt>
      <trkpt lat="42.223332" lon="2.833669">
        <ele>146</ele>
        <time>1970-01-01T03:45:26.000Z</time>
      </trkpt>
      <trkpt lat="42.223328" lon="2.833615">
        <ele>151</ele>
        <time>1970-01-01T03:45:28.000Z</time>
      </trkpt>
      <trkpt lat="42.22332" lon="2.833505">
        <ele>151</ele>
        <time>1970-01-01T03:45:29.000Z</time>
      </trkpt>
      <trkpt lat="42.223317" lon="2.833449">
        <ele>151</ele>
        <time>1970-01-01T03:45:30.000Z</time>
      </trkpt>
      <trkpt lat="42.223314" lon="2.833394">
        <ele>151</ele>
        <time>1970-01-01T03:45:31.000Z</time>
      </trkpt>
      <trkpt lat="42.223311" lon="2.833339">
        <ele>151</ele>
        <time>1970-01-01T03:45:32.000Z</time>
      </trkpt>
      <trkpt lat="42.223307" lon="2.833283">
        <ele>151</ele>
        <time>1970-01-01T03:45:33.000Z</time>
      </trkpt>
      <trkpt lat="42.223304" lon="2.833228">
        <ele>151</ele>
        <time>1970-01-01T03:45:34.000Z</time>
      </trkpt>
      <trkpt lat="42.223301" lon="2.833173">
        <ele>151</ele>
        <time>1970-01-01T03:45:35.000Z</time>
      </trkpt>
      <trkpt lat="42.223298" lon="2.833117">
        <ele>151</ele>
        <time>1970-01-01T03:45:36.000Z</time>
      </trkpt>
      <trkpt lat="42.223295" lon="2.833062">
        <ele>153</ele>
        <time>1970-01-01T03:45:38.000Z</time>
      </trkpt>
      <trkpt lat="42.223286" lon="2.832963">
        <ele>153</ele>
        <time>1970-01-01T03:45:39.000Z</time>
      </trkpt>
      <trkpt lat="42.223281" lon="2.832917">
        <ele>153</ele>
        <time>1970-01-01T03:45:40.000Z</time>
      </trkpt>
      <trkpt lat="42.223276" lon="2.83287">
        <ele>153</ele>
        <time>1970-01-01T03:45:41.000Z</time>
      </trkpt>
      <trkpt lat="42.223271" lon="2.832824">
        <ele>153</ele>
        <time>1970-01-01T03:45:42.000Z</time>
      </trkpt>
      <trkpt lat="42.223266" lon="2.832778">
        <ele>153</ele>
        <time>1970-01-01T03:45:43.000Z</time>
      </trkpt>
      <trkpt lat="42.223261" lon="2.832732">
        <ele>153</ele>
        <time>1970-01-01T03:45:44.000Z</time>
      </trkpt>
      <trkpt lat="42.223256" lon="2.832685">
        <ele>153</ele>
        <time>1970-01-01T03:45:45.000Z</time>
      </trkpt>
      <trkpt lat="42.223251" lon="2.832639">
        <ele>153</ele>
        <time>1970-01-01T03:45:46.000Z</time>
      </trkpt>
      <trkpt lat="42.223246" lon="2.832593">
        <ele>155</ele>
        <time>1970-01-01T03:45:47.000Z</time>
      </trkpt>
      <trkpt lat="42.223233" lon="2.832498">
        <ele>155</ele>
        <time>1970-01-01T03:45:48.000Z</time>
      </trkpt>
      <trkpt lat="42.223226" lon="2.832454">
        <ele>155</ele>
        <time>1970-01-01T03:45:49.000Z</time>
      </trkpt>
      <trkpt lat="42.22322" lon="2.83241">
        <ele>155</ele>
        <time>1970-01-01T03:45:50.000Z</time>
      </trkpt>
      <trkpt lat="42.223213" lon="2.832366">
        <ele>155</ele>
        <time>1970-01-01T03:45:51.000Z</time>
      </trkpt>
      <trkpt lat="42.223207" lon="2.832321">
        <ele>155</ele>
        <time>1970-01-01T03:45:52.000Z</time>
      </trkpt>
      <trkpt lat="42.2232" lon="2.832277">
        <ele>155</ele>
        <time>1970-01-01T03:45:53.000Z</time>
      </trkpt>
      <trkpt lat="42.223194" lon="2.832233">
        <ele>155</ele>
        <time>1970-01-01T03:45:54.000Z</time>
      </trkpt>
      <trkpt lat="42.223187" lon="2.832189">
        <ele>155</ele>
        <time>1970-01-01T03:45:55.000Z</time>
      </trkpt>
      <trkpt lat="42.223181" lon="2.832145">
        <ele>155</ele>
        <time>1970-01-01T03:45:56.000Z</time>
      </trkpt>
      <trkpt lat="42.223174" lon="2.832101">
        <ele>156</ele>
        <time>1970-01-01T03:45:57.000Z</time>
      </trkpt>
      <trkpt lat="42.223158" lon="2.832011">
        <ele>156</ele>
        <time>1970-01-01T03:45:58.000Z</time>
      </trkpt>
      <trkpt lat="42.223149" lon="2.831968">
        <ele>156</ele>
        <time>1970-01-01T03:45:59.000Z</time>
      </trkpt>
      <trkpt lat="42.223141" lon="2.831925">
        <ele>156</ele>
        <time>1970-01-01T03:46:00.000Z</time>
      </trkpt>
      <trkpt lat="42.223132" lon="2.831882">
        <ele>156</ele>
        <time>1970-01-01T03:46:01.000Z</time>
      </trkpt>
      <trkpt lat="42.223124" lon="2.831838">
        <ele>156</ele>
        <time>1970-01-01T03:46:02.000Z</time>
      </trkpt>
      <trkpt lat="42.223116" lon="2.831795">
        <ele>156</ele>
        <time>1970-01-01T03:46:03.000Z</time>
      </trkpt>
      <trkpt lat="42.223107" lon="2.831752">
        <ele>156</ele>
        <time>1970-01-01T03:46:04.000Z</time>
      </trkpt>
      <trkpt lat="42.223099" lon="2.831709">
        <ele>156</ele>
        <time>1970-01-01T03:46:05.000Z</time>
      </trkpt>
      <trkpt lat="42.22309" lon="2.831666">
        <ele>156</ele>
        <time>1970-01-01T03:46:06.000Z</time>
      </trkpt>
      <trkpt lat="42.223082" lon="2.831623">
        <ele>157</ele>
        <time>1970-01-01T03:46:07.000Z</time>
      </trkpt>
      <trkpt lat="42.223063" lon="2.831529">
        <ele>157</ele>
        <time>1970-01-01T03:46:08.000Z</time>
      </trkpt>
      <trkpt lat="42.223054" lon="2.831484">
        <ele>157</ele>
        <time>1970-01-01T03:46:09.000Z</time>
      </trkpt>
      <trkpt lat="42.223044" lon="2.831438">
        <ele>157</ele>
        <time>1970-01-01T03:46:10.000Z</time>
      </trkpt>
      <trkpt lat="42.223035" lon="2.831392">
        <ele>157</ele>
        <time>1970-01-01T03:46:11.000Z</time>
      </trkpt>
      <trkpt lat="42.223025" lon="2.831346">
        <ele>157</ele>
        <time>1970-01-01T03:46:12.000Z</time>
      </trkpt>
      <trkpt lat="42.223015" lon="2.831301">
        <ele>157</ele>
        <time>1970-01-01T03:46:13.000Z</time>
      </trkpt>
      <trkpt lat="42.223006" lon="2.831255">
        <ele>157</ele>
        <time>1970-01-01T03:46:14.000Z</time>
      </trkpt>
      <trkpt lat="42.222996" lon="2.831209">
        <ele>157</ele>
        <time>1970-01-01T03:46:15.000Z</time>
      </trkpt>
      <trkpt lat="42.222987" lon="2.831164">
        <ele>157</ele>
        <time>1970-01-01T03:46:16.000Z</time>
      </trkpt>
      <trkpt lat="42.222977" lon="2.831118">
        <ele>159</ele>
        <time>1970-01-01T03:46:17.000Z</time>
      </trkpt>
      <trkpt lat="42.222954" lon="2.831024">
        <ele>159</ele>
        <time>1970-01-01T03:46:18.000Z</time>
      </trkpt>
      <trkpt lat="42.222944" lon="2.83098">
        <ele>159</ele>
        <time>1970-01-01T03:46:19.000Z</time>
      </trkpt>
      <trkpt lat="42.222933" lon="2.830936">
        <ele>159</ele>
        <time>1970-01-01T03:46:20.000Z</time>
      </trkpt>
      <trkpt lat="42.222922" lon="2.830892">
        <ele>159</ele>
        <time>1970-01-01T03:46:21.000Z</time>
      </trkpt>
      <trkpt lat="42.222912" lon="2.830848">
        <ele>159</ele>
        <time>1970-01-01T03:46:22.000Z</time>
      </trkpt>
      <trkpt lat="42.222901" lon="2.830805">
        <ele>159</ele>
        <time>1970-01-01T03:46:23.000Z</time>
      </trkpt>
      <trkpt lat="42.22289" lon="2.830761">
        <ele>159</ele>
        <time>1970-01-01T03:46:24.000Z</time>
      </trkpt>
      <trkpt lat="42.222879" lon="2.830717">
        <ele>159</ele>
        <time>1970-01-01T03:46:25.000Z</time>
      </trkpt>
      <trkpt lat="42.222869" lon="2.830673">
        <ele>159</ele>
        <time>1970-01-01T03:46:26.000Z</time>
      </trkpt>
      <trkpt lat="42.222858" lon="2.830629">
        <ele>160</ele>
        <time>1970-01-01T03:46:27.000Z</time>
      </trkpt>
      <trkpt lat="42.222838" lon="2.830541">
        <ele>160</ele>
        <time>1970-01-01T03:46:28.000Z</time>
      </trkpt>
      <trkpt lat="42.222828" lon="2.8305">
        <ele>160</ele>
        <time>1970-01-01T03:46:29.000Z</time>
      </trkpt>
      <trkpt lat="42.222819" lon="2.830458">
        <ele>160</ele>
        <time>1970-01-01T03:46:30.000Z</time>
      </trkpt>
      <trkpt lat="42.222809" lon="2.830417">
        <ele>160</ele>
        <time>1970-01-01T03:46:31.000Z</time>
      </trkpt>
      <trkpt lat="42.2228" lon="2.830375">
        <ele>160</ele>
        <time>1970-01-01T03:46:32.000Z</time>
      </trkpt>
      <trkpt lat="42.22279" lon="2.830333">
        <ele>160</ele>
        <time>1970-01-01T03:46:33.000Z</time>
      </trkpt>
      <trkpt lat="42.222781" lon="2.830292">
        <ele>160</ele>
        <time>1970-01-01T03:46:34.000Z</time>
      </trkpt>
      <trkpt lat="42.222771" lon="2.83025">
        <ele>160</ele>
        <time>1970-01-01T03:46:35.000Z</time>
      </trkpt>
      <trkpt lat="42.222762" lon="2.830209">
        <ele>160</ele>
        <time>1970-01-01T03:46:36.000Z</time>
      </trkpt>
      <trkpt lat="42.222752" lon="2.830167">
        <ele>161</ele>
        <time>1970-01-01T03:46:37.000Z</time>
      </trkpt>
      <trkpt lat="42.22273" lon="2.830073">
        <ele>161</ele>
        <time>1970-01-01T03:46:38.000Z</time>
      </trkpt>
      <trkpt lat="42.222718" lon="2.830024">
        <ele>161</ele>
        <time>1970-01-01T03:46:39.000Z</time>
      </trkpt>
      <trkpt lat="42.222707" lon="2.829975">
        <ele>161</ele>
        <time>1970-01-01T03:46:40.000Z</time>
      </trkpt>
      <trkpt lat="42.222696" lon="2.829926">
        <ele>161</ele>
        <time>1970-01-01T03:46:41.000Z</time>
      </trkpt>
      <trkpt lat="42.222684" lon="2.829878">
        <ele>161</ele>
        <time>1970-01-01T03:46:43.000Z</time>
      </trkpt>
      <trkpt lat="42.222673" lon="2.829829">
        <ele>161</ele>
        <time>1970-01-01T03:46:44.000Z</time>
      </trkpt>
      <trkpt lat="42.222661" lon="2.82978">
        <ele>161</ele>
        <time>1970-01-01T03:46:45.000Z</time>
      </trkpt>
      <trkpt lat="42.22265" lon="2.829731">
        <ele>163</ele>
        <time>1970-01-01T03:46:47.000Z</time>
      </trkpt>
      <trkpt lat="42.222628" lon="2.829646">
        <ele>163</ele>
        <time>1970-01-01T03:46:48.000Z</time>
      </trkpt>
      <trkpt lat="42.222618" lon="2.829604">
        <ele>163</ele>
        <time>1970-01-01T03:46:49.000Z</time>
      </trkpt>
      <trkpt lat="42.222608" lon="2.829561">
        <ele>163</ele>
        <time>1970-01-01T03:46:50.000Z</time>
      </trkpt>
      <trkpt lat="42.222598" lon="2.829519">
        <ele>163</ele>
        <time>1970-01-01T03:46:51.000Z</time>
      </trkpt>
      <trkpt lat="42.222587" lon="2.829477">
        <ele>163</ele>
        <time>1970-01-01T03:46:52.000Z</time>
      </trkpt>
      <trkpt lat="42.222577" lon="2.829435">
        <ele>163</ele>
        <time>1970-01-01T03:46:54.000Z</time>
      </trkpt>
      <trkpt lat="42.222567" lon="2.829392">
        <ele>163</ele>
        <time>1970-01-01T03:46:55.000Z</time>
      </trkpt>
      <trkpt lat="42.222557" lon="2.82935">
        <ele>163</ele>
        <time>1970-01-01T03:46:56.000Z</time>
      </trkpt>
      <trkpt lat="42.222547" lon="2.829308">
        <ele>165</ele>
        <time>1970-01-01T03:46:57.000Z</time>
      </trkpt>
      <trkpt lat="42.222529" lon="2.829225">
        <ele>165</ele>
        <time>1970-01-01T03:46:58.000Z</time>
      </trkpt>
      <trkpt lat="42.22252" lon="2.829186">
        <ele>165</ele>
        <time>1970-01-01T03:46:59.000Z</time>
      </trkpt>
      <trkpt lat="42.22251" lon="2.829147">
        <ele>165</ele>
        <time>1970-01-01T03:47:00.000Z</time>
      </trkpt>
      <trkpt lat="42.222501" lon="2.829108">
        <ele>165</ele>
        <time>1970-01-01T03:47:01.000Z</time>
      </trkpt>
      <trkpt lat="42.222492" lon="2.829069">
        <ele>165</ele>
        <time>1970-01-01T03:47:02.000Z</time>
      </trkpt>
      <trkpt lat="42.222483" lon="2.829031">
        <ele>165</ele>
        <time>1970-01-01T03:47:03.000Z</time>
      </trkpt>
      <trkpt lat="42.222474" lon="2.828992">
        <ele>165</ele>
        <time>1970-01-01T03:47:04.000Z</time>
      </trkpt>
      <trkpt lat="42.222464" lon="2.828953">
        <ele>165</ele>
        <time>1970-01-01T03:47:05.000Z</time>
      </trkpt>
      <trkpt lat="42.222455" lon="2.828914">
        <ele>165</ele>
        <time>1970-01-01T03:47:06.000Z</time>
      </trkpt>
      <trkpt lat="42.222446" lon="2.828875">
        <ele>167</ele>
        <time>1970-01-01T03:47:07.000Z</time>
      </trkpt>
      <trkpt lat="42.222428" lon="2.828796">
        <ele>167</ele>
        <time>1970-01-01T03:47:08.000Z</time>
      </trkpt>
      <trkpt lat="42.22242" lon="2.828759">
        <ele>167</ele>
        <time>1970-01-01T03:47:09.000Z</time>
      </trkpt>
      <trkpt lat="42.222412" lon="2.828722">
        <ele>167</ele>
        <time>1970-01-01T03:47:10.000Z</time>
      </trkpt>
      <trkpt lat="42.222404" lon="2.828685">
        <ele>167</ele>
        <time>1970-01-01T03:47:11.000Z</time>
      </trkpt>
      <trkpt lat="42.222396" lon="2.828648">
        <ele>167</ele>
        <time>1970-01-01T03:47:12.000Z</time>
      </trkpt>
      <trkpt lat="42.222388" lon="2.828612">
        <ele>167</ele>
        <time>1970-01-01T03:47:13.000Z</time>
      </trkpt>
      <trkpt lat="42.22238" lon="2.828575">
        <ele>167</ele>
        <time>1970-01-01T03:47:14.000Z</time>
      </trkpt>
      <trkpt lat="42.222372" lon="2.828538">
        <ele>167</ele>
        <time>1970-01-01T03:47:15.000Z</time>
      </trkpt>
      <trkpt lat="42.222364" lon="2.828501">
        <ele>167</ele>
        <time>1970-01-01T03:47:16.000Z</time>
      </trkpt>
      <trkpt lat="42.222356" lon="2.828464">
        <ele>169</ele>
        <time>1970-01-01T03:47:17.000Z</time>
      </trkpt>
      <trkpt lat="42.222338" lon="2.828385">
        <ele>169</ele>
        <time>1970-01-01T03:47:18.000Z</time>
      </trkpt>
      <trkpt lat="42.222328" lon="2.828346">
        <ele>169</ele>
        <time>1970-01-01T03:47:19.000Z</time>
      </trkpt>
      <trkpt lat="42.222319" lon="2.828306">
        <ele>169</ele>
        <time>1970-01-01T03:47:20.000Z</time>
      </trkpt>
      <trkpt lat="42.22231" lon="2.828267">
        <ele>169</ele>
        <time>1970-01-01T03:47:21.000Z</time>
      </trkpt>
      <trkpt lat="42.222301" lon="2.828228">
        <ele>169</ele>
        <time>1970-01-01T03:47:22.000Z</time>
      </trkpt>
      <trkpt lat="42.222291" lon="2.828189">
        <ele>169</ele>
        <time>1970-01-01T03:47:23.000Z</time>
      </trkpt>
      <trkpt lat="42.222282" lon="2.82815">
        <ele>169</ele>
        <time>1970-01-01T03:47:24.000Z</time>
      </trkpt>
      <trkpt lat="42.222273" lon="2.82811">
        <ele>169</ele>
        <time>1970-01-01T03:47:25.000Z</time>
      </trkpt>
      <trkpt lat="42.222263" lon="2.828071">
        <ele>169</ele>
        <time>1970-01-01T03:47:26.000Z</time>
      </trkpt>
      <trkpt lat="42.222254" lon="2.828032">
        <ele>172</ele>
        <time>1970-01-01T03:47:27.000Z</time>
      </trkpt>
      <trkpt lat="42.222232" lon="2.827944">
        <ele>172</ele>
        <time>1970-01-01T03:47:28.000Z</time>
      </trkpt>
      <trkpt lat="42.222222" lon="2.827901">
        <ele>172</ele>
        <time>1970-01-01T03:47:29.000Z</time>
      </trkpt>
      <trkpt lat="42.222213" lon="2.827857">
        <ele>172</ele>
        <time>1970-01-01T03:47:30.000Z</time>
      </trkpt>
      <trkpt lat="42.222203" lon="2.827813">
        <ele>172</ele>
        <time>1970-01-01T03:47:32.000Z</time>
      </trkpt>
      <trkpt lat="42.222193" lon="2.82777">
        <ele>172</ele>
        <time>1970-01-01T03:47:33.000Z</time>
      </trkpt>
      <trkpt lat="42.222183" lon="2.827726">
        <ele>172</ele>
        <time>1970-01-01T03:47:34.000Z</time>
      </trkpt>
      <trkpt lat="42.222174" lon="2.827682">
        <ele>172</ele>
        <time>1970-01-01T03:47:35.000Z</time>
      </trkpt>
      <trkpt lat="42.222164" lon="2.827639">
        <ele>172</ele>
        <time>1970-01-01T03:47:36.000Z</time>
      </trkpt>
      <trkpt lat="42.222154" lon="2.827595">
        <ele>172</ele>
        <time>1970-01-01T03:47:37.000Z</time>
      </trkpt>
      <trkpt lat="42.222136" lon="2.827514">
        <ele>172</ele>
        <time>1970-01-01T03:47:38.000Z</time>
      </trkpt>
      <trkpt lat="42.222127" lon="2.827475">
        <ele>172</ele>
        <time>1970-01-01T03:47:39.000Z</time>
      </trkpt>
      <trkpt lat="42.222118" lon="2.827436">
        <ele>172</ele>
        <time>1970-01-01T03:47:40.000Z</time>
      </trkpt>
      <trkpt lat="42.222109" lon="2.827397">
        <ele>172</ele>
        <time>1970-01-01T03:47:41.000Z</time>
      </trkpt>
      <trkpt lat="42.2221" lon="2.827358">
        <ele>172</ele>
        <time>1970-01-01T03:47:42.000Z</time>
      </trkpt>
      <trkpt lat="42.22209" lon="2.82732">
        <ele>172</ele>
        <time>1970-01-01T03:47:43.000Z</time>
      </trkpt>
      <trkpt lat="42.222081" lon="2.827281">
        <ele>172</ele>
        <time>1970-01-01T03:47:44.000Z</time>
      </trkpt>
      <trkpt lat="42.222072" lon="2.827242">
        <ele>172</ele>
        <time>1970-01-01T03:47:45.000Z</time>
      </trkpt>
      <trkpt lat="42.222063" lon="2.827203">
        <ele>172</ele>
        <time>1970-01-01T03:47:46.000Z</time>
      </trkpt>
      <trkpt lat="42.222054" lon="2.827164">
        <ele>173</ele>
        <time>1970-01-01T03:47:47.000Z</time>
      </trkpt>
      <trkpt lat="42.222036" lon="2.827085">
        <ele>173</ele>
        <time>1970-01-01T03:47:48.000Z</time>
      </trkpt>
      <trkpt lat="42.222028" lon="2.827048">
        <ele>173</ele>
        <time>1970-01-01T03:47:49.000Z</time>
      </trkpt>
      <trkpt lat="42.22202" lon="2.827011">
        <ele>173</ele>
        <time>1970-01-01T03:47:50.000Z</time>
      </trkpt>
      <trkpt lat="42.222012" lon="2.826974">
        <ele>173</ele>
        <time>1970-01-01T03:47:51.000Z</time>
      </trkpt>
      <trkpt lat="42.222004" lon="2.826936">
        <ele>173</ele>
        <time>1970-01-01T03:47:52.000Z</time>
      </trkpt>
      <trkpt lat="42.221995" lon="2.826899">
        <ele>173</ele>
        <time>1970-01-01T03:47:53.000Z</time>
      </trkpt>
      <trkpt lat="42.221987" lon="2.826862">
        <ele>173</ele>
        <time>1970-01-01T03:47:54.000Z</time>
      </trkpt>
      <trkpt lat="42.221979" lon="2.826825">
        <ele>173</ele>
        <time>1970-01-01T03:47:55.000Z</time>
      </trkpt>
      <trkpt lat="42.221971" lon="2.826788">
        <ele>173</ele>
        <time>1970-01-01T03:47:56.000Z</time>
      </trkpt>
      <trkpt lat="42.221963" lon="2.826751">
        <ele>177</ele>
        <time>1970-01-01T03:47:57.000Z</time>
      </trkpt>
      <trkpt lat="42.221943" lon="2.826665">
        <ele>177</ele>
        <time>1970-01-01T03:47:58.000Z</time>
      </trkpt>
      <trkpt lat="42.221933" lon="2.826622">
        <ele>177</ele>
        <time>1970-01-01T03:48:00.000Z</time>
      </trkpt>
      <trkpt lat="42.221922" lon="2.826579">
        <ele>177</ele>
        <time>1970-01-01T03:48:01.000Z</time>
      </trkpt>
      <trkpt lat="42.221912" lon="2.826536">
        <ele>177</ele>
        <time>1970-01-01T03:48:02.000Z</time>
      </trkpt>
      <trkpt lat="42.221901" lon="2.826492">
        <ele>177</ele>
        <time>1970-01-01T03:48:03.000Z</time>
      </trkpt>
      <trkpt lat="42.221891" lon="2.826449">
        <ele>177</ele>
        <time>1970-01-01T03:48:04.000Z</time>
      </trkpt>
      <trkpt lat="42.22188" lon="2.826406">
        <ele>177</ele>
        <time>1970-01-01T03:48:05.000Z</time>
      </trkpt>
      <trkpt lat="42.22187" lon="2.826363">
        <ele>177</ele>
        <time>1970-01-01T03:48:06.000Z</time>
      </trkpt>
      <trkpt lat="42.221859" lon="2.82632">
        <ele>178</ele>
        <time>1970-01-01T03:48:07.000Z</time>
      </trkpt>
      <trkpt lat="42.221826" lon="2.826187">
        <ele>178</ele>
        <time>1970-01-01T03:48:09.000Z</time>
      </trkpt>
      <trkpt lat="42.221815" lon="2.82614">
        <ele>178</ele>
        <time>1970-01-01T03:48:10.000Z</time>
      </trkpt>
      <trkpt lat="42.221804" lon="2.826093">
        <ele>178</ele>
        <time>1970-01-01T03:48:11.000Z</time>
      </trkpt>
      <trkpt lat="42.221793" lon="2.826046">
        <ele>178</ele>
        <time>1970-01-01T03:48:12.000Z</time>
      </trkpt>
      <trkpt lat="42.221781" lon="2.826">
        <ele>178</ele>
        <time>1970-01-01T03:48:13.000Z</time>
      </trkpt>
      <trkpt lat="42.22177" lon="2.825953">
        <ele>178</ele>
        <time>1970-01-01T03:48:14.000Z</time>
      </trkpt>
      <trkpt lat="42.221759" lon="2.825906">
        <ele>178</ele>
        <time>1970-01-01T03:48:15.000Z</time>
      </trkpt>
      <trkpt lat="42.221748" lon="2.825859">
        <ele>179</ele>
        <time>1970-01-01T03:48:17.000Z</time>
      </trkpt>
      <trkpt lat="42.221725" lon="2.825765">
        <ele>179</ele>
        <time>1970-01-01T03:48:18.000Z</time>
      </trkpt>
      <trkpt lat="42.221714" lon="2.825719">
        <ele>179</ele>
        <time>1970-01-01T03:48:19.000Z</time>
      </trkpt>
      <trkpt lat="42.221704" lon="2.825674">
        <ele>179</ele>
        <time>1970-01-01T03:48:20.000Z</time>
      </trkpt>
      <trkpt lat="42.221693" lon="2.825628">
        <ele>179</ele>
        <time>1970-01-01T03:48:21.000Z</time>
      </trkpt>
      <trkpt lat="42.221683" lon="2.825583">
        <ele>179</ele>
        <time>1970-01-01T03:48:22.000Z</time>
      </trkpt>
      <trkpt lat="42.221672" lon="2.825538">
        <ele>179</ele>
        <time>1970-01-01T03:48:23.000Z</time>
      </trkpt>
      <trkpt lat="42.221662" lon="2.825492">
        <ele>179</ele>
        <time>1970-01-01T03:48:24.000Z</time>
      </trkpt>
      <trkpt lat="42.221651" lon="2.825447">
        <ele>179</ele>
        <time>1970-01-01T03:48:25.000Z</time>
      </trkpt>
      <trkpt lat="42.221641" lon="2.825401">
        <ele>179</ele>
        <time>1970-01-01T03:48:26.000Z</time>
      </trkpt>
      <trkpt lat="42.22163" lon="2.825356">
        <ele>180</ele>
        <time>1970-01-01T03:48:27.000Z</time>
      </trkpt>
      <trkpt lat="42.221604" lon="2.825241">
        <ele>180</ele>
        <time>1970-01-01T03:48:28.000Z</time>
      </trkpt>
      <trkpt lat="42.221591" lon="2.82518">
        <ele>180</ele>
        <time>1970-01-01T03:48:30.000Z</time>
      </trkpt>
      <trkpt lat="42.221577" lon="2.82512">
        <ele>180</ele>
        <time>1970-01-01T03:48:31.000Z</time>
      </trkpt>
      <trkpt lat="42.221564" lon="2.825059">
        <ele>180</ele>
        <time>1970-01-01T03:48:32.000Z</time>
      </trkpt>
      <trkpt lat="42.22155" lon="2.824998">
        <ele>180</ele>
        <time>1970-01-01T03:48:33.000Z</time>
      </trkpt>
      <trkpt lat="42.221537" lon="2.824937">
        <ele>180</ele>
        <time>1970-01-01T03:48:34.000Z</time>
      </trkpt>
      <trkpt lat="42.221523" lon="2.824877">
        <ele>180</ele>
        <time>1970-01-01T03:48:35.000Z</time>
      </trkpt>
      <trkpt lat="42.22151" lon="2.824816">
        <ele>180</ele>
        <time>1970-01-01T03:48:36.000Z</time>
      </trkpt>
      <trkpt lat="42.221496" lon="2.824755">
        <ele>181</ele>
        <time>1970-01-01T03:48:37.000Z</time>
      </trkpt>
      <trkpt lat="42.221469" lon="2.824633">
        <ele>181</ele>
        <time>1970-01-01T03:48:38.000Z</time>
      </trkpt>
      <trkpt lat="42.221457" lon="2.824577">
        <ele>181</ele>
        <time>1970-01-01T03:48:39.000Z</time>
      </trkpt>
      <trkpt lat="42.221446" lon="2.82452">
        <ele>181</ele>
        <time>1970-01-01T03:48:40.000Z</time>
      </trkpt>
      <trkpt lat="42.221434" lon="2.824464">
        <ele>181</ele>
        <time>1970-01-01T03:48:41.000Z</time>
      </trkpt>
      <trkpt lat="42.221422" lon="2.824407">
        <ele>181</ele>
        <time>1970-01-01T03:48:42.000Z</time>
      </trkpt>
      <trkpt lat="42.22141" lon="2.824351">
        <ele>181</ele>
        <time>1970-01-01T03:48:43.000Z</time>
      </trkpt>
      <trkpt lat="42.221398" lon="2.824294">
        <ele>181</ele>
        <time>1970-01-01T03:48:44.000Z</time>
      </trkpt>
      <trkpt lat="42.221387" lon="2.824238">
        <ele>181</ele>
        <time>1970-01-01T03:48:45.000Z</time>
      </trkpt>
      <trkpt lat="42.221375" lon="2.824181">
        <ele>181</ele>
        <time>1970-01-01T03:48:46.000Z</time>
      </trkpt>
      <trkpt lat="42.221363" lon="2.824125">
        <ele>181</ele>
        <time>1970-01-01T03:48:47.000Z</time>
      </trkpt>
      <trkpt lat="42.221346" lon="2.82404">
        <ele>181</ele>
        <time>1970-01-01T03:48:48.000Z</time>
      </trkpt>
      <trkpt lat="42.22134" lon="2.824007">
        <ele>181</ele>
        <time>1970-01-01T03:48:49.000Z</time>
      </trkpt>
      <trkpt lat="42.221334" lon="2.823973">
        <ele>181</ele>
        <time>1970-01-01T03:48:50.000Z</time>
      </trkpt>
      <trkpt lat="42.221328" lon="2.82394">
        <ele>181</ele>
        <time>1970-01-01T03:48:51.000Z</time>
      </trkpt>
      <trkpt lat="42.221322" lon="2.823907">
        <ele>181</ele>
        <time>1970-01-01T03:48:52.000Z</time>
      </trkpt>
      <trkpt lat="42.221316" lon="2.823874">
        <ele>181</ele>
        <time>1970-01-01T03:48:53.000Z</time>
      </trkpt>
      <trkpt lat="42.22131" lon="2.823841">
        <ele>181</ele>
        <time>1970-01-01T03:48:54.000Z</time>
      </trkpt>
      <trkpt lat="42.221304" lon="2.823807">
        <ele>181</ele>
        <time>1970-01-01T03:48:55.000Z</time>
      </trkpt>
      <trkpt lat="42.221298" lon="2.823774">
        <ele>181</ele>
        <time>1970-01-01T03:48:56.000Z</time>
      </trkpt>
      <trkpt lat="42.221292" lon="2.823741">
        <ele>180</ele>
        <time>1970-01-01T03:48:57.000Z</time>
      </trkpt>
      <trkpt lat="42.221268" lon="2.823715">
        <ele>180</ele>
        <time>1970-01-01T03:48:58.000Z</time>
      </trkpt>
      <trkpt lat="42.221247" lon="2.823705">
        <ele>180</ele>
        <time>1970-01-01T03:49:06.000Z</time>
      </trkpt>
      <trkpt lat="42.221225" lon="2.823696">
        <ele>180</ele>
        <time>1970-01-01T03:49:12.000Z</time>
      </trkpt>
      <trkpt lat="42.221204" lon="2.823686">
        <ele>180</ele>
        <time>1970-01-01T03:49:13.000Z</time>
      </trkpt>
      <trkpt lat="42.221183" lon="2.823676">
        <ele>180</ele>
        <time>1970-01-01T03:49:14.000Z</time>
      </trkpt>
      <trkpt lat="42.221162" lon="2.823666">
        <ele>180</ele>
        <time>1970-01-01T03:49:15.000Z</time>
      </trkpt>
      <trkpt lat="42.22114" lon="2.823657">
        <ele>180</ele>
        <time>1970-01-01T03:49:16.000Z</time>
      </trkpt>
      <trkpt lat="42.221119" lon="2.823647">
        <ele>180</ele>
        <time>1970-01-01T03:49:17.000Z</time>
      </trkpt>
      <trkpt lat="42.221098" lon="2.823637">
        <ele>180</ele>
        <time>1970-01-01T03:49:18.000Z</time>
      </trkpt>
      <trkpt lat="42.221077" lon="2.823627">
        <ele>180</ele>
        <time>1970-01-01T03:49:19.000Z</time>
      </trkpt>
      <trkpt lat="42.221055" lon="2.823618">
        <ele>180</ele>
        <time>1970-01-01T03:49:20.000Z</time>
      </trkpt>
      <trkpt lat="42.221034" lon="2.823608">
        <ele>180</ele>
        <time>1970-01-01T03:49:21.000Z</time>
      </trkpt>
      <trkpt lat="42.221021" lon="2.823596">
        <ele>180</ele>
        <time>1970-01-01T03:49:22.000Z</time>
      </trkpt>
      <trkpt lat="42.221006" lon="2.823582">
        <ele>180</ele>
        <time>1970-01-01T03:49:24.000Z</time>
      </trkpt>
      <trkpt lat="42.221001" lon="2.823562">
        <ele>180</ele>
        <time>1970-01-01T03:49:30.000Z</time>
      </trkpt>
      <trkpt lat="42.220985" lon="2.82354">
        <ele>180</ele>
        <time>1970-01-01T03:49:34.000Z</time>
      </trkpt>
      <trkpt lat="42.220984" lon="2.823537">
        <ele>180</ele>
        <time>1970-01-01T03:49:35.000Z</time>
      </trkpt>
      <trkpt lat="42.220984" lon="2.823537">
        <ele>180</ele>
        <time>1970-01-01T03:49:39.000Z</time>
      </trkpt>
      <trkpt lat="42.22101" lon="2.823466">
        <ele>180</ele>
        <time>1970-01-01T03:50:08.000Z</time>
      </trkpt>
      <trkpt lat="42.22103" lon="2.823424">
        <ele>180</ele>
        <time>1970-01-01T03:50:09.000Z</time>
      </trkpt>
      <trkpt lat="42.221059" lon="2.823405">
        <ele>180</ele>
        <time>1970-01-01T03:50:11.000Z</time>
      </trkpt>
      <trkpt lat="42.221089" lon="2.823394">
        <ele>180</ele>
        <time>1970-01-01T03:50:13.000Z</time>
      </trkpt>
      <trkpt lat="42.221111" lon="2.823384">
        <ele>180</ele>
        <time>1970-01-01T03:50:15.000Z</time>
      </trkpt>
      <trkpt lat="42.221111" lon="2.823384">
        <ele>180</ele>
        <time>1970-01-01T03:50:17.000Z</time>
      </trkpt>
      <trkpt lat="42.221111" lon="2.823331">
        <ele>180</ele>
        <time>1970-01-01T03:50:22.000Z</time>
      </trkpt>
      <trkpt lat="42.221112" lon="2.82328">
        <ele>179</ele>
        <time>1970-01-01T03:50:30.000Z</time>
      </trkpt>
      <trkpt lat="42.221114" lon="2.823228">
        <ele>179</ele>
        <time>1970-01-01T03:50:31.000Z</time>
      </trkpt>
      <trkpt lat="42.221115" lon="2.823177">
        <ele>179</ele>
        <time>1970-01-01T03:50:32.000Z</time>
      </trkpt>
      <trkpt lat="42.221116" lon="2.823125">
        <ele>179</ele>
        <time>1970-01-01T03:50:33.000Z</time>
      </trkpt>
      <trkpt lat="42.221117" lon="2.823074">
        <ele>179</ele>
        <time>1970-01-01T03:50:34.000Z</time>
      </trkpt>
      <trkpt lat="42.221118" lon="2.823022">
        <ele>179</ele>
        <time>1970-01-01T03:50:35.000Z</time>
      </trkpt>
      <trkpt lat="42.221119" lon="2.822971">
        <ele>179</ele>
        <time>1970-01-01T03:50:36.000Z</time>
      </trkpt>
      <trkpt lat="42.221121" lon="2.822919">
        <ele>179</ele>
        <time>1970-01-01T03:50:37.000Z</time>
      </trkpt>
      <trkpt lat="42.221122" lon="2.822868">
        <ele>179</ele>
        <time>1970-01-01T03:50:38.000Z</time>
      </trkpt>
      <trkpt lat="42.221123" lon="2.822816">
        <ele>179</ele>
        <time>1970-01-01T03:50:39.000Z</time>
      </trkpt>
      <trkpt lat="42.221105" lon="2.822677">
        <ele>179</ele>
        <time>1970-01-01T03:50:40.000Z</time>
      </trkpt>
      <trkpt lat="42.221096" lon="2.822603">
        <ele>179</ele>
        <time>1970-01-01T03:50:41.000Z</time>
      </trkpt>
      <trkpt lat="42.221087" lon="2.822529">
        <ele>179</ele>
        <time>1970-01-01T03:50:42.000Z</time>
      </trkpt>
      <trkpt lat="42.221078" lon="2.822455">
        <ele>179</ele>
        <time>1970-01-01T03:50:43.000Z</time>
      </trkpt>
      <trkpt lat="42.221069" lon="2.822381">
        <ele>179</ele>
        <time>1970-01-01T03:50:44.000Z</time>
      </trkpt>
      <trkpt lat="42.22106" lon="2.822307">
        <ele>179</ele>
        <time>1970-01-01T03:50:45.000Z</time>
      </trkpt>
      <trkpt lat="42.221051" lon="2.822233">
        <ele>179</ele>
        <time>1970-01-01T03:50:46.000Z</time>
      </trkpt>
      <trkpt lat="42.221042" lon="2.822159">
        <ele>179</ele>
        <time>1970-01-01T03:50:47.000Z</time>
      </trkpt>
      <trkpt lat="42.221033" lon="2.822085">
        <ele>179</ele>
        <time>1970-01-01T03:50:48.000Z</time>
      </trkpt>
      <trkpt lat="42.221024" lon="2.822011">
        <ele>179</ele>
        <time>1970-01-01T03:50:50.000Z</time>
      </trkpt>
      <trkpt lat="42.221009" lon="2.821853">
        <ele>179</ele>
        <time>1970-01-01T03:50:51.000Z</time>
      </trkpt>
      <trkpt lat="42.221" lon="2.821775">
        <ele>179</ele>
        <time>1970-01-01T03:50:52.000Z</time>
      </trkpt>
      <trkpt lat="42.220992" lon="2.821698">
        <ele>179</ele>
        <time>1970-01-01T03:50:53.000Z</time>
      </trkpt>
      <trkpt lat="42.220984" lon="2.82162">
        <ele>179</ele>
        <time>1970-01-01T03:50:54.000Z</time>
      </trkpt>
      <trkpt lat="42.220975" lon="2.821542">
        <ele>179</ele>
        <time>1970-01-01T03:50:55.000Z</time>
      </trkpt>
      <trkpt lat="42.220967" lon="2.821464">
        <ele>179</ele>
        <time>1970-01-01T03:50:56.000Z</time>
      </trkpt>
      <trkpt lat="42.220959" lon="2.821387">
        <ele>179</ele>
        <time>1970-01-01T03:50:57.000Z</time>
      </trkpt>
      <trkpt lat="42.22095" lon="2.821309">
        <ele>179</ele>
        <time>1970-01-01T03:50:58.000Z</time>
      </trkpt>
      <trkpt lat="42.220942" lon="2.821231">
        <ele>179</ele>
        <time>1970-01-01T03:50:59.000Z</time>
      </trkpt>
      <trkpt lat="42.220925" lon="2.821068">
        <ele>179</ele>
        <time>1970-01-01T03:51:00.000Z</time>
      </trkpt>
      <trkpt lat="42.220918" lon="2.820995">
        <ele>179</ele>
        <time>1970-01-01T03:51:01.000Z</time>
      </trkpt>
      <trkpt lat="42.22091" lon="2.820921">
        <ele>179</ele>
        <time>1970-01-01T03:51:02.000Z</time>
      </trkpt>
      <trkpt lat="42.220903" lon="2.820848">
        <ele>179</ele>
        <time>1970-01-01T03:51:03.000Z</time>
      </trkpt>
      <trkpt lat="42.220895" lon="2.820775">
        <ele>179</ele>
        <time>1970-01-01T03:51:04.000Z</time>
      </trkpt>
      <trkpt lat="42.220888" lon="2.820702">
        <ele>179</ele>
        <time>1970-01-01T03:51:05.000Z</time>
      </trkpt>
      <trkpt lat="42.22088" lon="2.820628">
        <ele>179</ele>
        <time>1970-01-01T03:51:06.000Z</time>
      </trkpt>
      <trkpt lat="42.220873" lon="2.820555">
        <ele>179</ele>
        <time>1970-01-01T03:51:07.000Z</time>
      </trkpt>
      <trkpt lat="42.220865" lon="2.820482">
        <ele>177</ele>
        <time>1970-01-01T03:51:09.000Z</time>
      </trkpt>
      <trkpt lat="42.220861" lon="2.820437">
        <ele>177</ele>
        <time>1970-01-01T03:51:10.000Z</time>
      </trkpt>
      <trkpt lat="42.220857" lon="2.820413">
        <ele>177</ele>
        <time>1970-01-01T03:51:11.000Z</time>
      </trkpt>
      <trkpt lat="42.220852" lon="2.820387">
        <ele>177</ele>
        <time>1970-01-01T03:51:17.000Z</time>
      </trkpt>
      <trkpt lat="42.220846" lon="2.82033">
        <ele>176</ele>
        <time>1970-01-01T03:51:19.000Z</time>
      </trkpt>
      <trkpt lat="42.220838" lon="2.820243">
        <ele>176</ele>
        <time>1970-01-01T03:51:20.000Z</time>
      </trkpt>
      <trkpt lat="42.220833" lon="2.820191">
        <ele>176</ele>
        <time>1970-01-01T03:51:21.000Z</time>
      </trkpt>
      <trkpt lat="42.220828" lon="2.82014">
        <ele>176</ele>
        <time>1970-01-01T03:51:22.000Z</time>
      </trkpt>
      <trkpt lat="42.220823" lon="2.820088">
        <ele>176</ele>
        <time>1970-01-01T03:51:23.000Z</time>
      </trkpt>
      <trkpt lat="42.220819" lon="2.820037">
        <ele>176</ele>
        <time>1970-01-01T03:51:24.000Z</time>
      </trkpt>
      <trkpt lat="42.220814" lon="2.819986">
        <ele>176</ele>
        <time>1970-01-01T03:51:25.000Z</time>
      </trkpt>
      <trkpt lat="42.220809" lon="2.819934">
        <ele>176</ele>
        <time>1970-01-01T03:51:26.000Z</time>
      </trkpt>
      <trkpt lat="42.220804" lon="2.819883">
        <ele>176</ele>
        <time>1970-01-01T03:51:27.000Z</time>
      </trkpt>
      <trkpt lat="42.220799" lon="2.819831">
        <ele>176</ele>
        <time>1970-01-01T03:51:28.000Z</time>
      </trkpt>
      <trkpt lat="42.220794" lon="2.81978">
        <ele>175</ele>
        <time>1970-01-01T03:51:29.000Z</time>
      </trkpt>
      <trkpt lat="42.22078" lon="2.819643">
        <ele>175</ele>
        <time>1970-01-01T03:51:30.000Z</time>
      </trkpt>
      <trkpt lat="42.220772" lon="2.819572">
        <ele>175</ele>
        <time>1970-01-01T03:51:31.000Z</time>
      </trkpt>
      <trkpt lat="42.220765" lon="2.8195">
        <ele>175</ele>
        <time>1970-01-01T03:51:32.000Z</time>
      </trkpt>
      <trkpt lat="42.220758" lon="2.819429">
        <ele>175</ele>
        <time>1970-01-01T03:51:33.000Z</time>
      </trkpt>
      <trkpt lat="42.220751" lon="2.819357">
        <ele>175</ele>
        <time>1970-01-01T03:51:34.000Z</time>
      </trkpt>
      <trkpt lat="42.220743" lon="2.819286">
        <ele>175</ele>
        <time>1970-01-01T03:51:35.000Z</time>
      </trkpt>
      <trkpt lat="42.220736" lon="2.819214">
        <ele>175</ele>
        <time>1970-01-01T03:51:36.000Z</time>
      </trkpt>
      <trkpt lat="42.220729" lon="2.819143">
        <ele>175</ele>
        <time>1970-01-01T03:51:37.000Z</time>
      </trkpt>
      <trkpt lat="42.220721" lon="2.819071">
        <ele>175</ele>
        <time>1970-01-01T03:51:38.000Z</time>
      </trkpt>
      <trkpt lat="42.220714" lon="2.819">
        <ele>174</ele>
        <time>1970-01-01T03:51:39.000Z</time>
      </trkpt>
      <trkpt lat="42.220695" lon="2.818822">
        <ele>174</ele>
        <time>1970-01-01T03:51:40.000Z</time>
      </trkpt>
      <trkpt lat="42.220686" lon="2.818734">
        <ele>174</ele>
        <time>1970-01-01T03:51:41.000Z</time>
      </trkpt>
      <trkpt lat="42.220678" lon="2.818645">
        <ele>174</ele>
        <time>1970-01-01T03:51:42.000Z</time>
      </trkpt>
      <trkpt lat="42.220669" lon="2.818557">
        <ele>174</ele>
        <time>1970-01-01T03:51:43.000Z</time>
      </trkpt>
      <trkpt lat="42.22066" lon="2.818469">
        <ele>174</ele>
        <time>1970-01-01T03:51:44.000Z</time>
      </trkpt>
      <trkpt lat="42.220651" lon="2.818381">
        <ele>174</ele>
        <time>1970-01-01T03:51:45.000Z</time>
      </trkpt>
      <trkpt lat="42.220642" lon="2.818293">
        <ele>174</ele>
        <time>1970-01-01T03:51:46.000Z</time>
      </trkpt>
      <trkpt lat="42.220634" lon="2.818204">
        <ele>174</ele>
        <time>1970-01-01T03:51:47.000Z</time>
      </trkpt>
      <trkpt lat="42.220625" lon="2.818116">
        <ele>174</ele>
        <time>1970-01-01T03:51:48.000Z</time>
      </trkpt>
      <trkpt lat="42.220616" lon="2.818028">
        <ele>173</ele>
        <time>1970-01-01T03:51:49.000Z</time>
      </trkpt>
      <trkpt lat="42.220595" lon="2.817818">
        <ele>173</ele>
        <time>1970-01-01T03:51:50.000Z</time>
      </trkpt>
      <trkpt lat="42.220584" lon="2.817713">
        <ele>173</ele>
        <time>1970-01-01T03:51:51.000Z</time>
      </trkpt>
      <trkpt lat="42.220573" lon="2.817607">
        <ele>173</ele>
        <time>1970-01-01T03:51:52.000Z</time>
      </trkpt>
      <trkpt lat="42.220562" lon="2.817502">
        <ele>173</ele>
        <time>1970-01-01T03:51:53.000Z</time>
      </trkpt>
      <trkpt lat="42.220551" lon="2.817397">
        <ele>173</ele>
        <time>1970-01-01T03:51:54.000Z</time>
      </trkpt>
      <trkpt lat="42.220539" lon="2.817292">
        <ele>173</ele>
        <time>1970-01-01T03:51:55.000Z</time>
      </trkpt>
      <trkpt lat="42.220528" lon="2.817187">
        <ele>173</ele>
        <time>1970-01-01T03:51:56.000Z</time>
      </trkpt>
      <trkpt lat="42.220517" lon="2.817081">
        <ele>173</ele>
        <time>1970-01-01T03:51:57.000Z</time>
      </trkpt>
      <trkpt lat="42.220506" lon="2.816976">
        <ele>173</ele>
        <time>1970-01-01T03:51:58.000Z</time>
      </trkpt>
      <trkpt lat="42.220495" lon="2.816871">
        <ele>171</ele>
        <time>1970-01-01T03:51:59.000Z</time>
      </trkpt>
      <trkpt lat="42.220468" lon="2.816638">
        <ele>171</ele>
        <time>1970-01-01T03:52:00.000Z</time>
      </trkpt>
      <trkpt lat="42.220456" lon="2.816525">
        <ele>171</ele>
        <time>1970-01-01T03:52:01.000Z</time>
      </trkpt>
      <trkpt lat="42.220443" lon="2.816412">
        <ele>171</ele>
        <time>1970-01-01T03:52:02.000Z</time>
      </trkpt>
      <trkpt lat="42.220431" lon="2.816299">
        <ele>171</ele>
        <time>1970-01-01T03:52:03.000Z</time>
      </trkpt>
      <trkpt lat="42.220419" lon="2.816186">
        <ele>171</ele>
        <time>1970-01-01T03:52:04.000Z</time>
      </trkpt>
      <trkpt lat="42.220407" lon="2.816073">
        <ele>171</ele>
        <time>1970-01-01T03:52:05.000Z</time>
      </trkpt>
      <trkpt lat="42.220394" lon="2.81596">
        <ele>171</ele>
        <time>1970-01-01T03:52:07.000Z</time>
      </trkpt>
      <trkpt lat="42.220382" lon="2.815847">
        <ele>171</ele>
        <time>1970-01-01T03:52:08.000Z</time>
      </trkpt>
      <trkpt lat="42.22037" lon="2.815734">
        <ele>170</ele>
        <time>1970-01-01T03:52:09.000Z</time>
      </trkpt>
      <trkpt lat="42.220348" lon="2.815531">
        <ele>170</ele>
        <time>1970-01-01T03:52:10.000Z</time>
      </trkpt>
      <trkpt lat="42.220339" lon="2.815436">
        <ele>170</ele>
        <time>1970-01-01T03:52:11.000Z</time>
      </trkpt>
      <trkpt lat="42.220329" lon="2.815342">
        <ele>170</ele>
        <time>1970-01-01T03:52:12.000Z</time>
      </trkpt>
      <trkpt lat="42.220319" lon="2.815247">
        <ele>170</ele>
        <time>1970-01-01T03:52:13.000Z</time>
      </trkpt>
      <trkpt lat="42.22031" lon="2.815152">
        <ele>170</ele>
        <time>1970-01-01T03:52:14.000Z</time>
      </trkpt>
      <trkpt lat="42.2203" lon="2.815057">
        <ele>170</ele>
        <time>1970-01-01T03:52:15.000Z</time>
      </trkpt>
      <trkpt lat="42.22029" lon="2.814962">
        <ele>170</ele>
        <time>1970-01-01T03:52:16.000Z</time>
      </trkpt>
      <trkpt lat="42.22028" lon="2.814868">
        <ele>170</ele>
        <time>1970-01-01T03:52:17.000Z</time>
      </trkpt>
      <trkpt lat="42.220271" lon="2.814773">
        <ele>170</ele>
        <time>1970-01-01T03:52:18.000Z</time>
      </trkpt>
      <trkpt lat="42.220261" lon="2.814678">
        <ele>168</ele>
        <time>1970-01-01T03:52:20.000Z</time>
      </trkpt>
      <trkpt lat="42.220245" lon="2.814515">
        <ele>168</ele>
        <time>1970-01-01T03:52:21.000Z</time>
      </trkpt>
      <trkpt lat="42.220236" lon="2.814439">
        <ele>168</ele>
        <time>1970-01-01T03:52:22.000Z</time>
      </trkpt>
      <trkpt lat="42.220228" lon="2.814362">
        <ele>168</ele>
        <time>1970-01-01T03:52:23.000Z</time>
      </trkpt>
      <trkpt lat="42.22022" lon="2.814286">
        <ele>168</ele>
        <time>1970-01-01T03:52:25.000Z</time>
      </trkpt>
      <trkpt lat="42.220211" lon="2.814209">
        <ele>168</ele>
        <time>1970-01-01T03:52:26.000Z</time>
      </trkpt>
      <trkpt lat="42.220203" lon="2.814133">
        <ele>168</ele>
        <time>1970-01-01T03:52:27.000Z</time>
      </trkpt>
      <trkpt lat="42.220194" lon="2.814056">
        <ele>168</ele>
        <time>1970-01-01T03:52:28.000Z</time>
      </trkpt>
      <trkpt lat="42.220186" lon="2.81398">
        <ele>170</ele>
        <time>1970-01-01T03:52:29.000Z</time>
      </trkpt>
      <trkpt lat="42.220171" lon="2.813842">
        <ele>170</ele>
        <time>1970-01-01T03:52:30.000Z</time>
      </trkpt>
      <trkpt lat="42.220164" lon="2.813772">
        <ele>170</ele>
        <time>1970-01-01T03:52:31.000Z</time>
      </trkpt>
      <trkpt lat="42.220156" lon="2.813702">
        <ele>170</ele>
        <time>1970-01-01T03:52:32.000Z</time>
      </trkpt>
      <trkpt lat="42.220148" lon="2.813632">
        <ele>170</ele>
        <time>1970-01-01T03:52:33.000Z</time>
      </trkpt>
      <trkpt lat="42.220141" lon="2.813561">
        <ele>170</ele>
        <time>1970-01-01T03:52:34.000Z</time>
      </trkpt>
      <trkpt lat="42.220133" lon="2.813491">
        <ele>170</ele>
        <time>1970-01-01T03:52:35.000Z</time>
      </trkpt>
      <trkpt lat="42.220125" lon="2.813421">
        <ele>170</ele>
        <time>1970-01-01T03:52:36.000Z</time>
      </trkpt>
      <trkpt lat="42.220118" lon="2.813351">
        <ele>170</ele>
        <time>1970-01-01T03:52:38.000Z</time>
      </trkpt>
      <trkpt lat="42.22011" lon="2.813281">
        <ele>172</ele>
        <time>1970-01-01T03:52:39.000Z</time>
      </trkpt>
      <trkpt lat="42.220087" lon="2.813115">
        <ele>172</ele>
        <time>1970-01-01T03:52:40.000Z</time>
      </trkpt>
      <trkpt lat="42.220073" lon="2.813021">
        <ele>172</ele>
        <time>1970-01-01T03:52:41.000Z</time>
      </trkpt>
      <trkpt lat="42.220059" lon="2.812928">
        <ele>172</ele>
        <time>1970-01-01T03:52:42.000Z</time>
      </trkpt>
      <trkpt lat="42.220046" lon="2.812835">
        <ele>172</ele>
        <time>1970-01-01T03:52:44.000Z</time>
      </trkpt>
      <trkpt lat="42.220032" lon="2.812742">
        <ele>172</ele>
        <time>1970-01-01T03:52:45.000Z</time>
      </trkpt>
      <trkpt lat="42.220018" lon="2.812648">
        <ele>172</ele>
        <time>1970-01-01T03:52:47.000Z</time>
      </trkpt>
      <trkpt lat="42.220004" lon="2.812555">
        <ele>172</ele>
        <time>1970-01-01T03:52:48.000Z</time>
      </trkpt>
      <trkpt lat="42.21999" lon="2.812462">
        <ele>172</ele>
        <time>1970-01-01T03:52:49.000Z</time>
      </trkpt>
      <trkpt lat="42.219944" lon="2.81226">
        <ele>172</ele>
        <time>1970-01-01T03:52:50.000Z</time>
      </trkpt>
      <trkpt lat="42.219916" lon="2.812152">
        <ele>172</ele>
        <time>1970-01-01T03:52:51.000Z</time>
      </trkpt>
      <trkpt lat="42.219888" lon="2.812045">
        <ele>172</ele>
        <time>1970-01-01T03:52:52.000Z</time>
      </trkpt>
      <trkpt lat="42.21986" lon="2.811938">
        <ele>172</ele>
        <time>1970-01-01T03:52:53.000Z</time>
      </trkpt>
      <trkpt lat="42.219832" lon="2.81183">
        <ele>172</ele>
        <time>1970-01-01T03:52:54.000Z</time>
      </trkpt>
      <trkpt lat="42.219803" lon="2.811723">
        <ele>172</ele>
        <time>1970-01-01T03:52:55.000Z</time>
      </trkpt>
      <trkpt lat="42.219775" lon="2.811616">
        <ele>172</ele>
        <time>1970-01-01T03:52:56.000Z</time>
      </trkpt>
      <trkpt lat="42.219747" lon="2.811509">
        <ele>172</ele>
        <time>1970-01-01T03:52:57.000Z</time>
      </trkpt>
      <trkpt lat="42.219719" lon="2.811401">
        <ele>172</ele>
        <time>1970-01-01T03:52:58.000Z</time>
      </trkpt>
      <trkpt lat="42.219691" lon="2.811294">
        <ele>171</ele>
        <time>1970-01-01T03:53:00.000Z</time>
      </trkpt>
      <trkpt lat="42.219609" lon="2.811065">
        <ele>171</ele>
        <time>1970-01-01T03:53:01.000Z</time>
      </trkpt>
      <trkpt lat="42.219562" lon="2.810948">
        <ele>171</ele>
        <time>1970-01-01T03:53:03.000Z</time>
      </trkpt>
      <trkpt lat="42.219516" lon="2.810831">
        <ele>171</ele>
        <time>1970-01-01T03:53:04.000Z</time>
      </trkpt>
      <trkpt lat="42.219469" lon="2.810713">
        <ele>171</ele>
        <time>1970-01-01T03:53:05.000Z</time>
      </trkpt>
      <trkpt lat="42.219423" lon="2.810596">
        <ele>171</ele>
        <time>1970-01-01T03:53:06.000Z</time>
      </trkpt>
      <trkpt lat="42.219376" lon="2.810479">
        <ele>171</ele>
        <time>1970-01-01T03:53:07.000Z</time>
      </trkpt>
      <trkpt lat="42.21933" lon="2.810362">
        <ele>171</ele>
        <time>1970-01-01T03:53:08.000Z</time>
      </trkpt>
      <trkpt lat="42.219283" lon="2.810245">
        <ele>166</ele>
        <time>1970-01-01T03:53:09.000Z</time>
      </trkpt>
      <trkpt lat="42.219232" lon="2.810128">
        <ele>166</ele>
        <time>1970-01-01T03:53:10.000Z</time>
      </trkpt>
      <trkpt lat="42.219182" lon="2.810011">
        <ele>166</ele>
        <time>1970-01-01T03:53:11.000Z</time>
      </trkpt>
      <trkpt lat="42.219131" lon="2.809893">
        <ele>166</ele>
        <time>1970-01-01T03:53:12.000Z</time>
      </trkpt>
      <trkpt lat="42.21908" lon="2.809775">
        <ele>166</ele>
        <time>1970-01-01T03:53:13.000Z</time>
      </trkpt>
      <trkpt lat="42.219028" lon="2.809654">
        <ele>166</ele>
        <time>1970-01-01T03:53:14.000Z</time>
      </trkpt>
      <trkpt lat="42.218974" lon="2.809533">
        <ele>166</ele>
        <time>1970-01-01T03:53:15.000Z</time>
      </trkpt>
      <trkpt lat="42.21892" lon="2.809412">
        <ele>166</ele>
        <time>1970-01-01T03:53:16.000Z</time>
      </trkpt>
      <trkpt lat="42.218865" lon="2.809289">
        <ele>166</ele>
        <time>1970-01-01T03:53:17.000Z</time>
      </trkpt>
      <trkpt lat="42.218756" lon="2.809049">
        <ele>166</ele>
        <time>1970-01-01T03:53:18.000Z</time>
      </trkpt>
      <trkpt lat="42.218701" lon="2.808933">
        <ele>162</ele>
        <time>1970-01-01T03:53:20.000Z</time>
      </trkpt>
      <trkpt lat="42.218539" lon="2.808602">
        <ele>162</ele>
        <time>1970-01-01T03:53:22.000Z</time>
      </trkpt>
      <trkpt lat="42.218486" lon="2.808502">
        <ele>162</ele>
        <time>1970-01-01T03:53:23.000Z</time>
      </trkpt>
      <trkpt lat="42.218434" lon="2.808403">
        <ele>162</ele>
        <time>1970-01-01T03:53:25.000Z</time>
      </trkpt>
      <trkpt lat="42.218381" lon="2.808304">
        <ele>162</ele>
        <time>1970-01-01T03:53:26.000Z</time>
      </trkpt>
      <trkpt lat="42.218329" lon="2.808205">
        <ele>162</ele>
        <time>1970-01-01T03:53:27.000Z</time>
      </trkpt>
      <trkpt lat="42.218276" lon="2.808105">
        <ele>162</ele>
        <time>1970-01-01T03:53:28.000Z</time>
      </trkpt>
      <trkpt lat="42.218224" lon="2.808006">
        <ele>159</ele>
        <time>1970-01-01T03:53:29.000Z</time>
      </trkpt>
      <trkpt lat="42.218138" lon="2.807857">
        <ele>159</ele>
        <time>1970-01-01T03:53:30.000Z</time>
      </trkpt>
      <trkpt lat="42.218101" lon="2.807797">
        <ele>159</ele>
        <time>1970-01-01T03:53:31.000Z</time>
      </trkpt>
      <trkpt lat="42.218064" lon="2.807736">
        <ele>159</ele>
        <time>1970-01-01T03:53:32.000Z</time>
      </trkpt>
      <trkpt lat="42.218027" lon="2.807676">
        <ele>159</ele>
        <time>1970-01-01T03:53:33.000Z</time>
      </trkpt>
      <trkpt lat="42.217991" lon="2.807615">
        <ele>159</ele>
        <time>1970-01-01T03:53:34.000Z</time>
      </trkpt>
      <trkpt lat="42.217954" lon="2.807554">
        <ele>159</ele>
        <time>1970-01-01T03:53:35.000Z</time>
      </trkpt>
      <trkpt lat="42.217917" lon="2.807494">
        <ele>159</ele>
        <time>1970-01-01T03:53:36.000Z</time>
      </trkpt>
      <trkpt lat="42.21788" lon="2.807433">
        <ele>159</ele>
        <time>1970-01-01T03:53:37.000Z</time>
      </trkpt>
      <trkpt lat="42.217843" lon="2.807373">
        <ele>159</ele>
        <time>1970-01-01T03:53:38.000Z</time>
      </trkpt>
      <trkpt lat="42.217806" lon="2.807312">
        <ele>158</ele>
        <time>1970-01-01T03:53:39.000Z</time>
      </trkpt>
      <trkpt lat="42.217706" lon="2.80716">
        <ele>158</ele>
        <time>1970-01-01T03:53:41.000Z</time>
      </trkpt>
      <trkpt lat="42.217676" lon="2.807118">
        <ele>158</ele>
        <time>1970-01-01T03:53:42.000Z</time>
      </trkpt>
      <trkpt lat="42.217647" lon="2.807075">
        <ele>158</ele>
        <time>1970-01-01T03:53:43.000Z</time>
      </trkpt>
      <trkpt lat="42.217618" lon="2.807033">
        <ele>158</ele>
        <time>1970-01-01T03:53:44.000Z</time>
      </trkpt>
      <trkpt lat="42.217588" lon="2.80699">
        <ele>158</ele>
        <time>1970-01-01T03:53:45.000Z</time>
      </trkpt>
      <trkpt lat="42.217559" lon="2.806948">
        <ele>158</ele>
        <time>1970-01-01T03:53:46.000Z</time>
      </trkpt>
      <trkpt lat="42.21753" lon="2.806905">
        <ele>158</ele>
        <time>1970-01-01T03:53:47.000Z</time>
      </trkpt>
      <trkpt lat="42.2175" lon="2.806863">
        <ele>158</ele>
        <time>1970-01-01T03:53:48.000Z</time>
      </trkpt>
      <trkpt lat="42.217471" lon="2.80682">
        <ele>160</ele>
        <time>1970-01-01T03:53:49.000Z</time>
      </trkpt>
      <trkpt lat="42.217407" lon="2.806735">
        <ele>160</ele>
        <time>1970-01-01T03:53:50.000Z</time>
      </trkpt>
      <trkpt lat="42.217377" lon="2.806694">
        <ele>160</ele>
        <time>1970-01-01T03:53:51.000Z</time>
      </trkpt>
      <trkpt lat="42.217346" lon="2.806653">
        <ele>160</ele>
        <time>1970-01-01T03:53:52.000Z</time>
      </trkpt>
      <trkpt lat="42.217316" lon="2.806612">
        <ele>160</ele>
        <time>1970-01-01T03:53:53.000Z</time>
      </trkpt>
      <trkpt lat="42.217286" lon="2.80657">
        <ele>160</ele>
        <time>1970-01-01T03:53:54.000Z</time>
      </trkpt>
      <trkpt lat="42.217256" lon="2.806529">
        <ele>160</ele>
        <time>1970-01-01T03:53:55.000Z</time>
      </trkpt>
      <trkpt lat="42.217225" lon="2.806488">
        <ele>160</ele>
        <time>1970-01-01T03:53:56.000Z</time>
      </trkpt>
      <trkpt lat="42.217195" lon="2.806447">
        <ele>160</ele>
        <time>1970-01-01T03:53:58.000Z</time>
      </trkpt>
      <trkpt lat="42.217165" lon="2.806406">
        <ele>164</ele>
        <time>1970-01-01T03:53:59.000Z</time>
      </trkpt>
      <trkpt lat="42.217106" lon="2.806331">
        <ele>164</ele>
        <time>1970-01-01T03:54:00.000Z</time>
      </trkpt>
      <trkpt lat="42.217076" lon="2.806294">
        <ele>164</ele>
        <time>1970-01-01T03:54:01.000Z</time>
      </trkpt>
      <trkpt lat="42.217045" lon="2.806257">
        <ele>164</ele>
        <time>1970-01-01T03:54:02.000Z</time>
      </trkpt>
      <trkpt lat="42.217015" lon="2.80622">
        <ele>164</ele>
        <time>1970-01-01T03:54:03.000Z</time>
      </trkpt>
      <trkpt lat="42.216985" lon="2.806183">
        <ele>164</ele>
        <time>1970-01-01T03:54:04.000Z</time>
      </trkpt>
      <trkpt lat="42.216955" lon="2.806147">
        <ele>164</ele>
        <time>1970-01-01T03:54:05.000Z</time>
      </trkpt>
      <trkpt lat="42.216925" lon="2.80611">
        <ele>164</ele>
        <time>1970-01-01T03:54:06.000Z</time>
      </trkpt>
      <trkpt lat="42.216894" lon="2.806073">
        <ele>164</ele>
        <time>1970-01-01T03:54:07.000Z</time>
      </trkpt>
      <trkpt lat="42.216864" lon="2.806036">
        <ele>164</ele>
        <time>1970-01-01T03:54:08.000Z</time>
      </trkpt>
      <trkpt lat="42.216834" lon="2.805999">
        <ele>166</ele>
        <time>1970-01-01T03:54:10.000Z</time>
      </trkpt>
      <trkpt lat="42.216776" lon="2.80593">
        <ele>166</ele>
        <time>1970-01-01T03:54:11.000Z</time>
      </trkpt>
      <trkpt lat="42.216747" lon="2.805898">
        <ele>166</ele>
        <time>1970-01-01T03:54:12.000Z</time>
      </trkpt>
      <trkpt lat="42.216719" lon="2.805865">
        <ele>166</ele>
        <time>1970-01-01T03:54:13.000Z</time>
      </trkpt>
      <trkpt lat="42.21669" lon="2.805832">
        <ele>166</ele>
        <time>1970-01-01T03:54:14.000Z</time>
      </trkpt>
      <trkpt lat="42.216662" lon="2.8058">
        <ele>166</ele>
        <time>1970-01-01T03:54:15.000Z</time>
      </trkpt>
      <trkpt lat="42.216633" lon="2.805767">
        <ele>166</ele>
        <time>1970-01-01T03:54:16.000Z</time>
      </trkpt>
      <trkpt lat="42.216605" lon="2.805735">
        <ele>166</ele>
        <time>1970-01-01T03:54:17.000Z</time>
      </trkpt>
      <trkpt lat="42.216576" lon="2.805702">
        <ele>167</ele>
        <time>1970-01-01T03:54:19.000Z</time>
      </trkpt>
      <trkpt lat="42.216525" lon="2.805646">
        <ele>167</ele>
        <time>1970-01-01T03:54:20.000Z</time>
      </trkpt>
      <trkpt lat="42.216499" lon="2.805618">
        <ele>167</ele>
        <time>1970-01-01T03:54:21.000Z</time>
      </trkpt>
      <trkpt lat="42.216473" lon="2.80559">
        <ele>167</ele>
        <time>1970-01-01T03:54:23.000Z</time>
      </trkpt>
      <trkpt lat="42.216447" lon="2.805562">
        <ele>167</ele>
        <time>1970-01-01T03:54:24.000Z</time>
      </trkpt>
      <trkpt lat="42.21642" lon="2.805533">
        <ele>167</ele>
        <time>1970-01-01T03:54:25.000Z</time>
      </trkpt>
      <trkpt lat="42.216394" lon="2.805505">
        <ele>167</ele>
        <time>1970-01-01T03:54:26.000Z</time>
      </trkpt>
      <trkpt lat="42.216368" lon="2.805477">
        <ele>167</ele>
        <time>1970-01-01T03:54:27.000Z</time>
      </trkpt>
      <trkpt lat="42.216342" lon="2.805449">
        <ele>167</ele>
        <time>1970-01-01T03:54:28.000Z</time>
      </trkpt>
      <trkpt lat="42.216316" lon="2.805421">
        <ele>169</ele>
        <time>1970-01-01T03:54:29.000Z</time>
      </trkpt>
      <trkpt lat="42.216265" lon="2.805369">
        <ele>169</ele>
        <time>1970-01-01T03:54:30.000Z</time>
      </trkpt>
      <trkpt lat="42.21624" lon="2.805343">
        <ele>169</ele>
        <time>1970-01-01T03:54:31.000Z</time>
      </trkpt>
      <trkpt lat="42.216214" lon="2.805317">
        <ele>169</ele>
        <time>1970-01-01T03:54:32.000Z</time>
      </trkpt>
      <trkpt lat="42.216189" lon="2.805291">
        <ele>169</ele>
        <time>1970-01-01T03:54:33.000Z</time>
      </trkpt>
      <trkpt lat="42.216164" lon="2.805264">
        <ele>169</ele>
        <time>1970-01-01T03:54:34.000Z</time>
      </trkpt>
      <trkpt lat="42.216139" lon="2.805238">
        <ele>169</ele>
        <time>1970-01-01T03:54:35.000Z</time>
      </trkpt>
      <trkpt lat="42.216113" lon="2.805212">
        <ele>169</ele>
        <time>1970-01-01T03:54:36.000Z</time>
      </trkpt>
      <trkpt lat="42.216088" lon="2.805186">
        <ele>169</ele>
        <time>1970-01-01T03:54:38.000Z</time>
      </trkpt>
      <trkpt lat="42.216063" lon="2.80516">
        <ele>171</ele>
        <time>1970-01-01T03:54:39.000Z</time>
      </trkpt>
      <trkpt lat="42.216011" lon="2.805108">
        <ele>171</ele>
        <time>1970-01-01T03:54:40.000Z</time>
      </trkpt>
      <trkpt lat="42.215986" lon="2.805083">
        <ele>171</ele>
        <time>1970-01-01T03:54:41.000Z</time>
      </trkpt>
      <trkpt lat="42.215962" lon="2.805058">
        <ele>171</ele>
        <time>1970-01-01T03:54:42.000Z</time>
      </trkpt>
      <trkpt lat="42.215937" lon="2.805033">
        <ele>171</ele>
        <time>1970-01-01T03:54:43.000Z</time>
      </trkpt>
      <trkpt lat="42.215912" lon="2.805008">
        <ele>171</ele>
        <time>1970-01-01T03:54:44.000Z</time>
      </trkpt>
      <trkpt lat="42.215887" lon="2.804983">
        <ele>171</ele>
        <time>1970-01-01T03:54:45.000Z</time>
      </trkpt>
      <trkpt lat="42.215862" lon="2.804958">
        <ele>171</ele>
        <time>1970-01-01T03:54:46.000Z</time>
      </trkpt>
      <trkpt lat="42.215838" lon="2.804933">
        <ele>171</ele>
        <time>1970-01-01T03:54:47.000Z</time>
      </trkpt>
      <trkpt lat="42.215813" lon="2.804908">
        <ele>171</ele>
        <time>1970-01-01T03:54:48.000Z</time>
      </trkpt>
      <trkpt lat="42.215788" lon="2.804883">
        <ele>172</ele>
        <time>1970-01-01T03:54:49.000Z</time>
      </trkpt>
      <trkpt lat="42.215737" lon="2.804832">
        <ele>172</ele>
        <time>1970-01-01T03:54:50.000Z</time>
      </trkpt>
      <trkpt lat="42.215714" lon="2.804809">
        <ele>172</ele>
        <time>1970-01-01T03:54:51.000Z</time>
      </trkpt>
      <trkpt lat="42.21569" lon="2.804785">
        <ele>172</ele>
        <time>1970-01-01T03:54:52.000Z</time>
      </trkpt>
      <trkpt lat="42.215666" lon="2.804762">
        <ele>172</ele>
        <time>1970-01-01T03:54:53.000Z</time>
      </trkpt>
      <trkpt lat="42.215643" lon="2.804738">
        <ele>172</ele>
        <time>1970-01-01T03:54:54.000Z</time>
      </trkpt>
      <trkpt lat="42.215619" lon="2.804715">
        <ele>172</ele>
        <time>1970-01-01T03:54:55.000Z</time>
      </trkpt>
      <trkpt lat="42.215595" lon="2.804691">
        <ele>172</ele>
        <time>1970-01-01T03:54:56.000Z</time>
      </trkpt>
      <trkpt lat="42.215571" lon="2.804668">
        <ele>172</ele>
        <time>1970-01-01T03:54:57.000Z</time>
      </trkpt>
      <trkpt lat="42.215548" lon="2.804644">
        <ele>172</ele>
        <time>1970-01-01T03:54:58.000Z</time>
      </trkpt>
      <trkpt lat="42.215524" lon="2.804621">
        <ele>174</ele>
        <time>1970-01-01T03:54:59.000Z</time>
      </trkpt>
      <trkpt lat="42.215469" lon="2.804567">
        <ele>174</ele>
        <time>1970-01-01T03:55:00.000Z</time>
      </trkpt>
      <trkpt lat="42.215441" lon="2.804539">
        <ele>174</ele>
        <time>1970-01-01T03:55:01.000Z</time>
      </trkpt>
      <trkpt lat="42.215414" lon="2.804511">
        <ele>174</ele>
        <time>1970-01-01T03:55:02.000Z</time>
      </trkpt>
      <trkpt lat="42.215386" lon="2.804483">
        <ele>174</ele>
        <time>1970-01-01T03:55:03.000Z</time>
      </trkpt>
      <trkpt lat="42.215358" lon="2.804454">
        <ele>174</ele>
        <time>1970-01-01T03:55:04.000Z</time>
      </trkpt>
      <trkpt lat="42.21533" lon="2.804426">
        <ele>174</ele>
        <time>1970-01-01T03:55:05.000Z</time>
      </trkpt>
      <trkpt lat="42.215303" lon="2.804398">
        <ele>174</ele>
        <time>1970-01-01T03:55:06.000Z</time>
      </trkpt>
      <trkpt lat="42.215275" lon="2.80437">
        <ele>174</ele>
        <time>1970-01-01T03:55:08.000Z</time>
      </trkpt>
      <trkpt lat="42.215247" lon="2.804342">
        <ele>175</ele>
        <time>1970-01-01T03:55:09.000Z</time>
      </trkpt>
      <trkpt lat="42.215187" lon="2.804283">
        <ele>175</ele>
        <time>1970-01-01T03:55:10.000Z</time>
      </trkpt>
      <trkpt lat="42.215157" lon="2.804254">
        <ele>175</ele>
        <time>1970-01-01T03:55:11.000Z</time>
      </trkpt>
      <trkpt lat="42.215128" lon="2.804225">
        <ele>175</ele>
        <time>1970-01-01T03:55:12.000Z</time>
      </trkpt>
      <trkpt lat="42.215098" lon="2.804196">
        <ele>175</ele>
        <time>1970-01-01T03:55:13.000Z</time>
      </trkpt>
      <trkpt lat="42.215068" lon="2.804167">
        <ele>175</ele>
        <time>1970-01-01T03:55:14.000Z</time>
      </trkpt>
      <trkpt lat="42.215038" lon="2.804138">
        <ele>175</ele>
        <time>1970-01-01T03:55:16.000Z</time>
      </trkpt>
      <trkpt lat="42.215009" lon="2.804109">
        <ele>175</ele>
        <time>1970-01-01T03:55:17.000Z</time>
      </trkpt>
      <trkpt lat="42.214979" lon="2.80408">
        <ele>175</ele>
        <time>1970-01-01T03:55:18.000Z</time>
      </trkpt>
      <trkpt lat="42.214949" lon="2.804051">
        <ele>176</ele>
        <time>1970-01-01T03:55:19.000Z</time>
      </trkpt>
      <trkpt lat="42.214889" lon="2.803993">
        <ele>176</ele>
        <time>1970-01-01T03:55:20.000Z</time>
      </trkpt>
      <trkpt lat="42.214858" lon="2.803963">
        <ele>176</ele>
        <time>1970-01-01T03:55:22.000Z</time>
      </trkpt>
      <trkpt lat="42.214826" lon="2.803933">
        <ele>176</ele>
        <time>1970-01-01T03:55:23.000Z</time>
      </trkpt>
      <trkpt lat="42.214795" lon="2.803903">
        <ele>176</ele>
        <time>1970-01-01T03:55:24.000Z</time>
      </trkpt>
      <trkpt lat="42.214764" lon="2.803874">
        <ele>176</ele>
        <time>1970-01-01T03:55:25.000Z</time>
      </trkpt>
      <trkpt lat="42.214733" lon="2.803844">
        <ele>176</ele>
        <time>1970-01-01T03:55:26.000Z</time>
      </trkpt>
      <trkpt lat="42.214701" lon="2.803814">
        <ele>176</ele>
        <time>1970-01-01T03:55:27.000Z</time>
      </trkpt>
      <trkpt lat="42.21467" lon="2.803784">
        <ele>176</ele>
        <time>1970-01-01T03:55:28.000Z</time>
      </trkpt>
      <trkpt lat="42.214639" lon="2.803754">
        <ele>177</ele>
        <time>1970-01-01T03:55:29.000Z</time>
      </trkpt>
      <trkpt lat="42.214571" lon="2.803687">
        <ele>177</ele>
        <time>1970-01-01T03:55:30.000Z</time>
      </trkpt>
      <trkpt lat="42.214536" lon="2.803653">
        <ele>177</ele>
        <time>1970-01-01T03:55:31.000Z</time>
      </trkpt>
      <trkpt lat="42.214501" lon="2.80362">
        <ele>177</ele>
        <time>1970-01-01T03:55:32.000Z</time>
      </trkpt>
      <trkpt lat="42.214466" lon="2.803586">
        <ele>177</ele>
        <time>1970-01-01T03:55:33.000Z</time>
      </trkpt>
      <trkpt lat="42.21443" lon="2.803552">
        <ele>177</ele>
        <time>1970-01-01T03:55:35.000Z</time>
      </trkpt>
      <trkpt lat="42.214395" lon="2.803518">
        <ele>177</ele>
        <time>1970-01-01T03:55:36.000Z</time>
      </trkpt>
      <trkpt lat="42.21436" lon="2.803485">
        <ele>177</ele>
        <time>1970-01-01T03:55:37.000Z</time>
      </trkpt>
      <trkpt lat="42.214325" lon="2.803451">
        <ele>177</ele>
        <time>1970-01-01T03:55:38.000Z</time>
      </trkpt>
      <trkpt lat="42.21429" lon="2.803417">
        <ele>178</ele>
        <time>1970-01-01T03:55:39.000Z</time>
      </trkpt>
      <trkpt lat="42.214213" lon="2.803342">
        <ele>178</ele>
        <time>1970-01-01T03:55:40.000Z</time>
      </trkpt>
      <trkpt lat="42.214173" lon="2.803303">
        <ele>178</ele>
        <time>1970-01-01T03:55:41.000Z</time>
      </trkpt>
      <trkpt lat="42.214133" lon="2.803264">
        <ele>178</ele>
        <time>1970-01-01T03:55:42.000Z</time>
      </trkpt>
      <trkpt lat="42.214093" lon="2.803225">
        <ele>178</ele>
        <time>1970-01-01T03:55:43.000Z</time>
      </trkpt>
      <trkpt lat="42.214054" lon="2.803185">
        <ele>178</ele>
        <time>1970-01-01T03:55:44.000Z</time>
      </trkpt>
      <trkpt lat="42.214014" lon="2.803146">
        <ele>178</ele>
        <time>1970-01-01T03:55:46.000Z</time>
      </trkpt>
      <trkpt lat="42.213974" lon="2.803107">
        <ele>178</ele>
        <time>1970-01-01T03:55:47.000Z</time>
      </trkpt>
      <trkpt lat="42.213934" lon="2.803068">
        <ele>178</ele>
        <time>1970-01-01T03:55:48.000Z</time>
      </trkpt>
      <trkpt lat="42.213894" lon="2.803029">
        <ele>178</ele>
        <time>1970-01-01T03:55:49.000Z</time>
      </trkpt>
      <trkpt lat="42.213811" lon="2.80294">
        <ele>178</ele>
        <time>1970-01-01T03:55:50.000Z</time>
      </trkpt>
      <trkpt lat="42.21377" lon="2.802892">
        <ele>178</ele>
        <time>1970-01-01T03:55:51.000Z</time>
      </trkpt>
      <trkpt lat="42.213729" lon="2.802845">
        <ele>178</ele>
        <time>1970-01-01T03:55:52.000Z</time>
      </trkpt>
      <trkpt lat="42.213688" lon="2.802797">
        <ele>178</ele>
        <time>1970-01-01T03:55:53.000Z</time>
      </trkpt>
      <trkpt lat="42.213648" lon="2.802749">
        <ele>178</ele>
        <time>1970-01-01T03:55:54.000Z</time>
      </trkpt>
      <trkpt lat="42.213607" lon="2.802701">
        <ele>178</ele>
        <time>1970-01-01T03:55:56.000Z</time>
      </trkpt>
      <trkpt lat="42.213566" lon="2.802654">
        <ele>178</ele>
        <time>1970-01-01T03:55:57.000Z</time>
      </trkpt>
      <trkpt lat="42.213525" lon="2.802606">
        <ele>178</ele>
        <time>1970-01-01T03:55:58.000Z</time>
      </trkpt>
      <trkpt lat="42.213484" lon="2.802558">
        <ele>178</ele>
        <time>1970-01-01T03:55:59.000Z</time>
      </trkpt>
      <trkpt lat="42.213391" lon="2.802453">
        <ele>178</ele>
        <time>1970-01-01T03:56:00.000Z</time>
      </trkpt>
      <trkpt lat="42.213342" lon="2.8024">
        <ele>178</ele>
        <time>1970-01-01T03:56:01.000Z</time>
      </trkpt>
      <trkpt lat="42.213294" lon="2.802346">
        <ele>178</ele>
        <time>1970-01-01T03:56:02.000Z</time>
      </trkpt>
      <trkpt lat="42.213245" lon="2.802293">
        <ele>178</ele>
        <time>1970-01-01T03:56:04.000Z</time>
      </trkpt>
      <trkpt lat="42.213196" lon="2.80224">
        <ele>178</ele>
        <time>1970-01-01T03:56:05.000Z</time>
      </trkpt>
      <trkpt lat="42.213147" lon="2.802187">
        <ele>178</ele>
        <time>1970-01-01T03:56:06.000Z</time>
      </trkpt>
      <trkpt lat="42.213099" lon="2.802133">
        <ele>178</ele>
        <time>1970-01-01T03:56:07.000Z</time>
      </trkpt>
      <trkpt lat="42.21305" lon="2.80208">
        <ele>178</ele>
        <time>1970-01-01T03:56:08.000Z</time>
      </trkpt>
      <trkpt lat="42.213001" lon="2.802027">
        <ele>178</ele>
        <time>1970-01-01T03:56:09.000Z</time>
      </trkpt>
      <trkpt lat="42.212867" lon="2.80189">
        <ele>178</ele>
        <time>1970-01-01T03:56:11.000Z</time>
      </trkpt>
      <trkpt lat="42.212807" lon="2.801828">
        <ele>178</ele>
        <time>1970-01-01T03:56:12.000Z</time>
      </trkpt>
      <trkpt lat="42.212746" lon="2.801766">
        <ele>178</ele>
        <time>1970-01-01T03:56:13.000Z</time>
      </trkpt>
      <trkpt lat="42.212685" lon="2.801704">
        <ele>178</ele>
        <time>1970-01-01T03:56:14.000Z</time>
      </trkpt>
      <trkpt lat="42.212624" lon="2.801642">
        <ele>178</ele>
        <time>1970-01-01T03:56:15.000Z</time>
      </trkpt>
      <trkpt lat="42.212564" lon="2.80158">
        <ele>178</ele>
        <time>1970-01-01T03:56:16.000Z</time>
      </trkpt>
      <trkpt lat="42.212503" lon="2.801518">
        <ele>178</ele>
        <time>1970-01-01T03:56:17.000Z</time>
      </trkpt>
      <trkpt lat="42.212442" lon="2.801456">
        <ele>176</ele>
        <time>1970-01-01T03:56:19.000Z</time>
      </trkpt>
      <trkpt lat="42.212374" lon="2.801332">
        <ele>176</ele>
        <time>1970-01-01T03:56:20.000Z</time>
      </trkpt>
      <trkpt lat="42.212345" lon="2.801252">
        <ele>176</ele>
        <time>1970-01-01T03:56:21.000Z</time>
      </trkpt>
      <trkpt lat="42.212316" lon="2.801173">
        <ele>176</ele>
        <time>1970-01-01T03:56:22.000Z</time>
      </trkpt>
      <trkpt lat="42.212287" lon="2.801093">
        <ele>176</ele>
        <time>1970-01-01T03:56:23.000Z</time>
      </trkpt>
      <trkpt lat="42.212258" lon="2.801013">
        <ele>176</ele>
        <time>1970-01-01T03:56:24.000Z</time>
      </trkpt>
      <trkpt lat="42.212228" lon="2.800933">
        <ele>176</ele>
        <time>1970-01-01T03:56:25.000Z</time>
      </trkpt>
      <trkpt lat="42.212199" lon="2.800853">
        <ele>176</ele>
        <time>1970-01-01T03:56:26.000Z</time>
      </trkpt>
      <trkpt lat="42.21217" lon="2.800774">
        <ele>176</ele>
        <time>1970-01-01T03:56:27.000Z</time>
      </trkpt>
      <trkpt lat="42.212141" lon="2.800694">
        <ele>176</ele>
        <time>1970-01-01T03:56:28.000Z</time>
      </trkpt>
      <trkpt lat="42.212112" lon="2.800614">
        <ele>173</ele>
        <time>1970-01-01T03:56:29.000Z</time>
      </trkpt>
      <trkpt lat="42.212139" lon="2.800451">
        <ele>173</ele>
        <time>1970-01-01T03:56:30.000Z</time>
      </trkpt>
      <trkpt lat="42.212165" lon="2.800366">
        <ele>173</ele>
        <time>1970-01-01T03:56:32.000Z</time>
      </trkpt>
      <trkpt lat="42.212191" lon="2.800281">
        <ele>173</ele>
        <time>1970-01-01T03:56:34.000Z</time>
      </trkpt>
      <trkpt lat="42.212218" lon="2.800196">
        <ele>173</ele>
        <time>1970-01-01T03:56:35.000Z</time>
      </trkpt>
      <trkpt lat="42.212244" lon="2.800111">
        <ele>173</ele>
        <time>1970-01-01T03:56:36.000Z</time>
      </trkpt>
      <trkpt lat="42.21227" lon="2.800026">
        <ele>173</ele>
        <time>1970-01-01T03:56:37.000Z</time>
      </trkpt>
      <trkpt lat="42.212296" lon="2.799941">
        <ele>173</ele>
        <time>1970-01-01T03:56:38.000Z</time>
      </trkpt>
      <trkpt lat="42.212322" lon="2.799856">
        <ele>175</ele>
        <time>1970-01-01T03:56:39.000Z</time>
      </trkpt>
      <trkpt lat="42.212395" lon="2.799703">
        <ele>175</ele>
        <time>1970-01-01T03:56:40.000Z</time>
      </trkpt>
      <trkpt lat="42.212436" lon="2.799628">
        <ele>175</ele>
        <time>1970-01-01T03:56:42.000Z</time>
      </trkpt>
      <trkpt lat="42.212477" lon="2.799552">
        <ele>175</ele>
        <time>1970-01-01T03:56:43.000Z</time>
      </trkpt>
      <trkpt lat="42.212518" lon="2.799477">
        <ele>175</ele>
        <time>1970-01-01T03:56:44.000Z</time>
      </trkpt>
      <trkpt lat="42.212558" lon="2.799401">
        <ele>175</ele>
        <time>1970-01-01T03:56:45.000Z</time>
      </trkpt>
      <trkpt lat="42.212599" lon="2.799326">
        <ele>175</ele>
        <time>1970-01-01T03:56:46.000Z</time>
      </trkpt>
      <trkpt lat="42.21264" lon="2.79925">
        <ele>175</ele>
        <time>1970-01-01T03:56:47.000Z</time>
      </trkpt>
      <trkpt lat="42.212681" lon="2.799175">
        <ele>175</ele>
        <time>1970-01-01T03:56:48.000Z</time>
      </trkpt>
      <trkpt lat="42.212722" lon="2.799099">
        <ele>174</ele>
        <time>1970-01-01T03:56:49.000Z</time>
      </trkpt>
      <trkpt lat="42.212857" lon="2.798875">
        <ele>174</ele>
        <time>1970-01-01T03:56:51.000Z</time>
      </trkpt>
      <trkpt lat="42.212905" lon="2.798799">
        <ele>174</ele>
        <time>1970-01-01T03:56:52.000Z</time>
      </trkpt>
      <trkpt lat="42.212952" lon="2.798723">
        <ele>174</ele>
        <time>1970-01-01T03:56:53.000Z</time>
      </trkpt>
      <trkpt lat="42.212999" lon="2.798648">
        <ele>174</ele>
        <time>1970-01-01T03:56:54.000Z</time>
      </trkpt>
      <trkpt lat="42.213046" lon="2.798572">
        <ele>174</ele>
        <time>1970-01-01T03:56:56.000Z</time>
      </trkpt>
      <trkpt lat="42.213094" lon="2.798496">
        <ele>174</ele>
        <time>1970-01-01T03:56:57.000Z</time>
      </trkpt>
      <trkpt lat="42.213141" lon="2.79842">
        <ele>174</ele>
        <time>1970-01-01T03:56:58.000Z</time>
      </trkpt>
      <trkpt lat="42.213188" lon="2.798344">
        <ele>172</ele>
        <time>1970-01-01T03:56:59.000Z</time>
      </trkpt>
      <trkpt lat="42.213316" lon="2.798197">
        <ele>172</ele>
        <time>1970-01-01T03:57:00.000Z</time>
      </trkpt>
      <trkpt lat="42.213393" lon="2.798127">
        <ele>172</ele>
        <time>1970-01-01T03:57:01.000Z</time>
      </trkpt>
      <trkpt lat="42.213469" lon="2.798058">
        <ele>172</ele>
        <time>1970-01-01T03:57:03.000Z</time>
      </trkpt>
      <trkpt lat="42.213546" lon="2.797988">
        <ele>172</ele>
        <time>1970-01-01T03:57:04.000Z</time>
      </trkpt>
      <trkpt lat="42.213623" lon="2.797919">
        <ele>172</ele>
        <time>1970-01-01T03:57:05.000Z</time>
      </trkpt>
      <trkpt lat="42.2137" lon="2.797849">
        <ele>172</ele>
        <time>1970-01-01T03:57:06.000Z</time>
      </trkpt>
      <trkpt lat="42.213776" lon="2.79778">
        <ele>172</ele>
        <time>1970-01-01T03:57:07.000Z</time>
      </trkpt>
      <trkpt lat="42.213853" lon="2.79771">
        <ele>172</ele>
        <time>1970-01-01T03:57:09.000Z</time>
      </trkpt>
      <trkpt lat="42.213982" lon="2.797601">
        <ele>172</ele>
        <time>1970-01-01T03:57:10.000Z</time>
      </trkpt>
      <trkpt lat="42.214035" lon="2.797544">
        <ele>172</ele>
        <time>1970-01-01T03:57:11.000Z</time>
      </trkpt>
      <trkpt lat="42.214088" lon="2.797487">
        <ele>172</ele>
        <time>1970-01-01T03:57:12.000Z</time>
      </trkpt>
      <trkpt lat="42.214141" lon="2.79743">
        <ele>172</ele>
        <time>1970-01-01T03:57:13.000Z</time>
      </trkpt>
      <trkpt lat="42.214194" lon="2.797373">
        <ele>172</ele>
        <time>1970-01-01T03:57:14.000Z</time>
      </trkpt>
      <trkpt lat="42.214247" lon="2.797316">
        <ele>172</ele>
        <time>1970-01-01T03:57:15.000Z</time>
      </trkpt>
      <trkpt lat="42.2143" lon="2.797259">
        <ele>172</ele>
        <time>1970-01-01T03:57:16.000Z</time>
      </trkpt>
      <trkpt lat="42.214353" lon="2.797202">
        <ele>172</ele>
        <time>1970-01-01T03:57:17.000Z</time>
      </trkpt>
      <trkpt lat="42.214406" lon="2.797145">
        <ele>172</ele>
        <time>1970-01-01T03:57:18.000Z</time>
      </trkpt>
      <trkpt lat="42.214459" lon="2.797088">
        <ele>169</ele>
        <time>1970-01-01T03:57:19.000Z</time>
      </trkpt>
      <trkpt lat="42.214378" lon="2.796849">
        <ele>169</ele>
        <time>1970-01-01T03:57:21.000Z</time>
      </trkpt>
      <trkpt lat="42.214313" lon="2.796782">
        <ele>169</ele>
        <time>1970-01-01T03:57:22.000Z</time>
      </trkpt>
      <trkpt lat="42.214249" lon="2.796715">
        <ele>169</ele>
        <time>1970-01-01T03:57:23.000Z</time>
      </trkpt>
      <trkpt lat="42.214185" lon="2.796647">
        <ele>169</ele>
        <time>1970-01-01T03:57:24.000Z</time>
      </trkpt>
      <trkpt lat="42.21412" lon="2.79658">
        <ele>169</ele>
        <time>1970-01-01T03:57:25.000Z</time>
      </trkpt>
      <trkpt lat="42.214056" lon="2.796513">
        <ele>169</ele>
        <time>1970-01-01T03:57:26.000Z</time>
      </trkpt>
      <trkpt lat="42.213991" lon="2.796446">
        <ele>169</ele>
        <time>1970-01-01T03:57:27.000Z</time>
      </trkpt>
      <trkpt lat="42.213927" lon="2.796379">
        <ele>167</ele>
        <time>1970-01-01T03:57:29.000Z</time>
      </trkpt>
      <trkpt lat="42.213848" lon="2.79616">
        <ele>167</ele>
        <time>1970-01-01T03:57:30.000Z</time>
      </trkpt>
      <trkpt lat="42.213831" lon="2.796025">
        <ele>167</ele>
        <time>1970-01-01T03:57:31.000Z</time>
      </trkpt>
      <trkpt lat="42.213814" lon="2.795889">
        <ele>167</ele>
        <time>1970-01-01T03:57:33.000Z</time>
      </trkpt>
      <trkpt lat="42.213797" lon="2.795754">
        <ele>167</ele>
        <time>1970-01-01T03:57:34.000Z</time>
      </trkpt>
      <trkpt lat="42.213779" lon="2.795618">
        <ele>167</ele>
        <time>1970-01-01T03:57:35.000Z</time>
      </trkpt>
      <trkpt lat="42.213762" lon="2.795483">
        <ele>167</ele>
        <time>1970-01-01T03:57:36.000Z</time>
      </trkpt>
      <trkpt lat="42.213745" lon="2.795347">
        <ele>167</ele>
        <time>1970-01-01T03:57:37.000Z</time>
      </trkpt>
      <trkpt lat="42.213728" lon="2.795212">
        <ele>165</ele>
        <time>1970-01-01T03:57:39.000Z</time>
      </trkpt>
      <trkpt lat="42.213643" lon="2.794988">
        <ele>165</ele>
        <time>1970-01-01T03:57:40.000Z</time>
      </trkpt>
      <trkpt lat="42.21358" lon="2.794887">
        <ele>165</ele>
        <time>1970-01-01T03:57:41.000Z</time>
      </trkpt>
      <trkpt lat="42.213516" lon="2.794786">
        <ele>165</ele>
        <time>1970-01-01T03:57:42.000Z</time>
      </trkpt>
      <trkpt lat="42.213453" lon="2.794684">
        <ele>165</ele>
        <time>1970-01-01T03:57:44.000Z</time>
      </trkpt>
      <trkpt lat="42.21339" lon="2.794583">
        <ele>165</ele>
        <time>1970-01-01T03:57:45.000Z</time>
      </trkpt>
      <trkpt lat="42.213327" lon="2.794482">
        <ele>165</ele>
        <time>1970-01-01T03:57:46.000Z</time>
      </trkpt>
      <trkpt lat="42.213263" lon="2.794381">
        <ele>165</ele>
        <time>1970-01-01T03:57:48.000Z</time>
      </trkpt>
      <trkpt lat="42.2132" lon="2.79428">
        <ele>161</ele>
        <time>1970-01-01T03:57:49.000Z</time>
      </trkpt>
      <trkpt lat="42.213035" lon="2.794158">
        <ele>161</ele>
        <time>1970-01-01T03:57:50.000Z</time>
      </trkpt>
      <trkpt lat="42.212966" lon="2.794137">
        <ele>161</ele>
        <time>1970-01-01T03:57:51.000Z</time>
      </trkpt>
      <trkpt lat="42.212896" lon="2.794116">
        <ele>161</ele>
        <time>1970-01-01T03:57:54.000Z</time>
      </trkpt>
      <trkpt lat="42.212826" lon="2.794095">
        <ele>161</ele>
        <time>1970-01-01T03:57:55.000Z</time>
      </trkpt>
      <trkpt lat="42.212756" lon="2.794074">
        <ele>161</ele>
        <time>1970-01-01T03:57:57.000Z</time>
      </trkpt>
      <trkpt lat="42.212687" lon="2.794053">
        <ele>161</ele>
        <time>1970-01-01T03:57:58.000Z</time>
      </trkpt>
      <trkpt lat="42.212617" lon="2.794032">
        <ele>162</ele>
        <time>1970-01-01T03:57:59.000Z</time>
      </trkpt>
      <trkpt lat="42.212537" lon="2.794054">
        <ele>162</ele>
        <time>1970-01-01T03:58:00.000Z</time>
      </trkpt>
      <trkpt lat="42.212501" lon="2.794067">
        <ele>162</ele>
        <time>1970-01-01T03:58:01.000Z</time>
      </trkpt>
      <trkpt lat="42.212464" lon="2.794079">
        <ele>162</ele>
        <time>1970-01-01T03:58:02.000Z</time>
      </trkpt>
      <trkpt lat="42.212428" lon="2.794092">
        <ele>162</ele>
        <time>1970-01-01T03:58:03.000Z</time>
      </trkpt>
      <trkpt lat="42.212391" lon="2.794105">
        <ele>162</ele>
        <time>1970-01-01T03:58:04.000Z</time>
      </trkpt>
      <trkpt lat="42.212355" lon="2.794118">
        <ele>162</ele>
        <time>1970-01-01T03:58:05.000Z</time>
      </trkpt>
      <trkpt lat="42.212318" lon="2.79413">
        <ele>162</ele>
        <time>1970-01-01T03:58:07.000Z</time>
      </trkpt>
      <trkpt lat="42.212282" lon="2.794143">
        <ele>162</ele>
        <time>1970-01-01T03:58:08.000Z</time>
      </trkpt>
      <trkpt lat="42.212245" lon="2.794156">
        <ele>166</ele>
        <time>1970-01-01T03:58:09.000Z</time>
      </trkpt>
      <trkpt lat="42.212182" lon="2.79418">
        <ele>166</ele>
        <time>1970-01-01T03:58:10.000Z</time>
      </trkpt>
      <trkpt lat="42.212153" lon="2.794191">
        <ele>166</ele>
        <time>1970-01-01T03:58:11.000Z</time>
      </trkpt>
      <trkpt lat="42.212123" lon="2.794201">
        <ele>166</ele>
        <time>1970-01-01T03:58:12.000Z</time>
      </trkpt>
      <trkpt lat="42.212093" lon="2.794211">
        <ele>166</ele>
        <time>1970-01-01T03:58:13.000Z</time>
      </trkpt>
      <trkpt lat="42.212064" lon="2.794222">
        <ele>166</ele>
        <time>1970-01-01T03:58:14.000Z</time>
      </trkpt>
      <trkpt lat="42.212034" lon="2.794232">
        <ele>166</ele>
        <time>1970-01-01T03:58:15.000Z</time>
      </trkpt>
      <trkpt lat="42.212004" lon="2.794242">
        <ele>166</ele>
        <time>1970-01-01T03:58:16.000Z</time>
      </trkpt>
      <trkpt lat="42.211974" lon="2.794252">
        <ele>166</ele>
        <time>1970-01-01T03:58:17.000Z</time>
      </trkpt>
      <trkpt lat="42.211945" lon="2.794263">
        <ele>166</ele>
        <time>1970-01-01T03:58:18.000Z</time>
      </trkpt>
      <trkpt lat="42.211915" lon="2.794273">
        <ele>167</ele>
        <time>1970-01-01T03:58:19.000Z</time>
      </trkpt>
      <trkpt lat="42.211822" lon="2.794307">
        <ele>167</ele>
        <time>1970-01-01T03:58:21.000Z</time>
      </trkpt>
      <trkpt lat="42.211792" lon="2.794321">
        <ele>167</ele>
        <time>1970-01-01T03:58:22.000Z</time>
      </trkpt>
      <trkpt lat="42.211762" lon="2.794334">
        <ele>167</ele>
        <time>1970-01-01T03:58:23.000Z</time>
      </trkpt>
      <trkpt lat="42.211732" lon="2.794347">
        <ele>167</ele>
        <time>1970-01-01T03:58:25.000Z</time>
      </trkpt>
      <trkpt lat="42.211702" lon="2.79436">
        <ele>167</ele>
        <time>1970-01-01T03:58:26.000Z</time>
      </trkpt>
      <trkpt lat="42.211672" lon="2.794374">
        <ele>167</ele>
        <time>1970-01-01T03:58:27.000Z</time>
      </trkpt>
      <trkpt lat="42.211642" lon="2.794387">
        <ele>169</ele>
        <time>1970-01-01T03:58:29.000Z</time>
      </trkpt>
      <trkpt lat="42.211585" lon="2.794411">
        <ele>169</ele>
        <time>1970-01-01T03:58:30.000Z</time>
      </trkpt>
      <trkpt lat="42.211558" lon="2.794419">
        <ele>169</ele>
        <time>1970-01-01T03:58:31.000Z</time>
      </trkpt>
      <trkpt lat="42.211531" lon="2.794428">
        <ele>169</ele>
        <time>1970-01-01T03:58:32.000Z</time>
      </trkpt>
      <trkpt lat="42.211504" lon="2.794436">
        <ele>169</ele>
        <time>1970-01-01T03:58:33.000Z</time>
      </trkpt>
      <trkpt lat="42.211477" lon="2.794444">
        <ele>169</ele>
        <time>1970-01-01T03:58:34.000Z</time>
      </trkpt>
      <trkpt lat="42.21145" lon="2.794452">
        <ele>169</ele>
        <time>1970-01-01T03:58:35.000Z</time>
      </trkpt>
      <trkpt lat="42.211423" lon="2.79446">
        <ele>169</ele>
        <time>1970-01-01T03:58:36.000Z</time>
      </trkpt>
      <trkpt lat="42.211396" lon="2.794469">
        <ele>169</ele>
        <time>1970-01-01T03:58:37.000Z</time>
      </trkpt>
      <trkpt lat="42.211369" lon="2.794477">
        <ele>169</ele>
        <time>1970-01-01T03:58:38.000Z</time>
      </trkpt>
      <trkpt lat="42.211342" lon="2.794485">
        <ele>171</ele>
        <time>1970-01-01T03:58:39.000Z</time>
      </trkpt>
      <trkpt lat="42.211276" lon="2.794508">
        <ele>171</ele>
        <time>1970-01-01T03:58:40.000Z</time>
      </trkpt>
      <trkpt lat="42.211243" lon="2.794519">
        <ele>171</ele>
        <time>1970-01-01T03:58:41.000Z</time>
      </trkpt>
      <trkpt lat="42.211209" lon="2.79453">
        <ele>171</ele>
        <time>1970-01-01T03:58:43.000Z</time>
      </trkpt>
      <trkpt lat="42.211176" lon="2.794541">
        <ele>171</ele>
        <time>1970-01-01T03:58:44.000Z</time>
      </trkpt>
      <trkpt lat="42.211142" lon="2.794552">
        <ele>171</ele>
        <time>1970-01-01T03:58:45.000Z</time>
      </trkpt>
      <trkpt lat="42.211108" lon="2.794563">
        <ele>171</ele>
        <time>1970-01-01T03:58:46.000Z</time>
      </trkpt>
      <trkpt lat="42.211075" lon="2.794574">
        <ele>171</ele>
        <time>1970-01-01T03:58:47.000Z</time>
      </trkpt>
      <trkpt lat="42.211041" lon="2.794585">
        <ele>172</ele>
        <time>1970-01-01T03:58:49.000Z</time>
      </trkpt>
      <trkpt lat="42.210948" lon="2.794615">
        <ele>172</ele>
        <time>1970-01-01T03:58:50.000Z</time>
      </trkpt>
      <trkpt lat="42.210914" lon="2.794626">
        <ele>172</ele>
        <time>1970-01-01T03:58:52.000Z</time>
      </trkpt>
      <trkpt lat="42.21088" lon="2.794636">
        <ele>172</ele>
        <time>1970-01-01T03:58:53.000Z</time>
      </trkpt>
      <trkpt lat="42.210846" lon="2.794646">
        <ele>172</ele>
        <time>1970-01-01T03:58:55.000Z</time>
      </trkpt>
      <trkpt lat="42.210812" lon="2.794656">
        <ele>172</ele>
        <time>1970-01-01T03:58:56.000Z</time>
      </trkpt>
      <trkpt lat="42.210778" lon="2.794667">
        <ele>172</ele>
        <time>1970-01-01T03:58:58.000Z</time>
      </trkpt>
      <trkpt lat="42.210744" lon="2.794677">
        <ele>172</ele>
        <time>1970-01-01T03:58:59.000Z</time>
      </trkpt>
      <trkpt lat="42.210639" lon="2.794712">
        <ele>172</ele>
        <time>1970-01-01T03:59:01.000Z</time>
      </trkpt>
      <trkpt lat="42.210595" lon="2.794726">
        <ele>172</ele>
        <time>1970-01-01T03:59:02.000Z</time>
      </trkpt>
      <trkpt lat="42.210551" lon="2.79474">
        <ele>172</ele>
        <time>1970-01-01T03:59:04.000Z</time>
      </trkpt>
      <trkpt lat="42.210508" lon="2.794753">
        <ele>172</ele>
        <time>1970-01-01T03:59:05.000Z</time>
      </trkpt>
      <trkpt lat="42.210464" lon="2.794767">
        <ele>172</ele>
        <time>1970-01-01T03:59:07.000Z</time>
      </trkpt>
      <trkpt lat="42.21042" lon="2.794781">
        <ele>172</ele>
        <time>1970-01-01T03:59:08.000Z</time>
      </trkpt>
      <trkpt lat="42.210376" lon="2.794795">
        <ele>174</ele>
        <time>1970-01-01T03:59:10.000Z</time>
      </trkpt>
      <trkpt lat="42.210311" lon="2.794807">
        <ele>174</ele>
        <time>1970-01-01T03:59:11.000Z</time>
      </trkpt>
      <trkpt lat="42.210278" lon="2.794811">
        <ele>174</ele>
        <time>1970-01-01T03:59:13.000Z</time>
      </trkpt>
      <trkpt lat="42.210246" lon="2.794815">
        <ele>174</ele>
        <time>1970-01-01T03:59:14.000Z</time>
      </trkpt>
      <trkpt lat="42.210213" lon="2.79482">
        <ele>174</ele>
        <time>1970-01-01T03:59:15.000Z</time>
      </trkpt>
      <trkpt lat="42.210181" lon="2.794824">
        <ele>174</ele>
        <time>1970-01-01T03:59:16.000Z</time>
      </trkpt>
      <trkpt lat="42.210148" lon="2.794828">
        <ele>174</ele>
        <time>1970-01-01T03:59:17.000Z</time>
      </trkpt>
      <trkpt lat="42.210116" lon="2.794832">
        <ele>174</ele>
        <time>1970-01-01T03:59:18.000Z</time>
      </trkpt>
      <trkpt lat="42.210083" lon="2.794836">
        <ele>176</ele>
        <time>1970-01-01T03:59:19.000Z</time>
      </trkpt>
      <trkpt lat="42.210022" lon="2.794818">
        <ele>176</ele>
        <time>1970-01-01T03:59:20.000Z</time>
      </trkpt>
      <trkpt lat="42.209995" lon="2.794799">
        <ele>176</ele>
        <time>1970-01-01T03:59:21.000Z</time>
      </trkpt>
      <trkpt lat="42.209968" lon="2.79478">
        <ele>176</ele>
        <time>1970-01-01T03:59:22.000Z</time>
      </trkpt>
      <trkpt lat="42.209941" lon="2.794761">
        <ele>176</ele>
        <time>1970-01-01T03:59:24.000Z</time>
      </trkpt>
      <trkpt lat="42.209915" lon="2.794743">
        <ele>176</ele>
        <time>1970-01-01T03:59:25.000Z</time>
      </trkpt>
      <trkpt lat="42.209888" lon="2.794724">
        <ele>176</ele>
        <time>1970-01-01T03:59:26.000Z</time>
      </trkpt>
      <trkpt lat="42.209861" lon="2.794705">
        <ele>176</ele>
        <time>1970-01-01T03:59:27.000Z</time>
      </trkpt>
      <trkpt lat="42.209834" lon="2.794686">
        <ele>176</ele>
        <time>1970-01-01T03:59:28.000Z</time>
      </trkpt>
      <trkpt lat="42.209807" lon="2.794667">
        <ele>176</ele>
        <time>1970-01-01T03:59:29.000Z</time>
      </trkpt>
      <trkpt lat="42.209769" lon="2.794599">
        <ele>176</ele>
        <time>1970-01-01T03:59:30.000Z</time>
      </trkpt>
      <trkpt lat="42.209752" lon="2.79456">
        <ele>176</ele>
        <time>1970-01-01T03:59:31.000Z</time>
      </trkpt>
      <trkpt lat="42.209735" lon="2.794521">
        <ele>176</ele>
        <time>1970-01-01T03:59:33.000Z</time>
      </trkpt>
      <trkpt lat="42.209718" lon="2.794482">
        <ele>176</ele>
        <time>1970-01-01T03:59:34.000Z</time>
      </trkpt>
      <trkpt lat="42.2097" lon="2.794444">
        <ele>176</ele>
        <time>1970-01-01T03:59:36.000Z</time>
      </trkpt>
      <trkpt lat="42.209683" lon="2.794405">
        <ele>176</ele>
        <time>1970-01-01T03:59:37.000Z</time>
      </trkpt>
      <trkpt lat="42.209666" lon="2.794366">
        <ele>176</ele>
        <time>1970-01-01T03:59:38.000Z</time>
      </trkpt>
      <trkpt lat="42.209649" lon="2.794327">
        <ele>178</ele>
        <time>1970-01-01T03:59:39.000Z</time>
      </trkpt>
      <trkpt lat="42.209621" lon="2.794236">
        <ele>178</ele>
        <time>1970-01-01T03:59:40.000Z</time>
      </trkpt>
      <trkpt lat="42.209605" lon="2.794181">
        <ele>178</ele>
        <time>1970-01-01T03:59:41.000Z</time>
      </trkpt>
      <trkpt lat="42.20959" lon="2.794127">
        <ele>178</ele>
        <time>1970-01-01T03:59:43.000Z</time>
      </trkpt>
      <trkpt lat="42.209575" lon="2.794073">
        <ele>178</ele>
        <time>1970-01-01T03:59:44.000Z</time>
      </trkpt>
      <trkpt lat="42.20956" lon="2.794019">
        <ele>178</ele>
        <time>1970-01-01T03:59:46.000Z</time>
      </trkpt>
      <trkpt lat="42.209544" lon="2.793964">
        <ele>178</ele>
        <time>1970-01-01T03:59:47.000Z</time>
      </trkpt>
      <trkpt lat="42.209529" lon="2.79391">
        <ele>180</ele>
        <time>1970-01-01T03:59:49.000Z</time>
      </trkpt>
      <trkpt lat="42.209518" lon="2.793793">
        <ele>180</ele>
        <time>1970-01-01T03:59:50.000Z</time>
      </trkpt>
      <trkpt lat="42.20952" lon="2.793729">
        <ele>180</ele>
        <time>1970-01-01T03:59:51.000Z</time>
      </trkpt>
      <trkpt lat="42.209521" lon="2.793665">
        <ele>180</ele>
        <time>1970-01-01T03:59:52.000Z</time>
      </trkpt>
      <trkpt lat="42.209523" lon="2.793601">
        <ele>180</ele>
        <time>1970-01-01T03:59:53.000Z</time>
      </trkpt>
      <trkpt lat="42.209525" lon="2.793536">
        <ele>180</ele>
        <time>1970-01-01T03:59:55.000Z</time>
      </trkpt>
      <trkpt lat="42.209527" lon="2.793472">
        <ele>180</ele>
        <time>1970-01-01T03:59:56.000Z</time>
      </trkpt>
      <trkpt lat="42.209528" lon="2.793408">
        <ele>180</ele>
        <time>1970-01-01T03:59:57.000Z</time>
      </trkpt>
      <trkpt lat="42.20953" lon="2.793344">
        <ele>181</ele>
        <time>1970-01-01T03:59:59.000Z</time>
      </trkpt>
      <trkpt lat="42.209571" lon="2.793236">
        <ele>181</ele>
        <time>1970-01-01T04:00:00.000Z</time>
      </trkpt>
      <trkpt lat="42.209596" lon="2.793186">
        <ele>181</ele>
        <time>1970-01-01T04:00:01.000Z</time>
      </trkpt>
      <trkpt lat="42.20962" lon="2.793135">
        <ele>181</ele>
        <time>1970-01-01T04:00:02.000Z</time>
      </trkpt>
      <trkpt lat="42.209645" lon="2.793084">
        <ele>181</ele>
        <time>1970-01-01T04:00:03.000Z</time>
      </trkpt>
      <trkpt lat="42.209669" lon="2.793034">
        <ele>181</ele>
        <time>1970-01-01T04:00:04.000Z</time>
      </trkpt>
      <trkpt lat="42.209694" lon="2.792983">
        <ele>181</ele>
        <time>1970-01-01T04:00:05.000Z</time>
      </trkpt>
      <trkpt lat="42.209718" lon="2.792932">
        <ele>181</ele>
        <time>1970-01-01T04:00:07.000Z</time>
      </trkpt>
      <trkpt lat="42.209743" lon="2.792882">
        <ele>181</ele>
        <time>1970-01-01T04:00:08.000Z</time>
      </trkpt>
      <trkpt lat="42.209767" lon="2.792831">
        <ele>181</ele>
        <time>1970-01-01T04:00:09.000Z</time>
      </trkpt>
      <trkpt lat="42.209825" lon="2.792711">
        <ele>181</ele>
        <time>1970-01-01T04:00:10.000Z</time>
      </trkpt>
      <trkpt lat="42.209856" lon="2.792643">
        <ele>181</ele>
        <time>1970-01-01T04:00:12.000Z</time>
      </trkpt>
      <trkpt lat="42.209888" lon="2.792576">
        <ele>181</ele>
        <time>1970-01-01T04:00:14.000Z</time>
      </trkpt>
      <trkpt lat="42.20992" lon="2.792508">
        <ele>181</ele>
        <time>1970-01-01T04:00:15.000Z</time>
      </trkpt>
      <trkpt lat="42.209952" lon="2.792441">
        <ele>181</ele>
        <time>1970-01-01T04:00:17.000Z</time>
      </trkpt>
      <trkpt lat="42.209983" lon="2.792373">
        <ele>181</ele>
        <time>1970-01-01T04:00:18.000Z</time>
      </trkpt>
      <trkpt lat="42.210015" lon="2.792306">
        <ele>182</ele>
        <time>1970-01-01T04:00:19.000Z</time>
      </trkpt>
      <trkpt lat="42.210071" lon="2.792169">
        <ele>182</ele>
        <time>1970-01-01T04:00:20.000Z</time>
      </trkpt>
      <trkpt lat="42.210086" lon="2.792109">
        <ele>182</ele>
        <time>1970-01-01T04:00:21.000Z</time>
      </trkpt>
      <trkpt lat="42.210102" lon="2.79205">
        <ele>182</ele>
        <time>1970-01-01T04:00:22.000Z</time>
      </trkpt>
      <trkpt lat="42.210117" lon="2.79199">
        <ele>182</ele>
        <time>1970-01-01T04:00:23.000Z</time>
      </trkpt>
      <trkpt lat="42.210132" lon="2.791931">
        <ele>182</ele>
        <time>1970-01-01T04:00:24.000Z</time>
      </trkpt>
      <trkpt lat="42.210147" lon="2.791872">
        <ele>182</ele>
        <time>1970-01-01T04:00:25.000Z</time>
      </trkpt>
      <trkpt lat="42.210162" lon="2.791812">
        <ele>182</ele>
        <time>1970-01-01T04:00:26.000Z</time>
      </trkpt>
      <trkpt lat="42.210178" lon="2.791753">
        <ele>182</ele>
        <time>1970-01-01T04:00:27.000Z</time>
      </trkpt>
      <trkpt lat="42.210193" lon="2.791693">
        <ele>182</ele>
        <time>1970-01-01T04:00:28.000Z</time>
      </trkpt>
      <trkpt lat="42.210208" lon="2.791634">
        <ele>182</ele>
        <time>1970-01-01T04:00:29.000Z</time>
      </trkpt>
      <trkpt lat="42.210195" lon="2.791461">
        <ele>182</ele>
        <time>1970-01-01T04:00:30.000Z</time>
      </trkpt>
      <trkpt lat="42.210185" lon="2.791369">
        <ele>182</ele>
        <time>1970-01-01T04:00:32.000Z</time>
      </trkpt>
      <trkpt lat="42.210174" lon="2.791277">
        <ele>182</ele>
        <time>1970-01-01T04:00:34.000Z</time>
      </trkpt>
      <trkpt lat="42.210163" lon="2.791184">
        <ele>182</ele>
        <time>1970-01-01T04:00:35.000Z</time>
      </trkpt>
      <trkpt lat="42.210152" lon="2.791092">
        <ele>182</ele>
        <time>1970-01-01T04:00:36.000Z</time>
      </trkpt>
      <trkpt lat="42.210142" lon="2.791">
        <ele>182</ele>
        <time>1970-01-01T04:00:37.000Z</time>
      </trkpt>
      <trkpt lat="42.210131" lon="2.790908">
        <ele>182</ele>
        <time>1970-01-01T04:00:38.000Z</time>
      </trkpt>
      <trkpt lat="42.21012" lon="2.790816">
        <ele>182</ele>
        <time>1970-01-01T04:00:39.000Z</time>
      </trkpt>
      <trkpt lat="42.210096" lon="2.790663">
        <ele>182</ele>
        <time>1970-01-01T04:00:40.000Z</time>
      </trkpt>
      <trkpt lat="42.210084" lon="2.79059">
        <ele>182</ele>
        <time>1970-01-01T04:00:41.000Z</time>
      </trkpt>
      <trkpt lat="42.210071" lon="2.790517">
        <ele>182</ele>
        <time>1970-01-01T04:00:42.000Z</time>
      </trkpt>
      <trkpt lat="42.210059" lon="2.790444">
        <ele>182</ele>
        <time>1970-01-01T04:00:44.000Z</time>
      </trkpt>
      <trkpt lat="42.210047" lon="2.790371">
        <ele>182</ele>
        <time>1970-01-01T04:00:45.000Z</time>
      </trkpt>
      <trkpt lat="42.210035" lon="2.790298">
        <ele>182</ele>
        <time>1970-01-01T04:00:46.000Z</time>
      </trkpt>
      <trkpt lat="42.210022" lon="2.790225">
        <ele>182</ele>
        <time>1970-01-01T04:00:47.000Z</time>
      </trkpt>
      <trkpt lat="42.21001" lon="2.790152">
        <ele>182</ele>
        <time>1970-01-01T04:00:48.000Z</time>
      </trkpt>
      <trkpt lat="42.209998" lon="2.790079">
        <ele>182</ele>
        <time>1970-01-01T04:00:49.000Z</time>
      </trkpt>
      <trkpt lat="42.209936" lon="2.789931">
        <ele>182</ele>
        <time>1970-01-01T04:00:50.000Z</time>
      </trkpt>
      <trkpt lat="42.209899" lon="2.789891">
        <ele>182</ele>
        <time>1970-01-01T04:00:51.000Z</time>
      </trkpt>
      <trkpt lat="42.209863" lon="2.789852">
        <ele>182</ele>
        <time>1970-01-01T04:00:52.000Z</time>
      </trkpt>
      <trkpt lat="42.209827" lon="2.789813">
        <ele>182</ele>
        <time>1970-01-01T04:00:53.000Z</time>
      </trkpt>
      <trkpt lat="42.20979" lon="2.789773">
        <ele>182</ele>
        <time>1970-01-01T04:00:54.000Z</time>
      </trkpt>
      <trkpt lat="42.209754" lon="2.789734">
        <ele>182</ele>
        <time>1970-01-01T04:00:55.000Z</time>
      </trkpt>
      <trkpt lat="42.209718" lon="2.789695">
        <ele>182</ele>
        <time>1970-01-01T04:00:56.000Z</time>
      </trkpt>
      <trkpt lat="42.209681" lon="2.789655">
        <ele>182</ele>
        <time>1970-01-01T04:00:58.000Z</time>
      </trkpt>
      <trkpt lat="42.209645" lon="2.789616">
        <ele>183</ele>
        <time>1970-01-01T04:00:59.000Z</time>
      </trkpt>
      <trkpt lat="42.209556" lon="2.789586">
        <ele>183</ele>
        <time>1970-01-01T04:01:00.000Z</time>
      </trkpt>
      <trkpt lat="42.209514" lon="2.789574">
        <ele>183</ele>
        <time>1970-01-01T04:01:01.000Z</time>
      </trkpt>
      <trkpt lat="42.209471" lon="2.789563">
        <ele>183</ele>
        <time>1970-01-01T04:01:03.000Z</time>
      </trkpt>
      <trkpt lat="42.209428" lon="2.789551">
        <ele>183</ele>
        <time>1970-01-01T04:01:04.000Z</time>
      </trkpt>
      <trkpt lat="42.209386" lon="2.789539">
        <ele>183</ele>
        <time>1970-01-01T04:01:05.000Z</time>
      </trkpt>
      <trkpt lat="42.209343" lon="2.789527">
        <ele>183</ele>
        <time>1970-01-01T04:01:06.000Z</time>
      </trkpt>
      <trkpt lat="42.2093" lon="2.789516">
        <ele>183</ele>
        <time>1970-01-01T04:01:07.000Z</time>
      </trkpt>
      <trkpt lat="42.209258" lon="2.789504">
        <ele>183</ele>
        <time>1970-01-01T04:01:08.000Z</time>
      </trkpt>
      <trkpt lat="42.209215" lon="2.789492">
        <ele>185</ele>
        <time>1970-01-01T04:01:09.000Z</time>
      </trkpt>
      <trkpt lat="42.209141" lon="2.789455">
        <ele>185</ele>
        <time>1970-01-01T04:01:10.000Z</time>
      </trkpt>
      <trkpt lat="42.209107" lon="2.789431">
        <ele>185</ele>
        <time>1970-01-01T04:01:11.000Z</time>
      </trkpt>
      <trkpt lat="42.209072" lon="2.789406">
        <ele>185</ele>
        <time>1970-01-01T04:01:13.000Z</time>
      </trkpt>
      <trkpt lat="42.209038" lon="2.789381">
        <ele>185</ele>
        <time>1970-01-01T04:01:14.000Z</time>
      </trkpt>
      <trkpt lat="42.209003" lon="2.789357">
        <ele>185</ele>
        <time>1970-01-01T04:01:15.000Z</time>
      </trkpt>
      <trkpt lat="42.208969" lon="2.789332">
        <ele>185</ele>
        <time>1970-01-01T04:01:16.000Z</time>
      </trkpt>
      <trkpt lat="42.208934" lon="2.789307">
        <ele>185</ele>
        <time>1970-01-01T04:01:17.000Z</time>
      </trkpt>
      <trkpt lat="42.2089" lon="2.789283">
        <ele>185</ele>
        <time>1970-01-01T04:01:18.000Z</time>
      </trkpt>
      <trkpt lat="42.208865" lon="2.789258">
        <ele>186</ele>
        <time>1970-01-01T04:01:19.000Z</time>
      </trkpt>
      <trkpt lat="42.20881" lon="2.789183">
        <ele>186</ele>
        <time>1970-01-01T04:01:20.000Z</time>
      </trkpt>
      <trkpt lat="42.208785" lon="2.789143">
        <ele>186</ele>
        <time>1970-01-01T04:01:21.000Z</time>
      </trkpt>
      <trkpt lat="42.20876" lon="2.789102">
        <ele>186</ele>
        <time>1970-01-01T04:01:22.000Z</time>
      </trkpt>
      <trkpt lat="42.208735" lon="2.789061">
        <ele>186</ele>
        <time>1970-01-01T04:01:24.000Z</time>
      </trkpt>
      <trkpt lat="42.208709" lon="2.789021">
        <ele>186</ele>
        <time>1970-01-01T04:01:25.000Z</time>
      </trkpt>
      <trkpt lat="42.208684" lon="2.78898">
        <ele>186</ele>
        <time>1970-01-01T04:01:26.000Z</time>
      </trkpt>
      <trkpt lat="42.208659" lon="2.788939">
        <ele>186</ele>
        <time>1970-01-01T04:01:27.000Z</time>
      </trkpt>
      <trkpt lat="42.208634" lon="2.788899">
        <ele>186</ele>
        <time>1970-01-01T04:01:28.000Z</time>
      </trkpt>
      <trkpt lat="42.208609" lon="2.788858">
        <ele>188</ele>
        <time>1970-01-01T04:01:29.000Z</time>
      </trkpt>
      <trkpt lat="42.208573" lon="2.788778">
        <ele>188</ele>
        <time>1970-01-01T04:01:30.000Z</time>
      </trkpt>
      <trkpt lat="42.208558" lon="2.788735">
        <ele>188</ele>
        <time>1970-01-01T04:01:31.000Z</time>
      </trkpt>
      <trkpt lat="42.208544" lon="2.788691">
        <ele>188</ele>
        <time>1970-01-01T04:01:32.000Z</time>
      </trkpt>
      <trkpt lat="42.208529" lon="2.788648">
        <ele>188</ele>
        <time>1970-01-01T04:01:33.000Z</time>
      </trkpt>
      <trkpt lat="42.208515" lon="2.788605">
        <ele>188</ele>
        <time>1970-01-01T04:01:34.000Z</time>
      </trkpt>
      <trkpt lat="42.208501" lon="2.788562">
        <ele>188</ele>
        <time>1970-01-01T04:01:35.000Z</time>
      </trkpt>
      <trkpt lat="42.208486" lon="2.788519">
        <ele>188</ele>
        <time>1970-01-01T04:01:36.000Z</time>
      </trkpt>
      <trkpt lat="42.208472" lon="2.788475">
        <ele>188</ele>
        <time>1970-01-01T04:01:37.000Z</time>
      </trkpt>
      <trkpt lat="42.208457" lon="2.788432">
        <ele>188</ele>
        <time>1970-01-01T04:01:38.000Z</time>
      </trkpt>
      <trkpt lat="42.208443" lon="2.788389">
        <ele>189</ele>
        <time>1970-01-01T04:01:39.000Z</time>
      </trkpt>
      <trkpt lat="42.208434" lon="2.788281">
        <ele>189</ele>
        <time>1970-01-01T04:01:40.000Z</time>
      </trkpt>
      <trkpt lat="42.208431" lon="2.788226">
        <ele>189</ele>
        <time>1970-01-01T04:01:41.000Z</time>
      </trkpt>
      <trkpt lat="42.208428" lon="2.788172">
        <ele>189</ele>
        <time>1970-01-01T04:01:43.000Z</time>
      </trkpt>
      <trkpt lat="42.208425" lon="2.788117">
        <ele>189</ele>
        <time>1970-01-01T04:01:44.000Z</time>
      </trkpt>
      <trkpt lat="42.208422" lon="2.788062">
        <ele>189</ele>
        <time>1970-01-01T04:01:45.000Z</time>
      </trkpt>
      <trkpt lat="42.208419" lon="2.788007">
        <ele>189</ele>
        <time>1970-01-01T04:01:46.000Z</time>
      </trkpt>
      <trkpt lat="42.208416" lon="2.787953">
        <ele>189</ele>
        <time>1970-01-01T04:01:47.000Z</time>
      </trkpt>
      <trkpt lat="42.208413" lon="2.787898">
        <ele>189</ele>
        <time>1970-01-01T04:01:48.000Z</time>
      </trkpt>
      <trkpt lat="42.20841" lon="2.787843">
        <ele>190</ele>
        <time>1970-01-01T04:01:49.000Z</time>
      </trkpt>
      <trkpt lat="42.208406" lon="2.787733">
        <ele>190</ele>
        <time>1970-01-01T04:01:50.000Z</time>
      </trkpt>
      <trkpt lat="42.208405" lon="2.78768">
        <ele>190</ele>
        <time>1970-01-01T04:01:51.000Z</time>
      </trkpt>
      <trkpt lat="42.208403" lon="2.787626">
        <ele>190</ele>
        <time>1970-01-01T04:01:52.000Z</time>
      </trkpt>
      <trkpt lat="42.208402" lon="2.787573">
        <ele>190</ele>
        <time>1970-01-01T04:01:53.000Z</time>
      </trkpt>
      <trkpt lat="42.208401" lon="2.78752">
        <ele>190</ele>
        <time>1970-01-01T04:01:55.000Z</time>
      </trkpt>
      <trkpt lat="42.2084" lon="2.787467">
        <ele>190</ele>
        <time>1970-01-01T04:01:56.000Z</time>
      </trkpt>
      <trkpt lat="42.208398" lon="2.787413">
        <ele>190</ele>
        <time>1970-01-01T04:01:57.000Z</time>
      </trkpt>
      <trkpt lat="42.208397" lon="2.78736">
        <ele>190</ele>
        <time>1970-01-01T04:01:58.000Z</time>
      </trkpt>
      <trkpt lat="42.208396" lon="2.787307">
        <ele>191</ele>
        <time>1970-01-01T04:01:59.000Z</time>
      </trkpt>
      <trkpt lat="42.208385" lon="2.787219">
        <ele>191</ele>
        <time>1970-01-01T04:02:00.000Z</time>
      </trkpt>
      <trkpt lat="42.208376" lon="2.787159">
        <ele>191</ele>
        <time>1970-01-01T04:02:01.000Z</time>
      </trkpt>
      <trkpt lat="42.208367" lon="2.7871">
        <ele>191</ele>
        <time>1970-01-01T04:02:02.000Z</time>
      </trkpt>
      <trkpt lat="42.208358" lon="2.787041">
        <ele>191</ele>
        <time>1970-01-01T04:02:03.000Z</time>
      </trkpt>
      <trkpt lat="42.20835" lon="2.786981">
        <ele>191</ele>
        <time>1970-01-01T04:02:04.000Z</time>
      </trkpt>
      <trkpt lat="42.208341" lon="2.786922">
        <ele>191</ele>
        <time>1970-01-01T04:02:06.000Z</time>
      </trkpt>
      <trkpt lat="42.208332" lon="2.786863">
        <ele>191</ele>
        <time>1970-01-01T04:02:07.000Z</time>
      </trkpt>
      <trkpt lat="42.208323" lon="2.786803">
        <ele>191</ele>
        <time>1970-01-01T04:02:08.000Z</time>
      </trkpt>
      <trkpt lat="42.208314" lon="2.786744">
        <ele>191</ele>
        <time>1970-01-01T04:02:09.000Z</time>
      </trkpt>
      <trkpt lat="42.208262" lon="2.786646">
        <ele>191</ele>
        <time>1970-01-01T04:02:10.000Z</time>
      </trkpt>
      <trkpt lat="42.208238" lon="2.786623">
        <ele>191</ele>
        <time>1970-01-01T04:02:11.000Z</time>
      </trkpt>
      <trkpt lat="42.208215" lon="2.7866">
        <ele>191</ele>
        <time>1970-01-01T04:02:12.000Z</time>
      </trkpt>
      <trkpt lat="42.208191" lon="2.786577">
        <ele>191</ele>
        <time>1970-01-01T04:02:13.000Z</time>
      </trkpt>
      <trkpt lat="42.208168" lon="2.786554">
        <ele>191</ele>
        <time>1970-01-01T04:02:14.000Z</time>
      </trkpt>
      <trkpt lat="42.208144" lon="2.786531">
        <ele>191</ele>
        <time>1970-01-01T04:02:15.000Z</time>
      </trkpt>
      <trkpt lat="42.208121" lon="2.786508">
        <ele>191</ele>
        <time>1970-01-01T04:02:16.000Z</time>
      </trkpt>
      <trkpt lat="42.208097" lon="2.786485">
        <ele>191</ele>
        <time>1970-01-01T04:02:17.000Z</time>
      </trkpt>
      <trkpt lat="42.208074" lon="2.786462">
        <ele>191</ele>
        <time>1970-01-01T04:02:18.000Z</time>
      </trkpt>
      <trkpt lat="42.20805" lon="2.786439">
        <ele>193</ele>
        <time>1970-01-01T04:02:19.000Z</time>
      </trkpt>
      <trkpt lat="42.20801" lon="2.786424">
        <ele>193</ele>
        <time>1970-01-01T04:02:20.000Z</time>
      </trkpt>
      <trkpt lat="42.207983" lon="2.786416">
        <ele>193</ele>
        <time>1970-01-01T04:02:21.000Z</time>
      </trkpt>
      <trkpt lat="42.207957" lon="2.786407">
        <ele>193</ele>
        <time>1970-01-01T04:02:22.000Z</time>
      </trkpt>
      <trkpt lat="42.207931" lon="2.786398">
        <ele>193</ele>
        <time>1970-01-01T04:02:23.000Z</time>
      </trkpt>
      <trkpt lat="42.207905" lon="2.786389">
        <ele>193</ele>
        <time>1970-01-01T04:02:24.000Z</time>
      </trkpt>
      <trkpt lat="42.207878" lon="2.786381">
        <ele>193</ele>
        <time>1970-01-01T04:02:25.000Z</time>
      </trkpt>
      <trkpt lat="42.207852" lon="2.786372">
        <ele>193</ele>
        <time>1970-01-01T04:02:26.000Z</time>
      </trkpt>
      <trkpt lat="42.207826" lon="2.786363">
        <ele>193</ele>
        <time>1970-01-01T04:02:27.000Z</time>
      </trkpt>
      <trkpt lat="42.207799" lon="2.786355">
        <ele>193</ele>
        <time>1970-01-01T04:02:28.000Z</time>
      </trkpt>
      <trkpt lat="42.207773" lon="2.786346">
        <ele>195</ele>
        <time>1970-01-01T04:02:29.000Z</time>
      </trkpt>
      <trkpt lat="42.20773" lon="2.786336">
        <ele>195</ele>
        <time>1970-01-01T04:02:30.000Z</time>
      </trkpt>
      <trkpt lat="42.207702" lon="2.786328">
        <ele>195</ele>
        <time>1970-01-01T04:02:31.000Z</time>
      </trkpt>
      <trkpt lat="42.207674" lon="2.786321">
        <ele>195</ele>
        <time>1970-01-01T04:02:32.000Z</time>
      </trkpt>
      <trkpt lat="42.207646" lon="2.786313">
        <ele>195</ele>
        <time>1970-01-01T04:02:33.000Z</time>
      </trkpt>
      <trkpt lat="42.207619" lon="2.786305">
        <ele>195</ele>
        <time>1970-01-01T04:02:35.000Z</time>
      </trkpt>
      <trkpt lat="42.207591" lon="2.786297">
        <ele>195</ele>
        <time>1970-01-01T04:02:36.000Z</time>
      </trkpt>
      <trkpt lat="42.207563" lon="2.78629">
        <ele>195</ele>
        <time>1970-01-01T04:02:37.000Z</time>
      </trkpt>
      <trkpt lat="42.207535" lon="2.786282">
        <ele>195</ele>
        <time>1970-01-01T04:02:38.000Z</time>
      </trkpt>
      <trkpt lat="42.207507" lon="2.786274">
        <ele>197</ele>
        <time>1970-01-01T04:02:39.000Z</time>
      </trkpt>
      <trkpt lat="42.207456" lon="2.786251">
        <ele>197</ele>
        <time>1970-01-01T04:02:40.000Z</time>
      </trkpt>
      <trkpt lat="42.207432" lon="2.786238">
        <ele>197</ele>
        <time>1970-01-01T04:02:41.000Z</time>
      </trkpt>
      <trkpt lat="42.207407" lon="2.786226">
        <ele>197</ele>
        <time>1970-01-01T04:02:42.000Z</time>
      </trkpt>
      <trkpt lat="42.207383" lon="2.786213">
        <ele>197</ele>
        <time>1970-01-01T04:02:43.000Z</time>
      </trkpt>
      <trkpt lat="42.207359" lon="2.7862">
        <ele>197</ele>
        <time>1970-01-01T04:02:44.000Z</time>
      </trkpt>
      <trkpt lat="42.207335" lon="2.786187">
        <ele>197</ele>
        <time>1970-01-01T04:02:45.000Z</time>
      </trkpt>
      <trkpt lat="42.207311" lon="2.786174">
        <ele>197</ele>
        <time>1970-01-01T04:02:46.000Z</time>
      </trkpt>
      <trkpt lat="42.207286" lon="2.786162">
        <ele>197</ele>
        <time>1970-01-01T04:02:47.000Z</time>
      </trkpt>
      <trkpt lat="42.207262" lon="2.786149">
        <ele>197</ele>
        <time>1970-01-01T04:02:48.000Z</time>
      </trkpt>
      <trkpt lat="42.207238" lon="2.786136">
        <ele>198</ele>
        <time>1970-01-01T04:02:49.000Z</time>
      </trkpt>
      <trkpt lat="42.207183" lon="2.786099">
        <ele>198</ele>
        <time>1970-01-01T04:02:50.000Z</time>
      </trkpt>
      <trkpt lat="42.207155" lon="2.786079">
        <ele>198</ele>
        <time>1970-01-01T04:02:51.000Z</time>
      </trkpt>
      <trkpt lat="42.207126" lon="2.786059">
        <ele>198</ele>
        <time>1970-01-01T04:02:52.000Z</time>
      </trkpt>
      <trkpt lat="42.207098" lon="2.786039">
        <ele>198</ele>
        <time>1970-01-01T04:02:53.000Z</time>
      </trkpt>
      <trkpt lat="42.20707" lon="2.78602">
        <ele>198</ele>
        <time>1970-01-01T04:02:55.000Z</time>
      </trkpt>
      <trkpt lat="42.207042" lon="2.786">
        <ele>198</ele>
        <time>1970-01-01T04:02:57.000Z</time>
      </trkpt>
      <trkpt lat="42.207013" lon="2.78598">
        <ele>198</ele>
        <time>1970-01-01T04:02:58.000Z</time>
      </trkpt>
      <trkpt lat="42.206985" lon="2.78596">
        <ele>199</ele>
        <time>1970-01-01T04:02:59.000Z</time>
      </trkpt>
      <trkpt lat="42.206934" lon="2.785915">
        <ele>199</ele>
        <time>1970-01-01T04:03:00.000Z</time>
      </trkpt>
      <trkpt lat="42.206907" lon="2.785888">
        <ele>199</ele>
        <time>1970-01-01T04:03:01.000Z</time>
      </trkpt>
      <trkpt lat="42.20688" lon="2.785861">
        <ele>199</ele>
        <time>1970-01-01T04:03:02.000Z</time>
      </trkpt>
      <trkpt lat="42.206853" lon="2.785834">
        <ele>199</ele>
        <time>1970-01-01T04:03:03.000Z</time>
      </trkpt>
      <trkpt lat="42.206825" lon="2.785808">
        <ele>199</ele>
        <time>1970-01-01T04:03:04.000Z</time>
      </trkpt>
      <trkpt lat="42.206798" lon="2.785781">
        <ele>199</ele>
        <time>1970-01-01T04:03:05.000Z</time>
      </trkpt>
      <trkpt lat="42.206771" lon="2.785754">
        <ele>199</ele>
        <time>1970-01-01T04:03:06.000Z</time>
      </trkpt>
      <trkpt lat="42.206744" lon="2.785727">
        <ele>199</ele>
        <time>1970-01-01T04:03:07.000Z</time>
      </trkpt>
      <trkpt lat="42.206717" lon="2.7857">
        <ele>202</ele>
        <time>1970-01-01T04:03:09.000Z</time>
      </trkpt>
      <trkpt lat="42.206675" lon="2.785573">
        <ele>202</ele>
        <time>1970-01-01T04:03:11.000Z</time>
      </trkpt>
      <trkpt lat="42.206662" lon="2.785483">
        <ele>202</ele>
        <time>1970-01-01T04:03:12.000Z</time>
      </trkpt>
      <trkpt lat="42.206648" lon="2.785393">
        <ele>202</ele>
        <time>1970-01-01T04:03:13.000Z</time>
      </trkpt>
      <trkpt lat="42.206634" lon="2.785304">
        <ele>202</ele>
        <time>1970-01-01T04:03:15.000Z</time>
      </trkpt>
      <trkpt lat="42.20662" lon="2.785214">
        <ele>202</ele>
        <time>1970-01-01T04:03:17.000Z</time>
      </trkpt>
      <trkpt lat="42.206607" lon="2.785124">
        <ele>202</ele>
        <time>1970-01-01T04:03:18.000Z</time>
      </trkpt>
      <trkpt lat="42.206593" lon="2.785034">
        <ele>201</ele>
        <time>1970-01-01T04:03:20.000Z</time>
      </trkpt>
      <trkpt lat="42.206653" lon="2.784906">
        <ele>201</ele>
        <time>1970-01-01T04:03:21.000Z</time>
      </trkpt>
      <trkpt lat="42.206692" lon="2.784846">
        <ele>201</ele>
        <time>1970-01-01T04:03:22.000Z</time>
      </trkpt>
      <trkpt lat="42.20673" lon="2.784787">
        <ele>201</ele>
        <time>1970-01-01T04:03:23.000Z</time>
      </trkpt>
      <trkpt lat="42.206769" lon="2.784727">
        <ele>201</ele>
        <time>1970-01-01T04:03:24.000Z</time>
      </trkpt>
      <trkpt lat="42.206807" lon="2.784667">
        <ele>201</ele>
        <time>1970-01-01T04:03:25.000Z</time>
      </trkpt>
      <trkpt lat="42.206846" lon="2.784607">
        <ele>201</ele>
        <time>1970-01-01T04:03:26.000Z</time>
      </trkpt>
      <trkpt lat="42.206884" lon="2.784548">
        <ele>201</ele>
        <time>1970-01-01T04:03:27.000Z</time>
      </trkpt>
      <trkpt lat="42.206923" lon="2.784488">
        <ele>201</ele>
        <time>1970-01-01T04:03:28.000Z</time>
      </trkpt>
      <trkpt lat="42.206961" lon="2.784428">
        <ele>200</ele>
        <time>1970-01-01T04:03:29.000Z</time>
      </trkpt>
      <trkpt lat="42.207016" lon="2.784278">
        <ele>200</ele>
        <time>1970-01-01T04:03:30.000Z</time>
      </trkpt>
      <trkpt lat="42.20703" lon="2.784197">
        <ele>200</ele>
        <time>1970-01-01T04:03:31.000Z</time>
      </trkpt>
      <trkpt lat="42.207043" lon="2.784117">
        <ele>200</ele>
        <time>1970-01-01T04:03:32.000Z</time>
      </trkpt>
      <trkpt lat="42.207057" lon="2.784036">
        <ele>200</ele>
        <time>1970-01-01T04:03:33.000Z</time>
      </trkpt>
      <trkpt lat="42.207071" lon="2.783956">
        <ele>200</ele>
        <time>1970-01-01T04:03:34.000Z</time>
      </trkpt>
      <trkpt lat="42.207085" lon="2.783875">
        <ele>200</ele>
        <time>1970-01-01T04:03:35.000Z</time>
      </trkpt>
      <trkpt lat="42.207099" lon="2.783795">
        <ele>200</ele>
        <time>1970-01-01T04:03:36.000Z</time>
      </trkpt>
      <trkpt lat="42.207112" lon="2.783714">
        <ele>200</ele>
        <time>1970-01-01T04:03:37.000Z</time>
      </trkpt>
      <trkpt lat="42.207126" lon="2.783634">
        <ele>200</ele>
        <time>1970-01-01T04:03:38.000Z</time>
      </trkpt>
      <trkpt lat="42.20714" lon="2.783553">
        <ele>200</ele>
        <time>1970-01-01T04:03:39.000Z</time>
      </trkpt>
      <trkpt lat="42.207095" lon="2.783376">
        <ele>200</ele>
        <time>1970-01-01T04:03:40.000Z</time>
      </trkpt>
      <trkpt lat="42.207062" lon="2.78329">
        <ele>200</ele>
        <time>1970-01-01T04:03:42.000Z</time>
      </trkpt>
      <trkpt lat="42.207028" lon="2.783203">
        <ele>200</ele>
        <time>1970-01-01T04:03:43.000Z</time>
      </trkpt>
      <trkpt lat="42.206995" lon="2.783117">
        <ele>200</ele>
        <time>1970-01-01T04:03:45.000Z</time>
      </trkpt>
      <trkpt lat="42.206961" lon="2.78303">
        <ele>200</ele>
        <time>1970-01-01T04:03:46.000Z</time>
      </trkpt>
      <trkpt lat="42.206927" lon="2.782944">
        <ele>200</ele>
        <time>1970-01-01T04:03:48.000Z</time>
      </trkpt>
      <trkpt lat="42.206894" lon="2.782857">
        <ele>200</ele>
        <time>1970-01-01T04:03:49.000Z</time>
      </trkpt>
      <trkpt lat="42.20686" lon="2.782771">
        <ele>199</ele>
        <time>1970-01-01T04:03:50.000Z</time>
      </trkpt>
      <trkpt lat="42.206771" lon="2.782701">
        <ele>199</ele>
        <time>1970-01-01T04:03:51.000Z</time>
      </trkpt>
      <trkpt lat="42.206738" lon="2.782692">
        <ele>199</ele>
        <time>1970-01-01T04:03:52.000Z</time>
      </trkpt>
      <trkpt lat="42.206705" lon="2.782682">
        <ele>199</ele>
        <time>1970-01-01T04:03:53.000Z</time>
      </trkpt>
      <trkpt lat="42.206672" lon="2.782673">
        <ele>199</ele>
        <time>1970-01-01T04:03:54.000Z</time>
      </trkpt>
      <trkpt lat="42.206639" lon="2.782664">
        <ele>199</ele>
        <time>1970-01-01T04:03:55.000Z</time>
      </trkpt>
      <trkpt lat="42.206606" lon="2.782655">
        <ele>199</ele>
        <time>1970-01-01T04:03:56.000Z</time>
      </trkpt>
      <trkpt lat="42.206573" lon="2.782645">
        <ele>199</ele>
        <time>1970-01-01T04:03:57.000Z</time>
      </trkpt>
      <trkpt lat="42.20654" lon="2.782636">
        <ele>199</ele>
        <time>1970-01-01T04:03:58.000Z</time>
      </trkpt>
      <trkpt lat="42.206507" lon="2.782627">
        <ele>199</ele>
        <time>1970-01-01T04:03:59.000Z</time>
      </trkpt>
      <trkpt lat="42.206451" lon="2.782628">
        <ele>199</ele>
        <time>1970-01-01T04:04:00.000Z</time>
      </trkpt>
      <trkpt lat="42.206416" lon="2.782628">
        <ele>199</ele>
        <time>1970-01-01T04:04:01.000Z</time>
      </trkpt>
      <trkpt lat="42.20638" lon="2.782629">
        <ele>199</ele>
        <time>1970-01-01T04:04:02.000Z</time>
      </trkpt>
      <trkpt lat="42.206345" lon="2.78263">
        <ele>199</ele>
        <time>1970-01-01T04:04:03.000Z</time>
      </trkpt>
      <trkpt lat="42.20631" lon="2.782631">
        <ele>199</ele>
        <time>1970-01-01T04:04:04.000Z</time>
      </trkpt>
      <trkpt lat="42.206275" lon="2.782631">
        <ele>199</ele>
        <time>1970-01-01T04:04:05.000Z</time>
      </trkpt>
      <trkpt lat="42.20624" lon="2.782632">
        <ele>199</ele>
        <time>1970-01-01T04:04:06.000Z</time>
      </trkpt>
      <trkpt lat="42.206204" lon="2.782633">
        <ele>199</ele>
        <time>1970-01-01T04:04:07.000Z</time>
      </trkpt>
      <trkpt lat="42.206169" lon="2.782633">
        <ele>199</ele>
        <time>1970-01-01T04:04:08.000Z</time>
      </trkpt>
      <trkpt lat="42.206134" lon="2.782634">
        <ele>203</ele>
        <time>1970-01-01T04:04:09.000Z</time>
      </trkpt>
      <trkpt lat="42.206064" lon="2.782616">
        <ele>203</ele>
        <time>1970-01-01T04:04:10.000Z</time>
      </trkpt>
      <trkpt lat="42.206034" lon="2.782601">
        <ele>203</ele>
        <time>1970-01-01T04:04:11.000Z</time>
      </trkpt>
      <trkpt lat="42.206003" lon="2.782585">
        <ele>203</ele>
        <time>1970-01-01T04:04:12.000Z</time>
      </trkpt>
      <trkpt lat="42.205972" lon="2.782569">
        <ele>203</ele>
        <time>1970-01-01T04:04:13.000Z</time>
      </trkpt>
      <trkpt lat="42.205942" lon="2.782553">
        <ele>203</ele>
        <time>1970-01-01T04:04:14.000Z</time>
      </trkpt>
      <trkpt lat="42.205911" lon="2.782538">
        <ele>203</ele>
        <time>1970-01-01T04:04:15.000Z</time>
      </trkpt>
      <trkpt lat="42.20588" lon="2.782522">
        <ele>203</ele>
        <time>1970-01-01T04:04:16.000Z</time>
      </trkpt>
      <trkpt lat="42.205849" lon="2.782506">
        <ele>203</ele>
        <time>1970-01-01T04:04:17.000Z</time>
      </trkpt>
      <trkpt lat="42.205819" lon="2.782491">
        <ele>203</ele>
        <time>1970-01-01T04:04:18.000Z</time>
      </trkpt>
      <trkpt lat="42.205788" lon="2.782475">
        <ele>204</ele>
        <time>1970-01-01T04:04:19.000Z</time>
      </trkpt>
      <trkpt lat="42.205747" lon="2.782388">
        <ele>204</ele>
        <time>1970-01-01T04:04:20.000Z</time>
      </trkpt>
      <trkpt lat="42.205731" lon="2.782338">
        <ele>204</ele>
        <time>1970-01-01T04:04:21.000Z</time>
      </trkpt>
      <trkpt lat="42.205716" lon="2.782288">
        <ele>204</ele>
        <time>1970-01-01T04:04:22.000Z</time>
      </trkpt>
      <trkpt lat="42.2057" lon="2.782238">
        <ele>204</ele>
        <time>1970-01-01T04:04:23.000Z</time>
      </trkpt>
      <trkpt lat="42.205685" lon="2.782188">
        <ele>204</ele>
        <time>1970-01-01T04:04:24.000Z</time>
      </trkpt>
      <trkpt lat="42.205669" lon="2.782138">
        <ele>204</ele>
        <time>1970-01-01T04:04:25.000Z</time>
      </trkpt>
      <trkpt lat="42.205654" lon="2.782088">
        <ele>204</ele>
        <time>1970-01-01T04:04:26.000Z</time>
      </trkpt>
      <trkpt lat="42.205638" lon="2.782038">
        <ele>204</ele>
        <time>1970-01-01T04:04:27.000Z</time>
      </trkpt>
      <trkpt lat="42.205623" lon="2.781988">
        <ele>204</ele>
        <time>1970-01-01T04:04:28.000Z</time>
      </trkpt>
      <trkpt lat="42.205607" lon="2.781938">
        <ele>206</ele>
        <time>1970-01-01T04:04:29.000Z</time>
      </trkpt>
      <trkpt lat="42.205583" lon="2.781842">
        <ele>206</ele>
        <time>1970-01-01T04:04:30.000Z</time>
      </trkpt>
      <trkpt lat="42.205572" lon="2.781796">
        <ele>206</ele>
        <time>1970-01-01T04:04:31.000Z</time>
      </trkpt>
      <trkpt lat="42.20556" lon="2.781749">
        <ele>206</ele>
        <time>1970-01-01T04:04:32.000Z</time>
      </trkpt>
      <trkpt lat="42.205549" lon="2.781703">
        <ele>206</ele>
        <time>1970-01-01T04:04:33.000Z</time>
      </trkpt>
      <trkpt lat="42.205538" lon="2.781656">
        <ele>206</ele>
        <time>1970-01-01T04:04:34.000Z</time>
      </trkpt>
      <trkpt lat="42.205527" lon="2.78161">
        <ele>206</ele>
        <time>1970-01-01T04:04:36.000Z</time>
      </trkpt>
      <trkpt lat="42.205516" lon="2.781563">
        <ele>206</ele>
        <time>1970-01-01T04:04:37.000Z</time>
      </trkpt>
      <trkpt lat="42.205504" lon="2.781517">
        <ele>206</ele>
        <time>1970-01-01T04:04:38.000Z</time>
      </trkpt>
      <trkpt lat="42.205493" lon="2.78147">
        <ele>206</ele>
        <time>1970-01-01T04:04:39.000Z</time>
      </trkpt>
      <trkpt lat="42.205482" lon="2.781424">
        <ele>208</ele>
        <time>1970-01-01T04:04:40.000Z</time>
      </trkpt>
      <trkpt lat="42.205458" lon="2.781313">
        <ele>208</ele>
        <time>1970-01-01T04:04:41.000Z</time>
      </trkpt>
      <trkpt lat="42.205451" lon="2.78127">
        <ele>208</ele>
        <time>1970-01-01T04:04:42.000Z</time>
      </trkpt>
      <trkpt lat="42.205444" lon="2.781228">
        <ele>208</ele>
        <time>1970-01-01T04:04:43.000Z</time>
      </trkpt>
      <trkpt lat="42.205437" lon="2.781185">
        <ele>208</ele>
        <time>1970-01-01T04:04:44.000Z</time>
      </trkpt>
      <trkpt lat="42.205429" lon="2.781142">
        <ele>208</ele>
        <time>1970-01-01T04:04:45.000Z</time>
      </trkpt>
      <trkpt lat="42.205422" lon="2.781099">
        <ele>208</ele>
        <time>1970-01-01T04:04:46.000Z</time>
      </trkpt>
      <trkpt lat="42.205415" lon="2.781057">
        <ele>208</ele>
        <time>1970-01-01T04:04:47.000Z</time>
      </trkpt>
      <trkpt lat="42.205408" lon="2.781014">
        <ele>208</ele>
        <time>1970-01-01T04:04:48.000Z</time>
      </trkpt>
      <trkpt lat="42.205401" lon="2.780971">
        <ele>209</ele>
        <time>1970-01-01T04:04:49.000Z</time>
      </trkpt>
      <trkpt lat="42.205455" lon="2.780837">
        <ele>209</ele>
        <time>1970-01-01T04:04:51.000Z</time>
      </trkpt>
      <trkpt lat="42.205492" lon="2.780808">
        <ele>209</ele>
        <time>1970-01-01T04:04:53.000Z</time>
      </trkpt>
      <trkpt lat="42.205529" lon="2.780778">
        <ele>209</ele>
        <time>1970-01-01T04:04:54.000Z</time>
      </trkpt>
      <trkpt lat="42.205567" lon="2.780749">
        <ele>209</ele>
        <time>1970-01-01T04:04:55.000Z</time>
      </trkpt>
      <trkpt lat="42.205604" lon="2.78072">
        <ele>209</ele>
        <time>1970-01-01T04:04:56.000Z</time>
      </trkpt>
      <trkpt lat="42.205641" lon="2.780691">
        <ele>209</ele>
        <time>1970-01-01T04:04:57.000Z</time>
      </trkpt>
      <trkpt lat="42.205678" lon="2.780661">
        <ele>209</ele>
        <time>1970-01-01T04:04:58.000Z</time>
      </trkpt>
      <trkpt lat="42.205715" lon="2.780632">
        <ele>209</ele>
        <time>1970-01-01T04:04:59.000Z</time>
      </trkpt>
      <trkpt lat="42.205813" lon="2.780552">
        <ele>209</ele>
        <time>1970-01-01T04:05:00.000Z</time>
      </trkpt>
      <trkpt lat="42.20586" lon="2.780499">
        <ele>209</ele>
        <time>1970-01-01T04:05:01.000Z</time>
      </trkpt>
      <trkpt lat="42.205906" lon="2.780447">
        <ele>209</ele>
        <time>1970-01-01T04:05:02.000Z</time>
      </trkpt>
      <trkpt lat="42.205953" lon="2.780394">
        <ele>209</ele>
        <time>1970-01-01T04:05:03.000Z</time>
      </trkpt>
      <trkpt lat="42.206" lon="2.780342">
        <ele>209</ele>
        <time>1970-01-01T04:05:05.000Z</time>
      </trkpt>
      <trkpt lat="42.206047" lon="2.780289">
        <ele>209</ele>
        <time>1970-01-01T04:05:06.000Z</time>
      </trkpt>
      <trkpt lat="42.206093" lon="2.780237">
        <ele>209</ele>
        <time>1970-01-01T04:05:07.000Z</time>
      </trkpt>
      <trkpt lat="42.20614" lon="2.780184">
        <ele>209</ele>
        <time>1970-01-01T04:05:08.000Z</time>
      </trkpt>
      <trkpt lat="42.206187" lon="2.780132">
        <ele>208</ele>
        <time>1970-01-01T04:05:09.000Z</time>
      </trkpt>
      <trkpt lat="42.206203" lon="2.779966">
        <ele>208</ele>
        <time>1970-01-01T04:05:10.000Z</time>
      </trkpt>
      <trkpt lat="42.206188" lon="2.77988">
        <ele>208</ele>
        <time>1970-01-01T04:05:11.000Z</time>
      </trkpt>
      <trkpt lat="42.206174" lon="2.779793">
        <ele>208</ele>
        <time>1970-01-01T04:05:12.000Z</time>
      </trkpt>
      <trkpt lat="42.206159" lon="2.779707">
        <ele>208</ele>
        <time>1970-01-01T04:05:13.000Z</time>
      </trkpt>
      <trkpt lat="42.206144" lon="2.77962">
        <ele>208</ele>
        <time>1970-01-01T04:05:14.000Z</time>
      </trkpt>
      <trkpt lat="42.206129" lon="2.779533">
        <ele>208</ele>
        <time>1970-01-01T04:05:15.000Z</time>
      </trkpt>
      <trkpt lat="42.206114" lon="2.779447">
        <ele>208</ele>
        <time>1970-01-01T04:05:16.000Z</time>
      </trkpt>
      <trkpt lat="42.2061" lon="2.77936">
        <ele>208</ele>
        <time>1970-01-01T04:05:17.000Z</time>
      </trkpt>
      <trkpt lat="42.206085" lon="2.779274">
        <ele>208</ele>
        <time>1970-01-01T04:05:18.000Z</time>
      </trkpt>
      <trkpt lat="42.20607" lon="2.779187">
        <ele>206</ele>
        <time>1970-01-01T04:05:19.000Z</time>
      </trkpt>
      <trkpt lat="42.206006" lon="2.778999">
        <ele>206</ele>
        <time>1970-01-01T04:05:20.000Z</time>
      </trkpt>
      <trkpt lat="42.206002" lon="2.778879">
        <ele>206</ele>
        <time>1970-01-01T04:05:21.000Z</time>
      </trkpt>
      <trkpt lat="42.205998" lon="2.77876">
        <ele>206</ele>
        <time>1970-01-01T04:05:22.000Z</time>
      </trkpt>
      <trkpt lat="42.205994" lon="2.77864">
        <ele>206</ele>
        <time>1970-01-01T04:05:24.000Z</time>
      </trkpt>
      <trkpt lat="42.20599" lon="2.77852">
        <ele>206</ele>
        <time>1970-01-01T04:05:25.000Z</time>
      </trkpt>
      <trkpt lat="42.205986" lon="2.7784">
        <ele>206</ele>
        <time>1970-01-01T04:05:26.000Z</time>
      </trkpt>
      <trkpt lat="42.205982" lon="2.778281">
        <ele>206</ele>
        <time>1970-01-01T04:05:27.000Z</time>
      </trkpt>
      <trkpt lat="42.205978" lon="2.778161">
        <ele>206</ele>
        <time>1970-01-01T04:05:28.000Z</time>
      </trkpt>
      <trkpt lat="42.205974" lon="2.778041">
        <ele>203</ele>
        <time>1970-01-01T04:05:30.000Z</time>
      </trkpt>
      <trkpt lat="42.206022" lon="2.777925">
        <ele>203</ele>
        <time>1970-01-01T04:05:31.000Z</time>
      </trkpt>
      <trkpt lat="42.206082" lon="2.777813">
        <ele>203</ele>
        <time>1970-01-01T04:05:32.000Z</time>
      </trkpt>
      <trkpt lat="42.20615" lon="2.777705">
        <ele>203</ele>
        <time>1970-01-01T04:05:33.000Z</time>
      </trkpt>
      <trkpt lat="42.206216" lon="2.777591">
        <ele>203</ele>
        <time>1970-01-01T04:05:34.000Z</time>
      </trkpt>
      <trkpt lat="42.206283" lon="2.777476">
        <ele>203</ele>
        <time>1970-01-01T04:05:35.000Z</time>
      </trkpt>
      <trkpt lat="42.206351" lon="2.77736">
        <ele>203</ele>
        <time>1970-01-01T04:05:36.000Z</time>
      </trkpt>
      <trkpt lat="42.20642" lon="2.777242">
        <ele>203</ele>
        <time>1970-01-01T04:05:37.000Z</time>
      </trkpt>
      <trkpt lat="42.206488" lon="2.777121">
        <ele>203</ele>
        <time>1970-01-01T04:05:38.000Z</time>
      </trkpt>
      <trkpt lat="42.206624" lon="2.776871">
        <ele>196</ele>
        <time>1970-01-01T04:05:40.000Z</time>
      </trkpt>
      <trkpt lat="42.206692" lon="2.776746">
        <ele>196</ele>
        <time>1970-01-01T04:05:41.000Z</time>
      </trkpt>
      <trkpt lat="42.206764" lon="2.776622">
        <ele>196</ele>
        <time>1970-01-01T04:05:43.000Z</time>
      </trkpt>
      <trkpt lat="42.206909" lon="2.77637">
        <ele>196</ele>
        <time>1970-01-01T04:05:44.000Z</time>
      </trkpt>
      <trkpt lat="42.206982" lon="2.776242">
        <ele>196</ele>
        <time>1970-01-01T04:05:45.000Z</time>
      </trkpt>
      <trkpt lat="42.207053" lon="2.776115">
        <ele>196</ele>
        <time>1970-01-01T04:05:46.000Z</time>
      </trkpt>
      <trkpt lat="42.207119" lon="2.775986">
        <ele>196</ele>
        <time>1970-01-01T04:05:47.000Z</time>
      </trkpt>
      <trkpt lat="42.207178" lon="2.775855">
        <ele>196</ele>
        <time>1970-01-01T04:05:48.000Z</time>
      </trkpt>
      <trkpt lat="42.207205" lon="2.775789">
        <ele>192</ele>
        <time>1970-01-01T04:05:49.000Z</time>
      </trkpt>
      <trkpt lat="42.207231" lon="2.775722">
        <ele>192</ele>
        <time>1970-01-01T04:05:50.000Z</time>
      </trkpt>
      <trkpt lat="42.207273" lon="2.775588">
        <ele>192</ele>
        <time>1970-01-01T04:05:51.000Z</time>
      </trkpt>
      <trkpt lat="42.207304" lon="2.775455">
        <ele>192</ele>
        <time>1970-01-01T04:05:52.000Z</time>
      </trkpt>
      <trkpt lat="42.20733" lon="2.775193">
        <ele>192</ele>
        <time>1970-01-01T04:05:53.000Z</time>
      </trkpt>
      <trkpt lat="42.207311" lon="2.775058">
        <ele>192</ele>
        <time>1970-01-01T04:05:54.000Z</time>
      </trkpt>
      <trkpt lat="42.207282" lon="2.774933">
        <ele>192</ele>
        <time>1970-01-01T04:05:55.000Z</time>
      </trkpt>
      <trkpt lat="42.207227" lon="2.77482">
        <ele>192</ele>
        <time>1970-01-01T04:05:56.000Z</time>
      </trkpt>
      <trkpt lat="42.207159" lon="2.774714">
        <ele>192</ele>
        <time>1970-01-01T04:05:58.000Z</time>
      </trkpt>
      <trkpt lat="42.207088" lon="2.774617">
        <ele>190</ele>
        <time>1970-01-01T04:05:59.000Z</time>
      </trkpt>
      <trkpt lat="42.207016" lon="2.774521">
        <ele>190</ele>
        <time>1970-01-01T04:06:00.000Z</time>
      </trkpt>
      <trkpt lat="42.206945" lon="2.774426">
        <ele>190</ele>
        <time>1970-01-01T04:06:01.000Z</time>
      </trkpt>
      <trkpt lat="42.206802" lon="2.774229">
        <ele>190</ele>
        <time>1970-01-01T04:06:02.000Z</time>
      </trkpt>
      <trkpt lat="42.206733" lon="2.774134">
        <ele>190</ele>
        <time>1970-01-01T04:06:04.000Z</time>
      </trkpt>
      <trkpt lat="42.206663" lon="2.774038">
        <ele>190</ele>
        <time>1970-01-01T04:06:05.000Z</time>
      </trkpt>
      <trkpt lat="42.206595" lon="2.773943">
        <ele>190</ele>
        <time>1970-01-01T04:06:06.000Z</time>
      </trkpt>
      <trkpt lat="42.206529" lon="2.773849">
        <ele>190</ele>
        <time>1970-01-01T04:06:07.000Z</time>
      </trkpt>
      <trkpt lat="42.206465" lon="2.77376">
        <ele>190</ele>
        <time>1970-01-01T04:06:08.000Z</time>
      </trkpt>
      <trkpt lat="42.206404" lon="2.773679">
        <ele>186</ele>
        <time>1970-01-01T04:06:09.000Z</time>
      </trkpt>
      <trkpt lat="42.206342" lon="2.773599">
        <ele>186</ele>
        <time>1970-01-01T04:06:10.000Z</time>
      </trkpt>
      <trkpt lat="42.206283" lon="2.773519">
        <ele>186</ele>
        <time>1970-01-01T04:06:11.000Z</time>
      </trkpt>
      <trkpt lat="42.206229" lon="2.773443">
        <ele>186</ele>
        <time>1970-01-01T04:06:12.000Z</time>
      </trkpt>
      <trkpt lat="42.206169" lon="2.773355">
        <ele>186</ele>
        <time>1970-01-01T04:06:13.000Z</time>
      </trkpt>
      <trkpt lat="42.206049" lon="2.773185">
        <ele>186</ele>
        <time>1970-01-01T04:06:14.000Z</time>
      </trkpt>
      <trkpt lat="42.205992" lon="2.773103">
        <ele>186</ele>
        <time>1970-01-01T04:06:15.000Z</time>
      </trkpt>
      <trkpt lat="42.205936" lon="2.773024">
        <ele>186</ele>
        <time>1970-01-01T04:06:16.000Z</time>
      </trkpt>
      <trkpt lat="42.20588" lon="2.772948">
        <ele>186</ele>
        <time>1970-01-01T04:06:17.000Z</time>
      </trkpt>
      <trkpt lat="42.205825" lon="2.772875">
        <ele>186</ele>
        <time>1970-01-01T04:06:18.000Z</time>
      </trkpt>
      <trkpt lat="42.205726" lon="2.772743">
        <ele>185</ele>
        <time>1970-01-01T04:06:20.000Z</time>
      </trkpt>
      <trkpt lat="42.205652" lon="2.772613">
        <ele>185</ele>
        <time>1970-01-01T04:06:21.000Z</time>
      </trkpt>
      <trkpt lat="42.205627" lon="2.77255">
        <ele>185</ele>
        <time>1970-01-01T04:06:22.000Z</time>
      </trkpt>
      <trkpt lat="42.205601" lon="2.772486">
        <ele>185</ele>
        <time>1970-01-01T04:06:23.000Z</time>
      </trkpt>
      <trkpt lat="42.205576" lon="2.772422">
        <ele>185</ele>
        <time>1970-01-01T04:06:24.000Z</time>
      </trkpt>
      <trkpt lat="42.205551" lon="2.772359">
        <ele>185</ele>
        <time>1970-01-01T04:06:25.000Z</time>
      </trkpt>
      <trkpt lat="42.205526" lon="2.772295">
        <ele>185</ele>
        <time>1970-01-01T04:06:27.000Z</time>
      </trkpt>
      <trkpt lat="42.2055" lon="2.772232">
        <ele>185</ele>
        <time>1970-01-01T04:06:28.000Z</time>
      </trkpt>
      <trkpt lat="42.205475" lon="2.772168">
        <ele>185</ele>
        <time>1970-01-01T04:06:29.000Z</time>
      </trkpt>
      <trkpt lat="42.205485" lon="2.772025">
        <ele>185</ele>
        <time>1970-01-01T04:06:30.000Z</time>
      </trkpt>
      <trkpt lat="42.205487" lon="2.771951">
        <ele>185</ele>
        <time>1970-01-01T04:06:31.000Z</time>
      </trkpt>
      <trkpt lat="42.20549" lon="2.771878">
        <ele>185</ele>
        <time>1970-01-01T04:06:32.000Z</time>
      </trkpt>
      <trkpt lat="42.205493" lon="2.771805">
        <ele>185</ele>
        <time>1970-01-01T04:06:33.000Z</time>
      </trkpt>
      <trkpt lat="42.205496" lon="2.771732">
        <ele>185</ele>
        <time>1970-01-01T04:06:34.000Z</time>
      </trkpt>
      <trkpt lat="42.205498" lon="2.771658">
        <ele>185</ele>
        <time>1970-01-01T04:06:35.000Z</time>
      </trkpt>
      <trkpt lat="42.205501" lon="2.771585">
        <ele>185</ele>
        <time>1970-01-01T04:06:36.000Z</time>
      </trkpt>
      <trkpt lat="42.205504" lon="2.771512">
        <ele>185</ele>
        <time>1970-01-01T04:06:37.000Z</time>
      </trkpt>
      <trkpt lat="42.205506" lon="2.771438">
        <ele>185</ele>
        <time>1970-01-01T04:06:38.000Z</time>
      </trkpt>
      <trkpt lat="42.205509" lon="2.771365">
        <ele>189</ele>
        <time>1970-01-01T04:06:40.000Z</time>
      </trkpt>
      <trkpt lat="42.205513" lon="2.771219">
        <ele>189</ele>
        <time>1970-01-01T04:06:41.000Z</time>
      </trkpt>
      <trkpt lat="42.205515" lon="2.77115">
        <ele>189</ele>
        <time>1970-01-01T04:06:42.000Z</time>
      </trkpt>
      <trkpt lat="42.205517" lon="2.77108">
        <ele>189</ele>
        <time>1970-01-01T04:06:43.000Z</time>
      </trkpt>
      <trkpt lat="42.205519" lon="2.771011">
        <ele>189</ele>
        <time>1970-01-01T04:06:44.000Z</time>
      </trkpt>
      <trkpt lat="42.205522" lon="2.770941">
        <ele>189</ele>
        <time>1970-01-01T04:06:45.000Z</time>
      </trkpt>
      <trkpt lat="42.205524" lon="2.770872">
        <ele>189</ele>
        <time>1970-01-01T04:06:46.000Z</time>
      </trkpt>
      <trkpt lat="42.205526" lon="2.770802">
        <ele>189</ele>
        <time>1970-01-01T04:06:47.000Z</time>
      </trkpt>
      <trkpt lat="42.205528" lon="2.770733">
        <ele>189</ele>
        <time>1970-01-01T04:06:48.000Z</time>
      </trkpt>
      <trkpt lat="42.20553" lon="2.770663">
        <ele>189</ele>
        <time>1970-01-01T04:06:49.000Z</time>
      </trkpt>
      <trkpt lat="42.205534" lon="2.770498">
        <ele>189</ele>
        <time>1970-01-01T04:06:50.000Z</time>
      </trkpt>
      <trkpt lat="42.205535" lon="2.770416">
        <ele>189</ele>
        <time>1970-01-01T04:06:51.000Z</time>
      </trkpt>
      <trkpt lat="42.205537" lon="2.770333">
        <ele>189</ele>
        <time>1970-01-01T04:06:52.000Z</time>
      </trkpt>
      <trkpt lat="42.205539" lon="2.770251">
        <ele>189</ele>
        <time>1970-01-01T04:06:54.000Z</time>
      </trkpt>
      <trkpt lat="42.20554" lon="2.770168">
        <ele>189</ele>
        <time>1970-01-01T04:06:55.000Z</time>
      </trkpt>
      <trkpt lat="42.205542" lon="2.770086">
        <ele>189</ele>
        <time>1970-01-01T04:06:56.000Z</time>
      </trkpt>
      <trkpt lat="42.205544" lon="2.770003">
        <ele>189</ele>
        <time>1970-01-01T04:06:57.000Z</time>
      </trkpt>
      <trkpt lat="42.205545" lon="2.769921">
        <ele>189</ele>
        <time>1970-01-01T04:06:58.000Z</time>
      </trkpt>
      <trkpt lat="42.205547" lon="2.769838">
        <ele>189</ele>
        <time>1970-01-01T04:06:59.000Z</time>
      </trkpt>
      <trkpt lat="42.205552" lon="2.769588">
        <ele>189</ele>
        <time>1970-01-01T04:07:00.000Z</time>
      </trkpt>
      <trkpt lat="42.205554" lon="2.769479">
        <ele>189</ele>
        <time>1970-01-01T04:07:02.000Z</time>
      </trkpt>
      <trkpt lat="42.205557" lon="2.76937">
        <ele>189</ele>
        <time>1970-01-01T04:07:03.000Z</time>
      </trkpt>
      <trkpt lat="42.205559" lon="2.769262">
        <ele>189</ele>
        <time>1970-01-01T04:07:05.000Z</time>
      </trkpt>
      <trkpt lat="42.205562" lon="2.769153">
        <ele>189</ele>
        <time>1970-01-01T04:07:06.000Z</time>
      </trkpt>
      <trkpt lat="42.205564" lon="2.769044">
        <ele>189</ele>
        <time>1970-01-01T04:07:07.000Z</time>
      </trkpt>
      <trkpt lat="42.205567" lon="2.768935">
        <ele>189</ele>
        <time>1970-01-01T04:07:08.000Z</time>
      </trkpt>
      <trkpt lat="42.205569" lon="2.768826">
        <ele>189</ele>
        <time>1970-01-01T04:07:09.000Z</time>
      </trkpt>
      <trkpt lat="42.20557" lon="2.768769">
        <ele>189</ele>
        <time>1970-01-01T04:07:10.000Z</time>
      </trkpt>
      <trkpt lat="42.205573" lon="2.768654">
        <ele>189</ele>
        <time>1970-01-01T04:07:11.000Z</time>
      </trkpt>
      <trkpt lat="42.205576" lon="2.768538">
        <ele>189</ele>
        <time>1970-01-01T04:07:12.000Z</time>
      </trkpt>
      <trkpt lat="42.205579" lon="2.768419">
        <ele>189</ele>
        <time>1970-01-01T04:07:13.000Z</time>
      </trkpt>
      <trkpt lat="42.205583" lon="2.768177">
        <ele>189</ele>
        <time>1970-01-01T04:07:14.000Z</time>
      </trkpt>
      <trkpt lat="42.205586" lon="2.768054">
        <ele>189</ele>
        <time>1970-01-01T04:07:15.000Z</time>
      </trkpt>
      <trkpt lat="42.205589" lon="2.767931">
        <ele>189</ele>
        <time>1970-01-01T04:07:16.000Z</time>
      </trkpt>
      <trkpt lat="42.205592" lon="2.767808">
        <ele>189</ele>
        <time>1970-01-01T04:07:18.000Z</time>
      </trkpt>
      <trkpt lat="42.205596" lon="2.767684">
        <ele>189</ele>
        <time>1970-01-01T04:07:19.000Z</time>
      </trkpt>
      <trkpt lat="42.205601" lon="2.767494">
        <ele>185</ele>
        <time>1970-01-01T04:07:20.000Z</time>
      </trkpt>
      <trkpt lat="42.205609" lon="2.767175">
        <ele>185</ele>
        <time>1970-01-01T04:07:21.000Z</time>
      </trkpt>
      <trkpt lat="42.205612" lon="2.767046">
        <ele>185</ele>
        <time>1970-01-01T04:07:22.000Z</time>
      </trkpt>
      <trkpt lat="42.205614" lon="2.766916">
        <ele>185</ele>
        <time>1970-01-01T04:07:23.000Z</time>
      </trkpt>
      <trkpt lat="42.205617" lon="2.766787">
        <ele>185</ele>
        <time>1970-01-01T04:07:24.000Z</time>
      </trkpt>
      <trkpt lat="42.20562" lon="2.766658">
        <ele>185</ele>
        <time>1970-01-01T04:07:25.000Z</time>
      </trkpt>
      <trkpt lat="42.205623" lon="2.766529">
        <ele>185</ele>
        <time>1970-01-01T04:07:26.000Z</time>
      </trkpt>
      <trkpt lat="42.205625" lon="2.766399">
        <ele>185</ele>
        <time>1970-01-01T04:07:27.000Z</time>
      </trkpt>
      <trkpt lat="42.205628" lon="2.76627">
        <ele>185</ele>
        <time>1970-01-01T04:07:28.000Z</time>
      </trkpt>
      <trkpt lat="42.205631" lon="2.766141">
        <ele>183</ele>
        <time>1970-01-01T04:07:30.000Z</time>
      </trkpt>
      <trkpt lat="42.205636" lon="2.765898">
        <ele>183</ele>
        <time>1970-01-01T04:07:31.000Z</time>
      </trkpt>
      <trkpt lat="42.205639" lon="2.765781">
        <ele>183</ele>
        <time>1970-01-01T04:07:32.000Z</time>
      </trkpt>
      <trkpt lat="42.205642" lon="2.765664">
        <ele>183</ele>
        <time>1970-01-01T04:07:33.000Z</time>
      </trkpt>
      <trkpt lat="42.205645" lon="2.765548">
        <ele>183</ele>
        <time>1970-01-01T04:07:34.000Z</time>
      </trkpt>
      <trkpt lat="42.205648" lon="2.765431">
        <ele>183</ele>
        <time>1970-01-01T04:07:36.000Z</time>
      </trkpt>
      <trkpt lat="42.205651" lon="2.765314">
        <ele>183</ele>
        <time>1970-01-01T04:07:37.000Z</time>
      </trkpt>
      <trkpt lat="42.205654" lon="2.765197">
        <ele>183</ele>
        <time>1970-01-01T04:07:38.000Z</time>
      </trkpt>
      <trkpt lat="42.205657" lon="2.76508">
        <ele>181</ele>
        <time>1970-01-01T04:07:39.000Z</time>
      </trkpt>
      <trkpt lat="42.205664" lon="2.764863">
        <ele>181</ele>
        <time>1970-01-01T04:07:40.000Z</time>
      </trkpt>
      <trkpt lat="42.205667" lon="2.764759">
        <ele>181</ele>
        <time>1970-01-01T04:07:42.000Z</time>
      </trkpt>
      <trkpt lat="42.205671" lon="2.764655">
        <ele>181</ele>
        <time>1970-01-01T04:07:43.000Z</time>
      </trkpt>
      <trkpt lat="42.205674" lon="2.764551">
        <ele>181</ele>
        <time>1970-01-01T04:07:44.000Z</time>
      </trkpt>
      <trkpt lat="42.205677" lon="2.764446">
        <ele>181</ele>
        <time>1970-01-01T04:07:45.000Z</time>
      </trkpt>
      <trkpt lat="42.20568" lon="2.764342">
        <ele>181</ele>
        <time>1970-01-01T04:07:46.000Z</time>
      </trkpt>
      <trkpt lat="42.205684" lon="2.764238">
        <ele>181</ele>
        <time>1970-01-01T04:07:47.000Z</time>
      </trkpt>
      <trkpt lat="42.205687" lon="2.764134">
        <ele>181</ele>
        <time>1970-01-01T04:07:48.000Z</time>
      </trkpt>
      <trkpt lat="42.20569" lon="2.76403">
        <ele>181</ele>
        <time>1970-01-01T04:07:49.000Z</time>
      </trkpt>
      <trkpt lat="42.205697" lon="2.763753">
        <ele>181</ele>
        <time>1970-01-01T04:07:50.000Z</time>
      </trkpt>
      <trkpt lat="42.2057" lon="2.763638">
        <ele>181</ele>
        <time>1970-01-01T04:07:52.000Z</time>
      </trkpt>
      <trkpt lat="42.205704" lon="2.763522">
        <ele>181</ele>
        <time>1970-01-01T04:07:53.000Z</time>
      </trkpt>
      <trkpt lat="42.205708" lon="2.763406">
        <ele>181</ele>
        <time>1970-01-01T04:07:54.000Z</time>
      </trkpt>
      <trkpt lat="42.205711" lon="2.76329">
        <ele>181</ele>
        <time>1970-01-01T04:07:56.000Z</time>
      </trkpt>
      <trkpt lat="42.205715" lon="2.763175">
        <ele>181</ele>
        <time>1970-01-01T04:07:57.000Z</time>
      </trkpt>
      <trkpt lat="42.205718" lon="2.763059">
        <ele>181</ele>
        <time>1970-01-01T04:07:58.000Z</time>
      </trkpt>
      <trkpt lat="42.205722" lon="2.762943">
        <ele>182</ele>
        <time>1970-01-01T04:07:59.000Z</time>
      </trkpt>
      <trkpt lat="42.205726" lon="2.762749">
        <ele>182</ele>
        <time>1970-01-01T04:08:00.000Z</time>
      </trkpt>
      <trkpt lat="42.205729" lon="2.762657">
        <ele>182</ele>
        <time>1970-01-01T04:08:02.000Z</time>
      </trkpt>
      <trkpt lat="42.205731" lon="2.762565">
        <ele>182</ele>
        <time>1970-01-01T04:08:03.000Z</time>
      </trkpt>
      <trkpt lat="42.205734" lon="2.762473">
        <ele>182</ele>
        <time>1970-01-01T04:08:04.000Z</time>
      </trkpt>
      <trkpt lat="42.205737" lon="2.76238">
        <ele>182</ele>
        <time>1970-01-01T04:08:05.000Z</time>
      </trkpt>
      <trkpt lat="42.20574" lon="2.762288">
        <ele>182</ele>
        <time>1970-01-01T04:08:06.000Z</time>
      </trkpt>
      <trkpt lat="42.205742" lon="2.762196">
        <ele>182</ele>
        <time>1970-01-01T04:08:07.000Z</time>
      </trkpt>
      <trkpt lat="42.205745" lon="2.762104">
        <ele>182</ele>
        <time>1970-01-01T04:08:08.000Z</time>
      </trkpt>
      <trkpt lat="42.205748" lon="2.762012">
        <ele>182</ele>
        <time>1970-01-01T04:08:09.000Z</time>
      </trkpt>
      <trkpt lat="42.205754" lon="2.761849">
        <ele>182</ele>
        <time>1970-01-01T04:08:10.000Z</time>
      </trkpt>
      <trkpt lat="42.205757" lon="2.761771">
        <ele>182</ele>
        <time>1970-01-01T04:08:11.000Z</time>
      </trkpt>
      <trkpt lat="42.20576" lon="2.761692">
        <ele>182</ele>
        <time>1970-01-01T04:08:12.000Z</time>
      </trkpt>
      <trkpt lat="42.205763" lon="2.761614">
        <ele>182</ele>
        <time>1970-01-01T04:08:13.000Z</time>
      </trkpt>
      <trkpt lat="42.205767" lon="2.761535">
        <ele>182</ele>
        <time>1970-01-01T04:08:15.000Z</time>
      </trkpt>
      <trkpt lat="42.20577" lon="2.761457">
        <ele>182</ele>
        <time>1970-01-01T04:08:16.000Z</time>
      </trkpt>
      <trkpt lat="42.205773" lon="2.761378">
        <ele>182</ele>
        <time>1970-01-01T04:08:17.000Z</time>
      </trkpt>
      <trkpt lat="42.205776" lon="2.7613">
        <ele>182</ele>
        <time>1970-01-01T04:08:18.000Z</time>
      </trkpt>
      <trkpt lat="42.205779" lon="2.761221">
        <ele>183</ele>
        <time>1970-01-01T04:08:19.000Z</time>
      </trkpt>
      <trkpt lat="42.205784" lon="2.761075">
        <ele>183</ele>
        <time>1970-01-01T04:08:20.000Z</time>
      </trkpt>
      <trkpt lat="42.205786" lon="2.761006">
        <ele>183</ele>
        <time>1970-01-01T04:08:21.000Z</time>
      </trkpt>
      <trkpt lat="42.205788" lon="2.760938">
        <ele>183</ele>
        <time>1970-01-01T04:08:22.000Z</time>
      </trkpt>
      <trkpt lat="42.20579" lon="2.76087">
        <ele>183</ele>
        <time>1970-01-01T04:08:24.000Z</time>
      </trkpt>
      <trkpt lat="42.205791" lon="2.760801">
        <ele>183</ele>
        <time>1970-01-01T04:08:25.000Z</time>
      </trkpt>
      <trkpt lat="42.205793" lon="2.760733">
        <ele>183</ele>
        <time>1970-01-01T04:08:26.000Z</time>
      </trkpt>
      <trkpt lat="42.205795" lon="2.760665">
        <ele>183</ele>
        <time>1970-01-01T04:08:27.000Z</time>
      </trkpt>
      <trkpt lat="42.205797" lon="2.760596">
        <ele>183</ele>
        <time>1970-01-01T04:08:28.000Z</time>
      </trkpt>
      <trkpt lat="42.205799" lon="2.760528">
        <ele>184</ele>
        <time>1970-01-01T04:08:29.000Z</time>
      </trkpt>
      <trkpt lat="42.205803" lon="2.760371">
        <ele>184</ele>
        <time>1970-01-01T04:08:30.000Z</time>
      </trkpt>
      <trkpt lat="42.205804" lon="2.760294">
        <ele>184</ele>
        <time>1970-01-01T04:08:31.000Z</time>
      </trkpt>
      <trkpt lat="42.205806" lon="2.760217">
        <ele>184</ele>
        <time>1970-01-01T04:08:32.000Z</time>
      </trkpt>
      <trkpt lat="42.205807" lon="2.76014">
        <ele>184</ele>
        <time>1970-01-01T04:08:33.000Z</time>
      </trkpt>
      <trkpt lat="42.205809" lon="2.760063">
        <ele>184</ele>
        <time>1970-01-01T04:08:34.000Z</time>
      </trkpt>
      <trkpt lat="42.20581" lon="2.759986">
        <ele>184</ele>
        <time>1970-01-01T04:08:35.000Z</time>
      </trkpt>
      <trkpt lat="42.205812" lon="2.759909">
        <ele>184</ele>
        <time>1970-01-01T04:08:36.000Z</time>
      </trkpt>
      <trkpt lat="42.205813" lon="2.759832">
        <ele>184</ele>
        <time>1970-01-01T04:08:37.000Z</time>
      </trkpt>
      <trkpt lat="42.205815" lon="2.759755">
        <ele>184</ele>
        <time>1970-01-01T04:08:38.000Z</time>
      </trkpt>
      <trkpt lat="42.205816" lon="2.759678">
        <ele>183</ele>
        <time>1970-01-01T04:08:39.000Z</time>
      </trkpt>
      <trkpt lat="42.205818" lon="2.759493">
        <ele>183</ele>
        <time>1970-01-01T04:08:40.000Z</time>
      </trkpt>
      <trkpt lat="42.205819" lon="2.759398">
        <ele>183</ele>
        <time>1970-01-01T04:08:41.000Z</time>
      </trkpt>
      <trkpt lat="42.20582" lon="2.759303">
        <ele>183</ele>
        <time>1970-01-01T04:08:42.000Z</time>
      </trkpt>
      <trkpt lat="42.205821" lon="2.759208">
        <ele>183</ele>
        <time>1970-01-01T04:08:43.000Z</time>
      </trkpt>
      <trkpt lat="42.205822" lon="2.759114">
        <ele>183</ele>
        <time>1970-01-01T04:08:44.000Z</time>
      </trkpt>
      <trkpt lat="42.205822" lon="2.759019">
        <ele>183</ele>
        <time>1970-01-01T04:08:45.000Z</time>
      </trkpt>
      <trkpt lat="42.205823" lon="2.758924">
        <ele>183</ele>
        <time>1970-01-01T04:08:46.000Z</time>
      </trkpt>
      <trkpt lat="42.205824" lon="2.758829">
        <ele>183</ele>
        <time>1970-01-01T04:08:47.000Z</time>
      </trkpt>
      <trkpt lat="42.205825" lon="2.758734">
        <ele>183</ele>
        <time>1970-01-01T04:08:48.000Z</time>
      </trkpt>
      <trkpt lat="42.205826" lon="2.758639">
        <ele>182</ele>
        <time>1970-01-01T04:08:49.000Z</time>
      </trkpt>
      <trkpt lat="42.205829" lon="2.758422">
        <ele>182</ele>
        <time>1970-01-01T04:08:50.000Z</time>
      </trkpt>
      <trkpt lat="42.20583" lon="2.758309">
        <ele>182</ele>
        <time>1970-01-01T04:08:52.000Z</time>
      </trkpt>
      <trkpt lat="42.205832" lon="2.758196">
        <ele>182</ele>
        <time>1970-01-01T04:08:53.000Z</time>
      </trkpt>
      <trkpt lat="42.205834" lon="2.758083">
        <ele>182</ele>
        <time>1970-01-01T04:08:54.000Z</time>
      </trkpt>
      <trkpt lat="42.205835" lon="2.757971">
        <ele>182</ele>
        <time>1970-01-01T04:08:55.000Z</time>
      </trkpt>
      <trkpt lat="42.205837" lon="2.757858">
        <ele>182</ele>
        <time>1970-01-01T04:08:56.000Z</time>
      </trkpt>
      <trkpt lat="42.205839" lon="2.757745">
        <ele>182</ele>
        <time>1970-01-01T04:08:57.000Z</time>
      </trkpt>
      <trkpt lat="42.20584" lon="2.757632">
        <ele>182</ele>
        <time>1970-01-01T04:08:58.000Z</time>
      </trkpt>
      <trkpt lat="42.205842" lon="2.757519">
        <ele>181</ele>
        <time>1970-01-01T04:08:59.000Z</time>
      </trkpt>
      <trkpt lat="42.205843" lon="2.757398">
        <ele>181</ele>
        <time>1970-01-01T04:09:00.000Z</time>
      </trkpt>
      <trkpt lat="42.205844" lon="2.757274">
        <ele>181</ele>
        <time>1970-01-01T04:09:01.000Z</time>
      </trkpt>
      <trkpt lat="42.205845" lon="2.75715">
        <ele>181</ele>
        <time>1970-01-01T04:09:02.000Z</time>
      </trkpt>
      <trkpt lat="42.205845" lon="2.757024">
        <ele>181</ele>
        <time>1970-01-01T04:09:03.000Z</time>
      </trkpt>
      <trkpt lat="42.205846" lon="2.756897">
        <ele>181</ele>
        <time>1970-01-01T04:09:04.000Z</time>
      </trkpt>
      <trkpt lat="42.205847" lon="2.75664">
        <ele>181</ele>
        <time>1970-01-01T04:09:06.000Z</time>
      </trkpt>
      <trkpt lat="42.205849" lon="2.756509">
        <ele>181</ele>
        <time>1970-01-01T04:09:07.000Z</time>
      </trkpt>
      <trkpt lat="42.205852" lon="2.756378">
        <ele>181</ele>
        <time>1970-01-01T04:09:08.000Z</time>
      </trkpt>
      <trkpt lat="42.205852" lon="2.756312">
        <ele>178</ele>
        <time>1970-01-01T04:09:09.000Z</time>
      </trkpt>
      <trkpt lat="42.205852" lon="2.756246">
        <ele>178</ele>
        <time>1970-01-01T04:09:10.000Z</time>
      </trkpt>
      <trkpt lat="42.205852" lon="2.756112">
        <ele>178</ele>
        <time>1970-01-01T04:09:11.000Z</time>
      </trkpt>
      <trkpt lat="42.205853" lon="2.755978">
        <ele>178</ele>
        <time>1970-01-01T04:09:12.000Z</time>
      </trkpt>
      <trkpt lat="42.205855" lon="2.755708">
        <ele>178</ele>
        <time>1970-01-01T04:09:13.000Z</time>
      </trkpt>
      <trkpt lat="42.205856" lon="2.755572">
        <ele>178</ele>
        <time>1970-01-01T04:09:14.000Z</time>
      </trkpt>
      <trkpt lat="42.205859" lon="2.755299">
        <ele>178</ele>
        <time>1970-01-01T04:09:16.000Z</time>
      </trkpt>
      <trkpt lat="42.205859" lon="2.755162">
        <ele>178</ele>
        <time>1970-01-01T04:09:18.000Z</time>
      </trkpt>
      <trkpt lat="42.205859" lon="2.755028">
        <ele>173</ele>
        <time>1970-01-01T04:09:19.000Z</time>
      </trkpt>
      <trkpt lat="42.205859" lon="2.754894">
        <ele>173</ele>
        <time>1970-01-01T04:09:20.000Z</time>
      </trkpt>
      <trkpt lat="42.205862" lon="2.754638">
        <ele>173</ele>
        <time>1970-01-01T04:09:21.000Z</time>
      </trkpt>
      <trkpt lat="42.205863" lon="2.754511">
        <ele>173</ele>
        <time>1970-01-01T04:09:23.000Z</time>
      </trkpt>
      <trkpt lat="42.205865" lon="2.754388">
        <ele>173</ele>
        <time>1970-01-01T04:09:24.000Z</time>
      </trkpt>
      <trkpt lat="42.205868" lon="2.754267">
        <ele>173</ele>
        <time>1970-01-01T04:09:25.000Z</time>
      </trkpt>
      <trkpt lat="42.205871" lon="2.754149">
        <ele>173</ele>
        <time>1970-01-01T04:09:26.000Z</time>
      </trkpt>
      <trkpt lat="42.205877" lon="2.753917">
        <ele>173</ele>
        <time>1970-01-01T04:09:27.000Z</time>
      </trkpt>
      <trkpt lat="42.205881" lon="2.753762">
        <ele>172</ele>
        <time>1970-01-01T04:09:29.000Z</time>
      </trkpt>
      <trkpt lat="42.205883" lon="2.753684">
        <ele>172</ele>
        <time>1970-01-01T04:09:30.000Z</time>
      </trkpt>
      <trkpt lat="42.205887" lon="2.75357">
        <ele>172</ele>
        <time>1970-01-01T04:09:31.000Z</time>
      </trkpt>
      <trkpt lat="42.2059" lon="2.753345">
        <ele>172</ele>
        <time>1970-01-01T04:09:32.000Z</time>
      </trkpt>
      <trkpt lat="42.205907" lon="2.753236">
        <ele>172</ele>
        <time>1970-01-01T04:09:33.000Z</time>
      </trkpt>
      <trkpt lat="42.205915" lon="2.753128">
        <ele>172</ele>
        <time>1970-01-01T04:09:34.000Z</time>
      </trkpt>
      <trkpt lat="42.205925" lon="2.753021">
        <ele>172</ele>
        <time>1970-01-01T04:09:35.000Z</time>
      </trkpt>
      <trkpt lat="42.205935" lon="2.752916">
        <ele>172</ele>
        <time>1970-01-01T04:09:36.000Z</time>
      </trkpt>
      <trkpt lat="42.205959" lon="2.752713">
        <ele>172</ele>
        <time>1970-01-01T04:09:38.000Z</time>
      </trkpt>
      <trkpt lat="42.205984" lon="2.752524">
        <ele>171</ele>
        <time>1970-01-01T04:09:40.000Z</time>
      </trkpt>
      <trkpt lat="42.20601" lon="2.75235">
        <ele>171</ele>
        <time>1970-01-01T04:09:41.000Z</time>
      </trkpt>
      <trkpt lat="42.206023" lon="2.752269">
        <ele>171</ele>
        <time>1970-01-01T04:09:42.000Z</time>
      </trkpt>
      <trkpt lat="42.206036" lon="2.752189">
        <ele>171</ele>
        <time>1970-01-01T04:09:43.000Z</time>
      </trkpt>
      <trkpt lat="42.206049" lon="2.752109">
        <ele>171</ele>
        <time>1970-01-01T04:09:44.000Z</time>
      </trkpt>
      <trkpt lat="42.206061" lon="2.752028">
        <ele>171</ele>
        <time>1970-01-01T04:09:45.000Z</time>
      </trkpt>
      <trkpt lat="42.206074" lon="2.751948">
        <ele>171</ele>
        <time>1970-01-01T04:09:46.000Z</time>
      </trkpt>
      <trkpt lat="42.206087" lon="2.751868">
        <ele>171</ele>
        <time>1970-01-01T04:09:47.000Z</time>
      </trkpt>
      <trkpt lat="42.2061" lon="2.751787">
        <ele>171</ele>
        <time>1970-01-01T04:09:48.000Z</time>
      </trkpt>
      <trkpt lat="42.206113" lon="2.751707">
        <ele>173</ele>
        <time>1970-01-01T04:09:50.000Z</time>
      </trkpt>
      <trkpt lat="42.206135" lon="2.75157">
        <ele>173</ele>
        <time>1970-01-01T04:09:51.000Z</time>
      </trkpt>
      <trkpt lat="42.206145" lon="2.75151">
        <ele>173</ele>
        <time>1970-01-01T04:09:52.000Z</time>
      </trkpt>
      <trkpt lat="42.206154" lon="2.75145">
        <ele>173</ele>
        <time>1970-01-01T04:09:53.000Z</time>
      </trkpt>
      <trkpt lat="42.206163" lon="2.75139">
        <ele>173</ele>
        <time>1970-01-01T04:09:54.000Z</time>
      </trkpt>
      <trkpt lat="42.206173" lon="2.751329">
        <ele>173</ele>
        <time>1970-01-01T04:09:55.000Z</time>
      </trkpt>
      <trkpt lat="42.206182" lon="2.751269">
        <ele>173</ele>
        <time>1970-01-01T04:09:56.000Z</time>
      </trkpt>
      <trkpt lat="42.206191" lon="2.751209">
        <ele>173</ele>
        <time>1970-01-01T04:09:57.000Z</time>
      </trkpt>
      <trkpt lat="42.206201" lon="2.751149">
        <ele>173</ele>
        <time>1970-01-01T04:09:58.000Z</time>
      </trkpt>
      <trkpt lat="42.20621" lon="2.751089">
        <ele>174</ele>
        <time>1970-01-01T04:09:59.000Z</time>
      </trkpt>
      <trkpt lat="42.206224" lon="2.750984">
        <ele>174</ele>
        <time>1970-01-01T04:10:00.000Z</time>
      </trkpt>
      <trkpt lat="42.206233" lon="2.750915">
        <ele>174</ele>
        <time>1970-01-01T04:10:01.000Z</time>
      </trkpt>
      <trkpt lat="42.206241" lon="2.750847">
        <ele>174</ele>
        <time>1970-01-01T04:10:02.000Z</time>
      </trkpt>
      <trkpt lat="42.20625" lon="2.750778">
        <ele>174</ele>
        <time>1970-01-01T04:10:03.000Z</time>
      </trkpt>
      <trkpt lat="42.206259" lon="2.750709">
        <ele>174</ele>
        <time>1970-01-01T04:10:05.000Z</time>
      </trkpt>
      <trkpt lat="42.206268" lon="2.75064">
        <ele>174</ele>
        <time>1970-01-01T04:10:06.000Z</time>
      </trkpt>
      <trkpt lat="42.206276" lon="2.750572">
        <ele>174</ele>
        <time>1970-01-01T04:10:07.000Z</time>
      </trkpt>
      <trkpt lat="42.206285" lon="2.750503">
        <ele>174</ele>
        <time>1970-01-01T04:10:08.000Z</time>
      </trkpt>
      <trkpt lat="42.206294" lon="2.750434">
        <ele>176</ele>
        <time>1970-01-01T04:10:09.000Z</time>
      </trkpt>
      <trkpt lat="42.206312" lon="2.750286">
        <ele>176</ele>
        <time>1970-01-01T04:10:10.000Z</time>
      </trkpt>
      <trkpt lat="42.206323" lon="2.750207">
        <ele>176</ele>
        <time>1970-01-01T04:10:11.000Z</time>
      </trkpt>
      <trkpt lat="42.206334" lon="2.750127">
        <ele>176</ele>
        <time>1970-01-01T04:10:13.000Z</time>
      </trkpt>
      <trkpt lat="42.206345" lon="2.750047">
        <ele>176</ele>
        <time>1970-01-01T04:10:15.000Z</time>
      </trkpt>
      <trkpt lat="42.206355" lon="2.749967">
        <ele>176</ele>
        <time>1970-01-01T04:10:16.000Z</time>
      </trkpt>
      <trkpt lat="42.206366" lon="2.749888">
        <ele>176</ele>
        <time>1970-01-01T04:10:17.000Z</time>
      </trkpt>
      <trkpt lat="42.206377" lon="2.749808">
        <ele>176</ele>
        <time>1970-01-01T04:10:18.000Z</time>
      </trkpt>
      <trkpt lat="42.206388" lon="2.749728">
        <ele>177</ele>
        <time>1970-01-01T04:10:19.000Z</time>
      </trkpt>
      <trkpt lat="42.2064" lon="2.749633">
        <ele>177</ele>
        <time>1970-01-01T04:10:20.000Z</time>
      </trkpt>
      <trkpt lat="42.206409" lon="2.749571">
        <ele>177</ele>
        <time>1970-01-01T04:10:21.000Z</time>
      </trkpt>
      <trkpt lat="42.206417" lon="2.74951">
        <ele>177</ele>
        <time>1970-01-01T04:10:22.000Z</time>
      </trkpt>
      <trkpt lat="42.206426" lon="2.749448">
        <ele>177</ele>
        <time>1970-01-01T04:10:23.000Z</time>
      </trkpt>
      <trkpt lat="42.206435" lon="2.749387">
        <ele>177</ele>
        <time>1970-01-01T04:10:24.000Z</time>
      </trkpt>
      <trkpt lat="42.206444" lon="2.749325">
        <ele>177</ele>
        <time>1970-01-01T04:10:25.000Z</time>
      </trkpt>
      <trkpt lat="42.206452" lon="2.749264">
        <ele>177</ele>
        <time>1970-01-01T04:10:27.000Z</time>
      </trkpt>
      <trkpt lat="42.206461" lon="2.749202">
        <ele>177</ele>
        <time>1970-01-01T04:10:28.000Z</time>
      </trkpt>
      <trkpt lat="42.20647" lon="2.749141">
        <ele>177</ele>
        <time>1970-01-01T04:10:29.000Z</time>
      </trkpt>
      <trkpt lat="42.206476" lon="2.749023">
        <ele>177</ele>
        <time>1970-01-01T04:10:30.000Z</time>
      </trkpt>
      <trkpt lat="42.206477" lon="2.748966">
        <ele>177</ele>
        <time>1970-01-01T04:10:31.000Z</time>
      </trkpt>
      <trkpt lat="42.206478" lon="2.748908">
        <ele>177</ele>
        <time>1970-01-01T04:10:32.000Z</time>
      </trkpt>
      <trkpt lat="42.206479" lon="2.74885">
        <ele>177</ele>
        <time>1970-01-01T04:10:33.000Z</time>
      </trkpt>
      <trkpt lat="42.206481" lon="2.748793">
        <ele>177</ele>
        <time>1970-01-01T04:10:34.000Z</time>
      </trkpt>
      <trkpt lat="42.206482" lon="2.748735">
        <ele>177</ele>
        <time>1970-01-01T04:10:35.000Z</time>
      </trkpt>
      <trkpt lat="42.206483" lon="2.748677">
        <ele>177</ele>
        <time>1970-01-01T04:10:36.000Z</time>
      </trkpt>
      <trkpt lat="42.206484" lon="2.74862">
        <ele>177</ele>
        <time>1970-01-01T04:10:38.000Z</time>
      </trkpt>
      <trkpt lat="42.206485" lon="2.748562">
        <ele>179</ele>
        <time>1970-01-01T04:10:39.000Z</time>
      </trkpt>
      <trkpt lat="42.20648" lon="2.748442">
        <ele>179</ele>
        <time>1970-01-01T04:10:40.000Z</time>
      </trkpt>
      <trkpt lat="42.206475" lon="2.748383">
        <ele>179</ele>
        <time>1970-01-01T04:10:41.000Z</time>
      </trkpt>
      <trkpt lat="42.20647" lon="2.748325">
        <ele>179</ele>
        <time>1970-01-01T04:10:42.000Z</time>
      </trkpt>
      <trkpt lat="42.206465" lon="2.748267">
        <ele>179</ele>
        <time>1970-01-01T04:10:43.000Z</time>
      </trkpt>
      <trkpt lat="42.20646" lon="2.748208">
        <ele>179</ele>
        <time>1970-01-01T04:10:44.000Z</time>
      </trkpt>
      <trkpt lat="42.206454" lon="2.74815">
        <ele>179</ele>
        <time>1970-01-01T04:10:45.000Z</time>
      </trkpt>
      <trkpt lat="42.206449" lon="2.748092">
        <ele>179</ele>
        <time>1970-01-01T04:10:46.000Z</time>
      </trkpt>
      <trkpt lat="42.206444" lon="2.748034">
        <ele>179</ele>
        <time>1970-01-01T04:10:47.000Z</time>
      </trkpt>
      <trkpt lat="42.206439" lon="2.747975">
        <ele>179</ele>
        <time>1970-01-01T04:10:48.000Z</time>
      </trkpt>
      <trkpt lat="42.206434" lon="2.747917">
        <ele>179</ele>
        <time>1970-01-01T04:10:49.000Z</time>
      </trkpt>
      <trkpt lat="42.206421" lon="2.747776">
        <ele>179</ele>
        <time>1970-01-01T04:10:50.000Z</time>
      </trkpt>
      <trkpt lat="42.206414" lon="2.747705">
        <ele>179</ele>
        <time>1970-01-01T04:10:51.000Z</time>
      </trkpt>
      <trkpt lat="42.206408" lon="2.747633">
        <ele>179</ele>
        <time>1970-01-01T04:10:52.000Z</time>
      </trkpt>
      <trkpt lat="42.206402" lon="2.747561">
        <ele>179</ele>
        <time>1970-01-01T04:10:53.000Z</time>
      </trkpt>
      <trkpt lat="42.206396" lon="2.747489">
        <ele>179</ele>
        <time>1970-01-01T04:10:54.000Z</time>
      </trkpt>
      <trkpt lat="42.206389" lon="2.747418">
        <ele>179</ele>
        <time>1970-01-01T04:10:55.000Z</time>
      </trkpt>
      <trkpt lat="42.206383" lon="2.747346">
        <ele>179</ele>
        <time>1970-01-01T04:10:56.000Z</time>
      </trkpt>
      <trkpt lat="42.206377" lon="2.747274">
        <ele>179</ele>
        <time>1970-01-01T04:10:57.000Z</time>
      </trkpt>
      <trkpt lat="42.20637" lon="2.747203">
        <ele>179</ele>
        <time>1970-01-01T04:10:58.000Z</time>
      </trkpt>
      <trkpt lat="42.206364" lon="2.747131">
        <ele>178</ele>
        <time>1970-01-01T04:10:59.000Z</time>
      </trkpt>
      <trkpt lat="42.206351" lon="2.746967">
        <ele>178</ele>
        <time>1970-01-01T04:11:00.000Z</time>
      </trkpt>
      <trkpt lat="42.206344" lon="2.746879">
        <ele>178</ele>
        <time>1970-01-01T04:11:01.000Z</time>
      </trkpt>
      <trkpt lat="42.206338" lon="2.746792">
        <ele>178</ele>
        <time>1970-01-01T04:11:02.000Z</time>
      </trkpt>
      <trkpt lat="42.206332" lon="2.746704">
        <ele>178</ele>
        <time>1970-01-01T04:11:04.000Z</time>
      </trkpt>
      <trkpt lat="42.206325" lon="2.746616">
        <ele>178</ele>
        <time>1970-01-01T04:11:06.000Z</time>
      </trkpt>
      <trkpt lat="42.206319" lon="2.746528">
        <ele>178</ele>
        <time>1970-01-01T04:11:07.000Z</time>
      </trkpt>
      <trkpt lat="42.206312" lon="2.746441">
        <ele>178</ele>
        <time>1970-01-01T04:11:08.000Z</time>
      </trkpt>
      <trkpt lat="42.206306" lon="2.746353">
        <ele>179</ele>
        <time>1970-01-01T04:11:09.000Z</time>
      </trkpt>
      <trkpt lat="42.20629" lon="2.746129">
        <ele>179</ele>
        <time>1970-01-01T04:11:10.000Z</time>
      </trkpt>
      <trkpt lat="42.206284" lon="2.74603">
        <ele>179</ele>
        <time>1970-01-01T04:11:12.000Z</time>
      </trkpt>
      <trkpt lat="42.206277" lon="2.74593">
        <ele>179</ele>
        <time>1970-01-01T04:11:13.000Z</time>
      </trkpt>
      <trkpt lat="42.206271" lon="2.74583">
        <ele>179</ele>
        <time>1970-01-01T04:11:15.000Z</time>
      </trkpt>
      <trkpt lat="42.206264" lon="2.745731">
        <ele>179</ele>
        <time>1970-01-01T04:11:16.000Z</time>
      </trkpt>
      <trkpt lat="42.206257" lon="2.745631">
        <ele>179</ele>
        <time>1970-01-01T04:11:17.000Z</time>
      </trkpt>
      <trkpt lat="42.206251" lon="2.745532">
        <ele>179</ele>
        <time>1970-01-01T04:11:18.000Z</time>
      </trkpt>
      <trkpt lat="42.206244" lon="2.745432">
        <ele>179</ele>
        <time>1970-01-01T04:11:19.000Z</time>
      </trkpt>
      <trkpt lat="42.206232" lon="2.745246">
        <ele>179</ele>
        <time>1970-01-01T04:11:20.000Z</time>
      </trkpt>
      <trkpt lat="42.206226" lon="2.745153">
        <ele>179</ele>
        <time>1970-01-01T04:11:21.000Z</time>
      </trkpt>
      <trkpt lat="42.20622" lon="2.745061">
        <ele>179</ele>
        <time>1970-01-01T04:11:22.000Z</time>
      </trkpt>
      <trkpt lat="42.206214" lon="2.744968">
        <ele>179</ele>
        <time>1970-01-01T04:11:23.000Z</time>
      </trkpt>
      <trkpt lat="42.206208" lon="2.744875">
        <ele>179</ele>
        <time>1970-01-01T04:11:25.000Z</time>
      </trkpt>
      <trkpt lat="42.206202" lon="2.744782">
        <ele>179</ele>
        <time>1970-01-01T04:11:26.000Z</time>
      </trkpt>
      <trkpt lat="42.206196" lon="2.74469">
        <ele>179</ele>
        <time>1970-01-01T04:11:27.000Z</time>
      </trkpt>
      <trkpt lat="42.20619" lon="2.744597">
        <ele>179</ele>
        <time>1970-01-01T04:11:28.000Z</time>
      </trkpt>
      <trkpt lat="42.206184" lon="2.744504">
        <ele>179</ele>
        <time>1970-01-01T04:11:29.000Z</time>
      </trkpt>
      <trkpt lat="42.206169" lon="2.744307">
        <ele>179</ele>
        <time>1970-01-01T04:11:30.000Z</time>
      </trkpt>
      <trkpt lat="42.206162" lon="2.744206">
        <ele>179</ele>
        <time>1970-01-01T04:11:31.000Z</time>
      </trkpt>
      <trkpt lat="42.206155" lon="2.744104">
        <ele>179</ele>
        <time>1970-01-01T04:11:32.000Z</time>
      </trkpt>
      <trkpt lat="42.206148" lon="2.744003">
        <ele>179</ele>
        <time>1970-01-01T04:11:34.000Z</time>
      </trkpt>
      <trkpt lat="42.20614" lon="2.743901">
        <ele>179</ele>
        <time>1970-01-01T04:11:35.000Z</time>
      </trkpt>
      <trkpt lat="42.206133" lon="2.7438">
        <ele>179</ele>
        <time>1970-01-01T04:11:36.000Z</time>
      </trkpt>
      <trkpt lat="42.206126" lon="2.743698">
        <ele>179</ele>
        <time>1970-01-01T04:11:37.000Z</time>
      </trkpt>
      <trkpt lat="42.206119" lon="2.743597">
        <ele>179</ele>
        <time>1970-01-01T04:11:38.000Z</time>
      </trkpt>
      <trkpt lat="42.206112" lon="2.743495">
        <ele>178</ele>
        <time>1970-01-01T04:11:39.000Z</time>
      </trkpt>
      <trkpt lat="42.206087" lon="2.743172">
        <ele>178</ele>
        <time>1970-01-01T04:11:41.000Z</time>
      </trkpt>
      <trkpt lat="42.20608" lon="2.743055">
        <ele>178</ele>
        <time>1970-01-01T04:11:42.000Z</time>
      </trkpt>
      <trkpt lat="42.206072" lon="2.742939">
        <ele>178</ele>
        <time>1970-01-01T04:11:44.000Z</time>
      </trkpt>
      <trkpt lat="42.206065" lon="2.742823">
        <ele>178</ele>
        <time>1970-01-01T04:11:45.000Z</time>
      </trkpt>
      <trkpt lat="42.206057" lon="2.742707">
        <ele>178</ele>
        <time>1970-01-01T04:11:47.000Z</time>
      </trkpt>
      <trkpt lat="42.20605" lon="2.74259">
        <ele>178</ele>
        <time>1970-01-01T04:11:48.000Z</time>
      </trkpt>
      <trkpt lat="42.206042" lon="2.742474">
        <ele>178</ele>
        <time>1970-01-01T04:11:49.000Z</time>
      </trkpt>
      <trkpt lat="42.206028" lon="2.742267">
        <ele>178</ele>
        <time>1970-01-01T04:11:50.000Z</time>
      </trkpt>
      <trkpt lat="42.206021" lon="2.742165">
        <ele>178</ele>
        <time>1970-01-01T04:11:51.000Z</time>
      </trkpt>
      <trkpt lat="42.206014" lon="2.742062">
        <ele>178</ele>
        <time>1970-01-01T04:11:52.000Z</time>
      </trkpt>
      <trkpt lat="42.206007" lon="2.74196">
        <ele>178</ele>
        <time>1970-01-01T04:11:54.000Z</time>
      </trkpt>
      <trkpt lat="42.206001" lon="2.741857">
        <ele>178</ele>
        <time>1970-01-01T04:11:55.000Z</time>
      </trkpt>
      <trkpt lat="42.205994" lon="2.741755">
        <ele>178</ele>
        <time>1970-01-01T04:11:56.000Z</time>
      </trkpt>
      <trkpt lat="42.205987" lon="2.741652">
        <ele>178</ele>
        <time>1970-01-01T04:11:57.000Z</time>
      </trkpt>
      <trkpt lat="42.20598" lon="2.74155">
        <ele>178</ele>
        <time>1970-01-01T04:11:58.000Z</time>
      </trkpt>
      <trkpt lat="42.205973" lon="2.741447">
        <ele>177</ele>
        <time>1970-01-01T04:11:59.000Z</time>
      </trkpt>
      <trkpt lat="42.205959" lon="2.741247">
        <ele>177</ele>
        <time>1970-01-01T04:12:00.000Z</time>
      </trkpt>
      <trkpt lat="42.205952" lon="2.741148">
        <ele>177</ele>
        <time>1970-01-01T04:12:01.000Z</time>
      </trkpt>
      <trkpt lat="42.205946" lon="2.741049">
        <ele>177</ele>
        <time>1970-01-01T04:12:02.000Z</time>
      </trkpt>
      <trkpt lat="42.205939" lon="2.74095">
        <ele>177</ele>
        <time>1970-01-01T04:12:03.000Z</time>
      </trkpt>
      <trkpt lat="42.205932" lon="2.740852">
        <ele>177</ele>
        <time>1970-01-01T04:12:04.000Z</time>
      </trkpt>
      <trkpt lat="42.205925" lon="2.740753">
        <ele>177</ele>
        <time>1970-01-01T04:12:05.000Z</time>
      </trkpt>
      <trkpt lat="42.205919" lon="2.740654">
        <ele>177</ele>
        <time>1970-01-01T04:12:07.000Z</time>
      </trkpt>
      <trkpt lat="42.205912" lon="2.740555">
        <ele>177</ele>
        <time>1970-01-01T04:12:08.000Z</time>
      </trkpt>
      <trkpt lat="42.205905" lon="2.740456">
        <ele>177</ele>
        <time>1970-01-01T04:12:09.000Z</time>
      </trkpt>
      <trkpt lat="42.205889" lon="2.740237">
        <ele>177</ele>
        <time>1970-01-01T04:12:10.000Z</time>
      </trkpt>
      <trkpt lat="42.205882" lon="2.740122">
        <ele>177</ele>
        <time>1970-01-01T04:12:12.000Z</time>
      </trkpt>
      <trkpt lat="42.205874" lon="2.740008">
        <ele>177</ele>
        <time>1970-01-01T04:12:14.000Z</time>
      </trkpt>
      <trkpt lat="42.205867" lon="2.739893">
        <ele>177</ele>
        <time>1970-01-01T04:12:15.000Z</time>
      </trkpt>
      <trkpt lat="42.205859" lon="2.739778">
        <ele>177</ele>
        <time>1970-01-01T04:12:16.000Z</time>
      </trkpt>
      <trkpt lat="42.205851" lon="2.739663">
        <ele>177</ele>
        <time>1970-01-01T04:12:17.000Z</time>
      </trkpt>
      <trkpt lat="42.205844" lon="2.739549">
        <ele>177</ele>
        <time>1970-01-01T04:12:18.000Z</time>
      </trkpt>
      <trkpt lat="42.205836" lon="2.739434">
        <ele>177</ele>
        <time>1970-01-01T04:12:19.000Z</time>
      </trkpt>
      <trkpt lat="42.205821" lon="2.739225">
        <ele>177</ele>
        <time>1970-01-01T04:12:20.000Z</time>
      </trkpt>
      <trkpt lat="42.205814" lon="2.739119">
        <ele>177</ele>
        <time>1970-01-01T04:12:22.000Z</time>
      </trkpt>
      <trkpt lat="42.205806" lon="2.739013">
        <ele>177</ele>
        <time>1970-01-01T04:12:23.000Z</time>
      </trkpt>
      <trkpt lat="42.205799" lon="2.738907">
        <ele>177</ele>
        <time>1970-01-01T04:12:24.000Z</time>
      </trkpt>
      <trkpt lat="42.205791" lon="2.738801">
        <ele>177</ele>
        <time>1970-01-01T04:12:25.000Z</time>
      </trkpt>
      <trkpt lat="42.205784" lon="2.738695">
        <ele>177</ele>
        <time>1970-01-01T04:12:26.000Z</time>
      </trkpt>
      <trkpt lat="42.205776" lon="2.738589">
        <ele>177</ele>
        <time>1970-01-01T04:12:27.000Z</time>
      </trkpt>
      <trkpt lat="42.205769" lon="2.738483">
        <ele>177</ele>
        <time>1970-01-01T04:12:28.000Z</time>
      </trkpt>
      <trkpt lat="42.205761" lon="2.738377">
        <ele>175</ele>
        <time>1970-01-01T04:12:29.000Z</time>
      </trkpt>
      <trkpt lat="42.205744" lon="2.738163">
        <ele>175</ele>
        <time>1970-01-01T04:12:30.000Z</time>
      </trkpt>
      <trkpt lat="42.205737" lon="2.738057">
        <ele>175</ele>
        <time>1970-01-01T04:12:31.000Z</time>
      </trkpt>
      <trkpt lat="42.205729" lon="2.737951">
        <ele>175</ele>
        <time>1970-01-01T04:12:33.000Z</time>
      </trkpt>
      <trkpt lat="42.205722" lon="2.737845">
        <ele>175</ele>
        <time>1970-01-01T04:12:34.000Z</time>
      </trkpt>
      <trkpt lat="42.205714" lon="2.737739">
        <ele>175</ele>
        <time>1970-01-01T04:12:35.000Z</time>
      </trkpt>
      <trkpt lat="42.205707" lon="2.737633">
        <ele>175</ele>
        <time>1970-01-01T04:12:36.000Z</time>
      </trkpt>
      <trkpt lat="42.205699" lon="2.737527">
        <ele>175</ele>
        <time>1970-01-01T04:12:37.000Z</time>
      </trkpt>
      <trkpt lat="42.205692" lon="2.737421">
        <ele>175</ele>
        <time>1970-01-01T04:12:38.000Z</time>
      </trkpt>
      <trkpt lat="42.205684" lon="2.737315">
        <ele>174</ele>
        <time>1970-01-01T04:12:39.000Z</time>
      </trkpt>
      <trkpt lat="42.205661" lon="2.736972">
        <ele>174</ele>
        <time>1970-01-01T04:12:41.000Z</time>
      </trkpt>
      <trkpt lat="42.205652" lon="2.736844">
        <ele>174</ele>
        <time>1970-01-01T04:12:42.000Z</time>
      </trkpt>
      <trkpt lat="42.205643" lon="2.736716">
        <ele>174</ele>
        <time>1970-01-01T04:12:43.000Z</time>
      </trkpt>
      <trkpt lat="42.205633" lon="2.736589">
        <ele>174</ele>
        <time>1970-01-01T04:12:45.000Z</time>
      </trkpt>
      <trkpt lat="42.205624" lon="2.736461">
        <ele>174</ele>
        <time>1970-01-01T04:12:47.000Z</time>
      </trkpt>
      <trkpt lat="42.205615" lon="2.736333">
        <ele>174</ele>
        <time>1970-01-01T04:12:48.000Z</time>
      </trkpt>
      <trkpt lat="42.205606" lon="2.736205">
        <ele>173</ele>
        <time>1970-01-01T04:12:49.000Z</time>
      </trkpt>
      <trkpt lat="42.205588" lon="2.735951">
        <ele>173</ele>
        <time>1970-01-01T04:12:50.000Z</time>
      </trkpt>
      <trkpt lat="42.205579" lon="2.735807">
        <ele>173</ele>
        <time>1970-01-01T04:12:52.000Z</time>
      </trkpt>
      <trkpt lat="42.205569" lon="2.735663">
        <ele>173</ele>
        <time>1970-01-01T04:12:53.000Z</time>
      </trkpt>
      <trkpt lat="42.205559" lon="2.735519">
        <ele>173</ele>
        <time>1970-01-01T04:12:54.000Z</time>
      </trkpt>
      <trkpt lat="42.205549" lon="2.735375">
        <ele>173</ele>
        <time>1970-01-01T04:12:55.000Z</time>
      </trkpt>
      <trkpt lat="42.20554" lon="2.735231">
        <ele>173</ele>
        <time>1970-01-01T04:12:57.000Z</time>
      </trkpt>
      <trkpt lat="42.20553" lon="2.735087">
        <ele>173</ele>
        <time>1970-01-01T04:12:58.000Z</time>
      </trkpt>
      <trkpt lat="42.20552" lon="2.734943">
        <ele>171</ele>
        <time>1970-01-01T04:13:00.000Z</time>
      </trkpt>
      <trkpt lat="42.205506" lon="2.734723">
        <ele>171</ele>
        <time>1970-01-01T04:13:01.000Z</time>
      </trkpt>
      <trkpt lat="42.205499" lon="2.734623">
        <ele>171</ele>
        <time>1970-01-01T04:13:02.000Z</time>
      </trkpt>
      <trkpt lat="42.205493" lon="2.734522">
        <ele>171</ele>
        <time>1970-01-01T04:13:03.000Z</time>
      </trkpt>
      <trkpt lat="42.205486" lon="2.734421">
        <ele>171</ele>
        <time>1970-01-01T04:13:04.000Z</time>
      </trkpt>
      <trkpt lat="42.20548" lon="2.734321">
        <ele>171</ele>
        <time>1970-01-01T04:13:05.000Z</time>
      </trkpt>
      <trkpt lat="42.205473" lon="2.73422">
        <ele>171</ele>
        <time>1970-01-01T04:13:06.000Z</time>
      </trkpt>
      <trkpt lat="42.205467" lon="2.734119">
        <ele>171</ele>
        <time>1970-01-01T04:13:07.000Z</time>
      </trkpt>
      <trkpt lat="42.20546" lon="2.734019">
        <ele>171</ele>
        <time>1970-01-01T04:13:08.000Z</time>
      </trkpt>
      <trkpt lat="42.205454" lon="2.733918">
        <ele>170</ele>
        <time>1970-01-01T04:13:09.000Z</time>
      </trkpt>
      <trkpt lat="42.205439" lon="2.73368">
        <ele>170</ele>
        <time>1970-01-01T04:13:10.000Z</time>
      </trkpt>
      <trkpt lat="42.20543" lon="2.73355">
        <ele>170</ele>
        <time>1970-01-01T04:13:12.000Z</time>
      </trkpt>
      <trkpt lat="42.205422" lon="2.73342">
        <ele>170</ele>
        <time>1970-01-01T04:13:13.000Z</time>
      </trkpt>
      <trkpt lat="42.205414" lon="2.733291">
        <ele>170</ele>
        <time>1970-01-01T04:13:14.000Z</time>
      </trkpt>
      <trkpt lat="42.205406" lon="2.733161">
        <ele>170</ele>
        <time>1970-01-01T04:13:15.000Z</time>
      </trkpt>
      <trkpt lat="42.205397" lon="2.733031">
        <ele>170</ele>
        <time>1970-01-01T04:13:17.000Z</time>
      </trkpt>
      <trkpt lat="42.205389" lon="2.732901">
        <ele>170</ele>
        <time>1970-01-01T04:13:19.000Z</time>
      </trkpt>
      <trkpt lat="42.205379" lon="2.732715">
        <ele>170</ele>
        <time>1970-01-01T04:13:20.000Z</time>
      </trkpt>
      <trkpt lat="42.205373" lon="2.732624">
        <ele>170</ele>
        <time>1970-01-01T04:13:22.000Z</time>
      </trkpt>
      <trkpt lat="42.205368" lon="2.732533">
        <ele>170</ele>
        <time>1970-01-01T04:13:23.000Z</time>
      </trkpt>
      <trkpt lat="42.205362" lon="2.732442">
        <ele>170</ele>
        <time>1970-01-01T04:13:24.000Z</time>
      </trkpt>
      <trkpt lat="42.205357" lon="2.732351">
        <ele>170</ele>
        <time>1970-01-01T04:13:25.000Z</time>
      </trkpt>
      <trkpt lat="42.205351" lon="2.73226">
        <ele>170</ele>
        <time>1970-01-01T04:13:26.000Z</time>
      </trkpt>
      <trkpt lat="42.205346" lon="2.732169">
        <ele>170</ele>
        <time>1970-01-01T04:13:27.000Z</time>
      </trkpt>
      <trkpt lat="42.20534" lon="2.732078">
        <ele>170</ele>
        <time>1970-01-01T04:13:28.000Z</time>
      </trkpt>
      <trkpt lat="42.205335" lon="2.731987">
        <ele>171</ele>
        <time>1970-01-01T04:13:29.000Z</time>
      </trkpt>
      <trkpt lat="42.205324" lon="2.731819">
        <ele>171</ele>
        <time>1970-01-01T04:13:30.000Z</time>
      </trkpt>
      <trkpt lat="42.205319" lon="2.731742">
        <ele>171</ele>
        <time>1970-01-01T04:13:31.000Z</time>
      </trkpt>
      <trkpt lat="42.205314" lon="2.731664">
        <ele>171</ele>
        <time>1970-01-01T04:13:32.000Z</time>
      </trkpt>
      <trkpt lat="42.205309" lon="2.731587">
        <ele>171</ele>
        <time>1970-01-01T04:13:33.000Z</time>
      </trkpt>
      <trkpt lat="42.205304" lon="2.731509">
        <ele>171</ele>
        <time>1970-01-01T04:13:34.000Z</time>
      </trkpt>
      <trkpt lat="42.205299" lon="2.731431">
        <ele>171</ele>
        <time>1970-01-01T04:13:35.000Z</time>
      </trkpt>
      <trkpt lat="42.205294" lon="2.731354">
        <ele>171</ele>
        <time>1970-01-01T04:13:36.000Z</time>
      </trkpt>
      <trkpt lat="42.205289" lon="2.731276">
        <ele>171</ele>
        <time>1970-01-01T04:13:37.000Z</time>
      </trkpt>
      <trkpt lat="42.205284" lon="2.731199">
        <ele>171</ele>
        <time>1970-01-01T04:13:38.000Z</time>
      </trkpt>
      <trkpt lat="42.205279" lon="2.731121">
        <ele>171</ele>
        <time>1970-01-01T04:13:39.000Z</time>
      </trkpt>
      <trkpt lat="42.205269" lon="2.730969">
        <ele>171</ele>
        <time>1970-01-01T04:13:40.000Z</time>
      </trkpt>
      <trkpt lat="42.205265" lon="2.730899">
        <ele>171</ele>
        <time>1970-01-01T04:13:41.000Z</time>
      </trkpt>
      <trkpt lat="42.20526" lon="2.730828">
        <ele>171</ele>
        <time>1970-01-01T04:13:42.000Z</time>
      </trkpt>
      <trkpt lat="42.205256" lon="2.730758">
        <ele>171</ele>
        <time>1970-01-01T04:13:43.000Z</time>
      </trkpt>
      <trkpt lat="42.205252" lon="2.730687">
        <ele>171</ele>
        <time>1970-01-01T04:13:44.000Z</time>
      </trkpt>
      <trkpt lat="42.205248" lon="2.730617">
        <ele>171</ele>
        <time>1970-01-01T04:13:45.000Z</time>
      </trkpt>
      <trkpt lat="42.205244" lon="2.730546">
        <ele>171</ele>
        <time>1970-01-01T04:13:46.000Z</time>
      </trkpt>
      <trkpt lat="42.205239" lon="2.730476">
        <ele>171</ele>
        <time>1970-01-01T04:13:47.000Z</time>
      </trkpt>
      <trkpt lat="42.205235" lon="2.730405">
        <ele>171</ele>
        <time>1970-01-01T04:13:48.000Z</time>
      </trkpt>
      <trkpt lat="42.205231" lon="2.730335">
        <ele>172</ele>
        <time>1970-01-01T04:13:49.000Z</time>
      </trkpt>
      <trkpt lat="42.205221" lon="2.730183">
        <ele>172</ele>
        <time>1970-01-01T04:13:50.000Z</time>
      </trkpt>
      <trkpt lat="42.205217" lon="2.730105">
        <ele>172</ele>
        <time>1970-01-01T04:13:51.000Z</time>
      </trkpt>
      <trkpt lat="42.205212" lon="2.730026">
        <ele>172</ele>
        <time>1970-01-01T04:13:53.000Z</time>
      </trkpt>
      <trkpt lat="42.205208" lon="2.729947">
        <ele>172</ele>
        <time>1970-01-01T04:13:54.000Z</time>
      </trkpt>
      <trkpt lat="42.205204" lon="2.729869">
        <ele>172</ele>
        <time>1970-01-01T04:13:55.000Z</time>
      </trkpt>
      <trkpt lat="42.2052" lon="2.72979">
        <ele>172</ele>
        <time>1970-01-01T04:13:57.000Z</time>
      </trkpt>
      <trkpt lat="42.205195" lon="2.729712">
        <ele>172</ele>
        <time>1970-01-01T04:13:58.000Z</time>
      </trkpt>
      <trkpt lat="42.205191" lon="2.729633">
        <ele>173</ele>
        <time>1970-01-01T04:13:59.000Z</time>
      </trkpt>
      <trkpt lat="42.205184" lon="2.729485">
        <ele>173</ele>
        <time>1970-01-01T04:14:00.000Z</time>
      </trkpt>
      <trkpt lat="42.205181" lon="2.729413">
        <ele>173</ele>
        <time>1970-01-01T04:14:01.000Z</time>
      </trkpt>
      <trkpt lat="42.205179" lon="2.72934">
        <ele>173</ele>
        <time>1970-01-01T04:14:02.000Z</time>
      </trkpt>
      <trkpt lat="42.205176" lon="2.729267">
        <ele>173</ele>
        <time>1970-01-01T04:14:03.000Z</time>
      </trkpt>
      <trkpt lat="42.205173" lon="2.729194">
        <ele>173</ele>
        <time>1970-01-01T04:14:04.000Z</time>
      </trkpt>
      <trkpt lat="42.20517" lon="2.729122">
        <ele>173</ele>
        <time>1970-01-01T04:14:05.000Z</time>
      </trkpt>
      <trkpt lat="42.205167" lon="2.729049">
        <ele>173</ele>
        <time>1970-01-01T04:14:06.000Z</time>
      </trkpt>
      <trkpt lat="42.205165" lon="2.728976">
        <ele>173</ele>
        <time>1970-01-01T04:14:07.000Z</time>
      </trkpt>
      <trkpt lat="42.205162" lon="2.728904">
        <ele>173</ele>
        <time>1970-01-01T04:14:08.000Z</time>
      </trkpt>
      <trkpt lat="42.205159" lon="2.728831">
        <ele>173</ele>
        <time>1970-01-01T04:14:09.000Z</time>
      </trkpt>
      <trkpt lat="42.205153" lon="2.728637">
        <ele>173</ele>
        <time>1970-01-01T04:14:10.000Z</time>
      </trkpt>
      <trkpt lat="42.205151" lon="2.728528">
        <ele>173</ele>
        <time>1970-01-01T04:14:12.000Z</time>
      </trkpt>
      <trkpt lat="42.205148" lon="2.728418">
        <ele>173</ele>
        <time>1970-01-01T04:14:14.000Z</time>
      </trkpt>
      <trkpt lat="42.205145" lon="2.728308">
        <ele>173</ele>
        <time>1970-01-01T04:14:15.000Z</time>
      </trkpt>
      <trkpt lat="42.205142" lon="2.728198">
        <ele>173</ele>
        <time>1970-01-01T04:14:16.000Z</time>
      </trkpt>
      <trkpt lat="42.20514" lon="2.728089">
        <ele>173</ele>
        <time>1970-01-01T04:14:17.000Z</time>
      </trkpt>
      <trkpt lat="42.205137" lon="2.727979">
        <ele>173</ele>
        <time>1970-01-01T04:14:19.000Z</time>
      </trkpt>
      <trkpt lat="42.205134" lon="2.727812">
        <ele>173</ele>
        <time>1970-01-01T04:14:20.000Z</time>
      </trkpt>
      <trkpt lat="42.205132" lon="2.727728">
        <ele>173</ele>
        <time>1970-01-01T04:14:21.000Z</time>
      </trkpt>
      <trkpt lat="42.205131" lon="2.727645">
        <ele>173</ele>
        <time>1970-01-01T04:14:23.000Z</time>
      </trkpt>
      <trkpt lat="42.205129" lon="2.727562">
        <ele>173</ele>
        <time>1970-01-01T04:14:24.000Z</time>
      </trkpt>
      <trkpt lat="42.205128" lon="2.727478">
        <ele>173</ele>
        <time>1970-01-01T04:14:25.000Z</time>
      </trkpt>
      <trkpt lat="42.205126" lon="2.727395">
        <ele>173</ele>
        <time>1970-01-01T04:14:26.000Z</time>
      </trkpt>
      <trkpt lat="42.205125" lon="2.727312">
        <ele>173</ele>
        <time>1970-01-01T04:14:27.000Z</time>
      </trkpt>
      <trkpt lat="42.205123" lon="2.727228">
        <ele>173</ele>
        <time>1970-01-01T04:14:28.000Z</time>
      </trkpt>
      <trkpt lat="42.205122" lon="2.727145">
        <ele>172</ele>
        <time>1970-01-01T04:14:29.000Z</time>
      </trkpt>
      <trkpt lat="42.20512" lon="2.726968">
        <ele>172</ele>
        <time>1970-01-01T04:14:30.000Z</time>
      </trkpt>
      <trkpt lat="42.205119" lon="2.726875">
        <ele>172</ele>
        <time>1970-01-01T04:14:31.000Z</time>
      </trkpt>
      <trkpt lat="42.205118" lon="2.726783">
        <ele>172</ele>
        <time>1970-01-01T04:14:33.000Z</time>
      </trkpt>
      <trkpt lat="42.205117" lon="2.72669">
        <ele>172</ele>
        <time>1970-01-01T04:14:34.000Z</time>
      </trkpt>
      <trkpt lat="42.205116" lon="2.726597">
        <ele>172</ele>
        <time>1970-01-01T04:14:36.000Z</time>
      </trkpt>
      <trkpt lat="42.205115" lon="2.726504">
        <ele>172</ele>
        <time>1970-01-01T04:14:37.000Z</time>
      </trkpt>
      <trkpt lat="42.205114" lon="2.726412">
        <ele>172</ele>
        <time>1970-01-01T04:14:38.000Z</time>
      </trkpt>
      <trkpt lat="42.205113" lon="2.726319">
        <ele>172</ele>
        <time>1970-01-01T04:14:39.000Z</time>
      </trkpt>
      <trkpt lat="42.20511" lon="2.726145">
        <ele>172</ele>
        <time>1970-01-01T04:14:40.000Z</time>
      </trkpt>
      <trkpt lat="42.205108" lon="2.726052">
        <ele>172</ele>
        <time>1970-01-01T04:14:41.000Z</time>
      </trkpt>
      <trkpt lat="42.205107" lon="2.72596">
        <ele>172</ele>
        <time>1970-01-01T04:14:42.000Z</time>
      </trkpt>
      <trkpt lat="42.205106" lon="2.725867">
        <ele>172</ele>
        <time>1970-01-01T04:14:44.000Z</time>
      </trkpt>
      <trkpt lat="42.205104" lon="2.725775">
        <ele>172</ele>
        <time>1970-01-01T04:14:45.000Z</time>
      </trkpt>
      <trkpt lat="42.205103" lon="2.725683">
        <ele>172</ele>
        <time>1970-01-01T04:14:47.000Z</time>
      </trkpt>
      <trkpt lat="42.205101" lon="2.72559">
        <ele>172</ele>
        <time>1970-01-01T04:14:48.000Z</time>
      </trkpt>
      <trkpt lat="42.2051" lon="2.725498">
        <ele>172</ele>
        <time>1970-01-01T04:14:49.000Z</time>
      </trkpt>
      <trkpt lat="42.205099" lon="2.725305">
        <ele>172</ele>
        <time>1970-01-01T04:14:50.000Z</time>
      </trkpt>
      <trkpt lat="42.205101" lon="2.725199">
        <ele>172</ele>
        <time>1970-01-01T04:14:51.000Z</time>
      </trkpt>
      <trkpt lat="42.205102" lon="2.725094">
        <ele>172</ele>
        <time>1970-01-01T04:14:52.000Z</time>
      </trkpt>
      <trkpt lat="42.205104" lon="2.724988">
        <ele>172</ele>
        <time>1970-01-01T04:14:54.000Z</time>
      </trkpt>
      <trkpt lat="42.205105" lon="2.724883">
        <ele>172</ele>
        <time>1970-01-01T04:14:55.000Z</time>
      </trkpt>
      <trkpt lat="42.205106" lon="2.724777">
        <ele>172</ele>
        <time>1970-01-01T04:14:56.000Z</time>
      </trkpt>
      <trkpt lat="42.205108" lon="2.724672">
        <ele>172</ele>
        <time>1970-01-01T04:14:58.000Z</time>
      </trkpt>
      <trkpt lat="42.205109" lon="2.724566">
        <ele>172</ele>
        <time>1970-01-01T04:14:59.000Z</time>
      </trkpt>
      <trkpt lat="42.205132" lon="2.724244">
        <ele>172</ele>
        <time>1970-01-01T04:15:00.000Z</time>
      </trkpt>
      <trkpt lat="42.205147" lon="2.724088">
        <ele>172</ele>
        <time>1970-01-01T04:15:01.000Z</time>
      </trkpt>
      <trkpt lat="42.205161" lon="2.723931">
        <ele>172</ele>
        <time>1970-01-01T04:15:03.000Z</time>
      </trkpt>
      <trkpt lat="42.205175" lon="2.723775">
        <ele>172</ele>
        <time>1970-01-01T04:15:05.000Z</time>
      </trkpt>
      <trkpt lat="42.205189" lon="2.723618">
        <ele>172</ele>
        <time>1970-01-01T04:15:06.000Z</time>
      </trkpt>
      <trkpt lat="42.205204" lon="2.723462">
        <ele>172</ele>
        <time>1970-01-01T04:15:07.000Z</time>
      </trkpt>
      <trkpt lat="42.205218" lon="2.723305">
        <ele>170</ele>
        <time>1970-01-01T04:15:09.000Z</time>
      </trkpt>
      <trkpt lat="42.205228" lon="2.723182">
        <ele>170</ele>
        <time>1970-01-01T04:15:10.000Z</time>
      </trkpt>
      <trkpt lat="42.205234" lon="2.723066">
        <ele>170</ele>
        <time>1970-01-01T04:15:12.000Z</time>
      </trkpt>
      <trkpt lat="42.205243" lon="2.722829">
        <ele>170</ele>
        <time>1970-01-01T04:15:13.000Z</time>
      </trkpt>
      <trkpt lat="42.205247" lon="2.72271">
        <ele>170</ele>
        <time>1970-01-01T04:15:14.000Z</time>
      </trkpt>
      <trkpt lat="42.205255" lon="2.722463">
        <ele>170</ele>
        <time>1970-01-01T04:15:16.000Z</time>
      </trkpt>
      <trkpt lat="42.205257" lon="2.722336">
        <ele>170</ele>
        <time>1970-01-01T04:15:17.000Z</time>
      </trkpt>
      <trkpt lat="42.205257" lon="2.722207">
        <ele>170</ele>
        <time>1970-01-01T04:15:18.000Z</time>
      </trkpt>
      <trkpt lat="42.205251" lon="2.722072">
        <ele>164</ele>
        <time>1970-01-01T04:15:19.000Z</time>
      </trkpt>
      <trkpt lat="42.205245" lon="2.721937">
        <ele>164</ele>
        <time>1970-01-01T04:15:20.000Z</time>
      </trkpt>
      <trkpt lat="42.205233" lon="2.721802">
        <ele>164</ele>
        <time>1970-01-01T04:15:21.000Z</time>
      </trkpt>
      <trkpt lat="42.205217" lon="2.721666">
        <ele>164</ele>
        <time>1970-01-01T04:15:22.000Z</time>
      </trkpt>
      <trkpt lat="42.205199" lon="2.72153">
        <ele>164</ele>
        <time>1970-01-01T04:15:23.000Z</time>
      </trkpt>
      <trkpt lat="42.205178" lon="2.721392">
        <ele>164</ele>
        <time>1970-01-01T04:15:25.000Z</time>
      </trkpt>
      <trkpt lat="42.205156" lon="2.721253">
        <ele>164</ele>
        <time>1970-01-01T04:15:26.000Z</time>
      </trkpt>
      <trkpt lat="42.205132" lon="2.721114">
        <ele>164</ele>
        <time>1970-01-01T04:15:27.000Z</time>
      </trkpt>
      <trkpt lat="42.20511" lon="2.720973">
        <ele>164</ele>
        <time>1970-01-01T04:15:28.000Z</time>
      </trkpt>
      <trkpt lat="42.205088" lon="2.720831">
        <ele>158</ele>
        <time>1970-01-01T04:15:29.000Z</time>
      </trkpt>
      <trkpt lat="42.205065" lon="2.72069">
        <ele>158</ele>
        <time>1970-01-01T04:15:30.000Z</time>
      </trkpt>
      <trkpt lat="42.20504" lon="2.720549">
        <ele>158</ele>
        <time>1970-01-01T04:15:31.000Z</time>
      </trkpt>
      <trkpt lat="42.204992" lon="2.720265">
        <ele>158</ele>
        <time>1970-01-01T04:15:32.000Z</time>
      </trkpt>
      <trkpt lat="42.204969" lon="2.720122">
        <ele>158</ele>
        <time>1970-01-01T04:15:33.000Z</time>
      </trkpt>
      <trkpt lat="42.204944" lon="2.719978">
        <ele>158</ele>
        <time>1970-01-01T04:15:34.000Z</time>
      </trkpt>
      <trkpt lat="42.204895" lon="2.719683">
        <ele>158</ele>
        <time>1970-01-01T04:15:36.000Z</time>
      </trkpt>
      <trkpt lat="42.204858" lon="2.719456">
        <ele>158</ele>
        <time>1970-01-01T04:15:37.000Z</time>
      </trkpt>
      <trkpt lat="42.204847" lon="2.71938">
        <ele>158</ele>
        <time>1970-01-01T04:15:38.000Z</time>
      </trkpt>
      <trkpt lat="42.204835" lon="2.719303">
        <ele>154</ele>
        <time>1970-01-01T04:15:39.000Z</time>
      </trkpt>
      <trkpt lat="42.204823" lon="2.719227">
        <ele>154</ele>
        <time>1970-01-01T04:15:40.000Z</time>
      </trkpt>
      <trkpt lat="42.2048" lon="2.719073">
        <ele>154</ele>
        <time>1970-01-01T04:15:41.000Z</time>
      </trkpt>
      <trkpt lat="42.204776" lon="2.718916">
        <ele>154</ele>
        <time>1970-01-01T04:15:42.000Z</time>
      </trkpt>
      <trkpt lat="42.20475" lon="2.718757">
        <ele>154</ele>
        <time>1970-01-01T04:15:43.000Z</time>
      </trkpt>
      <trkpt lat="42.204702" lon="2.718441">
        <ele>154</ele>
        <time>1970-01-01T04:15:44.000Z</time>
      </trkpt>
      <trkpt lat="42.204679" lon="2.718283">
        <ele>154</ele>
        <time>1970-01-01T04:15:45.000Z</time>
      </trkpt>
      <trkpt lat="42.204656" lon="2.718124">
        <ele>154</ele>
        <time>1970-01-01T04:15:46.000Z</time>
      </trkpt>
      <trkpt lat="42.20462" lon="2.717864">
        <ele>154</ele>
        <time>1970-01-01T04:15:47.000Z</time>
      </trkpt>
      <trkpt lat="42.204606" lon="2.717762">
        <ele>154</ele>
        <time>1970-01-01T04:15:48.000Z</time>
      </trkpt>
      <trkpt lat="42.204593" lon="2.717659">
        <ele>149</ele>
        <time>1970-01-01T04:15:49.000Z</time>
      </trkpt>
      <trkpt lat="42.204556" lon="2.717353">
        <ele>149</ele>
        <time>1970-01-01T04:15:51.000Z</time>
      </trkpt>
      <trkpt lat="42.204516" lon="2.717059">
        <ele>149</ele>
        <time>1970-01-01T04:15:53.000Z</time>
      </trkpt>
      <trkpt lat="42.204495" lon="2.716917">
        <ele>149</ele>
        <time>1970-01-01T04:15:54.000Z</time>
      </trkpt>
      <trkpt lat="42.204472" lon="2.716779">
        <ele>149</ele>
        <time>1970-01-01T04:15:55.000Z</time>
      </trkpt>
      <trkpt lat="42.204431" lon="2.716514">
        <ele>149</ele>
        <time>1970-01-01T04:15:57.000Z</time>
      </trkpt>
      <trkpt lat="42.204414" lon="2.716383">
        <ele>149</ele>
        <time>1970-01-01T04:15:58.000Z</time>
      </trkpt>
      <trkpt lat="42.204402" lon="2.716253">
        <ele>147</ele>
        <time>1970-01-01T04:15:59.000Z</time>
      </trkpt>
      <trkpt lat="42.204396" lon="2.716008">
        <ele>147</ele>
        <time>1970-01-01T04:16:00.000Z</time>
      </trkpt>
      <trkpt lat="42.204402" lon="2.715891">
        <ele>147</ele>
        <time>1970-01-01T04:16:02.000Z</time>
      </trkpt>
      <trkpt lat="42.204407" lon="2.715775">
        <ele>147</ele>
        <time>1970-01-01T04:16:03.000Z</time>
      </trkpt>
      <trkpt lat="42.204413" lon="2.715659">
        <ele>147</ele>
        <time>1970-01-01T04:16:04.000Z</time>
      </trkpt>
      <trkpt lat="42.204419" lon="2.715542">
        <ele>147</ele>
        <time>1970-01-01T04:16:05.000Z</time>
      </trkpt>
      <trkpt lat="42.204425" lon="2.715426">
        <ele>147</ele>
        <time>1970-01-01T04:16:06.000Z</time>
      </trkpt>
      <trkpt lat="42.20443" lon="2.71531">
        <ele>147</ele>
        <time>1970-01-01T04:16:08.000Z</time>
      </trkpt>
      <trkpt lat="42.204436" lon="2.715193">
        <ele>147</ele>
        <time>1970-01-01T04:16:09.000Z</time>
      </trkpt>
      <trkpt lat="42.204442" lon="2.715077">
        <ele>150</ele>
        <time>1970-01-01T04:16:10.000Z</time>
      </trkpt>
      <trkpt lat="42.20448" lon="2.714882">
        <ele>150</ele>
        <time>1970-01-01T04:16:11.000Z</time>
      </trkpt>
      <trkpt lat="42.204496" lon="2.714823">
        <ele>150</ele>
        <time>1970-01-01T04:16:12.000Z</time>
      </trkpt>
      <trkpt lat="42.204511" lon="2.714763">
        <ele>150</ele>
        <time>1970-01-01T04:16:13.000Z</time>
      </trkpt>
      <trkpt lat="42.204527" lon="2.714704">
        <ele>150</ele>
        <time>1970-01-01T04:16:14.000Z</time>
      </trkpt>
      <trkpt lat="42.204542" lon="2.714644">
        <ele>150</ele>
        <time>1970-01-01T04:16:15.000Z</time>
      </trkpt>
      <trkpt lat="42.204558" lon="2.714585">
        <ele>150</ele>
        <time>1970-01-01T04:16:16.000Z</time>
      </trkpt>
      <trkpt lat="42.204573" lon="2.714525">
        <ele>150</ele>
        <time>1970-01-01T04:16:17.000Z</time>
      </trkpt>
      <trkpt lat="42.204589" lon="2.714466">
        <ele>150</ele>
        <time>1970-01-01T04:16:18.000Z</time>
      </trkpt>
      <trkpt lat="42.204604" lon="2.714406">
        <ele>152</ele>
        <time>1970-01-01T04:16:19.000Z</time>
      </trkpt>
      <trkpt lat="42.204638" lon="2.714307">
        <ele>152</ele>
        <time>1970-01-01T04:16:20.000Z</time>
      </trkpt>
      <trkpt lat="42.204652" lon="2.714263">
        <ele>152</ele>
        <time>1970-01-01T04:16:21.000Z</time>
      </trkpt>
      <trkpt lat="42.204667" lon="2.714219">
        <ele>152</ele>
        <time>1970-01-01T04:16:22.000Z</time>
      </trkpt>
      <trkpt lat="42.204682" lon="2.714175">
        <ele>152</ele>
        <time>1970-01-01T04:16:23.000Z</time>
      </trkpt>
      <trkpt lat="42.204696" lon="2.714132">
        <ele>152</ele>
        <time>1970-01-01T04:16:24.000Z</time>
      </trkpt>
      <trkpt lat="42.204711" lon="2.714088">
        <ele>152</ele>
        <time>1970-01-01T04:16:26.000Z</time>
      </trkpt>
      <trkpt lat="42.204726" lon="2.714044">
        <ele>152</ele>
        <time>1970-01-01T04:16:27.000Z</time>
      </trkpt>
      <trkpt lat="42.20474" lon="2.714">
        <ele>152</ele>
        <time>1970-01-01T04:16:28.000Z</time>
      </trkpt>
      <trkpt lat="42.204755" lon="2.713956">
        <ele>155</ele>
        <time>1970-01-01T04:16:29.000Z</time>
      </trkpt>
      <trkpt lat="42.204778" lon="2.713849">
        <ele>155</ele>
        <time>1970-01-01T04:16:30.000Z</time>
      </trkpt>
      <trkpt lat="42.204785" lon="2.713785">
        <ele>155</ele>
        <time>1970-01-01T04:16:31.000Z</time>
      </trkpt>
      <trkpt lat="42.204791" lon="2.713722">
        <ele>155</ele>
        <time>1970-01-01T04:16:32.000Z</time>
      </trkpt>
      <trkpt lat="42.204797" lon="2.713659">
        <ele>155</ele>
        <time>1970-01-01T04:16:33.000Z</time>
      </trkpt>
      <trkpt lat="42.204804" lon="2.713595">
        <ele>155</ele>
        <time>1970-01-01T04:16:34.000Z</time>
      </trkpt>
      <trkpt lat="42.20481" lon="2.713532">
        <ele>155</ele>
        <time>1970-01-01T04:16:35.000Z</time>
      </trkpt>
      <trkpt lat="42.204816" lon="2.713469">
        <ele>155</ele>
        <time>1970-01-01T04:16:36.000Z</time>
      </trkpt>
      <trkpt lat="42.204823" lon="2.713405">
        <ele>155</ele>
        <time>1970-01-01T04:16:38.000Z</time>
      </trkpt>
      <trkpt lat="42.204829" lon="2.713342">
        <ele>155</ele>
        <time>1970-01-01T04:16:39.000Z</time>
      </trkpt>
      <trkpt lat="42.204766" lon="2.713168">
        <ele>155</ele>
        <time>1970-01-01T04:16:40.000Z</time>
      </trkpt>
      <trkpt lat="42.20472" lon="2.713104">
        <ele>155</ele>
        <time>1970-01-01T04:16:41.000Z</time>
      </trkpt>
      <trkpt lat="42.204675" lon="2.713041">
        <ele>155</ele>
        <time>1970-01-01T04:16:42.000Z</time>
      </trkpt>
      <trkpt lat="42.204629" lon="2.712978">
        <ele>155</ele>
        <time>1970-01-01T04:16:44.000Z</time>
      </trkpt>
      <trkpt lat="42.204584" lon="2.712915">
        <ele>155</ele>
        <time>1970-01-01T04:16:45.000Z</time>
      </trkpt>
      <trkpt lat="42.204538" lon="2.712851">
        <ele>155</ele>
        <time>1970-01-01T04:16:47.000Z</time>
      </trkpt>
      <trkpt lat="42.204493" lon="2.712788">
        <ele>155</ele>
        <time>1970-01-01T04:16:48.000Z</time>
      </trkpt>
      <trkpt lat="42.204447" lon="2.712725">
        <ele>155</ele>
        <time>1970-01-01T04:16:49.000Z</time>
      </trkpt>
      <trkpt lat="42.204258" lon="2.712572">
        <ele>155</ele>
        <time>1970-01-01T04:16:51.000Z</time>
      </trkpt>
      <trkpt lat="42.2042" lon="2.71251">
        <ele>155</ele>
        <time>1970-01-01T04:16:52.000Z</time>
      </trkpt>
      <trkpt lat="42.204141" lon="2.712448">
        <ele>155</ele>
        <time>1970-01-01T04:16:53.000Z</time>
      </trkpt>
      <trkpt lat="42.204083" lon="2.712386">
        <ele>155</ele>
        <time>1970-01-01T04:16:54.000Z</time>
      </trkpt>
      <trkpt lat="42.204024" lon="2.712325">
        <ele>155</ele>
        <time>1970-01-01T04:16:55.000Z</time>
      </trkpt>
      <trkpt lat="42.203966" lon="2.712263">
        <ele>155</ele>
        <time>1970-01-01T04:16:56.000Z</time>
      </trkpt>
      <trkpt lat="42.203907" lon="2.712201">
        <ele>155</ele>
        <time>1970-01-01T04:16:57.000Z</time>
      </trkpt>
      <trkpt lat="42.203849" lon="2.712139">
        <ele>155</ele>
        <time>1970-01-01T04:16:59.000Z</time>
      </trkpt>
      <trkpt lat="42.20379" lon="2.712077">
        <ele>149</ele>
        <time>1970-01-01T04:17:00.000Z</time>
      </trkpt>
      <trkpt lat="42.203722" lon="2.711921">
        <ele>149</ele>
        <time>1970-01-01T04:17:01.000Z</time>
      </trkpt>
      <trkpt lat="42.203701" lon="2.711846">
        <ele>149</ele>
        <time>1970-01-01T04:17:02.000Z</time>
      </trkpt>
      <trkpt lat="42.20368" lon="2.71177">
        <ele>149</ele>
        <time>1970-01-01T04:17:03.000Z</time>
      </trkpt>
      <trkpt lat="42.203659" lon="2.711694">
        <ele>149</ele>
        <time>1970-01-01T04:17:04.000Z</time>
      </trkpt>
      <trkpt lat="42.203638" lon="2.711618">
        <ele>149</ele>
        <time>1970-01-01T04:17:05.000Z</time>
      </trkpt>
      <trkpt lat="42.203617" lon="2.711543">
        <ele>149</ele>
        <time>1970-01-01T04:17:06.000Z</time>
      </trkpt>
      <trkpt lat="42.203596" lon="2.711467">
        <ele>149</ele>
        <time>1970-01-01T04:17:07.000Z</time>
      </trkpt>
      <trkpt lat="42.203575" lon="2.711391">
        <ele>149</ele>
        <time>1970-01-01T04:17:08.000Z</time>
      </trkpt>
      <trkpt lat="42.203554" lon="2.711316">
        <ele>149</ele>
        <time>1970-01-01T04:17:09.000Z</time>
      </trkpt>
      <trkpt lat="42.203533" lon="2.71124">
        <ele>148</ele>
        <time>1970-01-01T04:17:10.000Z</time>
      </trkpt>
      <trkpt lat="42.203523" lon="2.711088">
        <ele>148</ele>
        <time>1970-01-01T04:17:11.000Z</time>
      </trkpt>
      <trkpt lat="42.203523" lon="2.711038">
        <ele>148</ele>
        <time>1970-01-01T04:17:12.000Z</time>
      </trkpt>
      <trkpt lat="42.203524" lon="2.710988">
        <ele>148</ele>
        <time>1970-01-01T04:17:13.000Z</time>
      </trkpt>
      <trkpt lat="42.203525" lon="2.710938">
        <ele>148</ele>
        <time>1970-01-01T04:17:14.000Z</time>
      </trkpt>
      <trkpt lat="42.203525" lon="2.710889">
        <ele>148</ele>
        <time>1970-01-01T04:17:15.000Z</time>
      </trkpt>
      <trkpt lat="42.203526" lon="2.710839">
        <ele>148</ele>
        <time>1970-01-01T04:17:16.000Z</time>
      </trkpt>
      <trkpt lat="42.203527" lon="2.710789">
        <ele>148</ele>
        <time>1970-01-01T04:17:17.000Z</time>
      </trkpt>
      <trkpt lat="42.203527" lon="2.710739">
        <ele>148</ele>
        <time>1970-01-01T04:17:18.000Z</time>
      </trkpt>
      <trkpt lat="42.203528" lon="2.710689">
        <ele>149</ele>
        <time>1970-01-01T04:17:19.000Z</time>
      </trkpt>
      <trkpt lat="42.203531" lon="2.710586">
        <ele>149</ele>
        <time>1970-01-01T04:17:20.000Z</time>
      </trkpt>
      <trkpt lat="42.203532" lon="2.710535">
        <ele>149</ele>
        <time>1970-01-01T04:17:21.000Z</time>
      </trkpt>
      <trkpt lat="42.203534" lon="2.710485">
        <ele>149</ele>
        <time>1970-01-01T04:17:22.000Z</time>
      </trkpt>
      <trkpt lat="42.203535" lon="2.710434">
        <ele>149</ele>
        <time>1970-01-01T04:17:23.000Z</time>
      </trkpt>
      <trkpt lat="42.203537" lon="2.710383">
        <ele>149</ele>
        <time>1970-01-01T04:17:25.000Z</time>
      </trkpt>
      <trkpt lat="42.203538" lon="2.710332">
        <ele>149</ele>
        <time>1970-01-01T04:17:26.000Z</time>
      </trkpt>
      <trkpt lat="42.20354" lon="2.710282">
        <ele>149</ele>
        <time>1970-01-01T04:17:27.000Z</time>
      </trkpt>
      <trkpt lat="42.203541" lon="2.710231">
        <ele>149</ele>
        <time>1970-01-01T04:17:28.000Z</time>
      </trkpt>
      <trkpt lat="42.203543" lon="2.71018">
        <ele>150</ele>
        <time>1970-01-01T04:17:30.000Z</time>
      </trkpt>
      <trkpt lat="42.203557" lon="2.710031">
        <ele>150</ele>
        <time>1970-01-01T04:17:31.000Z</time>
      </trkpt>
      <trkpt lat="42.203561" lon="2.709982">
        <ele>150</ele>
        <time>1970-01-01T04:17:32.000Z</time>
      </trkpt>
      <trkpt lat="42.203566" lon="2.709932">
        <ele>150</ele>
        <time>1970-01-01T04:17:34.000Z</time>
      </trkpt>
      <trkpt lat="42.20357" lon="2.709883">
        <ele>150</ele>
        <time>1970-01-01T04:17:35.000Z</time>
      </trkpt>
      <trkpt lat="42.203575" lon="2.709833">
        <ele>150</ele>
        <time>1970-01-01T04:17:36.000Z</time>
      </trkpt>
      <trkpt lat="42.203579" lon="2.709783">
        <ele>150</ele>
        <time>1970-01-01T04:17:37.000Z</time>
      </trkpt>
      <trkpt lat="42.203584" lon="2.709734">
        <ele>150</ele>
        <time>1970-01-01T04:17:38.000Z</time>
      </trkpt>
      <trkpt lat="42.203588" lon="2.709684">
        <ele>153</ele>
        <time>1970-01-01T04:17:39.000Z</time>
      </trkpt>
      <trkpt lat="42.203605" lon="2.709536">
        <ele>153</ele>
        <time>1970-01-01T04:17:41.000Z</time>
      </trkpt>
      <trkpt lat="42.203611" lon="2.709486">
        <ele>153</ele>
        <time>1970-01-01T04:17:43.000Z</time>
      </trkpt>
      <trkpt lat="42.203618" lon="2.709437">
        <ele>153</ele>
        <time>1970-01-01T04:17:45.000Z</time>
      </trkpt>
      <trkpt lat="42.203624" lon="2.709387">
        <ele>153</ele>
        <time>1970-01-01T04:17:46.000Z</time>
      </trkpt>
      <trkpt lat="42.203631" lon="2.709338">
        <ele>153</ele>
        <time>1970-01-01T04:17:47.000Z</time>
      </trkpt>
      <trkpt lat="42.203637" lon="2.709288">
        <ele>153</ele>
        <time>1970-01-01T04:17:48.000Z</time>
      </trkpt>
      <trkpt lat="42.203644" lon="2.709239">
        <ele>155</ele>
        <time>1970-01-01T04:17:49.000Z</time>
      </trkpt>
      <trkpt lat="42.203657" lon="2.70915">
        <ele>155</ele>
        <time>1970-01-01T04:17:50.000Z</time>
      </trkpt>
      <trkpt lat="42.203665" lon="2.709108">
        <ele>155</ele>
        <time>1970-01-01T04:17:51.000Z</time>
      </trkpt>
      <trkpt lat="42.203672" lon="2.709067">
        <ele>155</ele>
        <time>1970-01-01T04:17:52.000Z</time>
      </trkpt>
      <trkpt lat="42.20368" lon="2.709025">
        <ele>155</ele>
        <time>1970-01-01T04:17:53.000Z</time>
      </trkpt>
      <trkpt lat="42.203687" lon="2.708984">
        <ele>155</ele>
        <time>1970-01-01T04:17:54.000Z</time>
      </trkpt>
      <trkpt lat="42.203694" lon="2.708942">
        <ele>155</ele>
        <time>1970-01-01T04:17:55.000Z</time>
      </trkpt>
      <trkpt lat="42.203702" lon="2.708901">
        <ele>155</ele>
        <time>1970-01-01T04:17:56.000Z</time>
      </trkpt>
      <trkpt lat="42.203709" lon="2.708859">
        <ele>155</ele>
        <time>1970-01-01T04:17:57.000Z</time>
      </trkpt>
      <trkpt lat="42.203717" lon="2.708818">
        <ele>155</ele>
        <time>1970-01-01T04:17:58.000Z</time>
      </trkpt>
      <trkpt lat="42.203724" lon="2.708776">
        <ele>157</ele>
        <time>1970-01-01T04:17:59.000Z</time>
      </trkpt>
      <trkpt lat="42.203748" lon="2.708692">
        <ele>157</ele>
        <time>1970-01-01T04:18:00.000Z</time>
      </trkpt>
      <trkpt lat="42.203761" lon="2.708652">
        <ele>157</ele>
        <time>1970-01-01T04:18:01.000Z</time>
      </trkpt>
      <trkpt lat="42.203773" lon="2.708611">
        <ele>157</ele>
        <time>1970-01-01T04:18:02.000Z</time>
      </trkpt>
      <trkpt lat="42.203786" lon="2.70857">
        <ele>157</ele>
        <time>1970-01-01T04:18:03.000Z</time>
      </trkpt>
      <trkpt lat="42.203799" lon="2.70853">
        <ele>157</ele>
        <time>1970-01-01T04:18:04.000Z</time>
      </trkpt>
      <trkpt lat="42.203812" lon="2.708489">
        <ele>157</ele>
        <time>1970-01-01T04:18:05.000Z</time>
      </trkpt>
      <trkpt lat="42.203825" lon="2.708448">
        <ele>157</ele>
        <time>1970-01-01T04:18:06.000Z</time>
      </trkpt>
      <trkpt lat="42.203837" lon="2.708407">
        <ele>157</ele>
        <time>1970-01-01T04:18:07.000Z</time>
      </trkpt>
      <trkpt lat="42.20385" lon="2.708367">
        <ele>157</ele>
        <time>1970-01-01T04:18:08.000Z</time>
      </trkpt>
      <trkpt lat="42.203863" lon="2.708326">
        <ele>160</ele>
        <time>1970-01-01T04:18:09.000Z</time>
      </trkpt>
      <trkpt lat="42.203906" lon="2.708225">
        <ele>160</ele>
        <time>1970-01-01T04:18:11.000Z</time>
      </trkpt>
      <trkpt lat="42.203925" lon="2.708182">
        <ele>160</ele>
        <time>1970-01-01T04:18:12.000Z</time>
      </trkpt>
      <trkpt lat="42.203945" lon="2.70814">
        <ele>160</ele>
        <time>1970-01-01T04:18:13.000Z</time>
      </trkpt>
      <trkpt lat="42.203964" lon="2.708098">
        <ele>160</ele>
        <time>1970-01-01T04:18:14.000Z</time>
      </trkpt>
      <trkpt lat="42.203984" lon="2.708055">
        <ele>160</ele>
        <time>1970-01-01T04:18:15.000Z</time>
      </trkpt>
      <trkpt lat="42.204003" lon="2.708013">
        <ele>160</ele>
        <time>1970-01-01T04:18:16.000Z</time>
      </trkpt>
      <trkpt lat="42.204023" lon="2.707971">
        <ele>160</ele>
        <time>1970-01-01T04:18:17.000Z</time>
      </trkpt>
      <trkpt lat="42.204042" lon="2.707928">
        <ele>160</ele>
        <time>1970-01-01T04:18:18.000Z</time>
      </trkpt>
      <trkpt lat="42.204062" lon="2.707886">
        <ele>159</ele>
        <time>1970-01-01T04:18:19.000Z</time>
      </trkpt>
      <trkpt lat="42.204114" lon="2.707786">
        <ele>159</ele>
        <time>1970-01-01T04:18:20.000Z</time>
      </trkpt>
      <trkpt lat="42.204142" lon="2.707737">
        <ele>159</ele>
        <time>1970-01-01T04:18:21.000Z</time>
      </trkpt>
      <trkpt lat="42.20417" lon="2.707688">
        <ele>159</ele>
        <time>1970-01-01T04:18:22.000Z</time>
      </trkpt>
      <trkpt lat="42.204198" lon="2.707639">
        <ele>159</ele>
        <time>1970-01-01T04:18:23.000Z</time>
      </trkpt>
      <trkpt lat="42.204227" lon="2.70759">
        <ele>159</ele>
        <time>1970-01-01T04:18:24.000Z</time>
      </trkpt>
      <trkpt lat="42.204255" lon="2.70754">
        <ele>159</ele>
        <time>1970-01-01T04:18:25.000Z</time>
      </trkpt>
      <trkpt lat="42.204283" lon="2.707491">
        <ele>159</ele>
        <time>1970-01-01T04:18:26.000Z</time>
      </trkpt>
      <trkpt lat="42.204311" lon="2.707442">
        <ele>159</ele>
        <time>1970-01-01T04:18:27.000Z</time>
      </trkpt>
      <trkpt lat="42.204339" lon="2.707393">
        <ele>159</ele>
        <time>1970-01-01T04:18:28.000Z</time>
      </trkpt>
      <trkpt lat="42.204367" lon="2.707344">
        <ele>159</ele>
        <time>1970-01-01T04:18:29.000Z</time>
      </trkpt>
      <trkpt lat="42.204426" lon="2.707257">
        <ele>159</ele>
        <time>1970-01-01T04:18:30.000Z</time>
      </trkpt>
      <trkpt lat="42.204454" lon="2.707218">
        <ele>159</ele>
        <time>1970-01-01T04:18:31.000Z</time>
      </trkpt>
      <trkpt lat="42.204483" lon="2.707178">
        <ele>159</ele>
        <time>1970-01-01T04:18:32.000Z</time>
      </trkpt>
      <trkpt lat="42.204512" lon="2.707139">
        <ele>159</ele>
        <time>1970-01-01T04:18:33.000Z</time>
      </trkpt>
      <trkpt lat="42.204541" lon="2.7071">
        <ele>159</ele>
        <time>1970-01-01T04:18:34.000Z</time>
      </trkpt>
      <trkpt lat="42.204569" lon="2.707061">
        <ele>159</ele>
        <time>1970-01-01T04:18:35.000Z</time>
      </trkpt>
      <trkpt lat="42.204598" lon="2.707022">
        <ele>159</ele>
        <time>1970-01-01T04:18:36.000Z</time>
      </trkpt>
      <trkpt lat="42.204627" lon="2.706982">
        <ele>159</ele>
        <time>1970-01-01T04:18:37.000Z</time>
      </trkpt>
      <trkpt lat="42.204655" lon="2.706943">
        <ele>159</ele>
        <time>1970-01-01T04:18:38.000Z</time>
      </trkpt>
      <trkpt lat="42.204684" lon="2.706904">
        <ele>159</ele>
        <time>1970-01-01T04:18:39.000Z</time>
      </trkpt>
      <trkpt lat="42.204742" lon="2.706831">
        <ele>159</ele>
        <time>1970-01-01T04:18:40.000Z</time>
      </trkpt>
      <trkpt lat="42.204763" lon="2.706787">
        <ele>159</ele>
        <time>1970-01-01T04:18:42.000Z</time>
      </trkpt>
      <trkpt lat="42.204783" lon="2.706744">
        <ele>159</ele>
        <time>1970-01-01T04:18:43.000Z</time>
      </trkpt>
      <trkpt lat="42.204804" lon="2.7067">
        <ele>159</ele>
        <time>1970-01-01T04:18:44.000Z</time>
      </trkpt>
      <trkpt lat="42.204824" lon="2.706656">
        <ele>159</ele>
        <time>1970-01-01T04:18:45.000Z</time>
      </trkpt>
      <trkpt lat="42.204845" lon="2.706612">
        <ele>159</ele>
        <time>1970-01-01T04:18:46.000Z</time>
      </trkpt>
      <trkpt lat="42.204865" lon="2.706569">
        <ele>159</ele>
        <time>1970-01-01T04:18:47.000Z</time>
      </trkpt>
      <trkpt lat="42.204886" lon="2.706525">
        <ele>159</ele>
        <time>1970-01-01T04:18:48.000Z</time>
      </trkpt>
      <trkpt lat="42.204906" lon="2.706481">
        <ele>159</ele>
        <time>1970-01-01T04:18:49.000Z</time>
      </trkpt>
      <trkpt lat="42.204838" lon="2.706415">
        <ele>159</ele>
        <time>1970-01-01T04:18:50.000Z</time>
      </trkpt>
      <trkpt lat="42.204788" lon="2.706401">
        <ele>159</ele>
        <time>1970-01-01T04:18:52.000Z</time>
      </trkpt>
      <trkpt lat="42.204739" lon="2.706387">
        <ele>159</ele>
        <time>1970-01-01T04:18:53.000Z</time>
      </trkpt>
      <trkpt lat="42.20469" lon="2.706373">
        <ele>159</ele>
        <time>1970-01-01T04:18:54.000Z</time>
      </trkpt>
      <trkpt lat="42.20464" lon="2.706359">
        <ele>159</ele>
        <time>1970-01-01T04:18:56.000Z</time>
      </trkpt>
      <trkpt lat="42.204591" lon="2.706345">
        <ele>159</ele>
        <time>1970-01-01T04:18:57.000Z</time>
      </trkpt>
      <trkpt lat="42.204541" lon="2.706331">
        <ele>159</ele>
        <time>1970-01-01T04:18:58.000Z</time>
      </trkpt>
      <trkpt lat="42.204492" lon="2.706317">
        <ele>160</ele>
        <time>1970-01-01T04:18:59.000Z</time>
      </trkpt>
      <trkpt lat="42.204358" lon="2.706261">
        <ele>160</ele>
        <time>1970-01-01T04:19:01.000Z</time>
      </trkpt>
      <trkpt lat="42.204293" lon="2.706226">
        <ele>160</ele>
        <time>1970-01-01T04:19:02.000Z</time>
      </trkpt>
      <trkpt lat="42.204228" lon="2.706191">
        <ele>160</ele>
        <time>1970-01-01T04:19:03.000Z</time>
      </trkpt>
      <trkpt lat="42.204162" lon="2.706156">
        <ele>160</ele>
        <time>1970-01-01T04:19:04.000Z</time>
      </trkpt>
      <trkpt lat="42.204097" lon="2.706121">
        <ele>160</ele>
        <time>1970-01-01T04:19:07.000Z</time>
      </trkpt>
      <trkpt lat="42.204032" lon="2.706086">
        <ele>160</ele>
        <time>1970-01-01T04:19:09.000Z</time>
      </trkpt>
      <trkpt lat="42.203854" lon="2.705989">
        <ele>160</ele>
        <time>1970-01-01T04:19:12.000Z</time>
      </trkpt>
      <trkpt lat="42.203817" lon="2.705956">
        <ele>160</ele>
        <time>1970-01-01T04:19:15.000Z</time>
      </trkpt>
      <trkpt lat="42.203779" lon="2.705924">
        <ele>160</ele>
        <time>1970-01-01T04:19:16.000Z</time>
      </trkpt>
      <trkpt lat="42.203742" lon="2.705891">
        <ele>160</ele>
        <time>1970-01-01T04:19:18.000Z</time>
      </trkpt>
      <trkpt lat="42.203704" lon="2.705859">
        <ele>162</ele>
        <time>1970-01-01T04:19:19.000Z</time>
      </trkpt>
      <trkpt lat="42.20366" lon="2.705804">
        <ele>162</ele>
        <time>1970-01-01T04:19:20.000Z</time>
      </trkpt>
      <trkpt lat="42.203645" lon="2.705772">
        <ele>162</ele>
        <time>1970-01-01T04:19:21.000Z</time>
      </trkpt>
      <trkpt lat="42.203629" lon="2.705741">
        <ele>162</ele>
        <time>1970-01-01T04:19:22.000Z</time>
      </trkpt>
      <trkpt lat="42.203613" lon="2.705709">
        <ele>162</ele>
        <time>1970-01-01T04:19:23.000Z</time>
      </trkpt>
      <trkpt lat="42.203598" lon="2.705677">
        <ele>162</ele>
        <time>1970-01-01T04:19:24.000Z</time>
      </trkpt>
      <trkpt lat="42.203582" lon="2.705645">
        <ele>162</ele>
        <time>1970-01-01T04:19:25.000Z</time>
      </trkpt>
      <trkpt lat="42.203566" lon="2.705613">
        <ele>162</ele>
        <time>1970-01-01T04:19:26.000Z</time>
      </trkpt>
      <trkpt lat="42.20355" lon="2.705582">
        <ele>162</ele>
        <time>1970-01-01T04:19:27.000Z</time>
      </trkpt>
      <trkpt lat="42.203535" lon="2.70555">
        <ele>162</ele>
        <time>1970-01-01T04:19:28.000Z</time>
      </trkpt>
      <trkpt lat="42.203519" lon="2.705518">
        <ele>164</ele>
        <time>1970-01-01T04:19:29.000Z</time>
      </trkpt>
      <trkpt lat="42.203455" lon="2.705456">
        <ele>164</ele>
        <time>1970-01-01T04:19:30.000Z</time>
      </trkpt>
      <trkpt lat="42.203419" lon="2.705429">
        <ele>164</ele>
        <time>1970-01-01T04:19:31.000Z</time>
      </trkpt>
      <trkpt lat="42.203382" lon="2.705402">
        <ele>164</ele>
        <time>1970-01-01T04:19:33.000Z</time>
      </trkpt>
      <trkpt lat="42.203345" lon="2.705375">
        <ele>164</ele>
        <time>1970-01-01T04:19:34.000Z</time>
      </trkpt>
      <trkpt lat="42.203308" lon="2.705349">
        <ele>164</ele>
        <time>1970-01-01T04:19:35.000Z</time>
      </trkpt>
      <trkpt lat="42.203272" lon="2.705322">
        <ele>164</ele>
        <time>1970-01-01T04:19:36.000Z</time>
      </trkpt>
      <trkpt lat="42.203235" lon="2.705295">
        <ele>164</ele>
        <time>1970-01-01T04:19:37.000Z</time>
      </trkpt>
      <trkpt lat="42.203198" lon="2.705268">
        <ele>164</ele>
        <time>1970-01-01T04:19:39.000Z</time>
      </trkpt>
      <trkpt lat="42.203166" lon="2.705195">
        <ele>164</ele>
        <time>1970-01-01T04:19:40.000Z</time>
      </trkpt>
      <trkpt lat="42.203154" lon="2.705147">
        <ele>164</ele>
        <time>1970-01-01T04:19:41.000Z</time>
      </trkpt>
      <trkpt lat="42.203142" lon="2.705098">
        <ele>164</ele>
        <time>1970-01-01T04:19:42.000Z</time>
      </trkpt>
      <trkpt lat="42.20313" lon="2.705049">
        <ele>164</ele>
        <time>1970-01-01T04:19:43.000Z</time>
      </trkpt>
      <trkpt lat="42.203118" lon="2.705">
        <ele>164</ele>
        <time>1970-01-01T04:19:44.000Z</time>
      </trkpt>
      <trkpt lat="42.203105" lon="2.704952">
        <ele>164</ele>
        <time>1970-01-01T04:19:45.000Z</time>
      </trkpt>
      <trkpt lat="42.203093" lon="2.704903">
        <ele>164</ele>
        <time>1970-01-01T04:19:46.000Z</time>
      </trkpt>
      <trkpt lat="42.203081" lon="2.704854">
        <ele>164</ele>
        <time>1970-01-01T04:19:47.000Z</time>
      </trkpt>
      <trkpt lat="42.203069" lon="2.704806">
        <ele>164</ele>
        <time>1970-01-01T04:19:48.000Z</time>
      </trkpt>
      <trkpt lat="42.203057" lon="2.704757">
        <ele>165</ele>
        <time>1970-01-01T04:19:49.000Z</time>
      </trkpt>
      <trkpt lat="42.203043" lon="2.704658">
        <ele>165</ele>
        <time>1970-01-01T04:19:50.000Z</time>
      </trkpt>
      <trkpt lat="42.203033" lon="2.704586">
        <ele>165</ele>
        <time>1970-01-01T04:19:51.000Z</time>
      </trkpt>
      <trkpt lat="42.203023" lon="2.704515">
        <ele>165</ele>
        <time>1970-01-01T04:19:52.000Z</time>
      </trkpt>
      <trkpt lat="42.203014" lon="2.704444">
        <ele>165</ele>
        <time>1970-01-01T04:19:54.000Z</time>
      </trkpt>
      <trkpt lat="42.203004" lon="2.704373">
        <ele>165</ele>
        <time>1970-01-01T04:19:55.000Z</time>
      </trkpt>
      <trkpt lat="42.202994" lon="2.704301">
        <ele>165</ele>
        <time>1970-01-01T04:19:57.000Z</time>
      </trkpt>
      <trkpt lat="42.202984" lon="2.70423">
        <ele>165</ele>
        <time>1970-01-01T04:19:58.000Z</time>
      </trkpt>
      <trkpt lat="42.202974" lon="2.704159">
        <ele>166</ele>
        <time>1970-01-01T04:19:59.000Z</time>
      </trkpt>
      <trkpt lat="42.202959" lon="2.704061">
        <ele>166</ele>
        <time>1970-01-01T04:20:00.000Z</time>
      </trkpt>
      <trkpt lat="42.20295" lon="2.703994">
        <ele>166</ele>
        <time>1970-01-01T04:20:01.000Z</time>
      </trkpt>
      <trkpt lat="42.20294" lon="2.703927">
        <ele>166</ele>
        <time>1970-01-01T04:20:03.000Z</time>
      </trkpt>
      <trkpt lat="42.202931" lon="2.70386">
        <ele>166</ele>
        <time>1970-01-01T04:20:04.000Z</time>
      </trkpt>
      <trkpt lat="42.202921" lon="2.703793">
        <ele>166</ele>
        <time>1970-01-01T04:20:05.000Z</time>
      </trkpt>
      <trkpt lat="42.202912" lon="2.703726">
        <ele>166</ele>
        <time>1970-01-01T04:20:06.000Z</time>
      </trkpt>
      <trkpt lat="42.202902" lon="2.703659">
        <ele>166</ele>
        <time>1970-01-01T04:20:07.000Z</time>
      </trkpt>
      <trkpt lat="42.202893" lon="2.703592">
        <ele>166</ele>
        <time>1970-01-01T04:20:08.000Z</time>
      </trkpt>
      <trkpt lat="42.202883" lon="2.703525">
        <ele>165</ele>
        <time>1970-01-01T04:20:09.000Z</time>
      </trkpt>
      <trkpt lat="42.202862" lon="2.703377">
        <ele>165</ele>
        <time>1970-01-01T04:20:10.000Z</time>
      </trkpt>
      <trkpt lat="42.202853" lon="2.703318">
        <ele>165</ele>
        <time>1970-01-01T04:20:11.000Z</time>
      </trkpt>
      <trkpt lat="42.202845" lon="2.70326">
        <ele>165</ele>
        <time>1970-01-01T04:20:12.000Z</time>
      </trkpt>
      <trkpt lat="42.202836" lon="2.703202">
        <ele>165</ele>
        <time>1970-01-01T04:20:13.000Z</time>
      </trkpt>
      <trkpt lat="42.202827" lon="2.703143">
        <ele>165</ele>
        <time>1970-01-01T04:20:14.000Z</time>
      </trkpt>
      <trkpt lat="42.202818" lon="2.703085">
        <ele>165</ele>
        <time>1970-01-01T04:20:15.000Z</time>
      </trkpt>
      <trkpt lat="42.20281" lon="2.703027">
        <ele>165</ele>
        <time>1970-01-01T04:20:17.000Z</time>
      </trkpt>
      <trkpt lat="42.202801" lon="2.702968">
        <ele>165</ele>
        <time>1970-01-01T04:20:18.000Z</time>
      </trkpt>
      <trkpt lat="42.202792" lon="2.70291">
        <ele>165</ele>
        <time>1970-01-01T04:20:19.000Z</time>
      </trkpt>
      <trkpt lat="42.202738" lon="2.702666">
        <ele>165</ele>
        <time>1970-01-01T04:20:21.000Z</time>
      </trkpt>
      <trkpt lat="42.202712" lon="2.702566">
        <ele>165</ele>
        <time>1970-01-01T04:20:22.000Z</time>
      </trkpt>
      <trkpt lat="42.202685" lon="2.702467">
        <ele>165</ele>
        <time>1970-01-01T04:20:23.000Z</time>
      </trkpt>
      <trkpt lat="42.202658" lon="2.702368">
        <ele>165</ele>
        <time>1970-01-01T04:20:24.000Z</time>
      </trkpt>
      <trkpt lat="42.202631" lon="2.702269">
        <ele>165</ele>
        <time>1970-01-01T04:20:25.000Z</time>
      </trkpt>
      <trkpt lat="42.202605" lon="2.702169">
        <ele>165</ele>
        <time>1970-01-01T04:20:27.000Z</time>
      </trkpt>
      <trkpt lat="42.202578" lon="2.70207">
        <ele>165</ele>
        <time>1970-01-01T04:20:29.000Z</time>
      </trkpt>
      <trkpt lat="42.202519" lon="2.701905">
        <ele>165</ele>
        <time>1970-01-01T04:20:30.000Z</time>
      </trkpt>
      <trkpt lat="42.202483" lon="2.701818">
        <ele>165</ele>
        <time>1970-01-01T04:20:31.000Z</time>
      </trkpt>
      <trkpt lat="42.202448" lon="2.701732">
        <ele>165</ele>
        <time>1970-01-01T04:20:32.000Z</time>
      </trkpt>
      <trkpt lat="42.202413" lon="2.701646">
        <ele>165</ele>
        <time>1970-01-01T04:20:33.000Z</time>
      </trkpt>
      <trkpt lat="42.202377" lon="2.70156">
        <ele>165</ele>
        <time>1970-01-01T04:20:35.000Z</time>
      </trkpt>
      <trkpt lat="42.202342" lon="2.701473">
        <ele>165</ele>
        <time>1970-01-01T04:20:36.000Z</time>
      </trkpt>
      <trkpt lat="42.202306" lon="2.701387">
        <ele>165</ele>
        <time>1970-01-01T04:20:37.000Z</time>
      </trkpt>
      <trkpt lat="42.202271" lon="2.701301">
        <ele>163</ele>
        <time>1970-01-01T04:20:39.000Z</time>
      </trkpt>
      <trkpt lat="42.202199" lon="2.701133">
        <ele>163</ele>
        <time>1970-01-01T04:20:40.000Z</time>
      </trkpt>
      <trkpt lat="42.202162" lon="2.701049">
        <ele>163</ele>
        <time>1970-01-01T04:20:41.000Z</time>
      </trkpt>
      <trkpt lat="42.202126" lon="2.700964">
        <ele>163</ele>
        <time>1970-01-01T04:20:43.000Z</time>
      </trkpt>
      <trkpt lat="42.202089" lon="2.70088">
        <ele>163</ele>
        <time>1970-01-01T04:20:44.000Z</time>
      </trkpt>
      <trkpt lat="42.202053" lon="2.700795">
        <ele>163</ele>
        <time>1970-01-01T04:20:45.000Z</time>
      </trkpt>
      <trkpt lat="42.202016" lon="2.700711">
        <ele>163</ele>
        <time>1970-01-01T04:20:46.000Z</time>
      </trkpt>
      <trkpt lat="42.20198" lon="2.700626">
        <ele>163</ele>
        <time>1970-01-01T04:20:47.000Z</time>
      </trkpt>
      <trkpt lat="42.201943" lon="2.700542">
        <ele>163</ele>
        <time>1970-01-01T04:20:48.000Z</time>
      </trkpt>
      <trkpt lat="42.201907" lon="2.700457">
        <ele>162</ele>
        <time>1970-01-01T04:20:49.000Z</time>
      </trkpt>
      <trkpt lat="42.201806" lon="2.700224">
        <ele>162</ele>
        <time>1970-01-01T04:20:50.000Z</time>
      </trkpt>
      <trkpt lat="42.201763" lon="2.700129">
        <ele>162</ele>
        <time>1970-01-01T04:20:51.000Z</time>
      </trkpt>
      <trkpt lat="42.201721" lon="2.700034">
        <ele>162</ele>
        <time>1970-01-01T04:20:52.000Z</time>
      </trkpt>
      <trkpt lat="42.201679" lon="2.699939">
        <ele>162</ele>
        <time>1970-01-01T04:20:53.000Z</time>
      </trkpt>
      <trkpt lat="42.201636" lon="2.699845">
        <ele>162</ele>
        <time>1970-01-01T04:20:55.000Z</time>
      </trkpt>
      <trkpt lat="42.201594" lon="2.69975">
        <ele>162</ele>
        <time>1970-01-01T04:20:56.000Z</time>
      </trkpt>
      <trkpt lat="42.201552" lon="2.699655">
        <ele>162</ele>
        <time>1970-01-01T04:20:57.000Z</time>
      </trkpt>
      <trkpt lat="42.201509" lon="2.69956">
        <ele>162</ele>
        <time>1970-01-01T04:20:58.000Z</time>
      </trkpt>
      <trkpt lat="42.201467" lon="2.699465">
        <ele>159</ele>
        <time>1970-01-01T04:20:59.000Z</time>
      </trkpt>
      <trkpt lat="42.201357" lon="2.699325">
        <ele>159</ele>
        <time>1970-01-01T04:21:00.000Z</time>
      </trkpt>
      <trkpt lat="42.201291" lon="2.699279">
        <ele>159</ele>
        <time>1970-01-01T04:21:02.000Z</time>
      </trkpt>
      <trkpt lat="42.201224" lon="2.699233">
        <ele>159</ele>
        <time>1970-01-01T04:21:03.000Z</time>
      </trkpt>
      <trkpt lat="42.201157" lon="2.699186">
        <ele>159</ele>
        <time>1970-01-01T04:21:04.000Z</time>
      </trkpt>
      <trkpt lat="42.20109" lon="2.69914">
        <ele>159</ele>
        <time>1970-01-01T04:21:05.000Z</time>
      </trkpt>
      <trkpt lat="42.201024" lon="2.699094">
        <ele>159</ele>
        <time>1970-01-01T04:21:06.000Z</time>
      </trkpt>
      <trkpt lat="42.200957" lon="2.699048">
        <ele>159</ele>
        <time>1970-01-01T04:21:08.000Z</time>
      </trkpt>
      <trkpt lat="42.20089" lon="2.699002">
        <ele>158</ele>
        <time>1970-01-01T04:21:09.000Z</time>
      </trkpt>
      <trkpt lat="42.200822" lon="2.698962">
        <ele>158</ele>
        <time>1970-01-01T04:21:10.000Z</time>
      </trkpt>
      <trkpt lat="42.200784" lon="2.698938">
        <ele>158</ele>
        <time>1970-01-01T04:21:11.000Z</time>
      </trkpt>
      <trkpt lat="42.200746" lon="2.698913">
        <ele>158</ele>
        <time>1970-01-01T04:21:12.000Z</time>
      </trkpt>
      <trkpt lat="42.200708" lon="2.698889">
        <ele>158</ele>
        <time>1970-01-01T04:21:13.000Z</time>
      </trkpt>
      <trkpt lat="42.20067" lon="2.698864">
        <ele>158</ele>
        <time>1970-01-01T04:21:14.000Z</time>
      </trkpt>
      <trkpt lat="42.200632" lon="2.698839">
        <ele>158</ele>
        <time>1970-01-01T04:21:15.000Z</time>
      </trkpt>
      <trkpt lat="42.200594" lon="2.698815">
        <ele>158</ele>
        <time>1970-01-01T04:21:16.000Z</time>
      </trkpt>
      <trkpt lat="42.200556" lon="2.69879">
        <ele>158</ele>
        <time>1970-01-01T04:21:17.000Z</time>
      </trkpt>
      <trkpt lat="42.200518" lon="2.698766">
        <ele>158</ele>
        <time>1970-01-01T04:21:18.000Z</time>
      </trkpt>
      <trkpt lat="42.20048" lon="2.698741">
        <ele>157</ele>
        <time>1970-01-01T04:21:19.000Z</time>
      </trkpt>
      <trkpt lat="42.200455" lon="2.698657">
        <ele>157</ele>
        <time>1970-01-01T04:21:20.000Z</time>
      </trkpt>
      <trkpt lat="42.200448" lon="2.698614">
        <ele>157</ele>
        <time>1970-01-01T04:21:21.000Z</time>
      </trkpt>
      <trkpt lat="42.200441" lon="2.69857">
        <ele>157</ele>
        <time>1970-01-01T04:21:22.000Z</time>
      </trkpt>
      <trkpt lat="42.200434" lon="2.698527">
        <ele>157</ele>
        <time>1970-01-01T04:21:23.000Z</time>
      </trkpt>
      <trkpt lat="42.200427" lon="2.698483">
        <ele>157</ele>
        <time>1970-01-01T04:21:24.000Z</time>
      </trkpt>
      <trkpt lat="42.200419" lon="2.698439">
        <ele>157</ele>
        <time>1970-01-01T04:21:25.000Z</time>
      </trkpt>
      <trkpt lat="42.200412" lon="2.698396">
        <ele>157</ele>
        <time>1970-01-01T04:21:26.000Z</time>
      </trkpt>
      <trkpt lat="42.200405" lon="2.698352">
        <ele>157</ele>
        <time>1970-01-01T04:21:27.000Z</time>
      </trkpt>
      <trkpt lat="42.200398" lon="2.698309">
        <ele>157</ele>
        <time>1970-01-01T04:21:28.000Z</time>
      </trkpt>
      <trkpt lat="42.200391" lon="2.698265">
        <ele>157</ele>
        <time>1970-01-01T04:21:29.000Z</time>
      </trkpt>
      <trkpt lat="42.200374" lon="2.698114">
        <ele>157</ele>
        <time>1970-01-01T04:21:31.000Z</time>
      </trkpt>
      <trkpt lat="42.200367" lon="2.698057">
        <ele>157</ele>
        <time>1970-01-01T04:21:33.000Z</time>
      </trkpt>
      <trkpt lat="42.200361" lon="2.698001">
        <ele>157</ele>
        <time>1970-01-01T04:21:34.000Z</time>
      </trkpt>
      <trkpt lat="42.200354" lon="2.697944">
        <ele>157</ele>
        <time>1970-01-01T04:21:36.000Z</time>
      </trkpt>
      <trkpt lat="42.200348" lon="2.697888">
        <ele>157</ele>
        <time>1970-01-01T04:21:37.000Z</time>
      </trkpt>
      <trkpt lat="42.200341" lon="2.697831">
        <ele>157</ele>
        <time>1970-01-01T04:21:38.000Z</time>
      </trkpt>
      <trkpt lat="42.200335" lon="2.697775">
        <ele>157</ele>
        <time>1970-01-01T04:21:39.000Z</time>
      </trkpt>
      <trkpt lat="42.200326" lon="2.697701">
        <ele>157</ele>
        <time>1970-01-01T04:21:40.000Z</time>
      </trkpt>
      <trkpt lat="42.200321" lon="2.69767">
        <ele>157</ele>
        <time>1970-01-01T04:21:41.000Z</time>
      </trkpt>
      <trkpt lat="42.200316" lon="2.69764">
        <ele>158</ele>
        <time>1970-01-01T04:21:49.000Z</time>
      </trkpt>
      <trkpt lat="42.200311" lon="2.69761">
        <ele>158</ele>
        <time>1970-01-01T04:21:50.000Z</time>
      </trkpt>
      <trkpt lat="42.200306" lon="2.697579">
        <ele>158</ele>
        <time>1970-01-01T04:22:08.000Z</time>
      </trkpt>
      <trkpt lat="42.2003" lon="2.697549">
        <ele>158</ele>
        <time>1970-01-01T04:22:11.000Z</time>
      </trkpt>
      <trkpt lat="42.200295" lon="2.697519">
        <ele>158</ele>
        <time>1970-01-01T04:22:14.000Z</time>
      </trkpt>
      <trkpt lat="42.20029" lon="2.697489">
        <ele>158</ele>
        <time>1970-01-01T04:22:15.000Z</time>
      </trkpt>
      <trkpt lat="42.200285" lon="2.697458">
        <ele>158</ele>
        <time>1970-01-01T04:22:16.000Z</time>
      </trkpt>
      <trkpt lat="42.20028" lon="2.697428">
        <ele>159</ele>
        <time>1970-01-01T04:22:17.000Z</time>
      </trkpt>
      <trkpt lat="42.200274" lon="2.697391">
        <ele>159</ele>
        <time>1970-01-01T04:22:18.000Z</time>
      </trkpt>
      <trkpt lat="42.200262" lon="2.697361">
        <ele>159</ele>
        <time>1970-01-01T04:22:19.000Z</time>
      </trkpt>
      <trkpt lat="42.200249" lon="2.697333">
        <ele>159</ele>
        <time>1970-01-01T04:22:20.000Z</time>
      </trkpt>
      <trkpt lat="42.200236" lon="2.697303">
        <ele>159</ele>
        <time>1970-01-01T04:22:21.000Z</time>
      </trkpt>
      <trkpt lat="42.200224" lon="2.697272">
        <ele>159</ele>
        <time>1970-01-01T04:22:22.000Z</time>
      </trkpt>
      <trkpt lat="42.200217" lon="2.697247">
        <ele>159</ele>
        <time>1970-01-01T04:22:23.000Z</time>
      </trkpt>
      <trkpt lat="42.200204" lon="2.697213">
        <ele>159</ele>
        <time>1970-01-01T04:22:25.000Z</time>
      </trkpt>
      <trkpt lat="42.200204" lon="2.697213">
        <ele>159</ele>
        <time>1970-01-01T04:22:28.000Z</time>
      </trkpt>
      <trkpt lat="42.200205" lon="2.697164">
        <ele>159</ele>
        <time>1970-01-01T04:22:32.000Z</time>
      </trkpt>
      <trkpt lat="42.200209" lon="2.697123">
        <ele>161</ele>
        <time>1970-01-01T04:35:51.000Z</time>
      </trkpt>
      <trkpt lat="42.200212" lon="2.697081">
        <ele>162</ele>
        <time>1970-01-01T04:35:56.000Z</time>
      </trkpt>
      <trkpt lat="42.200216" lon="2.69704">
        <ele>162</ele>
        <time>1970-01-01T04:36:20.000Z</time>
      </trkpt>
      <trkpt lat="42.20022" lon="2.696998">
        <ele>162</ele>
        <time>1970-01-01T04:36:21.000Z</time>
      </trkpt>
      <trkpt lat="42.200224" lon="2.696957">
        <ele>162</ele>
        <time>1970-01-01T04:36:22.000Z</time>
      </trkpt>
      <trkpt lat="42.200228" lon="2.696915">
        <ele>162</ele>
        <time>1970-01-01T04:36:24.000Z</time>
      </trkpt>
      <trkpt lat="42.200232" lon="2.696874">
        <ele>162</ele>
        <time>1970-01-01T04:36:25.000Z</time>
      </trkpt>
      <trkpt lat="42.200235" lon="2.696832">
        <ele>162</ele>
        <time>1970-01-01T04:36:26.000Z</time>
      </trkpt>
      <trkpt lat="42.200239" lon="2.696791">
        <ele>162</ele>
        <time>1970-01-01T04:36:28.000Z</time>
      </trkpt>
      <trkpt lat="42.200243" lon="2.696749">
        <ele>162</ele>
        <time>1970-01-01T04:36:29.000Z</time>
      </trkpt>
      <trkpt lat="42.200247" lon="2.69665">
        <ele>162</ele>
        <time>1970-01-01T04:36:30.000Z</time>
      </trkpt>
      <trkpt lat="42.200248" lon="2.696604">
        <ele>162</ele>
        <time>1970-01-01T04:36:31.000Z</time>
      </trkpt>
      <trkpt lat="42.200249" lon="2.696559">
        <ele>162</ele>
        <time>1970-01-01T04:36:32.000Z</time>
      </trkpt>
      <trkpt lat="42.20025" lon="2.696513">
        <ele>162</ele>
        <time>1970-01-01T04:36:33.000Z</time>
      </trkpt>
      <trkpt lat="42.200251" lon="2.696468">
        <ele>162</ele>
        <time>1970-01-01T04:36:34.000Z</time>
      </trkpt>
      <trkpt lat="42.200252" lon="2.696423">
        <ele>162</ele>
        <time>1970-01-01T04:36:35.000Z</time>
      </trkpt>
      <trkpt lat="42.200253" lon="2.696377">
        <ele>162</ele>
        <time>1970-01-01T04:36:36.000Z</time>
      </trkpt>
      <trkpt lat="42.200254" lon="2.696332">
        <ele>162</ele>
        <time>1970-01-01T04:36:37.000Z</time>
      </trkpt>
      <trkpt lat="42.200255" lon="2.696286">
        <ele>162</ele>
        <time>1970-01-01T04:36:38.000Z</time>
      </trkpt>
      <trkpt lat="42.200256" lon="2.696241">
        <ele>163</ele>
        <time>1970-01-01T04:36:39.000Z</time>
      </trkpt>
      <trkpt lat="42.20026" lon="2.69613">
        <ele>163</ele>
        <time>1970-01-01T04:36:40.000Z</time>
      </trkpt>
      <trkpt lat="42.200263" lon="2.696068">
        <ele>163</ele>
        <time>1970-01-01T04:36:41.000Z</time>
      </trkpt>
      <trkpt lat="42.200267" lon="2.696006">
        <ele>163</ele>
        <time>1970-01-01T04:36:42.000Z</time>
      </trkpt>
      <trkpt lat="42.200271" lon="2.695944">
        <ele>163</ele>
        <time>1970-01-01T04:36:43.000Z</time>
      </trkpt>
      <trkpt lat="42.200275" lon="2.695882">
        <ele>163</ele>
        <time>1970-01-01T04:36:44.000Z</time>
      </trkpt>
      <trkpt lat="42.200278" lon="2.695819">
        <ele>163</ele>
        <time>1970-01-01T04:36:45.000Z</time>
      </trkpt>
      <trkpt lat="42.200282" lon="2.695757">
        <ele>163</ele>
        <time>1970-01-01T04:36:46.000Z</time>
      </trkpt>
      <trkpt lat="42.200286" lon="2.695695">
        <ele>163</ele>
        <time>1970-01-01T04:36:47.000Z</time>
      </trkpt>
      <trkpt lat="42.200289" lon="2.695633">
        <ele>163</ele>
        <time>1970-01-01T04:36:48.000Z</time>
      </trkpt>
      <trkpt lat="42.200293" lon="2.695571">
        <ele>163</ele>
        <time>1970-01-01T04:36:49.000Z</time>
      </trkpt>
      <trkpt lat="42.200331" lon="2.695461">
        <ele>163</ele>
        <time>1970-01-01T04:36:50.000Z</time>
      </trkpt>
      <trkpt lat="42.200358" lon="2.695403">
        <ele>163</ele>
        <time>1970-01-01T04:36:52.000Z</time>
      </trkpt>
      <trkpt lat="42.200384" lon="2.695346">
        <ele>163</ele>
        <time>1970-01-01T04:36:54.000Z</time>
      </trkpt>
      <trkpt lat="42.20041" lon="2.695288">
        <ele>163</ele>
        <time>1970-01-01T04:36:55.000Z</time>
      </trkpt>
      <trkpt lat="42.200436" lon="2.695231">
        <ele>163</ele>
        <time>1970-01-01T04:36:57.000Z</time>
      </trkpt>
      <trkpt lat="42.200463" lon="2.695173">
        <ele>163</ele>
        <time>1970-01-01T04:36:58.000Z</time>
      </trkpt>
      <trkpt lat="42.200489" lon="2.695116">
        <ele>163</ele>
        <time>1970-01-01T04:36:59.000Z</time>
      </trkpt>
      <trkpt lat="42.20055" lon="2.695006">
        <ele>163</ele>
        <time>1970-01-01T04:37:00.000Z</time>
      </trkpt>
      <trkpt lat="42.200576" lon="2.694961">
        <ele>163</ele>
        <time>1970-01-01T04:37:01.000Z</time>
      </trkpt>
      <trkpt lat="42.200602" lon="2.694917">
        <ele>163</ele>
        <time>1970-01-01T04:37:02.000Z</time>
      </trkpt>
      <trkpt lat="42.200629" lon="2.694873">
        <ele>163</ele>
        <time>1970-01-01T04:37:04.000Z</time>
      </trkpt>
      <trkpt lat="42.200655" lon="2.694828">
        <ele>163</ele>
        <time>1970-01-01T04:37:06.000Z</time>
      </trkpt>
      <trkpt lat="42.200681" lon="2.694784">
        <ele>163</ele>
        <time>1970-01-01T04:37:07.000Z</time>
      </trkpt>
      <trkpt lat="42.200707" lon="2.694739">
        <ele>163</ele>
        <time>1970-01-01T04:37:08.000Z</time>
      </trkpt>
      <trkpt lat="42.200733" lon="2.694695">
        <ele>163</ele>
        <time>1970-01-01T04:37:09.000Z</time>
      </trkpt>
      <trkpt lat="42.200778" lon="2.694618">
        <ele>163</ele>
        <time>1970-01-01T04:37:10.000Z</time>
      </trkpt>
      <trkpt lat="42.200799" lon="2.69458">
        <ele>163</ele>
        <time>1970-01-01T04:37:11.000Z</time>
      </trkpt>
      <trkpt lat="42.200819" lon="2.694542">
        <ele>163</ele>
        <time>1970-01-01T04:37:12.000Z</time>
      </trkpt>
      <trkpt lat="42.20084" lon="2.694504">
        <ele>163</ele>
        <time>1970-01-01T04:37:14.000Z</time>
      </trkpt>
      <trkpt lat="42.20086" lon="2.694467">
        <ele>163</ele>
        <time>1970-01-01T04:37:15.000Z</time>
      </trkpt>
      <trkpt lat="42.200881" lon="2.694429">
        <ele>163</ele>
        <time>1970-01-01T04:37:16.000Z</time>
      </trkpt>
      <trkpt lat="42.200901" lon="2.694391">
        <ele>163</ele>
        <time>1970-01-01T04:37:17.000Z</time>
      </trkpt>
      <trkpt lat="42.200922" lon="2.694353">
        <ele>163</ele>
        <time>1970-01-01T04:37:18.000Z</time>
      </trkpt>
      <trkpt lat="42.200942" lon="2.694315">
        <ele>163</ele>
        <time>1970-01-01T04:37:19.000Z</time>
      </trkpt>
      <trkpt lat="42.201031" lon="2.69416">
        <ele>163</ele>
        <time>1970-01-01T04:37:21.000Z</time>
      </trkpt>
      <trkpt lat="42.20107" lon="2.694094">
        <ele>163</ele>
        <time>1970-01-01T04:37:22.000Z</time>
      </trkpt>
      <trkpt lat="42.20111" lon="2.694028">
        <ele>163</ele>
        <time>1970-01-01T04:37:24.000Z</time>
      </trkpt>
      <trkpt lat="42.201149" lon="2.693961">
        <ele>163</ele>
        <time>1970-01-01T04:37:25.000Z</time>
      </trkpt>
      <trkpt lat="42.201189" lon="2.693895">
        <ele>163</ele>
        <time>1970-01-01T04:37:27.000Z</time>
      </trkpt>
      <trkpt lat="42.201228" lon="2.693829">
        <ele>162</ele>
        <time>1970-01-01T04:37:29.000Z</time>
      </trkpt>
      <trkpt lat="42.201281" lon="2.693737">
        <ele>162</ele>
        <time>1970-01-01T04:37:30.000Z</time>
      </trkpt>
      <trkpt lat="42.201308" lon="2.693691">
        <ele>162</ele>
        <time>1970-01-01T04:37:31.000Z</time>
      </trkpt>
      <trkpt lat="42.201334" lon="2.693645">
        <ele>162</ele>
        <time>1970-01-01T04:37:32.000Z</time>
      </trkpt>
      <trkpt lat="42.201361" lon="2.693599">
        <ele>162</ele>
        <time>1970-01-01T04:37:33.000Z</time>
      </trkpt>
      <trkpt lat="42.201388" lon="2.693554">
        <ele>162</ele>
        <time>1970-01-01T04:37:34.000Z</time>
      </trkpt>
      <trkpt lat="42.201415" lon="2.693508">
        <ele>162</ele>
        <time>1970-01-01T04:37:35.000Z</time>
      </trkpt>
      <trkpt lat="42.201441" lon="2.693462">
        <ele>162</ele>
        <time>1970-01-01T04:37:37.000Z</time>
      </trkpt>
      <trkpt lat="42.201468" lon="2.693416">
        <ele>162</ele>
        <time>1970-01-01T04:37:38.000Z</time>
      </trkpt>
      <trkpt lat="42.201495" lon="2.69337">
        <ele>163</ele>
        <time>1970-01-01T04:37:39.000Z</time>
      </trkpt>
      <trkpt lat="42.20155" lon="2.693274">
        <ele>163</ele>
        <time>1970-01-01T04:37:40.000Z</time>
      </trkpt>
      <trkpt lat="42.20158" lon="2.693223">
        <ele>163</ele>
        <time>1970-01-01T04:37:41.000Z</time>
      </trkpt>
      <trkpt lat="42.201609" lon="2.693173">
        <ele>163</ele>
        <time>1970-01-01T04:37:43.000Z</time>
      </trkpt>
      <trkpt lat="42.201638" lon="2.693122">
        <ele>163</ele>
        <time>1970-01-01T04:37:44.000Z</time>
      </trkpt>
      <trkpt lat="42.201667" lon="2.693072">
        <ele>163</ele>
        <time>1970-01-01T04:37:46.000Z</time>
      </trkpt>
      <trkpt lat="42.201697" lon="2.693021">
        <ele>163</ele>
        <time>1970-01-01T04:37:48.000Z</time>
      </trkpt>
      <trkpt lat="42.201726" lon="2.692971">
        <ele>164</ele>
        <time>1970-01-01T04:37:49.000Z</time>
      </trkpt>
      <trkpt lat="42.201763" lon="2.692901">
        <ele>164</ele>
        <time>1970-01-01T04:37:50.000Z</time>
      </trkpt>
      <trkpt lat="42.201792" lon="2.69285">
        <ele>164</ele>
        <time>1970-01-01T04:37:51.000Z</time>
      </trkpt>
      <trkpt lat="42.20182" lon="2.692798">
        <ele>164</ele>
        <time>1970-01-01T04:37:53.000Z</time>
      </trkpt>
      <trkpt lat="42.201849" lon="2.692747">
        <ele>164</ele>
        <time>1970-01-01T04:37:54.000Z</time>
      </trkpt>
      <trkpt lat="42.201877" lon="2.692695">
        <ele>164</ele>
        <time>1970-01-01T04:37:56.000Z</time>
      </trkpt>
      <trkpt lat="42.201906" lon="2.692644">
        <ele>164</ele>
        <time>1970-01-01T04:37:57.000Z</time>
      </trkpt>
      <trkpt lat="42.201934" lon="2.692592">
        <ele>165</ele>
        <time>1970-01-01T04:37:59.000Z</time>
      </trkpt>
      <trkpt lat="42.201978" lon="2.692515">
        <ele>165</ele>
        <time>1970-01-01T04:38:01.000Z</time>
      </trkpt>
      <trkpt lat="42.202001" lon="2.692475">
        <ele>165</ele>
        <time>1970-01-01T04:38:02.000Z</time>
      </trkpt>
      <trkpt lat="42.202023" lon="2.692435">
        <ele>165</ele>
        <time>1970-01-01T04:38:03.000Z</time>
      </trkpt>
      <trkpt lat="42.202045" lon="2.692396">
        <ele>165</ele>
        <time>1970-01-01T04:38:04.000Z</time>
      </trkpt>
      <trkpt lat="42.202067" lon="2.692356">
        <ele>165</ele>
        <time>1970-01-01T04:38:05.000Z</time>
      </trkpt>
      <trkpt lat="42.20209" lon="2.692316">
        <ele>165</ele>
        <time>1970-01-01T04:38:07.000Z</time>
      </trkpt>
      <trkpt lat="42.202112" lon="2.692276">
        <ele>165</ele>
        <time>1970-01-01T04:38:08.000Z</time>
      </trkpt>
      <trkpt lat="42.202134" lon="2.692236">
        <ele>165</ele>
        <time>1970-01-01T04:38:09.000Z</time>
      </trkpt>
      <trkpt lat="42.202178" lon="2.692158">
        <ele>165</ele>
        <time>1970-01-01T04:38:10.000Z</time>
      </trkpt>
      <trkpt lat="42.202199" lon="2.69212">
        <ele>165</ele>
        <time>1970-01-01T04:38:11.000Z</time>
      </trkpt>
      <trkpt lat="42.202221" lon="2.692083">
        <ele>165</ele>
        <time>1970-01-01T04:38:12.000Z</time>
      </trkpt>
      <trkpt lat="42.202242" lon="2.692045">
        <ele>165</ele>
        <time>1970-01-01T04:38:13.000Z</time>
      </trkpt>
      <trkpt lat="42.202264" lon="2.692008">
        <ele>165</ele>
        <time>1970-01-01T04:38:14.000Z</time>
      </trkpt>
      <trkpt lat="42.202286" lon="2.691971">
        <ele>165</ele>
        <time>1970-01-01T04:38:15.000Z</time>
      </trkpt>
      <trkpt lat="42.202307" lon="2.691933">
        <ele>165</ele>
        <time>1970-01-01T04:38:16.000Z</time>
      </trkpt>
      <trkpt lat="42.202329" lon="2.691896">
        <ele>165</ele>
        <time>1970-01-01T04:38:17.000Z</time>
      </trkpt>
      <trkpt lat="42.20235" lon="2.691858">
        <ele>165</ele>
        <time>1970-01-01T04:38:18.000Z</time>
      </trkpt>
      <trkpt lat="42.202372" lon="2.691821">
        <ele>165</ele>
        <time>1970-01-01T04:38:19.000Z</time>
      </trkpt>
      <trkpt lat="42.202417" lon="2.691743">
        <ele>165</ele>
        <time>1970-01-01T04:38:20.000Z</time>
      </trkpt>
      <trkpt lat="42.202438" lon="2.691707">
        <ele>165</ele>
        <time>1970-01-01T04:38:21.000Z</time>
      </trkpt>
      <trkpt lat="42.202459" lon="2.691671">
        <ele>165</ele>
        <time>1970-01-01T04:38:22.000Z</time>
      </trkpt>
      <trkpt lat="42.20248" lon="2.691635">
        <ele>165</ele>
        <time>1970-01-01T04:38:23.000Z</time>
      </trkpt>
      <trkpt lat="42.202502" lon="2.691599">
        <ele>165</ele>
        <time>1970-01-01T04:38:24.000Z</time>
      </trkpt>
      <trkpt lat="42.202523" lon="2.691562">
        <ele>165</ele>
        <time>1970-01-01T04:38:25.000Z</time>
      </trkpt>
      <trkpt lat="42.202544" lon="2.691526">
        <ele>165</ele>
        <time>1970-01-01T04:38:26.000Z</time>
      </trkpt>
      <trkpt lat="42.202565" lon="2.69149">
        <ele>165</ele>
        <time>1970-01-01T04:38:27.000Z</time>
      </trkpt>
      <trkpt lat="42.202586" lon="2.691454">
        <ele>165</ele>
        <time>1970-01-01T04:38:28.000Z</time>
      </trkpt>
      <trkpt lat="42.202607" lon="2.691418">
        <ele>166</ele>
        <time>1970-01-01T04:38:29.000Z</time>
      </trkpt>
      <trkpt lat="42.202649" lon="2.691348">
        <ele>166</ele>
        <time>1970-01-01T04:38:30.000Z</time>
      </trkpt>
      <trkpt lat="42.20267" lon="2.691312">
        <ele>166</ele>
        <time>1970-01-01T04:38:31.000Z</time>
      </trkpt>
      <trkpt lat="42.202692" lon="2.691275">
        <ele>166</ele>
        <time>1970-01-01T04:38:32.000Z</time>
      </trkpt>
      <trkpt lat="42.202713" lon="2.691239">
        <ele>166</ele>
        <time>1970-01-01T04:38:33.000Z</time>
      </trkpt>
      <trkpt lat="42.202734" lon="2.691203">
        <ele>166</ele>
        <time>1970-01-01T04:38:34.000Z</time>
      </trkpt>
      <trkpt lat="42.202755" lon="2.691167">
        <ele>166</ele>
        <time>1970-01-01T04:38:35.000Z</time>
      </trkpt>
      <trkpt lat="42.202776" lon="2.691131">
        <ele>166</ele>
        <time>1970-01-01T04:38:36.000Z</time>
      </trkpt>
      <trkpt lat="42.202798" lon="2.691094">
        <ele>166</ele>
        <time>1970-01-01T04:38:37.000Z</time>
      </trkpt>
      <trkpt lat="42.202819" lon="2.691058">
        <ele>166</ele>
        <time>1970-01-01T04:38:38.000Z</time>
      </trkpt>
      <trkpt lat="42.20284" lon="2.691022">
        <ele>167</ele>
        <time>1970-01-01T04:38:39.000Z</time>
      </trkpt>
      <trkpt lat="42.202884" lon="2.690945">
        <ele>167</ele>
        <time>1970-01-01T04:38:40.000Z</time>
      </trkpt>
      <trkpt lat="42.202904" lon="2.690908">
        <ele>167</ele>
        <time>1970-01-01T04:38:41.000Z</time>
      </trkpt>
      <trkpt lat="42.202925" lon="2.690872">
        <ele>167</ele>
        <time>1970-01-01T04:38:42.000Z</time>
      </trkpt>
      <trkpt lat="42.202946" lon="2.690835">
        <ele>167</ele>
        <time>1970-01-01T04:38:43.000Z</time>
      </trkpt>
      <trkpt lat="42.202967" lon="2.690799">
        <ele>167</ele>
        <time>1970-01-01T04:38:44.000Z</time>
      </trkpt>
      <trkpt lat="42.202987" lon="2.690762">
        <ele>167</ele>
        <time>1970-01-01T04:38:45.000Z</time>
      </trkpt>
      <trkpt lat="42.203008" lon="2.690726">
        <ele>167</ele>
        <time>1970-01-01T04:38:46.000Z</time>
      </trkpt>
      <trkpt lat="42.203029" lon="2.690689">
        <ele>167</ele>
        <time>1970-01-01T04:38:47.000Z</time>
      </trkpt>
      <trkpt lat="42.203049" lon="2.690653">
        <ele>167</ele>
        <time>1970-01-01T04:38:48.000Z</time>
      </trkpt>
      <trkpt lat="42.20307" lon="2.690616">
        <ele>167</ele>
        <time>1970-01-01T04:38:49.000Z</time>
      </trkpt>
      <trkpt lat="42.203116" lon="2.690536">
        <ele>167</ele>
        <time>1970-01-01T04:38:50.000Z</time>
      </trkpt>
      <trkpt lat="42.203139" lon="2.690496">
        <ele>167</ele>
        <time>1970-01-01T04:38:51.000Z</time>
      </trkpt>
      <trkpt lat="42.203161" lon="2.690456">
        <ele>167</ele>
        <time>1970-01-01T04:38:52.000Z</time>
      </trkpt>
      <trkpt lat="42.203184" lon="2.690416">
        <ele>167</ele>
        <time>1970-01-01T04:38:53.000Z</time>
      </trkpt>
      <trkpt lat="42.203206" lon="2.690377">
        <ele>167</ele>
        <time>1970-01-01T04:38:54.000Z</time>
      </trkpt>
      <trkpt lat="42.203228" lon="2.690337">
        <ele>167</ele>
        <time>1970-01-01T04:38:55.000Z</time>
      </trkpt>
      <trkpt lat="42.203251" lon="2.690297">
        <ele>167</ele>
        <time>1970-01-01T04:38:56.000Z</time>
      </trkpt>
      <trkpt lat="42.203273" lon="2.690257">
        <ele>167</ele>
        <time>1970-01-01T04:38:57.000Z</time>
      </trkpt>
      <trkpt lat="42.203296" lon="2.690217">
        <ele>167</ele>
        <time>1970-01-01T04:38:58.000Z</time>
      </trkpt>
      <trkpt lat="42.203318" lon="2.690177">
        <ele>168</ele>
        <time>1970-01-01T04:38:59.000Z</time>
      </trkpt>
      <trkpt lat="42.203377" lon="2.69007">
        <ele>168</ele>
        <time>1970-01-01T04:39:01.000Z</time>
      </trkpt>
      <trkpt lat="42.203396" lon="2.690038">
        <ele>168</ele>
        <time>1970-01-01T04:39:02.000Z</time>
      </trkpt>
      <trkpt lat="42.203415" lon="2.690005">
        <ele>168</ele>
        <time>1970-01-01T04:39:03.000Z</time>
      </trkpt>
      <trkpt lat="42.203434" lon="2.689972">
        <ele>168</ele>
        <time>1970-01-01T04:39:04.000Z</time>
      </trkpt>
      <trkpt lat="42.203452" lon="2.689939">
        <ele>168</ele>
        <time>1970-01-01T04:39:06.000Z</time>
      </trkpt>
      <trkpt lat="42.203471" lon="2.689907">
        <ele>168</ele>
        <time>1970-01-01T04:39:07.000Z</time>
      </trkpt>
      <trkpt lat="42.20349" lon="2.689874">
        <ele>168</ele>
        <time>1970-01-01T04:39:08.000Z</time>
      </trkpt>
      <trkpt lat="42.203509" lon="2.689841">
        <ele>170</ele>
        <time>1970-01-01T04:39:09.000Z</time>
      </trkpt>
      <trkpt lat="42.203547" lon="2.689775">
        <ele>170</ele>
        <time>1970-01-01T04:39:10.000Z</time>
      </trkpt>
      <trkpt lat="42.203566" lon="2.689742">
        <ele>170</ele>
        <time>1970-01-01T04:39:12.000Z</time>
      </trkpt>
      <trkpt lat="42.203585" lon="2.689709">
        <ele>170</ele>
        <time>1970-01-01T04:39:13.000Z</time>
      </trkpt>
      <trkpt lat="42.203604" lon="2.689676">
        <ele>170</ele>
        <time>1970-01-01T04:39:14.000Z</time>
      </trkpt>
      <trkpt lat="42.203622" lon="2.689643">
        <ele>170</ele>
        <time>1970-01-01T04:39:15.000Z</time>
      </trkpt>
      <trkpt lat="42.203641" lon="2.68961">
        <ele>170</ele>
        <time>1970-01-01T04:39:16.000Z</time>
      </trkpt>
      <trkpt lat="42.20366" lon="2.689577">
        <ele>170</ele>
        <time>1970-01-01T04:39:18.000Z</time>
      </trkpt>
      <trkpt lat="42.203679" lon="2.689544">
        <ele>171</ele>
        <time>1970-01-01T04:39:19.000Z</time>
      </trkpt>
      <trkpt lat="42.203717" lon="2.689483">
        <ele>171</ele>
        <time>1970-01-01T04:39:20.000Z</time>
      </trkpt>
      <trkpt lat="42.203734" lon="2.689454">
        <ele>171</ele>
        <time>1970-01-01T04:39:21.000Z</time>
      </trkpt>
      <trkpt lat="42.203752" lon="2.689425">
        <ele>171</ele>
        <time>1970-01-01T04:39:22.000Z</time>
      </trkpt>
      <trkpt lat="42.203769" lon="2.689396">
        <ele>171</ele>
        <time>1970-01-01T04:39:23.000Z</time>
      </trkpt>
      <trkpt lat="42.203787" lon="2.689367">
        <ele>171</ele>
        <time>1970-01-01T04:39:24.000Z</time>
      </trkpt>
      <trkpt lat="42.203805" lon="2.689337">
        <ele>171</ele>
        <time>1970-01-01T04:39:25.000Z</time>
      </trkpt>
      <trkpt lat="42.203822" lon="2.689308">
        <ele>171</ele>
        <time>1970-01-01T04:39:26.000Z</time>
      </trkpt>
      <trkpt lat="42.20384" lon="2.689279">
        <ele>171</ele>
        <time>1970-01-01T04:39:27.000Z</time>
      </trkpt>
      <trkpt lat="42.203857" lon="2.68925">
        <ele>171</ele>
        <time>1970-01-01T04:39:28.000Z</time>
      </trkpt>
      <trkpt lat="42.203875" lon="2.689221">
        <ele>173</ele>
        <time>1970-01-01T04:39:29.000Z</time>
      </trkpt>
      <trkpt lat="42.203935" lon="2.689112">
        <ele>173</ele>
        <time>1970-01-01T04:39:31.000Z</time>
      </trkpt>
      <trkpt lat="42.203957" lon="2.689073">
        <ele>173</ele>
        <time>1970-01-01T04:39:32.000Z</time>
      </trkpt>
      <trkpt lat="42.203979" lon="2.689033">
        <ele>173</ele>
        <time>1970-01-01T04:39:33.000Z</time>
      </trkpt>
      <trkpt lat="42.204001" lon="2.688994">
        <ele>173</ele>
        <time>1970-01-01T04:39:34.000Z</time>
      </trkpt>
      <trkpt lat="42.204023" lon="2.688954">
        <ele>173</ele>
        <time>1970-01-01T04:39:36.000Z</time>
      </trkpt>
      <trkpt lat="42.204045" lon="2.688914">
        <ele>173</ele>
        <time>1970-01-01T04:39:38.000Z</time>
      </trkpt>
      <trkpt lat="42.204067" lon="2.688875">
        <ele>173</ele>
        <time>1970-01-01T04:39:39.000Z</time>
      </trkpt>
      <trkpt lat="42.204089" lon="2.688835">
        <ele>174</ele>
        <time>1970-01-01T04:39:40.000Z</time>
      </trkpt>
      <trkpt lat="42.204131" lon="2.688762">
        <ele>174</ele>
        <time>1970-01-01T04:39:41.000Z</time>
      </trkpt>
      <trkpt lat="42.204145" lon="2.688736">
        <ele>174</ele>
        <time>1970-01-01T04:39:42.000Z</time>
      </trkpt>
      <trkpt lat="42.20416" lon="2.68871">
        <ele>174</ele>
        <time>1970-01-01T04:39:43.000Z</time>
      </trkpt>
      <trkpt lat="42.204174" lon="2.688684">
        <ele>174</ele>
        <time>1970-01-01T04:39:44.000Z</time>
      </trkpt>
      <trkpt lat="42.204189" lon="2.688659">
        <ele>174</ele>
        <time>1970-01-01T04:39:45.000Z</time>
      </trkpt>
      <trkpt lat="42.204203" lon="2.688633">
        <ele>174</ele>
        <time>1970-01-01T04:39:46.000Z</time>
      </trkpt>
      <trkpt lat="42.204218" lon="2.688607">
        <ele>174</ele>
        <time>1970-01-01T04:39:47.000Z</time>
      </trkpt>
      <trkpt lat="42.204232" lon="2.688581">
        <ele>174</ele>
        <time>1970-01-01T04:39:48.000Z</time>
      </trkpt>
      <trkpt lat="42.204247" lon="2.688555">
        <ele>175</ele>
        <time>1970-01-01T04:39:49.000Z</time>
      </trkpt>
      <trkpt lat="42.204279" lon="2.688502">
        <ele>175</ele>
        <time>1970-01-01T04:39:50.000Z</time>
      </trkpt>
      <trkpt lat="42.204293" lon="2.688477">
        <ele>175</ele>
        <time>1970-01-01T04:39:51.000Z</time>
      </trkpt>
      <trkpt lat="42.204308" lon="2.688453">
        <ele>175</ele>
        <time>1970-01-01T04:39:52.000Z</time>
      </trkpt>
      <trkpt lat="42.204323" lon="2.688428">
        <ele>175</ele>
        <time>1970-01-01T04:39:53.000Z</time>
      </trkpt>
      <trkpt lat="42.204338" lon="2.688403">
        <ele>175</ele>
        <time>1970-01-01T04:39:54.000Z</time>
      </trkpt>
      <trkpt lat="42.204352" lon="2.688378">
        <ele>175</ele>
        <time>1970-01-01T04:39:55.000Z</time>
      </trkpt>
      <trkpt lat="42.204367" lon="2.688353">
        <ele>175</ele>
        <time>1970-01-01T04:39:56.000Z</time>
      </trkpt>
      <trkpt lat="42.204382" lon="2.688329">
        <ele>175</ele>
        <time>1970-01-01T04:39:57.000Z</time>
      </trkpt>
      <trkpt lat="42.204396" lon="2.688304">
        <ele>175</ele>
        <time>1970-01-01T04:39:58.000Z</time>
      </trkpt>
      <trkpt lat="42.204411" lon="2.688279">
        <ele>177</ele>
        <time>1970-01-01T04:39:59.000Z</time>
      </trkpt>
      <trkpt lat="42.204452" lon="2.688205">
        <ele>177</ele>
        <time>1970-01-01T04:40:01.000Z</time>
      </trkpt>
      <trkpt lat="42.204472" lon="2.68817">
        <ele>177</ele>
        <time>1970-01-01T04:40:02.000Z</time>
      </trkpt>
      <trkpt lat="42.204492" lon="2.688136">
        <ele>177</ele>
        <time>1970-01-01T04:40:04.000Z</time>
      </trkpt>
      <trkpt lat="42.204511" lon="2.688102">
        <ele>177</ele>
        <time>1970-01-01T04:40:05.000Z</time>
      </trkpt>
      <trkpt lat="42.204531" lon="2.688068">
        <ele>177</ele>
        <time>1970-01-01T04:40:06.000Z</time>
      </trkpt>
      <trkpt lat="42.204551" lon="2.688033">
        <ele>177</ele>
        <time>1970-01-01T04:40:07.000Z</time>
      </trkpt>
      <trkpt lat="42.204571" lon="2.687999">
        <ele>178</ele>
        <time>1970-01-01T04:40:09.000Z</time>
      </trkpt>
      <trkpt lat="42.204629" lon="2.687903">
        <ele>178</ele>
        <time>1970-01-01T04:40:10.000Z</time>
      </trkpt>
      <trkpt lat="42.204651" lon="2.687866">
        <ele>178</ele>
        <time>1970-01-01T04:40:11.000Z</time>
      </trkpt>
      <trkpt lat="42.204672" lon="2.687829">
        <ele>178</ele>
        <time>1970-01-01T04:40:13.000Z</time>
      </trkpt>
      <trkpt lat="42.204694" lon="2.687791">
        <ele>178</ele>
        <time>1970-01-01T04:40:15.000Z</time>
      </trkpt>
      <trkpt lat="42.204715" lon="2.687754">
        <ele>178</ele>
        <time>1970-01-01T04:40:17.000Z</time>
      </trkpt>
      <trkpt lat="42.204737" lon="2.687717">
        <ele>178</ele>
        <time>1970-01-01T04:40:18.000Z</time>
      </trkpt>
      <trkpt lat="42.204758" lon="2.68768">
        <ele>179</ele>
        <time>1970-01-01T04:40:19.000Z</time>
      </trkpt>
      <trkpt lat="42.204785" lon="2.68763">
        <ele>179</ele>
        <time>1970-01-01T04:40:20.000Z</time>
      </trkpt>
      <trkpt lat="42.204805" lon="2.687596">
        <ele>179</ele>
        <time>1970-01-01T04:40:21.000Z</time>
      </trkpt>
      <trkpt lat="42.204824" lon="2.687561">
        <ele>179</ele>
        <time>1970-01-01T04:40:22.000Z</time>
      </trkpt>
      <trkpt lat="42.204843" lon="2.687527">
        <ele>179</ele>
        <time>1970-01-01T04:40:23.000Z</time>
      </trkpt>
      <trkpt lat="42.204863" lon="2.687493">
        <ele>179</ele>
        <time>1970-01-01T04:40:24.000Z</time>
      </trkpt>
      <trkpt lat="42.204882" lon="2.687459">
        <ele>179</ele>
        <time>1970-01-01T04:40:26.000Z</time>
      </trkpt>
      <trkpt lat="42.204901" lon="2.687424">
        <ele>179</ele>
        <time>1970-01-01T04:40:27.000Z</time>
      </trkpt>
      <trkpt lat="42.204921" lon="2.68739">
        <ele>179</ele>
        <time>1970-01-01T04:40:28.000Z</time>
      </trkpt>
      <trkpt lat="42.20494" lon="2.687356">
        <ele>180</ele>
        <time>1970-01-01T04:40:29.000Z</time>
      </trkpt>
      <trkpt lat="42.204974" lon="2.687286">
        <ele>180</ele>
        <time>1970-01-01T04:40:30.000Z</time>
      </trkpt>
      <trkpt lat="42.204993" lon="2.687249">
        <ele>180</ele>
        <time>1970-01-01T04:40:32.000Z</time>
      </trkpt>
      <trkpt lat="42.205011" lon="2.687211">
        <ele>180</ele>
        <time>1970-01-01T04:40:34.000Z</time>
      </trkpt>
      <trkpt lat="42.20503" lon="2.687173">
        <ele>180</ele>
        <time>1970-01-01T04:40:35.000Z</time>
      </trkpt>
      <trkpt lat="42.205048" lon="2.687135">
        <ele>180</ele>
        <time>1970-01-01T04:40:37.000Z</time>
      </trkpt>
      <trkpt lat="42.205067" lon="2.687098">
        <ele>180</ele>
        <time>1970-01-01T04:40:38.000Z</time>
      </trkpt>
      <trkpt lat="42.205085" lon="2.68706">
        <ele>180</ele>
        <time>1970-01-01T04:40:39.000Z</time>
      </trkpt>
      <trkpt lat="42.20511" lon="2.686983">
        <ele>180</ele>
        <time>1970-01-01T04:40:40.000Z</time>
      </trkpt>
      <trkpt lat="42.205121" lon="2.686941">
        <ele>180</ele>
        <time>1970-01-01T04:40:41.000Z</time>
      </trkpt>
      <trkpt lat="42.205133" lon="2.6869">
        <ele>180</ele>
        <time>1970-01-01T04:40:42.000Z</time>
      </trkpt>
      <trkpt lat="42.205144" lon="2.686859">
        <ele>180</ele>
        <time>1970-01-01T04:40:43.000Z</time>
      </trkpt>
      <trkpt lat="42.205155" lon="2.686817">
        <ele>180</ele>
        <time>1970-01-01T04:40:45.000Z</time>
      </trkpt>
      <trkpt lat="42.205166" lon="2.686776">
        <ele>180</ele>
        <time>1970-01-01T04:40:46.000Z</time>
      </trkpt>
      <trkpt lat="42.205178" lon="2.686735">
        <ele>180</ele>
        <time>1970-01-01T04:40:47.000Z</time>
      </trkpt>
      <trkpt lat="42.205189" lon="2.686693">
        <ele>180</ele>
        <time>1970-01-01T04:40:48.000Z</time>
      </trkpt>
      <trkpt lat="42.2052" lon="2.686652">
        <ele>181</ele>
        <time>1970-01-01T04:40:49.000Z</time>
      </trkpt>
      <trkpt lat="42.20521" lon="2.686562">
        <ele>181</ele>
        <time>1970-01-01T04:40:50.000Z</time>
      </trkpt>
      <trkpt lat="42.205212" lon="2.686516">
        <ele>181</ele>
        <time>1970-01-01T04:40:51.000Z</time>
      </trkpt>
      <trkpt lat="42.205215" lon="2.686471">
        <ele>181</ele>
        <time>1970-01-01T04:40:52.000Z</time>
      </trkpt>
      <trkpt lat="42.205218" lon="2.686425">
        <ele>181</ele>
        <time>1970-01-01T04:40:53.000Z</time>
      </trkpt>
      <trkpt lat="42.20522" lon="2.68638">
        <ele>181</ele>
        <time>1970-01-01T04:40:54.000Z</time>
      </trkpt>
      <trkpt lat="42.205223" lon="2.686334">
        <ele>181</ele>
        <time>1970-01-01T04:40:55.000Z</time>
      </trkpt>
      <trkpt lat="42.205226" lon="2.686289">
        <ele>181</ele>
        <time>1970-01-01T04:40:57.000Z</time>
      </trkpt>
      <trkpt lat="42.205228" lon="2.686243">
        <ele>181</ele>
        <time>1970-01-01T04:40:58.000Z</time>
      </trkpt>
      <trkpt lat="42.205231" lon="2.686198">
        <ele>183</ele>
        <time>1970-01-01T04:40:59.000Z</time>
      </trkpt>
      <trkpt lat="42.205226" lon="2.686103">
        <ele>183</ele>
        <time>1970-01-01T04:41:00.000Z</time>
      </trkpt>
      <trkpt lat="42.205222" lon="2.686067">
        <ele>183</ele>
        <time>1970-01-01T04:41:02.000Z</time>
      </trkpt>
      <trkpt lat="42.205217" lon="2.686032">
        <ele>183</ele>
        <time>1970-01-01T04:41:03.000Z</time>
      </trkpt>
      <trkpt lat="42.205213" lon="2.685996">
        <ele>183</ele>
        <time>1970-01-01T04:41:04.000Z</time>
      </trkpt>
      <trkpt lat="42.205209" lon="2.685961">
        <ele>183</ele>
        <time>1970-01-01T04:41:05.000Z</time>
      </trkpt>
      <trkpt lat="42.205205" lon="2.685925">
        <ele>183</ele>
        <time>1970-01-01T04:41:06.000Z</time>
      </trkpt>
      <trkpt lat="42.2052" lon="2.68589">
        <ele>183</ele>
        <time>1970-01-01T04:41:07.000Z</time>
      </trkpt>
      <trkpt lat="42.205196" lon="2.685854">
        <ele>183</ele>
        <time>1970-01-01T04:41:08.000Z</time>
      </trkpt>
      <trkpt lat="42.205192" lon="2.685819">
        <ele>184</ele>
        <time>1970-01-01T04:41:09.000Z</time>
      </trkpt>
      <trkpt lat="42.205179" lon="2.685735">
        <ele>184</ele>
        <time>1970-01-01T04:41:10.000Z</time>
      </trkpt>
      <trkpt lat="42.205173" lon="2.685689">
        <ele>184</ele>
        <time>1970-01-01T04:41:11.000Z</time>
      </trkpt>
      <trkpt lat="42.205167" lon="2.685643">
        <ele>184</ele>
        <time>1970-01-01T04:41:13.000Z</time>
      </trkpt>
      <trkpt lat="42.205162" lon="2.685597">
        <ele>184</ele>
        <time>1970-01-01T04:41:14.000Z</time>
      </trkpt>
      <trkpt lat="42.205156" lon="2.685552">
        <ele>184</ele>
        <time>1970-01-01T04:41:15.000Z</time>
      </trkpt>
      <trkpt lat="42.20515" lon="2.685506">
        <ele>184</ele>
        <time>1970-01-01T04:41:16.000Z</time>
      </trkpt>
      <trkpt lat="42.205144" lon="2.68546">
        <ele>184</ele>
        <time>1970-01-01T04:41:17.000Z</time>
      </trkpt>
      <trkpt lat="42.205138" lon="2.685414">
        <ele>186</ele>
        <time>1970-01-01T04:41:19.000Z</time>
      </trkpt>
      <trkpt lat="42.20513" lon="2.685336">
        <ele>186</ele>
        <time>1970-01-01T04:41:20.000Z</time>
      </trkpt>
      <trkpt lat="42.205127" lon="2.685298">
        <ele>186</ele>
        <time>1970-01-01T04:41:21.000Z</time>
      </trkpt>
      <trkpt lat="42.205125" lon="2.68526">
        <ele>186</ele>
        <time>1970-01-01T04:41:22.000Z</time>
      </trkpt>
      <trkpt lat="42.205122" lon="2.685222">
        <ele>186</ele>
        <time>1970-01-01T04:41:23.000Z</time>
      </trkpt>
      <trkpt lat="42.205119" lon="2.685184">
        <ele>186</ele>
        <time>1970-01-01T04:41:24.000Z</time>
      </trkpt>
      <trkpt lat="42.205116" lon="2.685146">
        <ele>186</ele>
        <time>1970-01-01T04:41:25.000Z</time>
      </trkpt>
      <trkpt lat="42.205113" lon="2.685108">
        <ele>186</ele>
        <time>1970-01-01T04:41:26.000Z</time>
      </trkpt>
      <trkpt lat="42.205111" lon="2.68507">
        <ele>186</ele>
        <time>1970-01-01T04:41:27.000Z</time>
      </trkpt>
      <trkpt lat="42.205108" lon="2.685032">
        <ele>186</ele>
        <time>1970-01-01T04:41:28.000Z</time>
      </trkpt>
      <trkpt lat="42.205105" lon="2.684994">
        <ele>188</ele>
        <time>1970-01-01T04:41:29.000Z</time>
      </trkpt>
      <trkpt lat="42.205111" lon="2.684895">
        <ele>188</ele>
        <time>1970-01-01T04:41:30.000Z</time>
      </trkpt>
      <trkpt lat="42.205116" lon="2.684857">
        <ele>188</ele>
        <time>1970-01-01T04:41:32.000Z</time>
      </trkpt>
      <trkpt lat="42.205122" lon="2.684818">
        <ele>188</ele>
        <time>1970-01-01T04:41:34.000Z</time>
      </trkpt>
      <trkpt lat="42.205128" lon="2.684779">
        <ele>188</ele>
        <time>1970-01-01T04:41:35.000Z</time>
      </trkpt>
      <trkpt lat="42.205133" lon="2.68474">
        <ele>188</ele>
        <time>1970-01-01T04:41:36.000Z</time>
      </trkpt>
      <trkpt lat="42.205139" lon="2.684702">
        <ele>188</ele>
        <time>1970-01-01T04:41:37.000Z</time>
      </trkpt>
      <trkpt lat="42.205144" lon="2.684663">
        <ele>188</ele>
        <time>1970-01-01T04:41:38.000Z</time>
      </trkpt>
      <trkpt lat="42.20515" lon="2.684624">
        <ele>188</ele>
        <time>1970-01-01T04:41:39.000Z</time>
      </trkpt>
      <trkpt lat="42.205172" lon="2.684548">
        <ele>188</ele>
        <time>1970-01-01T04:41:40.000Z</time>
      </trkpt>
      <trkpt lat="42.205184" lon="2.68451">
        <ele>188</ele>
        <time>1970-01-01T04:41:41.000Z</time>
      </trkpt>
      <trkpt lat="42.205197" lon="2.684471">
        <ele>188</ele>
        <time>1970-01-01T04:41:42.000Z</time>
      </trkpt>
      <trkpt lat="42.20521" lon="2.684433">
        <ele>188</ele>
        <time>1970-01-01T04:41:43.000Z</time>
      </trkpt>
      <trkpt lat="42.205222" lon="2.684395">
        <ele>188</ele>
        <time>1970-01-01T04:41:44.000Z</time>
      </trkpt>
      <trkpt lat="42.205235" lon="2.684357">
        <ele>188</ele>
        <time>1970-01-01T04:41:45.000Z</time>
      </trkpt>
      <trkpt lat="42.205248" lon="2.684318">
        <ele>188</ele>
        <time>1970-01-01T04:41:47.000Z</time>
      </trkpt>
      <trkpt lat="42.20526" lon="2.68428">
        <ele>188</ele>
        <time>1970-01-01T04:41:48.000Z</time>
      </trkpt>
      <trkpt lat="42.205273" lon="2.684242">
        <ele>190</ele>
        <time>1970-01-01T04:41:49.000Z</time>
      </trkpt>
      <trkpt lat="42.20532" lon="2.684152">
        <ele>190</ele>
        <time>1970-01-01T04:41:50.000Z</time>
      </trkpt>
      <trkpt lat="42.205344" lon="2.684112">
        <ele>190</ele>
        <time>1970-01-01T04:41:52.000Z</time>
      </trkpt>
      <trkpt lat="42.205368" lon="2.684073">
        <ele>190</ele>
        <time>1970-01-01T04:41:54.000Z</time>
      </trkpt>
      <trkpt lat="42.205392" lon="2.684034">
        <ele>190</ele>
        <time>1970-01-01T04:41:55.000Z</time>
      </trkpt>
      <trkpt lat="42.205416" lon="2.683995">
        <ele>190</ele>
        <time>1970-01-01T04:41:56.000Z</time>
      </trkpt>
      <trkpt lat="42.20544" lon="2.683955">
        <ele>190</ele>
        <time>1970-01-01T04:41:57.000Z</time>
      </trkpt>
      <trkpt lat="42.205464" lon="2.683916">
        <ele>192</ele>
        <time>1970-01-01T04:41:59.000Z</time>
      </trkpt>
      <trkpt lat="42.205509" lon="2.683864">
        <ele>192</ele>
        <time>1970-01-01T04:42:01.000Z</time>
      </trkpt>
      <trkpt lat="42.205533" lon="2.683839">
        <ele>192</ele>
        <time>1970-01-01T04:42:02.000Z</time>
      </trkpt>
      <trkpt lat="42.205556" lon="2.683813">
        <ele>192</ele>
        <time>1970-01-01T04:42:03.000Z</time>
      </trkpt>
      <trkpt lat="42.20558" lon="2.683788">
        <ele>192</ele>
        <time>1970-01-01T04:42:04.000Z</time>
      </trkpt>
      <trkpt lat="42.205603" lon="2.683763">
        <ele>192</ele>
        <time>1970-01-01T04:42:05.000Z</time>
      </trkpt>
      <trkpt lat="42.205626" lon="2.683738">
        <ele>192</ele>
        <time>1970-01-01T04:42:07.000Z</time>
      </trkpt>
      <trkpt lat="42.20565" lon="2.683712">
        <ele>192</ele>
        <time>1970-01-01T04:42:08.000Z</time>
      </trkpt>
      <trkpt lat="42.205673" lon="2.683687">
        <ele>194</ele>
        <time>1970-01-01T04:42:09.000Z</time>
      </trkpt>
      <trkpt lat="42.205725" lon="2.68364">
        <ele>194</ele>
        <time>1970-01-01T04:42:10.000Z</time>
      </trkpt>
      <trkpt lat="42.205753" lon="2.683617">
        <ele>194</ele>
        <time>1970-01-01T04:42:11.000Z</time>
      </trkpt>
      <trkpt lat="42.20578" lon="2.683594">
        <ele>194</ele>
        <time>1970-01-01T04:42:12.000Z</time>
      </trkpt>
      <trkpt lat="42.205808" lon="2.683571">
        <ele>194</ele>
        <time>1970-01-01T04:42:13.000Z</time>
      </trkpt>
      <trkpt lat="42.205835" lon="2.683548">
        <ele>194</ele>
        <time>1970-01-01T04:42:14.000Z</time>
      </trkpt>
      <trkpt lat="42.205863" lon="2.683525">
        <ele>194</ele>
        <time>1970-01-01T04:42:15.000Z</time>
      </trkpt>
      <trkpt lat="42.20589" lon="2.683502">
        <ele>194</ele>
        <time>1970-01-01T04:42:16.000Z</time>
      </trkpt>
      <trkpt lat="42.205918" lon="2.683479">
        <ele>194</ele>
        <time>1970-01-01T04:42:17.000Z</time>
      </trkpt>
      <trkpt lat="42.205945" lon="2.683456">
        <ele>196</ele>
        <time>1970-01-01T04:42:19.000Z</time>
      </trkpt>
      <trkpt lat="42.206005" lon="2.683404">
        <ele>196</ele>
        <time>1970-01-01T04:42:20.000Z</time>
      </trkpt>
      <trkpt lat="42.206035" lon="2.683377">
        <ele>196</ele>
        <time>1970-01-01T04:42:21.000Z</time>
      </trkpt>
      <trkpt lat="42.206066" lon="2.68335">
        <ele>196</ele>
        <time>1970-01-01T04:42:22.000Z</time>
      </trkpt>
      <trkpt lat="42.206096" lon="2.683323">
        <ele>196</ele>
        <time>1970-01-01T04:42:23.000Z</time>
      </trkpt>
      <trkpt lat="42.206127" lon="2.683296">
        <ele>196</ele>
        <time>1970-01-01T04:42:24.000Z</time>
      </trkpt>
      <trkpt lat="42.206157" lon="2.683269">
        <ele>196</ele>
        <time>1970-01-01T04:42:25.000Z</time>
      </trkpt>
      <trkpt lat="42.206188" lon="2.683242">
        <ele>196</ele>
        <time>1970-01-01T04:42:26.000Z</time>
      </trkpt>
      <trkpt lat="42.206218" lon="2.683215">
        <ele>196</ele>
        <time>1970-01-01T04:42:27.000Z</time>
      </trkpt>
      <trkpt lat="42.206249" lon="2.683188">
        <ele>196</ele>
        <time>1970-01-01T04:42:28.000Z</time>
      </trkpt>
      <trkpt lat="42.206279" lon="2.683161">
        <ele>197</ele>
        <time>1970-01-01T04:42:29.000Z</time>
      </trkpt>
      <trkpt lat="42.206413" lon="2.683022">
        <ele>197</ele>
        <time>1970-01-01T04:42:31.000Z</time>
      </trkpt>
      <trkpt lat="42.206451" lon="2.68298">
        <ele>197</ele>
        <time>1970-01-01T04:42:33.000Z</time>
      </trkpt>
      <trkpt lat="42.206489" lon="2.682937">
        <ele>197</ele>
        <time>1970-01-01T04:42:34.000Z</time>
      </trkpt>
      <trkpt lat="42.206527" lon="2.682894">
        <ele>197</ele>
        <time>1970-01-01T04:42:35.000Z</time>
      </trkpt>
      <trkpt lat="42.206565" lon="2.682851">
        <ele>197</ele>
        <time>1970-01-01T04:42:37.000Z</time>
      </trkpt>
      <trkpt lat="42.206603" lon="2.682809">
        <ele>197</ele>
        <time>1970-01-01T04:42:38.000Z</time>
      </trkpt>
      <trkpt lat="42.206641" lon="2.682766">
        <ele>196</ele>
        <time>1970-01-01T04:42:39.000Z</time>
      </trkpt>
      <trkpt lat="42.206724" lon="2.682638">
        <ele>196</ele>
        <time>1970-01-01T04:42:40.000Z</time>
      </trkpt>
      <trkpt lat="42.206769" lon="2.682559">
        <ele>196</ele>
        <time>1970-01-01T04:42:41.000Z</time>
      </trkpt>
      <trkpt lat="42.206814" lon="2.682479">
        <ele>196</ele>
        <time>1970-01-01T04:42:42.000Z</time>
      </trkpt>
      <trkpt lat="42.20686" lon="2.682399">
        <ele>196</ele>
        <time>1970-01-01T04:42:44.000Z</time>
      </trkpt>
      <trkpt lat="42.206905" lon="2.682319">
        <ele>196</ele>
        <time>1970-01-01T04:42:46.000Z</time>
      </trkpt>
      <trkpt lat="42.20695" lon="2.68224">
        <ele>196</ele>
        <time>1970-01-01T04:42:47.000Z</time>
      </trkpt>
      <trkpt lat="42.206995" lon="2.68216">
        <ele>196</ele>
        <time>1970-01-01T04:42:48.000Z</time>
      </trkpt>
      <trkpt lat="42.20704" lon="2.68208">
        <ele>195</ele>
        <time>1970-01-01T04:42:49.000Z</time>
      </trkpt>
      <trkpt lat="42.207081" lon="2.681987">
        <ele>195</ele>
        <time>1970-01-01T04:42:50.000Z</time>
      </trkpt>
      <trkpt lat="42.20716" lon="2.681777">
        <ele>195</ele>
        <time>1970-01-01T04:42:51.000Z</time>
      </trkpt>
      <trkpt lat="42.207233" lon="2.681547">
        <ele>195</ele>
        <time>1970-01-01T04:42:53.000Z</time>
      </trkpt>
      <trkpt lat="42.207265" lon="2.681424">
        <ele>195</ele>
        <time>1970-01-01T04:42:55.000Z</time>
      </trkpt>
      <trkpt lat="42.207318" lon="2.681168">
        <ele>195</ele>
        <time>1970-01-01T04:42:56.000Z</time>
      </trkpt>
      <trkpt lat="42.207339" lon="2.681035">
        <ele>195</ele>
        <time>1970-01-01T04:42:58.000Z</time>
      </trkpt>
      <trkpt lat="42.207363" lon="2.680836">
        <ele>189</ele>
        <time>1970-01-01T04:42:59.000Z</time>
      </trkpt>
      <trkpt lat="42.207405" lon="2.680555">
        <ele>189</ele>
        <time>1970-01-01T04:43:00.000Z</time>
      </trkpt>
      <trkpt lat="42.207425" lon="2.680475">
        <ele>189</ele>
        <time>1970-01-01T04:43:01.000Z</time>
      </trkpt>
      <trkpt lat="42.207444" lon="2.680394">
        <ele>189</ele>
        <time>1970-01-01T04:43:02.000Z</time>
      </trkpt>
      <trkpt lat="42.207464" lon="2.680313">
        <ele>189</ele>
        <time>1970-01-01T04:43:03.000Z</time>
      </trkpt>
      <trkpt lat="42.207483" lon="2.680233">
        <ele>189</ele>
        <time>1970-01-01T04:43:04.000Z</time>
      </trkpt>
      <trkpt lat="42.207502" lon="2.680152">
        <ele>189</ele>
        <time>1970-01-01T04:43:05.000Z</time>
      </trkpt>
      <trkpt lat="42.207522" lon="2.680071">
        <ele>189</ele>
        <time>1970-01-01T04:43:06.000Z</time>
      </trkpt>
      <trkpt lat="42.207541" lon="2.67999">
        <ele>189</ele>
        <time>1970-01-01T04:43:07.000Z</time>
      </trkpt>
      <trkpt lat="42.207561" lon="2.67991">
        <ele>189</ele>
        <time>1970-01-01T04:43:08.000Z</time>
      </trkpt>
      <trkpt lat="42.20758" lon="2.679829">
        <ele>188</ele>
        <time>1970-01-01T04:43:09.000Z</time>
      </trkpt>
      <trkpt lat="42.207614" lon="2.679727">
        <ele>188</ele>
        <time>1970-01-01T04:43:10.000Z</time>
      </trkpt>
      <trkpt lat="42.207633" lon="2.67966">
        <ele>188</ele>
        <time>1970-01-01T04:43:11.000Z</time>
      </trkpt>
      <trkpt lat="42.207652" lon="2.679594">
        <ele>188</ele>
        <time>1970-01-01T04:43:12.000Z</time>
      </trkpt>
      <trkpt lat="42.207671" lon="2.679527">
        <ele>188</ele>
        <time>1970-01-01T04:43:13.000Z</time>
      </trkpt>
      <trkpt lat="42.207689" lon="2.679461">
        <ele>188</ele>
        <time>1970-01-01T04:43:15.000Z</time>
      </trkpt>
      <trkpt lat="42.207708" lon="2.679394">
        <ele>188</ele>
        <time>1970-01-01T04:43:16.000Z</time>
      </trkpt>
      <trkpt lat="42.207727" lon="2.679328">
        <ele>188</ele>
        <time>1970-01-01T04:43:18.000Z</time>
      </trkpt>
      <trkpt lat="42.207746" lon="2.679261">
        <ele>189</ele>
        <time>1970-01-01T04:43:19.000Z</time>
      </trkpt>
      <trkpt lat="42.207808" lon="2.679105">
        <ele>189</ele>
        <time>1970-01-01T04:43:21.000Z</time>
      </trkpt>
      <trkpt lat="42.207819" lon="2.679069">
        <ele>189</ele>
        <time>1970-01-01T04:43:23.000Z</time>
      </trkpt>
      <trkpt lat="42.20783" lon="2.679032">
        <ele>189</ele>
        <time>1970-01-01T04:43:24.000Z</time>
      </trkpt>
      <trkpt lat="42.207841" lon="2.678996">
        <ele>189</ele>
        <time>1970-01-01T04:43:25.000Z</time>
      </trkpt>
      <trkpt lat="42.207851" lon="2.67896">
        <ele>189</ele>
        <time>1970-01-01T04:43:26.000Z</time>
      </trkpt>
      <trkpt lat="42.207862" lon="2.678924">
        <ele>189</ele>
        <time>1970-01-01T04:43:27.000Z</time>
      </trkpt>
      <trkpt lat="42.207873" lon="2.678887">
        <ele>189</ele>
        <time>1970-01-01T04:43:28.000Z</time>
      </trkpt>
      <trkpt lat="42.207884" lon="2.678851">
        <ele>190</ele>
        <time>1970-01-01T04:43:29.000Z</time>
      </trkpt>
      <trkpt lat="42.207904" lon="2.678709">
        <ele>190</ele>
        <time>1970-01-01T04:43:31.000Z</time>
      </trkpt>
      <trkpt lat="42.207906" lon="2.678667">
        <ele>190</ele>
        <time>1970-01-01T04:43:33.000Z</time>
      </trkpt>
      <trkpt lat="42.207907" lon="2.678625">
        <ele>190</ele>
        <time>1970-01-01T04:43:34.000Z</time>
      </trkpt>
      <trkpt lat="42.207909" lon="2.678584">
        <ele>190</ele>
        <time>1970-01-01T04:43:36.000Z</time>
      </trkpt>
      <trkpt lat="42.20791" lon="2.678542">
        <ele>190</ele>
        <time>1970-01-01T04:43:37.000Z</time>
      </trkpt>
      <trkpt lat="42.207912" lon="2.6785">
        <ele>190</ele>
        <time>1970-01-01T04:43:38.000Z</time>
      </trkpt>
      <trkpt lat="42.207913" lon="2.678458">
        <ele>192</ele>
        <time>1970-01-01T04:43:39.000Z</time>
      </trkpt>
      <trkpt lat="42.20791" lon="2.678388">
        <ele>192</ele>
        <time>1970-01-01T04:43:40.000Z</time>
      </trkpt>
      <trkpt lat="42.207907" lon="2.678336">
        <ele>192</ele>
        <time>1970-01-01T04:43:41.000Z</time>
      </trkpt>
      <trkpt lat="42.207905" lon="2.678285">
        <ele>192</ele>
        <time>1970-01-01T04:43:42.000Z</time>
      </trkpt>
      <trkpt lat="42.207903" lon="2.678233">
        <ele>192</ele>
        <time>1970-01-01T04:43:44.000Z</time>
      </trkpt>
      <trkpt lat="42.207901" lon="2.678182">
        <ele>192</ele>
        <time>1970-01-01T04:43:46.000Z</time>
      </trkpt>
      <trkpt lat="42.207898" lon="2.67813">
        <ele>192</ele>
        <time>1970-01-01T04:43:47.000Z</time>
      </trkpt>
      <trkpt lat="42.207896" lon="2.678079">
        <ele>194</ele>
        <time>1970-01-01T04:43:49.000Z</time>
      </trkpt>
      <trkpt lat="42.207891" lon="2.67795">
        <ele>194</ele>
        <time>1970-01-01T04:43:50.000Z</time>
      </trkpt>
      <trkpt lat="42.207891" lon="2.677902">
        <ele>194</ele>
        <time>1970-01-01T04:43:52.000Z</time>
      </trkpt>
      <trkpt lat="42.20789" lon="2.677855">
        <ele>194</ele>
        <time>1970-01-01T04:43:53.000Z</time>
      </trkpt>
      <trkpt lat="42.20789" lon="2.677807">
        <ele>194</ele>
        <time>1970-01-01T04:43:55.000Z</time>
      </trkpt>
      <trkpt lat="42.207889" lon="2.677759">
        <ele>194</ele>
        <time>1970-01-01T04:43:56.000Z</time>
      </trkpt>
      <trkpt lat="42.207888" lon="2.677711">
        <ele>194</ele>
        <time>1970-01-01T04:43:57.000Z</time>
      </trkpt>
      <trkpt lat="42.207888" lon="2.677664">
        <ele>194</ele>
        <time>1970-01-01T04:43:58.000Z</time>
      </trkpt>
      <trkpt lat="42.207887" lon="2.677616">
        <ele>195</ele>
        <time>1970-01-01T04:43:59.000Z</time>
      </trkpt>
      <trkpt lat="42.207893" lon="2.677519">
        <ele>195</ele>
        <time>1970-01-01T04:44:00.000Z</time>
      </trkpt>
      <trkpt lat="42.2079" lon="2.677468">
        <ele>195</ele>
        <time>1970-01-01T04:44:02.000Z</time>
      </trkpt>
      <trkpt lat="42.207906" lon="2.677416">
        <ele>195</ele>
        <time>1970-01-01T04:44:03.000Z</time>
      </trkpt>
      <trkpt lat="42.207913" lon="2.677364">
        <ele>195</ele>
        <time>1970-01-01T04:44:05.000Z</time>
      </trkpt>
      <trkpt lat="42.207919" lon="2.677312">
        <ele>195</ele>
        <time>1970-01-01T04:44:06.000Z</time>
      </trkpt>
      <trkpt lat="42.207926" lon="2.677261">
        <ele>195</ele>
        <time>1970-01-01T04:44:08.000Z</time>
      </trkpt>
      <trkpt lat="42.207932" lon="2.677209">
        <ele>197</ele>
        <time>1970-01-01T04:44:09.000Z</time>
      </trkpt>
      <trkpt lat="42.20796" lon="2.677053">
        <ele>197</ele>
        <time>1970-01-01T04:44:11.000Z</time>
      </trkpt>
      <trkpt lat="42.207974" lon="2.676989">
        <ele>197</ele>
        <time>1970-01-01T04:44:12.000Z</time>
      </trkpt>
      <trkpt lat="42.207989" lon="2.676926">
        <ele>197</ele>
        <time>1970-01-01T04:44:13.000Z</time>
      </trkpt>
      <trkpt lat="42.208004" lon="2.676862">
        <ele>197</ele>
        <time>1970-01-01T04:44:14.000Z</time>
      </trkpt>
      <trkpt lat="42.208019" lon="2.676799">
        <ele>197</ele>
        <time>1970-01-01T04:44:16.000Z</time>
      </trkpt>
      <trkpt lat="42.208033" lon="2.676735">
        <ele>197</ele>
        <time>1970-01-01T04:44:17.000Z</time>
      </trkpt>
      <trkpt lat="42.208048" lon="2.676672">
        <ele>197</ele>
        <time>1970-01-01T04:44:19.000Z</time>
      </trkpt>
      <trkpt lat="42.208083" lon="2.676567">
        <ele>197</ele>
        <time>1970-01-01T04:44:21.000Z</time>
      </trkpt>
      <trkpt lat="42.208102" lon="2.67651">
        <ele>197</ele>
        <time>1970-01-01T04:44:22.000Z</time>
      </trkpt>
      <trkpt lat="42.208121" lon="2.676453">
        <ele>197</ele>
        <time>1970-01-01T04:44:24.000Z</time>
      </trkpt>
      <trkpt lat="42.208141" lon="2.676395">
        <ele>197</ele>
        <time>1970-01-01T04:44:25.000Z</time>
      </trkpt>
      <trkpt lat="42.20816" lon="2.676338">
        <ele>197</ele>
        <time>1970-01-01T04:44:27.000Z</time>
      </trkpt>
      <trkpt lat="42.208179" lon="2.676281">
        <ele>197</ele>
        <time>1970-01-01T04:44:28.000Z</time>
      </trkpt>
      <trkpt lat="42.208198" lon="2.676224">
        <ele>197</ele>
        <time>1970-01-01T04:44:29.000Z</time>
      </trkpt>
      <trkpt lat="42.208252" lon="2.676077">
        <ele>197</ele>
        <time>1970-01-01T04:44:31.000Z</time>
      </trkpt>
      <trkpt lat="42.20827" lon="2.67603">
        <ele>197</ele>
        <time>1970-01-01T04:44:32.000Z</time>
      </trkpt>
      <trkpt lat="42.208287" lon="2.675984">
        <ele>197</ele>
        <time>1970-01-01T04:44:33.000Z</time>
      </trkpt>
      <trkpt lat="42.208304" lon="2.675937">
        <ele>197</ele>
        <time>1970-01-01T04:44:34.000Z</time>
      </trkpt>
      <trkpt lat="42.208322" lon="2.675891">
        <ele>197</ele>
        <time>1970-01-01T04:44:35.000Z</time>
      </trkpt>
      <trkpt lat="42.208339" lon="2.675844">
        <ele>197</ele>
        <time>1970-01-01T04:44:36.000Z</time>
      </trkpt>
      <trkpt lat="42.208356" lon="2.675798">
        <ele>197</ele>
        <time>1970-01-01T04:44:37.000Z</time>
      </trkpt>
      <trkpt lat="42.208374" lon="2.675751">
        <ele>197</ele>
        <time>1970-01-01T04:44:38.000Z</time>
      </trkpt>
      <trkpt lat="42.208391" lon="2.675705">
        <ele>197</ele>
        <time>1970-01-01T04:44:39.000Z</time>
      </trkpt>
      <trkpt lat="42.208434" lon="2.675608">
        <ele>197</ele>
        <time>1970-01-01T04:44:40.000Z</time>
      </trkpt>
      <trkpt lat="42.208457" lon="2.675559">
        <ele>197</ele>
        <time>1970-01-01T04:44:41.000Z</time>
      </trkpt>
      <trkpt lat="42.208479" lon="2.67551">
        <ele>197</ele>
        <time>1970-01-01T04:44:42.000Z</time>
      </trkpt>
      <trkpt lat="42.208502" lon="2.675461">
        <ele>197</ele>
        <time>1970-01-01T04:44:43.000Z</time>
      </trkpt>
      <trkpt lat="42.208524" lon="2.675411">
        <ele>197</ele>
        <time>1970-01-01T04:44:45.000Z</time>
      </trkpt>
      <trkpt lat="42.208547" lon="2.675362">
        <ele>197</ele>
        <time>1970-01-01T04:44:46.000Z</time>
      </trkpt>
      <trkpt lat="42.208569" lon="2.675313">
        <ele>197</ele>
        <time>1970-01-01T04:44:47.000Z</time>
      </trkpt>
      <trkpt lat="42.208592" lon="2.675264">
        <ele>197</ele>
        <time>1970-01-01T04:44:48.000Z</time>
      </trkpt>
      <trkpt lat="42.208614" lon="2.675215">
        <ele>197</ele>
        <time>1970-01-01T04:44:49.000Z</time>
      </trkpt>
      <trkpt lat="42.20866" lon="2.675118">
        <ele>197</ele>
        <time>1970-01-01T04:44:50.000Z</time>
      </trkpt>
      <trkpt lat="42.208685" lon="2.675069">
        <ele>197</ele>
        <time>1970-01-01T04:44:51.000Z</time>
      </trkpt>
      <trkpt lat="42.20871" lon="2.675019">
        <ele>197</ele>
        <time>1970-01-01T04:44:52.000Z</time>
      </trkpt>
      <trkpt lat="42.208735" lon="2.67497">
        <ele>197</ele>
        <time>1970-01-01T04:44:54.000Z</time>
      </trkpt>
      <trkpt lat="42.20876" lon="2.674921">
        <ele>197</ele>
        <time>1970-01-01T04:44:55.000Z</time>
      </trkpt>
      <trkpt lat="42.208785" lon="2.674872">
        <ele>197</ele>
        <time>1970-01-01T04:44:56.000Z</time>
      </trkpt>
      <trkpt lat="42.20881" lon="2.674822">
        <ele>197</ele>
        <time>1970-01-01T04:44:57.000Z</time>
      </trkpt>
      <trkpt lat="42.208835" lon="2.674773">
        <ele>197</ele>
        <time>1970-01-01T04:44:59.000Z</time>
      </trkpt>
      <trkpt lat="42.208916" lon="2.674614">
        <ele>197</ele>
        <time>1970-01-01T04:45:00.000Z</time>
      </trkpt>
      <trkpt lat="42.208947" lon="2.674557">
        <ele>197</ele>
        <time>1970-01-01T04:45:02.000Z</time>
      </trkpt>
      <trkpt lat="42.208978" lon="2.674499">
        <ele>197</ele>
        <time>1970-01-01T04:45:03.000Z</time>
      </trkpt>
      <trkpt lat="42.20901" lon="2.674441">
        <ele>197</ele>
        <time>1970-01-01T04:45:04.000Z</time>
      </trkpt>
      <trkpt lat="42.209041" lon="2.674383">
        <ele>197</ele>
        <time>1970-01-01T04:45:06.000Z</time>
      </trkpt>
      <trkpt lat="42.209072" lon="2.674326">
        <ele>197</ele>
        <time>1970-01-01T04:45:07.000Z</time>
      </trkpt>
      <trkpt lat="42.209103" lon="2.674268">
        <ele>197</ele>
        <time>1970-01-01T04:45:08.000Z</time>
      </trkpt>
      <trkpt lat="42.209134" lon="2.67421">
        <ele>197</ele>
        <time>1970-01-01T04:45:09.000Z</time>
      </trkpt>
      <trkpt lat="42.209209" lon="2.674066">
        <ele>197</ele>
        <time>1970-01-01T04:45:10.000Z</time>
      </trkpt>
      <trkpt lat="42.209251" lon="2.673987">
        <ele>197</ele>
        <time>1970-01-01T04:45:11.000Z</time>
      </trkpt>
      <trkpt lat="42.209292" lon="2.673907">
        <ele>197</ele>
        <time>1970-01-01T04:45:12.000Z</time>
      </trkpt>
      <trkpt lat="42.209333" lon="2.673828">
        <ele>197</ele>
        <time>1970-01-01T04:45:13.000Z</time>
      </trkpt>
      <trkpt lat="42.209374" lon="2.673748">
        <ele>197</ele>
        <time>1970-01-01T04:45:14.000Z</time>
      </trkpt>
      <trkpt lat="42.209416" lon="2.673668">
        <ele>197</ele>
        <time>1970-01-01T04:45:16.000Z</time>
      </trkpt>
      <trkpt lat="42.209457" lon="2.673589">
        <ele>197</ele>
        <time>1970-01-01T04:45:17.000Z</time>
      </trkpt>
      <trkpt lat="42.209498" lon="2.673509">
        <ele>196</ele>
        <time>1970-01-01T04:45:19.000Z</time>
      </trkpt>
      <trkpt lat="42.209575" lon="2.673356">
        <ele>196</ele>
        <time>1970-01-01T04:45:21.000Z</time>
      </trkpt>
      <trkpt lat="42.209602" lon="2.673302">
        <ele>196</ele>
        <time>1970-01-01T04:45:22.000Z</time>
      </trkpt>
      <trkpt lat="42.209629" lon="2.673249">
        <ele>196</ele>
        <time>1970-01-01T04:45:23.000Z</time>
      </trkpt>
      <trkpt lat="42.209656" lon="2.673196">
        <ele>196</ele>
        <time>1970-01-01T04:45:24.000Z</time>
      </trkpt>
      <trkpt lat="42.209682" lon="2.673142">
        <ele>196</ele>
        <time>1970-01-01T04:45:25.000Z</time>
      </trkpt>
      <trkpt lat="42.209709" lon="2.673089">
        <ele>196</ele>
        <time>1970-01-01T04:45:26.000Z</time>
      </trkpt>
      <trkpt lat="42.209736" lon="2.673036">
        <ele>196</ele>
        <time>1970-01-01T04:45:27.000Z</time>
      </trkpt>
      <trkpt lat="42.209763" lon="2.672982">
        <ele>196</ele>
        <time>1970-01-01T04:45:28.000Z</time>
      </trkpt>
      <trkpt lat="42.20979" lon="2.672929">
        <ele>196</ele>
        <time>1970-01-01T04:45:29.000Z</time>
      </trkpt>
      <trkpt lat="42.209849" lon="2.672814">
        <ele>196</ele>
        <time>1970-01-01T04:45:30.000Z</time>
      </trkpt>
      <trkpt lat="42.20987" lon="2.672774">
        <ele>196</ele>
        <time>1970-01-01T04:45:31.000Z</time>
      </trkpt>
      <trkpt lat="42.209892" lon="2.672735">
        <ele>196</ele>
        <time>1970-01-01T04:45:33.000Z</time>
      </trkpt>
      <trkpt lat="42.209913" lon="2.672696">
        <ele>196</ele>
        <time>1970-01-01T04:45:34.000Z</time>
      </trkpt>
      <trkpt lat="42.209934" lon="2.672656">
        <ele>196</ele>
        <time>1970-01-01T04:45:35.000Z</time>
      </trkpt>
      <trkpt lat="42.209955" lon="2.672617">
        <ele>196</ele>
        <time>1970-01-01T04:45:36.000Z</time>
      </trkpt>
      <trkpt lat="42.209977" lon="2.672578">
        <ele>196</ele>
        <time>1970-01-01T04:45:37.000Z</time>
      </trkpt>
      <trkpt lat="42.209998" lon="2.672538">
        <ele>196</ele>
        <time>1970-01-01T04:45:38.000Z</time>
      </trkpt>
      <trkpt lat="42.210019" lon="2.672499">
        <ele>198</ele>
        <time>1970-01-01T04:45:39.000Z</time>
      </trkpt>
      <trkpt lat="42.210067" lon="2.672413">
        <ele>198</ele>
        <time>1970-01-01T04:45:40.000Z</time>
      </trkpt>
      <trkpt lat="42.21009" lon="2.67237">
        <ele>198</ele>
        <time>1970-01-01T04:45:41.000Z</time>
      </trkpt>
      <trkpt lat="42.210114" lon="2.672326">
        <ele>198</ele>
        <time>1970-01-01T04:45:42.000Z</time>
      </trkpt>
      <trkpt lat="42.210138" lon="2.672283">
        <ele>198</ele>
        <time>1970-01-01T04:45:43.000Z</time>
      </trkpt>
      <trkpt lat="42.210162" lon="2.672239">
        <ele>198</ele>
        <time>1970-01-01T04:45:44.000Z</time>
      </trkpt>
      <trkpt lat="42.210185" lon="2.672195">
        <ele>198</ele>
        <time>1970-01-01T04:45:45.000Z</time>
      </trkpt>
      <trkpt lat="42.210209" lon="2.672152">
        <ele>198</ele>
        <time>1970-01-01T04:45:46.000Z</time>
      </trkpt>
      <trkpt lat="42.210233" lon="2.672108">
        <ele>198</ele>
        <time>1970-01-01T04:45:47.000Z</time>
      </trkpt>
      <trkpt lat="42.210256" lon="2.672065">
        <ele>198</ele>
        <time>1970-01-01T04:45:48.000Z</time>
      </trkpt>
      <trkpt lat="42.21028" lon="2.672021">
        <ele>198</ele>
        <time>1970-01-01T04:45:49.000Z</time>
      </trkpt>
      <trkpt lat="42.210357" lon="2.671874">
        <ele>198</ele>
        <time>1970-01-01T04:45:50.000Z</time>
      </trkpt>
      <trkpt lat="42.210396" lon="2.671799">
        <ele>198</ele>
        <time>1970-01-01T04:45:52.000Z</time>
      </trkpt>
      <trkpt lat="42.210436" lon="2.671725">
        <ele>198</ele>
        <time>1970-01-01T04:45:54.000Z</time>
      </trkpt>
      <trkpt lat="42.210476" lon="2.67165">
        <ele>198</ele>
        <time>1970-01-01T04:45:55.000Z</time>
      </trkpt>
      <trkpt lat="42.210515" lon="2.671576">
        <ele>198</ele>
        <time>1970-01-01T04:45:57.000Z</time>
      </trkpt>
      <trkpt lat="42.210555" lon="2.671501">
        <ele>199</ele>
        <time>1970-01-01T04:45:59.000Z</time>
      </trkpt>
      <trkpt lat="42.210613" lon="2.671372">
        <ele>199</ele>
        <time>1970-01-01T04:46:00.000Z</time>
      </trkpt>
      <trkpt lat="42.210644" lon="2.671297">
        <ele>199</ele>
        <time>1970-01-01T04:46:02.000Z</time>
      </trkpt>
      <trkpt lat="42.210674" lon="2.671223">
        <ele>199</ele>
        <time>1970-01-01T04:46:03.000Z</time>
      </trkpt>
      <trkpt lat="42.210705" lon="2.671148">
        <ele>199</ele>
        <time>1970-01-01T04:46:04.000Z</time>
      </trkpt>
      <trkpt lat="42.210735" lon="2.671074">
        <ele>199</ele>
        <time>1970-01-01T04:46:06.000Z</time>
      </trkpt>
      <trkpt lat="42.210765" lon="2.670999">
        <ele>199</ele>
        <time>1970-01-01T04:46:07.000Z</time>
      </trkpt>
      <trkpt lat="42.210796" lon="2.670925">
        <ele>199</ele>
        <time>1970-01-01T04:46:08.000Z</time>
      </trkpt>
      <trkpt lat="42.210826" lon="2.67085">
        <ele>199</ele>
        <time>1970-01-01T04:46:10.000Z</time>
      </trkpt>
      <trkpt lat="42.21087" lon="2.670732">
        <ele>199</ele>
        <time>1970-01-01T04:46:11.000Z</time>
      </trkpt>
      <trkpt lat="42.210891" lon="2.670675">
        <ele>199</ele>
        <time>1970-01-01T04:46:12.000Z</time>
      </trkpt>
      <trkpt lat="42.210912" lon="2.670618">
        <ele>199</ele>
        <time>1970-01-01T04:46:13.000Z</time>
      </trkpt>
      <trkpt lat="42.210933" lon="2.670561">
        <ele>199</ele>
        <time>1970-01-01T04:46:14.000Z</time>
      </trkpt>
      <trkpt lat="42.210953" lon="2.670503">
        <ele>199</ele>
        <time>1970-01-01T04:46:15.000Z</time>
      </trkpt>
      <trkpt lat="42.210974" lon="2.670446">
        <ele>199</ele>
        <time>1970-01-01T04:46:16.000Z</time>
      </trkpt>
      <trkpt lat="42.210995" lon="2.670389">
        <ele>199</ele>
        <time>1970-01-01T04:46:17.000Z</time>
      </trkpt>
      <trkpt lat="42.211016" lon="2.670332">
        <ele>199</ele>
        <time>1970-01-01T04:46:18.000Z</time>
      </trkpt>
      <trkpt lat="42.211037" lon="2.670275">
        <ele>199</ele>
        <time>1970-01-01T04:46:19.000Z</time>
      </trkpt>
      <trkpt lat="42.211107" lon="2.670073">
        <ele>199</ele>
        <time>1970-01-01T04:46:21.000Z</time>
      </trkpt>
      <trkpt lat="42.21113" lon="2.670004">
        <ele>199</ele>
        <time>1970-01-01T04:46:23.000Z</time>
      </trkpt>
      <trkpt lat="42.211154" lon="2.669935">
        <ele>199</ele>
        <time>1970-01-01T04:46:24.000Z</time>
      </trkpt>
      <trkpt lat="42.211178" lon="2.669867">
        <ele>199</ele>
        <time>1970-01-01T04:46:26.000Z</time>
      </trkpt>
      <trkpt lat="42.211202" lon="2.669798">
        <ele>199</ele>
        <time>1970-01-01T04:46:27.000Z</time>
      </trkpt>
      <trkpt lat="42.211225" lon="2.669729">
        <ele>199</ele>
        <time>1970-01-01T04:46:28.000Z</time>
      </trkpt>
      <trkpt lat="42.211249" lon="2.66966">
        <ele>199</ele>
        <time>1970-01-01T04:46:29.000Z</time>
      </trkpt>
      <trkpt lat="42.211331" lon="2.669415">
        <ele>199</ele>
        <time>1970-01-01T04:46:31.000Z</time>
      </trkpt>
      <trkpt lat="42.211355" lon="2.669346">
        <ele>199</ele>
        <time>1970-01-01T04:46:32.000Z</time>
      </trkpt>
      <trkpt lat="42.211378" lon="2.669277">
        <ele>199</ele>
        <time>1970-01-01T04:46:33.000Z</time>
      </trkpt>
      <trkpt lat="42.211402" lon="2.669208">
        <ele>199</ele>
        <time>1970-01-01T04:46:34.000Z</time>
      </trkpt>
      <trkpt lat="42.211425" lon="2.669138">
        <ele>199</ele>
        <time>1970-01-01T04:46:35.000Z</time>
      </trkpt>
      <trkpt lat="42.211448" lon="2.669069">
        <ele>199</ele>
        <time>1970-01-01T04:46:36.000Z</time>
      </trkpt>
      <trkpt lat="42.211472" lon="2.669">
        <ele>199</ele>
        <time>1970-01-01T04:46:37.000Z</time>
      </trkpt>
      <trkpt lat="42.211495" lon="2.668931">
        <ele>198</ele>
        <time>1970-01-01T04:46:39.000Z</time>
      </trkpt>
      <trkpt lat="42.211552" lon="2.66873">
        <ele>198</ele>
        <time>1970-01-01T04:46:41.000Z</time>
      </trkpt>
      <trkpt lat="42.211572" lon="2.668644">
        <ele>198</ele>
        <time>1970-01-01T04:46:42.000Z</time>
      </trkpt>
      <trkpt lat="42.211592" lon="2.668557">
        <ele>198</ele>
        <time>1970-01-01T04:46:43.000Z</time>
      </trkpt>
      <trkpt lat="42.211612" lon="2.668471">
        <ele>198</ele>
        <time>1970-01-01T04:46:44.000Z</time>
      </trkpt>
      <trkpt lat="42.211631" lon="2.668384">
        <ele>198</ele>
        <time>1970-01-01T04:46:45.000Z</time>
      </trkpt>
      <trkpt lat="42.211651" lon="2.668297">
        <ele>198</ele>
        <time>1970-01-01T04:46:46.000Z</time>
      </trkpt>
      <trkpt lat="42.211671" lon="2.668211">
        <ele>198</ele>
        <time>1970-01-01T04:46:48.000Z</time>
      </trkpt>
      <trkpt lat="42.211691" lon="2.668124">
        <ele>199</ele>
        <time>1970-01-01T04:46:49.000Z</time>
      </trkpt>
      <trkpt lat="42.211704" lon="2.667953">
        <ele>199</ele>
        <time>1970-01-01T04:46:50.000Z</time>
      </trkpt>
      <trkpt lat="42.211709" lon="2.667867">
        <ele>199</ele>
        <time>1970-01-01T04:46:52.000Z</time>
      </trkpt>
      <trkpt lat="42.211714" lon="2.66778">
        <ele>199</ele>
        <time>1970-01-01T04:46:53.000Z</time>
      </trkpt>
      <trkpt lat="42.211719" lon="2.667693">
        <ele>199</ele>
        <time>1970-01-01T04:46:54.000Z</time>
      </trkpt>
      <trkpt lat="42.211724" lon="2.667607">
        <ele>199</ele>
        <time>1970-01-01T04:46:55.000Z</time>
      </trkpt>
      <trkpt lat="42.211729" lon="2.66752">
        <ele>199</ele>
        <time>1970-01-01T04:46:56.000Z</time>
      </trkpt>
      <trkpt lat="42.211734" lon="2.667433">
        <ele>199</ele>
        <time>1970-01-01T04:46:57.000Z</time>
      </trkpt>
      <trkpt lat="42.211739" lon="2.667347">
        <ele>199</ele>
        <time>1970-01-01T04:46:58.000Z</time>
      </trkpt>
      <trkpt lat="42.211744" lon="2.66726">
        <ele>198</ele>
        <time>1970-01-01T04:46:59.000Z</time>
      </trkpt>
      <trkpt lat="42.211779" lon="2.667016">
        <ele>198</ele>
        <time>1970-01-01T04:47:00.000Z</time>
      </trkpt>
      <trkpt lat="42.211803" lon="2.666915">
        <ele>198</ele>
        <time>1970-01-01T04:47:02.000Z</time>
      </trkpt>
      <trkpt lat="42.211827" lon="2.666813">
        <ele>198</ele>
        <time>1970-01-01T04:47:03.000Z</time>
      </trkpt>
      <trkpt lat="42.211851" lon="2.666711">
        <ele>198</ele>
        <time>1970-01-01T04:47:05.000Z</time>
      </trkpt>
      <trkpt lat="42.211875" lon="2.666609">
        <ele>198</ele>
        <time>1970-01-01T04:47:06.000Z</time>
      </trkpt>
      <trkpt lat="42.211899" lon="2.666508">
        <ele>198</ele>
        <time>1970-01-01T04:47:08.000Z</time>
      </trkpt>
      <trkpt lat="42.211923" lon="2.666406">
        <ele>198</ele>
        <time>1970-01-01T04:47:09.000Z</time>
      </trkpt>
      <trkpt lat="42.211947" lon="2.666304">
        <ele>197</ele>
        <time>1970-01-01T04:47:10.000Z</time>
      </trkpt>
      <trkpt lat="42.212015" lon="2.666134">
        <ele>197</ele>
        <time>1970-01-01T04:47:11.000Z</time>
      </trkpt>
      <trkpt lat="42.212041" lon="2.666076">
        <ele>197</ele>
        <time>1970-01-01T04:47:12.000Z</time>
      </trkpt>
      <trkpt lat="42.212067" lon="2.666017">
        <ele>197</ele>
        <time>1970-01-01T04:47:13.000Z</time>
      </trkpt>
      <trkpt lat="42.212093" lon="2.665958">
        <ele>197</ele>
        <time>1970-01-01T04:47:14.000Z</time>
      </trkpt>
      <trkpt lat="42.212118" lon="2.6659">
        <ele>197</ele>
        <time>1970-01-01T04:47:15.000Z</time>
      </trkpt>
      <trkpt lat="42.212144" lon="2.665841">
        <ele>197</ele>
        <time>1970-01-01T04:47:16.000Z</time>
      </trkpt>
      <trkpt lat="42.21217" lon="2.665782">
        <ele>197</ele>
        <time>1970-01-01T04:47:17.000Z</time>
      </trkpt>
      <trkpt lat="42.212196" lon="2.665724">
        <ele>197</ele>
        <time>1970-01-01T04:47:18.000Z</time>
      </trkpt>
      <trkpt lat="42.212222" lon="2.665665">
        <ele>197</ele>
        <time>1970-01-01T04:47:19.000Z</time>
      </trkpt>
      <trkpt lat="42.212281" lon="2.665541">
        <ele>197</ele>
        <time>1970-01-01T04:47:20.000Z</time>
      </trkpt>
      <trkpt lat="42.212324" lon="2.665453">
        <ele>197</ele>
        <time>1970-01-01T04:47:21.000Z</time>
      </trkpt>
      <trkpt lat="42.212367" lon="2.665365">
        <ele>197</ele>
        <time>1970-01-01T04:47:22.000Z</time>
      </trkpt>
      <trkpt lat="42.21241" lon="2.665278">
        <ele>197</ele>
        <time>1970-01-01T04:47:24.000Z</time>
      </trkpt>
      <trkpt lat="42.212453" lon="2.66519">
        <ele>197</ele>
        <time>1970-01-01T04:47:25.000Z</time>
      </trkpt>
      <trkpt lat="42.212496" lon="2.665102">
        <ele>197</ele>
        <time>1970-01-01T04:47:26.000Z</time>
      </trkpt>
      <trkpt lat="42.212539" lon="2.665014">
        <ele>197</ele>
        <time>1970-01-01T04:47:28.000Z</time>
      </trkpt>
      <trkpt lat="42.212582" lon="2.664926">
        <ele>197</ele>
        <time>1970-01-01T04:47:29.000Z</time>
      </trkpt>
      <trkpt lat="42.212769" lon="2.664659">
        <ele>197</ele>
        <time>1970-01-01T04:47:31.000Z</time>
      </trkpt>
      <trkpt lat="42.21284" lon="2.664582">
        <ele>197</ele>
        <time>1970-01-01T04:47:33.000Z</time>
      </trkpt>
      <trkpt lat="42.212911" lon="2.664504">
        <ele>197</ele>
        <time>1970-01-01T04:47:35.000Z</time>
      </trkpt>
      <trkpt lat="42.212982" lon="2.664426">
        <ele>197</ele>
        <time>1970-01-01T04:47:36.000Z</time>
      </trkpt>
      <trkpt lat="42.213053" lon="2.664349">
        <ele>197</ele>
        <time>1970-01-01T04:47:37.000Z</time>
      </trkpt>
      <trkpt lat="42.213124" lon="2.664271">
        <ele>197</ele>
        <time>1970-01-01T04:47:39.000Z</time>
      </trkpt>
      <trkpt lat="42.213326" lon="2.664126">
        <ele>197</ele>
        <time>1970-01-01T04:47:41.000Z</time>
      </trkpt>
      <trkpt lat="42.213408" lon="2.664078">
        <ele>197</ele>
        <time>1970-01-01T04:47:43.000Z</time>
      </trkpt>
      <trkpt lat="42.21349" lon="2.664031">
        <ele>197</ele>
        <time>1970-01-01T04:47:44.000Z</time>
      </trkpt>
      <trkpt lat="42.213572" lon="2.663983">
        <ele>197</ele>
        <time>1970-01-01T04:47:45.000Z</time>
      </trkpt>
      <trkpt lat="42.213654" lon="2.663936">
        <ele>197</ele>
        <time>1970-01-01T04:47:47.000Z</time>
      </trkpt>
      <trkpt lat="42.213736" lon="2.663888">
        <ele>197</ele>
        <time>1970-01-01T04:47:48.000Z</time>
      </trkpt>
      <trkpt lat="42.213818" lon="2.663841">
        <ele>196</ele>
        <time>1970-01-01T04:47:49.000Z</time>
      </trkpt>
      <trkpt lat="42.213986" lon="2.66375">
        <ele>196</ele>
        <time>1970-01-01T04:47:50.000Z</time>
      </trkpt>
      <trkpt lat="42.214077" lon="2.663701">
        <ele>196</ele>
        <time>1970-01-01T04:47:51.000Z</time>
      </trkpt>
      <trkpt lat="42.214168" lon="2.663652">
        <ele>196</ele>
        <time>1970-01-01T04:47:53.000Z</time>
      </trkpt>
      <trkpt lat="42.214259" lon="2.663604">
        <ele>196</ele>
        <time>1970-01-01T04:47:55.000Z</time>
      </trkpt>
      <trkpt lat="42.21435" lon="2.663555">
        <ele>196</ele>
        <time>1970-01-01T04:47:56.000Z</time>
      </trkpt>
      <trkpt lat="42.214441" lon="2.663506">
        <ele>196</ele>
        <time>1970-01-01T04:47:57.000Z</time>
      </trkpt>
      <trkpt lat="42.214532" lon="2.663457">
        <ele>196</ele>
        <time>1970-01-01T04:47:58.000Z</time>
      </trkpt>
      <trkpt lat="42.214623" lon="2.663408">
        <ele>194</ele>
        <time>1970-01-01T04:47:59.000Z</time>
      </trkpt>
      <trkpt lat="42.21475" lon="2.66327">
        <ele>194</ele>
        <time>1970-01-01T04:48:00.000Z</time>
      </trkpt>
      <trkpt lat="42.214796" lon="2.663182">
        <ele>194</ele>
        <time>1970-01-01T04:48:02.000Z</time>
      </trkpt>
      <trkpt lat="42.214842" lon="2.663094">
        <ele>194</ele>
        <time>1970-01-01T04:48:03.000Z</time>
      </trkpt>
      <trkpt lat="42.214888" lon="2.663006">
        <ele>194</ele>
        <time>1970-01-01T04:48:04.000Z</time>
      </trkpt>
      <trkpt lat="42.214934" lon="2.662917">
        <ele>194</ele>
        <time>1970-01-01T04:48:05.000Z</time>
      </trkpt>
      <trkpt lat="42.21498" lon="2.662829">
        <ele>194</ele>
        <time>1970-01-01T04:48:06.000Z</time>
      </trkpt>
      <trkpt lat="42.215026" lon="2.662741">
        <ele>194</ele>
        <time>1970-01-01T04:48:08.000Z</time>
      </trkpt>
      <trkpt lat="42.215072" lon="2.662653">
        <ele>190</ele>
        <time>1970-01-01T04:48:09.000Z</time>
      </trkpt>
      <trkpt lat="42.215109" lon="2.662465">
        <ele>190</ele>
        <time>1970-01-01T04:48:10.000Z</time>
      </trkpt>
      <trkpt lat="42.215125" lon="2.662377">
        <ele>190</ele>
        <time>1970-01-01T04:48:11.000Z</time>
      </trkpt>
      <trkpt lat="42.21514" lon="2.662288">
        <ele>190</ele>
        <time>1970-01-01T04:48:12.000Z</time>
      </trkpt>
      <trkpt lat="42.215156" lon="2.6622">
        <ele>190</ele>
        <time>1970-01-01T04:48:13.000Z</time>
      </trkpt>
      <trkpt lat="42.215171" lon="2.662112">
        <ele>190</ele>
        <time>1970-01-01T04:48:14.000Z</time>
      </trkpt>
      <trkpt lat="42.215187" lon="2.662024">
        <ele>190</ele>
        <time>1970-01-01T04:48:15.000Z</time>
      </trkpt>
      <trkpt lat="42.215202" lon="2.661936">
        <ele>190</ele>
        <time>1970-01-01T04:48:16.000Z</time>
      </trkpt>
      <trkpt lat="42.215218" lon="2.661848">
        <ele>190</ele>
        <time>1970-01-01T04:48:17.000Z</time>
      </trkpt>
      <trkpt lat="42.215233" lon="2.661759">
        <ele>190</ele>
        <time>1970-01-01T04:48:18.000Z</time>
      </trkpt>
      <trkpt lat="42.215249" lon="2.661671">
        <ele>190</ele>
        <time>1970-01-01T04:48:19.000Z</time>
      </trkpt>
      <trkpt lat="42.215264" lon="2.661583">
        <ele>191</ele>
        <time>1970-01-01T04:48:20.000Z</time>
      </trkpt>
      <trkpt lat="42.21523" lon="2.661399">
        <ele>191</ele>
        <time>1970-01-01T04:48:21.000Z</time>
      </trkpt>
      <trkpt lat="42.2152" lon="2.661311">
        <ele>191</ele>
        <time>1970-01-01T04:48:22.000Z</time>
      </trkpt>
      <trkpt lat="42.21517" lon="2.661223">
        <ele>191</ele>
        <time>1970-01-01T04:48:23.000Z</time>
      </trkpt>
      <trkpt lat="42.21514" lon="2.661135">
        <ele>191</ele>
        <time>1970-01-01T04:48:24.000Z</time>
      </trkpt>
      <trkpt lat="42.215111" lon="2.661048">
        <ele>191</ele>
        <time>1970-01-01T04:48:25.000Z</time>
      </trkpt>
      <trkpt lat="42.215081" lon="2.66096">
        <ele>191</ele>
        <time>1970-01-01T04:48:26.000Z</time>
      </trkpt>
      <trkpt lat="42.215051" lon="2.660872">
        <ele>191</ele>
        <time>1970-01-01T04:48:27.000Z</time>
      </trkpt>
      <trkpt lat="42.215021" lon="2.660784">
        <ele>191</ele>
        <time>1970-01-01T04:48:28.000Z</time>
      </trkpt>
      <trkpt lat="42.214991" lon="2.660696">
        <ele>190</ele>
        <time>1970-01-01T04:48:29.000Z</time>
      </trkpt>
      <trkpt lat="42.214933" lon="2.660528">
        <ele>190</ele>
        <time>1970-01-01T04:48:30.000Z</time>
      </trkpt>
      <trkpt lat="42.214909" lon="2.660444">
        <ele>190</ele>
        <time>1970-01-01T04:48:31.000Z</time>
      </trkpt>
      <trkpt lat="42.214886" lon="2.660359">
        <ele>190</ele>
        <time>1970-01-01T04:48:32.000Z</time>
      </trkpt>
      <trkpt lat="42.214862" lon="2.660275">
        <ele>190</ele>
        <time>1970-01-01T04:48:34.000Z</time>
      </trkpt>
      <trkpt lat="42.214839" lon="2.66019">
        <ele>190</ele>
        <time>1970-01-01T04:48:35.000Z</time>
      </trkpt>
      <trkpt lat="42.214815" lon="2.660106">
        <ele>190</ele>
        <time>1970-01-01T04:48:36.000Z</time>
      </trkpt>
      <trkpt lat="42.214792" lon="2.660021">
        <ele>190</ele>
        <time>1970-01-01T04:48:37.000Z</time>
      </trkpt>
      <trkpt lat="42.214768" lon="2.659937">
        <ele>190</ele>
        <time>1970-01-01T04:48:38.000Z</time>
      </trkpt>
      <trkpt lat="42.214745" lon="2.659852">
        <ele>191</ele>
        <time>1970-01-01T04:48:39.000Z</time>
      </trkpt>
      <trkpt lat="42.214748" lon="2.659668">
        <ele>191</ele>
        <time>1970-01-01T04:48:40.000Z</time>
      </trkpt>
      <trkpt lat="42.214762" lon="2.65957">
        <ele>191</ele>
        <time>1970-01-01T04:48:42.000Z</time>
      </trkpt>
      <trkpt lat="42.214775" lon="2.659472">
        <ele>191</ele>
        <time>1970-01-01T04:48:43.000Z</time>
      </trkpt>
      <trkpt lat="42.214789" lon="2.659374">
        <ele>191</ele>
        <time>1970-01-01T04:48:44.000Z</time>
      </trkpt>
      <trkpt lat="42.214802" lon="2.659275">
        <ele>191</ele>
        <time>1970-01-01T04:48:45.000Z</time>
      </trkpt>
      <trkpt lat="42.214815" lon="2.659177">
        <ele>191</ele>
        <time>1970-01-01T04:48:46.000Z</time>
      </trkpt>
      <trkpt lat="42.214829" lon="2.659079">
        <ele>191</ele>
        <time>1970-01-01T04:48:47.000Z</time>
      </trkpt>
      <trkpt lat="42.214842" lon="2.658981">
        <ele>193</ele>
        <time>1970-01-01T04:48:49.000Z</time>
      </trkpt>
      <trkpt lat="42.214902" lon="2.658793">
        <ele>193</ele>
        <time>1970-01-01T04:48:50.000Z</time>
      </trkpt>
      <trkpt lat="42.214937" lon="2.658692">
        <ele>193</ele>
        <time>1970-01-01T04:48:51.000Z</time>
      </trkpt>
      <trkpt lat="42.214972" lon="2.658592">
        <ele>193</ele>
        <time>1970-01-01T04:48:52.000Z</time>
      </trkpt>
      <trkpt lat="42.215007" lon="2.658492">
        <ele>193</ele>
        <time>1970-01-01T04:48:53.000Z</time>
      </trkpt>
      <trkpt lat="42.215043" lon="2.658391">
        <ele>193</ele>
        <time>1970-01-01T04:48:54.000Z</time>
      </trkpt>
      <trkpt lat="42.215078" lon="2.658291">
        <ele>193</ele>
        <time>1970-01-01T04:48:56.000Z</time>
      </trkpt>
      <trkpt lat="42.215113" lon="2.658191">
        <ele>193</ele>
        <time>1970-01-01T04:48:57.000Z</time>
      </trkpt>
      <trkpt lat="42.215148" lon="2.65809">
        <ele>193</ele>
        <time>1970-01-01T04:48:58.000Z</time>
      </trkpt>
      <trkpt lat="42.215183" lon="2.65799">
        <ele>193</ele>
        <time>1970-01-01T04:48:59.000Z</time>
      </trkpt>
      <trkpt lat="42.21524" lon="2.657832">
        <ele>193</ele>
        <time>1970-01-01T04:49:01.000Z</time>
      </trkpt>
      <trkpt lat="42.215325" lon="2.657596">
        <ele>193</ele>
        <time>1970-01-01T04:49:02.000Z</time>
      </trkpt>
      <trkpt lat="42.215366" lon="2.65748">
        <ele>193</ele>
        <time>1970-01-01T04:49:03.000Z</time>
      </trkpt>
      <trkpt lat="42.215408" lon="2.657363">
        <ele>193</ele>
        <time>1970-01-01T04:49:04.000Z</time>
      </trkpt>
      <trkpt lat="42.215451" lon="2.657247">
        <ele>193</ele>
        <time>1970-01-01T04:49:05.000Z</time>
      </trkpt>
      <trkpt lat="42.215537" lon="2.657014">
        <ele>193</ele>
        <time>1970-01-01T04:49:07.000Z</time>
      </trkpt>
      <trkpt lat="42.215581" lon="2.656897">
        <ele>193</ele>
        <time>1970-01-01T04:49:08.000Z</time>
      </trkpt>
      <trkpt lat="42.215623" lon="2.65678">
        <ele>188</ele>
        <time>1970-01-01T04:49:09.000Z</time>
      </trkpt>
      <trkpt lat="42.215665" lon="2.656662">
        <ele>188</ele>
        <time>1970-01-01T04:49:10.000Z</time>
      </trkpt>
      <trkpt lat="42.215747" lon="2.656424">
        <ele>188</ele>
        <time>1970-01-01T04:49:12.000Z</time>
      </trkpt>
      <trkpt lat="42.215787" lon="2.656304">
        <ele>188</ele>
        <time>1970-01-01T04:49:13.000Z</time>
      </trkpt>
      <trkpt lat="42.215827" lon="2.656184">
        <ele>188</ele>
        <time>1970-01-01T04:49:14.000Z</time>
      </trkpt>
      <trkpt lat="42.215868" lon="2.656066">
        <ele>188</ele>
        <time>1970-01-01T04:49:15.000Z</time>
      </trkpt>
      <trkpt lat="42.215909" lon="2.655947">
        <ele>188</ele>
        <time>1970-01-01T04:49:16.000Z</time>
      </trkpt>
      <trkpt lat="42.215948" lon="2.655825">
        <ele>188</ele>
        <time>1970-01-01T04:49:17.000Z</time>
      </trkpt>
      <trkpt lat="42.215988" lon="2.655704">
        <ele>188</ele>
        <time>1970-01-01T04:49:18.000Z</time>
      </trkpt>
      <trkpt lat="42.216028" lon="2.655583">
        <ele>185</ele>
        <time>1970-01-01T04:49:19.000Z</time>
      </trkpt>
      <trkpt lat="42.216067" lon="2.655461">
        <ele>185</ele>
        <time>1970-01-01T04:49:20.000Z</time>
      </trkpt>
      <trkpt lat="42.216106" lon="2.655339">
        <ele>185</ele>
        <time>1970-01-01T04:49:21.000Z</time>
      </trkpt>
      <trkpt lat="42.216145" lon="2.65522">
        <ele>185</ele>
        <time>1970-01-01T04:49:22.000Z</time>
      </trkpt>
      <trkpt lat="42.216184" lon="2.655099">
        <ele>185</ele>
        <time>1970-01-01T04:49:23.000Z</time>
      </trkpt>
      <trkpt lat="42.21622" lon="2.654977">
        <ele>185</ele>
        <time>1970-01-01T04:49:24.000Z</time>
      </trkpt>
      <trkpt lat="42.216253" lon="2.654855">
        <ele>185</ele>
        <time>1970-01-01T04:49:25.000Z</time>
      </trkpt>
      <trkpt lat="42.216286" lon="2.654732">
        <ele>185</ele>
        <time>1970-01-01T04:49:26.000Z</time>
      </trkpt>
      <trkpt lat="42.216314" lon="2.654608">
        <ele>185</ele>
        <time>1970-01-01T04:49:27.000Z</time>
      </trkpt>
      <trkpt lat="42.216337" lon="2.654484">
        <ele>185</ele>
        <time>1970-01-01T04:49:28.000Z</time>
      </trkpt>
      <trkpt lat="42.216351" lon="2.654357">
        <ele>182</ele>
        <time>1970-01-01T04:49:29.000Z</time>
      </trkpt>
      <trkpt lat="42.216386" lon="2.654001">
        <ele>182</ele>
        <time>1970-01-01T04:49:31.000Z</time>
      </trkpt>
      <trkpt lat="42.216393" lon="2.653898">
        <ele>182</ele>
        <time>1970-01-01T04:49:32.000Z</time>
      </trkpt>
      <trkpt lat="42.216401" lon="2.653795">
        <ele>182</ele>
        <time>1970-01-01T04:49:34.000Z</time>
      </trkpt>
      <trkpt lat="42.216408" lon="2.653692">
        <ele>182</ele>
        <time>1970-01-01T04:49:35.000Z</time>
      </trkpt>
      <trkpt lat="42.216416" lon="2.653589">
        <ele>182</ele>
        <time>1970-01-01T04:49:36.000Z</time>
      </trkpt>
      <trkpt lat="42.216423" lon="2.653486">
        <ele>182</ele>
        <time>1970-01-01T04:49:37.000Z</time>
      </trkpt>
      <trkpt lat="42.216431" lon="2.653383">
        <ele>182</ele>
        <time>1970-01-01T04:49:38.000Z</time>
      </trkpt>
      <trkpt lat="42.216438" lon="2.65328">
        <ele>179</ele>
        <time>1970-01-01T04:49:39.000Z</time>
      </trkpt>
      <trkpt lat="42.216381" lon="2.653083">
        <ele>179</ele>
        <time>1970-01-01T04:49:40.000Z</time>
      </trkpt>
      <trkpt lat="42.216333" lon="2.652993">
        <ele>179</ele>
        <time>1970-01-01T04:49:41.000Z</time>
      </trkpt>
      <trkpt lat="42.216286" lon="2.652903">
        <ele>179</ele>
        <time>1970-01-01T04:49:42.000Z</time>
      </trkpt>
      <trkpt lat="42.216238" lon="2.652813">
        <ele>179</ele>
        <time>1970-01-01T04:49:43.000Z</time>
      </trkpt>
      <trkpt lat="42.216191" lon="2.652723">
        <ele>179</ele>
        <time>1970-01-01T04:49:44.000Z</time>
      </trkpt>
      <trkpt lat="42.216143" lon="2.652633">
        <ele>179</ele>
        <time>1970-01-01T04:49:46.000Z</time>
      </trkpt>
      <trkpt lat="42.216096" lon="2.652543">
        <ele>179</ele>
        <time>1970-01-01T04:49:48.000Z</time>
      </trkpt>
      <trkpt lat="42.216048" lon="2.652453">
        <ele>179</ele>
        <time>1970-01-01T04:49:49.000Z</time>
      </trkpt>
      <trkpt lat="42.215944" lon="2.652207">
        <ele>179</ele>
        <time>1970-01-01T04:49:51.000Z</time>
      </trkpt>
      <trkpt lat="42.215908" lon="2.65212">
        <ele>179</ele>
        <time>1970-01-01T04:49:52.000Z</time>
      </trkpt>
      <trkpt lat="42.215871" lon="2.652032">
        <ele>179</ele>
        <time>1970-01-01T04:49:53.000Z</time>
      </trkpt>
      <trkpt lat="42.215835" lon="2.651944">
        <ele>179</ele>
        <time>1970-01-01T04:49:54.000Z</time>
      </trkpt>
      <trkpt lat="42.215798" lon="2.651856">
        <ele>179</ele>
        <time>1970-01-01T04:49:56.000Z</time>
      </trkpt>
      <trkpt lat="42.215762" lon="2.651769">
        <ele>179</ele>
        <time>1970-01-01T04:49:58.000Z</time>
      </trkpt>
      <trkpt lat="42.215725" lon="2.651681">
        <ele>179</ele>
        <time>1970-01-01T04:49:59.000Z</time>
      </trkpt>
      <trkpt lat="42.215665" lon="2.65148">
        <ele>179</ele>
        <time>1970-01-01T04:50:00.000Z</time>
      </trkpt>
      <trkpt lat="42.215647" lon="2.65139">
        <ele>179</ele>
        <time>1970-01-01T04:50:02.000Z</time>
      </trkpt>
      <trkpt lat="42.215628" lon="2.6513">
        <ele>179</ele>
        <time>1970-01-01T04:50:03.000Z</time>
      </trkpt>
      <trkpt lat="42.215609" lon="2.65121">
        <ele>179</ele>
        <time>1970-01-01T04:50:05.000Z</time>
      </trkpt>
      <trkpt lat="42.21559" lon="2.65112">
        <ele>179</ele>
        <time>1970-01-01T04:50:07.000Z</time>
      </trkpt>
      <trkpt lat="42.215572" lon="2.65103">
        <ele>179</ele>
        <time>1970-01-01T04:50:08.000Z</time>
      </trkpt>
      <trkpt lat="42.215553" lon="2.65094">
        <ele>179</ele>
        <time>1970-01-01T04:50:09.000Z</time>
      </trkpt>
      <trkpt lat="42.21555" lon="2.650815">
        <ele>179</ele>
        <time>1970-01-01T04:50:10.000Z</time>
      </trkpt>
      <trkpt lat="42.21555" lon="2.650728">
        <ele>179</ele>
        <time>1970-01-01T04:50:11.000Z</time>
      </trkpt>
      <trkpt lat="42.215551" lon="2.65064">
        <ele>179</ele>
        <time>1970-01-01T04:50:12.000Z</time>
      </trkpt>
      <trkpt lat="42.215552" lon="2.650553">
        <ele>179</ele>
        <time>1970-01-01T04:50:13.000Z</time>
      </trkpt>
      <trkpt lat="42.215552" lon="2.650466">
        <ele>179</ele>
        <time>1970-01-01T04:50:15.000Z</time>
      </trkpt>
      <trkpt lat="42.215553" lon="2.650379">
        <ele>179</ele>
        <time>1970-01-01T04:50:16.000Z</time>
      </trkpt>
      <trkpt lat="42.215554" lon="2.650291">
        <ele>179</ele>
        <time>1970-01-01T04:50:17.000Z</time>
      </trkpt>
      <trkpt lat="42.215554" lon="2.650204">
        <ele>179</ele>
        <time>1970-01-01T04:50:18.000Z</time>
      </trkpt>
      <trkpt lat="42.215555" lon="2.650117">
        <ele>180</ele>
        <time>1970-01-01T04:50:19.000Z</time>
      </trkpt>
      <trkpt lat="42.215563" lon="2.649968">
        <ele>180</ele>
        <time>1970-01-01T04:50:20.000Z</time>
      </trkpt>
      <trkpt lat="42.215567" lon="2.649899">
        <ele>180</ele>
        <time>1970-01-01T04:50:21.000Z</time>
      </trkpt>
      <trkpt lat="42.215571" lon="2.649829">
        <ele>180</ele>
        <time>1970-01-01T04:50:22.000Z</time>
      </trkpt>
      <trkpt lat="42.215575" lon="2.649759">
        <ele>180</ele>
        <time>1970-01-01T04:50:23.000Z</time>
      </trkpt>
      <trkpt lat="42.21558" lon="2.64969">
        <ele>180</ele>
        <time>1970-01-01T04:50:24.000Z</time>
      </trkpt>
      <trkpt lat="42.215584" lon="2.64962">
        <ele>180</ele>
        <time>1970-01-01T04:50:26.000Z</time>
      </trkpt>
      <trkpt lat="42.215588" lon="2.64955">
        <ele>180</ele>
        <time>1970-01-01T04:50:27.000Z</time>
      </trkpt>
      <trkpt lat="42.215592" lon="2.649481">
        <ele>180</ele>
        <time>1970-01-01T04:50:28.000Z</time>
      </trkpt>
      <trkpt lat="42.215596" lon="2.649411">
        <ele>180</ele>
        <time>1970-01-01T04:50:29.000Z</time>
      </trkpt>
      <trkpt lat="42.215617" lon="2.64925">
        <ele>180</ele>
        <time>1970-01-01T04:50:30.000Z</time>
      </trkpt>
      <trkpt lat="42.215633" lon="2.649168">
        <ele>180</ele>
        <time>1970-01-01T04:50:31.000Z</time>
      </trkpt>
      <trkpt lat="42.21565" lon="2.649085">
        <ele>180</ele>
        <time>1970-01-01T04:50:32.000Z</time>
      </trkpt>
      <trkpt lat="42.215666" lon="2.649002">
        <ele>180</ele>
        <time>1970-01-01T04:50:33.000Z</time>
      </trkpt>
      <trkpt lat="42.215683" lon="2.64892">
        <ele>180</ele>
        <time>1970-01-01T04:50:34.000Z</time>
      </trkpt>
      <trkpt lat="42.215699" lon="2.648837">
        <ele>180</ele>
        <time>1970-01-01T04:50:36.000Z</time>
      </trkpt>
      <trkpt lat="42.215716" lon="2.648754">
        <ele>180</ele>
        <time>1970-01-01T04:50:37.000Z</time>
      </trkpt>
      <trkpt lat="42.215732" lon="2.648672">
        <ele>180</ele>
        <time>1970-01-01T04:50:38.000Z</time>
      </trkpt>
      <trkpt lat="42.215749" lon="2.648589">
        <ele>181</ele>
        <time>1970-01-01T04:50:39.000Z</time>
      </trkpt>
      <trkpt lat="42.215812" lon="2.648502">
        <ele>181</ele>
        <time>1970-01-01T04:50:40.000Z</time>
      </trkpt>
      <trkpt lat="42.215838" lon="2.648468">
        <ele>181</ele>
        <time>1970-01-01T04:50:41.000Z</time>
      </trkpt>
      <trkpt lat="42.215865" lon="2.648434">
        <ele>181</ele>
        <time>1970-01-01T04:50:42.000Z</time>
      </trkpt>
      <trkpt lat="42.215891" lon="2.6484">
        <ele>181</ele>
        <time>1970-01-01T04:50:44.000Z</time>
      </trkpt>
      <trkpt lat="42.215918" lon="2.648365">
        <ele>181</ele>
        <time>1970-01-01T04:50:45.000Z</time>
      </trkpt>
      <trkpt lat="42.215944" lon="2.648331">
        <ele>181</ele>
        <time>1970-01-01T04:50:47.000Z</time>
      </trkpt>
      <trkpt lat="42.215971" lon="2.648297">
        <ele>181</ele>
        <time>1970-01-01T04:50:48.000Z</time>
      </trkpt>
      <trkpt lat="42.215997" lon="2.648263">
        <ele>183</ele>
        <time>1970-01-01T04:50:49.000Z</time>
      </trkpt>
      <trkpt lat="42.21602" lon="2.64821">
        <ele>183</ele>
        <time>1970-01-01T04:50:50.000Z</time>
      </trkpt>
      <trkpt lat="42.216035" lon="2.64817">
        <ele>183</ele>
        <time>1970-01-01T04:50:51.000Z</time>
      </trkpt>
      <trkpt lat="42.21605" lon="2.648131">
        <ele>183</ele>
        <time>1970-01-01T04:50:53.000Z</time>
      </trkpt>
      <trkpt lat="42.216065" lon="2.648091">
        <ele>183</ele>
        <time>1970-01-01T04:50:54.000Z</time>
      </trkpt>
      <trkpt lat="42.21608" lon="2.648052">
        <ele>183</ele>
        <time>1970-01-01T04:50:55.000Z</time>
      </trkpt>
      <trkpt lat="42.216095" lon="2.648012">
        <ele>183</ele>
        <time>1970-01-01T04:50:57.000Z</time>
      </trkpt>
      <trkpt lat="42.21611" lon="2.647973">
        <ele>183</ele>
        <time>1970-01-01T04:50:58.000Z</time>
      </trkpt>
      <trkpt lat="42.216125" lon="2.647933">
        <ele>184</ele>
        <time>1970-01-01T04:50:59.000Z</time>
      </trkpt>
      <trkpt lat="42.216122" lon="2.647877">
        <ele>184</ele>
        <time>1970-01-01T04:51:00.000Z</time>
      </trkpt>
      <trkpt lat="42.216116" lon="2.647839">
        <ele>184</ele>
        <time>1970-01-01T04:51:01.000Z</time>
      </trkpt>
      <trkpt lat="42.216111" lon="2.647802">
        <ele>184</ele>
        <time>1970-01-01T04:51:02.000Z</time>
      </trkpt>
      <trkpt lat="42.216106" lon="2.647764">
        <ele>184</ele>
        <time>1970-01-01T04:51:03.000Z</time>
      </trkpt>
      <trkpt lat="42.216101" lon="2.647727">
        <ele>184</ele>
        <time>1970-01-01T04:51:04.000Z</time>
      </trkpt>
      <trkpt lat="42.216095" lon="2.64769">
        <ele>184</ele>
        <time>1970-01-01T04:51:05.000Z</time>
      </trkpt>
      <trkpt lat="42.21609" lon="2.647652">
        <ele>184</ele>
        <time>1970-01-01T04:51:06.000Z</time>
      </trkpt>
      <trkpt lat="42.216085" lon="2.647615">
        <ele>184</ele>
        <time>1970-01-01T04:51:07.000Z</time>
      </trkpt>
      <trkpt lat="42.216079" lon="2.647577">
        <ele>184</ele>
        <time>1970-01-01T04:51:08.000Z</time>
      </trkpt>
      <trkpt lat="42.216074" lon="2.64754">
        <ele>186</ele>
        <time>1970-01-01T04:51:09.000Z</time>
      </trkpt>
      <trkpt lat="42.216034" lon="2.647436">
        <ele>186</ele>
        <time>1970-01-01T04:51:10.000Z</time>
      </trkpt>
      <trkpt lat="42.216013" lon="2.647393">
        <ele>186</ele>
        <time>1970-01-01T04:51:11.000Z</time>
      </trkpt>
      <trkpt lat="42.215993" lon="2.647351">
        <ele>186</ele>
        <time>1970-01-01T04:51:12.000Z</time>
      </trkpt>
      <trkpt lat="42.215973" lon="2.647308">
        <ele>186</ele>
        <time>1970-01-01T04:51:14.000Z</time>
      </trkpt>
      <trkpt lat="42.215952" lon="2.647265">
        <ele>186</ele>
        <time>1970-01-01T04:51:15.000Z</time>
      </trkpt>
      <trkpt lat="42.215932" lon="2.647222">
        <ele>186</ele>
        <time>1970-01-01T04:51:16.000Z</time>
      </trkpt>
      <trkpt lat="42.215911" lon="2.64718">
        <ele>186</ele>
        <time>1970-01-01T04:51:17.000Z</time>
      </trkpt>
      <trkpt lat="42.215891" lon="2.647137">
        <ele>187</ele>
        <time>1970-01-01T04:51:19.000Z</time>
      </trkpt>
      <trkpt lat="42.215851" lon="2.647052">
        <ele>187</ele>
        <time>1970-01-01T04:51:21.000Z</time>
      </trkpt>
      <trkpt lat="42.215831" lon="2.647007">
        <ele>187</ele>
        <time>1970-01-01T04:51:22.000Z</time>
      </trkpt>
      <trkpt lat="42.21581" lon="2.646962">
        <ele>187</ele>
        <time>1970-01-01T04:51:23.000Z</time>
      </trkpt>
      <trkpt lat="42.21579" lon="2.646916">
        <ele>187</ele>
        <time>1970-01-01T04:51:25.000Z</time>
      </trkpt>
      <trkpt lat="42.21577" lon="2.646871">
        <ele>187</ele>
        <time>1970-01-01T04:51:26.000Z</time>
      </trkpt>
      <trkpt lat="42.21575" lon="2.646826">
        <ele>187</ele>
        <time>1970-01-01T04:51:27.000Z</time>
      </trkpt>
      <trkpt lat="42.215729" lon="2.646781">
        <ele>187</ele>
        <time>1970-01-01T04:51:28.000Z</time>
      </trkpt>
      <trkpt lat="42.215709" lon="2.646736">
        <ele>189</ele>
        <time>1970-01-01T04:51:29.000Z</time>
      </trkpt>
      <trkpt lat="42.215695" lon="2.646585">
        <ele>189</ele>
        <time>1970-01-01T04:51:30.000Z</time>
      </trkpt>
      <trkpt lat="42.215696" lon="2.646508">
        <ele>189</ele>
        <time>1970-01-01T04:51:32.000Z</time>
      </trkpt>
      <trkpt lat="42.215698" lon="2.646431">
        <ele>189</ele>
        <time>1970-01-01T04:51:33.000Z</time>
      </trkpt>
      <trkpt lat="42.2157" lon="2.646354">
        <ele>189</ele>
        <time>1970-01-01T04:51:34.000Z</time>
      </trkpt>
      <trkpt lat="42.215701" lon="2.646276">
        <ele>189</ele>
        <time>1970-01-01T04:51:35.000Z</time>
      </trkpt>
      <trkpt lat="42.215703" lon="2.646199">
        <ele>189</ele>
        <time>1970-01-01T04:51:36.000Z</time>
      </trkpt>
      <trkpt lat="42.215704" lon="2.646122">
        <ele>189</ele>
        <time>1970-01-01T04:51:38.000Z</time>
      </trkpt>
      <trkpt lat="42.215706" lon="2.646045">
        <ele>189</ele>
        <time>1970-01-01T04:51:40.000Z</time>
      </trkpt>
      <trkpt lat="42.215725" lon="2.645916">
        <ele>189</ele>
        <time>1970-01-01T04:51:41.000Z</time>
      </trkpt>
      <trkpt lat="42.215737" lon="2.645856">
        <ele>189</ele>
        <time>1970-01-01T04:51:42.000Z</time>
      </trkpt>
      <trkpt lat="42.215748" lon="2.645795">
        <ele>189</ele>
        <time>1970-01-01T04:51:43.000Z</time>
      </trkpt>
      <trkpt lat="42.21576" lon="2.645735">
        <ele>189</ele>
        <time>1970-01-01T04:51:44.000Z</time>
      </trkpt>
      <trkpt lat="42.215772" lon="2.645674">
        <ele>189</ele>
        <time>1970-01-01T04:51:45.000Z</time>
      </trkpt>
      <trkpt lat="42.215784" lon="2.645614">
        <ele>189</ele>
        <time>1970-01-01T04:51:46.000Z</time>
      </trkpt>
      <trkpt lat="42.215795" lon="2.645553">
        <ele>189</ele>
        <time>1970-01-01T04:51:47.000Z</time>
      </trkpt>
      <trkpt lat="42.215807" lon="2.645493">
        <ele>189</ele>
        <time>1970-01-01T04:51:48.000Z</time>
      </trkpt>
      <trkpt lat="42.215819" lon="2.645432">
        <ele>189</ele>
        <time>1970-01-01T04:51:49.000Z</time>
      </trkpt>
      <trkpt lat="42.215834" lon="2.645313">
        <ele>189</ele>
        <time>1970-01-01T04:51:50.000Z</time>
      </trkpt>
      <trkpt lat="42.215839" lon="2.645256">
        <ele>189</ele>
        <time>1970-01-01T04:51:52.000Z</time>
      </trkpt>
      <trkpt lat="42.215845" lon="2.645199">
        <ele>189</ele>
        <time>1970-01-01T04:51:53.000Z</time>
      </trkpt>
      <trkpt lat="42.21585" lon="2.645142">
        <ele>189</ele>
        <time>1970-01-01T04:51:54.000Z</time>
      </trkpt>
      <trkpt lat="42.215856" lon="2.645085">
        <ele>189</ele>
        <time>1970-01-01T04:51:55.000Z</time>
      </trkpt>
      <trkpt lat="42.215861" lon="2.645028">
        <ele>189</ele>
        <time>1970-01-01T04:51:56.000Z</time>
      </trkpt>
      <trkpt lat="42.215867" lon="2.644971">
        <ele>189</ele>
        <time>1970-01-01T04:51:57.000Z</time>
      </trkpt>
      <trkpt lat="42.215872" lon="2.644914">
        <ele>189</ele>
        <time>1970-01-01T04:51:58.000Z</time>
      </trkpt>
      <trkpt lat="42.215878" lon="2.644857">
        <ele>188</ele>
        <time>1970-01-01T04:51:59.000Z</time>
      </trkpt>
      <trkpt lat="42.215883" lon="2.644776">
        <ele>188</ele>
        <time>1970-01-01T04:52:00.000Z</time>
      </trkpt>
      <trkpt lat="42.215886" lon="2.644722">
        <ele>188</ele>
        <time>1970-01-01T04:52:01.000Z</time>
      </trkpt>
      <trkpt lat="42.215889" lon="2.644669">
        <ele>188</ele>
        <time>1970-01-01T04:52:02.000Z</time>
      </trkpt>
      <trkpt lat="42.215892" lon="2.644615">
        <ele>188</ele>
        <time>1970-01-01T04:52:03.000Z</time>
      </trkpt>
      <trkpt lat="42.215895" lon="2.644562">
        <ele>188</ele>
        <time>1970-01-01T04:52:04.000Z</time>
      </trkpt>
      <trkpt lat="42.215898" lon="2.644508">
        <ele>188</ele>
        <time>1970-01-01T04:52:05.000Z</time>
      </trkpt>
      <trkpt lat="42.215901" lon="2.644455">
        <ele>188</ele>
        <time>1970-01-01T04:52:06.000Z</time>
      </trkpt>
      <trkpt lat="42.215904" lon="2.644401">
        <ele>188</ele>
        <time>1970-01-01T04:52:07.000Z</time>
      </trkpt>
      <trkpt lat="42.215907" lon="2.644348">
        <ele>188</ele>
        <time>1970-01-01T04:52:08.000Z</time>
      </trkpt>
      <trkpt lat="42.21591" lon="2.644294">
        <ele>189</ele>
        <time>1970-01-01T04:52:09.000Z</time>
      </trkpt>
      <trkpt lat="42.215916" lon="2.64416">
        <ele>189</ele>
        <time>1970-01-01T04:52:10.000Z</time>
      </trkpt>
      <trkpt lat="42.21592" lon="2.64409">
        <ele>189</ele>
        <time>1970-01-01T04:52:11.000Z</time>
      </trkpt>
      <trkpt lat="42.215923" lon="2.644019">
        <ele>189</ele>
        <time>1970-01-01T04:52:12.000Z</time>
      </trkpt>
      <trkpt lat="42.215927" lon="2.643948">
        <ele>189</ele>
        <time>1970-01-01T04:52:14.000Z</time>
      </trkpt>
      <trkpt lat="42.215931" lon="2.643878">
        <ele>189</ele>
        <time>1970-01-01T04:52:15.000Z</time>
      </trkpt>
      <trkpt lat="42.215935" lon="2.643807">
        <ele>189</ele>
        <time>1970-01-01T04:52:16.000Z</time>
      </trkpt>
      <trkpt lat="42.215938" lon="2.643736">
        <ele>189</ele>
        <time>1970-01-01T04:52:17.000Z</time>
      </trkpt>
      <trkpt lat="42.215942" lon="2.643666">
        <ele>189</ele>
        <time>1970-01-01T04:52:18.000Z</time>
      </trkpt>
      <trkpt lat="42.215946" lon="2.643595">
        <ele>189</ele>
        <time>1970-01-01T04:52:19.000Z</time>
      </trkpt>
      <trkpt lat="42.215954" lon="2.64347">
        <ele>189</ele>
        <time>1970-01-01T04:52:20.000Z</time>
      </trkpt>
      <trkpt lat="42.215958" lon="2.64341">
        <ele>189</ele>
        <time>1970-01-01T04:52:21.000Z</time>
      </trkpt>
      <trkpt lat="42.215961" lon="2.64335">
        <ele>189</ele>
        <time>1970-01-01T04:52:23.000Z</time>
      </trkpt>
      <trkpt lat="42.215964" lon="2.64329">
        <ele>189</ele>
        <time>1970-01-01T04:52:24.000Z</time>
      </trkpt>
      <trkpt lat="42.215968" lon="2.643231">
        <ele>189</ele>
        <time>1970-01-01T04:52:25.000Z</time>
      </trkpt>
      <trkpt lat="42.215971" lon="2.643171">
        <ele>189</ele>
        <time>1970-01-01T04:52:26.000Z</time>
      </trkpt>
      <trkpt lat="42.215974" lon="2.643111">
        <ele>189</ele>
        <time>1970-01-01T04:52:27.000Z</time>
      </trkpt>
      <trkpt lat="42.215978" lon="2.643051">
        <ele>189</ele>
        <time>1970-01-01T04:52:28.000Z</time>
      </trkpt>
      <trkpt lat="42.215981" lon="2.642991">
        <ele>189</ele>
        <time>1970-01-01T04:52:29.000Z</time>
      </trkpt>
      <trkpt lat="42.215989" lon="2.642852">
        <ele>189</ele>
        <time>1970-01-01T04:52:30.000Z</time>
      </trkpt>
      <trkpt lat="42.215993" lon="2.642805">
        <ele>189</ele>
        <time>1970-01-01T04:52:31.000Z</time>
      </trkpt>
      <trkpt lat="42.215997" lon="2.642758">
        <ele>189</ele>
        <time>1970-01-01T04:52:32.000Z</time>
      </trkpt>
      <trkpt lat="42.216001" lon="2.642711">
        <ele>189</ele>
        <time>1970-01-01T04:52:33.000Z</time>
      </trkpt>
      <trkpt lat="42.216005" lon="2.642665">
        <ele>189</ele>
        <time>1970-01-01T04:52:34.000Z</time>
      </trkpt>
      <trkpt lat="42.216008" lon="2.642618">
        <ele>189</ele>
        <time>1970-01-01T04:52:35.000Z</time>
      </trkpt>
      <trkpt lat="42.216012" lon="2.642571">
        <ele>189</ele>
        <time>1970-01-01T04:52:36.000Z</time>
      </trkpt>
      <trkpt lat="42.216016" lon="2.642524">
        <ele>189</ele>
        <time>1970-01-01T04:52:37.000Z</time>
      </trkpt>
      <trkpt lat="42.21602" lon="2.642477">
        <ele>189</ele>
        <time>1970-01-01T04:52:38.000Z</time>
      </trkpt>
      <trkpt lat="42.216024" lon="2.64243">
        <ele>189</ele>
        <time>1970-01-01T04:52:39.000Z</time>
      </trkpt>
      <trkpt lat="42.216031" lon="2.642343">
        <ele>189</ele>
        <time>1970-01-01T04:52:40.000Z</time>
      </trkpt>
      <trkpt lat="42.216034" lon="2.642282">
        <ele>189</ele>
        <time>1970-01-01T04:52:41.000Z</time>
      </trkpt>
      <trkpt lat="42.216037" lon="2.642221">
        <ele>189</ele>
        <time>1970-01-01T04:52:42.000Z</time>
      </trkpt>
      <trkpt lat="42.21604" lon="2.64216">
        <ele>189</ele>
        <time>1970-01-01T04:52:43.000Z</time>
      </trkpt>
      <trkpt lat="42.216044" lon="2.642098">
        <ele>189</ele>
        <time>1970-01-01T04:52:44.000Z</time>
      </trkpt>
      <trkpt lat="42.216047" lon="2.642037">
        <ele>189</ele>
        <time>1970-01-01T04:52:45.000Z</time>
      </trkpt>
      <trkpt lat="42.21605" lon="2.641976">
        <ele>189</ele>
        <time>1970-01-01T04:52:46.000Z</time>
      </trkpt>
      <trkpt lat="42.216053" lon="2.641915">
        <ele>189</ele>
        <time>1970-01-01T04:52:47.000Z</time>
      </trkpt>
      <trkpt lat="42.216056" lon="2.641854">
        <ele>190</ele>
        <time>1970-01-01T04:52:49.000Z</time>
      </trkpt>
      <trkpt lat="42.21608" lon="2.641754">
        <ele>190</ele>
        <time>1970-01-01T04:52:50.000Z</time>
      </trkpt>
      <trkpt lat="42.216102" lon="2.641715">
        <ele>190</ele>
        <time>1970-01-01T04:52:51.000Z</time>
      </trkpt>
      <trkpt lat="42.216125" lon="2.641677">
        <ele>190</ele>
        <time>1970-01-01T04:52:53.000Z</time>
      </trkpt>
      <trkpt lat="42.216148" lon="2.641638">
        <ele>190</ele>
        <time>1970-01-01T04:52:54.000Z</time>
      </trkpt>
      <trkpt lat="42.21617" lon="2.6416">
        <ele>190</ele>
        <time>1970-01-01T04:52:56.000Z</time>
      </trkpt>
      <trkpt lat="42.216193" lon="2.641561">
        <ele>190</ele>
        <time>1970-01-01T04:52:57.000Z</time>
      </trkpt>
      <trkpt lat="42.216215" lon="2.641523">
        <ele>190</ele>
        <time>1970-01-01T04:52:58.000Z</time>
      </trkpt>
      <trkpt lat="42.216238" lon="2.641484">
        <ele>190</ele>
        <time>1970-01-01T04:52:59.000Z</time>
      </trkpt>
      <trkpt lat="42.216315" lon="2.641506">
        <ele>190</ele>
        <time>1970-01-01T04:53:01.000Z</time>
      </trkpt>
      <trkpt lat="42.216336" lon="2.641514">
        <ele>190</ele>
        <time>1970-01-01T04:53:02.000Z</time>
      </trkpt>
      <trkpt lat="42.216358" lon="2.641521">
        <ele>190</ele>
        <time>1970-01-01T04:53:03.000Z</time>
      </trkpt>
      <trkpt lat="42.216379" lon="2.641528">
        <ele>190</ele>
        <time>1970-01-01T04:53:04.000Z</time>
      </trkpt>
      <trkpt lat="42.216401" lon="2.641535">
        <ele>190</ele>
        <time>1970-01-01T04:53:06.000Z</time>
      </trkpt>
      <trkpt lat="42.216422" lon="2.641543">
        <ele>190</ele>
        <time>1970-01-01T04:53:08.000Z</time>
      </trkpt>
      <trkpt lat="42.216444" lon="2.64155">
        <ele>192</ele>
        <time>1970-01-01T04:53:09.000Z</time>
      </trkpt>
      <trkpt lat="42.216496" lon="2.64157">
        <ele>192</ele>
        <time>1970-01-01T04:53:10.000Z</time>
      </trkpt>
      <trkpt lat="42.216522" lon="2.641575">
        <ele>192</ele>
        <time>1970-01-01T04:53:12.000Z</time>
      </trkpt>
      <trkpt lat="42.216547" lon="2.64158">
        <ele>192</ele>
        <time>1970-01-01T04:53:14.000Z</time>
      </trkpt>
      <trkpt lat="42.216572" lon="2.641586">
        <ele>192</ele>
        <time>1970-01-01T04:53:16.000Z</time>
      </trkpt>
      <trkpt lat="42.216598" lon="2.641591">
        <ele>192</ele>
        <time>1970-01-01T04:53:18.000Z</time>
      </trkpt>
      <trkpt lat="42.216623" lon="2.641596">
        <ele>194</ele>
        <time>1970-01-01T04:53:19.000Z</time>
      </trkpt>
      <trkpt lat="42.216669" lon="2.641599">
        <ele>194</ele>
        <time>1970-01-01T04:53:20.000Z</time>
      </trkpt>
      <trkpt lat="42.216686" lon="2.6416">
        <ele>194</ele>
        <time>1970-01-01T04:53:21.000Z</time>
      </trkpt>
      <trkpt lat="42.216704" lon="2.6416">
        <ele>194</ele>
        <time>1970-01-01T04:53:22.000Z</time>
      </trkpt>
      <trkpt lat="42.216721" lon="2.6416">
        <ele>194</ele>
        <time>1970-01-01T04:53:23.000Z</time>
      </trkpt>
      <trkpt lat="42.216739" lon="2.641601">
        <ele>194</ele>
        <time>1970-01-01T04:53:24.000Z</time>
      </trkpt>
      <trkpt lat="42.216756" lon="2.641601">
        <ele>194</ele>
        <time>1970-01-01T04:53:25.000Z</time>
      </trkpt>
      <trkpt lat="42.216774" lon="2.641601">
        <ele>194</ele>
        <time>1970-01-01T04:53:27.000Z</time>
      </trkpt>
      <trkpt lat="42.216791" lon="2.641602">
        <ele>194</ele>
        <time>1970-01-01T04:53:28.000Z</time>
      </trkpt>
      <trkpt lat="42.216809" lon="2.641602">
        <ele>196</ele>
        <time>1970-01-01T04:53:29.000Z</time>
      </trkpt>
      <trkpt lat="42.216856" lon="2.641586">
        <ele>196</ele>
        <time>1970-01-01T04:53:31.000Z</time>
      </trkpt>
      <trkpt lat="42.216879" lon="2.641579">
        <ele>196</ele>
        <time>1970-01-01T04:53:32.000Z</time>
      </trkpt>
      <trkpt lat="42.216902" lon="2.641572">
        <ele>196</ele>
        <time>1970-01-01T04:53:33.000Z</time>
      </trkpt>
      <trkpt lat="42.216924" lon="2.641565">
        <ele>196</ele>
        <time>1970-01-01T04:53:34.000Z</time>
      </trkpt>
      <trkpt lat="42.216947" lon="2.641558">
        <ele>196</ele>
        <time>1970-01-01T04:53:35.000Z</time>
      </trkpt>
      <trkpt lat="42.21697" lon="2.641551">
        <ele>196</ele>
        <time>1970-01-01T04:53:37.000Z</time>
      </trkpt>
      <trkpt lat="42.216993" lon="2.641544">
        <ele>199</ele>
        <time>1970-01-01T04:53:39.000Z</time>
      </trkpt>
      <trkpt lat="42.217054" lon="2.641521">
        <ele>199</ele>
        <time>1970-01-01T04:53:41.000Z</time>
      </trkpt>
      <trkpt lat="42.217075" lon="2.641504">
        <ele>199</ele>
        <time>1970-01-01T04:53:43.000Z</time>
      </trkpt>
      <trkpt lat="42.217097" lon="2.641488">
        <ele>199</ele>
        <time>1970-01-01T04:53:44.000Z</time>
      </trkpt>
      <trkpt lat="42.217118" lon="2.641472">
        <ele>199</ele>
        <time>1970-01-01T04:53:46.000Z</time>
      </trkpt>
      <trkpt lat="42.217139" lon="2.641455">
        <ele>199</ele>
        <time>1970-01-01T04:53:47.000Z</time>
      </trkpt>
      <trkpt lat="42.21716" lon="2.641439">
        <ele>200</ele>
        <time>1970-01-01T04:53:49.000Z</time>
      </trkpt>
      <trkpt lat="42.217214" lon="2.641373">
        <ele>200</ele>
        <time>1970-01-01T04:53:50.000Z</time>
      </trkpt>
      <trkpt lat="42.217234" lon="2.641346">
        <ele>200</ele>
        <time>1970-01-01T04:53:52.000Z</time>
      </trkpt>
      <trkpt lat="42.217253" lon="2.641318">
        <ele>200</ele>
        <time>1970-01-01T04:53:53.000Z</time>
      </trkpt>
      <trkpt lat="42.217273" lon="2.641291">
        <ele>200</ele>
        <time>1970-01-01T04:53:55.000Z</time>
      </trkpt>
      <trkpt lat="42.217293" lon="2.641263">
        <ele>200</ele>
        <time>1970-01-01T04:53:56.000Z</time>
      </trkpt>
      <trkpt lat="42.217313" lon="2.641235">
        <ele>200</ele>
        <time>1970-01-01T04:53:57.000Z</time>
      </trkpt>
      <trkpt lat="42.217332" lon="2.641208">
        <ele>200</ele>
        <time>1970-01-01T04:53:58.000Z</time>
      </trkpt>
      <trkpt lat="42.217352" lon="2.64118">
        <ele>200</ele>
        <time>1970-01-01T04:53:59.000Z</time>
      </trkpt>
      <trkpt lat="42.217383" lon="2.641104">
        <ele>200</ele>
        <time>1970-01-01T04:54:00.000Z</time>
      </trkpt>
      <trkpt lat="42.217397" lon="2.641062">
        <ele>200</ele>
        <time>1970-01-01T04:54:01.000Z</time>
      </trkpt>
      <trkpt lat="42.217412" lon="2.64102">
        <ele>200</ele>
        <time>1970-01-01T04:54:02.000Z</time>
      </trkpt>
      <trkpt lat="42.217427" lon="2.640979">
        <ele>200</ele>
        <time>1970-01-01T04:54:03.000Z</time>
      </trkpt>
      <trkpt lat="42.217441" lon="2.640937">
        <ele>200</ele>
        <time>1970-01-01T04:54:05.000Z</time>
      </trkpt>
      <trkpt lat="42.217456" lon="2.640895">
        <ele>200</ele>
        <time>1970-01-01T04:54:06.000Z</time>
      </trkpt>
      <trkpt lat="42.21747" lon="2.640853">
        <ele>200</ele>
        <time>1970-01-01T04:54:07.000Z</time>
      </trkpt>
      <trkpt lat="42.217485" lon="2.640811">
        <ele>202</ele>
        <time>1970-01-01T04:54:09.000Z</time>
      </trkpt>
      <trkpt lat="42.217519" lon="2.640704">
        <ele>202</ele>
        <time>1970-01-01T04:54:10.000Z</time>
      </trkpt>
      <trkpt lat="42.217543" lon="2.640647">
        <ele>202</ele>
        <time>1970-01-01T04:54:11.000Z</time>
      </trkpt>
      <trkpt lat="42.217567" lon="2.640589">
        <ele>202</ele>
        <time>1970-01-01T04:54:13.000Z</time>
      </trkpt>
      <trkpt lat="42.217591" lon="2.640532">
        <ele>202</ele>
        <time>1970-01-01T04:54:14.000Z</time>
      </trkpt>
      <trkpt lat="42.217615" lon="2.640475">
        <ele>202</ele>
        <time>1970-01-01T04:54:15.000Z</time>
      </trkpt>
      <trkpt lat="42.217639" lon="2.640418">
        <ele>202</ele>
        <time>1970-01-01T04:54:16.000Z</time>
      </trkpt>
      <trkpt lat="42.217663" lon="2.64036">
        <ele>202</ele>
        <time>1970-01-01T04:54:17.000Z</time>
      </trkpt>
      <trkpt lat="42.217687" lon="2.640303">
        <ele>202</ele>
        <time>1970-01-01T04:54:19.000Z</time>
      </trkpt>
      <trkpt lat="42.217676" lon="2.640131">
        <ele>202</ele>
        <time>1970-01-01T04:54:21.000Z</time>
      </trkpt>
      <trkpt lat="42.217647" lon="2.640075">
        <ele>202</ele>
        <time>1970-01-01T04:54:23.000Z</time>
      </trkpt>
      <trkpt lat="42.217617" lon="2.640019">
        <ele>202</ele>
        <time>1970-01-01T04:54:24.000Z</time>
      </trkpt>
      <trkpt lat="42.217588" lon="2.639962">
        <ele>202</ele>
        <time>1970-01-01T04:54:25.000Z</time>
      </trkpt>
      <trkpt lat="42.217558" lon="2.639906">
        <ele>202</ele>
        <time>1970-01-01T04:54:26.000Z</time>
      </trkpt>
      <trkpt lat="42.217528" lon="2.63985">
        <ele>202</ele>
        <time>1970-01-01T04:54:27.000Z</time>
      </trkpt>
      <trkpt lat="42.217499" lon="2.639794">
        <ele>202</ele>
        <time>1970-01-01T04:54:28.000Z</time>
      </trkpt>
      <trkpt lat="42.217469" lon="2.639738">
        <ele>201</ele>
        <time>1970-01-01T04:54:29.000Z</time>
      </trkpt>
      <trkpt lat="42.217395" lon="2.639556">
        <ele>201</ele>
        <time>1970-01-01T04:54:30.000Z</time>
      </trkpt>
      <trkpt lat="42.217359" lon="2.639454">
        <ele>201</ele>
        <time>1970-01-01T04:54:31.000Z</time>
      </trkpt>
      <trkpt lat="42.217324" lon="2.639351">
        <ele>201</ele>
        <time>1970-01-01T04:54:32.000Z</time>
      </trkpt>
      <trkpt lat="42.217288" lon="2.639249">
        <ele>201</ele>
        <time>1970-01-01T04:54:33.000Z</time>
      </trkpt>
      <trkpt lat="42.217252" lon="2.639146">
        <ele>201</ele>
        <time>1970-01-01T04:54:34.000Z</time>
      </trkpt>
      <trkpt lat="42.217216" lon="2.639044">
        <ele>201</ele>
        <time>1970-01-01T04:54:35.000Z</time>
      </trkpt>
      <trkpt lat="42.21718" lon="2.638941">
        <ele>201</ele>
        <time>1970-01-01T04:54:36.000Z</time>
      </trkpt>
      <trkpt lat="42.217145" lon="2.638839">
        <ele>201</ele>
        <time>1970-01-01T04:54:37.000Z</time>
      </trkpt>
      <trkpt lat="42.217109" lon="2.638736">
        <ele>201</ele>
        <time>1970-01-01T04:54:39.000Z</time>
      </trkpt>
      <trkpt lat="42.217073" lon="2.638634">
        <ele>199</ele>
        <time>1970-01-01T04:54:40.000Z</time>
      </trkpt>
      <trkpt lat="42.21701" lon="2.63834">
        <ele>199</ele>
        <time>1970-01-01T04:54:41.000Z</time>
      </trkpt>
      <trkpt lat="42.21699" lon="2.638221">
        <ele>199</ele>
        <time>1970-01-01T04:54:42.000Z</time>
      </trkpt>
      <trkpt lat="42.216969" lon="2.638103">
        <ele>199</ele>
        <time>1970-01-01T04:54:43.000Z</time>
      </trkpt>
      <trkpt lat="42.216949" lon="2.637984">
        <ele>199</ele>
        <time>1970-01-01T04:54:44.000Z</time>
      </trkpt>
      <trkpt lat="42.216929" lon="2.637865">
        <ele>199</ele>
        <time>1970-01-01T04:54:45.000Z</time>
      </trkpt>
      <trkpt lat="42.216909" lon="2.637746">
        <ele>199</ele>
        <time>1970-01-01T04:54:46.000Z</time>
      </trkpt>
      <trkpt lat="42.216888" lon="2.637628">
        <ele>199</ele>
        <time>1970-01-01T04:54:47.000Z</time>
      </trkpt>
      <trkpt lat="42.216868" lon="2.637509">
        <ele>199</ele>
        <time>1970-01-01T04:54:48.000Z</time>
      </trkpt>
      <trkpt lat="42.216848" lon="2.63739">
        <ele>193</ele>
        <time>1970-01-01T04:54:49.000Z</time>
      </trkpt>
      <trkpt lat="42.216823" lon="2.637119">
        <ele>193</ele>
        <time>1970-01-01T04:54:50.000Z</time>
      </trkpt>
      <trkpt lat="42.216814" lon="2.636986">
        <ele>193</ele>
        <time>1970-01-01T04:54:52.000Z</time>
      </trkpt>
      <trkpt lat="42.216805" lon="2.636854">
        <ele>193</ele>
        <time>1970-01-01T04:54:53.000Z</time>
      </trkpt>
      <trkpt lat="42.216797" lon="2.636721">
        <ele>193</ele>
        <time>1970-01-01T04:54:54.000Z</time>
      </trkpt>
      <trkpt lat="42.216788" lon="2.636588">
        <ele>193</ele>
        <time>1970-01-01T04:54:55.000Z</time>
      </trkpt>
      <trkpt lat="42.216779" lon="2.636455">
        <ele>193</ele>
        <time>1970-01-01T04:54:57.000Z</time>
      </trkpt>
      <trkpt lat="42.21677" lon="2.636323">
        <ele>193</ele>
        <time>1970-01-01T04:54:58.000Z</time>
      </trkpt>
      <trkpt lat="42.216761" lon="2.63619">
        <ele>192</ele>
        <time>1970-01-01T04:54:59.000Z</time>
      </trkpt>
      <trkpt lat="42.216759" lon="2.635969">
        <ele>192</ele>
        <time>1970-01-01T04:55:00.000Z</time>
      </trkpt>
      <trkpt lat="42.216761" lon="2.635869">
        <ele>192</ele>
        <time>1970-01-01T04:55:01.000Z</time>
      </trkpt>
      <trkpt lat="42.216764" lon="2.63577">
        <ele>192</ele>
        <time>1970-01-01T04:55:02.000Z</time>
      </trkpt>
      <trkpt lat="42.216766" lon="2.635671">
        <ele>192</ele>
        <time>1970-01-01T04:55:03.000Z</time>
      </trkpt>
      <trkpt lat="42.216769" lon="2.635572">
        <ele>192</ele>
        <time>1970-01-01T04:55:04.000Z</time>
      </trkpt>
      <trkpt lat="42.216772" lon="2.635472">
        <ele>192</ele>
        <time>1970-01-01T04:55:05.000Z</time>
      </trkpt>
      <trkpt lat="42.216774" lon="2.635373">
        <ele>192</ele>
        <time>1970-01-01T04:55:06.000Z</time>
      </trkpt>
      <trkpt lat="42.216777" lon="2.635274">
        <ele>192</ele>
        <time>1970-01-01T04:55:07.000Z</time>
      </trkpt>
      <trkpt lat="42.216779" lon="2.635174">
        <ele>192</ele>
        <time>1970-01-01T04:55:08.000Z</time>
      </trkpt>
      <trkpt lat="42.216782" lon="2.635075">
        <ele>192</ele>
        <time>1970-01-01T04:55:09.000Z</time>
      </trkpt>
      <trkpt lat="42.216787" lon="2.634923">
        <ele>192</ele>
        <time>1970-01-01T04:55:10.000Z</time>
      </trkpt>
      <trkpt lat="42.21679" lon="2.634852">
        <ele>192</ele>
        <time>1970-01-01T04:55:11.000Z</time>
      </trkpt>
      <trkpt lat="42.216792" lon="2.63478">
        <ele>192</ele>
        <time>1970-01-01T04:55:12.000Z</time>
      </trkpt>
      <trkpt lat="42.216794" lon="2.634709">
        <ele>192</ele>
        <time>1970-01-01T04:55:14.000Z</time>
      </trkpt>
      <trkpt lat="42.216797" lon="2.634638">
        <ele>192</ele>
        <time>1970-01-01T04:55:15.000Z</time>
      </trkpt>
      <trkpt lat="42.216799" lon="2.634567">
        <ele>192</ele>
        <time>1970-01-01T04:55:16.000Z</time>
      </trkpt>
      <trkpt lat="42.216801" lon="2.634495">
        <ele>192</ele>
        <time>1970-01-01T04:55:17.000Z</time>
      </trkpt>
      <trkpt lat="42.216804" lon="2.634424">
        <ele>192</ele>
        <time>1970-01-01T04:55:18.000Z</time>
      </trkpt>
      <trkpt lat="42.216806" lon="2.634353">
        <ele>193</ele>
        <time>1970-01-01T04:55:19.000Z</time>
      </trkpt>
      <trkpt lat="42.216807" lon="2.634221">
        <ele>193</ele>
        <time>1970-01-01T04:55:20.000Z</time>
      </trkpt>
      <trkpt lat="42.216807" lon="2.634158">
        <ele>193</ele>
        <time>1970-01-01T04:55:22.000Z</time>
      </trkpt>
      <trkpt lat="42.216806" lon="2.634095">
        <ele>193</ele>
        <time>1970-01-01T04:55:23.000Z</time>
      </trkpt>
      <trkpt lat="42.216805" lon="2.634032">
        <ele>193</ele>
        <time>1970-01-01T04:55:24.000Z</time>
      </trkpt>
      <trkpt lat="42.216805" lon="2.63397">
        <ele>193</ele>
        <time>1970-01-01T04:55:25.000Z</time>
      </trkpt>
      <trkpt lat="42.216804" lon="2.633907">
        <ele>193</ele>
        <time>1970-01-01T04:55:26.000Z</time>
      </trkpt>
      <trkpt lat="42.216803" lon="2.633844">
        <ele>193</ele>
        <time>1970-01-01T04:55:27.000Z</time>
      </trkpt>
      <trkpt lat="42.216803" lon="2.633781">
        <ele>193</ele>
        <time>1970-01-01T04:55:28.000Z</time>
      </trkpt>
      <trkpt lat="42.216802" lon="2.633718">
        <ele>193</ele>
        <time>1970-01-01T04:55:29.000Z</time>
      </trkpt>
      <trkpt lat="42.216797" lon="2.633556">
        <ele>193</ele>
        <time>1970-01-01T04:55:30.000Z</time>
      </trkpt>
      <trkpt lat="42.216794" lon="2.633492">
        <ele>193</ele>
        <time>1970-01-01T04:55:31.000Z</time>
      </trkpt>
      <trkpt lat="42.216791" lon="2.633428">
        <ele>193</ele>
        <time>1970-01-01T04:55:32.000Z</time>
      </trkpt>
      <trkpt lat="42.216788" lon="2.633364">
        <ele>193</ele>
        <time>1970-01-01T04:55:33.000Z</time>
      </trkpt>
      <trkpt lat="42.216784" lon="2.633299">
        <ele>193</ele>
        <time>1970-01-01T04:55:35.000Z</time>
      </trkpt>
      <trkpt lat="42.216781" lon="2.633235">
        <ele>193</ele>
        <time>1970-01-01T04:55:36.000Z</time>
      </trkpt>
      <trkpt lat="42.216778" lon="2.633171">
        <ele>193</ele>
        <time>1970-01-01T04:55:37.000Z</time>
      </trkpt>
      <trkpt lat="42.216775" lon="2.633107">
        <ele>193</ele>
        <time>1970-01-01T04:55:38.000Z</time>
      </trkpt>
      <trkpt lat="42.216772" lon="2.633043">
        <ele>195</ele>
        <time>1970-01-01T04:55:39.000Z</time>
      </trkpt>
      <trkpt lat="42.21676" lon="2.632927">
        <ele>195</ele>
        <time>1970-01-01T04:55:40.000Z</time>
      </trkpt>
      <trkpt lat="42.216754" lon="2.632873">
        <ele>195</ele>
        <time>1970-01-01T04:55:41.000Z</time>
      </trkpt>
      <trkpt lat="42.216748" lon="2.632818">
        <ele>195</ele>
        <time>1970-01-01T04:55:42.000Z</time>
      </trkpt>
      <trkpt lat="42.216742" lon="2.632764">
        <ele>195</ele>
        <time>1970-01-01T04:55:43.000Z</time>
      </trkpt>
      <trkpt lat="42.216736" lon="2.63271">
        <ele>195</ele>
        <time>1970-01-01T04:55:44.000Z</time>
      </trkpt>
      <trkpt lat="42.21673" lon="2.632656">
        <ele>195</ele>
        <time>1970-01-01T04:55:45.000Z</time>
      </trkpt>
      <trkpt lat="42.216724" lon="2.632602">
        <ele>195</ele>
        <time>1970-01-01T04:55:46.000Z</time>
      </trkpt>
      <trkpt lat="42.216718" lon="2.632547">
        <ele>195</ele>
        <time>1970-01-01T04:55:47.000Z</time>
      </trkpt>
      <trkpt lat="42.216712" lon="2.632493">
        <ele>195</ele>
        <time>1970-01-01T04:55:48.000Z</time>
      </trkpt>
      <trkpt lat="42.216706" lon="2.632439">
        <ele>197</ele>
        <time>1970-01-01T04:55:49.000Z</time>
      </trkpt>
      <trkpt lat="42.21669" lon="2.632317">
        <ele>197</ele>
        <time>1970-01-01T04:55:50.000Z</time>
      </trkpt>
      <trkpt lat="42.216683" lon="2.632255">
        <ele>197</ele>
        <time>1970-01-01T04:55:52.000Z</time>
      </trkpt>
      <trkpt lat="42.216676" lon="2.632192">
        <ele>197</ele>
        <time>1970-01-01T04:55:53.000Z</time>
      </trkpt>
      <trkpt lat="42.216669" lon="2.632129">
        <ele>197</ele>
        <time>1970-01-01T04:55:54.000Z</time>
      </trkpt>
      <trkpt lat="42.216661" lon="2.632067">
        <ele>197</ele>
        <time>1970-01-01T04:55:55.000Z</time>
      </trkpt>
      <trkpt lat="42.216654" lon="2.632004">
        <ele>197</ele>
        <time>1970-01-01T04:55:56.000Z</time>
      </trkpt>
      <trkpt lat="42.216647" lon="2.631942">
        <ele>197</ele>
        <time>1970-01-01T04:55:58.000Z</time>
      </trkpt>
      <trkpt lat="42.21664" lon="2.631879">
        <ele>198</ele>
        <time>1970-01-01T04:55:59.000Z</time>
      </trkpt>
      <trkpt lat="42.216619" lon="2.631733">
        <ele>198</ele>
        <time>1970-01-01T04:56:00.000Z</time>
      </trkpt>
      <trkpt lat="42.216609" lon="2.631676">
        <ele>198</ele>
        <time>1970-01-01T04:56:02.000Z</time>
      </trkpt>
      <trkpt lat="42.2166" lon="2.631619">
        <ele>198</ele>
        <time>1970-01-01T04:56:03.000Z</time>
      </trkpt>
      <trkpt lat="42.21659" lon="2.631562">
        <ele>198</ele>
        <time>1970-01-01T04:56:04.000Z</time>
      </trkpt>
      <trkpt lat="42.216581" lon="2.631504">
        <ele>198</ele>
        <time>1970-01-01T04:56:05.000Z</time>
      </trkpt>
      <trkpt lat="42.216571" lon="2.631447">
        <ele>198</ele>
        <time>1970-01-01T04:56:06.000Z</time>
      </trkpt>
      <trkpt lat="42.216562" lon="2.63139">
        <ele>198</ele>
        <time>1970-01-01T04:56:07.000Z</time>
      </trkpt>
      <trkpt lat="42.216552" lon="2.631333">
        <ele>198</ele>
        <time>1970-01-01T04:56:08.000Z</time>
      </trkpt>
      <trkpt lat="42.216543" lon="2.631276">
        <ele>198</ele>
        <time>1970-01-01T04:56:09.000Z</time>
      </trkpt>
      <trkpt lat="42.216507" lon="2.631115">
        <ele>198</ele>
        <time>1970-01-01T04:56:11.000Z</time>
      </trkpt>
      <trkpt lat="42.216493" lon="2.631064">
        <ele>198</ele>
        <time>1970-01-01T04:56:12.000Z</time>
      </trkpt>
      <trkpt lat="42.21648" lon="2.631014">
        <ele>198</ele>
        <time>1970-01-01T04:56:14.000Z</time>
      </trkpt>
      <trkpt lat="42.216466" lon="2.630963">
        <ele>198</ele>
        <time>1970-01-01T04:56:16.000Z</time>
      </trkpt>
      <trkpt lat="42.216453" lon="2.630913">
        <ele>198</ele>
        <time>1970-01-01T04:56:17.000Z</time>
      </trkpt>
      <trkpt lat="42.216439" lon="2.630862">
        <ele>198</ele>
        <time>1970-01-01T04:56:18.000Z</time>
      </trkpt>
      <trkpt lat="42.216426" lon="2.630812">
        <ele>199</ele>
        <time>1970-01-01T04:56:19.000Z</time>
      </trkpt>
      <trkpt lat="42.216394" lon="2.630717">
        <ele>199</ele>
        <time>1970-01-01T04:56:20.000Z</time>
      </trkpt>
      <trkpt lat="42.216377" lon="2.630671">
        <ele>199</ele>
        <time>1970-01-01T04:56:21.000Z</time>
      </trkpt>
      <trkpt lat="42.216361" lon="2.630624">
        <ele>199</ele>
        <time>1970-01-01T04:56:22.000Z</time>
      </trkpt>
      <trkpt lat="42.216344" lon="2.630578">
        <ele>199</ele>
        <time>1970-01-01T04:56:23.000Z</time>
      </trkpt>
      <trkpt lat="42.216327" lon="2.630532">
        <ele>199</ele>
        <time>1970-01-01T04:56:24.000Z</time>
      </trkpt>
      <trkpt lat="42.21631" lon="2.630486">
        <ele>199</ele>
        <time>1970-01-01T04:56:25.000Z</time>
      </trkpt>
      <trkpt lat="42.216294" lon="2.630439">
        <ele>199</ele>
        <time>1970-01-01T04:56:27.000Z</time>
      </trkpt>
      <trkpt lat="42.216277" lon="2.630393">
        <ele>199</ele>
        <time>1970-01-01T04:56:28.000Z</time>
      </trkpt>
      <trkpt lat="42.21626" lon="2.630347">
        <ele>201</ele>
        <time>1970-01-01T04:56:29.000Z</time>
      </trkpt>
      <trkpt lat="42.216221" lon="2.630254">
        <ele>201</ele>
        <time>1970-01-01T04:56:30.000Z</time>
      </trkpt>
      <trkpt lat="42.2162" lon="2.630204">
        <ele>201</ele>
        <time>1970-01-01T04:56:31.000Z</time>
      </trkpt>
      <trkpt lat="42.216178" lon="2.630155">
        <ele>201</ele>
        <time>1970-01-01T04:56:33.000Z</time>
      </trkpt>
      <trkpt lat="42.216157" lon="2.630105">
        <ele>201</ele>
        <time>1970-01-01T04:56:34.000Z</time>
      </trkpt>
      <trkpt lat="42.216135" lon="2.630056">
        <ele>201</ele>
        <time>1970-01-01T04:56:36.000Z</time>
      </trkpt>
      <trkpt lat="42.216113" lon="2.630007">
        <ele>201</ele>
        <time>1970-01-01T04:56:37.000Z</time>
      </trkpt>
      <trkpt lat="42.216092" lon="2.629957">
        <ele>201</ele>
        <time>1970-01-01T04:56:38.000Z</time>
      </trkpt>
      <trkpt lat="42.21607" lon="2.629908">
        <ele>204</ele>
        <time>1970-01-01T04:56:39.000Z</time>
      </trkpt>
      <trkpt lat="42.216022" lon="2.629803">
        <ele>204</ele>
        <time>1970-01-01T04:56:40.000Z</time>
      </trkpt>
      <trkpt lat="42.216002" lon="2.62976">
        <ele>204</ele>
        <time>1970-01-01T04:56:42.000Z</time>
      </trkpt>
      <trkpt lat="42.215982" lon="2.629717">
        <ele>204</ele>
        <time>1970-01-01T04:56:44.000Z</time>
      </trkpt>
      <trkpt lat="42.215963" lon="2.629673">
        <ele>204</ele>
        <time>1970-01-01T04:56:45.000Z</time>
      </trkpt>
      <trkpt lat="42.215943" lon="2.62963">
        <ele>204</ele>
        <time>1970-01-01T04:56:46.000Z</time>
      </trkpt>
      <trkpt lat="42.215923" lon="2.629587">
        <ele>204</ele>
        <time>1970-01-01T04:56:47.000Z</time>
      </trkpt>
      <trkpt lat="42.215903" lon="2.629544">
        <ele>204</ele>
        <time>1970-01-01T04:56:48.000Z</time>
      </trkpt>
      <trkpt lat="42.215883" lon="2.629501">
        <ele>205</ele>
        <time>1970-01-01T04:56:49.000Z</time>
      </trkpt>
      <trkpt lat="42.21585" lon="2.629438">
        <ele>205</ele>
        <time>1970-01-01T04:56:50.000Z</time>
      </trkpt>
      <trkpt lat="42.215829" lon="2.629394">
        <ele>205</ele>
        <time>1970-01-01T04:56:51.000Z</time>
      </trkpt>
      <trkpt lat="42.215807" lon="2.629351">
        <ele>205</ele>
        <time>1970-01-01T04:56:52.000Z</time>
      </trkpt>
      <trkpt lat="42.215785" lon="2.629307">
        <ele>205</ele>
        <time>1970-01-01T04:56:53.000Z</time>
      </trkpt>
      <trkpt lat="42.215764" lon="2.629264">
        <ele>205</ele>
        <time>1970-01-01T04:56:55.000Z</time>
      </trkpt>
      <trkpt lat="42.215742" lon="2.62922">
        <ele>205</ele>
        <time>1970-01-01T04:56:56.000Z</time>
      </trkpt>
      <trkpt lat="42.21572" lon="2.629177">
        <ele>205</ele>
        <time>1970-01-01T04:56:57.000Z</time>
      </trkpt>
      <trkpt lat="42.215699" lon="2.629133">
        <ele>205</ele>
        <time>1970-01-01T04:56:58.000Z</time>
      </trkpt>
      <trkpt lat="42.215677" lon="2.62909">
        <ele>205</ele>
        <time>1970-01-01T04:56:59.000Z</time>
      </trkpt>
      <trkpt lat="42.215623" lon="2.62899">
        <ele>205</ele>
        <time>1970-01-01T04:57:01.000Z</time>
      </trkpt>
      <trkpt lat="42.215595" lon="2.628944">
        <ele>205</ele>
        <time>1970-01-01T04:57:02.000Z</time>
      </trkpt>
      <trkpt lat="42.215568" lon="2.628897">
        <ele>205</ele>
        <time>1970-01-01T04:57:04.000Z</time>
      </trkpt>
      <trkpt lat="42.215541" lon="2.62885">
        <ele>205</ele>
        <time>1970-01-01T04:57:05.000Z</time>
      </trkpt>
      <trkpt lat="42.215514" lon="2.628803">
        <ele>205</ele>
        <time>1970-01-01T04:57:07.000Z</time>
      </trkpt>
      <trkpt lat="42.215486" lon="2.628757">
        <ele>205</ele>
        <time>1970-01-01T04:57:08.000Z</time>
      </trkpt>
      <trkpt lat="42.215459" lon="2.62871">
        <ele>207</ele>
        <time>1970-01-01T04:57:09.000Z</time>
      </trkpt>
      <trkpt lat="42.215396" lon="2.628608">
        <ele>207</ele>
        <time>1970-01-01T04:57:10.000Z</time>
      </trkpt>
      <trkpt lat="42.215359" lon="2.628551">
        <ele>207</ele>
        <time>1970-01-01T04:57:11.000Z</time>
      </trkpt>
      <trkpt lat="42.215322" lon="2.628493">
        <ele>207</ele>
        <time>1970-01-01T04:57:12.000Z</time>
      </trkpt>
      <trkpt lat="42.215286" lon="2.628436">
        <ele>207</ele>
        <time>1970-01-01T04:57:14.000Z</time>
      </trkpt>
      <trkpt lat="42.215249" lon="2.628378">
        <ele>207</ele>
        <time>1970-01-01T04:57:15.000Z</time>
      </trkpt>
      <trkpt lat="42.215212" lon="2.628321">
        <ele>207</ele>
        <time>1970-01-01T04:57:16.000Z</time>
      </trkpt>
      <trkpt lat="42.215175" lon="2.628263">
        <ele>207</ele>
        <time>1970-01-01T04:57:18.000Z</time>
      </trkpt>
      <trkpt lat="42.215138" lon="2.628206">
        <ele>207</ele>
        <time>1970-01-01T04:57:19.000Z</time>
      </trkpt>
      <trkpt lat="42.215059" lon="2.628085">
        <ele>207</ele>
        <time>1970-01-01T04:57:20.000Z</time>
      </trkpt>
      <trkpt lat="42.215016" lon="2.62802">
        <ele>207</ele>
        <time>1970-01-01T04:57:21.000Z</time>
      </trkpt>
      <trkpt lat="42.214973" lon="2.627954">
        <ele>207</ele>
        <time>1970-01-01T04:57:23.000Z</time>
      </trkpt>
      <trkpt lat="42.21493" lon="2.627889">
        <ele>207</ele>
        <time>1970-01-01T04:57:24.000Z</time>
      </trkpt>
      <trkpt lat="42.214888" lon="2.627824">
        <ele>207</ele>
        <time>1970-01-01T04:57:25.000Z</time>
      </trkpt>
      <trkpt lat="42.214845" lon="2.627759">
        <ele>207</ele>
        <time>1970-01-01T04:57:26.000Z</time>
      </trkpt>
      <trkpt lat="42.214802" lon="2.627693">
        <ele>207</ele>
        <time>1970-01-01T04:57:27.000Z</time>
      </trkpt>
      <trkpt lat="42.214759" lon="2.627628">
        <ele>207</ele>
        <time>1970-01-01T04:57:28.000Z</time>
      </trkpt>
      <trkpt lat="42.214716" lon="2.627563">
        <ele>206</ele>
        <time>1970-01-01T04:57:29.000Z</time>
      </trkpt>
      <trkpt lat="42.214618" lon="2.627381">
        <ele>206</ele>
        <time>1970-01-01T04:57:30.000Z</time>
      </trkpt>
      <trkpt lat="42.214578" lon="2.627299">
        <ele>206</ele>
        <time>1970-01-01T04:57:32.000Z</time>
      </trkpt>
      <trkpt lat="42.214539" lon="2.627218">
        <ele>206</ele>
        <time>1970-01-01T04:57:33.000Z</time>
      </trkpt>
      <trkpt lat="42.2145" lon="2.627136">
        <ele>206</ele>
        <time>1970-01-01T04:57:34.000Z</time>
      </trkpt>
      <trkpt lat="42.214461" lon="2.627055">
        <ele>206</ele>
        <time>1970-01-01T04:57:35.000Z</time>
      </trkpt>
      <trkpt lat="42.214421" lon="2.626973">
        <ele>206</ele>
        <time>1970-01-01T04:57:37.000Z</time>
      </trkpt>
      <trkpt lat="42.214382" lon="2.626892">
        <ele>206</ele>
        <time>1970-01-01T04:57:39.000Z</time>
      </trkpt>
      <trkpt lat="42.214311" lon="2.626719">
        <ele>206</ele>
        <time>1970-01-01T04:57:41.000Z</time>
      </trkpt>
      <trkpt lat="42.21428" lon="2.626644">
        <ele>206</ele>
        <time>1970-01-01T04:57:42.000Z</time>
      </trkpt>
      <trkpt lat="42.214249" lon="2.626568">
        <ele>206</ele>
        <time>1970-01-01T04:57:44.000Z</time>
      </trkpt>
      <trkpt lat="42.214217" lon="2.626492">
        <ele>206</ele>
        <time>1970-01-01T04:57:46.000Z</time>
      </trkpt>
      <trkpt lat="42.214186" lon="2.626416">
        <ele>206</ele>
        <time>1970-01-01T04:57:47.000Z</time>
      </trkpt>
      <trkpt lat="42.214155" lon="2.626341">
        <ele>206</ele>
        <time>1970-01-01T04:57:48.000Z</time>
      </trkpt>
      <trkpt lat="42.214124" lon="2.626265">
        <ele>207</ele>
        <time>1970-01-01T04:57:49.000Z</time>
      </trkpt>
      <trkpt lat="42.21407" lon="2.626137">
        <ele>207</ele>
        <time>1970-01-01T04:57:50.000Z</time>
      </trkpt>
      <trkpt lat="42.214044" lon="2.626076">
        <ele>207</ele>
        <time>1970-01-01T04:57:51.000Z</time>
      </trkpt>
      <trkpt lat="42.214018" lon="2.626015">
        <ele>207</ele>
        <time>1970-01-01T04:57:52.000Z</time>
      </trkpt>
      <trkpt lat="42.213992" lon="2.625954">
        <ele>207</ele>
        <time>1970-01-01T04:57:53.000Z</time>
      </trkpt>
      <trkpt lat="42.213967" lon="2.625892">
        <ele>207</ele>
        <time>1970-01-01T04:57:54.000Z</time>
      </trkpt>
      <trkpt lat="42.213941" lon="2.625831">
        <ele>207</ele>
        <time>1970-01-01T04:57:55.000Z</time>
      </trkpt>
      <trkpt lat="42.213915" lon="2.62577">
        <ele>207</ele>
        <time>1970-01-01T04:57:56.000Z</time>
      </trkpt>
      <trkpt lat="42.213889" lon="2.625709">
        <ele>207</ele>
        <time>1970-01-01T04:57:57.000Z</time>
      </trkpt>
      <trkpt lat="42.213863" lon="2.625648">
        <ele>207</ele>
        <time>1970-01-01T04:57:58.000Z</time>
      </trkpt>
      <trkpt lat="42.213837" lon="2.625587">
        <ele>207</ele>
        <time>1970-01-01T04:57:59.000Z</time>
      </trkpt>
      <trkpt lat="42.213783" lon="2.625464">
        <ele>207</ele>
        <time>1970-01-01T04:58:00.000Z</time>
      </trkpt>
      <trkpt lat="42.213744" lon="2.625375">
        <ele>207</ele>
        <time>1970-01-01T04:58:01.000Z</time>
      </trkpt>
      <trkpt lat="42.213705" lon="2.625285">
        <ele>207</ele>
        <time>1970-01-01T04:58:02.000Z</time>
      </trkpt>
      <trkpt lat="42.213666" lon="2.625195">
        <ele>207</ele>
        <time>1970-01-01T04:58:04.000Z</time>
      </trkpt>
      <trkpt lat="42.213626" lon="2.625106">
        <ele>207</ele>
        <time>1970-01-01T04:58:06.000Z</time>
      </trkpt>
      <trkpt lat="42.213587" lon="2.625016">
        <ele>207</ele>
        <time>1970-01-01T04:58:07.000Z</time>
      </trkpt>
      <trkpt lat="42.213548" lon="2.624927">
        <ele>207</ele>
        <time>1970-01-01T04:58:08.000Z</time>
      </trkpt>
      <trkpt lat="42.213509" lon="2.624837">
        <ele>206</ele>
        <time>1970-01-01T04:58:09.000Z</time>
      </trkpt>
      <trkpt lat="42.213486" lon="2.624798">
        <ele>206</ele>
        <time>1970-01-01T04:58:10.000Z</time>
      </trkpt>
      <trkpt lat="42.213437" lon="2.624718">
        <ele>206</ele>
        <time>1970-01-01T04:58:11.000Z</time>
      </trkpt>
      <trkpt lat="42.213382" lon="2.624637">
        <ele>206</ele>
        <time>1970-01-01T04:58:12.000Z</time>
      </trkpt>
      <trkpt lat="42.213321" lon="2.624558">
        <ele>206</ele>
        <time>1970-01-01T04:58:13.000Z</time>
      </trkpt>
      <trkpt lat="42.213253" lon="2.624483">
        <ele>206</ele>
        <time>1970-01-01T04:58:14.000Z</time>
      </trkpt>
      <trkpt lat="42.213179" lon="2.624414">
        <ele>206</ele>
        <time>1970-01-01T04:58:15.000Z</time>
      </trkpt>
      <trkpt lat="42.213016" lon="2.62429">
        <ele>206</ele>
        <time>1970-01-01T04:58:16.000Z</time>
      </trkpt>
      <trkpt lat="42.21293" lon="2.624234">
        <ele>206</ele>
        <time>1970-01-01T04:58:17.000Z</time>
      </trkpt>
      <trkpt lat="42.212844" lon="2.624178">
        <ele>206</ele>
        <time>1970-01-01T04:58:18.000Z</time>
      </trkpt>
      <trkpt lat="42.212685" lon="2.624053">
        <ele>203</ele>
        <time>1970-01-01T04:58:20.000Z</time>
      </trkpt>
      <trkpt lat="42.212511" lon="2.623861">
        <ele>203</ele>
        <time>1970-01-01T04:58:21.000Z</time>
      </trkpt>
      <trkpt lat="42.212417" lon="2.623731">
        <ele>203</ele>
        <time>1970-01-01T04:58:25.000Z</time>
      </trkpt>
      <trkpt lat="42.212323" lon="2.623602">
        <ele>203</ele>
        <time>1970-01-01T04:58:27.000Z</time>
      </trkpt>
      <trkpt lat="42.212229" lon="2.623472">
        <ele>203</ele>
        <time>1970-01-01T04:58:28.000Z</time>
      </trkpt>
      <trkpt lat="42.212135" lon="2.623343">
        <ele>199</ele>
        <time>1970-01-01T04:58:29.000Z</time>
      </trkpt>
      <trkpt lat="42.212062" lon="2.623075">
        <ele>199</ele>
        <time>1970-01-01T04:58:31.000Z</time>
      </trkpt>
      <trkpt lat="42.212043" lon="2.62295">
        <ele>199</ele>
        <time>1970-01-01T04:58:32.000Z</time>
      </trkpt>
      <trkpt lat="42.212025" lon="2.622825">
        <ele>199</ele>
        <time>1970-01-01T04:58:33.000Z</time>
      </trkpt>
      <trkpt lat="42.212007" lon="2.6227">
        <ele>199</ele>
        <time>1970-01-01T04:58:35.000Z</time>
      </trkpt>
      <trkpt lat="42.211988" lon="2.622575">
        <ele>199</ele>
        <time>1970-01-01T04:58:36.000Z</time>
      </trkpt>
      <trkpt lat="42.21197" lon="2.62245">
        <ele>199</ele>
        <time>1970-01-01T04:58:37.000Z</time>
      </trkpt>
      <trkpt lat="42.211951" lon="2.622325">
        <ele>199</ele>
        <time>1970-01-01T04:58:38.000Z</time>
      </trkpt>
      <trkpt lat="42.211933" lon="2.6222">
        <ele>199</ele>
        <time>1970-01-01T04:58:39.000Z</time>
      </trkpt>
      <trkpt lat="42.211922" lon="2.621865">
        <ele>199</ele>
        <time>1970-01-01T04:58:41.000Z</time>
      </trkpt>
      <trkpt lat="42.211923" lon="2.621756">
        <ele>199</ele>
        <time>1970-01-01T04:58:43.000Z</time>
      </trkpt>
      <trkpt lat="42.211925" lon="2.621648">
        <ele>199</ele>
        <time>1970-01-01T04:58:44.000Z</time>
      </trkpt>
      <trkpt lat="42.211926" lon="2.621539">
        <ele>199</ele>
        <time>1970-01-01T04:58:45.000Z</time>
      </trkpt>
      <trkpt lat="42.211927" lon="2.62143">
        <ele>199</ele>
        <time>1970-01-01T04:58:46.000Z</time>
      </trkpt>
      <trkpt lat="42.211928" lon="2.621321">
        <ele>199</ele>
        <time>1970-01-01T04:58:47.000Z</time>
      </trkpt>
      <trkpt lat="42.21193" lon="2.621213">
        <ele>199</ele>
        <time>1970-01-01T04:58:48.000Z</time>
      </trkpt>
      <trkpt lat="42.211931" lon="2.621104">
        <ele>199</ele>
        <time>1970-01-01T04:58:49.000Z</time>
      </trkpt>
      <trkpt lat="42.211932" lon="2.620995">
        <ele>198</ele>
        <time>1970-01-01T04:58:50.000Z</time>
      </trkpt>
      <trkpt lat="42.211949" lon="2.620722">
        <ele>198</ele>
        <time>1970-01-01T04:58:51.000Z</time>
      </trkpt>
      <trkpt lat="42.211958" lon="2.620622">
        <ele>198</ele>
        <time>1970-01-01T04:58:52.000Z</time>
      </trkpt>
      <trkpt lat="42.211968" lon="2.620521">
        <ele>198</ele>
        <time>1970-01-01T04:58:53.000Z</time>
      </trkpt>
      <trkpt lat="42.211977" lon="2.620421">
        <ele>198</ele>
        <time>1970-01-01T04:58:54.000Z</time>
      </trkpt>
      <trkpt lat="42.211986" lon="2.620321">
        <ele>198</ele>
        <time>1970-01-01T04:58:55.000Z</time>
      </trkpt>
      <trkpt lat="42.211995" lon="2.620221">
        <ele>198</ele>
        <time>1970-01-01T04:58:56.000Z</time>
      </trkpt>
      <trkpt lat="42.212005" lon="2.62012">
        <ele>198</ele>
        <time>1970-01-01T04:58:57.000Z</time>
      </trkpt>
      <trkpt lat="42.212014" lon="2.62002">
        <ele>198</ele>
        <time>1970-01-01T04:58:58.000Z</time>
      </trkpt>
      <trkpt lat="42.212023" lon="2.61992">
        <ele>197</ele>
        <time>1970-01-01T04:58:59.000Z</time>
      </trkpt>
      <trkpt lat="42.212053" lon="2.619711">
        <ele>197</ele>
        <time>1970-01-01T04:59:00.000Z</time>
      </trkpt>
      <trkpt lat="42.21207" lon="2.619612">
        <ele>197</ele>
        <time>1970-01-01T04:59:01.000Z</time>
      </trkpt>
      <trkpt lat="42.212086" lon="2.619513">
        <ele>197</ele>
        <time>1970-01-01T04:59:02.000Z</time>
      </trkpt>
      <trkpt lat="42.212103" lon="2.619414">
        <ele>197</ele>
        <time>1970-01-01T04:59:03.000Z</time>
      </trkpt>
      <trkpt lat="42.212119" lon="2.619316">
        <ele>197</ele>
        <time>1970-01-01T04:59:04.000Z</time>
      </trkpt>
      <trkpt lat="42.212136" lon="2.619217">
        <ele>197</ele>
        <time>1970-01-01T04:59:06.000Z</time>
      </trkpt>
      <trkpt lat="42.212152" lon="2.619118">
        <ele>197</ele>
        <time>1970-01-01T04:59:07.000Z</time>
      </trkpt>
      <trkpt lat="42.212169" lon="2.619019">
        <ele>197</ele>
        <time>1970-01-01T04:59:08.000Z</time>
      </trkpt>
      <trkpt lat="42.212185" lon="2.61892">
        <ele>197</ele>
        <time>1970-01-01T04:59:09.000Z</time>
      </trkpt>
      <trkpt lat="42.212211" lon="2.618775">
        <ele>197</ele>
        <time>1970-01-01T04:59:10.000Z</time>
      </trkpt>
      <trkpt lat="42.212229" lon="2.618682">
        <ele>197</ele>
        <time>1970-01-01T04:59:11.000Z</time>
      </trkpt>
      <trkpt lat="42.212246" lon="2.618588">
        <ele>197</ele>
        <time>1970-01-01T04:59:12.000Z</time>
      </trkpt>
      <trkpt lat="42.212263" lon="2.618494">
        <ele>197</ele>
        <time>1970-01-01T04:59:13.000Z</time>
      </trkpt>
      <trkpt lat="42.212281" lon="2.618401">
        <ele>197</ele>
        <time>1970-01-01T04:59:14.000Z</time>
      </trkpt>
      <trkpt lat="42.212298" lon="2.618307">
        <ele>197</ele>
        <time>1970-01-01T04:59:15.000Z</time>
      </trkpt>
      <trkpt lat="42.212315" lon="2.618213">
        <ele>197</ele>
        <time>1970-01-01T04:59:16.000Z</time>
      </trkpt>
      <trkpt lat="42.212332" lon="2.618119">
        <ele>197</ele>
        <time>1970-01-01T04:59:17.000Z</time>
      </trkpt>
      <trkpt lat="42.21235" lon="2.618026">
        <ele>197</ele>
        <time>1970-01-01T04:59:18.000Z</time>
      </trkpt>
      <trkpt lat="42.212367" lon="2.617932">
        <ele>195</ele>
        <time>1970-01-01T04:59:19.000Z</time>
      </trkpt>
      <trkpt lat="42.212404" lon="2.617693">
        <ele>195</ele>
        <time>1970-01-01T04:59:20.000Z</time>
      </trkpt>
      <trkpt lat="42.212418" lon="2.617603">
        <ele>195</ele>
        <time>1970-01-01T04:59:21.000Z</time>
      </trkpt>
      <trkpt lat="42.212431" lon="2.617512">
        <ele>195</ele>
        <time>1970-01-01T04:59:22.000Z</time>
      </trkpt>
      <trkpt lat="42.212444" lon="2.617421">
        <ele>195</ele>
        <time>1970-01-01T04:59:23.000Z</time>
      </trkpt>
      <trkpt lat="42.212458" lon="2.617331">
        <ele>195</ele>
        <time>1970-01-01T04:59:24.000Z</time>
      </trkpt>
      <trkpt lat="42.212471" lon="2.61724">
        <ele>195</ele>
        <time>1970-01-01T04:59:26.000Z</time>
      </trkpt>
      <trkpt lat="42.212484" lon="2.617149">
        <ele>195</ele>
        <time>1970-01-01T04:59:27.000Z</time>
      </trkpt>
      <trkpt lat="42.212498" lon="2.617059">
        <ele>195</ele>
        <time>1970-01-01T04:59:28.000Z</time>
      </trkpt>
      <trkpt lat="42.212511" lon="2.616968">
        <ele>195</ele>
        <time>1970-01-01T04:59:29.000Z</time>
      </trkpt>
      <trkpt lat="42.212536" lon="2.61677">
        <ele>195</ele>
        <time>1970-01-01T04:59:30.000Z</time>
      </trkpt>
      <trkpt lat="42.212547" lon="2.616675">
        <ele>195</ele>
        <time>1970-01-01T04:59:31.000Z</time>
      </trkpt>
      <trkpt lat="42.212558" lon="2.616581">
        <ele>195</ele>
        <time>1970-01-01T04:59:32.000Z</time>
      </trkpt>
      <trkpt lat="42.212569" lon="2.616487">
        <ele>195</ele>
        <time>1970-01-01T04:59:33.000Z</time>
      </trkpt>
      <trkpt lat="42.21258" lon="2.616393">
        <ele>195</ele>
        <time>1970-01-01T04:59:34.000Z</time>
      </trkpt>
      <trkpt lat="42.21259" lon="2.616298">
        <ele>195</ele>
        <time>1970-01-01T04:59:35.000Z</time>
      </trkpt>
      <trkpt lat="42.212601" lon="2.616204">
        <ele>195</ele>
        <time>1970-01-01T04:59:36.000Z</time>
      </trkpt>
      <trkpt lat="42.212612" lon="2.61611">
        <ele>195</ele>
        <time>1970-01-01T04:59:37.000Z</time>
      </trkpt>
      <trkpt lat="42.212623" lon="2.616015">
        <ele>195</ele>
        <time>1970-01-01T04:59:38.000Z</time>
      </trkpt>
      <trkpt lat="42.212634" lon="2.615921">
        <ele>194</ele>
        <time>1970-01-01T04:59:39.000Z</time>
      </trkpt>
      <trkpt lat="42.21263" lon="2.61562">
        <ele>194</ele>
        <time>1970-01-01T04:59:41.000Z</time>
      </trkpt>
      <trkpt lat="42.212609" lon="2.615522">
        <ele>194</ele>
        <time>1970-01-01T04:59:42.000Z</time>
      </trkpt>
      <trkpt lat="42.212588" lon="2.615424">
        <ele>194</ele>
        <time>1970-01-01T04:59:43.000Z</time>
      </trkpt>
      <trkpt lat="42.212567" lon="2.615326">
        <ele>194</ele>
        <time>1970-01-01T04:59:45.000Z</time>
      </trkpt>
      <trkpt lat="42.212545" lon="2.615228">
        <ele>194</ele>
        <time>1970-01-01T04:59:46.000Z</time>
      </trkpt>
      <trkpt lat="42.212524" lon="2.61513">
        <ele>194</ele>
        <time>1970-01-01T04:59:47.000Z</time>
      </trkpt>
      <trkpt lat="42.212503" lon="2.615032">
        <ele>194</ele>
        <time>1970-01-01T04:59:48.000Z</time>
      </trkpt>
      <trkpt lat="42.212482" lon="2.614934">
        <ele>193</ele>
        <time>1970-01-01T04:59:49.000Z</time>
      </trkpt>
      <trkpt lat="42.212355" lon="2.614773">
        <ele>193</ele>
        <time>1970-01-01T04:59:50.000Z</time>
      </trkpt>
      <trkpt lat="42.212296" lon="2.614728">
        <ele>193</ele>
        <time>1970-01-01T04:59:52.000Z</time>
      </trkpt>
      <trkpt lat="42.212237" lon="2.614683">
        <ele>193</ele>
        <time>1970-01-01T04:59:53.000Z</time>
      </trkpt>
      <trkpt lat="42.212178" lon="2.614638">
        <ele>193</ele>
        <time>1970-01-01T04:59:54.000Z</time>
      </trkpt>
      <trkpt lat="42.21212" lon="2.614592">
        <ele>193</ele>
        <time>1970-01-01T04:59:55.000Z</time>
      </trkpt>
      <trkpt lat="42.212061" lon="2.614547">
        <ele>193</ele>
        <time>1970-01-01T04:59:56.000Z</time>
      </trkpt>
      <trkpt lat="42.212002" lon="2.614502">
        <ele>193</ele>
        <time>1970-01-01T04:59:57.000Z</time>
      </trkpt>
      <trkpt lat="42.211943" lon="2.614457">
        <ele>193</ele>
        <time>1970-01-01T04:59:58.000Z</time>
      </trkpt>
      <trkpt lat="42.211884" lon="2.614412">
        <ele>193</ele>
        <time>1970-01-01T04:59:59.000Z</time>
      </trkpt>
      <trkpt lat="42.211769" lon="2.614277">
        <ele>193</ele>
        <time>1970-01-01T05:00:00.000Z</time>
      </trkpt>
      <trkpt lat="42.211727" lon="2.614181">
        <ele>193</ele>
        <time>1970-01-01T05:00:01.000Z</time>
      </trkpt>
      <trkpt lat="42.211685" lon="2.614085">
        <ele>193</ele>
        <time>1970-01-01T05:00:02.000Z</time>
      </trkpt>
      <trkpt lat="42.211643" lon="2.613989">
        <ele>193</ele>
        <time>1970-01-01T05:00:03.000Z</time>
      </trkpt>
      <trkpt lat="42.211602" lon="2.613893">
        <ele>193</ele>
        <time>1970-01-01T05:00:04.000Z</time>
      </trkpt>
      <trkpt lat="42.21156" lon="2.613797">
        <ele>193</ele>
        <time>1970-01-01T05:00:05.000Z</time>
      </trkpt>
      <trkpt lat="42.211518" lon="2.613701">
        <ele>193</ele>
        <time>1970-01-01T05:00:06.000Z</time>
      </trkpt>
      <trkpt lat="42.211476" lon="2.613605">
        <ele>193</ele>
        <time>1970-01-01T05:00:08.000Z</time>
      </trkpt>
      <trkpt lat="42.211434" lon="2.613509">
        <ele>191</ele>
        <time>1970-01-01T05:00:09.000Z</time>
      </trkpt>
      <trkpt lat="42.211492" lon="2.613357">
        <ele>191</ele>
        <time>1970-01-01T05:00:10.000Z</time>
      </trkpt>
      <trkpt lat="42.211536" lon="2.613315">
        <ele>191</ele>
        <time>1970-01-01T05:00:12.000Z</time>
      </trkpt>
      <trkpt lat="42.21158" lon="2.613273">
        <ele>191</ele>
        <time>1970-01-01T05:00:13.000Z</time>
      </trkpt>
      <trkpt lat="42.211624" lon="2.613231">
        <ele>191</ele>
        <time>1970-01-01T05:00:14.000Z</time>
      </trkpt>
      <trkpt lat="42.211667" lon="2.61319">
        <ele>191</ele>
        <time>1970-01-01T05:00:15.000Z</time>
      </trkpt>
      <trkpt lat="42.211711" lon="2.613148">
        <ele>191</ele>
        <time>1970-01-01T05:00:16.000Z</time>
      </trkpt>
      <trkpt lat="42.211755" lon="2.613106">
        <ele>191</ele>
        <time>1970-01-01T05:00:17.000Z</time>
      </trkpt>
      <trkpt lat="42.211799" lon="2.613064">
        <ele>191</ele>
        <time>1970-01-01T05:00:18.000Z</time>
      </trkpt>
      <trkpt lat="42.211843" lon="2.613022">
        <ele>190</ele>
        <time>1970-01-01T05:00:19.000Z</time>
      </trkpt>
      <trkpt lat="42.211864" lon="2.613044">
        <ele>190</ele>
        <time>1970-01-01T05:00:20.000Z</time>
      </trkpt>
      <trkpt lat="42.211875" lon="2.613059">
        <ele>190</ele>
        <time>1970-01-01T05:00:22.000Z</time>
      </trkpt>
      <trkpt lat="42.211885" lon="2.613075">
        <ele>190</ele>
        <time>1970-01-01T05:00:28.000Z</time>
      </trkpt>
      <trkpt lat="42.211896" lon="2.61309">
        <ele>190</ele>
        <time>1970-01-01T05:00:29.000Z</time>
      </trkpt>
      <trkpt lat="42.211981" lon="2.613142">
        <ele>190</ele>
        <time>1970-01-01T05:00:30.000Z</time>
      </trkpt>
      <trkpt lat="42.212023" lon="2.613145">
        <ele>190</ele>
        <time>1970-01-01T05:00:32.000Z</time>
      </trkpt>
      <trkpt lat="42.212065" lon="2.613148">
        <ele>190</ele>
        <time>1970-01-01T05:00:33.000Z</time>
      </trkpt>
      <trkpt lat="42.212106" lon="2.613151">
        <ele>190</ele>
        <time>1970-01-01T05:00:34.000Z</time>
      </trkpt>
      <trkpt lat="42.212148" lon="2.613154">
        <ele>190</ele>
        <time>1970-01-01T05:00:35.000Z</time>
      </trkpt>
      <trkpt lat="42.21219" lon="2.613157">
        <ele>190</ele>
        <time>1970-01-01T05:00:37.000Z</time>
      </trkpt>
      <trkpt lat="42.212232" lon="2.61316">
        <ele>191</ele>
        <time>1970-01-01T05:00:39.000Z</time>
      </trkpt>
      <trkpt lat="42.212289" lon="2.612974">
        <ele>191</ele>
        <time>1970-01-01T05:00:40.000Z</time>
      </trkpt>
      <trkpt lat="42.212296" lon="2.612894">
        <ele>191</ele>
        <time>1970-01-01T05:00:42.000Z</time>
      </trkpt>
      <trkpt lat="42.212303" lon="2.612815">
        <ele>191</ele>
        <time>1970-01-01T05:00:43.000Z</time>
      </trkpt>
      <trkpt lat="42.212309" lon="2.612736">
        <ele>191</ele>
        <time>1970-01-01T05:00:44.000Z</time>
      </trkpt>
      <trkpt lat="42.212316" lon="2.612657">
        <ele>191</ele>
        <time>1970-01-01T05:00:46.000Z</time>
      </trkpt>
      <trkpt lat="42.212323" lon="2.612577">
        <ele>191</ele>
        <time>1970-01-01T05:00:48.000Z</time>
      </trkpt>
      <trkpt lat="42.21233" lon="2.612498">
        <ele>191</ele>
        <time>1970-01-01T05:00:49.000Z</time>
      </trkpt>
      <trkpt lat="42.212419" lon="2.612417">
        <ele>191</ele>
        <time>1970-01-01T05:00:50.000Z</time>
      </trkpt>
      <trkpt lat="42.21246" lon="2.612404">
        <ele>191</ele>
        <time>1970-01-01T05:00:52.000Z</time>
      </trkpt>
      <trkpt lat="42.212501" lon="2.612392">
        <ele>191</ele>
        <time>1970-01-01T05:00:54.000Z</time>
      </trkpt>
      <trkpt lat="42.212543" lon="2.612379">
        <ele>191</ele>
        <time>1970-01-01T05:00:55.000Z</time>
      </trkpt>
      <trkpt lat="42.212584" lon="2.612367">
        <ele>191</ele>
        <time>1970-01-01T05:00:57.000Z</time>
      </trkpt>
      <trkpt lat="42.212625" lon="2.612354">
        <ele>191</ele>
        <time>1970-01-01T05:00:58.000Z</time>
      </trkpt>
      <trkpt lat="42.212666" lon="2.612342">
        <ele>191</ele>
        <time>1970-01-01T05:00:59.000Z</time>
      </trkpt>
      <trkpt lat="42.212773" lon="2.61231">
        <ele>191</ele>
        <time>1970-01-01T05:01:01.000Z</time>
      </trkpt>
      <trkpt lat="42.212813" lon="2.612289">
        <ele>191</ele>
        <time>1970-01-01T05:01:02.000Z</time>
      </trkpt>
      <trkpt lat="42.212854" lon="2.612268">
        <ele>191</ele>
        <time>1970-01-01T05:01:03.000Z</time>
      </trkpt>
      <trkpt lat="42.212895" lon="2.612247">
        <ele>191</ele>
        <time>1970-01-01T05:01:05.000Z</time>
      </trkpt>
      <trkpt lat="42.212935" lon="2.612226">
        <ele>191</ele>
        <time>1970-01-01T05:01:07.000Z</time>
      </trkpt>
      <trkpt lat="42.212976" lon="2.612205">
        <ele>193</ele>
        <time>1970-01-01T05:01:09.000Z</time>
      </trkpt>
      <trkpt lat="42.213016" lon="2.612129">
        <ele>193</ele>
        <time>1970-01-01T05:01:10.000Z</time>
      </trkpt>
      <trkpt lat="42.213032" lon="2.612083">
        <ele>193</ele>
        <time>1970-01-01T05:01:11.000Z</time>
      </trkpt>
      <trkpt lat="42.213048" lon="2.612036">
        <ele>193</ele>
        <time>1970-01-01T05:01:12.000Z</time>
      </trkpt>
      <trkpt lat="42.213064" lon="2.611989">
        <ele>193</ele>
        <time>1970-01-01T05:01:14.000Z</time>
      </trkpt>
      <trkpt lat="42.21308" lon="2.611942">
        <ele>193</ele>
        <time>1970-01-01T05:01:15.000Z</time>
      </trkpt>
      <trkpt lat="42.213096" lon="2.611896">
        <ele>193</ele>
        <time>1970-01-01T05:01:16.000Z</time>
      </trkpt>
      <trkpt lat="42.213112" lon="2.611849">
        <ele>193</ele>
        <time>1970-01-01T05:01:17.000Z</time>
      </trkpt>
      <trkpt lat="42.213128" lon="2.611802">
        <ele>194</ele>
        <time>1970-01-01T05:01:19.000Z</time>
      </trkpt>
      <trkpt lat="42.213151" lon="2.61165">
        <ele>194</ele>
        <time>1970-01-01T05:01:20.000Z</time>
      </trkpt>
      <trkpt lat="42.213157" lon="2.611592">
        <ele>194</ele>
        <time>1970-01-01T05:01:22.000Z</time>
      </trkpt>
      <trkpt lat="42.213163" lon="2.611534">
        <ele>194</ele>
        <time>1970-01-01T05:01:23.000Z</time>
      </trkpt>
      <trkpt lat="42.213169" lon="2.611476">
        <ele>194</ele>
        <time>1970-01-01T05:01:24.000Z</time>
      </trkpt>
      <trkpt lat="42.213174" lon="2.611417">
        <ele>194</ele>
        <time>1970-01-01T05:01:25.000Z</time>
      </trkpt>
      <trkpt lat="42.21318" lon="2.611359">
        <ele>194</ele>
        <time>1970-01-01T05:01:26.000Z</time>
      </trkpt>
      <trkpt lat="42.213186" lon="2.611301">
        <ele>194</ele>
        <time>1970-01-01T05:01:27.000Z</time>
      </trkpt>
      <trkpt lat="42.213192" lon="2.611243">
        <ele>194</ele>
        <time>1970-01-01T05:01:29.000Z</time>
      </trkpt>
      <trkpt lat="42.2132" lon="2.611153">
        <ele>194</ele>
        <time>1970-01-01T05:01:30.000Z</time>
      </trkpt>
      <trkpt lat="42.213205" lon="2.611103">
        <ele>194</ele>
        <time>1970-01-01T05:01:31.000Z</time>
      </trkpt>
      <trkpt lat="42.21321" lon="2.611052">
        <ele>194</ele>
        <time>1970-01-01T05:01:32.000Z</time>
      </trkpt>
      <trkpt lat="42.213215" lon="2.611001">
        <ele>194</ele>
        <time>1970-01-01T05:01:33.000Z</time>
      </trkpt>
      <trkpt lat="42.21322" lon="2.610951">
        <ele>194</ele>
        <time>1970-01-01T05:01:34.000Z</time>
      </trkpt>
      <trkpt lat="42.213225" lon="2.6109">
        <ele>194</ele>
        <time>1970-01-01T05:01:35.000Z</time>
      </trkpt>
      <trkpt lat="42.21323" lon="2.610849">
        <ele>194</ele>
        <time>1970-01-01T05:01:36.000Z</time>
      </trkpt>
      <trkpt lat="42.213235" lon="2.610798">
        <ele>194</ele>
        <time>1970-01-01T05:01:37.000Z</time>
      </trkpt>
      <trkpt lat="42.21324" lon="2.610748">
        <ele>194</ele>
        <time>1970-01-01T05:01:38.000Z</time>
      </trkpt>
      <trkpt lat="42.213245" lon="2.610697">
        <ele>195</ele>
        <time>1970-01-01T05:01:39.000Z</time>
      </trkpt>
      <trkpt lat="42.213258" lon="2.610577">
        <ele>195</ele>
        <time>1970-01-01T05:01:40.000Z</time>
      </trkpt>
      <trkpt lat="42.213265" lon="2.610511">
        <ele>195</ele>
        <time>1970-01-01T05:01:41.000Z</time>
      </trkpt>
      <trkpt lat="42.213273" lon="2.610446">
        <ele>195</ele>
        <time>1970-01-01T05:01:42.000Z</time>
      </trkpt>
      <trkpt lat="42.213281" lon="2.610381">
        <ele>195</ele>
        <time>1970-01-01T05:01:44.000Z</time>
      </trkpt>
      <trkpt lat="42.213288" lon="2.610315">
        <ele>195</ele>
        <time>1970-01-01T05:01:45.000Z</time>
      </trkpt>
      <trkpt lat="42.213296" lon="2.61025">
        <ele>195</ele>
        <time>1970-01-01T05:01:46.000Z</time>
      </trkpt>
      <trkpt lat="42.213304" lon="2.610185">
        <ele>195</ele>
        <time>1970-01-01T05:01:47.000Z</time>
      </trkpt>
      <trkpt lat="42.213311" lon="2.610119">
        <ele>195</ele>
        <time>1970-01-01T05:01:48.000Z</time>
      </trkpt>
      <trkpt lat="42.213319" lon="2.610054">
        <ele>195</ele>
        <time>1970-01-01T05:01:49.000Z</time>
      </trkpt>
      <trkpt lat="42.213335" lon="2.609944">
        <ele>195</ele>
        <time>1970-01-01T05:01:50.000Z</time>
      </trkpt>
      <trkpt lat="42.213345" lon="2.609891">
        <ele>195</ele>
        <time>1970-01-01T05:01:51.000Z</time>
      </trkpt>
      <trkpt lat="42.213354" lon="2.609839">
        <ele>195</ele>
        <time>1970-01-01T05:01:53.000Z</time>
      </trkpt>
      <trkpt lat="42.213364" lon="2.609786">
        <ele>195</ele>
        <time>1970-01-01T05:01:54.000Z</time>
      </trkpt>
      <trkpt lat="42.213373" lon="2.609734">
        <ele>195</ele>
        <time>1970-01-01T05:01:55.000Z</time>
      </trkpt>
      <trkpt lat="42.213382" lon="2.609682">
        <ele>195</ele>
        <time>1970-01-01T05:01:56.000Z</time>
      </trkpt>
      <trkpt lat="42.213392" lon="2.609629">
        <ele>195</ele>
        <time>1970-01-01T05:01:57.000Z</time>
      </trkpt>
      <trkpt lat="42.213401" lon="2.609577">
        <ele>195</ele>
        <time>1970-01-01T05:01:58.000Z</time>
      </trkpt>
      <trkpt lat="42.213411" lon="2.609524">
        <ele>195</ele>
        <time>1970-01-01T05:01:59.000Z</time>
      </trkpt>
      <trkpt lat="42.21342" lon="2.609472">
        <ele>195</ele>
        <time>1970-01-01T05:02:00.000Z</time>
      </trkpt>
      <trkpt lat="42.213433" lon="2.609358">
        <ele>195</ele>
        <time>1970-01-01T05:02:01.000Z</time>
      </trkpt>
      <trkpt lat="42.213438" lon="2.609316">
        <ele>195</ele>
        <time>1970-01-01T05:02:02.000Z</time>
      </trkpt>
      <trkpt lat="42.213443" lon="2.609274">
        <ele>195</ele>
        <time>1970-01-01T05:02:03.000Z</time>
      </trkpt>
      <trkpt lat="42.213448" lon="2.609232">
        <ele>195</ele>
        <time>1970-01-01T05:02:04.000Z</time>
      </trkpt>
      <trkpt lat="42.213452" lon="2.609189">
        <ele>195</ele>
        <time>1970-01-01T05:02:05.000Z</time>
      </trkpt>
      <trkpt lat="42.213457" lon="2.609147">
        <ele>195</ele>
        <time>1970-01-01T05:02:06.000Z</time>
      </trkpt>
      <trkpt lat="42.213462" lon="2.609105">
        <ele>195</ele>
        <time>1970-01-01T05:02:07.000Z</time>
      </trkpt>
      <trkpt lat="42.213467" lon="2.609063">
        <ele>195</ele>
        <time>1970-01-01T05:02:08.000Z</time>
      </trkpt>
      <trkpt lat="42.213472" lon="2.609021">
        <ele>195</ele>
        <time>1970-01-01T05:02:10.000Z</time>
      </trkpt>
      <trkpt lat="42.213479" lon="2.608946">
        <ele>195</ele>
        <time>1970-01-01T05:02:11.000Z</time>
      </trkpt>
      <trkpt lat="42.213482" lon="2.608914">
        <ele>195</ele>
        <time>1970-01-01T05:02:12.000Z</time>
      </trkpt>
      <trkpt lat="42.213486" lon="2.608881">
        <ele>195</ele>
        <time>1970-01-01T05:02:13.000Z</time>
      </trkpt>
      <trkpt lat="42.213489" lon="2.608848">
        <ele>195</ele>
        <time>1970-01-01T05:02:14.000Z</time>
      </trkpt>
      <trkpt lat="42.213492" lon="2.608816">
        <ele>195</ele>
        <time>1970-01-01T05:02:15.000Z</time>
      </trkpt>
      <trkpt lat="42.213495" lon="2.608783">
        <ele>195</ele>
        <time>1970-01-01T05:02:16.000Z</time>
      </trkpt>
      <trkpt lat="42.213499" lon="2.60875">
        <ele>195</ele>
        <time>1970-01-01T05:02:17.000Z</time>
      </trkpt>
      <trkpt lat="42.213502" lon="2.608718">
        <ele>195</ele>
        <time>1970-01-01T05:02:18.000Z</time>
      </trkpt>
      <trkpt lat="42.213505" lon="2.608685">
        <ele>196</ele>
        <time>1970-01-01T05:02:19.000Z</time>
      </trkpt>
      <trkpt lat="42.213512" lon="2.608629">
        <ele>196</ele>
        <time>1970-01-01T05:02:20.000Z</time>
      </trkpt>
      <trkpt lat="42.213516" lon="2.608593">
        <ele>196</ele>
        <time>1970-01-01T05:02:21.000Z</time>
      </trkpt>
      <trkpt lat="42.213521" lon="2.608558">
        <ele>196</ele>
        <time>1970-01-01T05:02:23.000Z</time>
      </trkpt>
      <trkpt lat="42.213525" lon="2.608522">
        <ele>196</ele>
        <time>1970-01-01T05:02:24.000Z</time>
      </trkpt>
      <trkpt lat="42.21353" lon="2.608486">
        <ele>196</ele>
        <time>1970-01-01T05:02:25.000Z</time>
      </trkpt>
      <trkpt lat="42.213534" lon="2.60845">
        <ele>196</ele>
        <time>1970-01-01T05:02:26.000Z</time>
      </trkpt>
      <trkpt lat="42.213539" lon="2.608415">
        <ele>196</ele>
        <time>1970-01-01T05:02:27.000Z</time>
      </trkpt>
      <trkpt lat="42.213543" lon="2.608379">
        <ele>196</ele>
        <time>1970-01-01T05:02:28.000Z</time>
      </trkpt>
      <trkpt lat="42.213548" lon="2.608343">
        <ele>197</ele>
        <time>1970-01-01T05:02:29.000Z</time>
      </trkpt>
      <trkpt lat="42.213558" lon="2.608284">
        <ele>197</ele>
        <time>1970-01-01T05:02:30.000Z</time>
      </trkpt>
      <trkpt lat="42.213564" lon="2.608255">
        <ele>197</ele>
        <time>1970-01-01T05:02:31.000Z</time>
      </trkpt>
      <trkpt lat="42.21357" lon="2.608227">
        <ele>197</ele>
        <time>1970-01-01T05:02:33.000Z</time>
      </trkpt>
      <trkpt lat="42.213577" lon="2.608199">
        <ele>197</ele>
        <time>1970-01-01T05:02:34.000Z</time>
      </trkpt>
      <trkpt lat="42.213583" lon="2.60817">
        <ele>197</ele>
        <time>1970-01-01T05:02:36.000Z</time>
      </trkpt>
      <trkpt lat="42.213589" lon="2.608142">
        <ele>197</ele>
        <time>1970-01-01T05:02:37.000Z</time>
      </trkpt>
      <trkpt lat="42.213595" lon="2.608113">
        <ele>197</ele>
        <time>1970-01-01T05:02:38.000Z</time>
      </trkpt>
      <trkpt lat="42.213601" lon="2.608085">
        <ele>200</ele>
        <time>1970-01-01T05:02:39.000Z</time>
      </trkpt>
      <trkpt lat="42.213617" lon="2.608032">
        <ele>200</ele>
        <time>1970-01-01T05:02:40.000Z</time>
      </trkpt>
      <trkpt lat="42.213627" lon="2.608006">
        <ele>200</ele>
        <time>1970-01-01T05:02:41.000Z</time>
      </trkpt>
      <trkpt lat="42.213636" lon="2.607979">
        <ele>200</ele>
        <time>1970-01-01T05:02:42.000Z</time>
      </trkpt>
      <trkpt lat="42.213646" lon="2.607953">
        <ele>200</ele>
        <time>1970-01-01T05:02:44.000Z</time>
      </trkpt>
      <trkpt lat="42.213655" lon="2.607927">
        <ele>200</ele>
        <time>1970-01-01T05:02:45.000Z</time>
      </trkpt>
      <trkpt lat="42.213665" lon="2.607901">
        <ele>200</ele>
        <time>1970-01-01T05:02:46.000Z</time>
      </trkpt>
      <trkpt lat="42.213674" lon="2.607874">
        <ele>200</ele>
        <time>1970-01-01T05:02:47.000Z</time>
      </trkpt>
      <trkpt lat="42.213684" lon="2.607848">
        <ele>200</ele>
        <time>1970-01-01T05:02:48.000Z</time>
      </trkpt>
      <trkpt lat="42.213693" lon="2.607822">
        <ele>201</ele>
        <time>1970-01-01T05:02:49.000Z</time>
      </trkpt>
      <trkpt lat="42.213716" lon="2.607772">
        <ele>201</ele>
        <time>1970-01-01T05:02:50.000Z</time>
      </trkpt>
      <trkpt lat="42.213728" lon="2.607747">
        <ele>201</ele>
        <time>1970-01-01T05:02:51.000Z</time>
      </trkpt>
      <trkpt lat="42.21374" lon="2.607723">
        <ele>201</ele>
        <time>1970-01-01T05:02:52.000Z</time>
      </trkpt>
      <trkpt lat="42.213752" lon="2.607698">
        <ele>201</ele>
        <time>1970-01-01T05:02:53.000Z</time>
      </trkpt>
      <trkpt lat="42.213765" lon="2.607674">
        <ele>201</ele>
        <time>1970-01-01T05:02:54.000Z</time>
      </trkpt>
      <trkpt lat="42.213777" lon="2.607649">
        <ele>201</ele>
        <time>1970-01-01T05:02:55.000Z</time>
      </trkpt>
      <trkpt lat="42.213789" lon="2.607625">
        <ele>201</ele>
        <time>1970-01-01T05:02:56.000Z</time>
      </trkpt>
      <trkpt lat="42.213801" lon="2.6076">
        <ele>201</ele>
        <time>1970-01-01T05:02:57.000Z</time>
      </trkpt>
      <trkpt lat="42.213813" lon="2.607576">
        <ele>201</ele>
        <time>1970-01-01T05:02:58.000Z</time>
      </trkpt>
      <trkpt lat="42.213825" lon="2.607551">
        <ele>203</ele>
        <time>1970-01-01T05:02:59.000Z</time>
      </trkpt>
      <trkpt lat="42.213853" lon="2.607506">
        <ele>203</ele>
        <time>1970-01-01T05:03:00.000Z</time>
      </trkpt>
      <trkpt lat="42.213866" lon="2.607484">
        <ele>203</ele>
        <time>1970-01-01T05:03:01.000Z</time>
      </trkpt>
      <trkpt lat="42.21388" lon="2.607461">
        <ele>203</ele>
        <time>1970-01-01T05:03:02.000Z</time>
      </trkpt>
      <trkpt lat="42.213894" lon="2.607439">
        <ele>203</ele>
        <time>1970-01-01T05:03:04.000Z</time>
      </trkpt>
      <trkpt lat="42.213907" lon="2.607417">
        <ele>203</ele>
        <time>1970-01-01T05:03:05.000Z</time>
      </trkpt>
      <trkpt lat="42.213921" lon="2.607395">
        <ele>203</ele>
        <time>1970-01-01T05:03:06.000Z</time>
      </trkpt>
      <trkpt lat="42.213934" lon="2.607372">
        <ele>203</ele>
        <time>1970-01-01T05:03:08.000Z</time>
      </trkpt>
      <trkpt lat="42.213948" lon="2.60735">
        <ele>206</ele>
        <time>1970-01-01T05:03:09.000Z</time>
      </trkpt>
      <trkpt lat="42.213977" lon="2.607304">
        <ele>206</ele>
        <time>1970-01-01T05:03:10.000Z</time>
      </trkpt>
      <trkpt lat="42.213992" lon="2.60728">
        <ele>206</ele>
        <time>1970-01-01T05:03:11.000Z</time>
      </trkpt>
      <trkpt lat="42.214007" lon="2.607255">
        <ele>206</ele>
        <time>1970-01-01T05:03:13.000Z</time>
      </trkpt>
      <trkpt lat="42.214022" lon="2.60723">
        <ele>206</ele>
        <time>1970-01-01T05:03:14.000Z</time>
      </trkpt>
      <trkpt lat="42.214036" lon="2.607206">
        <ele>206</ele>
        <time>1970-01-01T05:03:15.000Z</time>
      </trkpt>
      <trkpt lat="42.214051" lon="2.607181">
        <ele>206</ele>
        <time>1970-01-01T05:03:16.000Z</time>
      </trkpt>
      <trkpt lat="42.214066" lon="2.607156">
        <ele>206</ele>
        <time>1970-01-01T05:03:17.000Z</time>
      </trkpt>
      <trkpt lat="42.214081" lon="2.607132">
        <ele>206</ele>
        <time>1970-01-01T05:03:18.000Z</time>
      </trkpt>
      <trkpt lat="42.214096" lon="2.607107">
        <ele>208</ele>
        <time>1970-01-01T05:03:19.000Z</time>
      </trkpt>
      <trkpt lat="42.214122" lon="2.607058">
        <ele>208</ele>
        <time>1970-01-01T05:03:20.000Z</time>
      </trkpt>
      <trkpt lat="42.214136" lon="2.607033">
        <ele>208</ele>
        <time>1970-01-01T05:03:21.000Z</time>
      </trkpt>
      <trkpt lat="42.214149" lon="2.607007">
        <ele>208</ele>
        <time>1970-01-01T05:03:22.000Z</time>
      </trkpt>
      <trkpt lat="42.214163" lon="2.606982">
        <ele>208</ele>
        <time>1970-01-01T05:03:24.000Z</time>
      </trkpt>
      <trkpt lat="42.214176" lon="2.606956">
        <ele>208</ele>
        <time>1970-01-01T05:03:25.000Z</time>
      </trkpt>
      <trkpt lat="42.214189" lon="2.60693">
        <ele>208</ele>
        <time>1970-01-01T05:03:27.000Z</time>
      </trkpt>
      <trkpt lat="42.214203" lon="2.606905">
        <ele>208</ele>
        <time>1970-01-01T05:03:28.000Z</time>
      </trkpt>
      <trkpt lat="42.214216" lon="2.606879">
        <ele>211</ele>
        <time>1970-01-01T05:03:29.000Z</time>
      </trkpt>
      <trkpt lat="42.214242" lon="2.606815">
        <ele>211</ele>
        <time>1970-01-01T05:03:30.000Z</time>
      </trkpt>
      <trkpt lat="42.214251" lon="2.606788">
        <ele>211</ele>
        <time>1970-01-01T05:03:32.000Z</time>
      </trkpt>
      <trkpt lat="42.214261" lon="2.606762">
        <ele>211</ele>
        <time>1970-01-01T05:03:34.000Z</time>
      </trkpt>
      <trkpt lat="42.214271" lon="2.606736">
        <ele>211</ele>
        <time>1970-01-01T05:03:35.000Z</time>
      </trkpt>
      <trkpt lat="42.21428" lon="2.606709">
        <ele>211</ele>
        <time>1970-01-01T05:03:36.000Z</time>
      </trkpt>
      <trkpt lat="42.21429" lon="2.606683">
        <ele>211</ele>
        <time>1970-01-01T05:03:37.000Z</time>
      </trkpt>
      <trkpt lat="42.214299" lon="2.606656">
        <ele>211</ele>
        <time>1970-01-01T05:03:38.000Z</time>
      </trkpt>
      <trkpt lat="42.214309" lon="2.60663">
        <ele>213</ele>
        <time>1970-01-01T05:03:39.000Z</time>
      </trkpt>
      <trkpt lat="42.214323" lon="2.606576">
        <ele>213</ele>
        <time>1970-01-01T05:03:40.000Z</time>
      </trkpt>
      <trkpt lat="42.21433" lon="2.60655">
        <ele>213</ele>
        <time>1970-01-01T05:03:41.000Z</time>
      </trkpt>
      <trkpt lat="42.214337" lon="2.606523">
        <ele>213</ele>
        <time>1970-01-01T05:03:42.000Z</time>
      </trkpt>
      <trkpt lat="42.214344" lon="2.606496">
        <ele>213</ele>
        <time>1970-01-01T05:03:43.000Z</time>
      </trkpt>
      <trkpt lat="42.214351" lon="2.60647">
        <ele>213</ele>
        <time>1970-01-01T05:03:44.000Z</time>
      </trkpt>
      <trkpt lat="42.214357" lon="2.606443">
        <ele>213</ele>
        <time>1970-01-01T05:03:45.000Z</time>
      </trkpt>
      <trkpt lat="42.214364" lon="2.606416">
        <ele>213</ele>
        <time>1970-01-01T05:03:46.000Z</time>
      </trkpt>
      <trkpt lat="42.214371" lon="2.606389">
        <ele>213</ele>
        <time>1970-01-01T05:03:47.000Z</time>
      </trkpt>
      <trkpt lat="42.214378" lon="2.606363">
        <ele>213</ele>
        <time>1970-01-01T05:03:48.000Z</time>
      </trkpt>
      <trkpt lat="42.214385" lon="2.606336">
        <ele>214</ele>
        <time>1970-01-01T05:03:49.000Z</time>
      </trkpt>
      <trkpt lat="42.214396" lon="2.606293">
        <ele>214</ele>
        <time>1970-01-01T05:03:50.000Z</time>
      </trkpt>
      <trkpt lat="42.214403" lon="2.606265">
        <ele>214</ele>
        <time>1970-01-01T05:03:51.000Z</time>
      </trkpt>
      <trkpt lat="42.21441" lon="2.606236">
        <ele>214</ele>
        <time>1970-01-01T05:03:52.000Z</time>
      </trkpt>
      <trkpt lat="42.214417" lon="2.606208">
        <ele>214</ele>
        <time>1970-01-01T05:03:54.000Z</time>
      </trkpt>
      <trkpt lat="42.214423" lon="2.606179">
        <ele>214</ele>
        <time>1970-01-01T05:03:55.000Z</time>
      </trkpt>
      <trkpt lat="42.21443" lon="2.606151">
        <ele>214</ele>
        <time>1970-01-01T05:03:56.000Z</time>
      </trkpt>
      <trkpt lat="42.214437" lon="2.606122">
        <ele>214</ele>
        <time>1970-01-01T05:03:57.000Z</time>
      </trkpt>
      <trkpt lat="42.214444" lon="2.606094">
        <ele>214</ele>
        <time>1970-01-01T05:03:58.000Z</time>
      </trkpt>
      <trkpt lat="42.214451" lon="2.606065">
        <ele>216</ele>
        <time>1970-01-01T05:03:59.000Z</time>
      </trkpt>
      <trkpt lat="42.214466" lon="2.606011">
        <ele>216</ele>
        <time>1970-01-01T05:04:00.000Z</time>
      </trkpt>
      <trkpt lat="42.214475" lon="2.605986">
        <ele>216</ele>
        <time>1970-01-01T05:04:01.000Z</time>
      </trkpt>
      <trkpt lat="42.214483" lon="2.605961">
        <ele>216</ele>
        <time>1970-01-01T05:04:02.000Z</time>
      </trkpt>
      <trkpt lat="42.214492" lon="2.605936">
        <ele>216</ele>
        <time>1970-01-01T05:04:03.000Z</time>
      </trkpt>
      <trkpt lat="42.2145" lon="2.605912">
        <ele>216</ele>
        <time>1970-01-01T05:04:04.000Z</time>
      </trkpt>
      <trkpt lat="42.214508" lon="2.605887">
        <ele>216</ele>
        <time>1970-01-01T05:04:05.000Z</time>
      </trkpt>
      <trkpt lat="42.214517" lon="2.605862">
        <ele>216</ele>
        <time>1970-01-01T05:04:06.000Z</time>
      </trkpt>
      <trkpt lat="42.214525" lon="2.605837">
        <ele>216</ele>
        <time>1970-01-01T05:04:07.000Z</time>
      </trkpt>
      <trkpt lat="42.214534" lon="2.605812">
        <ele>216</ele>
        <time>1970-01-01T05:04:08.000Z</time>
      </trkpt>
      <trkpt lat="42.214542" lon="2.605787">
        <ele>219</ele>
        <time>1970-01-01T05:04:09.000Z</time>
      </trkpt>
      <trkpt lat="42.214567" lon="2.605727">
        <ele>219</ele>
        <time>1970-01-01T05:04:10.000Z</time>
      </trkpt>
      <trkpt lat="42.214582" lon="2.605695">
        <ele>219</ele>
        <time>1970-01-01T05:04:11.000Z</time>
      </trkpt>
      <trkpt lat="42.214597" lon="2.605662">
        <ele>219</ele>
        <time>1970-01-01T05:04:12.000Z</time>
      </trkpt>
      <trkpt lat="42.214613" lon="2.60563">
        <ele>219</ele>
        <time>1970-01-01T05:04:13.000Z</time>
      </trkpt>
      <trkpt lat="42.214628" lon="2.605598">
        <ele>219</ele>
        <time>1970-01-01T05:04:14.000Z</time>
      </trkpt>
      <trkpt lat="42.214643" lon="2.605566">
        <ele>219</ele>
        <time>1970-01-01T05:04:16.000Z</time>
      </trkpt>
      <trkpt lat="42.214658" lon="2.605533">
        <ele>219</ele>
        <time>1970-01-01T05:04:18.000Z</time>
      </trkpt>
      <trkpt lat="42.214673" lon="2.605501">
        <ele>222</ele>
        <time>1970-01-01T05:04:19.000Z</time>
      </trkpt>
      <trkpt lat="42.214695" lon="2.605461">
        <ele>222</ele>
        <time>1970-01-01T05:04:20.000Z</time>
      </trkpt>
      <trkpt lat="42.21471" lon="2.605434">
        <ele>222</ele>
        <time>1970-01-01T05:04:21.000Z</time>
      </trkpt>
      <trkpt lat="42.214725" lon="2.605408">
        <ele>222</ele>
        <time>1970-01-01T05:04:22.000Z</time>
      </trkpt>
      <trkpt lat="42.21474" lon="2.605381">
        <ele>222</ele>
        <time>1970-01-01T05:04:23.000Z</time>
      </trkpt>
      <trkpt lat="42.214755" lon="2.605355">
        <ele>222</ele>
        <time>1970-01-01T05:04:24.000Z</time>
      </trkpt>
      <trkpt lat="42.21477" lon="2.605328">
        <ele>222</ele>
        <time>1970-01-01T05:04:25.000Z</time>
      </trkpt>
      <trkpt lat="42.214785" lon="2.605302">
        <ele>222</ele>
        <time>1970-01-01T05:04:26.000Z</time>
      </trkpt>
      <trkpt lat="42.2148" lon="2.605275">
        <ele>222</ele>
        <time>1970-01-01T05:04:28.000Z</time>
      </trkpt>
      <trkpt lat="42.214815" lon="2.605249">
        <ele>223</ele>
        <time>1970-01-01T05:04:29.000Z</time>
      </trkpt>
      <trkpt lat="42.21486" lon="2.605156">
        <ele>223</ele>
        <time>1970-01-01T05:04:31.000Z</time>
      </trkpt>
      <trkpt lat="42.214876" lon="2.605119">
        <ele>223</ele>
        <time>1970-01-01T05:04:32.000Z</time>
      </trkpt>
      <trkpt lat="42.214893" lon="2.605081">
        <ele>223</ele>
        <time>1970-01-01T05:04:34.000Z</time>
      </trkpt>
      <trkpt lat="42.21491" lon="2.605043">
        <ele>223</ele>
        <time>1970-01-01T05:04:35.000Z</time>
      </trkpt>
      <trkpt lat="42.214926" lon="2.605006">
        <ele>223</ele>
        <time>1970-01-01T05:04:37.000Z</time>
      </trkpt>
      <trkpt lat="42.214943" lon="2.604968">
        <ele>223</ele>
        <time>1970-01-01T05:04:39.000Z</time>
      </trkpt>
      <trkpt lat="42.214979" lon="2.604872">
        <ele>223</ele>
        <time>1970-01-01T05:04:40.000Z</time>
      </trkpt>
      <trkpt lat="42.214991" lon="2.604835">
        <ele>223</ele>
        <time>1970-01-01T05:04:42.000Z</time>
      </trkpt>
      <trkpt lat="42.215003" lon="2.604797">
        <ele>223</ele>
        <time>1970-01-01T05:04:43.000Z</time>
      </trkpt>
      <trkpt lat="42.215016" lon="2.604759">
        <ele>223</ele>
        <time>1970-01-01T05:04:45.000Z</time>
      </trkpt>
      <trkpt lat="42.215028" lon="2.604721">
        <ele>223</ele>
        <time>1970-01-01T05:04:46.000Z</time>
      </trkpt>
      <trkpt lat="42.21504" lon="2.604684">
        <ele>223</ele>
        <time>1970-01-01T05:04:47.000Z</time>
      </trkpt>
      <trkpt lat="42.215052" lon="2.604646">
        <ele>225</ele>
        <time>1970-01-01T05:04:49.000Z</time>
      </trkpt>
      <trkpt lat="42.215068" lon="2.604585">
        <ele>225</ele>
        <time>1970-01-01T05:04:51.000Z</time>
      </trkpt>
      <trkpt lat="42.215076" lon="2.604555">
        <ele>225</ele>
        <time>1970-01-01T05:04:52.000Z</time>
      </trkpt>
      <trkpt lat="42.215083" lon="2.604524">
        <ele>225</ele>
        <time>1970-01-01T05:04:53.000Z</time>
      </trkpt>
      <trkpt lat="42.21509" lon="2.604493">
        <ele>225</ele>
        <time>1970-01-01T05:04:54.000Z</time>
      </trkpt>
      <trkpt lat="42.215097" lon="2.604462">
        <ele>225</ele>
        <time>1970-01-01T05:04:55.000Z</time>
      </trkpt>
      <trkpt lat="42.215105" lon="2.604432">
        <ele>225</ele>
        <time>1970-01-01T05:04:56.000Z</time>
      </trkpt>
      <trkpt lat="42.215112" lon="2.604401">
        <ele>225</ele>
        <time>1970-01-01T05:04:58.000Z</time>
      </trkpt>
      <trkpt lat="42.215119" lon="2.60437">
        <ele>228</ele>
        <time>1970-01-01T05:04:59.000Z</time>
      </trkpt>
      <trkpt lat="42.215129" lon="2.604301">
        <ele>228</ele>
        <time>1970-01-01T05:05:00.000Z</time>
      </trkpt>
      <trkpt lat="42.215132" lon="2.604262">
        <ele>228</ele>
        <time>1970-01-01T05:05:01.000Z</time>
      </trkpt>
      <trkpt lat="42.215136" lon="2.604224">
        <ele>228</ele>
        <time>1970-01-01T05:05:02.000Z</time>
      </trkpt>
      <trkpt lat="42.215139" lon="2.604185">
        <ele>228</ele>
        <time>1970-01-01T05:05:03.000Z</time>
      </trkpt>
      <trkpt lat="42.215143" lon="2.604147">
        <ele>228</ele>
        <time>1970-01-01T05:05:04.000Z</time>
      </trkpt>
      <trkpt lat="42.215146" lon="2.604108">
        <ele>228</ele>
        <time>1970-01-01T05:05:05.000Z</time>
      </trkpt>
      <trkpt lat="42.21515" lon="2.60407">
        <ele>228</ele>
        <time>1970-01-01T05:05:07.000Z</time>
      </trkpt>
      <trkpt lat="42.215153" lon="2.604031">
        <ele>228</ele>
        <time>1970-01-01T05:05:09.000Z</time>
      </trkpt>
      <trkpt lat="42.215157" lon="2.603993">
        <ele>229</ele>
        <time>1970-01-01T05:05:10.000Z</time>
      </trkpt>
      <trkpt lat="42.21516" lon="2.603913">
        <ele>229</ele>
        <time>1970-01-01T05:05:11.000Z</time>
      </trkpt>
      <trkpt lat="42.215161" lon="2.603885">
        <ele>229</ele>
        <time>1970-01-01T05:05:12.000Z</time>
      </trkpt>
      <trkpt lat="42.215161" lon="2.603856">
        <ele>229</ele>
        <time>1970-01-01T05:05:13.000Z</time>
      </trkpt>
      <trkpt lat="42.215161" lon="2.603827">
        <ele>229</ele>
        <time>1970-01-01T05:05:14.000Z</time>
      </trkpt>
      <trkpt lat="42.215162" lon="2.603799">
        <ele>229</ele>
        <time>1970-01-01T05:05:15.000Z</time>
      </trkpt>
      <trkpt lat="42.215162" lon="2.60377">
        <ele>229</ele>
        <time>1970-01-01T05:05:16.000Z</time>
      </trkpt>
      <trkpt lat="42.215162" lon="2.603741">
        <ele>229</ele>
        <time>1970-01-01T05:05:17.000Z</time>
      </trkpt>
      <trkpt lat="42.215163" lon="2.603713">
        <ele>229</ele>
        <time>1970-01-01T05:05:18.000Z</time>
      </trkpt>
      <trkpt lat="42.215163" lon="2.603684">
        <ele>231</ele>
        <time>1970-01-01T05:05:19.000Z</time>
      </trkpt>
      <trkpt lat="42.21516" lon="2.603603">
        <ele>231</ele>
        <time>1970-01-01T05:05:21.000Z</time>
      </trkpt>
      <trkpt lat="42.215158" lon="2.603569">
        <ele>231</ele>
        <time>1970-01-01T05:05:22.000Z</time>
      </trkpt>
      <trkpt lat="42.215157" lon="2.603535">
        <ele>231</ele>
        <time>1970-01-01T05:05:23.000Z</time>
      </trkpt>
      <trkpt lat="42.215156" lon="2.6035">
        <ele>231</ele>
        <time>1970-01-01T05:05:24.000Z</time>
      </trkpt>
      <trkpt lat="42.215154" lon="2.603466">
        <ele>231</ele>
        <time>1970-01-01T05:05:25.000Z</time>
      </trkpt>
      <trkpt lat="42.215153" lon="2.603432">
        <ele>231</ele>
        <time>1970-01-01T05:05:26.000Z</time>
      </trkpt>
      <trkpt lat="42.215151" lon="2.603398">
        <ele>231</ele>
        <time>1970-01-01T05:05:28.000Z</time>
      </trkpt>
      <trkpt lat="42.21515" lon="2.603364">
        <ele>232</ele>
        <time>1970-01-01T05:05:29.000Z</time>
      </trkpt>
      <trkpt lat="42.215147" lon="2.603293">
        <ele>232</ele>
        <time>1970-01-01T05:05:30.000Z</time>
      </trkpt>
      <trkpt lat="42.215146" lon="2.603255">
        <ele>232</ele>
        <time>1970-01-01T05:05:31.000Z</time>
      </trkpt>
      <trkpt lat="42.215144" lon="2.603218">
        <ele>232</ele>
        <time>1970-01-01T05:05:33.000Z</time>
      </trkpt>
      <trkpt lat="42.215143" lon="2.60318">
        <ele>232</ele>
        <time>1970-01-01T05:05:34.000Z</time>
      </trkpt>
      <trkpt lat="42.215141" lon="2.603142">
        <ele>232</ele>
        <time>1970-01-01T05:05:35.000Z</time>
      </trkpt>
      <trkpt lat="42.21514" lon="2.603104">
        <ele>232</ele>
        <time>1970-01-01T05:05:36.000Z</time>
      </trkpt>
      <trkpt lat="42.215138" lon="2.603067">
        <ele>232</ele>
        <time>1970-01-01T05:05:37.000Z</time>
      </trkpt>
      <trkpt lat="42.215137" lon="2.603029">
        <ele>232</ele>
        <time>1970-01-01T05:05:38.000Z</time>
      </trkpt>
      <trkpt lat="42.215135" lon="2.602991">
        <ele>235</ele>
        <time>1970-01-01T05:05:39.000Z</time>
      </trkpt>
      <trkpt lat="42.215134" lon="2.602919">
        <ele>235</ele>
        <time>1970-01-01T05:05:40.000Z</time>
      </trkpt>
      <trkpt lat="42.215133" lon="2.602882">
        <ele>235</ele>
        <time>1970-01-01T05:05:42.000Z</time>
      </trkpt>
      <trkpt lat="42.215133" lon="2.602846">
        <ele>235</ele>
        <time>1970-01-01T05:05:43.000Z</time>
      </trkpt>
      <trkpt lat="42.215133" lon="2.602809">
        <ele>235</ele>
        <time>1970-01-01T05:05:44.000Z</time>
      </trkpt>
      <trkpt lat="42.215132" lon="2.602772">
        <ele>235</ele>
        <time>1970-01-01T05:05:46.000Z</time>
      </trkpt>
      <trkpt lat="42.215132" lon="2.602735">
        <ele>235</ele>
        <time>1970-01-01T05:05:47.000Z</time>
      </trkpt>
      <trkpt lat="42.215131" lon="2.602699">
        <ele>235</ele>
        <time>1970-01-01T05:05:48.000Z</time>
      </trkpt>
      <trkpt lat="42.215131" lon="2.602662">
        <ele>236</ele>
        <time>1970-01-01T05:05:49.000Z</time>
      </trkpt>
      <trkpt lat="42.215129" lon="2.602577">
        <ele>236</ele>
        <time>1970-01-01T05:05:50.000Z</time>
      </trkpt>
      <trkpt lat="42.215128" lon="2.602543">
        <ele>236</ele>
        <time>1970-01-01T05:05:52.000Z</time>
      </trkpt>
      <trkpt lat="42.215127" lon="2.602509">
        <ele>236</ele>
        <time>1970-01-01T05:05:53.000Z</time>
      </trkpt>
      <trkpt lat="42.215126" lon="2.602475">
        <ele>236</ele>
        <time>1970-01-01T05:05:54.000Z</time>
      </trkpt>
      <trkpt lat="42.215124" lon="2.602441">
        <ele>236</ele>
        <time>1970-01-01T05:05:55.000Z</time>
      </trkpt>
      <trkpt lat="42.215123" lon="2.602407">
        <ele>236</ele>
        <time>1970-01-01T05:05:56.000Z</time>
      </trkpt>
      <trkpt lat="42.215122" lon="2.602373">
        <ele>236</ele>
        <time>1970-01-01T05:05:58.000Z</time>
      </trkpt>
      <trkpt lat="42.215121" lon="2.602339">
        <ele>237</ele>
        <time>1970-01-01T05:05:59.000Z</time>
      </trkpt>
      <trkpt lat="42.215118" lon="2.602271">
        <ele>237</ele>
        <time>1970-01-01T05:06:00.000Z</time>
      </trkpt>
      <trkpt lat="42.215117" lon="2.602236">
        <ele>237</ele>
        <time>1970-01-01T05:06:01.000Z</time>
      </trkpt>
      <trkpt lat="42.215117" lon="2.602201">
        <ele>237</ele>
        <time>1970-01-01T05:06:02.000Z</time>
      </trkpt>
      <trkpt lat="42.215116" lon="2.602166">
        <ele>237</ele>
        <time>1970-01-01T05:06:03.000Z</time>
      </trkpt>
      <trkpt lat="42.215115" lon="2.602132">
        <ele>237</ele>
        <time>1970-01-01T05:06:04.000Z</time>
      </trkpt>
      <trkpt lat="42.215114" lon="2.602097">
        <ele>237</ele>
        <time>1970-01-01T05:06:05.000Z</time>
      </trkpt>
      <trkpt lat="42.215114" lon="2.602062">
        <ele>237</ele>
        <time>1970-01-01T05:06:07.000Z</time>
      </trkpt>
      <trkpt lat="42.215113" lon="2.602027">
        <ele>237</ele>
        <time>1970-01-01T05:06:08.000Z</time>
      </trkpt>
      <trkpt lat="42.215112" lon="2.601992">
        <ele>239</ele>
        <time>1970-01-01T05:06:09.000Z</time>
      </trkpt>
      <trkpt lat="42.21511" lon="2.601907">
        <ele>239</ele>
        <time>1970-01-01T05:06:10.000Z</time>
      </trkpt>
      <trkpt lat="42.21511" lon="2.601874">
        <ele>239</ele>
        <time>1970-01-01T05:06:12.000Z</time>
      </trkpt>
      <trkpt lat="42.215109" lon="2.60184">
        <ele>239</ele>
        <time>1970-01-01T05:06:13.000Z</time>
      </trkpt>
      <trkpt lat="42.215108" lon="2.601806">
        <ele>239</ele>
        <time>1970-01-01T05:06:14.000Z</time>
      </trkpt>
      <trkpt lat="42.215107" lon="2.601773">
        <ele>239</ele>
        <time>1970-01-01T05:06:15.000Z</time>
      </trkpt>
      <trkpt lat="42.215107" lon="2.601739">
        <ele>239</ele>
        <time>1970-01-01T05:06:16.000Z</time>
      </trkpt>
      <trkpt lat="42.215106" lon="2.601706">
        <ele>239</ele>
        <time>1970-01-01T05:06:18.000Z</time>
      </trkpt>
      <trkpt lat="42.215105" lon="2.601672">
        <ele>241</ele>
        <time>1970-01-01T05:06:19.000Z</time>
      </trkpt>
      <trkpt lat="42.215107" lon="2.601604">
        <ele>241</ele>
        <time>1970-01-01T05:06:20.000Z</time>
      </trkpt>
      <trkpt lat="42.21511" lon="2.60157">
        <ele>241</ele>
        <time>1970-01-01T05:06:21.000Z</time>
      </trkpt>
      <trkpt lat="42.215113" lon="2.601535">
        <ele>241</ele>
        <time>1970-01-01T05:06:22.000Z</time>
      </trkpt>
      <trkpt lat="42.215116" lon="2.6015">
        <ele>241</ele>
        <time>1970-01-01T05:06:24.000Z</time>
      </trkpt>
      <trkpt lat="42.215119" lon="2.601466">
        <ele>241</ele>
        <time>1970-01-01T05:06:25.000Z</time>
      </trkpt>
      <trkpt lat="42.215122" lon="2.601431">
        <ele>241</ele>
        <time>1970-01-01T05:06:26.000Z</time>
      </trkpt>
      <trkpt lat="42.215125" lon="2.601396">
        <ele>241</ele>
        <time>1970-01-01T05:06:27.000Z</time>
      </trkpt>
      <trkpt lat="42.215128" lon="2.601362">
        <ele>241</ele>
        <time>1970-01-01T05:06:28.000Z</time>
      </trkpt>
      <trkpt lat="42.215131" lon="2.601327">
        <ele>243</ele>
        <time>1970-01-01T05:06:29.000Z</time>
      </trkpt>
      <trkpt lat="42.215152" lon="2.601215">
        <ele>243</ele>
        <time>1970-01-01T05:06:31.000Z</time>
      </trkpt>
      <trkpt lat="42.215162" lon="2.601173">
        <ele>243</ele>
        <time>1970-01-01T05:06:32.000Z</time>
      </trkpt>
      <trkpt lat="42.215171" lon="2.601132">
        <ele>243</ele>
        <time>1970-01-01T05:06:33.000Z</time>
      </trkpt>
      <trkpt lat="42.215181" lon="2.60109">
        <ele>243</ele>
        <time>1970-01-01T05:06:34.000Z</time>
      </trkpt>
      <trkpt lat="42.215191" lon="2.601049">
        <ele>243</ele>
        <time>1970-01-01T05:06:35.000Z</time>
      </trkpt>
      <trkpt lat="42.215201" lon="2.601007">
        <ele>243</ele>
        <time>1970-01-01T05:06:37.000Z</time>
      </trkpt>
      <trkpt lat="42.21521" lon="2.600966">
        <ele>243</ele>
        <time>1970-01-01T05:06:38.000Z</time>
      </trkpt>
      <trkpt lat="42.21522" lon="2.600924">
        <ele>243</ele>
        <time>1970-01-01T05:06:39.000Z</time>
      </trkpt>
      <trkpt lat="42.215241" lon="2.60084">
        <ele>243</ele>
        <time>1970-01-01T05:06:40.000Z</time>
      </trkpt>
      <trkpt lat="42.21525" lon="2.600801">
        <ele>243</ele>
        <time>1970-01-01T05:06:41.000Z</time>
      </trkpt>
      <trkpt lat="42.21526" lon="2.600762">
        <ele>243</ele>
        <time>1970-01-01T05:06:42.000Z</time>
      </trkpt>
      <trkpt lat="42.215269" lon="2.600723">
        <ele>243</ele>
        <time>1970-01-01T05:06:43.000Z</time>
      </trkpt>
      <trkpt lat="42.215278" lon="2.600684">
        <ele>243</ele>
        <time>1970-01-01T05:06:44.000Z</time>
      </trkpt>
      <trkpt lat="42.215287" lon="2.600645">
        <ele>243</ele>
        <time>1970-01-01T05:06:45.000Z</time>
      </trkpt>
      <trkpt lat="42.215296" lon="2.600606">
        <ele>243</ele>
        <time>1970-01-01T05:06:46.000Z</time>
      </trkpt>
      <trkpt lat="42.215306" lon="2.600567">
        <ele>243</ele>
        <time>1970-01-01T05:06:47.000Z</time>
      </trkpt>
      <trkpt lat="42.215315" lon="2.600528">
        <ele>243</ele>
        <time>1970-01-01T05:06:48.000Z</time>
      </trkpt>
      <trkpt lat="42.215324" lon="2.600489">
        <ele>243</ele>
        <time>1970-01-01T05:06:49.000Z</time>
      </trkpt>
      <trkpt lat="42.215342" lon="2.600392">
        <ele>243</ele>
        <time>1970-01-01T05:06:50.000Z</time>
      </trkpt>
      <trkpt lat="42.215354" lon="2.600341">
        <ele>243</ele>
        <time>1970-01-01T05:06:51.000Z</time>
      </trkpt>
      <trkpt lat="42.215365" lon="2.60029">
        <ele>243</ele>
        <time>1970-01-01T05:06:52.000Z</time>
      </trkpt>
      <trkpt lat="42.215376" lon="2.600239">
        <ele>243</ele>
        <time>1970-01-01T05:06:53.000Z</time>
      </trkpt>
      <trkpt lat="42.215388" lon="2.600189">
        <ele>243</ele>
        <time>1970-01-01T05:06:55.000Z</time>
      </trkpt>
      <trkpt lat="42.215399" lon="2.600138">
        <ele>243</ele>
        <time>1970-01-01T05:06:56.000Z</time>
      </trkpt>
      <trkpt lat="42.21541" lon="2.600087">
        <ele>243</ele>
        <time>1970-01-01T05:06:57.000Z</time>
      </trkpt>
      <trkpt lat="42.215422" lon="2.600036">
        <ele>243</ele>
        <time>1970-01-01T05:06:58.000Z</time>
      </trkpt>
      <trkpt lat="42.215433" lon="2.599985">
        <ele>243</ele>
        <time>1970-01-01T05:06:59.000Z</time>
      </trkpt>
      <trkpt lat="42.215455" lon="2.599876">
        <ele>243</ele>
        <time>1970-01-01T05:07:00.000Z</time>
      </trkpt>
      <trkpt lat="42.215466" lon="2.599821">
        <ele>243</ele>
        <time>1970-01-01T05:07:01.000Z</time>
      </trkpt>
      <trkpt lat="42.215477" lon="2.599767">
        <ele>243</ele>
        <time>1970-01-01T05:07:02.000Z</time>
      </trkpt>
      <trkpt lat="42.215488" lon="2.599712">
        <ele>243</ele>
        <time>1970-01-01T05:07:03.000Z</time>
      </trkpt>
      <trkpt lat="42.215499" lon="2.599658">
        <ele>243</ele>
        <time>1970-01-01T05:07:04.000Z</time>
      </trkpt>
      <trkpt lat="42.21551" lon="2.599603">
        <ele>243</ele>
        <time>1970-01-01T05:07:05.000Z</time>
      </trkpt>
      <trkpt lat="42.215521" lon="2.599549">
        <ele>243</ele>
        <time>1970-01-01T05:07:06.000Z</time>
      </trkpt>
      <trkpt lat="42.215532" lon="2.599494">
        <ele>243</ele>
        <time>1970-01-01T05:07:07.000Z</time>
      </trkpt>
      <trkpt lat="42.215543" lon="2.59944">
        <ele>243</ele>
        <time>1970-01-01T05:07:08.000Z</time>
      </trkpt>
      <trkpt lat="42.215554" lon="2.599385">
        <ele>244</ele>
        <time>1970-01-01T05:07:09.000Z</time>
      </trkpt>
      <trkpt lat="42.215569" lon="2.599302">
        <ele>244</ele>
        <time>1970-01-01T05:07:10.000Z</time>
      </trkpt>
      <trkpt lat="42.215579" lon="2.59925">
        <ele>244</ele>
        <time>1970-01-01T05:07:11.000Z</time>
      </trkpt>
      <trkpt lat="42.215588" lon="2.599197">
        <ele>244</ele>
        <time>1970-01-01T05:07:12.000Z</time>
      </trkpt>
      <trkpt lat="42.215598" lon="2.599145">
        <ele>244</ele>
        <time>1970-01-01T05:07:13.000Z</time>
      </trkpt>
      <trkpt lat="42.215607" lon="2.599092">
        <ele>244</ele>
        <time>1970-01-01T05:07:14.000Z</time>
      </trkpt>
      <trkpt lat="42.215616" lon="2.599039">
        <ele>244</ele>
        <time>1970-01-01T05:07:15.000Z</time>
      </trkpt>
      <trkpt lat="42.215626" lon="2.598987">
        <ele>244</ele>
        <time>1970-01-01T05:07:16.000Z</time>
      </trkpt>
      <trkpt lat="42.215635" lon="2.598934">
        <ele>244</ele>
        <time>1970-01-01T05:07:17.000Z</time>
      </trkpt>
      <trkpt lat="42.215645" lon="2.598882">
        <ele>244</ele>
        <time>1970-01-01T05:07:18.000Z</time>
      </trkpt>
      <trkpt lat="42.215654" lon="2.598829">
        <ele>244</ele>
        <time>1970-01-01T05:07:19.000Z</time>
      </trkpt>
      <trkpt lat="42.215676" lon="2.598707">
        <ele>244</ele>
        <time>1970-01-01T05:07:20.000Z</time>
      </trkpt>
      <trkpt lat="42.215688" lon="2.598645">
        <ele>244</ele>
        <time>1970-01-01T05:07:21.000Z</time>
      </trkpt>
      <trkpt lat="42.215699" lon="2.598584">
        <ele>244</ele>
        <time>1970-01-01T05:07:23.000Z</time>
      </trkpt>
      <trkpt lat="42.21571" lon="2.598522">
        <ele>244</ele>
        <time>1970-01-01T05:07:24.000Z</time>
      </trkpt>
      <trkpt lat="42.215722" lon="2.59846">
        <ele>244</ele>
        <time>1970-01-01T05:07:25.000Z</time>
      </trkpt>
      <trkpt lat="42.215733" lon="2.598398">
        <ele>244</ele>
        <time>1970-01-01T05:07:26.000Z</time>
      </trkpt>
      <trkpt lat="42.215744" lon="2.598337">
        <ele>244</ele>
        <time>1970-01-01T05:07:27.000Z</time>
      </trkpt>
      <trkpt lat="42.215756" lon="2.598275">
        <ele>244</ele>
        <time>1970-01-01T05:07:28.000Z</time>
      </trkpt>
      <trkpt lat="42.215767" lon="2.598213">
        <ele>244</ele>
        <time>1970-01-01T05:07:29.000Z</time>
      </trkpt>
      <trkpt lat="42.21579" lon="2.598087">
        <ele>244</ele>
        <time>1970-01-01T05:07:30.000Z</time>
      </trkpt>
      <trkpt lat="42.215803" lon="2.598024">
        <ele>244</ele>
        <time>1970-01-01T05:07:31.000Z</time>
      </trkpt>
      <trkpt lat="42.215815" lon="2.597961">
        <ele>244</ele>
        <time>1970-01-01T05:07:33.000Z</time>
      </trkpt>
      <trkpt lat="42.215828" lon="2.597898">
        <ele>244</ele>
        <time>1970-01-01T05:07:34.000Z</time>
      </trkpt>
      <trkpt lat="42.21584" lon="2.597835">
        <ele>244</ele>
        <time>1970-01-01T05:07:35.000Z</time>
      </trkpt>
      <trkpt lat="42.215853" lon="2.597772">
        <ele>244</ele>
        <time>1970-01-01T05:07:36.000Z</time>
      </trkpt>
      <trkpt lat="42.215865" lon="2.597709">
        <ele>244</ele>
        <time>1970-01-01T05:07:37.000Z</time>
      </trkpt>
      <trkpt lat="42.215878" lon="2.597646">
        <ele>244</ele>
        <time>1970-01-01T05:07:38.000Z</time>
      </trkpt>
      <trkpt lat="42.21589" lon="2.597583">
        <ele>244</ele>
        <time>1970-01-01T05:07:39.000Z</time>
      </trkpt>
      <trkpt lat="42.215916" lon="2.597462">
        <ele>244</ele>
        <time>1970-01-01T05:07:40.000Z</time>
      </trkpt>
      <trkpt lat="42.215929" lon="2.597402">
        <ele>244</ele>
        <time>1970-01-01T05:07:41.000Z</time>
      </trkpt>
      <trkpt lat="42.215942" lon="2.597342">
        <ele>244</ele>
        <time>1970-01-01T05:07:42.000Z</time>
      </trkpt>
      <trkpt lat="42.215955" lon="2.597282">
        <ele>244</ele>
        <time>1970-01-01T05:07:43.000Z</time>
      </trkpt>
      <trkpt lat="42.215968" lon="2.597222">
        <ele>244</ele>
        <time>1970-01-01T05:07:44.000Z</time>
      </trkpt>
      <trkpt lat="42.21598" lon="2.597161">
        <ele>244</ele>
        <time>1970-01-01T05:07:45.000Z</time>
      </trkpt>
      <trkpt lat="42.215993" lon="2.597101">
        <ele>244</ele>
        <time>1970-01-01T05:07:46.000Z</time>
      </trkpt>
      <trkpt lat="42.216006" lon="2.597041">
        <ele>244</ele>
        <time>1970-01-01T05:07:47.000Z</time>
      </trkpt>
      <trkpt lat="42.216019" lon="2.596981">
        <ele>244</ele>
        <time>1970-01-01T05:07:48.000Z</time>
      </trkpt>
      <trkpt lat="42.216032" lon="2.596921">
        <ele>244</ele>
        <time>1970-01-01T05:07:49.000Z</time>
      </trkpt>
      <trkpt lat="42.216057" lon="2.596808">
        <ele>244</ele>
        <time>1970-01-01T05:07:50.000Z</time>
      </trkpt>
      <trkpt lat="42.216069" lon="2.596753">
        <ele>244</ele>
        <time>1970-01-01T05:07:52.000Z</time>
      </trkpt>
      <trkpt lat="42.216081" lon="2.596698">
        <ele>244</ele>
        <time>1970-01-01T05:07:53.000Z</time>
      </trkpt>
      <trkpt lat="42.216094" lon="2.596643">
        <ele>244</ele>
        <time>1970-01-01T05:07:54.000Z</time>
      </trkpt>
      <trkpt lat="42.216106" lon="2.596587">
        <ele>244</ele>
        <time>1970-01-01T05:07:55.000Z</time>
      </trkpt>
      <trkpt lat="42.216118" lon="2.596532">
        <ele>244</ele>
        <time>1970-01-01T05:07:56.000Z</time>
      </trkpt>
      <trkpt lat="42.21613" lon="2.596477">
        <ele>244</ele>
        <time>1970-01-01T05:07:58.000Z</time>
      </trkpt>
      <trkpt lat="42.216142" lon="2.596422">
        <ele>245</ele>
        <time>1970-01-01T05:07:59.000Z</time>
      </trkpt>
      <trkpt lat="42.216165" lon="2.596314">
        <ele>245</ele>
        <time>1970-01-01T05:08:00.000Z</time>
      </trkpt>
      <trkpt lat="42.216177" lon="2.59626">
        <ele>245</ele>
        <time>1970-01-01T05:08:01.000Z</time>
      </trkpt>
      <trkpt lat="42.216189" lon="2.596205">
        <ele>245</ele>
        <time>1970-01-01T05:08:02.000Z</time>
      </trkpt>
      <trkpt lat="42.216201" lon="2.59615">
        <ele>245</ele>
        <time>1970-01-01T05:08:03.000Z</time>
      </trkpt>
      <trkpt lat="42.216213" lon="2.596096">
        <ele>245</ele>
        <time>1970-01-01T05:08:04.000Z</time>
      </trkpt>
      <trkpt lat="42.216225" lon="2.596041">
        <ele>245</ele>
        <time>1970-01-01T05:08:05.000Z</time>
      </trkpt>
      <trkpt lat="42.216237" lon="2.595986">
        <ele>245</ele>
        <time>1970-01-01T05:08:07.000Z</time>
      </trkpt>
      <trkpt lat="42.216249" lon="2.595932">
        <ele>245</ele>
        <time>1970-01-01T05:08:08.000Z</time>
      </trkpt>
      <trkpt lat="42.216261" lon="2.595877">
        <ele>247</ele>
        <time>1970-01-01T05:08:09.000Z</time>
      </trkpt>
      <trkpt lat="42.216276" lon="2.5958">
        <ele>247</ele>
        <time>1970-01-01T05:08:10.000Z</time>
      </trkpt>
      <trkpt lat="42.216288" lon="2.595749">
        <ele>247</ele>
        <time>1970-01-01T05:08:11.000Z</time>
      </trkpt>
      <trkpt lat="42.216299" lon="2.595697">
        <ele>247</ele>
        <time>1970-01-01T05:08:12.000Z</time>
      </trkpt>
      <trkpt lat="42.216311" lon="2.595646">
        <ele>247</ele>
        <time>1970-01-01T05:08:13.000Z</time>
      </trkpt>
      <trkpt lat="42.216322" lon="2.595594">
        <ele>247</ele>
        <time>1970-01-01T05:08:14.000Z</time>
      </trkpt>
      <trkpt lat="42.216333" lon="2.595542">
        <ele>247</ele>
        <time>1970-01-01T05:08:16.000Z</time>
      </trkpt>
      <trkpt lat="42.216345" lon="2.595491">
        <ele>247</ele>
        <time>1970-01-01T05:08:18.000Z</time>
      </trkpt>
      <trkpt lat="42.216356" lon="2.595439">
        <ele>248</ele>
        <time>1970-01-01T05:08:19.000Z</time>
      </trkpt>
      <trkpt lat="42.216376" lon="2.59533">
        <ele>248</ele>
        <time>1970-01-01T05:08:20.000Z</time>
      </trkpt>
      <trkpt lat="42.216383" lon="2.595285">
        <ele>248</ele>
        <time>1970-01-01T05:08:21.000Z</time>
      </trkpt>
      <trkpt lat="42.216391" lon="2.595241">
        <ele>248</ele>
        <time>1970-01-01T05:08:22.000Z</time>
      </trkpt>
      <trkpt lat="42.216398" lon="2.595196">
        <ele>248</ele>
        <time>1970-01-01T05:08:23.000Z</time>
      </trkpt>
      <trkpt lat="42.216406" lon="2.595152">
        <ele>248</ele>
        <time>1970-01-01T05:08:24.000Z</time>
      </trkpt>
      <trkpt lat="42.216414" lon="2.595108">
        <ele>248</ele>
        <time>1970-01-01T05:08:25.000Z</time>
      </trkpt>
      <trkpt lat="42.216421" lon="2.595063">
        <ele>248</ele>
        <time>1970-01-01T05:08:26.000Z</time>
      </trkpt>
      <trkpt lat="42.216429" lon="2.595019">
        <ele>248</ele>
        <time>1970-01-01T05:08:27.000Z</time>
      </trkpt>
      <trkpt lat="42.216436" lon="2.594974">
        <ele>248</ele>
        <time>1970-01-01T05:08:28.000Z</time>
      </trkpt>
      <trkpt lat="42.216444" lon="2.59493">
        <ele>248</ele>
        <time>1970-01-01T05:08:29.000Z</time>
      </trkpt>
      <trkpt lat="42.216457" lon="2.594781">
        <ele>248</ele>
        <time>1970-01-01T05:08:30.000Z</time>
      </trkpt>
      <trkpt lat="42.216467" lon="2.594666">
        <ele>248</ele>
        <time>1970-01-01T05:08:31.000Z</time>
      </trkpt>
      <trkpt lat="42.216476" lon="2.59455">
        <ele>248</ele>
        <time>1970-01-01T05:08:33.000Z</time>
      </trkpt>
      <trkpt lat="42.216486" lon="2.594434">
        <ele>248</ele>
        <time>1970-01-01T05:08:34.000Z</time>
      </trkpt>
      <trkpt lat="42.216495" lon="2.594318">
        <ele>248</ele>
        <time>1970-01-01T05:08:36.000Z</time>
      </trkpt>
      <trkpt lat="42.216505" lon="2.594203">
        <ele>248</ele>
        <time>1970-01-01T05:08:38.000Z</time>
      </trkpt>
      <trkpt lat="42.216514" lon="2.594087">
        <ele>245</ele>
        <time>1970-01-01T05:08:39.000Z</time>
      </trkpt>
      <trkpt lat="42.216564" lon="2.593893">
        <ele>245</ele>
        <time>1970-01-01T05:08:40.000Z</time>
      </trkpt>
      <trkpt lat="42.216586" lon="2.593798">
        <ele>245</ele>
        <time>1970-01-01T05:08:41.000Z</time>
      </trkpt>
      <trkpt lat="42.216607" lon="2.593702">
        <ele>245</ele>
        <time>1970-01-01T05:08:42.000Z</time>
      </trkpt>
      <trkpt lat="42.216629" lon="2.593606">
        <ele>245</ele>
        <time>1970-01-01T05:08:44.000Z</time>
      </trkpt>
      <trkpt lat="42.21665" lon="2.59351">
        <ele>245</ele>
        <time>1970-01-01T05:08:45.000Z</time>
      </trkpt>
      <trkpt lat="42.216671" lon="2.593415">
        <ele>245</ele>
        <time>1970-01-01T05:08:46.000Z</time>
      </trkpt>
      <trkpt lat="42.216693" lon="2.593319">
        <ele>245</ele>
        <time>1970-01-01T05:08:48.000Z</time>
      </trkpt>
      <trkpt lat="42.216714" lon="2.593223">
        <ele>243</ele>
        <time>1970-01-01T05:08:49.000Z</time>
      </trkpt>
      <trkpt lat="42.21678" lon="2.593083">
        <ele>243</ele>
        <time>1970-01-01T05:08:51.000Z</time>
      </trkpt>
      <trkpt lat="42.216794" lon="2.593049">
        <ele>243</ele>
        <time>1970-01-01T05:08:52.000Z</time>
      </trkpt>
      <trkpt lat="42.216809" lon="2.593016">
        <ele>243</ele>
        <time>1970-01-01T05:08:53.000Z</time>
      </trkpt>
      <trkpt lat="42.216823" lon="2.592983">
        <ele>243</ele>
        <time>1970-01-01T05:08:54.000Z</time>
      </trkpt>
      <trkpt lat="42.216837" lon="2.592949">
        <ele>243</ele>
        <time>1970-01-01T05:08:55.000Z</time>
      </trkpt>
      <trkpt lat="42.216851" lon="2.592916">
        <ele>243</ele>
        <time>1970-01-01T05:08:56.000Z</time>
      </trkpt>
      <trkpt lat="42.216866" lon="2.592883">
        <ele>243</ele>
        <time>1970-01-01T05:08:57.000Z</time>
      </trkpt>
      <trkpt lat="42.21688" lon="2.592849">
        <ele>243</ele>
        <time>1970-01-01T05:08:58.000Z</time>
      </trkpt>
      <trkpt lat="42.216894" lon="2.592816">
        <ele>245</ele>
        <time>1970-01-01T05:08:59.000Z</time>
      </trkpt>
      <trkpt lat="42.216918" lon="2.592749">
        <ele>245</ele>
        <time>1970-01-01T05:09:00.000Z</time>
      </trkpt>
      <trkpt lat="42.21693" lon="2.592715">
        <ele>245</ele>
        <time>1970-01-01T05:09:01.000Z</time>
      </trkpt>
      <trkpt lat="42.216942" lon="2.59268">
        <ele>245</ele>
        <time>1970-01-01T05:09:02.000Z</time>
      </trkpt>
      <trkpt lat="42.216954" lon="2.592646">
        <ele>245</ele>
        <time>1970-01-01T05:09:03.000Z</time>
      </trkpt>
      <trkpt lat="42.216967" lon="2.592612">
        <ele>245</ele>
        <time>1970-01-01T05:09:05.000Z</time>
      </trkpt>
      <trkpt lat="42.216979" lon="2.592578">
        <ele>245</ele>
        <time>1970-01-01T05:09:06.000Z</time>
      </trkpt>
      <trkpt lat="42.216991" lon="2.592543">
        <ele>245</ele>
        <time>1970-01-01T05:09:07.000Z</time>
      </trkpt>
      <trkpt lat="42.217003" lon="2.592509">
        <ele>245</ele>
        <time>1970-01-01T05:09:08.000Z</time>
      </trkpt>
      <trkpt lat="42.217015" lon="2.592475">
        <ele>247</ele>
        <time>1970-01-01T05:09:09.000Z</time>
      </trkpt>
      <trkpt lat="42.217037" lon="2.592401">
        <ele>247</ele>
        <time>1970-01-01T05:09:10.000Z</time>
      </trkpt>
      <trkpt lat="42.217049" lon="2.592362">
        <ele>247</ele>
        <time>1970-01-01T05:09:11.000Z</time>
      </trkpt>
      <trkpt lat="42.21706" lon="2.592324">
        <ele>247</ele>
        <time>1970-01-01T05:09:12.000Z</time>
      </trkpt>
      <trkpt lat="42.217071" lon="2.592286">
        <ele>247</ele>
        <time>1970-01-01T05:09:13.000Z</time>
      </trkpt>
      <trkpt lat="42.217083" lon="2.592247">
        <ele>247</ele>
        <time>1970-01-01T05:09:14.000Z</time>
      </trkpt>
      <trkpt lat="42.217094" lon="2.592209">
        <ele>247</ele>
        <time>1970-01-01T05:09:15.000Z</time>
      </trkpt>
      <trkpt lat="42.217105" lon="2.592171">
        <ele>247</ele>
        <time>1970-01-01T05:09:16.000Z</time>
      </trkpt>
      <trkpt lat="42.217117" lon="2.592132">
        <ele>247</ele>
        <time>1970-01-01T05:09:17.000Z</time>
      </trkpt>
      <trkpt lat="42.217128" lon="2.592094">
        <ele>249</ele>
        <time>1970-01-01T05:09:19.000Z</time>
      </trkpt>
      <trkpt lat="42.217147" lon="2.592007">
        <ele>249</ele>
        <time>1970-01-01T05:09:20.000Z</time>
      </trkpt>
      <trkpt lat="42.217158" lon="2.591962">
        <ele>249</ele>
        <time>1970-01-01T05:09:21.000Z</time>
      </trkpt>
      <trkpt lat="42.217168" lon="2.591917">
        <ele>249</ele>
        <time>1970-01-01T05:09:23.000Z</time>
      </trkpt>
      <trkpt lat="42.217178" lon="2.591872">
        <ele>249</ele>
        <time>1970-01-01T05:09:24.000Z</time>
      </trkpt>
      <trkpt lat="42.217189" lon="2.591826">
        <ele>249</ele>
        <time>1970-01-01T05:09:25.000Z</time>
      </trkpt>
      <trkpt lat="42.217199" lon="2.591781">
        <ele>249</ele>
        <time>1970-01-01T05:09:26.000Z</time>
      </trkpt>
      <trkpt lat="42.217209" lon="2.591736">
        <ele>249</ele>
        <time>1970-01-01T05:09:27.000Z</time>
      </trkpt>
      <trkpt lat="42.21722" lon="2.591691">
        <ele>249</ele>
        <time>1970-01-01T05:09:28.000Z</time>
      </trkpt>
      <trkpt lat="42.21723" lon="2.591646">
        <ele>251</ele>
        <time>1970-01-01T05:09:29.000Z</time>
      </trkpt>
      <trkpt lat="42.217251" lon="2.591547">
        <ele>251</ele>
        <time>1970-01-01T05:09:30.000Z</time>
      </trkpt>
      <trkpt lat="42.217262" lon="2.591497">
        <ele>251</ele>
        <time>1970-01-01T05:09:31.000Z</time>
      </trkpt>
      <trkpt lat="42.217272" lon="2.591448">
        <ele>251</ele>
        <time>1970-01-01T05:09:32.000Z</time>
      </trkpt>
      <trkpt lat="42.217283" lon="2.591398">
        <ele>251</ele>
        <time>1970-01-01T05:09:33.000Z</time>
      </trkpt>
      <trkpt lat="42.217293" lon="2.591349">
        <ele>251</ele>
        <time>1970-01-01T05:09:34.000Z</time>
      </trkpt>
      <trkpt lat="42.217304" lon="2.591299">
        <ele>251</ele>
        <time>1970-01-01T05:09:36.000Z</time>
      </trkpt>
      <trkpt lat="42.217314" lon="2.59125">
        <ele>251</ele>
        <time>1970-01-01T05:09:37.000Z</time>
      </trkpt>
      <trkpt lat="42.217325" lon="2.5912">
        <ele>251</ele>
        <time>1970-01-01T05:09:38.000Z</time>
      </trkpt>
      <trkpt lat="42.217335" lon="2.591151">
        <ele>250</ele>
        <time>1970-01-01T05:09:39.000Z</time>
      </trkpt>
      <trkpt lat="42.217358" lon="2.591036">
        <ele>250</ele>
        <time>1970-01-01T05:09:40.000Z</time>
      </trkpt>
      <trkpt lat="42.217367" lon="2.590993">
        <ele>250</ele>
        <time>1970-01-01T05:09:41.000Z</time>
      </trkpt>
      <trkpt lat="42.217376" lon="2.59095">
        <ele>250</ele>
        <time>1970-01-01T05:09:42.000Z</time>
      </trkpt>
      <trkpt lat="42.217385" lon="2.590907">
        <ele>250</ele>
        <time>1970-01-01T05:09:43.000Z</time>
      </trkpt>
      <trkpt lat="42.217395" lon="2.590864">
        <ele>250</ele>
        <time>1970-01-01T05:09:44.000Z</time>
      </trkpt>
      <trkpt lat="42.217404" lon="2.590821">
        <ele>250</ele>
        <time>1970-01-01T05:09:45.000Z</time>
      </trkpt>
      <trkpt lat="42.217413" lon="2.590778">
        <ele>250</ele>
        <time>1970-01-01T05:09:46.000Z</time>
      </trkpt>
      <trkpt lat="42.217422" lon="2.590735">
        <ele>250</ele>
        <time>1970-01-01T05:09:47.000Z</time>
      </trkpt>
      <trkpt lat="42.217431" lon="2.590692">
        <ele>250</ele>
        <time>1970-01-01T05:09:48.000Z</time>
      </trkpt>
      <trkpt lat="42.21744" lon="2.590649">
        <ele>251</ele>
        <time>1970-01-01T05:09:49.000Z</time>
      </trkpt>
      <trkpt lat="42.217454" lon="2.590572">
        <ele>251</ele>
        <time>1970-01-01T05:09:50.000Z</time>
      </trkpt>
      <trkpt lat="42.217464" lon="2.590521">
        <ele>251</ele>
        <time>1970-01-01T05:09:51.000Z</time>
      </trkpt>
      <trkpt lat="42.217474" lon="2.590469">
        <ele>251</ele>
        <time>1970-01-01T05:09:52.000Z</time>
      </trkpt>
      <trkpt lat="42.217484" lon="2.590418">
        <ele>251</ele>
        <time>1970-01-01T05:09:53.000Z</time>
      </trkpt>
      <trkpt lat="42.217493" lon="2.590366">
        <ele>251</ele>
        <time>1970-01-01T05:09:55.000Z</time>
      </trkpt>
      <trkpt lat="42.217503" lon="2.590315">
        <ele>251</ele>
        <time>1970-01-01T05:09:56.000Z</time>
      </trkpt>
      <trkpt lat="42.217513" lon="2.590263">
        <ele>251</ele>
        <time>1970-01-01T05:09:57.000Z</time>
      </trkpt>
      <trkpt lat="42.217523" lon="2.590212">
        <ele>251</ele>
        <time>1970-01-01T05:09:58.000Z</time>
      </trkpt>
      <trkpt lat="42.217533" lon="2.59016">
        <ele>251</ele>
        <time>1970-01-01T05:09:59.000Z</time>
      </trkpt>
      <trkpt lat="42.217562" lon="2.590003">
        <ele>251</ele>
        <time>1970-01-01T05:10:01.000Z</time>
      </trkpt>
      <trkpt lat="42.217575" lon="2.589947">
        <ele>251</ele>
        <time>1970-01-01T05:10:02.000Z</time>
      </trkpt>
      <trkpt lat="42.217587" lon="2.589891">
        <ele>251</ele>
        <time>1970-01-01T05:10:04.000Z</time>
      </trkpt>
      <trkpt lat="42.217599" lon="2.589836">
        <ele>251</ele>
        <time>1970-01-01T05:10:06.000Z</time>
      </trkpt>
      <trkpt lat="42.217611" lon="2.58978">
        <ele>251</ele>
        <time>1970-01-01T05:10:07.000Z</time>
      </trkpt>
      <trkpt lat="42.217624" lon="2.589724">
        <ele>251</ele>
        <time>1970-01-01T05:10:08.000Z</time>
      </trkpt>
      <trkpt lat="42.217636" lon="2.589668">
        <ele>251</ele>
        <time>1970-01-01T05:10:09.000Z</time>
      </trkpt>
      <trkpt lat="42.217654" lon="2.589557">
        <ele>251</ele>
        <time>1970-01-01T05:10:10.000Z</time>
      </trkpt>
      <trkpt lat="42.217663" lon="2.589512">
        <ele>251</ele>
        <time>1970-01-01T05:10:12.000Z</time>
      </trkpt>
      <trkpt lat="42.217673" lon="2.589468">
        <ele>251</ele>
        <time>1970-01-01T05:10:13.000Z</time>
      </trkpt>
      <trkpt lat="42.217683" lon="2.589423">
        <ele>251</ele>
        <time>1970-01-01T05:10:14.000Z</time>
      </trkpt>
      <trkpt lat="42.217692" lon="2.589379">
        <ele>251</ele>
        <time>1970-01-01T05:10:15.000Z</time>
      </trkpt>
      <trkpt lat="42.217702" lon="2.589334">
        <ele>251</ele>
        <time>1970-01-01T05:10:16.000Z</time>
      </trkpt>
      <trkpt lat="42.217712" lon="2.58929">
        <ele>251</ele>
        <time>1970-01-01T05:10:17.000Z</time>
      </trkpt>
      <trkpt lat="42.217721" lon="2.589245">
        <ele>251</ele>
        <time>1970-01-01T05:10:18.000Z</time>
      </trkpt>
      <trkpt lat="42.217731" lon="2.589201">
        <ele>251</ele>
        <time>1970-01-01T05:10:19.000Z</time>
      </trkpt>
      <trkpt lat="42.217749" lon="2.58911">
        <ele>251</ele>
        <time>1970-01-01T05:10:20.000Z</time>
      </trkpt>
      <trkpt lat="42.217759" lon="2.589063">
        <ele>251</ele>
        <time>1970-01-01T05:10:22.000Z</time>
      </trkpt>
      <trkpt lat="42.217769" lon="2.589015">
        <ele>251</ele>
        <time>1970-01-01T05:10:23.000Z</time>
      </trkpt>
      <trkpt lat="42.21778" lon="2.588967">
        <ele>251</ele>
        <time>1970-01-01T05:10:24.000Z</time>
      </trkpt>
      <trkpt lat="42.21779" lon="2.588919">
        <ele>251</ele>
        <time>1970-01-01T05:10:25.000Z</time>
      </trkpt>
      <trkpt lat="42.2178" lon="2.588872">
        <ele>251</ele>
        <time>1970-01-01T05:10:27.000Z</time>
      </trkpt>
      <trkpt lat="42.21781" lon="2.588824">
        <ele>251</ele>
        <time>1970-01-01T05:10:28.000Z</time>
      </trkpt>
      <trkpt lat="42.21782" lon="2.588776">
        <ele>251</ele>
        <time>1970-01-01T05:10:29.000Z</time>
      </trkpt>
      <trkpt lat="42.217844" lon="2.588655">
        <ele>251</ele>
        <time>1970-01-01T05:10:30.000Z</time>
      </trkpt>
      <trkpt lat="42.217855" lon="2.588604">
        <ele>251</ele>
        <time>1970-01-01T05:10:32.000Z</time>
      </trkpt>
      <trkpt lat="42.217865" lon="2.588554">
        <ele>251</ele>
        <time>1970-01-01T05:10:33.000Z</time>
      </trkpt>
      <trkpt lat="42.217876" lon="2.588504">
        <ele>251</ele>
        <time>1970-01-01T05:10:35.000Z</time>
      </trkpt>
      <trkpt lat="42.217886" lon="2.588453">
        <ele>251</ele>
        <time>1970-01-01T05:10:36.000Z</time>
      </trkpt>
      <trkpt lat="42.217896" lon="2.588403">
        <ele>251</ele>
        <time>1970-01-01T05:10:37.000Z</time>
      </trkpt>
      <trkpt lat="42.217907" lon="2.588352">
        <ele>251</ele>
        <time>1970-01-01T05:10:38.000Z</time>
      </trkpt>
      <trkpt lat="42.217917" lon="2.588302">
        <ele>251</ele>
        <time>1970-01-01T05:10:39.000Z</time>
      </trkpt>
      <trkpt lat="42.217941" lon="2.588171">
        <ele>251</ele>
        <time>1970-01-01T05:10:40.000Z</time>
      </trkpt>
      <trkpt lat="42.217953" lon="2.588122">
        <ele>251</ele>
        <time>1970-01-01T05:10:42.000Z</time>
      </trkpt>
      <trkpt lat="42.217964" lon="2.588073">
        <ele>251</ele>
        <time>1970-01-01T05:10:43.000Z</time>
      </trkpt>
      <trkpt lat="42.217975" lon="2.588024">
        <ele>251</ele>
        <time>1970-01-01T05:10:44.000Z</time>
      </trkpt>
      <trkpt lat="42.217987" lon="2.587974">
        <ele>251</ele>
        <time>1970-01-01T05:10:45.000Z</time>
      </trkpt>
      <trkpt lat="42.217998" lon="2.587925">
        <ele>251</ele>
        <time>1970-01-01T05:10:46.000Z</time>
      </trkpt>
      <trkpt lat="42.218009" lon="2.587876">
        <ele>251</ele>
        <time>1970-01-01T05:10:47.000Z</time>
      </trkpt>
      <trkpt lat="42.218021" lon="2.587827">
        <ele>251</ele>
        <time>1970-01-01T05:10:48.000Z</time>
      </trkpt>
      <trkpt lat="42.218032" lon="2.587778">
        <ele>251</ele>
        <time>1970-01-01T05:10:49.000Z</time>
      </trkpt>
      <trkpt lat="42.218055" lon="2.587677">
        <ele>251</ele>
        <time>1970-01-01T05:10:50.000Z</time>
      </trkpt>
      <trkpt lat="42.218067" lon="2.587626">
        <ele>251</ele>
        <time>1970-01-01T05:10:51.000Z</time>
      </trkpt>
      <trkpt lat="42.218079" lon="2.587576">
        <ele>251</ele>
        <time>1970-01-01T05:10:52.000Z</time>
      </trkpt>
      <trkpt lat="42.218091" lon="2.587525">
        <ele>251</ele>
        <time>1970-01-01T05:10:54.000Z</time>
      </trkpt>
      <trkpt lat="42.218102" lon="2.587475">
        <ele>251</ele>
        <time>1970-01-01T05:10:55.000Z</time>
      </trkpt>
      <trkpt lat="42.218114" lon="2.587424">
        <ele>251</ele>
        <time>1970-01-01T05:10:56.000Z</time>
      </trkpt>
      <trkpt lat="42.218126" lon="2.587374">
        <ele>251</ele>
        <time>1970-01-01T05:10:57.000Z</time>
      </trkpt>
      <trkpt lat="42.218138" lon="2.587323">
        <ele>251</ele>
        <time>1970-01-01T05:10:58.000Z</time>
      </trkpt>
      <trkpt lat="42.21815" lon="2.587273">
        <ele>253</ele>
        <time>1970-01-01T05:10:59.000Z</time>
      </trkpt>
      <trkpt lat="42.218171" lon="2.587175">
        <ele>253</ele>
        <time>1970-01-01T05:11:00.000Z</time>
      </trkpt>
      <trkpt lat="42.218182" lon="2.587129">
        <ele>253</ele>
        <time>1970-01-01T05:11:01.000Z</time>
      </trkpt>
      <trkpt lat="42.218192" lon="2.587084">
        <ele>253</ele>
        <time>1970-01-01T05:11:02.000Z</time>
      </trkpt>
      <trkpt lat="42.218203" lon="2.587038">
        <ele>253</ele>
        <time>1970-01-01T05:11:03.000Z</time>
      </trkpt>
      <trkpt lat="42.218213" lon="2.586993">
        <ele>253</ele>
        <time>1970-01-01T05:11:04.000Z</time>
      </trkpt>
      <trkpt lat="42.218223" lon="2.586948">
        <ele>253</ele>
        <time>1970-01-01T05:11:05.000Z</time>
      </trkpt>
      <trkpt lat="42.218234" lon="2.586902">
        <ele>253</ele>
        <time>1970-01-01T05:11:06.000Z</time>
      </trkpt>
      <trkpt lat="42.218244" lon="2.586857">
        <ele>253</ele>
        <time>1970-01-01T05:11:07.000Z</time>
      </trkpt>
      <trkpt lat="42.218255" lon="2.586811">
        <ele>253</ele>
        <time>1970-01-01T05:11:08.000Z</time>
      </trkpt>
      <trkpt lat="42.218265" lon="2.586766">
        <ele>253</ele>
        <time>1970-01-01T05:11:09.000Z</time>
      </trkpt>
      <trkpt lat="42.218288" lon="2.58667">
        <ele>253</ele>
        <time>1970-01-01T05:11:10.000Z</time>
      </trkpt>
      <trkpt lat="42.218299" lon="2.586623">
        <ele>253</ele>
        <time>1970-01-01T05:11:11.000Z</time>
      </trkpt>
      <trkpt lat="42.21831" lon="2.586577">
        <ele>253</ele>
        <time>1970-01-01T05:11:12.000Z</time>
      </trkpt>
      <trkpt lat="42.218321" lon="2.58653">
        <ele>253</ele>
        <time>1970-01-01T05:11:13.000Z</time>
      </trkpt>
      <trkpt lat="42.218332" lon="2.586484">
        <ele>253</ele>
        <time>1970-01-01T05:11:14.000Z</time>
      </trkpt>
      <trkpt lat="42.218343" lon="2.586437">
        <ele>253</ele>
        <time>1970-01-01T05:11:15.000Z</time>
      </trkpt>
      <trkpt lat="42.218354" lon="2.586391">
        <ele>253</ele>
        <time>1970-01-01T05:11:16.000Z</time>
      </trkpt>
      <trkpt lat="42.218365" lon="2.586344">
        <ele>253</ele>
        <time>1970-01-01T05:11:17.000Z</time>
      </trkpt>
      <trkpt lat="42.218376" lon="2.586298">
        <ele>253</ele>
        <time>1970-01-01T05:11:18.000Z</time>
      </trkpt>
      <trkpt lat="42.218387" lon="2.586251">
        <ele>253</ele>
        <time>1970-01-01T05:11:19.000Z</time>
      </trkpt>
      <trkpt lat="42.218411" lon="2.586156">
        <ele>253</ele>
        <time>1970-01-01T05:11:20.000Z</time>
      </trkpt>
      <trkpt lat="42.218421" lon="2.58611">
        <ele>253</ele>
        <time>1970-01-01T05:11:21.000Z</time>
      </trkpt>
      <trkpt lat="42.218432" lon="2.586065">
        <ele>253</ele>
        <time>1970-01-01T05:11:22.000Z</time>
      </trkpt>
      <trkpt lat="42.218442" lon="2.58602">
        <ele>253</ele>
        <time>1970-01-01T05:11:23.000Z</time>
      </trkpt>
      <trkpt lat="42.218453" lon="2.585975">
        <ele>253</ele>
        <time>1970-01-01T05:11:24.000Z</time>
      </trkpt>
      <trkpt lat="42.218464" lon="2.585929">
        <ele>253</ele>
        <time>1970-01-01T05:11:25.000Z</time>
      </trkpt>
      <trkpt lat="42.218474" lon="2.585884">
        <ele>253</ele>
        <time>1970-01-01T05:11:26.000Z</time>
      </trkpt>
      <trkpt lat="42.218485" lon="2.585839">
        <ele>253</ele>
        <time>1970-01-01T05:11:27.000Z</time>
      </trkpt>
      <trkpt lat="42.218495" lon="2.585793">
        <ele>253</ele>
        <time>1970-01-01T05:11:28.000Z</time>
      </trkpt>
      <trkpt lat="42.218506" lon="2.585748">
        <ele>254</ele>
        <time>1970-01-01T05:11:29.000Z</time>
      </trkpt>
      <trkpt lat="42.218532" lon="2.585632">
        <ele>254</ele>
        <time>1970-01-01T05:11:30.000Z</time>
      </trkpt>
      <trkpt lat="42.218541" lon="2.585593">
        <ele>254</ele>
        <time>1970-01-01T05:11:31.000Z</time>
      </trkpt>
      <trkpt lat="42.218549" lon="2.585555">
        <ele>254</ele>
        <time>1970-01-01T05:11:32.000Z</time>
      </trkpt>
      <trkpt lat="42.218558" lon="2.585516">
        <ele>254</ele>
        <time>1970-01-01T05:11:33.000Z</time>
      </trkpt>
      <trkpt lat="42.218566" lon="2.585477">
        <ele>254</ele>
        <time>1970-01-01T05:11:34.000Z</time>
      </trkpt>
      <trkpt lat="42.218574" lon="2.585438">
        <ele>254</ele>
        <time>1970-01-01T05:11:35.000Z</time>
      </trkpt>
      <trkpt lat="42.218583" lon="2.585399">
        <ele>254</ele>
        <time>1970-01-01T05:11:36.000Z</time>
      </trkpt>
      <trkpt lat="42.218591" lon="2.585361">
        <ele>254</ele>
        <time>1970-01-01T05:11:37.000Z</time>
      </trkpt>
      <trkpt lat="42.2186" lon="2.585322">
        <ele>254</ele>
        <time>1970-01-01T05:11:38.000Z</time>
      </trkpt>
      <trkpt lat="42.218608" lon="2.585283">
        <ele>254</ele>
        <time>1970-01-01T05:11:39.000Z</time>
      </trkpt>
      <trkpt lat="42.218623" lon="2.585208">
        <ele>254</ele>
        <time>1970-01-01T05:11:40.000Z</time>
      </trkpt>
      <trkpt lat="42.218635" lon="2.585159">
        <ele>254</ele>
        <time>1970-01-01T05:11:41.000Z</time>
      </trkpt>
      <trkpt lat="42.218646" lon="2.585109">
        <ele>254</ele>
        <time>1970-01-01T05:11:42.000Z</time>
      </trkpt>
      <trkpt lat="42.218657" lon="2.58506">
        <ele>254</ele>
        <time>1970-01-01T05:11:43.000Z</time>
      </trkpt>
      <trkpt lat="42.218669" lon="2.58501">
        <ele>254</ele>
        <time>1970-01-01T05:11:44.000Z</time>
      </trkpt>
      <trkpt lat="42.21868" lon="2.584961">
        <ele>254</ele>
        <time>1970-01-01T05:11:45.000Z</time>
      </trkpt>
      <trkpt lat="42.218691" lon="2.584911">
        <ele>254</ele>
        <time>1970-01-01T05:11:47.000Z</time>
      </trkpt>
      <trkpt lat="42.218703" lon="2.584862">
        <ele>254</ele>
        <time>1970-01-01T05:11:48.000Z</time>
      </trkpt>
      <trkpt lat="42.218714" lon="2.584812">
        <ele>254</ele>
        <time>1970-01-01T05:11:49.000Z</time>
      </trkpt>
      <trkpt lat="42.218733" lon="2.584728">
        <ele>254</ele>
        <time>1970-01-01T05:11:50.000Z</time>
      </trkpt>
      <trkpt lat="42.218746" lon="2.584669">
        <ele>254</ele>
        <time>1970-01-01T05:11:51.000Z</time>
      </trkpt>
      <trkpt lat="42.218759" lon="2.58461">
        <ele>254</ele>
        <time>1970-01-01T05:11:53.000Z</time>
      </trkpt>
      <trkpt lat="42.218772" lon="2.584551">
        <ele>254</ele>
        <time>1970-01-01T05:11:54.000Z</time>
      </trkpt>
      <trkpt lat="42.218786" lon="2.584491">
        <ele>254</ele>
        <time>1970-01-01T05:11:55.000Z</time>
      </trkpt>
      <trkpt lat="42.218799" lon="2.584432">
        <ele>254</ele>
        <time>1970-01-01T05:11:56.000Z</time>
      </trkpt>
      <trkpt lat="42.218812" lon="2.584373">
        <ele>254</ele>
        <time>1970-01-01T05:11:57.000Z</time>
      </trkpt>
      <trkpt lat="42.218825" lon="2.584314">
        <ele>254</ele>
        <time>1970-01-01T05:11:58.000Z</time>
      </trkpt>
      <trkpt lat="42.218838" lon="2.584255">
        <ele>254</ele>
        <time>1970-01-01T05:11:59.000Z</time>
      </trkpt>
      <trkpt lat="42.21886" lon="2.58415">
        <ele>254</ele>
        <time>1970-01-01T05:12:00.000Z</time>
      </trkpt>
      <trkpt lat="42.21887" lon="2.5841">
        <ele>254</ele>
        <time>1970-01-01T05:12:01.000Z</time>
      </trkpt>
      <trkpt lat="42.21888" lon="2.584049">
        <ele>254</ele>
        <time>1970-01-01T05:12:02.000Z</time>
      </trkpt>
      <trkpt lat="42.21889" lon="2.583998">
        <ele>254</ele>
        <time>1970-01-01T05:12:03.000Z</time>
      </trkpt>
      <trkpt lat="42.218901" lon="2.583948">
        <ele>254</ele>
        <time>1970-01-01T05:12:04.000Z</time>
      </trkpt>
      <trkpt lat="42.218911" lon="2.583897">
        <ele>254</ele>
        <time>1970-01-01T05:12:05.000Z</time>
      </trkpt>
      <trkpt lat="42.218921" lon="2.583846">
        <ele>254</ele>
        <time>1970-01-01T05:12:06.000Z</time>
      </trkpt>
      <trkpt lat="42.218931" lon="2.583795">
        <ele>254</ele>
        <time>1970-01-01T05:12:07.000Z</time>
      </trkpt>
      <trkpt lat="42.218941" lon="2.583745">
        <ele>254</ele>
        <time>1970-01-01T05:12:09.000Z</time>
      </trkpt>
      <trkpt lat="42.218951" lon="2.583694">
        <ele>255</ele>
        <time>1970-01-01T05:12:10.000Z</time>
      </trkpt>
      <trkpt lat="42.218976" lon="2.583568">
        <ele>255</ele>
        <time>1970-01-01T05:12:11.000Z</time>
      </trkpt>
      <trkpt lat="42.218985" lon="2.583522">
        <ele>255</ele>
        <time>1970-01-01T05:12:12.000Z</time>
      </trkpt>
      <trkpt lat="42.218993" lon="2.583477">
        <ele>255</ele>
        <time>1970-01-01T05:12:13.000Z</time>
      </trkpt>
      <trkpt lat="42.219002" lon="2.583431">
        <ele>255</ele>
        <time>1970-01-01T05:12:14.000Z</time>
      </trkpt>
      <trkpt lat="42.219011" lon="2.583385">
        <ele>255</ele>
        <time>1970-01-01T05:12:15.000Z</time>
      </trkpt>
      <trkpt lat="42.21902" lon="2.583339">
        <ele>255</ele>
        <time>1970-01-01T05:12:16.000Z</time>
      </trkpt>
      <trkpt lat="42.219028" lon="2.583294">
        <ele>255</ele>
        <time>1970-01-01T05:12:17.000Z</time>
      </trkpt>
      <trkpt lat="42.219037" lon="2.583248">
        <ele>255</ele>
        <time>1970-01-01T05:12:18.000Z</time>
      </trkpt>
      <trkpt lat="42.219046" lon="2.583202">
        <ele>255</ele>
        <time>1970-01-01T05:12:19.000Z</time>
      </trkpt>
      <trkpt lat="42.219059" lon="2.583125">
        <ele>255</ele>
        <time>1970-01-01T05:12:20.000Z</time>
      </trkpt>
      <trkpt lat="42.219069" lon="2.583075">
        <ele>255</ele>
        <time>1970-01-01T05:12:21.000Z</time>
      </trkpt>
      <trkpt lat="42.219078" lon="2.583024">
        <ele>255</ele>
        <time>1970-01-01T05:12:22.000Z</time>
      </trkpt>
      <trkpt lat="42.219088" lon="2.582974">
        <ele>255</ele>
        <time>1970-01-01T05:12:23.000Z</time>
      </trkpt>
      <trkpt lat="42.219097" lon="2.582924">
        <ele>255</ele>
        <time>1970-01-01T05:12:24.000Z</time>
      </trkpt>
      <trkpt lat="42.219106" lon="2.582874">
        <ele>255</ele>
        <time>1970-01-01T05:12:26.000Z</time>
      </trkpt>
      <trkpt lat="42.219116" lon="2.582823">
        <ele>255</ele>
        <time>1970-01-01T05:12:27.000Z</time>
      </trkpt>
      <trkpt lat="42.219125" lon="2.582773">
        <ele>256</ele>
        <time>1970-01-01T05:12:29.000Z</time>
      </trkpt>
      <trkpt lat="42.219137" lon="2.582702">
        <ele>256</ele>
        <time>1970-01-01T05:12:30.000Z</time>
      </trkpt>
      <trkpt lat="42.219144" lon="2.582669">
        <ele>256</ele>
        <time>1970-01-01T05:12:31.000Z</time>
      </trkpt>
      <trkpt lat="42.21915" lon="2.582635">
        <ele>256</ele>
        <time>1970-01-01T05:12:32.000Z</time>
      </trkpt>
      <trkpt lat="42.219156" lon="2.582602">
        <ele>256</ele>
        <time>1970-01-01T05:12:34.000Z</time>
      </trkpt>
      <trkpt lat="42.219163" lon="2.582568">
        <ele>256</ele>
        <time>1970-01-01T05:12:35.000Z</time>
      </trkpt>
      <trkpt lat="42.219169" lon="2.582535">
        <ele>256</ele>
        <time>1970-01-01T05:12:36.000Z</time>
      </trkpt>
      <trkpt lat="42.219175" lon="2.582501">
        <ele>256</ele>
        <time>1970-01-01T05:12:37.000Z</time>
      </trkpt>
      <trkpt lat="42.219182" lon="2.582468">
        <ele>256</ele>
        <time>1970-01-01T05:12:38.000Z</time>
      </trkpt>
      <trkpt lat="42.219188" lon="2.582434">
        <ele>258</ele>
        <time>1970-01-01T05:12:39.000Z</time>
      </trkpt>
      <trkpt lat="42.219207" lon="2.582335">
        <ele>258</ele>
        <time>1970-01-01T05:12:41.000Z</time>
      </trkpt>
      <trkpt lat="42.219213" lon="2.582298">
        <ele>258</ele>
        <time>1970-01-01T05:12:42.000Z</time>
      </trkpt>
      <trkpt lat="42.219219" lon="2.582261">
        <ele>258</ele>
        <time>1970-01-01T05:12:43.000Z</time>
      </trkpt>
      <trkpt lat="42.219225" lon="2.582224">
        <ele>258</ele>
        <time>1970-01-01T05:12:44.000Z</time>
      </trkpt>
      <trkpt lat="42.219231" lon="2.582187">
        <ele>258</ele>
        <time>1970-01-01T05:12:46.000Z</time>
      </trkpt>
      <trkpt lat="42.219237" lon="2.58215">
        <ele>258</ele>
        <time>1970-01-01T05:12:48.000Z</time>
      </trkpt>
      <trkpt lat="42.219243" lon="2.582113">
        <ele>260</ele>
        <time>1970-01-01T05:12:49.000Z</time>
      </trkpt>
      <trkpt lat="42.219252" lon="2.582039">
        <ele>260</ele>
        <time>1970-01-01T05:12:50.000Z</time>
      </trkpt>
      <trkpt lat="42.219255" lon="2.582011">
        <ele>260</ele>
        <time>1970-01-01T05:12:51.000Z</time>
      </trkpt>
      <trkpt lat="42.219258" lon="2.581983">
        <ele>260</ele>
        <time>1970-01-01T05:12:52.000Z</time>
      </trkpt>
      <trkpt lat="42.219261" lon="2.581956">
        <ele>260</ele>
        <time>1970-01-01T05:12:53.000Z</time>
      </trkpt>
      <trkpt lat="42.219264" lon="2.581928">
        <ele>260</ele>
        <time>1970-01-01T05:12:55.000Z</time>
      </trkpt>
      <trkpt lat="42.219267" lon="2.5819">
        <ele>260</ele>
        <time>1970-01-01T05:12:57.000Z</time>
      </trkpt>
      <trkpt lat="42.21927" lon="2.581872">
        <ele>260</ele>
        <time>1970-01-01T05:12:58.000Z</time>
      </trkpt>
      <trkpt lat="42.219273" lon="2.581844">
        <ele>262</ele>
        <time>1970-01-01T05:12:59.000Z</time>
      </trkpt>
      <trkpt lat="42.219292" lon="2.581787">
        <ele>262</ele>
        <time>1970-01-01T05:13:00.000Z</time>
      </trkpt>
      <trkpt lat="42.219305" lon="2.581757">
        <ele>262</ele>
        <time>1970-01-01T05:13:01.000Z</time>
      </trkpt>
      <trkpt lat="42.219318" lon="2.581726">
        <ele>262</ele>
        <time>1970-01-01T05:13:03.000Z</time>
      </trkpt>
      <trkpt lat="42.219331" lon="2.581695">
        <ele>262</ele>
        <time>1970-01-01T05:13:05.000Z</time>
      </trkpt>
      <trkpt lat="42.219344" lon="2.581664">
        <ele>262</ele>
        <time>1970-01-01T05:13:07.000Z</time>
      </trkpt>
      <trkpt lat="42.219357" lon="2.581634">
        <ele>262</ele>
        <time>1970-01-01T05:13:08.000Z</time>
      </trkpt>
      <trkpt lat="42.21937" lon="2.581603">
        <ele>264</ele>
        <time>1970-01-01T05:13:09.000Z</time>
      </trkpt>
      <trkpt lat="42.219409" lon="2.581565">
        <ele>264</ele>
        <time>1970-01-01T05:13:10.000Z</time>
      </trkpt>
      <trkpt lat="42.219427" lon="2.581561">
        <ele>264</ele>
        <time>1970-01-01T05:13:12.000Z</time>
      </trkpt>
      <trkpt lat="42.219444" lon="2.581556">
        <ele>264</ele>
        <time>1970-01-01T05:13:13.000Z</time>
      </trkpt>
      <trkpt lat="42.219462" lon="2.581552">
        <ele>264</ele>
        <time>1970-01-01T05:13:14.000Z</time>
      </trkpt>
      <trkpt lat="42.21948" lon="2.581548">
        <ele>264</ele>
        <time>1970-01-01T05:13:15.000Z</time>
      </trkpt>
      <trkpt lat="42.219498" lon="2.581544">
        <ele>264</ele>
        <time>1970-01-01T05:13:16.000Z</time>
      </trkpt>
      <trkpt lat="42.219515" lon="2.581539">
        <ele>264</ele>
        <time>1970-01-01T05:13:17.000Z</time>
      </trkpt>
      <trkpt lat="42.219533" lon="2.581535">
        <ele>264</ele>
        <time>1970-01-01T05:13:18.000Z</time>
      </trkpt>
      <trkpt lat="42.219551" lon="2.581531">
        <ele>264</ele>
        <time>1970-01-01T05:13:19.000Z</time>
      </trkpt>
      <trkpt lat="42.219581" lon="2.581594">
        <ele>264</ele>
        <time>1970-01-01T05:13:20.000Z</time>
      </trkpt>
      <trkpt lat="42.219597" lon="2.581634">
        <ele>264</ele>
        <time>1970-01-01T05:13:22.000Z</time>
      </trkpt>
      <trkpt lat="42.219612" lon="2.581674">
        <ele>264</ele>
        <time>1970-01-01T05:13:24.000Z</time>
      </trkpt>
      <trkpt lat="42.219628" lon="2.581714">
        <ele>264</ele>
        <time>1970-01-01T05:13:25.000Z</time>
      </trkpt>
      <trkpt lat="42.219643" lon="2.581755">
        <ele>264</ele>
        <time>1970-01-01T05:13:26.000Z</time>
      </trkpt>
      <trkpt lat="42.219658" lon="2.581795">
        <ele>264</ele>
        <time>1970-01-01T05:13:27.000Z</time>
      </trkpt>
      <trkpt lat="42.219674" lon="2.581835">
        <ele>264</ele>
        <time>1970-01-01T05:13:28.000Z</time>
      </trkpt>
      <trkpt lat="42.219689" lon="2.581875">
        <ele>264</ele>
        <time>1970-01-01T05:13:29.000Z</time>
      </trkpt>
      <trkpt lat="42.219763" lon="2.581944">
        <ele>264</ele>
        <time>1970-01-01T05:13:30.000Z</time>
      </trkpt>
      <trkpt lat="42.219817" lon="2.581974">
        <ele>264</ele>
        <time>1970-01-01T05:13:32.000Z</time>
      </trkpt>
      <trkpt lat="42.219872" lon="2.582003">
        <ele>264</ele>
        <time>1970-01-01T05:13:34.000Z</time>
      </trkpt>
      <trkpt lat="42.219926" lon="2.582033">
        <ele>264</ele>
        <time>1970-01-01T05:13:35.000Z</time>
      </trkpt>
      <trkpt lat="42.219981" lon="2.582063">
        <ele>264</ele>
        <time>1970-01-01T05:13:37.000Z</time>
      </trkpt>
      <trkpt lat="42.220035" lon="2.582093">
        <ele>263</ele>
        <time>1970-01-01T05:13:39.000Z</time>
      </trkpt>
      <trkpt lat="42.220141" lon="2.582039">
        <ele>263</ele>
        <time>1970-01-01T05:13:41.000Z</time>
      </trkpt>
      <trkpt lat="42.220201" lon="2.582001">
        <ele>263</ele>
        <time>1970-01-01T05:13:42.000Z</time>
      </trkpt>
      <trkpt lat="42.22026" lon="2.581963">
        <ele>263</ele>
        <time>1970-01-01T05:13:44.000Z</time>
      </trkpt>
      <trkpt lat="42.220319" lon="2.581925">
        <ele>263</ele>
        <time>1970-01-01T05:13:45.000Z</time>
      </trkpt>
      <trkpt lat="42.220378" lon="2.581887">
        <ele>263</ele>
        <time>1970-01-01T05:13:46.000Z</time>
      </trkpt>
      <trkpt lat="42.220438" lon="2.581849">
        <ele>263</ele>
        <time>1970-01-01T05:13:47.000Z</time>
      </trkpt>
      <trkpt lat="42.220497" lon="2.581811">
        <ele>263</ele>
        <time>1970-01-01T05:13:49.000Z</time>
      </trkpt>
      <trkpt lat="42.22059" lon="2.581765">
        <ele>263</ele>
        <time>1970-01-01T05:13:50.000Z</time>
      </trkpt>
      <trkpt lat="42.220635" lon="2.58174">
        <ele>263</ele>
        <time>1970-01-01T05:13:51.000Z</time>
      </trkpt>
      <trkpt lat="42.220679" lon="2.581714">
        <ele>263</ele>
        <time>1970-01-01T05:13:52.000Z</time>
      </trkpt>
      <trkpt lat="42.220723" lon="2.581689">
        <ele>263</ele>
        <time>1970-01-01T05:13:53.000Z</time>
      </trkpt>
      <trkpt lat="42.220767" lon="2.581664">
        <ele>263</ele>
        <time>1970-01-01T05:13:54.000Z</time>
      </trkpt>
      <trkpt lat="42.220812" lon="2.581639">
        <ele>263</ele>
        <time>1970-01-01T05:13:56.000Z</time>
      </trkpt>
      <trkpt lat="42.220856" lon="2.581613">
        <ele>263</ele>
        <time>1970-01-01T05:13:57.000Z</time>
      </trkpt>
      <trkpt lat="42.2209" lon="2.581588">
        <ele>262</ele>
        <time>1970-01-01T05:13:59.000Z</time>
      </trkpt>
      <trkpt lat="42.220994" lon="2.581523">
        <ele>262</ele>
        <time>1970-01-01T05:14:01.000Z</time>
      </trkpt>
      <trkpt lat="42.221025" lon="2.581503">
        <ele>262</ele>
        <time>1970-01-01T05:14:03.000Z</time>
      </trkpt>
      <trkpt lat="42.221055" lon="2.581483">
        <ele>262</ele>
        <time>1970-01-01T05:14:04.000Z</time>
      </trkpt>
      <trkpt lat="42.221086" lon="2.581464">
        <ele>262</ele>
        <time>1970-01-01T05:14:05.000Z</time>
      </trkpt>
      <trkpt lat="42.221117" lon="2.581444">
        <ele>262</ele>
        <time>1970-01-01T05:14:06.000Z</time>
      </trkpt>
      <trkpt lat="42.221148" lon="2.581424">
        <ele>262</ele>
        <time>1970-01-01T05:14:07.000Z</time>
      </trkpt>
      <trkpt lat="42.221178" lon="2.581404">
        <ele>262</ele>
        <time>1970-01-01T05:14:08.000Z</time>
      </trkpt>
      <trkpt lat="42.221209" lon="2.581384">
        <ele>263</ele>
        <time>1970-01-01T05:14:09.000Z</time>
      </trkpt>
      <trkpt lat="42.221199" lon="2.581287">
        <ele>263</ele>
        <time>1970-01-01T05:14:10.000Z</time>
      </trkpt>
      <trkpt lat="42.221171" lon="2.58123">
        <ele>263</ele>
        <time>1970-01-01T05:14:12.000Z</time>
      </trkpt>
      <trkpt lat="42.221142" lon="2.581172">
        <ele>263</ele>
        <time>1970-01-01T05:14:13.000Z</time>
      </trkpt>
      <trkpt lat="42.221114" lon="2.581114">
        <ele>263</ele>
        <time>1970-01-01T05:14:15.000Z</time>
      </trkpt>
      <trkpt lat="42.221085" lon="2.581056">
        <ele>263</ele>
        <time>1970-01-01T05:14:17.000Z</time>
      </trkpt>
      <trkpt lat="42.221057" lon="2.580999">
        <ele>263</ele>
        <time>1970-01-01T05:14:18.000Z</time>
      </trkpt>
      <trkpt lat="42.221028" lon="2.580941">
        <ele>264</ele>
        <time>1970-01-01T05:14:19.000Z</time>
      </trkpt>
      <trkpt lat="42.221013" lon="2.580795">
        <ele>264</ele>
        <time>1970-01-01T05:14:20.000Z</time>
      </trkpt>
      <trkpt lat="42.221018" lon="2.580675">
        <ele>264</ele>
        <time>1970-01-01T05:14:21.000Z</time>
      </trkpt>
      <trkpt lat="42.221023" lon="2.580554">
        <ele>264</ele>
        <time>1970-01-01T05:14:22.000Z</time>
      </trkpt>
      <trkpt lat="42.221028" lon="2.580433">
        <ele>264</ele>
        <time>1970-01-01T05:14:23.000Z</time>
      </trkpt>
      <trkpt lat="42.221033" lon="2.580312">
        <ele>264</ele>
        <time>1970-01-01T05:14:25.000Z</time>
      </trkpt>
      <trkpt lat="42.221038" lon="2.580192">
        <ele>264</ele>
        <time>1970-01-01T05:14:27.000Z</time>
      </trkpt>
      <trkpt lat="42.221043" lon="2.580071">
        <ele>263</ele>
        <time>1970-01-01T05:14:29.000Z</time>
      </trkpt>
      <trkpt lat="42.221081" lon="2.579914">
        <ele>263</ele>
        <time>1970-01-01T05:14:30.000Z</time>
      </trkpt>
      <trkpt lat="42.221107" lon="2.57982">
        <ele>263</ele>
        <time>1970-01-01T05:14:31.000Z</time>
      </trkpt>
      <trkpt lat="42.221132" lon="2.579727">
        <ele>263</ele>
        <time>1970-01-01T05:14:32.000Z</time>
      </trkpt>
      <trkpt lat="42.221157" lon="2.579633">
        <ele>263</ele>
        <time>1970-01-01T05:14:34.000Z</time>
      </trkpt>
      <trkpt lat="42.221182" lon="2.57954">
        <ele>263</ele>
        <time>1970-01-01T05:14:36.000Z</time>
      </trkpt>
      <trkpt lat="42.221208" lon="2.579446">
        <ele>263</ele>
        <time>1970-01-01T05:14:37.000Z</time>
      </trkpt>
      <trkpt lat="42.221233" lon="2.579353">
        <ele>263</ele>
        <time>1970-01-01T05:14:38.000Z</time>
      </trkpt>
      <trkpt lat="42.221258" lon="2.579259">
        <ele>261</ele>
        <time>1970-01-01T05:14:39.000Z</time>
      </trkpt>
      <trkpt lat="42.221308" lon="2.579097">
        <ele>261</ele>
        <time>1970-01-01T05:14:40.000Z</time>
      </trkpt>
      <trkpt lat="42.221326" lon="2.579041">
        <ele>261</ele>
        <time>1970-01-01T05:14:41.000Z</time>
      </trkpt>
      <trkpt lat="42.221345" lon="2.578984">
        <ele>261</ele>
        <time>1970-01-01T05:14:42.000Z</time>
      </trkpt>
      <trkpt lat="42.221364" lon="2.578928">
        <ele>261</ele>
        <time>1970-01-01T05:14:43.000Z</time>
      </trkpt>
      <trkpt lat="42.221383" lon="2.578872">
        <ele>261</ele>
        <time>1970-01-01T05:14:44.000Z</time>
      </trkpt>
      <trkpt lat="42.221401" lon="2.578816">
        <ele>261</ele>
        <time>1970-01-01T05:14:45.000Z</time>
      </trkpt>
      <trkpt lat="42.22142" lon="2.57876">
        <ele>261</ele>
        <time>1970-01-01T05:14:46.000Z</time>
      </trkpt>
      <trkpt lat="42.221439" lon="2.578703">
        <ele>261</ele>
        <time>1970-01-01T05:14:47.000Z</time>
      </trkpt>
      <trkpt lat="42.221457" lon="2.578647">
        <ele>261</ele>
        <time>1970-01-01T05:14:48.000Z</time>
      </trkpt>
      <trkpt lat="42.221476" lon="2.578591">
        <ele>262</ele>
        <time>1970-01-01T05:14:49.000Z</time>
      </trkpt>
      <trkpt lat="42.221511" lon="2.578492">
        <ele>262</ele>
        <time>1970-01-01T05:14:50.000Z</time>
      </trkpt>
      <trkpt lat="42.221535" lon="2.578426">
        <ele>262</ele>
        <time>1970-01-01T05:14:51.000Z</time>
      </trkpt>
      <trkpt lat="42.221559" lon="2.578359">
        <ele>262</ele>
        <time>1970-01-01T05:14:52.000Z</time>
      </trkpt>
      <trkpt lat="42.221583" lon="2.578293">
        <ele>262</ele>
        <time>1970-01-01T05:14:53.000Z</time>
      </trkpt>
      <trkpt lat="42.221607" lon="2.578227">
        <ele>262</ele>
        <time>1970-01-01T05:14:54.000Z</time>
      </trkpt>
      <trkpt lat="42.22163" lon="2.578161">
        <ele>262</ele>
        <time>1970-01-01T05:14:55.000Z</time>
      </trkpt>
      <trkpt lat="42.221654" lon="2.578095">
        <ele>262</ele>
        <time>1970-01-01T05:14:56.000Z</time>
      </trkpt>
      <trkpt lat="42.221678" lon="2.578028">
        <ele>262</ele>
        <time>1970-01-01T05:14:57.000Z</time>
      </trkpt>
      <trkpt lat="42.221702" lon="2.577962">
        <ele>262</ele>
        <time>1970-01-01T05:14:58.000Z</time>
      </trkpt>
      <trkpt lat="42.221726" lon="2.577896">
        <ele>263</ele>
        <time>1970-01-01T05:14:59.000Z</time>
      </trkpt>
      <trkpt lat="42.22179" lon="2.577702">
        <ele>263</ele>
        <time>1970-01-01T05:15:00.000Z</time>
      </trkpt>
      <trkpt lat="42.221814" lon="2.57762">
        <ele>263</ele>
        <time>1970-01-01T05:15:01.000Z</time>
      </trkpt>
      <trkpt lat="42.221838" lon="2.577537">
        <ele>263</ele>
        <time>1970-01-01T05:15:02.000Z</time>
      </trkpt>
      <trkpt lat="42.221862" lon="2.577454">
        <ele>263</ele>
        <time>1970-01-01T05:15:03.000Z</time>
      </trkpt>
      <trkpt lat="42.221887" lon="2.577372">
        <ele>263</ele>
        <time>1970-01-01T05:15:05.000Z</time>
      </trkpt>
      <trkpt lat="42.221911" lon="2.577289">
        <ele>263</ele>
        <time>1970-01-01T05:15:06.000Z</time>
      </trkpt>
      <trkpt lat="42.221935" lon="2.577206">
        <ele>263</ele>
        <time>1970-01-01T05:15:07.000Z</time>
      </trkpt>
      <trkpt lat="42.221959" lon="2.577124">
        <ele>263</ele>
        <time>1970-01-01T05:15:08.000Z</time>
      </trkpt>
      <trkpt lat="42.221983" lon="2.577041">
        <ele>263</ele>
        <time>1970-01-01T05:15:09.000Z</time>
      </trkpt>
      <trkpt lat="42.222016" lon="2.576856">
        <ele>263</ele>
        <time>1970-01-01T05:15:10.000Z</time>
      </trkpt>
      <trkpt lat="42.22203" lon="2.57676">
        <ele>263</ele>
        <time>1970-01-01T05:15:12.000Z</time>
      </trkpt>
      <trkpt lat="42.222045" lon="2.576665">
        <ele>263</ele>
        <time>1970-01-01T05:15:13.000Z</time>
      </trkpt>
      <trkpt lat="42.222059" lon="2.576569">
        <ele>263</ele>
        <time>1970-01-01T05:15:14.000Z</time>
      </trkpt>
      <trkpt lat="42.222073" lon="2.576473">
        <ele>263</ele>
        <time>1970-01-01T05:15:15.000Z</time>
      </trkpt>
      <trkpt lat="42.222087" lon="2.576377">
        <ele>263</ele>
        <time>1970-01-01T05:15:16.000Z</time>
      </trkpt>
      <trkpt lat="42.222102" lon="2.576282">
        <ele>263</ele>
        <time>1970-01-01T05:15:17.000Z</time>
      </trkpt>
      <trkpt lat="42.222116" lon="2.576186">
        <ele>263</ele>
        <time>1970-01-01T05:15:18.000Z</time>
      </trkpt>
      <trkpt lat="42.22213" lon="2.57609">
        <ele>262</ele>
        <time>1970-01-01T05:15:20.000Z</time>
      </trkpt>
      <trkpt lat="42.222139" lon="2.575925">
        <ele>262</ele>
        <time>1970-01-01T05:15:21.000Z</time>
      </trkpt>
      <trkpt lat="42.222142" lon="2.575824">
        <ele>262</ele>
        <time>1970-01-01T05:15:22.000Z</time>
      </trkpt>
      <trkpt lat="42.222145" lon="2.575723">
        <ele>262</ele>
        <time>1970-01-01T05:15:23.000Z</time>
      </trkpt>
      <trkpt lat="42.222148" lon="2.575622">
        <ele>262</ele>
        <time>1970-01-01T05:15:24.000Z</time>
      </trkpt>
      <trkpt lat="42.22215" lon="2.575522">
        <ele>262</ele>
        <time>1970-01-01T05:15:25.000Z</time>
      </trkpt>
      <trkpt lat="42.222153" lon="2.575421">
        <ele>262</ele>
        <time>1970-01-01T05:15:26.000Z</time>
      </trkpt>
      <trkpt lat="42.222156" lon="2.57532">
        <ele>262</ele>
        <time>1970-01-01T05:15:27.000Z</time>
      </trkpt>
      <trkpt lat="42.222159" lon="2.575219">
        <ele>262</ele>
        <time>1970-01-01T05:15:28.000Z</time>
      </trkpt>
      <trkpt lat="42.222162" lon="2.575118">
        <ele>260</ele>
        <time>1970-01-01T05:15:29.000Z</time>
      </trkpt>
      <trkpt lat="42.222156" lon="2.574916">
        <ele>260</ele>
        <time>1970-01-01T05:15:30.000Z</time>
      </trkpt>
      <trkpt lat="42.22215" lon="2.574817">
        <ele>260</ele>
        <time>1970-01-01T05:15:31.000Z</time>
      </trkpt>
      <trkpt lat="42.222145" lon="2.574718">
        <ele>260</ele>
        <time>1970-01-01T05:15:32.000Z</time>
      </trkpt>
      <trkpt lat="42.222139" lon="2.574619">
        <ele>260</ele>
        <time>1970-01-01T05:15:33.000Z</time>
      </trkpt>
      <trkpt lat="42.222134" lon="2.57452">
        <ele>260</ele>
        <time>1970-01-01T05:15:34.000Z</time>
      </trkpt>
      <trkpt lat="42.222128" lon="2.574421">
        <ele>260</ele>
        <time>1970-01-01T05:15:35.000Z</time>
      </trkpt>
      <trkpt lat="42.222123" lon="2.574322">
        <ele>260</ele>
        <time>1970-01-01T05:15:37.000Z</time>
      </trkpt>
      <trkpt lat="42.222117" lon="2.574223">
        <ele>260</ele>
        <time>1970-01-01T05:15:38.000Z</time>
      </trkpt>
      <trkpt lat="42.222112" lon="2.574124">
        <ele>259</ele>
        <time>1970-01-01T05:15:39.000Z</time>
      </trkpt>
      <trkpt lat="42.222093" lon="2.573956">
        <ele>259</ele>
        <time>1970-01-01T05:15:40.000Z</time>
      </trkpt>
      <trkpt lat="42.222082" lon="2.573881">
        <ele>259</ele>
        <time>1970-01-01T05:15:41.000Z</time>
      </trkpt>
      <trkpt lat="42.222072" lon="2.573805">
        <ele>259</ele>
        <time>1970-01-01T05:15:42.000Z</time>
      </trkpt>
      <trkpt lat="42.222062" lon="2.57373">
        <ele>259</ele>
        <time>1970-01-01T05:15:43.000Z</time>
      </trkpt>
      <trkpt lat="42.222052" lon="2.573654">
        <ele>259</ele>
        <time>1970-01-01T05:15:44.000Z</time>
      </trkpt>
      <trkpt lat="42.222041" lon="2.573578">
        <ele>259</ele>
        <time>1970-01-01T05:15:45.000Z</time>
      </trkpt>
      <trkpt lat="42.222031" lon="2.573503">
        <ele>259</ele>
        <time>1970-01-01T05:15:46.000Z</time>
      </trkpt>
      <trkpt lat="42.222021" lon="2.573427">
        <ele>259</ele>
        <time>1970-01-01T05:15:47.000Z</time>
      </trkpt>
      <trkpt lat="42.22201" lon="2.573352">
        <ele>259</ele>
        <time>1970-01-01T05:15:48.000Z</time>
      </trkpt>
      <trkpt lat="42.222" lon="2.573276">
        <ele>259</ele>
        <time>1970-01-01T05:15:49.000Z</time>
      </trkpt>
      <trkpt lat="42.221969" lon="2.573123">
        <ele>259</ele>
        <time>1970-01-01T05:15:50.000Z</time>
      </trkpt>
      <trkpt lat="42.221953" lon="2.57305">
        <ele>259</ele>
        <time>1970-01-01T05:15:51.000Z</time>
      </trkpt>
      <trkpt lat="42.221937" lon="2.572978">
        <ele>259</ele>
        <time>1970-01-01T05:15:52.000Z</time>
      </trkpt>
      <trkpt lat="42.221921" lon="2.572905">
        <ele>259</ele>
        <time>1970-01-01T05:15:53.000Z</time>
      </trkpt>
      <trkpt lat="42.221906" lon="2.572832">
        <ele>259</ele>
        <time>1970-01-01T05:15:54.000Z</time>
      </trkpt>
      <trkpt lat="42.22189" lon="2.572759">
        <ele>259</ele>
        <time>1970-01-01T05:15:56.000Z</time>
      </trkpt>
      <trkpt lat="42.221874" lon="2.572687">
        <ele>259</ele>
        <time>1970-01-01T05:15:57.000Z</time>
      </trkpt>
      <trkpt lat="42.221858" lon="2.572614">
        <ele>259</ele>
        <time>1970-01-01T05:15:58.000Z</time>
      </trkpt>
      <trkpt lat="42.221842" lon="2.572541">
        <ele>260</ele>
        <time>1970-01-01T05:15:59.000Z</time>
      </trkpt>
      <trkpt lat="42.221808" lon="2.572414">
        <ele>260</ele>
        <time>1970-01-01T05:16:00.000Z</time>
      </trkpt>
      <trkpt lat="42.221791" lon="2.572354">
        <ele>260</ele>
        <time>1970-01-01T05:16:01.000Z</time>
      </trkpt>
      <trkpt lat="42.221774" lon="2.572293">
        <ele>260</ele>
        <time>1970-01-01T05:16:02.000Z</time>
      </trkpt>
      <trkpt lat="42.221757" lon="2.572233">
        <ele>260</ele>
        <time>1970-01-01T05:16:03.000Z</time>
      </trkpt>
      <trkpt lat="42.221741" lon="2.572173">
        <ele>260</ele>
        <time>1970-01-01T05:16:04.000Z</time>
      </trkpt>
      <trkpt lat="42.221724" lon="2.572113">
        <ele>260</ele>
        <time>1970-01-01T05:16:06.000Z</time>
      </trkpt>
      <trkpt lat="42.221707" lon="2.572052">
        <ele>260</ele>
        <time>1970-01-01T05:16:07.000Z</time>
      </trkpt>
      <trkpt lat="42.22169" lon="2.571992">
        <ele>260</ele>
        <time>1970-01-01T05:16:08.000Z</time>
      </trkpt>
      <trkpt lat="42.221673" lon="2.571932">
        <ele>261</ele>
        <time>1970-01-01T05:16:09.000Z</time>
      </trkpt>
      <trkpt lat="42.221637" lon="2.571824">
        <ele>261</ele>
        <time>1970-01-01T05:16:10.000Z</time>
      </trkpt>
      <trkpt lat="42.221619" lon="2.571771">
        <ele>261</ele>
        <time>1970-01-01T05:16:12.000Z</time>
      </trkpt>
      <trkpt lat="42.2216" lon="2.571718">
        <ele>261</ele>
        <time>1970-01-01T05:16:13.000Z</time>
      </trkpt>
      <trkpt lat="42.221582" lon="2.571665">
        <ele>261</ele>
        <time>1970-01-01T05:16:14.000Z</time>
      </trkpt>
      <trkpt lat="42.221564" lon="2.571612">
        <ele>261</ele>
        <time>1970-01-01T05:16:16.000Z</time>
      </trkpt>
      <trkpt lat="42.221546" lon="2.571559">
        <ele>261</ele>
        <time>1970-01-01T05:16:17.000Z</time>
      </trkpt>
      <trkpt lat="42.221527" lon="2.571506">
        <ele>261</ele>
        <time>1970-01-01T05:16:18.000Z</time>
      </trkpt>
      <trkpt lat="42.221509" lon="2.571453">
        <ele>262</ele>
        <time>1970-01-01T05:16:19.000Z</time>
      </trkpt>
      <trkpt lat="42.221447" lon="2.571293">
        <ele>262</ele>
        <time>1970-01-01T05:16:21.000Z</time>
      </trkpt>
      <trkpt lat="42.221423" lon="2.571237">
        <ele>262</ele>
        <time>1970-01-01T05:16:22.000Z</time>
      </trkpt>
      <trkpt lat="42.2214" lon="2.57118">
        <ele>262</ele>
        <time>1970-01-01T05:16:23.000Z</time>
      </trkpt>
      <trkpt lat="42.221377" lon="2.571124">
        <ele>262</ele>
        <time>1970-01-01T05:16:24.000Z</time>
      </trkpt>
      <trkpt lat="42.221353" lon="2.571067">
        <ele>262</ele>
        <time>1970-01-01T05:16:25.000Z</time>
      </trkpt>
      <trkpt lat="42.22133" lon="2.571011">
        <ele>262</ele>
        <time>1970-01-01T05:16:27.000Z</time>
      </trkpt>
      <trkpt lat="42.221306" lon="2.570954">
        <ele>262</ele>
        <time>1970-01-01T05:16:28.000Z</time>
      </trkpt>
      <trkpt lat="42.221283" lon="2.570898">
        <ele>264</ele>
        <time>1970-01-01T05:16:29.000Z</time>
      </trkpt>
      <trkpt lat="42.221241" lon="2.570806">
        <ele>264</ele>
        <time>1970-01-01T05:16:30.000Z</time>
      </trkpt>
      <trkpt lat="42.221221" lon="2.570763">
        <ele>264</ele>
        <time>1970-01-01T05:16:31.000Z</time>
      </trkpt>
      <trkpt lat="42.221201" lon="2.570719">
        <ele>264</ele>
        <time>1970-01-01T05:16:32.000Z</time>
      </trkpt>
      <trkpt lat="42.221181" lon="2.570676">
        <ele>264</ele>
        <time>1970-01-01T05:16:33.000Z</time>
      </trkpt>
      <trkpt lat="42.221162" lon="2.570633">
        <ele>264</ele>
        <time>1970-01-01T05:16:35.000Z</time>
      </trkpt>
      <trkpt lat="42.221142" lon="2.57059">
        <ele>264</ele>
        <time>1970-01-01T05:16:36.000Z</time>
      </trkpt>
      <trkpt lat="42.221122" lon="2.570546">
        <ele>264</ele>
        <time>1970-01-01T05:16:37.000Z</time>
      </trkpt>
      <trkpt lat="42.221102" lon="2.570503">
        <ele>264</ele>
        <time>1970-01-01T05:16:38.000Z</time>
      </trkpt>
      <trkpt lat="42.221082" lon="2.57046">
        <ele>265</ele>
        <time>1970-01-01T05:16:39.000Z</time>
      </trkpt>
      <trkpt lat="42.221039" lon="2.570373">
        <ele>265</ele>
        <time>1970-01-01T05:16:40.000Z</time>
      </trkpt>
      <trkpt lat="42.221021" lon="2.570333">
        <ele>265</ele>
        <time>1970-01-01T05:16:41.000Z</time>
      </trkpt>
      <trkpt lat="42.221003" lon="2.570292">
        <ele>265</ele>
        <time>1970-01-01T05:16:42.000Z</time>
      </trkpt>
      <trkpt lat="42.220985" lon="2.570251">
        <ele>265</ele>
        <time>1970-01-01T05:16:43.000Z</time>
      </trkpt>
      <trkpt lat="42.220967" lon="2.57021">
        <ele>265</ele>
        <time>1970-01-01T05:16:44.000Z</time>
      </trkpt>
      <trkpt lat="42.220949" lon="2.57017">
        <ele>265</ele>
        <time>1970-01-01T05:16:45.000Z</time>
      </trkpt>
      <trkpt lat="42.220931" lon="2.570129">
        <ele>265</ele>
        <time>1970-01-01T05:16:46.000Z</time>
      </trkpt>
      <trkpt lat="42.220913" lon="2.570088">
        <ele>265</ele>
        <time>1970-01-01T05:16:47.000Z</time>
      </trkpt>
      <trkpt lat="42.220895" lon="2.570048">
        <ele>265</ele>
        <time>1970-01-01T05:16:48.000Z</time>
      </trkpt>
      <trkpt lat="42.220877" lon="2.570007">
        <ele>266</ele>
        <time>1970-01-01T05:16:49.000Z</time>
      </trkpt>
      <trkpt lat="42.220831" lon="2.569903">
        <ele>266</ele>
        <time>1970-01-01T05:16:50.000Z</time>
      </trkpt>
      <trkpt lat="42.220802" lon="2.569841">
        <ele>266</ele>
        <time>1970-01-01T05:16:51.000Z</time>
      </trkpt>
      <trkpt lat="42.220772" lon="2.569779">
        <ele>266</ele>
        <time>1970-01-01T05:16:52.000Z</time>
      </trkpt>
      <trkpt lat="42.220742" lon="2.569717">
        <ele>266</ele>
        <time>1970-01-01T05:16:53.000Z</time>
      </trkpt>
      <trkpt lat="42.220713" lon="2.569655">
        <ele>266</ele>
        <time>1970-01-01T05:16:54.000Z</time>
      </trkpt>
      <trkpt lat="42.220683" lon="2.569593">
        <ele>266</ele>
        <time>1970-01-01T05:16:55.000Z</time>
      </trkpt>
      <trkpt lat="42.220653" lon="2.569531">
        <ele>266</ele>
        <time>1970-01-01T05:16:56.000Z</time>
      </trkpt>
      <trkpt lat="42.220624" lon="2.569469">
        <ele>266</ele>
        <time>1970-01-01T05:16:58.000Z</time>
      </trkpt>
      <trkpt lat="42.220594" lon="2.569407">
        <ele>266</ele>
        <time>1970-01-01T05:16:59.000Z</time>
      </trkpt>
      <trkpt lat="42.220536" lon="2.569249">
        <ele>266</ele>
        <time>1970-01-01T05:17:00.000Z</time>
      </trkpt>
      <trkpt lat="42.220508" lon="2.569157">
        <ele>266</ele>
        <time>1970-01-01T05:17:02.000Z</time>
      </trkpt>
      <trkpt lat="42.22048" lon="2.569065">
        <ele>266</ele>
        <time>1970-01-01T05:17:03.000Z</time>
      </trkpt>
      <trkpt lat="42.220452" lon="2.568972">
        <ele>266</ele>
        <time>1970-01-01T05:17:04.000Z</time>
      </trkpt>
      <trkpt lat="42.220424" lon="2.56888">
        <ele>266</ele>
        <time>1970-01-01T05:17:05.000Z</time>
      </trkpt>
      <trkpt lat="42.220396" lon="2.568788">
        <ele>266</ele>
        <time>1970-01-01T05:17:06.000Z</time>
      </trkpt>
      <trkpt lat="42.220368" lon="2.568696">
        <ele>266</ele>
        <time>1970-01-01T05:17:08.000Z</time>
      </trkpt>
      <trkpt lat="42.22034" lon="2.568604">
        <ele>265</ele>
        <time>1970-01-01T05:17:10.000Z</time>
      </trkpt>
      <trkpt lat="42.220332" lon="2.568468">
        <ele>265</ele>
        <time>1970-01-01T05:17:11.000Z</time>
      </trkpt>
      <trkpt lat="42.220334" lon="2.568402">
        <ele>265</ele>
        <time>1970-01-01T05:17:13.000Z</time>
      </trkpt>
      <trkpt lat="42.220336" lon="2.568336">
        <ele>265</ele>
        <time>1970-01-01T05:17:14.000Z</time>
      </trkpt>
      <trkpt lat="42.220339" lon="2.56827">
        <ele>265</ele>
        <time>1970-01-01T05:17:15.000Z</time>
      </trkpt>
      <trkpt lat="42.220341" lon="2.568203">
        <ele>265</ele>
        <time>1970-01-01T05:17:16.000Z</time>
      </trkpt>
      <trkpt lat="42.220343" lon="2.568137">
        <ele>265</ele>
        <time>1970-01-01T05:17:18.000Z</time>
      </trkpt>
      <trkpt lat="42.220345" lon="2.568071">
        <ele>265</ele>
        <time>1970-01-01T05:17:19.000Z</time>
      </trkpt>
      <trkpt lat="42.220347" lon="2.568005">
        <ele>264</ele>
        <time>1970-01-01T05:17:20.000Z</time>
      </trkpt>
      <trkpt lat="42.220375" lon="2.567765">
        <ele>264</ele>
        <time>1970-01-01T05:17:22.000Z</time>
      </trkpt>
      <trkpt lat="42.220389" lon="2.567695">
        <ele>264</ele>
        <time>1970-01-01T05:17:24.000Z</time>
      </trkpt>
      <trkpt lat="42.220402" lon="2.567626">
        <ele>264</ele>
        <time>1970-01-01T05:17:25.000Z</time>
      </trkpt>
      <trkpt lat="42.220415" lon="2.567557">
        <ele>264</ele>
        <time>1970-01-01T05:17:27.000Z</time>
      </trkpt>
      <trkpt lat="42.220429" lon="2.567487">
        <ele>264</ele>
        <time>1970-01-01T05:17:28.000Z</time>
      </trkpt>
      <trkpt lat="42.220442" lon="2.567418">
        <ele>266</ele>
        <time>1970-01-01T05:17:29.000Z</time>
      </trkpt>
      <trkpt lat="42.220479" lon="2.567323">
        <ele>266</ele>
        <time>1970-01-01T05:17:30.000Z</time>
      </trkpt>
      <trkpt lat="42.220507" lon="2.56726">
        <ele>266</ele>
        <time>1970-01-01T05:17:31.000Z</time>
      </trkpt>
      <trkpt lat="42.220535" lon="2.567197">
        <ele>266</ele>
        <time>1970-01-01T05:17:33.000Z</time>
      </trkpt>
      <trkpt lat="42.220563" lon="2.567134">
        <ele>266</ele>
        <time>1970-01-01T05:17:34.000Z</time>
      </trkpt>
      <trkpt lat="42.220591" lon="2.56707">
        <ele>266</ele>
        <time>1970-01-01T05:17:35.000Z</time>
      </trkpt>
      <trkpt lat="42.220619" lon="2.567007">
        <ele>266</ele>
        <time>1970-01-01T05:17:37.000Z</time>
      </trkpt>
      <trkpt lat="42.220647" lon="2.566944">
        <ele>266</ele>
        <time>1970-01-01T05:17:38.000Z</time>
      </trkpt>
      <trkpt lat="42.220675" lon="2.566881">
        <ele>266</ele>
        <time>1970-01-01T05:17:39.000Z</time>
      </trkpt>
      <trkpt lat="42.220716" lon="2.566799">
        <ele>266</ele>
        <time>1970-01-01T05:17:40.000Z</time>
      </trkpt>
      <trkpt lat="42.220745" lon="2.56674">
        <ele>266</ele>
        <time>1970-01-01T05:17:41.000Z</time>
      </trkpt>
      <trkpt lat="42.220774" lon="2.56668">
        <ele>266</ele>
        <time>1970-01-01T05:17:42.000Z</time>
      </trkpt>
      <trkpt lat="42.220804" lon="2.566621">
        <ele>266</ele>
        <time>1970-01-01T05:17:44.000Z</time>
      </trkpt>
      <trkpt lat="42.220833" lon="2.566562">
        <ele>266</ele>
        <time>1970-01-01T05:17:46.000Z</time>
      </trkpt>
      <trkpt lat="42.220862" lon="2.566503">
        <ele>266</ele>
        <time>1970-01-01T05:17:47.000Z</time>
      </trkpt>
      <trkpt lat="42.220891" lon="2.566443">
        <ele>266</ele>
        <time>1970-01-01T05:17:49.000Z</time>
      </trkpt>
      <trkpt lat="42.22092" lon="2.566384">
        <ele>266</ele>
        <time>1970-01-01T05:17:50.000Z</time>
      </trkpt>
      <trkpt lat="42.22096" lon="2.566268">
        <ele>266</ele>
        <time>1970-01-01T05:17:51.000Z</time>
      </trkpt>
      <trkpt lat="42.220971" lon="2.566223">
        <ele>266</ele>
        <time>1970-01-01T05:17:52.000Z</time>
      </trkpt>
      <trkpt lat="42.220983" lon="2.566177">
        <ele>266</ele>
        <time>1970-01-01T05:17:53.000Z</time>
      </trkpt>
      <trkpt lat="42.220994" lon="2.566132">
        <ele>266</ele>
        <time>1970-01-01T05:17:54.000Z</time>
      </trkpt>
      <trkpt lat="42.221005" lon="2.566087">
        <ele>266</ele>
        <time>1970-01-01T05:17:55.000Z</time>
      </trkpt>
      <trkpt lat="42.221016" lon="2.566042">
        <ele>266</ele>
        <time>1970-01-01T05:17:56.000Z</time>
      </trkpt>
      <trkpt lat="42.221028" lon="2.565996">
        <ele>266</ele>
        <time>1970-01-01T05:17:57.000Z</time>
      </trkpt>
      <trkpt lat="42.221039" lon="2.565951">
        <ele>266</ele>
        <time>1970-01-01T05:17:58.000Z</time>
      </trkpt>
      <trkpt lat="42.22105" lon="2.565906">
        <ele>266</ele>
        <time>1970-01-01T05:17:59.000Z</time>
      </trkpt>
      <trkpt lat="42.221057" lon="2.565762">
        <ele>266</ele>
        <time>1970-01-01T05:18:00.000Z</time>
      </trkpt>
      <trkpt lat="42.221057" lon="2.565674">
        <ele>266</ele>
        <time>1970-01-01T05:18:02.000Z</time>
      </trkpt>
      <trkpt lat="42.221058" lon="2.565586">
        <ele>266</ele>
        <time>1970-01-01T05:18:03.000Z</time>
      </trkpt>
      <trkpt lat="42.221058" lon="2.565497">
        <ele>266</ele>
        <time>1970-01-01T05:18:05.000Z</time>
      </trkpt>
      <trkpt lat="42.221059" lon="2.565409">
        <ele>266</ele>
        <time>1970-01-01T05:18:07.000Z</time>
      </trkpt>
      <trkpt lat="42.221059" lon="2.565321">
        <ele>267</ele>
        <time>1970-01-01T05:18:09.000Z</time>
      </trkpt>
      <trkpt lat="42.221051" lon="2.56514">
        <ele>267</ele>
        <time>1970-01-01T05:18:11.000Z</time>
      </trkpt>
      <trkpt lat="42.221048" lon="2.56508">
        <ele>267</ele>
        <time>1970-01-01T05:18:13.000Z</time>
      </trkpt>
      <trkpt lat="42.221045" lon="2.565021">
        <ele>267</ele>
        <time>1970-01-01T05:18:15.000Z</time>
      </trkpt>
      <trkpt lat="42.221041" lon="2.564962">
        <ele>267</ele>
        <time>1970-01-01T05:18:16.000Z</time>
      </trkpt>
      <trkpt lat="42.221038" lon="2.564903">
        <ele>267</ele>
        <time>1970-01-01T05:18:17.000Z</time>
      </trkpt>
      <trkpt lat="42.221035" lon="2.564843">
        <ele>267</ele>
        <time>1970-01-01T05:18:18.000Z</time>
      </trkpt>
      <trkpt lat="42.221032" lon="2.564784">
        <ele>267</ele>
        <time>1970-01-01T05:18:19.000Z</time>
      </trkpt>
      <trkpt lat="42.221026" lon="2.564668">
        <ele>267</ele>
        <time>1970-01-01T05:18:20.000Z</time>
      </trkpt>
      <trkpt lat="42.221022" lon="2.564605">
        <ele>267</ele>
        <time>1970-01-01T05:18:21.000Z</time>
      </trkpt>
      <trkpt lat="42.221019" lon="2.564541">
        <ele>267</ele>
        <time>1970-01-01T05:18:22.000Z</time>
      </trkpt>
      <trkpt lat="42.221016" lon="2.564477">
        <ele>267</ele>
        <time>1970-01-01T05:18:23.000Z</time>
      </trkpt>
      <trkpt lat="42.221012" lon="2.564414">
        <ele>267</ele>
        <time>1970-01-01T05:18:24.000Z</time>
      </trkpt>
      <trkpt lat="42.221009" lon="2.56435">
        <ele>267</ele>
        <time>1970-01-01T05:18:25.000Z</time>
      </trkpt>
      <trkpt lat="42.221005" lon="2.564287">
        <ele>267</ele>
        <time>1970-01-01T05:18:27.000Z</time>
      </trkpt>
      <trkpt lat="42.221002" lon="2.564223">
        <ele>268</ele>
        <time>1970-01-01T05:18:29.000Z</time>
      </trkpt>
      <trkpt lat="42.220991" lon="2.564114">
        <ele>268</ele>
        <time>1970-01-01T05:18:31.000Z</time>
      </trkpt>
      <trkpt lat="42.220984" lon="2.564058">
        <ele>268</ele>
        <time>1970-01-01T05:18:32.000Z</time>
      </trkpt>
      <trkpt lat="42.220978" lon="2.564002">
        <ele>268</ele>
        <time>1970-01-01T05:18:33.000Z</time>
      </trkpt>
      <trkpt lat="42.220971" lon="2.563946">
        <ele>268</ele>
        <time>1970-01-01T05:18:34.000Z</time>
      </trkpt>
      <trkpt lat="42.220964" lon="2.56389">
        <ele>268</ele>
        <time>1970-01-01T05:18:35.000Z</time>
      </trkpt>
      <trkpt lat="42.220957" lon="2.563834">
        <ele>268</ele>
        <time>1970-01-01T05:18:36.000Z</time>
      </trkpt>
      <trkpt lat="42.220951" lon="2.563778">
        <ele>268</ele>
        <time>1970-01-01T05:18:37.000Z</time>
      </trkpt>
      <trkpt lat="42.220944" lon="2.563722">
        <ele>268</ele>
        <time>1970-01-01T05:18:38.000Z</time>
      </trkpt>
      <trkpt lat="42.220937" lon="2.563666">
        <ele>268</ele>
        <time>1970-01-01T05:18:39.000Z</time>
      </trkpt>
      <trkpt lat="42.220922" lon="2.563551">
        <ele>268</ele>
        <time>1970-01-01T05:18:40.000Z</time>
      </trkpt>
      <trkpt lat="42.220915" lon="2.563492">
        <ele>268</ele>
        <time>1970-01-01T05:18:42.000Z</time>
      </trkpt>
      <trkpt lat="42.220908" lon="2.563433">
        <ele>268</ele>
        <time>1970-01-01T05:18:43.000Z</time>
      </trkpt>
      <trkpt lat="42.220901" lon="2.563375">
        <ele>268</ele>
        <time>1970-01-01T05:18:45.000Z</time>
      </trkpt>
      <trkpt lat="42.220894" lon="2.563316">
        <ele>268</ele>
        <time>1970-01-01T05:18:46.000Z</time>
      </trkpt>
      <trkpt lat="42.220887" lon="2.563257">
        <ele>268</ele>
        <time>1970-01-01T05:18:48.000Z</time>
      </trkpt>
      <trkpt lat="42.22088" lon="2.563198">
        <ele>269</ele>
        <time>1970-01-01T05:18:49.000Z</time>
      </trkpt>
      <trkpt lat="42.220868" lon="2.563093">
        <ele>269</ele>
        <time>1970-01-01T05:18:50.000Z</time>
      </trkpt>
      <trkpt lat="42.220862" lon="2.563043">
        <ele>269</ele>
        <time>1970-01-01T05:18:51.000Z</time>
      </trkpt>
      <trkpt lat="42.220857" lon="2.562992">
        <ele>269</ele>
        <time>1970-01-01T05:18:52.000Z</time>
      </trkpt>
      <trkpt lat="42.220851" lon="2.562941">
        <ele>269</ele>
        <time>1970-01-01T05:18:53.000Z</time>
      </trkpt>
      <trkpt lat="42.220845" lon="2.56289">
        <ele>269</ele>
        <time>1970-01-01T05:18:54.000Z</time>
      </trkpt>
      <trkpt lat="42.220839" lon="2.56284">
        <ele>269</ele>
        <time>1970-01-01T05:18:55.000Z</time>
      </trkpt>
      <trkpt lat="42.220833" lon="2.562789">
        <ele>269</ele>
        <time>1970-01-01T05:18:56.000Z</time>
      </trkpt>
      <trkpt lat="42.220828" lon="2.562738">
        <ele>269</ele>
        <time>1970-01-01T05:18:57.000Z</time>
      </trkpt>
      <trkpt lat="42.220822" lon="2.562688">
        <ele>269</ele>
        <time>1970-01-01T05:18:58.000Z</time>
      </trkpt>
      <trkpt lat="42.220816" lon="2.562637">
        <ele>269</ele>
        <time>1970-01-01T05:18:59.000Z</time>
      </trkpt>
      <trkpt lat="42.2208" lon="2.562508">
        <ele>269</ele>
        <time>1970-01-01T05:19:00.000Z</time>
      </trkpt>
      <trkpt lat="42.220791" lon="2.56244">
        <ele>269</ele>
        <time>1970-01-01T05:19:01.000Z</time>
      </trkpt>
      <trkpt lat="42.220782" lon="2.562371">
        <ele>269</ele>
        <time>1970-01-01T05:19:02.000Z</time>
      </trkpt>
      <trkpt lat="42.220773" lon="2.562303">
        <ele>269</ele>
        <time>1970-01-01T05:19:03.000Z</time>
      </trkpt>
      <trkpt lat="42.220764" lon="2.562234">
        <ele>269</ele>
        <time>1970-01-01T05:19:04.000Z</time>
      </trkpt>
      <trkpt lat="42.220755" lon="2.562166">
        <ele>269</ele>
        <time>1970-01-01T05:19:05.000Z</time>
      </trkpt>
      <trkpt lat="42.220746" lon="2.562097">
        <ele>269</ele>
        <time>1970-01-01T05:19:06.000Z</time>
      </trkpt>
      <trkpt lat="42.220737" lon="2.562029">
        <ele>269</ele>
        <time>1970-01-01T05:19:07.000Z</time>
      </trkpt>
      <trkpt lat="42.220728" lon="2.56196">
        <ele>269</ele>
        <time>1970-01-01T05:19:08.000Z</time>
      </trkpt>
      <trkpt lat="42.220719" lon="2.561892">
        <ele>269</ele>
        <time>1970-01-01T05:19:09.000Z</time>
      </trkpt>
      <trkpt lat="42.220697" lon="2.561746">
        <ele>269</ele>
        <time>1970-01-01T05:19:10.000Z</time>
      </trkpt>
      <trkpt lat="42.220688" lon="2.561675">
        <ele>269</ele>
        <time>1970-01-01T05:19:11.000Z</time>
      </trkpt>
      <trkpt lat="42.220679" lon="2.561604">
        <ele>269</ele>
        <time>1970-01-01T05:19:12.000Z</time>
      </trkpt>
      <trkpt lat="42.22067" lon="2.561533">
        <ele>269</ele>
        <time>1970-01-01T05:19:13.000Z</time>
      </trkpt>
      <trkpt lat="42.22066" lon="2.561462">
        <ele>269</ele>
        <time>1970-01-01T05:19:15.000Z</time>
      </trkpt>
      <trkpt lat="42.220651" lon="2.561391">
        <ele>269</ele>
        <time>1970-01-01T05:19:16.000Z</time>
      </trkpt>
      <trkpt lat="42.220642" lon="2.56132">
        <ele>269</ele>
        <time>1970-01-01T05:19:17.000Z</time>
      </trkpt>
      <trkpt lat="42.220633" lon="2.561249">
        <ele>269</ele>
        <time>1970-01-01T05:19:18.000Z</time>
      </trkpt>
      <trkpt lat="42.220624" lon="2.561178">
        <ele>268</ele>
        <time>1970-01-01T05:19:19.000Z</time>
      </trkpt>
      <trkpt lat="42.220607" lon="2.560996">
        <ele>268</ele>
        <time>1970-01-01T05:19:20.000Z</time>
      </trkpt>
      <trkpt lat="42.220601" lon="2.560898">
        <ele>268</ele>
        <time>1970-01-01T05:19:21.000Z</time>
      </trkpt>
      <trkpt lat="42.220596" lon="2.560799">
        <ele>268</ele>
        <time>1970-01-01T05:19:22.000Z</time>
      </trkpt>
      <trkpt lat="42.22059" lon="2.560701">
        <ele>268</ele>
        <time>1970-01-01T05:19:23.000Z</time>
      </trkpt>
      <trkpt lat="42.220585" lon="2.560603">
        <ele>268</ele>
        <time>1970-01-01T05:19:24.000Z</time>
      </trkpt>
      <trkpt lat="42.220579" lon="2.560505">
        <ele>268</ele>
        <time>1970-01-01T05:19:26.000Z</time>
      </trkpt>
      <trkpt lat="42.220574" lon="2.560406">
        <ele>268</ele>
        <time>1970-01-01T05:19:27.000Z</time>
      </trkpt>
      <trkpt lat="42.220568" lon="2.560308">
        <ele>268</ele>
        <time>1970-01-01T05:19:28.000Z</time>
      </trkpt>
      <trkpt lat="42.220563" lon="2.56021">
        <ele>266</ele>
        <time>1970-01-01T05:19:29.000Z</time>
      </trkpt>
      <trkpt lat="42.220565" lon="2.559962">
        <ele>266</ele>
        <time>1970-01-01T05:19:30.000Z</time>
      </trkpt>
      <trkpt lat="42.220567" lon="2.559865">
        <ele>266</ele>
        <time>1970-01-01T05:19:31.000Z</time>
      </trkpt>
      <trkpt lat="42.220568" lon="2.559768">
        <ele>266</ele>
        <time>1970-01-01T05:19:32.000Z</time>
      </trkpt>
      <trkpt lat="42.22057" lon="2.559671">
        <ele>266</ele>
        <time>1970-01-01T05:19:33.000Z</time>
      </trkpt>
      <trkpt lat="42.220572" lon="2.559573">
        <ele>266</ele>
        <time>1970-01-01T05:19:34.000Z</time>
      </trkpt>
      <trkpt lat="42.220574" lon="2.559476">
        <ele>266</ele>
        <time>1970-01-01T05:19:35.000Z</time>
      </trkpt>
      <trkpt lat="42.220575" lon="2.559379">
        <ele>266</ele>
        <time>1970-01-01T05:19:36.000Z</time>
      </trkpt>
      <trkpt lat="42.220577" lon="2.559282">
        <ele>266</ele>
        <time>1970-01-01T05:19:38.000Z</time>
      </trkpt>
      <trkpt lat="42.220579" lon="2.559185">
        <ele>265</ele>
        <time>1970-01-01T05:19:39.000Z</time>
      </trkpt>
      <trkpt lat="42.220584" lon="2.558935">
        <ele>265</ele>
        <time>1970-01-01T05:19:40.000Z</time>
      </trkpt>
      <trkpt lat="42.220587" lon="2.5588">
        <ele>265</ele>
        <time>1970-01-01T05:19:41.000Z</time>
      </trkpt>
      <trkpt lat="42.22059" lon="2.558666">
        <ele>265</ele>
        <time>1970-01-01T05:19:42.000Z</time>
      </trkpt>
      <trkpt lat="42.220594" lon="2.558532">
        <ele>265</ele>
        <time>1970-01-01T05:19:43.000Z</time>
      </trkpt>
      <trkpt lat="42.220597" lon="2.558397">
        <ele>265</ele>
        <time>1970-01-01T05:19:44.000Z</time>
      </trkpt>
      <trkpt lat="42.2206" lon="2.558263">
        <ele>265</ele>
        <time>1970-01-01T05:19:46.000Z</time>
      </trkpt>
      <trkpt lat="42.220603" lon="2.558128">
        <ele>265</ele>
        <time>1970-01-01T05:19:48.000Z</time>
      </trkpt>
      <trkpt lat="42.220606" lon="2.557994">
        <ele>262</ele>
        <time>1970-01-01T05:19:49.000Z</time>
      </trkpt>
      <trkpt lat="42.220608" lon="2.557875">
        <ele>262</ele>
        <time>1970-01-01T05:19:50.000Z</time>
      </trkpt>
      <trkpt lat="42.22061" lon="2.557756">
        <ele>262</ele>
        <time>1970-01-01T05:19:51.000Z</time>
      </trkpt>
      <trkpt lat="42.220613" lon="2.557638">
        <ele>262</ele>
        <time>1970-01-01T05:19:52.000Z</time>
      </trkpt>
      <trkpt lat="42.220615" lon="2.55752">
        <ele>262</ele>
        <time>1970-01-01T05:19:53.000Z</time>
      </trkpt>
      <trkpt lat="42.220623" lon="2.557287">
        <ele>262</ele>
        <time>1970-01-01T05:19:54.000Z</time>
      </trkpt>
      <trkpt lat="42.220626" lon="2.557171">
        <ele>262</ele>
        <time>1970-01-01T05:19:55.000Z</time>
      </trkpt>
      <trkpt lat="42.220632" lon="2.55694">
        <ele>262</ele>
        <time>1970-01-01T05:19:57.000Z</time>
      </trkpt>
      <trkpt lat="42.220633" lon="2.556826">
        <ele>262</ele>
        <time>1970-01-01T05:19:58.000Z</time>
      </trkpt>
      <trkpt lat="42.220636" lon="2.556714">
        <ele>260</ele>
        <time>1970-01-01T05:19:59.000Z</time>
      </trkpt>
      <trkpt lat="42.22064" lon="2.556504">
        <ele>260</ele>
        <time>1970-01-01T05:20:00.000Z</time>
      </trkpt>
      <trkpt lat="42.220642" lon="2.556406">
        <ele>260</ele>
        <time>1970-01-01T05:20:01.000Z</time>
      </trkpt>
      <trkpt lat="42.220644" lon="2.556308">
        <ele>260</ele>
        <time>1970-01-01T05:20:02.000Z</time>
      </trkpt>
      <trkpt lat="42.220646" lon="2.55621">
        <ele>260</ele>
        <time>1970-01-01T05:20:03.000Z</time>
      </trkpt>
      <trkpt lat="42.220647" lon="2.556113">
        <ele>260</ele>
        <time>1970-01-01T05:20:04.000Z</time>
      </trkpt>
      <trkpt lat="42.220649" lon="2.556015">
        <ele>260</ele>
        <time>1970-01-01T05:20:05.000Z</time>
      </trkpt>
      <trkpt lat="42.220651" lon="2.555917">
        <ele>260</ele>
        <time>1970-01-01T05:20:07.000Z</time>
      </trkpt>
      <trkpt lat="42.220653" lon="2.555819">
        <ele>260</ele>
        <time>1970-01-01T05:20:08.000Z</time>
      </trkpt>
      <trkpt lat="42.220655" lon="2.555721">
        <ele>259</ele>
        <time>1970-01-01T05:20:09.000Z</time>
      </trkpt>
      <trkpt lat="42.22066" lon="2.555522">
        <ele>259</ele>
        <time>1970-01-01T05:20:10.000Z</time>
      </trkpt>
      <trkpt lat="42.220663" lon="2.555434">
        <ele>259</ele>
        <time>1970-01-01T05:20:11.000Z</time>
      </trkpt>
      <trkpt lat="42.220667" lon="2.555346">
        <ele>259</ele>
        <time>1970-01-01T05:20:12.000Z</time>
      </trkpt>
      <trkpt lat="42.22067" lon="2.555258">
        <ele>259</ele>
        <time>1970-01-01T05:20:13.000Z</time>
      </trkpt>
      <trkpt lat="42.220674" lon="2.55517">
        <ele>259</ele>
        <time>1970-01-01T05:20:14.000Z</time>
      </trkpt>
      <trkpt lat="42.220677" lon="2.555082">
        <ele>259</ele>
        <time>1970-01-01T05:20:15.000Z</time>
      </trkpt>
      <trkpt lat="42.220681" lon="2.554994">
        <ele>259</ele>
        <time>1970-01-01T05:20:16.000Z</time>
      </trkpt>
      <trkpt lat="42.220684" lon="2.554906">
        <ele>259</ele>
        <time>1970-01-01T05:20:17.000Z</time>
      </trkpt>
      <trkpt lat="42.220688" lon="2.554818">
        <ele>258</ele>
        <time>1970-01-01T05:20:19.000Z</time>
      </trkpt>
      <trkpt lat="42.22069" lon="2.554752">
        <ele>258</ele>
        <time>1970-01-01T05:20:26.000Z</time>
      </trkpt>
      <trkpt lat="42.220691" lon="2.554712">
        <ele>258</ele>
        <time>1970-01-01T05:23:00.000Z</time>
      </trkpt>
      <trkpt lat="42.220691" lon="2.554672">
        <ele>258</ele>
        <time>1970-01-01T05:23:01.000Z</time>
      </trkpt>
      <trkpt lat="42.220692" lon="2.554632">
        <ele>258</ele>
        <time>1970-01-01T05:23:02.000Z</time>
      </trkpt>
      <trkpt lat="42.220692" lon="2.554592">
        <ele>258</ele>
        <time>1970-01-01T05:23:03.000Z</time>
      </trkpt>
      <trkpt lat="42.220693" lon="2.554553">
        <ele>258</ele>
        <time>1970-01-01T05:23:04.000Z</time>
      </trkpt>
      <trkpt lat="42.220693" lon="2.554513">
        <ele>258</ele>
        <time>1970-01-01T05:23:05.000Z</time>
      </trkpt>
      <trkpt lat="42.220694" lon="2.554473">
        <ele>258</ele>
        <time>1970-01-01T05:23:06.000Z</time>
      </trkpt>
      <trkpt lat="42.220694" lon="2.554433">
        <ele>258</ele>
        <time>1970-01-01T05:23:07.000Z</time>
      </trkpt>
      <trkpt lat="42.220695" lon="2.554393">
        <ele>258</ele>
        <time>1970-01-01T05:23:08.000Z</time>
      </trkpt>
      <trkpt lat="42.220695" lon="2.554353">
        <ele>258</ele>
        <time>1970-01-01T05:23:09.000Z</time>
      </trkpt>
      <trkpt lat="42.220701" lon="2.55425">
        <ele>258</ele>
        <time>1970-01-01T05:23:11.000Z</time>
      </trkpt>
      <trkpt lat="42.220705" lon="2.554206">
        <ele>258</ele>
        <time>1970-01-01T05:23:12.000Z</time>
      </trkpt>
      <trkpt lat="42.220708" lon="2.554162">
        <ele>258</ele>
        <time>1970-01-01T05:23:13.000Z</time>
      </trkpt>
      <trkpt lat="42.220712" lon="2.554119">
        <ele>258</ele>
        <time>1970-01-01T05:23:14.000Z</time>
      </trkpt>
      <trkpt lat="42.220715" lon="2.554075">
        <ele>258</ele>
        <time>1970-01-01T05:23:16.000Z</time>
      </trkpt>
      <trkpt lat="42.220718" lon="2.554031">
        <ele>258</ele>
        <time>1970-01-01T05:23:17.000Z</time>
      </trkpt>
      <trkpt lat="42.220722" lon="2.553987">
        <ele>258</ele>
        <time>1970-01-01T05:23:18.000Z</time>
      </trkpt>
      <trkpt lat="42.220725" lon="2.553943">
        <ele>258</ele>
        <time>1970-01-01T05:23:19.000Z</time>
      </trkpt>
      <trkpt lat="42.220738" lon="2.55387">
        <ele>258</ele>
        <time>1970-01-01T05:23:20.000Z</time>
      </trkpt>
      <trkpt lat="42.220746" lon="2.553834">
        <ele>258</ele>
        <time>1970-01-01T05:23:21.000Z</time>
      </trkpt>
      <trkpt lat="42.220754" lon="2.553799">
        <ele>258</ele>
        <time>1970-01-01T05:23:22.000Z</time>
      </trkpt>
      <trkpt lat="42.220762" lon="2.553763">
        <ele>258</ele>
        <time>1970-01-01T05:23:23.000Z</time>
      </trkpt>
      <trkpt lat="42.220771" lon="2.553728">
        <ele>258</ele>
        <time>1970-01-01T05:23:24.000Z</time>
      </trkpt>
      <trkpt lat="42.220779" lon="2.553693">
        <ele>258</ele>
        <time>1970-01-01T05:23:25.000Z</time>
      </trkpt>
      <trkpt lat="42.220787" lon="2.553657">
        <ele>258</ele>
        <time>1970-01-01T05:23:26.000Z</time>
      </trkpt>
      <trkpt lat="42.220795" lon="2.553622">
        <ele>258</ele>
        <time>1970-01-01T05:23:27.000Z</time>
      </trkpt>
      <trkpt lat="42.220803" lon="2.553586">
        <ele>258</ele>
        <time>1970-01-01T05:23:28.000Z</time>
      </trkpt>
      <trkpt lat="42.220811" lon="2.553551">
        <ele>259</ele>
        <time>1970-01-01T05:23:29.000Z</time>
      </trkpt>
      <trkpt lat="42.220837" lon="2.553465">
        <ele>259</ele>
        <time>1970-01-01T05:23:30.000Z</time>
      </trkpt>
      <trkpt lat="42.220852" lon="2.553422">
        <ele>259</ele>
        <time>1970-01-01T05:23:32.000Z</time>
      </trkpt>
      <trkpt lat="42.220868" lon="2.553378">
        <ele>259</ele>
        <time>1970-01-01T05:23:33.000Z</time>
      </trkpt>
      <trkpt lat="42.220883" lon="2.553335">
        <ele>259</ele>
        <time>1970-01-01T05:23:34.000Z</time>
      </trkpt>
      <trkpt lat="42.220899" lon="2.553291">
        <ele>259</ele>
        <time>1970-01-01T05:23:35.000Z</time>
      </trkpt>
      <trkpt lat="42.220914" lon="2.553247">
        <ele>259</ele>
        <time>1970-01-01T05:23:36.000Z</time>
      </trkpt>
      <trkpt lat="42.22093" lon="2.553204">
        <ele>259</ele>
        <time>1970-01-01T05:23:37.000Z</time>
      </trkpt>
      <trkpt lat="42.220945" lon="2.55316">
        <ele>261</ele>
        <time>1970-01-01T05:23:39.000Z</time>
      </trkpt>
      <trkpt lat="42.220987" lon="2.553104">
        <ele>261</ele>
        <time>1970-01-01T05:23:41.000Z</time>
      </trkpt>
      <trkpt lat="42.22101" lon="2.553079">
        <ele>261</ele>
        <time>1970-01-01T05:23:42.000Z</time>
      </trkpt>
      <trkpt lat="42.221032" lon="2.553054">
        <ele>261</ele>
        <time>1970-01-01T05:23:43.000Z</time>
      </trkpt>
      <trkpt lat="42.221055" lon="2.553029">
        <ele>261</ele>
        <time>1970-01-01T05:23:44.000Z</time>
      </trkpt>
      <trkpt lat="42.221078" lon="2.553003">
        <ele>261</ele>
        <time>1970-01-01T05:23:46.000Z</time>
      </trkpt>
      <trkpt lat="42.221101" lon="2.552978">
        <ele>261</ele>
        <time>1970-01-01T05:23:47.000Z</time>
      </trkpt>
      <trkpt lat="42.221123" lon="2.552953">
        <ele>261</ele>
        <time>1970-01-01T05:23:48.000Z</time>
      </trkpt>
      <trkpt lat="42.221146" lon="2.552928">
        <ele>262</ele>
        <time>1970-01-01T05:23:49.000Z</time>
      </trkpt>
      <trkpt lat="42.221178" lon="2.552882">
        <ele>262</ele>
        <time>1970-01-01T05:23:50.000Z</time>
      </trkpt>
      <trkpt lat="42.221202" lon="2.552848">
        <ele>262</ele>
        <time>1970-01-01T05:23:51.000Z</time>
      </trkpt>
      <trkpt lat="42.221225" lon="2.552814">
        <ele>262</ele>
        <time>1970-01-01T05:23:52.000Z</time>
      </trkpt>
      <trkpt lat="42.221248" lon="2.552781">
        <ele>262</ele>
        <time>1970-01-01T05:23:54.000Z</time>
      </trkpt>
      <trkpt lat="42.221271" lon="2.552747">
        <ele>262</ele>
        <time>1970-01-01T05:23:56.000Z</time>
      </trkpt>
      <trkpt lat="42.221295" lon="2.552713">
        <ele>262</ele>
        <time>1970-01-01T05:23:57.000Z</time>
      </trkpt>
      <trkpt lat="42.221318" lon="2.552679">
        <ele>262</ele>
        <time>1970-01-01T05:23:58.000Z</time>
      </trkpt>
      <trkpt lat="42.221341" lon="2.552645">
        <ele>264</ele>
        <time>1970-01-01T05:23:59.000Z</time>
      </trkpt>
      <trkpt lat="42.22137" lon="2.552565">
        <ele>264</ele>
        <time>1970-01-01T05:24:00.000Z</time>
      </trkpt>
      <trkpt lat="42.221385" lon="2.552517">
        <ele>264</ele>
        <time>1970-01-01T05:24:02.000Z</time>
      </trkpt>
      <trkpt lat="42.221399" lon="2.552469">
        <ele>264</ele>
        <time>1970-01-01T05:24:03.000Z</time>
      </trkpt>
      <trkpt lat="42.221414" lon="2.552422">
        <ele>264</ele>
        <time>1970-01-01T05:24:05.000Z</time>
      </trkpt>
      <trkpt lat="42.221428" lon="2.552374">
        <ele>264</ele>
        <time>1970-01-01T05:24:06.000Z</time>
      </trkpt>
      <trkpt lat="42.221443" lon="2.552326">
        <ele>264</ele>
        <time>1970-01-01T05:24:08.000Z</time>
      </trkpt>
      <trkpt lat="42.221457" lon="2.552278">
        <ele>265</ele>
        <time>1970-01-01T05:24:09.000Z</time>
      </trkpt>
      <trkpt lat="42.221458" lon="2.552181">
        <ele>265</ele>
        <time>1970-01-01T05:24:10.000Z</time>
      </trkpt>
      <trkpt lat="42.221456" lon="2.552126">
        <ele>265</ele>
        <time>1970-01-01T05:24:12.000Z</time>
      </trkpt>
      <trkpt lat="42.221454" lon="2.55207">
        <ele>265</ele>
        <time>1970-01-01T05:24:14.000Z</time>
      </trkpt>
      <trkpt lat="42.221453" lon="2.552014">
        <ele>265</ele>
        <time>1970-01-01T05:24:16.000Z</time>
      </trkpt>
      <trkpt lat="42.221451" lon="2.551958">
        <ele>265</ele>
        <time>1970-01-01T05:24:17.000Z</time>
      </trkpt>
      <trkpt lat="42.221449" lon="2.551903">
        <ele>265</ele>
        <time>1970-01-01T05:24:18.000Z</time>
      </trkpt>
      <trkpt lat="42.221447" lon="2.551847">
        <ele>265</ele>
        <time>1970-01-01T05:24:19.000Z</time>
      </trkpt>
      <trkpt lat="42.221441" lon="2.551734">
        <ele>265</ele>
        <time>1970-01-01T05:24:20.000Z</time>
      </trkpt>
      <trkpt lat="42.221439" lon="2.551663">
        <ele>265</ele>
        <time>1970-01-01T05:24:21.000Z</time>
      </trkpt>
      <trkpt lat="42.221436" lon="2.551593">
        <ele>265</ele>
        <time>1970-01-01T05:24:23.000Z</time>
      </trkpt>
      <trkpt lat="42.221433" lon="2.551523">
        <ele>265</ele>
        <time>1970-01-01T05:24:25.000Z</time>
      </trkpt>
      <trkpt lat="42.221431" lon="2.551452">
        <ele>265</ele>
        <time>1970-01-01T05:24:27.000Z</time>
      </trkpt>
      <trkpt lat="42.221428" lon="2.551382">
        <ele>265</ele>
        <time>1970-01-01T05:24:29.000Z</time>
      </trkpt>
      <trkpt lat="42.221425" lon="2.551287">
        <ele>265</ele>
        <time>1970-01-01T05:24:31.000Z</time>
      </trkpt>
      <trkpt lat="42.221423" lon="2.55124">
        <ele>265</ele>
        <time>1970-01-01T05:24:32.000Z</time>
      </trkpt>
      <trkpt lat="42.22142" lon="2.551193">
        <ele>265</ele>
        <time>1970-01-01T05:24:33.000Z</time>
      </trkpt>
      <trkpt lat="42.221418" lon="2.551146">
        <ele>265</ele>
        <time>1970-01-01T05:24:34.000Z</time>
      </trkpt>
      <trkpt lat="42.221416" lon="2.551099">
        <ele>265</ele>
        <time>1970-01-01T05:24:35.000Z</time>
      </trkpt>
      <trkpt lat="42.221414" lon="2.551052">
        <ele>265</ele>
        <time>1970-01-01T05:24:36.000Z</time>
      </trkpt>
      <trkpt lat="42.221411" lon="2.551005">
        <ele>265</ele>
        <time>1970-01-01T05:24:37.000Z</time>
      </trkpt>
      <trkpt lat="42.221409" lon="2.550958">
        <ele>265</ele>
        <time>1970-01-01T05:24:38.000Z</time>
      </trkpt>
      <trkpt lat="42.221407" lon="2.550911">
        <ele>265</ele>
        <time>1970-01-01T05:24:39.000Z</time>
      </trkpt>
      <trkpt lat="42.221401" lon="2.550822">
        <ele>265</ele>
        <time>1970-01-01T05:24:40.000Z</time>
      </trkpt>
      <trkpt lat="42.221399" lon="2.550781">
        <ele>265</ele>
        <time>1970-01-01T05:24:41.000Z</time>
      </trkpt>
      <trkpt lat="42.221398" lon="2.550741">
        <ele>265</ele>
        <time>1970-01-01T05:24:42.000Z</time>
      </trkpt>
      <trkpt lat="42.221396" lon="2.5507">
        <ele>265</ele>
        <time>1970-01-01T05:24:43.000Z</time>
      </trkpt>
      <trkpt lat="42.221394" lon="2.550659">
        <ele>265</ele>
        <time>1970-01-01T05:24:44.000Z</time>
      </trkpt>
      <trkpt lat="42.221392" lon="2.550618">
        <ele>265</ele>
        <time>1970-01-01T05:24:45.000Z</time>
      </trkpt>
      <trkpt lat="42.22139" lon="2.550577">
        <ele>265</ele>
        <time>1970-01-01T05:24:46.000Z</time>
      </trkpt>
      <trkpt lat="42.221389" lon="2.550537">
        <ele>265</ele>
        <time>1970-01-01T05:24:47.000Z</time>
      </trkpt>
      <trkpt lat="42.221387" lon="2.550496">
        <ele>265</ele>
        <time>1970-01-01T05:24:48.000Z</time>
      </trkpt>
      <trkpt lat="42.221385" lon="2.550455">
        <ele>266</ele>
        <time>1970-01-01T05:24:49.000Z</time>
      </trkpt>
      <trkpt lat="42.221382" lon="2.55039">
        <ele>266</ele>
        <time>1970-01-01T05:24:50.000Z</time>
      </trkpt>
      <trkpt lat="42.221381" lon="2.550349">
        <ele>266</ele>
        <time>1970-01-01T05:24:51.000Z</time>
      </trkpt>
      <trkpt lat="42.221379" lon="2.550309">
        <ele>266</ele>
        <time>1970-01-01T05:24:52.000Z</time>
      </trkpt>
      <trkpt lat="42.221378" lon="2.550268">
        <ele>266</ele>
        <time>1970-01-01T05:24:53.000Z</time>
      </trkpt>
      <trkpt lat="42.221376" lon="2.550227">
        <ele>266</ele>
        <time>1970-01-01T05:24:54.000Z</time>
      </trkpt>
      <trkpt lat="42.221374" lon="2.550186">
        <ele>266</ele>
        <time>1970-01-01T05:24:55.000Z</time>
      </trkpt>
      <trkpt lat="42.221373" lon="2.550145">
        <ele>266</ele>
        <time>1970-01-01T05:24:56.000Z</time>
      </trkpt>
      <trkpt lat="42.221371" lon="2.550105">
        <ele>266</ele>
        <time>1970-01-01T05:24:57.000Z</time>
      </trkpt>
      <trkpt lat="42.22137" lon="2.550064">
        <ele>266</ele>
        <time>1970-01-01T05:24:58.000Z</time>
      </trkpt>
      <trkpt lat="42.221368" lon="2.550023">
        <ele>267</ele>
        <time>1970-01-01T05:24:59.000Z</time>
      </trkpt>
      <trkpt lat="42.221369" lon="2.549949">
        <ele>267</ele>
        <time>1970-01-01T05:25:00.000Z</time>
      </trkpt>
      <trkpt lat="42.221372" lon="2.549914">
        <ele>267</ele>
        <time>1970-01-01T05:25:01.000Z</time>
      </trkpt>
      <trkpt lat="42.221374" lon="2.54988">
        <ele>267</ele>
        <time>1970-01-01T05:25:02.000Z</time>
      </trkpt>
      <trkpt lat="42.221377" lon="2.549845">
        <ele>267</ele>
        <time>1970-01-01T05:25:03.000Z</time>
      </trkpt>
      <trkpt lat="42.221379" lon="2.549811">
        <ele>267</ele>
        <time>1970-01-01T05:25:04.000Z</time>
      </trkpt>
      <trkpt lat="42.221381" lon="2.549776">
        <ele>267</ele>
        <time>1970-01-01T05:25:05.000Z</time>
      </trkpt>
      <trkpt lat="42.221384" lon="2.549742">
        <ele>267</ele>
        <time>1970-01-01T05:25:06.000Z</time>
      </trkpt>
      <trkpt lat="42.221386" lon="2.549707">
        <ele>267</ele>
        <time>1970-01-01T05:25:07.000Z</time>
      </trkpt>
      <trkpt lat="42.221389" lon="2.549673">
        <ele>267</ele>
        <time>1970-01-01T05:25:08.000Z</time>
      </trkpt>
      <trkpt lat="42.221391" lon="2.549638">
        <ele>269</ele>
        <time>1970-01-01T05:25:09.000Z</time>
      </trkpt>
      <trkpt lat="42.221401" lon="2.54957">
        <ele>269</ele>
        <time>1970-01-01T05:25:10.000Z</time>
      </trkpt>
      <trkpt lat="42.221409" lon="2.549539">
        <ele>269</ele>
        <time>1970-01-01T05:25:11.000Z</time>
      </trkpt>
      <trkpt lat="42.221416" lon="2.549507">
        <ele>269</ele>
        <time>1970-01-01T05:25:12.000Z</time>
      </trkpt>
      <trkpt lat="42.221424" lon="2.549476">
        <ele>269</ele>
        <time>1970-01-01T05:25:13.000Z</time>
      </trkpt>
      <trkpt lat="42.221432" lon="2.549444">
        <ele>269</ele>
        <time>1970-01-01T05:25:14.000Z</time>
      </trkpt>
      <trkpt lat="42.22144" lon="2.549412">
        <ele>269</ele>
        <time>1970-01-01T05:25:15.000Z</time>
      </trkpt>
      <trkpt lat="42.221448" lon="2.549381">
        <ele>269</ele>
        <time>1970-01-01T05:25:16.000Z</time>
      </trkpt>
      <trkpt lat="42.221455" lon="2.549349">
        <ele>269</ele>
        <time>1970-01-01T05:25:17.000Z</time>
      </trkpt>
      <trkpt lat="42.221463" lon="2.549318">
        <ele>269</ele>
        <time>1970-01-01T05:25:18.000Z</time>
      </trkpt>
      <trkpt lat="42.221471" lon="2.549286">
        <ele>270</ele>
        <time>1970-01-01T05:25:19.000Z</time>
      </trkpt>
      <trkpt lat="42.221492" lon="2.549222">
        <ele>270</ele>
        <time>1970-01-01T05:25:20.000Z</time>
      </trkpt>
      <trkpt lat="42.221504" lon="2.549188">
        <ele>270</ele>
        <time>1970-01-01T05:25:21.000Z</time>
      </trkpt>
      <trkpt lat="42.221515" lon="2.549155">
        <ele>270</ele>
        <time>1970-01-01T05:25:22.000Z</time>
      </trkpt>
      <trkpt lat="42.221527" lon="2.549122">
        <ele>270</ele>
        <time>1970-01-01T05:25:23.000Z</time>
      </trkpt>
      <trkpt lat="42.221538" lon="2.549088">
        <ele>270</ele>
        <time>1970-01-01T05:25:24.000Z</time>
      </trkpt>
      <trkpt lat="42.221549" lon="2.549055">
        <ele>270</ele>
        <time>1970-01-01T05:25:26.000Z</time>
      </trkpt>
      <trkpt lat="42.221561" lon="2.549021">
        <ele>270</ele>
        <time>1970-01-01T05:25:28.000Z</time>
      </trkpt>
      <trkpt lat="42.221572" lon="2.548988">
        <ele>272</ele>
        <time>1970-01-01T05:25:29.000Z</time>
      </trkpt>
      <trkpt lat="42.221591" lon="2.548927">
        <ele>272</ele>
        <time>1970-01-01T05:25:30.000Z</time>
      </trkpt>
      <trkpt lat="42.221598" lon="2.548896">
        <ele>272</ele>
        <time>1970-01-01T05:25:31.000Z</time>
      </trkpt>
      <trkpt lat="42.221606" lon="2.548865">
        <ele>272</ele>
        <time>1970-01-01T05:25:33.000Z</time>
      </trkpt>
      <trkpt lat="42.221614" lon="2.548834">
        <ele>272</ele>
        <time>1970-01-01T05:25:34.000Z</time>
      </trkpt>
      <trkpt lat="42.221621" lon="2.548803">
        <ele>272</ele>
        <time>1970-01-01T05:25:35.000Z</time>
      </trkpt>
      <trkpt lat="42.221629" lon="2.548772">
        <ele>272</ele>
        <time>1970-01-01T05:25:36.000Z</time>
      </trkpt>
      <trkpt lat="42.221637" lon="2.548741">
        <ele>272</ele>
        <time>1970-01-01T05:25:37.000Z</time>
      </trkpt>
      <trkpt lat="42.221644" lon="2.54871">
        <ele>272</ele>
        <time>1970-01-01T05:25:38.000Z</time>
      </trkpt>
      <trkpt lat="42.221652" lon="2.548679">
        <ele>274</ele>
        <time>1970-01-01T05:25:39.000Z</time>
      </trkpt>
      <trkpt lat="42.22166" lon="2.548583">
        <ele>274</ele>
        <time>1970-01-01T05:25:40.000Z</time>
      </trkpt>
      <trkpt lat="42.221662" lon="2.54854">
        <ele>274</ele>
        <time>1970-01-01T05:25:41.000Z</time>
      </trkpt>
      <trkpt lat="42.221663" lon="2.548496">
        <ele>274</ele>
        <time>1970-01-01T05:25:43.000Z</time>
      </trkpt>
      <trkpt lat="42.221665" lon="2.548452">
        <ele>274</ele>
        <time>1970-01-01T05:25:44.000Z</time>
      </trkpt>
      <trkpt lat="42.221666" lon="2.548408">
        <ele>274</ele>
        <time>1970-01-01T05:25:46.000Z</time>
      </trkpt>
      <trkpt lat="42.221668" lon="2.548365">
        <ele>274</ele>
        <time>1970-01-01T05:25:48.000Z</time>
      </trkpt>
      <trkpt lat="42.221669" lon="2.548321">
        <ele>275</ele>
        <time>1970-01-01T05:25:49.000Z</time>
      </trkpt>
      <trkpt lat="42.221668" lon="2.548257">
        <ele>275</ele>
        <time>1970-01-01T05:25:50.000Z</time>
      </trkpt>
      <trkpt lat="42.221667" lon="2.54821">
        <ele>275</ele>
        <time>1970-01-01T05:25:51.000Z</time>
      </trkpt>
      <trkpt lat="42.221667" lon="2.548163">
        <ele>275</ele>
        <time>1970-01-01T05:25:53.000Z</time>
      </trkpt>
      <trkpt lat="42.221666" lon="2.548116">
        <ele>275</ele>
        <time>1970-01-01T05:25:54.000Z</time>
      </trkpt>
      <trkpt lat="42.221666" lon="2.548069">
        <ele>275</ele>
        <time>1970-01-01T05:25:56.000Z</time>
      </trkpt>
      <trkpt lat="42.221665" lon="2.548022">
        <ele>275</ele>
        <time>1970-01-01T05:25:57.000Z</time>
      </trkpt>
      <trkpt lat="42.221665" lon="2.547975">
        <ele>276</ele>
        <time>1970-01-01T05:25:59.000Z</time>
      </trkpt>
      <trkpt lat="42.221657" lon="2.54791">
        <ele>276</ele>
        <time>1970-01-01T05:26:00.000Z</time>
      </trkpt>
      <trkpt lat="42.22165" lon="2.547877">
        <ele>276</ele>
        <time>1970-01-01T05:26:02.000Z</time>
      </trkpt>
      <trkpt lat="42.221643" lon="2.547844">
        <ele>276</ele>
        <time>1970-01-01T05:26:03.000Z</time>
      </trkpt>
      <trkpt lat="42.221637" lon="2.547811">
        <ele>276</ele>
        <time>1970-01-01T05:26:04.000Z</time>
      </trkpt>
      <trkpt lat="42.22163" lon="2.547778">
        <ele>276</ele>
        <time>1970-01-01T05:26:05.000Z</time>
      </trkpt>
      <trkpt lat="42.221623" lon="2.547745">
        <ele>276</ele>
        <time>1970-01-01T05:26:07.000Z</time>
      </trkpt>
      <trkpt lat="42.221616" lon="2.547712">
        <ele>276</ele>
        <time>1970-01-01T05:26:08.000Z</time>
      </trkpt>
      <trkpt lat="42.221609" lon="2.547679">
        <ele>278</ele>
        <time>1970-01-01T05:26:09.000Z</time>
      </trkpt>
      <trkpt lat="42.221569" lon="2.547653">
        <ele>278</ele>
        <time>1970-01-01T05:26:10.000Z</time>
      </trkpt>
      <trkpt lat="42.221538" lon="2.547641">
        <ele>278</ele>
        <time>1970-01-01T05:26:11.000Z</time>
      </trkpt>
      <trkpt lat="42.221506" lon="2.547629">
        <ele>278</ele>
        <time>1970-01-01T05:26:13.000Z</time>
      </trkpt>
      <trkpt lat="42.221475" lon="2.547616">
        <ele>278</ele>
        <time>1970-01-01T05:26:15.000Z</time>
      </trkpt>
      <trkpt lat="42.221443" lon="2.547604">
        <ele>278</ele>
        <time>1970-01-01T05:26:16.000Z</time>
      </trkpt>
      <trkpt lat="42.221412" lon="2.547592">
        <ele>278</ele>
        <time>1970-01-01T05:26:17.000Z</time>
      </trkpt>
      <trkpt lat="42.22138" lon="2.54758">
        <ele>280</ele>
        <time>1970-01-01T05:26:19.000Z</time>
      </trkpt>
      <trkpt lat="42.221343" lon="2.547624">
        <ele>280</ele>
        <time>1970-01-01T05:26:21.000Z</time>
      </trkpt>
      <trkpt lat="42.221327" lon="2.547654">
        <ele>280</ele>
        <time>1970-01-01T05:26:22.000Z</time>
      </trkpt>
      <trkpt lat="42.221312" lon="2.547684">
        <ele>280</ele>
        <time>1970-01-01T05:26:23.000Z</time>
      </trkpt>
      <trkpt lat="42.221296" lon="2.547714">
        <ele>280</ele>
        <time>1970-01-01T05:26:24.000Z</time>
      </trkpt>
      <trkpt lat="42.221281" lon="2.547743">
        <ele>280</ele>
        <time>1970-01-01T05:26:26.000Z</time>
      </trkpt>
      <trkpt lat="42.221265" lon="2.547773">
        <ele>280</ele>
        <time>1970-01-01T05:26:28.000Z</time>
      </trkpt>
      <trkpt lat="42.22125" lon="2.547803">
        <ele>280</ele>
        <time>1970-01-01T05:26:29.000Z</time>
      </trkpt>
      <trkpt lat="42.221234" lon="2.547833">
        <ele>281</ele>
        <time>1970-01-01T05:26:30.000Z</time>
      </trkpt>
      <trkpt lat="42.221219" lon="2.547901">
        <ele>281</ele>
        <time>1970-01-01T05:26:31.000Z</time>
      </trkpt>
      <trkpt lat="42.221214" lon="2.547926">
        <ele>281</ele>
        <time>1970-01-01T05:26:32.000Z</time>
      </trkpt>
      <trkpt lat="42.221208" lon="2.547951">
        <ele>281</ele>
        <time>1970-01-01T05:26:33.000Z</time>
      </trkpt>
      <trkpt lat="42.221203" lon="2.547976">
        <ele>281</ele>
        <time>1970-01-01T05:26:34.000Z</time>
      </trkpt>
      <trkpt lat="42.221198" lon="2.548001">
        <ele>281</ele>
        <time>1970-01-01T05:26:35.000Z</time>
      </trkpt>
      <trkpt lat="42.221193" lon="2.548026">
        <ele>281</ele>
        <time>1970-01-01T05:26:36.000Z</time>
      </trkpt>
      <trkpt lat="42.221187" lon="2.548051">
        <ele>281</ele>
        <time>1970-01-01T05:26:37.000Z</time>
      </trkpt>
      <trkpt lat="42.221182" lon="2.548076">
        <ele>281</ele>
        <time>1970-01-01T05:26:38.000Z</time>
      </trkpt>
      <trkpt lat="42.221177" lon="2.548101">
        <ele>283</ele>
        <time>1970-01-01T05:26:39.000Z</time>
      </trkpt>
      <trkpt lat="42.221168" lon="2.548149">
        <ele>283</ele>
        <time>1970-01-01T05:26:40.000Z</time>
      </trkpt>
      <trkpt lat="42.221162" lon="2.548183">
        <ele>283</ele>
        <time>1970-01-01T05:26:41.000Z</time>
      </trkpt>
      <trkpt lat="42.221156" lon="2.548216">
        <ele>283</ele>
        <time>1970-01-01T05:26:42.000Z</time>
      </trkpt>
      <trkpt lat="42.22115" lon="2.548249">
        <ele>283</ele>
        <time>1970-01-01T05:26:43.000Z</time>
      </trkpt>
      <trkpt lat="42.221144" lon="2.548282">
        <ele>283</ele>
        <time>1970-01-01T05:26:44.000Z</time>
      </trkpt>
      <trkpt lat="42.221138" lon="2.548316">
        <ele>283</ele>
        <time>1970-01-01T05:26:46.000Z</time>
      </trkpt>
      <trkpt lat="42.221132" lon="2.548349">
        <ele>283</ele>
        <time>1970-01-01T05:26:47.000Z</time>
      </trkpt>
      <trkpt lat="42.221126" lon="2.548382">
        <ele>284</ele>
        <time>1970-01-01T05:26:49.000Z</time>
      </trkpt>
      <trkpt lat="42.221117" lon="2.54844">
        <ele>284</ele>
        <time>1970-01-01T05:26:50.000Z</time>
      </trkpt>
      <trkpt lat="42.221112" lon="2.548467">
        <ele>284</ele>
        <time>1970-01-01T05:26:51.000Z</time>
      </trkpt>
      <trkpt lat="42.221107" lon="2.548495">
        <ele>284</ele>
        <time>1970-01-01T05:26:52.000Z</time>
      </trkpt>
      <trkpt lat="42.221102" lon="2.548522">
        <ele>284</ele>
        <time>1970-01-01T05:26:53.000Z</time>
      </trkpt>
      <trkpt lat="42.221097" lon="2.54855">
        <ele>284</ele>
        <time>1970-01-01T05:26:54.000Z</time>
      </trkpt>
      <trkpt lat="42.221092" lon="2.548577">
        <ele>284</ele>
        <time>1970-01-01T05:26:55.000Z</time>
      </trkpt>
      <trkpt lat="42.221087" lon="2.548605">
        <ele>284</ele>
        <time>1970-01-01T05:26:56.000Z</time>
      </trkpt>
      <trkpt lat="42.221082" lon="2.548632">
        <ele>284</ele>
        <time>1970-01-01T05:26:57.000Z</time>
      </trkpt>
      <trkpt lat="42.221077" lon="2.54866">
        <ele>284</ele>
        <time>1970-01-01T05:26:58.000Z</time>
      </trkpt>
      <trkpt lat="42.221072" lon="2.548687">
        <ele>285</ele>
        <time>1970-01-01T05:26:59.000Z</time>
      </trkpt>
      <trkpt lat="42.221058" lon="2.548746">
        <ele>285</ele>
        <time>1970-01-01T05:27:00.000Z</time>
      </trkpt>
      <trkpt lat="42.221052" lon="2.548774">
        <ele>285</ele>
        <time>1970-01-01T05:27:01.000Z</time>
      </trkpt>
      <trkpt lat="42.221046" lon="2.548803">
        <ele>285</ele>
        <time>1970-01-01T05:27:02.000Z</time>
      </trkpt>
      <trkpt lat="42.22104" lon="2.548831">
        <ele>285</ele>
        <time>1970-01-01T05:27:03.000Z</time>
      </trkpt>
      <trkpt lat="42.221035" lon="2.548859">
        <ele>285</ele>
        <time>1970-01-01T05:27:04.000Z</time>
      </trkpt>
      <trkpt lat="42.221029" lon="2.548887">
        <ele>285</ele>
        <time>1970-01-01T05:27:05.000Z</time>
      </trkpt>
      <trkpt lat="42.221023" lon="2.548915">
        <ele>285</ele>
        <time>1970-01-01T05:27:06.000Z</time>
      </trkpt>
      <trkpt lat="42.221017" lon="2.548944">
        <ele>285</ele>
        <time>1970-01-01T05:27:07.000Z</time>
      </trkpt>
      <trkpt lat="42.221011" lon="2.548972">
        <ele>285</ele>
        <time>1970-01-01T05:27:08.000Z</time>
      </trkpt>
      <trkpt lat="42.221005" lon="2.549">
        <ele>286</ele>
        <time>1970-01-01T05:27:09.000Z</time>
      </trkpt>
      <trkpt lat="42.220994" lon="2.54906">
        <ele>286</ele>
        <time>1970-01-01T05:27:10.000Z</time>
      </trkpt>
      <trkpt lat="42.220988" lon="2.54909">
        <ele>286</ele>
        <time>1970-01-01T05:27:11.000Z</time>
      </trkpt>
      <trkpt lat="42.220983" lon="2.549119">
        <ele>286</ele>
        <time>1970-01-01T05:27:12.000Z</time>
      </trkpt>
      <trkpt lat="42.220978" lon="2.549149">
        <ele>286</ele>
        <time>1970-01-01T05:27:13.000Z</time>
      </trkpt>
      <trkpt lat="42.220973" lon="2.549178">
        <ele>286</ele>
        <time>1970-01-01T05:27:14.000Z</time>
      </trkpt>
      <trkpt lat="42.220967" lon="2.549207">
        <ele>286</ele>
        <time>1970-01-01T05:27:15.000Z</time>
      </trkpt>
      <trkpt lat="42.220962" lon="2.549237">
        <ele>286</ele>
        <time>1970-01-01T05:27:16.000Z</time>
      </trkpt>
      <trkpt lat="42.220957" lon="2.549266">
        <ele>286</ele>
        <time>1970-01-01T05:27:17.000Z</time>
      </trkpt>
      <trkpt lat="42.220951" lon="2.549296">
        <ele>286</ele>
        <time>1970-01-01T05:27:18.000Z</time>
      </trkpt>
      <trkpt lat="42.220946" lon="2.549325">
        <ele>287</ele>
        <time>1970-01-01T05:27:19.000Z</time>
      </trkpt>
      <trkpt lat="42.220932" lon="2.549389">
        <ele>287</ele>
        <time>1970-01-01T05:27:20.000Z</time>
      </trkpt>
      <trkpt lat="42.220927" lon="2.549421">
        <ele>287</ele>
        <time>1970-01-01T05:27:21.000Z</time>
      </trkpt>
      <trkpt lat="42.220921" lon="2.549452">
        <ele>287</ele>
        <time>1970-01-01T05:27:22.000Z</time>
      </trkpt>
      <trkpt lat="42.220915" lon="2.549484">
        <ele>287</ele>
        <time>1970-01-01T05:27:23.000Z</time>
      </trkpt>
      <trkpt lat="42.22091" lon="2.549515">
        <ele>287</ele>
        <time>1970-01-01T05:27:24.000Z</time>
      </trkpt>
      <trkpt lat="42.220904" lon="2.549546">
        <ele>287</ele>
        <time>1970-01-01T05:27:25.000Z</time>
      </trkpt>
      <trkpt lat="42.220898" lon="2.549578">
        <ele>287</ele>
        <time>1970-01-01T05:27:26.000Z</time>
      </trkpt>
      <trkpt lat="42.220892" lon="2.549609">
        <ele>287</ele>
        <time>1970-01-01T05:27:27.000Z</time>
      </trkpt>
      <trkpt lat="42.220887" lon="2.549641">
        <ele>287</ele>
        <time>1970-01-01T05:27:28.000Z</time>
      </trkpt>
      <trkpt lat="42.220881" lon="2.549672">
        <ele>289</ele>
        <time>1970-01-01T05:27:29.000Z</time>
      </trkpt>
      <trkpt lat="42.220865" lon="2.549764">
        <ele>289</ele>
        <time>1970-01-01T05:27:30.000Z</time>
      </trkpt>
      <trkpt lat="42.220857" lon="2.549806">
        <ele>289</ele>
        <time>1970-01-01T05:27:31.000Z</time>
      </trkpt>
      <trkpt lat="42.220848" lon="2.549848">
        <ele>289</ele>
        <time>1970-01-01T05:27:33.000Z</time>
      </trkpt>
      <trkpt lat="42.22084" lon="2.549891">
        <ele>289</ele>
        <time>1970-01-01T05:27:35.000Z</time>
      </trkpt>
      <trkpt lat="42.220831" lon="2.549933">
        <ele>289</ele>
        <time>1970-01-01T05:27:37.000Z</time>
      </trkpt>
      <trkpt lat="42.220823" lon="2.549975">
        <ele>289</ele>
        <time>1970-01-01T05:27:38.000Z</time>
      </trkpt>
      <trkpt lat="42.220814" lon="2.550017">
        <ele>291</ele>
        <time>1970-01-01T05:27:39.000Z</time>
      </trkpt>
      <trkpt lat="42.22079" lon="2.550081">
        <ele>291</ele>
        <time>1970-01-01T05:27:40.000Z</time>
      </trkpt>
      <trkpt lat="42.220776" lon="2.550114">
        <ele>291</ele>
        <time>1970-01-01T05:27:42.000Z</time>
      </trkpt>
      <trkpt lat="42.220761" lon="2.550146">
        <ele>291</ele>
        <time>1970-01-01T05:27:43.000Z</time>
      </trkpt>
      <trkpt lat="42.220747" lon="2.550178">
        <ele>291</ele>
        <time>1970-01-01T05:27:45.000Z</time>
      </trkpt>
      <trkpt lat="42.220732" lon="2.55021">
        <ele>291</ele>
        <time>1970-01-01T05:27:47.000Z</time>
      </trkpt>
      <trkpt lat="42.220718" lon="2.550243">
        <ele>291</ele>
        <time>1970-01-01T05:27:48.000Z</time>
      </trkpt>
      <trkpt lat="42.220703" lon="2.550275">
        <ele>292</ele>
        <time>1970-01-01T05:27:49.000Z</time>
      </trkpt>
      <trkpt lat="42.220663" lon="2.55031">
        <ele>292</ele>
        <time>1970-01-01T05:27:50.000Z</time>
      </trkpt>
      <trkpt lat="42.220636" lon="2.55032">
        <ele>292</ele>
        <time>1970-01-01T05:27:51.000Z</time>
      </trkpt>
      <trkpt lat="42.220609" lon="2.55033">
        <ele>292</ele>
        <time>1970-01-01T05:27:52.000Z</time>
      </trkpt>
      <trkpt lat="42.220582" lon="2.55034">
        <ele>292</ele>
        <time>1970-01-01T05:27:53.000Z</time>
      </trkpt>
      <trkpt lat="42.220556" lon="2.550351">
        <ele>292</ele>
        <time>1970-01-01T05:27:54.000Z</time>
      </trkpt>
      <trkpt lat="42.220529" lon="2.550361">
        <ele>292</ele>
        <time>1970-01-01T05:27:55.000Z</time>
      </trkpt>
      <trkpt lat="42.220502" lon="2.550371">
        <ele>292</ele>
        <time>1970-01-01T05:27:56.000Z</time>
      </trkpt>
      <trkpt lat="42.220475" lon="2.550381">
        <ele>292</ele>
        <time>1970-01-01T05:27:57.000Z</time>
      </trkpt>
      <trkpt lat="42.220448" lon="2.550391">
        <ele>292</ele>
        <time>1970-01-01T05:27:58.000Z</time>
      </trkpt>
      <trkpt lat="42.220421" lon="2.550401">
        <ele>293</ele>
        <time>1970-01-01T05:27:59.000Z</time>
      </trkpt>
      <trkpt lat="42.220362" lon="2.550404">
        <ele>293</ele>
        <time>1970-01-01T05:28:00.000Z</time>
      </trkpt>
      <trkpt lat="42.220336" lon="2.550401">
        <ele>293</ele>
        <time>1970-01-01T05:28:01.000Z</time>
      </trkpt>
      <trkpt lat="42.22031" lon="2.550399">
        <ele>293</ele>
        <time>1970-01-01T05:28:02.000Z</time>
      </trkpt>
      <trkpt lat="42.220284" lon="2.550397">
        <ele>293</ele>
        <time>1970-01-01T05:28:03.000Z</time>
      </trkpt>
      <trkpt lat="42.220258" lon="2.550394">
        <ele>293</ele>
        <time>1970-01-01T05:28:04.000Z</time>
      </trkpt>
      <trkpt lat="42.220232" lon="2.550392">
        <ele>293</ele>
        <time>1970-01-01T05:28:05.000Z</time>
      </trkpt>
      <trkpt lat="42.220206" lon="2.55039">
        <ele>293</ele>
        <time>1970-01-01T05:28:06.000Z</time>
      </trkpt>
      <trkpt lat="42.22018" lon="2.550388">
        <ele>293</ele>
        <time>1970-01-01T05:28:07.000Z</time>
      </trkpt>
      <trkpt lat="42.220154" lon="2.550385">
        <ele>293</ele>
        <time>1970-01-01T05:28:08.000Z</time>
      </trkpt>
      <trkpt lat="42.220128" lon="2.550383">
        <ele>294</ele>
        <time>1970-01-01T05:28:09.000Z</time>
      </trkpt>
      <trkpt lat="42.220075" lon="2.550371">
        <ele>294</ele>
        <time>1970-01-01T05:28:10.000Z</time>
      </trkpt>
      <trkpt lat="42.220048" lon="2.550365">
        <ele>294</ele>
        <time>1970-01-01T05:28:11.000Z</time>
      </trkpt>
      <trkpt lat="42.220021" lon="2.55036">
        <ele>294</ele>
        <time>1970-01-01T05:28:13.000Z</time>
      </trkpt>
      <trkpt lat="42.219994" lon="2.550354">
        <ele>294</ele>
        <time>1970-01-01T05:28:14.000Z</time>
      </trkpt>
      <trkpt lat="42.219967" lon="2.550348">
        <ele>294</ele>
        <time>1970-01-01T05:28:15.000Z</time>
      </trkpt>
      <trkpt lat="42.21994" lon="2.550342">
        <ele>294</ele>
        <time>1970-01-01T05:28:16.000Z</time>
      </trkpt>
      <trkpt lat="42.219913" lon="2.550337">
        <ele>294</ele>
        <time>1970-01-01T05:28:17.000Z</time>
      </trkpt>
      <trkpt lat="42.219886" lon="2.550331">
        <ele>294</ele>
        <time>1970-01-01T05:28:18.000Z</time>
      </trkpt>
      <trkpt lat="42.219859" lon="2.550325">
        <ele>295</ele>
        <time>1970-01-01T05:28:19.000Z</time>
      </trkpt>
      <trkpt lat="42.219804" lon="2.550308">
        <ele>295</ele>
        <time>1970-01-01T05:28:20.000Z</time>
      </trkpt>
      <trkpt lat="42.219775" lon="2.550296">
        <ele>295</ele>
        <time>1970-01-01T05:28:21.000Z</time>
      </trkpt>
      <trkpt lat="42.219747" lon="2.550285">
        <ele>295</ele>
        <time>1970-01-01T05:28:22.000Z</time>
      </trkpt>
      <trkpt lat="42.219719" lon="2.550273">
        <ele>295</ele>
        <time>1970-01-01T05:28:23.000Z</time>
      </trkpt>
      <trkpt lat="42.21969" lon="2.550262">
        <ele>295</ele>
        <time>1970-01-01T05:28:24.000Z</time>
      </trkpt>
      <trkpt lat="42.219662" lon="2.550251">
        <ele>295</ele>
        <time>1970-01-01T05:28:26.000Z</time>
      </trkpt>
      <trkpt lat="42.219633" lon="2.550239">
        <ele>295</ele>
        <time>1970-01-01T05:28:28.000Z</time>
      </trkpt>
      <trkpt lat="42.219605" lon="2.550228">
        <ele>296</ele>
        <time>1970-01-01T05:28:29.000Z</time>
      </trkpt>
      <trkpt lat="42.21952" lon="2.550212">
        <ele>296</ele>
        <time>1970-01-01T05:28:31.000Z</time>
      </trkpt>
      <trkpt lat="42.219488" lon="2.550207">
        <ele>296</ele>
        <time>1970-01-01T05:28:32.000Z</time>
      </trkpt>
      <trkpt lat="42.219456" lon="2.550202">
        <ele>296</ele>
        <time>1970-01-01T05:28:34.000Z</time>
      </trkpt>
      <trkpt lat="42.219425" lon="2.550197">
        <ele>296</ele>
        <time>1970-01-01T05:28:35.000Z</time>
      </trkpt>
      <trkpt lat="42.219393" lon="2.550192">
        <ele>296</ele>
        <time>1970-01-01T05:28:37.000Z</time>
      </trkpt>
      <trkpt lat="42.219361" lon="2.550187">
        <ele>296</ele>
        <time>1970-01-01T05:28:38.000Z</time>
      </trkpt>
      <trkpt lat="42.219329" lon="2.550182">
        <ele>298</ele>
        <time>1970-01-01T05:28:39.000Z</time>
      </trkpt>
      <trkpt lat="42.219308" lon="2.550126">
        <ele>298</ele>
        <time>1970-01-01T05:28:40.000Z</time>
      </trkpt>
      <trkpt lat="42.2193" lon="2.550073">
        <ele>298</ele>
        <time>1970-01-01T05:28:41.000Z</time>
      </trkpt>
      <trkpt lat="42.219291" lon="2.550019">
        <ele>298</ele>
        <time>1970-01-01T05:28:43.000Z</time>
      </trkpt>
      <trkpt lat="42.219283" lon="2.549965">
        <ele>298</ele>
        <time>1970-01-01T05:28:44.000Z</time>
      </trkpt>
      <trkpt lat="42.219275" lon="2.549912">
        <ele>298</ele>
        <time>1970-01-01T05:28:45.000Z</time>
      </trkpt>
      <trkpt lat="42.219267" lon="2.549858">
        <ele>298</ele>
        <time>1970-01-01T05:28:46.000Z</time>
      </trkpt>
      <trkpt lat="42.219258" lon="2.549805">
        <ele>298</ele>
        <time>1970-01-01T05:28:47.000Z</time>
      </trkpt>
      <trkpt lat="42.21925" lon="2.549751">
        <ele>300</ele>
        <time>1970-01-01T05:28:49.000Z</time>
      </trkpt>
      <trkpt lat="42.219251" lon="2.549658">
        <ele>300</ele>
        <time>1970-01-01T05:28:51.000Z</time>
      </trkpt>
      <trkpt lat="42.219253" lon="2.549607">
        <ele>300</ele>
        <time>1970-01-01T05:28:52.000Z</time>
      </trkpt>
      <trkpt lat="42.219255" lon="2.549556">
        <ele>300</ele>
        <time>1970-01-01T05:28:53.000Z</time>
      </trkpt>
      <trkpt lat="42.219256" lon="2.549506">
        <ele>300</ele>
        <time>1970-01-01T05:28:54.000Z</time>
      </trkpt>
      <trkpt lat="42.219258" lon="2.549455">
        <ele>300</ele>
        <time>1970-01-01T05:28:55.000Z</time>
      </trkpt>
      <trkpt lat="42.21926" lon="2.549404">
        <ele>300</ele>
        <time>1970-01-01T05:28:57.000Z</time>
      </trkpt>
      <trkpt lat="42.219262" lon="2.549353">
        <ele>300</ele>
        <time>1970-01-01T05:28:59.000Z</time>
      </trkpt>
      <trkpt lat="42.219268" lon="2.549274">
        <ele>300</ele>
        <time>1970-01-01T05:29:01.000Z</time>
      </trkpt>
      <trkpt lat="42.219269" lon="2.549235">
        <ele>300</ele>
        <time>1970-01-01T05:29:02.000Z</time>
      </trkpt>
      <trkpt lat="42.219271" lon="2.549196">
        <ele>300</ele>
        <time>1970-01-01T05:29:03.000Z</time>
      </trkpt>
      <trkpt lat="42.219273" lon="2.549157">
        <ele>300</ele>
        <time>1970-01-01T05:29:05.000Z</time>
      </trkpt>
      <trkpt lat="42.219274" lon="2.549118">
        <ele>300</ele>
        <time>1970-01-01T05:29:06.000Z</time>
      </trkpt>
      <trkpt lat="42.219276" lon="2.549079">
        <ele>300</ele>
        <time>1970-01-01T05:29:07.000Z</time>
      </trkpt>
      <trkpt lat="42.219277" lon="2.54904">
        <ele>300</ele>
        <time>1970-01-01T05:29:08.000Z</time>
      </trkpt>
      <trkpt lat="42.219279" lon="2.549001">
        <ele>300</ele>
        <time>1970-01-01T05:29:09.000Z</time>
      </trkpt>
      <trkpt lat="42.219281" lon="2.548923">
        <ele>300</ele>
        <time>1970-01-01T05:29:10.000Z</time>
      </trkpt>
      <trkpt lat="42.219281" lon="2.548884">
        <ele>300</ele>
        <time>1970-01-01T05:29:11.000Z</time>
      </trkpt>
      <trkpt lat="42.21928" lon="2.548846">
        <ele>300</ele>
        <time>1970-01-01T05:29:12.000Z</time>
      </trkpt>
      <trkpt lat="42.21928" lon="2.548808">
        <ele>300</ele>
        <time>1970-01-01T05:29:13.000Z</time>
      </trkpt>
      <trkpt lat="42.219279" lon="2.548769">
        <ele>300</ele>
        <time>1970-01-01T05:29:14.000Z</time>
      </trkpt>
      <trkpt lat="42.219279" lon="2.548731">
        <ele>300</ele>
        <time>1970-01-01T05:29:15.000Z</time>
      </trkpt>
      <trkpt lat="42.219278" lon="2.548693">
        <ele>300</ele>
        <time>1970-01-01T05:29:16.000Z</time>
      </trkpt>
      <trkpt lat="42.219278" lon="2.548654">
        <ele>300</ele>
        <time>1970-01-01T05:29:18.000Z</time>
      </trkpt>
      <trkpt lat="42.219277" lon="2.548616">
        <ele>303</ele>
        <time>1970-01-01T05:29:19.000Z</time>
      </trkpt>
      <trkpt lat="42.219275" lon="2.548566">
        <ele>303</ele>
        <time>1970-01-01T05:29:20.000Z</time>
      </trkpt>
      <trkpt lat="42.219274" lon="2.548534">
        <ele>303</ele>
        <time>1970-01-01T05:29:21.000Z</time>
      </trkpt>
      <trkpt lat="42.219274" lon="2.548502">
        <ele>303</ele>
        <time>1970-01-01T05:29:22.000Z</time>
      </trkpt>
      <trkpt lat="42.219274" lon="2.54847">
        <ele>303</ele>
        <time>1970-01-01T05:29:23.000Z</time>
      </trkpt>
      <trkpt lat="42.219274" lon="2.548438">
        <ele>303</ele>
        <time>1970-01-01T05:29:24.000Z</time>
      </trkpt>
      <trkpt lat="42.219273" lon="2.548407">
        <ele>303</ele>
        <time>1970-01-01T05:29:25.000Z</time>
      </trkpt>
      <trkpt lat="42.219273" lon="2.548375">
        <ele>303</ele>
        <time>1970-01-01T05:29:26.000Z</time>
      </trkpt>
      <trkpt lat="42.219273" lon="2.548343">
        <ele>303</ele>
        <time>1970-01-01T05:29:27.000Z</time>
      </trkpt>
      <trkpt lat="42.219272" lon="2.548311">
        <ele>303</ele>
        <time>1970-01-01T05:29:28.000Z</time>
      </trkpt>
      <trkpt lat="42.219272" lon="2.548279">
        <ele>304</ele>
        <time>1970-01-01T05:29:29.000Z</time>
      </trkpt>
      <trkpt lat="42.21927" lon="2.548209">
        <ele>304</ele>
        <time>1970-01-01T05:29:30.000Z</time>
      </trkpt>
      <trkpt lat="42.219269" lon="2.548175">
        <ele>304</ele>
        <time>1970-01-01T05:29:31.000Z</time>
      </trkpt>
      <trkpt lat="42.219267" lon="2.548142">
        <ele>304</ele>
        <time>1970-01-01T05:29:32.000Z</time>
      </trkpt>
      <trkpt lat="42.219266" lon="2.548108">
        <ele>304</ele>
        <time>1970-01-01T05:29:33.000Z</time>
      </trkpt>
      <trkpt lat="42.219265" lon="2.548074">
        <ele>304</ele>
        <time>1970-01-01T05:29:34.000Z</time>
      </trkpt>
      <trkpt lat="42.219264" lon="2.54804">
        <ele>304</ele>
        <time>1970-01-01T05:29:35.000Z</time>
      </trkpt>
      <trkpt lat="42.219263" lon="2.548006">
        <ele>304</ele>
        <time>1970-01-01T05:29:36.000Z</time>
      </trkpt>
      <trkpt lat="42.219262" lon="2.547972">
        <ele>304</ele>
        <time>1970-01-01T05:29:37.000Z</time>
      </trkpt>
      <trkpt lat="42.21926" lon="2.547939">
        <ele>304</ele>
        <time>1970-01-01T05:29:38.000Z</time>
      </trkpt>
      <trkpt lat="42.219259" lon="2.547905">
        <ele>304</ele>
        <time>1970-01-01T05:29:39.000Z</time>
      </trkpt>
      <trkpt lat="42.219258" lon="2.547871">
        <ele>305</ele>
        <time>1970-01-01T05:29:40.000Z</time>
      </trkpt>
      <trkpt lat="42.219256" lon="2.547788">
        <ele>305</ele>
        <time>1970-01-01T05:29:41.000Z</time>
      </trkpt>
      <trkpt lat="42.219254" lon="2.547758">
        <ele>305</ele>
        <time>1970-01-01T05:29:42.000Z</time>
      </trkpt>
      <trkpt lat="42.219253" lon="2.547728">
        <ele>305</ele>
        <time>1970-01-01T05:29:43.000Z</time>
      </trkpt>
      <trkpt lat="42.219252" lon="2.547698">
        <ele>305</ele>
        <time>1970-01-01T05:29:44.000Z</time>
      </trkpt>
      <trkpt lat="42.21925" lon="2.547668">
        <ele>305</ele>
        <time>1970-01-01T05:29:45.000Z</time>
      </trkpt>
      <trkpt lat="42.219249" lon="2.547638">
        <ele>305</ele>
        <time>1970-01-01T05:29:46.000Z</time>
      </trkpt>
      <trkpt lat="42.219248" lon="2.547608">
        <ele>305</ele>
        <time>1970-01-01T05:29:47.000Z</time>
      </trkpt>
      <trkpt lat="42.219246" lon="2.547578">
        <ele>305</ele>
        <time>1970-01-01T05:29:48.000Z</time>
      </trkpt>
      <trkpt lat="42.219245" lon="2.547548">
        <ele>306</ele>
        <time>1970-01-01T05:29:49.000Z</time>
      </trkpt>
      <trkpt lat="42.219243" lon="2.547497">
        <ele>306</ele>
        <time>1970-01-01T05:29:50.000Z</time>
      </trkpt>
      <trkpt lat="42.219242" lon="2.547465">
        <ele>306</ele>
        <time>1970-01-01T05:29:51.000Z</time>
      </trkpt>
      <trkpt lat="42.219242" lon="2.547432">
        <ele>306</ele>
        <time>1970-01-01T05:29:52.000Z</time>
      </trkpt>
      <trkpt lat="42.219241" lon="2.5474">
        <ele>306</ele>
        <time>1970-01-01T05:29:53.000Z</time>
      </trkpt>
      <trkpt lat="42.21924" lon="2.547367">
        <ele>306</ele>
        <time>1970-01-01T05:29:54.000Z</time>
      </trkpt>
      <trkpt lat="42.219239" lon="2.547335">
        <ele>306</ele>
        <time>1970-01-01T05:29:55.000Z</time>
      </trkpt>
      <trkpt lat="42.219238" lon="2.547302">
        <ele>306</ele>
        <time>1970-01-01T05:29:56.000Z</time>
      </trkpt>
      <trkpt lat="42.219238" lon="2.54727">
        <ele>306</ele>
        <time>1970-01-01T05:29:57.000Z</time>
      </trkpt>
      <trkpt lat="42.219237" lon="2.547237">
        <ele>306</ele>
        <time>1970-01-01T05:29:58.000Z</time>
      </trkpt>
      <trkpt lat="42.219236" lon="2.547205">
        <ele>306</ele>
        <time>1970-01-01T05:29:59.000Z</time>
      </trkpt>
      <trkpt lat="42.219231" lon="2.547139">
        <ele>306</ele>
        <time>1970-01-01T05:30:00.000Z</time>
      </trkpt>
      <trkpt lat="42.219229" lon="2.547107">
        <ele>306</ele>
        <time>1970-01-01T05:30:01.000Z</time>
      </trkpt>
      <trkpt lat="42.219226" lon="2.547074">
        <ele>306</ele>
        <time>1970-01-01T05:30:02.000Z</time>
      </trkpt>
      <trkpt lat="42.219224" lon="2.547042">
        <ele>306</ele>
        <time>1970-01-01T05:30:03.000Z</time>
      </trkpt>
      <trkpt lat="42.219221" lon="2.54701">
        <ele>306</ele>
        <time>1970-01-01T05:30:04.000Z</time>
      </trkpt>
      <trkpt lat="42.219218" lon="2.546978">
        <ele>306</ele>
        <time>1970-01-01T05:30:05.000Z</time>
      </trkpt>
      <trkpt lat="42.219216" lon="2.546946">
        <ele>306</ele>
        <time>1970-01-01T05:30:06.000Z</time>
      </trkpt>
      <trkpt lat="42.219213" lon="2.546913">
        <ele>306</ele>
        <time>1970-01-01T05:30:07.000Z</time>
      </trkpt>
      <trkpt lat="42.219211" lon="2.546881">
        <ele>306</ele>
        <time>1970-01-01T05:30:08.000Z</time>
      </trkpt>
      <trkpt lat="42.219208" lon="2.546849">
        <ele>308</ele>
        <time>1970-01-01T05:30:09.000Z</time>
      </trkpt>
      <trkpt lat="42.219203" lon="2.54678">
        <ele>308</ele>
        <time>1970-01-01T05:30:10.000Z</time>
      </trkpt>
      <trkpt lat="42.219202" lon="2.546748">
        <ele>308</ele>
        <time>1970-01-01T05:30:11.000Z</time>
      </trkpt>
      <trkpt lat="42.219202" lon="2.546715">
        <ele>308</ele>
        <time>1970-01-01T05:30:12.000Z</time>
      </trkpt>
      <trkpt lat="42.219201" lon="2.546683">
        <ele>308</ele>
        <time>1970-01-01T05:30:13.000Z</time>
      </trkpt>
      <trkpt lat="42.219201" lon="2.54665">
        <ele>308</ele>
        <time>1970-01-01T05:30:14.000Z</time>
      </trkpt>
      <trkpt lat="42.219201" lon="2.546617">
        <ele>308</ele>
        <time>1970-01-01T05:30:15.000Z</time>
      </trkpt>
      <trkpt lat="42.2192" lon="2.546585">
        <ele>308</ele>
        <time>1970-01-01T05:30:16.000Z</time>
      </trkpt>
      <trkpt lat="42.2192" lon="2.546552">
        <ele>308</ele>
        <time>1970-01-01T05:30:17.000Z</time>
      </trkpt>
      <trkpt lat="42.219199" lon="2.54652">
        <ele>308</ele>
        <time>1970-01-01T05:30:18.000Z</time>
      </trkpt>
      <trkpt lat="42.219199" lon="2.546487">
        <ele>309</ele>
        <time>1970-01-01T05:30:19.000Z</time>
      </trkpt>
      <trkpt lat="42.219197" lon="2.546418">
        <ele>309</ele>
        <time>1970-01-01T05:30:20.000Z</time>
      </trkpt>
      <trkpt lat="42.219196" lon="2.546384">
        <ele>309</ele>
        <time>1970-01-01T05:30:21.000Z</time>
      </trkpt>
      <trkpt lat="42.219195" lon="2.546351">
        <ele>309</ele>
        <time>1970-01-01T05:30:22.000Z</time>
      </trkpt>
      <trkpt lat="42.219194" lon="2.546318">
        <ele>309</ele>
        <time>1970-01-01T05:30:23.000Z</time>
      </trkpt>
      <trkpt lat="42.219193" lon="2.546284">
        <ele>309</ele>
        <time>1970-01-01T05:30:24.000Z</time>
      </trkpt>
      <trkpt lat="42.219191" lon="2.546251">
        <ele>309</ele>
        <time>1970-01-01T05:30:25.000Z</time>
      </trkpt>
      <trkpt lat="42.21919" lon="2.546218">
        <ele>309</ele>
        <time>1970-01-01T05:30:26.000Z</time>
      </trkpt>
      <trkpt lat="42.219189" lon="2.546185">
        <ele>309</ele>
        <time>1970-01-01T05:30:27.000Z</time>
      </trkpt>
      <trkpt lat="42.219188" lon="2.546151">
        <ele>309</ele>
        <time>1970-01-01T05:30:28.000Z</time>
      </trkpt>
      <trkpt lat="42.219187" lon="2.546118">
        <ele>310</ele>
        <time>1970-01-01T05:30:29.000Z</time>
      </trkpt>
      <trkpt lat="42.219184" lon="2.54605">
        <ele>310</ele>
        <time>1970-01-01T05:30:30.000Z</time>
      </trkpt>
      <trkpt lat="42.219183" lon="2.546017">
        <ele>310</ele>
        <time>1970-01-01T05:30:31.000Z</time>
      </trkpt>
      <trkpt lat="42.219182" lon="2.545984">
        <ele>310</ele>
        <time>1970-01-01T05:30:32.000Z</time>
      </trkpt>
      <trkpt lat="42.219181" lon="2.545951">
        <ele>310</ele>
        <time>1970-01-01T05:30:33.000Z</time>
      </trkpt>
      <trkpt lat="42.21918" lon="2.545917">
        <ele>310</ele>
        <time>1970-01-01T05:30:34.000Z</time>
      </trkpt>
      <trkpt lat="42.219178" lon="2.545884">
        <ele>310</ele>
        <time>1970-01-01T05:30:35.000Z</time>
      </trkpt>
      <trkpt lat="42.219177" lon="2.545851">
        <ele>310</ele>
        <time>1970-01-01T05:30:36.000Z</time>
      </trkpt>
      <trkpt lat="42.219176" lon="2.545818">
        <ele>310</ele>
        <time>1970-01-01T05:30:37.000Z</time>
      </trkpt>
      <trkpt lat="42.219175" lon="2.545785">
        <ele>310</ele>
        <time>1970-01-01T05:30:38.000Z</time>
      </trkpt>
      <trkpt lat="42.219174" lon="2.545752">
        <ele>311</ele>
        <time>1970-01-01T05:30:39.000Z</time>
      </trkpt>
      <trkpt lat="42.219171" lon="2.54568">
        <ele>311</ele>
        <time>1970-01-01T05:30:40.000Z</time>
      </trkpt>
      <trkpt lat="42.21917" lon="2.545647">
        <ele>311</ele>
        <time>1970-01-01T05:30:41.000Z</time>
      </trkpt>
      <trkpt lat="42.219169" lon="2.545613">
        <ele>311</ele>
        <time>1970-01-01T05:30:42.000Z</time>
      </trkpt>
      <trkpt lat="42.219168" lon="2.545579">
        <ele>311</ele>
        <time>1970-01-01T05:30:43.000Z</time>
      </trkpt>
      <trkpt lat="42.219168" lon="2.545545">
        <ele>311</ele>
        <time>1970-01-01T05:30:44.000Z</time>
      </trkpt>
      <trkpt lat="42.219167" lon="2.545512">
        <ele>311</ele>
        <time>1970-01-01T05:30:45.000Z</time>
      </trkpt>
      <trkpt lat="42.219166" lon="2.545478">
        <ele>311</ele>
        <time>1970-01-01T05:30:46.000Z</time>
      </trkpt>
      <trkpt lat="42.219165" lon="2.545444">
        <ele>311</ele>
        <time>1970-01-01T05:30:47.000Z</time>
      </trkpt>
      <trkpt lat="42.219164" lon="2.545411">
        <ele>311</ele>
        <time>1970-01-01T05:30:48.000Z</time>
      </trkpt>
      <trkpt lat="42.219163" lon="2.545377">
        <ele>312</ele>
        <time>1970-01-01T05:30:49.000Z</time>
      </trkpt>
      <trkpt lat="42.219159" lon="2.54531">
        <ele>312</ele>
        <time>1970-01-01T05:30:50.000Z</time>
      </trkpt>
      <trkpt lat="42.219157" lon="2.54528">
        <ele>312</ele>
        <time>1970-01-01T05:30:51.000Z</time>
      </trkpt>
      <trkpt lat="42.219156" lon="2.545249">
        <ele>312</ele>
        <time>1970-01-01T05:30:52.000Z</time>
      </trkpt>
      <trkpt lat="42.219154" lon="2.545219">
        <ele>312</ele>
        <time>1970-01-01T05:30:53.000Z</time>
      </trkpt>
      <trkpt lat="42.219153" lon="2.545189">
        <ele>312</ele>
        <time>1970-01-01T05:30:54.000Z</time>
      </trkpt>
      <trkpt lat="42.219151" lon="2.545159">
        <ele>312</ele>
        <time>1970-01-01T05:30:55.000Z</time>
      </trkpt>
      <trkpt lat="42.21915" lon="2.545129">
        <ele>312</ele>
        <time>1970-01-01T05:30:56.000Z</time>
      </trkpt>
      <trkpt lat="42.219148" lon="2.545098">
        <ele>312</ele>
        <time>1970-01-01T05:30:57.000Z</time>
      </trkpt>
      <trkpt lat="42.219147" lon="2.545068">
        <ele>312</ele>
        <time>1970-01-01T05:30:58.000Z</time>
      </trkpt>
      <trkpt lat="42.219145" lon="2.545038">
        <ele>313</ele>
        <time>1970-01-01T05:30:59.000Z</time>
      </trkpt>
      <trkpt lat="42.219141" lon="2.544981">
        <ele>313</ele>
        <time>1970-01-01T05:31:00.000Z</time>
      </trkpt>
      <trkpt lat="42.219139" lon="2.544951">
        <ele>313</ele>
        <time>1970-01-01T05:31:01.000Z</time>
      </trkpt>
      <trkpt lat="42.219137" lon="2.544921">
        <ele>313</ele>
        <time>1970-01-01T05:31:02.000Z</time>
      </trkpt>
      <trkpt lat="42.219135" lon="2.544891">
        <ele>313</ele>
        <time>1970-01-01T05:31:03.000Z</time>
      </trkpt>
      <trkpt lat="42.219134" lon="2.54486">
        <ele>313</ele>
        <time>1970-01-01T05:31:04.000Z</time>
      </trkpt>
      <trkpt lat="42.219132" lon="2.54483">
        <ele>313</ele>
        <time>1970-01-01T05:31:05.000Z</time>
      </trkpt>
      <trkpt lat="42.21913" lon="2.5448">
        <ele>313</ele>
        <time>1970-01-01T05:31:06.000Z</time>
      </trkpt>
      <trkpt lat="42.219128" lon="2.54477">
        <ele>313</ele>
        <time>1970-01-01T05:31:07.000Z</time>
      </trkpt>
      <trkpt lat="42.219126" lon="2.54474">
        <ele>313</ele>
        <time>1970-01-01T05:31:08.000Z</time>
      </trkpt>
      <trkpt lat="42.219124" lon="2.54471">
        <ele>315</ele>
        <time>1970-01-01T05:31:09.000Z</time>
      </trkpt>
      <trkpt lat="42.219122" lon="2.544644">
        <ele>315</ele>
        <time>1970-01-01T05:31:10.000Z</time>
      </trkpt>
      <trkpt lat="42.219121" lon="2.544613">
        <ele>315</ele>
        <time>1970-01-01T05:31:11.000Z</time>
      </trkpt>
      <trkpt lat="42.219121" lon="2.544581">
        <ele>315</ele>
        <time>1970-01-01T05:31:12.000Z</time>
      </trkpt>
      <trkpt lat="42.219121" lon="2.54455">
        <ele>315</ele>
        <time>1970-01-01T05:31:13.000Z</time>
      </trkpt>
      <trkpt lat="42.219121" lon="2.544519">
        <ele>315</ele>
        <time>1970-01-01T05:31:14.000Z</time>
      </trkpt>
      <trkpt lat="42.21912" lon="2.544488">
        <ele>315</ele>
        <time>1970-01-01T05:31:15.000Z</time>
      </trkpt>
      <trkpt lat="42.21912" lon="2.544457">
        <ele>315</ele>
        <time>1970-01-01T05:31:16.000Z</time>
      </trkpt>
      <trkpt lat="42.21912" lon="2.544425">
        <ele>315</ele>
        <time>1970-01-01T05:31:17.000Z</time>
      </trkpt>
      <trkpt lat="42.219119" lon="2.544394">
        <ele>315</ele>
        <time>1970-01-01T05:31:18.000Z</time>
      </trkpt>
      <trkpt lat="42.219119" lon="2.544363">
        <ele>316</ele>
        <time>1970-01-01T05:31:19.000Z</time>
      </trkpt>
      <trkpt lat="42.219118" lon="2.544297">
        <ele>316</ele>
        <time>1970-01-01T05:31:20.000Z</time>
      </trkpt>
      <trkpt lat="42.219117" lon="2.544265">
        <ele>316</ele>
        <time>1970-01-01T05:31:21.000Z</time>
      </trkpt>
      <trkpt lat="42.219116" lon="2.544232">
        <ele>316</ele>
        <time>1970-01-01T05:31:22.000Z</time>
      </trkpt>
      <trkpt lat="42.219115" lon="2.5442">
        <ele>316</ele>
        <time>1970-01-01T05:31:23.000Z</time>
      </trkpt>
      <trkpt lat="42.219114" lon="2.544168">
        <ele>316</ele>
        <time>1970-01-01T05:31:24.000Z</time>
      </trkpt>
      <trkpt lat="42.219112" lon="2.544136">
        <ele>316</ele>
        <time>1970-01-01T05:31:25.000Z</time>
      </trkpt>
      <trkpt lat="42.219111" lon="2.544104">
        <ele>316</ele>
        <time>1970-01-01T05:31:26.000Z</time>
      </trkpt>
      <trkpt lat="42.21911" lon="2.544071">
        <ele>316</ele>
        <time>1970-01-01T05:31:27.000Z</time>
      </trkpt>
      <trkpt lat="42.219109" lon="2.544039">
        <ele>316</ele>
        <time>1970-01-01T05:31:28.000Z</time>
      </trkpt>
      <trkpt lat="42.219108" lon="2.544007">
        <ele>318</ele>
        <time>1970-01-01T05:31:29.000Z</time>
      </trkpt>
      <trkpt lat="42.219105" lon="2.543937">
        <ele>318</ele>
        <time>1970-01-01T05:31:30.000Z</time>
      </trkpt>
      <trkpt lat="42.219104" lon="2.543901">
        <ele>318</ele>
        <time>1970-01-01T05:31:31.000Z</time>
      </trkpt>
      <trkpt lat="42.219102" lon="2.543866">
        <ele>318</ele>
        <time>1970-01-01T05:31:33.000Z</time>
      </trkpt>
      <trkpt lat="42.219101" lon="2.543831">
        <ele>318</ele>
        <time>1970-01-01T05:31:34.000Z</time>
      </trkpt>
      <trkpt lat="42.219099" lon="2.543795">
        <ele>318</ele>
        <time>1970-01-01T05:31:35.000Z</time>
      </trkpt>
      <trkpt lat="42.219098" lon="2.54376">
        <ele>318</ele>
        <time>1970-01-01T05:31:36.000Z</time>
      </trkpt>
      <trkpt lat="42.219096" lon="2.543725">
        <ele>318</ele>
        <time>1970-01-01T05:31:37.000Z</time>
      </trkpt>
      <trkpt lat="42.219095" lon="2.543689">
        <ele>318</ele>
        <time>1970-01-01T05:31:38.000Z</time>
      </trkpt>
      <trkpt lat="42.219093" lon="2.543654">
        <ele>318</ele>
        <time>1970-01-01T05:31:39.000Z</time>
      </trkpt>
      <trkpt lat="42.219083" lon="2.543588">
        <ele>318</ele>
        <time>1970-01-01T05:31:40.000Z</time>
      </trkpt>
      <trkpt lat="42.219077" lon="2.543558">
        <ele>318</ele>
        <time>1970-01-01T05:31:41.000Z</time>
      </trkpt>
      <trkpt lat="42.219071" lon="2.543528">
        <ele>318</ele>
        <time>1970-01-01T05:31:42.000Z</time>
      </trkpt>
      <trkpt lat="42.219065" lon="2.543498">
        <ele>318</ele>
        <time>1970-01-01T05:31:43.000Z</time>
      </trkpt>
      <trkpt lat="42.219059" lon="2.543467">
        <ele>318</ele>
        <time>1970-01-01T05:31:44.000Z</time>
      </trkpt>
      <trkpt lat="42.219052" lon="2.543437">
        <ele>318</ele>
        <time>1970-01-01T05:31:45.000Z</time>
      </trkpt>
      <trkpt lat="42.219046" lon="2.543407">
        <ele>318</ele>
        <time>1970-01-01T05:31:46.000Z</time>
      </trkpt>
      <trkpt lat="42.21904" lon="2.543377">
        <ele>318</ele>
        <time>1970-01-01T05:31:47.000Z</time>
      </trkpt>
      <trkpt lat="42.219034" lon="2.543347">
        <ele>318</ele>
        <time>1970-01-01T05:31:48.000Z</time>
      </trkpt>
      <trkpt lat="42.219028" lon="2.543317">
        <ele>319</ele>
        <time>1970-01-01T05:31:49.000Z</time>
      </trkpt>
      <trkpt lat="42.218996" lon="2.543249">
        <ele>319</ele>
        <time>1970-01-01T05:31:50.000Z</time>
      </trkpt>
      <trkpt lat="42.218977" lon="2.543213">
        <ele>319</ele>
        <time>1970-01-01T05:31:51.000Z</time>
      </trkpt>
      <trkpt lat="42.218957" lon="2.543177">
        <ele>319</ele>
        <time>1970-01-01T05:31:53.000Z</time>
      </trkpt>
      <trkpt lat="42.218938" lon="2.543141">
        <ele>319</ele>
        <time>1970-01-01T05:31:54.000Z</time>
      </trkpt>
      <trkpt lat="42.218919" lon="2.543106">
        <ele>319</ele>
        <time>1970-01-01T05:31:55.000Z</time>
      </trkpt>
      <trkpt lat="42.2189" lon="2.54307">
        <ele>319</ele>
        <time>1970-01-01T05:31:56.000Z</time>
      </trkpt>
      <trkpt lat="42.21888" lon="2.543034">
        <ele>319</ele>
        <time>1970-01-01T05:31:58.000Z</time>
      </trkpt>
      <trkpt lat="42.218861" lon="2.542998">
        <ele>320</ele>
        <time>1970-01-01T05:31:59.000Z</time>
      </trkpt>
      <trkpt lat="42.218804" lon="2.542899">
        <ele>320</ele>
        <time>1970-01-01T05:32:01.000Z</time>
      </trkpt>
      <trkpt lat="42.218784" lon="2.542867">
        <ele>320</ele>
        <time>1970-01-01T05:32:02.000Z</time>
      </trkpt>
      <trkpt lat="42.218764" lon="2.542836">
        <ele>320</ele>
        <time>1970-01-01T05:32:03.000Z</time>
      </trkpt>
      <trkpt lat="42.218744" lon="2.542804">
        <ele>320</ele>
        <time>1970-01-01T05:32:04.000Z</time>
      </trkpt>
      <trkpt lat="42.218724" lon="2.542772">
        <ele>320</ele>
        <time>1970-01-01T05:32:05.000Z</time>
      </trkpt>
      <trkpt lat="42.218704" lon="2.54274">
        <ele>320</ele>
        <time>1970-01-01T05:32:07.000Z</time>
      </trkpt>
      <trkpt lat="42.218684" lon="2.542709">
        <ele>320</ele>
        <time>1970-01-01T05:32:08.000Z</time>
      </trkpt>
      <trkpt lat="42.218664" lon="2.542677">
        <ele>322</ele>
        <time>1970-01-01T05:32:09.000Z</time>
      </trkpt>
      <trkpt lat="42.218621" lon="2.542607">
        <ele>322</ele>
        <time>1970-01-01T05:32:10.000Z</time>
      </trkpt>
      <trkpt lat="42.218605" lon="2.542581">
        <ele>322</ele>
        <time>1970-01-01T05:32:11.000Z</time>
      </trkpt>
      <trkpt lat="42.21859" lon="2.542554">
        <ele>322</ele>
        <time>1970-01-01T05:32:12.000Z</time>
      </trkpt>
      <trkpt lat="42.218574" lon="2.542528">
        <ele>322</ele>
        <time>1970-01-01T05:32:13.000Z</time>
      </trkpt>
      <trkpt lat="42.218559" lon="2.542501">
        <ele>322</ele>
        <time>1970-01-01T05:32:14.000Z</time>
      </trkpt>
      <trkpt lat="42.218544" lon="2.542475">
        <ele>322</ele>
        <time>1970-01-01T05:32:15.000Z</time>
      </trkpt>
      <trkpt lat="42.218528" lon="2.542448">
        <ele>322</ele>
        <time>1970-01-01T05:32:16.000Z</time>
      </trkpt>
      <trkpt lat="42.218513" lon="2.542422">
        <ele>322</ele>
        <time>1970-01-01T05:32:17.000Z</time>
      </trkpt>
      <trkpt lat="42.218497" lon="2.542395">
        <ele>322</ele>
        <time>1970-01-01T05:32:18.000Z</time>
      </trkpt>
      <trkpt lat="42.218482" lon="2.542369">
        <ele>323</ele>
        <time>1970-01-01T05:32:19.000Z</time>
      </trkpt>
      <trkpt lat="42.218456" lon="2.542324">
        <ele>323</ele>
        <time>1970-01-01T05:32:20.000Z</time>
      </trkpt>
      <trkpt lat="42.218439" lon="2.542294">
        <ele>323</ele>
        <time>1970-01-01T05:32:21.000Z</time>
      </trkpt>
      <trkpt lat="42.218422" lon="2.542264">
        <ele>323</ele>
        <time>1970-01-01T05:32:22.000Z</time>
      </trkpt>
      <trkpt lat="42.218405" lon="2.542234">
        <ele>323</ele>
        <time>1970-01-01T05:32:23.000Z</time>
      </trkpt>
      <trkpt lat="42.218388" lon="2.542204">
        <ele>323</ele>
        <time>1970-01-01T05:32:24.000Z</time>
      </trkpt>
      <trkpt lat="42.21837" lon="2.542174">
        <ele>323</ele>
        <time>1970-01-01T05:32:25.000Z</time>
      </trkpt>
      <trkpt lat="42.218353" lon="2.542144">
        <ele>323</ele>
        <time>1970-01-01T05:32:26.000Z</time>
      </trkpt>
      <trkpt lat="42.218336" lon="2.542114">
        <ele>323</ele>
        <time>1970-01-01T05:32:27.000Z</time>
      </trkpt>
      <trkpt lat="42.218319" lon="2.542084">
        <ele>323</ele>
        <time>1970-01-01T05:32:28.000Z</time>
      </trkpt>
      <trkpt lat="42.218302" lon="2.542054">
        <ele>324</ele>
        <time>1970-01-01T05:32:29.000Z</time>
      </trkpt>
      <trkpt lat="42.218258" lon="2.54198">
        <ele>324</ele>
        <time>1970-01-01T05:32:30.000Z</time>
      </trkpt>
      <trkpt lat="42.218242" lon="2.541952">
        <ele>324</ele>
        <time>1970-01-01T05:32:32.000Z</time>
      </trkpt>
      <trkpt lat="42.218225" lon="2.541924">
        <ele>324</ele>
        <time>1970-01-01T05:32:33.000Z</time>
      </trkpt>
      <trkpt lat="42.218209" lon="2.541896">
        <ele>324</ele>
        <time>1970-01-01T05:32:34.000Z</time>
      </trkpt>
      <trkpt lat="42.218192" lon="2.541868">
        <ele>324</ele>
        <time>1970-01-01T05:32:35.000Z</time>
      </trkpt>
      <trkpt lat="42.218176" lon="2.54184">
        <ele>324</ele>
        <time>1970-01-01T05:32:36.000Z</time>
      </trkpt>
      <trkpt lat="42.218159" lon="2.541812">
        <ele>324</ele>
        <time>1970-01-01T05:32:37.000Z</time>
      </trkpt>
      <trkpt lat="42.218143" lon="2.541784">
        <ele>324</ele>
        <time>1970-01-01T05:32:38.000Z</time>
      </trkpt>
      <trkpt lat="42.218126" lon="2.541756">
        <ele>325</ele>
        <time>1970-01-01T05:32:39.000Z</time>
      </trkpt>
      <trkpt lat="42.218088" lon="2.541693">
        <ele>325</ele>
        <time>1970-01-01T05:32:40.000Z</time>
      </trkpt>
      <trkpt lat="42.218069" lon="2.54166">
        <ele>325</ele>
        <time>1970-01-01T05:32:41.000Z</time>
      </trkpt>
      <trkpt lat="42.218049" lon="2.541628">
        <ele>325</ele>
        <time>1970-01-01T05:32:42.000Z</time>
      </trkpt>
      <trkpt lat="42.218029" lon="2.541596">
        <ele>325</ele>
        <time>1970-01-01T05:32:44.000Z</time>
      </trkpt>
      <trkpt lat="42.21801" lon="2.541563">
        <ele>325</ele>
        <time>1970-01-01T05:32:45.000Z</time>
      </trkpt>
      <trkpt lat="42.21799" lon="2.541531">
        <ele>325</ele>
        <time>1970-01-01T05:32:46.000Z</time>
      </trkpt>
      <trkpt lat="42.21797" lon="2.541499">
        <ele>325</ele>
        <time>1970-01-01T05:32:47.000Z</time>
      </trkpt>
      <trkpt lat="42.217951" lon="2.541466">
        <ele>325</ele>
        <time>1970-01-01T05:32:48.000Z</time>
      </trkpt>
      <trkpt lat="42.217931" lon="2.541434">
        <ele>327</ele>
        <time>1970-01-01T05:32:49.000Z</time>
      </trkpt>
      <trkpt lat="42.217885" lon="2.541367">
        <ele>327</ele>
        <time>1970-01-01T05:32:50.000Z</time>
      </trkpt>
      <trkpt lat="42.217866" lon="2.541345">
        <ele>327</ele>
        <time>1970-01-01T05:32:51.000Z</time>
      </trkpt>
      <trkpt lat="42.217848" lon="2.541322">
        <ele>327</ele>
        <time>1970-01-01T05:32:52.000Z</time>
      </trkpt>
      <trkpt lat="42.217829" lon="2.5413">
        <ele>327</ele>
        <time>1970-01-01T05:32:53.000Z</time>
      </trkpt>
      <trkpt lat="42.217811" lon="2.541278">
        <ele>327</ele>
        <time>1970-01-01T05:32:54.000Z</time>
      </trkpt>
      <trkpt lat="42.217793" lon="2.541256">
        <ele>327</ele>
        <time>1970-01-01T05:32:55.000Z</time>
      </trkpt>
      <trkpt lat="42.217774" lon="2.541234">
        <ele>327</ele>
        <time>1970-01-01T05:32:56.000Z</time>
      </trkpt>
      <trkpt lat="42.217756" lon="2.541211">
        <ele>327</ele>
        <time>1970-01-01T05:32:57.000Z</time>
      </trkpt>
      <trkpt lat="42.217737" lon="2.541189">
        <ele>327</ele>
        <time>1970-01-01T05:32:58.000Z</time>
      </trkpt>
      <trkpt lat="42.217719" lon="2.541167">
        <ele>328</ele>
        <time>1970-01-01T05:32:59.000Z</time>
      </trkpt>
      <trkpt lat="42.217684" lon="2.54114">
        <ele>328</ele>
        <time>1970-01-01T05:33:00.000Z</time>
      </trkpt>
      <trkpt lat="42.217661" lon="2.541124">
        <ele>328</ele>
        <time>1970-01-01T05:33:01.000Z</time>
      </trkpt>
      <trkpt lat="42.217637" lon="2.541109">
        <ele>328</ele>
        <time>1970-01-01T05:33:02.000Z</time>
      </trkpt>
      <trkpt lat="42.217614" lon="2.541093">
        <ele>328</ele>
        <time>1970-01-01T05:33:03.000Z</time>
      </trkpt>
      <trkpt lat="42.217591" lon="2.541078">
        <ele>328</ele>
        <time>1970-01-01T05:33:04.000Z</time>
      </trkpt>
      <trkpt lat="42.217568" lon="2.541063">
        <ele>328</ele>
        <time>1970-01-01T05:33:05.000Z</time>
      </trkpt>
      <trkpt lat="42.217545" lon="2.541047">
        <ele>328</ele>
        <time>1970-01-01T05:33:06.000Z</time>
      </trkpt>
      <trkpt lat="42.217521" lon="2.541032">
        <ele>328</ele>
        <time>1970-01-01T05:33:07.000Z</time>
      </trkpt>
      <trkpt lat="42.217498" lon="2.541016">
        <ele>328</ele>
        <time>1970-01-01T05:33:08.000Z</time>
      </trkpt>
      <trkpt lat="42.217475" lon="2.541001">
        <ele>330</ele>
        <time>1970-01-01T05:33:09.000Z</time>
      </trkpt>
      <trkpt lat="42.217431" lon="2.540978">
        <ele>330</ele>
        <time>1970-01-01T05:33:10.000Z</time>
      </trkpt>
      <trkpt lat="42.217414" lon="2.540967">
        <ele>330</ele>
        <time>1970-01-01T05:33:11.000Z</time>
      </trkpt>
      <trkpt lat="42.217396" lon="2.540957">
        <ele>330</ele>
        <time>1970-01-01T05:33:12.000Z</time>
      </trkpt>
      <trkpt lat="42.217378" lon="2.540946">
        <ele>330</ele>
        <time>1970-01-01T05:33:13.000Z</time>
      </trkpt>
      <trkpt lat="42.21736" lon="2.540936">
        <ele>330</ele>
        <time>1970-01-01T05:33:14.000Z</time>
      </trkpt>
      <trkpt lat="42.217343" lon="2.540925">
        <ele>330</ele>
        <time>1970-01-01T05:33:17.000Z</time>
      </trkpt>
      <trkpt lat="42.217325" lon="2.540915">
        <ele>330</ele>
        <time>1970-01-01T05:33:19.000Z</time>
      </trkpt>
      <trkpt lat="42.217315" lon="2.540884">
        <ele>330</ele>
        <time>1970-01-01T05:33:22.000Z</time>
      </trkpt>
      <trkpt lat="42.217305" lon="2.540853">
        <ele>330</ele>
        <time>1970-01-01T05:37:04.000Z</time>
      </trkpt>
      <trkpt lat="42.217296" lon="2.540821">
        <ele>330</ele>
        <time>1970-01-01T05:37:05.000Z</time>
      </trkpt>
      <trkpt lat="42.217286" lon="2.54079">
        <ele>330</ele>
        <time>1970-01-01T05:37:07.000Z</time>
      </trkpt>
      <trkpt lat="42.217277" lon="2.540758">
        <ele>330</ele>
        <time>1970-01-01T05:37:08.000Z</time>
      </trkpt>
      <trkpt lat="42.217267" lon="2.540726">
        <ele>330</ele>
        <time>1970-01-01T05:37:09.000Z</time>
      </trkpt>
      <trkpt lat="42.217258" lon="2.540695">
        <ele>330</ele>
        <time>1970-01-01T05:37:10.000Z</time>
      </trkpt>
      <trkpt lat="42.217248" lon="2.540663">
        <ele>330</ele>
        <time>1970-01-01T05:37:11.000Z</time>
      </trkpt>
      <trkpt lat="42.217239" lon="2.540632">
        <ele>330</ele>
        <time>1970-01-01T05:37:12.000Z</time>
      </trkpt>
      <trkpt lat="42.217229" lon="2.5406">
        <ele>330</ele>
        <time>1970-01-01T05:37:13.000Z</time>
      </trkpt>
      <trkpt lat="42.217224" lon="2.540531">
        <ele>330</ele>
        <time>1970-01-01T05:37:14.000Z</time>
      </trkpt>
      <trkpt lat="42.217221" lon="2.540497">
        <ele>330</ele>
        <time>1970-01-01T05:37:15.000Z</time>
      </trkpt>
      <trkpt lat="42.217219" lon="2.540462">
        <ele>330</ele>
        <time>1970-01-01T05:37:16.000Z</time>
      </trkpt>
      <trkpt lat="42.217216" lon="2.540428">
        <ele>330</ele>
        <time>1970-01-01T05:37:17.000Z</time>
      </trkpt>
      <trkpt lat="42.217214" lon="2.540393">
        <ele>330</ele>
        <time>1970-01-01T05:37:18.000Z</time>
      </trkpt>
      <trkpt lat="42.217211" lon="2.540359">
        <ele>330</ele>
        <time>1970-01-01T05:37:19.000Z</time>
      </trkpt>
      <trkpt lat="42.217209" lon="2.540324">
        <ele>330</ele>
        <time>1970-01-01T05:37:20.000Z</time>
      </trkpt>
      <trkpt lat="42.217206" lon="2.54029">
        <ele>330</ele>
        <time>1970-01-01T05:37:21.000Z</time>
      </trkpt>
      <trkpt lat="42.217204" lon="2.540255">
        <ele>330</ele>
        <time>1970-01-01T05:37:23.000Z</time>
      </trkpt>
      <trkpt lat="42.217201" lon="2.540221">
        <ele>332</ele>
        <time>1970-01-01T05:37:24.000Z</time>
      </trkpt>
      <trkpt lat="42.217199" lon="2.540143">
        <ele>332</ele>
        <time>1970-01-01T05:37:25.000Z</time>
      </trkpt>
      <trkpt lat="42.217198" lon="2.540116">
        <ele>332</ele>
        <time>1970-01-01T05:37:26.000Z</time>
      </trkpt>
      <trkpt lat="42.217196" lon="2.540088">
        <ele>332</ele>
        <time>1970-01-01T05:37:27.000Z</time>
      </trkpt>
      <trkpt lat="42.217195" lon="2.54006">
        <ele>332</ele>
        <time>1970-01-01T05:37:28.000Z</time>
      </trkpt>
      <trkpt lat="42.217193" lon="2.540033">
        <ele>332</ele>
        <time>1970-01-01T05:37:29.000Z</time>
      </trkpt>
      <trkpt lat="42.217192" lon="2.540005">
        <ele>332</ele>
        <time>1970-01-01T05:37:30.000Z</time>
      </trkpt>
      <trkpt lat="42.21719" lon="2.539977">
        <ele>332</ele>
        <time>1970-01-01T05:37:31.000Z</time>
      </trkpt>
      <trkpt lat="42.217189" lon="2.53995">
        <ele>332</ele>
        <time>1970-01-01T05:37:32.000Z</time>
      </trkpt>
      <trkpt lat="42.217187" lon="2.539922">
        <ele>332</ele>
        <time>1970-01-01T05:37:33.000Z</time>
      </trkpt>
      <trkpt lat="42.217186" lon="2.539875">
        <ele>332</ele>
        <time>1970-01-01T05:37:34.000Z</time>
      </trkpt>
      <trkpt lat="42.217184" lon="2.539845">
        <ele>332</ele>
        <time>1970-01-01T05:37:35.000Z</time>
      </trkpt>
      <trkpt lat="42.217183" lon="2.539814">
        <ele>332</ele>
        <time>1970-01-01T05:37:36.000Z</time>
      </trkpt>
      <trkpt lat="42.217181" lon="2.539784">
        <ele>332</ele>
        <time>1970-01-01T05:37:37.000Z</time>
      </trkpt>
      <trkpt lat="42.21718" lon="2.539753">
        <ele>332</ele>
        <time>1970-01-01T05:37:38.000Z</time>
      </trkpt>
      <trkpt lat="42.217178" lon="2.539722">
        <ele>332</ele>
        <time>1970-01-01T05:37:39.000Z</time>
      </trkpt>
      <trkpt lat="42.217177" lon="2.539692">
        <ele>332</ele>
        <time>1970-01-01T05:37:40.000Z</time>
      </trkpt>
      <trkpt lat="42.217175" lon="2.539661">
        <ele>332</ele>
        <time>1970-01-01T05:37:41.000Z</time>
      </trkpt>
      <trkpt lat="42.217174" lon="2.539631">
        <ele>332</ele>
        <time>1970-01-01T05:37:42.000Z</time>
      </trkpt>
      <trkpt lat="42.217172" lon="2.5396">
        <ele>332</ele>
        <time>1970-01-01T05:37:43.000Z</time>
      </trkpt>
      <trkpt lat="42.217168" lon="2.539522">
        <ele>332</ele>
        <time>1970-01-01T05:37:44.000Z</time>
      </trkpt>
      <trkpt lat="42.217166" lon="2.539483">
        <ele>332</ele>
        <time>1970-01-01T05:37:45.000Z</time>
      </trkpt>
      <trkpt lat="42.217163" lon="2.539444">
        <ele>332</ele>
        <time>1970-01-01T05:37:46.000Z</time>
      </trkpt>
      <trkpt lat="42.217161" lon="2.539405">
        <ele>332</ele>
        <time>1970-01-01T05:37:47.000Z</time>
      </trkpt>
      <trkpt lat="42.217159" lon="2.539365">
        <ele>332</ele>
        <time>1970-01-01T05:37:48.000Z</time>
      </trkpt>
      <trkpt lat="42.217157" lon="2.539326">
        <ele>332</ele>
        <time>1970-01-01T05:37:49.000Z</time>
      </trkpt>
      <trkpt lat="42.217155" lon="2.539287">
        <ele>332</ele>
        <time>1970-01-01T05:37:50.000Z</time>
      </trkpt>
      <trkpt lat="42.217152" lon="2.539248">
        <ele>332</ele>
        <time>1970-01-01T05:37:51.000Z</time>
      </trkpt>
      <trkpt lat="42.21715" lon="2.539209">
        <ele>332</ele>
        <time>1970-01-01T05:37:52.000Z</time>
      </trkpt>
      <trkpt lat="42.217148" lon="2.53917">
        <ele>334</ele>
        <time>1970-01-01T05:37:53.000Z</time>
      </trkpt>
      <trkpt lat="42.217143" lon="2.539078">
        <ele>334</ele>
        <time>1970-01-01T05:37:54.000Z</time>
      </trkpt>
      <trkpt lat="42.21714" lon="2.539035">
        <ele>334</ele>
        <time>1970-01-01T05:37:55.000Z</time>
      </trkpt>
      <trkpt lat="42.217136" lon="2.538991">
        <ele>334</ele>
        <time>1970-01-01T05:37:56.000Z</time>
      </trkpt>
      <trkpt lat="42.217133" lon="2.538947">
        <ele>334</ele>
        <time>1970-01-01T05:37:57.000Z</time>
      </trkpt>
      <trkpt lat="42.21713" lon="2.538903">
        <ele>334</ele>
        <time>1970-01-01T05:37:58.000Z</time>
      </trkpt>
      <trkpt lat="42.217127" lon="2.53886">
        <ele>334</ele>
        <time>1970-01-01T05:37:59.000Z</time>
      </trkpt>
      <trkpt lat="42.217124" lon="2.538816">
        <ele>334</ele>
        <time>1970-01-01T05:38:00.000Z</time>
      </trkpt>
      <trkpt lat="42.21712" lon="2.538772">
        <ele>334</ele>
        <time>1970-01-01T05:38:01.000Z</time>
      </trkpt>
      <trkpt lat="42.217117" lon="2.538729">
        <ele>334</ele>
        <time>1970-01-01T05:38:02.000Z</time>
      </trkpt>
      <trkpt lat="42.217114" lon="2.538685">
        <ele>334</ele>
        <time>1970-01-01T05:38:03.000Z</time>
      </trkpt>
      <trkpt lat="42.217107" lon="2.538587">
        <ele>334</ele>
        <time>1970-01-01T05:38:04.000Z</time>
      </trkpt>
      <trkpt lat="42.217104" lon="2.538539">
        <ele>334</ele>
        <time>1970-01-01T05:38:05.000Z</time>
      </trkpt>
      <trkpt lat="42.217101" lon="2.53849">
        <ele>334</ele>
        <time>1970-01-01T05:38:06.000Z</time>
      </trkpt>
      <trkpt lat="42.217098" lon="2.538442">
        <ele>334</ele>
        <time>1970-01-01T05:38:07.000Z</time>
      </trkpt>
      <trkpt lat="42.217095" lon="2.538394">
        <ele>334</ele>
        <time>1970-01-01T05:38:08.000Z</time>
      </trkpt>
      <trkpt lat="42.217092" lon="2.538346">
        <ele>334</ele>
        <time>1970-01-01T05:38:09.000Z</time>
      </trkpt>
      <trkpt lat="42.217089" lon="2.538298">
        <ele>334</ele>
        <time>1970-01-01T05:38:10.000Z</time>
      </trkpt>
      <trkpt lat="42.217086" lon="2.538249">
        <ele>334</ele>
        <time>1970-01-01T05:38:11.000Z</time>
      </trkpt>
      <trkpt lat="42.217083" lon="2.538201">
        <ele>334</ele>
        <time>1970-01-01T05:38:12.000Z</time>
      </trkpt>
      <trkpt lat="42.21708" lon="2.538153">
        <ele>334</ele>
        <time>1970-01-01T05:38:13.000Z</time>
      </trkpt>
      <trkpt lat="42.217071" lon="2.538028">
        <ele>334</ele>
        <time>1970-01-01T05:38:14.000Z</time>
      </trkpt>
      <trkpt lat="42.217066" lon="2.537962">
        <ele>334</ele>
        <time>1970-01-01T05:38:15.000Z</time>
      </trkpt>
      <trkpt lat="42.21706" lon="2.537895">
        <ele>334</ele>
        <time>1970-01-01T05:38:16.000Z</time>
      </trkpt>
      <trkpt lat="42.217055" lon="2.537829">
        <ele>334</ele>
        <time>1970-01-01T05:38:17.000Z</time>
      </trkpt>
      <trkpt lat="42.21705" lon="2.537763">
        <ele>334</ele>
        <time>1970-01-01T05:38:18.000Z</time>
      </trkpt>
      <trkpt lat="42.217045" lon="2.537697">
        <ele>334</ele>
        <time>1970-01-01T05:38:19.000Z</time>
      </trkpt>
      <trkpt lat="42.217039" lon="2.53763">
        <ele>334</ele>
        <time>1970-01-01T05:38:20.000Z</time>
      </trkpt>
      <trkpt lat="42.217034" lon="2.537564">
        <ele>334</ele>
        <time>1970-01-01T05:38:21.000Z</time>
      </trkpt>
      <trkpt lat="42.217029" lon="2.537498">
        <ele>334</ele>
        <time>1970-01-01T05:38:23.000Z</time>
      </trkpt>
      <trkpt lat="42.217021" lon="2.537397">
        <ele>334</ele>
        <time>1970-01-01T05:38:24.000Z</time>
      </trkpt>
      <trkpt lat="42.217017" lon="2.53734">
        <ele>334</ele>
        <time>1970-01-01T05:38:25.000Z</time>
      </trkpt>
      <trkpt lat="42.217014" lon="2.537282">
        <ele>334</ele>
        <time>1970-01-01T05:38:26.000Z</time>
      </trkpt>
      <trkpt lat="42.21701" lon="2.537224">
        <ele>334</ele>
        <time>1970-01-01T05:38:27.000Z</time>
      </trkpt>
      <trkpt lat="42.217007" lon="2.537166">
        <ele>334</ele>
        <time>1970-01-01T05:38:28.000Z</time>
      </trkpt>
      <trkpt lat="42.217003" lon="2.537109">
        <ele>334</ele>
        <time>1970-01-01T05:38:29.000Z</time>
      </trkpt>
      <trkpt lat="42.217" lon="2.537051">
        <ele>334</ele>
        <time>1970-01-01T05:38:30.000Z</time>
      </trkpt>
      <trkpt lat="42.216996" lon="2.536993">
        <ele>334</ele>
        <time>1970-01-01T05:38:31.000Z</time>
      </trkpt>
      <trkpt lat="42.216993" lon="2.536936">
        <ele>334</ele>
        <time>1970-01-01T05:38:32.000Z</time>
      </trkpt>
      <trkpt lat="42.216989" lon="2.536878">
        <ele>334</ele>
        <time>1970-01-01T05:38:33.000Z</time>
      </trkpt>
      <trkpt lat="42.216981" lon="2.536749">
        <ele>334</ele>
        <time>1970-01-01T05:38:34.000Z</time>
      </trkpt>
      <trkpt lat="42.216977" lon="2.536685">
        <ele>334</ele>
        <time>1970-01-01T05:38:35.000Z</time>
      </trkpt>
      <trkpt lat="42.216973" lon="2.536622">
        <ele>334</ele>
        <time>1970-01-01T05:38:36.000Z</time>
      </trkpt>
      <trkpt lat="42.216969" lon="2.536559">
        <ele>334</ele>
        <time>1970-01-01T05:38:37.000Z</time>
      </trkpt>
      <trkpt lat="42.216965" lon="2.536495">
        <ele>334</ele>
        <time>1970-01-01T05:38:38.000Z</time>
      </trkpt>
      <trkpt lat="42.21696" lon="2.536432">
        <ele>334</ele>
        <time>1970-01-01T05:38:39.000Z</time>
      </trkpt>
      <trkpt lat="42.216956" lon="2.536369">
        <ele>334</ele>
        <time>1970-01-01T05:38:40.000Z</time>
      </trkpt>
      <trkpt lat="42.216952" lon="2.536306">
        <ele>334</ele>
        <time>1970-01-01T05:38:41.000Z</time>
      </trkpt>
      <trkpt lat="42.216948" lon="2.536242">
        <ele>334</ele>
        <time>1970-01-01T05:38:42.000Z</time>
      </trkpt>
      <trkpt lat="42.216944" lon="2.536179">
        <ele>334</ele>
        <time>1970-01-01T05:38:43.000Z</time>
      </trkpt>
      <trkpt lat="42.216934" lon="2.536044">
        <ele>334</ele>
        <time>1970-01-01T05:38:44.000Z</time>
      </trkpt>
      <trkpt lat="42.216929" lon="2.535981">
        <ele>334</ele>
        <time>1970-01-01T05:38:45.000Z</time>
      </trkpt>
      <trkpt lat="42.216925" lon="2.535918">
        <ele>334</ele>
        <time>1970-01-01T05:38:46.000Z</time>
      </trkpt>
      <trkpt lat="42.21692" lon="2.535855">
        <ele>334</ele>
        <time>1970-01-01T05:38:47.000Z</time>
      </trkpt>
      <trkpt lat="42.216915" lon="2.535792">
        <ele>334</ele>
        <time>1970-01-01T05:38:48.000Z</time>
      </trkpt>
      <trkpt lat="42.21691" lon="2.53573">
        <ele>334</ele>
        <time>1970-01-01T05:38:49.000Z</time>
      </trkpt>
      <trkpt lat="42.216905" lon="2.535667">
        <ele>334</ele>
        <time>1970-01-01T05:38:50.000Z</time>
      </trkpt>
      <trkpt lat="42.216901" lon="2.535604">
        <ele>334</ele>
        <time>1970-01-01T05:38:51.000Z</time>
      </trkpt>
      <trkpt lat="42.216896" lon="2.535541">
        <ele>334</ele>
        <time>1970-01-01T05:38:52.000Z</time>
      </trkpt>
      <trkpt lat="42.216891" lon="2.535478">
        <ele>335</ele>
        <time>1970-01-01T05:38:53.000Z</time>
      </trkpt>
      <trkpt lat="42.21688" lon="2.535332">
        <ele>335</ele>
        <time>1970-01-01T05:38:54.000Z</time>
      </trkpt>
      <trkpt lat="42.216874" lon="2.535256">
        <ele>335</ele>
        <time>1970-01-01T05:38:55.000Z</time>
      </trkpt>
      <trkpt lat="42.216867" lon="2.535179">
        <ele>335</ele>
        <time>1970-01-01T05:38:56.000Z</time>
      </trkpt>
      <trkpt lat="42.216861" lon="2.535102">
        <ele>335</ele>
        <time>1970-01-01T05:38:57.000Z</time>
      </trkpt>
      <trkpt lat="42.216855" lon="2.535026">
        <ele>335</ele>
        <time>1970-01-01T05:38:58.000Z</time>
      </trkpt>
      <trkpt lat="42.216849" lon="2.534949">
        <ele>335</ele>
        <time>1970-01-01T05:38:59.000Z</time>
      </trkpt>
      <trkpt lat="42.216842" lon="2.534873">
        <ele>335</ele>
        <time>1970-01-01T05:39:01.000Z</time>
      </trkpt>
      <trkpt lat="42.216836" lon="2.534796">
        <ele>335</ele>
        <time>1970-01-01T05:39:03.000Z</time>
      </trkpt>
      <trkpt lat="42.216827" lon="2.534695">
        <ele>335</ele>
        <time>1970-01-01T05:39:04.000Z</time>
      </trkpt>
      <trkpt lat="42.216821" lon="2.534638">
        <ele>335</ele>
        <time>1970-01-01T05:39:05.000Z</time>
      </trkpt>
      <trkpt lat="42.216816" lon="2.534581">
        <ele>335</ele>
        <time>1970-01-01T05:39:06.000Z</time>
      </trkpt>
      <trkpt lat="42.21681" lon="2.534524">
        <ele>335</ele>
        <time>1970-01-01T05:39:07.000Z</time>
      </trkpt>
      <trkpt lat="42.216804" lon="2.534466">
        <ele>335</ele>
        <time>1970-01-01T05:39:08.000Z</time>
      </trkpt>
      <trkpt lat="42.216798" lon="2.534409">
        <ele>335</ele>
        <time>1970-01-01T05:39:09.000Z</time>
      </trkpt>
      <trkpt lat="42.216792" lon="2.534352">
        <ele>335</ele>
        <time>1970-01-01T05:39:10.000Z</time>
      </trkpt>
      <trkpt lat="42.216787" lon="2.534295">
        <ele>335</ele>
        <time>1970-01-01T05:39:11.000Z</time>
      </trkpt>
      <trkpt lat="42.216781" lon="2.534238">
        <ele>335</ele>
        <time>1970-01-01T05:39:12.000Z</time>
      </trkpt>
      <trkpt lat="42.216775" lon="2.534181">
        <ele>335</ele>
        <time>1970-01-01T05:39:13.000Z</time>
      </trkpt>
      <trkpt lat="42.216765" lon="2.53406">
        <ele>335</ele>
        <time>1970-01-01T05:39:14.000Z</time>
      </trkpt>
      <trkpt lat="42.216756" lon="2.533997">
        <ele>335</ele>
        <time>1970-01-01T05:39:15.000Z</time>
      </trkpt>
      <trkpt lat="42.216748" lon="2.533934">
        <ele>335</ele>
        <time>1970-01-01T05:39:16.000Z</time>
      </trkpt>
      <trkpt lat="42.216739" lon="2.533871">
        <ele>335</ele>
        <time>1970-01-01T05:39:17.000Z</time>
      </trkpt>
      <trkpt lat="42.216731" lon="2.533808">
        <ele>335</ele>
        <time>1970-01-01T05:39:18.000Z</time>
      </trkpt>
      <trkpt lat="42.216723" lon="2.533746">
        <ele>335</ele>
        <time>1970-01-01T05:39:19.000Z</time>
      </trkpt>
      <trkpt lat="42.216714" lon="2.533683">
        <ele>335</ele>
        <time>1970-01-01T05:39:20.000Z</time>
      </trkpt>
      <trkpt lat="42.216706" lon="2.53362">
        <ele>335</ele>
        <time>1970-01-01T05:39:21.000Z</time>
      </trkpt>
      <trkpt lat="42.216697" lon="2.533557">
        <ele>335</ele>
        <time>1970-01-01T05:39:22.000Z</time>
      </trkpt>
      <trkpt lat="42.216689" lon="2.533494">
        <ele>335</ele>
        <time>1970-01-01T05:39:23.000Z</time>
      </trkpt>
      <trkpt lat="42.216642" lon="2.533341">
        <ele>335</ele>
        <time>1970-01-01T05:39:24.000Z</time>
      </trkpt>
      <trkpt lat="42.216609" lon="2.533261">
        <ele>335</ele>
        <time>1970-01-01T05:39:25.000Z</time>
      </trkpt>
      <trkpt lat="42.216575" lon="2.533181">
        <ele>335</ele>
        <time>1970-01-01T05:39:26.000Z</time>
      </trkpt>
      <trkpt lat="42.216542" lon="2.533101">
        <ele>335</ele>
        <time>1970-01-01T05:39:27.000Z</time>
      </trkpt>
      <trkpt lat="42.216509" lon="2.53302">
        <ele>335</ele>
        <time>1970-01-01T05:39:28.000Z</time>
      </trkpt>
      <trkpt lat="42.216476" lon="2.53294">
        <ele>335</ele>
        <time>1970-01-01T05:39:29.000Z</time>
      </trkpt>
      <trkpt lat="42.216442" lon="2.53286">
        <ele>335</ele>
        <time>1970-01-01T05:39:31.000Z</time>
      </trkpt>
      <trkpt lat="42.216409" lon="2.53278">
        <ele>335</ele>
        <time>1970-01-01T05:39:32.000Z</time>
      </trkpt>
      <trkpt lat="42.216376" lon="2.5327">
        <ele>335</ele>
        <time>1970-01-01T05:39:33.000Z</time>
      </trkpt>
      <trkpt lat="42.216326" lon="2.532616">
        <ele>335</ele>
        <time>1970-01-01T05:39:34.000Z</time>
      </trkpt>
      <trkpt lat="42.216269" lon="2.532526">
        <ele>335</ele>
        <time>1970-01-01T05:39:35.000Z</time>
      </trkpt>
      <trkpt lat="42.216206" lon="2.532435">
        <ele>335</ele>
        <time>1970-01-01T05:39:36.000Z</time>
      </trkpt>
      <trkpt lat="42.216062" lon="2.53225">
        <ele>335</ele>
        <time>1970-01-01T05:39:37.000Z</time>
      </trkpt>
      <trkpt lat="42.215984" lon="2.532155">
        <ele>335</ele>
        <time>1970-01-01T05:39:38.000Z</time>
      </trkpt>
      <trkpt lat="42.215905" lon="2.53206">
        <ele>335</ele>
        <time>1970-01-01T05:39:39.000Z</time>
      </trkpt>
      <trkpt lat="42.21582" lon="2.531965">
        <ele>335</ele>
        <time>1970-01-01T05:39:41.000Z</time>
      </trkpt>
      <trkpt lat="42.215729" lon="2.531872">
        <ele>335</ele>
        <time>1970-01-01T05:39:42.000Z</time>
      </trkpt>
      <trkpt lat="42.215588" lon="2.531729">
        <ele>329</ele>
        <time>1970-01-01T05:39:43.000Z</time>
      </trkpt>
      <trkpt lat="42.215446" lon="2.531586">
        <ele>329</ele>
        <time>1970-01-01T05:39:44.000Z</time>
      </trkpt>
      <trkpt lat="42.215347" lon="2.531485">
        <ele>329</ele>
        <time>1970-01-01T05:39:46.000Z</time>
      </trkpt>
      <trkpt lat="42.215143" lon="2.531281">
        <ele>329</ele>
        <time>1970-01-01T05:39:47.000Z</time>
      </trkpt>
      <trkpt lat="42.215037" lon="2.531179">
        <ele>329</ele>
        <time>1970-01-01T05:39:49.000Z</time>
      </trkpt>
      <trkpt lat="42.214932" lon="2.531076">
        <ele>329</ele>
        <time>1970-01-01T05:39:50.000Z</time>
      </trkpt>
      <trkpt lat="42.214826" lon="2.530971">
        <ele>329</ele>
        <time>1970-01-01T05:39:51.000Z</time>
      </trkpt>
      <trkpt lat="42.214663" lon="2.530814">
        <ele>329</ele>
        <time>1970-01-01T05:39:52.000Z</time>
      </trkpt>
      <trkpt lat="42.214609" lon="2.530761">
        <ele>319</ele>
        <time>1970-01-01T05:39:53.000Z</time>
      </trkpt>
      <trkpt lat="42.214502" lon="2.530654">
        <ele>319</ele>
        <time>1970-01-01T05:39:54.000Z</time>
      </trkpt>
      <trkpt lat="42.2144" lon="2.530542">
        <ele>319</ele>
        <time>1970-01-01T05:39:55.000Z</time>
      </trkpt>
      <trkpt lat="42.214303" lon="2.530428">
        <ele>319</ele>
        <time>1970-01-01T05:39:56.000Z</time>
      </trkpt>
      <trkpt lat="42.214213" lon="2.530309">
        <ele>319</ele>
        <time>1970-01-01T05:39:57.000Z</time>
      </trkpt>
      <trkpt lat="42.21406" lon="2.530059">
        <ele>319</ele>
        <time>1970-01-01T05:39:58.000Z</time>
      </trkpt>
      <trkpt lat="42.213943" lon="2.529809">
        <ele>319</ele>
        <time>1970-01-01T05:40:00.000Z</time>
      </trkpt>
      <trkpt lat="42.213884" lon="2.529598">
        <ele>319</ele>
        <time>1970-01-01T05:40:01.000Z</time>
      </trkpt>
      <trkpt lat="42.213866" lon="2.529515">
        <ele>320</ele>
        <time>1970-01-01T05:40:03.000Z</time>
      </trkpt>
      <trkpt lat="42.213848" lon="2.529317">
        <ele>320</ele>
        <time>1970-01-01T05:40:04.000Z</time>
      </trkpt>
      <trkpt lat="42.213847" lon="2.529202">
        <ele>320</ele>
        <time>1970-01-01T05:40:05.000Z</time>
      </trkpt>
      <trkpt lat="42.213845" lon="2.529088">
        <ele>320</ele>
        <time>1970-01-01T05:40:06.000Z</time>
      </trkpt>
      <trkpt lat="42.213844" lon="2.528973">
        <ele>320</ele>
        <time>1970-01-01T05:40:07.000Z</time>
      </trkpt>
      <trkpt lat="42.213843" lon="2.528859">
        <ele>320</ele>
        <time>1970-01-01T05:40:09.000Z</time>
      </trkpt>
      <trkpt lat="42.213842" lon="2.528744">
        <ele>320</ele>
        <time>1970-01-01T05:40:11.000Z</time>
      </trkpt>
      <trkpt lat="42.21384" lon="2.52863">
        <ele>320</ele>
        <time>1970-01-01T05:40:12.000Z</time>
      </trkpt>
      <trkpt lat="42.213839" lon="2.528515">
        <ele>320</ele>
        <time>1970-01-01T05:40:13.000Z</time>
      </trkpt>
      <trkpt lat="42.213838" lon="2.528401">
        <ele>320</ele>
        <time>1970-01-01T05:40:14.000Z</time>
      </trkpt>
      <trkpt lat="42.21387" lon="2.528128">
        <ele>320</ele>
        <time>1970-01-01T05:40:16.000Z</time>
      </trkpt>
      <trkpt lat="42.213879" lon="2.528049">
        <ele>320</ele>
        <time>1970-01-01T05:40:18.000Z</time>
      </trkpt>
      <trkpt lat="42.213889" lon="2.527969">
        <ele>320</ele>
        <time>1970-01-01T05:40:20.000Z</time>
      </trkpt>
      <trkpt lat="42.213898" lon="2.52789">
        <ele>320</ele>
        <time>1970-01-01T05:40:21.000Z</time>
      </trkpt>
      <trkpt lat="42.213908" lon="2.527811">
        <ele>322</ele>
        <time>1970-01-01T05:40:23.000Z</time>
      </trkpt>
      <trkpt lat="42.213921" lon="2.527715">
        <ele>322</ele>
        <time>1970-01-01T05:40:24.000Z</time>
      </trkpt>
      <trkpt lat="42.213927" lon="2.527659">
        <ele>322</ele>
        <time>1970-01-01T05:40:25.000Z</time>
      </trkpt>
      <trkpt lat="42.213934" lon="2.527602">
        <ele>322</ele>
        <time>1970-01-01T05:40:26.000Z</time>
      </trkpt>
      <trkpt lat="42.21394" lon="2.527545">
        <ele>322</ele>
        <time>1970-01-01T05:40:27.000Z</time>
      </trkpt>
      <trkpt lat="42.213947" lon="2.527489">
        <ele>322</ele>
        <time>1970-01-01T05:40:28.000Z</time>
      </trkpt>
      <trkpt lat="42.213953" lon="2.527432">
        <ele>322</ele>
        <time>1970-01-01T05:40:29.000Z</time>
      </trkpt>
      <trkpt lat="42.21396" lon="2.527376">
        <ele>322</ele>
        <time>1970-01-01T05:40:30.000Z</time>
      </trkpt>
      <trkpt lat="42.213966" lon="2.527319">
        <ele>322</ele>
        <time>1970-01-01T05:40:31.000Z</time>
      </trkpt>
      <trkpt lat="42.213973" lon="2.527262">
        <ele>322</ele>
        <time>1970-01-01T05:40:32.000Z</time>
      </trkpt>
      <trkpt lat="42.213979" lon="2.527206">
        <ele>322</ele>
        <time>1970-01-01T05:40:33.000Z</time>
      </trkpt>
      <trkpt lat="42.213986" lon="2.527149">
        <ele>322</ele>
        <time>1970-01-01T05:40:34.000Z</time>
      </trkpt>
      <trkpt lat="42.213997" lon="2.526988">
        <ele>322</ele>
        <time>1970-01-01T05:40:35.000Z</time>
      </trkpt>
      <trkpt lat="42.214" lon="2.526916">
        <ele>322</ele>
        <time>1970-01-01T05:40:37.000Z</time>
      </trkpt>
      <trkpt lat="42.214004" lon="2.526845">
        <ele>322</ele>
        <time>1970-01-01T05:40:39.000Z</time>
      </trkpt>
      <trkpt lat="42.214008" lon="2.526773">
        <ele>322</ele>
        <time>1970-01-01T05:40:41.000Z</time>
      </trkpt>
      <trkpt lat="42.214011" lon="2.526702">
        <ele>322</ele>
        <time>1970-01-01T05:40:42.000Z</time>
      </trkpt>
      <trkpt lat="42.214015" lon="2.52663">
        <ele>323</ele>
        <time>1970-01-01T05:40:43.000Z</time>
      </trkpt>
      <trkpt lat="42.214006" lon="2.526548">
        <ele>323</ele>
        <time>1970-01-01T05:40:44.000Z</time>
      </trkpt>
      <trkpt lat="42.213997" lon="2.526492">
        <ele>323</ele>
        <time>1970-01-01T05:40:45.000Z</time>
      </trkpt>
      <trkpt lat="42.213989" lon="2.526435">
        <ele>323</ele>
        <time>1970-01-01T05:40:46.000Z</time>
      </trkpt>
      <trkpt lat="42.21398" lon="2.526379">
        <ele>323</ele>
        <time>1970-01-01T05:40:47.000Z</time>
      </trkpt>
      <trkpt lat="42.213972" lon="2.526323">
        <ele>323</ele>
        <time>1970-01-01T05:40:48.000Z</time>
      </trkpt>
      <trkpt lat="42.213963" lon="2.526267">
        <ele>323</ele>
        <time>1970-01-01T05:40:49.000Z</time>
      </trkpt>
      <trkpt lat="42.213955" lon="2.52621">
        <ele>323</ele>
        <time>1970-01-01T05:40:51.000Z</time>
      </trkpt>
      <trkpt lat="42.213946" lon="2.526154">
        <ele>323</ele>
        <time>1970-01-01T05:40:52.000Z</time>
      </trkpt>
      <trkpt lat="42.213938" lon="2.526098">
        <ele>325</ele>
        <time>1970-01-01T05:40:53.000Z</time>
      </trkpt>
      <trkpt lat="42.213915" lon="2.525988">
        <ele>325</ele>
        <time>1970-01-01T05:40:54.000Z</time>
      </trkpt>
      <trkpt lat="42.213904" lon="2.525933">
        <ele>325</ele>
        <time>1970-01-01T05:40:55.000Z</time>
      </trkpt>
      <trkpt lat="42.213893" lon="2.525879">
        <ele>325</ele>
        <time>1970-01-01T05:40:56.000Z</time>
      </trkpt>
      <trkpt lat="42.213882" lon="2.525824">
        <ele>325</ele>
        <time>1970-01-01T05:40:57.000Z</time>
      </trkpt>
      <trkpt lat="42.213872" lon="2.525769">
        <ele>325</ele>
        <time>1970-01-01T05:40:58.000Z</time>
      </trkpt>
      <trkpt lat="42.213861" lon="2.525714">
        <ele>325</ele>
        <time>1970-01-01T05:41:00.000Z</time>
      </trkpt>
      <trkpt lat="42.21385" lon="2.52566">
        <ele>325</ele>
        <time>1970-01-01T05:41:01.000Z</time>
      </trkpt>
      <trkpt lat="42.213839" lon="2.525605">
        <ele>325</ele>
        <time>1970-01-01T05:41:02.000Z</time>
      </trkpt>
      <trkpt lat="42.213828" lon="2.52555">
        <ele>326</ele>
        <time>1970-01-01T05:41:03.000Z</time>
      </trkpt>
      <trkpt lat="42.213807" lon="2.525445">
        <ele>326</ele>
        <time>1970-01-01T05:41:04.000Z</time>
      </trkpt>
      <trkpt lat="42.213797" lon="2.525394">
        <ele>326</ele>
        <time>1970-01-01T05:41:05.000Z</time>
      </trkpt>
      <trkpt lat="42.213787" lon="2.525342">
        <ele>326</ele>
        <time>1970-01-01T05:41:06.000Z</time>
      </trkpt>
      <trkpt lat="42.213777" lon="2.52529">
        <ele>326</ele>
        <time>1970-01-01T05:41:07.000Z</time>
      </trkpt>
      <trkpt lat="42.213767" lon="2.525238">
        <ele>326</ele>
        <time>1970-01-01T05:41:08.000Z</time>
      </trkpt>
      <trkpt lat="42.213756" lon="2.525187">
        <ele>326</ele>
        <time>1970-01-01T05:41:09.000Z</time>
      </trkpt>
      <trkpt lat="42.213746" lon="2.525135">
        <ele>326</ele>
        <time>1970-01-01T05:41:10.000Z</time>
      </trkpt>
      <trkpt lat="42.213736" lon="2.525083">
        <ele>326</ele>
        <time>1970-01-01T05:41:11.000Z</time>
      </trkpt>
      <trkpt lat="42.213726" lon="2.525032">
        <ele>326</ele>
        <time>1970-01-01T05:41:12.000Z</time>
      </trkpt>
      <trkpt lat="42.213716" lon="2.52498">
        <ele>327</ele>
        <time>1970-01-01T05:41:13.000Z</time>
      </trkpt>
      <trkpt lat="42.213694" lon="2.524854">
        <ele>327</ele>
        <time>1970-01-01T05:41:14.000Z</time>
      </trkpt>
      <trkpt lat="42.213682" lon="2.524789">
        <ele>327</ele>
        <time>1970-01-01T05:41:15.000Z</time>
      </trkpt>
      <trkpt lat="42.21367" lon="2.524723">
        <ele>327</ele>
        <time>1970-01-01T05:41:17.000Z</time>
      </trkpt>
      <trkpt lat="42.213658" lon="2.524657">
        <ele>327</ele>
        <time>1970-01-01T05:41:18.000Z</time>
      </trkpt>
      <trkpt lat="42.213647" lon="2.524592">
        <ele>327</ele>
        <time>1970-01-01T05:41:19.000Z</time>
      </trkpt>
      <trkpt lat="42.213635" lon="2.524526">
        <ele>327</ele>
        <time>1970-01-01T05:41:20.000Z</time>
      </trkpt>
      <trkpt lat="42.213623" lon="2.52446">
        <ele>327</ele>
        <time>1970-01-01T05:41:21.000Z</time>
      </trkpt>
      <trkpt lat="42.213611" lon="2.524395">
        <ele>327</ele>
        <time>1970-01-01T05:41:22.000Z</time>
      </trkpt>
      <trkpt lat="42.213599" lon="2.524329">
        <ele>327</ele>
        <time>1970-01-01T05:41:23.000Z</time>
      </trkpt>
      <trkpt lat="42.213575" lon="2.524199">
        <ele>327</ele>
        <time>1970-01-01T05:41:24.000Z</time>
      </trkpt>
      <trkpt lat="42.213564" lon="2.524137">
        <ele>327</ele>
        <time>1970-01-01T05:41:25.000Z</time>
      </trkpt>
      <trkpt lat="42.213554" lon="2.524076">
        <ele>327</ele>
        <time>1970-01-01T05:41:26.000Z</time>
      </trkpt>
      <trkpt lat="42.213543" lon="2.524015">
        <ele>327</ele>
        <time>1970-01-01T05:41:27.000Z</time>
      </trkpt>
      <trkpt lat="42.213533" lon="2.523953">
        <ele>327</ele>
        <time>1970-01-01T05:41:28.000Z</time>
      </trkpt>
      <trkpt lat="42.213523" lon="2.523892">
        <ele>327</ele>
        <time>1970-01-01T05:41:29.000Z</time>
      </trkpt>
      <trkpt lat="42.213512" lon="2.523831">
        <ele>327</ele>
        <time>1970-01-01T05:41:30.000Z</time>
      </trkpt>
      <trkpt lat="42.213502" lon="2.52377">
        <ele>327</ele>
        <time>1970-01-01T05:41:31.000Z</time>
      </trkpt>
      <trkpt lat="42.213491" lon="2.523708">
        <ele>327</ele>
        <time>1970-01-01T05:41:32.000Z</time>
      </trkpt>
      <trkpt lat="42.213481" lon="2.523647">
        <ele>327</ele>
        <time>1970-01-01T05:41:33.000Z</time>
      </trkpt>
      <trkpt lat="42.21346" lon="2.523515">
        <ele>327</ele>
        <time>1970-01-01T05:41:34.000Z</time>
      </trkpt>
      <trkpt lat="42.213449" lon="2.523451">
        <ele>327</ele>
        <time>1970-01-01T05:41:35.000Z</time>
      </trkpt>
      <trkpt lat="42.213439" lon="2.523386">
        <ele>327</ele>
        <time>1970-01-01T05:41:36.000Z</time>
      </trkpt>
      <trkpt lat="42.213428" lon="2.523322">
        <ele>327</ele>
        <time>1970-01-01T05:41:37.000Z</time>
      </trkpt>
      <trkpt lat="42.213418" lon="2.523257">
        <ele>327</ele>
        <time>1970-01-01T05:41:38.000Z</time>
      </trkpt>
      <trkpt lat="42.213407" lon="2.523192">
        <ele>327</ele>
        <time>1970-01-01T05:41:39.000Z</time>
      </trkpt>
      <trkpt lat="42.213397" lon="2.523128">
        <ele>327</ele>
        <time>1970-01-01T05:41:40.000Z</time>
      </trkpt>
      <trkpt lat="42.213386" lon="2.523063">
        <ele>327</ele>
        <time>1970-01-01T05:41:41.000Z</time>
      </trkpt>
      <trkpt lat="42.213376" lon="2.522999">
        <ele>327</ele>
        <time>1970-01-01T05:41:42.000Z</time>
      </trkpt>
      <trkpt lat="42.213365" lon="2.522934">
        <ele>328</ele>
        <time>1970-01-01T05:41:43.000Z</time>
      </trkpt>
      <trkpt lat="42.213337" lon="2.522759">
        <ele>328</ele>
        <time>1970-01-01T05:41:44.000Z</time>
      </trkpt>
      <trkpt lat="42.213323" lon="2.522692">
        <ele>328</ele>
        <time>1970-01-01T05:41:46.000Z</time>
      </trkpt>
      <trkpt lat="42.21331" lon="2.522624">
        <ele>328</ele>
        <time>1970-01-01T05:41:47.000Z</time>
      </trkpt>
      <trkpt lat="42.213297" lon="2.522556">
        <ele>328</ele>
        <time>1970-01-01T05:41:48.000Z</time>
      </trkpt>
      <trkpt lat="42.213283" lon="2.522489">
        <ele>328</ele>
        <time>1970-01-01T05:41:49.000Z</time>
      </trkpt>
      <trkpt lat="42.21327" lon="2.522421">
        <ele>328</ele>
        <time>1970-01-01T05:41:50.000Z</time>
      </trkpt>
      <trkpt lat="42.213257" lon="2.522353">
        <ele>328</ele>
        <time>1970-01-01T05:41:51.000Z</time>
      </trkpt>
      <trkpt lat="42.213243" lon="2.522286">
        <ele>328</ele>
        <time>1970-01-01T05:41:52.000Z</time>
      </trkpt>
      <trkpt lat="42.21323" lon="2.522218">
        <ele>329</ele>
        <time>1970-01-01T05:41:53.000Z</time>
      </trkpt>
      <trkpt lat="42.213195" lon="2.522057">
        <ele>329</ele>
        <time>1970-01-01T05:41:54.000Z</time>
      </trkpt>
      <trkpt lat="42.213179" lon="2.521977">
        <ele>329</ele>
        <time>1970-01-01T05:41:55.000Z</time>
      </trkpt>
      <trkpt lat="42.213163" lon="2.521896">
        <ele>329</ele>
        <time>1970-01-01T05:41:56.000Z</time>
      </trkpt>
      <trkpt lat="42.213147" lon="2.521816">
        <ele>329</ele>
        <time>1970-01-01T05:41:57.000Z</time>
      </trkpt>
      <trkpt lat="42.213132" lon="2.521735">
        <ele>329</ele>
        <time>1970-01-01T05:41:58.000Z</time>
      </trkpt>
      <trkpt lat="42.213116" lon="2.521655">
        <ele>329</ele>
        <time>1970-01-01T05:42:00.000Z</time>
      </trkpt>
      <trkpt lat="42.2131" lon="2.521574">
        <ele>329</ele>
        <time>1970-01-01T05:42:01.000Z</time>
      </trkpt>
      <trkpt lat="42.213084" lon="2.521494">
        <ele>329</ele>
        <time>1970-01-01T05:42:02.000Z</time>
      </trkpt>
      <trkpt lat="42.213068" lon="2.521413">
        <ele>329</ele>
        <time>1970-01-01T05:42:03.000Z</time>
      </trkpt>
      <trkpt lat="42.213048" lon="2.521299">
        <ele>329</ele>
        <time>1970-01-01T05:42:04.000Z</time>
      </trkpt>
      <trkpt lat="42.213033" lon="2.521223">
        <ele>329</ele>
        <time>1970-01-01T05:42:05.000Z</time>
      </trkpt>
      <trkpt lat="42.213019" lon="2.521148">
        <ele>329</ele>
        <time>1970-01-01T05:42:06.000Z</time>
      </trkpt>
      <trkpt lat="42.213004" lon="2.521072">
        <ele>329</ele>
        <time>1970-01-01T05:42:07.000Z</time>
      </trkpt>
      <trkpt lat="42.21299" lon="2.520996">
        <ele>329</ele>
        <time>1970-01-01T05:42:08.000Z</time>
      </trkpt>
      <trkpt lat="42.212975" lon="2.52092">
        <ele>329</ele>
        <time>1970-01-01T05:42:09.000Z</time>
      </trkpt>
      <trkpt lat="42.212961" lon="2.520844">
        <ele>329</ele>
        <time>1970-01-01T05:42:10.000Z</time>
      </trkpt>
      <trkpt lat="42.212946" lon="2.520768">
        <ele>329</ele>
        <time>1970-01-01T05:42:11.000Z</time>
      </trkpt>
      <trkpt lat="42.212932" lon="2.520693">
        <ele>329</ele>
        <time>1970-01-01T05:42:12.000Z</time>
      </trkpt>
      <trkpt lat="42.212917" lon="2.520617">
        <ele>329</ele>
        <time>1970-01-01T05:42:13.000Z</time>
      </trkpt>
      <trkpt lat="42.212903" lon="2.520541">
        <ele>328</ele>
        <time>1970-01-01T05:42:14.000Z</time>
      </trkpt>
      <trkpt lat="42.212867" lon="2.520348">
        <ele>328</ele>
        <time>1970-01-01T05:42:15.000Z</time>
      </trkpt>
      <trkpt lat="42.212853" lon="2.520275">
        <ele>328</ele>
        <time>1970-01-01T05:42:16.000Z</time>
      </trkpt>
      <trkpt lat="42.212839" lon="2.520203">
        <ele>328</ele>
        <time>1970-01-01T05:42:17.000Z</time>
      </trkpt>
      <trkpt lat="42.212825" lon="2.52013">
        <ele>328</ele>
        <time>1970-01-01T05:42:18.000Z</time>
      </trkpt>
      <trkpt lat="42.21281" lon="2.520058">
        <ele>328</ele>
        <time>1970-01-01T05:42:19.000Z</time>
      </trkpt>
      <trkpt lat="42.212796" lon="2.519986">
        <ele>328</ele>
        <time>1970-01-01T05:42:20.000Z</time>
      </trkpt>
      <trkpt lat="42.212782" lon="2.519913">
        <ele>328</ele>
        <time>1970-01-01T05:42:21.000Z</time>
      </trkpt>
      <trkpt lat="42.212768" lon="2.519841">
        <ele>327</ele>
        <time>1970-01-01T05:42:23.000Z</time>
      </trkpt>
      <trkpt lat="42.212746" lon="2.51972">
        <ele>327</ele>
        <time>1970-01-01T05:42:24.000Z</time>
      </trkpt>
      <trkpt lat="42.212735" lon="2.51965">
        <ele>327</ele>
        <time>1970-01-01T05:42:25.000Z</time>
      </trkpt>
      <trkpt lat="42.212723" lon="2.519581">
        <ele>327</ele>
        <time>1970-01-01T05:42:26.000Z</time>
      </trkpt>
      <trkpt lat="42.212711" lon="2.519512">
        <ele>327</ele>
        <time>1970-01-01T05:42:27.000Z</time>
      </trkpt>
      <trkpt lat="42.2127" lon="2.519442">
        <ele>327</ele>
        <time>1970-01-01T05:42:28.000Z</time>
      </trkpt>
      <trkpt lat="42.212688" lon="2.519373">
        <ele>327</ele>
        <time>1970-01-01T05:42:29.000Z</time>
      </trkpt>
      <trkpt lat="42.212676" lon="2.519304">
        <ele>327</ele>
        <time>1970-01-01T05:42:30.000Z</time>
      </trkpt>
      <trkpt lat="42.212664" lon="2.519235">
        <ele>327</ele>
        <time>1970-01-01T05:42:31.000Z</time>
      </trkpt>
      <trkpt lat="42.212653" lon="2.519165">
        <ele>327</ele>
        <time>1970-01-01T05:42:32.000Z</time>
      </trkpt>
      <trkpt lat="42.212641" lon="2.519096">
        <ele>326</ele>
        <time>1970-01-01T05:42:33.000Z</time>
      </trkpt>
      <trkpt lat="42.212616" lon="2.518932">
        <ele>326</ele>
        <time>1970-01-01T05:42:34.000Z</time>
      </trkpt>
      <trkpt lat="42.212606" lon="2.518849">
        <ele>326</ele>
        <time>1970-01-01T05:42:35.000Z</time>
      </trkpt>
      <trkpt lat="42.212595" lon="2.518765">
        <ele>326</ele>
        <time>1970-01-01T05:42:36.000Z</time>
      </trkpt>
      <trkpt lat="42.212585" lon="2.518682">
        <ele>326</ele>
        <time>1970-01-01T05:42:37.000Z</time>
      </trkpt>
      <trkpt lat="42.212574" lon="2.518598">
        <ele>326</ele>
        <time>1970-01-01T05:42:38.000Z</time>
      </trkpt>
      <trkpt lat="42.212563" lon="2.518515">
        <ele>326</ele>
        <time>1970-01-01T05:42:39.000Z</time>
      </trkpt>
      <trkpt lat="42.212553" lon="2.518431">
        <ele>326</ele>
        <time>1970-01-01T05:42:40.000Z</time>
      </trkpt>
      <trkpt lat="42.212542" lon="2.518348">
        <ele>326</ele>
        <time>1970-01-01T05:42:41.000Z</time>
      </trkpt>
      <trkpt lat="42.212532" lon="2.518264">
        <ele>326</ele>
        <time>1970-01-01T05:42:42.000Z</time>
      </trkpt>
      <trkpt lat="42.212521" lon="2.518181">
        <ele>327</ele>
        <time>1970-01-01T05:42:43.000Z</time>
      </trkpt>
      <trkpt lat="42.212513" lon="2.518026">
        <ele>327</ele>
        <time>1970-01-01T05:42:44.000Z</time>
      </trkpt>
      <trkpt lat="42.212511" lon="2.517957">
        <ele>327</ele>
        <time>1970-01-01T05:42:46.000Z</time>
      </trkpt>
      <trkpt lat="42.212509" lon="2.517887">
        <ele>327</ele>
        <time>1970-01-01T05:42:47.000Z</time>
      </trkpt>
      <trkpt lat="42.212507" lon="2.517818">
        <ele>327</ele>
        <time>1970-01-01T05:42:48.000Z</time>
      </trkpt>
      <trkpt lat="42.212505" lon="2.517748">
        <ele>327</ele>
        <time>1970-01-01T05:42:49.000Z</time>
      </trkpt>
      <trkpt lat="42.212503" lon="2.517679">
        <ele>327</ele>
        <time>1970-01-01T05:42:50.000Z</time>
      </trkpt>
      <trkpt lat="42.212501" lon="2.517609">
        <ele>327</ele>
        <time>1970-01-01T05:42:51.000Z</time>
      </trkpt>
      <trkpt lat="42.212499" lon="2.51754">
        <ele>327</ele>
        <time>1970-01-01T05:42:52.000Z</time>
      </trkpt>
      <trkpt lat="42.212497" lon="2.51747">
        <ele>327</ele>
        <time>1970-01-01T05:42:53.000Z</time>
      </trkpt>
      <trkpt lat="42.212497" lon="2.517267">
        <ele>327</ele>
        <time>1970-01-01T05:42:55.000Z</time>
      </trkpt>
      <trkpt lat="42.212498" lon="2.517209">
        <ele>327</ele>
        <time>1970-01-01T05:42:56.000Z</time>
      </trkpt>
      <trkpt lat="42.212498" lon="2.517151">
        <ele>327</ele>
        <time>1970-01-01T05:42:58.000Z</time>
      </trkpt>
      <trkpt lat="42.212499" lon="2.517094">
        <ele>327</ele>
        <time>1970-01-01T05:42:59.000Z</time>
      </trkpt>
      <trkpt lat="42.212499" lon="2.517036">
        <ele>327</ele>
        <time>1970-01-01T05:43:00.000Z</time>
      </trkpt>
      <trkpt lat="42.212499" lon="2.516978">
        <ele>327</ele>
        <time>1970-01-01T05:43:01.000Z</time>
      </trkpt>
      <trkpt lat="42.2125" lon="2.51692">
        <ele>327</ele>
        <time>1970-01-01T05:43:02.000Z</time>
      </trkpt>
      <trkpt lat="42.2125" lon="2.516862">
        <ele>327</ele>
        <time>1970-01-01T05:43:03.000Z</time>
      </trkpt>
      <trkpt lat="42.212499" lon="2.516772">
        <ele>327</ele>
        <time>1970-01-01T05:43:04.000Z</time>
      </trkpt>
      <trkpt lat="42.212498" lon="2.516732">
        <ele>327</ele>
        <time>1970-01-01T05:43:05.000Z</time>
      </trkpt>
      <trkpt lat="42.212498" lon="2.516692">
        <ele>327</ele>
        <time>1970-01-01T05:43:06.000Z</time>
      </trkpt>
      <trkpt lat="42.212497" lon="2.516652">
        <ele>327</ele>
        <time>1970-01-01T05:43:07.000Z</time>
      </trkpt>
      <trkpt lat="42.212497" lon="2.516612">
        <ele>327</ele>
        <time>1970-01-01T05:43:08.000Z</time>
      </trkpt>
      <trkpt lat="42.212497" lon="2.516572">
        <ele>327</ele>
        <time>1970-01-01T05:43:09.000Z</time>
      </trkpt>
      <trkpt lat="42.212496" lon="2.516532">
        <ele>327</ele>
        <time>1970-01-01T05:43:10.000Z</time>
      </trkpt>
      <trkpt lat="42.212496" lon="2.516492">
        <ele>327</ele>
        <time>1970-01-01T05:43:11.000Z</time>
      </trkpt>
      <trkpt lat="42.212495" lon="2.516452">
        <ele>327</ele>
        <time>1970-01-01T05:43:12.000Z</time>
      </trkpt>
      <trkpt lat="42.212495" lon="2.516412">
        <ele>329</ele>
        <time>1970-01-01T05:43:13.000Z</time>
      </trkpt>
      <trkpt lat="42.212495" lon="2.516331">
        <ele>329</ele>
        <time>1970-01-01T05:43:14.000Z</time>
      </trkpt>
      <trkpt lat="42.212496" lon="2.516294">
        <ele>329</ele>
        <time>1970-01-01T05:43:15.000Z</time>
      </trkpt>
      <trkpt lat="42.212496" lon="2.516257">
        <ele>329</ele>
        <time>1970-01-01T05:43:16.000Z</time>
      </trkpt>
      <trkpt lat="42.212497" lon="2.51622">
        <ele>329</ele>
        <time>1970-01-01T05:43:17.000Z</time>
      </trkpt>
      <trkpt lat="42.212497" lon="2.516183">
        <ele>329</ele>
        <time>1970-01-01T05:43:18.000Z</time>
      </trkpt>
      <trkpt lat="42.212497" lon="2.516145">
        <ele>329</ele>
        <time>1970-01-01T05:43:19.000Z</time>
      </trkpt>
      <trkpt lat="42.212498" lon="2.516108">
        <ele>329</ele>
        <time>1970-01-01T05:43:20.000Z</time>
      </trkpt>
      <trkpt lat="42.212498" lon="2.516071">
        <ele>329</ele>
        <time>1970-01-01T05:43:21.000Z</time>
      </trkpt>
      <trkpt lat="42.212499" lon="2.516034">
        <ele>329</ele>
        <time>1970-01-01T05:43:22.000Z</time>
      </trkpt>
      <trkpt lat="42.212499" lon="2.515997">
        <ele>331</ele>
        <time>1970-01-01T05:43:23.000Z</time>
      </trkpt>
      <trkpt lat="42.212496" lon="2.515913">
        <ele>331</ele>
        <time>1970-01-01T05:43:24.000Z</time>
      </trkpt>
      <trkpt lat="42.212494" lon="2.51587">
        <ele>331</ele>
        <time>1970-01-01T05:43:25.000Z</time>
      </trkpt>
      <trkpt lat="42.212493" lon="2.515828">
        <ele>331</ele>
        <time>1970-01-01T05:43:26.000Z</time>
      </trkpt>
      <trkpt lat="42.212491" lon="2.515785">
        <ele>331</ele>
        <time>1970-01-01T05:43:27.000Z</time>
      </trkpt>
      <trkpt lat="42.21249" lon="2.515742">
        <ele>331</ele>
        <time>1970-01-01T05:43:29.000Z</time>
      </trkpt>
      <trkpt lat="42.212488" lon="2.515699">
        <ele>331</ele>
        <time>1970-01-01T05:43:30.000Z</time>
      </trkpt>
      <trkpt lat="42.212487" lon="2.515657">
        <ele>331</ele>
        <time>1970-01-01T05:43:31.000Z</time>
      </trkpt>
      <trkpt lat="42.212485" lon="2.515614">
        <ele>331</ele>
        <time>1970-01-01T05:43:32.000Z</time>
      </trkpt>
      <trkpt lat="42.212484" lon="2.515571">
        <ele>334</ele>
        <time>1970-01-01T05:43:33.000Z</time>
      </trkpt>
      <trkpt lat="42.212483" lon="2.515485">
        <ele>334</ele>
        <time>1970-01-01T05:43:34.000Z</time>
      </trkpt>
      <trkpt lat="42.212483" lon="2.515442">
        <ele>334</ele>
        <time>1970-01-01T05:43:35.000Z</time>
      </trkpt>
      <trkpt lat="42.212483" lon="2.515399">
        <ele>334</ele>
        <time>1970-01-01T05:43:36.000Z</time>
      </trkpt>
      <trkpt lat="42.212483" lon="2.515356">
        <ele>334</ele>
        <time>1970-01-01T05:43:37.000Z</time>
      </trkpt>
      <trkpt lat="42.212483" lon="2.515313">
        <ele>334</ele>
        <time>1970-01-01T05:43:38.000Z</time>
      </trkpt>
      <trkpt lat="42.212484" lon="2.515271">
        <ele>334</ele>
        <time>1970-01-01T05:43:39.000Z</time>
      </trkpt>
      <trkpt lat="42.212484" lon="2.515228">
        <ele>334</ele>
        <time>1970-01-01T05:43:40.000Z</time>
      </trkpt>
      <trkpt lat="42.212484" lon="2.515185">
        <ele>334</ele>
        <time>1970-01-01T05:43:41.000Z</time>
      </trkpt>
      <trkpt lat="42.212484" lon="2.515142">
        <ele>334</ele>
        <time>1970-01-01T05:43:42.000Z</time>
      </trkpt>
      <trkpt lat="42.212484" lon="2.515099">
        <ele>334</ele>
        <time>1970-01-01T05:43:43.000Z</time>
      </trkpt>
      <trkpt lat="42.212484" lon="2.515056">
        <ele>334</ele>
        <time>1970-01-01T05:43:44.000Z</time>
      </trkpt>
      <trkpt lat="42.212485" lon="2.514948">
        <ele>334</ele>
        <time>1970-01-01T05:43:45.000Z</time>
      </trkpt>
      <trkpt lat="42.212484" lon="2.514907">
        <ele>334</ele>
        <time>1970-01-01T05:43:46.000Z</time>
      </trkpt>
      <trkpt lat="42.212484" lon="2.514866">
        <ele>334</ele>
        <time>1970-01-01T05:43:47.000Z</time>
      </trkpt>
      <trkpt lat="42.212484" lon="2.514825">
        <ele>334</ele>
        <time>1970-01-01T05:43:48.000Z</time>
      </trkpt>
      <trkpt lat="42.212483" lon="2.514785">
        <ele>334</ele>
        <time>1970-01-01T05:43:49.000Z</time>
      </trkpt>
      <trkpt lat="42.212483" lon="2.514744">
        <ele>334</ele>
        <time>1970-01-01T05:43:50.000Z</time>
      </trkpt>
      <trkpt lat="42.212483" lon="2.514703">
        <ele>334</ele>
        <time>1970-01-01T05:43:51.000Z</time>
      </trkpt>
      <trkpt lat="42.212482" lon="2.514662">
        <ele>334</ele>
        <time>1970-01-01T05:43:52.000Z</time>
      </trkpt>
      <trkpt lat="42.212482" lon="2.514621">
        <ele>335</ele>
        <time>1970-01-01T05:43:53.000Z</time>
      </trkpt>
      <trkpt lat="42.21248" lon="2.514524">
        <ele>335</ele>
        <time>1970-01-01T05:43:54.000Z</time>
      </trkpt>
      <trkpt lat="42.21248" lon="2.514472">
        <ele>335</ele>
        <time>1970-01-01T05:43:55.000Z</time>
      </trkpt>
      <trkpt lat="42.212479" lon="2.514421">
        <ele>335</ele>
        <time>1970-01-01T05:43:56.000Z</time>
      </trkpt>
      <trkpt lat="42.212479" lon="2.51437">
        <ele>335</ele>
        <time>1970-01-01T05:43:58.000Z</time>
      </trkpt>
      <trkpt lat="42.212478" lon="2.514319">
        <ele>335</ele>
        <time>1970-01-01T05:44:00.000Z</time>
      </trkpt>
      <trkpt lat="42.212478" lon="2.514267">
        <ele>335</ele>
        <time>1970-01-01T05:44:02.000Z</time>
      </trkpt>
      <trkpt lat="42.212477" lon="2.514216">
        <ele>336</ele>
        <time>1970-01-01T05:44:03.000Z</time>
      </trkpt>
      <trkpt lat="42.212478" lon="2.514131">
        <ele>336</ele>
        <time>1970-01-01T05:44:04.000Z</time>
      </trkpt>
      <trkpt lat="42.212479" lon="2.514091">
        <ele>336</ele>
        <time>1970-01-01T05:44:05.000Z</time>
      </trkpt>
      <trkpt lat="42.212479" lon="2.514051">
        <ele>336</ele>
        <time>1970-01-01T05:44:06.000Z</time>
      </trkpt>
      <trkpt lat="42.21248" lon="2.514011">
        <ele>336</ele>
        <time>1970-01-01T05:44:07.000Z</time>
      </trkpt>
      <trkpt lat="42.21248" lon="2.513972">
        <ele>336</ele>
        <time>1970-01-01T05:44:08.000Z</time>
      </trkpt>
      <trkpt lat="42.21248" lon="2.513932">
        <ele>336</ele>
        <time>1970-01-01T05:44:09.000Z</time>
      </trkpt>
      <trkpt lat="42.212481" lon="2.513892">
        <ele>336</ele>
        <time>1970-01-01T05:44:10.000Z</time>
      </trkpt>
      <trkpt lat="42.212481" lon="2.513852">
        <ele>336</ele>
        <time>1970-01-01T05:44:11.000Z</time>
      </trkpt>
      <trkpt lat="42.212482" lon="2.513812">
        <ele>336</ele>
        <time>1970-01-01T05:44:12.000Z</time>
      </trkpt>
      <trkpt lat="42.212482" lon="2.513772">
        <ele>337</ele>
        <time>1970-01-01T05:44:13.000Z</time>
      </trkpt>
      <trkpt lat="42.212481" lon="2.513685">
        <ele>337</ele>
        <time>1970-01-01T05:44:14.000Z</time>
      </trkpt>
      <trkpt lat="42.212482" lon="2.513643">
        <ele>337</ele>
        <time>1970-01-01T05:44:15.000Z</time>
      </trkpt>
      <trkpt lat="42.212482" lon="2.5136">
        <ele>337</ele>
        <time>1970-01-01T05:44:16.000Z</time>
      </trkpt>
      <trkpt lat="42.212482" lon="2.513557">
        <ele>337</ele>
        <time>1970-01-01T05:44:17.000Z</time>
      </trkpt>
      <trkpt lat="42.212483" lon="2.513515">
        <ele>337</ele>
        <time>1970-01-01T05:44:18.000Z</time>
      </trkpt>
      <trkpt lat="42.212483" lon="2.513472">
        <ele>337</ele>
        <time>1970-01-01T05:44:19.000Z</time>
      </trkpt>
      <trkpt lat="42.212484" lon="2.51343">
        <ele>337</ele>
        <time>1970-01-01T05:44:20.000Z</time>
      </trkpt>
      <trkpt lat="42.212484" lon="2.513387">
        <ele>337</ele>
        <time>1970-01-01T05:44:21.000Z</time>
      </trkpt>
      <trkpt lat="42.212484" lon="2.513344">
        <ele>337</ele>
        <time>1970-01-01T05:44:22.000Z</time>
      </trkpt>
      <trkpt lat="42.212485" lon="2.513302">
        <ele>337</ele>
        <time>1970-01-01T05:44:23.000Z</time>
      </trkpt>
      <trkpt lat="42.212485" lon="2.513259">
        <ele>338</ele>
        <time>1970-01-01T05:44:24.000Z</time>
      </trkpt>
      <trkpt lat="42.212481" lon="2.513143">
        <ele>338</ele>
        <time>1970-01-01T05:44:25.000Z</time>
      </trkpt>
      <trkpt lat="42.212479" lon="2.513094">
        <ele>338</ele>
        <time>1970-01-01T05:44:26.000Z</time>
      </trkpt>
      <trkpt lat="42.212477" lon="2.513045">
        <ele>338</ele>
        <time>1970-01-01T05:44:27.000Z</time>
      </trkpt>
      <trkpt lat="42.212476" lon="2.512996">
        <ele>338</ele>
        <time>1970-01-01T05:44:29.000Z</time>
      </trkpt>
      <trkpt lat="42.212474" lon="2.512947">
        <ele>338</ele>
        <time>1970-01-01T05:44:31.000Z</time>
      </trkpt>
      <trkpt lat="42.212472" lon="2.512898">
        <ele>338</ele>
        <time>1970-01-01T05:44:32.000Z</time>
      </trkpt>
      <trkpt lat="42.21247" lon="2.512849">
        <ele>339</ele>
        <time>1970-01-01T05:44:33.000Z</time>
      </trkpt>
      <trkpt lat="42.212467" lon="2.512783">
        <ele>339</ele>
        <time>1970-01-01T05:44:34.000Z</time>
      </trkpt>
      <trkpt lat="42.212467" lon="2.512741">
        <ele>339</ele>
        <time>1970-01-01T05:44:35.000Z</time>
      </trkpt>
      <trkpt lat="42.212466" lon="2.512698">
        <ele>339</ele>
        <time>1970-01-01T05:44:36.000Z</time>
      </trkpt>
      <trkpt lat="42.212465" lon="2.512656">
        <ele>339</ele>
        <time>1970-01-01T05:44:37.000Z</time>
      </trkpt>
      <trkpt lat="42.212465" lon="2.512613">
        <ele>339</ele>
        <time>1970-01-01T05:44:38.000Z</time>
      </trkpt>
      <trkpt lat="42.212464" lon="2.51257">
        <ele>339</ele>
        <time>1970-01-01T05:44:39.000Z</time>
      </trkpt>
      <trkpt lat="42.212463" lon="2.512528">
        <ele>339</ele>
        <time>1970-01-01T05:44:40.000Z</time>
      </trkpt>
      <trkpt lat="42.212462" lon="2.512485">
        <ele>339</ele>
        <time>1970-01-01T05:44:41.000Z</time>
      </trkpt>
      <trkpt lat="42.212462" lon="2.512443">
        <ele>339</ele>
        <time>1970-01-01T05:44:42.000Z</time>
      </trkpt>
      <trkpt lat="42.212461" lon="2.5124">
        <ele>339</ele>
        <time>1970-01-01T05:44:43.000Z</time>
      </trkpt>
      <trkpt lat="42.212462" lon="2.512301">
        <ele>339</ele>
        <time>1970-01-01T05:44:44.000Z</time>
      </trkpt>
      <trkpt lat="42.212461" lon="2.51225">
        <ele>339</ele>
        <time>1970-01-01T05:44:45.000Z</time>
      </trkpt>
      <trkpt lat="42.212461" lon="2.512198">
        <ele>339</ele>
        <time>1970-01-01T05:44:46.000Z</time>
      </trkpt>
      <trkpt lat="42.21246" lon="2.512146">
        <ele>339</ele>
        <time>1970-01-01T05:44:47.000Z</time>
      </trkpt>
      <trkpt lat="42.21246" lon="2.512095">
        <ele>339</ele>
        <time>1970-01-01T05:44:48.000Z</time>
      </trkpt>
      <trkpt lat="42.212459" lon="2.512043">
        <ele>339</ele>
        <time>1970-01-01T05:44:49.000Z</time>
      </trkpt>
      <trkpt lat="42.212459" lon="2.511991">
        <ele>339</ele>
        <time>1970-01-01T05:44:50.000Z</time>
      </trkpt>
      <trkpt lat="42.212458" lon="2.51194">
        <ele>339</ele>
        <time>1970-01-01T05:44:51.000Z</time>
      </trkpt>
      <trkpt lat="42.212458" lon="2.511888">
        <ele>340</ele>
        <time>1970-01-01T05:44:53.000Z</time>
      </trkpt>
      <trkpt lat="42.212452" lon="2.511729">
        <ele>340</ele>
        <time>1970-01-01T05:44:54.000Z</time>
      </trkpt>
      <trkpt lat="42.212447" lon="2.51168">
        <ele>340</ele>
        <time>1970-01-01T05:44:56.000Z</time>
      </trkpt>
      <trkpt lat="42.212443" lon="2.51163">
        <ele>340</ele>
        <time>1970-01-01T05:44:57.000Z</time>
      </trkpt>
      <trkpt lat="42.212439" lon="2.511581">
        <ele>340</ele>
        <time>1970-01-01T05:44:58.000Z</time>
      </trkpt>
      <trkpt lat="42.212434" lon="2.511532">
        <ele>340</ele>
        <time>1970-01-01T05:44:59.000Z</time>
      </trkpt>
      <trkpt lat="42.21243" lon="2.511483">
        <ele>340</ele>
        <time>1970-01-01T05:45:00.000Z</time>
      </trkpt>
      <trkpt lat="42.212426" lon="2.511433">
        <ele>340</ele>
        <time>1970-01-01T05:45:01.000Z</time>
      </trkpt>
      <trkpt lat="42.212421" lon="2.511384">
        <ele>340</ele>
        <time>1970-01-01T05:45:02.000Z</time>
      </trkpt>
      <trkpt lat="42.212417" lon="2.511335">
        <ele>341</ele>
        <time>1970-01-01T05:45:03.000Z</time>
      </trkpt>
      <trkpt lat="42.212368" lon="2.511212">
        <ele>341</ele>
        <time>1970-01-01T05:45:04.000Z</time>
      </trkpt>
      <trkpt lat="42.212338" lon="2.511146">
        <ele>341</ele>
        <time>1970-01-01T05:45:05.000Z</time>
      </trkpt>
      <trkpt lat="42.212309" lon="2.51108">
        <ele>341</ele>
        <time>1970-01-01T05:45:06.000Z</time>
      </trkpt>
      <trkpt lat="42.212279" lon="2.511014">
        <ele>341</ele>
        <time>1970-01-01T05:45:07.000Z</time>
      </trkpt>
      <trkpt lat="42.212249" lon="2.510949">
        <ele>341</ele>
        <time>1970-01-01T05:45:08.000Z</time>
      </trkpt>
      <trkpt lat="42.212219" lon="2.510883">
        <ele>341</ele>
        <time>1970-01-01T05:45:10.000Z</time>
      </trkpt>
      <trkpt lat="42.21219" lon="2.510817">
        <ele>341</ele>
        <time>1970-01-01T05:45:11.000Z</time>
      </trkpt>
      <trkpt lat="42.21216" lon="2.510751">
        <ele>341</ele>
        <time>1970-01-01T05:45:12.000Z</time>
      </trkpt>
      <trkpt lat="42.21213" lon="2.510685">
        <ele>341</ele>
        <time>1970-01-01T05:45:13.000Z</time>
      </trkpt>
      <trkpt lat="42.212055" lon="2.510531">
        <ele>341</ele>
        <time>1970-01-01T05:45:14.000Z</time>
      </trkpt>
      <trkpt lat="42.212028" lon="2.510472">
        <ele>341</ele>
        <time>1970-01-01T05:45:15.000Z</time>
      </trkpt>
      <trkpt lat="42.212001" lon="2.510414">
        <ele>341</ele>
        <time>1970-01-01T05:45:16.000Z</time>
      </trkpt>
      <trkpt lat="42.211974" lon="2.510355">
        <ele>341</ele>
        <time>1970-01-01T05:45:17.000Z</time>
      </trkpt>
      <trkpt lat="42.211946" lon="2.510297">
        <ele>341</ele>
        <time>1970-01-01T05:45:18.000Z</time>
      </trkpt>
      <trkpt lat="42.211919" lon="2.510239">
        <ele>341</ele>
        <time>1970-01-01T05:45:20.000Z</time>
      </trkpt>
      <trkpt lat="42.211892" lon="2.51018">
        <ele>341</ele>
        <time>1970-01-01T05:45:22.000Z</time>
      </trkpt>
      <trkpt lat="42.211865" lon="2.510122">
        <ele>339</ele>
        <time>1970-01-01T05:45:23.000Z</time>
      </trkpt>
      <trkpt lat="42.21182" lon="2.510022">
        <ele>339</ele>
        <time>1970-01-01T05:45:24.000Z</time>
      </trkpt>
      <trkpt lat="42.2118" lon="2.509977">
        <ele>339</ele>
        <time>1970-01-01T05:45:25.000Z</time>
      </trkpt>
      <trkpt lat="42.21178" lon="2.509931">
        <ele>339</ele>
        <time>1970-01-01T05:45:26.000Z</time>
      </trkpt>
      <trkpt lat="42.21176" lon="2.509886">
        <ele>339</ele>
        <time>1970-01-01T05:45:27.000Z</time>
      </trkpt>
      <trkpt lat="42.211741" lon="2.509841">
        <ele>339</ele>
        <time>1970-01-01T05:45:28.000Z</time>
      </trkpt>
      <trkpt lat="42.211721" lon="2.509796">
        <ele>339</ele>
        <time>1970-01-01T05:45:29.000Z</time>
      </trkpt>
      <trkpt lat="42.211701" lon="2.509751">
        <ele>339</ele>
        <time>1970-01-01T05:45:30.000Z</time>
      </trkpt>
      <trkpt lat="42.211681" lon="2.509705">
        <ele>339</ele>
        <time>1970-01-01T05:45:31.000Z</time>
      </trkpt>
      <trkpt lat="42.211661" lon="2.50966">
        <ele>339</ele>
        <time>1970-01-01T05:45:32.000Z</time>
      </trkpt>
      <trkpt lat="42.211641" lon="2.509615">
        <ele>339</ele>
        <time>1970-01-01T05:45:33.000Z</time>
      </trkpt>
      <trkpt lat="42.211593" lon="2.509514">
        <ele>339</ele>
        <time>1970-01-01T05:45:34.000Z</time>
      </trkpt>
      <trkpt lat="42.211569" lon="2.509461">
        <ele>339</ele>
        <time>1970-01-01T05:45:35.000Z</time>
      </trkpt>
      <trkpt lat="42.211544" lon="2.509407">
        <ele>339</ele>
        <time>1970-01-01T05:45:36.000Z</time>
      </trkpt>
      <trkpt lat="42.211519" lon="2.509353">
        <ele>339</ele>
        <time>1970-01-01T05:45:37.000Z</time>
      </trkpt>
      <trkpt lat="42.211495" lon="2.5093">
        <ele>339</ele>
        <time>1970-01-01T05:45:38.000Z</time>
      </trkpt>
      <trkpt lat="42.21147" lon="2.509246">
        <ele>339</ele>
        <time>1970-01-01T05:45:39.000Z</time>
      </trkpt>
      <trkpt lat="42.211445" lon="2.509192">
        <ele>339</ele>
        <time>1970-01-01T05:45:40.000Z</time>
      </trkpt>
      <trkpt lat="42.211421" lon="2.509139">
        <ele>339</ele>
        <time>1970-01-01T05:45:41.000Z</time>
      </trkpt>
      <trkpt lat="42.211396" lon="2.509085">
        <ele>339</ele>
        <time>1970-01-01T05:45:43.000Z</time>
      </trkpt>
      <trkpt lat="42.211355" lon="2.509">
        <ele>339</ele>
        <time>1970-01-01T05:45:44.000Z</time>
      </trkpt>
      <trkpt lat="42.211332" lon="2.508951">
        <ele>339</ele>
        <time>1970-01-01T05:45:45.000Z</time>
      </trkpt>
      <trkpt lat="42.211308" lon="2.508902">
        <ele>339</ele>
        <time>1970-01-01T05:45:46.000Z</time>
      </trkpt>
      <trkpt lat="42.211284" lon="2.508853">
        <ele>339</ele>
        <time>1970-01-01T05:45:47.000Z</time>
      </trkpt>
      <trkpt lat="42.211261" lon="2.508804">
        <ele>339</ele>
        <time>1970-01-01T05:45:48.000Z</time>
      </trkpt>
      <trkpt lat="42.211237" lon="2.508755">
        <ele>339</ele>
        <time>1970-01-01T05:45:49.000Z</time>
      </trkpt>
      <trkpt lat="42.211213" lon="2.508706">
        <ele>339</ele>
        <time>1970-01-01T05:45:50.000Z</time>
      </trkpt>
      <trkpt lat="42.211189" lon="2.508657">
        <ele>339</ele>
        <time>1970-01-01T05:45:51.000Z</time>
      </trkpt>
      <trkpt lat="42.211166" lon="2.508608">
        <ele>339</ele>
        <time>1970-01-01T05:45:52.000Z</time>
      </trkpt>
      <trkpt lat="42.211142" lon="2.508559">
        <ele>339</ele>
        <time>1970-01-01T05:45:53.000Z</time>
      </trkpt>
      <trkpt lat="42.211053" lon="2.508452">
        <ele>339</ele>
        <time>1970-01-01T05:45:54.000Z</time>
      </trkpt>
      <trkpt lat="42.210997" lon="2.5084">
        <ele>339</ele>
        <time>1970-01-01T05:45:55.000Z</time>
      </trkpt>
      <trkpt lat="42.210941" lon="2.508349">
        <ele>339</ele>
        <time>1970-01-01T05:45:56.000Z</time>
      </trkpt>
      <trkpt lat="42.210885" lon="2.508297">
        <ele>339</ele>
        <time>1970-01-01T05:45:57.000Z</time>
      </trkpt>
      <trkpt lat="42.210829" lon="2.508245">
        <ele>339</ele>
        <time>1970-01-01T05:45:58.000Z</time>
      </trkpt>
      <trkpt lat="42.210772" lon="2.508193">
        <ele>339</ele>
        <time>1970-01-01T05:45:59.000Z</time>
      </trkpt>
      <trkpt lat="42.210716" lon="2.508141">
        <ele>339</ele>
        <time>1970-01-01T05:46:00.000Z</time>
      </trkpt>
      <trkpt lat="42.21066" lon="2.50809">
        <ele>339</ele>
        <time>1970-01-01T05:46:01.000Z</time>
      </trkpt>
      <trkpt lat="42.210604" lon="2.508038">
        <ele>339</ele>
        <time>1970-01-01T05:46:02.000Z</time>
      </trkpt>
      <trkpt lat="42.210548" lon="2.507986">
        <ele>339</ele>
        <time>1970-01-01T05:46:04.000Z</time>
      </trkpt>
      <trkpt lat="42.210382" lon="2.507857">
        <ele>339</ele>
        <time>1970-01-01T05:46:06.000Z</time>
      </trkpt>
      <trkpt lat="42.210325" lon="2.507811">
        <ele>339</ele>
        <time>1970-01-01T05:46:07.000Z</time>
      </trkpt>
      <trkpt lat="42.210269" lon="2.507765">
        <ele>339</ele>
        <time>1970-01-01T05:46:08.000Z</time>
      </trkpt>
      <trkpt lat="42.210213" lon="2.507719">
        <ele>339</ele>
        <time>1970-01-01T05:46:10.000Z</time>
      </trkpt>
      <trkpt lat="42.210156" lon="2.507673">
        <ele>339</ele>
        <time>1970-01-01T05:46:12.000Z</time>
      </trkpt>
      <trkpt lat="42.2101" lon="2.507627">
        <ele>339</ele>
        <time>1970-01-01T05:46:13.000Z</time>
      </trkpt>
      <trkpt lat="42.210025" lon="2.507511">
        <ele>339</ele>
        <time>1970-01-01T05:46:15.000Z</time>
      </trkpt>
      <trkpt lat="42.210008" lon="2.507454">
        <ele>339</ele>
        <time>1970-01-01T05:46:16.000Z</time>
      </trkpt>
      <trkpt lat="42.209991" lon="2.507397">
        <ele>339</ele>
        <time>1970-01-01T05:46:17.000Z</time>
      </trkpt>
      <trkpt lat="42.209974" lon="2.50734">
        <ele>339</ele>
        <time>1970-01-01T05:46:18.000Z</time>
      </trkpt>
      <trkpt lat="42.209957" lon="2.507283">
        <ele>339</ele>
        <time>1970-01-01T05:46:19.000Z</time>
      </trkpt>
      <trkpt lat="42.20994" lon="2.507226">
        <ele>339</ele>
        <time>1970-01-01T05:46:20.000Z</time>
      </trkpt>
      <trkpt lat="42.209923" lon="2.507169">
        <ele>339</ele>
        <time>1970-01-01T05:46:21.000Z</time>
      </trkpt>
      <trkpt lat="42.209906" lon="2.507112">
        <ele>339</ele>
        <time>1970-01-01T05:46:22.000Z</time>
      </trkpt>
      <trkpt lat="42.209889" lon="2.507055">
        <ele>338</ele>
        <time>1970-01-01T05:46:23.000Z</time>
      </trkpt>
      <trkpt lat="42.209882" lon="2.50694">
        <ele>338</ele>
        <time>1970-01-01T05:46:24.000Z</time>
      </trkpt>
      <trkpt lat="42.209879" lon="2.50688">
        <ele>338</ele>
        <time>1970-01-01T05:46:26.000Z</time>
      </trkpt>
      <trkpt lat="42.209877" lon="2.506821">
        <ele>338</ele>
        <time>1970-01-01T05:46:27.000Z</time>
      </trkpt>
      <trkpt lat="42.209874" lon="2.506762">
        <ele>338</ele>
        <time>1970-01-01T05:46:28.000Z</time>
      </trkpt>
      <trkpt lat="42.209871" lon="2.506702">
        <ele>338</ele>
        <time>1970-01-01T05:46:29.000Z</time>
      </trkpt>
      <trkpt lat="42.209868" lon="2.506643">
        <ele>338</ele>
        <time>1970-01-01T05:46:30.000Z</time>
      </trkpt>
      <trkpt lat="42.209866" lon="2.506584">
        <ele>338</ele>
        <time>1970-01-01T05:46:31.000Z</time>
      </trkpt>
      <trkpt lat="42.209863" lon="2.506524">
        <ele>338</ele>
        <time>1970-01-01T05:46:32.000Z</time>
      </trkpt>
      <trkpt lat="42.20986" lon="2.506465">
        <ele>338</ele>
        <time>1970-01-01T05:46:34.000Z</time>
      </trkpt>
      <trkpt lat="42.209862" lon="2.506271">
        <ele>338</ele>
        <time>1970-01-01T05:46:36.000Z</time>
      </trkpt>
      <trkpt lat="42.20986" lon="2.506196">
        <ele>338</ele>
        <time>1970-01-01T05:46:38.000Z</time>
      </trkpt>
      <trkpt lat="42.209858" lon="2.506122">
        <ele>338</ele>
        <time>1970-01-01T05:46:40.000Z</time>
      </trkpt>
      <trkpt lat="42.209856" lon="2.506047">
        <ele>338</ele>
        <time>1970-01-01T05:46:42.000Z</time>
      </trkpt>
      <trkpt lat="42.209854" lon="2.505972">
        <ele>338</ele>
        <time>1970-01-01T05:46:43.000Z</time>
      </trkpt>
      <trkpt lat="42.20985" lon="2.505907">
        <ele>338</ele>
        <time>1970-01-01T05:46:44.000Z</time>
      </trkpt>
      <trkpt lat="42.209848" lon="2.505867">
        <ele>338</ele>
        <time>1970-01-01T05:46:45.000Z</time>
      </trkpt>
      <trkpt lat="42.209845" lon="2.505828">
        <ele>338</ele>
        <time>1970-01-01T05:46:46.000Z</time>
      </trkpt>
      <trkpt lat="42.209843" lon="2.505789">
        <ele>338</ele>
        <time>1970-01-01T05:46:47.000Z</time>
      </trkpt>
      <trkpt lat="42.209841" lon="2.505749">
        <ele>338</ele>
        <time>1970-01-01T05:46:48.000Z</time>
      </trkpt>
      <trkpt lat="42.209839" lon="2.50571">
        <ele>338</ele>
        <time>1970-01-01T05:46:49.000Z</time>
      </trkpt>
      <trkpt lat="42.209837" lon="2.505671">
        <ele>338</ele>
        <time>1970-01-01T05:46:50.000Z</time>
      </trkpt>
      <trkpt lat="42.209834" lon="2.505632">
        <ele>338</ele>
        <time>1970-01-01T05:46:51.000Z</time>
      </trkpt>
      <trkpt lat="42.209832" lon="2.505592">
        <ele>338</ele>
        <time>1970-01-01T05:46:52.000Z</time>
      </trkpt>
      <trkpt lat="42.20983" lon="2.505553">
        <ele>339</ele>
        <time>1970-01-01T05:46:53.000Z</time>
      </trkpt>
      <trkpt lat="42.209829" lon="2.505469">
        <ele>339</ele>
        <time>1970-01-01T05:46:54.000Z</time>
      </trkpt>
      <trkpt lat="42.209829" lon="2.505438">
        <ele>339</ele>
        <time>1970-01-01T05:46:55.000Z</time>
      </trkpt>
      <trkpt lat="42.209828" lon="2.505408">
        <ele>339</ele>
        <time>1970-01-01T05:46:56.000Z</time>
      </trkpt>
      <trkpt lat="42.209827" lon="2.505377">
        <ele>339</ele>
        <time>1970-01-01T05:46:57.000Z</time>
      </trkpt>
      <trkpt lat="42.209827" lon="2.505347">
        <ele>339</ele>
        <time>1970-01-01T05:46:58.000Z</time>
      </trkpt>
      <trkpt lat="42.209826" lon="2.505317">
        <ele>339</ele>
        <time>1970-01-01T05:46:59.000Z</time>
      </trkpt>
      <trkpt lat="42.209825" lon="2.505286">
        <ele>339</ele>
        <time>1970-01-01T05:47:00.000Z</time>
      </trkpt>
      <trkpt lat="42.209824" lon="2.505256">
        <ele>339</ele>
        <time>1970-01-01T05:47:01.000Z</time>
      </trkpt>
      <trkpt lat="42.209824" lon="2.505225">
        <ele>339</ele>
        <time>1970-01-01T05:47:02.000Z</time>
      </trkpt>
      <trkpt lat="42.209823" lon="2.505195">
        <ele>340</ele>
        <time>1970-01-01T05:47:03.000Z</time>
      </trkpt>
      <trkpt lat="42.209818" lon="2.505146">
        <ele>340</ele>
        <time>1970-01-01T05:47:04.000Z</time>
      </trkpt>
      <trkpt lat="42.209815" lon="2.505115">
        <ele>340</ele>
        <time>1970-01-01T05:47:05.000Z</time>
      </trkpt>
      <trkpt lat="42.209811" lon="2.505083">
        <ele>340</ele>
        <time>1970-01-01T05:47:06.000Z</time>
      </trkpt>
      <trkpt lat="42.209808" lon="2.505052">
        <ele>340</ele>
        <time>1970-01-01T05:47:07.000Z</time>
      </trkpt>
      <trkpt lat="42.209804" lon="2.50502">
        <ele>340</ele>
        <time>1970-01-01T05:47:08.000Z</time>
      </trkpt>
      <trkpt lat="42.2098" lon="2.504988">
        <ele>340</ele>
        <time>1970-01-01T05:47:09.000Z</time>
      </trkpt>
      <trkpt lat="42.209797" lon="2.504957">
        <ele>340</ele>
        <time>1970-01-01T05:47:10.000Z</time>
      </trkpt>
      <trkpt lat="42.209793" lon="2.504925">
        <ele>340</ele>
        <time>1970-01-01T05:47:11.000Z</time>
      </trkpt>
      <trkpt lat="42.20979" lon="2.504894">
        <ele>340</ele>
        <time>1970-01-01T05:47:12.000Z</time>
      </trkpt>
      <trkpt lat="42.209786" lon="2.504862">
        <ele>342</ele>
        <time>1970-01-01T05:47:13.000Z</time>
      </trkpt>
      <trkpt lat="42.209765" lon="2.504797">
        <ele>342</ele>
        <time>1970-01-01T05:47:14.000Z</time>
      </trkpt>
      <trkpt lat="42.209752" lon="2.504768">
        <ele>342</ele>
        <time>1970-01-01T05:47:15.000Z</time>
      </trkpt>
      <trkpt lat="42.20974" lon="2.504738">
        <ele>342</ele>
        <time>1970-01-01T05:47:16.000Z</time>
      </trkpt>
      <trkpt lat="42.209728" lon="2.504709">
        <ele>342</ele>
        <time>1970-01-01T05:47:17.000Z</time>
      </trkpt>
      <trkpt lat="42.209716" lon="2.504679">
        <ele>342</ele>
        <time>1970-01-01T05:47:18.000Z</time>
      </trkpt>
      <trkpt lat="42.209703" lon="2.504649">
        <ele>342</ele>
        <time>1970-01-01T05:47:19.000Z</time>
      </trkpt>
      <trkpt lat="42.209691" lon="2.50462">
        <ele>342</ele>
        <time>1970-01-01T05:47:20.000Z</time>
      </trkpt>
      <trkpt lat="42.209679" lon="2.50459">
        <ele>342</ele>
        <time>1970-01-01T05:47:21.000Z</time>
      </trkpt>
      <trkpt lat="42.209666" lon="2.504561">
        <ele>342</ele>
        <time>1970-01-01T05:47:22.000Z</time>
      </trkpt>
      <trkpt lat="42.209654" lon="2.504531">
        <ele>344</ele>
        <time>1970-01-01T05:47:23.000Z</time>
      </trkpt>
      <trkpt lat="42.209631" lon="2.504462">
        <ele>344</ele>
        <time>1970-01-01T05:47:24.000Z</time>
      </trkpt>
      <trkpt lat="42.209626" lon="2.504425">
        <ele>344</ele>
        <time>1970-01-01T05:47:25.000Z</time>
      </trkpt>
      <trkpt lat="42.209621" lon="2.504388">
        <ele>344</ele>
        <time>1970-01-01T05:47:26.000Z</time>
      </trkpt>
      <trkpt lat="42.209616" lon="2.504351">
        <ele>344</ele>
        <time>1970-01-01T05:47:28.000Z</time>
      </trkpt>
      <trkpt lat="42.20961" lon="2.504313">
        <ele>344</ele>
        <time>1970-01-01T05:47:29.000Z</time>
      </trkpt>
      <trkpt lat="42.209605" lon="2.504276">
        <ele>344</ele>
        <time>1970-01-01T05:47:30.000Z</time>
      </trkpt>
      <trkpt lat="42.2096" lon="2.504239">
        <ele>344</ele>
        <time>1970-01-01T05:47:31.000Z</time>
      </trkpt>
      <trkpt lat="42.209595" lon="2.504202">
        <ele>344</ele>
        <time>1970-01-01T05:47:32.000Z</time>
      </trkpt>
      <trkpt lat="42.20959" lon="2.504165">
        <ele>346</ele>
        <time>1970-01-01T05:47:33.000Z</time>
      </trkpt>
      <trkpt lat="42.209573" lon="2.504092">
        <ele>346</ele>
        <time>1970-01-01T05:47:34.000Z</time>
      </trkpt>
      <trkpt lat="42.209557" lon="2.50406">
        <ele>346</ele>
        <time>1970-01-01T05:47:35.000Z</time>
      </trkpt>
      <trkpt lat="42.209541" lon="2.504027">
        <ele>346</ele>
        <time>1970-01-01T05:47:37.000Z</time>
      </trkpt>
      <trkpt lat="42.209525" lon="2.503995">
        <ele>346</ele>
        <time>1970-01-01T05:47:38.000Z</time>
      </trkpt>
      <trkpt lat="42.20951" lon="2.503962">
        <ele>346</ele>
        <time>1970-01-01T05:47:39.000Z</time>
      </trkpt>
      <trkpt lat="42.209494" lon="2.50393">
        <ele>346</ele>
        <time>1970-01-01T05:47:40.000Z</time>
      </trkpt>
      <trkpt lat="42.209478" lon="2.503897">
        <ele>346</ele>
        <time>1970-01-01T05:47:41.000Z</time>
      </trkpt>
      <trkpt lat="42.209462" lon="2.503865">
        <ele>346</ele>
        <time>1970-01-01T05:47:42.000Z</time>
      </trkpt>
      <trkpt lat="42.209446" lon="2.503832">
        <ele>348</ele>
        <time>1970-01-01T05:47:43.000Z</time>
      </trkpt>
      <trkpt lat="42.209396" lon="2.503802">
        <ele>348</ele>
        <time>1970-01-01T05:47:44.000Z</time>
      </trkpt>
      <trkpt lat="42.209373" lon="2.503788">
        <ele>348</ele>
        <time>1970-01-01T05:47:45.000Z</time>
      </trkpt>
      <trkpt lat="42.209349" lon="2.503773">
        <ele>348</ele>
        <time>1970-01-01T05:47:46.000Z</time>
      </trkpt>
      <trkpt lat="42.209326" lon="2.503759">
        <ele>348</ele>
        <time>1970-01-01T05:47:47.000Z</time>
      </trkpt>
      <trkpt lat="42.209303" lon="2.503744">
        <ele>348</ele>
        <time>1970-01-01T05:47:48.000Z</time>
      </trkpt>
      <trkpt lat="42.20928" lon="2.503729">
        <ele>348</ele>
        <time>1970-01-01T05:47:49.000Z</time>
      </trkpt>
      <trkpt lat="42.209257" lon="2.503715">
        <ele>348</ele>
        <time>1970-01-01T05:47:50.000Z</time>
      </trkpt>
      <trkpt lat="42.209233" lon="2.5037">
        <ele>348</ele>
        <time>1970-01-01T05:47:51.000Z</time>
      </trkpt>
      <trkpt lat="42.20921" lon="2.503686">
        <ele>348</ele>
        <time>1970-01-01T05:47:52.000Z</time>
      </trkpt>
      <trkpt lat="42.209187" lon="2.503671">
        <ele>348</ele>
        <time>1970-01-01T05:47:53.000Z</time>
      </trkpt>
      <trkpt lat="42.209139" lon="2.503613">
        <ele>348</ele>
        <time>1970-01-01T05:47:54.000Z</time>
      </trkpt>
      <trkpt lat="42.209123" lon="2.503588">
        <ele>348</ele>
        <time>1970-01-01T05:47:56.000Z</time>
      </trkpt>
      <trkpt lat="42.209107" lon="2.503563">
        <ele>348</ele>
        <time>1970-01-01T05:47:57.000Z</time>
      </trkpt>
      <trkpt lat="42.209091" lon="2.503538">
        <ele>348</ele>
        <time>1970-01-01T05:47:58.000Z</time>
      </trkpt>
      <trkpt lat="42.209076" lon="2.503514">
        <ele>348</ele>
        <time>1970-01-01T05:47:59.000Z</time>
      </trkpt>
      <trkpt lat="42.20906" lon="2.503489">
        <ele>348</ele>
        <time>1970-01-01T05:48:00.000Z</time>
      </trkpt>
      <trkpt lat="42.209044" lon="2.503464">
        <ele>348</ele>
        <time>1970-01-01T05:48:01.000Z</time>
      </trkpt>
      <trkpt lat="42.209028" lon="2.503439">
        <ele>348</ele>
        <time>1970-01-01T05:48:02.000Z</time>
      </trkpt>
      <trkpt lat="42.209012" lon="2.503414">
        <ele>350</ele>
        <time>1970-01-01T05:48:03.000Z</time>
      </trkpt>
      <trkpt lat="42.208976" lon="2.503355">
        <ele>350</ele>
        <time>1970-01-01T05:48:04.000Z</time>
      </trkpt>
      <trkpt lat="42.208959" lon="2.503326">
        <ele>350</ele>
        <time>1970-01-01T05:48:05.000Z</time>
      </trkpt>
      <trkpt lat="42.208942" lon="2.503296">
        <ele>350</ele>
        <time>1970-01-01T05:48:06.000Z</time>
      </trkpt>
      <trkpt lat="42.208925" lon="2.503266">
        <ele>350</ele>
        <time>1970-01-01T05:48:07.000Z</time>
      </trkpt>
      <trkpt lat="42.208908" lon="2.503236">
        <ele>350</ele>
        <time>1970-01-01T05:48:08.000Z</time>
      </trkpt>
      <trkpt lat="42.208891" lon="2.503207">
        <ele>350</ele>
        <time>1970-01-01T05:48:09.000Z</time>
      </trkpt>
      <trkpt lat="42.208874" lon="2.503177">
        <ele>350</ele>
        <time>1970-01-01T05:48:10.000Z</time>
      </trkpt>
      <trkpt lat="42.208857" lon="2.503147">
        <ele>350</ele>
        <time>1970-01-01T05:48:11.000Z</time>
      </trkpt>
      <trkpt lat="42.20884" lon="2.503117">
        <ele>350</ele>
        <time>1970-01-01T05:48:12.000Z</time>
      </trkpt>
      <trkpt lat="42.208823" lon="2.503088">
        <ele>350</ele>
        <time>1970-01-01T05:48:13.000Z</time>
      </trkpt>
      <trkpt lat="42.208806" lon="2.503058">
        <ele>351</ele>
        <time>1970-01-01T05:48:14.000Z</time>
      </trkpt>
      <trkpt lat="42.208765" lon="2.502983">
        <ele>351</ele>
        <time>1970-01-01T05:48:15.000Z</time>
      </trkpt>
      <trkpt lat="42.208749" lon="2.502955">
        <ele>351</ele>
        <time>1970-01-01T05:48:17.000Z</time>
      </trkpt>
      <trkpt lat="42.208732" lon="2.502927">
        <ele>351</ele>
        <time>1970-01-01T05:48:18.000Z</time>
      </trkpt>
      <trkpt lat="42.208716" lon="2.502898">
        <ele>351</ele>
        <time>1970-01-01T05:48:19.000Z</time>
      </trkpt>
      <trkpt lat="42.2087" lon="2.50287">
        <ele>351</ele>
        <time>1970-01-01T05:48:20.000Z</time>
      </trkpt>
      <trkpt lat="42.208684" lon="2.502842">
        <ele>351</ele>
        <time>1970-01-01T05:48:21.000Z</time>
      </trkpt>
      <trkpt lat="42.208667" lon="2.502814">
        <ele>351</ele>
        <time>1970-01-01T05:48:22.000Z</time>
      </trkpt>
      <trkpt lat="42.208651" lon="2.502786">
        <ele>352</ele>
        <time>1970-01-01T05:48:23.000Z</time>
      </trkpt>
      <trkpt lat="42.208628" lon="2.502743">
        <ele>352</ele>
        <time>1970-01-01T05:48:24.000Z</time>
      </trkpt>
      <trkpt lat="42.208613" lon="2.502716">
        <ele>352</ele>
        <time>1970-01-01T05:48:25.000Z</time>
      </trkpt>
      <trkpt lat="42.208598" lon="2.502688">
        <ele>352</ele>
        <time>1970-01-01T05:48:26.000Z</time>
      </trkpt>
      <trkpt lat="42.208583" lon="2.502661">
        <ele>352</ele>
        <time>1970-01-01T05:48:27.000Z</time>
      </trkpt>
      <trkpt lat="42.208569" lon="2.502633">
        <ele>352</ele>
        <time>1970-01-01T05:48:28.000Z</time>
      </trkpt>
      <trkpt lat="42.208554" lon="2.502606">
        <ele>352</ele>
        <time>1970-01-01T05:48:29.000Z</time>
      </trkpt>
      <trkpt lat="42.208539" lon="2.502578">
        <ele>352</ele>
        <time>1970-01-01T05:48:30.000Z</time>
      </trkpt>
      <trkpt lat="42.208524" lon="2.502551">
        <ele>352</ele>
        <time>1970-01-01T05:48:31.000Z</time>
      </trkpt>
      <trkpt lat="42.208509" lon="2.502523">
        <ele>352</ele>
        <time>1970-01-01T05:48:32.000Z</time>
      </trkpt>
      <trkpt lat="42.208494" lon="2.502496">
        <ele>354</ele>
        <time>1970-01-01T05:48:33.000Z</time>
      </trkpt>
      <trkpt lat="42.208461" lon="2.502439">
        <ele>354</ele>
        <time>1970-01-01T05:48:34.000Z</time>
      </trkpt>
      <trkpt lat="42.208446" lon="2.502412">
        <ele>354</ele>
        <time>1970-01-01T05:48:35.000Z</time>
      </trkpt>
      <trkpt lat="42.20843" lon="2.502385">
        <ele>354</ele>
        <time>1970-01-01T05:48:36.000Z</time>
      </trkpt>
      <trkpt lat="42.208414" lon="2.502358">
        <ele>354</ele>
        <time>1970-01-01T05:48:37.000Z</time>
      </trkpt>
      <trkpt lat="42.208399" lon="2.502331">
        <ele>354</ele>
        <time>1970-01-01T05:48:38.000Z</time>
      </trkpt>
      <trkpt lat="42.208383" lon="2.502304">
        <ele>354</ele>
        <time>1970-01-01T05:48:39.000Z</time>
      </trkpt>
      <trkpt lat="42.208367" lon="2.502277">
        <ele>354</ele>
        <time>1970-01-01T05:48:40.000Z</time>
      </trkpt>
      <trkpt lat="42.208351" lon="2.50225">
        <ele>354</ele>
        <time>1970-01-01T05:48:41.000Z</time>
      </trkpt>
      <trkpt lat="42.208336" lon="2.502223">
        <ele>354</ele>
        <time>1970-01-01T05:48:42.000Z</time>
      </trkpt>
      <trkpt lat="42.20832" lon="2.502196">
        <ele>355</ele>
        <time>1970-01-01T05:48:43.000Z</time>
      </trkpt>
      <trkpt lat="42.208287" lon="2.502137">
        <ele>355</ele>
        <time>1970-01-01T05:48:44.000Z</time>
      </trkpt>
      <trkpt lat="42.208272" lon="2.502108">
        <ele>355</ele>
        <time>1970-01-01T05:48:45.000Z</time>
      </trkpt>
      <trkpt lat="42.208258" lon="2.502079">
        <ele>355</ele>
        <time>1970-01-01T05:48:46.000Z</time>
      </trkpt>
      <trkpt lat="42.208243" lon="2.50205">
        <ele>355</ele>
        <time>1970-01-01T05:48:47.000Z</time>
      </trkpt>
      <trkpt lat="42.208228" lon="2.502021">
        <ele>355</ele>
        <time>1970-01-01T05:48:48.000Z</time>
      </trkpt>
      <trkpt lat="42.208213" lon="2.501993">
        <ele>355</ele>
        <time>1970-01-01T05:48:49.000Z</time>
      </trkpt>
      <trkpt lat="42.208198" lon="2.501964">
        <ele>355</ele>
        <time>1970-01-01T05:48:50.000Z</time>
      </trkpt>
      <trkpt lat="42.208184" lon="2.501935">
        <ele>355</ele>
        <time>1970-01-01T05:48:51.000Z</time>
      </trkpt>
      <trkpt lat="42.208169" lon="2.501906">
        <ele>355</ele>
        <time>1970-01-01T05:48:52.000Z</time>
      </trkpt>
      <trkpt lat="42.208154" lon="2.501877">
        <ele>357</ele>
        <time>1970-01-01T05:48:53.000Z</time>
      </trkpt>
      <trkpt lat="42.20813" lon="2.501804">
        <ele>357</ele>
        <time>1970-01-01T05:48:54.000Z</time>
      </trkpt>
      <trkpt lat="42.208121" lon="2.501765">
        <ele>357</ele>
        <time>1970-01-01T05:48:55.000Z</time>
      </trkpt>
      <trkpt lat="42.208112" lon="2.501727">
        <ele>357</ele>
        <time>1970-01-01T05:48:56.000Z</time>
      </trkpt>
      <trkpt lat="42.208103" lon="2.501689">
        <ele>357</ele>
        <time>1970-01-01T05:48:57.000Z</time>
      </trkpt>
      <trkpt lat="42.208094" lon="2.50165">
        <ele>357</ele>
        <time>1970-01-01T05:48:58.000Z</time>
      </trkpt>
      <trkpt lat="42.208085" lon="2.501612">
        <ele>357</ele>
        <time>1970-01-01T05:48:59.000Z</time>
      </trkpt>
      <trkpt lat="42.208076" lon="2.501574">
        <ele>357</ele>
        <time>1970-01-01T05:49:01.000Z</time>
      </trkpt>
      <trkpt lat="42.208067" lon="2.501535">
        <ele>357</ele>
        <time>1970-01-01T05:49:02.000Z</time>
      </trkpt>
      <trkpt lat="42.208058" lon="2.501497">
        <ele>357</ele>
        <time>1970-01-01T05:49:03.000Z</time>
      </trkpt>
      <trkpt lat="42.208049" lon="2.501417">
        <ele>357</ele>
        <time>1970-01-01T05:49:04.000Z</time>
      </trkpt>
      <trkpt lat="42.208045" lon="2.501375">
        <ele>357</ele>
        <time>1970-01-01T05:49:05.000Z</time>
      </trkpt>
      <trkpt lat="42.208041" lon="2.501334">
        <ele>357</ele>
        <time>1970-01-01T05:49:06.000Z</time>
      </trkpt>
      <trkpt lat="42.208037" lon="2.501292">
        <ele>357</ele>
        <time>1970-01-01T05:49:07.000Z</time>
      </trkpt>
      <trkpt lat="42.208033" lon="2.50125">
        <ele>357</ele>
        <time>1970-01-01T05:49:08.000Z</time>
      </trkpt>
      <trkpt lat="42.208028" lon="2.501208">
        <ele>357</ele>
        <time>1970-01-01T05:49:09.000Z</time>
      </trkpt>
      <trkpt lat="42.208024" lon="2.501166">
        <ele>357</ele>
        <time>1970-01-01T05:49:10.000Z</time>
      </trkpt>
      <trkpt lat="42.20802" lon="2.501125">
        <ele>357</ele>
        <time>1970-01-01T05:49:11.000Z</time>
      </trkpt>
      <trkpt lat="42.208016" lon="2.501083">
        <ele>357</ele>
        <time>1970-01-01T05:49:12.000Z</time>
      </trkpt>
      <trkpt lat="42.208012" lon="2.501041">
        <ele>357</ele>
        <time>1970-01-01T05:49:13.000Z</time>
      </trkpt>
      <trkpt lat="42.208004" lon="2.500949">
        <ele>357</ele>
        <time>1970-01-01T05:49:14.000Z</time>
      </trkpt>
      <trkpt lat="42.208" lon="2.500905">
        <ele>357</ele>
        <time>1970-01-01T05:49:15.000Z</time>
      </trkpt>
      <trkpt lat="42.207995" lon="2.500861">
        <ele>357</ele>
        <time>1970-01-01T05:49:16.000Z</time>
      </trkpt>
      <trkpt lat="42.207991" lon="2.500817">
        <ele>357</ele>
        <time>1970-01-01T05:49:17.000Z</time>
      </trkpt>
      <trkpt lat="42.207987" lon="2.500773">
        <ele>357</ele>
        <time>1970-01-01T05:49:18.000Z</time>
      </trkpt>
      <trkpt lat="42.207983" lon="2.50073">
        <ele>357</ele>
        <time>1970-01-01T05:49:19.000Z</time>
      </trkpt>
      <trkpt lat="42.207979" lon="2.500686">
        <ele>357</ele>
        <time>1970-01-01T05:49:20.000Z</time>
      </trkpt>
      <trkpt lat="42.207974" lon="2.500642">
        <ele>357</ele>
        <time>1970-01-01T05:49:21.000Z</time>
      </trkpt>
      <trkpt lat="42.20797" lon="2.500598">
        <ele>357</ele>
        <time>1970-01-01T05:49:22.000Z</time>
      </trkpt>
      <trkpt lat="42.207966" lon="2.500554">
        <ele>357</ele>
        <time>1970-01-01T05:49:23.000Z</time>
      </trkpt>
      <trkpt lat="42.207956" lon="2.500468">
        <ele>357</ele>
        <time>1970-01-01T05:49:24.000Z</time>
      </trkpt>
      <trkpt lat="42.207953" lon="2.50043">
        <ele>357</ele>
        <time>1970-01-01T05:49:25.000Z</time>
      </trkpt>
      <trkpt lat="42.207949" lon="2.500391">
        <ele>357</ele>
        <time>1970-01-01T05:49:26.000Z</time>
      </trkpt>
      <trkpt lat="42.207945" lon="2.500352">
        <ele>357</ele>
        <time>1970-01-01T05:49:27.000Z</time>
      </trkpt>
      <trkpt lat="42.207942" lon="2.500313">
        <ele>357</ele>
        <time>1970-01-01T05:49:28.000Z</time>
      </trkpt>
      <trkpt lat="42.207938" lon="2.500275">
        <ele>357</ele>
        <time>1970-01-01T05:49:29.000Z</time>
      </trkpt>
      <trkpt lat="42.207934" lon="2.500236">
        <ele>357</ele>
        <time>1970-01-01T05:49:30.000Z</time>
      </trkpt>
      <trkpt lat="42.20793" lon="2.500197">
        <ele>357</ele>
        <time>1970-01-01T05:49:31.000Z</time>
      </trkpt>
      <trkpt lat="42.207927" lon="2.500159">
        <ele>357</ele>
        <time>1970-01-01T05:49:32.000Z</time>
      </trkpt>
      <trkpt lat="42.207923" lon="2.50012">
        <ele>358</ele>
        <time>1970-01-01T05:49:33.000Z</time>
      </trkpt>
      <trkpt lat="42.207916" lon="2.500048">
        <ele>358</ele>
        <time>1970-01-01T05:49:34.000Z</time>
      </trkpt>
      <trkpt lat="42.207914" lon="2.500017">
        <ele>358</ele>
        <time>1970-01-01T05:49:35.000Z</time>
      </trkpt>
      <trkpt lat="42.207911" lon="2.499985">
        <ele>358</ele>
        <time>1970-01-01T05:49:36.000Z</time>
      </trkpt>
      <trkpt lat="42.207909" lon="2.499954">
        <ele>358</ele>
        <time>1970-01-01T05:49:37.000Z</time>
      </trkpt>
      <trkpt lat="42.207906" lon="2.499922">
        <ele>358</ele>
        <time>1970-01-01T05:49:38.000Z</time>
      </trkpt>
      <trkpt lat="42.207903" lon="2.49989">
        <ele>358</ele>
        <time>1970-01-01T05:49:39.000Z</time>
      </trkpt>
      <trkpt lat="42.207901" lon="2.499859">
        <ele>358</ele>
        <time>1970-01-01T05:49:40.000Z</time>
      </trkpt>
      <trkpt lat="42.207898" lon="2.499827">
        <ele>358</ele>
        <time>1970-01-01T05:49:41.000Z</time>
      </trkpt>
      <trkpt lat="42.207896" lon="2.499796">
        <ele>358</ele>
        <time>1970-01-01T05:49:42.000Z</time>
      </trkpt>
      <trkpt lat="42.207893" lon="2.499764">
        <ele>359</ele>
        <time>1970-01-01T05:49:43.000Z</time>
      </trkpt>
      <trkpt lat="42.207888" lon="2.499698">
        <ele>359</ele>
        <time>1970-01-01T05:49:44.000Z</time>
      </trkpt>
      <trkpt lat="42.207885" lon="2.499665">
        <ele>359</ele>
        <time>1970-01-01T05:49:45.000Z</time>
      </trkpt>
      <trkpt lat="42.207881" lon="2.499631">
        <ele>359</ele>
        <time>1970-01-01T05:49:46.000Z</time>
      </trkpt>
      <trkpt lat="42.207878" lon="2.499598">
        <ele>359</ele>
        <time>1970-01-01T05:49:47.000Z</time>
      </trkpt>
      <trkpt lat="42.207875" lon="2.499565">
        <ele>359</ele>
        <time>1970-01-01T05:49:48.000Z</time>
      </trkpt>
      <trkpt lat="42.207872" lon="2.499532">
        <ele>359</ele>
        <time>1970-01-01T05:49:49.000Z</time>
      </trkpt>
      <trkpt lat="42.207869" lon="2.499499">
        <ele>359</ele>
        <time>1970-01-01T05:49:50.000Z</time>
      </trkpt>
      <trkpt lat="42.207866" lon="2.499466">
        <ele>359</ele>
        <time>1970-01-01T05:49:51.000Z</time>
      </trkpt>
      <trkpt lat="42.207862" lon="2.499432">
        <ele>359</ele>
        <time>1970-01-01T05:49:52.000Z</time>
      </trkpt>
      <trkpt lat="42.207859" lon="2.499399">
        <ele>359</ele>
        <time>1970-01-01T05:49:53.000Z</time>
      </trkpt>
      <trkpt lat="42.207856" lon="2.499366">
        <ele>361</ele>
        <time>1970-01-01T05:49:54.000Z</time>
      </trkpt>
      <trkpt lat="42.207848" lon="2.499284">
        <ele>361</ele>
        <time>1970-01-01T05:49:55.000Z</time>
      </trkpt>
      <trkpt lat="42.207844" lon="2.499252">
        <ele>361</ele>
        <time>1970-01-01T05:49:56.000Z</time>
      </trkpt>
      <trkpt lat="42.207841" lon="2.499221">
        <ele>361</ele>
        <time>1970-01-01T05:49:57.000Z</time>
      </trkpt>
      <trkpt lat="42.207837" lon="2.49919">
        <ele>361</ele>
        <time>1970-01-01T05:49:58.000Z</time>
      </trkpt>
      <trkpt lat="42.207833" lon="2.499158">
        <ele>361</ele>
        <time>1970-01-01T05:49:59.000Z</time>
      </trkpt>
      <trkpt lat="42.207829" lon="2.499127">
        <ele>361</ele>
        <time>1970-01-01T05:50:00.000Z</time>
      </trkpt>
      <trkpt lat="42.207826" lon="2.499096">
        <ele>361</ele>
        <time>1970-01-01T05:50:01.000Z</time>
      </trkpt>
      <trkpt lat="42.207822" lon="2.499064">
        <ele>361</ele>
        <time>1970-01-01T05:50:02.000Z</time>
      </trkpt>
      <trkpt lat="42.207818" lon="2.499033">
        <ele>363</ele>
        <time>1970-01-01T05:50:03.000Z</time>
      </trkpt>
      <trkpt lat="42.207813" lon="2.498969">
        <ele>363</ele>
        <time>1970-01-01T05:50:04.000Z</time>
      </trkpt>
      <trkpt lat="42.207811" lon="2.49894">
        <ele>363</ele>
        <time>1970-01-01T05:50:05.000Z</time>
      </trkpt>
      <trkpt lat="42.207809" lon="2.49891">
        <ele>363</ele>
        <time>1970-01-01T05:50:06.000Z</time>
      </trkpt>
      <trkpt lat="42.207807" lon="2.498881">
        <ele>363</ele>
        <time>1970-01-01T05:50:07.000Z</time>
      </trkpt>
      <trkpt lat="42.207806" lon="2.498851">
        <ele>363</ele>
        <time>1970-01-01T05:50:08.000Z</time>
      </trkpt>
      <trkpt lat="42.207804" lon="2.498821">
        <ele>363</ele>
        <time>1970-01-01T05:50:09.000Z</time>
      </trkpt>
      <trkpt lat="42.207802" lon="2.498792">
        <ele>363</ele>
        <time>1970-01-01T05:50:10.000Z</time>
      </trkpt>
      <trkpt lat="42.2078" lon="2.498762">
        <ele>363</ele>
        <time>1970-01-01T05:50:11.000Z</time>
      </trkpt>
      <trkpt lat="42.207798" lon="2.498733">
        <ele>363</ele>
        <time>1970-01-01T05:50:12.000Z</time>
      </trkpt>
      <trkpt lat="42.207796" lon="2.498703">
        <ele>364</ele>
        <time>1970-01-01T05:50:13.000Z</time>
      </trkpt>
      <trkpt lat="42.207792" lon="2.498651">
        <ele>364</ele>
        <time>1970-01-01T05:50:14.000Z</time>
      </trkpt>
      <trkpt lat="42.207791" lon="2.498617">
        <ele>364</ele>
        <time>1970-01-01T05:50:15.000Z</time>
      </trkpt>
      <trkpt lat="42.20779" lon="2.498582">
        <ele>364</ele>
        <time>1970-01-01T05:50:16.000Z</time>
      </trkpt>
      <trkpt lat="42.207789" lon="2.498548">
        <ele>364</ele>
        <time>1970-01-01T05:50:17.000Z</time>
      </trkpt>
      <trkpt lat="42.207788" lon="2.498513">
        <ele>364</ele>
        <time>1970-01-01T05:50:19.000Z</time>
      </trkpt>
      <trkpt lat="42.207787" lon="2.498479">
        <ele>364</ele>
        <time>1970-01-01T05:50:20.000Z</time>
      </trkpt>
      <trkpt lat="42.207786" lon="2.498444">
        <ele>364</ele>
        <time>1970-01-01T05:50:21.000Z</time>
      </trkpt>
      <trkpt lat="42.207785" lon="2.49841">
        <ele>364</ele>
        <time>1970-01-01T05:50:22.000Z</time>
      </trkpt>
      <trkpt lat="42.207784" lon="2.498375">
        <ele>367</ele>
        <time>1970-01-01T05:50:23.000Z</time>
      </trkpt>
      <trkpt lat="42.207791" lon="2.498316">
        <ele>367</ele>
        <time>1970-01-01T05:50:24.000Z</time>
      </trkpt>
      <trkpt lat="42.207801" lon="2.49829">
        <ele>367</ele>
        <time>1970-01-01T05:50:25.000Z</time>
      </trkpt>
      <trkpt lat="42.207811" lon="2.498265">
        <ele>367</ele>
        <time>1970-01-01T05:50:26.000Z</time>
      </trkpt>
      <trkpt lat="42.207821" lon="2.49824">
        <ele>367</ele>
        <time>1970-01-01T05:50:27.000Z</time>
      </trkpt>
      <trkpt lat="42.207832" lon="2.498215">
        <ele>367</ele>
        <time>1970-01-01T05:50:28.000Z</time>
      </trkpt>
      <trkpt lat="42.207842" lon="2.498189">
        <ele>367</ele>
        <time>1970-01-01T05:50:29.000Z</time>
      </trkpt>
      <trkpt lat="42.207852" lon="2.498164">
        <ele>367</ele>
        <time>1970-01-01T05:50:30.000Z</time>
      </trkpt>
      <trkpt lat="42.207862" lon="2.498139">
        <ele>367</ele>
        <time>1970-01-01T05:50:31.000Z</time>
      </trkpt>
      <trkpt lat="42.207872" lon="2.498113">
        <ele>367</ele>
        <time>1970-01-01T05:50:32.000Z</time>
      </trkpt>
      <trkpt lat="42.207882" lon="2.498088">
        <ele>369</ele>
        <time>1970-01-01T05:50:33.000Z</time>
      </trkpt>
      <trkpt lat="42.20792" lon="2.498038">
        <ele>369</ele>
        <time>1970-01-01T05:50:34.000Z</time>
      </trkpt>
      <trkpt lat="42.207934" lon="2.498005">
        <ele>369</ele>
        <time>1970-01-01T05:50:35.000Z</time>
      </trkpt>
      <trkpt lat="42.207948" lon="2.497971">
        <ele>369</ele>
        <time>1970-01-01T05:50:36.000Z</time>
      </trkpt>
      <trkpt lat="42.207962" lon="2.497938">
        <ele>369</ele>
        <time>1970-01-01T05:50:38.000Z</time>
      </trkpt>
      <trkpt lat="42.207976" lon="2.497904">
        <ele>369</ele>
        <time>1970-01-01T05:50:39.000Z</time>
      </trkpt>
      <trkpt lat="42.20799" lon="2.497871">
        <ele>369</ele>
        <time>1970-01-01T05:50:40.000Z</time>
      </trkpt>
      <trkpt lat="42.208004" lon="2.497837">
        <ele>369</ele>
        <time>1970-01-01T05:50:41.000Z</time>
      </trkpt>
      <trkpt lat="42.208018" lon="2.497804">
        <ele>369</ele>
        <time>1970-01-01T05:50:42.000Z</time>
      </trkpt>
      <trkpt lat="42.208032" lon="2.49777">
        <ele>369</ele>
        <time>1970-01-01T05:50:43.000Z</time>
      </trkpt>
      <trkpt lat="42.20803" lon="2.497731">
        <ele>369</ele>
        <time>1970-01-01T05:50:44.000Z</time>
      </trkpt>
      <trkpt lat="42.208023" lon="2.497693">
        <ele>369</ele>
        <time>1970-01-01T05:50:45.000Z</time>
      </trkpt>
      <trkpt lat="42.208014" lon="2.497655">
        <ele>369</ele>
        <time>1970-01-01T05:50:46.000Z</time>
      </trkpt>
      <trkpt lat="42.208007" lon="2.497621">
        <ele>369</ele>
        <time>1970-01-01T05:50:47.000Z</time>
      </trkpt>
      <trkpt lat="42.208005" lon="2.497594">
        <ele>369</ele>
        <time>1970-01-01T05:50:48.000Z</time>
      </trkpt>
      <trkpt lat="42.208009" lon="2.497565">
        <ele>369</ele>
        <time>1970-01-01T05:50:50.000Z</time>
      </trkpt>
      <trkpt lat="42.208009" lon="2.497565">
        <ele>369</ele>
        <time>1970-01-01T05:50:53.000Z</time>
      </trkpt>
      <trkpt lat="42.207977" lon="2.497562">
        <ele>369</ele>
        <time>1970-01-01T05:50:56.000Z</time>
      </trkpt>
      <trkpt lat="42.207944" lon="2.497559">
        <ele>369</ele>
        <time>1970-01-01T05:59:54.000Z</time>
      </trkpt>
      <trkpt lat="42.207912" lon="2.497556">
        <ele>369</ele>
        <time>1970-01-01T05:59:56.000Z</time>
      </trkpt>
      <trkpt lat="42.207879" lon="2.497553">
        <ele>369</ele>
        <time>1970-01-01T05:59:57.000Z</time>
      </trkpt>
      <trkpt lat="42.207847" lon="2.49755">
        <ele>369</ele>
        <time>1970-01-01T05:59:58.000Z</time>
      </trkpt>
      <trkpt lat="42.207815" lon="2.497548">
        <ele>369</ele>
        <time>1970-01-01T05:59:59.000Z</time>
      </trkpt>
      <trkpt lat="42.207782" lon="2.497545">
        <ele>369</ele>
        <time>1970-01-01T06:00:00.000Z</time>
      </trkpt>
      <trkpt lat="42.20775" lon="2.497542">
        <ele>369</ele>
        <time>1970-01-01T06:00:01.000Z</time>
      </trkpt>
      <trkpt lat="42.207717" lon="2.497539">
        <ele>369</ele>
        <time>1970-01-01T06:00:02.000Z</time>
      </trkpt>
      <trkpt lat="42.207685" lon="2.497536">
        <ele>370</ele>
        <time>1970-01-01T06:00:03.000Z</time>
      </trkpt>
      <trkpt lat="42.207639" lon="2.49753">
        <ele>370</ele>
        <time>1970-01-01T06:00:04.000Z</time>
      </trkpt>
      <trkpt lat="42.207623" lon="2.497519">
        <ele>370</ele>
        <time>1970-01-01T06:00:05.000Z</time>
      </trkpt>
      <trkpt lat="42.207608" lon="2.497508">
        <ele>370</ele>
        <time>1970-01-01T06:00:06.000Z</time>
      </trkpt>
      <trkpt lat="42.207593" lon="2.497497">
        <ele>370</ele>
        <time>1970-01-01T06:00:07.000Z</time>
      </trkpt>
      <trkpt lat="42.207577" lon="2.497487">
        <ele>370</ele>
        <time>1970-01-01T06:00:08.000Z</time>
      </trkpt>
      <trkpt lat="42.207562" lon="2.497476">
        <ele>370</ele>
        <time>1970-01-01T06:00:09.000Z</time>
      </trkpt>
      <trkpt lat="42.207547" lon="2.497465">
        <ele>370</ele>
        <time>1970-01-01T06:00:10.000Z</time>
      </trkpt>
      <trkpt lat="42.207531" lon="2.497454">
        <ele>370</ele>
        <time>1970-01-01T06:00:12.000Z</time>
      </trkpt>
      <trkpt lat="42.207516" lon="2.497443">
        <ele>371</ele>
        <time>1970-01-01T06:00:13.000Z</time>
      </trkpt>
      <trkpt lat="42.207535" lon="2.497439">
        <ele>371</ele>
        <time>1970-01-01T06:00:16.000Z</time>
      </trkpt>
      <trkpt lat="42.207553" lon="2.497432">
        <ele>374</ele>
        <time>1970-01-01T06:04:00.000Z</time>
      </trkpt>
      <trkpt lat="42.20757" lon="2.497426">
        <ele>374</ele>
        <time>1970-01-01T06:04:03.000Z</time>
      </trkpt>
      <trkpt lat="42.207588" lon="2.497419">
        <ele>377</ele>
        <time>1970-01-01T06:10:14.000Z</time>
      </trkpt>
      <trkpt lat="42.207606" lon="2.497413">
        <ele>377</ele>
        <time>1970-01-01T06:10:17.000Z</time>
      </trkpt>
      <trkpt lat="42.207624" lon="2.497406">
        <ele>377</ele>
        <time>1970-01-01T06:10:22.000Z</time>
      </trkpt>
      <trkpt lat="42.207642" lon="2.4974">
        <ele>378</ele>
        <time>1970-01-01T06:11:19.000Z</time>
      </trkpt>
      <trkpt lat="42.207659" lon="2.497393">
        <ele>378</ele>
        <time>1970-01-01T06:11:21.000Z</time>
      </trkpt>
      <trkpt lat="42.207677" lon="2.497387">
        <ele>378</ele>
        <time>1970-01-01T06:11:23.000Z</time>
      </trkpt>
      <trkpt lat="42.207695" lon="2.49738">
        <ele>378</ele>
        <time>1970-01-01T06:11:24.000Z</time>
      </trkpt>
      <trkpt lat="42.207713" lon="2.497374">
        <ele>378</ele>
        <time>1970-01-01T06:11:25.000Z</time>
      </trkpt>
      <trkpt lat="42.207731" lon="2.497367">
        <ele>378</ele>
        <time>1970-01-01T06:11:26.000Z</time>
      </trkpt>
      <trkpt lat="42.207748" lon="2.497361">
        <ele>378</ele>
        <time>1970-01-01T06:11:27.000Z</time>
      </trkpt>
      <trkpt lat="42.207766" lon="2.497354">
        <ele>378</ele>
        <time>1970-01-01T06:11:28.000Z</time>
      </trkpt>
      <trkpt lat="42.207784" lon="2.497348">
        <ele>379</ele>
        <time>1970-01-01T06:11:29.000Z</time>
      </trkpt>
      <trkpt lat="42.207823" lon="2.497302">
        <ele>379</ele>
        <time>1970-01-01T06:11:30.000Z</time>
      </trkpt>
      <trkpt lat="42.207842" lon="2.497285">
        <ele>379</ele>
        <time>1970-01-01T06:11:31.000Z</time>
      </trkpt>
      <trkpt lat="42.20786" lon="2.497268">
        <ele>379</ele>
        <time>1970-01-01T06:11:32.000Z</time>
      </trkpt>
      <trkpt lat="42.207879" lon="2.497251">
        <ele>379</ele>
        <time>1970-01-01T06:11:33.000Z</time>
      </trkpt>
      <trkpt lat="42.207898" lon="2.497233">
        <ele>379</ele>
        <time>1970-01-01T06:11:34.000Z</time>
      </trkpt>
      <trkpt lat="42.207917" lon="2.497216">
        <ele>379</ele>
        <time>1970-01-01T06:11:35.000Z</time>
      </trkpt>
      <trkpt lat="42.207935" lon="2.497199">
        <ele>379</ele>
        <time>1970-01-01T06:11:37.000Z</time>
      </trkpt>
      <trkpt lat="42.207954" lon="2.497182">
        <ele>378</ele>
        <time>1970-01-01T06:11:39.000Z</time>
      </trkpt>
      <trkpt lat="42.207998" lon="2.497114">
        <ele>378</ele>
        <time>1970-01-01T06:11:40.000Z</time>
      </trkpt>
      <trkpt lat="42.208005" lon="2.497082">
        <ele>378</ele>
        <time>1970-01-01T06:11:41.000Z</time>
      </trkpt>
      <trkpt lat="42.208013" lon="2.49705">
        <ele>378</ele>
        <time>1970-01-01T06:11:42.000Z</time>
      </trkpt>
      <trkpt lat="42.20802" lon="2.497018">
        <ele>378</ele>
        <time>1970-01-01T06:11:43.000Z</time>
      </trkpt>
      <trkpt lat="42.208028" lon="2.496986">
        <ele>378</ele>
        <time>1970-01-01T06:11:44.000Z</time>
      </trkpt>
      <trkpt lat="42.208036" lon="2.496953">
        <ele>378</ele>
        <time>1970-01-01T06:11:45.000Z</time>
      </trkpt>
      <trkpt lat="42.208043" lon="2.496921">
        <ele>378</ele>
        <time>1970-01-01T06:11:46.000Z</time>
      </trkpt>
      <trkpt lat="42.208051" lon="2.496889">
        <ele>378</ele>
        <time>1970-01-01T06:11:47.000Z</time>
      </trkpt>
      <trkpt lat="42.208058" lon="2.496857">
        <ele>378</ele>
        <time>1970-01-01T06:11:48.000Z</time>
      </trkpt>
      <trkpt lat="42.208066" lon="2.496825">
        <ele>377</ele>
        <time>1970-01-01T06:11:49.000Z</time>
      </trkpt>
      <trkpt lat="42.208071" lon="2.496752">
        <ele>377</ele>
        <time>1970-01-01T06:11:50.000Z</time>
      </trkpt>
      <trkpt lat="42.208074" lon="2.496702">
        <ele>377</ele>
        <time>1970-01-01T06:11:51.000Z</time>
      </trkpt>
      <trkpt lat="42.208078" lon="2.496652">
        <ele>377</ele>
        <time>1970-01-01T06:11:52.000Z</time>
      </trkpt>
      <trkpt lat="42.208081" lon="2.496602">
        <ele>377</ele>
        <time>1970-01-01T06:11:53.000Z</time>
      </trkpt>
      <trkpt lat="42.208084" lon="2.496553">
        <ele>377</ele>
        <time>1970-01-01T06:11:54.000Z</time>
      </trkpt>
      <trkpt lat="42.208087" lon="2.496503">
        <ele>377</ele>
        <time>1970-01-01T06:11:55.000Z</time>
      </trkpt>
      <trkpt lat="42.208091" lon="2.496453">
        <ele>377</ele>
        <time>1970-01-01T06:11:56.000Z</time>
      </trkpt>
      <trkpt lat="42.208094" lon="2.496403">
        <ele>377</ele>
        <time>1970-01-01T06:11:58.000Z</time>
      </trkpt>
      <trkpt lat="42.208097" lon="2.496353">
        <ele>377</ele>
        <time>1970-01-01T06:11:59.000Z</time>
      </trkpt>
      <trkpt lat="42.208101" lon="2.496249">
        <ele>377</ele>
        <time>1970-01-01T06:12:00.000Z</time>
      </trkpt>
      <trkpt lat="42.208103" lon="2.496196">
        <ele>377</ele>
        <time>1970-01-01T06:12:01.000Z</time>
      </trkpt>
      <trkpt lat="42.208105" lon="2.496144">
        <ele>377</ele>
        <time>1970-01-01T06:12:02.000Z</time>
      </trkpt>
      <trkpt lat="42.208107" lon="2.496091">
        <ele>377</ele>
        <time>1970-01-01T06:12:03.000Z</time>
      </trkpt>
      <trkpt lat="42.208109" lon="2.496039">
        <ele>377</ele>
        <time>1970-01-01T06:12:04.000Z</time>
      </trkpt>
      <trkpt lat="42.20811" lon="2.495987">
        <ele>377</ele>
        <time>1970-01-01T06:12:05.000Z</time>
      </trkpt>
      <trkpt lat="42.208112" lon="2.495934">
        <ele>377</ele>
        <time>1970-01-01T06:12:06.000Z</time>
      </trkpt>
      <trkpt lat="42.208114" lon="2.495882">
        <ele>377</ele>
        <time>1970-01-01T06:12:07.000Z</time>
      </trkpt>
      <trkpt lat="42.208116" lon="2.495829">
        <ele>377</ele>
        <time>1970-01-01T06:12:08.000Z</time>
      </trkpt>
      <trkpt lat="42.208118" lon="2.495777">
        <ele>377</ele>
        <time>1970-01-01T06:12:09.000Z</time>
      </trkpt>
      <trkpt lat="42.208121" lon="2.495629">
        <ele>377</ele>
        <time>1970-01-01T06:12:10.000Z</time>
      </trkpt>
      <trkpt lat="42.208122" lon="2.495571">
        <ele>377</ele>
        <time>1970-01-01T06:12:11.000Z</time>
      </trkpt>
      <trkpt lat="42.208123" lon="2.495513">
        <ele>377</ele>
        <time>1970-01-01T06:12:12.000Z</time>
      </trkpt>
      <trkpt lat="42.208124" lon="2.495455">
        <ele>377</ele>
        <time>1970-01-01T06:12:13.000Z</time>
      </trkpt>
      <trkpt lat="42.208125" lon="2.495396">
        <ele>377</ele>
        <time>1970-01-01T06:12:14.000Z</time>
      </trkpt>
      <trkpt lat="42.208126" lon="2.495338">
        <ele>377</ele>
        <time>1970-01-01T06:12:15.000Z</time>
      </trkpt>
      <trkpt lat="42.208127" lon="2.49528">
        <ele>377</ele>
        <time>1970-01-01T06:12:16.000Z</time>
      </trkpt>
      <trkpt lat="42.208128" lon="2.495222">
        <ele>377</ele>
        <time>1970-01-01T06:12:17.000Z</time>
      </trkpt>
      <trkpt lat="42.208129" lon="2.495164">
        <ele>378</ele>
        <time>1970-01-01T06:12:19.000Z</time>
      </trkpt>
      <trkpt lat="42.208131" lon="2.495063">
        <ele>378</ele>
        <time>1970-01-01T06:12:20.000Z</time>
      </trkpt>
      <trkpt lat="42.208132" lon="2.495004">
        <ele>378</ele>
        <time>1970-01-01T06:12:21.000Z</time>
      </trkpt>
      <trkpt lat="42.208133" lon="2.494944">
        <ele>378</ele>
        <time>1970-01-01T06:12:22.000Z</time>
      </trkpt>
      <trkpt lat="42.208134" lon="2.494885">
        <ele>378</ele>
        <time>1970-01-01T06:12:23.000Z</time>
      </trkpt>
      <trkpt lat="42.208135" lon="2.494826">
        <ele>378</ele>
        <time>1970-01-01T06:12:24.000Z</time>
      </trkpt>
      <trkpt lat="42.208136" lon="2.494767">
        <ele>378</ele>
        <time>1970-01-01T06:12:25.000Z</time>
      </trkpt>
      <trkpt lat="42.208137" lon="2.494708">
        <ele>378</ele>
        <time>1970-01-01T06:12:26.000Z</time>
      </trkpt>
      <trkpt lat="42.208138" lon="2.494648">
        <ele>378</ele>
        <time>1970-01-01T06:12:27.000Z</time>
      </trkpt>
      <trkpt lat="42.208139" lon="2.494589">
        <ele>378</ele>
        <time>1970-01-01T06:12:28.000Z</time>
      </trkpt>
      <trkpt lat="42.20814" lon="2.49453">
        <ele>378</ele>
        <time>1970-01-01T06:12:29.000Z</time>
      </trkpt>
      <trkpt lat="42.208143" lon="2.494394">
        <ele>378</ele>
        <time>1970-01-01T06:12:30.000Z</time>
      </trkpt>
      <trkpt lat="42.208144" lon="2.494327">
        <ele>378</ele>
        <time>1970-01-01T06:12:31.000Z</time>
      </trkpt>
      <trkpt lat="42.208146" lon="2.494259">
        <ele>378</ele>
        <time>1970-01-01T06:12:32.000Z</time>
      </trkpt>
      <trkpt lat="42.208147" lon="2.494191">
        <ele>378</ele>
        <time>1970-01-01T06:12:33.000Z</time>
      </trkpt>
      <trkpt lat="42.208149" lon="2.494124">
        <ele>378</ele>
        <time>1970-01-01T06:12:34.000Z</time>
      </trkpt>
      <trkpt lat="42.208151" lon="2.494056">
        <ele>378</ele>
        <time>1970-01-01T06:12:35.000Z</time>
      </trkpt>
      <trkpt lat="42.208152" lon="2.493988">
        <ele>378</ele>
        <time>1970-01-01T06:12:36.000Z</time>
      </trkpt>
      <trkpt lat="42.208154" lon="2.49392">
        <ele>378</ele>
        <time>1970-01-01T06:12:37.000Z</time>
      </trkpt>
      <trkpt lat="42.208155" lon="2.493853">
        <ele>378</ele>
        <time>1970-01-01T06:12:38.000Z</time>
      </trkpt>
      <trkpt lat="42.208157" lon="2.493785">
        <ele>379</ele>
        <time>1970-01-01T06:12:39.000Z</time>
      </trkpt>
      <trkpt lat="42.208165" lon="2.493622">
        <ele>379</ele>
        <time>1970-01-01T06:12:41.000Z</time>
      </trkpt>
      <trkpt lat="42.20817" lon="2.493553">
        <ele>379</ele>
        <time>1970-01-01T06:12:42.000Z</time>
      </trkpt>
      <trkpt lat="42.208174" lon="2.493483">
        <ele>379</ele>
        <time>1970-01-01T06:12:43.000Z</time>
      </trkpt>
      <trkpt lat="42.208178" lon="2.493414">
        <ele>379</ele>
        <time>1970-01-01T06:12:44.000Z</time>
      </trkpt>
      <trkpt lat="42.208182" lon="2.493344">
        <ele>379</ele>
        <time>1970-01-01T06:12:45.000Z</time>
      </trkpt>
      <trkpt lat="42.208187" lon="2.493274">
        <ele>379</ele>
        <time>1970-01-01T06:12:46.000Z</time>
      </trkpt>
      <trkpt lat="42.208191" lon="2.493205">
        <ele>379</ele>
        <time>1970-01-01T06:12:48.000Z</time>
      </trkpt>
      <trkpt lat="42.208195" lon="2.493135">
        <ele>379</ele>
        <time>1970-01-01T06:12:49.000Z</time>
      </trkpt>
      <trkpt lat="42.208207" lon="2.492978">
        <ele>379</ele>
        <time>1970-01-01T06:12:50.000Z</time>
      </trkpt>
      <trkpt lat="42.208212" lon="2.492916">
        <ele>379</ele>
        <time>1970-01-01T06:12:52.000Z</time>
      </trkpt>
      <trkpt lat="42.208216" lon="2.492853">
        <ele>379</ele>
        <time>1970-01-01T06:12:53.000Z</time>
      </trkpt>
      <trkpt lat="42.208221" lon="2.49279">
        <ele>379</ele>
        <time>1970-01-01T06:12:54.000Z</time>
      </trkpt>
      <trkpt lat="42.208226" lon="2.492727">
        <ele>379</ele>
        <time>1970-01-01T06:12:55.000Z</time>
      </trkpt>
      <trkpt lat="42.208231" lon="2.492665">
        <ele>379</ele>
        <time>1970-01-01T06:12:57.000Z</time>
      </trkpt>
      <trkpt lat="42.208235" lon="2.492602">
        <ele>379</ele>
        <time>1970-01-01T06:12:58.000Z</time>
      </trkpt>
      <trkpt lat="42.20824" lon="2.492539">
        <ele>379</ele>
        <time>1970-01-01T06:12:59.000Z</time>
      </trkpt>
      <trkpt lat="42.208253" lon="2.492359">
        <ele>379</ele>
        <time>1970-01-01T06:13:00.000Z</time>
      </trkpt>
      <trkpt lat="42.208261" lon="2.492245">
        <ele>379</ele>
        <time>1970-01-01T06:13:01.000Z</time>
      </trkpt>
      <trkpt lat="42.20827" lon="2.492132">
        <ele>379</ele>
        <time>1970-01-01T06:13:03.000Z</time>
      </trkpt>
      <trkpt lat="42.208278" lon="2.492018">
        <ele>379</ele>
        <time>1970-01-01T06:13:05.000Z</time>
      </trkpt>
      <trkpt lat="42.208286" lon="2.491905">
        <ele>379</ele>
        <time>1970-01-01T06:13:07.000Z</time>
      </trkpt>
      <trkpt lat="42.208294" lon="2.491791">
        <ele>379</ele>
        <time>1970-01-01T06:13:09.000Z</time>
      </trkpt>
      <trkpt lat="42.208309" lon="2.491591">
        <ele>379</ele>
        <time>1970-01-01T06:13:11.000Z</time>
      </trkpt>
      <trkpt lat="42.208315" lon="2.4915">
        <ele>379</ele>
        <time>1970-01-01T06:13:12.000Z</time>
      </trkpt>
      <trkpt lat="42.208322" lon="2.49141">
        <ele>379</ele>
        <time>1970-01-01T06:13:14.000Z</time>
      </trkpt>
      <trkpt lat="42.208329" lon="2.491319">
        <ele>379</ele>
        <time>1970-01-01T06:13:15.000Z</time>
      </trkpt>
      <trkpt lat="42.208336" lon="2.491229">
        <ele>379</ele>
        <time>1970-01-01T06:13:17.000Z</time>
      </trkpt>
      <trkpt lat="42.208342" lon="2.491138">
        <ele>379</ele>
        <time>1970-01-01T06:13:18.000Z</time>
      </trkpt>
      <trkpt lat="42.208349" lon="2.491048">
        <ele>379</ele>
        <time>1970-01-01T06:13:19.000Z</time>
      </trkpt>
      <trkpt lat="42.208357" lon="2.490919">
        <ele>379</ele>
        <time>1970-01-01T06:13:20.000Z</time>
      </trkpt>
      <trkpt lat="42.208364" lon="2.490829">
        <ele>379</ele>
        <time>1970-01-01T06:13:21.000Z</time>
      </trkpt>
      <trkpt lat="42.20837" lon="2.490739">
        <ele>379</ele>
        <time>1970-01-01T06:13:22.000Z</time>
      </trkpt>
      <trkpt lat="42.208376" lon="2.490649">
        <ele>379</ele>
        <time>1970-01-01T06:13:24.000Z</time>
      </trkpt>
      <trkpt lat="42.208382" lon="2.490558">
        <ele>379</ele>
        <time>1970-01-01T06:13:25.000Z</time>
      </trkpt>
      <trkpt lat="42.208389" lon="2.490468">
        <ele>379</ele>
        <time>1970-01-01T06:13:27.000Z</time>
      </trkpt>
      <trkpt lat="42.208395" lon="2.490378">
        <ele>379</ele>
        <time>1970-01-01T06:13:28.000Z</time>
      </trkpt>
      <trkpt lat="42.208401" lon="2.490288">
        <ele>379</ele>
        <time>1970-01-01T06:13:29.000Z</time>
      </trkpt>
      <trkpt lat="42.208424" lon="2.489955">
        <ele>379</ele>
        <time>1970-01-01T06:13:31.000Z</time>
      </trkpt>
      <trkpt lat="42.208431" lon="2.489855">
        <ele>379</ele>
        <time>1970-01-01T06:13:33.000Z</time>
      </trkpt>
      <trkpt lat="42.208439" lon="2.489755">
        <ele>379</ele>
        <time>1970-01-01T06:13:34.000Z</time>
      </trkpt>
      <trkpt lat="42.208447" lon="2.489655">
        <ele>379</ele>
        <time>1970-01-01T06:13:35.000Z</time>
      </trkpt>
      <trkpt lat="42.208455" lon="2.489555">
        <ele>379</ele>
        <time>1970-01-01T06:13:36.000Z</time>
      </trkpt>
      <trkpt lat="42.208462" lon="2.489455">
        <ele>379</ele>
        <time>1970-01-01T06:13:38.000Z</time>
      </trkpt>
      <trkpt lat="42.20847" lon="2.489355">
        <ele>378</ele>
        <time>1970-01-01T06:13:39.000Z</time>
      </trkpt>
      <trkpt lat="42.208495" lon="2.489016">
        <ele>378</ele>
        <time>1970-01-01T06:13:41.000Z</time>
      </trkpt>
      <trkpt lat="42.208505" lon="2.48889">
        <ele>378</ele>
        <time>1970-01-01T06:13:42.000Z</time>
      </trkpt>
      <trkpt lat="42.208514" lon="2.488764">
        <ele>378</ele>
        <time>1970-01-01T06:13:43.000Z</time>
      </trkpt>
      <trkpt lat="42.208524" lon="2.488639">
        <ele>378</ele>
        <time>1970-01-01T06:13:44.000Z</time>
      </trkpt>
      <trkpt lat="42.208534" lon="2.488513">
        <ele>378</ele>
        <time>1970-01-01T06:13:45.000Z</time>
      </trkpt>
      <trkpt lat="42.208544" lon="2.488387">
        <ele>378</ele>
        <time>1970-01-01T06:13:46.000Z</time>
      </trkpt>
      <trkpt lat="42.208553" lon="2.488261">
        <ele>378</ele>
        <time>1970-01-01T06:13:47.000Z</time>
      </trkpt>
      <trkpt lat="42.208563" lon="2.488135">
        <ele>376</ele>
        <time>1970-01-01T06:13:49.000Z</time>
      </trkpt>
      <trkpt lat="42.208593" lon="2.487745">
        <ele>376</ele>
        <time>1970-01-01T06:13:51.000Z</time>
      </trkpt>
      <trkpt lat="42.208604" lon="2.487585">
        <ele>376</ele>
        <time>1970-01-01T06:13:52.000Z</time>
      </trkpt>
      <trkpt lat="42.208616" lon="2.487424">
        <ele>376</ele>
        <time>1970-01-01T06:13:54.000Z</time>
      </trkpt>
      <trkpt lat="42.208628" lon="2.487263">
        <ele>376</ele>
        <time>1970-01-01T06:13:55.000Z</time>
      </trkpt>
      <trkpt lat="42.208639" lon="2.487103">
        <ele>376</ele>
        <time>1970-01-01T06:13:57.000Z</time>
      </trkpt>
      <trkpt lat="42.208651" lon="2.486942">
        <ele>374</ele>
        <time>1970-01-01T06:13:59.000Z</time>
      </trkpt>
      <trkpt lat="42.20866" lon="2.486814">
        <ele>374</ele>
        <time>1970-01-01T06:14:00.000Z</time>
      </trkpt>
      <trkpt lat="42.208669" lon="2.48668">
        <ele>374</ele>
        <time>1970-01-01T06:14:01.000Z</time>
      </trkpt>
      <trkpt lat="42.208677" lon="2.486543">
        <ele>374</ele>
        <time>1970-01-01T06:14:02.000Z</time>
      </trkpt>
      <trkpt lat="42.208687" lon="2.486403">
        <ele>374</ele>
        <time>1970-01-01T06:14:03.000Z</time>
      </trkpt>
      <trkpt lat="42.208694" lon="2.48626">
        <ele>374</ele>
        <time>1970-01-01T06:14:04.000Z</time>
      </trkpt>
      <trkpt lat="42.208703" lon="2.486114">
        <ele>374</ele>
        <time>1970-01-01T06:14:06.000Z</time>
      </trkpt>
      <trkpt lat="42.208716" lon="2.485968">
        <ele>374</ele>
        <time>1970-01-01T06:14:07.000Z</time>
      </trkpt>
      <trkpt lat="42.208728" lon="2.485821">
        <ele>374</ele>
        <time>1970-01-01T06:14:08.000Z</time>
      </trkpt>
      <trkpt lat="42.208745" lon="2.485568">
        <ele>374</ele>
        <time>1970-01-01T06:14:09.000Z</time>
      </trkpt>
      <trkpt lat="42.208751" lon="2.485461">
        <ele>370</ele>
        <time>1970-01-01T06:14:10.000Z</time>
      </trkpt>
      <trkpt lat="42.208773" lon="2.485124">
        <ele>370</ele>
        <time>1970-01-01T06:14:11.000Z</time>
      </trkpt>
      <trkpt lat="42.208782" lon="2.485001">
        <ele>370</ele>
        <time>1970-01-01T06:14:13.000Z</time>
      </trkpt>
      <trkpt lat="42.208791" lon="2.484878">
        <ele>370</ele>
        <time>1970-01-01T06:14:14.000Z</time>
      </trkpt>
      <trkpt lat="42.2088" lon="2.484755">
        <ele>370</ele>
        <time>1970-01-01T06:14:15.000Z</time>
      </trkpt>
      <trkpt lat="42.208809" lon="2.484632">
        <ele>370</ele>
        <time>1970-01-01T06:14:16.000Z</time>
      </trkpt>
      <trkpt lat="42.208818" lon="2.484509">
        <ele>370</ele>
        <time>1970-01-01T06:14:17.000Z</time>
      </trkpt>
      <trkpt lat="42.208827" lon="2.484386">
        <ele>370</ele>
        <time>1970-01-01T06:14:18.000Z</time>
      </trkpt>
      <trkpt lat="42.208836" lon="2.484263">
        <ele>368</ele>
        <time>1970-01-01T06:14:19.000Z</time>
      </trkpt>
      <trkpt lat="42.208861" lon="2.483984">
        <ele>368</ele>
        <time>1970-01-01T06:14:20.000Z</time>
      </trkpt>
      <trkpt lat="42.208869" lon="2.48389">
        <ele>368</ele>
        <time>1970-01-01T06:14:21.000Z</time>
      </trkpt>
      <trkpt lat="42.208876" lon="2.483795">
        <ele>368</ele>
        <time>1970-01-01T06:14:22.000Z</time>
      </trkpt>
      <trkpt lat="42.208884" lon="2.483701">
        <ele>368</ele>
        <time>1970-01-01T06:14:23.000Z</time>
      </trkpt>
      <trkpt lat="42.208891" lon="2.483606">
        <ele>368</ele>
        <time>1970-01-01T06:14:24.000Z</time>
      </trkpt>
      <trkpt lat="42.208899" lon="2.483512">
        <ele>368</ele>
        <time>1970-01-01T06:14:25.000Z</time>
      </trkpt>
      <trkpt lat="42.208906" lon="2.483417">
        <ele>368</ele>
        <time>1970-01-01T06:14:27.000Z</time>
      </trkpt>
      <trkpt lat="42.208914" lon="2.483323">
        <ele>368</ele>
        <time>1970-01-01T06:14:28.000Z</time>
      </trkpt>
      <trkpt lat="42.208921" lon="2.483228">
        <ele>368</ele>
        <time>1970-01-01T06:14:29.000Z</time>
      </trkpt>
      <trkpt lat="42.208934" lon="2.483049">
        <ele>368</ele>
        <time>1970-01-01T06:14:30.000Z</time>
      </trkpt>
      <trkpt lat="42.208939" lon="2.482968">
        <ele>368</ele>
        <time>1970-01-01T06:14:31.000Z</time>
      </trkpt>
      <trkpt lat="42.208945" lon="2.482886">
        <ele>368</ele>
        <time>1970-01-01T06:14:32.000Z</time>
      </trkpt>
      <trkpt lat="42.208951" lon="2.482805">
        <ele>368</ele>
        <time>1970-01-01T06:14:33.000Z</time>
      </trkpt>
      <trkpt lat="42.208956" lon="2.482724">
        <ele>368</ele>
        <time>1970-01-01T06:14:34.000Z</time>
      </trkpt>
      <trkpt lat="42.208962" lon="2.482643">
        <ele>368</ele>
        <time>1970-01-01T06:14:35.000Z</time>
      </trkpt>
      <trkpt lat="42.208967" lon="2.482562">
        <ele>368</ele>
        <time>1970-01-01T06:14:36.000Z</time>
      </trkpt>
      <trkpt lat="42.208973" lon="2.482481">
        <ele>368</ele>
        <time>1970-01-01T06:14:37.000Z</time>
      </trkpt>
      <trkpt lat="42.208979" lon="2.482399">
        <ele>368</ele>
        <time>1970-01-01T06:14:38.000Z</time>
      </trkpt>
      <trkpt lat="42.208984" lon="2.482318">
        <ele>368</ele>
        <time>1970-01-01T06:14:39.000Z</time>
      </trkpt>
      <trkpt lat="42.20899" lon="2.482237">
        <ele>368</ele>
        <time>1970-01-01T06:14:40.000Z</time>
      </trkpt>
      <trkpt lat="42.209011" lon="2.481963">
        <ele>368</ele>
        <time>1970-01-01T06:14:42.000Z</time>
      </trkpt>
      <trkpt lat="42.20902" lon="2.481862">
        <ele>368</ele>
        <time>1970-01-01T06:14:43.000Z</time>
      </trkpt>
      <trkpt lat="42.209028" lon="2.481761">
        <ele>368</ele>
        <time>1970-01-01T06:14:44.000Z</time>
      </trkpt>
      <trkpt lat="42.209037" lon="2.48166">
        <ele>368</ele>
        <time>1970-01-01T06:14:45.000Z</time>
      </trkpt>
      <trkpt lat="42.209045" lon="2.481558">
        <ele>368</ele>
        <time>1970-01-01T06:14:46.000Z</time>
      </trkpt>
      <trkpt lat="42.209053" lon="2.481457">
        <ele>368</ele>
        <time>1970-01-01T06:14:47.000Z</time>
      </trkpt>
      <trkpt lat="42.209062" lon="2.481356">
        <ele>368</ele>
        <time>1970-01-01T06:14:48.000Z</time>
      </trkpt>
      <trkpt lat="42.20907" lon="2.481255">
        <ele>368</ele>
        <time>1970-01-01T06:14:50.000Z</time>
      </trkpt>
      <trkpt lat="42.209084" lon="2.481084">
        <ele>368</ele>
        <time>1970-01-01T06:14:51.000Z</time>
      </trkpt>
      <trkpt lat="42.20909" lon="2.481005">
        <ele>368</ele>
        <time>1970-01-01T06:14:52.000Z</time>
      </trkpt>
      <trkpt lat="42.209096" lon="2.480925">
        <ele>368</ele>
        <time>1970-01-01T06:14:53.000Z</time>
      </trkpt>
      <trkpt lat="42.209102" lon="2.480845">
        <ele>368</ele>
        <time>1970-01-01T06:14:54.000Z</time>
      </trkpt>
      <trkpt lat="42.209107" lon="2.480766">
        <ele>368</ele>
        <time>1970-01-01T06:14:55.000Z</time>
      </trkpt>
      <trkpt lat="42.209113" lon="2.480686">
        <ele>368</ele>
        <time>1970-01-01T06:14:56.000Z</time>
      </trkpt>
      <trkpt lat="42.209119" lon="2.480606">
        <ele>368</ele>
        <time>1970-01-01T06:14:57.000Z</time>
      </trkpt>
      <trkpt lat="42.209125" lon="2.480527">
        <ele>368</ele>
        <time>1970-01-01T06:14:58.000Z</time>
      </trkpt>
      <trkpt lat="42.209131" lon="2.480447">
        <ele>368</ele>
        <time>1970-01-01T06:14:59.000Z</time>
      </trkpt>
      <trkpt lat="42.209142" lon="2.480302">
        <ele>368</ele>
        <time>1970-01-01T06:15:00.000Z</time>
      </trkpt>
      <trkpt lat="42.209149" lon="2.480207">
        <ele>368</ele>
        <time>1970-01-01T06:15:01.000Z</time>
      </trkpt>
      <trkpt lat="42.209155" lon="2.480113">
        <ele>368</ele>
        <time>1970-01-01T06:15:02.000Z</time>
      </trkpt>
      <trkpt lat="42.209162" lon="2.480018">
        <ele>368</ele>
        <time>1970-01-01T06:15:03.000Z</time>
      </trkpt>
      <trkpt lat="42.209169" lon="2.479923">
        <ele>368</ele>
        <time>1970-01-01T06:15:04.000Z</time>
      </trkpt>
      <trkpt lat="42.209176" lon="2.479828">
        <ele>368</ele>
        <time>1970-01-01T06:15:05.000Z</time>
      </trkpt>
      <trkpt lat="42.209183" lon="2.479733">
        <ele>368</ele>
        <time>1970-01-01T06:15:06.000Z</time>
      </trkpt>
      <trkpt lat="42.209189" lon="2.479639">
        <ele>368</ele>
        <time>1970-01-01T06:15:07.000Z</time>
      </trkpt>
      <trkpt lat="42.209196" lon="2.479544">
        <ele>368</ele>
        <time>1970-01-01T06:15:08.000Z</time>
      </trkpt>
      <trkpt lat="42.209203" lon="2.479449">
        <ele>367</ele>
        <time>1970-01-01T06:15:09.000Z</time>
      </trkpt>
      <trkpt lat="42.209221" lon="2.479202">
        <ele>367</ele>
        <time>1970-01-01T06:15:10.000Z</time>
      </trkpt>
      <trkpt lat="42.209229" lon="2.479102">
        <ele>367</ele>
        <time>1970-01-01T06:15:12.000Z</time>
      </trkpt>
      <trkpt lat="42.209236" lon="2.479003">
        <ele>367</ele>
        <time>1970-01-01T06:15:14.000Z</time>
      </trkpt>
      <trkpt lat="42.209244" lon="2.478904">
        <ele>367</ele>
        <time>1970-01-01T06:15:15.000Z</time>
      </trkpt>
      <trkpt lat="42.209252" lon="2.478804">
        <ele>367</ele>
        <time>1970-01-01T06:15:16.000Z</time>
      </trkpt>
      <trkpt lat="42.20926" lon="2.478705">
        <ele>367</ele>
        <time>1970-01-01T06:15:17.000Z</time>
      </trkpt>
      <trkpt lat="42.209267" lon="2.478605">
        <ele>367</ele>
        <time>1970-01-01T06:15:18.000Z</time>
      </trkpt>
      <trkpt lat="42.209275" lon="2.478506">
        <ele>365</ele>
        <time>1970-01-01T06:15:19.000Z</time>
      </trkpt>
      <trkpt lat="42.209289" lon="2.478303">
        <ele>365</ele>
        <time>1970-01-01T06:15:20.000Z</time>
      </trkpt>
      <trkpt lat="42.209298" lon="2.478196">
        <ele>365</ele>
        <time>1970-01-01T06:15:21.000Z</time>
      </trkpt>
      <trkpt lat="42.209306" lon="2.47809">
        <ele>365</ele>
        <time>1970-01-01T06:15:22.000Z</time>
      </trkpt>
      <trkpt lat="42.209314" lon="2.477983">
        <ele>365</ele>
        <time>1970-01-01T06:15:24.000Z</time>
      </trkpt>
      <trkpt lat="42.209322" lon="2.477877">
        <ele>365</ele>
        <time>1970-01-01T06:15:26.000Z</time>
      </trkpt>
      <trkpt lat="42.209331" lon="2.47777">
        <ele>365</ele>
        <time>1970-01-01T06:15:27.000Z</time>
      </trkpt>
      <trkpt lat="42.209339" lon="2.477664">
        <ele>365</ele>
        <time>1970-01-01T06:15:28.000Z</time>
      </trkpt>
      <trkpt lat="42.209347" lon="2.477557">
        <ele>365</ele>
        <time>1970-01-01T06:15:29.000Z</time>
      </trkpt>
      <trkpt lat="42.209363" lon="2.477338">
        <ele>365</ele>
        <time>1970-01-01T06:15:30.000Z</time>
      </trkpt>
      <trkpt lat="42.20937" lon="2.477244">
        <ele>365</ele>
        <time>1970-01-01T06:15:31.000Z</time>
      </trkpt>
      <trkpt lat="42.209377" lon="2.47715">
        <ele>365</ele>
        <time>1970-01-01T06:15:32.000Z</time>
      </trkpt>
      <trkpt lat="42.209383" lon="2.477057">
        <ele>365</ele>
        <time>1970-01-01T06:15:34.000Z</time>
      </trkpt>
      <trkpt lat="42.20939" lon="2.476963">
        <ele>365</ele>
        <time>1970-01-01T06:15:36.000Z</time>
      </trkpt>
      <trkpt lat="42.209397" lon="2.476869">
        <ele>365</ele>
        <time>1970-01-01T06:15:38.000Z</time>
      </trkpt>
      <trkpt lat="42.209404" lon="2.476775">
        <ele>364</ele>
        <time>1970-01-01T06:15:39.000Z</time>
      </trkpt>
      <trkpt lat="42.209417" lon="2.476593">
        <ele>364</ele>
        <time>1970-01-01T06:15:40.000Z</time>
      </trkpt>
      <trkpt lat="42.209424" lon="2.476495">
        <ele>364</ele>
        <time>1970-01-01T06:15:41.000Z</time>
      </trkpt>
      <trkpt lat="42.209432" lon="2.476397">
        <ele>364</ele>
        <time>1970-01-01T06:15:42.000Z</time>
      </trkpt>
      <trkpt lat="42.209439" lon="2.4763">
        <ele>364</ele>
        <time>1970-01-01T06:15:43.000Z</time>
      </trkpt>
      <trkpt lat="42.209447" lon="2.476202">
        <ele>364</ele>
        <time>1970-01-01T06:15:44.000Z</time>
      </trkpt>
      <trkpt lat="42.209454" lon="2.476104">
        <ele>364</ele>
        <time>1970-01-01T06:15:46.000Z</time>
      </trkpt>
      <trkpt lat="42.209462" lon="2.476006">
        <ele>364</ele>
        <time>1970-01-01T06:15:48.000Z</time>
      </trkpt>
      <trkpt lat="42.209469" lon="2.475908">
        <ele>364</ele>
        <time>1970-01-01T06:15:49.000Z</time>
      </trkpt>
      <trkpt lat="42.209482" lon="2.47573">
        <ele>364</ele>
        <time>1970-01-01T06:15:50.000Z</time>
      </trkpt>
      <trkpt lat="42.209489" lon="2.47564">
        <ele>364</ele>
        <time>1970-01-01T06:15:51.000Z</time>
      </trkpt>
      <trkpt lat="42.209495" lon="2.475551">
        <ele>364</ele>
        <time>1970-01-01T06:15:52.000Z</time>
      </trkpt>
      <trkpt lat="42.209501" lon="2.475461">
        <ele>364</ele>
        <time>1970-01-01T06:15:54.000Z</time>
      </trkpt>
      <trkpt lat="42.209508" lon="2.475372">
        <ele>364</ele>
        <time>1970-01-01T06:15:55.000Z</time>
      </trkpt>
      <trkpt lat="42.209514" lon="2.475282">
        <ele>364</ele>
        <time>1970-01-01T06:15:56.000Z</time>
      </trkpt>
      <trkpt lat="42.20952" lon="2.475193">
        <ele>364</ele>
        <time>1970-01-01T06:15:57.000Z</time>
      </trkpt>
      <trkpt lat="42.209527" lon="2.475103">
        <ele>364</ele>
        <time>1970-01-01T06:15:58.000Z</time>
      </trkpt>
      <trkpt lat="42.209533" lon="2.475014">
        <ele>364</ele>
        <time>1970-01-01T06:15:59.000Z</time>
      </trkpt>
      <trkpt lat="42.209555" lon="2.474727">
        <ele>364</ele>
        <time>1970-01-01T06:16:01.000Z</time>
      </trkpt>
      <trkpt lat="42.209562" lon="2.474619">
        <ele>364</ele>
        <time>1970-01-01T06:16:02.000Z</time>
      </trkpt>
      <trkpt lat="42.20957" lon="2.474512">
        <ele>364</ele>
        <time>1970-01-01T06:16:03.000Z</time>
      </trkpt>
      <trkpt lat="42.209578" lon="2.474404">
        <ele>364</ele>
        <time>1970-01-01T06:16:04.000Z</time>
      </trkpt>
      <trkpt lat="42.209586" lon="2.474297">
        <ele>364</ele>
        <time>1970-01-01T06:16:05.000Z</time>
      </trkpt>
      <trkpt lat="42.209593" lon="2.474189">
        <ele>364</ele>
        <time>1970-01-01T06:16:07.000Z</time>
      </trkpt>
      <trkpt lat="42.209601" lon="2.474082">
        <ele>364</ele>
        <time>1970-01-01T06:16:09.000Z</time>
      </trkpt>
      <trkpt lat="42.209614" lon="2.473918">
        <ele>364</ele>
        <time>1970-01-01T06:16:10.000Z</time>
      </trkpt>
      <trkpt lat="42.209622" lon="2.473816">
        <ele>364</ele>
        <time>1970-01-01T06:16:11.000Z</time>
      </trkpt>
      <trkpt lat="42.20963" lon="2.473713">
        <ele>364</ele>
        <time>1970-01-01T06:16:13.000Z</time>
      </trkpt>
      <trkpt lat="42.209638" lon="2.47361">
        <ele>364</ele>
        <time>1970-01-01T06:16:14.000Z</time>
      </trkpt>
      <trkpt lat="42.209645" lon="2.473507">
        <ele>364</ele>
        <time>1970-01-01T06:16:16.000Z</time>
      </trkpt>
      <trkpt lat="42.209653" lon="2.473405">
        <ele>364</ele>
        <time>1970-01-01T06:16:17.000Z</time>
      </trkpt>
      <trkpt lat="42.209661" lon="2.473302">
        <ele>364</ele>
        <time>1970-01-01T06:16:18.000Z</time>
      </trkpt>
      <trkpt lat="42.209669" lon="2.473199">
        <ele>363</ele>
        <time>1970-01-01T06:16:19.000Z</time>
      </trkpt>
      <trkpt lat="42.209684" lon="2.473004">
        <ele>363</ele>
        <time>1970-01-01T06:16:20.000Z</time>
      </trkpt>
      <trkpt lat="42.209691" lon="2.472901">
        <ele>363</ele>
        <time>1970-01-01T06:16:21.000Z</time>
      </trkpt>
      <trkpt lat="42.209699" lon="2.472798">
        <ele>363</ele>
        <time>1970-01-01T06:16:22.000Z</time>
      </trkpt>
      <trkpt lat="42.209706" lon="2.472695">
        <ele>363</ele>
        <time>1970-01-01T06:16:24.000Z</time>
      </trkpt>
      <trkpt lat="42.209714" lon="2.472591">
        <ele>363</ele>
        <time>1970-01-01T06:16:26.000Z</time>
      </trkpt>
      <trkpt lat="42.209721" lon="2.472488">
        <ele>363</ele>
        <time>1970-01-01T06:16:27.000Z</time>
      </trkpt>
      <trkpt lat="42.209729" lon="2.472385">
        <ele>363</ele>
        <time>1970-01-01T06:16:28.000Z</time>
      </trkpt>
      <trkpt lat="42.209736" lon="2.472282">
        <ele>363</ele>
        <time>1970-01-01T06:16:29.000Z</time>
      </trkpt>
      <trkpt lat="42.209744" lon="2.472179">
        <ele>363</ele>
        <time>1970-01-01T06:16:30.000Z</time>
      </trkpt>
      <trkpt lat="42.209766" lon="2.471899">
        <ele>363</ele>
        <time>1970-01-01T06:16:32.000Z</time>
      </trkpt>
      <trkpt lat="42.209776" lon="2.471807">
        <ele>363</ele>
        <time>1970-01-01T06:16:33.000Z</time>
      </trkpt>
      <trkpt lat="42.209787" lon="2.471715">
        <ele>363</ele>
        <time>1970-01-01T06:16:34.000Z</time>
      </trkpt>
      <trkpt lat="42.209797" lon="2.471622">
        <ele>363</ele>
        <time>1970-01-01T06:16:35.000Z</time>
      </trkpt>
      <trkpt lat="42.209808" lon="2.47153">
        <ele>363</ele>
        <time>1970-01-01T06:16:36.000Z</time>
      </trkpt>
      <trkpt lat="42.209818" lon="2.471438">
        <ele>363</ele>
        <time>1970-01-01T06:16:38.000Z</time>
      </trkpt>
      <trkpt lat="42.209829" lon="2.471346">
        <ele>363</ele>
        <time>1970-01-01T06:16:39.000Z</time>
      </trkpt>
      <trkpt lat="42.209855" lon="2.471171">
        <ele>363</ele>
        <time>1970-01-01T06:16:40.000Z</time>
      </trkpt>
      <trkpt lat="42.209858" lon="2.471084">
        <ele>363</ele>
        <time>1970-01-01T06:16:41.000Z</time>
      </trkpt>
      <trkpt lat="42.20986" lon="2.470996">
        <ele>363</ele>
        <time>1970-01-01T06:16:42.000Z</time>
      </trkpt>
      <trkpt lat="42.209862" lon="2.470909">
        <ele>363</ele>
        <time>1970-01-01T06:16:43.000Z</time>
      </trkpt>
      <trkpt lat="42.209865" lon="2.470822">
        <ele>363</ele>
        <time>1970-01-01T06:16:44.000Z</time>
      </trkpt>
      <trkpt lat="42.209867" lon="2.470735">
        <ele>363</ele>
        <time>1970-01-01T06:16:45.000Z</time>
      </trkpt>
      <trkpt lat="42.209869" lon="2.470648">
        <ele>363</ele>
        <time>1970-01-01T06:16:46.000Z</time>
      </trkpt>
      <trkpt lat="42.209871" lon="2.47056">
        <ele>363</ele>
        <time>1970-01-01T06:16:47.000Z</time>
      </trkpt>
      <trkpt lat="42.209874" lon="2.470473">
        <ele>363</ele>
        <time>1970-01-01T06:16:48.000Z</time>
      </trkpt>
      <trkpt lat="42.209876" lon="2.470386">
        <ele>363</ele>
        <time>1970-01-01T06:16:49.000Z</time>
      </trkpt>
      <trkpt lat="42.209889" lon="2.470207">
        <ele>363</ele>
        <time>1970-01-01T06:16:50.000Z</time>
      </trkpt>
      <trkpt lat="42.209896" lon="2.470112">
        <ele>363</ele>
        <time>1970-01-01T06:16:52.000Z</time>
      </trkpt>
      <trkpt lat="42.209903" lon="2.470017">
        <ele>363</ele>
        <time>1970-01-01T06:16:53.000Z</time>
      </trkpt>
      <trkpt lat="42.20991" lon="2.469922">
        <ele>363</ele>
        <time>1970-01-01T06:16:54.000Z</time>
      </trkpt>
      <trkpt lat="42.209916" lon="2.469827">
        <ele>363</ele>
        <time>1970-01-01T06:16:55.000Z</time>
      </trkpt>
      <trkpt lat="42.209923" lon="2.469732">
        <ele>363</ele>
        <time>1970-01-01T06:16:56.000Z</time>
      </trkpt>
      <trkpt lat="42.20993" lon="2.469637">
        <ele>363</ele>
        <time>1970-01-01T06:16:57.000Z</time>
      </trkpt>
      <trkpt lat="42.209937" lon="2.469542">
        <ele>363</ele>
        <time>1970-01-01T06:16:58.000Z</time>
      </trkpt>
      <trkpt lat="42.209944" lon="2.469447">
        <ele>363</ele>
        <time>1970-01-01T06:17:00.000Z</time>
      </trkpt>
      <trkpt lat="42.209959" lon="2.469245">
        <ele>363</ele>
        <time>1970-01-01T06:17:01.000Z</time>
      </trkpt>
      <trkpt lat="42.209967" lon="2.469129">
        <ele>363</ele>
        <time>1970-01-01T06:17:03.000Z</time>
      </trkpt>
      <trkpt lat="42.209976" lon="2.469014">
        <ele>363</ele>
        <time>1970-01-01T06:17:05.000Z</time>
      </trkpt>
      <trkpt lat="42.209984" lon="2.468898">
        <ele>363</ele>
        <time>1970-01-01T06:17:06.000Z</time>
      </trkpt>
      <trkpt lat="42.209993" lon="2.468783">
        <ele>363</ele>
        <time>1970-01-01T06:17:07.000Z</time>
      </trkpt>
      <trkpt lat="42.210001" lon="2.468667">
        <ele>363</ele>
        <time>1970-01-01T06:17:09.000Z</time>
      </trkpt>
      <trkpt lat="42.210013" lon="2.468515">
        <ele>363</ele>
        <time>1970-01-01T06:17:10.000Z</time>
      </trkpt>
      <trkpt lat="42.210018" lon="2.468447">
        <ele>363</ele>
        <time>1970-01-01T06:17:11.000Z</time>
      </trkpt>
      <trkpt lat="42.210024" lon="2.46838">
        <ele>363</ele>
        <time>1970-01-01T06:17:12.000Z</time>
      </trkpt>
      <trkpt lat="42.210029" lon="2.468312">
        <ele>363</ele>
        <time>1970-01-01T06:17:13.000Z</time>
      </trkpt>
      <trkpt lat="42.210034" lon="2.468244">
        <ele>363</ele>
        <time>1970-01-01T06:17:14.000Z</time>
      </trkpt>
      <trkpt lat="42.210039" lon="2.468176">
        <ele>363</ele>
        <time>1970-01-01T06:17:15.000Z</time>
      </trkpt>
      <trkpt lat="42.210044" lon="2.468108">
        <ele>363</ele>
        <time>1970-01-01T06:17:16.000Z</time>
      </trkpt>
      <trkpt lat="42.21005" lon="2.468041">
        <ele>363</ele>
        <time>1970-01-01T06:17:17.000Z</time>
      </trkpt>
      <trkpt lat="42.210055" lon="2.467973">
        <ele>363</ele>
        <time>1970-01-01T06:17:18.000Z</time>
      </trkpt>
      <trkpt lat="42.21006" lon="2.467905">
        <ele>363</ele>
        <time>1970-01-01T06:17:19.000Z</time>
      </trkpt>
      <trkpt lat="42.210068" lon="2.467787">
        <ele>363</ele>
        <time>1970-01-01T06:17:20.000Z</time>
      </trkpt>
      <trkpt lat="42.210074" lon="2.467708">
        <ele>363</ele>
        <time>1970-01-01T06:17:21.000Z</time>
      </trkpt>
      <trkpt lat="42.210079" lon="2.467629">
        <ele>363</ele>
        <time>1970-01-01T06:17:22.000Z</time>
      </trkpt>
      <trkpt lat="42.210085" lon="2.46755">
        <ele>363</ele>
        <time>1970-01-01T06:17:23.000Z</time>
      </trkpt>
      <trkpt lat="42.210091" lon="2.467471">
        <ele>363</ele>
        <time>1970-01-01T06:17:25.000Z</time>
      </trkpt>
      <trkpt lat="42.210097" lon="2.467392">
        <ele>363</ele>
        <time>1970-01-01T06:17:26.000Z</time>
      </trkpt>
      <trkpt lat="42.210102" lon="2.467313">
        <ele>363</ele>
        <time>1970-01-01T06:17:27.000Z</time>
      </trkpt>
      <trkpt lat="42.210108" lon="2.467234">
        <ele>363</ele>
        <time>1970-01-01T06:17:28.000Z</time>
      </trkpt>
      <trkpt lat="42.210114" lon="2.467155">
        <ele>364</ele>
        <time>1970-01-01T06:17:29.000Z</time>
      </trkpt>
      <trkpt lat="42.210123" lon="2.467038">
        <ele>364</ele>
        <time>1970-01-01T06:17:30.000Z</time>
      </trkpt>
      <trkpt lat="42.210128" lon="2.466958">
        <ele>364</ele>
        <time>1970-01-01T06:17:31.000Z</time>
      </trkpt>
      <trkpt lat="42.210134" lon="2.466878">
        <ele>364</ele>
        <time>1970-01-01T06:17:32.000Z</time>
      </trkpt>
      <trkpt lat="42.210139" lon="2.466798">
        <ele>364</ele>
        <time>1970-01-01T06:17:34.000Z</time>
      </trkpt>
      <trkpt lat="42.210145" lon="2.466717">
        <ele>364</ele>
        <time>1970-01-01T06:17:35.000Z</time>
      </trkpt>
      <trkpt lat="42.21015" lon="2.466637">
        <ele>364</ele>
        <time>1970-01-01T06:17:36.000Z</time>
      </trkpt>
      <trkpt lat="42.210156" lon="2.466557">
        <ele>364</ele>
        <time>1970-01-01T06:17:37.000Z</time>
      </trkpt>
      <trkpt lat="42.210161" lon="2.466477">
        <ele>364</ele>
        <time>1970-01-01T06:17:38.000Z</time>
      </trkpt>
      <trkpt lat="42.210167" lon="2.466397">
        <ele>364</ele>
        <time>1970-01-01T06:17:39.000Z</time>
      </trkpt>
      <trkpt lat="42.21018" lon="2.466209">
        <ele>364</ele>
        <time>1970-01-01T06:17:40.000Z</time>
      </trkpt>
      <trkpt lat="42.210185" lon="2.466138">
        <ele>364</ele>
        <time>1970-01-01T06:17:42.000Z</time>
      </trkpt>
      <trkpt lat="42.21019" lon="2.466066">
        <ele>364</ele>
        <time>1970-01-01T06:17:43.000Z</time>
      </trkpt>
      <trkpt lat="42.210195" lon="2.465995">
        <ele>364</ele>
        <time>1970-01-01T06:17:44.000Z</time>
      </trkpt>
      <trkpt lat="42.2102" lon="2.465924">
        <ele>364</ele>
        <time>1970-01-01T06:17:45.000Z</time>
      </trkpt>
      <trkpt lat="42.210205" lon="2.465853">
        <ele>364</ele>
        <time>1970-01-01T06:17:46.000Z</time>
      </trkpt>
      <trkpt lat="42.21021" lon="2.465781">
        <ele>364</ele>
        <time>1970-01-01T06:17:47.000Z</time>
      </trkpt>
      <trkpt lat="42.210215" lon="2.46571">
        <ele>364</ele>
        <time>1970-01-01T06:17:48.000Z</time>
      </trkpt>
      <trkpt lat="42.21022" lon="2.465639">
        <ele>365</ele>
        <time>1970-01-01T06:17:49.000Z</time>
      </trkpt>
      <trkpt lat="42.21024" lon="2.465379">
        <ele>365</ele>
        <time>1970-01-01T06:17:51.000Z</time>
      </trkpt>
      <trkpt lat="42.210247" lon="2.465283">
        <ele>365</ele>
        <time>1970-01-01T06:17:52.000Z</time>
      </trkpt>
      <trkpt lat="42.210254" lon="2.465187">
        <ele>365</ele>
        <time>1970-01-01T06:17:53.000Z</time>
      </trkpt>
      <trkpt lat="42.210261" lon="2.465091">
        <ele>365</ele>
        <time>1970-01-01T06:17:54.000Z</time>
      </trkpt>
      <trkpt lat="42.210268" lon="2.464995">
        <ele>365</ele>
        <time>1970-01-01T06:17:55.000Z</time>
      </trkpt>
      <trkpt lat="42.210275" lon="2.464899">
        <ele>365</ele>
        <time>1970-01-01T06:17:56.000Z</time>
      </trkpt>
      <trkpt lat="42.210282" lon="2.464803">
        <ele>365</ele>
        <time>1970-01-01T06:17:57.000Z</time>
      </trkpt>
      <trkpt lat="42.210289" lon="2.464707">
        <ele>364</ele>
        <time>1970-01-01T06:17:59.000Z</time>
      </trkpt>
      <trkpt lat="42.2103" lon="2.464549">
        <ele>364</ele>
        <time>1970-01-01T06:18:00.000Z</time>
      </trkpt>
      <trkpt lat="42.210306" lon="2.464478">
        <ele>364</ele>
        <time>1970-01-01T06:18:01.000Z</time>
      </trkpt>
      <trkpt lat="42.210311" lon="2.464407">
        <ele>364</ele>
        <time>1970-01-01T06:18:02.000Z</time>
      </trkpt>
      <trkpt lat="42.210316" lon="2.464336">
        <ele>364</ele>
        <time>1970-01-01T06:18:03.000Z</time>
      </trkpt>
      <trkpt lat="42.210322" lon="2.464266">
        <ele>364</ele>
        <time>1970-01-01T06:18:04.000Z</time>
      </trkpt>
      <trkpt lat="42.210327" lon="2.464195">
        <ele>364</ele>
        <time>1970-01-01T06:18:05.000Z</time>
      </trkpt>
      <trkpt lat="42.210332" lon="2.464124">
        <ele>364</ele>
        <time>1970-01-01T06:18:06.000Z</time>
      </trkpt>
      <trkpt lat="42.210337" lon="2.464053">
        <ele>364</ele>
        <time>1970-01-01T06:18:07.000Z</time>
      </trkpt>
      <trkpt lat="42.210343" lon="2.463982">
        <ele>364</ele>
        <time>1970-01-01T06:18:08.000Z</time>
      </trkpt>
      <trkpt lat="42.210348" lon="2.463911">
        <ele>364</ele>
        <time>1970-01-01T06:18:09.000Z</time>
      </trkpt>
      <trkpt lat="42.210357" lon="2.463785">
        <ele>364</ele>
        <time>1970-01-01T06:18:10.000Z</time>
      </trkpt>
      <trkpt lat="42.210363" lon="2.463698">
        <ele>364</ele>
        <time>1970-01-01T06:18:11.000Z</time>
      </trkpt>
      <trkpt lat="42.21037" lon="2.46361">
        <ele>364</ele>
        <time>1970-01-01T06:18:12.000Z</time>
      </trkpt>
      <trkpt lat="42.210376" lon="2.463523">
        <ele>364</ele>
        <time>1970-01-01T06:18:13.000Z</time>
      </trkpt>
      <trkpt lat="42.210383" lon="2.463436">
        <ele>364</ele>
        <time>1970-01-01T06:18:15.000Z</time>
      </trkpt>
      <trkpt lat="42.210389" lon="2.463349">
        <ele>364</ele>
        <time>1970-01-01T06:18:17.000Z</time>
      </trkpt>
      <trkpt lat="42.210396" lon="2.463261">
        <ele>364</ele>
        <time>1970-01-01T06:18:18.000Z</time>
      </trkpt>
      <trkpt lat="42.210402" lon="2.463174">
        <ele>365</ele>
        <time>1970-01-01T06:18:19.000Z</time>
      </trkpt>
      <trkpt lat="42.21041" lon="2.463048">
        <ele>365</ele>
        <time>1970-01-01T06:18:20.000Z</time>
      </trkpt>
      <trkpt lat="42.210417" lon="2.462959">
        <ele>365</ele>
        <time>1970-01-01T06:18:21.000Z</time>
      </trkpt>
      <trkpt lat="42.210423" lon="2.46287">
        <ele>365</ele>
        <time>1970-01-01T06:18:22.000Z</time>
      </trkpt>
      <trkpt lat="42.21043" lon="2.462781">
        <ele>365</ele>
        <time>1970-01-01T06:18:23.000Z</time>
      </trkpt>
      <trkpt lat="42.210436" lon="2.462691">
        <ele>365</ele>
        <time>1970-01-01T06:18:25.000Z</time>
      </trkpt>
      <trkpt lat="42.210442" lon="2.462602">
        <ele>365</ele>
        <time>1970-01-01T06:18:26.000Z</time>
      </trkpt>
      <trkpt lat="42.210449" lon="2.462513">
        <ele>365</ele>
        <time>1970-01-01T06:18:28.000Z</time>
      </trkpt>
      <trkpt lat="42.210455" lon="2.462424">
        <ele>366</ele>
        <time>1970-01-01T06:18:29.000Z</time>
      </trkpt>
      <trkpt lat="42.210465" lon="2.462286">
        <ele>366</ele>
        <time>1970-01-01T06:18:30.000Z</time>
      </trkpt>
      <trkpt lat="42.210472" lon="2.462185">
        <ele>366</ele>
        <time>1970-01-01T06:18:31.000Z</time>
      </trkpt>
      <trkpt lat="42.210479" lon="2.462085">
        <ele>366</ele>
        <time>1970-01-01T06:18:32.000Z</time>
      </trkpt>
      <trkpt lat="42.210487" lon="2.461985">
        <ele>366</ele>
        <time>1970-01-01T06:18:34.000Z</time>
      </trkpt>
      <trkpt lat="42.210494" lon="2.461884">
        <ele>366</ele>
        <time>1970-01-01T06:18:35.000Z</time>
      </trkpt>
      <trkpt lat="42.210501" lon="2.461784">
        <ele>366</ele>
        <time>1970-01-01T06:18:37.000Z</time>
      </trkpt>
      <trkpt lat="42.210508" lon="2.461683">
        <ele>366</ele>
        <time>1970-01-01T06:18:38.000Z</time>
      </trkpt>
      <trkpt lat="42.210515" lon="2.461583">
        <ele>366</ele>
        <time>1970-01-01T06:18:39.000Z</time>
      </trkpt>
      <trkpt lat="42.210528" lon="2.461392">
        <ele>366</ele>
        <time>1970-01-01T06:18:40.000Z</time>
      </trkpt>
      <trkpt lat="42.210535" lon="2.461286">
        <ele>366</ele>
        <time>1970-01-01T06:18:42.000Z</time>
      </trkpt>
      <trkpt lat="42.210542" lon="2.461179">
        <ele>366</ele>
        <time>1970-01-01T06:18:43.000Z</time>
      </trkpt>
      <trkpt lat="42.210548" lon="2.461073">
        <ele>366</ele>
        <time>1970-01-01T06:18:45.000Z</time>
      </trkpt>
      <trkpt lat="42.210555" lon="2.460966">
        <ele>366</ele>
        <time>1970-01-01T06:18:47.000Z</time>
      </trkpt>
      <trkpt lat="42.210562" lon="2.46086">
        <ele>366</ele>
        <time>1970-01-01T06:18:48.000Z</time>
      </trkpt>
      <trkpt lat="42.210569" lon="2.460753">
        <ele>366</ele>
        <time>1970-01-01T06:18:49.000Z</time>
      </trkpt>
      <trkpt lat="42.210578" lon="2.460625">
        <ele>366</ele>
        <time>1970-01-01T06:18:50.000Z</time>
      </trkpt>
      <trkpt lat="42.210583" lon="2.460542">
        <ele>366</ele>
        <time>1970-01-01T06:18:51.000Z</time>
      </trkpt>
      <trkpt lat="42.210589" lon="2.46046">
        <ele>366</ele>
        <time>1970-01-01T06:18:52.000Z</time>
      </trkpt>
      <trkpt lat="42.210595" lon="2.460377">
        <ele>366</ele>
        <time>1970-01-01T06:18:53.000Z</time>
      </trkpt>
      <trkpt lat="42.210601" lon="2.460295">
        <ele>366</ele>
        <time>1970-01-01T06:18:54.000Z</time>
      </trkpt>
      <trkpt lat="42.210606" lon="2.460212">
        <ele>366</ele>
        <time>1970-01-01T06:18:55.000Z</time>
      </trkpt>
      <trkpt lat="42.210612" lon="2.46013">
        <ele>366</ele>
        <time>1970-01-01T06:18:56.000Z</time>
      </trkpt>
      <trkpt lat="42.210618" lon="2.460047">
        <ele>366</ele>
        <time>1970-01-01T06:18:57.000Z</time>
      </trkpt>
      <trkpt lat="42.210623" lon="2.459965">
        <ele>366</ele>
        <time>1970-01-01T06:18:58.000Z</time>
      </trkpt>
      <trkpt lat="42.210629" lon="2.459882">
        <ele>365</ele>
        <time>1970-01-01T06:18:59.000Z</time>
      </trkpt>
      <trkpt lat="42.210643" lon="2.459693">
        <ele>365</ele>
        <time>1970-01-01T06:19:00.000Z</time>
      </trkpt>
      <trkpt lat="42.21065" lon="2.4596">
        <ele>365</ele>
        <time>1970-01-01T06:19:01.000Z</time>
      </trkpt>
      <trkpt lat="42.210657" lon="2.459507">
        <ele>365</ele>
        <time>1970-01-01T06:19:02.000Z</time>
      </trkpt>
      <trkpt lat="42.210664" lon="2.459414">
        <ele>365</ele>
        <time>1970-01-01T06:19:03.000Z</time>
      </trkpt>
      <trkpt lat="42.210671" lon="2.459321">
        <ele>365</ele>
        <time>1970-01-01T06:19:04.000Z</time>
      </trkpt>
      <trkpt lat="42.210678" lon="2.459227">
        <ele>365</ele>
        <time>1970-01-01T06:19:05.000Z</time>
      </trkpt>
      <trkpt lat="42.210685" lon="2.459134">
        <ele>365</ele>
        <time>1970-01-01T06:19:06.000Z</time>
      </trkpt>
      <trkpt lat="42.210692" lon="2.459041">
        <ele>365</ele>
        <time>1970-01-01T06:19:07.000Z</time>
      </trkpt>
      <trkpt lat="42.210699" lon="2.458948">
        <ele>365</ele>
        <time>1970-01-01T06:19:08.000Z</time>
      </trkpt>
      <trkpt lat="42.210706" lon="2.458855">
        <ele>363</ele>
        <time>1970-01-01T06:19:09.000Z</time>
      </trkpt>
      <trkpt lat="42.210721" lon="2.458656">
        <ele>363</ele>
        <time>1970-01-01T06:19:10.000Z</time>
      </trkpt>
      <trkpt lat="42.210729" lon="2.45856">
        <ele>363</ele>
        <time>1970-01-01T06:19:11.000Z</time>
      </trkpt>
      <trkpt lat="42.210736" lon="2.458464">
        <ele>363</ele>
        <time>1970-01-01T06:19:12.000Z</time>
      </trkpt>
      <trkpt lat="42.210744" lon="2.458368">
        <ele>363</ele>
        <time>1970-01-01T06:19:14.000Z</time>
      </trkpt>
      <trkpt lat="42.210751" lon="2.458273">
        <ele>363</ele>
        <time>1970-01-01T06:19:15.000Z</time>
      </trkpt>
      <trkpt lat="42.210759" lon="2.458177">
        <ele>363</ele>
        <time>1970-01-01T06:19:16.000Z</time>
      </trkpt>
      <trkpt lat="42.210766" lon="2.458081">
        <ele>363</ele>
        <time>1970-01-01T06:19:17.000Z</time>
      </trkpt>
      <trkpt lat="42.210774" lon="2.457985">
        <ele>363</ele>
        <time>1970-01-01T06:19:18.000Z</time>
      </trkpt>
      <trkpt lat="42.210781" lon="2.457889">
        <ele>362</ele>
        <time>1970-01-01T06:19:19.000Z</time>
      </trkpt>
      <trkpt lat="42.210792" lon="2.457719">
        <ele>362</ele>
        <time>1970-01-01T06:19:20.000Z</time>
      </trkpt>
      <trkpt lat="42.210797" lon="2.457642">
        <ele>362</ele>
        <time>1970-01-01T06:19:21.000Z</time>
      </trkpt>
      <trkpt lat="42.210802" lon="2.457564">
        <ele>362</ele>
        <time>1970-01-01T06:19:22.000Z</time>
      </trkpt>
      <trkpt lat="42.210807" lon="2.457486">
        <ele>362</ele>
        <time>1970-01-01T06:19:23.000Z</time>
      </trkpt>
      <trkpt lat="42.210812" lon="2.457409">
        <ele>362</ele>
        <time>1970-01-01T06:19:24.000Z</time>
      </trkpt>
      <trkpt lat="42.210817" lon="2.457331">
        <ele>362</ele>
        <time>1970-01-01T06:19:25.000Z</time>
      </trkpt>
      <trkpt lat="42.210822" lon="2.457253">
        <ele>362</ele>
        <time>1970-01-01T06:19:26.000Z</time>
      </trkpt>
      <trkpt lat="42.210827" lon="2.457175">
        <ele>362</ele>
        <time>1970-01-01T06:19:27.000Z</time>
      </trkpt>
      <trkpt lat="42.210832" lon="2.457098">
        <ele>362</ele>
        <time>1970-01-01T06:19:28.000Z</time>
      </trkpt>
      <trkpt lat="42.210837" lon="2.45702">
        <ele>362</ele>
        <time>1970-01-01T06:19:29.000Z</time>
      </trkpt>
      <trkpt lat="42.210846" lon="2.456889">
        <ele>362</ele>
        <time>1970-01-01T06:19:30.000Z</time>
      </trkpt>
      <trkpt lat="42.210851" lon="2.456832">
        <ele>362</ele>
        <time>1970-01-01T06:19:31.000Z</time>
      </trkpt>
      <trkpt lat="42.210856" lon="2.456776">
        <ele>362</ele>
        <time>1970-01-01T06:19:32.000Z</time>
      </trkpt>
      <trkpt lat="42.210861" lon="2.456719">
        <ele>362</ele>
        <time>1970-01-01T06:19:33.000Z</time>
      </trkpt>
      <trkpt lat="42.210866" lon="2.456662">
        <ele>362</ele>
        <time>1970-01-01T06:19:34.000Z</time>
      </trkpt>
      <trkpt lat="42.21087" lon="2.456605">
        <ele>362</ele>
        <time>1970-01-01T06:19:35.000Z</time>
      </trkpt>
      <trkpt lat="42.210875" lon="2.456548">
        <ele>362</ele>
        <time>1970-01-01T06:19:36.000Z</time>
      </trkpt>
      <trkpt lat="42.21088" lon="2.456492">
        <ele>362</ele>
        <time>1970-01-01T06:19:37.000Z</time>
      </trkpt>
      <trkpt lat="42.210885" lon="2.456435">
        <ele>362</ele>
        <time>1970-01-01T06:19:38.000Z</time>
      </trkpt>
      <trkpt lat="42.21089" lon="2.456378">
        <ele>362</ele>
        <time>1970-01-01T06:19:39.000Z</time>
      </trkpt>
      <trkpt lat="42.210898" lon="2.45627">
        <ele>362</ele>
        <time>1970-01-01T06:19:40.000Z</time>
      </trkpt>
      <trkpt lat="42.210903" lon="2.45622">
        <ele>362</ele>
        <time>1970-01-01T06:19:41.000Z</time>
      </trkpt>
      <trkpt lat="42.210907" lon="2.456171">
        <ele>362</ele>
        <time>1970-01-01T06:19:42.000Z</time>
      </trkpt>
      <trkpt lat="42.210911" lon="2.456121">
        <ele>362</ele>
        <time>1970-01-01T06:19:43.000Z</time>
      </trkpt>
      <trkpt lat="42.210916" lon="2.456071">
        <ele>362</ele>
        <time>1970-01-01T06:19:44.000Z</time>
      </trkpt>
      <trkpt lat="42.21092" lon="2.456021">
        <ele>362</ele>
        <time>1970-01-01T06:19:45.000Z</time>
      </trkpt>
      <trkpt lat="42.210924" lon="2.455971">
        <ele>362</ele>
        <time>1970-01-01T06:19:46.000Z</time>
      </trkpt>
      <trkpt lat="42.210928" lon="2.455922">
        <ele>362</ele>
        <time>1970-01-01T06:19:47.000Z</time>
      </trkpt>
      <trkpt lat="42.210933" lon="2.455872">
        <ele>362</ele>
        <time>1970-01-01T06:19:48.000Z</time>
      </trkpt>
      <trkpt lat="42.210937" lon="2.455822">
        <ele>363</ele>
        <time>1970-01-01T06:19:49.000Z</time>
      </trkpt>
      <trkpt lat="42.210945" lon="2.455716">
        <ele>363</ele>
        <time>1970-01-01T06:19:50.000Z</time>
      </trkpt>
      <trkpt lat="42.210949" lon="2.455666">
        <ele>363</ele>
        <time>1970-01-01T06:19:51.000Z</time>
      </trkpt>
      <trkpt lat="42.210954" lon="2.455616">
        <ele>363</ele>
        <time>1970-01-01T06:19:52.000Z</time>
      </trkpt>
      <trkpt lat="42.210958" lon="2.455566">
        <ele>363</ele>
        <time>1970-01-01T06:19:53.000Z</time>
      </trkpt>
      <trkpt lat="42.210962" lon="2.455517">
        <ele>363</ele>
        <time>1970-01-01T06:19:54.000Z</time>
      </trkpt>
      <trkpt lat="42.210966" lon="2.455467">
        <ele>363</ele>
        <time>1970-01-01T06:19:55.000Z</time>
      </trkpt>
      <trkpt lat="42.21097" lon="2.455417">
        <ele>363</ele>
        <time>1970-01-01T06:19:56.000Z</time>
      </trkpt>
      <trkpt lat="42.210975" lon="2.455367">
        <ele>363</ele>
        <time>1970-01-01T06:19:57.000Z</time>
      </trkpt>
      <trkpt lat="42.210979" lon="2.455317">
        <ele>363</ele>
        <time>1970-01-01T06:19:58.000Z</time>
      </trkpt>
      <trkpt lat="42.210983" lon="2.455267">
        <ele>364</ele>
        <time>1970-01-01T06:19:59.000Z</time>
      </trkpt>
      <trkpt lat="42.210991" lon="2.455165">
        <ele>364</ele>
        <time>1970-01-01T06:20:00.000Z</time>
      </trkpt>
      <trkpt lat="42.210995" lon="2.455118">
        <ele>364</ele>
        <time>1970-01-01T06:20:01.000Z</time>
      </trkpt>
      <trkpt lat="42.210998" lon="2.455072">
        <ele>364</ele>
        <time>1970-01-01T06:20:02.000Z</time>
      </trkpt>
      <trkpt lat="42.211001" lon="2.455025">
        <ele>364</ele>
        <time>1970-01-01T06:20:03.000Z</time>
      </trkpt>
      <trkpt lat="42.211005" lon="2.454979">
        <ele>364</ele>
        <time>1970-01-01T06:20:04.000Z</time>
      </trkpt>
      <trkpt lat="42.211008" lon="2.454932">
        <ele>364</ele>
        <time>1970-01-01T06:20:05.000Z</time>
      </trkpt>
      <trkpt lat="42.211011" lon="2.454886">
        <ele>364</ele>
        <time>1970-01-01T06:20:06.000Z</time>
      </trkpt>
      <trkpt lat="42.211014" lon="2.454839">
        <ele>364</ele>
        <time>1970-01-01T06:20:07.000Z</time>
      </trkpt>
      <trkpt lat="42.211018" lon="2.454793">
        <ele>364</ele>
        <time>1970-01-01T06:20:08.000Z</time>
      </trkpt>
      <trkpt lat="42.211021" lon="2.454746">
        <ele>366</ele>
        <time>1970-01-01T06:20:09.000Z</time>
      </trkpt>
      <trkpt lat="42.211029" lon="2.45466">
        <ele>366</ele>
        <time>1970-01-01T06:20:10.000Z</time>
      </trkpt>
      <trkpt lat="42.211033" lon="2.45462">
        <ele>366</ele>
        <time>1970-01-01T06:20:11.000Z</time>
      </trkpt>
      <trkpt lat="42.211036" lon="2.454579">
        <ele>366</ele>
        <time>1970-01-01T06:20:12.000Z</time>
      </trkpt>
      <trkpt lat="42.21104" lon="2.454538">
        <ele>366</ele>
        <time>1970-01-01T06:20:13.000Z</time>
      </trkpt>
      <trkpt lat="42.211043" lon="2.454498">
        <ele>366</ele>
        <time>1970-01-01T06:20:14.000Z</time>
      </trkpt>
      <trkpt lat="42.211046" lon="2.454457">
        <ele>366</ele>
        <time>1970-01-01T06:20:15.000Z</time>
      </trkpt>
      <trkpt lat="42.21105" lon="2.454416">
        <ele>366</ele>
        <time>1970-01-01T06:20:16.000Z</time>
      </trkpt>
      <trkpt lat="42.211053" lon="2.454375">
        <ele>366</ele>
        <time>1970-01-01T06:20:17.000Z</time>
      </trkpt>
      <trkpt lat="42.211057" lon="2.454335">
        <ele>366</ele>
        <time>1970-01-01T06:20:18.000Z</time>
      </trkpt>
      <trkpt lat="42.21106" lon="2.454294">
        <ele>368</ele>
        <time>1970-01-01T06:20:19.000Z</time>
      </trkpt>
      <trkpt lat="42.211061" lon="2.454204">
        <ele>368</ele>
        <time>1970-01-01T06:20:20.000Z</time>
      </trkpt>
      <trkpt lat="42.211064" lon="2.454163">
        <ele>368</ele>
        <time>1970-01-01T06:20:21.000Z</time>
      </trkpt>
      <trkpt lat="42.211068" lon="2.454121">
        <ele>368</ele>
        <time>1970-01-01T06:20:22.000Z</time>
      </trkpt>
      <trkpt lat="42.211071" lon="2.454079">
        <ele>368</ele>
        <time>1970-01-01T06:20:23.000Z</time>
      </trkpt>
      <trkpt lat="42.211074" lon="2.454038">
        <ele>368</ele>
        <time>1970-01-01T06:20:24.000Z</time>
      </trkpt>
      <trkpt lat="42.211077" lon="2.453996">
        <ele>368</ele>
        <time>1970-01-01T06:20:25.000Z</time>
      </trkpt>
      <trkpt lat="42.21108" lon="2.453954">
        <ele>368</ele>
        <time>1970-01-01T06:20:26.000Z</time>
      </trkpt>
      <trkpt lat="42.211084" lon="2.453912">
        <ele>368</ele>
        <time>1970-01-01T06:20:27.000Z</time>
      </trkpt>
      <trkpt lat="42.211087" lon="2.453871">
        <ele>368</ele>
        <time>1970-01-01T06:20:28.000Z</time>
      </trkpt>
      <trkpt lat="42.21109" lon="2.453829">
        <ele>369</ele>
        <time>1970-01-01T06:20:29.000Z</time>
      </trkpt>
      <trkpt lat="42.2111" lon="2.453741">
        <ele>369</ele>
        <time>1970-01-01T06:20:30.000Z</time>
      </trkpt>
      <trkpt lat="42.211105" lon="2.453699">
        <ele>369</ele>
        <time>1970-01-01T06:20:31.000Z</time>
      </trkpt>
      <trkpt lat="42.211111" lon="2.453658">
        <ele>369</ele>
        <time>1970-01-01T06:20:32.000Z</time>
      </trkpt>
      <trkpt lat="42.211116" lon="2.453616">
        <ele>369</ele>
        <time>1970-01-01T06:20:33.000Z</time>
      </trkpt>
      <trkpt lat="42.211121" lon="2.453575">
        <ele>369</ele>
        <time>1970-01-01T06:20:34.000Z</time>
      </trkpt>
      <trkpt lat="42.211126" lon="2.453533">
        <ele>369</ele>
        <time>1970-01-01T06:20:35.000Z</time>
      </trkpt>
      <trkpt lat="42.211131" lon="2.453492">
        <ele>369</ele>
        <time>1970-01-01T06:20:36.000Z</time>
      </trkpt>
      <trkpt lat="42.211137" lon="2.45345">
        <ele>369</ele>
        <time>1970-01-01T06:20:37.000Z</time>
      </trkpt>
      <trkpt lat="42.211142" lon="2.453409">
        <ele>369</ele>
        <time>1970-01-01T06:20:38.000Z</time>
      </trkpt>
      <trkpt lat="42.211147" lon="2.453367">
        <ele>370</ele>
        <time>1970-01-01T06:20:39.000Z</time>
      </trkpt>
      <trkpt lat="42.211166" lon="2.453275">
        <ele>370</ele>
        <time>1970-01-01T06:20:40.000Z</time>
      </trkpt>
      <trkpt lat="42.211174" lon="2.453229">
        <ele>370</ele>
        <time>1970-01-01T06:20:41.000Z</time>
      </trkpt>
      <trkpt lat="42.211183" lon="2.453184">
        <ele>370</ele>
        <time>1970-01-01T06:20:42.000Z</time>
      </trkpt>
      <trkpt lat="42.211192" lon="2.453138">
        <ele>370</ele>
        <time>1970-01-01T06:20:43.000Z</time>
      </trkpt>
      <trkpt lat="42.211201" lon="2.453092">
        <ele>370</ele>
        <time>1970-01-01T06:20:44.000Z</time>
      </trkpt>
      <trkpt lat="42.211209" lon="2.453046">
        <ele>370</ele>
        <time>1970-01-01T06:20:45.000Z</time>
      </trkpt>
      <trkpt lat="42.211218" lon="2.453">
        <ele>370</ele>
        <time>1970-01-01T06:20:46.000Z</time>
      </trkpt>
      <trkpt lat="42.211227" lon="2.452955">
        <ele>370</ele>
        <time>1970-01-01T06:20:47.000Z</time>
      </trkpt>
      <trkpt lat="42.211235" lon="2.452909">
        <ele>370</ele>
        <time>1970-01-01T06:20:48.000Z</time>
      </trkpt>
      <trkpt lat="42.211244" lon="2.452863">
        <ele>370</ele>
        <time>1970-01-01T06:20:49.000Z</time>
      </trkpt>
      <trkpt lat="42.211264" lon="2.452758">
        <ele>370</ele>
        <time>1970-01-01T06:20:50.000Z</time>
      </trkpt>
      <trkpt lat="42.211274" lon="2.452708">
        <ele>370</ele>
        <time>1970-01-01T06:20:51.000Z</time>
      </trkpt>
      <trkpt lat="42.211285" lon="2.452657">
        <ele>370</ele>
        <time>1970-01-01T06:20:52.000Z</time>
      </trkpt>
      <trkpt lat="42.211295" lon="2.452607">
        <ele>370</ele>
        <time>1970-01-01T06:20:53.000Z</time>
      </trkpt>
      <trkpt lat="42.211305" lon="2.452557">
        <ele>370</ele>
        <time>1970-01-01T06:20:54.000Z</time>
      </trkpt>
      <trkpt lat="42.211315" lon="2.452507">
        <ele>370</ele>
        <time>1970-01-01T06:20:55.000Z</time>
      </trkpt>
      <trkpt lat="42.211325" lon="2.452457">
        <ele>370</ele>
        <time>1970-01-01T06:20:56.000Z</time>
      </trkpt>
      <trkpt lat="42.211336" lon="2.452406">
        <ele>370</ele>
        <time>1970-01-01T06:20:57.000Z</time>
      </trkpt>
      <trkpt lat="42.211346" lon="2.452356">
        <ele>370</ele>
        <time>1970-01-01T06:20:58.000Z</time>
      </trkpt>
      <trkpt lat="42.211356" lon="2.452306">
        <ele>372</ele>
        <time>1970-01-01T06:20:59.000Z</time>
      </trkpt>
      <trkpt lat="42.211376" lon="2.452196">
        <ele>372</ele>
        <time>1970-01-01T06:21:00.000Z</time>
      </trkpt>
      <trkpt lat="42.211387" lon="2.452143">
        <ele>372</ele>
        <time>1970-01-01T06:21:01.000Z</time>
      </trkpt>
      <trkpt lat="42.211398" lon="2.45209">
        <ele>372</ele>
        <time>1970-01-01T06:21:02.000Z</time>
      </trkpt>
      <trkpt lat="42.211409" lon="2.452037">
        <ele>372</ele>
        <time>1970-01-01T06:21:03.000Z</time>
      </trkpt>
      <trkpt lat="42.21142" lon="2.451984">
        <ele>372</ele>
        <time>1970-01-01T06:21:04.000Z</time>
      </trkpt>
      <trkpt lat="42.21143" lon="2.45193">
        <ele>372</ele>
        <time>1970-01-01T06:21:05.000Z</time>
      </trkpt>
      <trkpt lat="42.211441" lon="2.451877">
        <ele>372</ele>
        <time>1970-01-01T06:21:06.000Z</time>
      </trkpt>
      <trkpt lat="42.211452" lon="2.451824">
        <ele>372</ele>
        <time>1970-01-01T06:21:07.000Z</time>
      </trkpt>
      <trkpt lat="42.211463" lon="2.451771">
        <ele>372</ele>
        <time>1970-01-01T06:21:08.000Z</time>
      </trkpt>
      <trkpt lat="42.211474" lon="2.451718">
        <ele>372</ele>
        <time>1970-01-01T06:21:09.000Z</time>
      </trkpt>
      <trkpt lat="42.211501" lon="2.451604">
        <ele>372</ele>
        <time>1970-01-01T06:21:10.000Z</time>
      </trkpt>
      <trkpt lat="42.211509" lon="2.451565">
        <ele>372</ele>
        <time>1970-01-01T06:21:11.000Z</time>
      </trkpt>
      <trkpt lat="42.211518" lon="2.451527">
        <ele>372</ele>
        <time>1970-01-01T06:21:12.000Z</time>
      </trkpt>
      <trkpt lat="42.211526" lon="2.451489">
        <ele>372</ele>
        <time>1970-01-01T06:21:13.000Z</time>
      </trkpt>
      <trkpt lat="42.211534" lon="2.451451">
        <ele>372</ele>
        <time>1970-01-01T06:21:14.000Z</time>
      </trkpt>
      <trkpt lat="42.211542" lon="2.451412">
        <ele>372</ele>
        <time>1970-01-01T06:21:15.000Z</time>
      </trkpt>
      <trkpt lat="42.21155" lon="2.451374">
        <ele>372</ele>
        <time>1970-01-01T06:21:16.000Z</time>
      </trkpt>
      <trkpt lat="42.211559" lon="2.451336">
        <ele>372</ele>
        <time>1970-01-01T06:21:17.000Z</time>
      </trkpt>
      <trkpt lat="42.211567" lon="2.451297">
        <ele>372</ele>
        <time>1970-01-01T06:21:18.000Z</time>
      </trkpt>
      <trkpt lat="42.211575" lon="2.451259">
        <ele>372</ele>
        <time>1970-01-01T06:21:19.000Z</time>
      </trkpt>
      <trkpt lat="42.211591" lon="2.451184">
        <ele>372</ele>
        <time>1970-01-01T06:21:20.000Z</time>
      </trkpt>
      <trkpt lat="42.211602" lon="2.451133">
        <ele>372</ele>
        <time>1970-01-01T06:21:21.000Z</time>
      </trkpt>
      <trkpt lat="42.211612" lon="2.451081">
        <ele>372</ele>
        <time>1970-01-01T06:21:22.000Z</time>
      </trkpt>
      <trkpt lat="42.211622" lon="2.45103">
        <ele>372</ele>
        <time>1970-01-01T06:21:23.000Z</time>
      </trkpt>
      <trkpt lat="42.211633" lon="2.450979">
        <ele>372</ele>
        <time>1970-01-01T06:21:24.000Z</time>
      </trkpt>
      <trkpt lat="42.211643" lon="2.450928">
        <ele>372</ele>
        <time>1970-01-01T06:21:25.000Z</time>
      </trkpt>
      <trkpt lat="42.211653" lon="2.450877">
        <ele>372</ele>
        <time>1970-01-01T06:21:26.000Z</time>
      </trkpt>
      <trkpt lat="42.211663" lon="2.450825">
        <ele>372</ele>
        <time>1970-01-01T06:21:27.000Z</time>
      </trkpt>
      <trkpt lat="42.211674" lon="2.450774">
        <ele>372</ele>
        <time>1970-01-01T06:21:28.000Z</time>
      </trkpt>
      <trkpt lat="42.211684" lon="2.450723">
        <ele>372</ele>
        <time>1970-01-01T06:21:29.000Z</time>
      </trkpt>
      <trkpt lat="42.2117" lon="2.450603">
        <ele>372</ele>
        <time>1970-01-01T06:21:30.000Z</time>
      </trkpt>
      <trkpt lat="42.211706" lon="2.450546">
        <ele>372</ele>
        <time>1970-01-01T06:21:31.000Z</time>
      </trkpt>
      <trkpt lat="42.211713" lon="2.450489">
        <ele>372</ele>
        <time>1970-01-01T06:21:32.000Z</time>
      </trkpt>
      <trkpt lat="42.211719" lon="2.450432">
        <ele>372</ele>
        <time>1970-01-01T06:21:33.000Z</time>
      </trkpt>
      <trkpt lat="42.211725" lon="2.450375">
        <ele>372</ele>
        <time>1970-01-01T06:21:34.000Z</time>
      </trkpt>
      <trkpt lat="42.211731" lon="2.450317">
        <ele>372</ele>
        <time>1970-01-01T06:21:35.000Z</time>
      </trkpt>
      <trkpt lat="42.211737" lon="2.45026">
        <ele>372</ele>
        <time>1970-01-01T06:21:36.000Z</time>
      </trkpt>
      <trkpt lat="42.211744" lon="2.450203">
        <ele>372</ele>
        <time>1970-01-01T06:21:37.000Z</time>
      </trkpt>
      <trkpt lat="42.21175" lon="2.450146">
        <ele>372</ele>
        <time>1970-01-01T06:21:38.000Z</time>
      </trkpt>
      <trkpt lat="42.211756" lon="2.450089">
        <ele>373</ele>
        <time>1970-01-01T06:21:39.000Z</time>
      </trkpt>
      <trkpt lat="42.211745" lon="2.449979">
        <ele>373</ele>
        <time>1970-01-01T06:21:40.000Z</time>
      </trkpt>
      <trkpt lat="42.211738" lon="2.449931">
        <ele>373</ele>
        <time>1970-01-01T06:21:41.000Z</time>
      </trkpt>
      <trkpt lat="42.211731" lon="2.449882">
        <ele>373</ele>
        <time>1970-01-01T06:21:42.000Z</time>
      </trkpt>
      <trkpt lat="42.211724" lon="2.449834">
        <ele>373</ele>
        <time>1970-01-01T06:21:43.000Z</time>
      </trkpt>
      <trkpt lat="42.211717" lon="2.449785">
        <ele>373</ele>
        <time>1970-01-01T06:21:44.000Z</time>
      </trkpt>
      <trkpt lat="42.211709" lon="2.449736">
        <ele>373</ele>
        <time>1970-01-01T06:21:45.000Z</time>
      </trkpt>
      <trkpt lat="42.211702" lon="2.449688">
        <ele>373</ele>
        <time>1970-01-01T06:21:46.000Z</time>
      </trkpt>
      <trkpt lat="42.211695" lon="2.449639">
        <ele>373</ele>
        <time>1970-01-01T06:21:47.000Z</time>
      </trkpt>
      <trkpt lat="42.211688" lon="2.449591">
        <ele>373</ele>
        <time>1970-01-01T06:21:48.000Z</time>
      </trkpt>
      <trkpt lat="42.211681" lon="2.449542">
        <ele>373</ele>
        <time>1970-01-01T06:21:49.000Z</time>
      </trkpt>
      <trkpt lat="42.211674" lon="2.449461">
        <ele>373</ele>
        <time>1970-01-01T06:21:50.000Z</time>
      </trkpt>
      <trkpt lat="42.211673" lon="2.449426">
        <ele>373</ele>
        <time>1970-01-01T06:21:51.000Z</time>
      </trkpt>
      <trkpt lat="42.211671" lon="2.449392">
        <ele>373</ele>
        <time>1970-01-01T06:21:52.000Z</time>
      </trkpt>
      <trkpt lat="42.21167" lon="2.449358">
        <ele>373</ele>
        <time>1970-01-01T06:21:53.000Z</time>
      </trkpt>
      <trkpt lat="42.211669" lon="2.449323">
        <ele>373</ele>
        <time>1970-01-01T06:21:54.000Z</time>
      </trkpt>
      <trkpt lat="42.211668" lon="2.449289">
        <ele>373</ele>
        <time>1970-01-01T06:21:55.000Z</time>
      </trkpt>
      <trkpt lat="42.211667" lon="2.449255">
        <ele>373</ele>
        <time>1970-01-01T06:21:56.000Z</time>
      </trkpt>
      <trkpt lat="42.211665" lon="2.449221">
        <ele>373</ele>
        <time>1970-01-01T06:21:57.000Z</time>
      </trkpt>
      <trkpt lat="42.211664" lon="2.449186">
        <ele>373</ele>
        <time>1970-01-01T06:21:58.000Z</time>
      </trkpt>
      <trkpt lat="42.211663" lon="2.449152">
        <ele>374</ele>
        <time>1970-01-01T06:21:59.000Z</time>
      </trkpt>
      <trkpt lat="42.21166" lon="2.449094">
        <ele>374</ele>
        <time>1970-01-01T06:22:00.000Z</time>
      </trkpt>
      <trkpt lat="42.211659" lon="2.449066">
        <ele>374</ele>
        <time>1970-01-01T06:22:01.000Z</time>
      </trkpt>
      <trkpt lat="42.211658" lon="2.449038">
        <ele>374</ele>
        <time>1970-01-01T06:22:02.000Z</time>
      </trkpt>
      <trkpt lat="42.211657" lon="2.44901">
        <ele>374</ele>
        <time>1970-01-01T06:22:03.000Z</time>
      </trkpt>
      <trkpt lat="42.211656" lon="2.448982">
        <ele>374</ele>
        <time>1970-01-01T06:22:04.000Z</time>
      </trkpt>
      <trkpt lat="42.211654" lon="2.448954">
        <ele>374</ele>
        <time>1970-01-01T06:22:05.000Z</time>
      </trkpt>
      <trkpt lat="42.211653" lon="2.448926">
        <ele>374</ele>
        <time>1970-01-01T06:22:06.000Z</time>
      </trkpt>
      <trkpt lat="42.211652" lon="2.448898">
        <ele>374</ele>
        <time>1970-01-01T06:22:07.000Z</time>
      </trkpt>
      <trkpt lat="42.211651" lon="2.44887">
        <ele>374</ele>
        <time>1970-01-01T06:22:08.000Z</time>
      </trkpt>
      <trkpt lat="42.21165" lon="2.448842">
        <ele>375</ele>
        <time>1970-01-01T06:22:09.000Z</time>
      </trkpt>
      <trkpt lat="42.211643" lon="2.448767">
        <ele>375</ele>
        <time>1970-01-01T06:22:11.000Z</time>
      </trkpt>
      <trkpt lat="42.211641" lon="2.448737">
        <ele>375</ele>
        <time>1970-01-01T06:22:13.000Z</time>
      </trkpt>
      <trkpt lat="42.21164" lon="2.448708">
        <ele>375</ele>
        <time>1970-01-01T06:22:15.000Z</time>
      </trkpt>
      <trkpt lat="42.211638" lon="2.448679">
        <ele>375</ele>
        <time>1970-01-01T06:22:16.000Z</time>
      </trkpt>
      <trkpt lat="42.211637" lon="2.44865">
        <ele>375</ele>
        <time>1970-01-01T06:22:17.000Z</time>
      </trkpt>
      <trkpt lat="42.211635" lon="2.44862">
        <ele>375</ele>
        <time>1970-01-01T06:22:18.000Z</time>
      </trkpt>
      <trkpt lat="42.211634" lon="2.448591">
        <ele>376</ele>
        <time>1970-01-01T06:22:19.000Z</time>
      </trkpt>
      <trkpt lat="42.211632" lon="2.448536">
        <ele>376</ele>
        <time>1970-01-01T06:22:20.000Z</time>
      </trkpt>
      <trkpt lat="42.211629" lon="2.448509">
        <ele>376</ele>
        <time>1970-01-01T06:22:21.000Z</time>
      </trkpt>
      <trkpt lat="42.211626" lon="2.448483">
        <ele>376</ele>
        <time>1970-01-01T06:22:22.000Z</time>
      </trkpt>
      <trkpt lat="42.211623" lon="2.448457">
        <ele>376</ele>
        <time>1970-01-01T06:22:23.000Z</time>
      </trkpt>
      <trkpt lat="42.21162" lon="2.44843">
        <ele>376</ele>
        <time>1970-01-01T06:22:24.000Z</time>
      </trkpt>
      <trkpt lat="42.211617" lon="2.448404">
        <ele>376</ele>
        <time>1970-01-01T06:22:25.000Z</time>
      </trkpt>
      <trkpt lat="42.211614" lon="2.448378">
        <ele>376</ele>
        <time>1970-01-01T06:22:26.000Z</time>
      </trkpt>
      <trkpt lat="42.211611" lon="2.448352">
        <ele>376</ele>
        <time>1970-01-01T06:22:27.000Z</time>
      </trkpt>
      <trkpt lat="42.211608" lon="2.448325">
        <ele>376</ele>
        <time>1970-01-01T06:22:28.000Z</time>
      </trkpt>
      <trkpt lat="42.211605" lon="2.448299">
        <ele>375</ele>
        <time>1970-01-01T06:22:29.000Z</time>
      </trkpt>
      <trkpt lat="42.211575" lon="2.448181">
        <ele>375</ele>
        <time>1970-01-01T06:22:31.000Z</time>
      </trkpt>
      <trkpt lat="42.211562" lon="2.448143">
        <ele>375</ele>
        <time>1970-01-01T06:22:33.000Z</time>
      </trkpt>
      <trkpt lat="42.211549" lon="2.448104">
        <ele>375</ele>
        <time>1970-01-01T06:22:34.000Z</time>
      </trkpt>
      <trkpt lat="42.211537" lon="2.448065">
        <ele>375</ele>
        <time>1970-01-01T06:22:36.000Z</time>
      </trkpt>
      <trkpt lat="42.211524" lon="2.448026">
        <ele>375</ele>
        <time>1970-01-01T06:22:37.000Z</time>
      </trkpt>
      <trkpt lat="42.211511" lon="2.447988">
        <ele>375</ele>
        <time>1970-01-01T06:22:38.000Z</time>
      </trkpt>
      <trkpt lat="42.211498" lon="2.447949">
        <ele>375</ele>
        <time>1970-01-01T06:22:39.000Z</time>
      </trkpt>
      <trkpt lat="42.211478" lon="2.447894">
        <ele>375</ele>
        <time>1970-01-01T06:22:40.000Z</time>
      </trkpt>
      <trkpt lat="42.211466" lon="2.447858">
        <ele>375</ele>
        <time>1970-01-01T06:22:41.000Z</time>
      </trkpt>
      <trkpt lat="42.211454" lon="2.447822">
        <ele>375</ele>
        <time>1970-01-01T06:22:42.000Z</time>
      </trkpt>
      <trkpt lat="42.211442" lon="2.447786">
        <ele>375</ele>
        <time>1970-01-01T06:22:43.000Z</time>
      </trkpt>
      <trkpt lat="42.211431" lon="2.447749">
        <ele>375</ele>
        <time>1970-01-01T06:22:44.000Z</time>
      </trkpt>
      <trkpt lat="42.211419" lon="2.447713">
        <ele>375</ele>
        <time>1970-01-01T06:22:45.000Z</time>
      </trkpt>
      <trkpt lat="42.211407" lon="2.447677">
        <ele>375</ele>
        <time>1970-01-01T06:22:46.000Z</time>
      </trkpt>
      <trkpt lat="42.211395" lon="2.447641">
        <ele>375</ele>
        <time>1970-01-01T06:22:47.000Z</time>
      </trkpt>
      <trkpt lat="42.211383" lon="2.447605">
        <ele>375</ele>
        <time>1970-01-01T06:22:48.000Z</time>
      </trkpt>
      <trkpt lat="42.211371" lon="2.447569">
        <ele>377</ele>
        <time>1970-01-01T06:22:49.000Z</time>
      </trkpt>
      <trkpt lat="42.211351" lon="2.447488">
        <ele>377</ele>
        <time>1970-01-01T06:22:50.000Z</time>
      </trkpt>
      <trkpt lat="42.211342" lon="2.447449">
        <ele>377</ele>
        <time>1970-01-01T06:22:51.000Z</time>
      </trkpt>
      <trkpt lat="42.211333" lon="2.447411">
        <ele>377</ele>
        <time>1970-01-01T06:22:52.000Z</time>
      </trkpt>
      <trkpt lat="42.211324" lon="2.447372">
        <ele>377</ele>
        <time>1970-01-01T06:22:53.000Z</time>
      </trkpt>
      <trkpt lat="42.211315" lon="2.447333">
        <ele>377</ele>
        <time>1970-01-01T06:22:54.000Z</time>
      </trkpt>
      <trkpt lat="42.211306" lon="2.447294">
        <ele>377</ele>
        <time>1970-01-01T06:22:55.000Z</time>
      </trkpt>
      <trkpt lat="42.211297" lon="2.447255">
        <ele>377</ele>
        <time>1970-01-01T06:22:56.000Z</time>
      </trkpt>
      <trkpt lat="42.211288" lon="2.447217">
        <ele>377</ele>
        <time>1970-01-01T06:22:57.000Z</time>
      </trkpt>
      <trkpt lat="42.211279" lon="2.447178">
        <ele>377</ele>
        <time>1970-01-01T06:22:58.000Z</time>
      </trkpt>
      <trkpt lat="42.21127" lon="2.447139">
        <ele>378</ele>
        <time>1970-01-01T06:22:59.000Z</time>
      </trkpt>
      <trkpt lat="42.211252" lon="2.447054">
        <ele>378</ele>
        <time>1970-01-01T06:23:00.000Z</time>
      </trkpt>
      <trkpt lat="42.211242" lon="2.447014">
        <ele>378</ele>
        <time>1970-01-01T06:23:01.000Z</time>
      </trkpt>
      <trkpt lat="42.211233" lon="2.446973">
        <ele>378</ele>
        <time>1970-01-01T06:23:02.000Z</time>
      </trkpt>
      <trkpt lat="42.211223" lon="2.446933">
        <ele>378</ele>
        <time>1970-01-01T06:23:03.000Z</time>
      </trkpt>
      <trkpt lat="42.211214" lon="2.446892">
        <ele>378</ele>
        <time>1970-01-01T06:23:04.000Z</time>
      </trkpt>
      <trkpt lat="42.211205" lon="2.446852">
        <ele>378</ele>
        <time>1970-01-01T06:23:05.000Z</time>
      </trkpt>
      <trkpt lat="42.211195" lon="2.446811">
        <ele>378</ele>
        <time>1970-01-01T06:23:06.000Z</time>
      </trkpt>
      <trkpt lat="42.211186" lon="2.446771">
        <ele>378</ele>
        <time>1970-01-01T06:23:07.000Z</time>
      </trkpt>
      <trkpt lat="42.211176" lon="2.44673">
        <ele>378</ele>
        <time>1970-01-01T06:23:08.000Z</time>
      </trkpt>
      <trkpt lat="42.211167" lon="2.44669">
        <ele>379</ele>
        <time>1970-01-01T06:23:09.000Z</time>
      </trkpt>
      <trkpt lat="42.211146" lon="2.446604">
        <ele>379</ele>
        <time>1970-01-01T06:23:10.000Z</time>
      </trkpt>
      <trkpt lat="42.211136" lon="2.446565">
        <ele>379</ele>
        <time>1970-01-01T06:23:11.000Z</time>
      </trkpt>
      <trkpt lat="42.211126" lon="2.446525">
        <ele>379</ele>
        <time>1970-01-01T06:23:12.000Z</time>
      </trkpt>
      <trkpt lat="42.211116" lon="2.446486">
        <ele>379</ele>
        <time>1970-01-01T06:23:13.000Z</time>
      </trkpt>
      <trkpt lat="42.211106" lon="2.446446">
        <ele>379</ele>
        <time>1970-01-01T06:23:14.000Z</time>
      </trkpt>
      <trkpt lat="42.211095" lon="2.446406">
        <ele>379</ele>
        <time>1970-01-01T06:23:15.000Z</time>
      </trkpt>
      <trkpt lat="42.211085" lon="2.446367">
        <ele>379</ele>
        <time>1970-01-01T06:23:16.000Z</time>
      </trkpt>
      <trkpt lat="42.211075" lon="2.446327">
        <ele>379</ele>
        <time>1970-01-01T06:23:17.000Z</time>
      </trkpt>
      <trkpt lat="42.211065" lon="2.446288">
        <ele>379</ele>
        <time>1970-01-01T06:23:18.000Z</time>
      </trkpt>
      <trkpt lat="42.211055" lon="2.446248">
        <ele>380</ele>
        <time>1970-01-01T06:23:19.000Z</time>
      </trkpt>
      <trkpt lat="42.211036" lon="2.446165">
        <ele>380</ele>
        <time>1970-01-01T06:23:20.000Z</time>
      </trkpt>
      <trkpt lat="42.211027" lon="2.446122">
        <ele>380</ele>
        <time>1970-01-01T06:23:21.000Z</time>
      </trkpt>
      <trkpt lat="42.211018" lon="2.446078">
        <ele>380</ele>
        <time>1970-01-01T06:23:22.000Z</time>
      </trkpt>
      <trkpt lat="42.211009" lon="2.446035">
        <ele>380</ele>
        <time>1970-01-01T06:23:23.000Z</time>
      </trkpt>
      <trkpt lat="42.211" lon="2.445992">
        <ele>380</ele>
        <time>1970-01-01T06:23:24.000Z</time>
      </trkpt>
      <trkpt lat="42.21099" lon="2.445949">
        <ele>380</ele>
        <time>1970-01-01T06:23:25.000Z</time>
      </trkpt>
      <trkpt lat="42.210981" lon="2.445906">
        <ele>380</ele>
        <time>1970-01-01T06:23:26.000Z</time>
      </trkpt>
      <trkpt lat="42.210972" lon="2.445862">
        <ele>380</ele>
        <time>1970-01-01T06:23:27.000Z</time>
      </trkpt>
      <trkpt lat="42.210963" lon="2.445819">
        <ele>380</ele>
        <time>1970-01-01T06:23:28.000Z</time>
      </trkpt>
      <trkpt lat="42.210954" lon="2.445776">
        <ele>380</ele>
        <time>1970-01-01T06:23:29.000Z</time>
      </trkpt>
      <trkpt lat="42.210918" lon="2.445629">
        <ele>380</ele>
        <time>1970-01-01T06:23:30.000Z</time>
      </trkpt>
      <trkpt lat="42.210899" lon="2.445556">
        <ele>380</ele>
        <time>1970-01-01T06:23:32.000Z</time>
      </trkpt>
      <trkpt lat="42.210881" lon="2.445484">
        <ele>380</ele>
        <time>1970-01-01T06:23:34.000Z</time>
      </trkpt>
      <trkpt lat="42.210863" lon="2.445412">
        <ele>380</ele>
        <time>1970-01-01T06:23:36.000Z</time>
      </trkpt>
      <trkpt lat="42.210844" lon="2.445339">
        <ele>380</ele>
        <time>1970-01-01T06:23:37.000Z</time>
      </trkpt>
      <trkpt lat="42.210826" lon="2.445267">
        <ele>381</ele>
        <time>1970-01-01T06:23:39.000Z</time>
      </trkpt>
      <trkpt lat="42.210797" lon="2.44514">
        <ele>381</ele>
        <time>1970-01-01T06:23:41.000Z</time>
      </trkpt>
      <trkpt lat="42.210786" lon="2.445083">
        <ele>381</ele>
        <time>1970-01-01T06:23:42.000Z</time>
      </trkpt>
      <trkpt lat="42.210776" lon="2.445026">
        <ele>381</ele>
        <time>1970-01-01T06:23:43.000Z</time>
      </trkpt>
      <trkpt lat="42.210766" lon="2.44497">
        <ele>381</ele>
        <time>1970-01-01T06:23:45.000Z</time>
      </trkpt>
      <trkpt lat="42.210756" lon="2.444913">
        <ele>381</ele>
        <time>1970-01-01T06:23:46.000Z</time>
      </trkpt>
      <trkpt lat="42.210745" lon="2.444856">
        <ele>381</ele>
        <time>1970-01-01T06:23:47.000Z</time>
      </trkpt>
      <trkpt lat="42.210735" lon="2.444799">
        <ele>381</ele>
        <time>1970-01-01T06:23:49.000Z</time>
      </trkpt>
      <trkpt lat="42.210732" lon="2.444635">
        <ele>381</ele>
        <time>1970-01-01T06:23:50.000Z</time>
      </trkpt>
      <trkpt lat="42.210734" lon="2.444578">
        <ele>381</ele>
        <time>1970-01-01T06:23:52.000Z</time>
      </trkpt>
      <trkpt lat="42.210736" lon="2.444521">
        <ele>381</ele>
        <time>1970-01-01T06:23:53.000Z</time>
      </trkpt>
      <trkpt lat="42.210738" lon="2.444464">
        <ele>381</ele>
        <time>1970-01-01T06:23:55.000Z</time>
      </trkpt>
      <trkpt lat="42.21074" lon="2.444406">
        <ele>381</ele>
        <time>1970-01-01T06:23:56.000Z</time>
      </trkpt>
      <trkpt lat="42.210742" lon="2.444349">
        <ele>381</ele>
        <time>1970-01-01T06:23:57.000Z</time>
      </trkpt>
      <trkpt lat="42.210744" lon="2.444292">
        <ele>381</ele>
        <time>1970-01-01T06:23:58.000Z</time>
      </trkpt>
      <trkpt lat="42.210746" lon="2.444235">
        <ele>382</ele>
        <time>1970-01-01T06:23:59.000Z</time>
      </trkpt>
      <trkpt lat="42.210756" lon="2.444109">
        <ele>382</ele>
        <time>1970-01-01T06:24:00.000Z</time>
      </trkpt>
      <trkpt lat="42.210761" lon="2.444043">
        <ele>382</ele>
        <time>1970-01-01T06:24:01.000Z</time>
      </trkpt>
      <trkpt lat="42.210766" lon="2.443976">
        <ele>382</ele>
        <time>1970-01-01T06:24:02.000Z</time>
      </trkpt>
      <trkpt lat="42.210771" lon="2.44391">
        <ele>382</ele>
        <time>1970-01-01T06:24:03.000Z</time>
      </trkpt>
      <trkpt lat="42.210776" lon="2.443843">
        <ele>382</ele>
        <time>1970-01-01T06:24:04.000Z</time>
      </trkpt>
      <trkpt lat="42.210781" lon="2.443777">
        <ele>382</ele>
        <time>1970-01-01T06:24:05.000Z</time>
      </trkpt>
      <trkpt lat="42.210786" lon="2.44371">
        <ele>382</ele>
        <time>1970-01-01T06:24:06.000Z</time>
      </trkpt>
      <trkpt lat="42.210791" lon="2.443644">
        <ele>382</ele>
        <time>1970-01-01T06:24:07.000Z</time>
      </trkpt>
      <trkpt lat="42.210796" lon="2.443577">
        <ele>383</ele>
        <time>1970-01-01T06:24:09.000Z</time>
      </trkpt>
      <trkpt lat="42.210806" lon="2.443458">
        <ele>383</ele>
        <time>1970-01-01T06:24:10.000Z</time>
      </trkpt>
      <trkpt lat="42.210811" lon="2.4434">
        <ele>383</ele>
        <time>1970-01-01T06:24:11.000Z</time>
      </trkpt>
      <trkpt lat="42.210815" lon="2.443341">
        <ele>383</ele>
        <time>1970-01-01T06:24:12.000Z</time>
      </trkpt>
      <trkpt lat="42.21082" lon="2.443282">
        <ele>383</ele>
        <time>1970-01-01T06:24:13.000Z</time>
      </trkpt>
      <trkpt lat="42.210825" lon="2.443224">
        <ele>383</ele>
        <time>1970-01-01T06:24:14.000Z</time>
      </trkpt>
      <trkpt lat="42.21083" lon="2.443165">
        <ele>383</ele>
        <time>1970-01-01T06:24:16.000Z</time>
      </trkpt>
      <trkpt lat="42.210834" lon="2.443106">
        <ele>383</ele>
        <time>1970-01-01T06:24:17.000Z</time>
      </trkpt>
      <trkpt lat="42.210839" lon="2.443048">
        <ele>383</ele>
        <time>1970-01-01T06:24:18.000Z</time>
      </trkpt>
      <trkpt lat="42.210844" lon="2.442989">
        <ele>383</ele>
        <time>1970-01-01T06:24:19.000Z</time>
      </trkpt>
      <trkpt lat="42.210851" lon="2.442878">
        <ele>383</ele>
        <time>1970-01-01T06:24:20.000Z</time>
      </trkpt>
      <trkpt lat="42.210855" lon="2.442824">
        <ele>383</ele>
        <time>1970-01-01T06:24:21.000Z</time>
      </trkpt>
      <trkpt lat="42.210859" lon="2.442771">
        <ele>383</ele>
        <time>1970-01-01T06:24:22.000Z</time>
      </trkpt>
      <trkpt lat="42.210863" lon="2.442718">
        <ele>383</ele>
        <time>1970-01-01T06:24:23.000Z</time>
      </trkpt>
      <trkpt lat="42.210867" lon="2.442665">
        <ele>383</ele>
        <time>1970-01-01T06:24:24.000Z</time>
      </trkpt>
      <trkpt lat="42.210871" lon="2.442611">
        <ele>383</ele>
        <time>1970-01-01T06:24:25.000Z</time>
      </trkpt>
      <trkpt lat="42.210875" lon="2.442558">
        <ele>383</ele>
        <time>1970-01-01T06:24:26.000Z</time>
      </trkpt>
      <trkpt lat="42.210879" lon="2.442505">
        <ele>383</ele>
        <time>1970-01-01T06:24:27.000Z</time>
      </trkpt>
      <trkpt lat="42.210883" lon="2.442451">
        <ele>383</ele>
        <time>1970-01-01T06:24:28.000Z</time>
      </trkpt>
      <trkpt lat="42.210887" lon="2.442398">
        <ele>385</ele>
        <time>1970-01-01T06:24:29.000Z</time>
      </trkpt>
      <trkpt lat="42.2109" lon="2.442206">
        <ele>385</ele>
        <time>1970-01-01T06:24:31.000Z</time>
      </trkpt>
      <trkpt lat="42.210905" lon="2.442133">
        <ele>385</ele>
        <time>1970-01-01T06:24:32.000Z</time>
      </trkpt>
      <trkpt lat="42.210909" lon="2.442061">
        <ele>385</ele>
        <time>1970-01-01T06:24:33.000Z</time>
      </trkpt>
      <trkpt lat="42.210913" lon="2.441989">
        <ele>385</ele>
        <time>1970-01-01T06:24:35.000Z</time>
      </trkpt>
      <trkpt lat="42.210917" lon="2.441917">
        <ele>385</ele>
        <time>1970-01-01T06:24:36.000Z</time>
      </trkpt>
      <trkpt lat="42.210922" lon="2.441844">
        <ele>385</ele>
        <time>1970-01-01T06:24:37.000Z</time>
      </trkpt>
      <trkpt lat="42.210926" lon="2.441772">
        <ele>386</ele>
        <time>1970-01-01T06:24:39.000Z</time>
      </trkpt>
      <trkpt lat="42.21093" lon="2.441652">
        <ele>386</ele>
        <time>1970-01-01T06:24:40.000Z</time>
      </trkpt>
      <trkpt lat="42.210931" lon="2.441597">
        <ele>386</ele>
        <time>1970-01-01T06:24:41.000Z</time>
      </trkpt>
      <trkpt lat="42.210931" lon="2.441541">
        <ele>386</ele>
        <time>1970-01-01T06:24:42.000Z</time>
      </trkpt>
      <trkpt lat="42.210932" lon="2.441486">
        <ele>386</ele>
        <time>1970-01-01T06:24:43.000Z</time>
      </trkpt>
      <trkpt lat="42.210933" lon="2.441431">
        <ele>386</ele>
        <time>1970-01-01T06:24:44.000Z</time>
      </trkpt>
      <trkpt lat="42.210934" lon="2.441376">
        <ele>386</ele>
        <time>1970-01-01T06:24:45.000Z</time>
      </trkpt>
      <trkpt lat="42.210935" lon="2.441321">
        <ele>386</ele>
        <time>1970-01-01T06:24:46.000Z</time>
      </trkpt>
      <trkpt lat="42.210935" lon="2.441265">
        <ele>386</ele>
        <time>1970-01-01T06:24:47.000Z</time>
      </trkpt>
      <trkpt lat="42.210936" lon="2.44121">
        <ele>386</ele>
        <time>1970-01-01T06:24:48.000Z</time>
      </trkpt>
      <trkpt lat="42.210937" lon="2.441155">
        <ele>386</ele>
        <time>1970-01-01T06:24:49.000Z</time>
      </trkpt>
      <trkpt lat="42.210921" lon="2.44105">
        <ele>386</ele>
        <time>1970-01-01T06:24:50.000Z</time>
      </trkpt>
      <trkpt lat="42.210906" lon="2.440976">
        <ele>386</ele>
        <time>1970-01-01T06:24:51.000Z</time>
      </trkpt>
      <trkpt lat="42.210891" lon="2.440903">
        <ele>386</ele>
        <time>1970-01-01T06:24:53.000Z</time>
      </trkpt>
      <trkpt lat="42.210877" lon="2.440829">
        <ele>386</ele>
        <time>1970-01-01T06:24:54.000Z</time>
      </trkpt>
      <trkpt lat="42.210862" lon="2.440755">
        <ele>386</ele>
        <time>1970-01-01T06:24:55.000Z</time>
      </trkpt>
      <trkpt lat="42.210847" lon="2.440681">
        <ele>386</ele>
        <time>1970-01-01T06:24:56.000Z</time>
      </trkpt>
      <trkpt lat="42.210832" lon="2.440608">
        <ele>386</ele>
        <time>1970-01-01T06:24:57.000Z</time>
      </trkpt>
      <trkpt lat="42.210817" lon="2.440534">
        <ele>385</ele>
        <time>1970-01-01T06:24:59.000Z</time>
      </trkpt>
      <trkpt lat="42.210781" lon="2.440419">
        <ele>385</ele>
        <time>1970-01-01T06:25:00.000Z</time>
      </trkpt>
      <trkpt lat="42.210758" lon="2.440349">
        <ele>385</ele>
        <time>1970-01-01T06:25:01.000Z</time>
      </trkpt>
      <trkpt lat="42.210736" lon="2.440278">
        <ele>385</ele>
        <time>1970-01-01T06:25:03.000Z</time>
      </trkpt>
      <trkpt lat="42.210713" lon="2.440207">
        <ele>385</ele>
        <time>1970-01-01T06:25:04.000Z</time>
      </trkpt>
      <trkpt lat="42.210691" lon="2.440137">
        <ele>385</ele>
        <time>1970-01-01T06:25:05.000Z</time>
      </trkpt>
      <trkpt lat="42.210668" lon="2.440066">
        <ele>385</ele>
        <time>1970-01-01T06:25:06.000Z</time>
      </trkpt>
      <trkpt lat="42.210646" lon="2.439995">
        <ele>385</ele>
        <time>1970-01-01T06:25:07.000Z</time>
      </trkpt>
      <trkpt lat="42.210623" lon="2.439925">
        <ele>385</ele>
        <time>1970-01-01T06:25:08.000Z</time>
      </trkpt>
      <trkpt lat="42.210601" lon="2.439854">
        <ele>385</ele>
        <time>1970-01-01T06:25:09.000Z</time>
      </trkpt>
      <trkpt lat="42.210565" lon="2.439691">
        <ele>385</ele>
        <time>1970-01-01T06:25:10.000Z</time>
      </trkpt>
      <trkpt lat="42.210557" lon="2.439633">
        <ele>385</ele>
        <time>1970-01-01T06:25:12.000Z</time>
      </trkpt>
      <trkpt lat="42.210548" lon="2.439574">
        <ele>385</ele>
        <time>1970-01-01T06:25:13.000Z</time>
      </trkpt>
      <trkpt lat="42.210539" lon="2.439516">
        <ele>385</ele>
        <time>1970-01-01T06:25:14.000Z</time>
      </trkpt>
      <trkpt lat="42.210531" lon="2.439457">
        <ele>385</ele>
        <time>1970-01-01T06:25:15.000Z</time>
      </trkpt>
      <trkpt lat="42.210522" lon="2.439399">
        <ele>385</ele>
        <time>1970-01-01T06:25:16.000Z</time>
      </trkpt>
      <trkpt lat="42.210513" lon="2.43934">
        <ele>385</ele>
        <time>1970-01-01T06:25:17.000Z</time>
      </trkpt>
      <trkpt lat="42.210505" lon="2.439282">
        <ele>385</ele>
        <time>1970-01-01T06:25:18.000Z</time>
      </trkpt>
      <trkpt lat="42.210496" lon="2.439223">
        <ele>385</ele>
        <time>1970-01-01T06:25:19.000Z</time>
      </trkpt>
      <trkpt lat="42.210493" lon="2.439111">
        <ele>385</ele>
        <time>1970-01-01T06:25:20.000Z</time>
      </trkpt>
      <trkpt lat="42.210494" lon="2.43906">
        <ele>385</ele>
        <time>1970-01-01T06:25:21.000Z</time>
      </trkpt>
      <trkpt lat="42.210496" lon="2.439009">
        <ele>385</ele>
        <time>1970-01-01T06:25:22.000Z</time>
      </trkpt>
      <trkpt lat="42.210497" lon="2.438958">
        <ele>385</ele>
        <time>1970-01-01T06:25:23.000Z</time>
      </trkpt>
      <trkpt lat="42.210498" lon="2.438907">
        <ele>385</ele>
        <time>1970-01-01T06:25:24.000Z</time>
      </trkpt>
      <trkpt lat="42.210499" lon="2.438855">
        <ele>385</ele>
        <time>1970-01-01T06:25:25.000Z</time>
      </trkpt>
      <trkpt lat="42.2105" lon="2.438804">
        <ele>385</ele>
        <time>1970-01-01T06:25:26.000Z</time>
      </trkpt>
      <trkpt lat="42.210502" lon="2.438753">
        <ele>385</ele>
        <time>1970-01-01T06:25:27.000Z</time>
      </trkpt>
      <trkpt lat="42.210503" lon="2.438702">
        <ele>385</ele>
        <time>1970-01-01T06:25:28.000Z</time>
      </trkpt>
      <trkpt lat="42.210504" lon="2.438651">
        <ele>386</ele>
        <time>1970-01-01T06:25:29.000Z</time>
      </trkpt>
      <trkpt lat="42.210509" lon="2.438546">
        <ele>386</ele>
        <time>1970-01-01T06:25:30.000Z</time>
      </trkpt>
      <trkpt lat="42.210511" lon="2.4385">
        <ele>386</ele>
        <time>1970-01-01T06:25:31.000Z</time>
      </trkpt>
      <trkpt lat="42.210514" lon="2.438453">
        <ele>386</ele>
        <time>1970-01-01T06:25:32.000Z</time>
      </trkpt>
      <trkpt lat="42.210516" lon="2.438407">
        <ele>386</ele>
        <time>1970-01-01T06:25:33.000Z</time>
      </trkpt>
      <trkpt lat="42.210519" lon="2.43836">
        <ele>386</ele>
        <time>1970-01-01T06:25:34.000Z</time>
      </trkpt>
      <trkpt lat="42.210522" lon="2.438313">
        <ele>386</ele>
        <time>1970-01-01T06:25:35.000Z</time>
      </trkpt>
      <trkpt lat="42.210524" lon="2.438267">
        <ele>386</ele>
        <time>1970-01-01T06:25:36.000Z</time>
      </trkpt>
      <trkpt lat="42.210527" lon="2.43822">
        <ele>386</ele>
        <time>1970-01-01T06:25:37.000Z</time>
      </trkpt>
      <trkpt lat="42.210529" lon="2.438174">
        <ele>386</ele>
        <time>1970-01-01T06:25:38.000Z</time>
      </trkpt>
      <trkpt lat="42.210532" lon="2.438127">
        <ele>386</ele>
        <time>1970-01-01T06:25:39.000Z</time>
      </trkpt>
      <trkpt lat="42.210543" lon="2.438038">
        <ele>386</ele>
        <time>1970-01-01T06:25:40.000Z</time>
      </trkpt>
      <trkpt lat="42.210552" lon="2.437996">
        <ele>386</ele>
        <time>1970-01-01T06:25:41.000Z</time>
      </trkpt>
      <trkpt lat="42.210562" lon="2.437953">
        <ele>386</ele>
        <time>1970-01-01T06:25:42.000Z</time>
      </trkpt>
      <trkpt lat="42.210571" lon="2.437911">
        <ele>386</ele>
        <time>1970-01-01T06:25:43.000Z</time>
      </trkpt>
      <trkpt lat="42.21058" lon="2.437869">
        <ele>386</ele>
        <time>1970-01-01T06:25:44.000Z</time>
      </trkpt>
      <trkpt lat="42.210589" lon="2.437827">
        <ele>386</ele>
        <time>1970-01-01T06:25:45.000Z</time>
      </trkpt>
      <trkpt lat="42.210598" lon="2.437785">
        <ele>386</ele>
        <time>1970-01-01T06:25:46.000Z</time>
      </trkpt>
      <trkpt lat="42.210608" lon="2.437742">
        <ele>386</ele>
        <time>1970-01-01T06:25:47.000Z</time>
      </trkpt>
      <trkpt lat="42.210617" lon="2.4377">
        <ele>386</ele>
        <time>1970-01-01T06:25:48.000Z</time>
      </trkpt>
      <trkpt lat="42.210626" lon="2.437658">
        <ele>388</ele>
        <time>1970-01-01T06:25:49.000Z</time>
      </trkpt>
      <trkpt lat="42.210662" lon="2.437573">
        <ele>388</ele>
        <time>1970-01-01T06:25:50.000Z</time>
      </trkpt>
      <trkpt lat="42.210679" lon="2.437532">
        <ele>388</ele>
        <time>1970-01-01T06:25:51.000Z</time>
      </trkpt>
      <trkpt lat="42.210697" lon="2.437492">
        <ele>388</ele>
        <time>1970-01-01T06:25:52.000Z</time>
      </trkpt>
      <trkpt lat="42.210714" lon="2.437451">
        <ele>388</ele>
        <time>1970-01-01T06:25:53.000Z</time>
      </trkpt>
      <trkpt lat="42.210732" lon="2.437411">
        <ele>388</ele>
        <time>1970-01-01T06:25:54.000Z</time>
      </trkpt>
      <trkpt lat="42.210749" lon="2.43737">
        <ele>388</ele>
        <time>1970-01-01T06:25:55.000Z</time>
      </trkpt>
      <trkpt lat="42.210767" lon="2.43733">
        <ele>388</ele>
        <time>1970-01-01T06:25:56.000Z</time>
      </trkpt>
      <trkpt lat="42.210784" lon="2.437289">
        <ele>388</ele>
        <time>1970-01-01T06:25:57.000Z</time>
      </trkpt>
      <trkpt lat="42.210802" lon="2.437249">
        <ele>388</ele>
        <time>1970-01-01T06:25:58.000Z</time>
      </trkpt>
      <trkpt lat="42.210819" lon="2.437208">
        <ele>388</ele>
        <time>1970-01-01T06:25:59.000Z</time>
      </trkpt>
      <trkpt lat="42.210837" lon="2.437168">
        <ele>389</ele>
        <time>1970-01-01T06:26:00.000Z</time>
      </trkpt>
      <trkpt lat="42.210883" lon="2.437089">
        <ele>389</ele>
        <time>1970-01-01T06:26:01.000Z</time>
      </trkpt>
      <trkpt lat="42.210908" lon="2.437055">
        <ele>389</ele>
        <time>1970-01-01T06:26:02.000Z</time>
      </trkpt>
      <trkpt lat="42.210933" lon="2.43702">
        <ele>389</ele>
        <time>1970-01-01T06:26:03.000Z</time>
      </trkpt>
      <trkpt lat="42.210958" lon="2.436986">
        <ele>389</ele>
        <time>1970-01-01T06:26:04.000Z</time>
      </trkpt>
      <trkpt lat="42.210982" lon="2.436952">
        <ele>389</ele>
        <time>1970-01-01T06:26:05.000Z</time>
      </trkpt>
      <trkpt lat="42.211007" lon="2.436918">
        <ele>389</ele>
        <time>1970-01-01T06:26:06.000Z</time>
      </trkpt>
      <trkpt lat="42.211032" lon="2.436883">
        <ele>389</ele>
        <time>1970-01-01T06:26:07.000Z</time>
      </trkpt>
      <trkpt lat="42.211057" lon="2.436849">
        <ele>389</ele>
        <time>1970-01-01T06:26:08.000Z</time>
      </trkpt>
      <trkpt lat="42.211082" lon="2.436815">
        <ele>389</ele>
        <time>1970-01-01T06:26:09.000Z</time>
      </trkpt>
      <trkpt lat="42.211151" lon="2.436771">
        <ele>389</ele>
        <time>1970-01-01T06:26:10.000Z</time>
      </trkpt>
      <trkpt lat="42.211185" lon="2.436753">
        <ele>389</ele>
        <time>1970-01-01T06:26:11.000Z</time>
      </trkpt>
      <trkpt lat="42.211218" lon="2.436736">
        <ele>389</ele>
        <time>1970-01-01T06:26:12.000Z</time>
      </trkpt>
      <trkpt lat="42.211252" lon="2.436719">
        <ele>389</ele>
        <time>1970-01-01T06:26:13.000Z</time>
      </trkpt>
      <trkpt lat="42.211286" lon="2.436702">
        <ele>389</ele>
        <time>1970-01-01T06:26:14.000Z</time>
      </trkpt>
      <trkpt lat="42.21132" lon="2.436684">
        <ele>389</ele>
        <time>1970-01-01T06:26:15.000Z</time>
      </trkpt>
      <trkpt lat="42.211354" lon="2.436667">
        <ele>389</ele>
        <time>1970-01-01T06:26:16.000Z</time>
      </trkpt>
      <trkpt lat="42.211387" lon="2.43665">
        <ele>389</ele>
        <time>1970-01-01T06:26:17.000Z</time>
      </trkpt>
      <trkpt lat="42.211421" lon="2.436632">
        <ele>389</ele>
        <time>1970-01-01T06:26:18.000Z</time>
      </trkpt>
      <trkpt lat="42.211455" lon="2.436615">
        <ele>390</ele>
        <time>1970-01-01T06:26:19.000Z</time>
      </trkpt>
      <trkpt lat="42.211529" lon="2.436579">
        <ele>390</ele>
        <time>1970-01-01T06:26:20.000Z</time>
      </trkpt>
      <trkpt lat="42.211565" lon="2.436563">
        <ele>390</ele>
        <time>1970-01-01T06:26:21.000Z</time>
      </trkpt>
      <trkpt lat="42.2116" lon="2.436546">
        <ele>390</ele>
        <time>1970-01-01T06:26:22.000Z</time>
      </trkpt>
      <trkpt lat="42.211636" lon="2.436529">
        <ele>390</ele>
        <time>1970-01-01T06:26:23.000Z</time>
      </trkpt>
      <trkpt lat="42.211671" lon="2.436513">
        <ele>390</ele>
        <time>1970-01-01T06:26:24.000Z</time>
      </trkpt>
      <trkpt lat="42.211706" lon="2.436496">
        <ele>390</ele>
        <time>1970-01-01T06:26:25.000Z</time>
      </trkpt>
      <trkpt lat="42.211742" lon="2.436479">
        <ele>390</ele>
        <time>1970-01-01T06:26:26.000Z</time>
      </trkpt>
      <trkpt lat="42.211777" lon="2.436462">
        <ele>390</ele>
        <time>1970-01-01T06:26:27.000Z</time>
      </trkpt>
      <trkpt lat="42.211813" lon="2.436446">
        <ele>390</ele>
        <time>1970-01-01T06:26:28.000Z</time>
      </trkpt>
      <trkpt lat="42.211848" lon="2.436429">
        <ele>390</ele>
        <time>1970-01-01T06:26:29.000Z</time>
      </trkpt>
      <trkpt lat="42.211921" lon="2.436396">
        <ele>390</ele>
        <time>1970-01-01T06:26:30.000Z</time>
      </trkpt>
      <trkpt lat="42.211956" lon="2.436378">
        <ele>390</ele>
        <time>1970-01-01T06:26:31.000Z</time>
      </trkpt>
      <trkpt lat="42.21199" lon="2.436361">
        <ele>390</ele>
        <time>1970-01-01T06:26:32.000Z</time>
      </trkpt>
      <trkpt lat="42.212024" lon="2.436343">
        <ele>390</ele>
        <time>1970-01-01T06:26:33.000Z</time>
      </trkpt>
      <trkpt lat="42.212059" lon="2.436326">
        <ele>390</ele>
        <time>1970-01-01T06:26:34.000Z</time>
      </trkpt>
      <trkpt lat="42.212093" lon="2.436309">
        <ele>390</ele>
        <time>1970-01-01T06:26:35.000Z</time>
      </trkpt>
      <trkpt lat="42.212127" lon="2.436291">
        <ele>390</ele>
        <time>1970-01-01T06:26:36.000Z</time>
      </trkpt>
      <trkpt lat="42.212161" lon="2.436274">
        <ele>390</ele>
        <time>1970-01-01T06:26:37.000Z</time>
      </trkpt>
      <trkpt lat="42.212196" lon="2.436256">
        <ele>390</ele>
        <time>1970-01-01T06:26:38.000Z</time>
      </trkpt>
      <trkpt lat="42.21223" lon="2.436239">
        <ele>392</ele>
        <time>1970-01-01T06:26:39.000Z</time>
      </trkpt>
      <trkpt lat="42.212291" lon="2.436188">
        <ele>392</ele>
        <time>1970-01-01T06:26:40.000Z</time>
      </trkpt>
      <trkpt lat="42.212314" lon="2.436159">
        <ele>392</ele>
        <time>1970-01-01T06:26:41.000Z</time>
      </trkpt>
      <trkpt lat="42.212338" lon="2.43613">
        <ele>392</ele>
        <time>1970-01-01T06:26:42.000Z</time>
      </trkpt>
      <trkpt lat="42.212361" lon="2.436101">
        <ele>392</ele>
        <time>1970-01-01T06:26:43.000Z</time>
      </trkpt>
      <trkpt lat="42.212385" lon="2.436072">
        <ele>392</ele>
        <time>1970-01-01T06:26:44.000Z</time>
      </trkpt>
      <trkpt lat="42.212408" lon="2.436043">
        <ele>392</ele>
        <time>1970-01-01T06:26:45.000Z</time>
      </trkpt>
      <trkpt lat="42.212432" lon="2.436014">
        <ele>392</ele>
        <time>1970-01-01T06:26:46.000Z</time>
      </trkpt>
      <trkpt lat="42.212455" lon="2.435985">
        <ele>392</ele>
        <time>1970-01-01T06:26:47.000Z</time>
      </trkpt>
      <trkpt lat="42.212479" lon="2.435956">
        <ele>392</ele>
        <time>1970-01-01T06:26:48.000Z</time>
      </trkpt>
      <trkpt lat="42.212502" lon="2.435927">
        <ele>392</ele>
        <time>1970-01-01T06:26:49.000Z</time>
      </trkpt>
      <trkpt lat="42.212513" lon="2.435839">
        <ele>392</ele>
        <time>1970-01-01T06:26:50.000Z</time>
      </trkpt>
      <trkpt lat="42.212512" lon="2.435794">
        <ele>392</ele>
        <time>1970-01-01T06:26:51.000Z</time>
      </trkpt>
      <trkpt lat="42.212512" lon="2.435748">
        <ele>392</ele>
        <time>1970-01-01T06:26:53.000Z</time>
      </trkpt>
      <trkpt lat="42.212511" lon="2.435703">
        <ele>392</ele>
        <time>1970-01-01T06:26:54.000Z</time>
      </trkpt>
      <trkpt lat="42.21251" lon="2.435658">
        <ele>392</ele>
        <time>1970-01-01T06:26:55.000Z</time>
      </trkpt>
      <trkpt lat="42.212509" lon="2.435613">
        <ele>392</ele>
        <time>1970-01-01T06:26:56.000Z</time>
      </trkpt>
      <trkpt lat="42.212509" lon="2.435567">
        <ele>392</ele>
        <time>1970-01-01T06:26:57.000Z</time>
      </trkpt>
      <trkpt lat="42.212508" lon="2.435522">
        <ele>392</ele>
        <time>1970-01-01T06:26:58.000Z</time>
      </trkpt>
      <trkpt lat="42.212507" lon="2.435477">
        <ele>393</ele>
        <time>1970-01-01T06:26:59.000Z</time>
      </trkpt>
      <trkpt lat="42.212509" lon="2.435379">
        <ele>393</ele>
        <time>1970-01-01T06:27:00.000Z</time>
      </trkpt>
      <trkpt lat="42.212513" lon="2.435331">
        <ele>393</ele>
        <time>1970-01-01T06:27:01.000Z</time>
      </trkpt>
      <trkpt lat="42.212517" lon="2.435283">
        <ele>393</ele>
        <time>1970-01-01T06:27:02.000Z</time>
      </trkpt>
      <trkpt lat="42.212521" lon="2.435235">
        <ele>393</ele>
        <time>1970-01-01T06:27:03.000Z</time>
      </trkpt>
      <trkpt lat="42.212526" lon="2.435188">
        <ele>393</ele>
        <time>1970-01-01T06:27:05.000Z</time>
      </trkpt>
      <trkpt lat="42.21253" lon="2.43514">
        <ele>393</ele>
        <time>1970-01-01T06:27:06.000Z</time>
      </trkpt>
      <trkpt lat="42.212534" lon="2.435092">
        <ele>393</ele>
        <time>1970-01-01T06:27:07.000Z</time>
      </trkpt>
      <trkpt lat="42.212538" lon="2.435044">
        <ele>393</ele>
        <time>1970-01-01T06:27:08.000Z</time>
      </trkpt>
      <trkpt lat="42.212542" lon="2.434996">
        <ele>394</ele>
        <time>1970-01-01T06:27:09.000Z</time>
      </trkpt>
      <trkpt lat="42.212566" lon="2.434898">
        <ele>394</ele>
        <time>1970-01-01T06:27:10.000Z</time>
      </trkpt>
      <trkpt lat="42.212575" lon="2.43486">
        <ele>394</ele>
        <time>1970-01-01T06:27:12.000Z</time>
      </trkpt>
      <trkpt lat="42.212584" lon="2.434822">
        <ele>394</ele>
        <time>1970-01-01T06:27:13.000Z</time>
      </trkpt>
      <trkpt lat="42.212593" lon="2.434784">
        <ele>394</ele>
        <time>1970-01-01T06:27:14.000Z</time>
      </trkpt>
      <trkpt lat="42.212601" lon="2.434745">
        <ele>394</ele>
        <time>1970-01-01T06:27:15.000Z</time>
      </trkpt>
      <trkpt lat="42.21261" lon="2.434707">
        <ele>394</ele>
        <time>1970-01-01T06:27:16.000Z</time>
      </trkpt>
      <trkpt lat="42.212619" lon="2.434669">
        <ele>394</ele>
        <time>1970-01-01T06:27:17.000Z</time>
      </trkpt>
      <trkpt lat="42.212628" lon="2.434631">
        <ele>394</ele>
        <time>1970-01-01T06:27:18.000Z</time>
      </trkpt>
      <trkpt lat="42.212637" lon="2.434593">
        <ele>396</ele>
        <time>1970-01-01T06:27:19.000Z</time>
      </trkpt>
      <trkpt lat="42.212651" lon="2.434543">
        <ele>396</ele>
        <time>1970-01-01T06:27:20.000Z</time>
      </trkpt>
      <trkpt lat="42.212659" lon="2.434512">
        <ele>396</ele>
        <time>1970-01-01T06:27:21.000Z</time>
      </trkpt>
      <trkpt lat="42.212668" lon="2.434481">
        <ele>396</ele>
        <time>1970-01-01T06:27:22.000Z</time>
      </trkpt>
      <trkpt lat="42.212676" lon="2.43445">
        <ele>396</ele>
        <time>1970-01-01T06:27:23.000Z</time>
      </trkpt>
      <trkpt lat="42.212685" lon="2.434419">
        <ele>396</ele>
        <time>1970-01-01T06:27:24.000Z</time>
      </trkpt>
      <trkpt lat="42.212693" lon="2.434388">
        <ele>396</ele>
        <time>1970-01-01T06:27:25.000Z</time>
      </trkpt>
      <trkpt lat="42.212702" lon="2.434357">
        <ele>396</ele>
        <time>1970-01-01T06:27:26.000Z</time>
      </trkpt>
      <trkpt lat="42.21271" lon="2.434326">
        <ele>396</ele>
        <time>1970-01-01T06:27:27.000Z</time>
      </trkpt>
      <trkpt lat="42.212719" lon="2.434295">
        <ele>396</ele>
        <time>1970-01-01T06:27:28.000Z</time>
      </trkpt>
      <trkpt lat="42.212727" lon="2.434264">
        <ele>398</ele>
        <time>1970-01-01T06:27:29.000Z</time>
      </trkpt>
      <trkpt lat="42.212756" lon="2.4342">
        <ele>398</ele>
        <time>1970-01-01T06:27:30.000Z</time>
      </trkpt>
      <trkpt lat="42.212765" lon="2.434176">
        <ele>398</ele>
        <time>1970-01-01T06:27:31.000Z</time>
      </trkpt>
      <trkpt lat="42.212775" lon="2.434153">
        <ele>398</ele>
        <time>1970-01-01T06:27:32.000Z</time>
      </trkpt>
      <trkpt lat="42.212784" lon="2.434129">
        <ele>398</ele>
        <time>1970-01-01T06:27:33.000Z</time>
      </trkpt>
      <trkpt lat="42.212794" lon="2.434106">
        <ele>398</ele>
        <time>1970-01-01T06:27:34.000Z</time>
      </trkpt>
      <trkpt lat="42.212804" lon="2.434082">
        <ele>398</ele>
        <time>1970-01-01T06:27:35.000Z</time>
      </trkpt>
      <trkpt lat="42.212813" lon="2.434059">
        <ele>398</ele>
        <time>1970-01-01T06:27:36.000Z</time>
      </trkpt>
      <trkpt lat="42.212823" lon="2.434035">
        <ele>398</ele>
        <time>1970-01-01T06:27:37.000Z</time>
      </trkpt>
      <trkpt lat="42.212832" lon="2.434012">
        <ele>398</ele>
        <time>1970-01-01T06:27:38.000Z</time>
      </trkpt>
      <trkpt lat="42.212842" lon="2.433988">
        <ele>398</ele>
        <time>1970-01-01T06:27:39.000Z</time>
      </trkpt>
      <trkpt lat="42.212852" lon="2.433943">
        <ele>398</ele>
        <time>1970-01-01T06:27:40.000Z</time>
      </trkpt>
      <trkpt lat="42.212857" lon="2.433913">
        <ele>398</ele>
        <time>1970-01-01T06:27:41.000Z</time>
      </trkpt>
      <trkpt lat="42.212862" lon="2.433883">
        <ele>398</ele>
        <time>1970-01-01T06:27:42.000Z</time>
      </trkpt>
      <trkpt lat="42.212867" lon="2.433853">
        <ele>398</ele>
        <time>1970-01-01T06:27:43.000Z</time>
      </trkpt>
      <trkpt lat="42.212872" lon="2.433824">
        <ele>398</ele>
        <time>1970-01-01T06:27:44.000Z</time>
      </trkpt>
      <trkpt lat="42.212877" lon="2.433794">
        <ele>398</ele>
        <time>1970-01-01T06:27:45.000Z</time>
      </trkpt>
      <trkpt lat="42.212882" lon="2.433764">
        <ele>398</ele>
        <time>1970-01-01T06:27:46.000Z</time>
      </trkpt>
      <trkpt lat="42.212887" lon="2.433734">
        <ele>398</ele>
        <time>1970-01-01T06:27:47.000Z</time>
      </trkpt>
      <trkpt lat="42.212892" lon="2.433704">
        <ele>398</ele>
        <time>1970-01-01T06:27:48.000Z</time>
      </trkpt>
      <trkpt lat="42.212897" lon="2.433674">
        <ele>400</ele>
        <time>1970-01-01T06:27:49.000Z</time>
      </trkpt>
      <trkpt lat="42.212902" lon="2.433607">
        <ele>400</ele>
        <time>1970-01-01T06:27:50.000Z</time>
      </trkpt>
      <trkpt lat="42.212903" lon="2.433575">
        <ele>400</ele>
        <time>1970-01-01T06:27:51.000Z</time>
      </trkpt>
      <trkpt lat="42.212903" lon="2.433542">
        <ele>400</ele>
        <time>1970-01-01T06:27:52.000Z</time>
      </trkpt>
      <trkpt lat="42.212903" lon="2.433509">
        <ele>400</ele>
        <time>1970-01-01T06:27:53.000Z</time>
      </trkpt>
      <trkpt lat="42.212904" lon="2.433477">
        <ele>400</ele>
        <time>1970-01-01T06:27:54.000Z</time>
      </trkpt>
      <trkpt lat="42.212904" lon="2.433444">
        <ele>400</ele>
        <time>1970-01-01T06:27:55.000Z</time>
      </trkpt>
      <trkpt lat="42.212904" lon="2.433411">
        <ele>400</ele>
        <time>1970-01-01T06:27:56.000Z</time>
      </trkpt>
      <trkpt lat="42.212904" lon="2.433378">
        <ele>400</ele>
        <time>1970-01-01T06:27:57.000Z</time>
      </trkpt>
      <trkpt lat="42.212905" lon="2.433346">
        <ele>400</ele>
        <time>1970-01-01T06:27:58.000Z</time>
      </trkpt>
      <trkpt lat="42.212905" lon="2.433313">
        <ele>401</ele>
        <time>1970-01-01T06:27:59.000Z</time>
      </trkpt>
      <trkpt lat="42.212904" lon="2.433266">
        <ele>401</ele>
        <time>1970-01-01T06:28:00.000Z</time>
      </trkpt>
      <trkpt lat="42.212903" lon="2.433237">
        <ele>401</ele>
        <time>1970-01-01T06:28:01.000Z</time>
      </trkpt>
      <trkpt lat="42.212903" lon="2.433207">
        <ele>401</ele>
        <time>1970-01-01T06:28:02.000Z</time>
      </trkpt>
      <trkpt lat="42.212902" lon="2.433177">
        <ele>401</ele>
        <time>1970-01-01T06:28:03.000Z</time>
      </trkpt>
      <trkpt lat="42.212902" lon="2.433147">
        <ele>401</ele>
        <time>1970-01-01T06:28:04.000Z</time>
      </trkpt>
      <trkpt lat="42.212902" lon="2.433118">
        <ele>401</ele>
        <time>1970-01-01T06:28:05.000Z</time>
      </trkpt>
      <trkpt lat="42.212901" lon="2.433088">
        <ele>401</ele>
        <time>1970-01-01T06:28:06.000Z</time>
      </trkpt>
      <trkpt lat="42.212901" lon="2.433058">
        <ele>401</ele>
        <time>1970-01-01T06:28:07.000Z</time>
      </trkpt>
      <trkpt lat="42.2129" lon="2.433029">
        <ele>401</ele>
        <time>1970-01-01T06:28:08.000Z</time>
      </trkpt>
      <trkpt lat="42.2129" lon="2.432999">
        <ele>403</ele>
        <time>1970-01-01T06:28:09.000Z</time>
      </trkpt>
      <trkpt lat="42.212911" lon="2.432943">
        <ele>403</ele>
        <time>1970-01-01T06:28:10.000Z</time>
      </trkpt>
      <trkpt lat="42.212922" lon="2.432918">
        <ele>403</ele>
        <time>1970-01-01T06:28:11.000Z</time>
      </trkpt>
      <trkpt lat="42.212933" lon="2.432893">
        <ele>403</ele>
        <time>1970-01-01T06:28:12.000Z</time>
      </trkpt>
      <trkpt lat="42.212944" lon="2.432868">
        <ele>403</ele>
        <time>1970-01-01T06:28:13.000Z</time>
      </trkpt>
      <trkpt lat="42.212955" lon="2.432843">
        <ele>403</ele>
        <time>1970-01-01T06:28:14.000Z</time>
      </trkpt>
      <trkpt lat="42.212965" lon="2.432817">
        <ele>403</ele>
        <time>1970-01-01T06:28:15.000Z</time>
      </trkpt>
      <trkpt lat="42.212976" lon="2.432792">
        <ele>403</ele>
        <time>1970-01-01T06:28:16.000Z</time>
      </trkpt>
      <trkpt lat="42.212987" lon="2.432767">
        <ele>403</ele>
        <time>1970-01-01T06:28:17.000Z</time>
      </trkpt>
      <trkpt lat="42.212998" lon="2.432742">
        <ele>403</ele>
        <time>1970-01-01T06:28:18.000Z</time>
      </trkpt>
      <trkpt lat="42.213009" lon="2.432717">
        <ele>404</ele>
        <time>1970-01-01T06:28:19.000Z</time>
      </trkpt>
      <trkpt lat="42.213064" lon="2.432669">
        <ele>404</ele>
        <time>1970-01-01T06:28:20.000Z</time>
      </trkpt>
      <trkpt lat="42.213087" lon="2.43265">
        <ele>404</ele>
        <time>1970-01-01T06:28:21.000Z</time>
      </trkpt>
      <trkpt lat="42.213109" lon="2.432632">
        <ele>404</ele>
        <time>1970-01-01T06:28:22.000Z</time>
      </trkpt>
      <trkpt lat="42.213132" lon="2.432614">
        <ele>404</ele>
        <time>1970-01-01T06:28:23.000Z</time>
      </trkpt>
      <trkpt lat="42.213155" lon="2.432595">
        <ele>404</ele>
        <time>1970-01-01T06:28:24.000Z</time>
      </trkpt>
      <trkpt lat="42.213178" lon="2.432577">
        <ele>404</ele>
        <time>1970-01-01T06:28:25.000Z</time>
      </trkpt>
      <trkpt lat="42.2132" lon="2.432559">
        <ele>404</ele>
        <time>1970-01-01T06:28:26.000Z</time>
      </trkpt>
      <trkpt lat="42.213223" lon="2.43254">
        <ele>404</ele>
        <time>1970-01-01T06:28:28.000Z</time>
      </trkpt>
      <trkpt lat="42.213246" lon="2.432522">
        <ele>405</ele>
        <time>1970-01-01T06:28:29.000Z</time>
      </trkpt>
      <trkpt lat="42.213291" lon="2.432443">
        <ele>405</ele>
        <time>1970-01-01T06:28:30.000Z</time>
      </trkpt>
      <trkpt lat="42.21331" lon="2.432393">
        <ele>405</ele>
        <time>1970-01-01T06:28:31.000Z</time>
      </trkpt>
      <trkpt lat="42.213328" lon="2.432342">
        <ele>405</ele>
        <time>1970-01-01T06:28:32.000Z</time>
      </trkpt>
      <trkpt lat="42.213346" lon="2.432292">
        <ele>405</ele>
        <time>1970-01-01T06:28:33.000Z</time>
      </trkpt>
      <trkpt lat="42.213365" lon="2.432241">
        <ele>405</ele>
        <time>1970-01-01T06:28:34.000Z</time>
      </trkpt>
      <trkpt lat="42.213383" lon="2.432191">
        <ele>405</ele>
        <time>1970-01-01T06:28:36.000Z</time>
      </trkpt>
      <trkpt lat="42.213401" lon="2.43214">
        <ele>405</ele>
        <time>1970-01-01T06:28:37.000Z</time>
      </trkpt>
      <trkpt lat="42.21342" lon="2.43209">
        <ele>405</ele>
        <time>1970-01-01T06:28:38.000Z</time>
      </trkpt>
      <trkpt lat="42.213438" lon="2.432039">
        <ele>405</ele>
        <time>1970-01-01T06:28:39.000Z</time>
      </trkpt>
      <trkpt lat="42.213431" lon="2.431932">
        <ele>405</ele>
        <time>1970-01-01T06:28:40.000Z</time>
      </trkpt>
      <trkpt lat="42.213424" lon="2.431887">
        <ele>405</ele>
        <time>1970-01-01T06:28:41.000Z</time>
      </trkpt>
      <trkpt lat="42.213416" lon="2.431841">
        <ele>405</ele>
        <time>1970-01-01T06:28:42.000Z</time>
      </trkpt>
      <trkpt lat="42.213409" lon="2.431796">
        <ele>405</ele>
        <time>1970-01-01T06:28:43.000Z</time>
      </trkpt>
      <trkpt lat="42.213401" lon="2.431751">
        <ele>405</ele>
        <time>1970-01-01T06:28:44.000Z</time>
      </trkpt>
      <trkpt lat="42.213393" lon="2.431706">
        <ele>405</ele>
        <time>1970-01-01T06:28:45.000Z</time>
      </trkpt>
      <trkpt lat="42.213386" lon="2.431661">
        <ele>405</ele>
        <time>1970-01-01T06:28:46.000Z</time>
      </trkpt>
      <trkpt lat="42.213378" lon="2.431615">
        <ele>405</ele>
        <time>1970-01-01T06:28:47.000Z</time>
      </trkpt>
      <trkpt lat="42.213371" lon="2.43157">
        <ele>405</ele>
        <time>1970-01-01T06:28:48.000Z</time>
      </trkpt>
      <trkpt lat="42.213363" lon="2.431525">
        <ele>404</ele>
        <time>1970-01-01T06:28:49.000Z</time>
      </trkpt>
      <trkpt lat="42.213349" lon="2.431449">
        <ele>404</ele>
        <time>1970-01-01T06:28:50.000Z</time>
      </trkpt>
      <trkpt lat="42.213344" lon="2.431418">
        <ele>404</ele>
        <time>1970-01-01T06:28:51.000Z</time>
      </trkpt>
      <trkpt lat="42.213339" lon="2.431386">
        <ele>404</ele>
        <time>1970-01-01T06:28:52.000Z</time>
      </trkpt>
      <trkpt lat="42.213334" lon="2.431354">
        <ele>404</ele>
        <time>1970-01-01T06:28:53.000Z</time>
      </trkpt>
      <trkpt lat="42.213328" lon="2.431323">
        <ele>404</ele>
        <time>1970-01-01T06:28:54.000Z</time>
      </trkpt>
      <trkpt lat="42.213323" lon="2.431291">
        <ele>404</ele>
        <time>1970-01-01T06:28:55.000Z</time>
      </trkpt>
      <trkpt lat="42.213318" lon="2.431259">
        <ele>404</ele>
        <time>1970-01-01T06:28:56.000Z</time>
      </trkpt>
      <trkpt lat="42.213313" lon="2.431228">
        <ele>404</ele>
        <time>1970-01-01T06:28:57.000Z</time>
      </trkpt>
      <trkpt lat="42.213308" lon="2.431196">
        <ele>405</ele>
        <time>1970-01-01T06:28:59.000Z</time>
      </trkpt>
      <trkpt lat="42.213289" lon="2.431114">
        <ele>405</ele>
        <time>1970-01-01T06:29:01.000Z</time>
      </trkpt>
      <trkpt lat="42.213277" lon="2.431075">
        <ele>405</ele>
        <time>1970-01-01T06:29:03.000Z</time>
      </trkpt>
      <trkpt lat="42.213266" lon="2.431035">
        <ele>405</ele>
        <time>1970-01-01T06:29:04.000Z</time>
      </trkpt>
      <trkpt lat="42.213254" lon="2.430996">
        <ele>405</ele>
        <time>1970-01-01T06:29:07.000Z</time>
      </trkpt>
      <trkpt lat="42.213243" lon="2.430956">
        <ele>405</ele>
        <time>1970-01-01T06:29:09.000Z</time>
      </trkpt>
      <trkpt lat="42.213214" lon="2.430886">
        <ele>405</ele>
        <time>1970-01-01T06:29:10.000Z</time>
      </trkpt>
      <trkpt lat="42.213195" lon="2.430852">
        <ele>405</ele>
        <time>1970-01-01T06:29:11.000Z</time>
      </trkpt>
      <trkpt lat="42.213177" lon="2.430818">
        <ele>405</ele>
        <time>1970-01-01T06:29:12.000Z</time>
      </trkpt>
      <trkpt lat="42.213159" lon="2.430784">
        <ele>405</ele>
        <time>1970-01-01T06:29:13.000Z</time>
      </trkpt>
      <trkpt lat="42.213141" lon="2.430749">
        <ele>405</ele>
        <time>1970-01-01T06:29:14.000Z</time>
      </trkpt>
      <trkpt lat="42.213122" lon="2.430715">
        <ele>405</ele>
        <time>1970-01-01T06:29:15.000Z</time>
      </trkpt>
      <trkpt lat="42.213104" lon="2.430681">
        <ele>405</ele>
        <time>1970-01-01T06:29:16.000Z</time>
      </trkpt>
      <trkpt lat="42.213086" lon="2.430647">
        <ele>405</ele>
        <time>1970-01-01T06:29:17.000Z</time>
      </trkpt>
      <trkpt lat="42.213067" lon="2.430613">
        <ele>405</ele>
        <time>1970-01-01T06:29:18.000Z</time>
      </trkpt>
      <trkpt lat="42.213049" lon="2.430579">
        <ele>405</ele>
        <time>1970-01-01T06:29:19.000Z</time>
      </trkpt>
      <trkpt lat="42.213" lon="2.4305">
        <ele>405</ele>
        <time>1970-01-01T06:29:20.000Z</time>
      </trkpt>
      <trkpt lat="42.212976" lon="2.430461">
        <ele>405</ele>
        <time>1970-01-01T06:29:21.000Z</time>
      </trkpt>
      <trkpt lat="42.212953" lon="2.430422">
        <ele>405</ele>
        <time>1970-01-01T06:29:22.000Z</time>
      </trkpt>
      <trkpt lat="42.212929" lon="2.430383">
        <ele>405</ele>
        <time>1970-01-01T06:29:23.000Z</time>
      </trkpt>
      <trkpt lat="42.212906" lon="2.430344">
        <ele>405</ele>
        <time>1970-01-01T06:29:24.000Z</time>
      </trkpt>
      <trkpt lat="42.212882" lon="2.430305">
        <ele>405</ele>
        <time>1970-01-01T06:29:25.000Z</time>
      </trkpt>
      <trkpt lat="42.212859" lon="2.430266">
        <ele>405</ele>
        <time>1970-01-01T06:29:26.000Z</time>
      </trkpt>
      <trkpt lat="42.212835" lon="2.430227">
        <ele>405</ele>
        <time>1970-01-01T06:29:27.000Z</time>
      </trkpt>
      <trkpt lat="42.212812" lon="2.430188">
        <ele>405</ele>
        <time>1970-01-01T06:29:28.000Z</time>
      </trkpt>
      <trkpt lat="42.212788" lon="2.430149">
        <ele>405</ele>
        <time>1970-01-01T06:29:29.000Z</time>
      </trkpt>
      <trkpt lat="42.212733" lon="2.430041">
        <ele>405</ele>
        <time>1970-01-01T06:29:30.000Z</time>
      </trkpt>
      <trkpt lat="42.212705" lon="2.429983">
        <ele>405</ele>
        <time>1970-01-01T06:29:31.000Z</time>
      </trkpt>
      <trkpt lat="42.212677" lon="2.429924">
        <ele>405</ele>
        <time>1970-01-01T06:29:32.000Z</time>
      </trkpt>
      <trkpt lat="42.212649" lon="2.429866">
        <ele>405</ele>
        <time>1970-01-01T06:29:33.000Z</time>
      </trkpt>
      <trkpt lat="42.212621" lon="2.429807">
        <ele>405</ele>
        <time>1970-01-01T06:29:35.000Z</time>
      </trkpt>
      <trkpt lat="42.212593" lon="2.429749">
        <ele>405</ele>
        <time>1970-01-01T06:29:36.000Z</time>
      </trkpt>
      <trkpt lat="42.212565" lon="2.42969">
        <ele>405</ele>
        <time>1970-01-01T06:29:37.000Z</time>
      </trkpt>
      <trkpt lat="42.212537" lon="2.429632">
        <ele>405</ele>
        <time>1970-01-01T06:29:38.000Z</time>
      </trkpt>
      <trkpt lat="42.212509" lon="2.429573">
        <ele>406</ele>
        <time>1970-01-01T06:29:39.000Z</time>
      </trkpt>
      <trkpt lat="42.212491" lon="2.42944">
        <ele>406</ele>
        <time>1970-01-01T06:29:40.000Z</time>
      </trkpt>
      <trkpt lat="42.212491" lon="2.429375">
        <ele>406</ele>
        <time>1970-01-01T06:29:41.000Z</time>
      </trkpt>
      <trkpt lat="42.212491" lon="2.429311">
        <ele>406</ele>
        <time>1970-01-01T06:29:42.000Z</time>
      </trkpt>
      <trkpt lat="42.212491" lon="2.429246">
        <ele>406</ele>
        <time>1970-01-01T06:29:43.000Z</time>
      </trkpt>
      <trkpt lat="42.212491" lon="2.429182">
        <ele>406</ele>
        <time>1970-01-01T06:29:44.000Z</time>
      </trkpt>
      <trkpt lat="42.21249" lon="2.429118">
        <ele>406</ele>
        <time>1970-01-01T06:29:45.000Z</time>
      </trkpt>
      <trkpt lat="42.21249" lon="2.429053">
        <ele>406</ele>
        <time>1970-01-01T06:29:46.000Z</time>
      </trkpt>
      <trkpt lat="42.21249" lon="2.428989">
        <ele>406</ele>
        <time>1970-01-01T06:29:47.000Z</time>
      </trkpt>
      <trkpt lat="42.21249" lon="2.428924">
        <ele>406</ele>
        <time>1970-01-01T06:29:48.000Z</time>
      </trkpt>
      <trkpt lat="42.21249" lon="2.42886">
        <ele>406</ele>
        <time>1970-01-01T06:29:49.000Z</time>
      </trkpt>
      <trkpt lat="42.212503" lon="2.428728">
        <ele>406</ele>
        <time>1970-01-01T06:29:50.000Z</time>
      </trkpt>
      <trkpt lat="42.212506" lon="2.428664">
        <ele>406</ele>
        <time>1970-01-01T06:29:51.000Z</time>
      </trkpt>
      <trkpt lat="42.21251" lon="2.4286">
        <ele>406</ele>
        <time>1970-01-01T06:29:52.000Z</time>
      </trkpt>
      <trkpt lat="42.212513" lon="2.428536">
        <ele>406</ele>
        <time>1970-01-01T06:29:54.000Z</time>
      </trkpt>
      <trkpt lat="42.212517" lon="2.428473">
        <ele>406</ele>
        <time>1970-01-01T06:29:55.000Z</time>
      </trkpt>
      <trkpt lat="42.21252" lon="2.428409">
        <ele>406</ele>
        <time>1970-01-01T06:29:56.000Z</time>
      </trkpt>
      <trkpt lat="42.212524" lon="2.428345">
        <ele>406</ele>
        <time>1970-01-01T06:29:57.000Z</time>
      </trkpt>
      <trkpt lat="42.212527" lon="2.428281">
        <ele>406</ele>
        <time>1970-01-01T06:29:58.000Z</time>
      </trkpt>
      <trkpt lat="42.212531" lon="2.428217">
        <ele>406</ele>
        <time>1970-01-01T06:29:59.000Z</time>
      </trkpt>
      <trkpt lat="42.212537" lon="2.428095">
        <ele>406</ele>
        <time>1970-01-01T06:30:00.000Z</time>
      </trkpt>
      <trkpt lat="42.212541" lon="2.428036">
        <ele>406</ele>
        <time>1970-01-01T06:30:01.000Z</time>
      </trkpt>
      <trkpt lat="42.212544" lon="2.427976">
        <ele>406</ele>
        <time>1970-01-01T06:30:02.000Z</time>
      </trkpt>
      <trkpt lat="42.212548" lon="2.427917">
        <ele>406</ele>
        <time>1970-01-01T06:30:04.000Z</time>
      </trkpt>
      <trkpt lat="42.212551" lon="2.427857">
        <ele>406</ele>
        <time>1970-01-01T06:30:05.000Z</time>
      </trkpt>
      <trkpt lat="42.212555" lon="2.427798">
        <ele>406</ele>
        <time>1970-01-01T06:30:06.000Z</time>
      </trkpt>
      <trkpt lat="42.212558" lon="2.427738">
        <ele>406</ele>
        <time>1970-01-01T06:30:07.000Z</time>
      </trkpt>
      <trkpt lat="42.212562" lon="2.427679">
        <ele>406</ele>
        <time>1970-01-01T06:30:08.000Z</time>
      </trkpt>
      <trkpt lat="42.212565" lon="2.427619">
        <ele>407</ele>
        <time>1970-01-01T06:30:09.000Z</time>
      </trkpt>
      <trkpt lat="42.212542" lon="2.427515">
        <ele>407</ele>
        <time>1970-01-01T06:30:10.000Z</time>
      </trkpt>
      <trkpt lat="42.212522" lon="2.427468">
        <ele>407</ele>
        <time>1970-01-01T06:30:11.000Z</time>
      </trkpt>
      <trkpt lat="42.212503" lon="2.427422">
        <ele>407</ele>
        <time>1970-01-01T06:30:12.000Z</time>
      </trkpt>
      <trkpt lat="42.212483" lon="2.427375">
        <ele>407</ele>
        <time>1970-01-01T06:30:13.000Z</time>
      </trkpt>
      <trkpt lat="42.212464" lon="2.427329">
        <ele>407</ele>
        <time>1970-01-01T06:30:14.000Z</time>
      </trkpt>
      <trkpt lat="42.212445" lon="2.427283">
        <ele>407</ele>
        <time>1970-01-01T06:30:15.000Z</time>
      </trkpt>
      <trkpt lat="42.212425" lon="2.427236">
        <ele>407</ele>
        <time>1970-01-01T06:30:16.000Z</time>
      </trkpt>
      <trkpt lat="42.212406" lon="2.42719">
        <ele>407</ele>
        <time>1970-01-01T06:30:17.000Z</time>
      </trkpt>
      <trkpt lat="42.212386" lon="2.427143">
        <ele>407</ele>
        <time>1970-01-01T06:30:18.000Z</time>
      </trkpt>
      <trkpt lat="42.212367" lon="2.427097">
        <ele>407</ele>
        <time>1970-01-01T06:30:19.000Z</time>
      </trkpt>
      <trkpt lat="42.212337" lon="2.426995">
        <ele>407</ele>
        <time>1970-01-01T06:30:20.000Z</time>
      </trkpt>
      <trkpt lat="42.212331" lon="2.426944">
        <ele>407</ele>
        <time>1970-01-01T06:30:21.000Z</time>
      </trkpt>
      <trkpt lat="42.212324" lon="2.426894">
        <ele>407</ele>
        <time>1970-01-01T06:30:22.000Z</time>
      </trkpt>
      <trkpt lat="42.212318" lon="2.426844">
        <ele>407</ele>
        <time>1970-01-01T06:30:23.000Z</time>
      </trkpt>
      <trkpt lat="42.212311" lon="2.426793">
        <ele>407</ele>
        <time>1970-01-01T06:30:24.000Z</time>
      </trkpt>
      <trkpt lat="42.212305" lon="2.426743">
        <ele>407</ele>
        <time>1970-01-01T06:30:25.000Z</time>
      </trkpt>
      <trkpt lat="42.212298" lon="2.426693">
        <ele>407</ele>
        <time>1970-01-01T06:30:27.000Z</time>
      </trkpt>
      <trkpt lat="42.212292" lon="2.426642">
        <ele>407</ele>
        <time>1970-01-01T06:30:28.000Z</time>
      </trkpt>
      <trkpt lat="42.212285" lon="2.426592">
        <ele>408</ele>
        <time>1970-01-01T06:30:29.000Z</time>
      </trkpt>
      <trkpt lat="42.212284" lon="2.426533">
        <ele>408</ele>
        <time>1970-01-01T06:30:30.000Z</time>
      </trkpt>
      <trkpt lat="42.212284" lon="2.42651">
        <ele>408</ele>
        <time>1970-01-01T06:30:31.000Z</time>
      </trkpt>
      <trkpt lat="42.212284" lon="2.426486">
        <ele>408</ele>
        <time>1970-01-01T06:30:32.000Z</time>
      </trkpt>
      <trkpt lat="42.212285" lon="2.426463">
        <ele>408</ele>
        <time>1970-01-01T06:30:34.000Z</time>
      </trkpt>
      <trkpt lat="42.212285" lon="2.426439">
        <ele>408</ele>
        <time>1970-01-01T06:30:36.000Z</time>
      </trkpt>
      <trkpt lat="42.212285" lon="2.426416">
        <ele>408</ele>
        <time>1970-01-01T06:30:38.000Z</time>
      </trkpt>
      <trkpt lat="42.212285" lon="2.426392">
        <ele>409</ele>
        <time>1970-01-01T06:30:39.000Z</time>
      </trkpt>
      <trkpt lat="42.21229" lon="2.426356">
        <ele>409</ele>
        <time>1970-01-01T06:30:42.000Z</time>
      </trkpt>
      <trkpt lat="42.212295" lon="2.426326">
        <ele>410</ele>
        <time>1970-01-01T06:31:03.000Z</time>
      </trkpt>
      <trkpt lat="42.212299" lon="2.426297">
        <ele>410</ele>
        <time>1970-01-01T06:31:04.000Z</time>
      </trkpt>
      <trkpt lat="42.212304" lon="2.426268">
        <ele>410</ele>
        <time>1970-01-01T06:31:07.000Z</time>
      </trkpt>
      <trkpt lat="42.212308" lon="2.426239">
        <ele>410</ele>
        <time>1970-01-01T06:31:08.000Z</time>
      </trkpt>
      <trkpt lat="42.212312" lon="2.426209">
        <ele>410</ele>
        <time>1970-01-01T06:31:09.000Z</time>
      </trkpt>
      <trkpt lat="42.212317" lon="2.42618">
        <ele>410</ele>
        <time>1970-01-01T06:31:10.000Z</time>
      </trkpt>
      <trkpt lat="42.212321" lon="2.426151">
        <ele>410</ele>
        <time>1970-01-01T06:31:11.000Z</time>
      </trkpt>
      <trkpt lat="42.212326" lon="2.426121">
        <ele>410</ele>
        <time>1970-01-01T06:31:12.000Z</time>
      </trkpt>
      <trkpt lat="42.21233" lon="2.426092">
        <ele>409</ele>
        <time>1970-01-01T06:31:13.000Z</time>
      </trkpt>
      <trkpt lat="42.212339" lon="2.42604">
        <ele>409</ele>
        <time>1970-01-01T06:31:14.000Z</time>
      </trkpt>
      <trkpt lat="42.212344" lon="2.42601">
        <ele>409</ele>
        <time>1970-01-01T06:31:16.000Z</time>
      </trkpt>
      <trkpt lat="42.212349" lon="2.425979">
        <ele>409</ele>
        <time>1970-01-01T06:31:18.000Z</time>
      </trkpt>
      <trkpt lat="42.212353" lon="2.425948">
        <ele>409</ele>
        <time>1970-01-01T06:31:20.000Z</time>
      </trkpt>
      <trkpt lat="42.212358" lon="2.425918">
        <ele>409</ele>
        <time>1970-01-01T06:31:22.000Z</time>
      </trkpt>
      <trkpt lat="42.212363" lon="2.425887">
        <ele>411</ele>
        <time>1970-01-01T06:31:23.000Z</time>
      </trkpt>
      <trkpt lat="42.212379" lon="2.425813">
        <ele>411</ele>
        <time>1970-01-01T06:31:25.000Z</time>
      </trkpt>
      <trkpt lat="42.212384" lon="2.425789">
        <ele>411</ele>
        <time>1970-01-01T06:31:27.000Z</time>
      </trkpt>
      <trkpt lat="42.21239" lon="2.425766">
        <ele>411</ele>
        <time>1970-01-01T06:31:29.000Z</time>
      </trkpt>
      <trkpt lat="42.212395" lon="2.425742">
        <ele>411</ele>
        <time>1970-01-01T06:31:31.000Z</time>
      </trkpt>
      <trkpt lat="42.2124" lon="2.425719">
        <ele>413</ele>
        <time>1970-01-01T06:31:33.000Z</time>
      </trkpt>
      <trkpt lat="42.212416" lon="2.425651">
        <ele>413</ele>
        <time>1970-01-01T06:31:34.000Z</time>
      </trkpt>
      <trkpt lat="42.21242" lon="2.425619">
        <ele>413</ele>
        <time>1970-01-01T06:31:36.000Z</time>
      </trkpt>
      <trkpt lat="42.212425" lon="2.425587">
        <ele>413</ele>
        <time>1970-01-01T06:31:38.000Z</time>
      </trkpt>
      <trkpt lat="42.21243" lon="2.425554">
        <ele>413</ele>
        <time>1970-01-01T06:31:40.000Z</time>
      </trkpt>
      <trkpt lat="42.212435" lon="2.425522">
        <ele>413</ele>
        <time>1970-01-01T06:31:41.000Z</time>
      </trkpt>
      <trkpt lat="42.212439" lon="2.42549">
        <ele>413</ele>
        <time>1970-01-01T06:31:42.000Z</time>
      </trkpt>
      <trkpt lat="42.212444" lon="2.425458">
        <ele>414</ele>
        <time>1970-01-01T06:31:43.000Z</time>
      </trkpt>
      <trkpt lat="42.212451" lon="2.425413">
        <ele>414</ele>
        <time>1970-01-01T06:31:44.000Z</time>
      </trkpt>
      <trkpt lat="42.212457" lon="2.425381">
        <ele>414</ele>
        <time>1970-01-01T06:31:45.000Z</time>
      </trkpt>
      <trkpt lat="42.212464" lon="2.425349">
        <ele>414</ele>
        <time>1970-01-01T06:31:47.000Z</time>
      </trkpt>
      <trkpt lat="42.21247" lon="2.425317">
        <ele>414</ele>
        <time>1970-01-01T06:31:49.000Z</time>
      </trkpt>
      <trkpt lat="42.212476" lon="2.425285">
        <ele>414</ele>
        <time>1970-01-01T06:31:51.000Z</time>
      </trkpt>
      <trkpt lat="42.212482" lon="2.425253">
        <ele>416</ele>
        <time>1970-01-01T06:31:53.000Z</time>
      </trkpt>
      <trkpt lat="42.212495" lon="2.42518">
        <ele>416</ele>
        <time>1970-01-01T06:31:55.000Z</time>
      </trkpt>
      <trkpt lat="42.212505" lon="2.425155">
        <ele>416</ele>
        <time>1970-01-01T06:31:56.000Z</time>
      </trkpt>
      <trkpt lat="42.212514" lon="2.425129">
        <ele>416</ele>
        <time>1970-01-01T06:31:57.000Z</time>
      </trkpt>
      <trkpt lat="42.212523" lon="2.425104">
        <ele>416</ele>
        <time>1970-01-01T06:31:59.000Z</time>
      </trkpt>
      <trkpt lat="42.212532" lon="2.425078">
        <ele>416</ele>
        <time>1970-01-01T06:32:00.000Z</time>
      </trkpt>
      <trkpt lat="42.212542" lon="2.425053">
        <ele>416</ele>
        <time>1970-01-01T06:32:01.000Z</time>
      </trkpt>
      <trkpt lat="42.212551" lon="2.425027">
        <ele>417</ele>
        <time>1970-01-01T06:32:03.000Z</time>
      </trkpt>
      <trkpt lat="42.212583" lon="2.424961">
        <ele>417</ele>
        <time>1970-01-01T06:32:05.000Z</time>
      </trkpt>
      <trkpt lat="42.212596" lon="2.424937">
        <ele>417</ele>
        <time>1970-01-01T06:32:06.000Z</time>
      </trkpt>
      <trkpt lat="42.212608" lon="2.424912">
        <ele>417</ele>
        <time>1970-01-01T06:32:07.000Z</time>
      </trkpt>
      <trkpt lat="42.21262" lon="2.424888">
        <ele>417</ele>
        <time>1970-01-01T06:32:08.000Z</time>
      </trkpt>
      <trkpt lat="42.212632" lon="2.424863">
        <ele>417</ele>
        <time>1970-01-01T06:32:09.000Z</time>
      </trkpt>
      <trkpt lat="42.212645" lon="2.424839">
        <ele>417</ele>
        <time>1970-01-01T06:32:11.000Z</time>
      </trkpt>
      <trkpt lat="42.212657" lon="2.424814">
        <ele>420</ele>
        <time>1970-01-01T06:32:13.000Z</time>
      </trkpt>
      <trkpt lat="42.212679" lon="2.424772">
        <ele>420</ele>
        <time>1970-01-01T06:32:14.000Z</time>
      </trkpt>
      <trkpt lat="42.212691" lon="2.424749">
        <ele>420</ele>
        <time>1970-01-01T06:32:15.000Z</time>
      </trkpt>
      <trkpt lat="42.212703" lon="2.424727">
        <ele>420</ele>
        <time>1970-01-01T06:32:17.000Z</time>
      </trkpt>
      <trkpt lat="42.212715" lon="2.424705">
        <ele>420</ele>
        <time>1970-01-01T06:32:18.000Z</time>
      </trkpt>
      <trkpt lat="42.212728" lon="2.424682">
        <ele>420</ele>
        <time>1970-01-01T06:32:19.000Z</time>
      </trkpt>
      <trkpt lat="42.21274" lon="2.42466">
        <ele>420</ele>
        <time>1970-01-01T06:32:20.000Z</time>
      </trkpt>
      <trkpt lat="42.212752" lon="2.424638">
        <ele>420</ele>
        <time>1970-01-01T06:32:21.000Z</time>
      </trkpt>
      <trkpt lat="42.212764" lon="2.424615">
        <ele>420</ele>
        <time>1970-01-01T06:32:22.000Z</time>
      </trkpt>
      <trkpt lat="42.212776" lon="2.424593">
        <ele>420</ele>
        <time>1970-01-01T06:32:23.000Z</time>
      </trkpt>
      <trkpt lat="42.212797" lon="2.424548">
        <ele>420</ele>
        <time>1970-01-01T06:32:24.000Z</time>
      </trkpt>
      <trkpt lat="42.212805" lon="2.424525">
        <ele>420</ele>
        <time>1970-01-01T06:32:25.000Z</time>
      </trkpt>
      <trkpt lat="42.212814" lon="2.424503">
        <ele>420</ele>
        <time>1970-01-01T06:32:26.000Z</time>
      </trkpt>
      <trkpt lat="42.212823" lon="2.42448">
        <ele>420</ele>
        <time>1970-01-01T06:32:27.000Z</time>
      </trkpt>
      <trkpt lat="42.212832" lon="2.424457">
        <ele>420</ele>
        <time>1970-01-01T06:32:28.000Z</time>
      </trkpt>
      <trkpt lat="42.21284" lon="2.424434">
        <ele>420</ele>
        <time>1970-01-01T06:32:29.000Z</time>
      </trkpt>
      <trkpt lat="42.212849" lon="2.424411">
        <ele>420</ele>
        <time>1970-01-01T06:32:30.000Z</time>
      </trkpt>
      <trkpt lat="42.212858" lon="2.424389">
        <ele>420</ele>
        <time>1970-01-01T06:32:31.000Z</time>
      </trkpt>
      <trkpt lat="42.212866" lon="2.424366">
        <ele>420</ele>
        <time>1970-01-01T06:32:32.000Z</time>
      </trkpt>
      <trkpt lat="42.212875" lon="2.424343">
        <ele>420</ele>
        <time>1970-01-01T06:32:33.000Z</time>
      </trkpt>
      <trkpt lat="42.21288" lon="2.424249">
        <ele>420</ele>
        <time>1970-01-01T06:32:34.000Z</time>
      </trkpt>
      <trkpt lat="42.212882" lon="2.424199">
        <ele>420</ele>
        <time>1970-01-01T06:32:35.000Z</time>
      </trkpt>
      <trkpt lat="42.212884" lon="2.424148">
        <ele>420</ele>
        <time>1970-01-01T06:32:36.000Z</time>
      </trkpt>
      <trkpt lat="42.212886" lon="2.424097">
        <ele>420</ele>
        <time>1970-01-01T06:32:38.000Z</time>
      </trkpt>
      <trkpt lat="42.212887" lon="2.424047">
        <ele>420</ele>
        <time>1970-01-01T06:32:39.000Z</time>
      </trkpt>
      <trkpt lat="42.212889" lon="2.423996">
        <ele>420</ele>
        <time>1970-01-01T06:32:40.000Z</time>
      </trkpt>
      <trkpt lat="42.212891" lon="2.423945">
        <ele>420</ele>
        <time>1970-01-01T06:32:41.000Z</time>
      </trkpt>
      <trkpt lat="42.212893" lon="2.423895">
        <ele>420</ele>
        <time>1970-01-01T06:32:42.000Z</time>
      </trkpt>
      <trkpt lat="42.212895" lon="2.423844">
        <ele>419</ele>
        <time>1970-01-01T06:32:43.000Z</time>
      </trkpt>
      <trkpt lat="42.21292" lon="2.423777">
        <ele>419</ele>
        <time>1970-01-01T06:32:44.000Z</time>
      </trkpt>
      <trkpt lat="42.212931" lon="2.42375">
        <ele>419</ele>
        <time>1970-01-01T06:32:45.000Z</time>
      </trkpt>
      <trkpt lat="42.212943" lon="2.423723">
        <ele>419</ele>
        <time>1970-01-01T06:32:46.000Z</time>
      </trkpt>
      <trkpt lat="42.212954" lon="2.423696">
        <ele>419</ele>
        <time>1970-01-01T06:32:47.000Z</time>
      </trkpt>
      <trkpt lat="42.212966" lon="2.423669">
        <ele>419</ele>
        <time>1970-01-01T06:32:48.000Z</time>
      </trkpt>
      <trkpt lat="42.212977" lon="2.423642">
        <ele>419</ele>
        <time>1970-01-01T06:32:49.000Z</time>
      </trkpt>
      <trkpt lat="42.212989" lon="2.423615">
        <ele>419</ele>
        <time>1970-01-01T06:32:50.000Z</time>
      </trkpt>
      <trkpt lat="42.213" lon="2.423588">
        <ele>419</ele>
        <time>1970-01-01T06:32:51.000Z</time>
      </trkpt>
      <trkpt lat="42.213012" lon="2.423561">
        <ele>419</ele>
        <time>1970-01-01T06:32:52.000Z</time>
      </trkpt>
      <trkpt lat="42.213023" lon="2.423534">
        <ele>420</ele>
        <time>1970-01-01T06:32:53.000Z</time>
      </trkpt>
      <trkpt lat="42.213034" lon="2.423507">
        <ele>420</ele>
        <time>1970-01-01T06:32:55.000Z</time>
      </trkpt>
      <trkpt lat="42.213041" lon="2.423466">
        <ele>420</ele>
        <time>1970-01-01T06:32:57.000Z</time>
      </trkpt>
      <trkpt lat="42.21305" lon="2.423435">
        <ele>420</ele>
        <time>1970-01-01T06:32:59.000Z</time>
      </trkpt>
      <trkpt lat="42.21305" lon="2.423435">
        <ele>420</ele>
        <time>1970-01-01T06:33:02.000Z</time>
      </trkpt>
      <trkpt lat="42.213057" lon="2.423337">
        <ele>420</ele>
        <time>1970-01-01T06:33:19.000Z</time>
      </trkpt>
      <trkpt lat="42.213053" lon="2.423284">
        <ele>420</ele>
        <time>1970-01-01T06:33:20.000Z</time>
      </trkpt>
      <trkpt lat="42.21305" lon="2.423232">
        <ele>420</ele>
        <time>1970-01-01T06:33:22.000Z</time>
      </trkpt>
      <trkpt lat="42.213046" lon="2.42318">
        <ele>420</ele>
        <time>1970-01-01T06:33:23.000Z</time>
      </trkpt>
      <trkpt lat="42.213043" lon="2.423127">
        <ele>420</ele>
        <time>1970-01-01T06:33:24.000Z</time>
      </trkpt>
      <trkpt lat="42.213039" lon="2.423075">
        <ele>420</ele>
        <time>1970-01-01T06:33:25.000Z</time>
      </trkpt>
      <trkpt lat="42.213036" lon="2.423023">
        <ele>420</ele>
        <time>1970-01-01T06:33:26.000Z</time>
      </trkpt>
      <trkpt lat="42.213032" lon="2.422971">
        <ele>420</ele>
        <time>1970-01-01T06:33:27.000Z</time>
      </trkpt>
      <trkpt lat="42.213029" lon="2.422918">
        <ele>420</ele>
        <time>1970-01-01T06:33:28.000Z</time>
      </trkpt>
      <trkpt lat="42.213025" lon="2.422866">
        <ele>419</ele>
        <time>1970-01-01T06:33:29.000Z</time>
      </trkpt>
      <trkpt lat="42.212989" lon="2.422756">
        <ele>419</ele>
        <time>1970-01-01T06:33:30.000Z</time>
      </trkpt>
      <trkpt lat="42.212967" lon="2.422704">
        <ele>419</ele>
        <time>1970-01-01T06:33:31.000Z</time>
      </trkpt>
      <trkpt lat="42.212946" lon="2.422653">
        <ele>419</ele>
        <time>1970-01-01T06:33:32.000Z</time>
      </trkpt>
      <trkpt lat="42.212924" lon="2.422601">
        <ele>419</ele>
        <time>1970-01-01T06:33:33.000Z</time>
      </trkpt>
      <trkpt lat="42.212903" lon="2.42255">
        <ele>419</ele>
        <time>1970-01-01T06:33:34.000Z</time>
      </trkpt>
      <trkpt lat="42.212881" lon="2.422499">
        <ele>419</ele>
        <time>1970-01-01T06:33:35.000Z</time>
      </trkpt>
      <trkpt lat="42.21286" lon="2.422447">
        <ele>419</ele>
        <time>1970-01-01T06:33:36.000Z</time>
      </trkpt>
      <trkpt lat="42.212838" lon="2.422396">
        <ele>419</ele>
        <time>1970-01-01T06:33:37.000Z</time>
      </trkpt>
      <trkpt lat="42.212817" lon="2.422344">
        <ele>419</ele>
        <time>1970-01-01T06:33:38.000Z</time>
      </trkpt>
      <trkpt lat="42.212795" lon="2.422293">
        <ele>418</ele>
        <time>1970-01-01T06:33:39.000Z</time>
      </trkpt>
      <trkpt lat="42.21275" lon="2.422101">
        <ele>418</ele>
        <time>1970-01-01T06:33:40.000Z</time>
      </trkpt>
      <trkpt lat="42.212753" lon="2.422021">
        <ele>418</ele>
        <time>1970-01-01T06:33:41.000Z</time>
      </trkpt>
      <trkpt lat="42.212756" lon="2.421942">
        <ele>418</ele>
        <time>1970-01-01T06:33:42.000Z</time>
      </trkpt>
      <trkpt lat="42.212759" lon="2.421862">
        <ele>418</ele>
        <time>1970-01-01T06:33:43.000Z</time>
      </trkpt>
      <trkpt lat="42.212763" lon="2.421783">
        <ele>418</ele>
        <time>1970-01-01T06:33:44.000Z</time>
      </trkpt>
      <trkpt lat="42.212766" lon="2.421704">
        <ele>418</ele>
        <time>1970-01-01T06:33:45.000Z</time>
      </trkpt>
      <trkpt lat="42.212769" lon="2.421624">
        <ele>418</ele>
        <time>1970-01-01T06:33:46.000Z</time>
      </trkpt>
      <trkpt lat="42.212772" lon="2.421545">
        <ele>418</ele>
        <time>1970-01-01T06:33:47.000Z</time>
      </trkpt>
      <trkpt lat="42.212775" lon="2.421465">
        <ele>418</ele>
        <time>1970-01-01T06:33:48.000Z</time>
      </trkpt>
      <trkpt lat="42.212778" lon="2.421386">
        <ele>416</ele>
        <time>1970-01-01T06:33:49.000Z</time>
      </trkpt>
      <trkpt lat="42.212801" lon="2.421275">
        <ele>416</ele>
        <time>1970-01-01T06:33:50.000Z</time>
      </trkpt>
      <trkpt lat="42.212815" lon="2.421206">
        <ele>416</ele>
        <time>1970-01-01T06:33:51.000Z</time>
      </trkpt>
      <trkpt lat="42.21283" lon="2.421138">
        <ele>416</ele>
        <time>1970-01-01T06:33:52.000Z</time>
      </trkpt>
      <trkpt lat="42.212845" lon="2.421069">
        <ele>416</ele>
        <time>1970-01-01T06:33:53.000Z</time>
      </trkpt>
      <trkpt lat="42.21286" lon="2.421001">
        <ele>416</ele>
        <time>1970-01-01T06:33:54.000Z</time>
      </trkpt>
      <trkpt lat="42.212874" lon="2.420933">
        <ele>416</ele>
        <time>1970-01-01T06:33:55.000Z</time>
      </trkpt>
      <trkpt lat="42.212889" lon="2.420864">
        <ele>416</ele>
        <time>1970-01-01T06:33:56.000Z</time>
      </trkpt>
      <trkpt lat="42.212904" lon="2.420796">
        <ele>416</ele>
        <time>1970-01-01T06:33:57.000Z</time>
      </trkpt>
      <trkpt lat="42.212918" lon="2.420727">
        <ele>416</ele>
        <time>1970-01-01T06:33:58.000Z</time>
      </trkpt>
      <trkpt lat="42.212933" lon="2.420659">
        <ele>416</ele>
        <time>1970-01-01T06:33:59.000Z</time>
      </trkpt>
      <trkpt lat="42.212959" lon="2.42053">
        <ele>416</ele>
        <time>1970-01-01T06:34:00.000Z</time>
      </trkpt>
      <trkpt lat="42.212973" lon="2.420468">
        <ele>416</ele>
        <time>1970-01-01T06:34:01.000Z</time>
      </trkpt>
      <trkpt lat="42.212988" lon="2.420407">
        <ele>416</ele>
        <time>1970-01-01T06:34:02.000Z</time>
      </trkpt>
      <trkpt lat="42.213002" lon="2.420346">
        <ele>416</ele>
        <time>1970-01-01T06:34:03.000Z</time>
      </trkpt>
      <trkpt lat="42.213016" lon="2.420284">
        <ele>416</ele>
        <time>1970-01-01T06:34:04.000Z</time>
      </trkpt>
      <trkpt lat="42.21303" lon="2.420223">
        <ele>416</ele>
        <time>1970-01-01T06:34:05.000Z</time>
      </trkpt>
      <trkpt lat="42.213045" lon="2.420162">
        <ele>416</ele>
        <time>1970-01-01T06:34:07.000Z</time>
      </trkpt>
      <trkpt lat="42.213059" lon="2.4201">
        <ele>416</ele>
        <time>1970-01-01T06:34:08.000Z</time>
      </trkpt>
      <trkpt lat="42.213073" lon="2.420039">
        <ele>416</ele>
        <time>1970-01-01T06:34:09.000Z</time>
      </trkpt>
      <trkpt lat="42.213107" lon="2.419936">
        <ele>416</ele>
        <time>1970-01-01T06:34:10.000Z</time>
      </trkpt>
      <trkpt lat="42.213127" lon="2.419893">
        <ele>416</ele>
        <time>1970-01-01T06:34:11.000Z</time>
      </trkpt>
      <trkpt lat="42.213146" lon="2.419849">
        <ele>416</ele>
        <time>1970-01-01T06:34:12.000Z</time>
      </trkpt>
      <trkpt lat="42.213165" lon="2.419806">
        <ele>416</ele>
        <time>1970-01-01T06:34:13.000Z</time>
      </trkpt>
      <trkpt lat="42.213185" lon="2.419762">
        <ele>416</ele>
        <time>1970-01-01T06:34:14.000Z</time>
      </trkpt>
      <trkpt lat="42.213204" lon="2.419718">
        <ele>416</ele>
        <time>1970-01-01T06:34:15.000Z</time>
      </trkpt>
      <trkpt lat="42.213223" lon="2.419675">
        <ele>416</ele>
        <time>1970-01-01T06:34:16.000Z</time>
      </trkpt>
      <trkpt lat="42.213242" lon="2.419631">
        <ele>416</ele>
        <time>1970-01-01T06:34:17.000Z</time>
      </trkpt>
      <trkpt lat="42.213262" lon="2.419588">
        <ele>416</ele>
        <time>1970-01-01T06:34:18.000Z</time>
      </trkpt>
      <trkpt lat="42.213281" lon="2.419544">
        <ele>417</ele>
        <time>1970-01-01T06:34:19.000Z</time>
      </trkpt>
      <trkpt lat="42.213326" lon="2.419459">
        <ele>417</ele>
        <time>1970-01-01T06:34:20.000Z</time>
      </trkpt>
      <trkpt lat="42.213346" lon="2.419418">
        <ele>417</ele>
        <time>1970-01-01T06:34:21.000Z</time>
      </trkpt>
      <trkpt lat="42.213367" lon="2.419378">
        <ele>417</ele>
        <time>1970-01-01T06:34:22.000Z</time>
      </trkpt>
      <trkpt lat="42.213387" lon="2.419337">
        <ele>417</ele>
        <time>1970-01-01T06:34:23.000Z</time>
      </trkpt>
      <trkpt lat="42.213408" lon="2.419296">
        <ele>417</ele>
        <time>1970-01-01T06:34:24.000Z</time>
      </trkpt>
      <trkpt lat="42.213428" lon="2.419255">
        <ele>417</ele>
        <time>1970-01-01T06:34:25.000Z</time>
      </trkpt>
      <trkpt lat="42.213449" lon="2.419214">
        <ele>417</ele>
        <time>1970-01-01T06:34:26.000Z</time>
      </trkpt>
      <trkpt lat="42.213469" lon="2.419174">
        <ele>417</ele>
        <time>1970-01-01T06:34:27.000Z</time>
      </trkpt>
      <trkpt lat="42.21349" lon="2.419133">
        <ele>417</ele>
        <time>1970-01-01T06:34:28.000Z</time>
      </trkpt>
      <trkpt lat="42.21351" lon="2.419092">
        <ele>418</ele>
        <time>1970-01-01T06:34:29.000Z</time>
      </trkpt>
      <trkpt lat="42.213549" lon="2.418976">
        <ele>418</ele>
        <time>1970-01-01T06:34:30.000Z</time>
      </trkpt>
      <trkpt lat="42.213556" lon="2.418926">
        <ele>418</ele>
        <time>1970-01-01T06:34:31.000Z</time>
      </trkpt>
      <trkpt lat="42.213562" lon="2.418875">
        <ele>418</ele>
        <time>1970-01-01T06:34:32.000Z</time>
      </trkpt>
      <trkpt lat="42.213569" lon="2.418825">
        <ele>418</ele>
        <time>1970-01-01T06:34:33.000Z</time>
      </trkpt>
      <trkpt lat="42.213576" lon="2.418774">
        <ele>418</ele>
        <time>1970-01-01T06:34:34.000Z</time>
      </trkpt>
      <trkpt lat="42.213583" lon="2.418724">
        <ele>418</ele>
        <time>1970-01-01T06:34:35.000Z</time>
      </trkpt>
      <trkpt lat="42.213589" lon="2.418673">
        <ele>418</ele>
        <time>1970-01-01T06:34:37.000Z</time>
      </trkpt>
      <trkpt lat="42.213596" lon="2.418623">
        <ele>418</ele>
        <time>1970-01-01T06:34:38.000Z</time>
      </trkpt>
      <trkpt lat="42.213603" lon="2.418572">
        <ele>419</ele>
        <time>1970-01-01T06:34:39.000Z</time>
      </trkpt>
      <trkpt lat="42.213611" lon="2.418496">
        <ele>419</ele>
        <time>1970-01-01T06:34:40.000Z</time>
      </trkpt>
      <trkpt lat="42.213619" lon="2.418448">
        <ele>419</ele>
        <time>1970-01-01T06:34:41.000Z</time>
      </trkpt>
      <trkpt lat="42.213628" lon="2.418401">
        <ele>419</ele>
        <time>1970-01-01T06:34:42.000Z</time>
      </trkpt>
      <trkpt lat="42.213636" lon="2.418353">
        <ele>419</ele>
        <time>1970-01-01T06:34:43.000Z</time>
      </trkpt>
      <trkpt lat="42.213644" lon="2.418306">
        <ele>419</ele>
        <time>1970-01-01T06:34:44.000Z</time>
      </trkpt>
      <trkpt lat="42.213652" lon="2.418258">
        <ele>419</ele>
        <time>1970-01-01T06:34:45.000Z</time>
      </trkpt>
      <trkpt lat="42.21366" lon="2.418211">
        <ele>419</ele>
        <time>1970-01-01T06:34:46.000Z</time>
      </trkpt>
      <trkpt lat="42.213669" lon="2.418163">
        <ele>419</ele>
        <time>1970-01-01T06:34:47.000Z</time>
      </trkpt>
      <trkpt lat="42.213677" lon="2.418116">
        <ele>419</ele>
        <time>1970-01-01T06:34:48.000Z</time>
      </trkpt>
      <trkpt lat="42.213685" lon="2.418068">
        <ele>418</ele>
        <time>1970-01-01T06:34:49.000Z</time>
      </trkpt>
      <trkpt lat="42.213717" lon="2.417989">
        <ele>418</ele>
        <time>1970-01-01T06:34:50.000Z</time>
      </trkpt>
      <trkpt lat="42.213732" lon="2.417955">
        <ele>418</ele>
        <time>1970-01-01T06:34:51.000Z</time>
      </trkpt>
      <trkpt lat="42.213748" lon="2.417921">
        <ele>418</ele>
        <time>1970-01-01T06:34:52.000Z</time>
      </trkpt>
      <trkpt lat="42.213763" lon="2.417887">
        <ele>418</ele>
        <time>1970-01-01T06:34:53.000Z</time>
      </trkpt>
      <trkpt lat="42.213778" lon="2.417853">
        <ele>418</ele>
        <time>1970-01-01T06:34:54.000Z</time>
      </trkpt>
      <trkpt lat="42.213793" lon="2.417818">
        <ele>418</ele>
        <time>1970-01-01T06:34:55.000Z</time>
      </trkpt>
      <trkpt lat="42.213808" lon="2.417784">
        <ele>418</ele>
        <time>1970-01-01T06:34:56.000Z</time>
      </trkpt>
      <trkpt lat="42.213824" lon="2.41775">
        <ele>418</ele>
        <time>1970-01-01T06:34:57.000Z</time>
      </trkpt>
      <trkpt lat="42.213839" lon="2.417716">
        <ele>418</ele>
        <time>1970-01-01T06:34:58.000Z</time>
      </trkpt>
      <trkpt lat="42.213854" lon="2.417682">
        <ele>418</ele>
        <time>1970-01-01T06:34:59.000Z</time>
      </trkpt>
      <trkpt lat="42.213894" lon="2.417612">
        <ele>418</ele>
        <time>1970-01-01T06:35:00.000Z</time>
      </trkpt>
      <trkpt lat="42.213914" lon="2.417581">
        <ele>418</ele>
        <time>1970-01-01T06:35:01.000Z</time>
      </trkpt>
      <trkpt lat="42.213935" lon="2.41755">
        <ele>418</ele>
        <time>1970-01-01T06:35:02.000Z</time>
      </trkpt>
      <trkpt lat="42.213956" lon="2.417519">
        <ele>418</ele>
        <time>1970-01-01T06:35:03.000Z</time>
      </trkpt>
      <trkpt lat="42.213977" lon="2.417488">
        <ele>418</ele>
        <time>1970-01-01T06:35:04.000Z</time>
      </trkpt>
      <trkpt lat="42.213997" lon="2.417457">
        <ele>418</ele>
        <time>1970-01-01T06:35:05.000Z</time>
      </trkpt>
      <trkpt lat="42.214018" lon="2.417426">
        <ele>418</ele>
        <time>1970-01-01T06:35:06.000Z</time>
      </trkpt>
      <trkpt lat="42.214039" lon="2.417395">
        <ele>418</ele>
        <time>1970-01-01T06:35:07.000Z</time>
      </trkpt>
      <trkpt lat="42.214059" lon="2.417364">
        <ele>418</ele>
        <time>1970-01-01T06:35:08.000Z</time>
      </trkpt>
      <trkpt lat="42.21408" lon="2.417333">
        <ele>418</ele>
        <time>1970-01-01T06:35:09.000Z</time>
      </trkpt>
      <trkpt lat="42.214148" lon="2.417272">
        <ele>418</ele>
        <time>1970-01-01T06:35:10.000Z</time>
      </trkpt>
      <trkpt lat="42.214174" lon="2.417249">
        <ele>418</ele>
        <time>1970-01-01T06:35:11.000Z</time>
      </trkpt>
      <trkpt lat="42.214199" lon="2.417227">
        <ele>418</ele>
        <time>1970-01-01T06:35:12.000Z</time>
      </trkpt>
      <trkpt lat="42.214225" lon="2.417204">
        <ele>418</ele>
        <time>1970-01-01T06:35:13.000Z</time>
      </trkpt>
      <trkpt lat="42.214251" lon="2.417181">
        <ele>418</ele>
        <time>1970-01-01T06:35:15.000Z</time>
      </trkpt>
      <trkpt lat="42.214277" lon="2.417158">
        <ele>418</ele>
        <time>1970-01-01T06:35:16.000Z</time>
      </trkpt>
      <trkpt lat="42.214302" lon="2.417136">
        <ele>418</ele>
        <time>1970-01-01T06:35:17.000Z</time>
      </trkpt>
      <trkpt lat="42.214328" lon="2.417113">
        <ele>418</ele>
        <time>1970-01-01T06:35:18.000Z</time>
      </trkpt>
      <trkpt lat="42.214354" lon="2.41709">
        <ele>419</ele>
        <time>1970-01-01T06:35:19.000Z</time>
      </trkpt>
      <trkpt lat="42.214377" lon="2.417004">
        <ele>419</ele>
        <time>1970-01-01T06:35:20.000Z</time>
      </trkpt>
      <trkpt lat="42.214382" lon="2.416956">
        <ele>419</ele>
        <time>1970-01-01T06:35:21.000Z</time>
      </trkpt>
      <trkpt lat="42.214387" lon="2.416908">
        <ele>419</ele>
        <time>1970-01-01T06:35:22.000Z</time>
      </trkpt>
      <trkpt lat="42.214392" lon="2.41686">
        <ele>419</ele>
        <time>1970-01-01T06:35:23.000Z</time>
      </trkpt>
      <trkpt lat="42.214397" lon="2.416813">
        <ele>419</ele>
        <time>1970-01-01T06:35:24.000Z</time>
      </trkpt>
      <trkpt lat="42.214402" lon="2.416765">
        <ele>419</ele>
        <time>1970-01-01T06:35:26.000Z</time>
      </trkpt>
      <trkpt lat="42.214407" lon="2.416717">
        <ele>419</ele>
        <time>1970-01-01T06:35:27.000Z</time>
      </trkpt>
      <trkpt lat="42.214412" lon="2.416669">
        <ele>419</ele>
        <time>1970-01-01T06:35:28.000Z</time>
      </trkpt>
      <trkpt lat="42.214417" lon="2.416621">
        <ele>419</ele>
        <time>1970-01-01T06:35:29.000Z</time>
      </trkpt>
      <trkpt lat="42.214401" lon="2.41652">
        <ele>419</ele>
        <time>1970-01-01T06:35:30.000Z</time>
      </trkpt>
      <trkpt lat="42.214386" lon="2.416467">
        <ele>419</ele>
        <time>1970-01-01T06:35:31.000Z</time>
      </trkpt>
      <trkpt lat="42.214372" lon="2.416413">
        <ele>419</ele>
        <time>1970-01-01T06:35:32.000Z</time>
      </trkpt>
      <trkpt lat="42.214358" lon="2.416359">
        <ele>419</ele>
        <time>1970-01-01T06:35:33.000Z</time>
      </trkpt>
      <trkpt lat="42.214343" lon="2.416306">
        <ele>419</ele>
        <time>1970-01-01T06:35:35.000Z</time>
      </trkpt>
      <trkpt lat="42.214329" lon="2.416252">
        <ele>419</ele>
        <time>1970-01-01T06:35:36.000Z</time>
      </trkpt>
      <trkpt lat="42.214314" lon="2.416199">
        <ele>419</ele>
        <time>1970-01-01T06:35:37.000Z</time>
      </trkpt>
      <trkpt lat="42.2143" lon="2.416145">
        <ele>420</ele>
        <time>1970-01-01T06:35:39.000Z</time>
      </trkpt>
      <trkpt lat="42.214278" lon="2.416063">
        <ele>420</ele>
        <time>1970-01-01T06:35:40.000Z</time>
      </trkpt>
      <trkpt lat="42.214267" lon="2.41602">
        <ele>420</ele>
        <time>1970-01-01T06:35:41.000Z</time>
      </trkpt>
      <trkpt lat="42.214257" lon="2.415977">
        <ele>420</ele>
        <time>1970-01-01T06:35:42.000Z</time>
      </trkpt>
      <trkpt lat="42.214246" lon="2.415934">
        <ele>420</ele>
        <time>1970-01-01T06:35:43.000Z</time>
      </trkpt>
      <trkpt lat="42.214236" lon="2.41589">
        <ele>420</ele>
        <time>1970-01-01T06:35:44.000Z</time>
      </trkpt>
      <trkpt lat="42.214226" lon="2.415847">
        <ele>420</ele>
        <time>1970-01-01T06:35:45.000Z</time>
      </trkpt>
      <trkpt lat="42.214215" lon="2.415804">
        <ele>420</ele>
        <time>1970-01-01T06:35:46.000Z</time>
      </trkpt>
      <trkpt lat="42.214205" lon="2.415761">
        <ele>420</ele>
        <time>1970-01-01T06:35:47.000Z</time>
      </trkpt>
      <trkpt lat="42.214194" lon="2.415718">
        <ele>420</ele>
        <time>1970-01-01T06:35:48.000Z</time>
      </trkpt>
      <trkpt lat="42.214184" lon="2.415675">
        <ele>420</ele>
        <time>1970-01-01T06:35:49.000Z</time>
      </trkpt>
      <trkpt lat="42.214166" lon="2.415584">
        <ele>420</ele>
        <time>1970-01-01T06:35:50.000Z</time>
      </trkpt>
      <trkpt lat="42.214154" lon="2.415542">
        <ele>420</ele>
        <time>1970-01-01T06:35:51.000Z</time>
      </trkpt>
      <trkpt lat="42.214142" lon="2.415501">
        <ele>420</ele>
        <time>1970-01-01T06:35:52.000Z</time>
      </trkpt>
      <trkpt lat="42.21413" lon="2.41546">
        <ele>420</ele>
        <time>1970-01-01T06:35:53.000Z</time>
      </trkpt>
      <trkpt lat="42.214118" lon="2.415418">
        <ele>420</ele>
        <time>1970-01-01T06:35:54.000Z</time>
      </trkpt>
      <trkpt lat="42.214106" lon="2.415377">
        <ele>420</ele>
        <time>1970-01-01T06:35:55.000Z</time>
      </trkpt>
      <trkpt lat="42.214094" lon="2.415336">
        <ele>420</ele>
        <time>1970-01-01T06:35:56.000Z</time>
      </trkpt>
      <trkpt lat="42.214082" lon="2.415295">
        <ele>420</ele>
        <time>1970-01-01T06:35:57.000Z</time>
      </trkpt>
      <trkpt lat="42.21407" lon="2.415253">
        <ele>420</ele>
        <time>1970-01-01T06:35:58.000Z</time>
      </trkpt>
      <trkpt lat="42.214058" lon="2.415212">
        <ele>422</ele>
        <time>1970-01-01T06:35:59.000Z</time>
      </trkpt>
      <trkpt lat="42.214035" lon="2.415142">
        <ele>422</ele>
        <time>1970-01-01T06:36:00.000Z</time>
      </trkpt>
      <trkpt lat="42.214029" lon="2.415104">
        <ele>422</ele>
        <time>1970-01-01T06:36:01.000Z</time>
      </trkpt>
      <trkpt lat="42.214023" lon="2.415067">
        <ele>422</ele>
        <time>1970-01-01T06:36:02.000Z</time>
      </trkpt>
      <trkpt lat="42.214017" lon="2.415029">
        <ele>422</ele>
        <time>1970-01-01T06:36:03.000Z</time>
      </trkpt>
      <trkpt lat="42.214011" lon="2.414991">
        <ele>422</ele>
        <time>1970-01-01T06:36:04.000Z</time>
      </trkpt>
      <trkpt lat="42.214005" lon="2.414953">
        <ele>422</ele>
        <time>1970-01-01T06:36:05.000Z</time>
      </trkpt>
      <trkpt lat="42.213999" lon="2.414916">
        <ele>422</ele>
        <time>1970-01-01T06:36:07.000Z</time>
      </trkpt>
      <trkpt lat="42.213993" lon="2.414878">
        <ele>422</ele>
        <time>1970-01-01T06:36:08.000Z</time>
      </trkpt>
      <trkpt lat="42.213987" lon="2.41484">
        <ele>424</ele>
        <time>1970-01-01T06:36:09.000Z</time>
      </trkpt>
      <trkpt lat="42.21399" lon="2.41478">
        <ele>424</ele>
        <time>1970-01-01T06:36:10.000Z</time>
      </trkpt>
      <trkpt lat="42.213993" lon="2.414754">
        <ele>424</ele>
        <time>1970-01-01T06:36:11.000Z</time>
      </trkpt>
      <trkpt lat="42.213997" lon="2.414727">
        <ele>424</ele>
        <time>1970-01-01T06:36:12.000Z</time>
      </trkpt>
      <trkpt lat="42.214001" lon="2.4147">
        <ele>424</ele>
        <time>1970-01-01T06:36:13.000Z</time>
      </trkpt>
      <trkpt lat="42.214005" lon="2.414673">
        <ele>424</ele>
        <time>1970-01-01T06:36:15.000Z</time>
      </trkpt>
      <trkpt lat="42.214008" lon="2.414647">
        <ele>424</ele>
        <time>1970-01-01T06:36:17.000Z</time>
      </trkpt>
      <trkpt lat="42.214012" lon="2.41462">
        <ele>424</ele>
        <time>1970-01-01T06:36:19.000Z</time>
      </trkpt>
      <trkpt lat="42.214023" lon="2.414584">
        <ele>424</ele>
        <time>1970-01-01T06:36:21.000Z</time>
      </trkpt>
      <trkpt lat="42.214037" lon="2.414547">
        <ele>424</ele>
        <time>1970-01-01T06:36:23.000Z</time>
      </trkpt>
      <trkpt lat="42.21405" lon="2.414513">
        <ele>424</ele>
        <time>1970-01-01T06:36:25.000Z</time>
      </trkpt>
      <trkpt lat="42.21406" lon="2.414481">
        <ele>424</ele>
        <time>1970-01-01T06:36:27.000Z</time>
      </trkpt>
      <trkpt lat="42.214074" lon="2.414456">
        <ele>424</ele>
        <time>1970-01-01T06:36:29.000Z</time>
      </trkpt>
      <trkpt lat="42.214091" lon="2.414428">
        <ele>424</ele>
        <time>1970-01-01T06:36:31.000Z</time>
      </trkpt>
      <trkpt lat="42.214099" lon="2.41439">
        <ele>424</ele>
        <time>1970-01-01T06:36:33.000Z</time>
      </trkpt>
      <trkpt lat="42.214106" lon="2.414353">
        <ele>424</ele>
        <time>1970-01-01T06:36:35.000Z</time>
      </trkpt>
      <trkpt lat="42.214116" lon="2.414316">
        <ele>424</ele>
        <time>1970-01-01T06:36:37.000Z</time>
      </trkpt>
      <trkpt lat="42.214129" lon="2.414281">
        <ele>424</ele>
        <time>1970-01-01T06:36:39.000Z</time>
      </trkpt>
      <trkpt lat="42.214142" lon="2.414247">
        <ele>424</ele>
        <time>1970-01-01T06:36:41.000Z</time>
      </trkpt>
      <trkpt lat="42.214152" lon="2.414212">
        <ele>424</ele>
        <time>1970-01-01T06:36:43.000Z</time>
      </trkpt>
      <trkpt lat="42.214167" lon="2.414184">
        <ele>424</ele>
        <time>1970-01-01T06:36:45.000Z</time>
      </trkpt>
      <trkpt lat="42.214183" lon="2.414151">
        <ele>424</ele>
        <time>1970-01-01T06:36:47.000Z</time>
      </trkpt>
      <trkpt lat="42.214191" lon="2.41412">
        <ele>425</ele>
        <time>1970-01-01T06:36:49.000Z</time>
      </trkpt>
      <trkpt lat="42.214204" lon="2.414052">
        <ele>425</ele>
        <time>1970-01-01T06:36:50.000Z</time>
      </trkpt>
      <trkpt lat="42.21421" lon="2.414023">
        <ele>425</ele>
        <time>1970-01-01T06:36:52.000Z</time>
      </trkpt>
      <trkpt lat="42.214215" lon="2.413994">
        <ele>425</ele>
        <time>1970-01-01T06:36:54.000Z</time>
      </trkpt>
      <trkpt lat="42.21422" lon="2.413966">
        <ele>425</ele>
        <time>1970-01-01T06:36:56.000Z</time>
      </trkpt>
      <trkpt lat="42.214225" lon="2.413937">
        <ele>425</ele>
        <time>1970-01-01T06:36:57.000Z</time>
      </trkpt>
      <trkpt lat="42.214231" lon="2.413908">
        <ele>425</ele>
        <time>1970-01-01T06:36:58.000Z</time>
      </trkpt>
      <trkpt lat="42.214236" lon="2.413879">
        <ele>425</ele>
        <time>1970-01-01T06:36:59.000Z</time>
      </trkpt>
      <trkpt lat="42.21424" lon="2.413839">
        <ele>425</ele>
        <time>1970-01-01T06:37:00.000Z</time>
      </trkpt>
      <trkpt lat="42.214241" lon="2.413814">
        <ele>425</ele>
        <time>1970-01-01T06:37:01.000Z</time>
      </trkpt>
      <trkpt lat="42.214243" lon="2.413788">
        <ele>425</ele>
        <time>1970-01-01T06:37:02.000Z</time>
      </trkpt>
      <trkpt lat="42.214245" lon="2.413763">
        <ele>425</ele>
        <time>1970-01-01T06:37:03.000Z</time>
      </trkpt>
      <trkpt lat="42.214246" lon="2.413738">
        <ele>425</ele>
        <time>1970-01-01T06:37:04.000Z</time>
      </trkpt>
      <trkpt lat="42.214248" lon="2.413713">
        <ele>425</ele>
        <time>1970-01-01T06:37:05.000Z</time>
      </trkpt>
      <trkpt lat="42.21425" lon="2.413687">
        <ele>425</ele>
        <time>1970-01-01T06:37:07.000Z</time>
      </trkpt>
      <trkpt lat="42.214251" lon="2.413662">
        <ele>425</ele>
        <time>1970-01-01T06:37:08.000Z</time>
      </trkpt>
      <trkpt lat="42.214253" lon="2.413637">
        <ele>426</ele>
        <time>1970-01-01T06:37:09.000Z</time>
      </trkpt>
      <trkpt lat="42.214253" lon="2.41363">
        <ele>427</ele>
        <time>1970-01-01T06:37:14.000Z</time>
      </trkpt>
      <trkpt lat="42.214237" lon="2.413676">
        <ele>423</ele>
        <time>1970-01-01T00:00:00.000Z</time>
      </trkpt>
      <trkpt lat="42.214224" lon="2.413722">
        <ele>423</ele>
        <time>1970-01-01T00:00:01.000Z</time>
      </trkpt>
      <trkpt lat="42.21421" lon="2.413767">
        <ele>423</ele>
        <time>1970-01-01T00:00:02.000Z</time>
      </trkpt>
      <trkpt lat="42.214197" lon="2.413813">
        <ele>423</ele>
        <time>1970-01-01T00:00:04.000Z</time>
      </trkpt>
      <trkpt lat="42.214183" lon="2.413859">
        <ele>423</ele>
        <time>1970-01-01T00:00:06.000Z</time>
      </trkpt>
      <trkpt lat="42.21417" lon="2.413904">
        <ele>423</ele>
        <time>1970-01-01T00:00:07.000Z</time>
      </trkpt>
      <trkpt lat="42.214156" lon="2.41395">
        <ele>423</ele>
        <time>1970-01-01T00:00:08.000Z</time>
      </trkpt>
      <trkpt lat="42.214143" lon="2.413996">
        <ele>423</ele>
        <time>1970-01-01T00:00:09.000Z</time>
      </trkpt>
      <trkpt lat="42.214129" lon="2.414041">
        <ele>423</ele>
        <time>1970-01-01T00:00:10.000Z</time>
      </trkpt>
      <trkpt lat="42.214116" lon="2.414087">
        <ele>423</ele>
        <time>1970-01-01T00:00:11.000Z</time>
      </trkpt>
      <trkpt lat="42.214102" lon="2.414132">
        <ele>423</ele>
        <time>1970-01-01T00:00:12.000Z</time>
      </trkpt>
      <trkpt lat="42.214089" lon="2.414178">
        <ele>423</ele>
        <time>1970-01-01T00:00:13.000Z</time>
      </trkpt>
      <trkpt lat="42.214075" lon="2.414224">
        <ele>423</ele>
        <time>1970-01-01T00:00:14.000Z</time>
      </trkpt>
      <trkpt lat="42.214062" lon="2.414269">
        <ele>423</ele>
        <time>1970-01-01T00:00:15.000Z</time>
      </trkpt>
      <trkpt lat="42.214048" lon="2.414315">
        <ele>423</ele>
        <time>1970-01-01T00:00:16.000Z</time>
      </trkpt>
      <trkpt lat="42.214035" lon="2.414361">
        <ele>423</ele>
        <time>1970-01-01T00:00:17.000Z</time>
      </trkpt>
      <trkpt lat="42.214021" lon="2.414406">
        <ele>423</ele>
        <time>1970-01-01T00:00:18.000Z</time>
      </trkpt>
      <trkpt lat="42.214008" lon="2.414452">
        <ele>423</ele>
        <time>1970-01-01T00:00:19.000Z</time>
      </trkpt>
      <trkpt lat="42.213989" lon="2.414547">
        <ele>423</ele>
        <time>1970-01-01T00:00:20.000Z</time>
      </trkpt>
      <trkpt lat="42.213985" lon="2.414595">
        <ele>423</ele>
        <time>1970-01-01T00:00:21.000Z</time>
      </trkpt>
      <trkpt lat="42.213982" lon="2.414644">
        <ele>423</ele>
        <time>1970-01-01T00:00:22.000Z</time>
      </trkpt>
      <trkpt lat="42.213978" lon="2.414693">
        <ele>423</ele>
        <time>1970-01-01T00:00:23.000Z</time>
      </trkpt>
      <trkpt lat="42.213975" lon="2.414742">
        <ele>423</ele>
        <time>1970-01-01T00:00:24.000Z</time>
      </trkpt>
      <trkpt lat="42.213971" lon="2.41479">
        <ele>423</ele>
        <time>1970-01-01T00:00:25.000Z</time>
      </trkpt>
      <trkpt lat="42.213968" lon="2.414839">
        <ele>423</ele>
        <time>1970-01-01T00:00:26.000Z</time>
      </trkpt>
      <trkpt lat="42.213964" lon="2.414888">
        <ele>423</ele>
        <time>1970-01-01T00:00:27.000Z</time>
      </trkpt>
      <trkpt lat="42.213961" lon="2.414936">
        <ele>423</ele>
        <time>1970-01-01T00:00:28.000Z</time>
      </trkpt>
      <trkpt lat="42.213957" lon="2.414985">
        <ele>422</ele>
        <time>1970-01-01T00:00:29.000Z</time>
      </trkpt>
      <trkpt lat="42.213984" lon="2.415116">
        <ele>422</ele>
        <time>1970-01-01T00:00:30.000Z</time>
      </trkpt>
      <trkpt lat="42.214" lon="2.415181">
        <ele>422</ele>
        <time>1970-01-01T00:00:31.000Z</time>
      </trkpt>
      <trkpt lat="42.214015" lon="2.415245">
        <ele>422</ele>
        <time>1970-01-01T00:00:32.000Z</time>
      </trkpt>
      <trkpt lat="42.214031" lon="2.41531">
        <ele>422</ele>
        <time>1970-01-01T00:00:33.000Z</time>
      </trkpt>
      <trkpt lat="42.214047" lon="2.415374">
        <ele>422</ele>
        <time>1970-01-01T00:00:34.000Z</time>
      </trkpt>
      <trkpt lat="42.214063" lon="2.415438">
        <ele>422</ele>
        <time>1970-01-01T00:00:35.000Z</time>
      </trkpt>
      <trkpt lat="42.214079" lon="2.415503">
        <ele>422</ele>
        <time>1970-01-01T00:00:36.000Z</time>
      </trkpt>
      <trkpt lat="42.214094" lon="2.415567">
        <ele>422</ele>
        <time>1970-01-01T00:00:37.000Z</time>
      </trkpt>
      <trkpt lat="42.21411" lon="2.415632">
        <ele>422</ele>
        <time>1970-01-01T00:00:38.000Z</time>
      </trkpt>
      <trkpt lat="42.214126" lon="2.415696">
        <ele>421</ele>
        <time>1970-01-01T00:00:39.000Z</time>
      </trkpt>
      <trkpt lat="42.214154" lon="2.415831">
        <ele>421</ele>
        <time>1970-01-01T00:00:40.000Z</time>
      </trkpt>
      <trkpt lat="42.214174" lon="2.415894">
        <ele>421</ele>
        <time>1970-01-01T00:00:41.000Z</time>
      </trkpt>
      <trkpt lat="42.214194" lon="2.415958">
        <ele>421</ele>
        <time>1970-01-01T00:00:42.000Z</time>
      </trkpt>
      <trkpt lat="42.214214" lon="2.416022">
        <ele>421</ele>
        <time>1970-01-01T00:00:43.000Z</time>
      </trkpt>
      <trkpt lat="42.214234" lon="2.416085">
        <ele>421</ele>
        <time>1970-01-01T00:00:44.000Z</time>
      </trkpt>
      <trkpt lat="42.214253" lon="2.416149">
        <ele>421</ele>
        <time>1970-01-01T00:00:45.000Z</time>
      </trkpt>
      <trkpt lat="42.214273" lon="2.416213">
        <ele>421</ele>
        <time>1970-01-01T00:00:46.000Z</time>
      </trkpt>
      <trkpt lat="42.214293" lon="2.416277">
        <ele>421</ele>
        <time>1970-01-01T00:00:47.000Z</time>
      </trkpt>
      <trkpt lat="42.214313" lon="2.41634">
        <ele>421</ele>
        <time>1970-01-01T00:00:48.000Z</time>
      </trkpt>
      <trkpt lat="42.214333" lon="2.416404">
        <ele>419</ele>
        <time>1970-01-01T00:00:49.000Z</time>
      </trkpt>
      <trkpt lat="42.214346" lon="2.416549">
        <ele>419</ele>
        <time>1970-01-01T00:00:50.000Z</time>
      </trkpt>
      <trkpt lat="42.214339" lon="2.416616">
        <ele>419</ele>
        <time>1970-01-01T00:00:51.000Z</time>
      </trkpt>
      <trkpt lat="42.214333" lon="2.416682">
        <ele>419</ele>
        <time>1970-01-01T00:00:52.000Z</time>
      </trkpt>
      <trkpt lat="42.214326" lon="2.416749">
        <ele>419</ele>
        <time>1970-01-01T00:00:53.000Z</time>
      </trkpt>
      <trkpt lat="42.214319" lon="2.416816">
        <ele>419</ele>
        <time>1970-01-01T00:00:54.000Z</time>
      </trkpt>
      <trkpt lat="42.214312" lon="2.416883">
        <ele>419</ele>
        <time>1970-01-01T00:00:55.000Z</time>
      </trkpt>
      <trkpt lat="42.214305" lon="2.41695">
        <ele>419</ele>
        <time>1970-01-01T00:00:56.000Z</time>
      </trkpt>
      <trkpt lat="42.214299" lon="2.417016">
        <ele>419</ele>
        <time>1970-01-01T00:00:57.000Z</time>
      </trkpt>
      <trkpt lat="42.214292" lon="2.417083">
        <ele>419</ele>
        <time>1970-01-01T00:00:58.000Z</time>
      </trkpt>
      <trkpt lat="42.214285" lon="2.41715">
        <ele>417</ele>
        <time>1970-01-01T00:00:59.000Z</time>
      </trkpt>
      <trkpt lat="42.214219" lon="2.41722">
        <ele>417</ele>
        <time>1970-01-01T00:01:00.000Z</time>
      </trkpt>
      <trkpt lat="42.214185" lon="2.41725">
        <ele>417</ele>
        <time>1970-01-01T00:01:01.000Z</time>
      </trkpt>
      <trkpt lat="42.21415" lon="2.417281">
        <ele>417</ele>
        <time>1970-01-01T00:01:02.000Z</time>
      </trkpt>
      <trkpt lat="42.214116" lon="2.417311">
        <ele>417</ele>
        <time>1970-01-01T00:01:03.000Z</time>
      </trkpt>
      <trkpt lat="42.214082" lon="2.417342">
        <ele>417</ele>
        <time>1970-01-01T00:01:04.000Z</time>
      </trkpt>
      <trkpt lat="42.214048" lon="2.417373">
        <ele>417</ele>
        <time>1970-01-01T00:01:05.000Z</time>
      </trkpt>
      <trkpt lat="42.214014" lon="2.417403">
        <ele>417</ele>
        <time>1970-01-01T00:01:06.000Z</time>
      </trkpt>
      <trkpt lat="42.213979" lon="2.417434">
        <ele>417</ele>
        <time>1970-01-01T00:01:07.000Z</time>
      </trkpt>
      <trkpt lat="42.213945" lon="2.417464">
        <ele>417</ele>
        <time>1970-01-01T00:01:08.000Z</time>
      </trkpt>
      <trkpt lat="42.213911" lon="2.417495">
        <ele>416</ele>
        <time>1970-01-01T00:01:09.000Z</time>
      </trkpt>
      <trkpt lat="42.213863" lon="2.417589">
        <ele>416</ele>
        <time>1970-01-01T00:01:10.000Z</time>
      </trkpt>
      <trkpt lat="42.213842" lon="2.417637">
        <ele>416</ele>
        <time>1970-01-01T00:01:11.000Z</time>
      </trkpt>
      <trkpt lat="42.213822" lon="2.417686">
        <ele>416</ele>
        <time>1970-01-01T00:01:12.000Z</time>
      </trkpt>
      <trkpt lat="42.213802" lon="2.417734">
        <ele>416</ele>
        <time>1970-01-01T00:01:13.000Z</time>
      </trkpt>
      <trkpt lat="42.213782" lon="2.417782">
        <ele>416</ele>
        <time>1970-01-01T00:01:14.000Z</time>
      </trkpt>
      <trkpt lat="42.213761" lon="2.41783">
        <ele>416</ele>
        <time>1970-01-01T00:01:15.000Z</time>
      </trkpt>
      <trkpt lat="42.213741" lon="2.417878">
        <ele>416</ele>
        <time>1970-01-01T00:01:16.000Z</time>
      </trkpt>
      <trkpt lat="42.213721" lon="2.417927">
        <ele>416</ele>
        <time>1970-01-01T00:01:17.000Z</time>
      </trkpt>
      <trkpt lat="42.2137" lon="2.417975">
        <ele>416</ele>
        <time>1970-01-01T00:01:18.000Z</time>
      </trkpt>
      <trkpt lat="42.21368" lon="2.418023">
        <ele>416</ele>
        <time>1970-01-01T00:01:19.000Z</time>
      </trkpt>
      <trkpt lat="42.213652" lon="2.418114">
        <ele>416</ele>
        <time>1970-01-01T00:01:20.000Z</time>
      </trkpt>
      <trkpt lat="42.213642" lon="2.418159">
        <ele>416</ele>
        <time>1970-01-01T00:01:21.000Z</time>
      </trkpt>
      <trkpt lat="42.213633" lon="2.418205">
        <ele>416</ele>
        <time>1970-01-01T00:01:22.000Z</time>
      </trkpt>
      <trkpt lat="42.213623" lon="2.41825">
        <ele>416</ele>
        <time>1970-01-01T00:01:23.000Z</time>
      </trkpt>
      <trkpt lat="42.213614" lon="2.418296">
        <ele>416</ele>
        <time>1970-01-01T00:01:24.000Z</time>
      </trkpt>
      <trkpt lat="42.213604" lon="2.418341">
        <ele>416</ele>
        <time>1970-01-01T00:01:25.000Z</time>
      </trkpt>
      <trkpt lat="42.213595" lon="2.418387">
        <ele>416</ele>
        <time>1970-01-01T00:01:26.000Z</time>
      </trkpt>
      <trkpt lat="42.213585" lon="2.418432">
        <ele>416</ele>
        <time>1970-01-01T00:01:27.000Z</time>
      </trkpt>
      <trkpt lat="42.213576" lon="2.418478">
        <ele>416</ele>
        <time>1970-01-01T00:01:28.000Z</time>
      </trkpt>
      <trkpt lat="42.213566" lon="2.418523">
        <ele>416</ele>
        <time>1970-01-01T00:01:29.000Z</time>
      </trkpt>
      <trkpt lat="42.213555" lon="2.418622">
        <ele>416</ele>
        <time>1970-01-01T00:01:30.000Z</time>
      </trkpt>
      <trkpt lat="42.213547" lon="2.418668">
        <ele>416</ele>
        <time>1970-01-01T00:01:31.000Z</time>
      </trkpt>
      <trkpt lat="42.213539" lon="2.418715">
        <ele>416</ele>
        <time>1970-01-01T00:01:32.000Z</time>
      </trkpt>
      <trkpt lat="42.213531" lon="2.418761">
        <ele>416</ele>
        <time>1970-01-01T00:01:33.000Z</time>
      </trkpt>
      <trkpt lat="42.213524" lon="2.418807">
        <ele>416</ele>
        <time>1970-01-01T00:01:34.000Z</time>
      </trkpt>
      <trkpt lat="42.213516" lon="2.418853">
        <ele>416</ele>
        <time>1970-01-01T00:01:35.000Z</time>
      </trkpt>
      <trkpt lat="42.213508" lon="2.418899">
        <ele>416</ele>
        <time>1970-01-01T00:01:36.000Z</time>
      </trkpt>
      <trkpt lat="42.2135" lon="2.418946">
        <ele>416</ele>
        <time>1970-01-01T00:01:37.000Z</time>
      </trkpt>
      <trkpt lat="42.213492" lon="2.418992">
        <ele>416</ele>
        <time>1970-01-01T00:01:38.000Z</time>
      </trkpt>
      <trkpt lat="42.213484" lon="2.419038">
        <ele>417</ele>
        <time>1970-01-01T00:01:39.000Z</time>
      </trkpt>
      <trkpt lat="42.213445" lon="2.419127">
        <ele>417</ele>
        <time>1970-01-01T00:01:40.000Z</time>
      </trkpt>
      <trkpt lat="42.213424" lon="2.41917">
        <ele>417</ele>
        <time>1970-01-01T00:01:41.000Z</time>
      </trkpt>
      <trkpt lat="42.213404" lon="2.419212">
        <ele>417</ele>
        <time>1970-01-01T00:01:42.000Z</time>
      </trkpt>
      <trkpt lat="42.213383" lon="2.419255">
        <ele>417</ele>
        <time>1970-01-01T00:01:43.000Z</time>
      </trkpt>
      <trkpt lat="42.213363" lon="2.419298">
        <ele>417</ele>
        <time>1970-01-01T00:01:44.000Z</time>
      </trkpt>
      <trkpt lat="42.213342" lon="2.419341">
        <ele>417</ele>
        <time>1970-01-01T00:01:45.000Z</time>
      </trkpt>
      <trkpt lat="42.213322" lon="2.419384">
        <ele>417</ele>
        <time>1970-01-01T00:01:46.000Z</time>
      </trkpt>
      <trkpt lat="42.213301" lon="2.419426">
        <ele>417</ele>
        <time>1970-01-01T00:01:47.000Z</time>
      </trkpt>
      <trkpt lat="42.213281" lon="2.419469">
        <ele>417</ele>
        <time>1970-01-01T00:01:48.000Z</time>
      </trkpt>
      <trkpt lat="42.21326" lon="2.419512">
        <ele>416</ele>
        <time>1970-01-01T00:01:49.000Z</time>
      </trkpt>
      <trkpt lat="42.213217" lon="2.41961">
        <ele>416</ele>
        <time>1970-01-01T00:01:50.000Z</time>
      </trkpt>
      <trkpt lat="42.213199" lon="2.419657">
        <ele>416</ele>
        <time>1970-01-01T00:01:51.000Z</time>
      </trkpt>
      <trkpt lat="42.21318" lon="2.419703">
        <ele>416</ele>
        <time>1970-01-01T00:01:52.000Z</time>
      </trkpt>
      <trkpt lat="42.213161" lon="2.41975">
        <ele>416</ele>
        <time>1970-01-01T00:01:53.000Z</time>
      </trkpt>
      <trkpt lat="42.213143" lon="2.419797">
        <ele>416</ele>
        <time>1970-01-01T00:01:54.000Z</time>
      </trkpt>
      <trkpt lat="42.213124" lon="2.419844">
        <ele>416</ele>
        <time>1970-01-01T00:01:55.000Z</time>
      </trkpt>
      <trkpt lat="42.213105" lon="2.419891">
        <ele>416</ele>
        <time>1970-01-01T00:01:56.000Z</time>
      </trkpt>
      <trkpt lat="42.213086" lon="2.419937">
        <ele>416</ele>
        <time>1970-01-01T00:01:57.000Z</time>
      </trkpt>
      <trkpt lat="42.213068" lon="2.419984">
        <ele>416</ele>
        <time>1970-01-01T00:01:58.000Z</time>
      </trkpt>
      <trkpt lat="42.213049" lon="2.420031">
        <ele>415</ele>
        <time>1970-01-01T00:01:59.000Z</time>
      </trkpt>
      <trkpt lat="42.213021" lon="2.420137">
        <ele>415</ele>
        <time>1970-01-01T00:02:00.000Z</time>
      </trkpt>
      <trkpt lat="42.21301" lon="2.420187">
        <ele>415</ele>
        <time>1970-01-01T00:02:01.000Z</time>
      </trkpt>
      <trkpt lat="42.212999" lon="2.420238">
        <ele>415</ele>
        <time>1970-01-01T00:02:02.000Z</time>
      </trkpt>
      <trkpt lat="42.212988" lon="2.420288">
        <ele>415</ele>
        <time>1970-01-01T00:02:03.000Z</time>
      </trkpt>
      <trkpt lat="42.212978" lon="2.420338">
        <ele>415</ele>
        <time>1970-01-01T00:02:04.000Z</time>
      </trkpt>
      <trkpt lat="42.212967" lon="2.420388">
        <ele>415</ele>
        <time>1970-01-01T00:02:05.000Z</time>
      </trkpt>
      <trkpt lat="42.212956" lon="2.420438">
        <ele>415</ele>
        <time>1970-01-01T00:02:06.000Z</time>
      </trkpt>
      <trkpt lat="42.212945" lon="2.420489">
        <ele>415</ele>
        <time>1970-01-01T00:02:07.000Z</time>
      </trkpt>
      <trkpt lat="42.212934" lon="2.420539">
        <ele>415</ele>
        <time>1970-01-01T00:02:08.000Z</time>
      </trkpt>
      <trkpt lat="42.212923" lon="2.420589">
        <ele>413</ele>
        <time>1970-01-01T00:02:09.000Z</time>
      </trkpt>
      <trkpt lat="42.212897" lon="2.420709">
        <ele>413</ele>
        <time>1970-01-01T00:02:10.000Z</time>
      </trkpt>
      <trkpt lat="42.212883" lon="2.420771">
        <ele>413</ele>
        <time>1970-01-01T00:02:11.000Z</time>
      </trkpt>
      <trkpt lat="42.21287" lon="2.420832">
        <ele>413</ele>
        <time>1970-01-01T00:02:12.000Z</time>
      </trkpt>
      <trkpt lat="42.212856" lon="2.420893">
        <ele>413</ele>
        <time>1970-01-01T00:02:13.000Z</time>
      </trkpt>
      <trkpt lat="42.212843" lon="2.420955">
        <ele>413</ele>
        <time>1970-01-01T00:02:14.000Z</time>
      </trkpt>
      <trkpt lat="42.212829" lon="2.421016">
        <ele>413</ele>
        <time>1970-01-01T00:02:15.000Z</time>
      </trkpt>
      <trkpt lat="42.212816" lon="2.421077">
        <ele>413</ele>
        <time>1970-01-01T00:02:16.000Z</time>
      </trkpt>
      <trkpt lat="42.212802" lon="2.421138">
        <ele>413</ele>
        <time>1970-01-01T00:02:17.000Z</time>
      </trkpt>
      <trkpt lat="42.212789" lon="2.4212">
        <ele>413</ele>
        <time>1970-01-01T00:02:18.000Z</time>
      </trkpt>
      <trkpt lat="42.212775" lon="2.421261">
        <ele>413</ele>
        <time>1970-01-01T00:02:19.000Z</time>
      </trkpt>
      <trkpt lat="42.212755" lon="2.421377">
        <ele>413</ele>
        <time>1970-01-01T00:02:20.000Z</time>
      </trkpt>
      <trkpt lat="42.212749" lon="2.421432">
        <ele>413</ele>
        <time>1970-01-01T00:02:21.000Z</time>
      </trkpt>
      <trkpt lat="42.212744" lon="2.421486">
        <ele>413</ele>
        <time>1970-01-01T00:02:22.000Z</time>
      </trkpt>
      <trkpt lat="42.212738" lon="2.42154">
        <ele>413</ele>
        <time>1970-01-01T00:02:23.000Z</time>
      </trkpt>
      <trkpt lat="42.212732" lon="2.421595">
        <ele>413</ele>
        <time>1970-01-01T00:02:24.000Z</time>
      </trkpt>
      <trkpt lat="42.212726" lon="2.421649">
        <ele>413</ele>
        <time>1970-01-01T00:02:25.000Z</time>
      </trkpt>
      <trkpt lat="42.21272" lon="2.421703">
        <ele>413</ele>
        <time>1970-01-01T00:02:26.000Z</time>
      </trkpt>
      <trkpt lat="42.212715" lon="2.421757">
        <ele>413</ele>
        <time>1970-01-01T00:02:27.000Z</time>
      </trkpt>
      <trkpt lat="42.212709" lon="2.421812">
        <ele>413</ele>
        <time>1970-01-01T00:02:28.000Z</time>
      </trkpt>
      <trkpt lat="42.212703" lon="2.421866">
        <ele>413</ele>
        <time>1970-01-01T00:02:29.000Z</time>
      </trkpt>
      <trkpt lat="42.212711" lon="2.421974">
        <ele>413</ele>
        <time>1970-01-01T00:02:30.000Z</time>
      </trkpt>
      <trkpt lat="42.212722" lon="2.422017">
        <ele>413</ele>
        <time>1970-01-01T00:02:31.000Z</time>
      </trkpt>
      <trkpt lat="42.212732" lon="2.422061">
        <ele>413</ele>
        <time>1970-01-01T00:02:32.000Z</time>
      </trkpt>
      <trkpt lat="42.212743" lon="2.422104">
        <ele>413</ele>
        <time>1970-01-01T00:02:33.000Z</time>
      </trkpt>
      <trkpt lat="42.212753" lon="2.422148">
        <ele>413</ele>
        <time>1970-01-01T00:02:34.000Z</time>
      </trkpt>
      <trkpt lat="42.212763" lon="2.422192">
        <ele>413</ele>
        <time>1970-01-01T00:02:35.000Z</time>
      </trkpt>
      <trkpt lat="42.212774" lon="2.422235">
        <ele>413</ele>
        <time>1970-01-01T00:02:36.000Z</time>
      </trkpt>
      <trkpt lat="42.212784" lon="2.422279">
        <ele>413</ele>
        <time>1970-01-01T00:02:37.000Z</time>
      </trkpt>
      <trkpt lat="42.212795" lon="2.422322">
        <ele>413</ele>
        <time>1970-01-01T00:02:38.000Z</time>
      </trkpt>
      <trkpt lat="42.212805" lon="2.422366">
        <ele>415</ele>
        <time>1970-01-01T00:02:39.000Z</time>
      </trkpt>
      <trkpt lat="42.212837" lon="2.422436">
        <ele>415</ele>
        <time>1970-01-01T00:02:40.000Z</time>
      </trkpt>
      <trkpt lat="42.21285" lon="2.422469">
        <ele>415</ele>
        <time>1970-01-01T00:02:41.000Z</time>
      </trkpt>
      <trkpt lat="42.212864" lon="2.422503">
        <ele>415</ele>
        <time>1970-01-01T00:02:42.000Z</time>
      </trkpt>
      <trkpt lat="42.212877" lon="2.422536">
        <ele>415</ele>
        <time>1970-01-01T00:02:43.000Z</time>
      </trkpt>
      <trkpt lat="42.212891" lon="2.422569">
        <ele>415</ele>
        <time>1970-01-01T00:02:44.000Z</time>
      </trkpt>
      <trkpt lat="42.212905" lon="2.422602">
        <ele>415</ele>
        <time>1970-01-01T00:02:45.000Z</time>
      </trkpt>
      <trkpt lat="42.212918" lon="2.422635">
        <ele>415</ele>
        <time>1970-01-01T00:02:46.000Z</time>
      </trkpt>
      <trkpt lat="42.212932" lon="2.422669">
        <ele>415</ele>
        <time>1970-01-01T00:02:47.000Z</time>
      </trkpt>
      <trkpt lat="42.212945" lon="2.422702">
        <ele>415</ele>
        <time>1970-01-01T00:02:48.000Z</time>
      </trkpt>
      <trkpt lat="42.212959" lon="2.422735">
        <ele>416</ele>
        <time>1970-01-01T00:02:49.000Z</time>
      </trkpt>
      <trkpt lat="42.212983" lon="2.422818">
        <ele>416</ele>
        <time>1970-01-01T00:02:50.000Z</time>
      </trkpt>
      <trkpt lat="42.212992" lon="2.422859">
        <ele>416</ele>
        <time>1970-01-01T00:02:51.000Z</time>
      </trkpt>
      <trkpt lat="42.213002" lon="2.4229">
        <ele>416</ele>
        <time>1970-01-01T00:02:52.000Z</time>
      </trkpt>
      <trkpt lat="42.213011" lon="2.422941">
        <ele>416</ele>
        <time>1970-01-01T00:02:53.000Z</time>
      </trkpt>
      <trkpt lat="42.213021" lon="2.422982">
        <ele>416</ele>
        <time>1970-01-01T00:02:54.000Z</time>
      </trkpt>
      <trkpt lat="42.21303" lon="2.423023">
        <ele>416</ele>
        <time>1970-01-01T00:02:55.000Z</time>
      </trkpt>
      <trkpt lat="42.21304" lon="2.423064">
        <ele>416</ele>
        <time>1970-01-01T00:02:56.000Z</time>
      </trkpt>
      <trkpt lat="42.213049" lon="2.423105">
        <ele>416</ele>
        <time>1970-01-01T00:02:57.000Z</time>
      </trkpt>
      <trkpt lat="42.213059" lon="2.423146">
        <ele>416</ele>
        <time>1970-01-01T00:02:58.000Z</time>
      </trkpt>
      <trkpt lat="42.213068" lon="2.423187">
        <ele>416</ele>
        <time>1970-01-01T00:02:59.000Z</time>
      </trkpt>
      <trkpt lat="42.213063" lon="2.423261">
        <ele>416</ele>
        <time>1970-01-01T00:03:00.000Z</time>
      </trkpt>
      <trkpt lat="42.213057" lon="2.423292">
        <ele>416</ele>
        <time>1970-01-01T00:03:01.000Z</time>
      </trkpt>
      <trkpt lat="42.21305" lon="2.423323">
        <ele>416</ele>
        <time>1970-01-01T00:03:02.000Z</time>
      </trkpt>
      <trkpt lat="42.213043" lon="2.423354">
        <ele>416</ele>
        <time>1970-01-01T00:03:03.000Z</time>
      </trkpt>
      <trkpt lat="42.213037" lon="2.423386">
        <ele>416</ele>
        <time>1970-01-01T00:03:04.000Z</time>
      </trkpt>
      <trkpt lat="42.21303" lon="2.423417">
        <ele>416</ele>
        <time>1970-01-01T00:03:05.000Z</time>
      </trkpt>
      <trkpt lat="42.213023" lon="2.423448">
        <ele>416</ele>
        <time>1970-01-01T00:03:06.000Z</time>
      </trkpt>
      <trkpt lat="42.213016" lon="2.423479">
        <ele>416</ele>
        <time>1970-01-01T00:03:07.000Z</time>
      </trkpt>
      <trkpt lat="42.21301" lon="2.42351">
        <ele>416</ele>
        <time>1970-01-01T00:03:08.000Z</time>
      </trkpt>
      <trkpt lat="42.213003" lon="2.423541">
        <ele>417</ele>
        <time>1970-01-01T00:03:09.000Z</time>
      </trkpt>
      <trkpt lat="42.212977" lon="2.423603">
        <ele>417</ele>
        <time>1970-01-01T00:03:10.000Z</time>
      </trkpt>
      <trkpt lat="42.212965" lon="2.423632">
        <ele>417</ele>
        <time>1970-01-01T00:03:11.000Z</time>
      </trkpt>
      <trkpt lat="42.212952" lon="2.42366">
        <ele>417</ele>
        <time>1970-01-01T00:03:12.000Z</time>
      </trkpt>
      <trkpt lat="42.212939" lon="2.423688">
        <ele>417</ele>
        <time>1970-01-01T00:03:13.000Z</time>
      </trkpt>
      <trkpt lat="42.212927" lon="2.423717">
        <ele>417</ele>
        <time>1970-01-01T00:03:14.000Z</time>
      </trkpt>
      <trkpt lat="42.212914" lon="2.423745">
        <ele>417</ele>
        <time>1970-01-01T00:03:15.000Z</time>
      </trkpt>
      <trkpt lat="42.212901" lon="2.423773">
        <ele>417</ele>
        <time>1970-01-01T00:03:16.000Z</time>
      </trkpt>
      <trkpt lat="42.212888" lon="2.423801">
        <ele>417</ele>
        <time>1970-01-01T00:03:17.000Z</time>
      </trkpt>
      <trkpt lat="42.212876" lon="2.42383">
        <ele>417</ele>
        <time>1970-01-01T00:03:18.000Z</time>
      </trkpt>
      <trkpt lat="42.212863" lon="2.423858">
        <ele>418</ele>
        <time>1970-01-01T00:03:19.000Z</time>
      </trkpt>
      <trkpt lat="42.212847" lon="2.423927">
        <ele>418</ele>
        <time>1970-01-01T00:03:20.000Z</time>
      </trkpt>
      <trkpt lat="42.212844" lon="2.42396">
        <ele>418</ele>
        <time>1970-01-01T00:03:21.000Z</time>
      </trkpt>
      <trkpt lat="42.212842" lon="2.423994">
        <ele>418</ele>
        <time>1970-01-01T00:03:22.000Z</time>
      </trkpt>
      <trkpt lat="42.212839" lon="2.424028">
        <ele>418</ele>
        <time>1970-01-01T00:03:23.000Z</time>
      </trkpt>
      <trkpt lat="42.212836" lon="2.424062">
        <ele>418</ele>
        <time>1970-01-01T00:03:24.000Z</time>
      </trkpt>
      <trkpt lat="42.212833" lon="2.424095">
        <ele>418</ele>
        <time>1970-01-01T00:03:25.000Z</time>
      </trkpt>
      <trkpt lat="42.21283" lon="2.424129">
        <ele>418</ele>
        <time>1970-01-01T00:03:26.000Z</time>
      </trkpt>
      <trkpt lat="42.212828" lon="2.424163">
        <ele>418</ele>
        <time>1970-01-01T00:03:27.000Z</time>
      </trkpt>
      <trkpt lat="42.212825" lon="2.424196">
        <ele>418</ele>
        <time>1970-01-01T00:03:28.000Z</time>
      </trkpt>
      <trkpt lat="42.212822" lon="2.42423">
        <ele>419</ele>
        <time>1970-01-01T00:03:29.000Z</time>
      </trkpt>
      <trkpt lat="42.212817" lon="2.424288">
        <ele>419</ele>
        <time>1970-01-01T00:03:30.000Z</time>
      </trkpt>
      <trkpt lat="42.212813" lon="2.424314">
        <ele>419</ele>
        <time>1970-01-01T00:03:32.000Z</time>
      </trkpt>
      <trkpt lat="42.212809" lon="2.424341">
        <ele>419</ele>
        <time>1970-01-01T00:03:33.000Z</time>
      </trkpt>
      <trkpt lat="42.212805" lon="2.424368">
        <ele>419</ele>
        <time>1970-01-01T00:03:34.000Z</time>
      </trkpt>
      <trkpt lat="42.212801" lon="2.424394">
        <ele>419</ele>
        <time>1970-01-01T00:03:35.000Z</time>
      </trkpt>
      <trkpt lat="42.212797" lon="2.424421">
        <ele>419</ele>
        <time>1970-01-01T00:03:36.000Z</time>
      </trkpt>
      <trkpt lat="42.212793" lon="2.424448">
        <ele>419</ele>
        <time>1970-01-01T00:03:37.000Z</time>
      </trkpt>
      <trkpt lat="42.212789" lon="2.424474">
        <ele>419</ele>
        <time>1970-01-01T00:03:38.000Z</time>
      </trkpt>
      <trkpt lat="42.212785" lon="2.424501">
        <ele>419</ele>
        <time>1970-01-01T00:03:39.000Z</time>
      </trkpt>
      <trkpt lat="42.212808" lon="2.424462">
        <ele>419</ele>
        <time>1970-01-01T00:03:45.000Z</time>
      </trkpt>
      <trkpt lat="42.212812" lon="2.424437">
        <ele>419</ele>
        <time>1970-01-01T00:03:47.000Z</time>
      </trkpt>
      <trkpt lat="42.212816" lon="2.424413">
        <ele>419</ele>
        <time>1970-01-01T00:03:48.000Z</time>
      </trkpt>
      <trkpt lat="42.21282" lon="2.424388">
        <ele>419</ele>
        <time>1970-01-01T00:03:49.000Z</time>
      </trkpt>
      <trkpt lat="42.212822" lon="2.424361">
        <ele>419</ele>
        <time>1970-01-01T00:03:50.000Z</time>
      </trkpt>
      <trkpt lat="42.212822" lon="2.424365">
        <ele>419</ele>
        <time>1970-01-01T00:03:51.000Z</time>
      </trkpt>
      <trkpt lat="42.212822" lon="2.42437">
        <ele>419</ele>
        <time>1970-01-01T00:03:52.000Z</time>
      </trkpt>
      <trkpt lat="42.212822" lon="2.424374">
        <ele>417</ele>
        <time>1970-01-01T00:03:58.000Z</time>
      </trkpt>
      <trkpt lat="42.212822" lon="2.424378">
        <ele>417</ele>
        <time>1970-01-01T00:03:59.000Z</time>
      </trkpt>
      <trkpt lat="42.212822" lon="2.424382">
        <ele>419</ele>
        <time>1970-01-01T00:04:35.000Z</time>
      </trkpt>
      <trkpt lat="42.212822" lon="2.424386">
        <ele>419</ele>
        <time>1970-01-01T00:04:36.000Z</time>
      </trkpt>
      <trkpt lat="42.212822" lon="2.42439">
        <ele>419</ele>
        <time>1970-01-01T00:04:38.000Z</time>
      </trkpt>
      <trkpt lat="42.212822" lon="2.424394">
        <ele>419</ele>
        <time>1970-01-01T00:04:40.000Z</time>
      </trkpt>
      <trkpt lat="42.212822" lon="2.424399">
        <ele>419</ele>
        <time>1970-01-01T00:04:42.000Z</time>
      </trkpt>
      <trkpt lat="42.212822" lon="2.424403">
        <ele>419</ele>
        <time>1970-01-01T00:04:44.000Z</time>
      </trkpt>
      <trkpt lat="42.212822" lon="2.424407">
        <ele>419</ele>
        <time>1970-01-01T00:04:45.000Z</time>
      </trkpt>
      <trkpt lat="42.212806" lon="2.424452">
        <ele>419</ele>
        <time>1970-01-01T00:04:46.000Z</time>
      </trkpt>
      <trkpt lat="42.212792" lon="2.424477">
        <ele>419</ele>
        <time>1970-01-01T00:04:47.000Z</time>
      </trkpt>
      <trkpt lat="42.212777" lon="2.424503">
        <ele>419</ele>
        <time>1970-01-01T00:04:48.000Z</time>
      </trkpt>
      <trkpt lat="42.212763" lon="2.424529">
        <ele>419</ele>
        <time>1970-01-01T00:04:49.000Z</time>
      </trkpt>
      <trkpt lat="42.212749" lon="2.424555">
        <ele>419</ele>
        <time>1970-01-01T00:04:50.000Z</time>
      </trkpt>
      <trkpt lat="42.212735" lon="2.42458">
        <ele>419</ele>
        <time>1970-01-01T00:04:51.000Z</time>
      </trkpt>
      <trkpt lat="42.212721" lon="2.424606">
        <ele>419</ele>
        <time>1970-01-01T00:04:52.000Z</time>
      </trkpt>
      <trkpt lat="42.212706" lon="2.424632">
        <ele>419</ele>
        <time>1970-01-01T00:04:53.000Z</time>
      </trkpt>
      <trkpt lat="42.212692" lon="2.424657">
        <ele>419</ele>
        <time>1970-01-01T00:04:54.000Z</time>
      </trkpt>
      <trkpt lat="42.212678" lon="2.424683">
        <ele>418</ele>
        <time>1970-01-01T00:04:55.000Z</time>
      </trkpt>
      <trkpt lat="42.212636" lon="2.424771">
        <ele>418</ele>
        <time>1970-01-01T00:04:56.000Z</time>
      </trkpt>
      <trkpt lat="42.212615" lon="2.424819">
        <ele>418</ele>
        <time>1970-01-01T00:04:57.000Z</time>
      </trkpt>
      <trkpt lat="42.212595" lon="2.424866">
        <ele>418</ele>
        <time>1970-01-01T00:04:58.000Z</time>
      </trkpt>
      <trkpt lat="42.212574" lon="2.424913">
        <ele>418</ele>
        <time>1970-01-01T00:04:59.000Z</time>
      </trkpt>
      <trkpt lat="42.212554" lon="2.424961">
        <ele>418</ele>
        <time>1970-01-01T00:05:00.000Z</time>
      </trkpt>
      <trkpt lat="42.212533" lon="2.425008">
        <ele>418</ele>
        <time>1970-01-01T00:05:01.000Z</time>
      </trkpt>
      <trkpt lat="42.212513" lon="2.425055">
        <ele>418</ele>
        <time>1970-01-01T00:05:02.000Z</time>
      </trkpt>
      <trkpt lat="42.212492" lon="2.425102">
        <ele>418</ele>
        <time>1970-01-01T00:05:03.000Z</time>
      </trkpt>
      <trkpt lat="42.212472" lon="2.42515">
        <ele>418</ele>
        <time>1970-01-01T00:05:04.000Z</time>
      </trkpt>
      <trkpt lat="42.212451" lon="2.425197">
        <ele>416</ele>
        <time>1970-01-01T00:05:05.000Z</time>
      </trkpt>
      <trkpt lat="42.212422" lon="2.425318">
        <ele>416</ele>
        <time>1970-01-01T00:05:06.000Z</time>
      </trkpt>
      <trkpt lat="42.212411" lon="2.425379">
        <ele>416</ele>
        <time>1970-01-01T00:05:07.000Z</time>
      </trkpt>
      <trkpt lat="42.212399" lon="2.425441">
        <ele>416</ele>
        <time>1970-01-01T00:05:08.000Z</time>
      </trkpt>
      <trkpt lat="42.212388" lon="2.425503">
        <ele>416</ele>
        <time>1970-01-01T00:05:09.000Z</time>
      </trkpt>
      <trkpt lat="42.212377" lon="2.425565">
        <ele>416</ele>
        <time>1970-01-01T00:05:10.000Z</time>
      </trkpt>
      <trkpt lat="42.212366" lon="2.425626">
        <ele>416</ele>
        <time>1970-01-01T00:05:11.000Z</time>
      </trkpt>
      <trkpt lat="42.212355" lon="2.425688">
        <ele>416</ele>
        <time>1970-01-01T00:05:12.000Z</time>
      </trkpt>
      <trkpt lat="42.212343" lon="2.42575">
        <ele>416</ele>
        <time>1970-01-01T00:05:13.000Z</time>
      </trkpt>
      <trkpt lat="42.212332" lon="2.425811">
        <ele>416</ele>
        <time>1970-01-01T00:05:14.000Z</time>
      </trkpt>
      <trkpt lat="42.212321" lon="2.425873">
        <ele>411</ele>
        <time>1970-01-01T00:05:15.000Z</time>
      </trkpt>
      <trkpt lat="42.212301" lon="2.426032">
        <ele>411</ele>
        <time>1970-01-01T00:05:16.000Z</time>
      </trkpt>
      <trkpt lat="42.212295" lon="2.426115">
        <ele>411</ele>
        <time>1970-01-01T00:05:17.000Z</time>
      </trkpt>
      <trkpt lat="42.212288" lon="2.426197">
        <ele>411</ele>
        <time>1970-01-01T00:05:18.000Z</time>
      </trkpt>
      <trkpt lat="42.212282" lon="2.42628">
        <ele>411</ele>
        <time>1970-01-01T00:05:19.000Z</time>
      </trkpt>
      <trkpt lat="42.212276" lon="2.426363">
        <ele>411</ele>
        <time>1970-01-01T00:05:20.000Z</time>
      </trkpt>
      <trkpt lat="42.21227" lon="2.426446">
        <ele>411</ele>
        <time>1970-01-01T00:05:21.000Z</time>
      </trkpt>
      <trkpt lat="42.212264" lon="2.426529">
        <ele>411</ele>
        <time>1970-01-01T00:05:22.000Z</time>
      </trkpt>
      <trkpt lat="42.212257" lon="2.426611">
        <ele>411</ele>
        <time>1970-01-01T00:05:23.000Z</time>
      </trkpt>
      <trkpt lat="42.212251" lon="2.426694">
        <ele>411</ele>
        <time>1970-01-01T00:05:24.000Z</time>
      </trkpt>
      <trkpt lat="42.212245" lon="2.426777">
        <ele>407</ele>
        <time>1970-01-01T00:05:25.000Z</time>
      </trkpt>
      <trkpt lat="42.212278" lon="2.426943">
        <ele>407</ele>
        <time>1970-01-01T00:05:26.000Z</time>
      </trkpt>
      <trkpt lat="42.212303" lon="2.427017">
        <ele>407</ele>
        <time>1970-01-01T00:05:27.000Z</time>
      </trkpt>
      <trkpt lat="42.212329" lon="2.42709">
        <ele>407</ele>
        <time>1970-01-01T00:05:28.000Z</time>
      </trkpt>
      <trkpt lat="42.212354" lon="2.427164">
        <ele>407</ele>
        <time>1970-01-01T00:05:29.000Z</time>
      </trkpt>
      <trkpt lat="42.21238" lon="2.427237">
        <ele>407</ele>
        <time>1970-01-01T00:05:30.000Z</time>
      </trkpt>
      <trkpt lat="42.212406" lon="2.427311">
        <ele>407</ele>
        <time>1970-01-01T00:05:31.000Z</time>
      </trkpt>
      <trkpt lat="42.212431" lon="2.427384">
        <ele>407</ele>
        <time>1970-01-01T00:05:32.000Z</time>
      </trkpt>
      <trkpt lat="42.212457" lon="2.427458">
        <ele>407</ele>
        <time>1970-01-01T00:05:33.000Z</time>
      </trkpt>
      <trkpt lat="42.212482" lon="2.427531">
        <ele>407</ele>
        <time>1970-01-01T00:05:34.000Z</time>
      </trkpt>
      <trkpt lat="42.212508" lon="2.427605">
        <ele>404</ele>
        <time>1970-01-01T00:05:35.000Z</time>
      </trkpt>
      <trkpt lat="42.212512" lon="2.427778">
        <ele>404</ele>
        <time>1970-01-01T00:05:36.000Z</time>
      </trkpt>
      <trkpt lat="42.212508" lon="2.427861">
        <ele>404</ele>
        <time>1970-01-01T00:05:37.000Z</time>
      </trkpt>
      <trkpt lat="42.212504" lon="2.427943">
        <ele>404</ele>
        <time>1970-01-01T00:05:38.000Z</time>
      </trkpt>
      <trkpt lat="42.2125" lon="2.428026">
        <ele>404</ele>
        <time>1970-01-01T00:05:39.000Z</time>
      </trkpt>
      <trkpt lat="42.212496" lon="2.428108">
        <ele>404</ele>
        <time>1970-01-01T00:05:40.000Z</time>
      </trkpt>
      <trkpt lat="42.212492" lon="2.42819">
        <ele>404</ele>
        <time>1970-01-01T00:05:41.000Z</time>
      </trkpt>
      <trkpt lat="42.212488" lon="2.428273">
        <ele>404</ele>
        <time>1970-01-01T00:05:42.000Z</time>
      </trkpt>
      <trkpt lat="42.212484" lon="2.428355">
        <ele>404</ele>
        <time>1970-01-01T00:05:43.000Z</time>
      </trkpt>
      <trkpt lat="42.21248" lon="2.428438">
        <ele>404</ele>
        <time>1970-01-01T00:05:44.000Z</time>
      </trkpt>
      <trkpt lat="42.212476" lon="2.42852">
        <ele>404</ele>
        <time>1970-01-01T00:05:45.000Z</time>
      </trkpt>
      <trkpt lat="42.21247" lon="2.428685">
        <ele>404</ele>
        <time>1970-01-01T00:05:46.000Z</time>
      </trkpt>
      <trkpt lat="42.212466" lon="2.428762">
        <ele>404</ele>
        <time>1970-01-01T00:05:47.000Z</time>
      </trkpt>
      <trkpt lat="42.212463" lon="2.428839">
        <ele>404</ele>
        <time>1970-01-01T00:05:48.000Z</time>
      </trkpt>
      <trkpt lat="42.212459" lon="2.428916">
        <ele>404</ele>
        <time>1970-01-01T00:05:49.000Z</time>
      </trkpt>
      <trkpt lat="42.212455" lon="2.428993">
        <ele>404</ele>
        <time>1970-01-01T00:05:50.000Z</time>
      </trkpt>
      <trkpt lat="42.212451" lon="2.42907">
        <ele>404</ele>
        <time>1970-01-01T00:05:51.000Z</time>
      </trkpt>
      <trkpt lat="42.212447" lon="2.429147">
        <ele>404</ele>
        <time>1970-01-01T00:05:52.000Z</time>
      </trkpt>
      <trkpt lat="42.212444" lon="2.429224">
        <ele>404</ele>
        <time>1970-01-01T00:05:53.000Z</time>
      </trkpt>
      <trkpt lat="42.21244" lon="2.429301">
        <ele>404</ele>
        <time>1970-01-01T00:05:54.000Z</time>
      </trkpt>
      <trkpt lat="42.212436" lon="2.429378">
        <ele>403</ele>
        <time>1970-01-01T00:05:55.000Z</time>
      </trkpt>
      <trkpt lat="42.212467" lon="2.429512">
        <ele>403</ele>
        <time>1970-01-01T00:05:56.000Z</time>
      </trkpt>
      <trkpt lat="42.212487" lon="2.429571">
        <ele>403</ele>
        <time>1970-01-01T00:05:57.000Z</time>
      </trkpt>
      <trkpt lat="42.212508" lon="2.429629">
        <ele>403</ele>
        <time>1970-01-01T00:05:58.000Z</time>
      </trkpt>
      <trkpt lat="42.212528" lon="2.429688">
        <ele>403</ele>
        <time>1970-01-01T00:05:59.000Z</time>
      </trkpt>
      <trkpt lat="42.212549" lon="2.429746">
        <ele>403</ele>
        <time>1970-01-01T00:06:00.000Z</time>
      </trkpt>
      <trkpt lat="42.212569" lon="2.429804">
        <ele>403</ele>
        <time>1970-01-01T00:06:01.000Z</time>
      </trkpt>
      <trkpt lat="42.21259" lon="2.429863">
        <ele>403</ele>
        <time>1970-01-01T00:06:02.000Z</time>
      </trkpt>
      <trkpt lat="42.21261" lon="2.429921">
        <ele>403</ele>
        <time>1970-01-01T00:06:03.000Z</time>
      </trkpt>
      <trkpt lat="42.212631" lon="2.42998">
        <ele>403</ele>
        <time>1970-01-01T00:06:04.000Z</time>
      </trkpt>
      <trkpt lat="42.212651" lon="2.430038">
        <ele>403</ele>
        <time>1970-01-01T00:06:05.000Z</time>
      </trkpt>
      <trkpt lat="42.212716" lon="2.430149">
        <ele>403</ele>
        <time>1970-01-01T00:06:06.000Z</time>
      </trkpt>
      <trkpt lat="42.212749" lon="2.430204">
        <ele>403</ele>
        <time>1970-01-01T00:06:07.000Z</time>
      </trkpt>
      <trkpt lat="42.212781" lon="2.430258">
        <ele>403</ele>
        <time>1970-01-01T00:06:08.000Z</time>
      </trkpt>
      <trkpt lat="42.212813" lon="2.430313">
        <ele>403</ele>
        <time>1970-01-01T00:06:09.000Z</time>
      </trkpt>
      <trkpt lat="42.212846" lon="2.430367">
        <ele>403</ele>
        <time>1970-01-01T00:06:10.000Z</time>
      </trkpt>
      <trkpt lat="42.212878" lon="2.430421">
        <ele>403</ele>
        <time>1970-01-01T00:06:11.000Z</time>
      </trkpt>
      <trkpt lat="42.21291" lon="2.430476">
        <ele>403</ele>
        <time>1970-01-01T00:06:12.000Z</time>
      </trkpt>
      <trkpt lat="42.212942" lon="2.43053">
        <ele>403</ele>
        <time>1970-01-01T00:06:13.000Z</time>
      </trkpt>
      <trkpt lat="42.212975" lon="2.430585">
        <ele>403</ele>
        <time>1970-01-01T00:06:14.000Z</time>
      </trkpt>
      <trkpt lat="42.213007" lon="2.430639">
        <ele>403</ele>
        <time>1970-01-01T00:06:15.000Z</time>
      </trkpt>
      <trkpt lat="42.213072" lon="2.430775">
        <ele>403</ele>
        <time>1970-01-01T00:06:16.000Z</time>
      </trkpt>
      <trkpt lat="42.2131" lon="2.430844">
        <ele>403</ele>
        <time>1970-01-01T00:06:17.000Z</time>
      </trkpt>
      <trkpt lat="42.213127" lon="2.430914">
        <ele>403</ele>
        <time>1970-01-01T00:06:18.000Z</time>
      </trkpt>
      <trkpt lat="42.213155" lon="2.430983">
        <ele>403</ele>
        <time>1970-01-01T00:06:19.000Z</time>
      </trkpt>
      <trkpt lat="42.213183" lon="2.431053">
        <ele>403</ele>
        <time>1970-01-01T00:06:20.000Z</time>
      </trkpt>
      <trkpt lat="42.213211" lon="2.431123">
        <ele>403</ele>
        <time>1970-01-01T00:06:21.000Z</time>
      </trkpt>
      <trkpt lat="42.213239" lon="2.431192">
        <ele>403</ele>
        <time>1970-01-01T00:06:22.000Z</time>
      </trkpt>
      <trkpt lat="42.213266" lon="2.431262">
        <ele>403</ele>
        <time>1970-01-01T00:06:23.000Z</time>
      </trkpt>
      <trkpt lat="42.213294" lon="2.431331">
        <ele>403</ele>
        <time>1970-01-01T00:06:24.000Z</time>
      </trkpt>
      <trkpt lat="42.213322" lon="2.431401">
        <ele>403</ele>
        <time>1970-01-01T00:06:25.000Z</time>
      </trkpt>
      <trkpt lat="42.213349" lon="2.431555">
        <ele>403</ele>
        <time>1970-01-01T00:06:26.000Z</time>
      </trkpt>
      <trkpt lat="42.213357" lon="2.431625">
        <ele>403</ele>
        <time>1970-01-01T00:06:27.000Z</time>
      </trkpt>
      <trkpt lat="42.213364" lon="2.431696">
        <ele>403</ele>
        <time>1970-01-01T00:06:28.000Z</time>
      </trkpt>
      <trkpt lat="42.213372" lon="2.431766">
        <ele>403</ele>
        <time>1970-01-01T00:06:29.000Z</time>
      </trkpt>
      <trkpt lat="42.213379" lon="2.431836">
        <ele>403</ele>
        <time>1970-01-01T00:06:30.000Z</time>
      </trkpt>
      <trkpt lat="42.213386" lon="2.431906">
        <ele>403</ele>
        <time>1970-01-01T00:06:31.000Z</time>
      </trkpt>
      <trkpt lat="42.213394" lon="2.431976">
        <ele>403</ele>
        <time>1970-01-01T00:06:32.000Z</time>
      </trkpt>
      <trkpt lat="42.213401" lon="2.432047">
        <ele>403</ele>
        <time>1970-01-01T00:06:33.000Z</time>
      </trkpt>
      <trkpt lat="42.213409" lon="2.432117">
        <ele>403</ele>
        <time>1970-01-01T00:06:34.000Z</time>
      </trkpt>
      <trkpt lat="42.213416" lon="2.432187">
        <ele>403</ele>
        <time>1970-01-01T00:06:35.000Z</time>
      </trkpt>
      <trkpt lat="42.213386" lon="2.432281">
        <ele>403</ele>
        <time>1970-01-01T00:06:36.000Z</time>
      </trkpt>
      <trkpt lat="42.213364" lon="2.432312">
        <ele>403</ele>
        <time>1970-01-01T00:06:37.000Z</time>
      </trkpt>
      <trkpt lat="42.213342" lon="2.432344">
        <ele>403</ele>
        <time>1970-01-01T00:06:38.000Z</time>
      </trkpt>
      <trkpt lat="42.21332" lon="2.432376">
        <ele>403</ele>
        <time>1970-01-01T00:06:39.000Z</time>
      </trkpt>
      <trkpt lat="42.213298" lon="2.432408">
        <ele>403</ele>
        <time>1970-01-01T00:06:40.000Z</time>
      </trkpt>
      <trkpt lat="42.213275" lon="2.432439">
        <ele>403</ele>
        <time>1970-01-01T00:06:41.000Z</time>
      </trkpt>
      <trkpt lat="42.213253" lon="2.432471">
        <ele>403</ele>
        <time>1970-01-01T00:06:42.000Z</time>
      </trkpt>
      <trkpt lat="42.213231" lon="2.432503">
        <ele>403</ele>
        <time>1970-01-01T00:06:43.000Z</time>
      </trkpt>
      <trkpt lat="42.213209" lon="2.432534">
        <ele>403</ele>
        <time>1970-01-01T00:06:44.000Z</time>
      </trkpt>
      <trkpt lat="42.213187" lon="2.432566">
        <ele>403</ele>
        <time>1970-01-01T00:06:45.000Z</time>
      </trkpt>
      <trkpt lat="42.213131" lon="2.43262">
        <ele>403</ele>
        <time>1970-01-01T00:06:46.000Z</time>
      </trkpt>
      <trkpt lat="42.213104" lon="2.432652">
        <ele>403</ele>
        <time>1970-01-01T00:06:47.000Z</time>
      </trkpt>
      <trkpt lat="42.213076" lon="2.432685">
        <ele>403</ele>
        <time>1970-01-01T00:06:48.000Z</time>
      </trkpt>
      <trkpt lat="42.213049" lon="2.432717">
        <ele>403</ele>
        <time>1970-01-01T00:06:49.000Z</time>
      </trkpt>
      <trkpt lat="42.213022" lon="2.432749">
        <ele>403</ele>
        <time>1970-01-01T00:06:50.000Z</time>
      </trkpt>
      <trkpt lat="42.212995" lon="2.432781">
        <ele>403</ele>
        <time>1970-01-01T00:06:51.000Z</time>
      </trkpt>
      <trkpt lat="42.212968" lon="2.432813">
        <ele>403</ele>
        <time>1970-01-01T00:06:52.000Z</time>
      </trkpt>
      <trkpt lat="42.21294" lon="2.432846">
        <ele>403</ele>
        <time>1970-01-01T00:06:53.000Z</time>
      </trkpt>
      <trkpt lat="42.212913" lon="2.432878">
        <ele>403</ele>
        <time>1970-01-01T00:06:54.000Z</time>
      </trkpt>
      <trkpt lat="42.212886" lon="2.43291">
        <ele>402</ele>
        <time>1970-01-01T00:06:55.000Z</time>
      </trkpt>
      <trkpt lat="42.212862" lon="2.433055">
        <ele>402</ele>
        <time>1970-01-01T00:06:56.000Z</time>
      </trkpt>
      <trkpt lat="42.21286" lon="2.433135">
        <ele>402</ele>
        <time>1970-01-01T00:06:57.000Z</time>
      </trkpt>
      <trkpt lat="42.212857" lon="2.433216">
        <ele>402</ele>
        <time>1970-01-01T00:06:58.000Z</time>
      </trkpt>
      <trkpt lat="42.212855" lon="2.433296">
        <ele>402</ele>
        <time>1970-01-01T00:06:59.000Z</time>
      </trkpt>
      <trkpt lat="42.212852" lon="2.433377">
        <ele>402</ele>
        <time>1970-01-01T00:07:00.000Z</time>
      </trkpt>
      <trkpt lat="42.212849" lon="2.433457">
        <ele>402</ele>
        <time>1970-01-01T00:07:01.000Z</time>
      </trkpt>
      <trkpt lat="42.212847" lon="2.433538">
        <ele>402</ele>
        <time>1970-01-01T00:07:02.000Z</time>
      </trkpt>
      <trkpt lat="42.212844" lon="2.433618">
        <ele>402</ele>
        <time>1970-01-01T00:07:03.000Z</time>
      </trkpt>
      <trkpt lat="42.212842" lon="2.433699">
        <ele>402</ele>
        <time>1970-01-01T00:07:04.000Z</time>
      </trkpt>
      <trkpt lat="42.212839" lon="2.433779">
        <ele>401</ele>
        <time>1970-01-01T00:07:05.000Z</time>
      </trkpt>
      <trkpt lat="42.212787" lon="2.433982">
        <ele>401</ele>
        <time>1970-01-01T00:07:06.000Z</time>
      </trkpt>
      <trkpt lat="42.212755" lon="2.434083">
        <ele>401</ele>
        <time>1970-01-01T00:07:07.000Z</time>
      </trkpt>
      <trkpt lat="42.212722" lon="2.434183">
        <ele>401</ele>
        <time>1970-01-01T00:07:08.000Z</time>
      </trkpt>
      <trkpt lat="42.21269" lon="2.434284">
        <ele>401</ele>
        <time>1970-01-01T00:07:09.000Z</time>
      </trkpt>
      <trkpt lat="42.212658" lon="2.434384">
        <ele>401</ele>
        <time>1970-01-01T00:07:10.000Z</time>
      </trkpt>
      <trkpt lat="42.212626" lon="2.434484">
        <ele>401</ele>
        <time>1970-01-01T00:07:11.000Z</time>
      </trkpt>
      <trkpt lat="42.212594" lon="2.434585">
        <ele>401</ele>
        <time>1970-01-01T00:07:12.000Z</time>
      </trkpt>
      <trkpt lat="42.212561" lon="2.434685">
        <ele>401</ele>
        <time>1970-01-01T00:07:13.000Z</time>
      </trkpt>
      <trkpt lat="42.212529" lon="2.434786">
        <ele>401</ele>
        <time>1970-01-01T00:07:14.000Z</time>
      </trkpt>
      <trkpt lat="42.212497" lon="2.434886">
        <ele>395</ele>
        <time>1970-01-01T00:07:15.000Z</time>
      </trkpt>
      <trkpt lat="42.212471" lon="2.43501">
        <ele>395</ele>
        <time>1970-01-01T00:07:16.000Z</time>
      </trkpt>
      <trkpt lat="42.212456" lon="2.435141">
        <ele>395</ele>
        <time>1970-01-01T00:07:17.000Z</time>
      </trkpt>
      <trkpt lat="42.212447" lon="2.435272">
        <ele>395</ele>
        <time>1970-01-01T00:07:18.000Z</time>
      </trkpt>
      <trkpt lat="42.212448" lon="2.435402">
        <ele>395</ele>
        <time>1970-01-01T00:07:19.000Z</time>
      </trkpt>
      <trkpt lat="42.212461" lon="2.435531">
        <ele>395</ele>
        <time>1970-01-01T00:07:20.000Z</time>
      </trkpt>
      <trkpt lat="42.212474" lon="2.435655">
        <ele>395</ele>
        <time>1970-01-01T00:07:21.000Z</time>
      </trkpt>
      <trkpt lat="42.212478" lon="2.435778">
        <ele>395</ele>
        <time>1970-01-01T00:07:22.000Z</time>
      </trkpt>
      <trkpt lat="42.212463" lon="2.435896">
        <ele>395</ele>
        <time>1970-01-01T00:07:23.000Z</time>
      </trkpt>
      <trkpt lat="42.212428" lon="2.436005">
        <ele>395</ele>
        <time>1970-01-01T00:07:24.000Z</time>
      </trkpt>
      <trkpt lat="42.212371" lon="2.436087">
        <ele>390</ele>
        <time>1970-01-01T00:07:25.000Z</time>
      </trkpt>
      <trkpt lat="42.212245" lon="2.436201">
        <ele>390</ele>
        <time>1970-01-01T00:07:26.000Z</time>
      </trkpt>
      <trkpt lat="42.212176" lon="2.436233">
        <ele>390</ele>
        <time>1970-01-01T00:07:27.000Z</time>
      </trkpt>
      <trkpt lat="42.212108" lon="2.436265">
        <ele>390</ele>
        <time>1970-01-01T00:07:28.000Z</time>
      </trkpt>
      <trkpt lat="42.212039" lon="2.436297">
        <ele>390</ele>
        <time>1970-01-01T00:07:29.000Z</time>
      </trkpt>
      <trkpt lat="42.211971" lon="2.436329">
        <ele>390</ele>
        <time>1970-01-01T00:07:30.000Z</time>
      </trkpt>
      <trkpt lat="42.211902" lon="2.436361">
        <ele>390</ele>
        <time>1970-01-01T00:07:31.000Z</time>
      </trkpt>
      <trkpt lat="42.211834" lon="2.436393">
        <ele>390</ele>
        <time>1970-01-01T00:07:32.000Z</time>
      </trkpt>
      <trkpt lat="42.211765" lon="2.436425">
        <ele>390</ele>
        <time>1970-01-01T00:07:33.000Z</time>
      </trkpt>
      <trkpt lat="42.211697" lon="2.436457">
        <ele>390</ele>
        <time>1970-01-01T00:07:34.000Z</time>
      </trkpt>
      <trkpt lat="42.211628" lon="2.436489">
        <ele>389</ele>
        <time>1970-01-01T00:07:35.000Z</time>
      </trkpt>
      <trkpt lat="42.211497" lon="2.436558">
        <ele>389</ele>
        <time>1970-01-01T00:07:36.000Z</time>
      </trkpt>
      <trkpt lat="42.211439" lon="2.436591">
        <ele>389</ele>
        <time>1970-01-01T00:07:37.000Z</time>
      </trkpt>
      <trkpt lat="42.21138" lon="2.436624">
        <ele>389</ele>
        <time>1970-01-01T00:07:38.000Z</time>
      </trkpt>
      <trkpt lat="42.211321" lon="2.436657">
        <ele>389</ele>
        <time>1970-01-01T00:07:39.000Z</time>
      </trkpt>
      <trkpt lat="42.211263" lon="2.43669">
        <ele>389</ele>
        <time>1970-01-01T00:07:40.000Z</time>
      </trkpt>
      <trkpt lat="42.211204" lon="2.436723">
        <ele>389</ele>
        <time>1970-01-01T00:07:41.000Z</time>
      </trkpt>
      <trkpt lat="42.211145" lon="2.436756">
        <ele>389</ele>
        <time>1970-01-01T00:07:42.000Z</time>
      </trkpt>
      <trkpt lat="42.211086" lon="2.436789">
        <ele>389</ele>
        <time>1970-01-01T00:07:43.000Z</time>
      </trkpt>
      <trkpt lat="42.211028" lon="2.436822">
        <ele>389</ele>
        <time>1970-01-01T00:07:44.000Z</time>
      </trkpt>
      <trkpt lat="42.210969" lon="2.436855">
        <ele>388</ele>
        <time>1970-01-01T00:07:45.000Z</time>
      </trkpt>
      <trkpt lat="42.210886" lon="2.43698">
        <ele>388</ele>
        <time>1970-01-01T00:07:46.000Z</time>
      </trkpt>
      <trkpt lat="42.210854" lon="2.437047">
        <ele>388</ele>
        <time>1970-01-01T00:07:47.000Z</time>
      </trkpt>
      <trkpt lat="42.210823" lon="2.437115">
        <ele>388</ele>
        <time>1970-01-01T00:07:48.000Z</time>
      </trkpt>
      <trkpt lat="42.210792" lon="2.437182">
        <ele>388</ele>
        <time>1970-01-01T00:07:49.000Z</time>
      </trkpt>
      <trkpt lat="42.210761" lon="2.43725">
        <ele>388</ele>
        <time>1970-01-01T00:07:50.000Z</time>
      </trkpt>
      <trkpt lat="42.210729" lon="2.437318">
        <ele>388</ele>
        <time>1970-01-01T00:07:51.000Z</time>
      </trkpt>
      <trkpt lat="42.210698" lon="2.437385">
        <ele>388</ele>
        <time>1970-01-01T00:07:52.000Z</time>
      </trkpt>
      <trkpt lat="42.210667" lon="2.437453">
        <ele>388</ele>
        <time>1970-01-01T00:07:53.000Z</time>
      </trkpt>
      <trkpt lat="42.210635" lon="2.43752">
        <ele>388</ele>
        <time>1970-01-01T00:07:54.000Z</time>
      </trkpt>
      <trkpt lat="42.210604" lon="2.437588">
        <ele>385</ele>
        <time>1970-01-01T00:07:55.000Z</time>
      </trkpt>
      <trkpt lat="42.210565" lon="2.43774">
        <ele>385</ele>
        <time>1970-01-01T00:07:56.000Z</time>
      </trkpt>
      <trkpt lat="42.210555" lon="2.437814">
        <ele>385</ele>
        <time>1970-01-01T00:07:57.000Z</time>
      </trkpt>
      <trkpt lat="42.210545" lon="2.437888">
        <ele>385</ele>
        <time>1970-01-01T00:07:58.000Z</time>
      </trkpt>
      <trkpt lat="42.210535" lon="2.437962">
        <ele>385</ele>
        <time>1970-01-01T00:07:59.000Z</time>
      </trkpt>
      <trkpt lat="42.210525" lon="2.438036">
        <ele>385</ele>
        <time>1970-01-01T00:08:00.000Z</time>
      </trkpt>
      <trkpt lat="42.210514" lon="2.43811">
        <ele>385</ele>
        <time>1970-01-01T00:08:01.000Z</time>
      </trkpt>
      <trkpt lat="42.210504" lon="2.438184">
        <ele>385</ele>
        <time>1970-01-01T00:08:02.000Z</time>
      </trkpt>
      <trkpt lat="42.210494" lon="2.438258">
        <ele>385</ele>
        <time>1970-01-01T00:08:03.000Z</time>
      </trkpt>
      <trkpt lat="42.210484" lon="2.438332">
        <ele>385</ele>
        <time>1970-01-01T00:08:04.000Z</time>
      </trkpt>
      <trkpt lat="42.210474" lon="2.438406">
        <ele>384</ele>
        <time>1970-01-01T00:08:05.000Z</time>
      </trkpt>
      <trkpt lat="42.210467" lon="2.438574">
        <ele>384</ele>
        <time>1970-01-01T00:08:06.000Z</time>
      </trkpt>
      <trkpt lat="42.210466" lon="2.438654">
        <ele>384</ele>
        <time>1970-01-01T00:08:07.000Z</time>
      </trkpt>
      <trkpt lat="42.210465" lon="2.438733">
        <ele>384</ele>
        <time>1970-01-01T00:08:08.000Z</time>
      </trkpt>
      <trkpt lat="42.210464" lon="2.438813">
        <ele>384</ele>
        <time>1970-01-01T00:08:09.000Z</time>
      </trkpt>
      <trkpt lat="42.210464" lon="2.438892">
        <ele>384</ele>
        <time>1970-01-01T00:08:10.000Z</time>
      </trkpt>
      <trkpt lat="42.210463" lon="2.438971">
        <ele>384</ele>
        <time>1970-01-01T00:08:11.000Z</time>
      </trkpt>
      <trkpt lat="42.210462" lon="2.439051">
        <ele>384</ele>
        <time>1970-01-01T00:08:12.000Z</time>
      </trkpt>
      <trkpt lat="42.210461" lon="2.43913">
        <ele>384</ele>
        <time>1970-01-01T00:08:13.000Z</time>
      </trkpt>
      <trkpt lat="42.21046" lon="2.43921">
        <ele>384</ele>
        <time>1970-01-01T00:08:14.000Z</time>
      </trkpt>
      <trkpt lat="42.210459" lon="2.439289">
        <ele>383</ele>
        <time>1970-01-01T00:08:15.000Z</time>
      </trkpt>
      <trkpt lat="42.210477" lon="2.439439">
        <ele>383</ele>
        <time>1970-01-01T00:08:16.000Z</time>
      </trkpt>
      <trkpt lat="42.210491" lon="2.439506">
        <ele>383</ele>
        <time>1970-01-01T00:08:17.000Z</time>
      </trkpt>
      <trkpt lat="42.210504" lon="2.439572">
        <ele>383</ele>
        <time>1970-01-01T00:08:18.000Z</time>
      </trkpt>
      <trkpt lat="42.210517" lon="2.439639">
        <ele>383</ele>
        <time>1970-01-01T00:08:19.000Z</time>
      </trkpt>
      <trkpt lat="42.210531" lon="2.439705">
        <ele>383</ele>
        <time>1970-01-01T00:08:20.000Z</time>
      </trkpt>
      <trkpt lat="42.210544" lon="2.439772">
        <ele>383</ele>
        <time>1970-01-01T00:08:21.000Z</time>
      </trkpt>
      <trkpt lat="42.210557" lon="2.439838">
        <ele>383</ele>
        <time>1970-01-01T00:08:22.000Z</time>
      </trkpt>
      <trkpt lat="42.21057" lon="2.439905">
        <ele>383</ele>
        <time>1970-01-01T00:08:23.000Z</time>
      </trkpt>
      <trkpt lat="42.210584" lon="2.439971">
        <ele>383</ele>
        <time>1970-01-01T00:08:24.000Z</time>
      </trkpt>
      <trkpt lat="42.210597" lon="2.440038">
        <ele>382</ele>
        <time>1970-01-01T00:08:25.000Z</time>
      </trkpt>
      <trkpt lat="42.210637" lon="2.440158">
        <ele>382</ele>
        <time>1970-01-01T00:08:26.000Z</time>
      </trkpt>
      <trkpt lat="42.210655" lon="2.440212">
        <ele>382</ele>
        <time>1970-01-01T00:08:27.000Z</time>
      </trkpt>
      <trkpt lat="42.210674" lon="2.440267">
        <ele>382</ele>
        <time>1970-01-01T00:08:28.000Z</time>
      </trkpt>
      <trkpt lat="42.210693" lon="2.440321">
        <ele>382</ele>
        <time>1970-01-01T00:08:29.000Z</time>
      </trkpt>
      <trkpt lat="42.210712" lon="2.440375">
        <ele>382</ele>
        <time>1970-01-01T00:08:30.000Z</time>
      </trkpt>
      <trkpt lat="42.21073" lon="2.440429">
        <ele>382</ele>
        <time>1970-01-01T00:08:31.000Z</time>
      </trkpt>
      <trkpt lat="42.210749" lon="2.440483">
        <ele>382</ele>
        <time>1970-01-01T00:08:32.000Z</time>
      </trkpt>
      <trkpt lat="42.210768" lon="2.440538">
        <ele>382</ele>
        <time>1970-01-01T00:08:33.000Z</time>
      </trkpt>
      <trkpt lat="42.210786" lon="2.440592">
        <ele>382</ele>
        <time>1970-01-01T00:08:34.000Z</time>
      </trkpt>
      <trkpt lat="42.210805" lon="2.440646">
        <ele>383</ele>
        <time>1970-01-01T00:08:35.000Z</time>
      </trkpt>
      <trkpt lat="42.210835" lon="2.440758">
        <ele>383</ele>
        <time>1970-01-01T00:08:36.000Z</time>
      </trkpt>
      <trkpt lat="42.210841" lon="2.440813">
        <ele>383</ele>
        <time>1970-01-01T00:08:37.000Z</time>
      </trkpt>
      <trkpt lat="42.210848" lon="2.440868">
        <ele>383</ele>
        <time>1970-01-01T00:08:38.000Z</time>
      </trkpt>
      <trkpt lat="42.210854" lon="2.440923">
        <ele>383</ele>
        <time>1970-01-01T00:08:39.000Z</time>
      </trkpt>
      <trkpt lat="42.210861" lon="2.440978">
        <ele>383</ele>
        <time>1970-01-01T00:08:40.000Z</time>
      </trkpt>
      <trkpt lat="42.210868" lon="2.441033">
        <ele>383</ele>
        <time>1970-01-01T00:08:41.000Z</time>
      </trkpt>
      <trkpt lat="42.210874" lon="2.441088">
        <ele>383</ele>
        <time>1970-01-01T00:08:42.000Z</time>
      </trkpt>
      <trkpt lat="42.210881" lon="2.441143">
        <ele>383</ele>
        <time>1970-01-01T00:08:43.000Z</time>
      </trkpt>
      <trkpt lat="42.210887" lon="2.441198">
        <ele>383</ele>
        <time>1970-01-01T00:08:44.000Z</time>
      </trkpt>
      <trkpt lat="42.210894" lon="2.441253">
        <ele>383</ele>
        <time>1970-01-01T00:08:45.000Z</time>
      </trkpt>
      <trkpt lat="42.210892" lon="2.441375">
        <ele>383</ele>
        <time>1970-01-01T00:08:46.000Z</time>
      </trkpt>
      <trkpt lat="42.210891" lon="2.441436">
        <ele>383</ele>
        <time>1970-01-01T00:08:47.000Z</time>
      </trkpt>
      <trkpt lat="42.210889" lon="2.441497">
        <ele>383</ele>
        <time>1970-01-01T00:08:48.000Z</time>
      </trkpt>
      <trkpt lat="42.210888" lon="2.441558">
        <ele>383</ele>
        <time>1970-01-01T00:08:49.000Z</time>
      </trkpt>
      <trkpt lat="42.210886" lon="2.441619">
        <ele>383</ele>
        <time>1970-01-01T00:08:50.000Z</time>
      </trkpt>
      <trkpt lat="42.210884" lon="2.441679">
        <ele>383</ele>
        <time>1970-01-01T00:08:51.000Z</time>
      </trkpt>
      <trkpt lat="42.210883" lon="2.44174">
        <ele>383</ele>
        <time>1970-01-01T00:08:52.000Z</time>
      </trkpt>
      <trkpt lat="42.210881" lon="2.441801">
        <ele>383</ele>
        <time>1970-01-01T00:08:53.000Z</time>
      </trkpt>
      <trkpt lat="42.21088" lon="2.441862">
        <ele>383</ele>
        <time>1970-01-01T00:08:54.000Z</time>
      </trkpt>
      <trkpt lat="42.210878" lon="2.441923">
        <ele>382</ele>
        <time>1970-01-01T00:08:55.000Z</time>
      </trkpt>
      <trkpt lat="42.210871" lon="2.442054">
        <ele>382</ele>
        <time>1970-01-01T00:08:56.000Z</time>
      </trkpt>
      <trkpt lat="42.210867" lon="2.442115">
        <ele>382</ele>
        <time>1970-01-01T00:08:57.000Z</time>
      </trkpt>
      <trkpt lat="42.210862" lon="2.442176">
        <ele>382</ele>
        <time>1970-01-01T00:08:58.000Z</time>
      </trkpt>
      <trkpt lat="42.210858" lon="2.442237">
        <ele>382</ele>
        <time>1970-01-01T00:08:59.000Z</time>
      </trkpt>
      <trkpt lat="42.210854" lon="2.442298">
        <ele>382</ele>
        <time>1970-01-01T00:09:00.000Z</time>
      </trkpt>
      <trkpt lat="42.21085" lon="2.442358">
        <ele>382</ele>
        <time>1970-01-01T00:09:01.000Z</time>
      </trkpt>
      <trkpt lat="42.210846" lon="2.442419">
        <ele>382</ele>
        <time>1970-01-01T00:09:02.000Z</time>
      </trkpt>
      <trkpt lat="42.210841" lon="2.44248">
        <ele>382</ele>
        <time>1970-01-01T00:09:03.000Z</time>
      </trkpt>
      <trkpt lat="42.210837" lon="2.442541">
        <ele>382</ele>
        <time>1970-01-01T00:09:04.000Z</time>
      </trkpt>
      <trkpt lat="42.210833" lon="2.442602">
        <ele>382</ele>
        <time>1970-01-01T00:09:05.000Z</time>
      </trkpt>
      <trkpt lat="42.210824" lon="2.442719">
        <ele>382</ele>
        <time>1970-01-01T00:09:06.000Z</time>
      </trkpt>
      <trkpt lat="42.210821" lon="2.442775">
        <ele>382</ele>
        <time>1970-01-01T00:09:07.000Z</time>
      </trkpt>
      <trkpt lat="42.210817" lon="2.44283">
        <ele>382</ele>
        <time>1970-01-01T00:09:08.000Z</time>
      </trkpt>
      <trkpt lat="42.210814" lon="2.442886">
        <ele>382</ele>
        <time>1970-01-01T00:09:09.000Z</time>
      </trkpt>
      <trkpt lat="42.21081" lon="2.442942">
        <ele>382</ele>
        <time>1970-01-01T00:09:10.000Z</time>
      </trkpt>
      <trkpt lat="42.210806" lon="2.442998">
        <ele>382</ele>
        <time>1970-01-01T00:09:11.000Z</time>
      </trkpt>
      <trkpt lat="42.210803" lon="2.443054">
        <ele>382</ele>
        <time>1970-01-01T00:09:12.000Z</time>
      </trkpt>
      <trkpt lat="42.210799" lon="2.443109">
        <ele>382</ele>
        <time>1970-01-01T00:09:13.000Z</time>
      </trkpt>
      <trkpt lat="42.210796" lon="2.443165">
        <ele>382</ele>
        <time>1970-01-01T00:09:14.000Z</time>
      </trkpt>
      <trkpt lat="42.210792" lon="2.443221">
        <ele>381</ele>
        <time>1970-01-01T00:09:15.000Z</time>
      </trkpt>
      <trkpt lat="42.210781" lon="2.44335">
        <ele>381</ele>
        <time>1970-01-01T00:09:16.000Z</time>
      </trkpt>
      <trkpt lat="42.210776" lon="2.443413">
        <ele>381</ele>
        <time>1970-01-01T00:09:17.000Z</time>
      </trkpt>
      <trkpt lat="42.210772" lon="2.443476">
        <ele>381</ele>
        <time>1970-01-01T00:09:18.000Z</time>
      </trkpt>
      <trkpt lat="42.210767" lon="2.443539">
        <ele>381</ele>
        <time>1970-01-01T00:09:19.000Z</time>
      </trkpt>
      <trkpt lat="42.210762" lon="2.443603">
        <ele>381</ele>
        <time>1970-01-01T00:09:20.000Z</time>
      </trkpt>
      <trkpt lat="42.210757" lon="2.443666">
        <ele>381</ele>
        <time>1970-01-01T00:09:21.000Z</time>
      </trkpt>
      <trkpt lat="42.210752" lon="2.443729">
        <ele>381</ele>
        <time>1970-01-01T00:09:22.000Z</time>
      </trkpt>
      <trkpt lat="42.210748" lon="2.443792">
        <ele>381</ele>
        <time>1970-01-01T00:09:23.000Z</time>
      </trkpt>
      <trkpt lat="42.210743" lon="2.443855">
        <ele>381</ele>
        <time>1970-01-01T00:09:24.000Z</time>
      </trkpt>
      <trkpt lat="42.210738" lon="2.443918">
        <ele>380</ele>
        <time>1970-01-01T00:09:25.000Z</time>
      </trkpt>
      <trkpt lat="42.210729" lon="2.444056">
        <ele>380</ele>
        <time>1970-01-01T00:09:26.000Z</time>
      </trkpt>
      <trkpt lat="42.210726" lon="2.444122">
        <ele>380</ele>
        <time>1970-01-01T00:09:27.000Z</time>
      </trkpt>
      <trkpt lat="42.210722" lon="2.444187">
        <ele>380</ele>
        <time>1970-01-01T00:09:28.000Z</time>
      </trkpt>
      <trkpt lat="42.210719" lon="2.444253">
        <ele>380</ele>
        <time>1970-01-01T00:09:29.000Z</time>
      </trkpt>
      <trkpt lat="42.210715" lon="2.444319">
        <ele>380</ele>
        <time>1970-01-01T00:09:30.000Z</time>
      </trkpt>
      <trkpt lat="42.210711" lon="2.444385">
        <ele>380</ele>
        <time>1970-01-01T00:09:31.000Z</time>
      </trkpt>
      <trkpt lat="42.210708" lon="2.444451">
        <ele>380</ele>
        <time>1970-01-01T00:09:32.000Z</time>
      </trkpt>
      <trkpt lat="42.210704" lon="2.444516">
        <ele>380</ele>
        <time>1970-01-01T00:09:33.000Z</time>
      </trkpt>
      <trkpt lat="42.210701" lon="2.444582">
        <ele>380</ele>
        <time>1970-01-01T00:09:34.000Z</time>
      </trkpt>
      <trkpt lat="42.210697" lon="2.444648">
        <ele>380</ele>
        <time>1970-01-01T00:09:35.000Z</time>
      </trkpt>
      <trkpt lat="42.210708" lon="2.444785">
        <ele>380</ele>
        <time>1970-01-01T00:09:36.000Z</time>
      </trkpt>
      <trkpt lat="42.210719" lon="2.44485">
        <ele>380</ele>
        <time>1970-01-01T00:09:37.000Z</time>
      </trkpt>
      <trkpt lat="42.210731" lon="2.444915">
        <ele>380</ele>
        <time>1970-01-01T00:09:38.000Z</time>
      </trkpt>
      <trkpt lat="42.210742" lon="2.44498">
        <ele>380</ele>
        <time>1970-01-01T00:09:39.000Z</time>
      </trkpt>
      <trkpt lat="42.210754" lon="2.445045">
        <ele>380</ele>
        <time>1970-01-01T00:09:40.000Z</time>
      </trkpt>
      <trkpt lat="42.210765" lon="2.44511">
        <ele>380</ele>
        <time>1970-01-01T00:09:41.000Z</time>
      </trkpt>
      <trkpt lat="42.210777" lon="2.445175">
        <ele>380</ele>
        <time>1970-01-01T00:09:42.000Z</time>
      </trkpt>
      <trkpt lat="42.210788" lon="2.44524">
        <ele>380</ele>
        <time>1970-01-01T00:09:43.000Z</time>
      </trkpt>
      <trkpt lat="42.2108" lon="2.445305">
        <ele>380</ele>
        <time>1970-01-01T00:09:44.000Z</time>
      </trkpt>
      <trkpt lat="42.210811" lon="2.44537">
        <ele>379</ele>
        <time>1970-01-01T00:09:45.000Z</time>
      </trkpt>
      <trkpt lat="42.210843" lon="2.4455">
        <ele>379</ele>
        <time>1970-01-01T00:09:46.000Z</time>
      </trkpt>
      <trkpt lat="42.210858" lon="2.44556">
        <ele>379</ele>
        <time>1970-01-01T00:09:47.000Z</time>
      </trkpt>
      <trkpt lat="42.210874" lon="2.445619">
        <ele>379</ele>
        <time>1970-01-01T00:09:48.000Z</time>
      </trkpt>
      <trkpt lat="42.21089" lon="2.445679">
        <ele>379</ele>
        <time>1970-01-01T00:09:49.000Z</time>
      </trkpt>
      <trkpt lat="42.210906" lon="2.445739">
        <ele>379</ele>
        <time>1970-01-01T00:09:50.000Z</time>
      </trkpt>
      <trkpt lat="42.210921" lon="2.445799">
        <ele>379</ele>
        <time>1970-01-01T00:09:51.000Z</time>
      </trkpt>
      <trkpt lat="42.210937" lon="2.445859">
        <ele>379</ele>
        <time>1970-01-01T00:09:52.000Z</time>
      </trkpt>
      <trkpt lat="42.210953" lon="2.445918">
        <ele>379</ele>
        <time>1970-01-01T00:09:53.000Z</time>
      </trkpt>
      <trkpt lat="42.210968" lon="2.445978">
        <ele>379</ele>
        <time>1970-01-01T00:09:54.000Z</time>
      </trkpt>
      <trkpt lat="42.210984" lon="2.446038">
        <ele>377</ele>
        <time>1970-01-01T00:09:55.000Z</time>
      </trkpt>
      <trkpt lat="42.211007" lon="2.446153">
        <ele>377</ele>
        <time>1970-01-01T00:09:56.000Z</time>
      </trkpt>
      <trkpt lat="42.211019" lon="2.446205">
        <ele>377</ele>
        <time>1970-01-01T00:09:57.000Z</time>
      </trkpt>
      <trkpt lat="42.21103" lon="2.446257">
        <ele>377</ele>
        <time>1970-01-01T00:09:58.000Z</time>
      </trkpt>
      <trkpt lat="42.211042" lon="2.446309">
        <ele>377</ele>
        <time>1970-01-01T00:09:59.000Z</time>
      </trkpt>
      <trkpt lat="42.211053" lon="2.446361">
        <ele>377</ele>
        <time>1970-01-01T00:10:00.000Z</time>
      </trkpt>
      <trkpt lat="42.211064" lon="2.446413">
        <ele>377</ele>
        <time>1970-01-01T00:10:01.000Z</time>
      </trkpt>
      <trkpt lat="42.211076" lon="2.446465">
        <ele>377</ele>
        <time>1970-01-01T00:10:02.000Z</time>
      </trkpt>
      <trkpt lat="42.211087" lon="2.446517">
        <ele>377</ele>
        <time>1970-01-01T00:10:03.000Z</time>
      </trkpt>
      <trkpt lat="42.211099" lon="2.446569">
        <ele>377</ele>
        <time>1970-01-01T00:10:04.000Z</time>
      </trkpt>
      <trkpt lat="42.21111" lon="2.446621">
        <ele>377</ele>
        <time>1970-01-01T00:10:05.000Z</time>
      </trkpt>
      <trkpt lat="42.211135" lon="2.446726">
        <ele>377</ele>
        <time>1970-01-01T00:10:06.000Z</time>
      </trkpt>
      <trkpt lat="42.211147" lon="2.446777">
        <ele>377</ele>
        <time>1970-01-01T00:10:07.000Z</time>
      </trkpt>
      <trkpt lat="42.211158" lon="2.446827">
        <ele>377</ele>
        <time>1970-01-01T00:10:08.000Z</time>
      </trkpt>
      <trkpt lat="42.21117" lon="2.446878">
        <ele>377</ele>
        <time>1970-01-01T00:10:09.000Z</time>
      </trkpt>
      <trkpt lat="42.211182" lon="2.446928">
        <ele>377</ele>
        <time>1970-01-01T00:10:10.000Z</time>
      </trkpt>
      <trkpt lat="42.211194" lon="2.446979">
        <ele>377</ele>
        <time>1970-01-01T00:10:11.000Z</time>
      </trkpt>
      <trkpt lat="42.211206" lon="2.447029">
        <ele>377</ele>
        <time>1970-01-01T00:10:12.000Z</time>
      </trkpt>
      <trkpt lat="42.211217" lon="2.44708">
        <ele>377</ele>
        <time>1970-01-01T00:10:13.000Z</time>
      </trkpt>
      <trkpt lat="42.211229" lon="2.44713">
        <ele>377</ele>
        <time>1970-01-01T00:10:14.000Z</time>
      </trkpt>
      <trkpt lat="42.211241" lon="2.447181">
        <ele>376</ele>
        <time>1970-01-01T00:10:15.000Z</time>
      </trkpt>
      <trkpt lat="42.211274" lon="2.447305">
        <ele>376</ele>
        <time>1970-01-01T00:10:16.000Z</time>
      </trkpt>
      <trkpt lat="42.211291" lon="2.447366">
        <ele>376</ele>
        <time>1970-01-01T00:10:17.000Z</time>
      </trkpt>
      <trkpt lat="42.211309" lon="2.447426">
        <ele>376</ele>
        <time>1970-01-01T00:10:18.000Z</time>
      </trkpt>
      <trkpt lat="42.211326" lon="2.447487">
        <ele>376</ele>
        <time>1970-01-01T00:10:19.000Z</time>
      </trkpt>
      <trkpt lat="42.211344" lon="2.447548">
        <ele>376</ele>
        <time>1970-01-01T00:10:20.000Z</time>
      </trkpt>
      <trkpt lat="42.211361" lon="2.447609">
        <ele>376</ele>
        <time>1970-01-01T00:10:21.000Z</time>
      </trkpt>
      <trkpt lat="42.211379" lon="2.44767">
        <ele>376</ele>
        <time>1970-01-01T00:10:22.000Z</time>
      </trkpt>
      <trkpt lat="42.211396" lon="2.44773">
        <ele>376</ele>
        <time>1970-01-01T00:10:23.000Z</time>
      </trkpt>
      <trkpt lat="42.211414" lon="2.447791">
        <ele>376</ele>
        <time>1970-01-01T00:10:24.000Z</time>
      </trkpt>
      <trkpt lat="42.211431" lon="2.447852">
        <ele>375</ele>
        <time>1970-01-01T00:10:25.000Z</time>
      </trkpt>
      <trkpt lat="42.211471" lon="2.447986">
        <ele>375</ele>
        <time>1970-01-01T00:10:26.000Z</time>
      </trkpt>
      <trkpt lat="42.211486" lon="2.448051">
        <ele>375</ele>
        <time>1970-01-01T00:10:27.000Z</time>
      </trkpt>
      <trkpt lat="42.2115" lon="2.448115">
        <ele>375</ele>
        <time>1970-01-01T00:10:28.000Z</time>
      </trkpt>
      <trkpt lat="42.211515" lon="2.44818">
        <ele>375</ele>
        <time>1970-01-01T00:10:29.000Z</time>
      </trkpt>
      <trkpt lat="42.21153" lon="2.448244">
        <ele>375</ele>
        <time>1970-01-01T00:10:30.000Z</time>
      </trkpt>
      <trkpt lat="42.211545" lon="2.448308">
        <ele>375</ele>
        <time>1970-01-01T00:10:31.000Z</time>
      </trkpt>
      <trkpt lat="42.21156" lon="2.448373">
        <ele>375</ele>
        <time>1970-01-01T00:10:32.000Z</time>
      </trkpt>
      <trkpt lat="42.211574" lon="2.448437">
        <ele>375</ele>
        <time>1970-01-01T00:10:33.000Z</time>
      </trkpt>
      <trkpt lat="42.211589" lon="2.448502">
        <ele>375</ele>
        <time>1970-01-01T00:10:34.000Z</time>
      </trkpt>
      <trkpt lat="42.211604" lon="2.448566">
        <ele>373</ele>
        <time>1970-01-01T00:10:35.000Z</time>
      </trkpt>
      <trkpt lat="42.211612" lon="2.448701">
        <ele>373</ele>
        <time>1970-01-01T00:10:36.000Z</time>
      </trkpt>
      <trkpt lat="42.211615" lon="2.448766">
        <ele>373</ele>
        <time>1970-01-01T00:10:37.000Z</time>
      </trkpt>
      <trkpt lat="42.211619" lon="2.448832">
        <ele>373</ele>
        <time>1970-01-01T00:10:38.000Z</time>
      </trkpt>
      <trkpt lat="42.211622" lon="2.448898">
        <ele>373</ele>
        <time>1970-01-01T00:10:39.000Z</time>
      </trkpt>
      <trkpt lat="42.211625" lon="2.448963">
        <ele>373</ele>
        <time>1970-01-01T00:10:40.000Z</time>
      </trkpt>
      <trkpt lat="42.211628" lon="2.449029">
        <ele>373</ele>
        <time>1970-01-01T00:10:41.000Z</time>
      </trkpt>
      <trkpt lat="42.211631" lon="2.449095">
        <ele>373</ele>
        <time>1970-01-01T00:10:42.000Z</time>
      </trkpt>
      <trkpt lat="42.211635" lon="2.449161">
        <ele>373</ele>
        <time>1970-01-01T00:10:43.000Z</time>
      </trkpt>
      <trkpt lat="42.211638" lon="2.449226">
        <ele>373</ele>
        <time>1970-01-01T00:10:44.000Z</time>
      </trkpt>
      <trkpt lat="42.211641" lon="2.449292">
        <ele>372</ele>
        <time>1970-01-01T00:10:45.000Z</time>
      </trkpt>
      <trkpt lat="42.211648" lon="2.449418">
        <ele>372</ele>
        <time>1970-01-01T00:10:46.000Z</time>
      </trkpt>
      <trkpt lat="42.211651" lon="2.449472">
        <ele>372</ele>
        <time>1970-01-01T00:10:47.000Z</time>
      </trkpt>
      <trkpt lat="42.211655" lon="2.449527">
        <ele>372</ele>
        <time>1970-01-01T00:10:48.000Z</time>
      </trkpt>
      <trkpt lat="42.211658" lon="2.449581">
        <ele>372</ele>
        <time>1970-01-01T00:10:49.000Z</time>
      </trkpt>
      <trkpt lat="42.211662" lon="2.449635">
        <ele>372</ele>
        <time>1970-01-01T00:10:50.000Z</time>
      </trkpt>
      <trkpt lat="42.211665" lon="2.449689">
        <ele>372</ele>
        <time>1970-01-01T00:10:51.000Z</time>
      </trkpt>
      <trkpt lat="42.211669" lon="2.449743">
        <ele>372</ele>
        <time>1970-01-01T00:10:52.000Z</time>
      </trkpt>
      <trkpt lat="42.211672" lon="2.449798">
        <ele>372</ele>
        <time>1970-01-01T00:10:53.000Z</time>
      </trkpt>
      <trkpt lat="42.211676" lon="2.449852">
        <ele>372</ele>
        <time>1970-01-01T00:10:54.000Z</time>
      </trkpt>
      <trkpt lat="42.211679" lon="2.449906">
        <ele>372</ele>
        <time>1970-01-01T00:10:55.000Z</time>
      </trkpt>
      <trkpt lat="42.211691" lon="2.449978">
        <ele>372</ele>
        <time>1970-01-01T00:10:56.000Z</time>
      </trkpt>
      <trkpt lat="42.211701" lon="2.450005">
        <ele>372</ele>
        <time>1970-01-01T00:10:57.000Z</time>
      </trkpt>
      <trkpt lat="42.21171" lon="2.450032">
        <ele>372</ele>
        <time>1970-01-01T00:10:58.000Z</time>
      </trkpt>
      <trkpt lat="42.21172" lon="2.450059">
        <ele>372</ele>
        <time>1970-01-01T00:10:59.000Z</time>
      </trkpt>
      <trkpt lat="42.211729" lon="2.450086">
        <ele>372</ele>
        <time>1970-01-01T00:11:01.000Z</time>
      </trkpt>
      <trkpt lat="42.211739" lon="2.450113">
        <ele>372</ele>
        <time>1970-01-01T00:11:03.000Z</time>
      </trkpt>
      <trkpt lat="42.211748" lon="2.45014">
        <ele>371</ele>
        <time>1970-01-01T00:11:05.000Z</time>
      </trkpt>
      <trkpt lat="42.211782" lon="2.450102">
        <ele>371</ele>
        <time>1970-01-01T00:11:06.000Z</time>
      </trkpt>
      <trkpt lat="42.211794" lon="2.450064">
        <ele>371</ele>
        <time>1970-01-01T00:11:07.000Z</time>
      </trkpt>
      <trkpt lat="42.211806" lon="2.450025">
        <ele>371</ele>
        <time>1970-01-01T00:11:08.000Z</time>
      </trkpt>
      <trkpt lat="42.211818" lon="2.449987">
        <ele>371</ele>
        <time>1970-01-01T00:11:09.000Z</time>
      </trkpt>
      <trkpt lat="42.211831" lon="2.449948">
        <ele>371</ele>
        <time>1970-01-01T00:11:10.000Z</time>
      </trkpt>
      <trkpt lat="42.211843" lon="2.449909">
        <ele>371</ele>
        <time>1970-01-01T00:11:11.000Z</time>
      </trkpt>
      <trkpt lat="42.211855" lon="2.449871">
        <ele>371</ele>
        <time>1970-01-01T00:11:12.000Z</time>
      </trkpt>
      <trkpt lat="42.211867" lon="2.449832">
        <ele>371</ele>
        <time>1970-01-01T00:11:13.000Z</time>
      </trkpt>
      <trkpt lat="42.211879" lon="2.449794">
        <ele>371</ele>
        <time>1970-01-01T00:11:14.000Z</time>
      </trkpt>
      <trkpt lat="42.211891" lon="2.449755">
        <ele>371</ele>
        <time>1970-01-01T00:11:15.000Z</time>
      </trkpt>
      <trkpt lat="42.21192" lon="2.449617">
        <ele>371</ele>
        <time>1970-01-01T00:11:17.000Z</time>
      </trkpt>
      <trkpt lat="42.211929" lon="2.449575">
        <ele>371</ele>
        <time>1970-01-01T00:11:18.000Z</time>
      </trkpt>
      <trkpt lat="42.211939" lon="2.449533">
        <ele>371</ele>
        <time>1970-01-01T00:11:19.000Z</time>
      </trkpt>
      <trkpt lat="42.211948" lon="2.449491">
        <ele>371</ele>
        <time>1970-01-01T00:11:20.000Z</time>
      </trkpt>
      <trkpt lat="42.211958" lon="2.449448">
        <ele>371</ele>
        <time>1970-01-01T00:11:21.000Z</time>
      </trkpt>
      <trkpt lat="42.211967" lon="2.449406">
        <ele>371</ele>
        <time>1970-01-01T00:11:22.000Z</time>
      </trkpt>
      <trkpt lat="42.211977" lon="2.449364">
        <ele>371</ele>
        <time>1970-01-01T00:11:23.000Z</time>
      </trkpt>
      <trkpt lat="42.211986" lon="2.449322">
        <ele>371</ele>
        <time>1970-01-01T00:11:24.000Z</time>
      </trkpt>
      <trkpt lat="42.211996" lon="2.44928">
        <ele>371</ele>
        <time>1970-01-01T00:11:25.000Z</time>
      </trkpt>
      <trkpt lat="42.212017" lon="2.449185">
        <ele>371</ele>
        <time>1970-01-01T00:11:26.000Z</time>
      </trkpt>
      <trkpt lat="42.212028" lon="2.449138">
        <ele>371</ele>
        <time>1970-01-01T00:11:27.000Z</time>
      </trkpt>
      <trkpt lat="42.212038" lon="2.44909">
        <ele>371</ele>
        <time>1970-01-01T00:11:28.000Z</time>
      </trkpt>
      <trkpt lat="42.212049" lon="2.449043">
        <ele>371</ele>
        <time>1970-01-01T00:11:29.000Z</time>
      </trkpt>
      <trkpt lat="42.21206" lon="2.448996">
        <ele>371</ele>
        <time>1970-01-01T00:11:30.000Z</time>
      </trkpt>
      <trkpt lat="42.212071" lon="2.448949">
        <ele>371</ele>
        <time>1970-01-01T00:11:31.000Z</time>
      </trkpt>
      <trkpt lat="42.212082" lon="2.448902">
        <ele>371</ele>
        <time>1970-01-01T00:11:32.000Z</time>
      </trkpt>
      <trkpt lat="42.212092" lon="2.448854">
        <ele>371</ele>
        <time>1970-01-01T00:11:33.000Z</time>
      </trkpt>
      <trkpt lat="42.212103" lon="2.448807">
        <ele>371</ele>
        <time>1970-01-01T00:11:34.000Z</time>
      </trkpt>
      <trkpt lat="42.212114" lon="2.44876">
        <ele>372</ele>
        <time>1970-01-01T00:11:35.000Z</time>
      </trkpt>
      <trkpt lat="42.212138" lon="2.448655">
        <ele>372</ele>
        <time>1970-01-01T00:11:36.000Z</time>
      </trkpt>
      <trkpt lat="42.21215" lon="2.448605">
        <ele>372</ele>
        <time>1970-01-01T00:11:37.000Z</time>
      </trkpt>
      <trkpt lat="42.212161" lon="2.448556">
        <ele>372</ele>
        <time>1970-01-01T00:11:38.000Z</time>
      </trkpt>
      <trkpt lat="42.212173" lon="2.448507">
        <ele>372</ele>
        <time>1970-01-01T00:11:39.000Z</time>
      </trkpt>
      <trkpt lat="42.212185" lon="2.448458">
        <ele>372</ele>
        <time>1970-01-01T00:11:40.000Z</time>
      </trkpt>
      <trkpt lat="42.212197" lon="2.448408">
        <ele>372</ele>
        <time>1970-01-01T00:11:41.000Z</time>
      </trkpt>
      <trkpt lat="42.212209" lon="2.448359">
        <ele>372</ele>
        <time>1970-01-01T00:11:42.000Z</time>
      </trkpt>
      <trkpt lat="42.21222" lon="2.44831">
        <ele>372</ele>
        <time>1970-01-01T00:11:43.000Z</time>
      </trkpt>
      <trkpt lat="42.212232" lon="2.44826">
        <ele>372</ele>
        <time>1970-01-01T00:11:44.000Z</time>
      </trkpt>
      <trkpt lat="42.212244" lon="2.448211">
        <ele>373</ele>
        <time>1970-01-01T00:11:45.000Z</time>
      </trkpt>
      <trkpt lat="42.212271" lon="2.448105">
        <ele>373</ele>
        <time>1970-01-01T00:11:46.000Z</time>
      </trkpt>
      <trkpt lat="42.212285" lon="2.448054">
        <ele>373</ele>
        <time>1970-01-01T00:11:47.000Z</time>
      </trkpt>
      <trkpt lat="42.212298" lon="2.448004">
        <ele>373</ele>
        <time>1970-01-01T00:11:48.000Z</time>
      </trkpt>
      <trkpt lat="42.212311" lon="2.447953">
        <ele>373</ele>
        <time>1970-01-01T00:11:49.000Z</time>
      </trkpt>
      <trkpt lat="42.212325" lon="2.447903">
        <ele>373</ele>
        <time>1970-01-01T00:11:50.000Z</time>
      </trkpt>
      <trkpt lat="42.212338" lon="2.447852">
        <ele>373</ele>
        <time>1970-01-01T00:11:51.000Z</time>
      </trkpt>
      <trkpt lat="42.212351" lon="2.447802">
        <ele>373</ele>
        <time>1970-01-01T00:11:52.000Z</time>
      </trkpt>
      <trkpt lat="42.212364" lon="2.447751">
        <ele>373</ele>
        <time>1970-01-01T00:11:53.000Z</time>
      </trkpt>
      <trkpt lat="42.212378" lon="2.447701">
        <ele>373</ele>
        <time>1970-01-01T00:11:54.000Z</time>
      </trkpt>
      <trkpt lat="42.212391" lon="2.44765">
        <ele>373</ele>
        <time>1970-01-01T00:11:55.000Z</time>
      </trkpt>
      <trkpt lat="42.212435" lon="2.447543">
        <ele>373</ele>
        <time>1970-01-01T00:11:56.000Z</time>
      </trkpt>
      <trkpt lat="42.21246" lon="2.447493">
        <ele>373</ele>
        <time>1970-01-01T00:11:57.000Z</time>
      </trkpt>
      <trkpt lat="42.212484" lon="2.447444">
        <ele>373</ele>
        <time>1970-01-01T00:11:58.000Z</time>
      </trkpt>
      <trkpt lat="42.212509" lon="2.447395">
        <ele>373</ele>
        <time>1970-01-01T00:11:59.000Z</time>
      </trkpt>
      <trkpt lat="42.212534" lon="2.447346">
        <ele>373</ele>
        <time>1970-01-01T00:12:00.000Z</time>
      </trkpt>
      <trkpt lat="42.212559" lon="2.447296">
        <ele>373</ele>
        <time>1970-01-01T00:12:01.000Z</time>
      </trkpt>
      <trkpt lat="42.212584" lon="2.447247">
        <ele>373</ele>
        <time>1970-01-01T00:12:02.000Z</time>
      </trkpt>
      <trkpt lat="42.212608" lon="2.447198">
        <ele>373</ele>
        <time>1970-01-01T00:12:03.000Z</time>
      </trkpt>
      <trkpt lat="42.212633" lon="2.447148">
        <ele>373</ele>
        <time>1970-01-01T00:12:04.000Z</time>
      </trkpt>
      <trkpt lat="42.212658" lon="2.447099">
        <ele>373</ele>
        <time>1970-01-01T00:12:05.000Z</time>
      </trkpt>
      <trkpt lat="42.21272" lon="2.447003">
        <ele>373</ele>
        <time>1970-01-01T00:12:06.000Z</time>
      </trkpt>
      <trkpt lat="42.212751" lon="2.446955">
        <ele>373</ele>
        <time>1970-01-01T00:12:07.000Z</time>
      </trkpt>
      <trkpt lat="42.212781" lon="2.446908">
        <ele>373</ele>
        <time>1970-01-01T00:12:08.000Z</time>
      </trkpt>
      <trkpt lat="42.212812" lon="2.44686">
        <ele>373</ele>
        <time>1970-01-01T00:12:09.000Z</time>
      </trkpt>
      <trkpt lat="42.212842" lon="2.446813">
        <ele>373</ele>
        <time>1970-01-01T00:12:10.000Z</time>
      </trkpt>
      <trkpt lat="42.212872" lon="2.446765">
        <ele>373</ele>
        <time>1970-01-01T00:12:11.000Z</time>
      </trkpt>
      <trkpt lat="42.212903" lon="2.446718">
        <ele>373</ele>
        <time>1970-01-01T00:12:12.000Z</time>
      </trkpt>
      <trkpt lat="42.212933" lon="2.44667">
        <ele>373</ele>
        <time>1970-01-01T00:12:13.000Z</time>
      </trkpt>
      <trkpt lat="42.212964" lon="2.446623">
        <ele>373</ele>
        <time>1970-01-01T00:12:14.000Z</time>
      </trkpt>
      <trkpt lat="42.212994" lon="2.446575">
        <ele>373</ele>
        <time>1970-01-01T00:12:15.000Z</time>
      </trkpt>
      <trkpt lat="42.213058" lon="2.44647">
        <ele>373</ele>
        <time>1970-01-01T00:12:16.000Z</time>
      </trkpt>
      <trkpt lat="42.213089" lon="2.446421">
        <ele>373</ele>
        <time>1970-01-01T00:12:17.000Z</time>
      </trkpt>
      <trkpt lat="42.21312" lon="2.446371">
        <ele>373</ele>
        <time>1970-01-01T00:12:18.000Z</time>
      </trkpt>
      <trkpt lat="42.213151" lon="2.446322">
        <ele>373</ele>
        <time>1970-01-01T00:12:19.000Z</time>
      </trkpt>
      <trkpt lat="42.213183" lon="2.446273">
        <ele>373</ele>
        <time>1970-01-01T00:12:20.000Z</time>
      </trkpt>
      <trkpt lat="42.213214" lon="2.446224">
        <ele>373</ele>
        <time>1970-01-01T00:12:21.000Z</time>
      </trkpt>
      <trkpt lat="42.213245" lon="2.446175">
        <ele>373</ele>
        <time>1970-01-01T00:12:22.000Z</time>
      </trkpt>
      <trkpt lat="42.213276" lon="2.446125">
        <ele>373</ele>
        <time>1970-01-01T00:12:23.000Z</time>
      </trkpt>
      <trkpt lat="42.213307" lon="2.446076">
        <ele>373</ele>
        <time>1970-01-01T00:12:24.000Z</time>
      </trkpt>
      <trkpt lat="42.213338" lon="2.446027">
        <ele>373</ele>
        <time>1970-01-01T00:12:25.000Z</time>
      </trkpt>
      <trkpt lat="42.213396" lon="2.445919">
        <ele>373</ele>
        <time>1970-01-01T00:12:26.000Z</time>
      </trkpt>
      <trkpt lat="42.21342" lon="2.445865">
        <ele>373</ele>
        <time>1970-01-01T00:12:27.000Z</time>
      </trkpt>
      <trkpt lat="42.213444" lon="2.445812">
        <ele>373</ele>
        <time>1970-01-01T00:12:28.000Z</time>
      </trkpt>
      <trkpt lat="42.213468" lon="2.445758">
        <ele>373</ele>
        <time>1970-01-01T00:12:29.000Z</time>
      </trkpt>
      <trkpt lat="42.213493" lon="2.445704">
        <ele>373</ele>
        <time>1970-01-01T00:12:30.000Z</time>
      </trkpt>
      <trkpt lat="42.213517" lon="2.44565">
        <ele>373</ele>
        <time>1970-01-01T00:12:31.000Z</time>
      </trkpt>
      <trkpt lat="42.213541" lon="2.445596">
        <ele>373</ele>
        <time>1970-01-01T00:12:32.000Z</time>
      </trkpt>
      <trkpt lat="42.213565" lon="2.445543">
        <ele>373</ele>
        <time>1970-01-01T00:12:33.000Z</time>
      </trkpt>
      <trkpt lat="42.213589" lon="2.445489">
        <ele>373</ele>
        <time>1970-01-01T00:12:34.000Z</time>
      </trkpt>
      <trkpt lat="42.213613" lon="2.445435">
        <ele>373</ele>
        <time>1970-01-01T00:12:35.000Z</time>
      </trkpt>
      <trkpt lat="42.213644" lon="2.445305">
        <ele>373</ele>
        <time>1970-01-01T00:12:36.000Z</time>
      </trkpt>
      <trkpt lat="42.213658" lon="2.445241">
        <ele>373</ele>
        <time>1970-01-01T00:12:37.000Z</time>
      </trkpt>
      <trkpt lat="42.213671" lon="2.445177">
        <ele>373</ele>
        <time>1970-01-01T00:12:38.000Z</time>
      </trkpt>
      <trkpt lat="42.213685" lon="2.445113">
        <ele>373</ele>
        <time>1970-01-01T00:12:39.000Z</time>
      </trkpt>
      <trkpt lat="42.213698" lon="2.44505">
        <ele>373</ele>
        <time>1970-01-01T00:12:40.000Z</time>
      </trkpt>
      <trkpt lat="42.213711" lon="2.444986">
        <ele>373</ele>
        <time>1970-01-01T00:12:41.000Z</time>
      </trkpt>
      <trkpt lat="42.213725" lon="2.444922">
        <ele>373</ele>
        <time>1970-01-01T00:12:42.000Z</time>
      </trkpt>
      <trkpt lat="42.213738" lon="2.444858">
        <ele>373</ele>
        <time>1970-01-01T00:12:43.000Z</time>
      </trkpt>
      <trkpt lat="42.213752" lon="2.444794">
        <ele>373</ele>
        <time>1970-01-01T00:12:44.000Z</time>
      </trkpt>
      <trkpt lat="42.213765" lon="2.44473">
        <ele>374</ele>
        <time>1970-01-01T00:12:45.000Z</time>
      </trkpt>
      <trkpt lat="42.213805" lon="2.4446">
        <ele>374</ele>
        <time>1970-01-01T00:12:46.000Z</time>
      </trkpt>
      <trkpt lat="42.213829" lon="2.444542">
        <ele>374</ele>
        <time>1970-01-01T00:12:47.000Z</time>
      </trkpt>
      <trkpt lat="42.213854" lon="2.444485">
        <ele>374</ele>
        <time>1970-01-01T00:12:48.000Z</time>
      </trkpt>
      <trkpt lat="42.213878" lon="2.444427">
        <ele>374</ele>
        <time>1970-01-01T00:12:49.000Z</time>
      </trkpt>
      <trkpt lat="42.213903" lon="2.44437">
        <ele>374</ele>
        <time>1970-01-01T00:12:50.000Z</time>
      </trkpt>
      <trkpt lat="42.213927" lon="2.444312">
        <ele>374</ele>
        <time>1970-01-01T00:12:51.000Z</time>
      </trkpt>
      <trkpt lat="42.213952" lon="2.444255">
        <ele>374</ele>
        <time>1970-01-01T00:12:52.000Z</time>
      </trkpt>
      <trkpt lat="42.213976" lon="2.444197">
        <ele>374</ele>
        <time>1970-01-01T00:12:53.000Z</time>
      </trkpt>
      <trkpt lat="42.214001" lon="2.44414">
        <ele>374</ele>
        <time>1970-01-01T00:12:54.000Z</time>
      </trkpt>
      <trkpt lat="42.214025" lon="2.444082">
        <ele>374</ele>
        <time>1970-01-01T00:12:55.000Z</time>
      </trkpt>
      <trkpt lat="42.214086" lon="2.443974">
        <ele>374</ele>
        <time>1970-01-01T00:12:56.000Z</time>
      </trkpt>
      <trkpt lat="42.214117" lon="2.443922">
        <ele>374</ele>
        <time>1970-01-01T00:12:57.000Z</time>
      </trkpt>
      <trkpt lat="42.214148" lon="2.443871">
        <ele>374</ele>
        <time>1970-01-01T00:12:58.000Z</time>
      </trkpt>
      <trkpt lat="42.214179" lon="2.443819">
        <ele>374</ele>
        <time>1970-01-01T00:12:59.000Z</time>
      </trkpt>
      <trkpt lat="42.21421" lon="2.443768">
        <ele>374</ele>
        <time>1970-01-01T00:13:00.000Z</time>
      </trkpt>
      <trkpt lat="42.21424" lon="2.443717">
        <ele>374</ele>
        <time>1970-01-01T00:13:01.000Z</time>
      </trkpt>
      <trkpt lat="42.214271" lon="2.443665">
        <ele>374</ele>
        <time>1970-01-01T00:13:02.000Z</time>
      </trkpt>
      <trkpt lat="42.214302" lon="2.443614">
        <ele>374</ele>
        <time>1970-01-01T00:13:03.000Z</time>
      </trkpt>
      <trkpt lat="42.214333" lon="2.443562">
        <ele>374</ele>
        <time>1970-01-01T00:13:04.000Z</time>
      </trkpt>
      <trkpt lat="42.214364" lon="2.443511">
        <ele>373</ele>
        <time>1970-01-01T00:13:05.000Z</time>
      </trkpt>
      <trkpt lat="42.214434" lon="2.443404">
        <ele>373</ele>
        <time>1970-01-01T00:13:06.000Z</time>
      </trkpt>
      <trkpt lat="42.214469" lon="2.443354">
        <ele>373</ele>
        <time>1970-01-01T00:13:07.000Z</time>
      </trkpt>
      <trkpt lat="42.214505" lon="2.443305">
        <ele>373</ele>
        <time>1970-01-01T00:13:08.000Z</time>
      </trkpt>
      <trkpt lat="42.21454" lon="2.443255">
        <ele>373</ele>
        <time>1970-01-01T00:13:09.000Z</time>
      </trkpt>
      <trkpt lat="42.214576" lon="2.443206">
        <ele>373</ele>
        <time>1970-01-01T00:13:10.000Z</time>
      </trkpt>
      <trkpt lat="42.214611" lon="2.443157">
        <ele>373</ele>
        <time>1970-01-01T00:13:11.000Z</time>
      </trkpt>
      <trkpt lat="42.214647" lon="2.443107">
        <ele>373</ele>
        <time>1970-01-01T00:13:12.000Z</time>
      </trkpt>
      <trkpt lat="42.214682" lon="2.443058">
        <ele>373</ele>
        <time>1970-01-01T00:13:13.000Z</time>
      </trkpt>
      <trkpt lat="42.214718" lon="2.443008">
        <ele>373</ele>
        <time>1970-01-01T00:13:14.000Z</time>
      </trkpt>
      <trkpt lat="42.214753" lon="2.442959">
        <ele>374</ele>
        <time>1970-01-01T00:13:15.000Z</time>
      </trkpt>
      <trkpt lat="42.214842" lon="2.442873">
        <ele>374</ele>
        <time>1970-01-01T00:13:16.000Z</time>
      </trkpt>
      <trkpt lat="42.214888" lon="2.442836">
        <ele>374</ele>
        <time>1970-01-01T00:13:17.000Z</time>
      </trkpt>
      <trkpt lat="42.214934" lon="2.442799">
        <ele>374</ele>
        <time>1970-01-01T00:13:18.000Z</time>
      </trkpt>
      <trkpt lat="42.21498" lon="2.442762">
        <ele>374</ele>
        <time>1970-01-01T00:13:19.000Z</time>
      </trkpt>
      <trkpt lat="42.215026" lon="2.442725">
        <ele>374</ele>
        <time>1970-01-01T00:13:20.000Z</time>
      </trkpt>
      <trkpt lat="42.215072" lon="2.442687">
        <ele>374</ele>
        <time>1970-01-01T00:13:21.000Z</time>
      </trkpt>
      <trkpt lat="42.215118" lon="2.44265">
        <ele>374</ele>
        <time>1970-01-01T00:13:22.000Z</time>
      </trkpt>
      <trkpt lat="42.215164" lon="2.442613">
        <ele>374</ele>
        <time>1970-01-01T00:13:23.000Z</time>
      </trkpt>
      <trkpt lat="42.21521" lon="2.442576">
        <ele>374</ele>
        <time>1970-01-01T00:13:24.000Z</time>
      </trkpt>
      <trkpt lat="42.215256" lon="2.442539">
        <ele>374</ele>
        <time>1970-01-01T00:13:25.000Z</time>
      </trkpt>
      <trkpt lat="42.215363" lon="2.44249">
        <ele>374</ele>
        <time>1970-01-01T00:13:26.000Z</time>
      </trkpt>
      <trkpt lat="42.215414" lon="2.442472">
        <ele>374</ele>
        <time>1970-01-01T00:13:27.000Z</time>
      </trkpt>
      <trkpt lat="42.215466" lon="2.442455">
        <ele>374</ele>
        <time>1970-01-01T00:13:28.000Z</time>
      </trkpt>
      <trkpt lat="42.215517" lon="2.442437">
        <ele>374</ele>
        <time>1970-01-01T00:13:29.000Z</time>
      </trkpt>
      <trkpt lat="42.215569" lon="2.44242">
        <ele>374</ele>
        <time>1970-01-01T00:13:30.000Z</time>
      </trkpt>
      <trkpt lat="42.215621" lon="2.442403">
        <ele>374</ele>
        <time>1970-01-01T00:13:31.000Z</time>
      </trkpt>
      <trkpt lat="42.215672" lon="2.442385">
        <ele>374</ele>
        <time>1970-01-01T00:13:32.000Z</time>
      </trkpt>
      <trkpt lat="42.215724" lon="2.442368">
        <ele>374</ele>
        <time>1970-01-01T00:13:33.000Z</time>
      </trkpt>
      <trkpt lat="42.215775" lon="2.44235">
        <ele>374</ele>
        <time>1970-01-01T00:13:34.000Z</time>
      </trkpt>
      <trkpt lat="42.215827" lon="2.442333">
        <ele>373</ele>
        <time>1970-01-01T00:13:35.000Z</time>
      </trkpt>
      <trkpt lat="42.215936" lon="2.442325">
        <ele>373</ele>
        <time>1970-01-01T00:13:36.000Z</time>
      </trkpt>
      <trkpt lat="42.215987" lon="2.442326">
        <ele>373</ele>
        <time>1970-01-01T00:13:37.000Z</time>
      </trkpt>
      <trkpt lat="42.216039" lon="2.442326">
        <ele>373</ele>
        <time>1970-01-01T00:13:38.000Z</time>
      </trkpt>
      <trkpt lat="42.21609" lon="2.442326">
        <ele>373</ele>
        <time>1970-01-01T00:13:39.000Z</time>
      </trkpt>
      <trkpt lat="42.216142" lon="2.442326">
        <ele>373</ele>
        <time>1970-01-01T00:13:40.000Z</time>
      </trkpt>
      <trkpt lat="42.216194" lon="2.442327">
        <ele>373</ele>
        <time>1970-01-01T00:13:41.000Z</time>
      </trkpt>
      <trkpt lat="42.216245" lon="2.442327">
        <ele>373</ele>
        <time>1970-01-01T00:13:42.000Z</time>
      </trkpt>
      <trkpt lat="42.216297" lon="2.442327">
        <ele>373</ele>
        <time>1970-01-01T00:13:43.000Z</time>
      </trkpt>
      <trkpt lat="42.216348" lon="2.442328">
        <ele>373</ele>
        <time>1970-01-01T00:13:44.000Z</time>
      </trkpt>
      <trkpt lat="42.2164" lon="2.442328">
        <ele>373</ele>
        <time>1970-01-01T00:13:45.000Z</time>
      </trkpt>
      <trkpt lat="42.216509" lon="2.442348">
        <ele>373</ele>
        <time>1970-01-01T00:13:46.000Z</time>
      </trkpt>
      <trkpt lat="42.216561" lon="2.44236">
        <ele>373</ele>
        <time>1970-01-01T00:13:47.000Z</time>
      </trkpt>
      <trkpt lat="42.216613" lon="2.442371">
        <ele>373</ele>
        <time>1970-01-01T00:13:48.000Z</time>
      </trkpt>
      <trkpt lat="42.216665" lon="2.442382">
        <ele>373</ele>
        <time>1970-01-01T00:13:49.000Z</time>
      </trkpt>
      <trkpt lat="42.216717" lon="2.442393">
        <ele>373</ele>
        <time>1970-01-01T00:13:50.000Z</time>
      </trkpt>
      <trkpt lat="42.216769" lon="2.442405">
        <ele>373</ele>
        <time>1970-01-01T00:13:51.000Z</time>
      </trkpt>
      <trkpt lat="42.216821" lon="2.442416">
        <ele>373</ele>
        <time>1970-01-01T00:13:52.000Z</time>
      </trkpt>
      <trkpt lat="42.216873" lon="2.442427">
        <ele>373</ele>
        <time>1970-01-01T00:13:53.000Z</time>
      </trkpt>
      <trkpt lat="42.216925" lon="2.442439">
        <ele>373</ele>
        <time>1970-01-01T00:13:54.000Z</time>
      </trkpt>
      <trkpt lat="42.216977" lon="2.44245">
        <ele>373</ele>
        <time>1970-01-01T00:13:55.000Z</time>
      </trkpt>
      <trkpt lat="42.217086" lon="2.442469">
        <ele>373</ele>
        <time>1970-01-01T00:13:56.000Z</time>
      </trkpt>
      <trkpt lat="42.217138" lon="2.442477">
        <ele>373</ele>
        <time>1970-01-01T00:13:57.000Z</time>
      </trkpt>
      <trkpt lat="42.21719" lon="2.442484">
        <ele>373</ele>
        <time>1970-01-01T00:13:58.000Z</time>
      </trkpt>
      <trkpt lat="42.217242" lon="2.442492">
        <ele>373</ele>
        <time>1970-01-01T00:13:59.000Z</time>
      </trkpt>
      <trkpt lat="42.217294" lon="2.442499">
        <ele>373</ele>
        <time>1970-01-01T00:14:00.000Z</time>
      </trkpt>
      <trkpt lat="42.217345" lon="2.442507">
        <ele>373</ele>
        <time>1970-01-01T00:14:01.000Z</time>
      </trkpt>
      <trkpt lat="42.217397" lon="2.442514">
        <ele>373</ele>
        <time>1970-01-01T00:14:02.000Z</time>
      </trkpt>
      <trkpt lat="42.217449" lon="2.442522">
        <ele>373</ele>
        <time>1970-01-01T00:14:03.000Z</time>
      </trkpt>
      <trkpt lat="42.217501" lon="2.442529">
        <ele>373</ele>
        <time>1970-01-01T00:14:04.000Z</time>
      </trkpt>
      <trkpt lat="42.217553" lon="2.442537">
        <ele>373</ele>
        <time>1970-01-01T00:14:05.000Z</time>
      </trkpt>
      <trkpt lat="42.217663" lon="2.442529">
        <ele>373</ele>
        <time>1970-01-01T00:14:06.000Z</time>
      </trkpt>
      <trkpt lat="42.217714" lon="2.442517">
        <ele>373</ele>
        <time>1970-01-01T00:14:07.000Z</time>
      </trkpt>
      <trkpt lat="42.217766" lon="2.442505">
        <ele>373</ele>
        <time>1970-01-01T00:14:08.000Z</time>
      </trkpt>
      <trkpt lat="42.217818" lon="2.442493">
        <ele>373</ele>
        <time>1970-01-01T00:14:09.000Z</time>
      </trkpt>
      <trkpt lat="42.21787" lon="2.442481">
        <ele>373</ele>
        <time>1970-01-01T00:14:10.000Z</time>
      </trkpt>
      <trkpt lat="42.217921" lon="2.442468">
        <ele>373</ele>
        <time>1970-01-01T00:14:11.000Z</time>
      </trkpt>
      <trkpt lat="42.217973" lon="2.442456">
        <ele>373</ele>
        <time>1970-01-01T00:14:12.000Z</time>
      </trkpt>
      <trkpt lat="42.218025" lon="2.442444">
        <ele>373</ele>
        <time>1970-01-01T00:14:13.000Z</time>
      </trkpt>
      <trkpt lat="42.218076" lon="2.442432">
        <ele>373</ele>
        <time>1970-01-01T00:14:14.000Z</time>
      </trkpt>
      <trkpt lat="42.218128" lon="2.44242">
        <ele>373</ele>
        <time>1970-01-01T00:14:15.000Z</time>
      </trkpt>
      <trkpt lat="42.218231" lon="2.442364">
        <ele>373</ele>
        <time>1970-01-01T00:14:16.000Z</time>
      </trkpt>
      <trkpt lat="42.218279" lon="2.442333">
        <ele>373</ele>
        <time>1970-01-01T00:14:17.000Z</time>
      </trkpt>
      <trkpt lat="42.218327" lon="2.442303">
        <ele>373</ele>
        <time>1970-01-01T00:14:18.000Z</time>
      </trkpt>
      <trkpt lat="42.218375" lon="2.442272">
        <ele>373</ele>
        <time>1970-01-01T00:14:19.000Z</time>
      </trkpt>
      <trkpt lat="42.218424" lon="2.442242">
        <ele>373</ele>
        <time>1970-01-01T00:14:20.000Z</time>
      </trkpt>
      <trkpt lat="42.218472" lon="2.442211">
        <ele>373</ele>
        <time>1970-01-01T00:14:21.000Z</time>
      </trkpt>
      <trkpt lat="42.21852" lon="2.442181">
        <ele>373</ele>
        <time>1970-01-01T00:14:22.000Z</time>
      </trkpt>
      <trkpt lat="42.218568" lon="2.44215">
        <ele>373</ele>
        <time>1970-01-01T00:14:23.000Z</time>
      </trkpt>
      <trkpt lat="42.218616" lon="2.44212">
        <ele>373</ele>
        <time>1970-01-01T00:14:24.000Z</time>
      </trkpt>
      <trkpt lat="42.218664" lon="2.442089">
        <ele>373</ele>
        <time>1970-01-01T00:14:25.000Z</time>
      </trkpt>
      <trkpt lat="42.218762" lon="2.44202">
        <ele>373</ele>
        <time>1970-01-01T00:14:26.000Z</time>
      </trkpt>
      <trkpt lat="42.218808" lon="2.441987">
        <ele>373</ele>
        <time>1970-01-01T00:14:27.000Z</time>
      </trkpt>
      <trkpt lat="42.218853" lon="2.441954">
        <ele>373</ele>
        <time>1970-01-01T00:14:28.000Z</time>
      </trkpt>
      <trkpt lat="42.218899" lon="2.441921">
        <ele>373</ele>
        <time>1970-01-01T00:14:29.000Z</time>
      </trkpt>
      <trkpt lat="42.218945" lon="2.441888">
        <ele>373</ele>
        <time>1970-01-01T00:14:30.000Z</time>
      </trkpt>
      <trkpt lat="42.218991" lon="2.441854">
        <ele>373</ele>
        <time>1970-01-01T00:14:31.000Z</time>
      </trkpt>
      <trkpt lat="42.219037" lon="2.441821">
        <ele>373</ele>
        <time>1970-01-01T00:14:32.000Z</time>
      </trkpt>
      <trkpt lat="42.219082" lon="2.441788">
        <ele>373</ele>
        <time>1970-01-01T00:14:33.000Z</time>
      </trkpt>
      <trkpt lat="42.219128" lon="2.441755">
        <ele>373</ele>
        <time>1970-01-01T00:14:34.000Z</time>
      </trkpt>
      <trkpt lat="42.219174" lon="2.441722">
        <ele>374</ele>
        <time>1970-01-01T00:14:35.000Z</time>
      </trkpt>
      <trkpt lat="42.219268" lon="2.441647">
        <ele>374</ele>
        <time>1970-01-01T00:14:36.000Z</time>
      </trkpt>
      <trkpt lat="42.219312" lon="2.441609">
        <ele>374</ele>
        <time>1970-01-01T00:14:37.000Z</time>
      </trkpt>
      <trkpt lat="42.219356" lon="2.441571">
        <ele>374</ele>
        <time>1970-01-01T00:14:38.000Z</time>
      </trkpt>
      <trkpt lat="42.2194" lon="2.441533">
        <ele>374</ele>
        <time>1970-01-01T00:14:39.000Z</time>
      </trkpt>
      <trkpt lat="42.219444" lon="2.441495">
        <ele>374</ele>
        <time>1970-01-01T00:14:40.000Z</time>
      </trkpt>
      <trkpt lat="42.219488" lon="2.441456">
        <ele>374</ele>
        <time>1970-01-01T00:14:41.000Z</time>
      </trkpt>
      <trkpt lat="42.219532" lon="2.441418">
        <ele>374</ele>
        <time>1970-01-01T00:14:42.000Z</time>
      </trkpt>
      <trkpt lat="42.219576" lon="2.44138">
        <ele>374</ele>
        <time>1970-01-01T00:14:43.000Z</time>
      </trkpt>
      <trkpt lat="42.21962" lon="2.441342">
        <ele>374</ele>
        <time>1970-01-01T00:14:44.000Z</time>
      </trkpt>
      <trkpt lat="42.219664" lon="2.441304">
        <ele>375</ele>
        <time>1970-01-01T00:14:45.000Z</time>
      </trkpt>
      <trkpt lat="42.219756" lon="2.441209">
        <ele>375</ele>
        <time>1970-01-01T00:14:46.000Z</time>
      </trkpt>
      <trkpt lat="42.219801" lon="2.441164">
        <ele>375</ele>
        <time>1970-01-01T00:14:47.000Z</time>
      </trkpt>
      <trkpt lat="42.219845" lon="2.441118">
        <ele>375</ele>
        <time>1970-01-01T00:14:48.000Z</time>
      </trkpt>
      <trkpt lat="42.219889" lon="2.441073">
        <ele>375</ele>
        <time>1970-01-01T00:14:49.000Z</time>
      </trkpt>
      <trkpt lat="42.219934" lon="2.441027">
        <ele>375</ele>
        <time>1970-01-01T00:14:50.000Z</time>
      </trkpt>
      <trkpt lat="42.219978" lon="2.440981">
        <ele>375</ele>
        <time>1970-01-01T00:14:51.000Z</time>
      </trkpt>
      <trkpt lat="42.220022" lon="2.440936">
        <ele>375</ele>
        <time>1970-01-01T00:14:52.000Z</time>
      </trkpt>
      <trkpt lat="42.220066" lon="2.44089">
        <ele>375</ele>
        <time>1970-01-01T00:14:53.000Z</time>
      </trkpt>
      <trkpt lat="42.220111" lon="2.440845">
        <ele>375</ele>
        <time>1970-01-01T00:14:54.000Z</time>
      </trkpt>
      <trkpt lat="42.220155" lon="2.440799">
        <ele>375</ele>
        <time>1970-01-01T00:14:55.000Z</time>
      </trkpt>
      <trkpt lat="42.220249" lon="2.440723">
        <ele>375</ele>
        <time>1970-01-01T00:14:56.000Z</time>
      </trkpt>
      <trkpt lat="42.220294" lon="2.440696">
        <ele>375</ele>
        <time>1970-01-01T00:14:57.000Z</time>
      </trkpt>
      <trkpt lat="42.220339" lon="2.440668">
        <ele>375</ele>
        <time>1970-01-01T00:14:58.000Z</time>
      </trkpt>
      <trkpt lat="42.220384" lon="2.440641">
        <ele>375</ele>
        <time>1970-01-01T00:14:59.000Z</time>
      </trkpt>
      <trkpt lat="42.22043" lon="2.440613">
        <ele>375</ele>
        <time>1970-01-01T00:15:00.000Z</time>
      </trkpt>
      <trkpt lat="42.220475" lon="2.440585">
        <ele>375</ele>
        <time>1970-01-01T00:15:01.000Z</time>
      </trkpt>
      <trkpt lat="42.22052" lon="2.440558">
        <ele>375</ele>
        <time>1970-01-01T00:15:02.000Z</time>
      </trkpt>
      <trkpt lat="42.220565" lon="2.44053">
        <ele>375</ele>
        <time>1970-01-01T00:15:03.000Z</time>
      </trkpt>
      <trkpt lat="42.22061" lon="2.440503">
        <ele>375</ele>
        <time>1970-01-01T00:15:04.000Z</time>
      </trkpt>
      <trkpt lat="42.220655" lon="2.440475">
        <ele>375</ele>
        <time>1970-01-01T00:15:05.000Z</time>
      </trkpt>
      <trkpt lat="42.220751" lon="2.440443">
        <ele>375</ele>
        <time>1970-01-01T00:15:06.000Z</time>
      </trkpt>
      <trkpt lat="42.220798" lon="2.440426">
        <ele>375</ele>
        <time>1970-01-01T00:15:07.000Z</time>
      </trkpt>
      <trkpt lat="42.220844" lon="2.44041">
        <ele>375</ele>
        <time>1970-01-01T00:15:08.000Z</time>
      </trkpt>
      <trkpt lat="42.22089" lon="2.440394">
        <ele>375</ele>
        <time>1970-01-01T00:15:09.000Z</time>
      </trkpt>
      <trkpt lat="42.220937" lon="2.440378">
        <ele>375</ele>
        <time>1970-01-01T00:15:10.000Z</time>
      </trkpt>
      <trkpt lat="42.220983" lon="2.440361">
        <ele>375</ele>
        <time>1970-01-01T00:15:11.000Z</time>
      </trkpt>
      <trkpt lat="42.221029" lon="2.440345">
        <ele>375</ele>
        <time>1970-01-01T00:15:12.000Z</time>
      </trkpt>
      <trkpt lat="42.221075" lon="2.440329">
        <ele>375</ele>
        <time>1970-01-01T00:15:13.000Z</time>
      </trkpt>
      <trkpt lat="42.221122" lon="2.440312">
        <ele>375</ele>
        <time>1970-01-01T00:15:14.000Z</time>
      </trkpt>
      <trkpt lat="42.221168" lon="2.440296">
        <ele>376</ele>
        <time>1970-01-01T00:15:15.000Z</time>
      </trkpt>
      <trkpt lat="42.221261" lon="2.44026">
        <ele>376</ele>
        <time>1970-01-01T00:15:16.000Z</time>
      </trkpt>
      <trkpt lat="42.2213" lon="2.440241">
        <ele>376</ele>
        <time>1970-01-01T00:15:17.000Z</time>
      </trkpt>
      <trkpt lat="42.221338" lon="2.440223">
        <ele>376</ele>
        <time>1970-01-01T00:15:18.000Z</time>
      </trkpt>
      <trkpt lat="42.221377" lon="2.440205">
        <ele>376</ele>
        <time>1970-01-01T00:15:19.000Z</time>
      </trkpt>
      <trkpt lat="42.221416" lon="2.440187">
        <ele>376</ele>
        <time>1970-01-01T00:15:20.000Z</time>
      </trkpt>
      <trkpt lat="42.221455" lon="2.440168">
        <ele>376</ele>
        <time>1970-01-01T00:15:21.000Z</time>
      </trkpt>
      <trkpt lat="42.221494" lon="2.44015">
        <ele>376</ele>
        <time>1970-01-01T00:15:22.000Z</time>
      </trkpt>
      <trkpt lat="42.221532" lon="2.440132">
        <ele>376</ele>
        <time>1970-01-01T00:15:23.000Z</time>
      </trkpt>
      <trkpt lat="42.221571" lon="2.440113">
        <ele>376</ele>
        <time>1970-01-01T00:15:24.000Z</time>
      </trkpt>
      <trkpt lat="42.22161" lon="2.440095">
        <ele>376</ele>
        <time>1970-01-01T00:15:25.000Z</time>
      </trkpt>
      <trkpt lat="42.221662" lon="2.440066">
        <ele>376</ele>
        <time>1970-01-01T00:15:26.000Z</time>
      </trkpt>
      <trkpt lat="42.221683" lon="2.440052">
        <ele>376</ele>
        <time>1970-01-01T00:15:27.000Z</time>
      </trkpt>
      <trkpt lat="42.221705" lon="2.440038">
        <ele>376</ele>
        <time>1970-01-01T00:15:28.000Z</time>
      </trkpt>
      <trkpt lat="42.221726" lon="2.440024">
        <ele>376</ele>
        <time>1970-01-01T00:15:29.000Z</time>
      </trkpt>
      <trkpt lat="42.221748" lon="2.440011">
        <ele>376</ele>
        <time>1970-01-01T00:15:30.000Z</time>
      </trkpt>
      <trkpt lat="42.221769" lon="2.439997">
        <ele>376</ele>
        <time>1970-01-01T00:15:31.000Z</time>
      </trkpt>
      <trkpt lat="42.221791" lon="2.439983">
        <ele>376</ele>
        <time>1970-01-01T00:15:32.000Z</time>
      </trkpt>
      <trkpt lat="42.221812" lon="2.439969">
        <ele>376</ele>
        <time>1970-01-01T00:15:33.000Z</time>
      </trkpt>
      <trkpt lat="42.221834" lon="2.439955">
        <ele>376</ele>
        <time>1970-01-01T00:15:34.000Z</time>
      </trkpt>
      <trkpt lat="42.221855" lon="2.439941">
        <ele>376</ele>
        <time>1970-01-01T00:15:35.000Z</time>
      </trkpt>
      <trkpt lat="42.221901" lon="2.43991">
        <ele>376</ele>
        <time>1970-01-01T00:15:36.000Z</time>
      </trkpt>
      <trkpt lat="42.221922" lon="2.439895">
        <ele>376</ele>
        <time>1970-01-01T00:15:37.000Z</time>
      </trkpt>
      <trkpt lat="42.221944" lon="2.439881">
        <ele>376</ele>
        <time>1970-01-01T00:15:38.000Z</time>
      </trkpt>
      <trkpt lat="42.221965" lon="2.439866">
        <ele>376</ele>
        <time>1970-01-01T00:15:39.000Z</time>
      </trkpt>
      <trkpt lat="42.221986" lon="2.439852">
        <ele>376</ele>
        <time>1970-01-01T00:15:40.000Z</time>
      </trkpt>
      <trkpt lat="42.222007" lon="2.439838">
        <ele>376</ele>
        <time>1970-01-01T00:15:41.000Z</time>
      </trkpt>
      <trkpt lat="42.222028" lon="2.439823">
        <ele>376</ele>
        <time>1970-01-01T00:15:42.000Z</time>
      </trkpt>
      <trkpt lat="42.22205" lon="2.439809">
        <ele>376</ele>
        <time>1970-01-01T00:15:43.000Z</time>
      </trkpt>
      <trkpt lat="42.222071" lon="2.439794">
        <ele>376</ele>
        <time>1970-01-01T00:15:44.000Z</time>
      </trkpt>
      <trkpt lat="42.222092" lon="2.43978">
        <ele>380</ele>
        <time>1970-01-01T00:15:45.000Z</time>
      </trkpt>
      <trkpt lat="42.222135" lon="2.43975">
        <ele>380</ele>
        <time>1970-01-01T00:15:46.000Z</time>
      </trkpt>
      <trkpt lat="42.222154" lon="2.439735">
        <ele>380</ele>
        <time>1970-01-01T00:15:47.000Z</time>
      </trkpt>
      <trkpt lat="42.222174" lon="2.439721">
        <ele>380</ele>
        <time>1970-01-01T00:15:48.000Z</time>
      </trkpt>
      <trkpt lat="42.222193" lon="2.439706">
        <ele>380</ele>
        <time>1970-01-01T00:15:49.000Z</time>
      </trkpt>
      <trkpt lat="42.222213" lon="2.439692">
        <ele>380</ele>
        <time>1970-01-01T00:15:50.000Z</time>
      </trkpt>
      <trkpt lat="42.222233" lon="2.439677">
        <ele>380</ele>
        <time>1970-01-01T00:15:51.000Z</time>
      </trkpt>
      <trkpt lat="42.222252" lon="2.439663">
        <ele>380</ele>
        <time>1970-01-01T00:15:52.000Z</time>
      </trkpt>
      <trkpt lat="42.222272" lon="2.439648">
        <ele>380</ele>
        <time>1970-01-01T00:15:53.000Z</time>
      </trkpt>
      <trkpt lat="42.222291" lon="2.439634">
        <ele>380</ele>
        <time>1970-01-01T00:15:54.000Z</time>
      </trkpt>
      <trkpt lat="42.222311" lon="2.439619">
        <ele>381</ele>
        <time>1970-01-01T00:15:55.000Z</time>
      </trkpt>
      <trkpt lat="42.222351" lon="2.439585">
        <ele>381</ele>
        <time>1970-01-01T00:15:56.000Z</time>
      </trkpt>
      <trkpt lat="42.22237" lon="2.439568">
        <ele>381</ele>
        <time>1970-01-01T00:15:57.000Z</time>
      </trkpt>
      <trkpt lat="42.222388" lon="2.439552">
        <ele>381</ele>
        <time>1970-01-01T00:15:58.000Z</time>
      </trkpt>
      <trkpt lat="42.222407" lon="2.439535">
        <ele>381</ele>
        <time>1970-01-01T00:15:59.000Z</time>
      </trkpt>
      <trkpt lat="42.222425" lon="2.439518">
        <ele>381</ele>
        <time>1970-01-01T00:16:00.000Z</time>
      </trkpt>
      <trkpt lat="42.222443" lon="2.439501">
        <ele>381</ele>
        <time>1970-01-01T00:16:01.000Z</time>
      </trkpt>
      <trkpt lat="42.222462" lon="2.439484">
        <ele>381</ele>
        <time>1970-01-01T00:16:02.000Z</time>
      </trkpt>
      <trkpt lat="42.22248" lon="2.439468">
        <ele>381</ele>
        <time>1970-01-01T00:16:03.000Z</time>
      </trkpt>
      <trkpt lat="42.222499" lon="2.439451">
        <ele>381</ele>
        <time>1970-01-01T00:16:04.000Z</time>
      </trkpt>
      <trkpt lat="42.222517" lon="2.439434">
        <ele>382</ele>
        <time>1970-01-01T00:16:05.000Z</time>
      </trkpt>
      <trkpt lat="42.222554" lon="2.439399">
        <ele>382</ele>
        <time>1970-01-01T00:16:06.000Z</time>
      </trkpt>
      <trkpt lat="42.222572" lon="2.439383">
        <ele>382</ele>
        <time>1970-01-01T00:16:07.000Z</time>
      </trkpt>
      <trkpt lat="42.222589" lon="2.439366">
        <ele>382</ele>
        <time>1970-01-01T00:16:08.000Z</time>
      </trkpt>
      <trkpt lat="42.222607" lon="2.439349">
        <ele>382</ele>
        <time>1970-01-01T00:16:09.000Z</time>
      </trkpt>
      <trkpt lat="42.222624" lon="2.439333">
        <ele>382</ele>
        <time>1970-01-01T00:16:10.000Z</time>
      </trkpt>
      <trkpt lat="42.222641" lon="2.439316">
        <ele>382</ele>
        <time>1970-01-01T00:16:11.000Z</time>
      </trkpt>
      <trkpt lat="42.222659" lon="2.439299">
        <ele>382</ele>
        <time>1970-01-01T00:16:12.000Z</time>
      </trkpt>
      <trkpt lat="42.222676" lon="2.439282">
        <ele>382</ele>
        <time>1970-01-01T00:16:13.000Z</time>
      </trkpt>
      <trkpt lat="42.222694" lon="2.439266">
        <ele>382</ele>
        <time>1970-01-01T00:16:14.000Z</time>
      </trkpt>
      <trkpt lat="42.222711" lon="2.439249">
        <ele>383</ele>
        <time>1970-01-01T00:16:15.000Z</time>
      </trkpt>
      <trkpt lat="42.222748" lon="2.439213">
        <ele>383</ele>
        <time>1970-01-01T00:16:16.000Z</time>
      </trkpt>
      <trkpt lat="42.222765" lon="2.439196">
        <ele>383</ele>
        <time>1970-01-01T00:16:17.000Z</time>
      </trkpt>
      <trkpt lat="42.222783" lon="2.439178">
        <ele>383</ele>
        <time>1970-01-01T00:16:18.000Z</time>
      </trkpt>
      <trkpt lat="42.2228" lon="2.43916">
        <ele>383</ele>
        <time>1970-01-01T00:16:19.000Z</time>
      </trkpt>
      <trkpt lat="42.222817" lon="2.439143">
        <ele>383</ele>
        <time>1970-01-01T00:16:20.000Z</time>
      </trkpt>
      <trkpt lat="42.222834" lon="2.439125">
        <ele>383</ele>
        <time>1970-01-01T00:16:21.000Z</time>
      </trkpt>
      <trkpt lat="42.222851" lon="2.439107">
        <ele>383</ele>
        <time>1970-01-01T00:16:22.000Z</time>
      </trkpt>
      <trkpt lat="42.222869" lon="2.439089">
        <ele>383</ele>
        <time>1970-01-01T00:16:23.000Z</time>
      </trkpt>
      <trkpt lat="42.222886" lon="2.439072">
        <ele>383</ele>
        <time>1970-01-01T00:16:24.000Z</time>
      </trkpt>
      <trkpt lat="42.222903" lon="2.439054">
        <ele>385</ele>
        <time>1970-01-01T00:16:25.000Z</time>
      </trkpt>
      <trkpt lat="42.222939" lon="2.439014">
        <ele>385</ele>
        <time>1970-01-01T00:16:26.000Z</time>
      </trkpt>
      <trkpt lat="42.222956" lon="2.438996">
        <ele>385</ele>
        <time>1970-01-01T00:16:27.000Z</time>
      </trkpt>
      <trkpt lat="42.222972" lon="2.438977">
        <ele>385</ele>
        <time>1970-01-01T00:16:28.000Z</time>
      </trkpt>
      <trkpt lat="42.222989" lon="2.438958">
        <ele>385</ele>
        <time>1970-01-01T00:16:29.000Z</time>
      </trkpt>
      <trkpt lat="42.223006" lon="2.43894">
        <ele>385</ele>
        <time>1970-01-01T00:16:30.000Z</time>
      </trkpt>
      <trkpt lat="42.223023" lon="2.438921">
        <ele>385</ele>
        <time>1970-01-01T00:16:31.000Z</time>
      </trkpt>
      <trkpt lat="42.22304" lon="2.438902">
        <ele>385</ele>
        <time>1970-01-01T00:16:32.000Z</time>
      </trkpt>
      <trkpt lat="42.223056" lon="2.438883">
        <ele>385</ele>
        <time>1970-01-01T00:16:33.000Z</time>
      </trkpt>
      <trkpt lat="42.223073" lon="2.438865">
        <ele>385</ele>
        <time>1970-01-01T00:16:34.000Z</time>
      </trkpt>
      <trkpt lat="42.22309" lon="2.438846">
        <ele>386</ele>
        <time>1970-01-01T00:16:35.000Z</time>
      </trkpt>
      <trkpt lat="42.223126" lon="2.438808">
        <ele>386</ele>
        <time>1970-01-01T00:16:36.000Z</time>
      </trkpt>
      <trkpt lat="42.223143" lon="2.43879">
        <ele>386</ele>
        <time>1970-01-01T00:16:37.000Z</time>
      </trkpt>
      <trkpt lat="42.22316" lon="2.438772">
        <ele>386</ele>
        <time>1970-01-01T00:16:38.000Z</time>
      </trkpt>
      <trkpt lat="42.223177" lon="2.438754">
        <ele>386</ele>
        <time>1970-01-01T00:16:39.000Z</time>
      </trkpt>
      <trkpt lat="42.223195" lon="2.438736">
        <ele>386</ele>
        <time>1970-01-01T00:16:40.000Z</time>
      </trkpt>
      <trkpt lat="42.223212" lon="2.438717">
        <ele>386</ele>
        <time>1970-01-01T00:16:41.000Z</time>
      </trkpt>
      <trkpt lat="42.223229" lon="2.438699">
        <ele>386</ele>
        <time>1970-01-01T00:16:42.000Z</time>
      </trkpt>
      <trkpt lat="42.223246" lon="2.438681">
        <ele>386</ele>
        <time>1970-01-01T00:16:43.000Z</time>
      </trkpt>
      <trkpt lat="42.223263" lon="2.438663">
        <ele>386</ele>
        <time>1970-01-01T00:16:44.000Z</time>
      </trkpt>
      <trkpt lat="42.22328" lon="2.438645">
        <ele>388</ele>
        <time>1970-01-01T00:16:45.000Z</time>
      </trkpt>
      <trkpt lat="42.223317" lon="2.438607">
        <ele>388</ele>
        <time>1970-01-01T00:16:46.000Z</time>
      </trkpt>
      <trkpt lat="42.223334" lon="2.438588">
        <ele>388</ele>
        <time>1970-01-01T00:16:47.000Z</time>
      </trkpt>
      <trkpt lat="42.223352" lon="2.43857">
        <ele>388</ele>
        <time>1970-01-01T00:16:48.000Z</time>
      </trkpt>
      <trkpt lat="42.223369" lon="2.438551">
        <ele>388</ele>
        <time>1970-01-01T00:16:49.000Z</time>
      </trkpt>
      <trkpt lat="42.223387" lon="2.438533">
        <ele>388</ele>
        <time>1970-01-01T00:16:50.000Z</time>
      </trkpt>
      <trkpt lat="42.223404" lon="2.438514">
        <ele>388</ele>
        <time>1970-01-01T00:16:51.000Z</time>
      </trkpt>
      <trkpt lat="42.223422" lon="2.438496">
        <ele>388</ele>
        <time>1970-01-01T00:16:52.000Z</time>
      </trkpt>
      <trkpt lat="42.223439" lon="2.438477">
        <ele>388</ele>
        <time>1970-01-01T00:16:53.000Z</time>
      </trkpt>
      <trkpt lat="42.223457" lon="2.438459">
        <ele>388</ele>
        <time>1970-01-01T00:16:54.000Z</time>
      </trkpt>
      <trkpt lat="42.223474" lon="2.43844">
        <ele>389</ele>
        <time>1970-01-01T00:16:55.000Z</time>
      </trkpt>
      <trkpt lat="42.223511" lon="2.438401">
        <ele>389</ele>
        <time>1970-01-01T00:16:56.000Z</time>
      </trkpt>
      <trkpt lat="42.223528" lon="2.438382">
        <ele>389</ele>
        <time>1970-01-01T00:16:57.000Z</time>
      </trkpt>
      <trkpt lat="42.223545" lon="2.438364">
        <ele>389</ele>
        <time>1970-01-01T00:16:58.000Z</time>
      </trkpt>
      <trkpt lat="42.223562" lon="2.438345">
        <ele>389</ele>
        <time>1970-01-01T00:16:59.000Z</time>
      </trkpt>
      <trkpt lat="42.223579" lon="2.438327">
        <ele>389</ele>
        <time>1970-01-01T00:17:00.000Z</time>
      </trkpt>
      <trkpt lat="42.223595" lon="2.438309">
        <ele>389</ele>
        <time>1970-01-01T00:17:01.000Z</time>
      </trkpt>
      <trkpt lat="42.223612" lon="2.43829">
        <ele>389</ele>
        <time>1970-01-01T00:17:02.000Z</time>
      </trkpt>
      <trkpt lat="42.223629" lon="2.438272">
        <ele>389</ele>
        <time>1970-01-01T00:17:03.000Z</time>
      </trkpt>
      <trkpt lat="42.223646" lon="2.438253">
        <ele>389</ele>
        <time>1970-01-01T00:17:04.000Z</time>
      </trkpt>
      <trkpt lat="42.223663" lon="2.438235">
        <ele>391</ele>
        <time>1970-01-01T00:17:05.000Z</time>
      </trkpt>
      <trkpt lat="42.223699" lon="2.438197">
        <ele>391</ele>
        <time>1970-01-01T00:17:06.000Z</time>
      </trkpt>
      <trkpt lat="42.223716" lon="2.438179">
        <ele>391</ele>
        <time>1970-01-01T00:17:07.000Z</time>
      </trkpt>
      <trkpt lat="42.223733" lon="2.438162">
        <ele>391</ele>
        <time>1970-01-01T00:17:08.000Z</time>
      </trkpt>
      <trkpt lat="42.22375" lon="2.438144">
        <ele>391</ele>
        <time>1970-01-01T00:17:09.000Z</time>
      </trkpt>
      <trkpt lat="42.223767" lon="2.438126">
        <ele>391</ele>
        <time>1970-01-01T00:17:10.000Z</time>
      </trkpt>
      <trkpt lat="42.223783" lon="2.438108">
        <ele>391</ele>
        <time>1970-01-01T00:17:11.000Z</time>
      </trkpt>
      <trkpt lat="42.2238" lon="2.43809">
        <ele>391</ele>
        <time>1970-01-01T00:17:12.000Z</time>
      </trkpt>
      <trkpt lat="42.223817" lon="2.438073">
        <ele>391</ele>
        <time>1970-01-01T00:17:13.000Z</time>
      </trkpt>
      <trkpt lat="42.223834" lon="2.438055">
        <ele>391</ele>
        <time>1970-01-01T00:17:14.000Z</time>
      </trkpt>
      <trkpt lat="42.223851" lon="2.438037">
        <ele>392</ele>
        <time>1970-01-01T00:17:15.000Z</time>
      </trkpt>
      <trkpt lat="42.223888" lon="2.438001">
        <ele>392</ele>
        <time>1970-01-01T00:17:16.000Z</time>
      </trkpt>
      <trkpt lat="42.223906" lon="2.437985">
        <ele>392</ele>
        <time>1970-01-01T00:17:17.000Z</time>
      </trkpt>
      <trkpt lat="42.223924" lon="2.437968">
        <ele>392</ele>
        <time>1970-01-01T00:17:18.000Z</time>
      </trkpt>
      <trkpt lat="42.223942" lon="2.437952">
        <ele>392</ele>
        <time>1970-01-01T00:17:19.000Z</time>
      </trkpt>
      <trkpt lat="42.223961" lon="2.437935">
        <ele>392</ele>
        <time>1970-01-01T00:17:20.000Z</time>
      </trkpt>
      <trkpt lat="42.223979" lon="2.437918">
        <ele>392</ele>
        <time>1970-01-01T00:17:21.000Z</time>
      </trkpt>
      <trkpt lat="42.223997" lon="2.437902">
        <ele>392</ele>
        <time>1970-01-01T00:17:22.000Z</time>
      </trkpt>
      <trkpt lat="42.224015" lon="2.437885">
        <ele>392</ele>
        <time>1970-01-01T00:17:23.000Z</time>
      </trkpt>
      <trkpt lat="42.224033" lon="2.437869">
        <ele>392</ele>
        <time>1970-01-01T00:17:24.000Z</time>
      </trkpt>
      <trkpt lat="42.224051" lon="2.437852">
        <ele>394</ele>
        <time>1970-01-01T00:17:25.000Z</time>
      </trkpt>
      <trkpt lat="42.224091" lon="2.437822">
        <ele>394</ele>
        <time>1970-01-01T00:17:26.000Z</time>
      </trkpt>
      <trkpt lat="42.224111" lon="2.437808">
        <ele>394</ele>
        <time>1970-01-01T00:17:27.000Z</time>
      </trkpt>
      <trkpt lat="42.22413" lon="2.437794">
        <ele>394</ele>
        <time>1970-01-01T00:17:28.000Z</time>
      </trkpt>
      <trkpt lat="42.22415" lon="2.43778">
        <ele>394</ele>
        <time>1970-01-01T00:17:29.000Z</time>
      </trkpt>
      <trkpt lat="42.224169" lon="2.437767">
        <ele>394</ele>
        <time>1970-01-01T00:17:30.000Z</time>
      </trkpt>
      <trkpt lat="42.224188" lon="2.437753">
        <ele>394</ele>
        <time>1970-01-01T00:17:31.000Z</time>
      </trkpt>
      <trkpt lat="42.224208" lon="2.437739">
        <ele>394</ele>
        <time>1970-01-01T00:17:32.000Z</time>
      </trkpt>
      <trkpt lat="42.224227" lon="2.437725">
        <ele>394</ele>
        <time>1970-01-01T00:17:33.000Z</time>
      </trkpt>
      <trkpt lat="42.224247" lon="2.437711">
        <ele>394</ele>
        <time>1970-01-01T00:17:34.000Z</time>
      </trkpt>
      <trkpt lat="42.224266" lon="2.437697">
        <ele>394</ele>
        <time>1970-01-01T00:17:35.000Z</time>
      </trkpt>
      <trkpt lat="42.224308" lon="2.437672">
        <ele>394</ele>
        <time>1970-01-01T00:17:36.000Z</time>
      </trkpt>
      <trkpt lat="42.224328" lon="2.437662">
        <ele>394</ele>
        <time>1970-01-01T00:17:37.000Z</time>
      </trkpt>
      <trkpt lat="42.224349" lon="2.437651">
        <ele>394</ele>
        <time>1970-01-01T00:17:38.000Z</time>
      </trkpt>
      <trkpt lat="42.224369" lon="2.43764">
        <ele>394</ele>
        <time>1970-01-01T00:17:39.000Z</time>
      </trkpt>
      <trkpt lat="42.22439" lon="2.43763">
        <ele>394</ele>
        <time>1970-01-01T00:17:40.000Z</time>
      </trkpt>
      <trkpt lat="42.22441" lon="2.437619">
        <ele>394</ele>
        <time>1970-01-01T00:17:41.000Z</time>
      </trkpt>
      <trkpt lat="42.224431" lon="2.437608">
        <ele>394</ele>
        <time>1970-01-01T00:17:42.000Z</time>
      </trkpt>
      <trkpt lat="42.224451" lon="2.437597">
        <ele>394</ele>
        <time>1970-01-01T00:17:43.000Z</time>
      </trkpt>
      <trkpt lat="42.224472" lon="2.437587">
        <ele>394</ele>
        <time>1970-01-01T00:17:44.000Z</time>
      </trkpt>
      <trkpt lat="42.224492" lon="2.437576">
        <ele>396</ele>
        <time>1970-01-01T00:17:45.000Z</time>
      </trkpt>
      <trkpt lat="42.224538" lon="2.437557">
        <ele>396</ele>
        <time>1970-01-01T00:17:46.000Z</time>
      </trkpt>
      <trkpt lat="42.22456" lon="2.437549">
        <ele>396</ele>
        <time>1970-01-01T00:17:47.000Z</time>
      </trkpt>
      <trkpt lat="42.224582" lon="2.437542">
        <ele>396</ele>
        <time>1970-01-01T00:17:48.000Z</time>
      </trkpt>
      <trkpt lat="42.224604" lon="2.437534">
        <ele>396</ele>
        <time>1970-01-01T00:17:49.000Z</time>
      </trkpt>
      <trkpt lat="42.224626" lon="2.437526">
        <ele>396</ele>
        <time>1970-01-01T00:17:50.000Z</time>
      </trkpt>
      <trkpt lat="42.224647" lon="2.437518">
        <ele>396</ele>
        <time>1970-01-01T00:17:51.000Z</time>
      </trkpt>
      <trkpt lat="42.224669" lon="2.43751">
        <ele>396</ele>
        <time>1970-01-01T00:17:52.000Z</time>
      </trkpt>
      <trkpt lat="42.224691" lon="2.437503">
        <ele>396</ele>
        <time>1970-01-01T00:17:53.000Z</time>
      </trkpt>
      <trkpt lat="42.224713" lon="2.437495">
        <ele>396</ele>
        <time>1970-01-01T00:17:54.000Z</time>
      </trkpt>
      <trkpt lat="42.224735" lon="2.437487">
        <ele>398</ele>
        <time>1970-01-01T00:17:55.000Z</time>
      </trkpt>
      <trkpt lat="42.224786" lon="2.437471">
        <ele>398</ele>
        <time>1970-01-01T00:17:56.000Z</time>
      </trkpt>
      <trkpt lat="42.224811" lon="2.437464">
        <ele>398</ele>
        <time>1970-01-01T00:17:57.000Z</time>
      </trkpt>
      <trkpt lat="42.224836" lon="2.437457">
        <ele>398</ele>
        <time>1970-01-01T00:17:58.000Z</time>
      </trkpt>
      <trkpt lat="42.224861" lon="2.43745">
        <ele>398</ele>
        <time>1970-01-01T00:17:59.000Z</time>
      </trkpt>
      <trkpt lat="42.224886" lon="2.437444">
        <ele>398</ele>
        <time>1970-01-01T00:18:00.000Z</time>
      </trkpt>
      <trkpt lat="42.224911" lon="2.437437">
        <ele>398</ele>
        <time>1970-01-01T00:18:01.000Z</time>
      </trkpt>
      <trkpt lat="42.224936" lon="2.43743">
        <ele>398</ele>
        <time>1970-01-01T00:18:02.000Z</time>
      </trkpt>
      <trkpt lat="42.224961" lon="2.437423">
        <ele>398</ele>
        <time>1970-01-01T00:18:03.000Z</time>
      </trkpt>
      <trkpt lat="42.224986" lon="2.437416">
        <ele>398</ele>
        <time>1970-01-01T00:18:04.000Z</time>
      </trkpt>
      <trkpt lat="42.225011" lon="2.437409">
        <ele>399</ele>
        <time>1970-01-01T00:18:05.000Z</time>
      </trkpt>
      <trkpt lat="42.225066" lon="2.437393">
        <ele>399</ele>
        <time>1970-01-01T00:18:06.000Z</time>
      </trkpt>
      <trkpt lat="42.225093" lon="2.437385">
        <ele>399</ele>
        <time>1970-01-01T00:18:07.000Z</time>
      </trkpt>
      <trkpt lat="42.22512" lon="2.437376">
        <ele>399</ele>
        <time>1970-01-01T00:18:08.000Z</time>
      </trkpt>
      <trkpt lat="42.225147" lon="2.437368">
        <ele>399</ele>
        <time>1970-01-01T00:18:09.000Z</time>
      </trkpt>
      <trkpt lat="42.225175" lon="2.43736">
        <ele>399</ele>
        <time>1970-01-01T00:18:10.000Z</time>
      </trkpt>
      <trkpt lat="42.225202" lon="2.437352">
        <ele>399</ele>
        <time>1970-01-01T00:18:11.000Z</time>
      </trkpt>
      <trkpt lat="42.225229" lon="2.437344">
        <ele>399</ele>
        <time>1970-01-01T00:18:12.000Z</time>
      </trkpt>
      <trkpt lat="42.225256" lon="2.437335">
        <ele>399</ele>
        <time>1970-01-01T00:18:13.000Z</time>
      </trkpt>
      <trkpt lat="42.225283" lon="2.437327">
        <ele>399</ele>
        <time>1970-01-01T00:18:14.000Z</time>
      </trkpt>
      <trkpt lat="42.22531" lon="2.437319">
        <ele>400</ele>
        <time>1970-01-01T00:18:15.000Z</time>
      </trkpt>
      <trkpt lat="42.225368" lon="2.437302">
        <ele>400</ele>
        <time>1970-01-01T00:18:16.000Z</time>
      </trkpt>
      <trkpt lat="42.225395" lon="2.437294">
        <ele>400</ele>
        <time>1970-01-01T00:18:17.000Z</time>
      </trkpt>
      <trkpt lat="42.225423" lon="2.437285">
        <ele>400</ele>
        <time>1970-01-01T00:18:18.000Z</time>
      </trkpt>
      <trkpt lat="42.225451" lon="2.437277">
        <ele>400</ele>
        <time>1970-01-01T00:18:19.000Z</time>
      </trkpt>
      <trkpt lat="42.225479" lon="2.437269">
        <ele>400</ele>
        <time>1970-01-01T00:18:20.000Z</time>
      </trkpt>
      <trkpt lat="42.225506" lon="2.437261">
        <ele>400</ele>
        <time>1970-01-01T00:18:21.000Z</time>
      </trkpt>
      <trkpt lat="42.225534" lon="2.437253">
        <ele>400</ele>
        <time>1970-01-01T00:18:22.000Z</time>
      </trkpt>
      <trkpt lat="42.225562" lon="2.437244">
        <ele>400</ele>
        <time>1970-01-01T00:18:23.000Z</time>
      </trkpt>
      <trkpt lat="42.225589" lon="2.437236">
        <ele>400</ele>
        <time>1970-01-01T00:18:24.000Z</time>
      </trkpt>
      <trkpt lat="42.225617" lon="2.437228">
        <ele>401</ele>
        <time>1970-01-01T00:18:25.000Z</time>
      </trkpt>
      <trkpt lat="42.225675" lon="2.43721">
        <ele>401</ele>
        <time>1970-01-01T00:18:26.000Z</time>
      </trkpt>
      <trkpt lat="42.225704" lon="2.437201">
        <ele>401</ele>
        <time>1970-01-01T00:18:27.000Z</time>
      </trkpt>
      <trkpt lat="42.225732" lon="2.437192">
        <ele>401</ele>
        <time>1970-01-01T00:18:28.000Z</time>
      </trkpt>
      <trkpt lat="42.225761" lon="2.437183">
        <ele>401</ele>
        <time>1970-01-01T00:18:29.000Z</time>
      </trkpt>
      <trkpt lat="42.225789" lon="2.437174">
        <ele>401</ele>
        <time>1970-01-01T00:18:30.000Z</time>
      </trkpt>
      <trkpt lat="42.225817" lon="2.437164">
        <ele>401</ele>
        <time>1970-01-01T00:18:31.000Z</time>
      </trkpt>
      <trkpt lat="42.225846" lon="2.437155">
        <ele>401</ele>
        <time>1970-01-01T00:18:32.000Z</time>
      </trkpt>
      <trkpt lat="42.225874" lon="2.437146">
        <ele>401</ele>
        <time>1970-01-01T00:18:33.000Z</time>
      </trkpt>
      <trkpt lat="42.225903" lon="2.437137">
        <ele>401</ele>
        <time>1970-01-01T00:18:34.000Z</time>
      </trkpt>
      <trkpt lat="42.225931" lon="2.437128">
        <ele>403</ele>
        <time>1970-01-01T00:18:35.000Z</time>
      </trkpt>
      <trkpt lat="42.225996" lon="2.437108">
        <ele>403</ele>
        <time>1970-01-01T00:18:36.000Z</time>
      </trkpt>
      <trkpt lat="42.226028" lon="2.437098">
        <ele>403</ele>
        <time>1970-01-01T00:18:37.000Z</time>
      </trkpt>
      <trkpt lat="42.226061" lon="2.437088">
        <ele>403</ele>
        <time>1970-01-01T00:18:38.000Z</time>
      </trkpt>
      <trkpt lat="42.226093" lon="2.437078">
        <ele>403</ele>
        <time>1970-01-01T00:18:39.000Z</time>
      </trkpt>
      <trkpt lat="42.226126" lon="2.437068">
        <ele>403</ele>
        <time>1970-01-01T00:18:40.000Z</time>
      </trkpt>
      <trkpt lat="42.226159" lon="2.437057">
        <ele>403</ele>
        <time>1970-01-01T00:18:41.000Z</time>
      </trkpt>
      <trkpt lat="42.226191" lon="2.437047">
        <ele>403</ele>
        <time>1970-01-01T00:18:42.000Z</time>
      </trkpt>
      <trkpt lat="42.226224" lon="2.437037">
        <ele>403</ele>
        <time>1970-01-01T00:18:43.000Z</time>
      </trkpt>
      <trkpt lat="42.226256" lon="2.437027">
        <ele>403</ele>
        <time>1970-01-01T00:18:44.000Z</time>
      </trkpt>
      <trkpt lat="42.226289" lon="2.437017">
        <ele>403</ele>
        <time>1970-01-01T00:18:45.000Z</time>
      </trkpt>
      <trkpt lat="42.22636" lon="2.436994">
        <ele>403</ele>
        <time>1970-01-01T00:18:46.000Z</time>
      </trkpt>
      <trkpt lat="42.226393" lon="2.436984">
        <ele>403</ele>
        <time>1970-01-01T00:18:47.000Z</time>
      </trkpt>
      <trkpt lat="42.226427" lon="2.436974">
        <ele>403</ele>
        <time>1970-01-01T00:18:48.000Z</time>
      </trkpt>
      <trkpt lat="42.22646" lon="2.436964">
        <ele>403</ele>
        <time>1970-01-01T00:18:49.000Z</time>
      </trkpt>
      <trkpt lat="42.226493" lon="2.436954">
        <ele>403</ele>
        <time>1970-01-01T00:18:50.000Z</time>
      </trkpt>
      <trkpt lat="42.226526" lon="2.436943">
        <ele>403</ele>
        <time>1970-01-01T00:18:51.000Z</time>
      </trkpt>
      <trkpt lat="42.226559" lon="2.436933">
        <ele>403</ele>
        <time>1970-01-01T00:18:52.000Z</time>
      </trkpt>
      <trkpt lat="42.226593" lon="2.436923">
        <ele>403</ele>
        <time>1970-01-01T00:18:53.000Z</time>
      </trkpt>
      <trkpt lat="42.226626" lon="2.436913">
        <ele>403</ele>
        <time>1970-01-01T00:18:54.000Z</time>
      </trkpt>
      <trkpt lat="42.226659" lon="2.436903">
        <ele>404</ele>
        <time>1970-01-01T00:18:55.000Z</time>
      </trkpt>
      <trkpt lat="42.226727" lon="2.436884">
        <ele>404</ele>
        <time>1970-01-01T00:18:56.000Z</time>
      </trkpt>
      <trkpt lat="42.226759" lon="2.436874">
        <ele>404</ele>
        <time>1970-01-01T00:18:57.000Z</time>
      </trkpt>
      <trkpt lat="42.226792" lon="2.436863">
        <ele>404</ele>
        <time>1970-01-01T00:18:58.000Z</time>
      </trkpt>
      <trkpt lat="42.226824" lon="2.436853">
        <ele>404</ele>
        <time>1970-01-01T00:18:59.000Z</time>
      </trkpt>
      <trkpt lat="42.226857" lon="2.436843">
        <ele>404</ele>
        <time>1970-01-01T00:19:00.000Z</time>
      </trkpt>
      <trkpt lat="42.22689" lon="2.436833">
        <ele>404</ele>
        <time>1970-01-01T00:19:01.000Z</time>
      </trkpt>
      <trkpt lat="42.226922" lon="2.436823">
        <ele>404</ele>
        <time>1970-01-01T00:19:02.000Z</time>
      </trkpt>
      <trkpt lat="42.226955" lon="2.436812">
        <ele>404</ele>
        <time>1970-01-01T00:19:03.000Z</time>
      </trkpt>
      <trkpt lat="42.226987" lon="2.436802">
        <ele>404</ele>
        <time>1970-01-01T00:19:04.000Z</time>
      </trkpt>
      <trkpt lat="42.22702" lon="2.436792">
        <ele>405</ele>
        <time>1970-01-01T00:19:05.000Z</time>
      </trkpt>
      <trkpt lat="42.227088" lon="2.43677">
        <ele>405</ele>
        <time>1970-01-01T00:19:06.000Z</time>
      </trkpt>
      <trkpt lat="42.227121" lon="2.436759">
        <ele>405</ele>
        <time>1970-01-01T00:19:07.000Z</time>
      </trkpt>
      <trkpt lat="42.227153" lon="2.436749">
        <ele>405</ele>
        <time>1970-01-01T00:19:08.000Z</time>
      </trkpt>
      <trkpt lat="42.227186" lon="2.436738">
        <ele>405</ele>
        <time>1970-01-01T00:19:09.000Z</time>
      </trkpt>
      <trkpt lat="42.227218" lon="2.436728">
        <ele>405</ele>
        <time>1970-01-01T00:19:10.000Z</time>
      </trkpt>
      <trkpt lat="42.22725" lon="2.436718">
        <ele>405</ele>
        <time>1970-01-01T00:19:11.000Z</time>
      </trkpt>
      <trkpt lat="42.227283" lon="2.436707">
        <ele>405</ele>
        <time>1970-01-01T00:19:12.000Z</time>
      </trkpt>
      <trkpt lat="42.227315" lon="2.436697">
        <ele>405</ele>
        <time>1970-01-01T00:19:13.000Z</time>
      </trkpt>
      <trkpt lat="42.227348" lon="2.436686">
        <ele>405</ele>
        <time>1970-01-01T00:19:14.000Z</time>
      </trkpt>
      <trkpt lat="42.22738" lon="2.436676">
        <ele>406</ele>
        <time>1970-01-01T00:19:15.000Z</time>
      </trkpt>
      <trkpt lat="42.227449" lon="2.436655">
        <ele>406</ele>
        <time>1970-01-01T00:19:16.000Z</time>
      </trkpt>
      <trkpt lat="42.227482" lon="2.436645">
        <ele>406</ele>
        <time>1970-01-01T00:19:17.000Z</time>
      </trkpt>
      <trkpt lat="42.227515" lon="2.436635">
        <ele>406</ele>
        <time>1970-01-01T00:19:18.000Z</time>
      </trkpt>
      <trkpt lat="42.227548" lon="2.436625">
        <ele>406</ele>
        <time>1970-01-01T00:19:19.000Z</time>
      </trkpt>
      <trkpt lat="42.227582" lon="2.436616">
        <ele>406</ele>
        <time>1970-01-01T00:19:20.000Z</time>
      </trkpt>
      <trkpt lat="42.227615" lon="2.436606">
        <ele>406</ele>
        <time>1970-01-01T00:19:21.000Z</time>
      </trkpt>
      <trkpt lat="42.227648" lon="2.436596">
        <ele>406</ele>
        <time>1970-01-01T00:19:22.000Z</time>
      </trkpt>
      <trkpt lat="42.227681" lon="2.436586">
        <ele>406</ele>
        <time>1970-01-01T00:19:23.000Z</time>
      </trkpt>
      <trkpt lat="42.227714" lon="2.436576">
        <ele>406</ele>
        <time>1970-01-01T00:19:24.000Z</time>
      </trkpt>
      <trkpt lat="42.227747" lon="2.436566">
        <ele>407</ele>
        <time>1970-01-01T00:19:25.000Z</time>
      </trkpt>
      <trkpt lat="42.227813" lon="2.436547">
        <ele>407</ele>
        <time>1970-01-01T00:19:26.000Z</time>
      </trkpt>
      <trkpt lat="42.227843" lon="2.436537">
        <ele>407</ele>
        <time>1970-01-01T00:19:27.000Z</time>
      </trkpt>
      <trkpt lat="42.227874" lon="2.436528">
        <ele>407</ele>
        <time>1970-01-01T00:19:28.000Z</time>
      </trkpt>
      <trkpt lat="42.227904" lon="2.436518">
        <ele>407</ele>
        <time>1970-01-01T00:19:29.000Z</time>
      </trkpt>
      <trkpt lat="42.227935" lon="2.436509">
        <ele>407</ele>
        <time>1970-01-01T00:19:30.000Z</time>
      </trkpt>
      <trkpt lat="42.227965" lon="2.436499">
        <ele>407</ele>
        <time>1970-01-01T00:19:31.000Z</time>
      </trkpt>
      <trkpt lat="42.227996" lon="2.43649">
        <ele>407</ele>
        <time>1970-01-01T00:19:32.000Z</time>
      </trkpt>
      <trkpt lat="42.228026" lon="2.43648">
        <ele>407</ele>
        <time>1970-01-01T00:19:33.000Z</time>
      </trkpt>
      <trkpt lat="42.228057" lon="2.436471">
        <ele>407</ele>
        <time>1970-01-01T00:19:34.000Z</time>
      </trkpt>
      <trkpt lat="42.228087" lon="2.436461">
        <ele>408</ele>
        <time>1970-01-01T00:19:35.000Z</time>
      </trkpt>
      <trkpt lat="42.22815" lon="2.436441">
        <ele>408</ele>
        <time>1970-01-01T00:19:36.000Z</time>
      </trkpt>
      <trkpt lat="42.22818" lon="2.436432">
        <ele>408</ele>
        <time>1970-01-01T00:19:37.000Z</time>
      </trkpt>
      <trkpt lat="42.22821" lon="2.436423">
        <ele>408</ele>
        <time>1970-01-01T00:19:38.000Z</time>
      </trkpt>
      <trkpt lat="42.22824" lon="2.436414">
        <ele>408</ele>
        <time>1970-01-01T00:19:39.000Z</time>
      </trkpt>
      <trkpt lat="42.22827" lon="2.436406">
        <ele>408</ele>
        <time>1970-01-01T00:19:40.000Z</time>
      </trkpt>
      <trkpt lat="42.228299" lon="2.436397">
        <ele>408</ele>
        <time>1970-01-01T00:19:41.000Z</time>
      </trkpt>
      <trkpt lat="42.228329" lon="2.436388">
        <ele>408</ele>
        <time>1970-01-01T00:19:42.000Z</time>
      </trkpt>
      <trkpt lat="42.228359" lon="2.436379">
        <ele>408</ele>
        <time>1970-01-01T00:19:43.000Z</time>
      </trkpt>
      <trkpt lat="42.228389" lon="2.43637">
        <ele>408</ele>
        <time>1970-01-01T00:19:44.000Z</time>
      </trkpt>
      <trkpt lat="42.228419" lon="2.436361">
        <ele>409</ele>
        <time>1970-01-01T00:19:45.000Z</time>
      </trkpt>
      <trkpt lat="42.228482" lon="2.436343">
        <ele>409</ele>
        <time>1970-01-01T00:19:46.000Z</time>
      </trkpt>
      <trkpt lat="42.228511" lon="2.436334">
        <ele>409</ele>
        <time>1970-01-01T00:19:47.000Z</time>
      </trkpt>
      <trkpt lat="42.228541" lon="2.436325">
        <ele>409</ele>
        <time>1970-01-01T00:19:48.000Z</time>
      </trkpt>
      <trkpt lat="42.22857" lon="2.436316">
        <ele>409</ele>
        <time>1970-01-01T00:19:49.000Z</time>
      </trkpt>
      <trkpt lat="42.2286" lon="2.436308">
        <ele>409</ele>
        <time>1970-01-01T00:19:50.000Z</time>
      </trkpt>
      <trkpt lat="42.22863" lon="2.436299">
        <ele>409</ele>
        <time>1970-01-01T00:19:51.000Z</time>
      </trkpt>
      <trkpt lat="42.228659" lon="2.43629">
        <ele>409</ele>
        <time>1970-01-01T00:19:52.000Z</time>
      </trkpt>
      <trkpt lat="42.228689" lon="2.436281">
        <ele>409</ele>
        <time>1970-01-01T00:19:53.000Z</time>
      </trkpt>
      <trkpt lat="42.228718" lon="2.436272">
        <ele>409</ele>
        <time>1970-01-01T00:19:54.000Z</time>
      </trkpt>
      <trkpt lat="42.228748" lon="2.436263">
        <ele>410</ele>
        <time>1970-01-01T00:19:55.000Z</time>
      </trkpt>
      <trkpt lat="42.22881" lon="2.436244">
        <ele>410</ele>
        <time>1970-01-01T00:19:56.000Z</time>
      </trkpt>
      <trkpt lat="42.22884" lon="2.436236">
        <ele>410</ele>
        <time>1970-01-01T00:19:57.000Z</time>
      </trkpt>
      <trkpt lat="42.228869" lon="2.436229">
        <ele>410</ele>
        <time>1970-01-01T00:19:58.000Z</time>
      </trkpt>
      <trkpt lat="42.228899" lon="2.436221">
        <ele>410</ele>
        <time>1970-01-01T00:19:59.000Z</time>
      </trkpt>
      <trkpt lat="42.228928" lon="2.436213">
        <ele>410</ele>
        <time>1970-01-01T00:20:00.000Z</time>
      </trkpt>
      <trkpt lat="42.228957" lon="2.436205">
        <ele>410</ele>
        <time>1970-01-01T00:20:01.000Z</time>
      </trkpt>
      <trkpt lat="42.228987" lon="2.436197">
        <ele>410</ele>
        <time>1970-01-01T00:20:02.000Z</time>
      </trkpt>
      <trkpt lat="42.229016" lon="2.43619">
        <ele>410</ele>
        <time>1970-01-01T00:20:03.000Z</time>
      </trkpt>
      <trkpt lat="42.229046" lon="2.436182">
        <ele>410</ele>
        <time>1970-01-01T00:20:04.000Z</time>
      </trkpt>
      <trkpt lat="42.229075" lon="2.436174">
        <ele>410</ele>
        <time>1970-01-01T00:20:05.000Z</time>
      </trkpt>
      <trkpt lat="42.229139" lon="2.436174">
        <ele>410</ele>
        <time>1970-01-01T00:20:06.000Z</time>
      </trkpt>
      <trkpt lat="42.229169" lon="2.436178">
        <ele>410</ele>
        <time>1970-01-01T00:20:07.000Z</time>
      </trkpt>
      <trkpt lat="42.229199" lon="2.436182">
        <ele>410</ele>
        <time>1970-01-01T00:20:08.000Z</time>
      </trkpt>
      <trkpt lat="42.229229" lon="2.436186">
        <ele>410</ele>
        <time>1970-01-01T00:20:09.000Z</time>
      </trkpt>
      <trkpt lat="42.22926" lon="2.436189">
        <ele>410</ele>
        <time>1970-01-01T00:20:10.000Z</time>
      </trkpt>
      <trkpt lat="42.22929" lon="2.436193">
        <ele>410</ele>
        <time>1970-01-01T00:20:11.000Z</time>
      </trkpt>
      <trkpt lat="42.22932" lon="2.436197">
        <ele>410</ele>
        <time>1970-01-01T00:20:12.000Z</time>
      </trkpt>
      <trkpt lat="42.22935" lon="2.436201">
        <ele>410</ele>
        <time>1970-01-01T00:20:13.000Z</time>
      </trkpt>
      <trkpt lat="42.22938" lon="2.436205">
        <ele>410</ele>
        <time>1970-01-01T00:20:14.000Z</time>
      </trkpt>
      <trkpt lat="42.22941" lon="2.436209">
        <ele>412</ele>
        <time>1970-01-01T00:20:15.000Z</time>
      </trkpt>
      <trkpt lat="42.229472" lon="2.436232">
        <ele>412</ele>
        <time>1970-01-01T00:20:16.000Z</time>
      </trkpt>
      <trkpt lat="42.229501" lon="2.436245">
        <ele>412</ele>
        <time>1970-01-01T00:20:17.000Z</time>
      </trkpt>
      <trkpt lat="42.22953" lon="2.436257">
        <ele>412</ele>
        <time>1970-01-01T00:20:18.000Z</time>
      </trkpt>
      <trkpt lat="42.229559" lon="2.43627">
        <ele>412</ele>
        <time>1970-01-01T00:20:19.000Z</time>
      </trkpt>
      <trkpt lat="42.229588" lon="2.436282">
        <ele>412</ele>
        <time>1970-01-01T00:20:20.000Z</time>
      </trkpt>
      <trkpt lat="42.229617" lon="2.436295">
        <ele>412</ele>
        <time>1970-01-01T00:20:21.000Z</time>
      </trkpt>
      <trkpt lat="42.229646" lon="2.436307">
        <ele>412</ele>
        <time>1970-01-01T00:20:22.000Z</time>
      </trkpt>
      <trkpt lat="42.229675" lon="2.43632">
        <ele>412</ele>
        <time>1970-01-01T00:20:23.000Z</time>
      </trkpt>
      <trkpt lat="42.229704" lon="2.436332">
        <ele>412</ele>
        <time>1970-01-01T00:20:24.000Z</time>
      </trkpt>
      <trkpt lat="42.229733" lon="2.436345">
        <ele>413</ele>
        <time>1970-01-01T00:20:25.000Z</time>
      </trkpt>
      <trkpt lat="42.229794" lon="2.436364">
        <ele>413</ele>
        <time>1970-01-01T00:20:26.000Z</time>
      </trkpt>
      <trkpt lat="42.229822" lon="2.436371">
        <ele>413</ele>
        <time>1970-01-01T00:20:27.000Z</time>
      </trkpt>
      <trkpt lat="42.22985" lon="2.436379">
        <ele>413</ele>
        <time>1970-01-01T00:20:28.000Z</time>
      </trkpt>
      <trkpt lat="42.229878" lon="2.436386">
        <ele>413</ele>
        <time>1970-01-01T00:20:29.000Z</time>
      </trkpt>
      <trkpt lat="42.229906" lon="2.436394">
        <ele>413</ele>
        <time>1970-01-01T00:20:30.000Z</time>
      </trkpt>
      <trkpt lat="42.229933" lon="2.436402">
        <ele>413</ele>
        <time>1970-01-01T00:20:31.000Z</time>
      </trkpt>
      <trkpt lat="42.229961" lon="2.436409">
        <ele>413</ele>
        <time>1970-01-01T00:20:32.000Z</time>
      </trkpt>
      <trkpt lat="42.229989" lon="2.436417">
        <ele>413</ele>
        <time>1970-01-01T00:20:33.000Z</time>
      </trkpt>
      <trkpt lat="42.230017" lon="2.436424">
        <ele>413</ele>
        <time>1970-01-01T00:20:34.000Z</time>
      </trkpt>
      <trkpt lat="42.230045" lon="2.436432">
        <ele>413</ele>
        <time>1970-01-01T00:20:35.000Z</time>
      </trkpt>
      <trkpt lat="42.230107" lon="2.436423">
        <ele>413</ele>
        <time>1970-01-01T00:20:36.000Z</time>
      </trkpt>
      <trkpt lat="42.230138" lon="2.436414">
        <ele>413</ele>
        <time>1970-01-01T00:20:37.000Z</time>
      </trkpt>
      <trkpt lat="42.230168" lon="2.436404">
        <ele>413</ele>
        <time>1970-01-01T00:20:38.000Z</time>
      </trkpt>
      <trkpt lat="42.230199" lon="2.436394">
        <ele>413</ele>
        <time>1970-01-01T00:20:39.000Z</time>
      </trkpt>
      <trkpt lat="42.230229" lon="2.436385">
        <ele>413</ele>
        <time>1970-01-01T00:20:40.000Z</time>
      </trkpt>
      <trkpt lat="42.230259" lon="2.436375">
        <ele>413</ele>
        <time>1970-01-01T00:20:41.000Z</time>
      </trkpt>
      <trkpt lat="42.23029" lon="2.436365">
        <ele>413</ele>
        <time>1970-01-01T00:20:42.000Z</time>
      </trkpt>
      <trkpt lat="42.23032" lon="2.436355">
        <ele>413</ele>
        <time>1970-01-01T00:20:43.000Z</time>
      </trkpt>
      <trkpt lat="42.230351" lon="2.436346">
        <ele>413</ele>
        <time>1970-01-01T00:20:44.000Z</time>
      </trkpt>
      <trkpt lat="42.230381" lon="2.436336">
        <ele>413</ele>
        <time>1970-01-01T00:20:45.000Z</time>
      </trkpt>
      <trkpt lat="42.230438" lon="2.436286">
        <ele>413</ele>
        <time>1970-01-01T00:20:46.000Z</time>
      </trkpt>
      <trkpt lat="42.230465" lon="2.436256">
        <ele>413</ele>
        <time>1970-01-01T00:20:47.000Z</time>
      </trkpt>
      <trkpt lat="42.230491" lon="2.436226">
        <ele>413</ele>
        <time>1970-01-01T00:20:48.000Z</time>
      </trkpt>
      <trkpt lat="42.230517" lon="2.436196">
        <ele>413</ele>
        <time>1970-01-01T00:20:49.000Z</time>
      </trkpt>
      <trkpt lat="42.230544" lon="2.436167">
        <ele>413</ele>
        <time>1970-01-01T00:20:50.000Z</time>
      </trkpt>
      <trkpt lat="42.23057" lon="2.436137">
        <ele>413</ele>
        <time>1970-01-01T00:20:51.000Z</time>
      </trkpt>
      <trkpt lat="42.230596" lon="2.436107">
        <ele>413</ele>
        <time>1970-01-01T00:20:52.000Z</time>
      </trkpt>
      <trkpt lat="42.230622" lon="2.436077">
        <ele>413</ele>
        <time>1970-01-01T00:20:53.000Z</time>
      </trkpt>
      <trkpt lat="42.230649" lon="2.436047">
        <ele>413</ele>
        <time>1970-01-01T00:20:54.000Z</time>
      </trkpt>
      <trkpt lat="42.230675" lon="2.436017">
        <ele>414</ele>
        <time>1970-01-01T00:20:55.000Z</time>
      </trkpt>
      <trkpt lat="42.230731" lon="2.435935">
        <ele>414</ele>
        <time>1970-01-01T00:20:56.000Z</time>
      </trkpt>
      <trkpt lat="42.23076" lon="2.435895">
        <ele>414</ele>
        <time>1970-01-01T00:20:57.000Z</time>
      </trkpt>
      <trkpt lat="42.230788" lon="2.435855">
        <ele>414</ele>
        <time>1970-01-01T00:20:58.000Z</time>
      </trkpt>
      <trkpt lat="42.230816" lon="2.435815">
        <ele>414</ele>
        <time>1970-01-01T00:20:59.000Z</time>
      </trkpt>
      <trkpt lat="42.230845" lon="2.435775">
        <ele>414</ele>
        <time>1970-01-01T00:21:00.000Z</time>
      </trkpt>
      <trkpt lat="42.230873" lon="2.435735">
        <ele>414</ele>
        <time>1970-01-01T00:21:01.000Z</time>
      </trkpt>
      <trkpt lat="42.230901" lon="2.435695">
        <ele>414</ele>
        <time>1970-01-01T00:21:02.000Z</time>
      </trkpt>
      <trkpt lat="42.230929" lon="2.435655">
        <ele>414</ele>
        <time>1970-01-01T00:21:03.000Z</time>
      </trkpt>
      <trkpt lat="42.230958" lon="2.435615">
        <ele>414</ele>
        <time>1970-01-01T00:21:04.000Z</time>
      </trkpt>
      <trkpt lat="42.230986" lon="2.435575">
        <ele>415</ele>
        <time>1970-01-01T00:21:05.000Z</time>
      </trkpt>
      <trkpt lat="42.231048" lon="2.435487">
        <ele>415</ele>
        <time>1970-01-01T00:21:06.000Z</time>
      </trkpt>
      <trkpt lat="42.231078" lon="2.435445">
        <ele>415</ele>
        <time>1970-01-01T00:21:07.000Z</time>
      </trkpt>
      <trkpt lat="42.231107" lon="2.435404">
        <ele>415</ele>
        <time>1970-01-01T00:21:08.000Z</time>
      </trkpt>
      <trkpt lat="42.231137" lon="2.435362">
        <ele>415</ele>
        <time>1970-01-01T00:21:09.000Z</time>
      </trkpt>
      <trkpt lat="42.231167" lon="2.43532">
        <ele>415</ele>
        <time>1970-01-01T00:21:10.000Z</time>
      </trkpt>
      <trkpt lat="42.231197" lon="2.435278">
        <ele>415</ele>
        <time>1970-01-01T00:21:11.000Z</time>
      </trkpt>
      <trkpt lat="42.231227" lon="2.435236">
        <ele>415</ele>
        <time>1970-01-01T00:21:12.000Z</time>
      </trkpt>
      <trkpt lat="42.231256" lon="2.435195">
        <ele>415</ele>
        <time>1970-01-01T00:21:13.000Z</time>
      </trkpt>
      <trkpt lat="42.231286" lon="2.435153">
        <ele>415</ele>
        <time>1970-01-01T00:21:14.000Z</time>
      </trkpt>
      <trkpt lat="42.231316" lon="2.435111">
        <ele>415</ele>
        <time>1970-01-01T00:21:15.000Z</time>
      </trkpt>
      <trkpt lat="42.231377" lon="2.435022">
        <ele>415</ele>
        <time>1970-01-01T00:21:16.000Z</time>
      </trkpt>
      <trkpt lat="42.231404" lon="2.434982">
        <ele>415</ele>
        <time>1970-01-01T00:21:17.000Z</time>
      </trkpt>
      <trkpt lat="42.231431" lon="2.434941">
        <ele>415</ele>
        <time>1970-01-01T00:21:18.000Z</time>
      </trkpt>
      <trkpt lat="42.231458" lon="2.434901">
        <ele>415</ele>
        <time>1970-01-01T00:21:19.000Z</time>
      </trkpt>
      <trkpt lat="42.231485" lon="2.43486">
        <ele>415</ele>
        <time>1970-01-01T00:21:20.000Z</time>
      </trkpt>
      <trkpt lat="42.231511" lon="2.434819">
        <ele>415</ele>
        <time>1970-01-01T00:21:21.000Z</time>
      </trkpt>
      <trkpt lat="42.231538" lon="2.434779">
        <ele>415</ele>
        <time>1970-01-01T00:21:22.000Z</time>
      </trkpt>
      <trkpt lat="42.231565" lon="2.434738">
        <ele>415</ele>
        <time>1970-01-01T00:21:23.000Z</time>
      </trkpt>
      <trkpt lat="42.231592" lon="2.434698">
        <ele>415</ele>
        <time>1970-01-01T00:21:24.000Z</time>
      </trkpt>
      <trkpt lat="42.231619" lon="2.434657">
        <ele>414</ele>
        <time>1970-01-01T00:21:25.000Z</time>
      </trkpt>
      <trkpt lat="42.231668" lon="2.434578">
        <ele>414</ele>
        <time>1970-01-01T00:21:26.000Z</time>
      </trkpt>
      <trkpt lat="42.23169" lon="2.434539">
        <ele>414</ele>
        <time>1970-01-01T00:21:27.000Z</time>
      </trkpt>
      <trkpt lat="42.231711" lon="2.434501">
        <ele>414</ele>
        <time>1970-01-01T00:21:28.000Z</time>
      </trkpt>
      <trkpt lat="42.231732" lon="2.434463">
        <ele>414</ele>
        <time>1970-01-01T00:21:29.000Z</time>
      </trkpt>
      <trkpt lat="42.231754" lon="2.434425">
        <ele>414</ele>
        <time>1970-01-01T00:21:30.000Z</time>
      </trkpt>
      <trkpt lat="42.231775" lon="2.434386">
        <ele>414</ele>
        <time>1970-01-01T00:21:31.000Z</time>
      </trkpt>
      <trkpt lat="42.231796" lon="2.434348">
        <ele>414</ele>
        <time>1970-01-01T00:21:32.000Z</time>
      </trkpt>
      <trkpt lat="42.231817" lon="2.43431">
        <ele>414</ele>
        <time>1970-01-01T00:21:33.000Z</time>
      </trkpt>
      <trkpt lat="42.231839" lon="2.434271">
        <ele>414</ele>
        <time>1970-01-01T00:21:34.000Z</time>
      </trkpt>
      <trkpt lat="42.23186" lon="2.434233">
        <ele>414</ele>
        <time>1970-01-01T00:21:35.000Z</time>
      </trkpt>
      <trkpt lat="42.231899" lon="2.434136">
        <ele>414</ele>
        <time>1970-01-01T00:21:36.000Z</time>
      </trkpt>
      <trkpt lat="42.231916" lon="2.434084">
        <ele>414</ele>
        <time>1970-01-01T00:21:37.000Z</time>
      </trkpt>
      <trkpt lat="42.231933" lon="2.434033">
        <ele>414</ele>
        <time>1970-01-01T00:21:38.000Z</time>
      </trkpt>
      <trkpt lat="42.23195" lon="2.433981">
        <ele>414</ele>
        <time>1970-01-01T00:21:39.000Z</time>
      </trkpt>
      <trkpt lat="42.231967" lon="2.43393">
        <ele>414</ele>
        <time>1970-01-01T00:21:40.000Z</time>
      </trkpt>
      <trkpt lat="42.231984" lon="2.433878">
        <ele>414</ele>
        <time>1970-01-01T00:21:41.000Z</time>
      </trkpt>
      <trkpt lat="42.232001" lon="2.433827">
        <ele>414</ele>
        <time>1970-01-01T00:21:42.000Z</time>
      </trkpt>
      <trkpt lat="42.232018" lon="2.433775">
        <ele>414</ele>
        <time>1970-01-01T00:21:43.000Z</time>
      </trkpt>
      <trkpt lat="42.232035" lon="2.433724">
        <ele>414</ele>
        <time>1970-01-01T00:21:44.000Z</time>
      </trkpt>
      <trkpt lat="42.232052" lon="2.433672">
        <ele>415</ele>
        <time>1970-01-01T00:21:45.000Z</time>
      </trkpt>
      <trkpt lat="42.232079" lon="2.433561">
        <ele>415</ele>
        <time>1970-01-01T00:21:46.000Z</time>
      </trkpt>
      <trkpt lat="42.232091" lon="2.433508">
        <ele>415</ele>
        <time>1970-01-01T00:21:47.000Z</time>
      </trkpt>
      <trkpt lat="42.232104" lon="2.433456">
        <ele>415</ele>
        <time>1970-01-01T00:21:48.000Z</time>
      </trkpt>
      <trkpt lat="42.232116" lon="2.433403">
        <ele>415</ele>
        <time>1970-01-01T00:21:49.000Z</time>
      </trkpt>
      <trkpt lat="42.232128" lon="2.433351">
        <ele>415</ele>
        <time>1970-01-01T00:21:50.000Z</time>
      </trkpt>
      <trkpt lat="42.23214" lon="2.433299">
        <ele>415</ele>
        <time>1970-01-01T00:21:51.000Z</time>
      </trkpt>
      <trkpt lat="42.232152" lon="2.433246">
        <ele>415</ele>
        <time>1970-01-01T00:21:52.000Z</time>
      </trkpt>
      <trkpt lat="42.232165" lon="2.433194">
        <ele>415</ele>
        <time>1970-01-01T00:21:53.000Z</time>
      </trkpt>
      <trkpt lat="42.232177" lon="2.433141">
        <ele>415</ele>
        <time>1970-01-01T00:21:54.000Z</time>
      </trkpt>
      <trkpt lat="42.232189" lon="2.433089">
        <ele>415</ele>
        <time>1970-01-01T00:21:55.000Z</time>
      </trkpt>
      <trkpt lat="42.232216" lon="2.432972">
        <ele>415</ele>
        <time>1970-01-01T00:21:56.000Z</time>
      </trkpt>
      <trkpt lat="42.232229" lon="2.432916">
        <ele>415</ele>
        <time>1970-01-01T00:21:57.000Z</time>
      </trkpt>
      <trkpt lat="42.232242" lon="2.432861">
        <ele>415</ele>
        <time>1970-01-01T00:21:58.000Z</time>
      </trkpt>
      <trkpt lat="42.232255" lon="2.432805">
        <ele>415</ele>
        <time>1970-01-01T00:21:59.000Z</time>
      </trkpt>
      <trkpt lat="42.232269" lon="2.43275">
        <ele>415</ele>
        <time>1970-01-01T00:22:00.000Z</time>
      </trkpt>
      <trkpt lat="42.232282" lon="2.432694">
        <ele>415</ele>
        <time>1970-01-01T00:22:01.000Z</time>
      </trkpt>
      <trkpt lat="42.232295" lon="2.432639">
        <ele>415</ele>
        <time>1970-01-01T00:22:02.000Z</time>
      </trkpt>
      <trkpt lat="42.232308" lon="2.432583">
        <ele>415</ele>
        <time>1970-01-01T00:22:03.000Z</time>
      </trkpt>
      <trkpt lat="42.232321" lon="2.432528">
        <ele>415</ele>
        <time>1970-01-01T00:22:04.000Z</time>
      </trkpt>
      <trkpt lat="42.232334" lon="2.432472">
        <ele>415</ele>
        <time>1970-01-01T00:22:05.000Z</time>
      </trkpt>
      <trkpt lat="42.232373" lon="2.432355">
        <ele>415</ele>
        <time>1970-01-01T00:22:06.000Z</time>
      </trkpt>
      <trkpt lat="42.232396" lon="2.432299">
        <ele>415</ele>
        <time>1970-01-01T00:22:07.000Z</time>
      </trkpt>
      <trkpt lat="42.232419" lon="2.432244">
        <ele>415</ele>
        <time>1970-01-01T00:22:08.000Z</time>
      </trkpt>
      <trkpt lat="42.232442" lon="2.432188">
        <ele>415</ele>
        <time>1970-01-01T00:22:09.000Z</time>
      </trkpt>
      <trkpt lat="42.232465" lon="2.432133">
        <ele>415</ele>
        <time>1970-01-01T00:22:10.000Z</time>
      </trkpt>
      <trkpt lat="42.232488" lon="2.432078">
        <ele>415</ele>
        <time>1970-01-01T00:22:11.000Z</time>
      </trkpt>
      <trkpt lat="42.232511" lon="2.432022">
        <ele>415</ele>
        <time>1970-01-01T00:22:12.000Z</time>
      </trkpt>
      <trkpt lat="42.232534" lon="2.431967">
        <ele>415</ele>
        <time>1970-01-01T00:22:13.000Z</time>
      </trkpt>
      <trkpt lat="42.232557" lon="2.431911">
        <ele>415</ele>
        <time>1970-01-01T00:22:14.000Z</time>
      </trkpt>
      <trkpt lat="42.23258" lon="2.431856">
        <ele>414</ele>
        <time>1970-01-01T00:22:15.000Z</time>
      </trkpt>
      <trkpt lat="42.232653" lon="2.431753">
        <ele>414</ele>
        <time>1970-01-01T00:22:16.000Z</time>
      </trkpt>
      <trkpt lat="42.23269" lon="2.43171">
        <ele>414</ele>
        <time>1970-01-01T00:22:17.000Z</time>
      </trkpt>
      <trkpt lat="42.232728" lon="2.431666">
        <ele>414</ele>
        <time>1970-01-01T00:22:18.000Z</time>
      </trkpt>
      <trkpt lat="42.232765" lon="2.431623">
        <ele>414</ele>
        <time>1970-01-01T00:22:19.000Z</time>
      </trkpt>
      <trkpt lat="42.232803" lon="2.431579">
        <ele>414</ele>
        <time>1970-01-01T00:22:20.000Z</time>
      </trkpt>
      <trkpt lat="42.232841" lon="2.431535">
        <ele>414</ele>
        <time>1970-01-01T00:22:21.000Z</time>
      </trkpt>
      <trkpt lat="42.232878" lon="2.431492">
        <ele>414</ele>
        <time>1970-01-01T00:22:22.000Z</time>
      </trkpt>
      <trkpt lat="42.232916" lon="2.431448">
        <ele>414</ele>
        <time>1970-01-01T00:22:23.000Z</time>
      </trkpt>
      <trkpt lat="42.232953" lon="2.431405">
        <ele>414</ele>
        <time>1970-01-01T00:22:24.000Z</time>
      </trkpt>
      <trkpt lat="42.232991" lon="2.431361">
        <ele>413</ele>
        <time>1970-01-01T00:22:25.000Z</time>
      </trkpt>
      <trkpt lat="42.233075" lon="2.431279">
        <ele>413</ele>
        <time>1970-01-01T00:22:26.000Z</time>
      </trkpt>
      <trkpt lat="42.233114" lon="2.431243">
        <ele>413</ele>
        <time>1970-01-01T00:22:27.000Z</time>
      </trkpt>
      <trkpt lat="42.233154" lon="2.431206">
        <ele>413</ele>
        <time>1970-01-01T00:22:28.000Z</time>
      </trkpt>
      <trkpt lat="42.233193" lon="2.431169">
        <ele>413</ele>
        <time>1970-01-01T00:22:29.000Z</time>
      </trkpt>
      <trkpt lat="42.233233" lon="2.431133">
        <ele>413</ele>
        <time>1970-01-01T00:22:30.000Z</time>
      </trkpt>
      <trkpt lat="42.233273" lon="2.431096">
        <ele>413</ele>
        <time>1970-01-01T00:22:31.000Z</time>
      </trkpt>
      <trkpt lat="42.233312" lon="2.431059">
        <ele>413</ele>
        <time>1970-01-01T00:22:32.000Z</time>
      </trkpt>
      <trkpt lat="42.233352" lon="2.431022">
        <ele>413</ele>
        <time>1970-01-01T00:22:33.000Z</time>
      </trkpt>
      <trkpt lat="42.233391" lon="2.430986">
        <ele>413</ele>
        <time>1970-01-01T00:22:34.000Z</time>
      </trkpt>
      <trkpt lat="42.233431" lon="2.430949">
        <ele>413</ele>
        <time>1970-01-01T00:22:35.000Z</time>
      </trkpt>
      <trkpt lat="42.233516" lon="2.43087">
        <ele>413</ele>
        <time>1970-01-01T00:22:36.000Z</time>
      </trkpt>
      <trkpt lat="42.23356" lon="2.430833">
        <ele>413</ele>
        <time>1970-01-01T00:22:37.000Z</time>
      </trkpt>
      <trkpt lat="42.233603" lon="2.430796">
        <ele>413</ele>
        <time>1970-01-01T00:22:38.000Z</time>
      </trkpt>
      <trkpt lat="42.233646" lon="2.430759">
        <ele>413</ele>
        <time>1970-01-01T00:22:39.000Z</time>
      </trkpt>
      <trkpt lat="42.23369" lon="2.430722">
        <ele>413</ele>
        <time>1970-01-01T00:22:40.000Z</time>
      </trkpt>
      <trkpt lat="42.233733" lon="2.430685">
        <ele>413</ele>
        <time>1970-01-01T00:22:41.000Z</time>
      </trkpt>
      <trkpt lat="42.233776" lon="2.430648">
        <ele>413</ele>
        <time>1970-01-01T00:22:42.000Z</time>
      </trkpt>
      <trkpt lat="42.233819" lon="2.430611">
        <ele>413</ele>
        <time>1970-01-01T00:22:43.000Z</time>
      </trkpt>
      <trkpt lat="42.233863" lon="2.430574">
        <ele>413</ele>
        <time>1970-01-01T00:22:44.000Z</time>
      </trkpt>
      <trkpt lat="42.233906" lon="2.430537">
        <ele>414</ele>
        <time>1970-01-01T00:22:45.000Z</time>
      </trkpt>
      <trkpt lat="42.234011" lon="2.430502">
        <ele>414</ele>
        <time>1970-01-01T00:22:46.000Z</time>
      </trkpt>
      <trkpt lat="42.234064" lon="2.430501">
        <ele>414</ele>
        <time>1970-01-01T00:22:47.000Z</time>
      </trkpt>
      <trkpt lat="42.234117" lon="2.430501">
        <ele>414</ele>
        <time>1970-01-01T00:22:48.000Z</time>
      </trkpt>
      <trkpt lat="42.23417" lon="2.4305">
        <ele>414</ele>
        <time>1970-01-01T00:22:49.000Z</time>
      </trkpt>
      <trkpt lat="42.234224" lon="2.430499">
        <ele>414</ele>
        <time>1970-01-01T00:22:50.000Z</time>
      </trkpt>
      <trkpt lat="42.234277" lon="2.430498">
        <ele>414</ele>
        <time>1970-01-01T00:22:51.000Z</time>
      </trkpt>
      <trkpt lat="42.23433" lon="2.430497">
        <ele>414</ele>
        <time>1970-01-01T00:22:52.000Z</time>
      </trkpt>
      <trkpt lat="42.234383" lon="2.430497">
        <ele>414</ele>
        <time>1970-01-01T00:22:53.000Z</time>
      </trkpt>
      <trkpt lat="42.234436" lon="2.430496">
        <ele>414</ele>
        <time>1970-01-01T00:22:54.000Z</time>
      </trkpt>
      <trkpt lat="42.234489" lon="2.430495">
        <ele>414</ele>
        <time>1970-01-01T00:22:55.000Z</time>
      </trkpt>
      <trkpt lat="42.234599" lon="2.430525">
        <ele>414</ele>
        <time>1970-01-01T00:22:56.000Z</time>
      </trkpt>
      <trkpt lat="42.234651" lon="2.430536">
        <ele>414</ele>
        <time>1970-01-01T00:22:57.000Z</time>
      </trkpt>
      <trkpt lat="42.234703" lon="2.430546">
        <ele>414</ele>
        <time>1970-01-01T00:22:58.000Z</time>
      </trkpt>
      <trkpt lat="42.234755" lon="2.430556">
        <ele>414</ele>
        <time>1970-01-01T00:22:59.000Z</time>
      </trkpt>
      <trkpt lat="42.234808" lon="2.430566">
        <ele>414</ele>
        <time>1970-01-01T00:23:00.000Z</time>
      </trkpt>
      <trkpt lat="42.23486" lon="2.430577">
        <ele>414</ele>
        <time>1970-01-01T00:23:01.000Z</time>
      </trkpt>
      <trkpt lat="42.234912" lon="2.430587">
        <ele>414</ele>
        <time>1970-01-01T00:23:02.000Z</time>
      </trkpt>
      <trkpt lat="42.234964" lon="2.430597">
        <ele>414</ele>
        <time>1970-01-01T00:23:03.000Z</time>
      </trkpt>
      <trkpt lat="42.235016" lon="2.430608">
        <ele>414</ele>
        <time>1970-01-01T00:23:04.000Z</time>
      </trkpt>
      <trkpt lat="42.235068" lon="2.430618">
        <ele>414</ele>
        <time>1970-01-01T00:23:05.000Z</time>
      </trkpt>
      <trkpt lat="42.235178" lon="2.430583">
        <ele>414</ele>
        <time>1970-01-01T00:23:06.000Z</time>
      </trkpt>
      <trkpt lat="42.235228" lon="2.430554">
        <ele>414</ele>
        <time>1970-01-01T00:23:07.000Z</time>
      </trkpt>
      <trkpt lat="42.235279" lon="2.430526">
        <ele>414</ele>
        <time>1970-01-01T00:23:08.000Z</time>
      </trkpt>
      <trkpt lat="42.23533" lon="2.430497">
        <ele>414</ele>
        <time>1970-01-01T00:23:09.000Z</time>
      </trkpt>
      <trkpt lat="42.235381" lon="2.430468">
        <ele>414</ele>
        <time>1970-01-01T00:23:10.000Z</time>
      </trkpt>
      <trkpt lat="42.235431" lon="2.430439">
        <ele>414</ele>
        <time>1970-01-01T00:23:11.000Z</time>
      </trkpt>
      <trkpt lat="42.235482" lon="2.43041">
        <ele>414</ele>
        <time>1970-01-01T00:23:12.000Z</time>
      </trkpt>
      <trkpt lat="42.235533" lon="2.430382">
        <ele>414</ele>
        <time>1970-01-01T00:23:13.000Z</time>
      </trkpt>
      <trkpt lat="42.235583" lon="2.430353">
        <ele>414</ele>
        <time>1970-01-01T00:23:14.000Z</time>
      </trkpt>
      <trkpt lat="42.235634" lon="2.430324">
        <ele>414</ele>
        <time>1970-01-01T00:23:15.000Z</time>
      </trkpt>
      <trkpt lat="42.235742" lon="2.43024">
        <ele>414</ele>
        <time>1970-01-01T00:23:16.000Z</time>
      </trkpt>
      <trkpt lat="42.235792" lon="2.430199">
        <ele>414</ele>
        <time>1970-01-01T00:23:17.000Z</time>
      </trkpt>
      <trkpt lat="42.235843" lon="2.430158">
        <ele>414</ele>
        <time>1970-01-01T00:23:18.000Z</time>
      </trkpt>
      <trkpt lat="42.235893" lon="2.430117">
        <ele>414</ele>
        <time>1970-01-01T00:23:19.000Z</time>
      </trkpt>
      <trkpt lat="42.235944" lon="2.430076">
        <ele>414</ele>
        <time>1970-01-01T00:23:20.000Z</time>
      </trkpt>
      <trkpt lat="42.235995" lon="2.430034">
        <ele>414</ele>
        <time>1970-01-01T00:23:21.000Z</time>
      </trkpt>
      <trkpt lat="42.236045" lon="2.429993">
        <ele>414</ele>
        <time>1970-01-01T00:23:22.000Z</time>
      </trkpt>
      <trkpt lat="42.236096" lon="2.429952">
        <ele>414</ele>
        <time>1970-01-01T00:23:23.000Z</time>
      </trkpt>
      <trkpt lat="42.236146" lon="2.429911">
        <ele>414</ele>
        <time>1970-01-01T00:23:24.000Z</time>
      </trkpt>
      <trkpt lat="42.236197" lon="2.42987">
        <ele>414</ele>
        <time>1970-01-01T00:23:25.000Z</time>
      </trkpt>
      <trkpt lat="42.236295" lon="2.42979">
        <ele>414</ele>
        <time>1970-01-01T00:23:26.000Z</time>
      </trkpt>
      <trkpt lat="42.236339" lon="2.429752">
        <ele>414</ele>
        <time>1970-01-01T00:23:27.000Z</time>
      </trkpt>
      <trkpt lat="42.236384" lon="2.429715">
        <ele>414</ele>
        <time>1970-01-01T00:23:28.000Z</time>
      </trkpt>
      <trkpt lat="42.236428" lon="2.429677">
        <ele>414</ele>
        <time>1970-01-01T00:23:29.000Z</time>
      </trkpt>
      <trkpt lat="42.236472" lon="2.42964">
        <ele>414</ele>
        <time>1970-01-01T00:23:30.000Z</time>
      </trkpt>
      <trkpt lat="42.236516" lon="2.429602">
        <ele>414</ele>
        <time>1970-01-01T00:23:31.000Z</time>
      </trkpt>
      <trkpt lat="42.23656" lon="2.429565">
        <ele>414</ele>
        <time>1970-01-01T00:23:32.000Z</time>
      </trkpt>
      <trkpt lat="42.236605" lon="2.429527">
        <ele>414</ele>
        <time>1970-01-01T00:23:33.000Z</time>
      </trkpt>
      <trkpt lat="42.236649" lon="2.42949">
        <ele>414</ele>
        <time>1970-01-01T00:23:34.000Z</time>
      </trkpt>
      <trkpt lat="42.236693" lon="2.429452">
        <ele>414</ele>
        <time>1970-01-01T00:23:35.000Z</time>
      </trkpt>
      <trkpt lat="42.236773" lon="2.429384">
        <ele>414</ele>
        <time>1970-01-01T00:23:36.000Z</time>
      </trkpt>
      <trkpt lat="42.236808" lon="2.429356">
        <ele>414</ele>
        <time>1970-01-01T00:23:37.000Z</time>
      </trkpt>
      <trkpt lat="42.236843" lon="2.429327">
        <ele>414</ele>
        <time>1970-01-01T00:23:38.000Z</time>
      </trkpt>
      <trkpt lat="42.236878" lon="2.429299">
        <ele>414</ele>
        <time>1970-01-01T00:23:39.000Z</time>
      </trkpt>
      <trkpt lat="42.236914" lon="2.42927">
        <ele>414</ele>
        <time>1970-01-01T00:23:40.000Z</time>
      </trkpt>
      <trkpt lat="42.236949" lon="2.429241">
        <ele>414</ele>
        <time>1970-01-01T00:23:41.000Z</time>
      </trkpt>
      <trkpt lat="42.236984" lon="2.429213">
        <ele>414</ele>
        <time>1970-01-01T00:23:42.000Z</time>
      </trkpt>
      <trkpt lat="42.237019" lon="2.429184">
        <ele>414</ele>
        <time>1970-01-01T00:23:43.000Z</time>
      </trkpt>
      <trkpt lat="42.237054" lon="2.429156">
        <ele>414</ele>
        <time>1970-01-01T00:23:44.000Z</time>
      </trkpt>
      <trkpt lat="42.237089" lon="2.429127">
        <ele>415</ele>
        <time>1970-01-01T00:23:45.000Z</time>
      </trkpt>
      <trkpt lat="42.237148" lon="2.429079">
        <ele>415</ele>
        <time>1970-01-01T00:23:46.000Z</time>
      </trkpt>
      <trkpt lat="42.237174" lon="2.429057">
        <ele>415</ele>
        <time>1970-01-01T00:23:47.000Z</time>
      </trkpt>
      <trkpt lat="42.2372" lon="2.429036">
        <ele>415</ele>
        <time>1970-01-01T00:23:48.000Z</time>
      </trkpt>
      <trkpt lat="42.237226" lon="2.429014">
        <ele>415</ele>
        <time>1970-01-01T00:23:49.000Z</time>
      </trkpt>
      <trkpt lat="42.237252" lon="2.428993">
        <ele>415</ele>
        <time>1970-01-01T00:23:50.000Z</time>
      </trkpt>
      <trkpt lat="42.237277" lon="2.428971">
        <ele>415</ele>
        <time>1970-01-01T00:23:51.000Z</time>
      </trkpt>
      <trkpt lat="42.237303" lon="2.42895">
        <ele>415</ele>
        <time>1970-01-01T00:23:52.000Z</time>
      </trkpt>
      <trkpt lat="42.237329" lon="2.428928">
        <ele>415</ele>
        <time>1970-01-01T00:23:53.000Z</time>
      </trkpt>
      <trkpt lat="42.237355" lon="2.428907">
        <ele>415</ele>
        <time>1970-01-01T00:23:54.000Z</time>
      </trkpt>
      <trkpt lat="42.237381" lon="2.428885">
        <ele>417</ele>
        <time>1970-01-01T00:23:55.000Z</time>
      </trkpt>
      <trkpt lat="42.237432" lon="2.428845">
        <ele>417</ele>
        <time>1970-01-01T00:23:56.000Z</time>
      </trkpt>
      <trkpt lat="42.237456" lon="2.428825">
        <ele>417</ele>
        <time>1970-01-01T00:23:57.000Z</time>
      </trkpt>
      <trkpt lat="42.237479" lon="2.428806">
        <ele>417</ele>
        <time>1970-01-01T00:23:58.000Z</time>
      </trkpt>
      <trkpt lat="42.237503" lon="2.428786">
        <ele>417</ele>
        <time>1970-01-01T00:23:59.000Z</time>
      </trkpt>
      <trkpt lat="42.237527" lon="2.428767">
        <ele>417</ele>
        <time>1970-01-01T00:24:00.000Z</time>
      </trkpt>
      <trkpt lat="42.237551" lon="2.428747">
        <ele>417</ele>
        <time>1970-01-01T00:24:01.000Z</time>
      </trkpt>
      <trkpt lat="42.237575" lon="2.428728">
        <ele>417</ele>
        <time>1970-01-01T00:24:02.000Z</time>
      </trkpt>
      <trkpt lat="42.237598" lon="2.428708">
        <ele>417</ele>
        <time>1970-01-01T00:24:03.000Z</time>
      </trkpt>
      <trkpt lat="42.237622" lon="2.428689">
        <ele>417</ele>
        <time>1970-01-01T00:24:04.000Z</time>
      </trkpt>
      <trkpt lat="42.237646" lon="2.428669">
        <ele>418</ele>
        <time>1970-01-01T00:24:05.000Z</time>
      </trkpt>
      <trkpt lat="42.237693" lon="2.428627">
        <ele>418</ele>
        <time>1970-01-01T00:24:06.000Z</time>
      </trkpt>
      <trkpt lat="42.237714" lon="2.428607">
        <ele>418</ele>
        <time>1970-01-01T00:24:07.000Z</time>
      </trkpt>
      <trkpt lat="42.237735" lon="2.428588">
        <ele>418</ele>
        <time>1970-01-01T00:24:08.000Z</time>
      </trkpt>
      <trkpt lat="42.237756" lon="2.428568">
        <ele>418</ele>
        <time>1970-01-01T00:24:09.000Z</time>
      </trkpt>
      <trkpt lat="42.237778" lon="2.428548">
        <ele>418</ele>
        <time>1970-01-01T00:24:10.000Z</time>
      </trkpt>
      <trkpt lat="42.237799" lon="2.428528">
        <ele>418</ele>
        <time>1970-01-01T00:24:11.000Z</time>
      </trkpt>
      <trkpt lat="42.23782" lon="2.428508">
        <ele>418</ele>
        <time>1970-01-01T00:24:12.000Z</time>
      </trkpt>
      <trkpt lat="42.237841" lon="2.428489">
        <ele>418</ele>
        <time>1970-01-01T00:24:13.000Z</time>
      </trkpt>
      <trkpt lat="42.237862" lon="2.428469">
        <ele>418</ele>
        <time>1970-01-01T00:24:14.000Z</time>
      </trkpt>
      <trkpt lat="42.237883" lon="2.428449">
        <ele>420</ele>
        <time>1970-01-01T00:24:15.000Z</time>
      </trkpt>
      <trkpt lat="42.237923" lon="2.428399">
        <ele>420</ele>
        <time>1970-01-01T00:24:16.000Z</time>
      </trkpt>
      <trkpt lat="42.23794" lon="2.428375">
        <ele>420</ele>
        <time>1970-01-01T00:24:17.000Z</time>
      </trkpt>
      <trkpt lat="42.237958" lon="2.42835">
        <ele>420</ele>
        <time>1970-01-01T00:24:18.000Z</time>
      </trkpt>
      <trkpt lat="42.237975" lon="2.428326">
        <ele>420</ele>
        <time>1970-01-01T00:24:19.000Z</time>
      </trkpt>
      <trkpt lat="42.237993" lon="2.428301">
        <ele>420</ele>
        <time>1970-01-01T00:24:20.000Z</time>
      </trkpt>
      <trkpt lat="42.238011" lon="2.428276">
        <ele>420</ele>
        <time>1970-01-01T00:24:21.000Z</time>
      </trkpt>
      <trkpt lat="42.238028" lon="2.428252">
        <ele>420</ele>
        <time>1970-01-01T00:24:22.000Z</time>
      </trkpt>
      <trkpt lat="42.238046" lon="2.428227">
        <ele>420</ele>
        <time>1970-01-01T00:24:23.000Z</time>
      </trkpt>
      <trkpt lat="42.238063" lon="2.428203">
        <ele>420</ele>
        <time>1970-01-01T00:24:24.000Z</time>
      </trkpt>
      <trkpt lat="42.238081" lon="2.428178">
        <ele>421</ele>
        <time>1970-01-01T00:24:25.000Z</time>
      </trkpt>
      <trkpt lat="42.238112" lon="2.428116">
        <ele>421</ele>
        <time>1970-01-01T00:24:26.000Z</time>
      </trkpt>
      <trkpt lat="42.238125" lon="2.428084">
        <ele>421</ele>
        <time>1970-01-01T00:24:27.000Z</time>
      </trkpt>
      <trkpt lat="42.238137" lon="2.428053">
        <ele>421</ele>
        <time>1970-01-01T00:24:28.000Z</time>
      </trkpt>
      <trkpt lat="42.23815" lon="2.428021">
        <ele>421</ele>
        <time>1970-01-01T00:24:29.000Z</time>
      </trkpt>
      <trkpt lat="42.238163" lon="2.42799">
        <ele>421</ele>
        <time>1970-01-01T00:24:30.000Z</time>
      </trkpt>
      <trkpt lat="42.238176" lon="2.427959">
        <ele>421</ele>
        <time>1970-01-01T00:24:31.000Z</time>
      </trkpt>
      <trkpt lat="42.238189" lon="2.427927">
        <ele>421</ele>
        <time>1970-01-01T00:24:32.000Z</time>
      </trkpt>
      <trkpt lat="42.238201" lon="2.427896">
        <ele>421</ele>
        <time>1970-01-01T00:24:33.000Z</time>
      </trkpt>
      <trkpt lat="42.238214" lon="2.427864">
        <ele>421</ele>
        <time>1970-01-01T00:24:34.000Z</time>
      </trkpt>
      <trkpt lat="42.238227" lon="2.427833">
        <ele>421</ele>
        <time>1970-01-01T00:24:35.000Z</time>
      </trkpt>
      <trkpt lat="42.238243" lon="2.427762">
        <ele>421</ele>
        <time>1970-01-01T00:24:36.000Z</time>
      </trkpt>
      <trkpt lat="42.238249" lon="2.427727">
        <ele>421</ele>
        <time>1970-01-01T00:24:37.000Z</time>
      </trkpt>
      <trkpt lat="42.238255" lon="2.427693">
        <ele>421</ele>
        <time>1970-01-01T00:24:38.000Z</time>
      </trkpt>
      <trkpt lat="42.238261" lon="2.427658">
        <ele>421</ele>
        <time>1970-01-01T00:24:39.000Z</time>
      </trkpt>
      <trkpt lat="42.238267" lon="2.427624">
        <ele>421</ele>
        <time>1970-01-01T00:24:40.000Z</time>
      </trkpt>
      <trkpt lat="42.238272" lon="2.42759">
        <ele>421</ele>
        <time>1970-01-01T00:24:41.000Z</time>
      </trkpt>
      <trkpt lat="42.238278" lon="2.427555">
        <ele>421</ele>
        <time>1970-01-01T00:24:42.000Z</time>
      </trkpt>
      <trkpt lat="42.238284" lon="2.427521">
        <ele>421</ele>
        <time>1970-01-01T00:24:43.000Z</time>
      </trkpt>
      <trkpt lat="42.23829" lon="2.427486">
        <ele>421</ele>
        <time>1970-01-01T00:24:44.000Z</time>
      </trkpt>
      <trkpt lat="42.238296" lon="2.427452">
        <ele>423</ele>
        <time>1970-01-01T00:24:45.000Z</time>
      </trkpt>
      <trkpt lat="42.238302" lon="2.427377">
        <ele>423</ele>
        <time>1970-01-01T00:24:46.000Z</time>
      </trkpt>
      <trkpt lat="42.238304" lon="2.427341">
        <ele>423</ele>
        <time>1970-01-01T00:24:47.000Z</time>
      </trkpt>
      <trkpt lat="42.238306" lon="2.427306">
        <ele>423</ele>
        <time>1970-01-01T00:24:48.000Z</time>
      </trkpt>
      <trkpt lat="42.238308" lon="2.427271">
        <ele>423</ele>
        <time>1970-01-01T00:24:49.000Z</time>
      </trkpt>
      <trkpt lat="42.23831" lon="2.427236">
        <ele>423</ele>
        <time>1970-01-01T00:24:50.000Z</time>
      </trkpt>
      <trkpt lat="42.238312" lon="2.4272">
        <ele>423</ele>
        <time>1970-01-01T00:24:51.000Z</time>
      </trkpt>
      <trkpt lat="42.238314" lon="2.427165">
        <ele>423</ele>
        <time>1970-01-01T00:24:52.000Z</time>
      </trkpt>
      <trkpt lat="42.238316" lon="2.42713">
        <ele>423</ele>
        <time>1970-01-01T00:24:53.000Z</time>
      </trkpt>
      <trkpt lat="42.238318" lon="2.427094">
        <ele>423</ele>
        <time>1970-01-01T00:24:54.000Z</time>
      </trkpt>
      <trkpt lat="42.23832" lon="2.427059">
        <ele>425</ele>
        <time>1970-01-01T00:24:55.000Z</time>
      </trkpt>
      <trkpt lat="42.238324" lon="2.426987">
        <ele>425</ele>
        <time>1970-01-01T00:24:56.000Z</time>
      </trkpt>
      <trkpt lat="42.238325" lon="2.426953">
        <ele>425</ele>
        <time>1970-01-01T00:24:57.000Z</time>
      </trkpt>
      <trkpt lat="42.238327" lon="2.42692">
        <ele>425</ele>
        <time>1970-01-01T00:24:58.000Z</time>
      </trkpt>
      <trkpt lat="42.238328" lon="2.426887">
        <ele>425</ele>
        <time>1970-01-01T00:24:59.000Z</time>
      </trkpt>
      <trkpt lat="42.23833" lon="2.426854">
        <ele>425</ele>
        <time>1970-01-01T00:25:00.000Z</time>
      </trkpt>
      <trkpt lat="42.238331" lon="2.42682">
        <ele>425</ele>
        <time>1970-01-01T00:25:01.000Z</time>
      </trkpt>
      <trkpt lat="42.238333" lon="2.426787">
        <ele>425</ele>
        <time>1970-01-01T00:25:02.000Z</time>
      </trkpt>
      <trkpt lat="42.238334" lon="2.426754">
        <ele>425</ele>
        <time>1970-01-01T00:25:03.000Z</time>
      </trkpt>
      <trkpt lat="42.238336" lon="2.42672">
        <ele>425</ele>
        <time>1970-01-01T00:25:04.000Z</time>
      </trkpt>
      <trkpt lat="42.238337" lon="2.426687">
        <ele>427</ele>
        <time>1970-01-01T00:25:05.000Z</time>
      </trkpt>
      <trkpt lat="42.238344" lon="2.426623">
        <ele>427</ele>
        <time>1970-01-01T00:25:06.000Z</time>
      </trkpt>
      <trkpt lat="42.238349" lon="2.426594">
        <ele>427</ele>
        <time>1970-01-01T00:25:07.000Z</time>
      </trkpt>
      <trkpt lat="42.238353" lon="2.426564">
        <ele>427</ele>
        <time>1970-01-01T00:25:08.000Z</time>
      </trkpt>
      <trkpt lat="42.238358" lon="2.426535">
        <ele>427</ele>
        <time>1970-01-01T00:25:09.000Z</time>
      </trkpt>
      <trkpt lat="42.238362" lon="2.426505">
        <ele>427</ele>
        <time>1970-01-01T00:25:10.000Z</time>
      </trkpt>
      <trkpt lat="42.238366" lon="2.426475">
        <ele>427</ele>
        <time>1970-01-01T00:25:11.000Z</time>
      </trkpt>
      <trkpt lat="42.238371" lon="2.426446">
        <ele>427</ele>
        <time>1970-01-01T00:25:12.000Z</time>
      </trkpt>
      <trkpt lat="42.238375" lon="2.426416">
        <ele>427</ele>
        <time>1970-01-01T00:25:13.000Z</time>
      </trkpt>
      <trkpt lat="42.23838" lon="2.426387">
        <ele>427</ele>
        <time>1970-01-01T00:25:14.000Z</time>
      </trkpt>
      <trkpt lat="42.238384" lon="2.426357">
        <ele>428</ele>
        <time>1970-01-01T00:25:15.000Z</time>
      </trkpt>
      <trkpt lat="42.238402" lon="2.4263">
        <ele>428</ele>
        <time>1970-01-01T00:25:16.000Z</time>
      </trkpt>
      <trkpt lat="42.238411" lon="2.426275">
        <ele>428</ele>
        <time>1970-01-01T00:25:17.000Z</time>
      </trkpt>
      <trkpt lat="42.238421" lon="2.426249">
        <ele>428</ele>
        <time>1970-01-01T00:25:18.000Z</time>
      </trkpt>
      <trkpt lat="42.23843" lon="2.426224">
        <ele>428</ele>
        <time>1970-01-01T00:25:19.000Z</time>
      </trkpt>
      <trkpt lat="42.23844" lon="2.426198">
        <ele>428</ele>
        <time>1970-01-01T00:25:20.000Z</time>
      </trkpt>
      <trkpt lat="42.238449" lon="2.426172">
        <ele>428</ele>
        <time>1970-01-01T00:25:21.000Z</time>
      </trkpt>
      <trkpt lat="42.238459" lon="2.426147">
        <ele>428</ele>
        <time>1970-01-01T00:25:22.000Z</time>
      </trkpt>
      <trkpt lat="42.238468" lon="2.426121">
        <ele>428</ele>
        <time>1970-01-01T00:25:23.000Z</time>
      </trkpt>
      <trkpt lat="42.238478" lon="2.426096">
        <ele>428</ele>
        <time>1970-01-01T00:25:24.000Z</time>
      </trkpt>
      <trkpt lat="42.238487" lon="2.42607">
        <ele>430</ele>
        <time>1970-01-01T00:25:25.000Z</time>
      </trkpt>
      <trkpt lat="42.238509" lon="2.426016">
        <ele>430</ele>
        <time>1970-01-01T00:25:26.000Z</time>
      </trkpt>
      <trkpt lat="42.23852" lon="2.425991">
        <ele>430</ele>
        <time>1970-01-01T00:25:27.000Z</time>
      </trkpt>
      <trkpt lat="42.23853" lon="2.425966">
        <ele>430</ele>
        <time>1970-01-01T00:25:28.000Z</time>
      </trkpt>
      <trkpt lat="42.238541" lon="2.425941">
        <ele>430</ele>
        <time>1970-01-01T00:25:29.000Z</time>
      </trkpt>
      <trkpt lat="42.238552" lon="2.425917">
        <ele>430</ele>
        <time>1970-01-01T00:25:30.000Z</time>
      </trkpt>
      <trkpt lat="42.238563" lon="2.425892">
        <ele>430</ele>
        <time>1970-01-01T00:25:31.000Z</time>
      </trkpt>
      <trkpt lat="42.238574" lon="2.425867">
        <ele>430</ele>
        <time>1970-01-01T00:25:32.000Z</time>
      </trkpt>
      <trkpt lat="42.238584" lon="2.425842">
        <ele>430</ele>
        <time>1970-01-01T00:25:33.000Z</time>
      </trkpt>
      <trkpt lat="42.238595" lon="2.425817">
        <ele>430</ele>
        <time>1970-01-01T00:25:34.000Z</time>
      </trkpt>
      <trkpt lat="42.238606" lon="2.425792">
        <ele>431</ele>
        <time>1970-01-01T00:25:35.000Z</time>
      </trkpt>
      <trkpt lat="42.238628" lon="2.425739">
        <ele>431</ele>
        <time>1970-01-01T00:25:36.000Z</time>
      </trkpt>
      <trkpt lat="42.238639" lon="2.425713">
        <ele>431</ele>
        <time>1970-01-01T00:25:37.000Z</time>
      </trkpt>
      <trkpt lat="42.23865" lon="2.425688">
        <ele>431</ele>
        <time>1970-01-01T00:25:38.000Z</time>
      </trkpt>
      <trkpt lat="42.238661" lon="2.425662">
        <ele>431</ele>
        <time>1970-01-01T00:25:39.000Z</time>
      </trkpt>
      <trkpt lat="42.238672" lon="2.425637">
        <ele>431</ele>
        <time>1970-01-01T00:25:40.000Z</time>
      </trkpt>
      <trkpt lat="42.238682" lon="2.425611">
        <ele>431</ele>
        <time>1970-01-01T00:25:41.000Z</time>
      </trkpt>
      <trkpt lat="42.238693" lon="2.425586">
        <ele>431</ele>
        <time>1970-01-01T00:25:42.000Z</time>
      </trkpt>
      <trkpt lat="42.238704" lon="2.42556">
        <ele>431</ele>
        <time>1970-01-01T00:25:43.000Z</time>
      </trkpt>
      <trkpt lat="42.238715" lon="2.425535">
        <ele>431</ele>
        <time>1970-01-01T00:25:44.000Z</time>
      </trkpt>
      <trkpt lat="42.238726" lon="2.425509">
        <ele>433</ele>
        <time>1970-01-01T00:25:45.000Z</time>
      </trkpt>
      <trkpt lat="42.238747" lon="2.425457">
        <ele>433</ele>
        <time>1970-01-01T00:25:46.000Z</time>
      </trkpt>
      <trkpt lat="42.238758" lon="2.425432">
        <ele>433</ele>
        <time>1970-01-01T00:25:47.000Z</time>
      </trkpt>
      <trkpt lat="42.238768" lon="2.425407">
        <ele>433</ele>
        <time>1970-01-01T00:25:48.000Z</time>
      </trkpt>
      <trkpt lat="42.238778" lon="2.425382">
        <ele>433</ele>
        <time>1970-01-01T00:25:49.000Z</time>
      </trkpt>
      <trkpt lat="42.238789" lon="2.425357">
        <ele>433</ele>
        <time>1970-01-01T00:25:50.000Z</time>
      </trkpt>
      <trkpt lat="42.238799" lon="2.425332">
        <ele>433</ele>
        <time>1970-01-01T00:25:51.000Z</time>
      </trkpt>
      <trkpt lat="42.238809" lon="2.425307">
        <ele>433</ele>
        <time>1970-01-01T00:25:52.000Z</time>
      </trkpt>
      <trkpt lat="42.238819" lon="2.425282">
        <ele>433</ele>
        <time>1970-01-01T00:25:53.000Z</time>
      </trkpt>
      <trkpt lat="42.23883" lon="2.425257">
        <ele>433</ele>
        <time>1970-01-01T00:25:54.000Z</time>
      </trkpt>
      <trkpt lat="42.23884" lon="2.425232">
        <ele>434</ele>
        <time>1970-01-01T00:25:55.000Z</time>
      </trkpt>
      <trkpt lat="42.238864" lon="2.42518">
        <ele>434</ele>
        <time>1970-01-01T00:25:56.000Z</time>
      </trkpt>
      <trkpt lat="42.238874" lon="2.425154">
        <ele>434</ele>
        <time>1970-01-01T00:25:57.000Z</time>
      </trkpt>
      <trkpt lat="42.238884" lon="2.425128">
        <ele>434</ele>
        <time>1970-01-01T00:25:58.000Z</time>
      </trkpt>
      <trkpt lat="42.238894" lon="2.425102">
        <ele>434</ele>
        <time>1970-01-01T00:25:59.000Z</time>
      </trkpt>
      <trkpt lat="42.238904" lon="2.425076">
        <ele>434</ele>
        <time>1970-01-01T00:26:00.000Z</time>
      </trkpt>
      <trkpt lat="42.238913" lon="2.42505">
        <ele>434</ele>
        <time>1970-01-01T00:26:01.000Z</time>
      </trkpt>
      <trkpt lat="42.238923" lon="2.425024">
        <ele>434</ele>
        <time>1970-01-01T00:26:02.000Z</time>
      </trkpt>
      <trkpt lat="42.238933" lon="2.424998">
        <ele>434</ele>
        <time>1970-01-01T00:26:03.000Z</time>
      </trkpt>
      <trkpt lat="42.238943" lon="2.424972">
        <ele>434</ele>
        <time>1970-01-01T00:26:04.000Z</time>
      </trkpt>
      <trkpt lat="42.238953" lon="2.424946">
        <ele>436</ele>
        <time>1970-01-01T00:26:05.000Z</time>
      </trkpt>
      <trkpt lat="42.238976" lon="2.424892">
        <ele>436</ele>
        <time>1970-01-01T00:26:06.000Z</time>
      </trkpt>
      <trkpt lat="42.238986" lon="2.424866">
        <ele>436</ele>
        <time>1970-01-01T00:26:07.000Z</time>
      </trkpt>
      <trkpt lat="42.238996" lon="2.424839">
        <ele>436</ele>
        <time>1970-01-01T00:26:08.000Z</time>
      </trkpt>
      <trkpt lat="42.239006" lon="2.424813">
        <ele>436</ele>
        <time>1970-01-01T00:26:09.000Z</time>
      </trkpt>
      <trkpt lat="42.239016" lon="2.424787">
        <ele>436</ele>
        <time>1970-01-01T00:26:10.000Z</time>
      </trkpt>
      <trkpt lat="42.239026" lon="2.424761">
        <ele>436</ele>
        <time>1970-01-01T00:26:11.000Z</time>
      </trkpt>
      <trkpt lat="42.239036" lon="2.424735">
        <ele>436</ele>
        <time>1970-01-01T00:26:12.000Z</time>
      </trkpt>
      <trkpt lat="42.239046" lon="2.424708">
        <ele>436</ele>
        <time>1970-01-01T00:26:13.000Z</time>
      </trkpt>
      <trkpt lat="42.239056" lon="2.424682">
        <ele>436</ele>
        <time>1970-01-01T00:26:14.000Z</time>
      </trkpt>
      <trkpt lat="42.239066" lon="2.424656">
        <ele>439</ele>
        <time>1970-01-01T00:26:15.000Z</time>
      </trkpt>
      <trkpt lat="42.239084" lon="2.424598">
        <ele>439</ele>
        <time>1970-01-01T00:26:16.000Z</time>
      </trkpt>
      <trkpt lat="42.239092" lon="2.42457">
        <ele>439</ele>
        <time>1970-01-01T00:26:17.000Z</time>
      </trkpt>
      <trkpt lat="42.2391" lon="2.424542">
        <ele>439</ele>
        <time>1970-01-01T00:26:18.000Z</time>
      </trkpt>
      <trkpt lat="42.239108" lon="2.424514">
        <ele>439</ele>
        <time>1970-01-01T00:26:19.000Z</time>
      </trkpt>
      <trkpt lat="42.239116" lon="2.424486">
        <ele>439</ele>
        <time>1970-01-01T00:26:20.000Z</time>
      </trkpt>
      <trkpt lat="42.239124" lon="2.424457">
        <ele>439</ele>
        <time>1970-01-01T00:26:21.000Z</time>
      </trkpt>
      <trkpt lat="42.239132" lon="2.424429">
        <ele>439</ele>
        <time>1970-01-01T00:26:22.000Z</time>
      </trkpt>
      <trkpt lat="42.23914" lon="2.424401">
        <ele>439</ele>
        <time>1970-01-01T00:26:23.000Z</time>
      </trkpt>
      <trkpt lat="42.239148" lon="2.424373">
        <ele>439</ele>
        <time>1970-01-01T00:26:24.000Z</time>
      </trkpt>
      <trkpt lat="42.239156" lon="2.424345">
        <ele>441</ele>
        <time>1970-01-01T00:26:25.000Z</time>
      </trkpt>
      <trkpt lat="42.239169" lon="2.424284">
        <ele>441</ele>
        <time>1970-01-01T00:26:26.000Z</time>
      </trkpt>
      <trkpt lat="42.239175" lon="2.424255">
        <ele>441</ele>
        <time>1970-01-01T00:26:27.000Z</time>
      </trkpt>
      <trkpt lat="42.23918" lon="2.424225">
        <ele>441</ele>
        <time>1970-01-01T00:26:28.000Z</time>
      </trkpt>
      <trkpt lat="42.239186" lon="2.424196">
        <ele>441</ele>
        <time>1970-01-01T00:26:29.000Z</time>
      </trkpt>
      <trkpt lat="42.239192" lon="2.424167">
        <ele>441</ele>
        <time>1970-01-01T00:26:30.000Z</time>
      </trkpt>
      <trkpt lat="42.239198" lon="2.424138">
        <ele>441</ele>
        <time>1970-01-01T00:26:31.000Z</time>
      </trkpt>
      <trkpt lat="42.239204" lon="2.424109">
        <ele>441</ele>
        <time>1970-01-01T00:26:32.000Z</time>
      </trkpt>
      <trkpt lat="42.239209" lon="2.424079">
        <ele>441</ele>
        <time>1970-01-01T00:26:33.000Z</time>
      </trkpt>
      <trkpt lat="42.239215" lon="2.42405">
        <ele>441</ele>
        <time>1970-01-01T00:26:34.000Z</time>
      </trkpt>
      <trkpt lat="42.239221" lon="2.424021">
        <ele>442</ele>
        <time>1970-01-01T00:26:35.000Z</time>
      </trkpt>
      <trkpt lat="42.239229" lon="2.423958">
        <ele>442</ele>
        <time>1970-01-01T00:26:36.000Z</time>
      </trkpt>
      <trkpt lat="42.239233" lon="2.423927">
        <ele>442</ele>
        <time>1970-01-01T00:26:37.000Z</time>
      </trkpt>
      <trkpt lat="42.239236" lon="2.423897">
        <ele>442</ele>
        <time>1970-01-01T00:26:38.000Z</time>
      </trkpt>
      <trkpt lat="42.239239" lon="2.423866">
        <ele>442</ele>
        <time>1970-01-01T00:26:39.000Z</time>
      </trkpt>
      <trkpt lat="42.239243" lon="2.423836">
        <ele>442</ele>
        <time>1970-01-01T00:26:40.000Z</time>
      </trkpt>
      <trkpt lat="42.239246" lon="2.423805">
        <ele>442</ele>
        <time>1970-01-01T00:26:41.000Z</time>
      </trkpt>
      <trkpt lat="42.239249" lon="2.423775">
        <ele>442</ele>
        <time>1970-01-01T00:26:42.000Z</time>
      </trkpt>
      <trkpt lat="42.239252" lon="2.423744">
        <ele>442</ele>
        <time>1970-01-01T00:26:43.000Z</time>
      </trkpt>
      <trkpt lat="42.239256" lon="2.423714">
        <ele>442</ele>
        <time>1970-01-01T00:26:44.000Z</time>
      </trkpt>
      <trkpt lat="42.239259" lon="2.423683">
        <ele>443</ele>
        <time>1970-01-01T00:26:45.000Z</time>
      </trkpt>
      <trkpt lat="42.239268" lon="2.423617">
        <ele>443</ele>
        <time>1970-01-01T00:26:46.000Z</time>
      </trkpt>
      <trkpt lat="42.239271" lon="2.423587">
        <ele>443</ele>
        <time>1970-01-01T00:26:47.000Z</time>
      </trkpt>
      <trkpt lat="42.239275" lon="2.423556">
        <ele>443</ele>
        <time>1970-01-01T00:26:48.000Z</time>
      </trkpt>
      <trkpt lat="42.239279" lon="2.423526">
        <ele>443</ele>
        <time>1970-01-01T00:26:49.000Z</time>
      </trkpt>
      <trkpt lat="42.239283" lon="2.423495">
        <ele>443</ele>
        <time>1970-01-01T00:26:50.000Z</time>
      </trkpt>
      <trkpt lat="42.239286" lon="2.423464">
        <ele>443</ele>
        <time>1970-01-01T00:26:51.000Z</time>
      </trkpt>
      <trkpt lat="42.23929" lon="2.423434">
        <ele>443</ele>
        <time>1970-01-01T00:26:52.000Z</time>
      </trkpt>
      <trkpt lat="42.239294" lon="2.423403">
        <ele>443</ele>
        <time>1970-01-01T00:26:53.000Z</time>
      </trkpt>
      <trkpt lat="42.239297" lon="2.423373">
        <ele>443</ele>
        <time>1970-01-01T00:26:54.000Z</time>
      </trkpt>
      <trkpt lat="42.239301" lon="2.423342">
        <ele>445</ele>
        <time>1970-01-01T00:26:55.000Z</time>
      </trkpt>
      <trkpt lat="42.239306" lon="2.423278">
        <ele>445</ele>
        <time>1970-01-01T00:26:56.000Z</time>
      </trkpt>
      <trkpt lat="42.239308" lon="2.423249">
        <ele>445</ele>
        <time>1970-01-01T00:26:57.000Z</time>
      </trkpt>
      <trkpt lat="42.239311" lon="2.423219">
        <ele>445</ele>
        <time>1970-01-01T00:26:58.000Z</time>
      </trkpt>
      <trkpt lat="42.239313" lon="2.42319">
        <ele>445</ele>
        <time>1970-01-01T00:26:59.000Z</time>
      </trkpt>
      <trkpt lat="42.239315" lon="2.42316">
        <ele>445</ele>
        <time>1970-01-01T00:27:00.000Z</time>
      </trkpt>
      <trkpt lat="42.239317" lon="2.42313">
        <ele>445</ele>
        <time>1970-01-01T00:27:01.000Z</time>
      </trkpt>
      <trkpt lat="42.239319" lon="2.423101">
        <ele>445</ele>
        <time>1970-01-01T00:27:02.000Z</time>
      </trkpt>
      <trkpt lat="42.239322" lon="2.423071">
        <ele>445</ele>
        <time>1970-01-01T00:27:03.000Z</time>
      </trkpt>
      <trkpt lat="42.239324" lon="2.423042">
        <ele>445</ele>
        <time>1970-01-01T00:27:04.000Z</time>
      </trkpt>
      <trkpt lat="42.239326" lon="2.423012">
        <ele>446</ele>
        <time>1970-01-01T00:27:05.000Z</time>
      </trkpt>
      <trkpt lat="42.239334" lon="2.422951">
        <ele>446</ele>
        <time>1970-01-01T00:27:06.000Z</time>
      </trkpt>
      <trkpt lat="42.239337" lon="2.422921">
        <ele>446</ele>
        <time>1970-01-01T00:27:07.000Z</time>
      </trkpt>
      <trkpt lat="42.239341" lon="2.422892">
        <ele>446</ele>
        <time>1970-01-01T00:27:08.000Z</time>
      </trkpt>
      <trkpt lat="42.239345" lon="2.422863">
        <ele>446</ele>
        <time>1970-01-01T00:27:09.000Z</time>
      </trkpt>
      <trkpt lat="42.239349" lon="2.422834">
        <ele>446</ele>
        <time>1970-01-01T00:27:10.000Z</time>
      </trkpt>
      <trkpt lat="42.239352" lon="2.422804">
        <ele>446</ele>
        <time>1970-01-01T00:27:11.000Z</time>
      </trkpt>
      <trkpt lat="42.239356" lon="2.422775">
        <ele>446</ele>
        <time>1970-01-01T00:27:12.000Z</time>
      </trkpt>
      <trkpt lat="42.23936" lon="2.422746">
        <ele>446</ele>
        <time>1970-01-01T00:27:13.000Z</time>
      </trkpt>
      <trkpt lat="42.239363" lon="2.422716">
        <ele>446</ele>
        <time>1970-01-01T00:27:14.000Z</time>
      </trkpt>
      <trkpt lat="42.239367" lon="2.422687">
        <ele>447</ele>
        <time>1970-01-01T00:27:15.000Z</time>
      </trkpt>
      <trkpt lat="42.239373" lon="2.42262">
        <ele>447</ele>
        <time>1970-01-01T00:27:16.000Z</time>
      </trkpt>
      <trkpt lat="42.239376" lon="2.422588">
        <ele>447</ele>
        <time>1970-01-01T00:27:17.000Z</time>
      </trkpt>
      <trkpt lat="42.239379" lon="2.422555">
        <ele>447</ele>
        <time>1970-01-01T00:27:18.000Z</time>
      </trkpt>
      <trkpt lat="42.239382" lon="2.422523">
        <ele>447</ele>
        <time>1970-01-01T00:27:19.000Z</time>
      </trkpt>
      <trkpt lat="42.239385" lon="2.42249">
        <ele>447</ele>
        <time>1970-01-01T00:27:20.000Z</time>
      </trkpt>
      <trkpt lat="42.239388" lon="2.422457">
        <ele>447</ele>
        <time>1970-01-01T00:27:21.000Z</time>
      </trkpt>
      <trkpt lat="42.239391" lon="2.422425">
        <ele>447</ele>
        <time>1970-01-01T00:27:22.000Z</time>
      </trkpt>
      <trkpt lat="42.239394" lon="2.422392">
        <ele>447</ele>
        <time>1970-01-01T00:27:23.000Z</time>
      </trkpt>
      <trkpt lat="42.239397" lon="2.42236">
        <ele>447</ele>
        <time>1970-01-01T00:27:24.000Z</time>
      </trkpt>
      <trkpt lat="42.2394" lon="2.422327">
        <ele>449</ele>
        <time>1970-01-01T00:27:25.000Z</time>
      </trkpt>
      <trkpt lat="42.239407" lon="2.422255">
        <ele>449</ele>
        <time>1970-01-01T00:27:26.000Z</time>
      </trkpt>
      <trkpt lat="42.23941" lon="2.42222">
        <ele>449</ele>
        <time>1970-01-01T00:27:27.000Z</time>
      </trkpt>
      <trkpt lat="42.239414" lon="2.422186">
        <ele>449</ele>
        <time>1970-01-01T00:27:28.000Z</time>
      </trkpt>
      <trkpt lat="42.239417" lon="2.422152">
        <ele>449</ele>
        <time>1970-01-01T00:27:29.000Z</time>
      </trkpt>
      <trkpt lat="42.239421" lon="2.422118">
        <ele>449</ele>
        <time>1970-01-01T00:27:30.000Z</time>
      </trkpt>
      <trkpt lat="42.239425" lon="2.422083">
        <ele>449</ele>
        <time>1970-01-01T00:27:31.000Z</time>
      </trkpt>
      <trkpt lat="42.239428" lon="2.422049">
        <ele>449</ele>
        <time>1970-01-01T00:27:32.000Z</time>
      </trkpt>
      <trkpt lat="42.239432" lon="2.422015">
        <ele>449</ele>
        <time>1970-01-01T00:27:33.000Z</time>
      </trkpt>
      <trkpt lat="42.239435" lon="2.42198">
        <ele>449</ele>
        <time>1970-01-01T00:27:34.000Z</time>
      </trkpt>
      <trkpt lat="42.239439" lon="2.421946">
        <ele>452</ele>
        <time>1970-01-01T00:27:35.000Z</time>
      </trkpt>
      <trkpt lat="42.239445" lon="2.421873">
        <ele>452</ele>
        <time>1970-01-01T00:27:36.000Z</time>
      </trkpt>
      <trkpt lat="42.239447" lon="2.421838">
        <ele>452</ele>
        <time>1970-01-01T00:27:37.000Z</time>
      </trkpt>
      <trkpt lat="42.23945" lon="2.421804">
        <ele>452</ele>
        <time>1970-01-01T00:27:38.000Z</time>
      </trkpt>
      <trkpt lat="42.239453" lon="2.421769">
        <ele>452</ele>
        <time>1970-01-01T00:27:39.000Z</time>
      </trkpt>
      <trkpt lat="42.239456" lon="2.421734">
        <ele>452</ele>
        <time>1970-01-01T00:27:40.000Z</time>
      </trkpt>
      <trkpt lat="42.239458" lon="2.421699">
        <ele>452</ele>
        <time>1970-01-01T00:27:41.000Z</time>
      </trkpt>
      <trkpt lat="42.239461" lon="2.421664">
        <ele>452</ele>
        <time>1970-01-01T00:27:42.000Z</time>
      </trkpt>
      <trkpt lat="42.239464" lon="2.42163">
        <ele>452</ele>
        <time>1970-01-01T00:27:43.000Z</time>
      </trkpt>
      <trkpt lat="42.239466" lon="2.421595">
        <ele>452</ele>
        <time>1970-01-01T00:27:44.000Z</time>
      </trkpt>
      <trkpt lat="42.239469" lon="2.42156">
        <ele>452</ele>
        <time>1970-01-01T00:27:45.000Z</time>
      </trkpt>
      <trkpt lat="42.239475" lon="2.421486">
        <ele>452</ele>
        <time>1970-01-01T00:27:46.000Z</time>
      </trkpt>
      <trkpt lat="42.239478" lon="2.421451">
        <ele>452</ele>
        <time>1970-01-01T00:27:47.000Z</time>
      </trkpt>
      <trkpt lat="42.239481" lon="2.421415">
        <ele>452</ele>
        <time>1970-01-01T00:27:48.000Z</time>
      </trkpt>
      <trkpt lat="42.239484" lon="2.42138">
        <ele>452</ele>
        <time>1970-01-01T00:27:49.000Z</time>
      </trkpt>
      <trkpt lat="42.239488" lon="2.421344">
        <ele>452</ele>
        <time>1970-01-01T00:27:50.000Z</time>
      </trkpt>
      <trkpt lat="42.239491" lon="2.421308">
        <ele>452</ele>
        <time>1970-01-01T00:27:51.000Z</time>
      </trkpt>
      <trkpt lat="42.239494" lon="2.421273">
        <ele>452</ele>
        <time>1970-01-01T00:27:52.000Z</time>
      </trkpt>
      <trkpt lat="42.239497" lon="2.421237">
        <ele>452</ele>
        <time>1970-01-01T00:27:53.000Z</time>
      </trkpt>
      <trkpt lat="42.2395" lon="2.421202">
        <ele>452</ele>
        <time>1970-01-01T00:27:54.000Z</time>
      </trkpt>
      <trkpt lat="42.239503" lon="2.421166">
        <ele>454</ele>
        <time>1970-01-01T00:27:55.000Z</time>
      </trkpt>
      <trkpt lat="42.239508" lon="2.42109">
        <ele>454</ele>
        <time>1970-01-01T00:27:56.000Z</time>
      </trkpt>
      <trkpt lat="42.239512" lon="2.421053">
        <ele>454</ele>
        <time>1970-01-01T00:27:57.000Z</time>
      </trkpt>
      <trkpt lat="42.239515" lon="2.421016">
        <ele>454</ele>
        <time>1970-01-01T00:27:58.000Z</time>
      </trkpt>
      <trkpt lat="42.239518" lon="2.420979">
        <ele>454</ele>
        <time>1970-01-01T00:27:59.000Z</time>
      </trkpt>
      <trkpt lat="42.239522" lon="2.420942">
        <ele>454</ele>
        <time>1970-01-01T00:28:00.000Z</time>
      </trkpt>
      <trkpt lat="42.239525" lon="2.420905">
        <ele>454</ele>
        <time>1970-01-01T00:28:01.000Z</time>
      </trkpt>
      <trkpt lat="42.239528" lon="2.420868">
        <ele>454</ele>
        <time>1970-01-01T00:28:02.000Z</time>
      </trkpt>
      <trkpt lat="42.239531" lon="2.420831">
        <ele>454</ele>
        <time>1970-01-01T00:28:03.000Z</time>
      </trkpt>
      <trkpt lat="42.239535" lon="2.420794">
        <ele>454</ele>
        <time>1970-01-01T00:28:04.000Z</time>
      </trkpt>
      <trkpt lat="42.239538" lon="2.420757">
        <ele>455</ele>
        <time>1970-01-01T00:28:05.000Z</time>
      </trkpt>
      <trkpt lat="42.23955" lon="2.42068">
        <ele>455</ele>
        <time>1970-01-01T00:28:06.000Z</time>
      </trkpt>
      <trkpt lat="42.239557" lon="2.420645">
        <ele>455</ele>
        <time>1970-01-01T00:28:07.000Z</time>
      </trkpt>
      <trkpt lat="42.239565" lon="2.420611">
        <ele>455</ele>
        <time>1970-01-01T00:28:08.000Z</time>
      </trkpt>
      <trkpt lat="42.239572" lon="2.420576">
        <ele>455</ele>
        <time>1970-01-01T00:28:09.000Z</time>
      </trkpt>
      <trkpt lat="42.239579" lon="2.420542">
        <ele>455</ele>
        <time>1970-01-01T00:28:10.000Z</time>
      </trkpt>
      <trkpt lat="42.239586" lon="2.420508">
        <ele>455</ele>
        <time>1970-01-01T00:28:11.000Z</time>
      </trkpt>
      <trkpt lat="42.239593" lon="2.420473">
        <ele>455</ele>
        <time>1970-01-01T00:28:12.000Z</time>
      </trkpt>
      <trkpt lat="42.239601" lon="2.420439">
        <ele>455</ele>
        <time>1970-01-01T00:28:13.000Z</time>
      </trkpt>
      <trkpt lat="42.239608" lon="2.420404">
        <ele>455</ele>
        <time>1970-01-01T00:28:14.000Z</time>
      </trkpt>
      <trkpt lat="42.239615" lon="2.42037">
        <ele>457</ele>
        <time>1970-01-01T00:28:15.000Z</time>
      </trkpt>
      <trkpt lat="42.239642" lon="2.420309">
        <ele>457</ele>
        <time>1970-01-01T00:28:16.000Z</time>
      </trkpt>
      <trkpt lat="42.239658" lon="2.420281">
        <ele>457</ele>
        <time>1970-01-01T00:28:17.000Z</time>
      </trkpt>
      <trkpt lat="42.239673" lon="2.420254">
        <ele>457</ele>
        <time>1970-01-01T00:28:18.000Z</time>
      </trkpt>
      <trkpt lat="42.239689" lon="2.420226">
        <ele>457</ele>
        <time>1970-01-01T00:28:19.000Z</time>
      </trkpt>
      <trkpt lat="42.239705" lon="2.420198">
        <ele>457</ele>
        <time>1970-01-01T00:28:20.000Z</time>
      </trkpt>
      <trkpt lat="42.239721" lon="2.42017">
        <ele>457</ele>
        <time>1970-01-01T00:28:21.000Z</time>
      </trkpt>
      <trkpt lat="42.239737" lon="2.420142">
        <ele>457</ele>
        <time>1970-01-01T00:28:22.000Z</time>
      </trkpt>
      <trkpt lat="42.239752" lon="2.420115">
        <ele>457</ele>
        <time>1970-01-01T00:28:23.000Z</time>
      </trkpt>
      <trkpt lat="42.239768" lon="2.420087">
        <ele>457</ele>
        <time>1970-01-01T00:28:24.000Z</time>
      </trkpt>
      <trkpt lat="42.239784" lon="2.420059">
        <ele>459</ele>
        <time>1970-01-01T00:28:25.000Z</time>
      </trkpt>
      <trkpt lat="42.239826" lon="2.420015">
        <ele>459</ele>
        <time>1970-01-01T00:28:26.000Z</time>
      </trkpt>
      <trkpt lat="42.239847" lon="2.419996">
        <ele>459</ele>
        <time>1970-01-01T00:28:27.000Z</time>
      </trkpt>
      <trkpt lat="42.239868" lon="2.419978">
        <ele>459</ele>
        <time>1970-01-01T00:28:28.000Z</time>
      </trkpt>
      <trkpt lat="42.239889" lon="2.419959">
        <ele>459</ele>
        <time>1970-01-01T00:28:29.000Z</time>
      </trkpt>
      <trkpt lat="42.23991" lon="2.419941">
        <ele>459</ele>
        <time>1970-01-01T00:28:30.000Z</time>
      </trkpt>
      <trkpt lat="42.239931" lon="2.419922">
        <ele>459</ele>
        <time>1970-01-01T00:28:31.000Z</time>
      </trkpt>
      <trkpt lat="42.239952" lon="2.419904">
        <ele>459</ele>
        <time>1970-01-01T00:28:32.000Z</time>
      </trkpt>
      <trkpt lat="42.239973" lon="2.419885">
        <ele>459</ele>
        <time>1970-01-01T00:28:33.000Z</time>
      </trkpt>
      <trkpt lat="42.239994" lon="2.419867">
        <ele>459</ele>
        <time>1970-01-01T00:28:34.000Z</time>
      </trkpt>
      <trkpt lat="42.240015" lon="2.419848">
        <ele>460</ele>
        <time>1970-01-01T00:28:35.000Z</time>
      </trkpt>
      <trkpt lat="42.240064" lon="2.419816">
        <ele>460</ele>
        <time>1970-01-01T00:28:36.000Z</time>
      </trkpt>
      <trkpt lat="42.240088" lon="2.419801">
        <ele>460</ele>
        <time>1970-01-01T00:28:37.000Z</time>
      </trkpt>
      <trkpt lat="42.240113" lon="2.419787">
        <ele>460</ele>
        <time>1970-01-01T00:28:38.000Z</time>
      </trkpt>
      <trkpt lat="42.240137" lon="2.419772">
        <ele>460</ele>
        <time>1970-01-01T00:28:39.000Z</time>
      </trkpt>
      <trkpt lat="42.240161" lon="2.419758">
        <ele>460</ele>
        <time>1970-01-01T00:28:40.000Z</time>
      </trkpt>
      <trkpt lat="42.240185" lon="2.419744">
        <ele>460</ele>
        <time>1970-01-01T00:28:41.000Z</time>
      </trkpt>
      <trkpt lat="42.240209" lon="2.419729">
        <ele>460</ele>
        <time>1970-01-01T00:28:42.000Z</time>
      </trkpt>
      <trkpt lat="42.240234" lon="2.419715">
        <ele>460</ele>
        <time>1970-01-01T00:28:43.000Z</time>
      </trkpt>
      <trkpt lat="42.240258" lon="2.4197">
        <ele>460</ele>
        <time>1970-01-01T00:28:44.000Z</time>
      </trkpt>
      <trkpt lat="42.240282" lon="2.419686">
        <ele>461</ele>
        <time>1970-01-01T00:28:45.000Z</time>
      </trkpt>
      <trkpt lat="42.240335" lon="2.419656">
        <ele>461</ele>
        <time>1970-01-01T00:28:46.000Z</time>
      </trkpt>
      <trkpt lat="42.240361" lon="2.419642">
        <ele>461</ele>
        <time>1970-01-01T00:28:47.000Z</time>
      </trkpt>
      <trkpt lat="42.240386" lon="2.419629">
        <ele>461</ele>
        <time>1970-01-01T00:28:48.000Z</time>
      </trkpt>
      <trkpt lat="42.240411" lon="2.419615">
        <ele>461</ele>
        <time>1970-01-01T00:28:49.000Z</time>
      </trkpt>
      <trkpt lat="42.240437" lon="2.419601">
        <ele>461</ele>
        <time>1970-01-01T00:28:50.000Z</time>
      </trkpt>
      <trkpt lat="42.240462" lon="2.419587">
        <ele>461</ele>
        <time>1970-01-01T00:28:51.000Z</time>
      </trkpt>
      <trkpt lat="42.240487" lon="2.419573">
        <ele>461</ele>
        <time>1970-01-01T00:28:52.000Z</time>
      </trkpt>
      <trkpt lat="42.240512" lon="2.41956">
        <ele>461</ele>
        <time>1970-01-01T00:28:53.000Z</time>
      </trkpt>
      <trkpt lat="42.240538" lon="2.419546">
        <ele>461</ele>
        <time>1970-01-01T00:28:54.000Z</time>
      </trkpt>
      <trkpt lat="42.240563" lon="2.419532">
        <ele>462</ele>
        <time>1970-01-01T00:28:55.000Z</time>
      </trkpt>
      <trkpt lat="42.240617" lon="2.419501">
        <ele>462</ele>
        <time>1970-01-01T00:28:56.000Z</time>
      </trkpt>
      <trkpt lat="42.240643" lon="2.419486">
        <ele>462</ele>
        <time>1970-01-01T00:28:57.000Z</time>
      </trkpt>
      <trkpt lat="42.240669" lon="2.419471">
        <ele>462</ele>
        <time>1970-01-01T00:28:58.000Z</time>
      </trkpt>
      <trkpt lat="42.240695" lon="2.419456">
        <ele>462</ele>
        <time>1970-01-01T00:28:59.000Z</time>
      </trkpt>
      <trkpt lat="42.240721" lon="2.419442">
        <ele>462</ele>
        <time>1970-01-01T00:29:00.000Z</time>
      </trkpt>
      <trkpt lat="42.240747" lon="2.419427">
        <ele>462</ele>
        <time>1970-01-01T00:29:01.000Z</time>
      </trkpt>
      <trkpt lat="42.240773" lon="2.419412">
        <ele>462</ele>
        <time>1970-01-01T00:29:02.000Z</time>
      </trkpt>
      <trkpt lat="42.240799" lon="2.419397">
        <ele>462</ele>
        <time>1970-01-01T00:29:03.000Z</time>
      </trkpt>
      <trkpt lat="42.240825" lon="2.419382">
        <ele>462</ele>
        <time>1970-01-01T00:29:04.000Z</time>
      </trkpt>
      <trkpt lat="42.240851" lon="2.419367">
        <ele>463</ele>
        <time>1970-01-01T00:29:05.000Z</time>
      </trkpt>
      <trkpt lat="42.240908" lon="2.419335">
        <ele>463</ele>
        <time>1970-01-01T00:29:06.000Z</time>
      </trkpt>
      <trkpt lat="42.240934" lon="2.419321">
        <ele>463</ele>
        <time>1970-01-01T00:29:07.000Z</time>
      </trkpt>
      <trkpt lat="42.24096" lon="2.419306">
        <ele>463</ele>
        <time>1970-01-01T00:29:08.000Z</time>
      </trkpt>
      <trkpt lat="42.240986" lon="2.419292">
        <ele>463</ele>
        <time>1970-01-01T00:29:09.000Z</time>
      </trkpt>
      <trkpt lat="42.241012" lon="2.419277">
        <ele>463</ele>
        <time>1970-01-01T00:29:10.000Z</time>
      </trkpt>
      <trkpt lat="42.241038" lon="2.419262">
        <ele>463</ele>
        <time>1970-01-01T00:29:11.000Z</time>
      </trkpt>
      <trkpt lat="42.241064" lon="2.419248">
        <ele>463</ele>
        <time>1970-01-01T00:29:12.000Z</time>
      </trkpt>
      <trkpt lat="42.24109" lon="2.419233">
        <ele>463</ele>
        <time>1970-01-01T00:29:13.000Z</time>
      </trkpt>
      <trkpt lat="42.241116" lon="2.419219">
        <ele>463</ele>
        <time>1970-01-01T00:29:14.000Z</time>
      </trkpt>
      <trkpt lat="42.241142" lon="2.419204">
        <ele>465</ele>
        <time>1970-01-01T00:29:15.000Z</time>
      </trkpt>
      <trkpt lat="42.241195" lon="2.419169">
        <ele>465</ele>
        <time>1970-01-01T00:29:16.000Z</time>
      </trkpt>
      <trkpt lat="42.241219" lon="2.419151">
        <ele>465</ele>
        <time>1970-01-01T00:29:17.000Z</time>
      </trkpt>
      <trkpt lat="42.241244" lon="2.419132">
        <ele>465</ele>
        <time>1970-01-01T00:29:18.000Z</time>
      </trkpt>
      <trkpt lat="42.241269" lon="2.419114">
        <ele>465</ele>
        <time>1970-01-01T00:29:19.000Z</time>
      </trkpt>
      <trkpt lat="42.241294" lon="2.419095">
        <ele>465</ele>
        <time>1970-01-01T00:29:20.000Z</time>
      </trkpt>
      <trkpt lat="42.241318" lon="2.419076">
        <ele>465</ele>
        <time>1970-01-01T00:29:21.000Z</time>
      </trkpt>
      <trkpt lat="42.241343" lon="2.419058">
        <ele>465</ele>
        <time>1970-01-01T00:29:22.000Z</time>
      </trkpt>
      <trkpt lat="42.241368" lon="2.419039">
        <ele>465</ele>
        <time>1970-01-01T00:29:23.000Z</time>
      </trkpt>
      <trkpt lat="42.241392" lon="2.419021">
        <ele>465</ele>
        <time>1970-01-01T00:29:24.000Z</time>
      </trkpt>
      <trkpt lat="42.241417" lon="2.419002">
        <ele>467</ele>
        <time>1970-01-01T00:29:25.000Z</time>
      </trkpt>
      <trkpt lat="42.241462" lon="2.418948">
        <ele>467</ele>
        <time>1970-01-01T00:29:26.000Z</time>
      </trkpt>
      <trkpt lat="42.241481" lon="2.418919">
        <ele>467</ele>
        <time>1970-01-01T00:29:27.000Z</time>
      </trkpt>
      <trkpt lat="42.2415" lon="2.41889">
        <ele>467</ele>
        <time>1970-01-01T00:29:28.000Z</time>
      </trkpt>
      <trkpt lat="42.241519" lon="2.418861">
        <ele>467</ele>
        <time>1970-01-01T00:29:29.000Z</time>
      </trkpt>
      <trkpt lat="42.241538" lon="2.418832">
        <ele>467</ele>
        <time>1970-01-01T00:29:30.000Z</time>
      </trkpt>
      <trkpt lat="42.241556" lon="2.418803">
        <ele>467</ele>
        <time>1970-01-01T00:29:31.000Z</time>
      </trkpt>
      <trkpt lat="42.241575" lon="2.418774">
        <ele>467</ele>
        <time>1970-01-01T00:29:32.000Z</time>
      </trkpt>
      <trkpt lat="42.241594" lon="2.418745">
        <ele>467</ele>
        <time>1970-01-01T00:29:33.000Z</time>
      </trkpt>
      <trkpt lat="42.241613" lon="2.418716">
        <ele>467</ele>
        <time>1970-01-01T00:29:34.000Z</time>
      </trkpt>
      <trkpt lat="42.241632" lon="2.418687">
        <ele>468</ele>
        <time>1970-01-01T00:29:35.000Z</time>
      </trkpt>
      <trkpt lat="42.241659" lon="2.418608">
        <ele>468</ele>
        <time>1970-01-01T00:29:36.000Z</time>
      </trkpt>
      <trkpt lat="42.241669" lon="2.418567">
        <ele>468</ele>
        <time>1970-01-01T00:29:37.000Z</time>
      </trkpt>
      <trkpt lat="42.241679" lon="2.418527">
        <ele>468</ele>
        <time>1970-01-01T00:29:38.000Z</time>
      </trkpt>
      <trkpt lat="42.241689" lon="2.418486">
        <ele>468</ele>
        <time>1970-01-01T00:29:39.000Z</time>
      </trkpt>
      <trkpt lat="42.2417" lon="2.418446">
        <ele>468</ele>
        <time>1970-01-01T00:29:40.000Z</time>
      </trkpt>
      <trkpt lat="42.24171" lon="2.418405">
        <ele>468</ele>
        <time>1970-01-01T00:29:41.000Z</time>
      </trkpt>
      <trkpt lat="42.24172" lon="2.418365">
        <ele>468</ele>
        <time>1970-01-01T00:29:42.000Z</time>
      </trkpt>
      <trkpt lat="42.24173" lon="2.418324">
        <ele>468</ele>
        <time>1970-01-01T00:29:43.000Z</time>
      </trkpt>
      <trkpt lat="42.24174" lon="2.418284">
        <ele>468</ele>
        <time>1970-01-01T00:29:44.000Z</time>
      </trkpt>
      <trkpt lat="42.24175" lon="2.418243">
        <ele>468</ele>
        <time>1970-01-01T00:29:45.000Z</time>
      </trkpt>
      <trkpt lat="42.241761" lon="2.418155">
        <ele>468</ele>
        <time>1970-01-01T00:29:46.000Z</time>
      </trkpt>
      <trkpt lat="42.241766" lon="2.418114">
        <ele>468</ele>
        <time>1970-01-01T00:29:47.000Z</time>
      </trkpt>
      <trkpt lat="42.241771" lon="2.418074">
        <ele>468</ele>
        <time>1970-01-01T00:29:48.000Z</time>
      </trkpt>
      <trkpt lat="42.241776" lon="2.418033">
        <ele>468</ele>
        <time>1970-01-01T00:29:49.000Z</time>
      </trkpt>
      <trkpt lat="42.241782" lon="2.417993">
        <ele>468</ele>
        <time>1970-01-01T00:29:50.000Z</time>
      </trkpt>
      <trkpt lat="42.241787" lon="2.417952">
        <ele>468</ele>
        <time>1970-01-01T00:29:51.000Z</time>
      </trkpt>
      <trkpt lat="42.241792" lon="2.417912">
        <ele>468</ele>
        <time>1970-01-01T00:29:52.000Z</time>
      </trkpt>
      <trkpt lat="42.241797" lon="2.417871">
        <ele>468</ele>
        <time>1970-01-01T00:29:53.000Z</time>
      </trkpt>
      <trkpt lat="42.241802" lon="2.417831">
        <ele>468</ele>
        <time>1970-01-01T00:29:54.000Z</time>
      </trkpt>
      <trkpt lat="42.241807" lon="2.41779">
        <ele>469</ele>
        <time>1970-01-01T00:29:55.000Z</time>
      </trkpt>
      <trkpt lat="42.241816" lon="2.417713">
        <ele>469</ele>
        <time>1970-01-01T00:29:56.000Z</time>
      </trkpt>
      <trkpt lat="42.241819" lon="2.417677">
        <ele>469</ele>
        <time>1970-01-01T00:29:57.000Z</time>
      </trkpt>
      <trkpt lat="42.241823" lon="2.417642">
        <ele>469</ele>
        <time>1970-01-01T00:29:58.000Z</time>
      </trkpt>
      <trkpt lat="42.241826" lon="2.417607">
        <ele>469</ele>
        <time>1970-01-01T00:29:59.000Z</time>
      </trkpt>
      <trkpt lat="42.24183" lon="2.417572">
        <ele>469</ele>
        <time>1970-01-01T00:30:00.000Z</time>
      </trkpt>
      <trkpt lat="42.241833" lon="2.417536">
        <ele>469</ele>
        <time>1970-01-01T00:30:01.000Z</time>
      </trkpt>
      <trkpt lat="42.241837" lon="2.417501">
        <ele>469</ele>
        <time>1970-01-01T00:30:02.000Z</time>
      </trkpt>
      <trkpt lat="42.24184" lon="2.417466">
        <ele>469</ele>
        <time>1970-01-01T00:30:03.000Z</time>
      </trkpt>
      <trkpt lat="42.241844" lon="2.41743">
        <ele>469</ele>
        <time>1970-01-01T00:30:04.000Z</time>
      </trkpt>
      <trkpt lat="42.241847" lon="2.417395">
        <ele>469</ele>
        <time>1970-01-01T00:30:05.000Z</time>
      </trkpt>
      <trkpt lat="42.241853" lon="2.417323">
        <ele>469</ele>
        <time>1970-01-01T00:30:06.000Z</time>
      </trkpt>
      <trkpt lat="42.241856" lon="2.417289">
        <ele>469</ele>
        <time>1970-01-01T00:30:07.000Z</time>
      </trkpt>
      <trkpt lat="42.24186" lon="2.417256">
        <ele>469</ele>
        <time>1970-01-01T00:30:08.000Z</time>
      </trkpt>
      <trkpt lat="42.241863" lon="2.417222">
        <ele>469</ele>
        <time>1970-01-01T00:30:09.000Z</time>
      </trkpt>
      <trkpt lat="42.241867" lon="2.417189">
        <ele>469</ele>
        <time>1970-01-01T00:30:10.000Z</time>
      </trkpt>
      <trkpt lat="42.241871" lon="2.417156">
        <ele>469</ele>
        <time>1970-01-01T00:30:11.000Z</time>
      </trkpt>
      <trkpt lat="42.241874" lon="2.417122">
        <ele>469</ele>
        <time>1970-01-01T00:30:12.000Z</time>
      </trkpt>
      <trkpt lat="42.241878" lon="2.417089">
        <ele>469</ele>
        <time>1970-01-01T00:30:13.000Z</time>
      </trkpt>
      <trkpt lat="42.241881" lon="2.417055">
        <ele>469</ele>
        <time>1970-01-01T00:30:14.000Z</time>
      </trkpt>
      <trkpt lat="42.241885" lon="2.417022">
        <ele>472</ele>
        <time>1970-01-01T00:30:15.000Z</time>
      </trkpt>
      <trkpt lat="42.241895" lon="2.416952">
        <ele>472</ele>
        <time>1970-01-01T00:30:16.000Z</time>
      </trkpt>
      <trkpt lat="42.2419" lon="2.416919">
        <ele>472</ele>
        <time>1970-01-01T00:30:17.000Z</time>
      </trkpt>
      <trkpt lat="42.241905" lon="2.416886">
        <ele>472</ele>
        <time>1970-01-01T00:30:18.000Z</time>
      </trkpt>
      <trkpt lat="42.24191" lon="2.416853">
        <ele>472</ele>
        <time>1970-01-01T00:30:19.000Z</time>
      </trkpt>
      <trkpt lat="42.241915" lon="2.41682">
        <ele>472</ele>
        <time>1970-01-01T00:30:20.000Z</time>
      </trkpt>
      <trkpt lat="42.241919" lon="2.416786">
        <ele>472</ele>
        <time>1970-01-01T00:30:21.000Z</time>
      </trkpt>
      <trkpt lat="42.241924" lon="2.416753">
        <ele>472</ele>
        <time>1970-01-01T00:30:22.000Z</time>
      </trkpt>
      <trkpt lat="42.241929" lon="2.41672">
        <ele>472</ele>
        <time>1970-01-01T00:30:23.000Z</time>
      </trkpt>
      <trkpt lat="42.241934" lon="2.416687">
        <ele>472</ele>
        <time>1970-01-01T00:30:24.000Z</time>
      </trkpt>
      <trkpt lat="42.241939" lon="2.416654">
        <ele>473</ele>
        <time>1970-01-01T00:30:25.000Z</time>
      </trkpt>
      <trkpt lat="42.241954" lon="2.416583">
        <ele>473</ele>
        <time>1970-01-01T00:30:26.000Z</time>
      </trkpt>
      <trkpt lat="42.241963" lon="2.41655">
        <ele>473</ele>
        <time>1970-01-01T00:30:27.000Z</time>
      </trkpt>
      <trkpt lat="42.241971" lon="2.416518">
        <ele>473</ele>
        <time>1970-01-01T00:30:28.000Z</time>
      </trkpt>
      <trkpt lat="42.24198" lon="2.416485">
        <ele>473</ele>
        <time>1970-01-01T00:30:29.000Z</time>
      </trkpt>
      <trkpt lat="42.241989" lon="2.416453">
        <ele>473</ele>
        <time>1970-01-01T00:30:30.000Z</time>
      </trkpt>
      <trkpt lat="42.241998" lon="2.416421">
        <ele>473</ele>
        <time>1970-01-01T00:30:31.000Z</time>
      </trkpt>
      <trkpt lat="42.242007" lon="2.416388">
        <ele>473</ele>
        <time>1970-01-01T00:30:32.000Z</time>
      </trkpt>
      <trkpt lat="42.242015" lon="2.416356">
        <ele>473</ele>
        <time>1970-01-01T00:30:33.000Z</time>
      </trkpt>
      <trkpt lat="42.242024" lon="2.416323">
        <ele>473</ele>
        <time>1970-01-01T00:30:34.000Z</time>
      </trkpt>
      <trkpt lat="42.242033" lon="2.416291">
        <ele>474</ele>
        <time>1970-01-01T00:30:35.000Z</time>
      </trkpt>
      <trkpt lat="42.242056" lon="2.416224">
        <ele>474</ele>
        <time>1970-01-01T00:30:36.000Z</time>
      </trkpt>
      <trkpt lat="42.242067" lon="2.416193">
        <ele>474</ele>
        <time>1970-01-01T00:30:37.000Z</time>
      </trkpt>
      <trkpt lat="42.242079" lon="2.416162">
        <ele>474</ele>
        <time>1970-01-01T00:30:38.000Z</time>
      </trkpt>
      <trkpt lat="42.24209" lon="2.416131">
        <ele>474</ele>
        <time>1970-01-01T00:30:39.000Z</time>
      </trkpt>
      <trkpt lat="42.242101" lon="2.4161">
        <ele>474</ele>
        <time>1970-01-01T00:30:40.000Z</time>
      </trkpt>
      <trkpt lat="42.242112" lon="2.416069">
        <ele>474</ele>
        <time>1970-01-01T00:30:41.000Z</time>
      </trkpt>
      <trkpt lat="42.242123" lon="2.416038">
        <ele>474</ele>
        <time>1970-01-01T00:30:42.000Z</time>
      </trkpt>
      <trkpt lat="42.242135" lon="2.416007">
        <ele>474</ele>
        <time>1970-01-01T00:30:43.000Z</time>
      </trkpt>
      <trkpt lat="42.242146" lon="2.415976">
        <ele>474</ele>
        <time>1970-01-01T00:30:44.000Z</time>
      </trkpt>
      <trkpt lat="42.242157" lon="2.415945">
        <ele>476</ele>
        <time>1970-01-01T00:30:45.000Z</time>
      </trkpt>
      <trkpt lat="42.242183" lon="2.415889">
        <ele>476</ele>
        <time>1970-01-01T00:30:46.000Z</time>
      </trkpt>
      <trkpt lat="42.242195" lon="2.415864">
        <ele>476</ele>
        <time>1970-01-01T00:30:47.000Z</time>
      </trkpt>
      <trkpt lat="42.242208" lon="2.41584">
        <ele>476</ele>
        <time>1970-01-01T00:30:48.000Z</time>
      </trkpt>
      <trkpt lat="42.242221" lon="2.415816">
        <ele>476</ele>
        <time>1970-01-01T00:30:49.000Z</time>
      </trkpt>
      <trkpt lat="42.242234" lon="2.415792">
        <ele>476</ele>
        <time>1970-01-01T00:30:50.000Z</time>
      </trkpt>
      <trkpt lat="42.242246" lon="2.415767">
        <ele>476</ele>
        <time>1970-01-01T00:30:51.000Z</time>
      </trkpt>
      <trkpt lat="42.242259" lon="2.415743">
        <ele>476</ele>
        <time>1970-01-01T00:30:52.000Z</time>
      </trkpt>
      <trkpt lat="42.242272" lon="2.415719">
        <ele>476</ele>
        <time>1970-01-01T00:30:53.000Z</time>
      </trkpt>
      <trkpt lat="42.242284" lon="2.415694">
        <ele>476</ele>
        <time>1970-01-01T00:30:54.000Z</time>
      </trkpt>
      <trkpt lat="42.242297" lon="2.41567">
        <ele>477</ele>
        <time>1970-01-01T00:30:55.000Z</time>
      </trkpt>
      <trkpt lat="42.242322" lon="2.41562">
        <ele>477</ele>
        <time>1970-01-01T00:30:56.000Z</time>
      </trkpt>
      <trkpt lat="42.242335" lon="2.415596">
        <ele>477</ele>
        <time>1970-01-01T00:30:57.000Z</time>
      </trkpt>
      <trkpt lat="42.242347" lon="2.415573">
        <ele>477</ele>
        <time>1970-01-01T00:30:58.000Z</time>
      </trkpt>
      <trkpt lat="42.242359" lon="2.415549">
        <ele>477</ele>
        <time>1970-01-01T00:30:59.000Z</time>
      </trkpt>
      <trkpt lat="42.242372" lon="2.415526">
        <ele>477</ele>
        <time>1970-01-01T00:31:00.000Z</time>
      </trkpt>
      <trkpt lat="42.242384" lon="2.415503">
        <ele>477</ele>
        <time>1970-01-01T00:31:01.000Z</time>
      </trkpt>
      <trkpt lat="42.242396" lon="2.415479">
        <ele>477</ele>
        <time>1970-01-01T00:31:02.000Z</time>
      </trkpt>
      <trkpt lat="42.242408" lon="2.415456">
        <ele>477</ele>
        <time>1970-01-01T00:31:03.000Z</time>
      </trkpt>
      <trkpt lat="42.242421" lon="2.415432">
        <ele>477</ele>
        <time>1970-01-01T00:31:04.000Z</time>
      </trkpt>
      <trkpt lat="42.242433" lon="2.415409">
        <ele>479</ele>
        <time>1970-01-01T00:31:05.000Z</time>
      </trkpt>
      <trkpt lat="42.242456" lon="2.415356">
        <ele>479</ele>
        <time>1970-01-01T00:31:06.000Z</time>
      </trkpt>
      <trkpt lat="42.242467" lon="2.415332">
        <ele>479</ele>
        <time>1970-01-01T00:31:07.000Z</time>
      </trkpt>
      <trkpt lat="42.242479" lon="2.415307">
        <ele>479</ele>
        <time>1970-01-01T00:31:08.000Z</time>
      </trkpt>
      <trkpt lat="42.24249" lon="2.415282">
        <ele>479</ele>
        <time>1970-01-01T00:31:09.000Z</time>
      </trkpt>
      <trkpt lat="42.242501" lon="2.415258">
        <ele>479</ele>
        <time>1970-01-01T00:31:10.000Z</time>
      </trkpt>
      <trkpt lat="42.242512" lon="2.415233">
        <ele>479</ele>
        <time>1970-01-01T00:31:11.000Z</time>
      </trkpt>
      <trkpt lat="42.242523" lon="2.415208">
        <ele>479</ele>
        <time>1970-01-01T00:31:12.000Z</time>
      </trkpt>
      <trkpt lat="42.242535" lon="2.415183">
        <ele>479</ele>
        <time>1970-01-01T00:31:13.000Z</time>
      </trkpt>
      <trkpt lat="42.242546" lon="2.415159">
        <ele>479</ele>
        <time>1970-01-01T00:31:14.000Z</time>
      </trkpt>
      <trkpt lat="42.242557" lon="2.415134">
        <ele>480</ele>
        <time>1970-01-01T00:31:15.000Z</time>
      </trkpt>
      <trkpt lat="42.242574" lon="2.415074">
        <ele>480</ele>
        <time>1970-01-01T00:31:16.000Z</time>
      </trkpt>
      <trkpt lat="42.242582" lon="2.415046">
        <ele>480</ele>
        <time>1970-01-01T00:31:17.000Z</time>
      </trkpt>
      <trkpt lat="42.24259" lon="2.415019">
        <ele>480</ele>
        <time>1970-01-01T00:31:18.000Z</time>
      </trkpt>
      <trkpt lat="42.242598" lon="2.414991">
        <ele>480</ele>
        <time>1970-01-01T00:31:19.000Z</time>
      </trkpt>
      <trkpt lat="42.242606" lon="2.414964">
        <ele>480</ele>
        <time>1970-01-01T00:31:20.000Z</time>
      </trkpt>
      <trkpt lat="42.242614" lon="2.414936">
        <ele>480</ele>
        <time>1970-01-01T00:31:21.000Z</time>
      </trkpt>
      <trkpt lat="42.242622" lon="2.414909">
        <ele>480</ele>
        <time>1970-01-01T00:31:22.000Z</time>
      </trkpt>
      <trkpt lat="42.24263" lon="2.414881">
        <ele>480</ele>
        <time>1970-01-01T00:31:23.000Z</time>
      </trkpt>
      <trkpt lat="42.242638" lon="2.414854">
        <ele>480</ele>
        <time>1970-01-01T00:31:24.000Z</time>
      </trkpt>
      <trkpt lat="42.242646" lon="2.414826">
        <ele>482</ele>
        <time>1970-01-01T00:31:25.000Z</time>
      </trkpt>
      <trkpt lat="42.24266" lon="2.414766">
        <ele>482</ele>
        <time>1970-01-01T00:31:26.000Z</time>
      </trkpt>
      <trkpt lat="42.242665" lon="2.414736">
        <ele>482</ele>
        <time>1970-01-01T00:31:27.000Z</time>
      </trkpt>
      <trkpt lat="42.242671" lon="2.414707">
        <ele>482</ele>
        <time>1970-01-01T00:31:28.000Z</time>
      </trkpt>
      <trkpt lat="42.242676" lon="2.414677">
        <ele>482</ele>
        <time>1970-01-01T00:31:29.000Z</time>
      </trkpt>
      <trkpt lat="42.242682" lon="2.414648">
        <ele>482</ele>
        <time>1970-01-01T00:31:30.000Z</time>
      </trkpt>
      <trkpt lat="42.242688" lon="2.414619">
        <ele>482</ele>
        <time>1970-01-01T00:31:31.000Z</time>
      </trkpt>
      <trkpt lat="42.242693" lon="2.414589">
        <ele>482</ele>
        <time>1970-01-01T00:31:32.000Z</time>
      </trkpt>
      <trkpt lat="42.242699" lon="2.41456">
        <ele>482</ele>
        <time>1970-01-01T00:31:33.000Z</time>
      </trkpt>
      <trkpt lat="42.242704" lon="2.41453">
        <ele>482</ele>
        <time>1970-01-01T00:31:34.000Z</time>
      </trkpt>
      <trkpt lat="42.24271" lon="2.414501">
        <ele>484</ele>
        <time>1970-01-01T00:31:35.000Z</time>
      </trkpt>
      <trkpt lat="42.242718" lon="2.414439">
        <ele>484</ele>
        <time>1970-01-01T00:31:36.000Z</time>
      </trkpt>
      <trkpt lat="42.242721" lon="2.414409">
        <ele>484</ele>
        <time>1970-01-01T00:31:37.000Z</time>
      </trkpt>
      <trkpt lat="42.242725" lon="2.41438">
        <ele>484</ele>
        <time>1970-01-01T00:31:38.000Z</time>
      </trkpt>
      <trkpt lat="42.242728" lon="2.41435">
        <ele>484</ele>
        <time>1970-01-01T00:31:39.000Z</time>
      </trkpt>
      <trkpt lat="42.242732" lon="2.414321">
        <ele>484</ele>
        <time>1970-01-01T00:31:40.000Z</time>
      </trkpt>
      <trkpt lat="42.242736" lon="2.414292">
        <ele>484</ele>
        <time>1970-01-01T00:31:41.000Z</time>
      </trkpt>
      <trkpt lat="42.242739" lon="2.414262">
        <ele>484</ele>
        <time>1970-01-01T00:31:42.000Z</time>
      </trkpt>
      <trkpt lat="42.242743" lon="2.414233">
        <ele>484</ele>
        <time>1970-01-01T00:31:43.000Z</time>
      </trkpt>
      <trkpt lat="42.242746" lon="2.414203">
        <ele>484</ele>
        <time>1970-01-01T00:31:44.000Z</time>
      </trkpt>
      <trkpt lat="42.24275" lon="2.414174">
        <ele>485</ele>
        <time>1970-01-01T00:31:45.000Z</time>
      </trkpt>
      <trkpt lat="42.242756" lon="2.414111">
        <ele>485</ele>
        <time>1970-01-01T00:31:46.000Z</time>
      </trkpt>
      <trkpt lat="42.242759" lon="2.41408">
        <ele>485</ele>
        <time>1970-01-01T00:31:47.000Z</time>
      </trkpt>
      <trkpt lat="42.242763" lon="2.41405">
        <ele>485</ele>
        <time>1970-01-01T00:31:48.000Z</time>
      </trkpt>
      <trkpt lat="42.242766" lon="2.41402">
        <ele>485</ele>
        <time>1970-01-01T00:31:49.000Z</time>
      </trkpt>
      <trkpt lat="42.242769" lon="2.41399">
        <ele>485</ele>
        <time>1970-01-01T00:31:50.000Z</time>
      </trkpt>
      <trkpt lat="42.242772" lon="2.413959">
        <ele>485</ele>
        <time>1970-01-01T00:31:51.000Z</time>
      </trkpt>
      <trkpt lat="42.242775" lon="2.413929">
        <ele>485</ele>
        <time>1970-01-01T00:31:52.000Z</time>
      </trkpt>
      <trkpt lat="42.242779" lon="2.413899">
        <ele>485</ele>
        <time>1970-01-01T00:31:53.000Z</time>
      </trkpt>
      <trkpt lat="42.242782" lon="2.413868">
        <ele>485</ele>
        <time>1970-01-01T00:31:54.000Z</time>
      </trkpt>
      <trkpt lat="42.242785" lon="2.413838">
        <ele>487</ele>
        <time>1970-01-01T00:31:55.000Z</time>
      </trkpt>
      <trkpt lat="42.242792" lon="2.413776">
        <ele>487</ele>
        <time>1970-01-01T00:31:56.000Z</time>
      </trkpt>
      <trkpt lat="42.242796" lon="2.413746">
        <ele>487</ele>
        <time>1970-01-01T00:31:57.000Z</time>
      </trkpt>
      <trkpt lat="42.242799" lon="2.413717">
        <ele>487</ele>
        <time>1970-01-01T00:31:58.000Z</time>
      </trkpt>
      <trkpt lat="42.242802" lon="2.413688">
        <ele>487</ele>
        <time>1970-01-01T00:31:59.000Z</time>
      </trkpt>
      <trkpt lat="42.242806" lon="2.413659">
        <ele>487</ele>
        <time>1970-01-01T00:32:00.000Z</time>
      </trkpt>
      <trkpt lat="42.242809" lon="2.413629">
        <ele>487</ele>
        <time>1970-01-01T00:32:01.000Z</time>
      </trkpt>
      <trkpt lat="42.242812" lon="2.4136">
        <ele>487</ele>
        <time>1970-01-01T00:32:02.000Z</time>
      </trkpt>
      <trkpt lat="42.242815" lon="2.413571">
        <ele>487</ele>
        <time>1970-01-01T00:32:03.000Z</time>
      </trkpt>
      <trkpt lat="42.242819" lon="2.413541">
        <ele>487</ele>
        <time>1970-01-01T00:32:04.000Z</time>
      </trkpt>
      <trkpt lat="42.242822" lon="2.413512">
        <ele>489</ele>
        <time>1970-01-01T00:32:05.000Z</time>
      </trkpt>
      <trkpt lat="42.242828" lon="2.413449">
        <ele>489</ele>
        <time>1970-01-01T00:32:06.000Z</time>
      </trkpt>
      <trkpt lat="42.242831" lon="2.413418">
        <ele>489</ele>
        <time>1970-01-01T00:32:07.000Z</time>
      </trkpt>
      <trkpt lat="42.242834" lon="2.413388">
        <ele>489</ele>
        <time>1970-01-01T00:32:08.000Z</time>
      </trkpt>
      <trkpt lat="42.242837" lon="2.413358">
        <ele>489</ele>
        <time>1970-01-01T00:32:09.000Z</time>
      </trkpt>
      <trkpt lat="42.24284" lon="2.413328">
        <ele>489</ele>
        <time>1970-01-01T00:32:10.000Z</time>
      </trkpt>
      <trkpt lat="42.242843" lon="2.413297">
        <ele>489</ele>
        <time>1970-01-01T00:32:11.000Z</time>
      </trkpt>
      <trkpt lat="42.242846" lon="2.413267">
        <ele>489</ele>
        <time>1970-01-01T00:32:12.000Z</time>
      </trkpt>
      <trkpt lat="42.242849" lon="2.413237">
        <ele>489</ele>
        <time>1970-01-01T00:32:13.000Z</time>
      </trkpt>
      <trkpt lat="42.242852" lon="2.413206">
        <ele>489</ele>
        <time>1970-01-01T00:32:14.000Z</time>
      </trkpt>
      <trkpt lat="42.242855" lon="2.413176">
        <ele>492</ele>
        <time>1970-01-01T00:32:15.000Z</time>
      </trkpt>
      <trkpt lat="42.242859" lon="2.413113">
        <ele>492</ele>
        <time>1970-01-01T00:32:16.000Z</time>
      </trkpt>
      <trkpt lat="42.24286" lon="2.413083">
        <ele>492</ele>
        <time>1970-01-01T00:32:17.000Z</time>
      </trkpt>
      <trkpt lat="42.242862" lon="2.413054">
        <ele>492</ele>
        <time>1970-01-01T00:32:18.000Z</time>
      </trkpt>
      <trkpt lat="42.242864" lon="2.413024">
        <ele>492</ele>
        <time>1970-01-01T00:32:19.000Z</time>
      </trkpt>
      <trkpt lat="42.242866" lon="2.412994">
        <ele>492</ele>
        <time>1970-01-01T00:32:20.000Z</time>
      </trkpt>
      <trkpt lat="42.242867" lon="2.412964">
        <ele>492</ele>
        <time>1970-01-01T00:32:21.000Z</time>
      </trkpt>
      <trkpt lat="42.242869" lon="2.412934">
        <ele>492</ele>
        <time>1970-01-01T00:32:22.000Z</time>
      </trkpt>
      <trkpt lat="42.242871" lon="2.412905">
        <ele>492</ele>
        <time>1970-01-01T00:32:23.000Z</time>
      </trkpt>
      <trkpt lat="42.242872" lon="2.412875">
        <ele>492</ele>
        <time>1970-01-01T00:32:24.000Z</time>
      </trkpt>
      <trkpt lat="42.242874" lon="2.412845">
        <ele>492</ele>
        <time>1970-01-01T00:32:25.000Z</time>
      </trkpt>
      <trkpt lat="42.242876" lon="2.412776">
        <ele>492</ele>
        <time>1970-01-01T00:32:26.000Z</time>
      </trkpt>
      <trkpt lat="42.242877" lon="2.412743">
        <ele>492</ele>
        <time>1970-01-01T00:32:27.000Z</time>
      </trkpt>
      <trkpt lat="42.242878" lon="2.412709">
        <ele>492</ele>
        <time>1970-01-01T00:32:28.000Z</time>
      </trkpt>
      <trkpt lat="42.242879" lon="2.412675">
        <ele>492</ele>
        <time>1970-01-01T00:32:29.000Z</time>
      </trkpt>
      <trkpt lat="42.24288" lon="2.412642">
        <ele>492</ele>
        <time>1970-01-01T00:32:30.000Z</time>
      </trkpt>
      <trkpt lat="42.24288" lon="2.412608">
        <ele>492</ele>
        <time>1970-01-01T00:32:31.000Z</time>
      </trkpt>
      <trkpt lat="42.242881" lon="2.412574">
        <ele>492</ele>
        <time>1970-01-01T00:32:32.000Z</time>
      </trkpt>
      <trkpt lat="42.242882" lon="2.41254">
        <ele>492</ele>
        <time>1970-01-01T00:32:33.000Z</time>
      </trkpt>
      <trkpt lat="42.242883" lon="2.412507">
        <ele>492</ele>
        <time>1970-01-01T00:32:34.000Z</time>
      </trkpt>
      <trkpt lat="42.242884" lon="2.412473">
        <ele>493</ele>
        <time>1970-01-01T00:32:35.000Z</time>
      </trkpt>
      <trkpt lat="42.242883" lon="2.412396">
        <ele>493</ele>
        <time>1970-01-01T00:32:36.000Z</time>
      </trkpt>
      <trkpt lat="42.242883" lon="2.412357">
        <ele>493</ele>
        <time>1970-01-01T00:32:37.000Z</time>
      </trkpt>
      <trkpt lat="42.242883" lon="2.412319">
        <ele>493</ele>
        <time>1970-01-01T00:32:38.000Z</time>
      </trkpt>
      <trkpt lat="42.242883" lon="2.41228">
        <ele>493</ele>
        <time>1970-01-01T00:32:39.000Z</time>
      </trkpt>
      <trkpt lat="42.242883" lon="2.412242">
        <ele>493</ele>
        <time>1970-01-01T00:32:40.000Z</time>
      </trkpt>
      <trkpt lat="42.242883" lon="2.412203">
        <ele>493</ele>
        <time>1970-01-01T00:32:41.000Z</time>
      </trkpt>
      <trkpt lat="42.242883" lon="2.412165">
        <ele>493</ele>
        <time>1970-01-01T00:32:42.000Z</time>
      </trkpt>
      <trkpt lat="42.242883" lon="2.412126">
        <ele>493</ele>
        <time>1970-01-01T00:32:43.000Z</time>
      </trkpt>
      <trkpt lat="42.242883" lon="2.412088">
        <ele>493</ele>
        <time>1970-01-01T00:32:44.000Z</time>
      </trkpt>
      <trkpt lat="42.242883" lon="2.412049">
        <ele>495</ele>
        <time>1970-01-01T00:32:45.000Z</time>
      </trkpt>
      <trkpt lat="42.242882" lon="2.411961">
        <ele>495</ele>
        <time>1970-01-01T00:32:46.000Z</time>
      </trkpt>
      <trkpt lat="42.242881" lon="2.411919">
        <ele>495</ele>
        <time>1970-01-01T00:32:47.000Z</time>
      </trkpt>
      <trkpt lat="42.242881" lon="2.411878">
        <ele>495</ele>
        <time>1970-01-01T00:32:48.000Z</time>
      </trkpt>
      <trkpt lat="42.24288" lon="2.411836">
        <ele>495</ele>
        <time>1970-01-01T00:32:49.000Z</time>
      </trkpt>
      <trkpt lat="42.24288" lon="2.411795">
        <ele>495</ele>
        <time>1970-01-01T00:32:50.000Z</time>
      </trkpt>
      <trkpt lat="42.242879" lon="2.411754">
        <ele>495</ele>
        <time>1970-01-01T00:32:51.000Z</time>
      </trkpt>
      <trkpt lat="42.242879" lon="2.411712">
        <ele>495</ele>
        <time>1970-01-01T00:32:52.000Z</time>
      </trkpt>
      <trkpt lat="42.242878" lon="2.411671">
        <ele>495</ele>
        <time>1970-01-01T00:32:53.000Z</time>
      </trkpt>
      <trkpt lat="42.242878" lon="2.411629">
        <ele>495</ele>
        <time>1970-01-01T00:32:54.000Z</time>
      </trkpt>
      <trkpt lat="42.242877" lon="2.411588">
        <ele>497</ele>
        <time>1970-01-01T00:32:55.000Z</time>
      </trkpt>
      <trkpt lat="42.242879" lon="2.411499">
        <ele>497</ele>
        <time>1970-01-01T00:32:56.000Z</time>
      </trkpt>
      <trkpt lat="42.242881" lon="2.411458">
        <ele>497</ele>
        <time>1970-01-01T00:32:57.000Z</time>
      </trkpt>
      <trkpt lat="42.242882" lon="2.411416">
        <ele>497</ele>
        <time>1970-01-01T00:32:58.000Z</time>
      </trkpt>
      <trkpt lat="42.242884" lon="2.411375">
        <ele>497</ele>
        <time>1970-01-01T00:32:59.000Z</time>
      </trkpt>
      <trkpt lat="42.242886" lon="2.411333">
        <ele>497</ele>
        <time>1970-01-01T00:33:00.000Z</time>
      </trkpt>
      <trkpt lat="42.242888" lon="2.411291">
        <ele>497</ele>
        <time>1970-01-01T00:33:01.000Z</time>
      </trkpt>
      <trkpt lat="42.24289" lon="2.41125">
        <ele>497</ele>
        <time>1970-01-01T00:33:02.000Z</time>
      </trkpt>
      <trkpt lat="42.242891" lon="2.411208">
        <ele>497</ele>
        <time>1970-01-01T00:33:03.000Z</time>
      </trkpt>
      <trkpt lat="42.242893" lon="2.411167">
        <ele>497</ele>
        <time>1970-01-01T00:33:04.000Z</time>
      </trkpt>
      <trkpt lat="42.242895" lon="2.411125">
        <ele>497</ele>
        <time>1970-01-01T00:33:05.000Z</time>
      </trkpt>
      <trkpt lat="42.242896" lon="2.411027">
        <ele>497</ele>
        <time>1970-01-01T00:33:06.000Z</time>
      </trkpt>
      <trkpt lat="42.242898" lon="2.41098">
        <ele>497</ele>
        <time>1970-01-01T00:33:07.000Z</time>
      </trkpt>
      <trkpt lat="42.242899" lon="2.410933">
        <ele>497</ele>
        <time>1970-01-01T00:33:08.000Z</time>
      </trkpt>
      <trkpt lat="42.2429" lon="2.410886">
        <ele>497</ele>
        <time>1970-01-01T00:33:09.000Z</time>
      </trkpt>
      <trkpt lat="42.242902" lon="2.410839">
        <ele>497</ele>
        <time>1970-01-01T00:33:10.000Z</time>
      </trkpt>
      <trkpt lat="42.242903" lon="2.410791">
        <ele>497</ele>
        <time>1970-01-01T00:33:11.000Z</time>
      </trkpt>
      <trkpt lat="42.242904" lon="2.410744">
        <ele>497</ele>
        <time>1970-01-01T00:33:12.000Z</time>
      </trkpt>
      <trkpt lat="42.242905" lon="2.410697">
        <ele>497</ele>
        <time>1970-01-01T00:33:13.000Z</time>
      </trkpt>
      <trkpt lat="42.242907" lon="2.41065">
        <ele>497</ele>
        <time>1970-01-01T00:33:14.000Z</time>
      </trkpt>
      <trkpt lat="42.242908" lon="2.410603">
        <ele>497</ele>
        <time>1970-01-01T00:33:15.000Z</time>
      </trkpt>
      <trkpt lat="42.242911" lon="2.410522">
        <ele>497</ele>
        <time>1970-01-01T00:33:16.000Z</time>
      </trkpt>
      <trkpt lat="42.242911" lon="2.410487">
        <ele>497</ele>
        <time>1970-01-01T00:33:17.000Z</time>
      </trkpt>
      <trkpt lat="42.242912" lon="2.410453">
        <ele>497</ele>
        <time>1970-01-01T00:33:18.000Z</time>
      </trkpt>
      <trkpt lat="42.242912" lon="2.410418">
        <ele>497</ele>
        <time>1970-01-01T00:33:19.000Z</time>
      </trkpt>
      <trkpt lat="42.242913" lon="2.410383">
        <ele>497</ele>
        <time>1970-01-01T00:33:20.000Z</time>
      </trkpt>
      <trkpt lat="42.242914" lon="2.410348">
        <ele>497</ele>
        <time>1970-01-01T00:33:21.000Z</time>
      </trkpt>
      <trkpt lat="42.242914" lon="2.410313">
        <ele>497</ele>
        <time>1970-01-01T00:33:22.000Z</time>
      </trkpt>
      <trkpt lat="42.242915" lon="2.410279">
        <ele>497</ele>
        <time>1970-01-01T00:33:23.000Z</time>
      </trkpt>
      <trkpt lat="42.242915" lon="2.410244">
        <ele>497</ele>
        <time>1970-01-01T00:33:24.000Z</time>
      </trkpt>
      <trkpt lat="42.242916" lon="2.410209">
        <ele>497</ele>
        <time>1970-01-01T00:33:25.000Z</time>
      </trkpt>
      <trkpt lat="42.242915" lon="2.410177">
        <ele>497</ele>
        <time>1970-01-01T00:33:26.000Z</time>
      </trkpt>
      <trkpt lat="42.242915" lon="2.410149">
        <ele>497</ele>
        <time>1970-01-01T00:33:27.000Z</time>
      </trkpt>
      <trkpt lat="42.242914" lon="2.410121">
        <ele>497</ele>
        <time>1970-01-01T00:33:28.000Z</time>
      </trkpt>
      <trkpt lat="42.242913" lon="2.410094">
        <ele>497</ele>
        <time>1970-01-01T00:33:29.000Z</time>
      </trkpt>
      <trkpt lat="42.242911" lon="2.41007">
        <ele>497</ele>
        <time>1970-01-01T00:33:30.000Z</time>
      </trkpt>
      <trkpt lat="42.242909" lon="2.410037">
        <ele>497</ele>
        <time>1970-01-01T00:33:32.000Z</time>
      </trkpt>
      <trkpt lat="42.242909" lon="2.410037">
        <ele>498</ele>
        <time>1970-01-01T00:33:35.000Z</time>
      </trkpt>
      <trkpt lat="42.242905" lon="2.410002">
        <ele>498</ele>
        <time>1970-01-01T00:33:36.000Z</time>
      </trkpt>
      <trkpt lat="42.2429" lon="2.409966">
        <ele>498</ele>
        <time>1970-01-01T00:33:38.000Z</time>
      </trkpt>
      <trkpt lat="42.242896" lon="2.409931">
        <ele>499</ele>
        <time>1970-01-01T00:35:19.000Z</time>
      </trkpt>
      <trkpt lat="42.242891" lon="2.409896">
        <ele>499</ele>
        <time>1970-01-01T00:35:20.000Z</time>
      </trkpt>
      <trkpt lat="42.242887" lon="2.409861">
        <ele>499</ele>
        <time>1970-01-01T00:35:21.000Z</time>
      </trkpt>
      <trkpt lat="42.242883" lon="2.409825">
        <ele>499</ele>
        <time>1970-01-01T00:35:22.000Z</time>
      </trkpt>
      <trkpt lat="42.242878" lon="2.40979">
        <ele>499</ele>
        <time>1970-01-01T00:35:23.000Z</time>
      </trkpt>
      <trkpt lat="42.242874" lon="2.409755">
        <ele>499</ele>
        <time>1970-01-01T00:35:24.000Z</time>
      </trkpt>
      <trkpt lat="42.242869" lon="2.40972">
        <ele>499</ele>
        <time>1970-01-01T00:35:25.000Z</time>
      </trkpt>
      <trkpt lat="42.242865" lon="2.409684">
        <ele>499</ele>
        <time>1970-01-01T00:35:26.000Z</time>
      </trkpt>
      <trkpt lat="42.24286" lon="2.409649">
        <ele>499</ele>
        <time>1970-01-01T00:35:27.000Z</time>
      </trkpt>
      <trkpt lat="42.242856" lon="2.409614">
        <ele>499</ele>
        <time>1970-01-01T00:35:28.000Z</time>
      </trkpt>
      <trkpt lat="42.242836" lon="2.409525">
        <ele>499</ele>
        <time>1970-01-01T00:35:29.000Z</time>
      </trkpt>
      <trkpt lat="42.242826" lon="2.409485">
        <ele>499</ele>
        <time>1970-01-01T00:35:30.000Z</time>
      </trkpt>
      <trkpt lat="42.242816" lon="2.409445">
        <ele>499</ele>
        <time>1970-01-01T00:35:31.000Z</time>
      </trkpt>
      <trkpt lat="42.242806" lon="2.409405">
        <ele>499</ele>
        <time>1970-01-01T00:35:32.000Z</time>
      </trkpt>
      <trkpt lat="42.242796" lon="2.409365">
        <ele>499</ele>
        <time>1970-01-01T00:35:33.000Z</time>
      </trkpt>
      <trkpt lat="42.242785" lon="2.409325">
        <ele>499</ele>
        <time>1970-01-01T00:35:34.000Z</time>
      </trkpt>
      <trkpt lat="42.242775" lon="2.409285">
        <ele>499</ele>
        <time>1970-01-01T00:35:35.000Z</time>
      </trkpt>
      <trkpt lat="42.242765" lon="2.409245">
        <ele>499</ele>
        <time>1970-01-01T00:35:36.000Z</time>
      </trkpt>
      <trkpt lat="42.242755" lon="2.409205">
        <ele>499</ele>
        <time>1970-01-01T00:35:37.000Z</time>
      </trkpt>
      <trkpt lat="42.242745" lon="2.409165">
        <ele>499</ele>
        <time>1970-01-01T00:35:38.000Z</time>
      </trkpt>
      <trkpt lat="42.242715" lon="2.409089">
        <ele>499</ele>
        <time>1970-01-01T00:35:39.000Z</time>
      </trkpt>
      <trkpt lat="42.2427" lon="2.409052">
        <ele>499</ele>
        <time>1970-01-01T00:35:40.000Z</time>
      </trkpt>
      <trkpt lat="42.242684" lon="2.409014">
        <ele>499</ele>
        <time>1970-01-01T00:35:41.000Z</time>
      </trkpt>
      <trkpt lat="42.242668" lon="2.408977">
        <ele>499</ele>
        <time>1970-01-01T00:35:42.000Z</time>
      </trkpt>
      <trkpt lat="42.242653" lon="2.40894">
        <ele>499</ele>
        <time>1970-01-01T00:35:43.000Z</time>
      </trkpt>
      <trkpt lat="42.242637" lon="2.408903">
        <ele>499</ele>
        <time>1970-01-01T00:35:44.000Z</time>
      </trkpt>
      <trkpt lat="42.242621" lon="2.408866">
        <ele>499</ele>
        <time>1970-01-01T00:35:45.000Z</time>
      </trkpt>
      <trkpt lat="42.242605" lon="2.408828">
        <ele>499</ele>
        <time>1970-01-01T00:35:46.000Z</time>
      </trkpt>
      <trkpt lat="42.24259" lon="2.408791">
        <ele>499</ele>
        <time>1970-01-01T00:35:47.000Z</time>
      </trkpt>
      <trkpt lat="42.242574" lon="2.408754">
        <ele>500</ele>
        <time>1970-01-01T00:35:48.000Z</time>
      </trkpt>
      <trkpt lat="42.242531" lon="2.408674">
        <ele>500</ele>
        <time>1970-01-01T00:35:49.000Z</time>
      </trkpt>
      <trkpt lat="42.242507" lon="2.408636">
        <ele>500</ele>
        <time>1970-01-01T00:35:50.000Z</time>
      </trkpt>
      <trkpt lat="42.242484" lon="2.408597">
        <ele>500</ele>
        <time>1970-01-01T00:35:51.000Z</time>
      </trkpt>
      <trkpt lat="42.242461" lon="2.408559">
        <ele>500</ele>
        <time>1970-01-01T00:35:52.000Z</time>
      </trkpt>
      <trkpt lat="42.242438" lon="2.408521">
        <ele>500</ele>
        <time>1970-01-01T00:35:53.000Z</time>
      </trkpt>
      <trkpt lat="42.242414" lon="2.408483">
        <ele>500</ele>
        <time>1970-01-01T00:35:54.000Z</time>
      </trkpt>
      <trkpt lat="42.242391" lon="2.408445">
        <ele>500</ele>
        <time>1970-01-01T00:35:55.000Z</time>
      </trkpt>
      <trkpt lat="42.242368" lon="2.408406">
        <ele>500</ele>
        <time>1970-01-01T00:35:56.000Z</time>
      </trkpt>
      <trkpt lat="42.242344" lon="2.408368">
        <ele>500</ele>
        <time>1970-01-01T00:35:57.000Z</time>
      </trkpt>
      <trkpt lat="42.242321" lon="2.40833">
        <ele>500</ele>
        <time>1970-01-01T00:35:58.000Z</time>
      </trkpt>
      <trkpt lat="42.242266" lon="2.408248">
        <ele>500</ele>
        <time>1970-01-01T00:35:59.000Z</time>
      </trkpt>
      <trkpt lat="42.242239" lon="2.408208">
        <ele>500</ele>
        <time>1970-01-01T00:36:00.000Z</time>
      </trkpt>
      <trkpt lat="42.242213" lon="2.408167">
        <ele>500</ele>
        <time>1970-01-01T00:36:01.000Z</time>
      </trkpt>
      <trkpt lat="42.242186" lon="2.408127">
        <ele>500</ele>
        <time>1970-01-01T00:36:02.000Z</time>
      </trkpt>
      <trkpt lat="42.24216" lon="2.408087">
        <ele>500</ele>
        <time>1970-01-01T00:36:03.000Z</time>
      </trkpt>
      <trkpt lat="42.242133" lon="2.408047">
        <ele>500</ele>
        <time>1970-01-01T00:36:04.000Z</time>
      </trkpt>
      <trkpt lat="42.242107" lon="2.408007">
        <ele>500</ele>
        <time>1970-01-01T00:36:05.000Z</time>
      </trkpt>
      <trkpt lat="42.24208" lon="2.407966">
        <ele>500</ele>
        <time>1970-01-01T00:36:06.000Z</time>
      </trkpt>
      <trkpt lat="42.242054" lon="2.407926">
        <ele>500</ele>
        <time>1970-01-01T00:36:07.000Z</time>
      </trkpt>
      <trkpt lat="42.242027" lon="2.407886">
        <ele>500</ele>
        <time>1970-01-01T00:36:08.000Z</time>
      </trkpt>
      <trkpt lat="42.241974" lon="2.407808">
        <ele>500</ele>
        <time>1970-01-01T00:36:09.000Z</time>
      </trkpt>
      <trkpt lat="42.241951" lon="2.407773">
        <ele>500</ele>
        <time>1970-01-01T00:36:10.000Z</time>
      </trkpt>
      <trkpt lat="42.241927" lon="2.407739">
        <ele>500</ele>
        <time>1970-01-01T00:36:11.000Z</time>
      </trkpt>
      <trkpt lat="42.241903" lon="2.407704">
        <ele>500</ele>
        <time>1970-01-01T00:36:12.000Z</time>
      </trkpt>
      <trkpt lat="42.24188" lon="2.407669">
        <ele>500</ele>
        <time>1970-01-01T00:36:13.000Z</time>
      </trkpt>
      <trkpt lat="42.241856" lon="2.407634">
        <ele>500</ele>
        <time>1970-01-01T00:36:14.000Z</time>
      </trkpt>
      <trkpt lat="42.241832" lon="2.407599">
        <ele>500</ele>
        <time>1970-01-01T00:36:15.000Z</time>
      </trkpt>
      <trkpt lat="42.241808" lon="2.407565">
        <ele>500</ele>
        <time>1970-01-01T00:36:16.000Z</time>
      </trkpt>
      <trkpt lat="42.241785" lon="2.40753">
        <ele>500</ele>
        <time>1970-01-01T00:36:17.000Z</time>
      </trkpt>
      <trkpt lat="42.241761" lon="2.407495">
        <ele>501</ele>
        <time>1970-01-01T00:36:18.000Z</time>
      </trkpt>
      <trkpt lat="42.241718" lon="2.407428">
        <ele>501</ele>
        <time>1970-01-01T00:36:19.000Z</time>
      </trkpt>
      <trkpt lat="42.241698" lon="2.407398">
        <ele>501</ele>
        <time>1970-01-01T00:36:20.000Z</time>
      </trkpt>
      <trkpt lat="42.241677" lon="2.407367">
        <ele>501</ele>
        <time>1970-01-01T00:36:21.000Z</time>
      </trkpt>
      <trkpt lat="42.241657" lon="2.407337">
        <ele>501</ele>
        <time>1970-01-01T00:36:22.000Z</time>
      </trkpt>
      <trkpt lat="42.241637" lon="2.407306">
        <ele>501</ele>
        <time>1970-01-01T00:36:23.000Z</time>
      </trkpt>
      <trkpt lat="42.241617" lon="2.407275">
        <ele>501</ele>
        <time>1970-01-01T00:36:24.000Z</time>
      </trkpt>
      <trkpt lat="42.241597" lon="2.407245">
        <ele>501</ele>
        <time>1970-01-01T00:36:25.000Z</time>
      </trkpt>
      <trkpt lat="42.241576" lon="2.407214">
        <ele>501</ele>
        <time>1970-01-01T00:36:26.000Z</time>
      </trkpt>
      <trkpt lat="42.241556" lon="2.407184">
        <ele>501</ele>
        <time>1970-01-01T00:36:27.000Z</time>
      </trkpt>
      <trkpt lat="42.241536" lon="2.407153">
        <ele>503</ele>
        <time>1970-01-01T00:36:28.000Z</time>
      </trkpt>
      <trkpt lat="42.241496" lon="2.407093">
        <ele>503</ele>
        <time>1970-01-01T00:36:29.000Z</time>
      </trkpt>
      <trkpt lat="42.24148" lon="2.407067">
        <ele>503</ele>
        <time>1970-01-01T00:36:30.000Z</time>
      </trkpt>
      <trkpt lat="42.241463" lon="2.407041">
        <ele>503</ele>
        <time>1970-01-01T00:36:31.000Z</time>
      </trkpt>
      <trkpt lat="42.241447" lon="2.407015">
        <ele>503</ele>
        <time>1970-01-01T00:36:32.000Z</time>
      </trkpt>
      <trkpt lat="42.24143" lon="2.406989">
        <ele>503</ele>
        <time>1970-01-01T00:36:33.000Z</time>
      </trkpt>
      <trkpt lat="42.241413" lon="2.406964">
        <ele>503</ele>
        <time>1970-01-01T00:36:34.000Z</time>
      </trkpt>
      <trkpt lat="42.241397" lon="2.406938">
        <ele>503</ele>
        <time>1970-01-01T00:36:35.000Z</time>
      </trkpt>
      <trkpt lat="42.24138" lon="2.406912">
        <ele>503</ele>
        <time>1970-01-01T00:36:36.000Z</time>
      </trkpt>
      <trkpt lat="42.241364" lon="2.406886">
        <ele>503</ele>
        <time>1970-01-01T00:36:37.000Z</time>
      </trkpt>
      <trkpt lat="42.241347" lon="2.40686">
        <ele>505</ele>
        <time>1970-01-01T00:36:38.000Z</time>
      </trkpt>
      <trkpt lat="42.241338" lon="2.406845">
        <ele>505</ele>
        <time>1970-01-01T00:36:39.000Z</time>
      </trkpt>
      <trkpt lat="42.241321" lon="2.40682">
        <ele>505</ele>
        <time>1970-01-01T00:36:41.000Z</time>
      </trkpt>
      <trkpt lat="42.241321" lon="2.40682">
        <ele>507</ele>
        <time>1970-01-01T00:36:48.000Z</time>
      </trkpt>
      <trkpt lat="42.241224" lon="2.406545">
        <ele>507</ele>
        <time>1970-01-01T00:36:49.000Z</time>
      </trkpt>
      <trkpt lat="42.241181" lon="2.406399">
        <ele>507</ele>
        <time>1970-01-01T00:36:51.000Z</time>
      </trkpt>
      <trkpt lat="42.241138" lon="2.406253">
        <ele>509</ele>
        <time>1970-01-01T00:36:58.000Z</time>
      </trkpt>
      <trkpt lat="42.241095" lon="2.406108">
        <ele>509</ele>
        <time>1970-01-01T00:37:03.000Z</time>
      </trkpt>
      <trkpt lat="42.241052" lon="2.405962">
        <ele>509</ele>
        <time>1970-01-01T00:37:05.000Z</time>
      </trkpt>
      <trkpt lat="42.241009" lon="2.405816">
        <ele>510</ele>
        <time>1970-01-01T00:37:08.000Z</time>
      </trkpt>
      <trkpt lat="42.241002" lon="2.405686">
        <ele>510</ele>
        <time>1970-01-01T00:37:11.000Z</time>
      </trkpt>
      <trkpt lat="42.241003" lon="2.405654">
        <ele>510</ele>
        <time>1970-01-01T00:37:12.000Z</time>
      </trkpt>
      <trkpt lat="42.241003" lon="2.405621">
        <ele>510</ele>
        <time>1970-01-01T00:37:14.000Z</time>
      </trkpt>
      <trkpt lat="42.241004" lon="2.405589">
        <ele>510</ele>
        <time>1970-01-01T00:37:15.000Z</time>
      </trkpt>
      <trkpt lat="42.241004" lon="2.405556">
        <ele>510</ele>
        <time>1970-01-01T00:37:16.000Z</time>
      </trkpt>
      <trkpt lat="42.241005" lon="2.405524">
        <ele>510</ele>
        <time>1970-01-01T00:37:17.000Z</time>
      </trkpt>
      <trkpt lat="42.241005" lon="2.405491">
        <ele>511</ele>
        <time>1970-01-01T00:37:18.000Z</time>
      </trkpt>
      <trkpt lat="42.241008" lon="2.405428">
        <ele>511</ele>
        <time>1970-01-01T00:37:19.000Z</time>
      </trkpt>
      <trkpt lat="42.24101" lon="2.405398">
        <ele>511</ele>
        <time>1970-01-01T00:37:20.000Z</time>
      </trkpt>
      <trkpt lat="42.241011" lon="2.405367">
        <ele>511</ele>
        <time>1970-01-01T00:37:21.000Z</time>
      </trkpt>
      <trkpt lat="42.241013" lon="2.405337">
        <ele>511</ele>
        <time>1970-01-01T00:37:22.000Z</time>
      </trkpt>
      <trkpt lat="42.241014" lon="2.405307">
        <ele>511</ele>
        <time>1970-01-01T00:37:23.000Z</time>
      </trkpt>
      <trkpt lat="42.241015" lon="2.405277">
        <ele>511</ele>
        <time>1970-01-01T00:37:24.000Z</time>
      </trkpt>
      <trkpt lat="42.241017" lon="2.405247">
        <ele>511</ele>
        <time>1970-01-01T00:37:25.000Z</time>
      </trkpt>
      <trkpt lat="42.241018" lon="2.405216">
        <ele>511</ele>
        <time>1970-01-01T00:37:26.000Z</time>
      </trkpt>
      <trkpt lat="42.24102" lon="2.405186">
        <ele>511</ele>
        <time>1970-01-01T00:37:27.000Z</time>
      </trkpt>
      <trkpt lat="42.241021" lon="2.405156">
        <ele>513</ele>
        <time>1970-01-01T00:37:28.000Z</time>
      </trkpt>
      <trkpt lat="42.241024" lon="2.405097">
        <ele>513</ele>
        <time>1970-01-01T00:37:29.000Z</time>
      </trkpt>
      <trkpt lat="42.241026" lon="2.405069">
        <ele>513</ele>
        <time>1970-01-01T00:37:30.000Z</time>
      </trkpt>
      <trkpt lat="42.241029" lon="2.405042">
        <ele>513</ele>
        <time>1970-01-01T00:37:31.000Z</time>
      </trkpt>
      <trkpt lat="42.241031" lon="2.405015">
        <ele>513</ele>
        <time>1970-01-01T00:37:32.000Z</time>
      </trkpt>
      <trkpt lat="42.241033" lon="2.404988">
        <ele>513</ele>
        <time>1970-01-01T00:37:33.000Z</time>
      </trkpt>
      <trkpt lat="42.241035" lon="2.40496">
        <ele>513</ele>
        <time>1970-01-01T00:37:34.000Z</time>
      </trkpt>
      <trkpt lat="42.241037" lon="2.404933">
        <ele>513</ele>
        <time>1970-01-01T00:37:35.000Z</time>
      </trkpt>
      <trkpt lat="42.24104" lon="2.404906">
        <ele>513</ele>
        <time>1970-01-01T00:37:36.000Z</time>
      </trkpt>
      <trkpt lat="42.241042" lon="2.404878">
        <ele>513</ele>
        <time>1970-01-01T00:37:37.000Z</time>
      </trkpt>
      <trkpt lat="42.241044" lon="2.404851">
        <ele>515</ele>
        <time>1970-01-01T00:37:38.000Z</time>
      </trkpt>
      <trkpt lat="42.241049" lon="2.404793">
        <ele>515</ele>
        <time>1970-01-01T00:37:39.000Z</time>
      </trkpt>
      <trkpt lat="42.241051" lon="2.404764">
        <ele>515</ele>
        <time>1970-01-01T00:37:40.000Z</time>
      </trkpt>
      <trkpt lat="42.241054" lon="2.404736">
        <ele>515</ele>
        <time>1970-01-01T00:37:41.000Z</time>
      </trkpt>
      <trkpt lat="42.241056" lon="2.404707">
        <ele>515</ele>
        <time>1970-01-01T00:37:42.000Z</time>
      </trkpt>
      <trkpt lat="42.241059" lon="2.404679">
        <ele>515</ele>
        <time>1970-01-01T00:37:43.000Z</time>
      </trkpt>
      <trkpt lat="42.241061" lon="2.404651">
        <ele>515</ele>
        <time>1970-01-01T00:37:44.000Z</time>
      </trkpt>
      <trkpt lat="42.241064" lon="2.404622">
        <ele>515</ele>
        <time>1970-01-01T00:37:45.000Z</time>
      </trkpt>
      <trkpt lat="42.241066" lon="2.404594">
        <ele>515</ele>
        <time>1970-01-01T00:37:46.000Z</time>
      </trkpt>
      <trkpt lat="42.241069" lon="2.404565">
        <ele>515</ele>
        <time>1970-01-01T00:37:47.000Z</time>
      </trkpt>
      <trkpt lat="42.241071" lon="2.404537">
        <ele>517</ele>
        <time>1970-01-01T00:37:48.000Z</time>
      </trkpt>
      <trkpt lat="42.241075" lon="2.40448">
        <ele>517</ele>
        <time>1970-01-01T00:37:49.000Z</time>
      </trkpt>
      <trkpt lat="42.241076" lon="2.404454">
        <ele>517</ele>
        <time>1970-01-01T00:37:50.000Z</time>
      </trkpt>
      <trkpt lat="42.241078" lon="2.404427">
        <ele>517</ele>
        <time>1970-01-01T00:37:51.000Z</time>
      </trkpt>
      <trkpt lat="42.241079" lon="2.4044">
        <ele>517</ele>
        <time>1970-01-01T00:37:52.000Z</time>
      </trkpt>
      <trkpt lat="42.241081" lon="2.404374">
        <ele>517</ele>
        <time>1970-01-01T00:37:53.000Z</time>
      </trkpt>
      <trkpt lat="42.241083" lon="2.404347">
        <ele>517</ele>
        <time>1970-01-01T00:37:54.000Z</time>
      </trkpt>
      <trkpt lat="42.241084" lon="2.40432">
        <ele>517</ele>
        <time>1970-01-01T00:37:55.000Z</time>
      </trkpt>
      <trkpt lat="42.241086" lon="2.404293">
        <ele>517</ele>
        <time>1970-01-01T00:37:56.000Z</time>
      </trkpt>
      <trkpt lat="42.241087" lon="2.404267">
        <ele>517</ele>
        <time>1970-01-01T00:37:57.000Z</time>
      </trkpt>
      <trkpt lat="42.241089" lon="2.40424">
        <ele>519</ele>
        <time>1970-01-01T00:37:58.000Z</time>
      </trkpt>
      <trkpt lat="42.241094" lon="2.404188">
        <ele>519</ele>
        <time>1970-01-01T00:37:59.000Z</time>
      </trkpt>
      <trkpt lat="42.241095" lon="2.404163">
        <ele>519</ele>
        <time>1970-01-01T00:38:00.000Z</time>
      </trkpt>
      <trkpt lat="42.241097" lon="2.404139">
        <ele>519</ele>
        <time>1970-01-01T00:38:01.000Z</time>
      </trkpt>
      <trkpt lat="42.241099" lon="2.404114">
        <ele>519</ele>
        <time>1970-01-01T00:38:02.000Z</time>
      </trkpt>
      <trkpt lat="42.241101" lon="2.40409">
        <ele>519</ele>
        <time>1970-01-01T00:38:03.000Z</time>
      </trkpt>
      <trkpt lat="42.241102" lon="2.404066">
        <ele>519</ele>
        <time>1970-01-01T00:38:04.000Z</time>
      </trkpt>
      <trkpt lat="42.241104" lon="2.404041">
        <ele>519</ele>
        <time>1970-01-01T00:38:05.000Z</time>
      </trkpt>
      <trkpt lat="42.241106" lon="2.404017">
        <ele>519</ele>
        <time>1970-01-01T00:38:06.000Z</time>
      </trkpt>
      <trkpt lat="42.241107" lon="2.403992">
        <ele>519</ele>
        <time>1970-01-01T00:38:07.000Z</time>
      </trkpt>
      <trkpt lat="42.241109" lon="2.403968">
        <ele>520</ele>
        <time>1970-01-01T00:38:08.000Z</time>
      </trkpt>
      <trkpt lat="42.241112" lon="2.403912">
        <ele>520</ele>
        <time>1970-01-01T00:38:09.000Z</time>
      </trkpt>
      <trkpt lat="42.241114" lon="2.403885">
        <ele>520</ele>
        <time>1970-01-01T00:38:10.000Z</time>
      </trkpt>
      <trkpt lat="42.241115" lon="2.403858">
        <ele>520</ele>
        <time>1970-01-01T00:38:11.000Z</time>
      </trkpt>
      <trkpt lat="42.241117" lon="2.403831">
        <ele>520</ele>
        <time>1970-01-01T00:38:12.000Z</time>
      </trkpt>
      <trkpt lat="42.241118" lon="2.403805">
        <ele>520</ele>
        <time>1970-01-01T00:38:13.000Z</time>
      </trkpt>
      <trkpt lat="42.241119" lon="2.403778">
        <ele>520</ele>
        <time>1970-01-01T00:38:14.000Z</time>
      </trkpt>
      <trkpt lat="42.241121" lon="2.403751">
        <ele>520</ele>
        <time>1970-01-01T00:38:15.000Z</time>
      </trkpt>
      <trkpt lat="42.241122" lon="2.403724">
        <ele>520</ele>
        <time>1970-01-01T00:38:16.000Z</time>
      </trkpt>
      <trkpt lat="42.241124" lon="2.403697">
        <ele>520</ele>
        <time>1970-01-01T00:38:17.000Z</time>
      </trkpt>
      <trkpt lat="42.241125" lon="2.40367">
        <ele>522</ele>
        <time>1970-01-01T00:38:18.000Z</time>
      </trkpt>
      <trkpt lat="42.241128" lon="2.403611">
        <ele>522</ele>
        <time>1970-01-01T00:38:19.000Z</time>
      </trkpt>
      <trkpt lat="42.24113" lon="2.403584">
        <ele>522</ele>
        <time>1970-01-01T00:38:20.000Z</time>
      </trkpt>
      <trkpt lat="42.241131" lon="2.403557">
        <ele>522</ele>
        <time>1970-01-01T00:38:21.000Z</time>
      </trkpt>
      <trkpt lat="42.241133" lon="2.40353">
        <ele>522</ele>
        <time>1970-01-01T00:38:22.000Z</time>
      </trkpt>
      <trkpt lat="42.241135" lon="2.403504">
        <ele>522</ele>
        <time>1970-01-01T00:38:23.000Z</time>
      </trkpt>
      <trkpt lat="42.241137" lon="2.403477">
        <ele>522</ele>
        <time>1970-01-01T00:38:24.000Z</time>
      </trkpt>
      <trkpt lat="42.241139" lon="2.40345">
        <ele>522</ele>
        <time>1970-01-01T00:38:25.000Z</time>
      </trkpt>
      <trkpt lat="42.24114" lon="2.403423">
        <ele>522</ele>
        <time>1970-01-01T00:38:26.000Z</time>
      </trkpt>
      <trkpt lat="42.241142" lon="2.403396">
        <ele>522</ele>
        <time>1970-01-01T00:38:27.000Z</time>
      </trkpt>
      <trkpt lat="42.241144" lon="2.403369">
        <ele>523</ele>
        <time>1970-01-01T00:38:28.000Z</time>
      </trkpt>
      <trkpt lat="42.241148" lon="2.403313">
        <ele>523</ele>
        <time>1970-01-01T00:38:29.000Z</time>
      </trkpt>
      <trkpt lat="42.24115" lon="2.403286">
        <ele>523</ele>
        <time>1970-01-01T00:38:30.000Z</time>
      </trkpt>
      <trkpt lat="42.241151" lon="2.40326">
        <ele>523</ele>
        <time>1970-01-01T00:38:31.000Z</time>
      </trkpt>
      <trkpt lat="42.241153" lon="2.403233">
        <ele>523</ele>
        <time>1970-01-01T00:38:32.000Z</time>
      </trkpt>
      <trkpt lat="42.241155" lon="2.403207">
        <ele>523</ele>
        <time>1970-01-01T00:38:33.000Z</time>
      </trkpt>
      <trkpt lat="42.241157" lon="2.40318">
        <ele>523</ele>
        <time>1970-01-01T00:38:34.000Z</time>
      </trkpt>
      <trkpt lat="42.241159" lon="2.403154">
        <ele>523</ele>
        <time>1970-01-01T00:38:35.000Z</time>
      </trkpt>
      <trkpt lat="42.24116" lon="2.403127">
        <ele>523</ele>
        <time>1970-01-01T00:38:36.000Z</time>
      </trkpt>
      <trkpt lat="42.241162" lon="2.403101">
        <ele>523</ele>
        <time>1970-01-01T00:38:37.000Z</time>
      </trkpt>
      <trkpt lat="42.241164" lon="2.403074">
        <ele>524</ele>
        <time>1970-01-01T00:38:38.000Z</time>
      </trkpt>
      <trkpt lat="42.241168" lon="2.403019">
        <ele>524</ele>
        <time>1970-01-01T00:38:39.000Z</time>
      </trkpt>
      <trkpt lat="42.241171" lon="2.402993">
        <ele>524</ele>
        <time>1970-01-01T00:38:40.000Z</time>
      </trkpt>
      <trkpt lat="42.241173" lon="2.402966">
        <ele>524</ele>
        <time>1970-01-01T00:38:41.000Z</time>
      </trkpt>
      <trkpt lat="42.241175" lon="2.40294">
        <ele>524</ele>
        <time>1970-01-01T00:38:42.000Z</time>
      </trkpt>
      <trkpt lat="42.241178" lon="2.402914">
        <ele>524</ele>
        <time>1970-01-01T00:38:43.000Z</time>
      </trkpt>
      <trkpt lat="42.24118" lon="2.402888">
        <ele>524</ele>
        <time>1970-01-01T00:38:44.000Z</time>
      </trkpt>
      <trkpt lat="42.241182" lon="2.402862">
        <ele>524</ele>
        <time>1970-01-01T00:38:45.000Z</time>
      </trkpt>
      <trkpt lat="42.241184" lon="2.402835">
        <ele>524</ele>
        <time>1970-01-01T00:38:46.000Z</time>
      </trkpt>
      <trkpt lat="42.241187" lon="2.402809">
        <ele>524</ele>
        <time>1970-01-01T00:38:47.000Z</time>
      </trkpt>
      <trkpt lat="42.241189" lon="2.402783">
        <ele>526</ele>
        <time>1970-01-01T00:38:48.000Z</time>
      </trkpt>
      <trkpt lat="42.241193" lon="2.402728">
        <ele>526</ele>
        <time>1970-01-01T00:38:49.000Z</time>
      </trkpt>
      <trkpt lat="42.241195" lon="2.402702">
        <ele>526</ele>
        <time>1970-01-01T00:38:50.000Z</time>
      </trkpt>
      <trkpt lat="42.241197" lon="2.402677">
        <ele>526</ele>
        <time>1970-01-01T00:38:51.000Z</time>
      </trkpt>
      <trkpt lat="42.241199" lon="2.402651">
        <ele>526</ele>
        <time>1970-01-01T00:38:52.000Z</time>
      </trkpt>
      <trkpt lat="42.241202" lon="2.402626">
        <ele>526</ele>
        <time>1970-01-01T00:38:53.000Z</time>
      </trkpt>
      <trkpt lat="42.241204" lon="2.4026">
        <ele>526</ele>
        <time>1970-01-01T00:38:54.000Z</time>
      </trkpt>
      <trkpt lat="42.241206" lon="2.402575">
        <ele>526</ele>
        <time>1970-01-01T00:38:55.000Z</time>
      </trkpt>
      <trkpt lat="42.241208" lon="2.402549">
        <ele>526</ele>
        <time>1970-01-01T00:38:56.000Z</time>
      </trkpt>
      <trkpt lat="42.24121" lon="2.402524">
        <ele>526</ele>
        <time>1970-01-01T00:38:57.000Z</time>
      </trkpt>
      <trkpt lat="42.241212" lon="2.402498">
        <ele>527</ele>
        <time>1970-01-01T00:38:58.000Z</time>
      </trkpt>
      <trkpt lat="42.241217" lon="2.402444">
        <ele>527</ele>
        <time>1970-01-01T00:38:59.000Z</time>
      </trkpt>
      <trkpt lat="42.24122" lon="2.402419">
        <ele>527</ele>
        <time>1970-01-01T00:39:00.000Z</time>
      </trkpt>
      <trkpt lat="42.241222" lon="2.402394">
        <ele>527</ele>
        <time>1970-01-01T00:39:01.000Z</time>
      </trkpt>
      <trkpt lat="42.241224" lon="2.402369">
        <ele>527</ele>
        <time>1970-01-01T00:39:02.000Z</time>
      </trkpt>
      <trkpt lat="42.241227" lon="2.402344">
        <ele>527</ele>
        <time>1970-01-01T00:39:03.000Z</time>
      </trkpt>
      <trkpt lat="42.241229" lon="2.402319">
        <ele>527</ele>
        <time>1970-01-01T00:39:04.000Z</time>
      </trkpt>
      <trkpt lat="42.241231" lon="2.402294">
        <ele>527</ele>
        <time>1970-01-01T00:39:05.000Z</time>
      </trkpt>
      <trkpt lat="42.241233" lon="2.402269">
        <ele>527</ele>
        <time>1970-01-01T00:39:06.000Z</time>
      </trkpt>
      <trkpt lat="42.241236" lon="2.402244">
        <ele>527</ele>
        <time>1970-01-01T00:39:07.000Z</time>
      </trkpt>
      <trkpt lat="42.241238" lon="2.402219">
        <ele>528</ele>
        <time>1970-01-01T00:39:08.000Z</time>
      </trkpt>
      <trkpt lat="42.241242" lon="2.402167">
        <ele>528</ele>
        <time>1970-01-01T00:39:09.000Z</time>
      </trkpt>
      <trkpt lat="42.241244" lon="2.402142">
        <ele>528</ele>
        <time>1970-01-01T00:39:10.000Z</time>
      </trkpt>
      <trkpt lat="42.241246" lon="2.402118">
        <ele>528</ele>
        <time>1970-01-01T00:39:11.000Z</time>
      </trkpt>
      <trkpt lat="42.241248" lon="2.402093">
        <ele>528</ele>
        <time>1970-01-01T00:39:12.000Z</time>
      </trkpt>
      <trkpt lat="42.24125" lon="2.402068">
        <ele>528</ele>
        <time>1970-01-01T00:39:13.000Z</time>
      </trkpt>
      <trkpt lat="42.241252" lon="2.402043">
        <ele>528</ele>
        <time>1970-01-01T00:39:14.000Z</time>
      </trkpt>
      <trkpt lat="42.241254" lon="2.402018">
        <ele>528</ele>
        <time>1970-01-01T00:39:15.000Z</time>
      </trkpt>
      <trkpt lat="42.241256" lon="2.401994">
        <ele>528</ele>
        <time>1970-01-01T00:39:16.000Z</time>
      </trkpt>
      <trkpt lat="42.241258" lon="2.401969">
        <ele>528</ele>
        <time>1970-01-01T00:39:17.000Z</time>
      </trkpt>
      <trkpt lat="42.24126" lon="2.401944">
        <ele>529</ele>
        <time>1970-01-01T00:39:18.000Z</time>
      </trkpt>
      <trkpt lat="42.241265" lon="2.401894">
        <ele>529</ele>
        <time>1970-01-01T00:39:19.000Z</time>
      </trkpt>
      <trkpt lat="42.241268" lon="2.401869">
        <ele>529</ele>
        <time>1970-01-01T00:39:20.000Z</time>
      </trkpt>
      <trkpt lat="42.24127" lon="2.401845">
        <ele>529</ele>
        <time>1970-01-01T00:39:21.000Z</time>
      </trkpt>
      <trkpt lat="42.241272" lon="2.401821">
        <ele>529</ele>
        <time>1970-01-01T00:39:22.000Z</time>
      </trkpt>
      <trkpt lat="42.241275" lon="2.401797">
        <ele>529</ele>
        <time>1970-01-01T00:39:23.000Z</time>
      </trkpt>
      <trkpt lat="42.241277" lon="2.401772">
        <ele>529</ele>
        <time>1970-01-01T00:39:24.000Z</time>
      </trkpt>
      <trkpt lat="42.241279" lon="2.401748">
        <ele>529</ele>
        <time>1970-01-01T00:39:25.000Z</time>
      </trkpt>
      <trkpt lat="42.241281" lon="2.401724">
        <ele>529</ele>
        <time>1970-01-01T00:39:26.000Z</time>
      </trkpt>
      <trkpt lat="42.241284" lon="2.401699">
        <ele>529</ele>
        <time>1970-01-01T00:39:27.000Z</time>
      </trkpt>
      <trkpt lat="42.241286" lon="2.401675">
        <ele>531</ele>
        <time>1970-01-01T00:39:28.000Z</time>
      </trkpt>
      <trkpt lat="42.241291" lon="2.40162">
        <ele>531</ele>
        <time>1970-01-01T00:39:29.000Z</time>
      </trkpt>
      <trkpt lat="42.241293" lon="2.401594">
        <ele>531</ele>
        <time>1970-01-01T00:39:30.000Z</time>
      </trkpt>
      <trkpt lat="42.241296" lon="2.401568">
        <ele>531</ele>
        <time>1970-01-01T00:39:31.000Z</time>
      </trkpt>
      <trkpt lat="42.241298" lon="2.401542">
        <ele>531</ele>
        <time>1970-01-01T00:39:32.000Z</time>
      </trkpt>
      <trkpt lat="42.241301" lon="2.401517">
        <ele>531</ele>
        <time>1970-01-01T00:39:33.000Z</time>
      </trkpt>
      <trkpt lat="42.241303" lon="2.401491">
        <ele>531</ele>
        <time>1970-01-01T00:39:34.000Z</time>
      </trkpt>
      <trkpt lat="42.241306" lon="2.401465">
        <ele>531</ele>
        <time>1970-01-01T00:39:35.000Z</time>
      </trkpt>
      <trkpt lat="42.241308" lon="2.401439">
        <ele>531</ele>
        <time>1970-01-01T00:39:36.000Z</time>
      </trkpt>
      <trkpt lat="42.241311" lon="2.401413">
        <ele>531</ele>
        <time>1970-01-01T00:39:37.000Z</time>
      </trkpt>
      <trkpt lat="42.241313" lon="2.401387">
        <ele>533</ele>
        <time>1970-01-01T00:39:38.000Z</time>
      </trkpt>
      <trkpt lat="42.24132" lon="2.401332">
        <ele>533</ele>
        <time>1970-01-01T00:39:39.000Z</time>
      </trkpt>
      <trkpt lat="42.241325" lon="2.401307">
        <ele>533</ele>
        <time>1970-01-01T00:39:40.000Z</time>
      </trkpt>
      <trkpt lat="42.241329" lon="2.401281">
        <ele>533</ele>
        <time>1970-01-01T00:39:41.000Z</time>
      </trkpt>
      <trkpt lat="42.241333" lon="2.401255">
        <ele>533</ele>
        <time>1970-01-01T00:39:42.000Z</time>
      </trkpt>
      <trkpt lat="42.241338" lon="2.40123">
        <ele>533</ele>
        <time>1970-01-01T00:39:43.000Z</time>
      </trkpt>
      <trkpt lat="42.241342" lon="2.401204">
        <ele>533</ele>
        <time>1970-01-01T00:39:44.000Z</time>
      </trkpt>
      <trkpt lat="42.241346" lon="2.401178">
        <ele>533</ele>
        <time>1970-01-01T00:39:45.000Z</time>
      </trkpt>
      <trkpt lat="42.24135" lon="2.401152">
        <ele>533</ele>
        <time>1970-01-01T00:39:46.000Z</time>
      </trkpt>
      <trkpt lat="42.241355" lon="2.401127">
        <ele>533</ele>
        <time>1970-01-01T00:39:47.000Z</time>
      </trkpt>
      <trkpt lat="42.241359" lon="2.401101">
        <ele>534</ele>
        <time>1970-01-01T00:39:48.000Z</time>
      </trkpt>
      <trkpt lat="42.241369" lon="2.401047">
        <ele>534</ele>
        <time>1970-01-01T00:39:49.000Z</time>
      </trkpt>
      <trkpt lat="42.241375" lon="2.401022">
        <ele>534</ele>
        <time>1970-01-01T00:39:50.000Z</time>
      </trkpt>
      <trkpt lat="42.24138" lon="2.400997">
        <ele>534</ele>
        <time>1970-01-01T00:39:51.000Z</time>
      </trkpt>
      <trkpt lat="42.241386" lon="2.400972">
        <ele>534</ele>
        <time>1970-01-01T00:39:52.000Z</time>
      </trkpt>
      <trkpt lat="42.241391" lon="2.400947">
        <ele>534</ele>
        <time>1970-01-01T00:39:53.000Z</time>
      </trkpt>
      <trkpt lat="42.241396" lon="2.400922">
        <ele>534</ele>
        <time>1970-01-01T00:39:54.000Z</time>
      </trkpt>
      <trkpt lat="42.241402" lon="2.400897">
        <ele>534</ele>
        <time>1970-01-01T00:39:55.000Z</time>
      </trkpt>
      <trkpt lat="42.241407" lon="2.400872">
        <ele>534</ele>
        <time>1970-01-01T00:39:56.000Z</time>
      </trkpt>
      <trkpt lat="42.241413" lon="2.400847">
        <ele>534</ele>
        <time>1970-01-01T00:39:57.000Z</time>
      </trkpt>
      <trkpt lat="42.241418" lon="2.400822">
        <ele>536</ele>
        <time>1970-01-01T00:39:58.000Z</time>
      </trkpt>
      <trkpt lat="42.24143" lon="2.400769">
        <ele>536</ele>
        <time>1970-01-01T00:39:59.000Z</time>
      </trkpt>
      <trkpt lat="42.241437" lon="2.400744">
        <ele>536</ele>
        <time>1970-01-01T00:40:00.000Z</time>
      </trkpt>
      <trkpt lat="42.241443" lon="2.400719">
        <ele>536</ele>
        <time>1970-01-01T00:40:01.000Z</time>
      </trkpt>
      <trkpt lat="42.241449" lon="2.400694">
        <ele>536</ele>
        <time>1970-01-01T00:40:02.000Z</time>
      </trkpt>
      <trkpt lat="42.241456" lon="2.400669">
        <ele>536</ele>
        <time>1970-01-01T00:40:03.000Z</time>
      </trkpt>
      <trkpt lat="42.241462" lon="2.400643">
        <ele>536</ele>
        <time>1970-01-01T00:40:04.000Z</time>
      </trkpt>
      <trkpt lat="42.241468" lon="2.400618">
        <ele>536</ele>
        <time>1970-01-01T00:40:05.000Z</time>
      </trkpt>
      <trkpt lat="42.241474" lon="2.400593">
        <ele>536</ele>
        <time>1970-01-01T00:40:06.000Z</time>
      </trkpt>
      <trkpt lat="42.241481" lon="2.400568">
        <ele>536</ele>
        <time>1970-01-01T00:40:07.000Z</time>
      </trkpt>
      <trkpt lat="42.241487" lon="2.400543">
        <ele>538</ele>
        <time>1970-01-01T00:40:08.000Z</time>
      </trkpt>
      <trkpt lat="42.241501" lon="2.400488">
        <ele>538</ele>
        <time>1970-01-01T00:40:09.000Z</time>
      </trkpt>
      <trkpt lat="42.241508" lon="2.400461">
        <ele>538</ele>
        <time>1970-01-01T00:40:10.000Z</time>
      </trkpt>
      <trkpt lat="42.241514" lon="2.400435">
        <ele>538</ele>
        <time>1970-01-01T00:40:11.000Z</time>
      </trkpt>
      <trkpt lat="42.241521" lon="2.400409">
        <ele>538</ele>
        <time>1970-01-01T00:40:12.000Z</time>
      </trkpt>
      <trkpt lat="42.241528" lon="2.400383">
        <ele>538</ele>
        <time>1970-01-01T00:40:13.000Z</time>
      </trkpt>
      <trkpt lat="42.241535" lon="2.400356">
        <ele>538</ele>
        <time>1970-01-01T00:40:14.000Z</time>
      </trkpt>
      <trkpt lat="42.241542" lon="2.40033">
        <ele>538</ele>
        <time>1970-01-01T00:40:15.000Z</time>
      </trkpt>
      <trkpt lat="42.241548" lon="2.400304">
        <ele>538</ele>
        <time>1970-01-01T00:40:16.000Z</time>
      </trkpt>
      <trkpt lat="42.241555" lon="2.400277">
        <ele>538</ele>
        <time>1970-01-01T00:40:17.000Z</time>
      </trkpt>
      <trkpt lat="42.241562" lon="2.400251">
        <ele>539</ele>
        <time>1970-01-01T00:40:18.000Z</time>
      </trkpt>
      <trkpt lat="42.241577" lon="2.400194">
        <ele>539</ele>
        <time>1970-01-01T00:40:19.000Z</time>
      </trkpt>
      <trkpt lat="42.241585" lon="2.400167">
        <ele>539</ele>
        <time>1970-01-01T00:40:20.000Z</time>
      </trkpt>
      <trkpt lat="42.241592" lon="2.400139">
        <ele>539</ele>
        <time>1970-01-01T00:40:21.000Z</time>
      </trkpt>
      <trkpt lat="42.2416" lon="2.400112">
        <ele>539</ele>
        <time>1970-01-01T00:40:22.000Z</time>
      </trkpt>
      <trkpt lat="42.241607" lon="2.400085">
        <ele>539</ele>
        <time>1970-01-01T00:40:23.000Z</time>
      </trkpt>
      <trkpt lat="42.241614" lon="2.400058">
        <ele>539</ele>
        <time>1970-01-01T00:40:24.000Z</time>
      </trkpt>
      <trkpt lat="42.241622" lon="2.400031">
        <ele>539</ele>
        <time>1970-01-01T00:40:25.000Z</time>
      </trkpt>
      <trkpt lat="42.241629" lon="2.400003">
        <ele>539</ele>
        <time>1970-01-01T00:40:26.000Z</time>
      </trkpt>
      <trkpt lat="42.241637" lon="2.399976">
        <ele>539</ele>
        <time>1970-01-01T00:40:27.000Z</time>
      </trkpt>
      <trkpt lat="42.241644" lon="2.399949">
        <ele>540</ele>
        <time>1970-01-01T00:40:28.000Z</time>
      </trkpt>
      <trkpt lat="42.241659" lon="2.399893">
        <ele>540</ele>
        <time>1970-01-01T00:40:29.000Z</time>
      </trkpt>
      <trkpt lat="42.241667" lon="2.399866">
        <ele>540</ele>
        <time>1970-01-01T00:40:30.000Z</time>
      </trkpt>
      <trkpt lat="42.241674" lon="2.39984">
        <ele>540</ele>
        <time>1970-01-01T00:40:31.000Z</time>
      </trkpt>
      <trkpt lat="42.241681" lon="2.399813">
        <ele>540</ele>
        <time>1970-01-01T00:40:32.000Z</time>
      </trkpt>
      <trkpt lat="42.241689" lon="2.399787">
        <ele>540</ele>
        <time>1970-01-01T00:40:33.000Z</time>
      </trkpt>
      <trkpt lat="42.241696" lon="2.39976">
        <ele>540</ele>
        <time>1970-01-01T00:40:34.000Z</time>
      </trkpt>
      <trkpt lat="42.241703" lon="2.399734">
        <ele>540</ele>
        <time>1970-01-01T00:40:35.000Z</time>
      </trkpt>
      <trkpt lat="42.24171" lon="2.399707">
        <ele>540</ele>
        <time>1970-01-01T00:40:36.000Z</time>
      </trkpt>
      <trkpt lat="42.241718" lon="2.399681">
        <ele>540</ele>
        <time>1970-01-01T00:40:37.000Z</time>
      </trkpt>
      <trkpt lat="42.241725" lon="2.399654">
        <ele>542</ele>
        <time>1970-01-01T00:40:38.000Z</time>
      </trkpt>
      <trkpt lat="42.24174" lon="2.399599">
        <ele>542</ele>
        <time>1970-01-01T00:40:39.000Z</time>
      </trkpt>
      <trkpt lat="42.241747" lon="2.399573">
        <ele>542</ele>
        <time>1970-01-01T00:40:40.000Z</time>
      </trkpt>
      <trkpt lat="42.241754" lon="2.399547">
        <ele>542</ele>
        <time>1970-01-01T00:40:41.000Z</time>
      </trkpt>
      <trkpt lat="42.241761" lon="2.399521">
        <ele>542</ele>
        <time>1970-01-01T00:40:42.000Z</time>
      </trkpt>
      <trkpt lat="42.241768" lon="2.399496">
        <ele>542</ele>
        <time>1970-01-01T00:40:43.000Z</time>
      </trkpt>
      <trkpt lat="42.241775" lon="2.39947">
        <ele>542</ele>
        <time>1970-01-01T00:40:44.000Z</time>
      </trkpt>
      <trkpt lat="42.241782" lon="2.399444">
        <ele>542</ele>
        <time>1970-01-01T00:40:45.000Z</time>
      </trkpt>
      <trkpt lat="42.241789" lon="2.399418">
        <ele>542</ele>
        <time>1970-01-01T00:40:46.000Z</time>
      </trkpt>
      <trkpt lat="42.241796" lon="2.399392">
        <ele>542</ele>
        <time>1970-01-01T00:40:47.000Z</time>
      </trkpt>
      <trkpt lat="42.241803" lon="2.399366">
        <ele>544</ele>
        <time>1970-01-01T00:40:48.000Z</time>
      </trkpt>
      <trkpt lat="42.241817" lon="2.399312">
        <ele>544</ele>
        <time>1970-01-01T00:40:49.000Z</time>
      </trkpt>
      <trkpt lat="42.241824" lon="2.399286">
        <ele>544</ele>
        <time>1970-01-01T00:40:50.000Z</time>
      </trkpt>
      <trkpt lat="42.24183" lon="2.399261">
        <ele>544</ele>
        <time>1970-01-01T00:40:51.000Z</time>
      </trkpt>
      <trkpt lat="42.241837" lon="2.399236">
        <ele>544</ele>
        <time>1970-01-01T00:40:52.000Z</time>
      </trkpt>
      <trkpt lat="42.241844" lon="2.399211">
        <ele>544</ele>
        <time>1970-01-01T00:40:53.000Z</time>
      </trkpt>
      <trkpt lat="42.241851" lon="2.399185">
        <ele>544</ele>
        <time>1970-01-01T00:40:54.000Z</time>
      </trkpt>
      <trkpt lat="42.241858" lon="2.39916">
        <ele>544</ele>
        <time>1970-01-01T00:40:55.000Z</time>
      </trkpt>
      <trkpt lat="42.241864" lon="2.399135">
        <ele>544</ele>
        <time>1970-01-01T00:40:56.000Z</time>
      </trkpt>
      <trkpt lat="42.241871" lon="2.399109">
        <ele>544</ele>
        <time>1970-01-01T00:40:57.000Z</time>
      </trkpt>
      <trkpt lat="42.241878" lon="2.399084">
        <ele>545</ele>
        <time>1970-01-01T00:40:58.000Z</time>
      </trkpt>
      <trkpt lat="42.241891" lon="2.39903">
        <ele>545</ele>
        <time>1970-01-01T00:40:59.000Z</time>
      </trkpt>
      <trkpt lat="42.241898" lon="2.399005">
        <ele>545</ele>
        <time>1970-01-01T00:41:00.000Z</time>
      </trkpt>
      <trkpt lat="42.241904" lon="2.39898">
        <ele>545</ele>
        <time>1970-01-01T00:41:01.000Z</time>
      </trkpt>
      <trkpt lat="42.241911" lon="2.398955">
        <ele>545</ele>
        <time>1970-01-01T00:41:02.000Z</time>
      </trkpt>
      <trkpt lat="42.241917" lon="2.398931">
        <ele>545</ele>
        <time>1970-01-01T00:41:03.000Z</time>
      </trkpt>
      <trkpt lat="42.241923" lon="2.398906">
        <ele>545</ele>
        <time>1970-01-01T00:41:04.000Z</time>
      </trkpt>
      <trkpt lat="42.24193" lon="2.398881">
        <ele>545</ele>
        <time>1970-01-01T00:41:05.000Z</time>
      </trkpt>
      <trkpt lat="42.241936" lon="2.398856">
        <ele>545</ele>
        <time>1970-01-01T00:41:06.000Z</time>
      </trkpt>
      <trkpt lat="42.241943" lon="2.398831">
        <ele>545</ele>
        <time>1970-01-01T00:41:07.000Z</time>
      </trkpt>
      <trkpt lat="42.241949" lon="2.398806">
        <ele>547</ele>
        <time>1970-01-01T00:41:08.000Z</time>
      </trkpt>
      <trkpt lat="42.241961" lon="2.398751">
        <ele>547</ele>
        <time>1970-01-01T00:41:09.000Z</time>
      </trkpt>
      <trkpt lat="42.241967" lon="2.398724">
        <ele>547</ele>
        <time>1970-01-01T00:41:10.000Z</time>
      </trkpt>
      <trkpt lat="42.241973" lon="2.398698">
        <ele>547</ele>
        <time>1970-01-01T00:41:11.000Z</time>
      </trkpt>
      <trkpt lat="42.241979" lon="2.398672">
        <ele>547</ele>
        <time>1970-01-01T00:41:12.000Z</time>
      </trkpt>
      <trkpt lat="42.241985" lon="2.398646">
        <ele>547</ele>
        <time>1970-01-01T00:41:13.000Z</time>
      </trkpt>
      <trkpt lat="42.24199" lon="2.398619">
        <ele>547</ele>
        <time>1970-01-01T00:41:14.000Z</time>
      </trkpt>
      <trkpt lat="42.241996" lon="2.398593">
        <ele>547</ele>
        <time>1970-01-01T00:41:15.000Z</time>
      </trkpt>
      <trkpt lat="42.242002" lon="2.398567">
        <ele>547</ele>
        <time>1970-01-01T00:41:16.000Z</time>
      </trkpt>
      <trkpt lat="42.242008" lon="2.39854">
        <ele>547</ele>
        <time>1970-01-01T00:41:17.000Z</time>
      </trkpt>
      <trkpt lat="42.242014" lon="2.398514">
        <ele>549</ele>
        <time>1970-01-01T00:41:18.000Z</time>
      </trkpt>
      <trkpt lat="42.242025" lon="2.398461">
        <ele>549</ele>
        <time>1970-01-01T00:41:19.000Z</time>
      </trkpt>
      <trkpt lat="42.24203" lon="2.398436">
        <ele>549</ele>
        <time>1970-01-01T00:41:20.000Z</time>
      </trkpt>
      <trkpt lat="42.242035" lon="2.39841">
        <ele>549</ele>
        <time>1970-01-01T00:41:21.000Z</time>
      </trkpt>
      <trkpt lat="42.24204" lon="2.398385">
        <ele>549</ele>
        <time>1970-01-01T00:41:22.000Z</time>
      </trkpt>
      <trkpt lat="42.242046" lon="2.39836">
        <ele>549</ele>
        <time>1970-01-01T00:41:23.000Z</time>
      </trkpt>
      <trkpt lat="42.242051" lon="2.398335">
        <ele>549</ele>
        <time>1970-01-01T00:41:24.000Z</time>
      </trkpt>
      <trkpt lat="42.242056" lon="2.39831">
        <ele>549</ele>
        <time>1970-01-01T00:41:25.000Z</time>
      </trkpt>
      <trkpt lat="42.242061" lon="2.398284">
        <ele>549</ele>
        <time>1970-01-01T00:41:26.000Z</time>
      </trkpt>
      <trkpt lat="42.242066" lon="2.398259">
        <ele>549</ele>
        <time>1970-01-01T00:41:27.000Z</time>
      </trkpt>
      <trkpt lat="42.242071" lon="2.398234">
        <ele>551</ele>
        <time>1970-01-01T00:41:28.000Z</time>
      </trkpt>
      <trkpt lat="42.242077" lon="2.398178">
        <ele>551</ele>
        <time>1970-01-01T00:41:29.000Z</time>
      </trkpt>
      <trkpt lat="42.24208" lon="2.398152">
        <ele>551</ele>
        <time>1970-01-01T00:41:30.000Z</time>
      </trkpt>
      <trkpt lat="42.242082" lon="2.398125">
        <ele>551</ele>
        <time>1970-01-01T00:41:31.000Z</time>
      </trkpt>
      <trkpt lat="42.242085" lon="2.398099">
        <ele>551</ele>
        <time>1970-01-01T00:41:32.000Z</time>
      </trkpt>
      <trkpt lat="42.242087" lon="2.398072">
        <ele>551</ele>
        <time>1970-01-01T00:41:33.000Z</time>
      </trkpt>
      <trkpt lat="42.242089" lon="2.398045">
        <ele>551</ele>
        <time>1970-01-01T00:41:34.000Z</time>
      </trkpt>
      <trkpt lat="42.242092" lon="2.398019">
        <ele>551</ele>
        <time>1970-01-01T00:41:35.000Z</time>
      </trkpt>
      <trkpt lat="42.242094" lon="2.397992">
        <ele>551</ele>
        <time>1970-01-01T00:41:36.000Z</time>
      </trkpt>
      <trkpt lat="42.242097" lon="2.397966">
        <ele>551</ele>
        <time>1970-01-01T00:41:37.000Z</time>
      </trkpt>
      <trkpt lat="42.242099" lon="2.397939">
        <ele>553</ele>
        <time>1970-01-01T00:41:38.000Z</time>
      </trkpt>
      <trkpt lat="42.2421" lon="2.397882">
        <ele>553</ele>
        <time>1970-01-01T00:41:39.000Z</time>
      </trkpt>
      <trkpt lat="42.2421" lon="2.397854">
        <ele>553</ele>
        <time>1970-01-01T00:41:40.000Z</time>
      </trkpt>
      <trkpt lat="42.2421" lon="2.397826">
        <ele>553</ele>
        <time>1970-01-01T00:41:41.000Z</time>
      </trkpt>
      <trkpt lat="42.2421" lon="2.397798">
        <ele>553</ele>
        <time>1970-01-01T00:41:42.000Z</time>
      </trkpt>
      <trkpt lat="42.2421" lon="2.39777">
        <ele>553</ele>
        <time>1970-01-01T00:41:43.000Z</time>
      </trkpt>
      <trkpt lat="42.2421" lon="2.397741">
        <ele>553</ele>
        <time>1970-01-01T00:41:44.000Z</time>
      </trkpt>
      <trkpt lat="42.2421" lon="2.397713">
        <ele>553</ele>
        <time>1970-01-01T00:41:45.000Z</time>
      </trkpt>
      <trkpt lat="42.2421" lon="2.397685">
        <ele>553</ele>
        <time>1970-01-01T00:41:46.000Z</time>
      </trkpt>
      <trkpt lat="42.2421" lon="2.397657">
        <ele>553</ele>
        <time>1970-01-01T00:41:47.000Z</time>
      </trkpt>
      <trkpt lat="42.2421" lon="2.397629">
        <ele>555</ele>
        <time>1970-01-01T00:41:48.000Z</time>
      </trkpt>
      <trkpt lat="42.242097" lon="2.397568">
        <ele>555</ele>
        <time>1970-01-01T00:41:49.000Z</time>
      </trkpt>
      <trkpt lat="42.242095" lon="2.39754">
        <ele>555</ele>
        <time>1970-01-01T00:41:50.000Z</time>
      </trkpt>
      <trkpt lat="42.242094" lon="2.397511">
        <ele>555</ele>
        <time>1970-01-01T00:41:51.000Z</time>
      </trkpt>
      <trkpt lat="42.242092" lon="2.397482">
        <ele>555</ele>
        <time>1970-01-01T00:41:52.000Z</time>
      </trkpt>
      <trkpt lat="42.242091" lon="2.397453">
        <ele>555</ele>
        <time>1970-01-01T00:41:53.000Z</time>
      </trkpt>
      <trkpt lat="42.242089" lon="2.397425">
        <ele>555</ele>
        <time>1970-01-01T00:41:54.000Z</time>
      </trkpt>
      <trkpt lat="42.242088" lon="2.397396">
        <ele>555</ele>
        <time>1970-01-01T00:41:55.000Z</time>
      </trkpt>
      <trkpt lat="42.242086" lon="2.397367">
        <ele>555</ele>
        <time>1970-01-01T00:41:56.000Z</time>
      </trkpt>
      <trkpt lat="42.242085" lon="2.397339">
        <ele>555</ele>
        <time>1970-01-01T00:41:57.000Z</time>
      </trkpt>
      <trkpt lat="42.242083" lon="2.39731">
        <ele>555</ele>
        <time>1970-01-01T00:41:58.000Z</time>
      </trkpt>
      <trkpt lat="42.242078" lon="2.397253">
        <ele>555</ele>
        <time>1970-01-01T00:41:59.000Z</time>
      </trkpt>
      <trkpt lat="42.242076" lon="2.397226">
        <ele>555</ele>
        <time>1970-01-01T00:42:00.000Z</time>
      </trkpt>
      <trkpt lat="42.242073" lon="2.3972">
        <ele>555</ele>
        <time>1970-01-01T00:42:01.000Z</time>
      </trkpt>
      <trkpt lat="42.24207" lon="2.397174">
        <ele>555</ele>
        <time>1970-01-01T00:42:02.000Z</time>
      </trkpt>
      <trkpt lat="42.242068" lon="2.397147">
        <ele>555</ele>
        <time>1970-01-01T00:42:03.000Z</time>
      </trkpt>
      <trkpt lat="42.242065" lon="2.397121">
        <ele>555</ele>
        <time>1970-01-01T00:42:04.000Z</time>
      </trkpt>
      <trkpt lat="42.242062" lon="2.397095">
        <ele>555</ele>
        <time>1970-01-01T00:42:05.000Z</time>
      </trkpt>
      <trkpt lat="42.242059" lon="2.397069">
        <ele>555</ele>
        <time>1970-01-01T00:42:06.000Z</time>
      </trkpt>
      <trkpt lat="42.242057" lon="2.397042">
        <ele>555</ele>
        <time>1970-01-01T00:42:07.000Z</time>
      </trkpt>
      <trkpt lat="42.242054" lon="2.397016">
        <ele>557</ele>
        <time>1970-01-01T00:42:08.000Z</time>
      </trkpt>
      <trkpt lat="42.242048" lon="2.39696">
        <ele>557</ele>
        <time>1970-01-01T00:42:09.000Z</time>
      </trkpt>
      <trkpt lat="42.242045" lon="2.396934">
        <ele>557</ele>
        <time>1970-01-01T00:42:10.000Z</time>
      </trkpt>
      <trkpt lat="42.242042" lon="2.396907">
        <ele>557</ele>
        <time>1970-01-01T00:42:11.000Z</time>
      </trkpt>
      <trkpt lat="42.242039" lon="2.39688">
        <ele>557</ele>
        <time>1970-01-01T00:42:12.000Z</time>
      </trkpt>
      <trkpt lat="42.242036" lon="2.396853">
        <ele>557</ele>
        <time>1970-01-01T00:42:13.000Z</time>
      </trkpt>
      <trkpt lat="42.242033" lon="2.396827">
        <ele>557</ele>
        <time>1970-01-01T00:42:14.000Z</time>
      </trkpt>
      <trkpt lat="42.24203" lon="2.3968">
        <ele>557</ele>
        <time>1970-01-01T00:42:15.000Z</time>
      </trkpt>
      <trkpt lat="42.242027" lon="2.396773">
        <ele>557</ele>
        <time>1970-01-01T00:42:16.000Z</time>
      </trkpt>
      <trkpt lat="42.242024" lon="2.396747">
        <ele>557</ele>
        <time>1970-01-01T00:42:17.000Z</time>
      </trkpt>
      <trkpt lat="42.242021" lon="2.39672">
        <ele>559</ele>
        <time>1970-01-01T00:42:18.000Z</time>
      </trkpt>
      <trkpt lat="42.242015" lon="2.396663">
        <ele>559</ele>
        <time>1970-01-01T00:42:19.000Z</time>
      </trkpt>
      <trkpt lat="42.242013" lon="2.396637">
        <ele>559</ele>
        <time>1970-01-01T00:42:20.000Z</time>
      </trkpt>
      <trkpt lat="42.24201" lon="2.39661">
        <ele>559</ele>
        <time>1970-01-01T00:42:21.000Z</time>
      </trkpt>
      <trkpt lat="42.242007" lon="2.396583">
        <ele>559</ele>
        <time>1970-01-01T00:42:22.000Z</time>
      </trkpt>
      <trkpt lat="42.242005" lon="2.396556">
        <ele>559</ele>
        <time>1970-01-01T00:42:23.000Z</time>
      </trkpt>
      <trkpt lat="42.242002" lon="2.39653">
        <ele>559</ele>
        <time>1970-01-01T00:42:24.000Z</time>
      </trkpt>
      <trkpt lat="42.241999" lon="2.396503">
        <ele>559</ele>
        <time>1970-01-01T00:42:25.000Z</time>
      </trkpt>
      <trkpt lat="42.241996" lon="2.396476">
        <ele>559</ele>
        <time>1970-01-01T00:42:26.000Z</time>
      </trkpt>
      <trkpt lat="42.241994" lon="2.39645">
        <ele>559</ele>
        <time>1970-01-01T00:42:27.000Z</time>
      </trkpt>
      <trkpt lat="42.241991" lon="2.396423">
        <ele>560</ele>
        <time>1970-01-01T00:42:28.000Z</time>
      </trkpt>
      <trkpt lat="42.241986" lon="2.396363">
        <ele>560</ele>
        <time>1970-01-01T00:42:29.000Z</time>
      </trkpt>
      <trkpt lat="42.241984" lon="2.396333">
        <ele>560</ele>
        <time>1970-01-01T00:42:30.000Z</time>
      </trkpt>
      <trkpt lat="42.241981" lon="2.396302">
        <ele>560</ele>
        <time>1970-01-01T00:42:31.000Z</time>
      </trkpt>
      <trkpt lat="42.241979" lon="2.396272">
        <ele>560</ele>
        <time>1970-01-01T00:42:32.000Z</time>
      </trkpt>
      <trkpt lat="42.241977" lon="2.396242">
        <ele>560</ele>
        <time>1970-01-01T00:42:33.000Z</time>
      </trkpt>
      <trkpt lat="42.241975" lon="2.396212">
        <ele>560</ele>
        <time>1970-01-01T00:42:34.000Z</time>
      </trkpt>
      <trkpt lat="42.241973" lon="2.396182">
        <ele>560</ele>
        <time>1970-01-01T00:42:35.000Z</time>
      </trkpt>
      <trkpt lat="42.24197" lon="2.396151">
        <ele>560</ele>
        <time>1970-01-01T00:42:36.000Z</time>
      </trkpt>
      <trkpt lat="42.241968" lon="2.396121">
        <ele>560</ele>
        <time>1970-01-01T00:42:37.000Z</time>
      </trkpt>
      <trkpt lat="42.241966" lon="2.396091">
        <ele>562</ele>
        <time>1970-01-01T00:42:38.000Z</time>
      </trkpt>
      <trkpt lat="42.241966" lon="2.396022">
        <ele>562</ele>
        <time>1970-01-01T00:42:39.000Z</time>
      </trkpt>
      <trkpt lat="42.241967" lon="2.39599">
        <ele>562</ele>
        <time>1970-01-01T00:42:40.000Z</time>
      </trkpt>
      <trkpt lat="42.241967" lon="2.395959">
        <ele>562</ele>
        <time>1970-01-01T00:42:41.000Z</time>
      </trkpt>
      <trkpt lat="42.241968" lon="2.395927">
        <ele>562</ele>
        <time>1970-01-01T00:42:42.000Z</time>
      </trkpt>
      <trkpt lat="42.241969" lon="2.395896">
        <ele>562</ele>
        <time>1970-01-01T00:42:43.000Z</time>
      </trkpt>
      <trkpt lat="42.24197" lon="2.395865">
        <ele>562</ele>
        <time>1970-01-01T00:42:44.000Z</time>
      </trkpt>
      <trkpt lat="42.241971" lon="2.395833">
        <ele>562</ele>
        <time>1970-01-01T00:42:45.000Z</time>
      </trkpt>
      <trkpt lat="42.241971" lon="2.395802">
        <ele>562</ele>
        <time>1970-01-01T00:42:46.000Z</time>
      </trkpt>
      <trkpt lat="42.241972" lon="2.39577">
        <ele>562</ele>
        <time>1970-01-01T00:42:47.000Z</time>
      </trkpt>
      <trkpt lat="42.241973" lon="2.395739">
        <ele>562</ele>
        <time>1970-01-01T00:42:48.000Z</time>
      </trkpt>
      <trkpt lat="42.241979" lon="2.395668">
        <ele>562</ele>
        <time>1970-01-01T00:42:49.000Z</time>
      </trkpt>
      <trkpt lat="42.241983" lon="2.395635">
        <ele>562</ele>
        <time>1970-01-01T00:42:50.000Z</time>
      </trkpt>
      <trkpt lat="42.241987" lon="2.395603">
        <ele>562</ele>
        <time>1970-01-01T00:42:51.000Z</time>
      </trkpt>
      <trkpt lat="42.241991" lon="2.39557">
        <ele>562</ele>
        <time>1970-01-01T00:42:52.000Z</time>
      </trkpt>
      <trkpt lat="42.241996" lon="2.395537">
        <ele>562</ele>
        <time>1970-01-01T00:42:53.000Z</time>
      </trkpt>
      <trkpt lat="42.242" lon="2.395504">
        <ele>562</ele>
        <time>1970-01-01T00:42:54.000Z</time>
      </trkpt>
      <trkpt lat="42.242004" lon="2.395471">
        <ele>562</ele>
        <time>1970-01-01T00:42:55.000Z</time>
      </trkpt>
      <trkpt lat="42.242008" lon="2.395439">
        <ele>562</ele>
        <time>1970-01-01T00:42:56.000Z</time>
      </trkpt>
      <trkpt lat="42.242012" lon="2.395406">
        <ele>562</ele>
        <time>1970-01-01T00:42:57.000Z</time>
      </trkpt>
      <trkpt lat="42.242016" lon="2.395373">
        <ele>563</ele>
        <time>1970-01-01T00:42:58.000Z</time>
      </trkpt>
      <trkpt lat="42.242028" lon="2.395304">
        <ele>563</ele>
        <time>1970-01-01T00:42:59.000Z</time>
      </trkpt>
      <trkpt lat="42.242034" lon="2.395272">
        <ele>563</ele>
        <time>1970-01-01T00:43:00.000Z</time>
      </trkpt>
      <trkpt lat="42.242041" lon="2.395239">
        <ele>563</ele>
        <time>1970-01-01T00:43:01.000Z</time>
      </trkpt>
      <trkpt lat="42.242048" lon="2.395206">
        <ele>563</ele>
        <time>1970-01-01T00:43:02.000Z</time>
      </trkpt>
      <trkpt lat="42.242055" lon="2.395174">
        <ele>563</ele>
        <time>1970-01-01T00:43:03.000Z</time>
      </trkpt>
      <trkpt lat="42.242061" lon="2.395141">
        <ele>563</ele>
        <time>1970-01-01T00:43:04.000Z</time>
      </trkpt>
      <trkpt lat="42.242068" lon="2.395108">
        <ele>563</ele>
        <time>1970-01-01T00:43:05.000Z</time>
      </trkpt>
      <trkpt lat="42.242075" lon="2.395075">
        <ele>563</ele>
        <time>1970-01-01T00:43:06.000Z</time>
      </trkpt>
      <trkpt lat="42.242081" lon="2.395043">
        <ele>563</ele>
        <time>1970-01-01T00:43:07.000Z</time>
      </trkpt>
      <trkpt lat="42.242088" lon="2.39501">
        <ele>565</ele>
        <time>1970-01-01T00:43:08.000Z</time>
      </trkpt>
      <trkpt lat="42.242103" lon="2.394935">
        <ele>565</ele>
        <time>1970-01-01T00:43:09.000Z</time>
      </trkpt>
      <trkpt lat="42.24211" lon="2.3949">
        <ele>565</ele>
        <time>1970-01-01T00:43:10.000Z</time>
      </trkpt>
      <trkpt lat="42.242117" lon="2.394866">
        <ele>565</ele>
        <time>1970-01-01T00:43:11.000Z</time>
      </trkpt>
      <trkpt lat="42.242124" lon="2.394831">
        <ele>565</ele>
        <time>1970-01-01T00:43:12.000Z</time>
      </trkpt>
      <trkpt lat="42.242131" lon="2.394796">
        <ele>565</ele>
        <time>1970-01-01T00:43:13.000Z</time>
      </trkpt>
      <trkpt lat="42.242137" lon="2.394761">
        <ele>565</ele>
        <time>1970-01-01T00:43:14.000Z</time>
      </trkpt>
      <trkpt lat="42.242144" lon="2.394726">
        <ele>565</ele>
        <time>1970-01-01T00:43:15.000Z</time>
      </trkpt>
      <trkpt lat="42.242151" lon="2.394692">
        <ele>565</ele>
        <time>1970-01-01T00:43:16.000Z</time>
      </trkpt>
      <trkpt lat="42.242158" lon="2.394657">
        <ele>565</ele>
        <time>1970-01-01T00:43:17.000Z</time>
      </trkpt>
      <trkpt lat="42.242165" lon="2.394622">
        <ele>566</ele>
        <time>1970-01-01T00:43:18.000Z</time>
      </trkpt>
      <trkpt lat="42.242177" lon="2.394543">
        <ele>566</ele>
        <time>1970-01-01T00:43:19.000Z</time>
      </trkpt>
      <trkpt lat="42.242181" lon="2.394505">
        <ele>566</ele>
        <time>1970-01-01T00:43:20.000Z</time>
      </trkpt>
      <trkpt lat="42.242186" lon="2.394468">
        <ele>566</ele>
        <time>1970-01-01T00:43:21.000Z</time>
      </trkpt>
      <trkpt lat="42.242191" lon="2.39443">
        <ele>566</ele>
        <time>1970-01-01T00:43:22.000Z</time>
      </trkpt>
      <trkpt lat="42.242196" lon="2.394393">
        <ele>566</ele>
        <time>1970-01-01T00:43:23.000Z</time>
      </trkpt>
      <trkpt lat="42.2422" lon="2.394355">
        <ele>566</ele>
        <time>1970-01-01T00:43:24.000Z</time>
      </trkpt>
      <trkpt lat="42.242205" lon="2.394318">
        <ele>566</ele>
        <time>1970-01-01T00:43:25.000Z</time>
      </trkpt>
      <trkpt lat="42.24221" lon="2.39428">
        <ele>566</ele>
        <time>1970-01-01T00:43:26.000Z</time>
      </trkpt>
      <trkpt lat="42.242214" lon="2.394243">
        <ele>566</ele>
        <time>1970-01-01T00:43:27.000Z</time>
      </trkpt>
      <trkpt lat="42.242219" lon="2.394205">
        <ele>567</ele>
        <time>1970-01-01T00:43:28.000Z</time>
      </trkpt>
      <trkpt lat="42.242224" lon="2.394125">
        <ele>567</ele>
        <time>1970-01-01T00:43:29.000Z</time>
      </trkpt>
      <trkpt lat="42.242225" lon="2.394089">
        <ele>567</ele>
        <time>1970-01-01T00:43:30.000Z</time>
      </trkpt>
      <trkpt lat="42.242225" lon="2.394052">
        <ele>567</ele>
        <time>1970-01-01T00:43:31.000Z</time>
      </trkpt>
      <trkpt lat="42.242226" lon="2.394015">
        <ele>567</ele>
        <time>1970-01-01T00:43:32.000Z</time>
      </trkpt>
      <trkpt lat="42.242227" lon="2.393979">
        <ele>567</ele>
        <time>1970-01-01T00:43:33.000Z</time>
      </trkpt>
      <trkpt lat="42.242228" lon="2.393942">
        <ele>567</ele>
        <time>1970-01-01T00:43:34.000Z</time>
      </trkpt>
      <trkpt lat="42.242229" lon="2.393905">
        <ele>567</ele>
        <time>1970-01-01T00:43:35.000Z</time>
      </trkpt>
      <trkpt lat="42.242229" lon="2.393868">
        <ele>567</ele>
        <time>1970-01-01T00:43:36.000Z</time>
      </trkpt>
      <trkpt lat="42.24223" lon="2.393832">
        <ele>567</ele>
        <time>1970-01-01T00:43:37.000Z</time>
      </trkpt>
      <trkpt lat="42.242231" lon="2.393795">
        <ele>568</ele>
        <time>1970-01-01T00:43:38.000Z</time>
      </trkpt>
      <trkpt lat="42.242226" lon="2.393719">
        <ele>568</ele>
        <time>1970-01-01T00:43:39.000Z</time>
      </trkpt>
      <trkpt lat="42.242223" lon="2.393682">
        <ele>568</ele>
        <time>1970-01-01T00:43:40.000Z</time>
      </trkpt>
      <trkpt lat="42.24222" lon="2.393645">
        <ele>568</ele>
        <time>1970-01-01T00:43:41.000Z</time>
      </trkpt>
      <trkpt lat="42.242217" lon="2.393608">
        <ele>568</ele>
        <time>1970-01-01T00:43:42.000Z</time>
      </trkpt>
      <trkpt lat="42.242214" lon="2.393571">
        <ele>568</ele>
        <time>1970-01-01T00:43:43.000Z</time>
      </trkpt>
      <trkpt lat="42.24221" lon="2.393535">
        <ele>568</ele>
        <time>1970-01-01T00:43:44.000Z</time>
      </trkpt>
      <trkpt lat="42.242207" lon="2.393498">
        <ele>568</ele>
        <time>1970-01-01T00:43:45.000Z</time>
      </trkpt>
      <trkpt lat="42.242204" lon="2.393461">
        <ele>568</ele>
        <time>1970-01-01T00:43:46.000Z</time>
      </trkpt>
      <trkpt lat="42.242201" lon="2.393424">
        <ele>568</ele>
        <time>1970-01-01T00:43:47.000Z</time>
      </trkpt>
      <trkpt lat="42.242198" lon="2.393387">
        <ele>569</ele>
        <time>1970-01-01T00:43:48.000Z</time>
      </trkpt>
      <trkpt lat="42.242189" lon="2.393306">
        <ele>569</ele>
        <time>1970-01-01T00:43:49.000Z</time>
      </trkpt>
      <trkpt lat="42.242183" lon="2.393268">
        <ele>569</ele>
        <time>1970-01-01T00:43:50.000Z</time>
      </trkpt>
      <trkpt lat="42.242178" lon="2.393231">
        <ele>569</ele>
        <time>1970-01-01T00:43:51.000Z</time>
      </trkpt>
      <trkpt lat="42.242172" lon="2.393193">
        <ele>569</ele>
        <time>1970-01-01T00:43:52.000Z</time>
      </trkpt>
      <trkpt lat="42.242167" lon="2.393155">
        <ele>569</ele>
        <time>1970-01-01T00:43:53.000Z</time>
      </trkpt>
      <trkpt lat="42.242162" lon="2.393117">
        <ele>569</ele>
        <time>1970-01-01T00:43:54.000Z</time>
      </trkpt>
      <trkpt lat="42.242156" lon="2.393079">
        <ele>569</ele>
        <time>1970-01-01T00:43:55.000Z</time>
      </trkpt>
      <trkpt lat="42.242151" lon="2.393042">
        <ele>569</ele>
        <time>1970-01-01T00:43:56.000Z</time>
      </trkpt>
      <trkpt lat="42.242145" lon="2.393004">
        <ele>569</ele>
        <time>1970-01-01T00:43:57.000Z</time>
      </trkpt>
      <trkpt lat="42.24214" lon="2.392966">
        <ele>570</ele>
        <time>1970-01-01T00:43:58.000Z</time>
      </trkpt>
      <trkpt lat="42.242127" lon="2.392887">
        <ele>570</ele>
        <time>1970-01-01T00:43:59.000Z</time>
      </trkpt>
      <trkpt lat="42.242122" lon="2.392849">
        <ele>570</ele>
        <time>1970-01-01T00:44:00.000Z</time>
      </trkpt>
      <trkpt lat="42.242116" lon="2.392811">
        <ele>570</ele>
        <time>1970-01-01T00:44:01.000Z</time>
      </trkpt>
      <trkpt lat="42.242111" lon="2.392773">
        <ele>570</ele>
        <time>1970-01-01T00:44:02.000Z</time>
      </trkpt>
      <trkpt lat="42.242105" lon="2.392734">
        <ele>570</ele>
        <time>1970-01-01T00:44:03.000Z</time>
      </trkpt>
      <trkpt lat="42.242099" lon="2.392696">
        <ele>570</ele>
        <time>1970-01-01T00:44:04.000Z</time>
      </trkpt>
      <trkpt lat="42.242094" lon="2.392658">
        <ele>570</ele>
        <time>1970-01-01T00:44:05.000Z</time>
      </trkpt>
      <trkpt lat="42.242088" lon="2.39262">
        <ele>570</ele>
        <time>1970-01-01T00:44:06.000Z</time>
      </trkpt>
      <trkpt lat="42.242083" lon="2.392582">
        <ele>570</ele>
        <time>1970-01-01T00:44:07.000Z</time>
      </trkpt>
      <trkpt lat="42.242077" lon="2.392544">
        <ele>572</ele>
        <time>1970-01-01T00:44:08.000Z</time>
      </trkpt>
      <trkpt lat="42.242065" lon="2.392467">
        <ele>572</ele>
        <time>1970-01-01T00:44:09.000Z</time>
      </trkpt>
      <trkpt lat="42.242059" lon="2.392432">
        <ele>572</ele>
        <time>1970-01-01T00:44:10.000Z</time>
      </trkpt>
      <trkpt lat="42.242054" lon="2.392396">
        <ele>572</ele>
        <time>1970-01-01T00:44:11.000Z</time>
      </trkpt>
      <trkpt lat="42.242049" lon="2.39236">
        <ele>572</ele>
        <time>1970-01-01T00:44:12.000Z</time>
      </trkpt>
      <trkpt lat="42.242044" lon="2.392324">
        <ele>572</ele>
        <time>1970-01-01T00:44:13.000Z</time>
      </trkpt>
      <trkpt lat="42.242038" lon="2.392289">
        <ele>572</ele>
        <time>1970-01-01T00:44:14.000Z</time>
      </trkpt>
      <trkpt lat="42.242033" lon="2.392253">
        <ele>572</ele>
        <time>1970-01-01T00:44:15.000Z</time>
      </trkpt>
      <trkpt lat="42.242028" lon="2.392217">
        <ele>572</ele>
        <time>1970-01-01T00:44:16.000Z</time>
      </trkpt>
      <trkpt lat="42.242022" lon="2.392182">
        <ele>572</ele>
        <time>1970-01-01T00:44:17.000Z</time>
      </trkpt>
      <trkpt lat="42.242017" lon="2.392146">
        <ele>574</ele>
        <time>1970-01-01T00:44:18.000Z</time>
      </trkpt>
      <trkpt lat="42.242009" lon="2.392068">
        <ele>574</ele>
        <time>1970-01-01T00:44:19.000Z</time>
      </trkpt>
      <trkpt lat="42.242006" lon="2.392032">
        <ele>574</ele>
        <time>1970-01-01T00:44:20.000Z</time>
      </trkpt>
      <trkpt lat="42.242003" lon="2.391995">
        <ele>574</ele>
        <time>1970-01-01T00:44:21.000Z</time>
      </trkpt>
      <trkpt lat="42.242" lon="2.391959">
        <ele>574</ele>
        <time>1970-01-01T00:44:22.000Z</time>
      </trkpt>
      <trkpt lat="42.241998" lon="2.391922">
        <ele>574</ele>
        <time>1970-01-01T00:44:23.000Z</time>
      </trkpt>
      <trkpt lat="42.241995" lon="2.391886">
        <ele>574</ele>
        <time>1970-01-01T00:44:24.000Z</time>
      </trkpt>
      <trkpt lat="42.241992" lon="2.391849">
        <ele>574</ele>
        <time>1970-01-01T00:44:25.000Z</time>
      </trkpt>
      <trkpt lat="42.241989" lon="2.391813">
        <ele>574</ele>
        <time>1970-01-01T00:44:26.000Z</time>
      </trkpt>
      <trkpt lat="42.241986" lon="2.391776">
        <ele>574</ele>
        <time>1970-01-01T00:44:27.000Z</time>
      </trkpt>
      <trkpt lat="42.241983" lon="2.39174">
        <ele>575</ele>
        <time>1970-01-01T00:44:28.000Z</time>
      </trkpt>
      <trkpt lat="42.241981" lon="2.391671">
        <ele>575</ele>
        <time>1970-01-01T00:44:29.000Z</time>
      </trkpt>
      <trkpt lat="42.241981" lon="2.391641">
        <ele>575</ele>
        <time>1970-01-01T00:44:30.000Z</time>
      </trkpt>
      <trkpt lat="42.241982" lon="2.39161">
        <ele>575</ele>
        <time>1970-01-01T00:44:31.000Z</time>
      </trkpt>
      <trkpt lat="42.241982" lon="2.39158">
        <ele>575</ele>
        <time>1970-01-01T00:44:32.000Z</time>
      </trkpt>
      <trkpt lat="42.241983" lon="2.39155">
        <ele>575</ele>
        <time>1970-01-01T00:44:33.000Z</time>
      </trkpt>
      <trkpt lat="42.241984" lon="2.39152">
        <ele>575</ele>
        <time>1970-01-01T00:44:34.000Z</time>
      </trkpt>
      <trkpt lat="42.241984" lon="2.39149">
        <ele>575</ele>
        <time>1970-01-01T00:44:35.000Z</time>
      </trkpt>
      <trkpt lat="42.241985" lon="2.391459">
        <ele>575</ele>
        <time>1970-01-01T00:44:36.000Z</time>
      </trkpt>
      <trkpt lat="42.241985" lon="2.391429">
        <ele>575</ele>
        <time>1970-01-01T00:44:37.000Z</time>
      </trkpt>
      <trkpt lat="42.241986" lon="2.391399">
        <ele>577</ele>
        <time>1970-01-01T00:44:38.000Z</time>
      </trkpt>
      <trkpt lat="42.241991" lon="2.391339">
        <ele>577</ele>
        <time>1970-01-01T00:44:39.000Z</time>
      </trkpt>
      <trkpt lat="42.241995" lon="2.39131">
        <ele>577</ele>
        <time>1970-01-01T00:44:40.000Z</time>
      </trkpt>
      <trkpt lat="42.241998" lon="2.391282">
        <ele>577</ele>
        <time>1970-01-01T00:44:41.000Z</time>
      </trkpt>
      <trkpt lat="42.242002" lon="2.391253">
        <ele>577</ele>
        <time>1970-01-01T00:44:42.000Z</time>
      </trkpt>
      <trkpt lat="42.242005" lon="2.391225">
        <ele>577</ele>
        <time>1970-01-01T00:44:43.000Z</time>
      </trkpt>
      <trkpt lat="42.242008" lon="2.391196">
        <ele>577</ele>
        <time>1970-01-01T00:44:44.000Z</time>
      </trkpt>
      <trkpt lat="42.242012" lon="2.391168">
        <ele>577</ele>
        <time>1970-01-01T00:44:45.000Z</time>
      </trkpt>
      <trkpt lat="42.242015" lon="2.391139">
        <ele>577</ele>
        <time>1970-01-01T00:44:46.000Z</time>
      </trkpt>
      <trkpt lat="42.242019" lon="2.391111">
        <ele>577</ele>
        <time>1970-01-01T00:44:47.000Z</time>
      </trkpt>
      <trkpt lat="42.242022" lon="2.391082">
        <ele>578</ele>
        <time>1970-01-01T00:44:48.000Z</time>
      </trkpt>
      <trkpt lat="42.242032" lon="2.391021">
        <ele>578</ele>
        <time>1970-01-01T00:44:49.000Z</time>
      </trkpt>
      <trkpt lat="42.242037" lon="2.390994">
        <ele>578</ele>
        <time>1970-01-01T00:44:50.000Z</time>
      </trkpt>
      <trkpt lat="42.242043" lon="2.390966">
        <ele>578</ele>
        <time>1970-01-01T00:44:51.000Z</time>
      </trkpt>
      <trkpt lat="42.242049" lon="2.390938">
        <ele>578</ele>
        <time>1970-01-01T00:44:52.000Z</time>
      </trkpt>
      <trkpt lat="42.242055" lon="2.390911">
        <ele>578</ele>
        <time>1970-01-01T00:44:53.000Z</time>
      </trkpt>
      <trkpt lat="42.24206" lon="2.390883">
        <ele>578</ele>
        <time>1970-01-01T00:44:54.000Z</time>
      </trkpt>
      <trkpt lat="42.242066" lon="2.390855">
        <ele>578</ele>
        <time>1970-01-01T00:44:55.000Z</time>
      </trkpt>
      <trkpt lat="42.242072" lon="2.390827">
        <ele>578</ele>
        <time>1970-01-01T00:44:56.000Z</time>
      </trkpt>
      <trkpt lat="42.242077" lon="2.3908">
        <ele>578</ele>
        <time>1970-01-01T00:44:57.000Z</time>
      </trkpt>
      <trkpt lat="42.242083" lon="2.390772">
        <ele>580</ele>
        <time>1970-01-01T00:44:58.000Z</time>
      </trkpt>
      <trkpt lat="42.242097" lon="2.390717">
        <ele>580</ele>
        <time>1970-01-01T00:44:59.000Z</time>
      </trkpt>
      <trkpt lat="42.242104" lon="2.390691">
        <ele>580</ele>
        <time>1970-01-01T00:45:00.000Z</time>
      </trkpt>
      <trkpt lat="42.242112" lon="2.390666">
        <ele>580</ele>
        <time>1970-01-01T00:45:01.000Z</time>
      </trkpt>
      <trkpt lat="42.242119" lon="2.39064">
        <ele>580</ele>
        <time>1970-01-01T00:45:02.000Z</time>
      </trkpt>
      <trkpt lat="42.242126" lon="2.390615">
        <ele>580</ele>
        <time>1970-01-01T00:45:03.000Z</time>
      </trkpt>
      <trkpt lat="42.242133" lon="2.39059">
        <ele>580</ele>
        <time>1970-01-01T00:45:04.000Z</time>
      </trkpt>
      <trkpt lat="42.24214" lon="2.390564">
        <ele>580</ele>
        <time>1970-01-01T00:45:05.000Z</time>
      </trkpt>
      <trkpt lat="42.242148" lon="2.390539">
        <ele>580</ele>
        <time>1970-01-01T00:45:06.000Z</time>
      </trkpt>
      <trkpt lat="42.242155" lon="2.390513">
        <ele>580</ele>
        <time>1970-01-01T00:45:07.000Z</time>
      </trkpt>
      <trkpt lat="42.242162" lon="2.390488">
        <ele>582</ele>
        <time>1970-01-01T00:45:08.000Z</time>
      </trkpt>
      <trkpt lat="42.242177" lon="2.390432">
        <ele>582</ele>
        <time>1970-01-01T00:45:09.000Z</time>
      </trkpt>
      <trkpt lat="42.242185" lon="2.390405">
        <ele>582</ele>
        <time>1970-01-01T00:45:10.000Z</time>
      </trkpt>
      <trkpt lat="42.242193" lon="2.390378">
        <ele>582</ele>
        <time>1970-01-01T00:45:11.000Z</time>
      </trkpt>
      <trkpt lat="42.242201" lon="2.390351">
        <ele>582</ele>
        <time>1970-01-01T00:45:12.000Z</time>
      </trkpt>
      <trkpt lat="42.242209" lon="2.390324">
        <ele>582</ele>
        <time>1970-01-01T00:45:13.000Z</time>
      </trkpt>
      <trkpt lat="42.242216" lon="2.390296">
        <ele>582</ele>
        <time>1970-01-01T00:45:14.000Z</time>
      </trkpt>
      <trkpt lat="42.242224" lon="2.390269">
        <ele>582</ele>
        <time>1970-01-01T00:45:15.000Z</time>
      </trkpt>
      <trkpt lat="42.242232" lon="2.390242">
        <ele>582</ele>
        <time>1970-01-01T00:45:16.000Z</time>
      </trkpt>
      <trkpt lat="42.24224" lon="2.390215">
        <ele>582</ele>
        <time>1970-01-01T00:45:17.000Z</time>
      </trkpt>
      <trkpt lat="42.242248" lon="2.390188">
        <ele>585</ele>
        <time>1970-01-01T00:45:18.000Z</time>
      </trkpt>
      <trkpt lat="42.242264" lon="2.390131">
        <ele>585</ele>
        <time>1970-01-01T00:45:19.000Z</time>
      </trkpt>
      <trkpt lat="42.242273" lon="2.390103">
        <ele>585</ele>
        <time>1970-01-01T00:45:20.000Z</time>
      </trkpt>
      <trkpt lat="42.242281" lon="2.390075">
        <ele>585</ele>
        <time>1970-01-01T00:45:21.000Z</time>
      </trkpt>
      <trkpt lat="42.24229" lon="2.390047">
        <ele>585</ele>
        <time>1970-01-01T00:45:22.000Z</time>
      </trkpt>
      <trkpt lat="42.242298" lon="2.39002">
        <ele>585</ele>
        <time>1970-01-01T00:45:23.000Z</time>
      </trkpt>
      <trkpt lat="42.242306" lon="2.389992">
        <ele>585</ele>
        <time>1970-01-01T00:45:24.000Z</time>
      </trkpt>
      <trkpt lat="42.242315" lon="2.389964">
        <ele>585</ele>
        <time>1970-01-01T00:45:25.000Z</time>
      </trkpt>
      <trkpt lat="42.242323" lon="2.389936">
        <ele>585</ele>
        <time>1970-01-01T00:45:26.000Z</time>
      </trkpt>
      <trkpt lat="42.242332" lon="2.389908">
        <ele>585</ele>
        <time>1970-01-01T00:45:27.000Z</time>
      </trkpt>
      <trkpt lat="42.24234" lon="2.38988">
        <ele>587</ele>
        <time>1970-01-01T00:45:28.000Z</time>
      </trkpt>
      <trkpt lat="42.242358" lon="2.389816">
        <ele>587</ele>
        <time>1970-01-01T00:45:29.000Z</time>
      </trkpt>
      <trkpt lat="42.242367" lon="2.38979">
        <ele>587</ele>
        <time>1970-01-01T00:45:30.000Z</time>
      </trkpt>
      <trkpt lat="42.242376" lon="2.389763">
        <ele>587</ele>
        <time>1970-01-01T00:45:31.000Z</time>
      </trkpt>
      <trkpt lat="42.242385" lon="2.389736">
        <ele>587</ele>
        <time>1970-01-01T00:45:32.000Z</time>
      </trkpt>
      <trkpt lat="42.242395" lon="2.38971">
        <ele>587</ele>
        <time>1970-01-01T00:45:33.000Z</time>
      </trkpt>
      <trkpt lat="42.242404" lon="2.389683">
        <ele>587</ele>
        <time>1970-01-01T00:45:34.000Z</time>
      </trkpt>
      <trkpt lat="42.242413" lon="2.389656">
        <ele>587</ele>
        <time>1970-01-01T00:45:35.000Z</time>
      </trkpt>
      <trkpt lat="42.242422" lon="2.389629">
        <ele>587</ele>
        <time>1970-01-01T00:45:36.000Z</time>
      </trkpt>
      <trkpt lat="42.242431" lon="2.389603">
        <ele>587</ele>
        <time>1970-01-01T00:45:37.000Z</time>
      </trkpt>
      <trkpt lat="42.24244" lon="2.389576">
        <ele>589</ele>
        <time>1970-01-01T00:45:38.000Z</time>
      </trkpt>
      <trkpt lat="42.242454" lon="2.389528">
        <ele>589</ele>
        <time>1970-01-01T00:45:39.000Z</time>
      </trkpt>
      <trkpt lat="42.24246" lon="2.389505">
        <ele>589</ele>
        <time>1970-01-01T00:45:40.000Z</time>
      </trkpt>
      <trkpt lat="42.242466" lon="2.389482">
        <ele>589</ele>
        <time>1970-01-01T00:45:41.000Z</time>
      </trkpt>
      <trkpt lat="42.242472" lon="2.389459">
        <ele>589</ele>
        <time>1970-01-01T00:45:42.000Z</time>
      </trkpt>
      <trkpt lat="42.242479" lon="2.389436">
        <ele>589</ele>
        <time>1970-01-01T00:45:43.000Z</time>
      </trkpt>
      <trkpt lat="42.242485" lon="2.389413">
        <ele>589</ele>
        <time>1970-01-01T00:45:44.000Z</time>
      </trkpt>
      <trkpt lat="42.242491" lon="2.38939">
        <ele>589</ele>
        <time>1970-01-01T00:45:45.000Z</time>
      </trkpt>
      <trkpt lat="42.242497" lon="2.389367">
        <ele>589</ele>
        <time>1970-01-01T00:45:46.000Z</time>
      </trkpt>
      <trkpt lat="42.242503" lon="2.389344">
        <ele>589</ele>
        <time>1970-01-01T00:45:47.000Z</time>
      </trkpt>
      <trkpt lat="42.242509" lon="2.389321">
        <ele>590</ele>
        <time>1970-01-01T00:45:48.000Z</time>
      </trkpt>
      <trkpt lat="42.242519" lon="2.389274">
        <ele>590</ele>
        <time>1970-01-01T00:45:49.000Z</time>
      </trkpt>
      <trkpt lat="42.242523" lon="2.389251">
        <ele>590</ele>
        <time>1970-01-01T00:45:50.000Z</time>
      </trkpt>
      <trkpt lat="42.242527" lon="2.389229">
        <ele>590</ele>
        <time>1970-01-01T00:45:51.000Z</time>
      </trkpt>
      <trkpt lat="42.242531" lon="2.389206">
        <ele>590</ele>
        <time>1970-01-01T00:45:52.000Z</time>
      </trkpt>
      <trkpt lat="42.242535" lon="2.389184">
        <ele>590</ele>
        <time>1970-01-01T00:45:53.000Z</time>
      </trkpt>
      <trkpt lat="42.242539" lon="2.389161">
        <ele>590</ele>
        <time>1970-01-01T00:45:54.000Z</time>
      </trkpt>
      <trkpt lat="42.242543" lon="2.389139">
        <ele>590</ele>
        <time>1970-01-01T00:45:55.000Z</time>
      </trkpt>
      <trkpt lat="42.242547" lon="2.389116">
        <ele>590</ele>
        <time>1970-01-01T00:45:56.000Z</time>
      </trkpt>
      <trkpt lat="42.242551" lon="2.389094">
        <ele>590</ele>
        <time>1970-01-01T00:45:57.000Z</time>
      </trkpt>
      <trkpt lat="42.242555" lon="2.389071">
        <ele>592</ele>
        <time>1970-01-01T00:45:58.000Z</time>
      </trkpt>
      <trkpt lat="42.242563" lon="2.389013">
        <ele>592</ele>
        <time>1970-01-01T00:45:59.000Z</time>
      </trkpt>
      <trkpt lat="42.242567" lon="2.38898">
        <ele>592</ele>
        <time>1970-01-01T00:46:00.000Z</time>
      </trkpt>
      <trkpt lat="42.242572" lon="2.388946">
        <ele>592</ele>
        <time>1970-01-01T00:46:02.000Z</time>
      </trkpt>
      <trkpt lat="42.242577" lon="2.388912">
        <ele>592</ele>
        <time>1970-01-01T00:46:04.000Z</time>
      </trkpt>
      <trkpt lat="42.242581" lon="2.388879">
        <ele>592</ele>
        <time>1970-01-01T00:46:06.000Z</time>
      </trkpt>
      <trkpt lat="42.242586" lon="2.388845">
        <ele>593</ele>
        <time>1970-01-01T00:46:08.000Z</time>
      </trkpt>
      <trkpt lat="42.242589" lon="2.388793">
        <ele>593</ele>
        <time>1970-01-01T00:46:09.000Z</time>
      </trkpt>
      <trkpt lat="42.24259" lon="2.388766">
        <ele>593</ele>
        <time>1970-01-01T00:46:10.000Z</time>
      </trkpt>
      <trkpt lat="42.24259" lon="2.38874">
        <ele>593</ele>
        <time>1970-01-01T00:46:11.000Z</time>
      </trkpt>
      <trkpt lat="42.242591" lon="2.388714">
        <ele>593</ele>
        <time>1970-01-01T00:46:12.000Z</time>
      </trkpt>
      <trkpt lat="42.242592" lon="2.388688">
        <ele>593</ele>
        <time>1970-01-01T00:46:13.000Z</time>
      </trkpt>
      <trkpt lat="42.242593" lon="2.388661">
        <ele>593</ele>
        <time>1970-01-01T00:46:14.000Z</time>
      </trkpt>
      <trkpt lat="42.242594" lon="2.388635">
        <ele>593</ele>
        <time>1970-01-01T00:46:15.000Z</time>
      </trkpt>
      <trkpt lat="42.242594" lon="2.388609">
        <ele>593</ele>
        <time>1970-01-01T00:46:16.000Z</time>
      </trkpt>
      <trkpt lat="42.242595" lon="2.388582">
        <ele>593</ele>
        <time>1970-01-01T00:46:17.000Z</time>
      </trkpt>
      <trkpt lat="42.242596" lon="2.388556">
        <ele>595</ele>
        <time>1970-01-01T00:46:18.000Z</time>
      </trkpt>
      <trkpt lat="42.242593" lon="2.388496">
        <ele>595</ele>
        <time>1970-01-01T00:46:19.000Z</time>
      </trkpt>
      <trkpt lat="42.242592" lon="2.388469">
        <ele>595</ele>
        <time>1970-01-01T00:46:20.000Z</time>
      </trkpt>
      <trkpt lat="42.242591" lon="2.388442">
        <ele>595</ele>
        <time>1970-01-01T00:46:21.000Z</time>
      </trkpt>
      <trkpt lat="42.24259" lon="2.388415">
        <ele>595</ele>
        <time>1970-01-01T00:46:22.000Z</time>
      </trkpt>
      <trkpt lat="42.242589" lon="2.388388">
        <ele>595</ele>
        <time>1970-01-01T00:46:23.000Z</time>
      </trkpt>
      <trkpt lat="42.242588" lon="2.388362">
        <ele>595</ele>
        <time>1970-01-01T00:46:24.000Z</time>
      </trkpt>
      <trkpt lat="42.242587" lon="2.388335">
        <ele>595</ele>
        <time>1970-01-01T00:46:25.000Z</time>
      </trkpt>
      <trkpt lat="42.242586" lon="2.388308">
        <ele>595</ele>
        <time>1970-01-01T00:46:26.000Z</time>
      </trkpt>
      <trkpt lat="42.242585" lon="2.388281">
        <ele>595</ele>
        <time>1970-01-01T00:46:27.000Z</time>
      </trkpt>
      <trkpt lat="42.242584" lon="2.388254">
        <ele>596</ele>
        <time>1970-01-01T00:46:28.000Z</time>
      </trkpt>
      <trkpt lat="42.242581" lon="2.388197">
        <ele>596</ele>
        <time>1970-01-01T00:46:29.000Z</time>
      </trkpt>
      <trkpt lat="42.242579" lon="2.38817">
        <ele>596</ele>
        <time>1970-01-01T00:46:30.000Z</time>
      </trkpt>
      <trkpt lat="42.242578" lon="2.388143">
        <ele>596</ele>
        <time>1970-01-01T00:46:31.000Z</time>
      </trkpt>
      <trkpt lat="42.242576" lon="2.388116">
        <ele>596</ele>
        <time>1970-01-01T00:46:32.000Z</time>
      </trkpt>
      <trkpt lat="42.242575" lon="2.388089">
        <ele>596</ele>
        <time>1970-01-01T00:46:33.000Z</time>
      </trkpt>
      <trkpt lat="42.242574" lon="2.388062">
        <ele>596</ele>
        <time>1970-01-01T00:46:34.000Z</time>
      </trkpt>
      <trkpt lat="42.242572" lon="2.388035">
        <ele>596</ele>
        <time>1970-01-01T00:46:35.000Z</time>
      </trkpt>
      <trkpt lat="42.242571" lon="2.388008">
        <ele>596</ele>
        <time>1970-01-01T00:46:36.000Z</time>
      </trkpt>
      <trkpt lat="42.242569" lon="2.387981">
        <ele>596</ele>
        <time>1970-01-01T00:46:37.000Z</time>
      </trkpt>
      <trkpt lat="42.242568" lon="2.387954">
        <ele>597</ele>
        <time>1970-01-01T00:46:38.000Z</time>
      </trkpt>
      <trkpt lat="42.242565" lon="2.387899">
        <ele>597</ele>
        <time>1970-01-01T00:46:39.000Z</time>
      </trkpt>
      <trkpt lat="42.242563" lon="2.387874">
        <ele>597</ele>
        <time>1970-01-01T00:46:40.000Z</time>
      </trkpt>
      <trkpt lat="42.242562" lon="2.387849">
        <ele>597</ele>
        <time>1970-01-01T00:46:41.000Z</time>
      </trkpt>
      <trkpt lat="42.24256" lon="2.387824">
        <ele>597</ele>
        <time>1970-01-01T00:46:42.000Z</time>
      </trkpt>
      <trkpt lat="42.242559" lon="2.387799">
        <ele>597</ele>
        <time>1970-01-01T00:46:43.000Z</time>
      </trkpt>
      <trkpt lat="42.242557" lon="2.387775">
        <ele>597</ele>
        <time>1970-01-01T00:46:44.000Z</time>
      </trkpt>
      <trkpt lat="42.242556" lon="2.38775">
        <ele>597</ele>
        <time>1970-01-01T00:46:45.000Z</time>
      </trkpt>
      <trkpt lat="42.242554" lon="2.387725">
        <ele>597</ele>
        <time>1970-01-01T00:46:46.000Z</time>
      </trkpt>
      <trkpt lat="42.242553" lon="2.3877">
        <ele>597</ele>
        <time>1970-01-01T00:46:47.000Z</time>
      </trkpt>
      <trkpt lat="42.242551" lon="2.387675">
        <ele>598</ele>
        <time>1970-01-01T00:46:48.000Z</time>
      </trkpt>
      <trkpt lat="42.242549" lon="2.387649">
        <ele>598</ele>
        <time>1970-01-01T00:46:49.000Z</time>
      </trkpt>
      <trkpt lat="42.242549" lon="2.387625">
        <ele>598</ele>
        <time>1970-01-01T00:46:50.000Z</time>
      </trkpt>
      <trkpt lat="42.242534" lon="2.387599">
        <ele>598</ele>
        <time>1970-01-01T00:46:52.000Z</time>
      </trkpt>
      <trkpt lat="42.242454" lon="2.387539">
        <ele>600</ele>
        <time>1970-01-01T00:46:58.000Z</time>
      </trkpt>
      <trkpt lat="42.242476" lon="2.387353">
        <ele>600</ele>
        <time>1970-01-01T00:47:05.000Z</time>
      </trkpt>
      <trkpt lat="42.242476" lon="2.387353">
        <ele>602</ele>
        <time>1970-01-01T00:47:08.000Z</time>
      </trkpt>
      <trkpt lat="42.242491" lon="2.387183">
        <ele>603</ele>
        <time>1970-01-01T00:47:18.000Z</time>
      </trkpt>
      <trkpt lat="42.242505" lon="2.387013">
        <ele>603</ele>
        <time>1970-01-01T00:47:20.000Z</time>
      </trkpt>
      <trkpt lat="42.24252" lon="2.386842">
        <ele>603</ele>
        <time>1970-01-01T00:47:23.000Z</time>
      </trkpt>
      <trkpt lat="42.242534" lon="2.386672">
        <ele>603</ele>
        <time>1970-01-01T00:47:27.000Z</time>
      </trkpt>
      <trkpt lat="42.242549" lon="2.386502">
        <ele>605</ele>
        <time>1970-01-01T00:47:28.000Z</time>
      </trkpt>
      <trkpt lat="42.242568" lon="2.38646">
        <ele>605</ele>
        <time>1970-01-01T00:47:29.000Z</time>
      </trkpt>
      <trkpt lat="42.242577" lon="2.386435">
        <ele>605</ele>
        <time>1970-01-01T00:47:31.000Z</time>
      </trkpt>
      <trkpt lat="42.242586" lon="2.38641">
        <ele>605</ele>
        <time>1970-01-01T00:47:32.000Z</time>
      </trkpt>
      <trkpt lat="42.242595" lon="2.386385">
        <ele>605</ele>
        <time>1970-01-01T00:47:33.000Z</time>
      </trkpt>
      <trkpt lat="42.242603" lon="2.38636">
        <ele>605</ele>
        <time>1970-01-01T00:47:34.000Z</time>
      </trkpt>
      <trkpt lat="42.242612" lon="2.386335">
        <ele>605</ele>
        <time>1970-01-01T00:47:35.000Z</time>
      </trkpt>
      <trkpt lat="42.242621" lon="2.38631">
        <ele>605</ele>
        <time>1970-01-01T00:47:36.000Z</time>
      </trkpt>
      <trkpt lat="42.24263" lon="2.386285">
        <ele>605</ele>
        <time>1970-01-01T00:47:37.000Z</time>
      </trkpt>
      <trkpt lat="42.242639" lon="2.38626">
        <ele>607</ele>
        <time>1970-01-01T00:47:38.000Z</time>
      </trkpt>
      <trkpt lat="42.242655" lon="2.386211">
        <ele>607</ele>
        <time>1970-01-01T00:47:39.000Z</time>
      </trkpt>
      <trkpt lat="42.242663" lon="2.38619">
        <ele>607</ele>
        <time>1970-01-01T00:47:40.000Z</time>
      </trkpt>
      <trkpt lat="42.242672" lon="2.386168">
        <ele>607</ele>
        <time>1970-01-01T00:47:41.000Z</time>
      </trkpt>
      <trkpt lat="42.24268" lon="2.386146">
        <ele>607</ele>
        <time>1970-01-01T00:47:42.000Z</time>
      </trkpt>
      <trkpt lat="42.242689" lon="2.386125">
        <ele>607</ele>
        <time>1970-01-01T00:47:43.000Z</time>
      </trkpt>
      <trkpt lat="42.242698" lon="2.386103">
        <ele>607</ele>
        <time>1970-01-01T00:47:44.000Z</time>
      </trkpt>
      <trkpt lat="42.242706" lon="2.386081">
        <ele>607</ele>
        <time>1970-01-01T00:47:45.000Z</time>
      </trkpt>
      <trkpt lat="42.242715" lon="2.386059">
        <ele>607</ele>
        <time>1970-01-01T00:47:46.000Z</time>
      </trkpt>
      <trkpt lat="42.242723" lon="2.386038">
        <ele>607</ele>
        <time>1970-01-01T00:47:47.000Z</time>
      </trkpt>
      <trkpt lat="42.242732" lon="2.386016">
        <ele>607</ele>
        <time>1970-01-01T00:47:48.000Z</time>
      </trkpt>
      <trkpt lat="42.242751" lon="2.38597">
        <ele>607</ele>
        <time>1970-01-01T00:47:49.000Z</time>
      </trkpt>
      <trkpt lat="42.242761" lon="2.385949">
        <ele>607</ele>
        <time>1970-01-01T00:47:50.000Z</time>
      </trkpt>
      <trkpt lat="42.24277" lon="2.385927">
        <ele>607</ele>
        <time>1970-01-01T00:47:51.000Z</time>
      </trkpt>
      <trkpt lat="42.242779" lon="2.385905">
        <ele>607</ele>
        <time>1970-01-01T00:47:52.000Z</time>
      </trkpt>
      <trkpt lat="42.242789" lon="2.385884">
        <ele>607</ele>
        <time>1970-01-01T00:47:53.000Z</time>
      </trkpt>
      <trkpt lat="42.242798" lon="2.385862">
        <ele>607</ele>
        <time>1970-01-01T00:47:54.000Z</time>
      </trkpt>
      <trkpt lat="42.242807" lon="2.38584">
        <ele>607</ele>
        <time>1970-01-01T00:47:55.000Z</time>
      </trkpt>
      <trkpt lat="42.242816" lon="2.385818">
        <ele>607</ele>
        <time>1970-01-01T00:47:56.000Z</time>
      </trkpt>
      <trkpt lat="42.242826" lon="2.385797">
        <ele>607</ele>
        <time>1970-01-01T00:47:57.000Z</time>
      </trkpt>
      <trkpt lat="42.242835" lon="2.385775">
        <ele>609</ele>
        <time>1970-01-01T00:47:58.000Z</time>
      </trkpt>
      <trkpt lat="42.242854" lon="2.385731">
        <ele>609</ele>
        <time>1970-01-01T00:47:59.000Z</time>
      </trkpt>
      <trkpt lat="42.242864" lon="2.385709">
        <ele>609</ele>
        <time>1970-01-01T00:48:00.000Z</time>
      </trkpt>
      <trkpt lat="42.242874" lon="2.385688">
        <ele>609</ele>
        <time>1970-01-01T00:48:01.000Z</time>
      </trkpt>
      <trkpt lat="42.242884" lon="2.385667">
        <ele>609</ele>
        <time>1970-01-01T00:48:02.000Z</time>
      </trkpt>
      <trkpt lat="42.242895" lon="2.385646">
        <ele>609</ele>
        <time>1970-01-01T00:48:03.000Z</time>
      </trkpt>
      <trkpt lat="42.242905" lon="2.385624">
        <ele>609</ele>
        <time>1970-01-01T00:48:04.000Z</time>
      </trkpt>
      <trkpt lat="42.242915" lon="2.385603">
        <ele>609</ele>
        <time>1970-01-01T00:48:05.000Z</time>
      </trkpt>
      <trkpt lat="42.242925" lon="2.385582">
        <ele>609</ele>
        <time>1970-01-01T00:48:06.000Z</time>
      </trkpt>
      <trkpt lat="42.242935" lon="2.38556">
        <ele>609</ele>
        <time>1970-01-01T00:48:07.000Z</time>
      </trkpt>
      <trkpt lat="42.242945" lon="2.385539">
        <ele>611</ele>
        <time>1970-01-01T00:48:08.000Z</time>
      </trkpt>
      <trkpt lat="42.242966" lon="2.385495">
        <ele>611</ele>
        <time>1970-01-01T00:48:09.000Z</time>
      </trkpt>
      <trkpt lat="42.242976" lon="2.385474">
        <ele>611</ele>
        <time>1970-01-01T00:48:10.000Z</time>
      </trkpt>
      <trkpt lat="42.242985" lon="2.385452">
        <ele>611</ele>
        <time>1970-01-01T00:48:11.000Z</time>
      </trkpt>
      <trkpt lat="42.242995" lon="2.38543">
        <ele>611</ele>
        <time>1970-01-01T00:48:12.000Z</time>
      </trkpt>
      <trkpt lat="42.243005" lon="2.385409">
        <ele>611</ele>
        <time>1970-01-01T00:48:13.000Z</time>
      </trkpt>
      <trkpt lat="42.243015" lon="2.385387">
        <ele>611</ele>
        <time>1970-01-01T00:48:14.000Z</time>
      </trkpt>
      <trkpt lat="42.243025" lon="2.385365">
        <ele>611</ele>
        <time>1970-01-01T00:48:15.000Z</time>
      </trkpt>
      <trkpt lat="42.243034" lon="2.385343">
        <ele>611</ele>
        <time>1970-01-01T00:48:16.000Z</time>
      </trkpt>
      <trkpt lat="42.243044" lon="2.385322">
        <ele>611</ele>
        <time>1970-01-01T00:48:17.000Z</time>
      </trkpt>
      <trkpt lat="42.243054" lon="2.3853">
        <ele>612</ele>
        <time>1970-01-01T00:48:18.000Z</time>
      </trkpt>
      <trkpt lat="42.243074" lon="2.385255">
        <ele>612</ele>
        <time>1970-01-01T00:48:19.000Z</time>
      </trkpt>
      <trkpt lat="42.243083" lon="2.385233">
        <ele>612</ele>
        <time>1970-01-01T00:48:20.000Z</time>
      </trkpt>
      <trkpt lat="42.243093" lon="2.38521">
        <ele>612</ele>
        <time>1970-01-01T00:48:21.000Z</time>
      </trkpt>
      <trkpt lat="42.243102" lon="2.385188">
        <ele>612</ele>
        <time>1970-01-01T00:48:22.000Z</time>
      </trkpt>
      <trkpt lat="42.243112" lon="2.385165">
        <ele>612</ele>
        <time>1970-01-01T00:48:23.000Z</time>
      </trkpt>
      <trkpt lat="42.243122" lon="2.385142">
        <ele>612</ele>
        <time>1970-01-01T00:48:24.000Z</time>
      </trkpt>
      <trkpt lat="42.243131" lon="2.38512">
        <ele>612</ele>
        <time>1970-01-01T00:48:25.000Z</time>
      </trkpt>
      <trkpt lat="42.243141" lon="2.385097">
        <ele>612</ele>
        <time>1970-01-01T00:48:26.000Z</time>
      </trkpt>
      <trkpt lat="42.24315" lon="2.385075">
        <ele>612</ele>
        <time>1970-01-01T00:48:27.000Z</time>
      </trkpt>
      <trkpt lat="42.24316" lon="2.385052">
        <ele>613</ele>
        <time>1970-01-01T00:48:28.000Z</time>
      </trkpt>
      <trkpt lat="42.243177" lon="2.384999">
        <ele>613</ele>
        <time>1970-01-01T00:48:29.000Z</time>
      </trkpt>
      <trkpt lat="42.243184" lon="2.384975">
        <ele>613</ele>
        <time>1970-01-01T00:48:30.000Z</time>
      </trkpt>
      <trkpt lat="42.243192" lon="2.38495">
        <ele>613</ele>
        <time>1970-01-01T00:48:31.000Z</time>
      </trkpt>
      <trkpt lat="42.243199" lon="2.384925">
        <ele>613</ele>
        <time>1970-01-01T00:48:32.000Z</time>
      </trkpt>
      <trkpt lat="42.243207" lon="2.384901">
        <ele>613</ele>
        <time>1970-01-01T00:48:33.000Z</time>
      </trkpt>
      <trkpt lat="42.243215" lon="2.384876">
        <ele>613</ele>
        <time>1970-01-01T00:48:34.000Z</time>
      </trkpt>
      <trkpt lat="42.243222" lon="2.384851">
        <ele>613</ele>
        <time>1970-01-01T00:48:35.000Z</time>
      </trkpt>
      <trkpt lat="42.24323" lon="2.384826">
        <ele>613</ele>
        <time>1970-01-01T00:48:36.000Z</time>
      </trkpt>
      <trkpt lat="42.243237" lon="2.384802">
        <ele>613</ele>
        <time>1970-01-01T00:48:37.000Z</time>
      </trkpt>
      <trkpt lat="42.243245" lon="2.384777">
        <ele>615</ele>
        <time>1970-01-01T00:48:38.000Z</time>
      </trkpt>
      <trkpt lat="42.243256" lon="2.384724">
        <ele>615</ele>
        <time>1970-01-01T00:48:39.000Z</time>
      </trkpt>
      <trkpt lat="42.243262" lon="2.384699">
        <ele>615</ele>
        <time>1970-01-01T00:48:40.000Z</time>
      </trkpt>
      <trkpt lat="42.243267" lon="2.384675">
        <ele>615</ele>
        <time>1970-01-01T00:48:41.000Z</time>
      </trkpt>
      <trkpt lat="42.243273" lon="2.384651">
        <ele>615</ele>
        <time>1970-01-01T00:48:42.000Z</time>
      </trkpt>
      <trkpt lat="42.243279" lon="2.384627">
        <ele>615</ele>
        <time>1970-01-01T00:48:43.000Z</time>
      </trkpt>
      <trkpt lat="42.243285" lon="2.384602">
        <ele>615</ele>
        <time>1970-01-01T00:48:44.000Z</time>
      </trkpt>
      <trkpt lat="42.243291" lon="2.384578">
        <ele>615</ele>
        <time>1970-01-01T00:48:45.000Z</time>
      </trkpt>
      <trkpt lat="42.243296" lon="2.384554">
        <ele>615</ele>
        <time>1970-01-01T00:48:46.000Z</time>
      </trkpt>
      <trkpt lat="42.243302" lon="2.384529">
        <ele>615</ele>
        <time>1970-01-01T00:48:47.000Z</time>
      </trkpt>
      <trkpt lat="42.243308" lon="2.384505">
        <ele>616</ele>
        <time>1970-01-01T00:48:48.000Z</time>
      </trkpt>
      <trkpt lat="42.243319" lon="2.384457">
        <ele>616</ele>
        <time>1970-01-01T00:48:49.000Z</time>
      </trkpt>
      <trkpt lat="42.243325" lon="2.384434">
        <ele>616</ele>
        <time>1970-01-01T00:48:50.000Z</time>
      </trkpt>
      <trkpt lat="42.24333" lon="2.38441">
        <ele>616</ele>
        <time>1970-01-01T00:48:51.000Z</time>
      </trkpt>
      <trkpt lat="42.243336" lon="2.384387">
        <ele>616</ele>
        <time>1970-01-01T00:48:52.000Z</time>
      </trkpt>
      <trkpt lat="42.243341" lon="2.384364">
        <ele>616</ele>
        <time>1970-01-01T00:48:53.000Z</time>
      </trkpt>
      <trkpt lat="42.243346" lon="2.384341">
        <ele>616</ele>
        <time>1970-01-01T00:48:54.000Z</time>
      </trkpt>
      <trkpt lat="42.243352" lon="2.384318">
        <ele>616</ele>
        <time>1970-01-01T00:48:55.000Z</time>
      </trkpt>
      <trkpt lat="42.243357" lon="2.384294">
        <ele>616</ele>
        <time>1970-01-01T00:48:56.000Z</time>
      </trkpt>
      <trkpt lat="42.243363" lon="2.384271">
        <ele>616</ele>
        <time>1970-01-01T00:48:57.000Z</time>
      </trkpt>
      <trkpt lat="42.243368" lon="2.384248">
        <ele>617</ele>
        <time>1970-01-01T00:48:58.000Z</time>
      </trkpt>
      <trkpt lat="42.243377" lon="2.384201">
        <ele>617</ele>
        <time>1970-01-01T00:48:59.000Z</time>
      </trkpt>
      <trkpt lat="42.24338" lon="2.384178">
        <ele>617</ele>
        <time>1970-01-01T00:49:00.000Z</time>
      </trkpt>
      <trkpt lat="42.243384" lon="2.384155">
        <ele>617</ele>
        <time>1970-01-01T00:49:01.000Z</time>
      </trkpt>
      <trkpt lat="42.243388" lon="2.384132">
        <ele>617</ele>
        <time>1970-01-01T00:49:02.000Z</time>
      </trkpt>
      <trkpt lat="42.243392" lon="2.38411">
        <ele>617</ele>
        <time>1970-01-01T00:49:03.000Z</time>
      </trkpt>
      <trkpt lat="42.243395" lon="2.384087">
        <ele>617</ele>
        <time>1970-01-01T00:49:04.000Z</time>
      </trkpt>
      <trkpt lat="42.243399" lon="2.384064">
        <ele>617</ele>
        <time>1970-01-01T00:49:05.000Z</time>
      </trkpt>
      <trkpt lat="42.243403" lon="2.384041">
        <ele>617</ele>
        <time>1970-01-01T00:49:06.000Z</time>
      </trkpt>
      <trkpt lat="42.243406" lon="2.384018">
        <ele>617</ele>
        <time>1970-01-01T00:49:07.000Z</time>
      </trkpt>
      <trkpt lat="42.24341" lon="2.383995">
        <ele>619</ele>
        <time>1970-01-01T00:49:08.000Z</time>
      </trkpt>
      <trkpt lat="42.243417" lon="2.383943">
        <ele>619</ele>
        <time>1970-01-01T00:49:09.000Z</time>
      </trkpt>
      <trkpt lat="42.24342" lon="2.383918">
        <ele>619</ele>
        <time>1970-01-01T00:49:10.000Z</time>
      </trkpt>
      <trkpt lat="42.243422" lon="2.383892">
        <ele>619</ele>
        <time>1970-01-01T00:49:11.000Z</time>
      </trkpt>
      <trkpt lat="42.243425" lon="2.383867">
        <ele>619</ele>
        <time>1970-01-01T00:49:12.000Z</time>
      </trkpt>
      <trkpt lat="42.243428" lon="2.383842">
        <ele>619</ele>
        <time>1970-01-01T00:49:13.000Z</time>
      </trkpt>
      <trkpt lat="42.243431" lon="2.383817">
        <ele>619</ele>
        <time>1970-01-01T00:49:14.000Z</time>
      </trkpt>
      <trkpt lat="42.243433" lon="2.383791">
        <ele>619</ele>
        <time>1970-01-01T00:49:16.000Z</time>
      </trkpt>
      <trkpt lat="42.243436" lon="2.383766">
        <ele>619</ele>
        <time>1970-01-01T00:49:17.000Z</time>
      </trkpt>
      <trkpt lat="42.243439" lon="2.383741">
        <ele>620</ele>
        <time>1970-01-01T00:49:18.000Z</time>
      </trkpt>
      <trkpt lat="42.24344" lon="2.383687">
        <ele>620</ele>
        <time>1970-01-01T00:49:19.000Z</time>
      </trkpt>
      <trkpt lat="42.243441" lon="2.38366">
        <ele>620</ele>
        <time>1970-01-01T00:49:20.000Z</time>
      </trkpt>
      <trkpt lat="42.243441" lon="2.383633">
        <ele>620</ele>
        <time>1970-01-01T00:49:21.000Z</time>
      </trkpt>
      <trkpt lat="42.243442" lon="2.383606">
        <ele>620</ele>
        <time>1970-01-01T00:49:22.000Z</time>
      </trkpt>
      <trkpt lat="42.243442" lon="2.38358">
        <ele>620</ele>
        <time>1970-01-01T00:49:23.000Z</time>
      </trkpt>
      <trkpt lat="42.243443" lon="2.383553">
        <ele>620</ele>
        <time>1970-01-01T00:49:25.000Z</time>
      </trkpt>
      <trkpt lat="42.243443" lon="2.383526">
        <ele>620</ele>
        <time>1970-01-01T00:49:26.000Z</time>
      </trkpt>
      <trkpt lat="42.243444" lon="2.383499">
        <ele>620</ele>
        <time>1970-01-01T00:49:27.000Z</time>
      </trkpt>
      <trkpt lat="42.243444" lon="2.383472">
        <ele>621</ele>
        <time>1970-01-01T00:49:28.000Z</time>
      </trkpt>
      <trkpt lat="42.243444" lon="2.383417">
        <ele>621</ele>
        <time>1970-01-01T00:49:29.000Z</time>
      </trkpt>
      <trkpt lat="42.243444" lon="2.383393">
        <ele>621</ele>
        <time>1970-01-01T00:49:30.000Z</time>
      </trkpt>
      <trkpt lat="42.243445" lon="2.383368">
        <ele>621</ele>
        <time>1970-01-01T00:49:31.000Z</time>
      </trkpt>
      <trkpt lat="42.243445" lon="2.383344">
        <ele>621</ele>
        <time>1970-01-01T00:49:32.000Z</time>
      </trkpt>
      <trkpt lat="42.243446" lon="2.383319">
        <ele>621</ele>
        <time>1970-01-01T00:49:33.000Z</time>
      </trkpt>
      <trkpt lat="42.243446" lon="2.383294">
        <ele>621</ele>
        <time>1970-01-01T00:49:35.000Z</time>
      </trkpt>
      <trkpt lat="42.243447" lon="2.38327">
        <ele>621</ele>
        <time>1970-01-01T00:49:37.000Z</time>
      </trkpt>
      <trkpt lat="42.243447" lon="2.383245">
        <ele>623</ele>
        <time>1970-01-01T00:49:38.000Z</time>
      </trkpt>
      <trkpt lat="42.243523" lon="2.383168">
        <ele>623</ele>
        <time>1970-01-01T00:49:46.000Z</time>
      </trkpt>
      <trkpt lat="42.243523" lon="2.383168">
        <ele>625</ele>
        <time>1970-01-01T00:49:48.000Z</time>
      </trkpt>
      <trkpt lat="42.243523" lon="2.383168">
        <ele>626</ele>
        <time>1970-01-01T00:49:58.000Z</time>
      </trkpt>
      <trkpt lat="42.243523" lon="2.383168">
        <ele>628</ele>
        <time>1970-01-01T00:50:08.000Z</time>
      </trkpt>
      <trkpt lat="42.243523" lon="2.383168">
        <ele>628</ele>
        <time>1970-01-01T00:50:18.000Z</time>
      </trkpt>
      <trkpt lat="42.243523" lon="2.383168">
        <ele>630</ele>
        <time>1970-01-01T00:50:28.000Z</time>
      </trkpt>
      <trkpt lat="42.243523" lon="2.383168">
        <ele>632</ele>
        <time>1970-01-01T00:50:38.000Z</time>
      </trkpt>
      <trkpt lat="42.243523" lon="2.383168">
        <ele>634</ele>
        <time>1970-01-01T00:50:48.000Z</time>
      </trkpt>
      <trkpt lat="42.243523" lon="2.383168">
        <ele>635</ele>
        <time>1970-01-01T00:50:58.000Z</time>
      </trkpt>
      <trkpt lat="42.243523" lon="2.383168">
        <ele>636</ele>
        <time>1970-01-01T00:51:08.000Z</time>
      </trkpt>
      <trkpt lat="42.243523" lon="2.383168">
        <ele>638</ele>
        <time>1970-01-01T00:51:18.000Z</time>
      </trkpt>
      <trkpt lat="42.243523" lon="2.383168">
        <ele>640</ele>
        <time>1970-01-01T00:51:28.000Z</time>
      </trkpt>
      <trkpt lat="42.242229" lon="2.380034">
        <ele>640</ele>
        <time>1970-01-01T00:51:29.000Z</time>
      </trkpt>
      <trkpt lat="42.242227" lon="2.379964">
        <ele>640</ele>
        <time>1970-01-01T00:51:31.000Z</time>
      </trkpt>
      <trkpt lat="42.242224" lon="2.379894">
        <ele>640</ele>
        <time>1970-01-01T00:51:35.000Z</time>
      </trkpt>
      <trkpt lat="42.242222" lon="2.379824">
        <ele>640</ele>
        <time>1970-01-01T00:51:37.000Z</time>
      </trkpt>
      <trkpt lat="42.24222" lon="2.379754">
        <ele>642</ele>
        <time>1970-01-01T00:51:38.000Z</time>
      </trkpt>
      <trkpt lat="42.242199" lon="2.379702">
        <ele>642</ele>
        <time>1970-01-01T00:51:39.000Z</time>
      </trkpt>
      <trkpt lat="42.242189" lon="2.379677">
        <ele>642</ele>
        <time>1970-01-01T00:51:40.000Z</time>
      </trkpt>
      <trkpt lat="42.242179" lon="2.379653">
        <ele>642</ele>
        <time>1970-01-01T00:51:41.000Z</time>
      </trkpt>
      <trkpt lat="42.242169" lon="2.379629">
        <ele>642</ele>
        <time>1970-01-01T00:51:42.000Z</time>
      </trkpt>
      <trkpt lat="42.24216" lon="2.379604">
        <ele>642</ele>
        <time>1970-01-01T00:51:43.000Z</time>
      </trkpt>
      <trkpt lat="42.24215" lon="2.37958">
        <ele>642</ele>
        <time>1970-01-01T00:51:44.000Z</time>
      </trkpt>
      <trkpt lat="42.24214" lon="2.379556">
        <ele>642</ele>
        <time>1970-01-01T00:51:45.000Z</time>
      </trkpt>
      <trkpt lat="42.24213" lon="2.379532">
        <ele>642</ele>
        <time>1970-01-01T00:51:46.000Z</time>
      </trkpt>
      <trkpt lat="42.24212" lon="2.379507">
        <ele>642</ele>
        <time>1970-01-01T00:51:47.000Z</time>
      </trkpt>
      <trkpt lat="42.24211" lon="2.379483">
        <ele>644</ele>
        <time>1970-01-01T00:51:48.000Z</time>
      </trkpt>
      <trkpt lat="42.242088" lon="2.379434">
        <ele>644</ele>
        <time>1970-01-01T00:51:49.000Z</time>
      </trkpt>
      <trkpt lat="42.242078" lon="2.37941">
        <ele>644</ele>
        <time>1970-01-01T00:51:50.000Z</time>
      </trkpt>
      <trkpt lat="42.242068" lon="2.379387">
        <ele>644</ele>
        <time>1970-01-01T00:51:51.000Z</time>
      </trkpt>
      <trkpt lat="42.242058" lon="2.379363">
        <ele>644</ele>
        <time>1970-01-01T00:51:52.000Z</time>
      </trkpt>
      <trkpt lat="42.242048" lon="2.37934">
        <ele>644</ele>
        <time>1970-01-01T00:51:53.000Z</time>
      </trkpt>
      <trkpt lat="42.242037" lon="2.379317">
        <ele>644</ele>
        <time>1970-01-01T00:51:54.000Z</time>
      </trkpt>
      <trkpt lat="42.242027" lon="2.379293">
        <ele>644</ele>
        <time>1970-01-01T00:51:55.000Z</time>
      </trkpt>
      <trkpt lat="42.242017" lon="2.37927">
        <ele>644</ele>
        <time>1970-01-01T00:51:56.000Z</time>
      </trkpt>
      <trkpt lat="42.242007" lon="2.379246">
        <ele>644</ele>
        <time>1970-01-01T00:51:57.000Z</time>
      </trkpt>
      <trkpt lat="42.241997" lon="2.379223">
        <ele>644</ele>
        <time>1970-01-01T00:51:58.000Z</time>
      </trkpt>
      <trkpt lat="42.241976" lon="2.379171">
        <ele>644</ele>
        <time>1970-01-01T00:51:59.000Z</time>
      </trkpt>
      <trkpt lat="42.241967" lon="2.379148">
        <ele>644</ele>
        <time>1970-01-01T00:52:00.000Z</time>
      </trkpt>
      <trkpt lat="42.241957" lon="2.379124">
        <ele>644</ele>
        <time>1970-01-01T00:52:01.000Z</time>
      </trkpt>
      <trkpt lat="42.241947" lon="2.379101">
        <ele>644</ele>
        <time>1970-01-01T00:52:02.000Z</time>
      </trkpt>
      <trkpt lat="42.241938" lon="2.379077">
        <ele>644</ele>
        <time>1970-01-01T00:52:03.000Z</time>
      </trkpt>
      <trkpt lat="42.241928" lon="2.379054">
        <ele>644</ele>
        <time>1970-01-01T00:52:04.000Z</time>
      </trkpt>
      <trkpt lat="42.241918" lon="2.37903">
        <ele>644</ele>
        <time>1970-01-01T00:52:05.000Z</time>
      </trkpt>
      <trkpt lat="42.241908" lon="2.379007">
        <ele>644</ele>
        <time>1970-01-01T00:52:06.000Z</time>
      </trkpt>
      <trkpt lat="42.241899" lon="2.378983">
        <ele>644</ele>
        <time>1970-01-01T00:52:07.000Z</time>
      </trkpt>
      <trkpt lat="42.241889" lon="2.37896">
        <ele>646</ele>
        <time>1970-01-01T00:52:08.000Z</time>
      </trkpt>
      <trkpt lat="42.241869" lon="2.378912">
        <ele>646</ele>
        <time>1970-01-01T00:52:09.000Z</time>
      </trkpt>
      <trkpt lat="42.24186" lon="2.378889">
        <ele>646</ele>
        <time>1970-01-01T00:52:10.000Z</time>
      </trkpt>
      <trkpt lat="42.241851" lon="2.378866">
        <ele>646</ele>
        <time>1970-01-01T00:52:11.000Z</time>
      </trkpt>
      <trkpt lat="42.241842" lon="2.378843">
        <ele>646</ele>
        <time>1970-01-01T00:52:12.000Z</time>
      </trkpt>
      <trkpt lat="42.241833" lon="2.378819">
        <ele>646</ele>
        <time>1970-01-01T00:52:13.000Z</time>
      </trkpt>
      <trkpt lat="42.241823" lon="2.378796">
        <ele>646</ele>
        <time>1970-01-01T00:52:14.000Z</time>
      </trkpt>
      <trkpt lat="42.241814" lon="2.378773">
        <ele>646</ele>
        <time>1970-01-01T00:52:15.000Z</time>
      </trkpt>
      <trkpt lat="42.241805" lon="2.37875">
        <ele>646</ele>
        <time>1970-01-01T00:52:16.000Z</time>
      </trkpt>
      <trkpt lat="42.241796" lon="2.378727">
        <ele>646</ele>
        <time>1970-01-01T00:52:17.000Z</time>
      </trkpt>
      <trkpt lat="42.241787" lon="2.378704">
        <ele>647</ele>
        <time>1970-01-01T00:52:18.000Z</time>
      </trkpt>
      <trkpt lat="42.241767" lon="2.378655">
        <ele>647</ele>
        <time>1970-01-01T00:52:19.000Z</time>
      </trkpt>
      <trkpt lat="42.241758" lon="2.378632">
        <ele>647</ele>
        <time>1970-01-01T00:52:20.000Z</time>
      </trkpt>
      <trkpt lat="42.241749" lon="2.378609">
        <ele>647</ele>
        <time>1970-01-01T00:52:21.000Z</time>
      </trkpt>
      <trkpt lat="42.24174" lon="2.378586">
        <ele>647</ele>
        <time>1970-01-01T00:52:22.000Z</time>
      </trkpt>
      <trkpt lat="42.241731" lon="2.378562">
        <ele>647</ele>
        <time>1970-01-01T00:52:23.000Z</time>
      </trkpt>
      <trkpt lat="42.241721" lon="2.378539">
        <ele>647</ele>
        <time>1970-01-01T00:52:24.000Z</time>
      </trkpt>
      <trkpt lat="42.241712" lon="2.378516">
        <ele>647</ele>
        <time>1970-01-01T00:52:25.000Z</time>
      </trkpt>
      <trkpt lat="42.241703" lon="2.378493">
        <ele>647</ele>
        <time>1970-01-01T00:52:26.000Z</time>
      </trkpt>
      <trkpt lat="42.241694" lon="2.37847">
        <ele>647</ele>
        <time>1970-01-01T00:52:27.000Z</time>
      </trkpt>
      <trkpt lat="42.241685" lon="2.378447">
        <ele>649</ele>
        <time>1970-01-01T00:52:28.000Z</time>
      </trkpt>
      <trkpt lat="42.241667" lon="2.378394">
        <ele>649</ele>
        <time>1970-01-01T00:52:29.000Z</time>
      </trkpt>
      <trkpt lat="42.241658" lon="2.378369">
        <ele>649</ele>
        <time>1970-01-01T00:52:30.000Z</time>
      </trkpt>
      <trkpt lat="42.241649" lon="2.378343">
        <ele>649</ele>
        <time>1970-01-01T00:52:31.000Z</time>
      </trkpt>
      <trkpt lat="42.24164" lon="2.378318">
        <ele>649</ele>
        <time>1970-01-01T00:52:32.000Z</time>
      </trkpt>
      <trkpt lat="42.241631" lon="2.378292">
        <ele>649</ele>
        <time>1970-01-01T00:52:33.000Z</time>
      </trkpt>
      <trkpt lat="42.241621" lon="2.378267">
        <ele>649</ele>
        <time>1970-01-01T00:52:34.000Z</time>
      </trkpt>
      <trkpt lat="42.241612" lon="2.378241">
        <ele>649</ele>
        <time>1970-01-01T00:52:35.000Z</time>
      </trkpt>
      <trkpt lat="42.241603" lon="2.378216">
        <ele>649</ele>
        <time>1970-01-01T00:52:36.000Z</time>
      </trkpt>
      <trkpt lat="42.241594" lon="2.37819">
        <ele>649</ele>
        <time>1970-01-01T00:52:37.000Z</time>
      </trkpt>
      <trkpt lat="42.241585" lon="2.378165">
        <ele>651</ele>
        <time>1970-01-01T00:52:38.000Z</time>
      </trkpt>
      <trkpt lat="42.241568" lon="2.378111">
        <ele>651</ele>
        <time>1970-01-01T00:52:39.000Z</time>
      </trkpt>
      <trkpt lat="42.24156" lon="2.378086">
        <ele>651</ele>
        <time>1970-01-01T00:52:40.000Z</time>
      </trkpt>
      <trkpt lat="42.241553" lon="2.37806">
        <ele>651</ele>
        <time>1970-01-01T00:52:41.000Z</time>
      </trkpt>
      <trkpt lat="42.241545" lon="2.378035">
        <ele>651</ele>
        <time>1970-01-01T00:52:42.000Z</time>
      </trkpt>
      <trkpt lat="42.241538" lon="2.37801">
        <ele>651</ele>
        <time>1970-01-01T00:52:43.000Z</time>
      </trkpt>
      <trkpt lat="42.24153" lon="2.377985">
        <ele>651</ele>
        <time>1970-01-01T00:52:44.000Z</time>
      </trkpt>
      <trkpt lat="42.241523" lon="2.37796">
        <ele>651</ele>
        <time>1970-01-01T00:52:45.000Z</time>
      </trkpt>
      <trkpt lat="42.241515" lon="2.377934">
        <ele>651</ele>
        <time>1970-01-01T00:52:46.000Z</time>
      </trkpt>
      <trkpt lat="42.241508" lon="2.377909">
        <ele>651</ele>
        <time>1970-01-01T00:52:47.000Z</time>
      </trkpt>
      <trkpt lat="42.2415" lon="2.377884">
        <ele>653</ele>
        <time>1970-01-01T00:52:48.000Z</time>
      </trkpt>
      <trkpt lat="42.241483" lon="2.377834">
        <ele>653</ele>
        <time>1970-01-01T00:52:49.000Z</time>
      </trkpt>
      <trkpt lat="42.241476" lon="2.37781">
        <ele>653</ele>
        <time>1970-01-01T00:52:50.000Z</time>
      </trkpt>
      <trkpt lat="42.241468" lon="2.377787">
        <ele>653</ele>
        <time>1970-01-01T00:52:51.000Z</time>
      </trkpt>
      <trkpt lat="42.24146" lon="2.377763">
        <ele>653</ele>
        <time>1970-01-01T00:52:52.000Z</time>
      </trkpt>
      <trkpt lat="42.241453" lon="2.377739">
        <ele>653</ele>
        <time>1970-01-01T00:52:53.000Z</time>
      </trkpt>
      <trkpt lat="42.241445" lon="2.377715">
        <ele>653</ele>
        <time>1970-01-01T00:52:54.000Z</time>
      </trkpt>
      <trkpt lat="42.241437" lon="2.377691">
        <ele>653</ele>
        <time>1970-01-01T00:52:55.000Z</time>
      </trkpt>
      <trkpt lat="42.241429" lon="2.377668">
        <ele>653</ele>
        <time>1970-01-01T00:52:56.000Z</time>
      </trkpt>
      <trkpt lat="42.241422" lon="2.377644">
        <ele>653</ele>
        <time>1970-01-01T00:52:57.000Z</time>
      </trkpt>
      <trkpt lat="42.241414" lon="2.37762">
        <ele>654</ele>
        <time>1970-01-01T00:52:58.000Z</time>
      </trkpt>
      <trkpt lat="42.241398" lon="2.377571">
        <ele>654</ele>
        <time>1970-01-01T00:52:59.000Z</time>
      </trkpt>
      <trkpt lat="42.24139" lon="2.377546">
        <ele>654</ele>
        <time>1970-01-01T00:53:00.000Z</time>
      </trkpt>
      <trkpt lat="42.241382" lon="2.377521">
        <ele>654</ele>
        <time>1970-01-01T00:53:01.000Z</time>
      </trkpt>
      <trkpt lat="42.241374" lon="2.377496">
        <ele>654</ele>
        <time>1970-01-01T00:53:02.000Z</time>
      </trkpt>
      <trkpt lat="42.241366" lon="2.377471">
        <ele>654</ele>
        <time>1970-01-01T00:53:03.000Z</time>
      </trkpt>
      <trkpt lat="42.241358" lon="2.377446">
        <ele>654</ele>
        <time>1970-01-01T00:53:04.000Z</time>
      </trkpt>
      <trkpt lat="42.24135" lon="2.377421">
        <ele>654</ele>
        <time>1970-01-01T00:53:05.000Z</time>
      </trkpt>
      <trkpt lat="42.241342" lon="2.377396">
        <ele>654</ele>
        <time>1970-01-01T00:53:06.000Z</time>
      </trkpt>
      <trkpt lat="42.241334" lon="2.377371">
        <ele>654</ele>
        <time>1970-01-01T00:53:07.000Z</time>
      </trkpt>
      <trkpt lat="42.241326" lon="2.377346">
        <ele>656</ele>
        <time>1970-01-01T00:53:08.000Z</time>
      </trkpt>
      <trkpt lat="42.241309" lon="2.377293">
        <ele>656</ele>
        <time>1970-01-01T00:53:09.000Z</time>
      </trkpt>
      <trkpt lat="42.241301" lon="2.377268">
        <ele>656</ele>
        <time>1970-01-01T00:53:10.000Z</time>
      </trkpt>
      <trkpt lat="42.241293" lon="2.377243">
        <ele>656</ele>
        <time>1970-01-01T00:53:11.000Z</time>
      </trkpt>
      <trkpt lat="42.241285" lon="2.377218">
        <ele>656</ele>
        <time>1970-01-01T00:53:12.000Z</time>
      </trkpt>
      <trkpt lat="42.241277" lon="2.377192">
        <ele>656</ele>
        <time>1970-01-01T00:53:13.000Z</time>
      </trkpt>
      <trkpt lat="42.241268" lon="2.377167">
        <ele>656</ele>
        <time>1970-01-01T00:53:14.000Z</time>
      </trkpt>
      <trkpt lat="42.24126" lon="2.377142">
        <ele>656</ele>
        <time>1970-01-01T00:53:15.000Z</time>
      </trkpt>
      <trkpt lat="42.241252" lon="2.377117">
        <ele>656</ele>
        <time>1970-01-01T00:53:16.000Z</time>
      </trkpt>
      <trkpt lat="42.241244" lon="2.377092">
        <ele>656</ele>
        <time>1970-01-01T00:53:17.000Z</time>
      </trkpt>
      <trkpt lat="42.241236" lon="2.377067">
        <ele>657</ele>
        <time>1970-01-01T00:53:18.000Z</time>
      </trkpt>
      <trkpt lat="42.241219" lon="2.377014">
        <ele>657</ele>
        <time>1970-01-01T00:53:19.000Z</time>
      </trkpt>
      <trkpt lat="42.241212" lon="2.376989">
        <ele>657</ele>
        <time>1970-01-01T00:53:20.000Z</time>
      </trkpt>
      <trkpt lat="42.241204" lon="2.376964">
        <ele>657</ele>
        <time>1970-01-01T00:53:21.000Z</time>
      </trkpt>
      <trkpt lat="42.241196" lon="2.376939">
        <ele>657</ele>
        <time>1970-01-01T00:53:22.000Z</time>
      </trkpt>
      <trkpt lat="42.241189" lon="2.376913">
        <ele>657</ele>
        <time>1970-01-01T00:53:23.000Z</time>
      </trkpt>
      <trkpt lat="42.241181" lon="2.376888">
        <ele>657</ele>
        <time>1970-01-01T00:53:24.000Z</time>
      </trkpt>
      <trkpt lat="42.241173" lon="2.376863">
        <ele>657</ele>
        <time>1970-01-01T00:53:25.000Z</time>
      </trkpt>
      <trkpt lat="42.241165" lon="2.376838">
        <ele>657</ele>
        <time>1970-01-01T00:53:26.000Z</time>
      </trkpt>
      <trkpt lat="42.241158" lon="2.376813">
        <ele>657</ele>
        <time>1970-01-01T00:53:27.000Z</time>
      </trkpt>
      <trkpt lat="42.24115" lon="2.376788">
        <ele>658</ele>
        <time>1970-01-01T00:53:28.000Z</time>
      </trkpt>
      <trkpt lat="42.241131" lon="2.376729">
        <ele>658</ele>
        <time>1970-01-01T00:53:29.000Z</time>
      </trkpt>
      <trkpt lat="42.241122" lon="2.376702">
        <ele>658</ele>
        <time>1970-01-01T00:53:30.000Z</time>
      </trkpt>
      <trkpt lat="42.241114" lon="2.376674">
        <ele>658</ele>
        <time>1970-01-01T00:53:31.000Z</time>
      </trkpt>
      <trkpt lat="42.241105" lon="2.376647">
        <ele>658</ele>
        <time>1970-01-01T00:53:32.000Z</time>
      </trkpt>
      <trkpt lat="42.241097" lon="2.376619">
        <ele>658</ele>
        <time>1970-01-01T00:53:33.000Z</time>
      </trkpt>
      <trkpt lat="42.241088" lon="2.376591">
        <ele>658</ele>
        <time>1970-01-01T00:53:34.000Z</time>
      </trkpt>
      <trkpt lat="42.24108" lon="2.376564">
        <ele>658</ele>
        <time>1970-01-01T00:53:35.000Z</time>
      </trkpt>
      <trkpt lat="42.241071" lon="2.376536">
        <ele>658</ele>
        <time>1970-01-01T00:53:36.000Z</time>
      </trkpt>
      <trkpt lat="42.241063" lon="2.376509">
        <ele>658</ele>
        <time>1970-01-01T00:53:37.000Z</time>
      </trkpt>
      <trkpt lat="42.241054" lon="2.376481">
        <ele>659</ele>
        <time>1970-01-01T00:53:38.000Z</time>
      </trkpt>
      <trkpt lat="42.241036" lon="2.376424">
        <ele>659</ele>
        <time>1970-01-01T00:53:39.000Z</time>
      </trkpt>
      <trkpt lat="42.241028" lon="2.376398">
        <ele>659</ele>
        <time>1970-01-01T00:53:40.000Z</time>
      </trkpt>
      <trkpt lat="42.24102" lon="2.376371">
        <ele>659</ele>
        <time>1970-01-01T00:53:41.000Z</time>
      </trkpt>
      <trkpt lat="42.241012" lon="2.376345">
        <ele>659</ele>
        <time>1970-01-01T00:53:42.000Z</time>
      </trkpt>
      <trkpt lat="42.241004" lon="2.376318">
        <ele>659</ele>
        <time>1970-01-01T00:53:43.000Z</time>
      </trkpt>
      <trkpt lat="42.240995" lon="2.376292">
        <ele>659</ele>
        <time>1970-01-01T00:53:44.000Z</time>
      </trkpt>
      <trkpt lat="42.240987" lon="2.376265">
        <ele>659</ele>
        <time>1970-01-01T00:53:45.000Z</time>
      </trkpt>
      <trkpt lat="42.240979" lon="2.376239">
        <ele>659</ele>
        <time>1970-01-01T00:53:46.000Z</time>
      </trkpt>
      <trkpt lat="42.240971" lon="2.376212">
        <ele>659</ele>
        <time>1970-01-01T00:53:47.000Z</time>
      </trkpt>
      <trkpt lat="42.240963" lon="2.376186">
        <ele>660</ele>
        <time>1970-01-01T00:53:48.000Z</time>
      </trkpt>
      <trkpt lat="42.240944" lon="2.376128">
        <ele>660</ele>
        <time>1970-01-01T00:53:49.000Z</time>
      </trkpt>
      <trkpt lat="42.240935" lon="2.376101">
        <ele>660</ele>
        <time>1970-01-01T00:53:50.000Z</time>
      </trkpt>
      <trkpt lat="42.240927" lon="2.376073">
        <ele>660</ele>
        <time>1970-01-01T00:53:51.000Z</time>
      </trkpt>
      <trkpt lat="42.240918" lon="2.376045">
        <ele>660</ele>
        <time>1970-01-01T00:53:52.000Z</time>
      </trkpt>
      <trkpt lat="42.24091" lon="2.376017">
        <ele>660</ele>
        <time>1970-01-01T00:53:53.000Z</time>
      </trkpt>
      <trkpt lat="42.240902" lon="2.37599">
        <ele>660</ele>
        <time>1970-01-01T00:53:54.000Z</time>
      </trkpt>
      <trkpt lat="42.240893" lon="2.375962">
        <ele>660</ele>
        <time>1970-01-01T00:53:55.000Z</time>
      </trkpt>
      <trkpt lat="42.240885" lon="2.375934">
        <ele>660</ele>
        <time>1970-01-01T00:53:56.000Z</time>
      </trkpt>
      <trkpt lat="42.240876" lon="2.375907">
        <ele>660</ele>
        <time>1970-01-01T00:53:57.000Z</time>
      </trkpt>
      <trkpt lat="42.240868" lon="2.375879">
        <ele>661</ele>
        <time>1970-01-01T00:53:58.000Z</time>
      </trkpt>
      <trkpt lat="42.240854" lon="2.375825">
        <ele>661</ele>
        <time>1970-01-01T00:53:59.000Z</time>
      </trkpt>
      <trkpt lat="42.240846" lon="2.3758">
        <ele>661</ele>
        <time>1970-01-01T00:54:00.000Z</time>
      </trkpt>
      <trkpt lat="42.240839" lon="2.375776">
        <ele>661</ele>
        <time>1970-01-01T00:54:01.000Z</time>
      </trkpt>
      <trkpt lat="42.240831" lon="2.375751">
        <ele>661</ele>
        <time>1970-01-01T00:54:02.000Z</time>
      </trkpt>
      <trkpt lat="42.240824" lon="2.375726">
        <ele>661</ele>
        <time>1970-01-01T00:54:03.000Z</time>
      </trkpt>
      <trkpt lat="42.240817" lon="2.375701">
        <ele>661</ele>
        <time>1970-01-01T00:54:04.000Z</time>
      </trkpt>
      <trkpt lat="42.240809" lon="2.375676">
        <ele>661</ele>
        <time>1970-01-01T00:54:05.000Z</time>
      </trkpt>
      <trkpt lat="42.240802" lon="2.375652">
        <ele>661</ele>
        <time>1970-01-01T00:54:06.000Z</time>
      </trkpt>
      <trkpt lat="42.240794" lon="2.375627">
        <ele>661</ele>
        <time>1970-01-01T00:54:07.000Z</time>
      </trkpt>
      <trkpt lat="42.240787" lon="2.375602">
        <ele>661</ele>
        <time>1970-01-01T00:54:08.000Z</time>
      </trkpt>
      <trkpt lat="42.240772" lon="2.375561">
        <ele>661</ele>
        <time>1970-01-01T00:54:10.000Z</time>
      </trkpt>
      <trkpt lat="42.240764" lon="2.375537">
        <ele>661</ele>
        <time>1970-01-01T00:54:16.000Z</time>
      </trkpt>
      <trkpt lat="42.240764" lon="2.375537">
        <ele>662</ele>
        <time>1970-01-01T00:54:18.000Z</time>
      </trkpt>
      <trkpt lat="42.240768" lon="2.375536">
        <ele>662</ele>
        <time>1970-01-01T00:54:19.000Z</time>
      </trkpt>
      <trkpt lat="42.240768" lon="2.37556">
        <ele>662</ele>
        <time>1970-01-01T00:54:26.000Z</time>
      </trkpt>
      <trkpt lat="42.240767" lon="2.375585">
        <ele>662</ele>
        <time>1970-01-01T00:54:27.000Z</time>
      </trkpt>
      <trkpt lat="42.240766" lon="2.37561">
        <ele>672</ele>
        <time>1970-01-01T01:15:46.000Z</time>
      </trkpt>
      <trkpt lat="42.240766" lon="2.375635">
        <ele>672</ele>
        <time>1970-01-01T01:15:47.000Z</time>
      </trkpt>
      <trkpt lat="42.240765" lon="2.375659">
        <ele>672</ele>
        <time>1970-01-01T01:15:48.000Z</time>
      </trkpt>
      <trkpt lat="42.240765" lon="2.375684">
        <ele>672</ele>
        <time>1970-01-01T01:15:49.000Z</time>
      </trkpt>
      <trkpt lat="42.240764" lon="2.375709">
        <ele>672</ele>
        <time>1970-01-01T01:15:50.000Z</time>
      </trkpt>
      <trkpt lat="42.240763" lon="2.375733">
        <ele>672</ele>
        <time>1970-01-01T01:15:51.000Z</time>
      </trkpt>
      <trkpt lat="42.240763" lon="2.375758">
        <ele>672</ele>
        <time>1970-01-01T01:15:52.000Z</time>
      </trkpt>
      <trkpt lat="42.240762" lon="2.375783">
        <ele>672</ele>
        <time>1970-01-01T01:15:53.000Z</time>
      </trkpt>
      <trkpt lat="42.240761" lon="2.375808">
        <ele>672</ele>
        <time>1970-01-01T01:15:54.000Z</time>
      </trkpt>
      <trkpt lat="42.240761" lon="2.375832">
        <ele>672</ele>
        <time>1970-01-01T01:15:55.000Z</time>
      </trkpt>
      <trkpt lat="42.24076" lon="2.375857">
        <ele>673</ele>
        <time>1970-01-01T01:15:56.000Z</time>
      </trkpt>
      <trkpt lat="42.240791" lon="2.37596">
        <ele>673</ele>
        <time>1970-01-01T01:15:57.000Z</time>
      </trkpt>
      <trkpt lat="42.240806" lon="2.376017">
        <ele>673</ele>
        <time>1970-01-01T01:15:58.000Z</time>
      </trkpt>
      <trkpt lat="42.240821" lon="2.376073">
        <ele>673</ele>
        <time>1970-01-01T01:15:59.000Z</time>
      </trkpt>
      <trkpt lat="42.240836" lon="2.37613">
        <ele>673</ele>
        <time>1970-01-01T01:16:00.000Z</time>
      </trkpt>
      <trkpt lat="42.240852" lon="2.376187">
        <ele>673</ele>
        <time>1970-01-01T01:16:01.000Z</time>
      </trkpt>
      <trkpt lat="42.240867" lon="2.376244">
        <ele>673</ele>
        <time>1970-01-01T01:16:02.000Z</time>
      </trkpt>
      <trkpt lat="42.240882" lon="2.376301">
        <ele>673</ele>
        <time>1970-01-01T01:16:03.000Z</time>
      </trkpt>
      <trkpt lat="42.240897" lon="2.376357">
        <ele>673</ele>
        <time>1970-01-01T01:16:04.000Z</time>
      </trkpt>
      <trkpt lat="42.240912" lon="2.376414">
        <ele>673</ele>
        <time>1970-01-01T01:16:05.000Z</time>
      </trkpt>
      <trkpt lat="42.240927" lon="2.376471">
        <ele>671</ele>
        <time>1970-01-01T01:16:06.000Z</time>
      </trkpt>
      <trkpt lat="42.240973" lon="2.376622">
        <ele>671</ele>
        <time>1970-01-01T01:16:07.000Z</time>
      </trkpt>
      <trkpt lat="42.240995" lon="2.376696">
        <ele>671</ele>
        <time>1970-01-01T01:16:08.000Z</time>
      </trkpt>
      <trkpt lat="42.241018" lon="2.376769">
        <ele>671</ele>
        <time>1970-01-01T01:16:09.000Z</time>
      </trkpt>
      <trkpt lat="42.241041" lon="2.376843">
        <ele>671</ele>
        <time>1970-01-01T01:16:10.000Z</time>
      </trkpt>
      <trkpt lat="42.241064" lon="2.376917">
        <ele>671</ele>
        <time>1970-01-01T01:16:11.000Z</time>
      </trkpt>
      <trkpt lat="42.241086" lon="2.376991">
        <ele>671</ele>
        <time>1970-01-01T01:16:12.000Z</time>
      </trkpt>
      <trkpt lat="42.241109" lon="2.377065">
        <ele>671</ele>
        <time>1970-01-01T01:16:13.000Z</time>
      </trkpt>
      <trkpt lat="42.241132" lon="2.377138">
        <ele>671</ele>
        <time>1970-01-01T01:16:14.000Z</time>
      </trkpt>
      <trkpt lat="42.241154" lon="2.377212">
        <ele>671</ele>
        <time>1970-01-01T01:16:15.000Z</time>
      </trkpt>
      <trkpt lat="42.241177" lon="2.377286">
        <ele>671</ele>
        <time>1970-01-01T01:16:16.000Z</time>
      </trkpt>
      <trkpt lat="42.241232" lon="2.377467">
        <ele>671</ele>
        <time>1970-01-01T01:16:17.000Z</time>
      </trkpt>
      <trkpt lat="42.241261" lon="2.377559">
        <ele>671</ele>
        <time>1970-01-01T01:16:18.000Z</time>
      </trkpt>
      <trkpt lat="42.24129" lon="2.37765">
        <ele>671</ele>
        <time>1970-01-01T01:16:19.000Z</time>
      </trkpt>
      <trkpt lat="42.241319" lon="2.377742">
        <ele>671</ele>
        <time>1970-01-01T01:16:20.000Z</time>
      </trkpt>
      <trkpt lat="42.241348" lon="2.377833">
        <ele>671</ele>
        <time>1970-01-01T01:16:21.000Z</time>
      </trkpt>
      <trkpt lat="42.241376" lon="2.377924">
        <ele>671</ele>
        <time>1970-01-01T01:16:22.000Z</time>
      </trkpt>
      <trkpt lat="42.241405" lon="2.378016">
        <ele>671</ele>
        <time>1970-01-01T01:16:23.000Z</time>
      </trkpt>
      <trkpt lat="42.241434" lon="2.378107">
        <ele>671</ele>
        <time>1970-01-01T01:16:24.000Z</time>
      </trkpt>
      <trkpt lat="42.241463" lon="2.378199">
        <ele>671</ele>
        <time>1970-01-01T01:16:25.000Z</time>
      </trkpt>
      <trkpt lat="42.241492" lon="2.37829">
        <ele>665</ele>
        <time>1970-01-01T01:16:26.000Z</time>
      </trkpt>
      <trkpt lat="42.241529" lon="2.3784">
        <ele>665</ele>
        <time>1970-01-01T01:16:27.000Z</time>
      </trkpt>
      <trkpt lat="42.24157" lon="2.378514">
        <ele>665</ele>
        <time>1970-01-01T01:16:28.000Z</time>
      </trkpt>
      <trkpt lat="42.241614" lon="2.378629">
        <ele>665</ele>
        <time>1970-01-01T01:16:29.000Z</time>
      </trkpt>
      <trkpt lat="42.241662" lon="2.378746">
        <ele>665</ele>
        <time>1970-01-01T01:16:30.000Z</time>
      </trkpt>
      <trkpt lat="42.241712" lon="2.378866">
        <ele>665</ele>
        <time>1970-01-01T01:16:31.000Z</time>
      </trkpt>
      <trkpt lat="42.241762" lon="2.378986">
        <ele>665</ele>
        <time>1970-01-01T01:16:32.000Z</time>
      </trkpt>
      <trkpt lat="42.241815" lon="2.37911">
        <ele>665</ele>
        <time>1970-01-01T01:16:33.000Z</time>
      </trkpt>
      <trkpt lat="42.241869" lon="2.379238">
        <ele>665</ele>
        <time>1970-01-01T01:16:34.000Z</time>
      </trkpt>
      <trkpt lat="42.241926" lon="2.379368">
        <ele>665</ele>
        <time>1970-01-01T01:16:35.000Z</time>
      </trkpt>
      <trkpt lat="42.241983" lon="2.379498">
        <ele>657</ele>
        <time>1970-01-01T01:16:36.000Z</time>
      </trkpt>
      <trkpt lat="42.24204" lon="2.379628">
        <ele>657</ele>
        <time>1970-01-01T01:16:37.000Z</time>
      </trkpt>
      <trkpt lat="42.242097" lon="2.379762">
        <ele>657</ele>
        <time>1970-01-01T01:16:38.000Z</time>
      </trkpt>
      <trkpt lat="42.242156" lon="2.379898">
        <ele>657</ele>
        <time>1970-01-01T01:16:39.000Z</time>
      </trkpt>
      <trkpt lat="42.242214" lon="2.380036">
        <ele>657</ele>
        <time>1970-01-01T01:16:40.000Z</time>
      </trkpt>
      <trkpt lat="42.242272" lon="2.380172">
        <ele>657</ele>
        <time>1970-01-01T01:16:41.000Z</time>
      </trkpt>
      <trkpt lat="42.242329" lon="2.380306">
        <ele>657</ele>
        <time>1970-01-01T01:16:42.000Z</time>
      </trkpt>
      <trkpt lat="42.242385" lon="2.380445">
        <ele>657</ele>
        <time>1970-01-01T01:16:43.000Z</time>
      </trkpt>
      <trkpt lat="42.242439" lon="2.380592">
        <ele>657</ele>
        <time>1970-01-01T01:16:44.000Z</time>
      </trkpt>
      <trkpt lat="42.242439" lon="2.380592">
        <ele>651</ele>
        <time>1970-01-01T01:16:46.000Z</time>
      </trkpt>
      <trkpt lat="42.242439" lon="2.380592">
        <ele>640</ele>
        <time>1970-01-01T01:16:56.000Z</time>
      </trkpt>
      <trkpt lat="42.243267" lon="2.383543">
        <ele>640</ele>
        <time>1970-01-01T01:17:03.000Z</time>
      </trkpt>
      <trkpt lat="42.243277" lon="2.383776">
        <ele>640</ele>
        <time>1970-01-01T01:17:04.000Z</time>
      </trkpt>
      <trkpt lat="42.243268" lon="2.383848">
        <ele>631</ele>
        <time>1970-01-01T01:17:06.000Z</time>
      </trkpt>
      <trkpt lat="42.243225" lon="2.384063">
        <ele>631</ele>
        <time>1970-01-01T01:17:08.000Z</time>
      </trkpt>
      <trkpt lat="42.243201" lon="2.384135">
        <ele>631</ele>
        <time>1970-01-01T01:17:09.000Z</time>
      </trkpt>
      <trkpt lat="42.243178" lon="2.384206">
        <ele>631</ele>
        <time>1970-01-01T01:17:10.000Z</time>
      </trkpt>
      <trkpt lat="42.243154" lon="2.384278">
        <ele>631</ele>
        <time>1970-01-01T01:17:11.000Z</time>
      </trkpt>
      <trkpt lat="42.24313" lon="2.38435">
        <ele>631</ele>
        <time>1970-01-01T01:17:12.000Z</time>
      </trkpt>
      <trkpt lat="42.243106" lon="2.384422">
        <ele>631</ele>
        <time>1970-01-01T01:17:13.000Z</time>
      </trkpt>
      <trkpt lat="42.243083" lon="2.384493">
        <ele>631</ele>
        <time>1970-01-01T01:17:14.000Z</time>
      </trkpt>
      <trkpt lat="42.243059" lon="2.384565">
        <ele>631</ele>
        <time>1970-01-01T01:17:15.000Z</time>
      </trkpt>
      <trkpt lat="42.243035" lon="2.384637">
        <ele>627</ele>
        <time>1970-01-01T01:17:16.000Z</time>
      </trkpt>
      <trkpt lat="42.242999" lon="2.384744">
        <ele>627</ele>
        <time>1970-01-01T01:17:17.000Z</time>
      </trkpt>
      <trkpt lat="42.242957" lon="2.384857">
        <ele>627</ele>
        <time>1970-01-01T01:17:18.000Z</time>
      </trkpt>
      <trkpt lat="42.242909" lon="2.384972">
        <ele>627</ele>
        <time>1970-01-01T01:17:19.000Z</time>
      </trkpt>
      <trkpt lat="42.242855" lon="2.385092">
        <ele>627</ele>
        <time>1970-01-01T01:17:20.000Z</time>
      </trkpt>
      <trkpt lat="42.242797" lon="2.385214">
        <ele>627</ele>
        <time>1970-01-01T01:17:21.000Z</time>
      </trkpt>
      <trkpt lat="42.242736" lon="2.385338">
        <ele>627</ele>
        <time>1970-01-01T01:17:22.000Z</time>
      </trkpt>
      <trkpt lat="42.242675" lon="2.385463">
        <ele>627</ele>
        <time>1970-01-01T01:17:23.000Z</time>
      </trkpt>
      <trkpt lat="42.242618" lon="2.385581">
        <ele>627</ele>
        <time>1970-01-01T01:17:24.000Z</time>
      </trkpt>
      <trkpt lat="42.242549" lon="2.385745">
        <ele>627</ele>
        <time>1970-01-01T01:17:25.000Z</time>
      </trkpt>
      <trkpt lat="42.242529" lon="2.385799">
        <ele>619</ele>
        <time>1970-01-01T01:17:26.000Z</time>
      </trkpt>
      <trkpt lat="42.242466" lon="2.385974">
        <ele>619</ele>
        <time>1970-01-01T01:17:27.000Z</time>
      </trkpt>
      <trkpt lat="42.242442" lon="2.386041">
        <ele>619</ele>
        <time>1970-01-01T01:17:28.000Z</time>
      </trkpt>
      <trkpt lat="42.242419" lon="2.386108">
        <ele>619</ele>
        <time>1970-01-01T01:17:29.000Z</time>
      </trkpt>
      <trkpt lat="42.242396" lon="2.386175">
        <ele>619</ele>
        <time>1970-01-01T01:17:30.000Z</time>
      </trkpt>
      <trkpt lat="42.242373" lon="2.386242">
        <ele>619</ele>
        <time>1970-01-01T01:17:31.000Z</time>
      </trkpt>
      <trkpt lat="42.242349" lon="2.386308">
        <ele>619</ele>
        <time>1970-01-01T01:17:32.000Z</time>
      </trkpt>
      <trkpt lat="42.242326" lon="2.386375">
        <ele>619</ele>
        <time>1970-01-01T01:17:33.000Z</time>
      </trkpt>
      <trkpt lat="42.242303" lon="2.386442">
        <ele>619</ele>
        <time>1970-01-01T01:17:34.000Z</time>
      </trkpt>
      <trkpt lat="42.242279" lon="2.386509">
        <ele>619</ele>
        <time>1970-01-01T01:17:35.000Z</time>
      </trkpt>
      <trkpt lat="42.242256" lon="2.386576">
        <ele>616</ele>
        <time>1970-01-01T01:17:36.000Z</time>
      </trkpt>
      <trkpt lat="42.242182" lon="2.386668">
        <ele>616</ele>
        <time>1970-01-01T01:17:37.000Z</time>
      </trkpt>
      <trkpt lat="42.242146" lon="2.386719">
        <ele>616</ele>
        <time>1970-01-01T01:17:38.000Z</time>
      </trkpt>
      <trkpt lat="42.242111" lon="2.38677">
        <ele>616</ele>
        <time>1970-01-01T01:17:39.000Z</time>
      </trkpt>
      <trkpt lat="42.242075" lon="2.386821">
        <ele>616</ele>
        <time>1970-01-01T01:17:40.000Z</time>
      </trkpt>
      <trkpt lat="42.24204" lon="2.386872">
        <ele>616</ele>
        <time>1970-01-01T01:17:41.000Z</time>
      </trkpt>
      <trkpt lat="42.242005" lon="2.386923">
        <ele>616</ele>
        <time>1970-01-01T01:17:42.000Z</time>
      </trkpt>
      <trkpt lat="42.241969" lon="2.386974">
        <ele>616</ele>
        <time>1970-01-01T01:17:43.000Z</time>
      </trkpt>
      <trkpt lat="42.241934" lon="2.387025">
        <ele>616</ele>
        <time>1970-01-01T01:17:44.000Z</time>
      </trkpt>
      <trkpt lat="42.241898" lon="2.387076">
        <ele>616</ele>
        <time>1970-01-01T01:17:45.000Z</time>
      </trkpt>
      <trkpt lat="42.241863" lon="2.387127">
        <ele>615</ele>
        <time>1970-01-01T01:17:46.000Z</time>
      </trkpt>
      <trkpt lat="42.241869" lon="2.38731">
        <ele>615</ele>
        <time>1970-01-01T01:17:47.000Z</time>
      </trkpt>
      <trkpt lat="42.24189" lon="2.3874">
        <ele>615</ele>
        <time>1970-01-01T01:17:48.000Z</time>
      </trkpt>
      <trkpt lat="42.241912" lon="2.38749">
        <ele>615</ele>
        <time>1970-01-01T01:17:49.000Z</time>
      </trkpt>
      <trkpt lat="42.241933" lon="2.38758">
        <ele>615</ele>
        <time>1970-01-01T01:17:50.000Z</time>
      </trkpt>
      <trkpt lat="42.241954" lon="2.38767">
        <ele>615</ele>
        <time>1970-01-01T01:17:51.000Z</time>
      </trkpt>
      <trkpt lat="42.241975" lon="2.387761">
        <ele>615</ele>
        <time>1970-01-01T01:17:52.000Z</time>
      </trkpt>
      <trkpt lat="42.241996" lon="2.387851">
        <ele>615</ele>
        <time>1970-01-01T01:17:53.000Z</time>
      </trkpt>
      <trkpt lat="42.242018" lon="2.387941">
        <ele>615</ele>
        <time>1970-01-01T01:17:54.000Z</time>
      </trkpt>
      <trkpt lat="42.242039" lon="2.388031">
        <ele>615</ele>
        <time>1970-01-01T01:17:55.000Z</time>
      </trkpt>
      <trkpt lat="42.24206" lon="2.388121">
        <ele>606</ele>
        <time>1970-01-01T01:17:56.000Z</time>
      </trkpt>
      <trkpt lat="42.242091" lon="2.388288">
        <ele>606</ele>
        <time>1970-01-01T01:17:57.000Z</time>
      </trkpt>
      <trkpt lat="42.242098" lon="2.388355">
        <ele>606</ele>
        <time>1970-01-01T01:17:58.000Z</time>
      </trkpt>
      <trkpt lat="42.242106" lon="2.388422">
        <ele>606</ele>
        <time>1970-01-01T01:17:59.000Z</time>
      </trkpt>
      <trkpt lat="42.242113" lon="2.388489">
        <ele>606</ele>
        <time>1970-01-01T01:18:00.000Z</time>
      </trkpt>
      <trkpt lat="42.242121" lon="2.388556">
        <ele>606</ele>
        <time>1970-01-01T01:18:01.000Z</time>
      </trkpt>
      <trkpt lat="42.242128" lon="2.388623">
        <ele>606</ele>
        <time>1970-01-01T01:18:02.000Z</time>
      </trkpt>
      <trkpt lat="42.242136" lon="2.38869">
        <ele>606</ele>
        <time>1970-01-01T01:18:03.000Z</time>
      </trkpt>
      <trkpt lat="42.242143" lon="2.388757">
        <ele>606</ele>
        <time>1970-01-01T01:18:04.000Z</time>
      </trkpt>
      <trkpt lat="42.242151" lon="2.388824">
        <ele>606</ele>
        <time>1970-01-01T01:18:05.000Z</time>
      </trkpt>
      <trkpt lat="42.242158" lon="2.388891">
        <ele>601</ele>
        <time>1970-01-01T01:18:06.000Z</time>
      </trkpt>
      <trkpt lat="42.24223" lon="2.388915">
        <ele>601</ele>
        <time>1970-01-01T01:18:07.000Z</time>
      </trkpt>
      <trkpt lat="42.242255" lon="2.388916">
        <ele>601</ele>
        <time>1970-01-01T01:18:08.000Z</time>
      </trkpt>
      <trkpt lat="42.24228" lon="2.388918">
        <ele>601</ele>
        <time>1970-01-01T01:18:09.000Z</time>
      </trkpt>
      <trkpt lat="42.242305" lon="2.38892">
        <ele>601</ele>
        <time>1970-01-01T01:18:10.000Z</time>
      </trkpt>
      <trkpt lat="42.24233" lon="2.388921">
        <ele>601</ele>
        <time>1970-01-01T01:18:11.000Z</time>
      </trkpt>
      <trkpt lat="42.242354" lon="2.388923">
        <ele>601</ele>
        <time>1970-01-01T01:18:12.000Z</time>
      </trkpt>
      <trkpt lat="42.242379" lon="2.388925">
        <ele>601</ele>
        <time>1970-01-01T01:18:13.000Z</time>
      </trkpt>
      <trkpt lat="42.242404" lon="2.388927">
        <ele>601</ele>
        <time>1970-01-01T01:18:14.000Z</time>
      </trkpt>
      <trkpt lat="42.242429" lon="2.388928">
        <ele>601</ele>
        <time>1970-01-01T01:18:15.000Z</time>
      </trkpt>
      <trkpt lat="42.242454" lon="2.38893">
        <ele>599</ele>
        <time>1970-01-01T01:18:16.000Z</time>
      </trkpt>
      <trkpt lat="42.24258" lon="2.388979">
        <ele>599</ele>
        <time>1970-01-01T01:18:21.000Z</time>
      </trkpt>
      <trkpt lat="42.242604" lon="2.38898">
        <ele>599</ele>
        <time>1970-01-01T01:18:23.000Z</time>
      </trkpt>
      <trkpt lat="42.242628" lon="2.38898">
        <ele>599</ele>
        <time>1970-01-01T01:18:24.000Z</time>
      </trkpt>
      <trkpt lat="42.242652" lon="2.388981">
        <ele>599</ele>
        <time>1970-01-01T01:18:25.000Z</time>
      </trkpt>
      <trkpt lat="42.242676" lon="2.388982">
        <ele>599</ele>
        <time>1970-01-01T01:18:26.000Z</time>
      </trkpt>
      <trkpt lat="42.242715" lon="2.38898">
        <ele>599</ele>
        <time>1970-01-01T01:18:27.000Z</time>
      </trkpt>
      <trkpt lat="42.242737" lon="2.38898">
        <ele>599</ele>
        <time>1970-01-01T01:18:29.000Z</time>
      </trkpt>
      <trkpt lat="42.24276" lon="2.388981">
        <ele>599</ele>
        <time>1970-01-01T01:18:31.000Z</time>
      </trkpt>
      <trkpt lat="42.242783" lon="2.388982">
        <ele>599</ele>
        <time>1970-01-01T01:18:33.000Z</time>
      </trkpt>
      <trkpt lat="42.242805" lon="2.388982">
        <ele>599</ele>
        <time>1970-01-01T01:18:35.000Z</time>
      </trkpt>
      <trkpt lat="42.242828" lon="2.388983">
        <ele>603</ele>
        <time>1970-01-01T01:18:36.000Z</time>
      </trkpt>
      <trkpt lat="42.242862" lon="2.388988">
        <ele>603</ele>
        <time>1970-01-01T01:18:37.000Z</time>
      </trkpt>
      <trkpt lat="42.242881" lon="2.388989">
        <ele>603</ele>
        <time>1970-01-01T01:18:38.000Z</time>
      </trkpt>
      <trkpt lat="42.2429" lon="2.38899">
        <ele>603</ele>
        <time>1970-01-01T01:18:39.000Z</time>
      </trkpt>
      <trkpt lat="42.242919" lon="2.388991">
        <ele>603</ele>
        <time>1970-01-01T01:18:40.000Z</time>
      </trkpt>
      <trkpt lat="42.242939" lon="2.388992">
        <ele>603</ele>
        <time>1970-01-01T01:18:41.000Z</time>
      </trkpt>
      <trkpt lat="42.242958" lon="2.388993">
        <ele>603</ele>
        <time>1970-01-01T01:18:42.000Z</time>
      </trkpt>
      <trkpt lat="42.242977" lon="2.388994">
        <ele>603</ele>
        <time>1970-01-01T01:18:43.000Z</time>
      </trkpt>
      <trkpt lat="42.242996" lon="2.388995">
        <ele>603</ele>
        <time>1970-01-01T01:18:44.000Z</time>
      </trkpt>
      <trkpt lat="42.243015" lon="2.388996">
        <ele>603</ele>
        <time>1970-01-01T01:18:45.000Z</time>
      </trkpt>
      <trkpt lat="42.243034" lon="2.388997">
        <ele>604</ele>
        <time>1970-01-01T01:18:46.000Z</time>
      </trkpt>
      <trkpt lat="42.243075" lon="2.388998">
        <ele>604</ele>
        <time>1970-01-01T01:18:47.000Z</time>
      </trkpt>
      <trkpt lat="42.243094" lon="2.389002">
        <ele>604</ele>
        <time>1970-01-01T01:18:49.000Z</time>
      </trkpt>
      <trkpt lat="42.243114" lon="2.389005">
        <ele>604</ele>
        <time>1970-01-01T01:18:50.000Z</time>
      </trkpt>
      <trkpt lat="42.243133" lon="2.389008">
        <ele>604</ele>
        <time>1970-01-01T01:18:51.000Z</time>
      </trkpt>
      <trkpt lat="42.243153" lon="2.389012">
        <ele>604</ele>
        <time>1970-01-01T01:18:52.000Z</time>
      </trkpt>
      <trkpt lat="42.243172" lon="2.389015">
        <ele>604</ele>
        <time>1970-01-01T01:18:53.000Z</time>
      </trkpt>
      <trkpt lat="42.243192" lon="2.389018">
        <ele>604</ele>
        <time>1970-01-01T01:18:54.000Z</time>
      </trkpt>
      <trkpt lat="42.243211" lon="2.389022">
        <ele>604</ele>
        <time>1970-01-01T01:18:55.000Z</time>
      </trkpt>
      <trkpt lat="42.243231" lon="2.389025">
        <ele>606</ele>
        <time>1970-01-01T01:18:56.000Z</time>
      </trkpt>
      <trkpt lat="42.243272" lon="2.389039">
        <ele>606</ele>
        <time>1970-01-01T01:18:57.000Z</time>
      </trkpt>
      <trkpt lat="42.243293" lon="2.389043">
        <ele>606</ele>
        <time>1970-01-01T01:18:59.000Z</time>
      </trkpt>
      <trkpt lat="42.243315" lon="2.389047">
        <ele>606</ele>
        <time>1970-01-01T01:19:01.000Z</time>
      </trkpt>
      <trkpt lat="42.243337" lon="2.389051">
        <ele>606</ele>
        <time>1970-01-01T01:19:03.000Z</time>
      </trkpt>
      <trkpt lat="42.243359" lon="2.389055">
        <ele>606</ele>
        <time>1970-01-01T01:19:04.000Z</time>
      </trkpt>
      <trkpt lat="42.24338" lon="2.389059">
        <ele>606</ele>
        <time>1970-01-01T01:19:05.000Z</time>
      </trkpt>
      <trkpt lat="42.243402" lon="2.389063">
        <ele>607</ele>
        <time>1970-01-01T01:19:06.000Z</time>
      </trkpt>
      <trkpt lat="42.243424" lon="2.389069">
        <ele>607</ele>
        <time>1970-01-01T01:19:07.000Z</time>
      </trkpt>
      <trkpt lat="42.243442" lon="2.389077">
        <ele>607</ele>
        <time>1970-01-01T01:19:08.000Z</time>
      </trkpt>
      <trkpt lat="42.243473" lon="2.389085">
        <ele>607</ele>
        <time>1970-01-01T01:19:10.000Z</time>
      </trkpt>
      <trkpt lat="42.243505" lon="2.389087">
        <ele>607</ele>
        <time>1970-01-01T01:19:12.000Z</time>
      </trkpt>
      <trkpt lat="42.243533" lon="2.389089">
        <ele>607</ele>
        <time>1970-01-01T01:19:14.000Z</time>
      </trkpt>
      <trkpt lat="42.243563" lon="2.389095">
        <ele>608</ele>
        <time>1970-01-01T01:19:16.000Z</time>
      </trkpt>
      <trkpt lat="42.243615" lon="2.389116">
        <ele>608</ele>
        <time>1970-01-01T01:19:18.000Z</time>
      </trkpt>
      <trkpt lat="42.243635" lon="2.389129">
        <ele>608</ele>
        <time>1970-01-01T01:19:20.000Z</time>
      </trkpt>
      <trkpt lat="42.243655" lon="2.389141">
        <ele>608</ele>
        <time>1970-01-01T01:19:21.000Z</time>
      </trkpt>
      <trkpt lat="42.243674" lon="2.389154">
        <ele>608</ele>
        <time>1970-01-01T01:19:23.000Z</time>
      </trkpt>
      <trkpt lat="42.243694" lon="2.389166">
        <ele>608</ele>
        <time>1970-01-01T01:19:24.000Z</time>
      </trkpt>
      <trkpt lat="42.243714" lon="2.389179">
        <ele>608</ele>
        <time>1970-01-01T01:19:25.000Z</time>
      </trkpt>
      <trkpt lat="42.243734" lon="2.389191">
        <ele>609</ele>
        <time>1970-01-01T01:19:26.000Z</time>
      </trkpt>
      <trkpt lat="42.243778" lon="2.389214">
        <ele>609</ele>
        <time>1970-01-01T01:19:27.000Z</time>
      </trkpt>
      <trkpt lat="42.2438" lon="2.389225">
        <ele>609</ele>
        <time>1970-01-01T01:19:28.000Z</time>
      </trkpt>
      <trkpt lat="42.243822" lon="2.389237">
        <ele>609</ele>
        <time>1970-01-01T01:19:29.000Z</time>
      </trkpt>
      <trkpt lat="42.243844" lon="2.389248">
        <ele>609</ele>
        <time>1970-01-01T01:19:30.000Z</time>
      </trkpt>
      <trkpt lat="42.243867" lon="2.389259">
        <ele>609</ele>
        <time>1970-01-01T01:19:31.000Z</time>
      </trkpt>
      <trkpt lat="42.243889" lon="2.38927">
        <ele>609</ele>
        <time>1970-01-01T01:19:32.000Z</time>
      </trkpt>
      <trkpt lat="42.243911" lon="2.389281">
        <ele>609</ele>
        <time>1970-01-01T01:19:33.000Z</time>
      </trkpt>
      <trkpt lat="42.243933" lon="2.389293">
        <ele>609</ele>
        <time>1970-01-01T01:19:34.000Z</time>
      </trkpt>
      <trkpt lat="42.243955" lon="2.389304">
        <ele>609</ele>
        <time>1970-01-01T01:19:35.000Z</time>
      </trkpt>
      <trkpt lat="42.243977" lon="2.389315">
        <ele>610</ele>
        <time>1970-01-01T01:19:36.000Z</time>
      </trkpt>
      <trkpt lat="42.244019" lon="2.389329">
        <ele>610</ele>
        <time>1970-01-01T01:19:37.000Z</time>
      </trkpt>
      <trkpt lat="42.24404" lon="2.389336">
        <ele>610</ele>
        <time>1970-01-01T01:19:38.000Z</time>
      </trkpt>
      <trkpt lat="42.24406" lon="2.389343">
        <ele>610</ele>
        <time>1970-01-01T01:19:39.000Z</time>
      </trkpt>
      <trkpt lat="42.244081" lon="2.38935">
        <ele>610</ele>
        <time>1970-01-01T01:19:40.000Z</time>
      </trkpt>
      <trkpt lat="42.244102" lon="2.389357">
        <ele>610</ele>
        <time>1970-01-01T01:19:41.000Z</time>
      </trkpt>
      <trkpt lat="42.244123" lon="2.389364">
        <ele>610</ele>
        <time>1970-01-01T01:19:42.000Z</time>
      </trkpt>
      <trkpt lat="42.244144" lon="2.389371">
        <ele>610</ele>
        <time>1970-01-01T01:19:43.000Z</time>
      </trkpt>
      <trkpt lat="42.244164" lon="2.389378">
        <ele>610</ele>
        <time>1970-01-01T01:19:44.000Z</time>
      </trkpt>
      <trkpt lat="42.244185" lon="2.389385">
        <ele>610</ele>
        <time>1970-01-01T01:19:45.000Z</time>
      </trkpt>
      <trkpt lat="42.244206" lon="2.389392">
        <ele>611</ele>
        <time>1970-01-01T01:19:46.000Z</time>
      </trkpt>
      <trkpt lat="42.244263" lon="2.389412">
        <ele>611</ele>
        <time>1970-01-01T01:19:48.000Z</time>
      </trkpt>
      <trkpt lat="42.244281" lon="2.389421">
        <ele>611</ele>
        <time>1970-01-01T01:19:49.000Z</time>
      </trkpt>
      <trkpt lat="42.244298" lon="2.389429">
        <ele>611</ele>
        <time>1970-01-01T01:19:50.000Z</time>
      </trkpt>
      <trkpt lat="42.244316" lon="2.389437">
        <ele>611</ele>
        <time>1970-01-01T01:19:51.000Z</time>
      </trkpt>
      <trkpt lat="42.244334" lon="2.389446">
        <ele>611</ele>
        <time>1970-01-01T01:19:52.000Z</time>
      </trkpt>
      <trkpt lat="42.244352" lon="2.389454">
        <ele>611</ele>
        <time>1970-01-01T01:19:53.000Z</time>
      </trkpt>
      <trkpt lat="42.244369" lon="2.389462">
        <ele>611</ele>
        <time>1970-01-01T01:19:54.000Z</time>
      </trkpt>
      <trkpt lat="42.244387" lon="2.389471">
        <ele>611</ele>
        <time>1970-01-01T01:19:55.000Z</time>
      </trkpt>
      <trkpt lat="42.244405" lon="2.389479">
        <ele>612</ele>
        <time>1970-01-01T01:19:56.000Z</time>
      </trkpt>
      <trkpt lat="42.24444" lon="2.389501">
        <ele>612</ele>
        <time>1970-01-01T01:19:57.000Z</time>
      </trkpt>
      <trkpt lat="42.244456" lon="2.389516">
        <ele>612</ele>
        <time>1970-01-01T01:19:58.000Z</time>
      </trkpt>
      <trkpt lat="42.244472" lon="2.389532">
        <ele>612</ele>
        <time>1970-01-01T01:20:00.000Z</time>
      </trkpt>
      <trkpt lat="42.244488" lon="2.389548">
        <ele>612</ele>
        <time>1970-01-01T01:20:02.000Z</time>
      </trkpt>
      <trkpt lat="42.244504" lon="2.389564">
        <ele>612</ele>
        <time>1970-01-01T01:20:03.000Z</time>
      </trkpt>
      <trkpt lat="42.24452" lon="2.389579">
        <ele>612</ele>
        <time>1970-01-01T01:20:04.000Z</time>
      </trkpt>
      <trkpt lat="42.244536" lon="2.389595">
        <ele>612</ele>
        <time>1970-01-01T01:20:05.000Z</time>
      </trkpt>
      <trkpt lat="42.244552" lon="2.389611">
        <ele>613</ele>
        <time>1970-01-01T01:20:06.000Z</time>
      </trkpt>
      <trkpt lat="42.244544" lon="2.389658">
        <ele>613</ele>
        <time>1970-01-01T01:20:07.000Z</time>
      </trkpt>
      <trkpt lat="42.244531" lon="2.389676">
        <ele>613</ele>
        <time>1970-01-01T01:20:08.000Z</time>
      </trkpt>
      <trkpt lat="42.244519" lon="2.389694">
        <ele>613</ele>
        <time>1970-01-01T01:20:09.000Z</time>
      </trkpt>
      <trkpt lat="42.244507" lon="2.389712">
        <ele>613</ele>
        <time>1970-01-01T01:20:10.000Z</time>
      </trkpt>
      <trkpt lat="42.244494" lon="2.389729">
        <ele>613</ele>
        <time>1970-01-01T01:20:11.000Z</time>
      </trkpt>
      <trkpt lat="42.244482" lon="2.389747">
        <ele>613</ele>
        <time>1970-01-01T01:20:12.000Z</time>
      </trkpt>
      <trkpt lat="42.24447" lon="2.389765">
        <ele>613</ele>
        <time>1970-01-01T01:20:13.000Z</time>
      </trkpt>
      <trkpt lat="42.244457" lon="2.389783">
        <ele>613</ele>
        <time>1970-01-01T01:20:15.000Z</time>
      </trkpt>
      <trkpt lat="42.244445" lon="2.389801">
        <ele>615</ele>
        <time>1970-01-01T01:20:16.000Z</time>
      </trkpt>
      <trkpt lat="42.244416" lon="2.389832">
        <ele>615</ele>
        <time>1970-01-01T01:20:17.000Z</time>
      </trkpt>
      <trkpt lat="42.244399" lon="2.38985">
        <ele>615</ele>
        <time>1970-01-01T01:20:19.000Z</time>
      </trkpt>
      <trkpt lat="42.244383" lon="2.389869">
        <ele>615</ele>
        <time>1970-01-01T01:20:21.000Z</time>
      </trkpt>
      <trkpt lat="42.244366" lon="2.389887">
        <ele>615</ele>
        <time>1970-01-01T01:20:23.000Z</time>
      </trkpt>
      <trkpt lat="42.24435" lon="2.389906">
        <ele>615</ele>
        <time>1970-01-01T01:20:24.000Z</time>
      </trkpt>
      <trkpt lat="42.244333" lon="2.389924">
        <ele>615</ele>
        <time>1970-01-01T01:20:25.000Z</time>
      </trkpt>
      <trkpt lat="42.244317" lon="2.389943">
        <ele>617</ele>
        <time>1970-01-01T01:20:26.000Z</time>
      </trkpt>
      <trkpt lat="42.244279" lon="2.389969">
        <ele>617</ele>
        <time>1970-01-01T01:20:27.000Z</time>
      </trkpt>
      <trkpt lat="42.244257" lon="2.38998">
        <ele>617</ele>
        <time>1970-01-01T01:20:29.000Z</time>
      </trkpt>
      <trkpt lat="42.244235" lon="2.389992">
        <ele>617</ele>
        <time>1970-01-01T01:20:31.000Z</time>
      </trkpt>
      <trkpt lat="42.244213" lon="2.390004">
        <ele>617</ele>
        <time>1970-01-01T01:20:33.000Z</time>
      </trkpt>
      <trkpt lat="42.244191" lon="2.390015">
        <ele>617</ele>
        <time>1970-01-01T01:20:35.000Z</time>
      </trkpt>
      <trkpt lat="42.244169" lon="2.390027">
        <ele>619</ele>
        <time>1970-01-01T01:20:36.000Z</time>
      </trkpt>
      <trkpt lat="42.244135" lon="2.390043">
        <ele>619</ele>
        <time>1970-01-01T01:20:37.000Z</time>
      </trkpt>
      <trkpt lat="42.244115" lon="2.390051">
        <ele>619</ele>
        <time>1970-01-01T01:20:39.000Z</time>
      </trkpt>
      <trkpt lat="42.244096" lon="2.390058">
        <ele>619</ele>
        <time>1970-01-01T01:20:41.000Z</time>
      </trkpt>
      <trkpt lat="42.244076" lon="2.390065">
        <ele>619</ele>
        <time>1970-01-01T01:20:43.000Z</time>
      </trkpt>
      <trkpt lat="42.244057" lon="2.390073">
        <ele>619</ele>
        <time>1970-01-01T01:20:45.000Z</time>
      </trkpt>
      <trkpt lat="42.244037" lon="2.39008">
        <ele>620</ele>
        <time>1970-01-01T01:20:46.000Z</time>
      </trkpt>
      <trkpt lat="42.244005" lon="2.390098">
        <ele>620</ele>
        <time>1970-01-01T01:20:47.000Z</time>
      </trkpt>
      <trkpt lat="42.243986" lon="2.390112">
        <ele>620</ele>
        <time>1970-01-01T01:20:49.000Z</time>
      </trkpt>
      <trkpt lat="42.243966" lon="2.390125">
        <ele>620</ele>
        <time>1970-01-01T01:20:51.000Z</time>
      </trkpt>
      <trkpt lat="42.243946" lon="2.390138">
        <ele>620</ele>
        <time>1970-01-01T01:20:53.000Z</time>
      </trkpt>
      <trkpt lat="42.243927" lon="2.390152">
        <ele>620</ele>
        <time>1970-01-01T01:20:55.000Z</time>
      </trkpt>
      <trkpt lat="42.243907" lon="2.390165">
        <ele>622</ele>
        <time>1970-01-01T01:20:56.000Z</time>
      </trkpt>
      <trkpt lat="42.243876" lon="2.390205">
        <ele>622</ele>
        <time>1970-01-01T01:20:57.000Z</time>
      </trkpt>
      <trkpt lat="42.243859" lon="2.39023">
        <ele>622</ele>
        <time>1970-01-01T01:20:59.000Z</time>
      </trkpt>
      <trkpt lat="42.243842" lon="2.390256">
        <ele>622</ele>
        <time>1970-01-01T01:21:01.000Z</time>
      </trkpt>
      <trkpt lat="42.243824" lon="2.390282">
        <ele>622</ele>
        <time>1970-01-01T01:21:02.000Z</time>
      </trkpt>
      <trkpt lat="42.243807" lon="2.390307">
        <ele>622</ele>
        <time>1970-01-01T01:21:04.000Z</time>
      </trkpt>
      <trkpt lat="42.24379" lon="2.390333">
        <ele>624</ele>
        <time>1970-01-01T01:21:06.000Z</time>
      </trkpt>
      <trkpt lat="42.243748" lon="2.390393">
        <ele>624</ele>
        <time>1970-01-01T01:21:08.000Z</time>
      </trkpt>
      <trkpt lat="42.243729" lon="2.390415">
        <ele>624</ele>
        <time>1970-01-01T01:21:10.000Z</time>
      </trkpt>
      <trkpt lat="42.243711" lon="2.390436">
        <ele>624</ele>
        <time>1970-01-01T01:21:12.000Z</time>
      </trkpt>
      <trkpt lat="42.243692" lon="2.390458">
        <ele>624</ele>
        <time>1970-01-01T01:21:14.000Z</time>
      </trkpt>
      <trkpt lat="42.243674" lon="2.390479">
        <ele>626</ele>
        <time>1970-01-01T01:21:16.000Z</time>
      </trkpt>
      <trkpt lat="42.243626" lon="2.390523">
        <ele>626</ele>
        <time>1970-01-01T01:21:18.000Z</time>
      </trkpt>
      <trkpt lat="42.243604" lon="2.390543">
        <ele>626</ele>
        <time>1970-01-01T01:21:20.000Z</time>
      </trkpt>
      <trkpt lat="42.243582" lon="2.390562">
        <ele>626</ele>
        <time>1970-01-01T01:21:22.000Z</time>
      </trkpt>
      <trkpt lat="42.24356" lon="2.390582">
        <ele>626</ele>
        <time>1970-01-01T01:21:24.000Z</time>
      </trkpt>
      <trkpt lat="42.243538" lon="2.390602">
        <ele>628</ele>
        <time>1970-01-01T01:21:26.000Z</time>
      </trkpt>
      <trkpt lat="42.243495" lon="2.390646">
        <ele>628</ele>
        <time>1970-01-01T01:21:28.000Z</time>
      </trkpt>
      <trkpt lat="42.243477" lon="2.390664">
        <ele>628</ele>
        <time>1970-01-01T01:21:30.000Z</time>
      </trkpt>
      <trkpt lat="42.243459" lon="2.390681">
        <ele>628</ele>
        <time>1970-01-01T01:21:31.000Z</time>
      </trkpt>
      <trkpt lat="42.24344" lon="2.390698">
        <ele>628</ele>
        <time>1970-01-01T01:21:33.000Z</time>
      </trkpt>
      <trkpt lat="42.243422" lon="2.390716">
        <ele>628</ele>
        <time>1970-01-01T01:21:35.000Z</time>
      </trkpt>
      <trkpt lat="42.243404" lon="2.390733">
        <ele>630</ele>
        <time>1970-01-01T01:21:36.000Z</time>
      </trkpt>
      <trkpt lat="42.243373" lon="2.390771">
        <ele>630</ele>
        <time>1970-01-01T01:21:37.000Z</time>
      </trkpt>
      <trkpt lat="42.243354" lon="2.390794">
        <ele>630</ele>
        <time>1970-01-01T01:21:39.000Z</time>
      </trkpt>
      <trkpt lat="42.243336" lon="2.390818">
        <ele>630</ele>
        <time>1970-01-01T01:21:41.000Z</time>
      </trkpt>
      <trkpt lat="42.243318" lon="2.390842">
        <ele>630</ele>
        <time>1970-01-01T01:21:43.000Z</time>
      </trkpt>
      <trkpt lat="42.243299" lon="2.390865">
        <ele>630</ele>
        <time>1970-01-01T01:21:45.000Z</time>
      </trkpt>
      <trkpt lat="42.243281" lon="2.390889">
        <ele>632</ele>
        <time>1970-01-01T01:21:46.000Z</time>
      </trkpt>
      <trkpt lat="42.243237" lon="2.39093">
        <ele>632</ele>
        <time>1970-01-01T01:21:48.000Z</time>
      </trkpt>
      <trkpt lat="42.243218" lon="2.390944">
        <ele>632</ele>
        <time>1970-01-01T01:21:50.000Z</time>
      </trkpt>
      <trkpt lat="42.2432" lon="2.390958">
        <ele>632</ele>
        <time>1970-01-01T01:21:51.000Z</time>
      </trkpt>
      <trkpt lat="42.243182" lon="2.390972">
        <ele>632</ele>
        <time>1970-01-01T01:21:52.000Z</time>
      </trkpt>
      <trkpt lat="42.243164" lon="2.390986">
        <ele>632</ele>
        <time>1970-01-01T01:21:53.000Z</time>
      </trkpt>
      <trkpt lat="42.243145" lon="2.391">
        <ele>632</ele>
        <time>1970-01-01T01:21:55.000Z</time>
      </trkpt>
      <trkpt lat="42.243127" lon="2.391014">
        <ele>633</ele>
        <time>1970-01-01T01:21:56.000Z</time>
      </trkpt>
      <trkpt lat="42.243088" lon="2.391045">
        <ele>633</ele>
        <time>1970-01-01T01:21:57.000Z</time>
      </trkpt>
      <trkpt lat="42.243067" lon="2.391064">
        <ele>633</ele>
        <time>1970-01-01T01:21:58.000Z</time>
      </trkpt>
      <trkpt lat="42.243045" lon="2.391084">
        <ele>633</ele>
        <time>1970-01-01T01:22:00.000Z</time>
      </trkpt>
      <trkpt lat="42.243023" lon="2.391103">
        <ele>633</ele>
        <time>1970-01-01T01:22:02.000Z</time>
      </trkpt>
      <trkpt lat="42.243002" lon="2.391123">
        <ele>633</ele>
        <time>1970-01-01T01:22:04.000Z</time>
      </trkpt>
      <trkpt lat="42.24298" lon="2.391142">
        <ele>634</ele>
        <time>1970-01-01T01:22:06.000Z</time>
      </trkpt>
      <trkpt lat="42.242942" lon="2.391169">
        <ele>634</ele>
        <time>1970-01-01T01:22:07.000Z</time>
      </trkpt>
      <trkpt lat="42.242921" lon="2.391186">
        <ele>634</ele>
        <time>1970-01-01T01:22:09.000Z</time>
      </trkpt>
      <trkpt lat="42.2429" lon="2.391203">
        <ele>634</ele>
        <time>1970-01-01T01:22:11.000Z</time>
      </trkpt>
      <trkpt lat="42.242878" lon="2.391219">
        <ele>634</ele>
        <time>1970-01-01T01:22:13.000Z</time>
      </trkpt>
      <trkpt lat="42.242857" lon="2.391236">
        <ele>634</ele>
        <time>1970-01-01T01:22:15.000Z</time>
      </trkpt>
      <trkpt lat="42.242836" lon="2.391253">
        <ele>636</ele>
        <time>1970-01-01T01:22:16.000Z</time>
      </trkpt>
      <trkpt lat="42.242808" lon="2.391294">
        <ele>636</ele>
        <time>1970-01-01T01:22:17.000Z</time>
      </trkpt>
      <trkpt lat="42.242795" lon="2.391323">
        <ele>636</ele>
        <time>1970-01-01T01:22:19.000Z</time>
      </trkpt>
      <trkpt lat="42.242781" lon="2.391352">
        <ele>636</ele>
        <time>1970-01-01T01:22:21.000Z</time>
      </trkpt>
      <trkpt lat="42.242767" lon="2.391381">
        <ele>636</ele>
        <time>1970-01-01T01:22:23.000Z</time>
      </trkpt>
      <trkpt lat="42.242754" lon="2.39141">
        <ele>636</ele>
        <time>1970-01-01T01:22:25.000Z</time>
      </trkpt>
      <trkpt lat="42.24274" lon="2.391439">
        <ele>639</ele>
        <time>1970-01-01T01:22:26.000Z</time>
      </trkpt>
      <trkpt lat="42.242739" lon="2.39149">
        <ele>639</ele>
        <time>1970-01-01T01:22:27.000Z</time>
      </trkpt>
      <trkpt lat="42.242742" lon="2.39152">
        <ele>639</ele>
        <time>1970-01-01T01:22:29.000Z</time>
      </trkpt>
      <trkpt lat="42.242745" lon="2.391549">
        <ele>639</ele>
        <time>1970-01-01T01:22:31.000Z</time>
      </trkpt>
      <trkpt lat="42.242748" lon="2.391579">
        <ele>639</ele>
        <time>1970-01-01T01:22:33.000Z</time>
      </trkpt>
      <trkpt lat="42.242751" lon="2.391609">
        <ele>639</ele>
        <time>1970-01-01T01:22:35.000Z</time>
      </trkpt>
      <trkpt lat="42.242754" lon="2.391639">
        <ele>640</ele>
        <time>1970-01-01T01:22:36.000Z</time>
      </trkpt>
      <trkpt lat="42.242754" lon="2.391639">
        <ele>640</ele>
        <time>1970-01-01T01:22:38.000Z</time>
      </trkpt>
      <trkpt lat="42.24276" lon="2.39165">
        <ele>640</ele>
        <time>1970-01-01T01:22:39.000Z</time>
      </trkpt>
      <trkpt lat="42.24276" lon="2.39165">
        <ele>640</ele>
        <time>1970-01-01T01:26:33.000Z</time>
      </trkpt>
      <trkpt lat="42.242791" lon="2.391694">
        <ele>640</ele>
        <time>1970-01-01T01:26:34.000Z</time>
      </trkpt>
      <trkpt lat="42.2428" lon="2.391707">
        <ele>640</ele>
        <time>1970-01-01T01:26:35.000Z</time>
      </trkpt>
      <trkpt lat="42.242822" lon="2.391731">
        <ele>640</ele>
        <time>1970-01-01T01:26:37.000Z</time>
      </trkpt>
      <trkpt lat="42.242843" lon="2.391752">
        <ele>640</ele>
        <time>1970-01-01T01:26:39.000Z</time>
      </trkpt>
      <trkpt lat="42.24286" lon="2.391774">
        <ele>640</ele>
        <time>1970-01-01T01:26:41.000Z</time>
      </trkpt>
      <trkpt lat="42.242886" lon="2.391807">
        <ele>640</ele>
        <time>1970-01-01T01:26:43.000Z</time>
      </trkpt>
      <trkpt lat="42.242917" lon="2.391837">
        <ele>640</ele>
        <time>1970-01-01T01:26:44.000Z</time>
      </trkpt>
      <trkpt lat="42.242932" lon="2.391852">
        <ele>640</ele>
        <time>1970-01-01T01:26:45.000Z</time>
      </trkpt>
      <trkpt lat="42.242948" lon="2.391867">
        <ele>640</ele>
        <time>1970-01-01T01:26:47.000Z</time>
      </trkpt>
      <trkpt lat="42.242963" lon="2.391882">
        <ele>640</ele>
        <time>1970-01-01T01:26:48.000Z</time>
      </trkpt>
      <trkpt lat="42.242979" lon="2.391896">
        <ele>640</ele>
        <time>1970-01-01T01:26:49.000Z</time>
      </trkpt>
      <trkpt lat="42.242994" lon="2.391911">
        <ele>640</ele>
        <time>1970-01-01T01:26:50.000Z</time>
      </trkpt>
      <trkpt lat="42.24301" lon="2.391926">
        <ele>640</ele>
        <time>1970-01-01T01:26:51.000Z</time>
      </trkpt>
      <trkpt lat="42.243025" lon="2.391941">
        <ele>640</ele>
        <time>1970-01-01T01:26:52.000Z</time>
      </trkpt>
      <trkpt lat="42.243041" lon="2.391956">
        <ele>641</ele>
        <time>1970-01-01T01:26:53.000Z</time>
      </trkpt>
      <trkpt lat="42.243067" lon="2.391968">
        <ele>641</ele>
        <time>1970-01-01T01:26:54.000Z</time>
      </trkpt>
      <trkpt lat="42.243078" lon="2.391966">
        <ele>641</ele>
        <time>1970-01-01T01:26:55.000Z</time>
      </trkpt>
      <trkpt lat="42.243089" lon="2.391964">
        <ele>641</ele>
        <time>1970-01-01T01:26:56.000Z</time>
      </trkpt>
      <trkpt lat="42.243101" lon="2.391962">
        <ele>641</ele>
        <time>1970-01-01T01:26:57.000Z</time>
      </trkpt>
      <trkpt lat="42.243112" lon="2.39196">
        <ele>641</ele>
        <time>1970-01-01T01:26:58.000Z</time>
      </trkpt>
      <trkpt lat="42.243123" lon="2.391958">
        <ele>641</ele>
        <time>1970-01-01T01:26:59.000Z</time>
      </trkpt>
      <trkpt lat="42.243134" lon="2.391956">
        <ele>641</ele>
        <time>1970-01-01T01:27:01.000Z</time>
      </trkpt>
      <trkpt lat="42.243145" lon="2.391954">
        <ele>643</ele>
        <time>1970-01-01T01:27:03.000Z</time>
      </trkpt>
      <trkpt lat="42.243118" lon="2.391904">
        <ele>643</ele>
        <time>1970-01-01T01:27:05.000Z</time>
      </trkpt>
      <trkpt lat="42.243109" lon="2.391882">
        <ele>643</ele>
        <time>1970-01-01T01:27:07.000Z</time>
      </trkpt>
      <trkpt lat="42.243099" lon="2.391859">
        <ele>643</ele>
        <time>1970-01-01T01:27:08.000Z</time>
      </trkpt>
      <trkpt lat="42.24309" lon="2.391837">
        <ele>643</ele>
        <time>1970-01-01T01:27:09.000Z</time>
      </trkpt>
      <trkpt lat="42.243081" lon="2.391814">
        <ele>643</ele>
        <time>1970-01-01T01:27:10.000Z</time>
      </trkpt>
      <trkpt lat="42.243072" lon="2.391792">
        <ele>643</ele>
        <time>1970-01-01T01:27:11.000Z</time>
      </trkpt>
      <trkpt lat="42.243062" lon="2.391769">
        <ele>643</ele>
        <time>1970-01-01T01:27:12.000Z</time>
      </trkpt>
      <trkpt lat="42.243053" lon="2.391747">
        <ele>644</ele>
        <time>1970-01-01T01:27:13.000Z</time>
      </trkpt>
      <trkpt lat="42.24306" lon="2.391691">
        <ele>644</ele>
        <time>1970-01-01T01:27:14.000Z</time>
      </trkpt>
      <trkpt lat="42.24307" lon="2.391665">
        <ele>644</ele>
        <time>1970-01-01T01:27:15.000Z</time>
      </trkpt>
      <trkpt lat="42.24308" lon="2.39164">
        <ele>644</ele>
        <time>1970-01-01T01:27:16.000Z</time>
      </trkpt>
      <trkpt lat="42.24309" lon="2.391614">
        <ele>644</ele>
        <time>1970-01-01T01:27:17.000Z</time>
      </trkpt>
      <trkpt lat="42.2431" lon="2.391589">
        <ele>644</ele>
        <time>1970-01-01T01:27:18.000Z</time>
      </trkpt>
      <trkpt lat="42.24311" lon="2.391564">
        <ele>644</ele>
        <time>1970-01-01T01:27:19.000Z</time>
      </trkpt>
      <trkpt lat="42.24312" lon="2.391538">
        <ele>644</ele>
        <time>1970-01-01T01:27:20.000Z</time>
      </trkpt>
      <trkpt lat="42.24313" lon="2.391513">
        <ele>644</ele>
        <time>1970-01-01T01:27:21.000Z</time>
      </trkpt>
      <trkpt lat="42.24314" lon="2.391487">
        <ele>644</ele>
        <time>1970-01-01T01:27:22.000Z</time>
      </trkpt>
      <trkpt lat="42.24315" lon="2.391462">
        <ele>645</ele>
        <time>1970-01-01T01:27:23.000Z</time>
      </trkpt>
      <trkpt lat="42.243184" lon="2.39143">
        <ele>645</ele>
        <time>1970-01-01T01:27:24.000Z</time>
      </trkpt>
      <trkpt lat="42.243202" lon="2.391414">
        <ele>645</ele>
        <time>1970-01-01T01:27:25.000Z</time>
      </trkpt>
      <trkpt lat="42.243219" lon="2.391399">
        <ele>645</ele>
        <time>1970-01-01T01:27:27.000Z</time>
      </trkpt>
      <trkpt lat="42.243236" lon="2.391383">
        <ele>645</ele>
        <time>1970-01-01T01:27:29.000Z</time>
      </trkpt>
      <trkpt lat="42.243253" lon="2.391368">
        <ele>645</ele>
        <time>1970-01-01T01:27:30.000Z</time>
      </trkpt>
      <trkpt lat="42.243271" lon="2.391352">
        <ele>645</ele>
        <time>1970-01-01T01:27:31.000Z</time>
      </trkpt>
      <trkpt lat="42.243288" lon="2.391337">
        <ele>645</ele>
        <time>1970-01-01T01:27:32.000Z</time>
      </trkpt>
      <trkpt lat="42.243305" lon="2.391321">
        <ele>645</ele>
        <time>1970-01-01T01:27:33.000Z</time>
      </trkpt>
      <trkpt lat="42.243337" lon="2.391293">
        <ele>645</ele>
        <time>1970-01-01T01:27:34.000Z</time>
      </trkpt>
      <trkpt lat="42.243352" lon="2.391281">
        <ele>645</ele>
        <time>1970-01-01T01:27:35.000Z</time>
      </trkpt>
      <trkpt lat="42.243368" lon="2.391268">
        <ele>645</ele>
        <time>1970-01-01T01:27:36.000Z</time>
      </trkpt>
      <trkpt lat="42.243384" lon="2.391255">
        <ele>645</ele>
        <time>1970-01-01T01:27:37.000Z</time>
      </trkpt>
      <trkpt lat="42.2434" lon="2.391243">
        <ele>645</ele>
        <time>1970-01-01T01:27:38.000Z</time>
      </trkpt>
      <trkpt lat="42.243415" lon="2.39123">
        <ele>645</ele>
        <time>1970-01-01T01:27:39.000Z</time>
      </trkpt>
      <trkpt lat="42.243431" lon="2.391217">
        <ele>645</ele>
        <time>1970-01-01T01:27:40.000Z</time>
      </trkpt>
      <trkpt lat="42.243447" lon="2.391204">
        <ele>645</ele>
        <time>1970-01-01T01:27:41.000Z</time>
      </trkpt>
      <trkpt lat="42.243462" lon="2.391192">
        <ele>645</ele>
        <time>1970-01-01T01:27:42.000Z</time>
      </trkpt>
      <trkpt lat="42.243478" lon="2.391179">
        <ele>645</ele>
        <time>1970-01-01T01:27:43.000Z</time>
      </trkpt>
      <trkpt lat="42.243514" lon="2.391152">
        <ele>645</ele>
        <time>1970-01-01T01:27:44.000Z</time>
      </trkpt>
      <trkpt lat="42.243532" lon="2.39114">
        <ele>645</ele>
        <time>1970-01-01T01:27:45.000Z</time>
      </trkpt>
      <trkpt lat="42.243551" lon="2.391129">
        <ele>645</ele>
        <time>1970-01-01T01:27:46.000Z</time>
      </trkpt>
      <trkpt lat="42.243569" lon="2.391117">
        <ele>645</ele>
        <time>1970-01-01T01:27:47.000Z</time>
      </trkpt>
      <trkpt lat="42.243587" lon="2.391106">
        <ele>645</ele>
        <time>1970-01-01T01:27:48.000Z</time>
      </trkpt>
      <trkpt lat="42.243605" lon="2.391095">
        <ele>645</ele>
        <time>1970-01-01T01:27:49.000Z</time>
      </trkpt>
      <trkpt lat="42.243623" lon="2.391083">
        <ele>645</ele>
        <time>1970-01-01T01:27:50.000Z</time>
      </trkpt>
      <trkpt lat="42.243642" lon="2.391072">
        <ele>645</ele>
        <time>1970-01-01T01:27:51.000Z</time>
      </trkpt>
      <trkpt lat="42.24366" lon="2.39106">
        <ele>645</ele>
        <time>1970-01-01T01:27:52.000Z</time>
      </trkpt>
      <trkpt lat="42.243678" lon="2.391049">
        <ele>646</ele>
        <time>1970-01-01T01:27:53.000Z</time>
      </trkpt>
      <trkpt lat="42.243719" lon="2.391024">
        <ele>646</ele>
        <time>1970-01-01T01:27:54.000Z</time>
      </trkpt>
      <trkpt lat="42.243738" lon="2.39101">
        <ele>646</ele>
        <time>1970-01-01T01:27:55.000Z</time>
      </trkpt>
      <trkpt lat="42.243756" lon="2.390996">
        <ele>646</ele>
        <time>1970-01-01T01:27:56.000Z</time>
      </trkpt>
      <trkpt lat="42.243775" lon="2.390982">
        <ele>646</ele>
        <time>1970-01-01T01:27:57.000Z</time>
      </trkpt>
      <trkpt lat="42.243794" lon="2.390969">
        <ele>646</ele>
        <time>1970-01-01T01:27:58.000Z</time>
      </trkpt>
      <trkpt lat="42.243813" lon="2.390955">
        <ele>646</ele>
        <time>1970-01-01T01:27:59.000Z</time>
      </trkpt>
      <trkpt lat="42.243832" lon="2.390941">
        <ele>646</ele>
        <time>1970-01-01T01:28:00.000Z</time>
      </trkpt>
      <trkpt lat="42.24385" lon="2.390927">
        <ele>646</ele>
        <time>1970-01-01T01:28:01.000Z</time>
      </trkpt>
      <trkpt lat="42.243869" lon="2.390913">
        <ele>646</ele>
        <time>1970-01-01T01:28:02.000Z</time>
      </trkpt>
      <trkpt lat="42.243888" lon="2.390899">
        <ele>646</ele>
        <time>1970-01-01T01:28:03.000Z</time>
      </trkpt>
      <trkpt lat="42.243928" lon="2.390871">
        <ele>646</ele>
        <time>1970-01-01T01:28:04.000Z</time>
      </trkpt>
      <trkpt lat="42.243948" lon="2.390858">
        <ele>646</ele>
        <time>1970-01-01T01:28:05.000Z</time>
      </trkpt>
      <trkpt lat="42.243969" lon="2.390846">
        <ele>646</ele>
        <time>1970-01-01T01:28:06.000Z</time>
      </trkpt>
      <trkpt lat="42.243989" lon="2.390834">
        <ele>646</ele>
        <time>1970-01-01T01:28:07.000Z</time>
      </trkpt>
      <trkpt lat="42.244009" lon="2.390822">
        <ele>646</ele>
        <time>1970-01-01T01:28:08.000Z</time>
      </trkpt>
      <trkpt lat="42.244029" lon="2.390809">
        <ele>646</ele>
        <time>1970-01-01T01:28:09.000Z</time>
      </trkpt>
      <trkpt lat="42.244049" lon="2.390797">
        <ele>646</ele>
        <time>1970-01-01T01:28:10.000Z</time>
      </trkpt>
      <trkpt lat="42.24407" lon="2.390785">
        <ele>646</ele>
        <time>1970-01-01T01:28:11.000Z</time>
      </trkpt>
      <trkpt lat="42.24409" lon="2.390772">
        <ele>646</ele>
        <time>1970-01-01T01:28:12.000Z</time>
      </trkpt>
      <trkpt lat="42.24411" lon="2.39076">
        <ele>648</ele>
        <time>1970-01-01T01:28:13.000Z</time>
      </trkpt>
      <trkpt lat="42.244154" lon="2.39075">
        <ele>648</ele>
        <time>1970-01-01T01:28:14.000Z</time>
      </trkpt>
      <trkpt lat="42.244175" lon="2.390747">
        <ele>648</ele>
        <time>1970-01-01T01:28:15.000Z</time>
      </trkpt>
      <trkpt lat="42.244197" lon="2.390743">
        <ele>648</ele>
        <time>1970-01-01T01:28:16.000Z</time>
      </trkpt>
      <trkpt lat="42.244218" lon="2.39074">
        <ele>648</ele>
        <time>1970-01-01T01:28:17.000Z</time>
      </trkpt>
      <trkpt lat="42.244239" lon="2.390737">
        <ele>648</ele>
        <time>1970-01-01T01:28:18.000Z</time>
      </trkpt>
      <trkpt lat="42.24426" lon="2.390734">
        <ele>648</ele>
        <time>1970-01-01T01:28:19.000Z</time>
      </trkpt>
      <trkpt lat="42.244281" lon="2.390731">
        <ele>648</ele>
        <time>1970-01-01T01:28:20.000Z</time>
      </trkpt>
      <trkpt lat="42.244303" lon="2.390727">
        <ele>648</ele>
        <time>1970-01-01T01:28:21.000Z</time>
      </trkpt>
      <trkpt lat="42.244324" lon="2.390724">
        <ele>648</ele>
        <time>1970-01-01T01:28:22.000Z</time>
      </trkpt>
      <trkpt lat="42.244345" lon="2.390721">
        <ele>650</ele>
        <time>1970-01-01T01:28:23.000Z</time>
      </trkpt>
      <trkpt lat="42.244388" lon="2.39071">
        <ele>650</ele>
        <time>1970-01-01T01:28:24.000Z</time>
      </trkpt>
      <trkpt lat="42.244408" lon="2.390705">
        <ele>650</ele>
        <time>1970-01-01T01:28:25.000Z</time>
      </trkpt>
      <trkpt lat="42.244428" lon="2.390699">
        <ele>650</ele>
        <time>1970-01-01T01:28:26.000Z</time>
      </trkpt>
      <trkpt lat="42.244448" lon="2.390694">
        <ele>650</ele>
        <time>1970-01-01T01:28:27.000Z</time>
      </trkpt>
      <trkpt lat="42.244468" lon="2.390688">
        <ele>650</ele>
        <time>1970-01-01T01:28:28.000Z</time>
      </trkpt>
      <trkpt lat="42.244487" lon="2.390682">
        <ele>650</ele>
        <time>1970-01-01T01:28:29.000Z</time>
      </trkpt>
      <trkpt lat="42.244507" lon="2.390677">
        <ele>650</ele>
        <time>1970-01-01T01:28:30.000Z</time>
      </trkpt>
      <trkpt lat="42.244527" lon="2.390671">
        <ele>650</ele>
        <time>1970-01-01T01:28:31.000Z</time>
      </trkpt>
      <trkpt lat="42.244547" lon="2.390666">
        <ele>650</ele>
        <time>1970-01-01T01:28:32.000Z</time>
      </trkpt>
      <trkpt lat="42.244567" lon="2.39066">
        <ele>651</ele>
        <time>1970-01-01T01:28:33.000Z</time>
      </trkpt>
      <trkpt lat="42.244608" lon="2.390642">
        <ele>651</ele>
        <time>1970-01-01T01:28:34.000Z</time>
      </trkpt>
      <trkpt lat="42.244628" lon="2.390635">
        <ele>651</ele>
        <time>1970-01-01T01:28:35.000Z</time>
      </trkpt>
      <trkpt lat="42.244649" lon="2.390628">
        <ele>651</ele>
        <time>1970-01-01T01:28:36.000Z</time>
      </trkpt>
      <trkpt lat="42.244669" lon="2.390621">
        <ele>651</ele>
        <time>1970-01-01T01:28:37.000Z</time>
      </trkpt>
      <trkpt lat="42.24469" lon="2.390614">
        <ele>651</ele>
        <time>1970-01-01T01:28:38.000Z</time>
      </trkpt>
      <trkpt lat="42.244711" lon="2.390606">
        <ele>651</ele>
        <time>1970-01-01T01:28:39.000Z</time>
      </trkpt>
      <trkpt lat="42.244731" lon="2.390599">
        <ele>651</ele>
        <time>1970-01-01T01:28:40.000Z</time>
      </trkpt>
      <trkpt lat="42.244752" lon="2.390592">
        <ele>651</ele>
        <time>1970-01-01T01:28:41.000Z</time>
      </trkpt>
      <trkpt lat="42.244772" lon="2.390585">
        <ele>651</ele>
        <time>1970-01-01T01:28:42.000Z</time>
      </trkpt>
      <trkpt lat="42.244793" lon="2.390578">
        <ele>653</ele>
        <time>1970-01-01T01:28:43.000Z</time>
      </trkpt>
      <trkpt lat="42.244834" lon="2.390564">
        <ele>653</ele>
        <time>1970-01-01T01:28:44.000Z</time>
      </trkpt>
      <trkpt lat="42.244852" lon="2.390554">
        <ele>653</ele>
        <time>1970-01-01T01:28:45.000Z</time>
      </trkpt>
      <trkpt lat="42.24487" lon="2.390545">
        <ele>653</ele>
        <time>1970-01-01T01:28:46.000Z</time>
      </trkpt>
      <trkpt lat="42.244888" lon="2.390535">
        <ele>653</ele>
        <time>1970-01-01T01:28:47.000Z</time>
      </trkpt>
      <trkpt lat="42.244907" lon="2.390526">
        <ele>653</ele>
        <time>1970-01-01T01:28:48.000Z</time>
      </trkpt>
      <trkpt lat="42.244925" lon="2.390517">
        <ele>653</ele>
        <time>1970-01-01T01:28:49.000Z</time>
      </trkpt>
      <trkpt lat="42.244943" lon="2.390507">
        <ele>653</ele>
        <time>1970-01-01T01:28:50.000Z</time>
      </trkpt>
      <trkpt lat="42.244961" lon="2.390498">
        <ele>653</ele>
        <time>1970-01-01T01:28:51.000Z</time>
      </trkpt>
      <trkpt lat="42.244979" lon="2.390488">
        <ele>653</ele>
        <time>1970-01-01T01:28:52.000Z</time>
      </trkpt>
      <trkpt lat="42.244997" lon="2.390479">
        <ele>654</ele>
        <time>1970-01-01T01:28:53.000Z</time>
      </trkpt>
      <trkpt lat="42.245036" lon="2.39046">
        <ele>654</ele>
        <time>1970-01-01T01:28:54.000Z</time>
      </trkpt>
      <trkpt lat="42.245055" lon="2.390452">
        <ele>654</ele>
        <time>1970-01-01T01:28:55.000Z</time>
      </trkpt>
      <trkpt lat="42.245074" lon="2.390444">
        <ele>654</ele>
        <time>1970-01-01T01:28:56.000Z</time>
      </trkpt>
      <trkpt lat="42.245093" lon="2.390436">
        <ele>654</ele>
        <time>1970-01-01T01:28:57.000Z</time>
      </trkpt>
      <trkpt lat="42.245112" lon="2.390429">
        <ele>654</ele>
        <time>1970-01-01T01:28:58.000Z</time>
      </trkpt>
      <trkpt lat="42.245131" lon="2.390421">
        <ele>654</ele>
        <time>1970-01-01T01:28:59.000Z</time>
      </trkpt>
      <trkpt lat="42.24515" lon="2.390413">
        <ele>654</ele>
        <time>1970-01-01T01:29:00.000Z</time>
      </trkpt>
      <trkpt lat="42.245169" lon="2.390405">
        <ele>654</ele>
        <time>1970-01-01T01:29:01.000Z</time>
      </trkpt>
      <trkpt lat="42.245188" lon="2.390397">
        <ele>654</ele>
        <time>1970-01-01T01:29:02.000Z</time>
      </trkpt>
      <trkpt lat="42.245207" lon="2.390389">
        <ele>655</ele>
        <time>1970-01-01T01:29:03.000Z</time>
      </trkpt>
      <trkpt lat="42.245242" lon="2.390364">
        <ele>655</ele>
        <time>1970-01-01T01:29:04.000Z</time>
      </trkpt>
      <trkpt lat="42.245258" lon="2.390353">
        <ele>655</ele>
        <time>1970-01-01T01:29:05.000Z</time>
      </trkpt>
      <trkpt lat="42.245273" lon="2.390343">
        <ele>655</ele>
        <time>1970-01-01T01:29:06.000Z</time>
      </trkpt>
      <trkpt lat="42.245289" lon="2.390332">
        <ele>655</ele>
        <time>1970-01-01T01:29:07.000Z</time>
      </trkpt>
      <trkpt lat="42.245305" lon="2.390322">
        <ele>655</ele>
        <time>1970-01-01T01:29:08.000Z</time>
      </trkpt>
      <trkpt lat="42.245321" lon="2.390311">
        <ele>655</ele>
        <time>1970-01-01T01:29:09.000Z</time>
      </trkpt>
      <trkpt lat="42.245337" lon="2.390301">
        <ele>655</ele>
        <time>1970-01-01T01:29:10.000Z</time>
      </trkpt>
      <trkpt lat="42.245352" lon="2.39029">
        <ele>655</ele>
        <time>1970-01-01T01:29:11.000Z</time>
      </trkpt>
      <trkpt lat="42.245368" lon="2.39028">
        <ele>655</ele>
        <time>1970-01-01T01:29:12.000Z</time>
      </trkpt>
      <trkpt lat="42.245384" lon="2.390269">
        <ele>655</ele>
        <time>1970-01-01T01:29:13.000Z</time>
      </trkpt>
      <trkpt lat="42.245415" lon="2.390237">
        <ele>655</ele>
        <time>1970-01-01T01:29:14.000Z</time>
      </trkpt>
      <trkpt lat="42.245428" lon="2.390221">
        <ele>655</ele>
        <time>1970-01-01T01:29:15.000Z</time>
      </trkpt>
      <trkpt lat="42.245442" lon="2.390205">
        <ele>655</ele>
        <time>1970-01-01T01:29:16.000Z</time>
      </trkpt>
      <trkpt lat="42.245455" lon="2.390189">
        <ele>655</ele>
        <time>1970-01-01T01:29:17.000Z</time>
      </trkpt>
      <trkpt lat="42.245469" lon="2.390173">
        <ele>655</ele>
        <time>1970-01-01T01:29:18.000Z</time>
      </trkpt>
      <trkpt lat="42.245483" lon="2.390157">
        <ele>655</ele>
        <time>1970-01-01T01:29:19.000Z</time>
      </trkpt>
      <trkpt lat="42.245496" lon="2.390141">
        <ele>655</ele>
        <time>1970-01-01T01:29:20.000Z</time>
      </trkpt>
      <trkpt lat="42.24551" lon="2.390125">
        <ele>655</ele>
        <time>1970-01-01T01:29:21.000Z</time>
      </trkpt>
      <trkpt lat="42.245523" lon="2.390109">
        <ele>655</ele>
        <time>1970-01-01T01:29:22.000Z</time>
      </trkpt>
      <trkpt lat="42.245537" lon="2.390093">
        <ele>657</ele>
        <time>1970-01-01T01:29:23.000Z</time>
      </trkpt>
      <trkpt lat="42.245563" lon="2.390056">
        <ele>657</ele>
        <time>1970-01-01T01:29:24.000Z</time>
      </trkpt>
      <trkpt lat="42.245575" lon="2.390038">
        <ele>657</ele>
        <time>1970-01-01T01:29:25.000Z</time>
      </trkpt>
      <trkpt lat="42.245587" lon="2.390021">
        <ele>657</ele>
        <time>1970-01-01T01:29:26.000Z</time>
      </trkpt>
      <trkpt lat="42.245599" lon="2.390003">
        <ele>657</ele>
        <time>1970-01-01T01:29:27.000Z</time>
      </trkpt>
      <trkpt lat="42.245611" lon="2.389986">
        <ele>657</ele>
        <time>1970-01-01T01:29:28.000Z</time>
      </trkpt>
      <trkpt lat="42.245622" lon="2.389969">
        <ele>657</ele>
        <time>1970-01-01T01:29:29.000Z</time>
      </trkpt>
      <trkpt lat="42.245634" lon="2.389951">
        <ele>657</ele>
        <time>1970-01-01T01:29:30.000Z</time>
      </trkpt>
      <trkpt lat="42.245646" lon="2.389934">
        <ele>657</ele>
        <time>1970-01-01T01:29:31.000Z</time>
      </trkpt>
      <trkpt lat="42.245658" lon="2.389916">
        <ele>657</ele>
        <time>1970-01-01T01:29:32.000Z</time>
      </trkpt>
      <trkpt lat="42.24567" lon="2.389899">
        <ele>659</ele>
        <time>1970-01-01T01:29:33.000Z</time>
      </trkpt>
      <trkpt lat="42.245692" lon="2.389861">
        <ele>659</ele>
        <time>1970-01-01T01:29:34.000Z</time>
      </trkpt>
      <trkpt lat="42.245702" lon="2.389841">
        <ele>659</ele>
        <time>1970-01-01T01:29:35.000Z</time>
      </trkpt>
      <trkpt lat="42.245712" lon="2.389821">
        <ele>659</ele>
        <time>1970-01-01T01:29:36.000Z</time>
      </trkpt>
      <trkpt lat="42.245722" lon="2.389801">
        <ele>659</ele>
        <time>1970-01-01T01:29:37.000Z</time>
      </trkpt>
      <trkpt lat="42.245732" lon="2.389781">
        <ele>659</ele>
        <time>1970-01-01T01:29:38.000Z</time>
      </trkpt>
      <trkpt lat="42.245742" lon="2.38976">
        <ele>659</ele>
        <time>1970-01-01T01:29:39.000Z</time>
      </trkpt>
      <trkpt lat="42.245752" lon="2.38974">
        <ele>659</ele>
        <time>1970-01-01T01:29:40.000Z</time>
      </trkpt>
      <trkpt lat="42.245762" lon="2.38972">
        <ele>659</ele>
        <time>1970-01-01T01:29:41.000Z</time>
      </trkpt>
      <trkpt lat="42.245772" lon="2.3897">
        <ele>659</ele>
        <time>1970-01-01T01:29:42.000Z</time>
      </trkpt>
      <trkpt lat="42.245782" lon="2.38968">
        <ele>659</ele>
        <time>1970-01-01T01:29:43.000Z</time>
      </trkpt>
      <trkpt lat="42.245806" lon="2.389643">
        <ele>659</ele>
        <time>1970-01-01T01:29:44.000Z</time>
      </trkpt>
      <trkpt lat="42.245819" lon="2.389625">
        <ele>659</ele>
        <time>1970-01-01T01:29:45.000Z</time>
      </trkpt>
      <trkpt lat="42.245832" lon="2.389608">
        <ele>659</ele>
        <time>1970-01-01T01:29:46.000Z</time>
      </trkpt>
      <trkpt lat="42.245845" lon="2.389591">
        <ele>659</ele>
        <time>1970-01-01T01:29:47.000Z</time>
      </trkpt>
      <trkpt lat="42.245858" lon="2.389574">
        <ele>659</ele>
        <time>1970-01-01T01:29:48.000Z</time>
      </trkpt>
      <trkpt lat="42.245871" lon="2.389556">
        <ele>659</ele>
        <time>1970-01-01T01:29:49.000Z</time>
      </trkpt>
      <trkpt lat="42.245884" lon="2.389539">
        <ele>659</ele>
        <time>1970-01-01T01:29:50.000Z</time>
      </trkpt>
      <trkpt lat="42.245897" lon="2.389522">
        <ele>659</ele>
        <time>1970-01-01T01:29:51.000Z</time>
      </trkpt>
      <trkpt lat="42.24591" lon="2.389504">
        <ele>659</ele>
        <time>1970-01-01T01:29:52.000Z</time>
      </trkpt>
      <trkpt lat="42.245923" lon="2.389487">
        <ele>660</ele>
        <time>1970-01-01T01:29:53.000Z</time>
      </trkpt>
      <trkpt lat="42.245957" lon="2.38946">
        <ele>660</ele>
        <time>1970-01-01T01:29:54.000Z</time>
      </trkpt>
      <trkpt lat="42.245972" lon="2.389448">
        <ele>660</ele>
        <time>1970-01-01T01:29:55.000Z</time>
      </trkpt>
      <trkpt lat="42.245988" lon="2.389436">
        <ele>660</ele>
        <time>1970-01-01T01:29:56.000Z</time>
      </trkpt>
      <trkpt lat="42.246003" lon="2.389424">
        <ele>660</ele>
        <time>1970-01-01T01:29:57.000Z</time>
      </trkpt>
      <trkpt lat="42.246019" lon="2.389412">
        <ele>660</ele>
        <time>1970-01-01T01:29:58.000Z</time>
      </trkpt>
      <trkpt lat="42.246034" lon="2.3894">
        <ele>660</ele>
        <time>1970-01-01T01:29:59.000Z</time>
      </trkpt>
      <trkpt lat="42.24605" lon="2.389388">
        <ele>660</ele>
        <time>1970-01-01T01:30:00.000Z</time>
      </trkpt>
      <trkpt lat="42.246065" lon="2.389376">
        <ele>660</ele>
        <time>1970-01-01T01:30:01.000Z</time>
      </trkpt>
      <trkpt lat="42.246081" lon="2.389364">
        <ele>660</ele>
        <time>1970-01-01T01:30:02.000Z</time>
      </trkpt>
      <trkpt lat="42.246096" lon="2.389352">
        <ele>662</ele>
        <time>1970-01-01T01:30:03.000Z</time>
      </trkpt>
      <trkpt lat="42.246128" lon="2.389322">
        <ele>662</ele>
        <time>1970-01-01T01:30:04.000Z</time>
      </trkpt>
      <trkpt lat="42.246143" lon="2.389308">
        <ele>662</ele>
        <time>1970-01-01T01:30:05.000Z</time>
      </trkpt>
      <trkpt lat="42.246159" lon="2.389293">
        <ele>662</ele>
        <time>1970-01-01T01:30:06.000Z</time>
      </trkpt>
      <trkpt lat="42.246174" lon="2.389278">
        <ele>662</ele>
        <time>1970-01-01T01:30:07.000Z</time>
      </trkpt>
      <trkpt lat="42.246189" lon="2.389264">
        <ele>662</ele>
        <time>1970-01-01T01:30:08.000Z</time>
      </trkpt>
      <trkpt lat="42.246204" lon="2.389249">
        <ele>662</ele>
        <time>1970-01-01T01:30:09.000Z</time>
      </trkpt>
      <trkpt lat="42.246219" lon="2.389234">
        <ele>662</ele>
        <time>1970-01-01T01:30:10.000Z</time>
      </trkpt>
      <trkpt lat="42.246235" lon="2.389219">
        <ele>662</ele>
        <time>1970-01-01T01:30:11.000Z</time>
      </trkpt>
      <trkpt lat="42.24625" lon="2.389205">
        <ele>662</ele>
        <time>1970-01-01T01:30:12.000Z</time>
      </trkpt>
      <trkpt lat="42.246265" lon="2.38919">
        <ele>663</ele>
        <time>1970-01-01T01:30:13.000Z</time>
      </trkpt>
      <trkpt lat="42.246296" lon="2.38916">
        <ele>663</ele>
        <time>1970-01-01T01:30:14.000Z</time>
      </trkpt>
      <trkpt lat="42.24631" lon="2.389145">
        <ele>663</ele>
        <time>1970-01-01T01:30:15.000Z</time>
      </trkpt>
      <trkpt lat="42.246325" lon="2.38913">
        <ele>663</ele>
        <time>1970-01-01T01:30:16.000Z</time>
      </trkpt>
      <trkpt lat="42.246339" lon="2.389115">
        <ele>663</ele>
        <time>1970-01-01T01:30:17.000Z</time>
      </trkpt>
      <trkpt lat="42.246354" lon="2.3891">
        <ele>663</ele>
        <time>1970-01-01T01:30:18.000Z</time>
      </trkpt>
      <trkpt lat="42.246368" lon="2.389084">
        <ele>663</ele>
        <time>1970-01-01T01:30:19.000Z</time>
      </trkpt>
      <trkpt lat="42.246383" lon="2.389069">
        <ele>663</ele>
        <time>1970-01-01T01:30:20.000Z</time>
      </trkpt>
      <trkpt lat="42.246397" lon="2.389054">
        <ele>663</ele>
        <time>1970-01-01T01:30:21.000Z</time>
      </trkpt>
      <trkpt lat="42.246412" lon="2.389039">
        <ele>663</ele>
        <time>1970-01-01T01:30:22.000Z</time>
      </trkpt>
      <trkpt lat="42.246426" lon="2.389024">
        <ele>664</ele>
        <time>1970-01-01T01:30:23.000Z</time>
      </trkpt>
      <trkpt lat="42.246452" lon="2.388985">
        <ele>664</ele>
        <time>1970-01-01T01:30:24.000Z</time>
      </trkpt>
      <trkpt lat="42.246463" lon="2.388966">
        <ele>664</ele>
        <time>1970-01-01T01:30:25.000Z</time>
      </trkpt>
      <trkpt lat="42.246474" lon="2.388946">
        <ele>664</ele>
        <time>1970-01-01T01:30:26.000Z</time>
      </trkpt>
      <trkpt lat="42.246485" lon="2.388927">
        <ele>664</ele>
        <time>1970-01-01T01:30:27.000Z</time>
      </trkpt>
      <trkpt lat="42.246497" lon="2.388907">
        <ele>664</ele>
        <time>1970-01-01T01:30:28.000Z</time>
      </trkpt>
      <trkpt lat="42.246508" lon="2.388887">
        <ele>664</ele>
        <time>1970-01-01T01:30:29.000Z</time>
      </trkpt>
      <trkpt lat="42.246519" lon="2.388868">
        <ele>664</ele>
        <time>1970-01-01T01:30:30.000Z</time>
      </trkpt>
      <trkpt lat="42.24653" lon="2.388848">
        <ele>664</ele>
        <time>1970-01-01T01:30:31.000Z</time>
      </trkpt>
      <trkpt lat="42.246541" lon="2.388829">
        <ele>664</ele>
        <time>1970-01-01T01:30:32.000Z</time>
      </trkpt>
      <trkpt lat="42.246552" lon="2.388809">
        <ele>667</ele>
        <time>1970-01-01T01:30:33.000Z</time>
      </trkpt>
      <trkpt lat="42.246557" lon="2.38876">
        <ele>667</ele>
        <time>1970-01-01T01:30:34.000Z</time>
      </trkpt>
      <trkpt lat="42.246553" lon="2.388736">
        <ele>667</ele>
        <time>1970-01-01T01:30:35.000Z</time>
      </trkpt>
      <trkpt lat="42.24655" lon="2.388713">
        <ele>667</ele>
        <time>1970-01-01T01:30:36.000Z</time>
      </trkpt>
      <trkpt lat="42.246546" lon="2.388689">
        <ele>667</ele>
        <time>1970-01-01T01:30:37.000Z</time>
      </trkpt>
      <trkpt lat="42.246543" lon="2.388665">
        <ele>667</ele>
        <time>1970-01-01T01:30:38.000Z</time>
      </trkpt>
      <trkpt lat="42.24654" lon="2.388641">
        <ele>667</ele>
        <time>1970-01-01T01:30:39.000Z</time>
      </trkpt>
      <trkpt lat="42.246536" lon="2.388617">
        <ele>667</ele>
        <time>1970-01-01T01:30:40.000Z</time>
      </trkpt>
      <trkpt lat="42.246533" lon="2.388594">
        <ele>667</ele>
        <time>1970-01-01T01:30:41.000Z</time>
      </trkpt>
      <trkpt lat="42.246529" lon="2.38857">
        <ele>667</ele>
        <time>1970-01-01T01:30:42.000Z</time>
      </trkpt>
      <trkpt lat="42.246526" lon="2.388546">
        <ele>667</ele>
        <time>1970-01-01T01:30:43.000Z</time>
      </trkpt>
      <trkpt lat="42.246497" lon="2.388513">
        <ele>667</ele>
        <time>1970-01-01T01:30:44.000Z</time>
      </trkpt>
      <trkpt lat="42.24648" lon="2.388503">
        <ele>667</ele>
        <time>1970-01-01T01:30:45.000Z</time>
      </trkpt>
      <trkpt lat="42.246464" lon="2.388492">
        <ele>667</ele>
        <time>1970-01-01T01:30:46.000Z</time>
      </trkpt>
      <trkpt lat="42.246447" lon="2.388481">
        <ele>667</ele>
        <time>1970-01-01T01:30:47.000Z</time>
      </trkpt>
      <trkpt lat="42.246431" lon="2.38847">
        <ele>667</ele>
        <time>1970-01-01T01:30:48.000Z</time>
      </trkpt>
      <trkpt lat="42.246414" lon="2.38846">
        <ele>667</ele>
        <time>1970-01-01T01:30:49.000Z</time>
      </trkpt>
      <trkpt lat="42.246398" lon="2.388449">
        <ele>667</ele>
        <time>1970-01-01T01:30:50.000Z</time>
      </trkpt>
      <trkpt lat="42.246381" lon="2.388438">
        <ele>667</ele>
        <time>1970-01-01T01:30:51.000Z</time>
      </trkpt>
      <trkpt lat="42.246365" lon="2.388428">
        <ele>667</ele>
        <time>1970-01-01T01:30:52.000Z</time>
      </trkpt>
      <trkpt lat="42.246348" lon="2.388417">
        <ele>667</ele>
        <time>1970-01-01T01:30:53.000Z</time>
      </trkpt>
      <trkpt lat="42.246307" lon="2.388405">
        <ele>667</ele>
        <time>1970-01-01T01:30:54.000Z</time>
      </trkpt>
      <trkpt lat="42.246287" lon="2.3884">
        <ele>667</ele>
        <time>1970-01-01T01:30:55.000Z</time>
      </trkpt>
      <trkpt lat="42.246268" lon="2.388394">
        <ele>667</ele>
        <time>1970-01-01T01:30:56.000Z</time>
      </trkpt>
      <trkpt lat="42.246248" lon="2.388389">
        <ele>667</ele>
        <time>1970-01-01T01:30:57.000Z</time>
      </trkpt>
      <trkpt lat="42.246229" lon="2.388383">
        <ele>667</ele>
        <time>1970-01-01T01:30:58.000Z</time>
      </trkpt>
      <trkpt lat="42.24621" lon="2.388378">
        <ele>667</ele>
        <time>1970-01-01T01:30:59.000Z</time>
      </trkpt>
      <trkpt lat="42.24619" lon="2.388372">
        <ele>667</ele>
        <time>1970-01-01T01:31:00.000Z</time>
      </trkpt>
      <trkpt lat="42.246171" lon="2.388367">
        <ele>667</ele>
        <time>1970-01-01T01:31:01.000Z</time>
      </trkpt>
      <trkpt lat="42.246151" lon="2.388361">
        <ele>667</ele>
        <time>1970-01-01T01:31:02.000Z</time>
      </trkpt>
      <trkpt lat="42.246132" lon="2.388356">
        <ele>669</ele>
        <time>1970-01-01T01:31:03.000Z</time>
      </trkpt>
      <trkpt lat="42.246092" lon="2.388346">
        <ele>669</ele>
        <time>1970-01-01T01:31:04.000Z</time>
      </trkpt>
      <trkpt lat="42.246073" lon="2.388342">
        <ele>669</ele>
        <time>1970-01-01T01:31:05.000Z</time>
      </trkpt>
      <trkpt lat="42.246055" lon="2.388337">
        <ele>669</ele>
        <time>1970-01-01T01:31:06.000Z</time>
      </trkpt>
      <trkpt lat="42.246036" lon="2.388333">
        <ele>669</ele>
        <time>1970-01-01T01:31:07.000Z</time>
      </trkpt>
      <trkpt lat="42.246018" lon="2.388328">
        <ele>669</ele>
        <time>1970-01-01T01:31:08.000Z</time>
      </trkpt>
      <trkpt lat="42.246" lon="2.388324">
        <ele>669</ele>
        <time>1970-01-01T01:31:09.000Z</time>
      </trkpt>
      <trkpt lat="42.245981" lon="2.388319">
        <ele>669</ele>
        <time>1970-01-01T01:31:10.000Z</time>
      </trkpt>
      <trkpt lat="42.245963" lon="2.388315">
        <ele>669</ele>
        <time>1970-01-01T01:31:11.000Z</time>
      </trkpt>
      <trkpt lat="42.245944" lon="2.38831">
        <ele>669</ele>
        <time>1970-01-01T01:31:12.000Z</time>
      </trkpt>
      <trkpt lat="42.245926" lon="2.388306">
        <ele>670</ele>
        <time>1970-01-01T01:31:13.000Z</time>
      </trkpt>
      <trkpt lat="42.245887" lon="2.388296">
        <ele>670</ele>
        <time>1970-01-01T01:31:14.000Z</time>
      </trkpt>
      <trkpt lat="42.245868" lon="2.388291">
        <ele>670</ele>
        <time>1970-01-01T01:31:15.000Z</time>
      </trkpt>
      <trkpt lat="42.24585" lon="2.388286">
        <ele>670</ele>
        <time>1970-01-01T01:31:16.000Z</time>
      </trkpt>
      <trkpt lat="42.245831" lon="2.388281">
        <ele>670</ele>
        <time>1970-01-01T01:31:17.000Z</time>
      </trkpt>
      <trkpt lat="42.245813" lon="2.388275">
        <ele>670</ele>
        <time>1970-01-01T01:31:18.000Z</time>
      </trkpt>
      <trkpt lat="42.245794" lon="2.38827">
        <ele>670</ele>
        <time>1970-01-01T01:31:19.000Z</time>
      </trkpt>
      <trkpt lat="42.245776" lon="2.388265">
        <ele>670</ele>
        <time>1970-01-01T01:31:20.000Z</time>
      </trkpt>
      <trkpt lat="42.245757" lon="2.38826">
        <ele>670</ele>
        <time>1970-01-01T01:31:21.000Z</time>
      </trkpt>
      <trkpt lat="42.245739" lon="2.388255">
        <ele>670</ele>
        <time>1970-01-01T01:31:22.000Z</time>
      </trkpt>
      <trkpt lat="42.24572" lon="2.38825">
        <ele>672</ele>
        <time>1970-01-01T01:31:23.000Z</time>
      </trkpt>
      <trkpt lat="42.245682" lon="2.388248">
        <ele>672</ele>
        <time>1970-01-01T01:31:24.000Z</time>
      </trkpt>
      <trkpt lat="42.245664" lon="2.388246">
        <ele>672</ele>
        <time>1970-01-01T01:31:25.000Z</time>
      </trkpt>
      <trkpt lat="42.245647" lon="2.388244">
        <ele>672</ele>
        <time>1970-01-01T01:31:26.000Z</time>
      </trkpt>
      <trkpt lat="42.24563" lon="2.388242">
        <ele>672</ele>
        <time>1970-01-01T01:31:27.000Z</time>
      </trkpt>
      <trkpt lat="42.245613" lon="2.388239">
        <ele>672</ele>
        <time>1970-01-01T01:31:28.000Z</time>
      </trkpt>
      <trkpt lat="42.245595" lon="2.388237">
        <ele>672</ele>
        <time>1970-01-01T01:31:29.000Z</time>
      </trkpt>
      <trkpt lat="42.245578" lon="2.388235">
        <ele>672</ele>
        <time>1970-01-01T01:31:30.000Z</time>
      </trkpt>
      <trkpt lat="42.245561" lon="2.388233">
        <ele>672</ele>
        <time>1970-01-01T01:31:31.000Z</time>
      </trkpt>
      <trkpt lat="42.245543" lon="2.388231">
        <ele>672</ele>
        <time>1970-01-01T01:31:32.000Z</time>
      </trkpt>
      <trkpt lat="42.245526" lon="2.388229">
        <ele>673</ele>
        <time>1970-01-01T01:31:33.000Z</time>
      </trkpt>
      <trkpt lat="42.245488" lon="2.388233">
        <ele>673</ele>
        <time>1970-01-01T01:31:34.000Z</time>
      </trkpt>
      <trkpt lat="42.245471" lon="2.388237">
        <ele>673</ele>
        <time>1970-01-01T01:31:35.000Z</time>
      </trkpt>
      <trkpt lat="42.245453" lon="2.388242">
        <ele>673</ele>
        <time>1970-01-01T01:31:36.000Z</time>
      </trkpt>
      <trkpt lat="42.245435" lon="2.388246">
        <ele>673</ele>
        <time>1970-01-01T01:31:37.000Z</time>
      </trkpt>
      <trkpt lat="42.245418" lon="2.38825">
        <ele>673</ele>
        <time>1970-01-01T01:31:38.000Z</time>
      </trkpt>
      <trkpt lat="42.2454" lon="2.388254">
        <ele>673</ele>
        <time>1970-01-01T01:31:39.000Z</time>
      </trkpt>
      <trkpt lat="42.245382" lon="2.388258">
        <ele>673</ele>
        <time>1970-01-01T01:31:40.000Z</time>
      </trkpt>
      <trkpt lat="42.245364" lon="2.388263">
        <ele>673</ele>
        <time>1970-01-01T01:31:41.000Z</time>
      </trkpt>
      <trkpt lat="42.245347" lon="2.388267">
        <ele>673</ele>
        <time>1970-01-01T01:31:42.000Z</time>
      </trkpt>
      <trkpt lat="42.245329" lon="2.388271">
        <ele>675</ele>
        <time>1970-01-01T01:31:43.000Z</time>
      </trkpt>
      <trkpt lat="42.245292" lon="2.38827">
        <ele>675</ele>
        <time>1970-01-01T01:31:44.000Z</time>
      </trkpt>
      <trkpt lat="42.245275" lon="2.388266">
        <ele>675</ele>
        <time>1970-01-01T01:31:45.000Z</time>
      </trkpt>
      <trkpt lat="42.245257" lon="2.388261">
        <ele>675</ele>
        <time>1970-01-01T01:31:46.000Z</time>
      </trkpt>
      <trkpt lat="42.245239" lon="2.388257">
        <ele>675</ele>
        <time>1970-01-01T01:31:47.000Z</time>
      </trkpt>
      <trkpt lat="42.245222" lon="2.388253">
        <ele>675</ele>
        <time>1970-01-01T01:31:48.000Z</time>
      </trkpt>
      <trkpt lat="42.245204" lon="2.388249">
        <ele>675</ele>
        <time>1970-01-01T01:31:49.000Z</time>
      </trkpt>
      <trkpt lat="42.245186" lon="2.388245">
        <ele>675</ele>
        <time>1970-01-01T01:31:50.000Z</time>
      </trkpt>
      <trkpt lat="42.245168" lon="2.38824">
        <ele>675</ele>
        <time>1970-01-01T01:31:51.000Z</time>
      </trkpt>
      <trkpt lat="42.245151" lon="2.388236">
        <ele>675</ele>
        <time>1970-01-01T01:31:52.000Z</time>
      </trkpt>
      <trkpt lat="42.245133" lon="2.388232">
        <ele>676</ele>
        <time>1970-01-01T01:31:53.000Z</time>
      </trkpt>
      <trkpt lat="42.245091" lon="2.388235">
        <ele>676</ele>
        <time>1970-01-01T01:31:54.000Z</time>
      </trkpt>
      <trkpt lat="42.245072" lon="2.388237">
        <ele>676</ele>
        <time>1970-01-01T01:31:55.000Z</time>
      </trkpt>
      <trkpt lat="42.245052" lon="2.38824">
        <ele>676</ele>
        <time>1970-01-01T01:31:56.000Z</time>
      </trkpt>
      <trkpt lat="42.245032" lon="2.388243">
        <ele>676</ele>
        <time>1970-01-01T01:31:57.000Z</time>
      </trkpt>
      <trkpt lat="42.245013" lon="2.388246">
        <ele>676</ele>
        <time>1970-01-01T01:31:58.000Z</time>
      </trkpt>
      <trkpt lat="42.244993" lon="2.388248">
        <ele>676</ele>
        <time>1970-01-01T01:31:59.000Z</time>
      </trkpt>
      <trkpt lat="42.244973" lon="2.388251">
        <ele>676</ele>
        <time>1970-01-01T01:32:00.000Z</time>
      </trkpt>
      <trkpt lat="42.244953" lon="2.388254">
        <ele>676</ele>
        <time>1970-01-01T01:32:01.000Z</time>
      </trkpt>
      <trkpt lat="42.244934" lon="2.388256">
        <ele>676</ele>
        <time>1970-01-01T01:32:02.000Z</time>
      </trkpt>
      <trkpt lat="42.244914" lon="2.388259">
        <ele>676</ele>
        <time>1970-01-01T01:32:03.000Z</time>
      </trkpt>
      <trkpt lat="42.244874" lon="2.388245">
        <ele>676</ele>
        <time>1970-01-01T01:32:04.000Z</time>
      </trkpt>
      <trkpt lat="42.244856" lon="2.388234">
        <ele>676</ele>
        <time>1970-01-01T01:32:05.000Z</time>
      </trkpt>
      <trkpt lat="42.244839" lon="2.388224">
        <ele>676</ele>
        <time>1970-01-01T01:32:06.000Z</time>
      </trkpt>
      <trkpt lat="42.244821" lon="2.388214">
        <ele>676</ele>
        <time>1970-01-01T01:32:07.000Z</time>
      </trkpt>
      <trkpt lat="42.244804" lon="2.388203">
        <ele>676</ele>
        <time>1970-01-01T01:32:08.000Z</time>
      </trkpt>
      <trkpt lat="42.244786" lon="2.388193">
        <ele>676</ele>
        <time>1970-01-01T01:32:09.000Z</time>
      </trkpt>
      <trkpt lat="42.244769" lon="2.388183">
        <ele>676</ele>
        <time>1970-01-01T01:32:10.000Z</time>
      </trkpt>
      <trkpt lat="42.244751" lon="2.388173">
        <ele>676</ele>
        <time>1970-01-01T01:32:11.000Z</time>
      </trkpt>
      <trkpt lat="42.244734" lon="2.388162">
        <ele>676</ele>
        <time>1970-01-01T01:32:12.000Z</time>
      </trkpt>
      <trkpt lat="42.244716" lon="2.388152">
        <ele>678</ele>
        <time>1970-01-01T01:32:13.000Z</time>
      </trkpt>
      <trkpt lat="42.244688" lon="2.388116">
        <ele>678</ele>
        <time>1970-01-01T01:32:14.000Z</time>
      </trkpt>
      <trkpt lat="42.244675" lon="2.388097">
        <ele>678</ele>
        <time>1970-01-01T01:32:15.000Z</time>
      </trkpt>
      <trkpt lat="42.244663" lon="2.388079">
        <ele>678</ele>
        <time>1970-01-01T01:32:16.000Z</time>
      </trkpt>
      <trkpt lat="42.24465" lon="2.38806">
        <ele>678</ele>
        <time>1970-01-01T01:32:17.000Z</time>
      </trkpt>
      <trkpt lat="42.244638" lon="2.388041">
        <ele>678</ele>
        <time>1970-01-01T01:32:18.000Z</time>
      </trkpt>
      <trkpt lat="42.244625" lon="2.388022">
        <ele>678</ele>
        <time>1970-01-01T01:32:19.000Z</time>
      </trkpt>
      <trkpt lat="42.244613" lon="2.388003">
        <ele>678</ele>
        <time>1970-01-01T01:32:20.000Z</time>
      </trkpt>
      <trkpt lat="42.2446" lon="2.387985">
        <ele>678</ele>
        <time>1970-01-01T01:32:21.000Z</time>
      </trkpt>
      <trkpt lat="42.244588" lon="2.387966">
        <ele>678</ele>
        <time>1970-01-01T01:32:22.000Z</time>
      </trkpt>
      <trkpt lat="42.244575" lon="2.387947">
        <ele>678</ele>
        <time>1970-01-01T01:32:23.000Z</time>
      </trkpt>
      <trkpt lat="42.244541" lon="2.387915">
        <ele>678</ele>
        <time>1970-01-01T01:32:24.000Z</time>
      </trkpt>
      <trkpt lat="42.244524" lon="2.387902">
        <ele>678</ele>
        <time>1970-01-01T01:32:25.000Z</time>
      </trkpt>
      <trkpt lat="42.244506" lon="2.387889">
        <ele>678</ele>
        <time>1970-01-01T01:32:26.000Z</time>
      </trkpt>
      <trkpt lat="42.244489" lon="2.387876">
        <ele>678</ele>
        <time>1970-01-01T01:32:27.000Z</time>
      </trkpt>
      <trkpt lat="42.244472" lon="2.387863">
        <ele>678</ele>
        <time>1970-01-01T01:32:28.000Z</time>
      </trkpt>
      <trkpt lat="42.244455" lon="2.38785">
        <ele>678</ele>
        <time>1970-01-01T01:32:29.000Z</time>
      </trkpt>
      <trkpt lat="42.244438" lon="2.387837">
        <ele>678</ele>
        <time>1970-01-01T01:32:30.000Z</time>
      </trkpt>
      <trkpt lat="42.24442" lon="2.387824">
        <ele>678</ele>
        <time>1970-01-01T01:32:31.000Z</time>
      </trkpt>
      <trkpt lat="42.244403" lon="2.387811">
        <ele>678</ele>
        <time>1970-01-01T01:32:32.000Z</time>
      </trkpt>
      <trkpt lat="42.244386" lon="2.387798">
        <ele>678</ele>
        <time>1970-01-01T01:32:33.000Z</time>
      </trkpt>
      <trkpt lat="42.244345" lon="2.387784">
        <ele>678</ele>
        <time>1970-01-01T01:32:34.000Z</time>
      </trkpt>
      <trkpt lat="42.244325" lon="2.387779">
        <ele>678</ele>
        <time>1970-01-01T01:32:35.000Z</time>
      </trkpt>
      <trkpt lat="42.244305" lon="2.387775">
        <ele>678</ele>
        <time>1970-01-01T01:32:36.000Z</time>
      </trkpt>
      <trkpt lat="42.244285" lon="2.38777">
        <ele>678</ele>
        <time>1970-01-01T01:32:37.000Z</time>
      </trkpt>
      <trkpt lat="42.244265" lon="2.387765">
        <ele>678</ele>
        <time>1970-01-01T01:32:38.000Z</time>
      </trkpt>
      <trkpt lat="42.244244" lon="2.38776">
        <ele>678</ele>
        <time>1970-01-01T01:32:39.000Z</time>
      </trkpt>
      <trkpt lat="42.244224" lon="2.387755">
        <ele>678</ele>
        <time>1970-01-01T01:32:40.000Z</time>
      </trkpt>
      <trkpt lat="42.244204" lon="2.387751">
        <ele>678</ele>
        <time>1970-01-01T01:32:41.000Z</time>
      </trkpt>
      <trkpt lat="42.244184" lon="2.387746">
        <ele>678</ele>
        <time>1970-01-01T01:32:42.000Z</time>
      </trkpt>
      <trkpt lat="42.244164" lon="2.387741">
        <ele>680</ele>
        <time>1970-01-01T01:32:43.000Z</time>
      </trkpt>
      <trkpt lat="42.244122" lon="2.387731">
        <ele>680</ele>
        <time>1970-01-01T01:32:44.000Z</time>
      </trkpt>
      <trkpt lat="42.244103" lon="2.387723">
        <ele>680</ele>
        <time>1970-01-01T01:32:45.000Z</time>
      </trkpt>
      <trkpt lat="42.244083" lon="2.387716">
        <ele>680</ele>
        <time>1970-01-01T01:32:46.000Z</time>
      </trkpt>
      <trkpt lat="42.244064" lon="2.387709">
        <ele>680</ele>
        <time>1970-01-01T01:32:47.000Z</time>
      </trkpt>
      <trkpt lat="42.244045" lon="2.387701">
        <ele>680</ele>
        <time>1970-01-01T01:32:48.000Z</time>
      </trkpt>
      <trkpt lat="42.244026" lon="2.387694">
        <ele>680</ele>
        <time>1970-01-01T01:32:49.000Z</time>
      </trkpt>
      <trkpt lat="42.244007" lon="2.387687">
        <ele>680</ele>
        <time>1970-01-01T01:32:50.000Z</time>
      </trkpt>
      <trkpt lat="42.243987" lon="2.38768">
        <ele>680</ele>
        <time>1970-01-01T01:32:51.000Z</time>
      </trkpt>
      <trkpt lat="42.243968" lon="2.387672">
        <ele>680</ele>
        <time>1970-01-01T01:32:52.000Z</time>
      </trkpt>
      <trkpt lat="42.243949" lon="2.387665">
        <ele>681</ele>
        <time>1970-01-01T01:32:53.000Z</time>
      </trkpt>
      <trkpt lat="42.243919" lon="2.387631">
        <ele>681</ele>
        <time>1970-01-01T01:32:54.000Z</time>
      </trkpt>
      <trkpt lat="42.243909" lon="2.387611">
        <ele>681</ele>
        <time>1970-01-01T01:32:55.000Z</time>
      </trkpt>
      <trkpt lat="42.243898" lon="2.38759">
        <ele>681</ele>
        <time>1970-01-01T01:32:56.000Z</time>
      </trkpt>
      <trkpt lat="42.243888" lon="2.387569">
        <ele>681</ele>
        <time>1970-01-01T01:32:57.000Z</time>
      </trkpt>
      <trkpt lat="42.243878" lon="2.387548">
        <ele>681</ele>
        <time>1970-01-01T01:32:58.000Z</time>
      </trkpt>
      <trkpt lat="42.243868" lon="2.387528">
        <ele>681</ele>
        <time>1970-01-01T01:32:59.000Z</time>
      </trkpt>
      <trkpt lat="42.243858" lon="2.387507">
        <ele>681</ele>
        <time>1970-01-01T01:33:00.000Z</time>
      </trkpt>
      <trkpt lat="42.243847" lon="2.387486">
        <ele>681</ele>
        <time>1970-01-01T01:33:01.000Z</time>
      </trkpt>
      <trkpt lat="42.243837" lon="2.387466">
        <ele>681</ele>
        <time>1970-01-01T01:33:02.000Z</time>
      </trkpt>
      <trkpt lat="42.243827" lon="2.387445">
        <ele>683</ele>
        <time>1970-01-01T01:33:03.000Z</time>
      </trkpt>
      <trkpt lat="42.243842" lon="2.387402">
        <ele>683</ele>
        <time>1970-01-01T01:33:04.000Z</time>
      </trkpt>
      <trkpt lat="42.243857" lon="2.387387">
        <ele>683</ele>
        <time>1970-01-01T01:33:05.000Z</time>
      </trkpt>
      <trkpt lat="42.243873" lon="2.387371">
        <ele>683</ele>
        <time>1970-01-01T01:33:06.000Z</time>
      </trkpt>
      <trkpt lat="42.243888" lon="2.387355">
        <ele>683</ele>
        <time>1970-01-01T01:33:07.000Z</time>
      </trkpt>
      <trkpt lat="42.243904" lon="2.387339">
        <ele>683</ele>
        <time>1970-01-01T01:33:08.000Z</time>
      </trkpt>
      <trkpt lat="42.243919" lon="2.387324">
        <ele>683</ele>
        <time>1970-01-01T01:33:09.000Z</time>
      </trkpt>
      <trkpt lat="42.243935" lon="2.387308">
        <ele>683</ele>
        <time>1970-01-01T01:33:11.000Z</time>
      </trkpt>
      <trkpt lat="42.24395" lon="2.387292">
        <ele>685</ele>
        <time>1970-01-01T01:33:13.000Z</time>
      </trkpt>
      <trkpt lat="42.243984" lon="2.387312">
        <ele>685</ele>
        <time>1970-01-01T01:33:14.000Z</time>
      </trkpt>
      <trkpt lat="42.243999" lon="2.387325">
        <ele>685</ele>
        <time>1970-01-01T01:33:15.000Z</time>
      </trkpt>
      <trkpt lat="42.244014" lon="2.387339">
        <ele>685</ele>
        <time>1970-01-01T01:33:16.000Z</time>
      </trkpt>
      <trkpt lat="42.244029" lon="2.387353">
        <ele>685</ele>
        <time>1970-01-01T01:33:17.000Z</time>
      </trkpt>
      <trkpt lat="42.244045" lon="2.387366">
        <ele>685</ele>
        <time>1970-01-01T01:33:18.000Z</time>
      </trkpt>
      <trkpt lat="42.24406" lon="2.38738">
        <ele>685</ele>
        <time>1970-01-01T01:33:19.000Z</time>
      </trkpt>
      <trkpt lat="42.244075" lon="2.387394">
        <ele>685</ele>
        <time>1970-01-01T01:33:20.000Z</time>
      </trkpt>
      <trkpt lat="42.24409" lon="2.387408">
        <ele>685</ele>
        <time>1970-01-01T01:33:21.000Z</time>
      </trkpt>
      <trkpt lat="42.244105" lon="2.387421">
        <ele>685</ele>
        <time>1970-01-01T01:33:22.000Z</time>
      </trkpt>
      <trkpt lat="42.24412" lon="2.387435">
        <ele>686</ele>
        <time>1970-01-01T01:33:23.000Z</time>
      </trkpt>
      <trkpt lat="42.244151" lon="2.387465">
        <ele>686</ele>
        <time>1970-01-01T01:33:24.000Z</time>
      </trkpt>
      <trkpt lat="42.244167" lon="2.38748">
        <ele>686</ele>
        <time>1970-01-01T01:33:25.000Z</time>
      </trkpt>
      <trkpt lat="42.244183" lon="2.387495">
        <ele>686</ele>
        <time>1970-01-01T01:33:26.000Z</time>
      </trkpt>
      <trkpt lat="42.244199" lon="2.38751">
        <ele>686</ele>
        <time>1970-01-01T01:33:28.000Z</time>
      </trkpt>
      <trkpt lat="42.244214" lon="2.387525">
        <ele>686</ele>
        <time>1970-01-01T01:33:29.000Z</time>
      </trkpt>
      <trkpt lat="42.24423" lon="2.38754">
        <ele>686</ele>
        <time>1970-01-01T01:33:30.000Z</time>
      </trkpt>
      <trkpt lat="42.244246" lon="2.387555">
        <ele>686</ele>
        <time>1970-01-01T01:33:31.000Z</time>
      </trkpt>
      <trkpt lat="42.244262" lon="2.38757">
        <ele>686</ele>
        <time>1970-01-01T01:33:32.000Z</time>
      </trkpt>
      <trkpt lat="42.244278" lon="2.387585">
        <ele>687</ele>
        <time>1970-01-01T01:33:33.000Z</time>
      </trkpt>
      <trkpt lat="42.244312" lon="2.387608">
        <ele>687</ele>
        <time>1970-01-01T01:33:34.000Z</time>
      </trkpt>
      <trkpt lat="42.244328" lon="2.387619">
        <ele>687</ele>
        <time>1970-01-01T01:33:35.000Z</time>
      </trkpt>
      <trkpt lat="42.244345" lon="2.387629">
        <ele>687</ele>
        <time>1970-01-01T01:33:36.000Z</time>
      </trkpt>
      <trkpt lat="42.244361" lon="2.38764">
        <ele>687</ele>
        <time>1970-01-01T01:33:37.000Z</time>
      </trkpt>
      <trkpt lat="42.244377" lon="2.38765">
        <ele>687</ele>
        <time>1970-01-01T01:33:38.000Z</time>
      </trkpt>
      <trkpt lat="42.244393" lon="2.38766">
        <ele>687</ele>
        <time>1970-01-01T01:33:39.000Z</time>
      </trkpt>
      <trkpt lat="42.244409" lon="2.387671">
        <ele>687</ele>
        <time>1970-01-01T01:33:40.000Z</time>
      </trkpt>
      <trkpt lat="42.244426" lon="2.387681">
        <ele>687</ele>
        <time>1970-01-01T01:33:41.000Z</time>
      </trkpt>
      <trkpt lat="42.244442" lon="2.387692">
        <ele>687</ele>
        <time>1970-01-01T01:33:42.000Z</time>
      </trkpt>
      <trkpt lat="42.244458" lon="2.387702">
        <ele>689</ele>
        <time>1970-01-01T01:33:43.000Z</time>
      </trkpt>
      <trkpt lat="42.244491" lon="2.387729">
        <ele>689</ele>
        <time>1970-01-01T01:33:44.000Z</time>
      </trkpt>
      <trkpt lat="42.244507" lon="2.387744">
        <ele>689</ele>
        <time>1970-01-01T01:33:45.000Z</time>
      </trkpt>
      <trkpt lat="42.244522" lon="2.38776">
        <ele>689</ele>
        <time>1970-01-01T01:33:46.000Z</time>
      </trkpt>
      <trkpt lat="42.244538" lon="2.387776">
        <ele>689</ele>
        <time>1970-01-01T01:33:47.000Z</time>
      </trkpt>
      <trkpt lat="42.244553" lon="2.387792">
        <ele>689</ele>
        <time>1970-01-01T01:33:48.000Z</time>
      </trkpt>
      <trkpt lat="42.244568" lon="2.387807">
        <ele>689</ele>
        <time>1970-01-01T01:33:50.000Z</time>
      </trkpt>
      <trkpt lat="42.244584" lon="2.387823">
        <ele>689</ele>
        <time>1970-01-01T01:33:52.000Z</time>
      </trkpt>
      <trkpt lat="42.244599" lon="2.387839">
        <ele>690</ele>
        <time>1970-01-01T01:33:53.000Z</time>
      </trkpt>
      <trkpt lat="42.244623" lon="2.387876">
        <ele>690</ele>
        <time>1970-01-01T01:33:54.000Z</time>
      </trkpt>
      <trkpt lat="42.244637" lon="2.387892">
        <ele>690</ele>
        <time>1970-01-01T01:33:55.000Z</time>
      </trkpt>
      <trkpt lat="42.24465" lon="2.387908">
        <ele>690</ele>
        <time>1970-01-01T01:33:56.000Z</time>
      </trkpt>
      <trkpt lat="42.244664" lon="2.387924">
        <ele>690</ele>
        <time>1970-01-01T01:33:57.000Z</time>
      </trkpt>
      <trkpt lat="42.244678" lon="2.38794">
        <ele>690</ele>
        <time>1970-01-01T01:33:58.000Z</time>
      </trkpt>
      <trkpt lat="42.244692" lon="2.387956">
        <ele>690</ele>
        <time>1970-01-01T01:33:59.000Z</time>
      </trkpt>
      <trkpt lat="42.244706" lon="2.387972">
        <ele>690</ele>
        <time>1970-01-01T01:34:00.000Z</time>
      </trkpt>
      <trkpt lat="42.244719" lon="2.387988">
        <ele>690</ele>
        <time>1970-01-01T01:34:01.000Z</time>
      </trkpt>
      <trkpt lat="42.244733" lon="2.388004">
        <ele>690</ele>
        <time>1970-01-01T01:34:02.000Z</time>
      </trkpt>
      <trkpt lat="42.244747" lon="2.38802">
        <ele>691</ele>
        <time>1970-01-01T01:34:03.000Z</time>
      </trkpt>
      <trkpt lat="42.244792" lon="2.388036">
        <ele>691</ele>
        <time>1970-01-01T01:34:04.000Z</time>
      </trkpt>
      <trkpt lat="42.244817" lon="2.388039">
        <ele>691</ele>
        <time>1970-01-01T01:34:05.000Z</time>
      </trkpt>
      <trkpt lat="42.244841" lon="2.388041">
        <ele>691</ele>
        <time>1970-01-01T01:34:06.000Z</time>
      </trkpt>
      <trkpt lat="42.244865" lon="2.388044">
        <ele>691</ele>
        <time>1970-01-01T01:34:07.000Z</time>
      </trkpt>
      <trkpt lat="42.24489" lon="2.388046">
        <ele>691</ele>
        <time>1970-01-01T01:34:08.000Z</time>
      </trkpt>
      <trkpt lat="42.244914" lon="2.388048">
        <ele>691</ele>
        <time>1970-01-01T01:34:09.000Z</time>
      </trkpt>
      <trkpt lat="42.244938" lon="2.388051">
        <ele>691</ele>
        <time>1970-01-01T01:34:10.000Z</time>
      </trkpt>
      <trkpt lat="42.244962" lon="2.388053">
        <ele>691</ele>
        <time>1970-01-01T01:34:11.000Z</time>
      </trkpt>
      <trkpt lat="42.244987" lon="2.388056">
        <ele>691</ele>
        <time>1970-01-01T01:34:12.000Z</time>
      </trkpt>
      <trkpt lat="42.245011" lon="2.388058">
        <ele>691</ele>
        <time>1970-01-01T01:34:13.000Z</time>
      </trkpt>
      <trkpt lat="42.245068" lon="2.388049">
        <ele>691</ele>
        <time>1970-01-01T01:34:14.000Z</time>
      </trkpt>
      <trkpt lat="42.245095" lon="2.388043">
        <ele>691</ele>
        <time>1970-01-01T01:34:15.000Z</time>
      </trkpt>
      <trkpt lat="42.245122" lon="2.388037">
        <ele>691</ele>
        <time>1970-01-01T01:34:16.000Z</time>
      </trkpt>
      <trkpt lat="42.245149" lon="2.388031">
        <ele>691</ele>
        <time>1970-01-01T01:34:17.000Z</time>
      </trkpt>
      <trkpt lat="42.245176" lon="2.388025">
        <ele>691</ele>
        <time>1970-01-01T01:34:18.000Z</time>
      </trkpt>
      <trkpt lat="42.245203" lon="2.388019">
        <ele>691</ele>
        <time>1970-01-01T01:34:19.000Z</time>
      </trkpt>
      <trkpt lat="42.24523" lon="2.388013">
        <ele>691</ele>
        <time>1970-01-01T01:34:20.000Z</time>
      </trkpt>
      <trkpt lat="42.245257" lon="2.388007">
        <ele>691</ele>
        <time>1970-01-01T01:34:21.000Z</time>
      </trkpt>
      <trkpt lat="42.245284" lon="2.388001">
        <ele>691</ele>
        <time>1970-01-01T01:34:22.000Z</time>
      </trkpt>
      <trkpt lat="42.245311" lon="2.387995">
        <ele>692</ele>
        <time>1970-01-01T01:34:23.000Z</time>
      </trkpt>
      <trkpt lat="42.245368" lon="2.387975">
        <ele>692</ele>
        <time>1970-01-01T01:34:24.000Z</time>
      </trkpt>
      <trkpt lat="42.245396" lon="2.387965">
        <ele>692</ele>
        <time>1970-01-01T01:34:25.000Z</time>
      </trkpt>
      <trkpt lat="42.245423" lon="2.387956">
        <ele>692</ele>
        <time>1970-01-01T01:34:26.000Z</time>
      </trkpt>
      <trkpt lat="42.245451" lon="2.387946">
        <ele>692</ele>
        <time>1970-01-01T01:34:27.000Z</time>
      </trkpt>
      <trkpt lat="42.245478" lon="2.387937">
        <ele>692</ele>
        <time>1970-01-01T01:34:28.000Z</time>
      </trkpt>
      <trkpt lat="42.245505" lon="2.387927">
        <ele>692</ele>
        <time>1970-01-01T01:34:29.000Z</time>
      </trkpt>
      <trkpt lat="42.245533" lon="2.387918">
        <ele>692</ele>
        <time>1970-01-01T01:34:30.000Z</time>
      </trkpt>
      <trkpt lat="42.24556" lon="2.387908">
        <ele>692</ele>
        <time>1970-01-01T01:34:31.000Z</time>
      </trkpt>
      <trkpt lat="42.245588" lon="2.387899">
        <ele>692</ele>
        <time>1970-01-01T01:34:32.000Z</time>
      </trkpt>
      <trkpt lat="42.245615" lon="2.387889">
        <ele>692</ele>
        <time>1970-01-01T01:34:33.000Z</time>
      </trkpt>
      <trkpt lat="42.24567" lon="2.387886">
        <ele>692</ele>
        <time>1970-01-01T01:34:34.000Z</time>
      </trkpt>
      <trkpt lat="42.245693" lon="2.387885">
        <ele>692</ele>
        <time>1970-01-01T01:34:35.000Z</time>
      </trkpt>
      <trkpt lat="42.245717" lon="2.387884">
        <ele>692</ele>
        <time>1970-01-01T01:34:36.000Z</time>
      </trkpt>
      <trkpt lat="42.24574" lon="2.387883">
        <ele>692</ele>
        <time>1970-01-01T01:34:37.000Z</time>
      </trkpt>
      <trkpt lat="42.245763" lon="2.387883">
        <ele>692</ele>
        <time>1970-01-01T01:34:38.000Z</time>
      </trkpt>
      <trkpt lat="42.245786" lon="2.387882">
        <ele>692</ele>
        <time>1970-01-01T01:34:39.000Z</time>
      </trkpt>
      <trkpt lat="42.245809" lon="2.387881">
        <ele>692</ele>
        <time>1970-01-01T01:34:40.000Z</time>
      </trkpt>
      <trkpt lat="42.245833" lon="2.38788">
        <ele>692</ele>
        <time>1970-01-01T01:34:41.000Z</time>
      </trkpt>
      <trkpt lat="42.245856" lon="2.387879">
        <ele>692</ele>
        <time>1970-01-01T01:34:42.000Z</time>
      </trkpt>
      <trkpt lat="42.245879" lon="2.387878">
        <ele>693</ele>
        <time>1970-01-01T01:34:43.000Z</time>
      </trkpt>
      <trkpt lat="42.245923" lon="2.387881">
        <ele>693</ele>
        <time>1970-01-01T01:34:44.000Z</time>
      </trkpt>
      <trkpt lat="42.245944" lon="2.387883">
        <ele>693</ele>
        <time>1970-01-01T01:34:45.000Z</time>
      </trkpt>
      <trkpt lat="42.245966" lon="2.387884">
        <ele>693</ele>
        <time>1970-01-01T01:34:46.000Z</time>
      </trkpt>
      <trkpt lat="42.245987" lon="2.387886">
        <ele>693</ele>
        <time>1970-01-01T01:34:47.000Z</time>
      </trkpt>
      <trkpt lat="42.246009" lon="2.387888">
        <ele>693</ele>
        <time>1970-01-01T01:34:48.000Z</time>
      </trkpt>
      <trkpt lat="42.24603" lon="2.38789">
        <ele>693</ele>
        <time>1970-01-01T01:34:49.000Z</time>
      </trkpt>
      <trkpt lat="42.246052" lon="2.387892">
        <ele>693</ele>
        <time>1970-01-01T01:34:50.000Z</time>
      </trkpt>
      <trkpt lat="42.246073" lon="2.387893">
        <ele>693</ele>
        <time>1970-01-01T01:34:51.000Z</time>
      </trkpt>
      <trkpt lat="42.246095" lon="2.387895">
        <ele>693</ele>
        <time>1970-01-01T01:34:52.000Z</time>
      </trkpt>
      <trkpt lat="42.246116" lon="2.387897">
        <ele>694</ele>
        <time>1970-01-01T01:34:53.000Z</time>
      </trkpt>
      <trkpt lat="42.246158" lon="2.3879">
        <ele>694</ele>
        <time>1970-01-01T01:34:54.000Z</time>
      </trkpt>
      <trkpt lat="42.246179" lon="2.387902">
        <ele>694</ele>
        <time>1970-01-01T01:34:55.000Z</time>
      </trkpt>
      <trkpt lat="42.246199" lon="2.387903">
        <ele>694</ele>
        <time>1970-01-01T01:34:56.000Z</time>
      </trkpt>
      <trkpt lat="42.246219" lon="2.387905">
        <ele>694</ele>
        <time>1970-01-01T01:34:57.000Z</time>
      </trkpt>
      <trkpt lat="42.24624" lon="2.387907">
        <ele>694</ele>
        <time>1970-01-01T01:34:58.000Z</time>
      </trkpt>
      <trkpt lat="42.24626" lon="2.387909">
        <ele>694</ele>
        <time>1970-01-01T01:34:59.000Z</time>
      </trkpt>
      <trkpt lat="42.24628" lon="2.387911">
        <ele>694</ele>
        <time>1970-01-01T01:35:00.000Z</time>
      </trkpt>
      <trkpt lat="42.2463" lon="2.387912">
        <ele>694</ele>
        <time>1970-01-01T01:35:01.000Z</time>
      </trkpt>
      <trkpt lat="42.246321" lon="2.387914">
        <ele>694</ele>
        <time>1970-01-01T01:35:02.000Z</time>
      </trkpt>
      <trkpt lat="42.246341" lon="2.387916">
        <ele>695</ele>
        <time>1970-01-01T01:35:03.000Z</time>
      </trkpt>
      <trkpt lat="42.246385" lon="2.387916">
        <ele>695</ele>
        <time>1970-01-01T01:35:04.000Z</time>
      </trkpt>
      <trkpt lat="42.246405" lon="2.387915">
        <ele>695</ele>
        <time>1970-01-01T01:35:05.000Z</time>
      </trkpt>
      <trkpt lat="42.246425" lon="2.387914">
        <ele>695</ele>
        <time>1970-01-01T01:35:06.000Z</time>
      </trkpt>
      <trkpt lat="42.246445" lon="2.387913">
        <ele>695</ele>
        <time>1970-01-01T01:35:07.000Z</time>
      </trkpt>
      <trkpt lat="42.246465" lon="2.387913">
        <ele>695</ele>
        <time>1970-01-01T01:35:08.000Z</time>
      </trkpt>
      <trkpt lat="42.246484" lon="2.387912">
        <ele>695</ele>
        <time>1970-01-01T01:35:09.000Z</time>
      </trkpt>
      <trkpt lat="42.246504" lon="2.387911">
        <ele>695</ele>
        <time>1970-01-01T01:35:10.000Z</time>
      </trkpt>
      <trkpt lat="42.246524" lon="2.38791">
        <ele>695</ele>
        <time>1970-01-01T01:35:11.000Z</time>
      </trkpt>
      <trkpt lat="42.246544" lon="2.387909">
        <ele>695</ele>
        <time>1970-01-01T01:35:12.000Z</time>
      </trkpt>
      <trkpt lat="42.246564" lon="2.387908">
        <ele>696</ele>
        <time>1970-01-01T01:35:13.000Z</time>
      </trkpt>
      <trkpt lat="42.246606" lon="2.387915">
        <ele>696</ele>
        <time>1970-01-01T01:35:14.000Z</time>
      </trkpt>
      <trkpt lat="42.246624" lon="2.387919">
        <ele>696</ele>
        <time>1970-01-01T01:35:15.000Z</time>
      </trkpt>
      <trkpt lat="42.246643" lon="2.387922">
        <ele>696</ele>
        <time>1970-01-01T01:35:16.000Z</time>
      </trkpt>
      <trkpt lat="42.246662" lon="2.387926">
        <ele>696</ele>
        <time>1970-01-01T01:35:17.000Z</time>
      </trkpt>
      <trkpt lat="42.246681" lon="2.38793">
        <ele>696</ele>
        <time>1970-01-01T01:35:18.000Z</time>
      </trkpt>
      <trkpt lat="42.246699" lon="2.387934">
        <ele>696</ele>
        <time>1970-01-01T01:35:19.000Z</time>
      </trkpt>
      <trkpt lat="42.246718" lon="2.387938">
        <ele>696</ele>
        <time>1970-01-01T01:35:20.000Z</time>
      </trkpt>
      <trkpt lat="42.246737" lon="2.387941">
        <ele>696</ele>
        <time>1970-01-01T01:35:21.000Z</time>
      </trkpt>
      <trkpt lat="42.246755" lon="2.387945">
        <ele>696</ele>
        <time>1970-01-01T01:35:22.000Z</time>
      </trkpt>
      <trkpt lat="42.246774" lon="2.387949">
        <ele>698</ele>
        <time>1970-01-01T01:35:23.000Z</time>
      </trkpt>
      <trkpt lat="42.24681" lon="2.38796">
        <ele>698</ele>
        <time>1970-01-01T01:35:24.000Z</time>
      </trkpt>
      <trkpt lat="42.246826" lon="2.387966">
        <ele>698</ele>
        <time>1970-01-01T01:35:25.000Z</time>
      </trkpt>
      <trkpt lat="42.246842" lon="2.387973">
        <ele>698</ele>
        <time>1970-01-01T01:35:26.000Z</time>
      </trkpt>
      <trkpt lat="42.246858" lon="2.387979">
        <ele>698</ele>
        <time>1970-01-01T01:35:27.000Z</time>
      </trkpt>
      <trkpt lat="42.246875" lon="2.387985">
        <ele>698</ele>
        <time>1970-01-01T01:35:28.000Z</time>
      </trkpt>
      <trkpt lat="42.246891" lon="2.387991">
        <ele>698</ele>
        <time>1970-01-01T01:35:29.000Z</time>
      </trkpt>
      <trkpt lat="42.246907" lon="2.387997">
        <ele>698</ele>
        <time>1970-01-01T01:35:30.000Z</time>
      </trkpt>
      <trkpt lat="42.246923" lon="2.388004">
        <ele>698</ele>
        <time>1970-01-01T01:35:31.000Z</time>
      </trkpt>
      <trkpt lat="42.246939" lon="2.38801">
        <ele>698</ele>
        <time>1970-01-01T01:35:32.000Z</time>
      </trkpt>
      <trkpt lat="42.246955" lon="2.388016">
        <ele>700</ele>
        <time>1970-01-01T01:35:33.000Z</time>
      </trkpt>
      <trkpt lat="42.246992" lon="2.388026">
        <ele>700</ele>
        <time>1970-01-01T01:35:34.000Z</time>
      </trkpt>
      <trkpt lat="42.24701" lon="2.388031">
        <ele>700</ele>
        <time>1970-01-01T01:35:35.000Z</time>
      </trkpt>
      <trkpt lat="42.247029" lon="2.388035">
        <ele>700</ele>
        <time>1970-01-01T01:35:36.000Z</time>
      </trkpt>
      <trkpt lat="42.247047" lon="2.38804">
        <ele>700</ele>
        <time>1970-01-01T01:35:37.000Z</time>
      </trkpt>
      <trkpt lat="42.247066" lon="2.388044">
        <ele>700</ele>
        <time>1970-01-01T01:35:38.000Z</time>
      </trkpt>
      <trkpt lat="42.247084" lon="2.388049">
        <ele>700</ele>
        <time>1970-01-01T01:35:40.000Z</time>
      </trkpt>
      <trkpt lat="42.247103" lon="2.388053">
        <ele>700</ele>
        <time>1970-01-01T01:35:41.000Z</time>
      </trkpt>
      <trkpt lat="42.247121" lon="2.388058">
        <ele>700</ele>
        <time>1970-01-01T01:35:42.000Z</time>
      </trkpt>
      <trkpt lat="42.24714" lon="2.388062">
        <ele>701</ele>
        <time>1970-01-01T01:35:43.000Z</time>
      </trkpt>
      <trkpt lat="42.247174" lon="2.388082">
        <ele>701</ele>
        <time>1970-01-01T01:35:44.000Z</time>
      </trkpt>
      <trkpt lat="42.247187" lon="2.388097">
        <ele>701</ele>
        <time>1970-01-01T01:35:45.000Z</time>
      </trkpt>
      <trkpt lat="42.247201" lon="2.388111">
        <ele>701</ele>
        <time>1970-01-01T01:35:46.000Z</time>
      </trkpt>
      <trkpt lat="42.247214" lon="2.388126">
        <ele>701</ele>
        <time>1970-01-01T01:35:47.000Z</time>
      </trkpt>
      <trkpt lat="42.247228" lon="2.388141">
        <ele>701</ele>
        <time>1970-01-01T01:35:48.000Z</time>
      </trkpt>
      <trkpt lat="42.247241" lon="2.388156">
        <ele>701</ele>
        <time>1970-01-01T01:35:49.000Z</time>
      </trkpt>
      <trkpt lat="42.247255" lon="2.388171">
        <ele>701</ele>
        <time>1970-01-01T01:35:50.000Z</time>
      </trkpt>
      <trkpt lat="42.247268" lon="2.388185">
        <ele>701</ele>
        <time>1970-01-01T01:35:51.000Z</time>
      </trkpt>
      <trkpt lat="42.247282" lon="2.3882">
        <ele>701</ele>
        <time>1970-01-01T01:35:52.000Z</time>
      </trkpt>
      <trkpt lat="42.247295" lon="2.388215">
        <ele>703</ele>
        <time>1970-01-01T01:35:53.000Z</time>
      </trkpt>
      <trkpt lat="42.247299" lon="2.388262">
        <ele>703</ele>
        <time>1970-01-01T01:35:54.000Z</time>
      </trkpt>
      <trkpt lat="42.247295" lon="2.388286">
        <ele>703</ele>
        <time>1970-01-01T01:35:55.000Z</time>
      </trkpt>
      <trkpt lat="42.247291" lon="2.388309">
        <ele>703</ele>
        <time>1970-01-01T01:35:56.000Z</time>
      </trkpt>
      <trkpt lat="42.247287" lon="2.388333">
        <ele>703</ele>
        <time>1970-01-01T01:35:57.000Z</time>
      </trkpt>
      <trkpt lat="42.247284" lon="2.388356">
        <ele>703</ele>
        <time>1970-01-01T01:35:58.000Z</time>
      </trkpt>
      <trkpt lat="42.24728" lon="2.388379">
        <ele>703</ele>
        <time>1970-01-01T01:35:59.000Z</time>
      </trkpt>
      <trkpt lat="42.247276" lon="2.388403">
        <ele>703</ele>
        <time>1970-01-01T01:36:00.000Z</time>
      </trkpt>
      <trkpt lat="42.247272" lon="2.388426">
        <ele>703</ele>
        <time>1970-01-01T01:36:01.000Z</time>
      </trkpt>
      <trkpt lat="42.247268" lon="2.38845">
        <ele>703</ele>
        <time>1970-01-01T01:36:02.000Z</time>
      </trkpt>
      <trkpt lat="42.247264" lon="2.388473">
        <ele>704</ele>
        <time>1970-01-01T01:36:03.000Z</time>
      </trkpt>
      <trkpt lat="42.247247" lon="2.388521">
        <ele>704</ele>
        <time>1970-01-01T01:36:04.000Z</time>
      </trkpt>
      <trkpt lat="42.247238" lon="2.388544">
        <ele>704</ele>
        <time>1970-01-01T01:36:05.000Z</time>
      </trkpt>
      <trkpt lat="42.24723" lon="2.388568">
        <ele>704</ele>
        <time>1970-01-01T01:36:06.000Z</time>
      </trkpt>
      <trkpt lat="42.247221" lon="2.388591">
        <ele>704</ele>
        <time>1970-01-01T01:36:07.000Z</time>
      </trkpt>
      <trkpt lat="42.247212" lon="2.388614">
        <ele>704</ele>
        <time>1970-01-01T01:36:08.000Z</time>
      </trkpt>
      <trkpt lat="42.247203" lon="2.388637">
        <ele>704</ele>
        <time>1970-01-01T01:36:09.000Z</time>
      </trkpt>
      <trkpt lat="42.247194" lon="2.38866">
        <ele>704</ele>
        <time>1970-01-01T01:36:10.000Z</time>
      </trkpt>
      <trkpt lat="42.247186" lon="2.388684">
        <ele>704</ele>
        <time>1970-01-01T01:36:11.000Z</time>
      </trkpt>
      <trkpt lat="42.247177" lon="2.388707">
        <ele>704</ele>
        <time>1970-01-01T01:36:12.000Z</time>
      </trkpt>
      <trkpt lat="42.247168" lon="2.38873">
        <ele>706</ele>
        <time>1970-01-01T01:36:13.000Z</time>
      </trkpt>
      <trkpt lat="42.247151" lon="2.38878">
        <ele>706</ele>
        <time>1970-01-01T01:36:14.000Z</time>
      </trkpt>
      <trkpt lat="42.247143" lon="2.388804">
        <ele>706</ele>
        <time>1970-01-01T01:36:15.000Z</time>
      </trkpt>
      <trkpt lat="42.247136" lon="2.388827">
        <ele>706</ele>
        <time>1970-01-01T01:36:16.000Z</time>
      </trkpt>
      <trkpt lat="42.247128" lon="2.388851">
        <ele>706</ele>
        <time>1970-01-01T01:36:17.000Z</time>
      </trkpt>
      <trkpt lat="42.247121" lon="2.388875">
        <ele>706</ele>
        <time>1970-01-01T01:36:18.000Z</time>
      </trkpt>
      <trkpt lat="42.247113" lon="2.388899">
        <ele>706</ele>
        <time>1970-01-01T01:36:19.000Z</time>
      </trkpt>
      <trkpt lat="42.247106" lon="2.388923">
        <ele>706</ele>
        <time>1970-01-01T01:36:20.000Z</time>
      </trkpt>
      <trkpt lat="42.247098" lon="2.388946">
        <ele>706</ele>
        <time>1970-01-01T01:36:21.000Z</time>
      </trkpt>
      <trkpt lat="42.247091" lon="2.38897">
        <ele>706</ele>
        <time>1970-01-01T01:36:22.000Z</time>
      </trkpt>
      <trkpt lat="42.247083" lon="2.388994">
        <ele>708</ele>
        <time>1970-01-01T01:36:23.000Z</time>
      </trkpt>
      <trkpt lat="42.247068" lon="2.389046">
        <ele>708</ele>
        <time>1970-01-01T01:36:24.000Z</time>
      </trkpt>
      <trkpt lat="42.24706" lon="2.389071">
        <ele>708</ele>
        <time>1970-01-01T01:36:25.000Z</time>
      </trkpt>
      <trkpt lat="42.247053" lon="2.389095">
        <ele>708</ele>
        <time>1970-01-01T01:36:26.000Z</time>
      </trkpt>
      <trkpt lat="42.247045" lon="2.389119">
        <ele>708</ele>
        <time>1970-01-01T01:36:27.000Z</time>
      </trkpt>
      <trkpt lat="42.247037" lon="2.389144">
        <ele>708</ele>
        <time>1970-01-01T01:36:28.000Z</time>
      </trkpt>
      <trkpt lat="42.247029" lon="2.389168">
        <ele>708</ele>
        <time>1970-01-01T01:36:29.000Z</time>
      </trkpt>
      <trkpt lat="42.247021" lon="2.389192">
        <ele>708</ele>
        <time>1970-01-01T01:36:30.000Z</time>
      </trkpt>
      <trkpt lat="42.247014" lon="2.389216">
        <ele>708</ele>
        <time>1970-01-01T01:36:31.000Z</time>
      </trkpt>
      <trkpt lat="42.247006" lon="2.389241">
        <ele>708</ele>
        <time>1970-01-01T01:36:32.000Z</time>
      </trkpt>
      <trkpt lat="42.246998" lon="2.389265">
        <ele>709</ele>
        <time>1970-01-01T01:36:33.000Z</time>
      </trkpt>
      <trkpt lat="42.246973" lon="2.389312">
        <ele>709</ele>
        <time>1970-01-01T01:36:34.000Z</time>
      </trkpt>
      <trkpt lat="42.246961" lon="2.389333">
        <ele>709</ele>
        <time>1970-01-01T01:36:35.000Z</time>
      </trkpt>
      <trkpt lat="42.246948" lon="2.389355">
        <ele>709</ele>
        <time>1970-01-01T01:36:36.000Z</time>
      </trkpt>
      <trkpt lat="42.246936" lon="2.389376">
        <ele>709</ele>
        <time>1970-01-01T01:36:37.000Z</time>
      </trkpt>
      <trkpt lat="42.246923" lon="2.389398">
        <ele>709</ele>
        <time>1970-01-01T01:36:38.000Z</time>
      </trkpt>
      <trkpt lat="42.24691" lon="2.38942">
        <ele>709</ele>
        <time>1970-01-01T01:36:39.000Z</time>
      </trkpt>
      <trkpt lat="42.246898" lon="2.389441">
        <ele>709</ele>
        <time>1970-01-01T01:36:40.000Z</time>
      </trkpt>
      <trkpt lat="42.246885" lon="2.389463">
        <ele>709</ele>
        <time>1970-01-01T01:36:41.000Z</time>
      </trkpt>
      <trkpt lat="42.246873" lon="2.389484">
        <ele>709</ele>
        <time>1970-01-01T01:36:42.000Z</time>
      </trkpt>
      <trkpt lat="42.24686" lon="2.389506">
        <ele>710</ele>
        <time>1970-01-01T01:36:43.000Z</time>
      </trkpt>
      <trkpt lat="42.246831" lon="2.389549">
        <ele>710</ele>
        <time>1970-01-01T01:36:44.000Z</time>
      </trkpt>
      <trkpt lat="42.246818" lon="2.38957">
        <ele>710</ele>
        <time>1970-01-01T01:36:45.000Z</time>
      </trkpt>
      <trkpt lat="42.246805" lon="2.389592">
        <ele>710</ele>
        <time>1970-01-01T01:36:46.000Z</time>
      </trkpt>
      <trkpt lat="42.246792" lon="2.389613">
        <ele>710</ele>
        <time>1970-01-01T01:36:47.000Z</time>
      </trkpt>
      <trkpt lat="42.246779" lon="2.389635">
        <ele>710</ele>
        <time>1970-01-01T01:36:48.000Z</time>
      </trkpt>
      <trkpt lat="42.246765" lon="2.389657">
        <ele>710</ele>
        <time>1970-01-01T01:36:49.000Z</time>
      </trkpt>
      <trkpt lat="42.246752" lon="2.389678">
        <ele>710</ele>
        <time>1970-01-01T01:36:50.000Z</time>
      </trkpt>
      <trkpt lat="42.246739" lon="2.3897">
        <ele>710</ele>
        <time>1970-01-01T01:36:51.000Z</time>
      </trkpt>
      <trkpt lat="42.246726" lon="2.389721">
        <ele>710</ele>
        <time>1970-01-01T01:36:52.000Z</time>
      </trkpt>
      <trkpt lat="42.246713" lon="2.389743">
        <ele>710</ele>
        <time>1970-01-01T01:36:53.000Z</time>
      </trkpt>
      <trkpt lat="42.246689" lon="2.389794">
        <ele>710</ele>
        <time>1970-01-01T01:36:54.000Z</time>
      </trkpt>
      <trkpt lat="42.246678" lon="2.389818">
        <ele>710</ele>
        <time>1970-01-01T01:36:55.000Z</time>
      </trkpt>
      <trkpt lat="42.246667" lon="2.389841">
        <ele>710</ele>
        <time>1970-01-01T01:36:56.000Z</time>
      </trkpt>
      <trkpt lat="42.246656" lon="2.389865">
        <ele>710</ele>
        <time>1970-01-01T01:36:57.000Z</time>
      </trkpt>
      <trkpt lat="42.246645" lon="2.389889">
        <ele>710</ele>
        <time>1970-01-01T01:36:58.000Z</time>
      </trkpt>
      <trkpt lat="42.246634" lon="2.389913">
        <ele>710</ele>
        <time>1970-01-01T01:36:59.000Z</time>
      </trkpt>
      <trkpt lat="42.246623" lon="2.389937">
        <ele>710</ele>
        <time>1970-01-01T01:37:00.000Z</time>
      </trkpt>
      <trkpt lat="42.246612" lon="2.38996">
        <ele>710</ele>
        <time>1970-01-01T01:37:01.000Z</time>
      </trkpt>
      <trkpt lat="42.246601" lon="2.389984">
        <ele>710</ele>
        <time>1970-01-01T01:37:02.000Z</time>
      </trkpt>
      <trkpt lat="42.24659" lon="2.390008">
        <ele>712</ele>
        <time>1970-01-01T01:37:03.000Z</time>
      </trkpt>
      <trkpt lat="42.246561" lon="2.39005">
        <ele>712</ele>
        <time>1970-01-01T01:37:04.000Z</time>
      </trkpt>
      <trkpt lat="42.246546" lon="2.390068">
        <ele>712</ele>
        <time>1970-01-01T01:37:05.000Z</time>
      </trkpt>
      <trkpt lat="42.246531" lon="2.390085">
        <ele>712</ele>
        <time>1970-01-01T01:37:06.000Z</time>
      </trkpt>
      <trkpt lat="42.246516" lon="2.390103">
        <ele>712</ele>
        <time>1970-01-01T01:37:07.000Z</time>
      </trkpt>
      <trkpt lat="42.246501" lon="2.39012">
        <ele>712</ele>
        <time>1970-01-01T01:37:08.000Z</time>
      </trkpt>
      <trkpt lat="42.246485" lon="2.390137">
        <ele>712</ele>
        <time>1970-01-01T01:37:09.000Z</time>
      </trkpt>
      <trkpt lat="42.24647" lon="2.390155">
        <ele>712</ele>
        <time>1970-01-01T01:37:10.000Z</time>
      </trkpt>
      <trkpt lat="42.246455" lon="2.390172">
        <ele>712</ele>
        <time>1970-01-01T01:37:11.000Z</time>
      </trkpt>
      <trkpt lat="42.24644" lon="2.39019">
        <ele>712</ele>
        <time>1970-01-01T01:37:12.000Z</time>
      </trkpt>
      <trkpt lat="42.246425" lon="2.390207">
        <ele>713</ele>
        <time>1970-01-01T01:37:13.000Z</time>
      </trkpt>
      <trkpt lat="42.246391" lon="2.390244">
        <ele>713</ele>
        <time>1970-01-01T01:37:14.000Z</time>
      </trkpt>
      <trkpt lat="42.246374" lon="2.39026">
        <ele>713</ele>
        <time>1970-01-01T01:37:15.000Z</time>
      </trkpt>
      <trkpt lat="42.246358" lon="2.390276">
        <ele>713</ele>
        <time>1970-01-01T01:37:16.000Z</time>
      </trkpt>
      <trkpt lat="42.246341" lon="2.390292">
        <ele>713</ele>
        <time>1970-01-01T01:37:17.000Z</time>
      </trkpt>
      <trkpt lat="42.246324" lon="2.390308">
        <ele>713</ele>
        <time>1970-01-01T01:37:18.000Z</time>
      </trkpt>
      <trkpt lat="42.246307" lon="2.390323">
        <ele>713</ele>
        <time>1970-01-01T01:37:19.000Z</time>
      </trkpt>
      <trkpt lat="42.24629" lon="2.390339">
        <ele>713</ele>
        <time>1970-01-01T01:37:20.000Z</time>
      </trkpt>
      <trkpt lat="42.246274" lon="2.390355">
        <ele>713</ele>
        <time>1970-01-01T01:37:21.000Z</time>
      </trkpt>
      <trkpt lat="42.246257" lon="2.390371">
        <ele>713</ele>
        <time>1970-01-01T01:37:22.000Z</time>
      </trkpt>
      <trkpt lat="42.24624" lon="2.390387">
        <ele>714</ele>
        <time>1970-01-01T01:37:23.000Z</time>
      </trkpt>
      <trkpt lat="42.246207" lon="2.390421">
        <ele>714</ele>
        <time>1970-01-01T01:37:24.000Z</time>
      </trkpt>
      <trkpt lat="42.246193" lon="2.390439">
        <ele>714</ele>
        <time>1970-01-01T01:37:25.000Z</time>
      </trkpt>
      <trkpt lat="42.246178" lon="2.390458">
        <ele>714</ele>
        <time>1970-01-01T01:37:26.000Z</time>
      </trkpt>
      <trkpt lat="42.246164" lon="2.390476">
        <ele>714</ele>
        <time>1970-01-01T01:37:27.000Z</time>
      </trkpt>
      <trkpt lat="42.246149" lon="2.390494">
        <ele>714</ele>
        <time>1970-01-01T01:37:28.000Z</time>
      </trkpt>
      <trkpt lat="42.246134" lon="2.390512">
        <ele>714</ele>
        <time>1970-01-01T01:37:29.000Z</time>
      </trkpt>
      <trkpt lat="42.24612" lon="2.39053">
        <ele>714</ele>
        <time>1970-01-01T01:37:30.000Z</time>
      </trkpt>
      <trkpt lat="42.246105" lon="2.390549">
        <ele>714</ele>
        <time>1970-01-01T01:37:31.000Z</time>
      </trkpt>
      <trkpt lat="42.246091" lon="2.390567">
        <ele>714</ele>
        <time>1970-01-01T01:37:32.000Z</time>
      </trkpt>
      <trkpt lat="42.246076" lon="2.390585">
        <ele>715</ele>
        <time>1970-01-01T01:37:33.000Z</time>
      </trkpt>
      <trkpt lat="42.246051" lon="2.390631">
        <ele>715</ele>
        <time>1970-01-01T01:37:34.000Z</time>
      </trkpt>
      <trkpt lat="42.24604" lon="2.390654">
        <ele>715</ele>
        <time>1970-01-01T01:37:35.000Z</time>
      </trkpt>
      <trkpt lat="42.24603" lon="2.390678">
        <ele>715</ele>
        <time>1970-01-01T01:37:36.000Z</time>
      </trkpt>
      <trkpt lat="42.246019" lon="2.390701">
        <ele>715</ele>
        <time>1970-01-01T01:37:37.000Z</time>
      </trkpt>
      <trkpt lat="42.246008" lon="2.390724">
        <ele>715</ele>
        <time>1970-01-01T01:37:38.000Z</time>
      </trkpt>
      <trkpt lat="42.245997" lon="2.390747">
        <ele>715</ele>
        <time>1970-01-01T01:37:39.000Z</time>
      </trkpt>
      <trkpt lat="42.245986" lon="2.39077">
        <ele>715</ele>
        <time>1970-01-01T01:37:40.000Z</time>
      </trkpt>
      <trkpt lat="42.245976" lon="2.390794">
        <ele>715</ele>
        <time>1970-01-01T01:37:41.000Z</time>
      </trkpt>
      <trkpt lat="42.245965" lon="2.390817">
        <ele>715</ele>
        <time>1970-01-01T01:37:42.000Z</time>
      </trkpt>
      <trkpt lat="42.245954" lon="2.39084">
        <ele>717</ele>
        <time>1970-01-01T01:37:43.000Z</time>
      </trkpt>
      <trkpt lat="42.245931" lon="2.390887">
        <ele>717</ele>
        <time>1970-01-01T01:37:44.000Z</time>
      </trkpt>
      <trkpt lat="42.245919" lon="2.390908">
        <ele>717</ele>
        <time>1970-01-01T01:37:45.000Z</time>
      </trkpt>
      <trkpt lat="42.245907" lon="2.39093">
        <ele>717</ele>
        <time>1970-01-01T01:37:46.000Z</time>
      </trkpt>
      <trkpt lat="42.245895" lon="2.390951">
        <ele>717</ele>
        <time>1970-01-01T01:37:47.000Z</time>
      </trkpt>
      <trkpt lat="42.245883" lon="2.390973">
        <ele>717</ele>
        <time>1970-01-01T01:37:48.000Z</time>
      </trkpt>
      <trkpt lat="42.245871" lon="2.390994">
        <ele>717</ele>
        <time>1970-01-01T01:37:49.000Z</time>
      </trkpt>
      <trkpt lat="42.245859" lon="2.391016">
        <ele>717</ele>
        <time>1970-01-01T01:37:50.000Z</time>
      </trkpt>
      <trkpt lat="42.245847" lon="2.391037">
        <ele>717</ele>
        <time>1970-01-01T01:37:51.000Z</time>
      </trkpt>
      <trkpt lat="42.245835" lon="2.391059">
        <ele>717</ele>
        <time>1970-01-01T01:37:52.000Z</time>
      </trkpt>
      <trkpt lat="42.245823" lon="2.39108">
        <ele>718</ele>
        <time>1970-01-01T01:37:53.000Z</time>
      </trkpt>
      <trkpt lat="42.245794" lon="2.391122">
        <ele>718</ele>
        <time>1970-01-01T01:37:54.000Z</time>
      </trkpt>
      <trkpt lat="42.245781" lon="2.391141">
        <ele>718</ele>
        <time>1970-01-01T01:37:55.000Z</time>
      </trkpt>
      <trkpt lat="42.245769" lon="2.391161">
        <ele>718</ele>
        <time>1970-01-01T01:37:56.000Z</time>
      </trkpt>
      <trkpt lat="42.245757" lon="2.39118">
        <ele>718</ele>
        <time>1970-01-01T01:37:57.000Z</time>
      </trkpt>
      <trkpt lat="42.245745" lon="2.3912">
        <ele>718</ele>
        <time>1970-01-01T01:37:58.000Z</time>
      </trkpt>
      <trkpt lat="42.245732" lon="2.39122">
        <ele>718</ele>
        <time>1970-01-01T01:37:59.000Z</time>
      </trkpt>
      <trkpt lat="42.24572" lon="2.391239">
        <ele>718</ele>
        <time>1970-01-01T01:38:00.000Z</time>
      </trkpt>
      <trkpt lat="42.245708" lon="2.391259">
        <ele>718</ele>
        <time>1970-01-01T01:38:01.000Z</time>
      </trkpt>
      <trkpt lat="42.245695" lon="2.391278">
        <ele>718</ele>
        <time>1970-01-01T01:38:02.000Z</time>
      </trkpt>
      <trkpt lat="42.245683" lon="2.391298">
        <ele>720</ele>
        <time>1970-01-01T01:38:03.000Z</time>
      </trkpt>
      <trkpt lat="42.245659" lon="2.391341">
        <ele>720</ele>
        <time>1970-01-01T01:38:04.000Z</time>
      </trkpt>
      <trkpt lat="42.245647" lon="2.391362">
        <ele>720</ele>
        <time>1970-01-01T01:38:05.000Z</time>
      </trkpt>
      <trkpt lat="42.245636" lon="2.391384">
        <ele>720</ele>
        <time>1970-01-01T01:38:06.000Z</time>
      </trkpt>
      <trkpt lat="42.245624" lon="2.391405">
        <ele>720</ele>
        <time>1970-01-01T01:38:07.000Z</time>
      </trkpt>
      <trkpt lat="42.245613" lon="2.391426">
        <ele>720</ele>
        <time>1970-01-01T01:38:08.000Z</time>
      </trkpt>
      <trkpt lat="42.245602" lon="2.391447">
        <ele>720</ele>
        <time>1970-01-01T01:38:09.000Z</time>
      </trkpt>
      <trkpt lat="42.24559" lon="2.391468">
        <ele>720</ele>
        <time>1970-01-01T01:38:10.000Z</time>
      </trkpt>
      <trkpt lat="42.245579" lon="2.39149">
        <ele>720</ele>
        <time>1970-01-01T01:38:11.000Z</time>
      </trkpt>
      <trkpt lat="42.245567" lon="2.391511">
        <ele>720</ele>
        <time>1970-01-01T01:38:12.000Z</time>
      </trkpt>
      <trkpt lat="42.245556" lon="2.391532">
        <ele>722</ele>
        <time>1970-01-01T01:38:13.000Z</time>
      </trkpt>
      <trkpt lat="42.245552" lon="2.391586">
        <ele>722</ele>
        <time>1970-01-01T01:38:14.000Z</time>
      </trkpt>
      <trkpt lat="42.245555" lon="2.39161">
        <ele>722</ele>
        <time>1970-01-01T01:38:15.000Z</time>
      </trkpt>
      <trkpt lat="42.245559" lon="2.391635">
        <ele>722</ele>
        <time>1970-01-01T01:38:16.000Z</time>
      </trkpt>
      <trkpt lat="42.245563" lon="2.39166">
        <ele>722</ele>
        <time>1970-01-01T01:38:17.000Z</time>
      </trkpt>
      <trkpt lat="42.245567" lon="2.391684">
        <ele>722</ele>
        <time>1970-01-01T01:38:18.000Z</time>
      </trkpt>
      <trkpt lat="42.24557" lon="2.391709">
        <ele>722</ele>
        <time>1970-01-01T01:38:19.000Z</time>
      </trkpt>
      <trkpt lat="42.245574" lon="2.391734">
        <ele>722</ele>
        <time>1970-01-01T01:38:20.000Z</time>
      </trkpt>
      <trkpt lat="42.245578" lon="2.391759">
        <ele>722</ele>
        <time>1970-01-01T01:38:21.000Z</time>
      </trkpt>
      <trkpt lat="42.245581" lon="2.391783">
        <ele>722</ele>
        <time>1970-01-01T01:38:22.000Z</time>
      </trkpt>
      <trkpt lat="42.245585" lon="2.391808">
        <ele>723</ele>
        <time>1970-01-01T01:38:23.000Z</time>
      </trkpt>
      <trkpt lat="42.245617" lon="2.39184">
        <ele>723</ele>
        <time>1970-01-01T01:38:24.000Z</time>
      </trkpt>
      <trkpt lat="42.245634" lon="2.391851">
        <ele>723</ele>
        <time>1970-01-01T01:38:25.000Z</time>
      </trkpt>
      <trkpt lat="42.245652" lon="2.391863">
        <ele>723</ele>
        <time>1970-01-01T01:38:26.000Z</time>
      </trkpt>
      <trkpt lat="42.245669" lon="2.391874">
        <ele>723</ele>
        <time>1970-01-01T01:38:27.000Z</time>
      </trkpt>
      <trkpt lat="42.245686" lon="2.391885">
        <ele>723</ele>
        <time>1970-01-01T01:38:28.000Z</time>
      </trkpt>
      <trkpt lat="42.245703" lon="2.391896">
        <ele>723</ele>
        <time>1970-01-01T01:38:29.000Z</time>
      </trkpt>
      <trkpt lat="42.24572" lon="2.391907">
        <ele>723</ele>
        <time>1970-01-01T01:38:30.000Z</time>
      </trkpt>
      <trkpt lat="42.245738" lon="2.391919">
        <ele>723</ele>
        <time>1970-01-01T01:38:31.000Z</time>
      </trkpt>
      <trkpt lat="42.245755" lon="2.39193">
        <ele>723</ele>
        <time>1970-01-01T01:38:32.000Z</time>
      </trkpt>
      <trkpt lat="42.245772" lon="2.391941">
        <ele>724</ele>
        <time>1970-01-01T01:38:33.000Z</time>
      </trkpt>
      <trkpt lat="42.245806" lon="2.39197">
        <ele>724</ele>
        <time>1970-01-01T01:38:34.000Z</time>
      </trkpt>
      <trkpt lat="42.245823" lon="2.391983">
        <ele>724</ele>
        <time>1970-01-01T01:38:35.000Z</time>
      </trkpt>
      <trkpt lat="42.245839" lon="2.391997">
        <ele>724</ele>
        <time>1970-01-01T01:38:36.000Z</time>
      </trkpt>
      <trkpt lat="42.245855" lon="2.39201">
        <ele>724</ele>
        <time>1970-01-01T01:38:37.000Z</time>
      </trkpt>
      <trkpt lat="42.245872" lon="2.392023">
        <ele>724</ele>
        <time>1970-01-01T01:38:38.000Z</time>
      </trkpt>
      <trkpt lat="42.245888" lon="2.392036">
        <ele>724</ele>
        <time>1970-01-01T01:38:39.000Z</time>
      </trkpt>
      <trkpt lat="42.245904" lon="2.392049">
        <ele>724</ele>
        <time>1970-01-01T01:38:40.000Z</time>
      </trkpt>
      <trkpt lat="42.24592" lon="2.392063">
        <ele>724</ele>
        <time>1970-01-01T01:38:41.000Z</time>
      </trkpt>
      <trkpt lat="42.245937" lon="2.392076">
        <ele>724</ele>
        <time>1970-01-01T01:38:42.000Z</time>
      </trkpt>
      <trkpt lat="42.245953" lon="2.392089">
        <ele>725</ele>
        <time>1970-01-01T01:38:43.000Z</time>
      </trkpt>
      <trkpt lat="42.245988" lon="2.392112">
        <ele>725</ele>
        <time>1970-01-01T01:38:44.000Z</time>
      </trkpt>
      <trkpt lat="42.246006" lon="2.392123">
        <ele>725</ele>
        <time>1970-01-01T01:38:45.000Z</time>
      </trkpt>
      <trkpt lat="42.246023" lon="2.392134">
        <ele>725</ele>
        <time>1970-01-01T01:38:46.000Z</time>
      </trkpt>
      <trkpt lat="42.24604" lon="2.392145">
        <ele>725</ele>
        <time>1970-01-01T01:38:47.000Z</time>
      </trkpt>
      <trkpt lat="42.246058" lon="2.392156">
        <ele>725</ele>
        <time>1970-01-01T01:38:48.000Z</time>
      </trkpt>
      <trkpt lat="42.246075" lon="2.392167">
        <ele>725</ele>
        <time>1970-01-01T01:38:49.000Z</time>
      </trkpt>
      <trkpt lat="42.246092" lon="2.392178">
        <ele>725</ele>
        <time>1970-01-01T01:38:50.000Z</time>
      </trkpt>
      <trkpt lat="42.246109" lon="2.392189">
        <ele>725</ele>
        <time>1970-01-01T01:38:51.000Z</time>
      </trkpt>
      <trkpt lat="42.246127" lon="2.3922">
        <ele>725</ele>
        <time>1970-01-01T01:38:52.000Z</time>
      </trkpt>
      <trkpt lat="42.246144" lon="2.392211">
        <ele>726</ele>
        <time>1970-01-01T01:38:53.000Z</time>
      </trkpt>
      <trkpt lat="42.24618" lon="2.392235">
        <ele>726</ele>
        <time>1970-01-01T01:38:54.000Z</time>
      </trkpt>
      <trkpt lat="42.246197" lon="2.392246">
        <ele>726</ele>
        <time>1970-01-01T01:38:55.000Z</time>
      </trkpt>
      <trkpt lat="42.246213" lon="2.392258">
        <ele>726</ele>
        <time>1970-01-01T01:38:56.000Z</time>
      </trkpt>
      <trkpt lat="42.246229" lon="2.392269">
        <ele>726</ele>
        <time>1970-01-01T01:38:57.000Z</time>
      </trkpt>
      <trkpt lat="42.246246" lon="2.392281">
        <ele>726</ele>
        <time>1970-01-01T01:38:58.000Z</time>
      </trkpt>
      <trkpt lat="42.246262" lon="2.392293">
        <ele>726</ele>
        <time>1970-01-01T01:38:59.000Z</time>
      </trkpt>
      <trkpt lat="42.246278" lon="2.392304">
        <ele>726</ele>
        <time>1970-01-01T01:39:00.000Z</time>
      </trkpt>
      <trkpt lat="42.246294" lon="2.392316">
        <ele>726</ele>
        <time>1970-01-01T01:39:01.000Z</time>
      </trkpt>
      <trkpt lat="42.246311" lon="2.392327">
        <ele>726</ele>
        <time>1970-01-01T01:39:02.000Z</time>
      </trkpt>
      <trkpt lat="42.246327" lon="2.392339">
        <ele>727</ele>
        <time>1970-01-01T01:39:03.000Z</time>
      </trkpt>
      <trkpt lat="42.246362" lon="2.392372">
        <ele>727</ele>
        <time>1970-01-01T01:39:04.000Z</time>
      </trkpt>
      <trkpt lat="42.246378" lon="2.392387">
        <ele>727</ele>
        <time>1970-01-01T01:39:05.000Z</time>
      </trkpt>
      <trkpt lat="42.246395" lon="2.392402">
        <ele>727</ele>
        <time>1970-01-01T01:39:06.000Z</time>
      </trkpt>
      <trkpt lat="42.246411" lon="2.392417">
        <ele>727</ele>
        <time>1970-01-01T01:39:07.000Z</time>
      </trkpt>
      <trkpt lat="42.246427" lon="2.392431">
        <ele>727</ele>
        <time>1970-01-01T01:39:08.000Z</time>
      </trkpt>
      <trkpt lat="42.246443" lon="2.392446">
        <ele>727</ele>
        <time>1970-01-01T01:39:09.000Z</time>
      </trkpt>
      <trkpt lat="42.246459" lon="2.392461">
        <ele>727</ele>
        <time>1970-01-01T01:39:10.000Z</time>
      </trkpt>
      <trkpt lat="42.246476" lon="2.392476">
        <ele>727</ele>
        <time>1970-01-01T01:39:11.000Z</time>
      </trkpt>
      <trkpt lat="42.246492" lon="2.392491">
        <ele>727</ele>
        <time>1970-01-01T01:39:12.000Z</time>
      </trkpt>
      <trkpt lat="42.246508" lon="2.392506">
        <ele>728</ele>
        <time>1970-01-01T01:39:13.000Z</time>
      </trkpt>
      <trkpt lat="42.246527" lon="2.392553">
        <ele>728</ele>
        <time>1970-01-01T01:39:14.000Z</time>
      </trkpt>
      <trkpt lat="42.246531" lon="2.392577">
        <ele>728</ele>
        <time>1970-01-01T01:39:15.000Z</time>
      </trkpt>
      <trkpt lat="42.246536" lon="2.3926">
        <ele>728</ele>
        <time>1970-01-01T01:39:16.000Z</time>
      </trkpt>
      <trkpt lat="42.246541" lon="2.392624">
        <ele>728</ele>
        <time>1970-01-01T01:39:17.000Z</time>
      </trkpt>
      <trkpt lat="42.246546" lon="2.392648">
        <ele>728</ele>
        <time>1970-01-01T01:39:18.000Z</time>
      </trkpt>
      <trkpt lat="42.24655" lon="2.392672">
        <ele>728</ele>
        <time>1970-01-01T01:39:19.000Z</time>
      </trkpt>
      <trkpt lat="42.246555" lon="2.392696">
        <ele>728</ele>
        <time>1970-01-01T01:39:20.000Z</time>
      </trkpt>
      <trkpt lat="42.24656" lon="2.392719">
        <ele>728</ele>
        <time>1970-01-01T01:39:21.000Z</time>
      </trkpt>
      <trkpt lat="42.246564" lon="2.392743">
        <ele>728</ele>
        <time>1970-01-01T01:39:22.000Z</time>
      </trkpt>
      <trkpt lat="42.246569" lon="2.392767">
        <ele>729</ele>
        <time>1970-01-01T01:39:23.000Z</time>
      </trkpt>
      <trkpt lat="42.246565" lon="2.392822">
        <ele>729</ele>
        <time>1970-01-01T01:39:24.000Z</time>
      </trkpt>
      <trkpt lat="42.24656" lon="2.392848">
        <ele>729</ele>
        <time>1970-01-01T01:39:25.000Z</time>
      </trkpt>
      <trkpt lat="42.246554" lon="2.392874">
        <ele>729</ele>
        <time>1970-01-01T01:39:26.000Z</time>
      </trkpt>
      <trkpt lat="42.246549" lon="2.3929">
        <ele>729</ele>
        <time>1970-01-01T01:39:27.000Z</time>
      </trkpt>
      <trkpt lat="42.246544" lon="2.392927">
        <ele>729</ele>
        <time>1970-01-01T01:39:28.000Z</time>
      </trkpt>
      <trkpt lat="42.246539" lon="2.392953">
        <ele>729</ele>
        <time>1970-01-01T01:39:29.000Z</time>
      </trkpt>
      <trkpt lat="42.246534" lon="2.392979">
        <ele>729</ele>
        <time>1970-01-01T01:39:30.000Z</time>
      </trkpt>
      <trkpt lat="42.246528" lon="2.393005">
        <ele>729</ele>
        <time>1970-01-01T01:39:31.000Z</time>
      </trkpt>
      <trkpt lat="42.246523" lon="2.393031">
        <ele>729</ele>
        <time>1970-01-01T01:39:32.000Z</time>
      </trkpt>
      <trkpt lat="42.246518" lon="2.393057">
        <ele>730</ele>
        <time>1970-01-01T01:39:33.000Z</time>
      </trkpt>
      <trkpt lat="42.246495" lon="2.393106">
        <ele>730</ele>
        <time>1970-01-01T01:39:34.000Z</time>
      </trkpt>
      <trkpt lat="42.246485" lon="2.39313">
        <ele>730</ele>
        <time>1970-01-01T01:39:35.000Z</time>
      </trkpt>
      <trkpt lat="42.246475" lon="2.393154">
        <ele>730</ele>
        <time>1970-01-01T01:39:36.000Z</time>
      </trkpt>
      <trkpt lat="42.246465" lon="2.393178">
        <ele>730</ele>
        <time>1970-01-01T01:39:37.000Z</time>
      </trkpt>
      <trkpt lat="42.246455" lon="2.393203">
        <ele>730</ele>
        <time>1970-01-01T01:39:38.000Z</time>
      </trkpt>
      <trkpt lat="42.246445" lon="2.393227">
        <ele>730</ele>
        <time>1970-01-01T01:39:39.000Z</time>
      </trkpt>
      <trkpt lat="42.246435" lon="2.393251">
        <ele>730</ele>
        <time>1970-01-01T01:39:40.000Z</time>
      </trkpt>
      <trkpt lat="42.246425" lon="2.393275">
        <ele>730</ele>
        <time>1970-01-01T01:39:41.000Z</time>
      </trkpt>
      <trkpt lat="42.246415" lon="2.393299">
        <ele>730</ele>
        <time>1970-01-01T01:39:42.000Z</time>
      </trkpt>
      <trkpt lat="42.246405" lon="2.393323">
        <ele>732</ele>
        <time>1970-01-01T01:39:43.000Z</time>
      </trkpt>
      <trkpt lat="42.246385" lon="2.393376">
        <ele>732</ele>
        <time>1970-01-01T01:39:44.000Z</time>
      </trkpt>
      <trkpt lat="42.246375" lon="2.393401">
        <ele>732</ele>
        <time>1970-01-01T01:39:45.000Z</time>
      </trkpt>
      <trkpt lat="42.246366" lon="2.393426">
        <ele>732</ele>
        <time>1970-01-01T01:39:46.000Z</time>
      </trkpt>
      <trkpt lat="42.246356" lon="2.393451">
        <ele>732</ele>
        <time>1970-01-01T01:39:47.000Z</time>
      </trkpt>
      <trkpt lat="42.246347" lon="2.393477">
        <ele>732</ele>
        <time>1970-01-01T01:39:48.000Z</time>
      </trkpt>
      <trkpt lat="42.246338" lon="2.393502">
        <ele>732</ele>
        <time>1970-01-01T01:39:49.000Z</time>
      </trkpt>
      <trkpt lat="42.246328" lon="2.393527">
        <ele>732</ele>
        <time>1970-01-01T01:39:50.000Z</time>
      </trkpt>
      <trkpt lat="42.246319" lon="2.393552">
        <ele>732</ele>
        <time>1970-01-01T01:39:51.000Z</time>
      </trkpt>
      <trkpt lat="42.246309" lon="2.393577">
        <ele>732</ele>
        <time>1970-01-01T01:39:52.000Z</time>
      </trkpt>
      <trkpt lat="42.2463" lon="2.393602">
        <ele>734</ele>
        <time>1970-01-01T01:39:53.000Z</time>
      </trkpt>
      <trkpt lat="42.246282" lon="2.393653">
        <ele>734</ele>
        <time>1970-01-01T01:39:54.000Z</time>
      </trkpt>
      <trkpt lat="42.246275" lon="2.393678">
        <ele>734</ele>
        <time>1970-01-01T01:39:55.000Z</time>
      </trkpt>
      <trkpt lat="42.246267" lon="2.393703">
        <ele>734</ele>
        <time>1970-01-01T01:39:56.000Z</time>
      </trkpt>
      <trkpt lat="42.246259" lon="2.393728">
        <ele>734</ele>
        <time>1970-01-01T01:39:57.000Z</time>
      </trkpt>
      <trkpt lat="42.246252" lon="2.393753">
        <ele>734</ele>
        <time>1970-01-01T01:39:58.000Z</time>
      </trkpt>
      <trkpt lat="42.246244" lon="2.393777">
        <ele>734</ele>
        <time>1970-01-01T01:39:59.000Z</time>
      </trkpt>
      <trkpt lat="42.246236" lon="2.393802">
        <ele>734</ele>
        <time>1970-01-01T01:40:00.000Z</time>
      </trkpt>
      <trkpt lat="42.246228" lon="2.393827">
        <ele>734</ele>
        <time>1970-01-01T01:40:01.000Z</time>
      </trkpt>
      <trkpt lat="42.246221" lon="2.393852">
        <ele>734</ele>
        <time>1970-01-01T01:40:02.000Z</time>
      </trkpt>
      <trkpt lat="42.246213" lon="2.393877">
        <ele>737</ele>
        <time>1970-01-01T01:40:03.000Z</time>
      </trkpt>
      <trkpt lat="42.246205" lon="2.393933">
        <ele>737</ele>
        <time>1970-01-01T01:40:04.000Z</time>
      </trkpt>
      <trkpt lat="42.246203" lon="2.393959">
        <ele>737</ele>
        <time>1970-01-01T01:40:05.000Z</time>
      </trkpt>
      <trkpt lat="42.246201" lon="2.393986">
        <ele>737</ele>
        <time>1970-01-01T01:40:06.000Z</time>
      </trkpt>
      <trkpt lat="42.246199" lon="2.394013">
        <ele>737</ele>
        <time>1970-01-01T01:40:07.000Z</time>
      </trkpt>
      <trkpt lat="42.246197" lon="2.39404">
        <ele>737</ele>
        <time>1970-01-01T01:40:08.000Z</time>
      </trkpt>
      <trkpt lat="42.246194" lon="2.394066">
        <ele>737</ele>
        <time>1970-01-01T01:40:09.000Z</time>
      </trkpt>
      <trkpt lat="42.246192" lon="2.394093">
        <ele>737</ele>
        <time>1970-01-01T01:40:10.000Z</time>
      </trkpt>
      <trkpt lat="42.24619" lon="2.39412">
        <ele>737</ele>
        <time>1970-01-01T01:40:11.000Z</time>
      </trkpt>
      <trkpt lat="42.246188" lon="2.394146">
        <ele>737</ele>
        <time>1970-01-01T01:40:12.000Z</time>
      </trkpt>
      <trkpt lat="42.246186" lon="2.394173">
        <ele>737</ele>
        <time>1970-01-01T01:40:13.000Z</time>
      </trkpt>
      <trkpt lat="42.246196" lon="2.394228">
        <ele>737</ele>
        <time>1970-01-01T01:40:14.000Z</time>
      </trkpt>
      <trkpt lat="42.246205" lon="2.394252">
        <ele>737</ele>
        <time>1970-01-01T01:40:15.000Z</time>
      </trkpt>
      <trkpt lat="42.246213" lon="2.394277">
        <ele>737</ele>
        <time>1970-01-01T01:40:16.000Z</time>
      </trkpt>
      <trkpt lat="42.246222" lon="2.394302">
        <ele>737</ele>
        <time>1970-01-01T01:40:17.000Z</time>
      </trkpt>
      <trkpt lat="42.246231" lon="2.394326">
        <ele>737</ele>
        <time>1970-01-01T01:40:18.000Z</time>
      </trkpt>
      <trkpt lat="42.24624" lon="2.394351">
        <ele>737</ele>
        <time>1970-01-01T01:40:19.000Z</time>
      </trkpt>
      <trkpt lat="42.246249" lon="2.394376">
        <ele>737</ele>
        <time>1970-01-01T01:40:20.000Z</time>
      </trkpt>
      <trkpt lat="42.246257" lon="2.394401">
        <ele>737</ele>
        <time>1970-01-01T01:40:21.000Z</time>
      </trkpt>
      <trkpt lat="42.246266" lon="2.394425">
        <ele>737</ele>
        <time>1970-01-01T01:40:22.000Z</time>
      </trkpt>
      <trkpt lat="42.246275" lon="2.39445">
        <ele>738</ele>
        <time>1970-01-01T01:40:23.000Z</time>
      </trkpt>
      <trkpt lat="42.246293" lon="2.3945">
        <ele>738</ele>
        <time>1970-01-01T01:40:24.000Z</time>
      </trkpt>
      <trkpt lat="42.2463" lon="2.394525">
        <ele>738</ele>
        <time>1970-01-01T01:40:25.000Z</time>
      </trkpt>
      <trkpt lat="42.246307" lon="2.394549">
        <ele>738</ele>
        <time>1970-01-01T01:40:26.000Z</time>
      </trkpt>
      <trkpt lat="42.246314" lon="2.394573">
        <ele>738</ele>
        <time>1970-01-01T01:40:27.000Z</time>
      </trkpt>
      <trkpt lat="42.246322" lon="2.394597">
        <ele>738</ele>
        <time>1970-01-01T01:40:28.000Z</time>
      </trkpt>
      <trkpt lat="42.246329" lon="2.394622">
        <ele>738</ele>
        <time>1970-01-01T01:40:29.000Z</time>
      </trkpt>
      <trkpt lat="42.246336" lon="2.394646">
        <ele>738</ele>
        <time>1970-01-01T01:40:30.000Z</time>
      </trkpt>
      <trkpt lat="42.246343" lon="2.39467">
        <ele>738</ele>
        <time>1970-01-01T01:40:31.000Z</time>
      </trkpt>
      <trkpt lat="42.24635" lon="2.394695">
        <ele>738</ele>
        <time>1970-01-01T01:40:32.000Z</time>
      </trkpt>
      <trkpt lat="42.246357" lon="2.394719">
        <ele>739</ele>
        <time>1970-01-01T01:40:33.000Z</time>
      </trkpt>
      <trkpt lat="42.246367" lon="2.394773">
        <ele>739</ele>
        <time>1970-01-01T01:40:34.000Z</time>
      </trkpt>
      <trkpt lat="42.24637" lon="2.3948">
        <ele>739</ele>
        <time>1970-01-01T01:40:35.000Z</time>
      </trkpt>
      <trkpt lat="42.246374" lon="2.394826">
        <ele>739</ele>
        <time>1970-01-01T01:40:36.000Z</time>
      </trkpt>
      <trkpt lat="42.246377" lon="2.394853">
        <ele>739</ele>
        <time>1970-01-01T01:40:37.000Z</time>
      </trkpt>
      <trkpt lat="42.246381" lon="2.394879">
        <ele>739</ele>
        <time>1970-01-01T01:40:38.000Z</time>
      </trkpt>
      <trkpt lat="42.246384" lon="2.394905">
        <ele>739</ele>
        <time>1970-01-01T01:40:39.000Z</time>
      </trkpt>
      <trkpt lat="42.246388" lon="2.394932">
        <ele>739</ele>
        <time>1970-01-01T01:40:40.000Z</time>
      </trkpt>
      <trkpt lat="42.246391" lon="2.394958">
        <ele>739</ele>
        <time>1970-01-01T01:40:41.000Z</time>
      </trkpt>
      <trkpt lat="42.246395" lon="2.394985">
        <ele>739</ele>
        <time>1970-01-01T01:40:42.000Z</time>
      </trkpt>
      <trkpt lat="42.246398" lon="2.395011">
        <ele>740</ele>
        <time>1970-01-01T01:40:43.000Z</time>
      </trkpt>
      <trkpt lat="42.246394" lon="2.395068">
        <ele>740</ele>
        <time>1970-01-01T01:40:44.000Z</time>
      </trkpt>
      <trkpt lat="42.246391" lon="2.395095">
        <ele>740</ele>
        <time>1970-01-01T01:40:45.000Z</time>
      </trkpt>
      <trkpt lat="42.246388" lon="2.395122">
        <ele>740</ele>
        <time>1970-01-01T01:40:46.000Z</time>
      </trkpt>
      <trkpt lat="42.246385" lon="2.395149">
        <ele>740</ele>
        <time>1970-01-01T01:40:47.000Z</time>
      </trkpt>
      <trkpt lat="42.246382" lon="2.395176">
        <ele>740</ele>
        <time>1970-01-01T01:40:48.000Z</time>
      </trkpt>
      <trkpt lat="42.246378" lon="2.395203">
        <ele>740</ele>
        <time>1970-01-01T01:40:49.000Z</time>
      </trkpt>
      <trkpt lat="42.246375" lon="2.39523">
        <ele>740</ele>
        <time>1970-01-01T01:40:50.000Z</time>
      </trkpt>
      <trkpt lat="42.246372" lon="2.395257">
        <ele>740</ele>
        <time>1970-01-01T01:40:51.000Z</time>
      </trkpt>
      <trkpt lat="42.246369" lon="2.395284">
        <ele>740</ele>
        <time>1970-01-01T01:40:52.000Z</time>
      </trkpt>
      <trkpt lat="42.246366" lon="2.395311">
        <ele>742</ele>
        <time>1970-01-01T01:40:53.000Z</time>
      </trkpt>
      <trkpt lat="42.246357" lon="2.395368">
        <ele>742</ele>
        <time>1970-01-01T01:40:54.000Z</time>
      </trkpt>
      <trkpt lat="42.246353" lon="2.395395">
        <ele>742</ele>
        <time>1970-01-01T01:40:55.000Z</time>
      </trkpt>
      <trkpt lat="42.246349" lon="2.395422">
        <ele>742</ele>
        <time>1970-01-01T01:40:56.000Z</time>
      </trkpt>
      <trkpt lat="42.246345" lon="2.395449">
        <ele>742</ele>
        <time>1970-01-01T01:40:57.000Z</time>
      </trkpt>
      <trkpt lat="42.246341" lon="2.395476">
        <ele>742</ele>
        <time>1970-01-01T01:40:58.000Z</time>
      </trkpt>
      <trkpt lat="42.246337" lon="2.395502">
        <ele>742</ele>
        <time>1970-01-01T01:40:59.000Z</time>
      </trkpt>
      <trkpt lat="42.246333" lon="2.395529">
        <ele>742</ele>
        <time>1970-01-01T01:41:00.000Z</time>
      </trkpt>
      <trkpt lat="42.246329" lon="2.395556">
        <ele>742</ele>
        <time>1970-01-01T01:41:01.000Z</time>
      </trkpt>
      <trkpt lat="42.246325" lon="2.395583">
        <ele>742</ele>
        <time>1970-01-01T01:41:02.000Z</time>
      </trkpt>
      <trkpt lat="42.246321" lon="2.39561">
        <ele>743</ele>
        <time>1970-01-01T01:41:03.000Z</time>
      </trkpt>
      <trkpt lat="42.246324" lon="2.395666">
        <ele>743</ele>
        <time>1970-01-01T01:41:04.000Z</time>
      </trkpt>
      <trkpt lat="42.246328" lon="2.395692">
        <ele>743</ele>
        <time>1970-01-01T01:41:05.000Z</time>
      </trkpt>
      <trkpt lat="42.246333" lon="2.395717">
        <ele>743</ele>
        <time>1970-01-01T01:41:06.000Z</time>
      </trkpt>
      <trkpt lat="42.246337" lon="2.395743">
        <ele>743</ele>
        <time>1970-01-01T01:41:07.000Z</time>
      </trkpt>
      <trkpt lat="42.246341" lon="2.395769">
        <ele>743</ele>
        <time>1970-01-01T01:41:08.000Z</time>
      </trkpt>
      <trkpt lat="42.246345" lon="2.395795">
        <ele>743</ele>
        <time>1970-01-01T01:41:09.000Z</time>
      </trkpt>
      <trkpt lat="42.246349" lon="2.395821">
        <ele>743</ele>
        <time>1970-01-01T01:41:10.000Z</time>
      </trkpt>
      <trkpt lat="42.246354" lon="2.395846">
        <ele>743</ele>
        <time>1970-01-01T01:41:11.000Z</time>
      </trkpt>
      <trkpt lat="42.246358" lon="2.395872">
        <ele>743</ele>
        <time>1970-01-01T01:41:12.000Z</time>
      </trkpt>
      <trkpt lat="42.246362" lon="2.395898">
        <ele>744</ele>
        <time>1970-01-01T01:41:13.000Z</time>
      </trkpt>
      <trkpt lat="42.246393" lon="2.395929">
        <ele>744</ele>
        <time>1970-01-01T01:41:14.000Z</time>
      </trkpt>
      <trkpt lat="42.246411" lon="2.395936">
        <ele>744</ele>
        <time>1970-01-01T01:41:15.000Z</time>
      </trkpt>
      <trkpt lat="42.246429" lon="2.395944">
        <ele>744</ele>
        <time>1970-01-01T01:41:16.000Z</time>
      </trkpt>
      <trkpt lat="42.246447" lon="2.395951">
        <ele>744</ele>
        <time>1970-01-01T01:41:17.000Z</time>
      </trkpt>
      <trkpt lat="42.246466" lon="2.395958">
        <ele>744</ele>
        <time>1970-01-01T01:41:18.000Z</time>
      </trkpt>
      <trkpt lat="42.246484" lon="2.395965">
        <ele>744</ele>
        <time>1970-01-01T01:41:19.000Z</time>
      </trkpt>
      <trkpt lat="42.246502" lon="2.395972">
        <ele>744</ele>
        <time>1970-01-01T01:41:20.000Z</time>
      </trkpt>
      <trkpt lat="42.24652" lon="2.39598">
        <ele>744</ele>
        <time>1970-01-01T01:41:21.000Z</time>
      </trkpt>
      <trkpt lat="42.246538" lon="2.395987">
        <ele>744</ele>
        <time>1970-01-01T01:41:22.000Z</time>
      </trkpt>
      <trkpt lat="42.246556" lon="2.395994">
        <ele>746</ele>
        <time>1970-01-01T01:41:23.000Z</time>
      </trkpt>
      <trkpt lat="42.246596" lon="2.395976">
        <ele>746</ele>
        <time>1970-01-01T01:41:24.000Z</time>
      </trkpt>
      <trkpt lat="42.246615" lon="2.395964">
        <ele>746</ele>
        <time>1970-01-01T01:41:25.000Z</time>
      </trkpt>
      <trkpt lat="42.246633" lon="2.395953">
        <ele>746</ele>
        <time>1970-01-01T01:41:26.000Z</time>
      </trkpt>
      <trkpt lat="42.246651" lon="2.395941">
        <ele>746</ele>
        <time>1970-01-01T01:41:27.000Z</time>
      </trkpt>
      <trkpt lat="42.24667" lon="2.39593">
        <ele>746</ele>
        <time>1970-01-01T01:41:28.000Z</time>
      </trkpt>
      <trkpt lat="42.246688" lon="2.395919">
        <ele>746</ele>
        <time>1970-01-01T01:41:29.000Z</time>
      </trkpt>
      <trkpt lat="42.246706" lon="2.395907">
        <ele>746</ele>
        <time>1970-01-01T01:41:30.000Z</time>
      </trkpt>
      <trkpt lat="42.246724" lon="2.395896">
        <ele>746</ele>
        <time>1970-01-01T01:41:31.000Z</time>
      </trkpt>
      <trkpt lat="42.246743" lon="2.395884">
        <ele>746</ele>
        <time>1970-01-01T01:41:32.000Z</time>
      </trkpt>
      <trkpt lat="42.246761" lon="2.395873">
        <ele>747</ele>
        <time>1970-01-01T01:41:33.000Z</time>
      </trkpt>
      <trkpt lat="42.246799" lon="2.395857">
        <ele>747</ele>
        <time>1970-01-01T01:41:34.000Z</time>
      </trkpt>
      <trkpt lat="42.246817" lon="2.39585">
        <ele>747</ele>
        <time>1970-01-01T01:41:35.000Z</time>
      </trkpt>
      <trkpt lat="42.246836" lon="2.395844">
        <ele>747</ele>
        <time>1970-01-01T01:41:36.000Z</time>
      </trkpt>
      <trkpt lat="42.246855" lon="2.395838">
        <ele>747</ele>
        <time>1970-01-01T01:41:37.000Z</time>
      </trkpt>
      <trkpt lat="42.246874" lon="2.395832">
        <ele>747</ele>
        <time>1970-01-01T01:41:38.000Z</time>
      </trkpt>
      <trkpt lat="42.246892" lon="2.395825">
        <ele>747</ele>
        <time>1970-01-01T01:41:39.000Z</time>
      </trkpt>
      <trkpt lat="42.246911" lon="2.395819">
        <ele>747</ele>
        <time>1970-01-01T01:41:40.000Z</time>
      </trkpt>
      <trkpt lat="42.24693" lon="2.395813">
        <ele>747</ele>
        <time>1970-01-01T01:41:41.000Z</time>
      </trkpt>
      <trkpt lat="42.246948" lon="2.395806">
        <ele>747</ele>
        <time>1970-01-01T01:41:42.000Z</time>
      </trkpt>
      <trkpt lat="42.246967" lon="2.3958">
        <ele>749</ele>
        <time>1970-01-01T01:41:43.000Z</time>
      </trkpt>
      <trkpt lat="42.247009" lon="2.395785">
        <ele>749</ele>
        <time>1970-01-01T01:41:44.000Z</time>
      </trkpt>
      <trkpt lat="42.247028" lon="2.395776">
        <ele>749</ele>
        <time>1970-01-01T01:41:45.000Z</time>
      </trkpt>
      <trkpt lat="42.247047" lon="2.395768">
        <ele>749</ele>
        <time>1970-01-01T01:41:46.000Z</time>
      </trkpt>
      <trkpt lat="42.247066" lon="2.395759">
        <ele>749</ele>
        <time>1970-01-01T01:41:47.000Z</time>
      </trkpt>
      <trkpt lat="42.247086" lon="2.39575">
        <ele>749</ele>
        <time>1970-01-01T01:41:48.000Z</time>
      </trkpt>
      <trkpt lat="42.247105" lon="2.395741">
        <ele>749</ele>
        <time>1970-01-01T01:41:49.000Z</time>
      </trkpt>
      <trkpt lat="42.247124" lon="2.395732">
        <ele>749</ele>
        <time>1970-01-01T01:41:50.000Z</time>
      </trkpt>
      <trkpt lat="42.247143" lon="2.395724">
        <ele>749</ele>
        <time>1970-01-01T01:41:51.000Z</time>
      </trkpt>
      <trkpt lat="42.247162" lon="2.395715">
        <ele>749</ele>
        <time>1970-01-01T01:41:52.000Z</time>
      </trkpt>
      <trkpt lat="42.247181" lon="2.395706">
        <ele>750</ele>
        <time>1970-01-01T01:41:53.000Z</time>
      </trkpt>
      <trkpt lat="42.247215" lon="2.395675">
        <ele>750</ele>
        <time>1970-01-01T01:41:54.000Z</time>
      </trkpt>
      <trkpt lat="42.247229" lon="2.395657">
        <ele>750</ele>
        <time>1970-01-01T01:41:55.000Z</time>
      </trkpt>
      <trkpt lat="42.247244" lon="2.395638">
        <ele>750</ele>
        <time>1970-01-01T01:41:56.000Z</time>
      </trkpt>
      <trkpt lat="42.247259" lon="2.395619">
        <ele>750</ele>
        <time>1970-01-01T01:41:57.000Z</time>
      </trkpt>
      <trkpt lat="42.247274" lon="2.395601">
        <ele>750</ele>
        <time>1970-01-01T01:41:58.000Z</time>
      </trkpt>
      <trkpt lat="42.247288" lon="2.395582">
        <ele>750</ele>
        <time>1970-01-01T01:41:59.000Z</time>
      </trkpt>
      <trkpt lat="42.247303" lon="2.395563">
        <ele>750</ele>
        <time>1970-01-01T01:42:00.000Z</time>
      </trkpt>
      <trkpt lat="42.247318" lon="2.395544">
        <ele>750</ele>
        <time>1970-01-01T01:42:01.000Z</time>
      </trkpt>
      <trkpt lat="42.247332" lon="2.395526">
        <ele>750</ele>
        <time>1970-01-01T01:42:02.000Z</time>
      </trkpt>
      <trkpt lat="42.247347" lon="2.395507">
        <ele>752</ele>
        <time>1970-01-01T01:42:03.000Z</time>
      </trkpt>
      <trkpt lat="42.247361" lon="2.395457">
        <ele>752</ele>
        <time>1970-01-01T01:42:04.000Z</time>
      </trkpt>
      <trkpt lat="42.247366" lon="2.395433">
        <ele>752</ele>
        <time>1970-01-01T01:42:05.000Z</time>
      </trkpt>
      <trkpt lat="42.24737" lon="2.395408">
        <ele>752</ele>
        <time>1970-01-01T01:42:06.000Z</time>
      </trkpt>
      <trkpt lat="42.247375" lon="2.395383">
        <ele>752</ele>
        <time>1970-01-01T01:42:07.000Z</time>
      </trkpt>
      <trkpt lat="42.247379" lon="2.395359">
        <ele>752</ele>
        <time>1970-01-01T01:42:08.000Z</time>
      </trkpt>
      <trkpt lat="42.247383" lon="2.395334">
        <ele>752</ele>
        <time>1970-01-01T01:42:09.000Z</time>
      </trkpt>
      <trkpt lat="42.247388" lon="2.395309">
        <ele>752</ele>
        <time>1970-01-01T01:42:10.000Z</time>
      </trkpt>
      <trkpt lat="42.247392" lon="2.395284">
        <ele>752</ele>
        <time>1970-01-01T01:42:11.000Z</time>
      </trkpt>
      <trkpt lat="42.247397" lon="2.39526">
        <ele>752</ele>
        <time>1970-01-01T01:42:12.000Z</time>
      </trkpt>
      <trkpt lat="42.247401" lon="2.395235">
        <ele>753</ele>
        <time>1970-01-01T01:42:13.000Z</time>
      </trkpt>
      <trkpt lat="42.247409" lon="2.395179">
        <ele>753</ele>
        <time>1970-01-01T01:42:14.000Z</time>
      </trkpt>
      <trkpt lat="42.247415" lon="2.395152">
        <ele>753</ele>
        <time>1970-01-01T01:42:15.000Z</time>
      </trkpt>
      <trkpt lat="42.247421" lon="2.395126">
        <ele>753</ele>
        <time>1970-01-01T01:42:16.000Z</time>
      </trkpt>
      <trkpt lat="42.247427" lon="2.395099">
        <ele>753</ele>
        <time>1970-01-01T01:42:17.000Z</time>
      </trkpt>
      <trkpt lat="42.247433" lon="2.395073">
        <ele>753</ele>
        <time>1970-01-01T01:42:18.000Z</time>
      </trkpt>
      <trkpt lat="42.247439" lon="2.395046">
        <ele>753</ele>
        <time>1970-01-01T01:42:19.000Z</time>
      </trkpt>
      <trkpt lat="42.247445" lon="2.39502">
        <ele>753</ele>
        <time>1970-01-01T01:42:20.000Z</time>
      </trkpt>
      <trkpt lat="42.247451" lon="2.394993">
        <ele>753</ele>
        <time>1970-01-01T01:42:21.000Z</time>
      </trkpt>
      <trkpt lat="42.247457" lon="2.394967">
        <ele>753</ele>
        <time>1970-01-01T01:42:22.000Z</time>
      </trkpt>
      <trkpt lat="42.247463" lon="2.39494">
        <ele>754</ele>
        <time>1970-01-01T01:42:23.000Z</time>
      </trkpt>
      <trkpt lat="42.247492" lon="2.394883">
        <ele>754</ele>
        <time>1970-01-01T01:42:24.000Z</time>
      </trkpt>
      <trkpt lat="42.24751" lon="2.394858">
        <ele>754</ele>
        <time>1970-01-01T01:42:25.000Z</time>
      </trkpt>
      <trkpt lat="42.247528" lon="2.394834">
        <ele>754</ele>
        <time>1970-01-01T01:42:26.000Z</time>
      </trkpt>
      <trkpt lat="42.247546" lon="2.394809">
        <ele>754</ele>
        <time>1970-01-01T01:42:27.000Z</time>
      </trkpt>
      <trkpt lat="42.247565" lon="2.394785">
        <ele>754</ele>
        <time>1970-01-01T01:42:28.000Z</time>
      </trkpt>
      <trkpt lat="42.247583" lon="2.394761">
        <ele>754</ele>
        <time>1970-01-01T01:42:29.000Z</time>
      </trkpt>
      <trkpt lat="42.247601" lon="2.394736">
        <ele>754</ele>
        <time>1970-01-01T01:42:30.000Z</time>
      </trkpt>
      <trkpt lat="42.247619" lon="2.394712">
        <ele>754</ele>
        <time>1970-01-01T01:42:31.000Z</time>
      </trkpt>
      <trkpt lat="42.247637" lon="2.394687">
        <ele>754</ele>
        <time>1970-01-01T01:42:32.000Z</time>
      </trkpt>
      <trkpt lat="42.247655" lon="2.394663">
        <ele>756</ele>
        <time>1970-01-01T01:42:33.000Z</time>
      </trkpt>
      <trkpt lat="42.247673" lon="2.394603">
        <ele>756</ele>
        <time>1970-01-01T01:42:34.000Z</time>
      </trkpt>
      <trkpt lat="42.247677" lon="2.394574">
        <ele>756</ele>
        <time>1970-01-01T01:42:35.000Z</time>
      </trkpt>
      <trkpt lat="42.247682" lon="2.394545">
        <ele>756</ele>
        <time>1970-01-01T01:42:36.000Z</time>
      </trkpt>
      <trkpt lat="42.247686" lon="2.394516">
        <ele>756</ele>
        <time>1970-01-01T01:42:37.000Z</time>
      </trkpt>
      <trkpt lat="42.24769" lon="2.394487">
        <ele>756</ele>
        <time>1970-01-01T01:42:38.000Z</time>
      </trkpt>
      <trkpt lat="42.247694" lon="2.394458">
        <ele>756</ele>
        <time>1970-01-01T01:42:39.000Z</time>
      </trkpt>
      <trkpt lat="42.247698" lon="2.394429">
        <ele>756</ele>
        <time>1970-01-01T01:42:40.000Z</time>
      </trkpt>
      <trkpt lat="42.247703" lon="2.3944">
        <ele>756</ele>
        <time>1970-01-01T01:42:41.000Z</time>
      </trkpt>
      <trkpt lat="42.247707" lon="2.394371">
        <ele>756</ele>
        <time>1970-01-01T01:42:42.000Z</time>
      </trkpt>
      <trkpt lat="42.247711" lon="2.394342">
        <ele>756</ele>
        <time>1970-01-01T01:42:43.000Z</time>
      </trkpt>
      <trkpt lat="42.247705" lon="2.394285">
        <ele>756</ele>
        <time>1970-01-01T01:42:44.000Z</time>
      </trkpt>
      <trkpt lat="42.247702" lon="2.394257">
        <ele>756</ele>
        <time>1970-01-01T01:42:45.000Z</time>
      </trkpt>
      <trkpt lat="42.247698" lon="2.39423">
        <ele>756</ele>
        <time>1970-01-01T01:42:46.000Z</time>
      </trkpt>
      <trkpt lat="42.247695" lon="2.394203">
        <ele>756</ele>
        <time>1970-01-01T01:42:47.000Z</time>
      </trkpt>
      <trkpt lat="42.247691" lon="2.394175">
        <ele>756</ele>
        <time>1970-01-01T01:42:48.000Z</time>
      </trkpt>
      <trkpt lat="42.247687" lon="2.394148">
        <ele>756</ele>
        <time>1970-01-01T01:42:49.000Z</time>
      </trkpt>
      <trkpt lat="42.247684" lon="2.394121">
        <ele>756</ele>
        <time>1970-01-01T01:42:50.000Z</time>
      </trkpt>
      <trkpt lat="42.24768" lon="2.394094">
        <ele>756</ele>
        <time>1970-01-01T01:42:51.000Z</time>
      </trkpt>
      <trkpt lat="42.247677" lon="2.394066">
        <ele>756</ele>
        <time>1970-01-01T01:42:52.000Z</time>
      </trkpt>
      <trkpt lat="42.247673" lon="2.394039">
        <ele>758</ele>
        <time>1970-01-01T01:42:53.000Z</time>
      </trkpt>
      <trkpt lat="42.247675" lon="2.393981">
        <ele>758</ele>
        <time>1970-01-01T01:42:54.000Z</time>
      </trkpt>
      <trkpt lat="42.247679" lon="2.393954">
        <ele>758</ele>
        <time>1970-01-01T01:42:55.000Z</time>
      </trkpt>
      <trkpt lat="42.247684" lon="2.393928">
        <ele>758</ele>
        <time>1970-01-01T01:42:56.000Z</time>
      </trkpt>
      <trkpt lat="42.247688" lon="2.393902">
        <ele>758</ele>
        <time>1970-01-01T01:42:57.000Z</time>
      </trkpt>
      <trkpt lat="42.247693" lon="2.393876">
        <ele>758</ele>
        <time>1970-01-01T01:42:58.000Z</time>
      </trkpt>
      <trkpt lat="42.247697" lon="2.393849">
        <ele>758</ele>
        <time>1970-01-01T01:42:59.000Z</time>
      </trkpt>
      <trkpt lat="42.247702" lon="2.393823">
        <ele>758</ele>
        <time>1970-01-01T01:43:00.000Z</time>
      </trkpt>
      <trkpt lat="42.247706" lon="2.393797">
        <ele>758</ele>
        <time>1970-01-01T01:43:01.000Z</time>
      </trkpt>
      <trkpt lat="42.247711" lon="2.39377">
        <ele>758</ele>
        <time>1970-01-01T01:43:02.000Z</time>
      </trkpt>
      <trkpt lat="42.247715" lon="2.393744">
        <ele>760</ele>
        <time>1970-01-01T01:43:03.000Z</time>
      </trkpt>
      <trkpt lat="42.247731" lon="2.393696">
        <ele>760</ele>
        <time>1970-01-01T01:43:04.000Z</time>
      </trkpt>
      <trkpt lat="42.247738" lon="2.393672">
        <ele>760</ele>
        <time>1970-01-01T01:43:05.000Z</time>
      </trkpt>
      <trkpt lat="42.247746" lon="2.393649">
        <ele>760</ele>
        <time>1970-01-01T01:43:06.000Z</time>
      </trkpt>
      <trkpt lat="42.247753" lon="2.393625">
        <ele>760</ele>
        <time>1970-01-01T01:43:07.000Z</time>
      </trkpt>
      <trkpt lat="42.24776" lon="2.393602">
        <ele>760</ele>
        <time>1970-01-01T01:43:08.000Z</time>
      </trkpt>
      <trkpt lat="42.247767" lon="2.393578">
        <ele>760</ele>
        <time>1970-01-01T01:43:09.000Z</time>
      </trkpt>
      <trkpt lat="42.247774" lon="2.393555">
        <ele>760</ele>
        <time>1970-01-01T01:43:10.000Z</time>
      </trkpt>
      <trkpt lat="42.247782" lon="2.393531">
        <ele>760</ele>
        <time>1970-01-01T01:43:11.000Z</time>
      </trkpt>
      <trkpt lat="42.247789" lon="2.393508">
        <ele>760</ele>
        <time>1970-01-01T01:43:12.000Z</time>
      </trkpt>
      <trkpt lat="42.247796" lon="2.393484">
        <ele>761</ele>
        <time>1970-01-01T01:43:13.000Z</time>
      </trkpt>
      <trkpt lat="42.247803" lon="2.39343">
        <ele>761</ele>
        <time>1970-01-01T01:43:14.000Z</time>
      </trkpt>
      <trkpt lat="42.247806" lon="2.393404">
        <ele>761</ele>
        <time>1970-01-01T01:43:15.000Z</time>
      </trkpt>
      <trkpt lat="42.247809" lon="2.393378">
        <ele>761</ele>
        <time>1970-01-01T01:43:16.000Z</time>
      </trkpt>
      <trkpt lat="42.247812" lon="2.393352">
        <ele>761</ele>
        <time>1970-01-01T01:43:17.000Z</time>
      </trkpt>
      <trkpt lat="42.247815" lon="2.393326">
        <ele>761</ele>
        <time>1970-01-01T01:43:18.000Z</time>
      </trkpt>
      <trkpt lat="42.247818" lon="2.3933">
        <ele>761</ele>
        <time>1970-01-01T01:43:19.000Z</time>
      </trkpt>
      <trkpt lat="42.247821" lon="2.393274">
        <ele>761</ele>
        <time>1970-01-01T01:43:20.000Z</time>
      </trkpt>
      <trkpt lat="42.247824" lon="2.393248">
        <ele>761</ele>
        <time>1970-01-01T01:43:21.000Z</time>
      </trkpt>
      <trkpt lat="42.247827" lon="2.393222">
        <ele>761</ele>
        <time>1970-01-01T01:43:22.000Z</time>
      </trkpt>
      <trkpt lat="42.24783" lon="2.393196">
        <ele>762</ele>
        <time>1970-01-01T01:43:23.000Z</time>
      </trkpt>
      <trkpt lat="42.247852" lon="2.393149">
        <ele>762</ele>
        <time>1970-01-01T01:43:24.000Z</time>
      </trkpt>
      <trkpt lat="42.247864" lon="2.393129">
        <ele>762</ele>
        <time>1970-01-01T01:43:25.000Z</time>
      </trkpt>
      <trkpt lat="42.247877" lon="2.393109">
        <ele>762</ele>
        <time>1970-01-01T01:43:26.000Z</time>
      </trkpt>
      <trkpt lat="42.247889" lon="2.393089">
        <ele>762</ele>
        <time>1970-01-01T01:43:27.000Z</time>
      </trkpt>
      <trkpt lat="42.247902" lon="2.393069">
        <ele>762</ele>
        <time>1970-01-01T01:43:28.000Z</time>
      </trkpt>
      <trkpt lat="42.247914" lon="2.393049">
        <ele>762</ele>
        <time>1970-01-01T01:43:29.000Z</time>
      </trkpt>
      <trkpt lat="42.247927" lon="2.393029">
        <ele>762</ele>
        <time>1970-01-01T01:43:30.000Z</time>
      </trkpt>
      <trkpt lat="42.247939" lon="2.393009">
        <ele>762</ele>
        <time>1970-01-01T01:43:31.000Z</time>
      </trkpt>
      <trkpt lat="42.247952" lon="2.392989">
        <ele>762</ele>
        <time>1970-01-01T01:43:32.000Z</time>
      </trkpt>
      <trkpt lat="42.247964" lon="2.392969">
        <ele>763</ele>
        <time>1970-01-01T01:43:33.000Z</time>
      </trkpt>
      <trkpt lat="42.24798" lon="2.392921">
        <ele>763</ele>
        <time>1970-01-01T01:43:34.000Z</time>
      </trkpt>
      <trkpt lat="42.247984" lon="2.392896">
        <ele>763</ele>
        <time>1970-01-01T01:43:35.000Z</time>
      </trkpt>
      <trkpt lat="42.247988" lon="2.392871">
        <ele>763</ele>
        <time>1970-01-01T01:43:36.000Z</time>
      </trkpt>
      <trkpt lat="42.247992" lon="2.392846">
        <ele>763</ele>
        <time>1970-01-01T01:43:37.000Z</time>
      </trkpt>
      <trkpt lat="42.247997" lon="2.392821">
        <ele>763</ele>
        <time>1970-01-01T01:43:38.000Z</time>
      </trkpt>
      <trkpt lat="42.248001" lon="2.392796">
        <ele>763</ele>
        <time>1970-01-01T01:43:39.000Z</time>
      </trkpt>
      <trkpt lat="42.248005" lon="2.392771">
        <ele>763</ele>
        <time>1970-01-01T01:43:40.000Z</time>
      </trkpt>
      <trkpt lat="42.248009" lon="2.392746">
        <ele>763</ele>
        <time>1970-01-01T01:43:41.000Z</time>
      </trkpt>
      <trkpt lat="42.248013" lon="2.392721">
        <ele>763</ele>
        <time>1970-01-01T01:43:42.000Z</time>
      </trkpt>
      <trkpt lat="42.248017" lon="2.392696">
        <ele>765</ele>
        <time>1970-01-01T01:43:43.000Z</time>
      </trkpt>
      <trkpt lat="42.24802" lon="2.392639">
        <ele>765</ele>
        <time>1970-01-01T01:43:44.000Z</time>
      </trkpt>
      <trkpt lat="42.248022" lon="2.392611">
        <ele>765</ele>
        <time>1970-01-01T01:43:45.000Z</time>
      </trkpt>
      <trkpt lat="42.248025" lon="2.392584">
        <ele>765</ele>
        <time>1970-01-01T01:43:46.000Z</time>
      </trkpt>
      <trkpt lat="42.248027" lon="2.392556">
        <ele>765</ele>
        <time>1970-01-01T01:43:47.000Z</time>
      </trkpt>
      <trkpt lat="42.24803" lon="2.392529">
        <ele>765</ele>
        <time>1970-01-01T01:43:48.000Z</time>
      </trkpt>
      <trkpt lat="42.248032" lon="2.392501">
        <ele>765</ele>
        <time>1970-01-01T01:43:49.000Z</time>
      </trkpt>
      <trkpt lat="42.248035" lon="2.392474">
        <ele>765</ele>
        <time>1970-01-01T01:43:50.000Z</time>
      </trkpt>
      <trkpt lat="42.248037" lon="2.392446">
        <ele>765</ele>
        <time>1970-01-01T01:43:51.000Z</time>
      </trkpt>
      <trkpt lat="42.24804" lon="2.392419">
        <ele>765</ele>
        <time>1970-01-01T01:43:52.000Z</time>
      </trkpt>
      <trkpt lat="42.248042" lon="2.392391">
        <ele>767</ele>
        <time>1970-01-01T01:43:53.000Z</time>
      </trkpt>
      <trkpt lat="42.24805" lon="2.392338">
        <ele>767</ele>
        <time>1970-01-01T01:43:54.000Z</time>
      </trkpt>
      <trkpt lat="42.248052" lon="2.392312">
        <ele>767</ele>
        <time>1970-01-01T01:43:55.000Z</time>
      </trkpt>
      <trkpt lat="42.248054" lon="2.392286">
        <ele>767</ele>
        <time>1970-01-01T01:43:56.000Z</time>
      </trkpt>
      <trkpt lat="42.248056" lon="2.39226">
        <ele>767</ele>
        <time>1970-01-01T01:43:57.000Z</time>
      </trkpt>
      <trkpt lat="42.248059" lon="2.392235">
        <ele>767</ele>
        <time>1970-01-01T01:43:58.000Z</time>
      </trkpt>
      <trkpt lat="42.248061" lon="2.392209">
        <ele>767</ele>
        <time>1970-01-01T01:43:59.000Z</time>
      </trkpt>
      <trkpt lat="42.248063" lon="2.392183">
        <ele>767</ele>
        <time>1970-01-01T01:44:00.000Z</time>
      </trkpt>
      <trkpt lat="42.248065" lon="2.392157">
        <ele>767</ele>
        <time>1970-01-01T01:44:01.000Z</time>
      </trkpt>
      <trkpt lat="42.248067" lon="2.392131">
        <ele>767</ele>
        <time>1970-01-01T01:44:02.000Z</time>
      </trkpt>
      <trkpt lat="42.248069" lon="2.392105">
        <ele>768</ele>
        <time>1970-01-01T01:44:03.000Z</time>
      </trkpt>
      <trkpt lat="42.248085" lon="2.392053">
        <ele>768</ele>
        <time>1970-01-01T01:44:04.000Z</time>
      </trkpt>
      <trkpt lat="42.248095" lon="2.39203">
        <ele>768</ele>
        <time>1970-01-01T01:44:05.000Z</time>
      </trkpt>
      <trkpt lat="42.248105" lon="2.392007">
        <ele>768</ele>
        <time>1970-01-01T01:44:06.000Z</time>
      </trkpt>
      <trkpt lat="42.248115" lon="2.391984">
        <ele>768</ele>
        <time>1970-01-01T01:44:07.000Z</time>
      </trkpt>
      <trkpt lat="42.248126" lon="2.391962">
        <ele>768</ele>
        <time>1970-01-01T01:44:08.000Z</time>
      </trkpt>
      <trkpt lat="42.248136" lon="2.391939">
        <ele>768</ele>
        <time>1970-01-01T01:44:09.000Z</time>
      </trkpt>
      <trkpt lat="42.248146" lon="2.391916">
        <ele>768</ele>
        <time>1970-01-01T01:44:10.000Z</time>
      </trkpt>
      <trkpt lat="42.248156" lon="2.391893">
        <ele>768</ele>
        <time>1970-01-01T01:44:11.000Z</time>
      </trkpt>
      <trkpt lat="42.248166" lon="2.39187">
        <ele>768</ele>
        <time>1970-01-01T01:44:12.000Z</time>
      </trkpt>
      <trkpt lat="42.248176" lon="2.391847">
        <ele>770</ele>
        <time>1970-01-01T01:44:13.000Z</time>
      </trkpt>
      <trkpt lat="42.248203" lon="2.391804">
        <ele>770</ele>
        <time>1970-01-01T01:44:14.000Z</time>
      </trkpt>
      <trkpt lat="42.248218" lon="2.391787">
        <ele>770</ele>
        <time>1970-01-01T01:44:15.000Z</time>
      </trkpt>
      <trkpt lat="42.248232" lon="2.391769">
        <ele>770</ele>
        <time>1970-01-01T01:44:16.000Z</time>
      </trkpt>
      <trkpt lat="42.248247" lon="2.391752">
        <ele>770</ele>
        <time>1970-01-01T01:44:17.000Z</time>
      </trkpt>
      <trkpt lat="42.248262" lon="2.391734">
        <ele>770</ele>
        <time>1970-01-01T01:44:18.000Z</time>
      </trkpt>
      <trkpt lat="42.248277" lon="2.391716">
        <ele>770</ele>
        <time>1970-01-01T01:44:19.000Z</time>
      </trkpt>
      <trkpt lat="42.248292" lon="2.391699">
        <ele>770</ele>
        <time>1970-01-01T01:44:20.000Z</time>
      </trkpt>
      <trkpt lat="42.248306" lon="2.391681">
        <ele>770</ele>
        <time>1970-01-01T01:44:21.000Z</time>
      </trkpt>
      <trkpt lat="42.248321" lon="2.391664">
        <ele>770</ele>
        <time>1970-01-01T01:44:22.000Z</time>
      </trkpt>
      <trkpt lat="42.248336" lon="2.391646">
        <ele>771</ele>
        <time>1970-01-01T01:44:23.000Z</time>
      </trkpt>
      <trkpt lat="42.24837" lon="2.391611">
        <ele>771</ele>
        <time>1970-01-01T01:44:24.000Z</time>
      </trkpt>
      <trkpt lat="42.248384" lon="2.391591">
        <ele>771</ele>
        <time>1970-01-01T01:44:25.000Z</time>
      </trkpt>
      <trkpt lat="42.248398" lon="2.391572">
        <ele>771</ele>
        <time>1970-01-01T01:44:26.000Z</time>
      </trkpt>
      <trkpt lat="42.248412" lon="2.391552">
        <ele>771</ele>
        <time>1970-01-01T01:44:27.000Z</time>
      </trkpt>
      <trkpt lat="42.248426" lon="2.391533">
        <ele>771</ele>
        <time>1970-01-01T01:44:28.000Z</time>
      </trkpt>
      <trkpt lat="42.24844" lon="2.391513">
        <ele>771</ele>
        <time>1970-01-01T01:44:29.000Z</time>
      </trkpt>
      <trkpt lat="42.248454" lon="2.391494">
        <ele>771</ele>
        <time>1970-01-01T01:44:30.000Z</time>
      </trkpt>
      <trkpt lat="42.248468" lon="2.391474">
        <ele>771</ele>
        <time>1970-01-01T01:44:31.000Z</time>
      </trkpt>
      <trkpt lat="42.248482" lon="2.391455">
        <ele>771</ele>
        <time>1970-01-01T01:44:32.000Z</time>
      </trkpt>
      <trkpt lat="42.248496" lon="2.391435">
        <ele>772</ele>
        <time>1970-01-01T01:44:33.000Z</time>
      </trkpt>
      <trkpt lat="42.248517" lon="2.391385">
        <ele>772</ele>
        <time>1970-01-01T01:44:34.000Z</time>
      </trkpt>
      <trkpt lat="42.248526" lon="2.39136">
        <ele>772</ele>
        <time>1970-01-01T01:44:35.000Z</time>
      </trkpt>
      <trkpt lat="42.248534" lon="2.391334">
        <ele>772</ele>
        <time>1970-01-01T01:44:36.000Z</time>
      </trkpt>
      <trkpt lat="42.248542" lon="2.391309">
        <ele>772</ele>
        <time>1970-01-01T01:44:37.000Z</time>
      </trkpt>
      <trkpt lat="42.248551" lon="2.391284">
        <ele>772</ele>
        <time>1970-01-01T01:44:38.000Z</time>
      </trkpt>
      <trkpt lat="42.248559" lon="2.391259">
        <ele>772</ele>
        <time>1970-01-01T01:44:39.000Z</time>
      </trkpt>
      <trkpt lat="42.248567" lon="2.391234">
        <ele>772</ele>
        <time>1970-01-01T01:44:40.000Z</time>
      </trkpt>
      <trkpt lat="42.248575" lon="2.391208">
        <ele>772</ele>
        <time>1970-01-01T01:44:41.000Z</time>
      </trkpt>
      <trkpt lat="42.248584" lon="2.391183">
        <ele>772</ele>
        <time>1970-01-01T01:44:42.000Z</time>
      </trkpt>
      <trkpt lat="42.248592" lon="2.391158">
        <ele>774</ele>
        <time>1970-01-01T01:44:43.000Z</time>
      </trkpt>
      <trkpt lat="42.248618" lon="2.391112">
        <ele>774</ele>
        <time>1970-01-01T01:44:44.000Z</time>
      </trkpt>
      <trkpt lat="42.248633" lon="2.391092">
        <ele>774</ele>
        <time>1970-01-01T01:44:45.000Z</time>
      </trkpt>
      <trkpt lat="42.248648" lon="2.391073">
        <ele>774</ele>
        <time>1970-01-01T01:44:46.000Z</time>
      </trkpt>
      <trkpt lat="42.248663" lon="2.391054">
        <ele>774</ele>
        <time>1970-01-01T01:44:47.000Z</time>
      </trkpt>
      <trkpt lat="42.248678" lon="2.391035">
        <ele>774</ele>
        <time>1970-01-01T01:44:48.000Z</time>
      </trkpt>
      <trkpt lat="42.248692" lon="2.391015">
        <ele>774</ele>
        <time>1970-01-01T01:44:49.000Z</time>
      </trkpt>
      <trkpt lat="42.248707" lon="2.390996">
        <ele>774</ele>
        <time>1970-01-01T01:44:50.000Z</time>
      </trkpt>
      <trkpt lat="42.248722" lon="2.390977">
        <ele>774</ele>
        <time>1970-01-01T01:44:51.000Z</time>
      </trkpt>
      <trkpt lat="42.248737" lon="2.390957">
        <ele>774</ele>
        <time>1970-01-01T01:44:52.000Z</time>
      </trkpt>
      <trkpt lat="42.248752" lon="2.390938">
        <ele>775</ele>
        <time>1970-01-01T01:44:53.000Z</time>
      </trkpt>
      <trkpt lat="42.24879" lon="2.390912">
        <ele>775</ele>
        <time>1970-01-01T01:44:54.000Z</time>
      </trkpt>
      <trkpt lat="42.24881" lon="2.390905">
        <ele>775</ele>
        <time>1970-01-01T01:44:55.000Z</time>
      </trkpt>
      <trkpt lat="42.248829" lon="2.390897">
        <ele>775</ele>
        <time>1970-01-01T01:44:56.000Z</time>
      </trkpt>
      <trkpt lat="42.248849" lon="2.39089">
        <ele>775</ele>
        <time>1970-01-01T01:44:57.000Z</time>
      </trkpt>
      <trkpt lat="42.248868" lon="2.390882">
        <ele>775</ele>
        <time>1970-01-01T01:44:58.000Z</time>
      </trkpt>
      <trkpt lat="42.248887" lon="2.390874">
        <ele>775</ele>
        <time>1970-01-01T01:44:59.000Z</time>
      </trkpt>
      <trkpt lat="42.248907" lon="2.390867">
        <ele>775</ele>
        <time>1970-01-01T01:45:00.000Z</time>
      </trkpt>
      <trkpt lat="42.248926" lon="2.390859">
        <ele>775</ele>
        <time>1970-01-01T01:45:01.000Z</time>
      </trkpt>
      <trkpt lat="42.248946" lon="2.390852">
        <ele>775</ele>
        <time>1970-01-01T01:45:02.000Z</time>
      </trkpt>
      <trkpt lat="42.248965" lon="2.390844">
        <ele>777</ele>
        <time>1970-01-01T01:45:03.000Z</time>
      </trkpt>
      <trkpt lat="42.249006" lon="2.390834">
        <ele>777</ele>
        <time>1970-01-01T01:45:04.000Z</time>
      </trkpt>
      <trkpt lat="42.249026" lon="2.390827">
        <ele>777</ele>
        <time>1970-01-01T01:45:05.000Z</time>
      </trkpt>
      <trkpt lat="42.249045" lon="2.39082">
        <ele>777</ele>
        <time>1970-01-01T01:45:06.000Z</time>
      </trkpt>
      <trkpt lat="42.249064" lon="2.390813">
        <ele>777</ele>
        <time>1970-01-01T01:45:07.000Z</time>
      </trkpt>
      <trkpt lat="42.249084" lon="2.390806">
        <ele>777</ele>
        <time>1970-01-01T01:45:08.000Z</time>
      </trkpt>
      <trkpt lat="42.249103" lon="2.390798">
        <ele>777</ele>
        <time>1970-01-01T01:45:09.000Z</time>
      </trkpt>
      <trkpt lat="42.249122" lon="2.390791">
        <ele>777</ele>
        <time>1970-01-01T01:45:10.000Z</time>
      </trkpt>
      <trkpt lat="42.249141" lon="2.390784">
        <ele>777</ele>
        <time>1970-01-01T01:45:11.000Z</time>
      </trkpt>
      <trkpt lat="42.249161" lon="2.390777">
        <ele>777</ele>
        <time>1970-01-01T01:45:12.000Z</time>
      </trkpt>
      <trkpt lat="42.24918" lon="2.39077">
        <ele>779</ele>
        <time>1970-01-01T01:45:13.000Z</time>
      </trkpt>
      <trkpt lat="42.249221" lon="2.390743">
        <ele>779</ele>
        <time>1970-01-01T01:45:14.000Z</time>
      </trkpt>
      <trkpt lat="42.249241" lon="2.390729">
        <ele>779</ele>
        <time>1970-01-01T01:45:15.000Z</time>
      </trkpt>
      <trkpt lat="42.249262" lon="2.390716">
        <ele>779</ele>
        <time>1970-01-01T01:45:16.000Z</time>
      </trkpt>
      <trkpt lat="42.249283" lon="2.390702">
        <ele>779</ele>
        <time>1970-01-01T01:45:17.000Z</time>
      </trkpt>
      <trkpt lat="42.249304" lon="2.390689">
        <ele>779</ele>
        <time>1970-01-01T01:45:18.000Z</time>
      </trkpt>
      <trkpt lat="42.249324" lon="2.390676">
        <ele>779</ele>
        <time>1970-01-01T01:45:19.000Z</time>
      </trkpt>
      <trkpt lat="42.249345" lon="2.390662">
        <ele>779</ele>
        <time>1970-01-01T01:45:20.000Z</time>
      </trkpt>
      <trkpt lat="42.249366" lon="2.390649">
        <ele>779</ele>
        <time>1970-01-01T01:45:21.000Z</time>
      </trkpt>
      <trkpt lat="42.249386" lon="2.390635">
        <ele>779</ele>
        <time>1970-01-01T01:45:22.000Z</time>
      </trkpt>
      <trkpt lat="42.249407" lon="2.390622">
        <ele>780</ele>
        <time>1970-01-01T01:45:23.000Z</time>
      </trkpt>
      <trkpt lat="42.24945" lon="2.3906">
        <ele>780</ele>
        <time>1970-01-01T01:45:24.000Z</time>
      </trkpt>
      <trkpt lat="42.249469" lon="2.39059">
        <ele>780</ele>
        <time>1970-01-01T01:45:25.000Z</time>
      </trkpt>
      <trkpt lat="42.249489" lon="2.39058">
        <ele>780</ele>
        <time>1970-01-01T01:45:26.000Z</time>
      </trkpt>
      <trkpt lat="42.249508" lon="2.39057">
        <ele>780</ele>
        <time>1970-01-01T01:45:27.000Z</time>
      </trkpt>
      <trkpt lat="42.249528" lon="2.39056">
        <ele>780</ele>
        <time>1970-01-01T01:45:28.000Z</time>
      </trkpt>
      <trkpt lat="42.249547" lon="2.390549">
        <ele>780</ele>
        <time>1970-01-01T01:45:29.000Z</time>
      </trkpt>
      <trkpt lat="42.249567" lon="2.390539">
        <ele>780</ele>
        <time>1970-01-01T01:45:30.000Z</time>
      </trkpt>
      <trkpt lat="42.249586" lon="2.390529">
        <ele>780</ele>
        <time>1970-01-01T01:45:31.000Z</time>
      </trkpt>
      <trkpt lat="42.249606" lon="2.390519">
        <ele>780</ele>
        <time>1970-01-01T01:45:32.000Z</time>
      </trkpt>
      <trkpt lat="42.249625" lon="2.390509">
        <ele>781</ele>
        <time>1970-01-01T01:45:33.000Z</time>
      </trkpt>
      <trkpt lat="42.249665" lon="2.390487">
        <ele>781</ele>
        <time>1970-01-01T01:45:34.000Z</time>
      </trkpt>
      <trkpt lat="42.249684" lon="2.390475">
        <ele>781</ele>
        <time>1970-01-01T01:45:35.000Z</time>
      </trkpt>
      <trkpt lat="42.249702" lon="2.390464">
        <ele>781</ele>
        <time>1970-01-01T01:45:36.000Z</time>
      </trkpt>
      <trkpt lat="42.249721" lon="2.390452">
        <ele>781</ele>
        <time>1970-01-01T01:45:37.000Z</time>
      </trkpt>
      <trkpt lat="42.249739" lon="2.390441">
        <ele>781</ele>
        <time>1970-01-01T01:45:38.000Z</time>
      </trkpt>
      <trkpt lat="42.249757" lon="2.390429">
        <ele>781</ele>
        <time>1970-01-01T01:45:39.000Z</time>
      </trkpt>
      <trkpt lat="42.249776" lon="2.390418">
        <ele>781</ele>
        <time>1970-01-01T01:45:40.000Z</time>
      </trkpt>
      <trkpt lat="42.249794" lon="2.390406">
        <ele>781</ele>
        <time>1970-01-01T01:45:41.000Z</time>
      </trkpt>
      <trkpt lat="42.249813" lon="2.390395">
        <ele>781</ele>
        <time>1970-01-01T01:45:42.000Z</time>
      </trkpt>
      <trkpt lat="42.249831" lon="2.390383">
        <ele>783</ele>
        <time>1970-01-01T01:45:43.000Z</time>
      </trkpt>
      <trkpt lat="42.249874" lon="2.390367">
        <ele>783</ele>
        <time>1970-01-01T01:45:44.000Z</time>
      </trkpt>
      <trkpt lat="42.249895" lon="2.390361">
        <ele>783</ele>
        <time>1970-01-01T01:45:45.000Z</time>
      </trkpt>
      <trkpt lat="42.249915" lon="2.390356">
        <ele>783</ele>
        <time>1970-01-01T01:45:46.000Z</time>
      </trkpt>
      <trkpt lat="42.249936" lon="2.39035">
        <ele>783</ele>
        <time>1970-01-01T01:45:47.000Z</time>
      </trkpt>
      <trkpt lat="42.249957" lon="2.390345">
        <ele>783</ele>
        <time>1970-01-01T01:45:48.000Z</time>
      </trkpt>
      <trkpt lat="42.249978" lon="2.390339">
        <ele>783</ele>
        <time>1970-01-01T01:45:49.000Z</time>
      </trkpt>
      <trkpt lat="42.249999" lon="2.390334">
        <ele>783</ele>
        <time>1970-01-01T01:45:50.000Z</time>
      </trkpt>
      <trkpt lat="42.250019" lon="2.390328">
        <ele>783</ele>
        <time>1970-01-01T01:45:51.000Z</time>
      </trkpt>
      <trkpt lat="42.25004" lon="2.390323">
        <ele>783</ele>
        <time>1970-01-01T01:45:52.000Z</time>
      </trkpt>
      <trkpt lat="42.250061" lon="2.390317">
        <ele>784</ele>
        <time>1970-01-01T01:45:53.000Z</time>
      </trkpt>
      <trkpt lat="42.250104" lon="2.390324">
        <ele>784</ele>
        <time>1970-01-01T01:45:54.000Z</time>
      </trkpt>
      <trkpt lat="42.250123" lon="2.39033">
        <ele>784</ele>
        <time>1970-01-01T01:45:55.000Z</time>
      </trkpt>
      <trkpt lat="42.250142" lon="2.390336">
        <ele>784</ele>
        <time>1970-01-01T01:45:56.000Z</time>
      </trkpt>
      <trkpt lat="42.250161" lon="2.390342">
        <ele>784</ele>
        <time>1970-01-01T01:45:57.000Z</time>
      </trkpt>
      <trkpt lat="42.25018" lon="2.390348">
        <ele>784</ele>
        <time>1970-01-01T01:45:58.000Z</time>
      </trkpt>
      <trkpt lat="42.250198" lon="2.390354">
        <ele>784</ele>
        <time>1970-01-01T01:45:59.000Z</time>
      </trkpt>
      <trkpt lat="42.250217" lon="2.39036">
        <ele>784</ele>
        <time>1970-01-01T01:46:00.000Z</time>
      </trkpt>
      <trkpt lat="42.250236" lon="2.390366">
        <ele>784</ele>
        <time>1970-01-01T01:46:01.000Z</time>
      </trkpt>
      <trkpt lat="42.250255" lon="2.390372">
        <ele>784</ele>
        <time>1970-01-01T01:46:02.000Z</time>
      </trkpt>
      <trkpt lat="42.250274" lon="2.390378">
        <ele>786</ele>
        <time>1970-01-01T01:46:03.000Z</time>
      </trkpt>
      <trkpt lat="42.250311" lon="2.390379">
        <ele>786</ele>
        <time>1970-01-01T01:46:04.000Z</time>
      </trkpt>
      <trkpt lat="42.250329" lon="2.390374">
        <ele>786</ele>
        <time>1970-01-01T01:46:05.000Z</time>
      </trkpt>
      <trkpt lat="42.250348" lon="2.390369">
        <ele>786</ele>
        <time>1970-01-01T01:46:06.000Z</time>
      </trkpt>
      <trkpt lat="42.250367" lon="2.390364">
        <ele>786</ele>
        <time>1970-01-01T01:46:07.000Z</time>
      </trkpt>
      <trkpt lat="42.250386" lon="2.39036">
        <ele>786</ele>
        <time>1970-01-01T01:46:08.000Z</time>
      </trkpt>
      <trkpt lat="42.250404" lon="2.390355">
        <ele>786</ele>
        <time>1970-01-01T01:46:09.000Z</time>
      </trkpt>
      <trkpt lat="42.250423" lon="2.39035">
        <ele>786</ele>
        <time>1970-01-01T01:46:10.000Z</time>
      </trkpt>
      <trkpt lat="42.250442" lon="2.390345">
        <ele>786</ele>
        <time>1970-01-01T01:46:11.000Z</time>
      </trkpt>
      <trkpt lat="42.25046" lon="2.39034">
        <ele>786</ele>
        <time>1970-01-01T01:46:12.000Z</time>
      </trkpt>
      <trkpt lat="42.250479" lon="2.390335">
        <ele>788</ele>
        <time>1970-01-01T01:46:13.000Z</time>
      </trkpt>
      <trkpt lat="42.250518" lon="2.390309">
        <ele>788</ele>
        <time>1970-01-01T01:46:14.000Z</time>
      </trkpt>
      <trkpt lat="42.250536" lon="2.390297">
        <ele>788</ele>
        <time>1970-01-01T01:46:15.000Z</time>
      </trkpt>
      <trkpt lat="42.250553" lon="2.390286">
        <ele>788</ele>
        <time>1970-01-01T01:46:16.000Z</time>
      </trkpt>
      <trkpt lat="42.250571" lon="2.390274">
        <ele>788</ele>
        <time>1970-01-01T01:46:17.000Z</time>
      </trkpt>
      <trkpt lat="42.250588" lon="2.390262">
        <ele>788</ele>
        <time>1970-01-01T01:46:18.000Z</time>
      </trkpt>
      <trkpt lat="42.250605" lon="2.39025">
        <ele>788</ele>
        <time>1970-01-01T01:46:19.000Z</time>
      </trkpt>
      <trkpt lat="42.250623" lon="2.390238">
        <ele>788</ele>
        <time>1970-01-01T01:46:20.000Z</time>
      </trkpt>
      <trkpt lat="42.25064" lon="2.390227">
        <ele>788</ele>
        <time>1970-01-01T01:46:21.000Z</time>
      </trkpt>
      <trkpt lat="42.250658" lon="2.390215">
        <ele>788</ele>
        <time>1970-01-01T01:46:22.000Z</time>
      </trkpt>
      <trkpt lat="42.250675" lon="2.390203">
        <ele>789</ele>
        <time>1970-01-01T01:46:23.000Z</time>
      </trkpt>
      <trkpt lat="42.250715" lon="2.390192">
        <ele>789</ele>
        <time>1970-01-01T01:46:24.000Z</time>
      </trkpt>
      <trkpt lat="42.250735" lon="2.390188">
        <ele>789</ele>
        <time>1970-01-01T01:46:25.000Z</time>
      </trkpt>
      <trkpt lat="42.250755" lon="2.390183">
        <ele>789</ele>
        <time>1970-01-01T01:46:26.000Z</time>
      </trkpt>
      <trkpt lat="42.250775" lon="2.390179">
        <ele>789</ele>
        <time>1970-01-01T01:46:27.000Z</time>
      </trkpt>
      <trkpt lat="42.250796" lon="2.390175">
        <ele>789</ele>
        <time>1970-01-01T01:46:28.000Z</time>
      </trkpt>
      <trkpt lat="42.250816" lon="2.390171">
        <ele>789</ele>
        <time>1970-01-01T01:46:29.000Z</time>
      </trkpt>
      <trkpt lat="42.250836" lon="2.390167">
        <ele>789</ele>
        <time>1970-01-01T01:46:30.000Z</time>
      </trkpt>
      <trkpt lat="42.250856" lon="2.390162">
        <ele>789</ele>
        <time>1970-01-01T01:46:31.000Z</time>
      </trkpt>
      <trkpt lat="42.250876" lon="2.390158">
        <ele>789</ele>
        <time>1970-01-01T01:46:32.000Z</time>
      </trkpt>
      <trkpt lat="42.250896" lon="2.390154">
        <ele>790</ele>
        <time>1970-01-01T01:46:33.000Z</time>
      </trkpt>
      <trkpt lat="42.250938" lon="2.390155">
        <ele>790</ele>
        <time>1970-01-01T01:46:34.000Z</time>
      </trkpt>
      <trkpt lat="42.250959" lon="2.390159">
        <ele>790</ele>
        <time>1970-01-01T01:46:35.000Z</time>
      </trkpt>
      <trkpt lat="42.250979" lon="2.390164">
        <ele>790</ele>
        <time>1970-01-01T01:46:36.000Z</time>
      </trkpt>
      <trkpt lat="42.251" lon="2.390168">
        <ele>790</ele>
        <time>1970-01-01T01:46:37.000Z</time>
      </trkpt>
      <trkpt lat="42.25102" lon="2.390172">
        <ele>790</ele>
        <time>1970-01-01T01:46:38.000Z</time>
      </trkpt>
      <trkpt lat="42.25104" lon="2.390176">
        <ele>790</ele>
        <time>1970-01-01T01:46:39.000Z</time>
      </trkpt>
      <trkpt lat="42.251061" lon="2.39018">
        <ele>790</ele>
        <time>1970-01-01T01:46:40.000Z</time>
      </trkpt>
      <trkpt lat="42.251081" lon="2.390185">
        <ele>790</ele>
        <time>1970-01-01T01:46:41.000Z</time>
      </trkpt>
      <trkpt lat="42.251102" lon="2.390189">
        <ele>790</ele>
        <time>1970-01-01T01:46:42.000Z</time>
      </trkpt>
      <trkpt lat="42.251122" lon="2.390193">
        <ele>791</ele>
        <time>1970-01-01T01:46:43.000Z</time>
      </trkpt>
      <trkpt lat="42.25116" lon="2.39021">
        <ele>791</ele>
        <time>1970-01-01T01:46:44.000Z</time>
      </trkpt>
      <trkpt lat="42.251179" lon="2.390219">
        <ele>791</ele>
        <time>1970-01-01T01:46:45.000Z</time>
      </trkpt>
      <trkpt lat="42.251198" lon="2.390227">
        <ele>791</ele>
        <time>1970-01-01T01:46:46.000Z</time>
      </trkpt>
      <trkpt lat="42.251217" lon="2.390235">
        <ele>791</ele>
        <time>1970-01-01T01:46:47.000Z</time>
      </trkpt>
      <trkpt lat="42.251236" lon="2.390243">
        <ele>791</ele>
        <time>1970-01-01T01:46:48.000Z</time>
      </trkpt>
      <trkpt lat="42.251255" lon="2.390252">
        <ele>791</ele>
        <time>1970-01-01T01:46:49.000Z</time>
      </trkpt>
      <trkpt lat="42.251274" lon="2.39026">
        <ele>791</ele>
        <time>1970-01-01T01:46:50.000Z</time>
      </trkpt>
      <trkpt lat="42.251293" lon="2.390268">
        <ele>791</ele>
        <time>1970-01-01T01:46:51.000Z</time>
      </trkpt>
      <trkpt lat="42.251312" lon="2.390277">
        <ele>791</ele>
        <time>1970-01-01T01:46:52.000Z</time>
      </trkpt>
      <trkpt lat="42.251331" lon="2.390285">
        <ele>792</ele>
        <time>1970-01-01T01:46:53.000Z</time>
      </trkpt>
      <trkpt lat="42.251374" lon="2.390294">
        <ele>792</ele>
        <time>1970-01-01T01:46:54.000Z</time>
      </trkpt>
      <trkpt lat="42.251395" lon="2.390296">
        <ele>792</ele>
        <time>1970-01-01T01:46:55.000Z</time>
      </trkpt>
      <trkpt lat="42.251416" lon="2.390299">
        <ele>792</ele>
        <time>1970-01-01T01:46:56.000Z</time>
      </trkpt>
      <trkpt lat="42.251437" lon="2.390301">
        <ele>792</ele>
        <time>1970-01-01T01:46:57.000Z</time>
      </trkpt>
      <trkpt lat="42.251458" lon="2.390303">
        <ele>792</ele>
        <time>1970-01-01T01:46:58.000Z</time>
      </trkpt>
      <trkpt lat="42.251478" lon="2.390305">
        <ele>792</ele>
        <time>1970-01-01T01:46:59.000Z</time>
      </trkpt>
      <trkpt lat="42.251499" lon="2.390307">
        <ele>792</ele>
        <time>1970-01-01T01:47:00.000Z</time>
      </trkpt>
      <trkpt lat="42.25152" lon="2.39031">
        <ele>792</ele>
        <time>1970-01-01T01:47:01.000Z</time>
      </trkpt>
      <trkpt lat="42.251541" lon="2.390312">
        <ele>792</ele>
        <time>1970-01-01T01:47:02.000Z</time>
      </trkpt>
      <trkpt lat="42.251562" lon="2.390314">
        <ele>794</ele>
        <time>1970-01-01T01:47:03.000Z</time>
      </trkpt>
      <trkpt lat="42.251606" lon="2.390299">
        <ele>794</ele>
        <time>1970-01-01T01:47:04.000Z</time>
      </trkpt>
      <trkpt lat="42.251625" lon="2.39029">
        <ele>794</ele>
        <time>1970-01-01T01:47:05.000Z</time>
      </trkpt>
      <trkpt lat="42.251645" lon="2.390281">
        <ele>794</ele>
        <time>1970-01-01T01:47:06.000Z</time>
      </trkpt>
      <trkpt lat="42.251664" lon="2.390272">
        <ele>794</ele>
        <time>1970-01-01T01:47:07.000Z</time>
      </trkpt>
      <trkpt lat="42.251684" lon="2.390263">
        <ele>794</ele>
        <time>1970-01-01T01:47:08.000Z</time>
      </trkpt>
      <trkpt lat="42.251704" lon="2.390253">
        <ele>794</ele>
        <time>1970-01-01T01:47:09.000Z</time>
      </trkpt>
      <trkpt lat="42.251723" lon="2.390244">
        <ele>794</ele>
        <time>1970-01-01T01:47:10.000Z</time>
      </trkpt>
      <trkpt lat="42.251743" lon="2.390235">
        <ele>794</ele>
        <time>1970-01-01T01:47:11.000Z</time>
      </trkpt>
      <trkpt lat="42.251762" lon="2.390226">
        <ele>794</ele>
        <time>1970-01-01T01:47:12.000Z</time>
      </trkpt>
      <trkpt lat="42.251782" lon="2.390217">
        <ele>796</ele>
        <time>1970-01-01T01:47:13.000Z</time>
      </trkpt>
      <trkpt lat="42.25182" lon="2.390196">
        <ele>796</ele>
        <time>1970-01-01T01:47:14.000Z</time>
      </trkpt>
      <trkpt lat="42.25184" lon="2.390188">
        <ele>796</ele>
        <time>1970-01-01T01:47:15.000Z</time>
      </trkpt>
      <trkpt lat="42.251859" lon="2.39018">
        <ele>796</ele>
        <time>1970-01-01T01:47:16.000Z</time>
      </trkpt>
      <trkpt lat="42.251878" lon="2.390172">
        <ele>796</ele>
        <time>1970-01-01T01:47:17.000Z</time>
      </trkpt>
      <trkpt lat="42.251898" lon="2.390164">
        <ele>796</ele>
        <time>1970-01-01T01:47:18.000Z</time>
      </trkpt>
      <trkpt lat="42.251917" lon="2.390155">
        <ele>796</ele>
        <time>1970-01-01T01:47:19.000Z</time>
      </trkpt>
      <trkpt lat="42.251936" lon="2.390147">
        <ele>796</ele>
        <time>1970-01-01T01:47:20.000Z</time>
      </trkpt>
      <trkpt lat="42.251955" lon="2.390139">
        <ele>796</ele>
        <time>1970-01-01T01:47:21.000Z</time>
      </trkpt>
      <trkpt lat="42.251975" lon="2.390131">
        <ele>796</ele>
        <time>1970-01-01T01:47:22.000Z</time>
      </trkpt>
      <trkpt lat="42.251994" lon="2.390123">
        <ele>797</ele>
        <time>1970-01-01T01:47:23.000Z</time>
      </trkpt>
      <trkpt lat="42.252037" lon="2.390117">
        <ele>797</ele>
        <time>1970-01-01T01:47:24.000Z</time>
      </trkpt>
      <trkpt lat="42.252058" lon="2.390115">
        <ele>797</ele>
        <time>1970-01-01T01:47:25.000Z</time>
      </trkpt>
      <trkpt lat="42.252078" lon="2.390114">
        <ele>797</ele>
        <time>1970-01-01T01:47:26.000Z</time>
      </trkpt>
      <trkpt lat="42.252099" lon="2.390112">
        <ele>797</ele>
        <time>1970-01-01T01:47:27.000Z</time>
      </trkpt>
      <trkpt lat="42.25212" lon="2.39011">
        <ele>797</ele>
        <time>1970-01-01T01:47:28.000Z</time>
      </trkpt>
      <trkpt lat="42.252141" lon="2.390108">
        <ele>797</ele>
        <time>1970-01-01T01:47:29.000Z</time>
      </trkpt>
      <trkpt lat="42.252161" lon="2.390107">
        <ele>797</ele>
        <time>1970-01-01T01:47:30.000Z</time>
      </trkpt>
      <trkpt lat="42.252182" lon="2.390105">
        <ele>797</ele>
        <time>1970-01-01T01:47:31.000Z</time>
      </trkpt>
      <trkpt lat="42.252203" lon="2.390103">
        <ele>799</ele>
        <time>1970-01-01T01:47:33.000Z</time>
      </trkpt>
      <trkpt lat="42.25224" lon="2.390107">
        <ele>799</ele>
        <time>1970-01-01T01:47:34.000Z</time>
      </trkpt>
      <trkpt lat="42.252259" lon="2.39011">
        <ele>799</ele>
        <time>1970-01-01T01:47:35.000Z</time>
      </trkpt>
      <trkpt lat="42.252277" lon="2.390112">
        <ele>799</ele>
        <time>1970-01-01T01:47:36.000Z</time>
      </trkpt>
      <trkpt lat="42.252295" lon="2.390114">
        <ele>799</ele>
        <time>1970-01-01T01:47:37.000Z</time>
      </trkpt>
      <trkpt lat="42.252314" lon="2.390116">
        <ele>799</ele>
        <time>1970-01-01T01:47:38.000Z</time>
      </trkpt>
      <trkpt lat="42.252332" lon="2.390119">
        <ele>799</ele>
        <time>1970-01-01T01:47:39.000Z</time>
      </trkpt>
      <trkpt lat="42.25235" lon="2.390121">
        <ele>799</ele>
        <time>1970-01-01T01:47:40.000Z</time>
      </trkpt>
      <trkpt lat="42.252368" lon="2.390123">
        <ele>799</ele>
        <time>1970-01-01T01:47:41.000Z</time>
      </trkpt>
      <trkpt lat="42.252387" lon="2.390126">
        <ele>799</ele>
        <time>1970-01-01T01:47:42.000Z</time>
      </trkpt>
      <trkpt lat="42.252405" lon="2.390128">
        <ele>800</ele>
        <time>1970-01-01T01:47:43.000Z</time>
      </trkpt>
      <trkpt lat="42.252443" lon="2.390134">
        <ele>800</ele>
        <time>1970-01-01T01:47:44.000Z</time>
      </trkpt>
      <trkpt lat="42.252461" lon="2.390137">
        <ele>800</ele>
        <time>1970-01-01T01:47:45.000Z</time>
      </trkpt>
      <trkpt lat="42.25248" lon="2.390139">
        <ele>800</ele>
        <time>1970-01-01T01:47:46.000Z</time>
      </trkpt>
      <trkpt lat="42.252498" lon="2.390142">
        <ele>800</ele>
        <time>1970-01-01T01:47:47.000Z</time>
      </trkpt>
      <trkpt lat="42.252516" lon="2.390144">
        <ele>800</ele>
        <time>1970-01-01T01:47:48.000Z</time>
      </trkpt>
      <trkpt lat="42.252534" lon="2.390147">
        <ele>800</ele>
        <time>1970-01-01T01:47:49.000Z</time>
      </trkpt>
      <trkpt lat="42.252552" lon="2.390149">
        <ele>800</ele>
        <time>1970-01-01T01:47:50.000Z</time>
      </trkpt>
      <trkpt lat="42.252571" lon="2.390152">
        <ele>800</ele>
        <time>1970-01-01T01:47:51.000Z</time>
      </trkpt>
      <trkpt lat="42.252589" lon="2.390154">
        <ele>800</ele>
        <time>1970-01-01T01:47:52.000Z</time>
      </trkpt>
      <trkpt lat="42.252607" lon="2.390157">
        <ele>801</ele>
        <time>1970-01-01T01:47:53.000Z</time>
      </trkpt>
      <trkpt lat="42.252644" lon="2.390176">
        <ele>801</ele>
        <time>1970-01-01T01:47:54.000Z</time>
      </trkpt>
      <trkpt lat="42.252662" lon="2.390187">
        <ele>801</ele>
        <time>1970-01-01T01:47:55.000Z</time>
      </trkpt>
      <trkpt lat="42.252679" lon="2.390197">
        <ele>801</ele>
        <time>1970-01-01T01:47:56.000Z</time>
      </trkpt>
      <trkpt lat="42.252697" lon="2.390207">
        <ele>801</ele>
        <time>1970-01-01T01:47:57.000Z</time>
      </trkpt>
      <trkpt lat="42.252715" lon="2.390217">
        <ele>801</ele>
        <time>1970-01-01T01:47:58.000Z</time>
      </trkpt>
      <trkpt lat="42.252733" lon="2.390228">
        <ele>801</ele>
        <time>1970-01-01T01:47:59.000Z</time>
      </trkpt>
      <trkpt lat="42.252751" lon="2.390238">
        <ele>801</ele>
        <time>1970-01-01T01:48:00.000Z</time>
      </trkpt>
      <trkpt lat="42.252768" lon="2.390248">
        <ele>801</ele>
        <time>1970-01-01T01:48:01.000Z</time>
      </trkpt>
      <trkpt lat="42.252786" lon="2.390259">
        <ele>801</ele>
        <time>1970-01-01T01:48:02.000Z</time>
      </trkpt>
      <trkpt lat="42.252804" lon="2.390269">
        <ele>803</ele>
        <time>1970-01-01T01:48:03.000Z</time>
      </trkpt>
      <trkpt lat="42.252835" lon="2.390304">
        <ele>803</ele>
        <time>1970-01-01T01:48:04.000Z</time>
      </trkpt>
      <trkpt lat="42.252846" lon="2.390324">
        <ele>803</ele>
        <time>1970-01-01T01:48:05.000Z</time>
      </trkpt>
      <trkpt lat="42.252858" lon="2.390345">
        <ele>803</ele>
        <time>1970-01-01T01:48:06.000Z</time>
      </trkpt>
      <trkpt lat="42.25287" lon="2.390366">
        <ele>803</ele>
        <time>1970-01-01T01:48:07.000Z</time>
      </trkpt>
      <trkpt lat="42.252882" lon="2.390386">
        <ele>803</ele>
        <time>1970-01-01T01:48:08.000Z</time>
      </trkpt>
      <trkpt lat="42.252893" lon="2.390407">
        <ele>803</ele>
        <time>1970-01-01T01:48:09.000Z</time>
      </trkpt>
      <trkpt lat="42.252905" lon="2.390428">
        <ele>803</ele>
        <time>1970-01-01T01:48:10.000Z</time>
      </trkpt>
      <trkpt lat="42.252917" lon="2.390449">
        <ele>803</ele>
        <time>1970-01-01T01:48:11.000Z</time>
      </trkpt>
      <trkpt lat="42.252928" lon="2.390469">
        <ele>803</ele>
        <time>1970-01-01T01:48:12.000Z</time>
      </trkpt>
      <trkpt lat="42.25294" lon="2.39049">
        <ele>805</ele>
        <time>1970-01-01T01:48:13.000Z</time>
      </trkpt>
      <trkpt lat="42.252955" lon="2.39054">
        <ele>805</ele>
        <time>1970-01-01T01:48:14.000Z</time>
      </trkpt>
      <trkpt lat="42.252959" lon="2.390565">
        <ele>805</ele>
        <time>1970-01-01T01:48:15.000Z</time>
      </trkpt>
      <trkpt lat="42.252964" lon="2.390589">
        <ele>805</ele>
        <time>1970-01-01T01:48:16.000Z</time>
      </trkpt>
      <trkpt lat="42.252968" lon="2.390613">
        <ele>805</ele>
        <time>1970-01-01T01:48:17.000Z</time>
      </trkpt>
      <trkpt lat="42.252973" lon="2.390637">
        <ele>805</ele>
        <time>1970-01-01T01:48:18.000Z</time>
      </trkpt>
      <trkpt lat="42.252978" lon="2.390662">
        <ele>805</ele>
        <time>1970-01-01T01:48:19.000Z</time>
      </trkpt>
      <trkpt lat="42.252982" lon="2.390686">
        <ele>805</ele>
        <time>1970-01-01T01:48:20.000Z</time>
      </trkpt>
      <trkpt lat="42.252987" lon="2.39071">
        <ele>805</ele>
        <time>1970-01-01T01:48:21.000Z</time>
      </trkpt>
      <trkpt lat="42.252991" lon="2.390735">
        <ele>805</ele>
        <time>1970-01-01T01:48:22.000Z</time>
      </trkpt>
      <trkpt lat="42.252996" lon="2.390759">
        <ele>807</ele>
        <time>1970-01-01T01:48:23.000Z</time>
      </trkpt>
      <trkpt lat="42.25301" lon="2.390813">
        <ele>807</ele>
        <time>1970-01-01T01:48:24.000Z</time>
      </trkpt>
      <trkpt lat="42.253019" lon="2.390837">
        <ele>807</ele>
        <time>1970-01-01T01:48:25.000Z</time>
      </trkpt>
      <trkpt lat="42.253029" lon="2.390862">
        <ele>807</ele>
        <time>1970-01-01T01:48:26.000Z</time>
      </trkpt>
      <trkpt lat="42.253038" lon="2.390887">
        <ele>807</ele>
        <time>1970-01-01T01:48:27.000Z</time>
      </trkpt>
      <trkpt lat="42.253047" lon="2.390911">
        <ele>807</ele>
        <time>1970-01-01T01:48:28.000Z</time>
      </trkpt>
      <trkpt lat="42.253056" lon="2.390936">
        <ele>807</ele>
        <time>1970-01-01T01:48:29.000Z</time>
      </trkpt>
      <trkpt lat="42.253065" lon="2.390961">
        <ele>807</ele>
        <time>1970-01-01T01:48:30.000Z</time>
      </trkpt>
      <trkpt lat="42.253075" lon="2.390986">
        <ele>807</ele>
        <time>1970-01-01T01:48:31.000Z</time>
      </trkpt>
      <trkpt lat="42.253084" lon="2.39101">
        <ele>807</ele>
        <time>1970-01-01T01:48:32.000Z</time>
      </trkpt>
      <trkpt lat="42.253093" lon="2.391035">
        <ele>807</ele>
        <time>1970-01-01T01:48:33.000Z</time>
      </trkpt>
      <trkpt lat="42.253124" lon="2.391075">
        <ele>807</ele>
        <time>1970-01-01T01:48:34.000Z</time>
      </trkpt>
      <trkpt lat="42.25314" lon="2.391091">
        <ele>807</ele>
        <time>1970-01-01T01:48:35.000Z</time>
      </trkpt>
      <trkpt lat="42.253156" lon="2.391107">
        <ele>807</ele>
        <time>1970-01-01T01:48:36.000Z</time>
      </trkpt>
      <trkpt lat="42.253172" lon="2.391123">
        <ele>807</ele>
        <time>1970-01-01T01:48:37.000Z</time>
      </trkpt>
      <trkpt lat="42.253189" lon="2.391139">
        <ele>807</ele>
        <time>1970-01-01T01:48:38.000Z</time>
      </trkpt>
      <trkpt lat="42.253205" lon="2.391155">
        <ele>807</ele>
        <time>1970-01-01T01:48:39.000Z</time>
      </trkpt>
      <trkpt lat="42.253221" lon="2.391171">
        <ele>807</ele>
        <time>1970-01-01T01:48:40.000Z</time>
      </trkpt>
      <trkpt lat="42.253237" lon="2.391187">
        <ele>807</ele>
        <time>1970-01-01T01:48:41.000Z</time>
      </trkpt>
      <trkpt lat="42.253253" lon="2.391203">
        <ele>807</ele>
        <time>1970-01-01T01:48:42.000Z</time>
      </trkpt>
      <trkpt lat="42.253269" lon="2.391219">
        <ele>808</ele>
        <time>1970-01-01T01:48:43.000Z</time>
      </trkpt>
      <trkpt lat="42.253307" lon="2.391252">
        <ele>808</ele>
        <time>1970-01-01T01:48:44.000Z</time>
      </trkpt>
      <trkpt lat="42.253326" lon="2.391266">
        <ele>808</ele>
        <time>1970-01-01T01:48:45.000Z</time>
      </trkpt>
      <trkpt lat="42.253344" lon="2.39128">
        <ele>808</ele>
        <time>1970-01-01T01:48:46.000Z</time>
      </trkpt>
      <trkpt lat="42.253363" lon="2.391294">
        <ele>808</ele>
        <time>1970-01-01T01:48:47.000Z</time>
      </trkpt>
      <trkpt lat="42.253382" lon="2.391308">
        <ele>808</ele>
        <time>1970-01-01T01:48:48.000Z</time>
      </trkpt>
      <trkpt lat="42.253401" lon="2.391322">
        <ele>808</ele>
        <time>1970-01-01T01:48:49.000Z</time>
      </trkpt>
      <trkpt lat="42.25342" lon="2.391336">
        <ele>808</ele>
        <time>1970-01-01T01:48:50.000Z</time>
      </trkpt>
      <trkpt lat="42.253438" lon="2.39135">
        <ele>808</ele>
        <time>1970-01-01T01:48:51.000Z</time>
      </trkpt>
      <trkpt lat="42.253457" lon="2.391364">
        <ele>808</ele>
        <time>1970-01-01T01:48:52.000Z</time>
      </trkpt>
      <trkpt lat="42.253476" lon="2.391378">
        <ele>810</ele>
        <time>1970-01-01T01:48:53.000Z</time>
      </trkpt>
      <trkpt lat="42.253514" lon="2.391414">
        <ele>810</ele>
        <time>1970-01-01T01:48:54.000Z</time>
      </trkpt>
      <trkpt lat="42.253531" lon="2.391433">
        <ele>810</ele>
        <time>1970-01-01T01:48:55.000Z</time>
      </trkpt>
      <trkpt lat="42.253548" lon="2.391453">
        <ele>810</ele>
        <time>1970-01-01T01:48:56.000Z</time>
      </trkpt>
      <trkpt lat="42.253565" lon="2.391472">
        <ele>810</ele>
        <time>1970-01-01T01:48:57.000Z</time>
      </trkpt>
      <trkpt lat="42.253582" lon="2.391491">
        <ele>810</ele>
        <time>1970-01-01T01:48:58.000Z</time>
      </trkpt>
      <trkpt lat="42.253599" lon="2.39151">
        <ele>810</ele>
        <time>1970-01-01T01:48:59.000Z</time>
      </trkpt>
      <trkpt lat="42.253616" lon="2.391529">
        <ele>810</ele>
        <time>1970-01-01T01:49:00.000Z</time>
      </trkpt>
      <trkpt lat="42.253633" lon="2.391549">
        <ele>810</ele>
        <time>1970-01-01T01:49:01.000Z</time>
      </trkpt>
      <trkpt lat="42.25365" lon="2.391568">
        <ele>810</ele>
        <time>1970-01-01T01:49:02.000Z</time>
      </trkpt>
      <trkpt lat="42.253667" lon="2.391587">
        <ele>810</ele>
        <time>1970-01-01T01:49:03.000Z</time>
      </trkpt>
      <trkpt lat="42.253695" lon="2.391634">
        <ele>810</ele>
        <time>1970-01-01T01:49:04.000Z</time>
      </trkpt>
      <trkpt lat="42.253708" lon="2.391659">
        <ele>810</ele>
        <time>1970-01-01T01:49:05.000Z</time>
      </trkpt>
      <trkpt lat="42.25372" lon="2.391683">
        <ele>810</ele>
        <time>1970-01-01T01:49:06.000Z</time>
      </trkpt>
      <trkpt lat="42.253733" lon="2.391707">
        <ele>810</ele>
        <time>1970-01-01T01:49:07.000Z</time>
      </trkpt>
      <trkpt lat="42.253746" lon="2.391731">
        <ele>810</ele>
        <time>1970-01-01T01:49:08.000Z</time>
      </trkpt>
      <trkpt lat="42.253759" lon="2.391756">
        <ele>810</ele>
        <time>1970-01-01T01:49:09.000Z</time>
      </trkpt>
      <trkpt lat="42.253772" lon="2.39178">
        <ele>810</ele>
        <time>1970-01-01T01:49:10.000Z</time>
      </trkpt>
      <trkpt lat="42.253784" lon="2.391804">
        <ele>810</ele>
        <time>1970-01-01T01:49:11.000Z</time>
      </trkpt>
      <trkpt lat="42.253797" lon="2.391829">
        <ele>810</ele>
        <time>1970-01-01T01:49:12.000Z</time>
      </trkpt>
      <trkpt lat="42.25381" lon="2.391853">
        <ele>811</ele>
        <time>1970-01-01T01:49:13.000Z</time>
      </trkpt>
      <trkpt lat="42.253833" lon="2.391898">
        <ele>811</ele>
        <time>1970-01-01T01:49:14.000Z</time>
      </trkpt>
      <trkpt lat="42.253843" lon="2.39192">
        <ele>811</ele>
        <time>1970-01-01T01:49:15.000Z</time>
      </trkpt>
      <trkpt lat="42.253852" lon="2.391943">
        <ele>811</ele>
        <time>1970-01-01T01:49:16.000Z</time>
      </trkpt>
      <trkpt lat="42.253861" lon="2.391965">
        <ele>811</ele>
        <time>1970-01-01T01:49:17.000Z</time>
      </trkpt>
      <trkpt lat="42.253871" lon="2.391988">
        <ele>811</ele>
        <time>1970-01-01T01:49:18.000Z</time>
      </trkpt>
      <trkpt lat="42.25388" lon="2.392011">
        <ele>811</ele>
        <time>1970-01-01T01:49:19.000Z</time>
      </trkpt>
      <trkpt lat="42.253889" lon="2.392033">
        <ele>811</ele>
        <time>1970-01-01T01:49:20.000Z</time>
      </trkpt>
      <trkpt lat="42.253898" lon="2.392056">
        <ele>811</ele>
        <time>1970-01-01T01:49:21.000Z</time>
      </trkpt>
      <trkpt lat="42.253908" lon="2.392078">
        <ele>811</ele>
        <time>1970-01-01T01:49:22.000Z</time>
      </trkpt>
      <trkpt lat="42.253917" lon="2.392101">
        <ele>812</ele>
        <time>1970-01-01T01:49:23.000Z</time>
      </trkpt>
      <trkpt lat="42.253927" lon="2.392156">
        <ele>812</ele>
        <time>1970-01-01T01:49:24.000Z</time>
      </trkpt>
      <trkpt lat="42.253928" lon="2.392182">
        <ele>812</ele>
        <time>1970-01-01T01:49:25.000Z</time>
      </trkpt>
      <trkpt lat="42.253929" lon="2.392209">
        <ele>812</ele>
        <time>1970-01-01T01:49:26.000Z</time>
      </trkpt>
      <trkpt lat="42.25393" lon="2.392236">
        <ele>812</ele>
        <time>1970-01-01T01:49:27.000Z</time>
      </trkpt>
      <trkpt lat="42.253932" lon="2.392262">
        <ele>812</ele>
        <time>1970-01-01T01:49:28.000Z</time>
      </trkpt>
      <trkpt lat="42.253933" lon="2.392289">
        <ele>812</ele>
        <time>1970-01-01T01:49:29.000Z</time>
      </trkpt>
      <trkpt lat="42.253934" lon="2.392316">
        <ele>812</ele>
        <time>1970-01-01T01:49:30.000Z</time>
      </trkpt>
      <trkpt lat="42.253935" lon="2.392343">
        <ele>812</ele>
        <time>1970-01-01T01:49:31.000Z</time>
      </trkpt>
      <trkpt lat="42.253936" lon="2.392369">
        <ele>812</ele>
        <time>1970-01-01T01:49:32.000Z</time>
      </trkpt>
      <trkpt lat="42.253937" lon="2.392396">
        <ele>815</ele>
        <time>1970-01-01T01:49:33.000Z</time>
      </trkpt>
      <trkpt lat="42.253922" lon="2.392446">
        <ele>815</ele>
        <time>1970-01-01T01:49:34.000Z</time>
      </trkpt>
      <trkpt lat="42.253914" lon="2.39247">
        <ele>815</ele>
        <time>1970-01-01T01:49:35.000Z</time>
      </trkpt>
      <trkpt lat="42.253906" lon="2.392494">
        <ele>815</ele>
        <time>1970-01-01T01:49:36.000Z</time>
      </trkpt>
      <trkpt lat="42.253898" lon="2.392518">
        <ele>815</ele>
        <time>1970-01-01T01:49:37.000Z</time>
      </trkpt>
      <trkpt lat="42.253891" lon="2.392542">
        <ele>815</ele>
        <time>1970-01-01T01:49:38.000Z</time>
      </trkpt>
      <trkpt lat="42.253883" lon="2.392566">
        <ele>815</ele>
        <time>1970-01-01T01:49:39.000Z</time>
      </trkpt>
      <trkpt lat="42.253875" lon="2.39259">
        <ele>815</ele>
        <time>1970-01-01T01:49:40.000Z</time>
      </trkpt>
      <trkpt lat="42.253867" lon="2.392614">
        <ele>815</ele>
        <time>1970-01-01T01:49:41.000Z</time>
      </trkpt>
      <trkpt lat="42.253859" lon="2.392638">
        <ele>815</ele>
        <time>1970-01-01T01:49:42.000Z</time>
      </trkpt>
      <trkpt lat="42.253851" lon="2.392662">
        <ele>817</ele>
        <time>1970-01-01T01:49:43.000Z</time>
      </trkpt>
      <trkpt lat="42.253834" lon="2.392719">
        <ele>817</ele>
        <time>1970-01-01T01:49:44.000Z</time>
      </trkpt>
      <trkpt lat="42.253827" lon="2.392747">
        <ele>817</ele>
        <time>1970-01-01T01:49:45.000Z</time>
      </trkpt>
      <trkpt lat="42.253819" lon="2.392775">
        <ele>817</ele>
        <time>1970-01-01T01:49:46.000Z</time>
      </trkpt>
      <trkpt lat="42.253812" lon="2.392803">
        <ele>817</ele>
        <time>1970-01-01T01:49:47.000Z</time>
      </trkpt>
      <trkpt lat="42.253804" lon="2.392831">
        <ele>817</ele>
        <time>1970-01-01T01:49:48.000Z</time>
      </trkpt>
      <trkpt lat="42.253796" lon="2.392858">
        <ele>817</ele>
        <time>1970-01-01T01:49:49.000Z</time>
      </trkpt>
      <trkpt lat="42.253789" lon="2.392886">
        <ele>817</ele>
        <time>1970-01-01T01:49:50.000Z</time>
      </trkpt>
      <trkpt lat="42.253781" lon="2.392914">
        <ele>817</ele>
        <time>1970-01-01T01:49:51.000Z</time>
      </trkpt>
      <trkpt lat="42.253774" lon="2.392942">
        <ele>817</ele>
        <time>1970-01-01T01:49:52.000Z</time>
      </trkpt>
      <trkpt lat="42.253766" lon="2.39297">
        <ele>819</ele>
        <time>1970-01-01T01:49:53.000Z</time>
      </trkpt>
      <trkpt lat="42.253746" lon="2.393023">
        <ele>819</ele>
        <time>1970-01-01T01:49:54.000Z</time>
      </trkpt>
      <trkpt lat="42.253735" lon="2.393047">
        <ele>819</ele>
        <time>1970-01-01T01:49:55.000Z</time>
      </trkpt>
      <trkpt lat="42.253725" lon="2.393072">
        <ele>819</ele>
        <time>1970-01-01T01:49:56.000Z</time>
      </trkpt>
      <trkpt lat="42.253714" lon="2.393096">
        <ele>819</ele>
        <time>1970-01-01T01:49:57.000Z</time>
      </trkpt>
      <trkpt lat="42.253704" lon="2.393121">
        <ele>819</ele>
        <time>1970-01-01T01:49:58.000Z</time>
      </trkpt>
      <trkpt lat="42.253693" lon="2.393145">
        <ele>819</ele>
        <time>1970-01-01T01:49:59.000Z</time>
      </trkpt>
      <trkpt lat="42.253683" lon="2.39317">
        <ele>819</ele>
        <time>1970-01-01T01:50:00.000Z</time>
      </trkpt>
      <trkpt lat="42.253672" lon="2.393194">
        <ele>819</ele>
        <time>1970-01-01T01:50:01.000Z</time>
      </trkpt>
      <trkpt lat="42.253662" lon="2.393219">
        <ele>819</ele>
        <time>1970-01-01T01:50:02.000Z</time>
      </trkpt>
      <trkpt lat="42.253651" lon="2.393243">
        <ele>820</ele>
        <time>1970-01-01T01:50:03.000Z</time>
      </trkpt>
      <trkpt lat="42.253634" lon="2.3933">
        <ele>820</ele>
        <time>1970-01-01T01:50:04.000Z</time>
      </trkpt>
      <trkpt lat="42.25363" lon="2.393329">
        <ele>820</ele>
        <time>1970-01-01T01:50:05.000Z</time>
      </trkpt>
      <trkpt lat="42.253625" lon="2.393358">
        <ele>820</ele>
        <time>1970-01-01T01:50:06.000Z</time>
      </trkpt>
      <trkpt lat="42.253621" lon="2.393387">
        <ele>820</ele>
        <time>1970-01-01T01:50:07.000Z</time>
      </trkpt>
      <trkpt lat="42.253616" lon="2.393416">
        <ele>820</ele>
        <time>1970-01-01T01:50:08.000Z</time>
      </trkpt>
      <trkpt lat="42.253611" lon="2.393444">
        <ele>820</ele>
        <time>1970-01-01T01:50:09.000Z</time>
      </trkpt>
      <trkpt lat="42.253607" lon="2.393473">
        <ele>820</ele>
        <time>1970-01-01T01:50:10.000Z</time>
      </trkpt>
      <trkpt lat="42.253602" lon="2.393502">
        <ele>820</ele>
        <time>1970-01-01T01:50:11.000Z</time>
      </trkpt>
      <trkpt lat="42.253598" lon="2.393531">
        <ele>820</ele>
        <time>1970-01-01T01:50:12.000Z</time>
      </trkpt>
      <trkpt lat="42.253593" lon="2.39356">
        <ele>821</ele>
        <time>1970-01-01T01:50:13.000Z</time>
      </trkpt>
      <trkpt lat="42.253613" lon="2.393611">
        <ele>821</ele>
        <time>1970-01-01T01:50:14.000Z</time>
      </trkpt>
      <trkpt lat="42.253628" lon="2.39363">
        <ele>821</ele>
        <time>1970-01-01T01:50:15.000Z</time>
      </trkpt>
      <trkpt lat="42.253643" lon="2.393649">
        <ele>821</ele>
        <time>1970-01-01T01:50:16.000Z</time>
      </trkpt>
      <trkpt lat="42.253658" lon="2.393668">
        <ele>821</ele>
        <time>1970-01-01T01:50:17.000Z</time>
      </trkpt>
      <trkpt lat="42.253673" lon="2.393687">
        <ele>821</ele>
        <time>1970-01-01T01:50:18.000Z</time>
      </trkpt>
      <trkpt lat="42.253687" lon="2.393706">
        <ele>821</ele>
        <time>1970-01-01T01:50:19.000Z</time>
      </trkpt>
      <trkpt lat="42.253702" lon="2.393725">
        <ele>821</ele>
        <time>1970-01-01T01:50:20.000Z</time>
      </trkpt>
      <trkpt lat="42.253717" lon="2.393744">
        <ele>821</ele>
        <time>1970-01-01T01:50:21.000Z</time>
      </trkpt>
      <trkpt lat="42.253732" lon="2.393763">
        <ele>821</ele>
        <time>1970-01-01T01:50:22.000Z</time>
      </trkpt>
      <trkpt lat="42.253747" lon="2.393782">
        <ele>823</ele>
        <time>1970-01-01T01:50:23.000Z</time>
      </trkpt>
      <trkpt lat="42.25379" lon="2.393796">
        <ele>823</ele>
        <time>1970-01-01T01:50:24.000Z</time>
      </trkpt>
      <trkpt lat="42.253811" lon="2.393799">
        <ele>823</ele>
        <time>1970-01-01T01:50:25.000Z</time>
      </trkpt>
      <trkpt lat="42.253833" lon="2.393803">
        <ele>823</ele>
        <time>1970-01-01T01:50:26.000Z</time>
      </trkpt>
      <trkpt lat="42.253854" lon="2.393806">
        <ele>823</ele>
        <time>1970-01-01T01:50:27.000Z</time>
      </trkpt>
      <trkpt lat="42.253876" lon="2.393809">
        <ele>823</ele>
        <time>1970-01-01T01:50:28.000Z</time>
      </trkpt>
      <trkpt lat="42.253897" lon="2.393812">
        <ele>823</ele>
        <time>1970-01-01T01:50:29.000Z</time>
      </trkpt>
      <trkpt lat="42.253919" lon="2.393815">
        <ele>823</ele>
        <time>1970-01-01T01:50:30.000Z</time>
      </trkpt>
      <trkpt lat="42.25394" lon="2.393819">
        <ele>823</ele>
        <time>1970-01-01T01:50:31.000Z</time>
      </trkpt>
      <trkpt lat="42.253962" lon="2.393822">
        <ele>823</ele>
        <time>1970-01-01T01:50:32.000Z</time>
      </trkpt>
      <trkpt lat="42.253983" lon="2.393825">
        <ele>825</ele>
        <time>1970-01-01T01:50:33.000Z</time>
      </trkpt>
      <trkpt lat="42.254029" lon="2.393821">
        <ele>825</ele>
        <time>1970-01-01T01:50:34.000Z</time>
      </trkpt>
      <trkpt lat="42.25405" lon="2.393818">
        <ele>825</ele>
        <time>1970-01-01T01:50:35.000Z</time>
      </trkpt>
      <trkpt lat="42.254072" lon="2.393816">
        <ele>825</ele>
        <time>1970-01-01T01:50:36.000Z</time>
      </trkpt>
      <trkpt lat="42.254094" lon="2.393814">
        <ele>825</ele>
        <time>1970-01-01T01:50:37.000Z</time>
      </trkpt>
      <trkpt lat="42.254116" lon="2.393812">
        <ele>825</ele>
        <time>1970-01-01T01:50:38.000Z</time>
      </trkpt>
      <trkpt lat="42.254137" lon="2.393809">
        <ele>825</ele>
        <time>1970-01-01T01:50:39.000Z</time>
      </trkpt>
      <trkpt lat="42.254159" lon="2.393807">
        <ele>825</ele>
        <time>1970-01-01T01:50:40.000Z</time>
      </trkpt>
      <trkpt lat="42.254181" lon="2.393805">
        <ele>825</ele>
        <time>1970-01-01T01:50:41.000Z</time>
      </trkpt>
      <trkpt lat="42.254202" lon="2.393802">
        <ele>825</ele>
        <time>1970-01-01T01:50:42.000Z</time>
      </trkpt>
      <trkpt lat="42.254224" lon="2.3938">
        <ele>826</ele>
        <time>1970-01-01T01:50:43.000Z</time>
      </trkpt>
      <trkpt lat="42.25427" lon="2.3938">
        <ele>826</ele>
        <time>1970-01-01T01:50:44.000Z</time>
      </trkpt>
      <trkpt lat="42.254292" lon="2.393802">
        <ele>826</ele>
        <time>1970-01-01T01:50:45.000Z</time>
      </trkpt>
      <trkpt lat="42.254313" lon="2.393804">
        <ele>826</ele>
        <time>1970-01-01T01:50:46.000Z</time>
      </trkpt>
      <trkpt lat="42.254335" lon="2.393806">
        <ele>826</ele>
        <time>1970-01-01T01:50:47.000Z</time>
      </trkpt>
      <trkpt lat="42.254357" lon="2.393808">
        <ele>826</ele>
        <time>1970-01-01T01:50:48.000Z</time>
      </trkpt>
      <trkpt lat="42.254379" lon="2.39381">
        <ele>826</ele>
        <time>1970-01-01T01:50:49.000Z</time>
      </trkpt>
      <trkpt lat="42.254401" lon="2.393812">
        <ele>826</ele>
        <time>1970-01-01T01:50:50.000Z</time>
      </trkpt>
      <trkpt lat="42.254422" lon="2.393814">
        <ele>826</ele>
        <time>1970-01-01T01:50:51.000Z</time>
      </trkpt>
      <trkpt lat="42.254444" lon="2.393816">
        <ele>826</ele>
        <time>1970-01-01T01:50:52.000Z</time>
      </trkpt>
      <trkpt lat="42.254466" lon="2.393818">
        <ele>828</ele>
        <time>1970-01-01T01:50:53.000Z</time>
      </trkpt>
      <trkpt lat="42.254511" lon="2.393833">
        <ele>828</ele>
        <time>1970-01-01T01:50:54.000Z</time>
      </trkpt>
      <trkpt lat="42.254531" lon="2.393839">
        <ele>828</ele>
        <time>1970-01-01T01:50:55.000Z</time>
      </trkpt>
      <trkpt lat="42.254551" lon="2.393846">
        <ele>828</ele>
        <time>1970-01-01T01:50:56.000Z</time>
      </trkpt>
      <trkpt lat="42.254571" lon="2.393853">
        <ele>828</ele>
        <time>1970-01-01T01:50:57.000Z</time>
      </trkpt>
      <trkpt lat="42.254592" lon="2.393859">
        <ele>828</ele>
        <time>1970-01-01T01:50:58.000Z</time>
      </trkpt>
      <trkpt lat="42.254612" lon="2.393866">
        <ele>828</ele>
        <time>1970-01-01T01:50:59.000Z</time>
      </trkpt>
      <trkpt lat="42.254632" lon="2.393873">
        <ele>828</ele>
        <time>1970-01-01T01:51:00.000Z</time>
      </trkpt>
      <trkpt lat="42.254652" lon="2.39388">
        <ele>828</ele>
        <time>1970-01-01T01:51:01.000Z</time>
      </trkpt>
      <trkpt lat="42.254672" lon="2.393886">
        <ele>828</ele>
        <time>1970-01-01T01:51:02.000Z</time>
      </trkpt>
      <trkpt lat="42.254692" lon="2.393893">
        <ele>829</ele>
        <time>1970-01-01T01:51:03.000Z</time>
      </trkpt>
      <trkpt lat="42.254732" lon="2.393914">
        <ele>829</ele>
        <time>1970-01-01T01:51:04.000Z</time>
      </trkpt>
      <trkpt lat="42.25475" lon="2.393925">
        <ele>829</ele>
        <time>1970-01-01T01:51:05.000Z</time>
      </trkpt>
      <trkpt lat="42.254769" lon="2.393937">
        <ele>829</ele>
        <time>1970-01-01T01:51:06.000Z</time>
      </trkpt>
      <trkpt lat="42.254787" lon="2.393948">
        <ele>829</ele>
        <time>1970-01-01T01:51:07.000Z</time>
      </trkpt>
      <trkpt lat="42.254806" lon="2.39396">
        <ele>829</ele>
        <time>1970-01-01T01:51:08.000Z</time>
      </trkpt>
      <trkpt lat="42.254825" lon="2.393972">
        <ele>829</ele>
        <time>1970-01-01T01:51:09.000Z</time>
      </trkpt>
      <trkpt lat="42.254843" lon="2.393983">
        <ele>829</ele>
        <time>1970-01-01T01:51:10.000Z</time>
      </trkpt>
      <trkpt lat="42.254862" lon="2.393995">
        <ele>829</ele>
        <time>1970-01-01T01:51:11.000Z</time>
      </trkpt>
      <trkpt lat="42.25488" lon="2.394006">
        <ele>829</ele>
        <time>1970-01-01T01:51:12.000Z</time>
      </trkpt>
      <trkpt lat="42.254899" lon="2.394018">
        <ele>830</ele>
        <time>1970-01-01T01:51:13.000Z</time>
      </trkpt>
      <trkpt lat="42.254925" lon="2.394061">
        <ele>830</ele>
        <time>1970-01-01T01:51:14.000Z</time>
      </trkpt>
      <trkpt lat="42.254933" lon="2.394086">
        <ele>830</ele>
        <time>1970-01-01T01:51:15.000Z</time>
      </trkpt>
      <trkpt lat="42.254942" lon="2.39411">
        <ele>830</ele>
        <time>1970-01-01T01:51:16.000Z</time>
      </trkpt>
      <trkpt lat="42.25495" lon="2.394135">
        <ele>830</ele>
        <time>1970-01-01T01:51:17.000Z</time>
      </trkpt>
      <trkpt lat="42.254959" lon="2.394159">
        <ele>830</ele>
        <time>1970-01-01T01:51:18.000Z</time>
      </trkpt>
      <trkpt lat="42.254968" lon="2.394183">
        <ele>830</ele>
        <time>1970-01-01T01:51:19.000Z</time>
      </trkpt>
      <trkpt lat="42.254976" lon="2.394208">
        <ele>830</ele>
        <time>1970-01-01T01:51:20.000Z</time>
      </trkpt>
      <trkpt lat="42.254985" lon="2.394232">
        <ele>830</ele>
        <time>1970-01-01T01:51:21.000Z</time>
      </trkpt>
      <trkpt lat="42.254993" lon="2.394257">
        <ele>830</ele>
        <time>1970-01-01T01:51:22.000Z</time>
      </trkpt>
      <trkpt lat="42.255002" lon="2.394281">
        <ele>832</ele>
        <time>1970-01-01T01:51:23.000Z</time>
      </trkpt>
      <trkpt lat="42.255001" lon="2.394339">
        <ele>832</ele>
        <time>1970-01-01T01:51:24.000Z</time>
      </trkpt>
      <trkpt lat="42.254998" lon="2.394368">
        <ele>832</ele>
        <time>1970-01-01T01:51:25.000Z</time>
      </trkpt>
      <trkpt lat="42.254994" lon="2.394396">
        <ele>832</ele>
        <time>1970-01-01T01:51:26.000Z</time>
      </trkpt>
      <trkpt lat="42.25499" lon="2.394425">
        <ele>832</ele>
        <time>1970-01-01T01:51:27.000Z</time>
      </trkpt>
      <trkpt lat="42.254987" lon="2.394453">
        <ele>832</ele>
        <time>1970-01-01T01:51:28.000Z</time>
      </trkpt>
      <trkpt lat="42.254983" lon="2.394481">
        <ele>832</ele>
        <time>1970-01-01T01:51:29.000Z</time>
      </trkpt>
      <trkpt lat="42.254979" lon="2.39451">
        <ele>832</ele>
        <time>1970-01-01T01:51:30.000Z</time>
      </trkpt>
      <trkpt lat="42.254975" lon="2.394538">
        <ele>832</ele>
        <time>1970-01-01T01:51:31.000Z</time>
      </trkpt>
      <trkpt lat="42.254972" lon="2.394567">
        <ele>832</ele>
        <time>1970-01-01T01:51:32.000Z</time>
      </trkpt>
      <trkpt lat="42.254968" lon="2.394595">
        <ele>833</ele>
        <time>1970-01-01T01:51:33.000Z</time>
      </trkpt>
      <trkpt lat="42.254963" lon="2.394654">
        <ele>833</ele>
        <time>1970-01-01T01:51:34.000Z</time>
      </trkpt>
      <trkpt lat="42.254964" lon="2.394683">
        <ele>833</ele>
        <time>1970-01-01T01:51:35.000Z</time>
      </trkpt>
      <trkpt lat="42.254966" lon="2.394711">
        <ele>833</ele>
        <time>1970-01-01T01:51:36.000Z</time>
      </trkpt>
      <trkpt lat="42.254967" lon="2.39474">
        <ele>833</ele>
        <time>1970-01-01T01:51:37.000Z</time>
      </trkpt>
      <trkpt lat="42.254969" lon="2.394768">
        <ele>833</ele>
        <time>1970-01-01T01:51:38.000Z</time>
      </trkpt>
      <trkpt lat="42.25497" lon="2.394797">
        <ele>833</ele>
        <time>1970-01-01T01:51:39.000Z</time>
      </trkpt>
      <trkpt lat="42.254972" lon="2.394825">
        <ele>833</ele>
        <time>1970-01-01T01:51:40.000Z</time>
      </trkpt>
      <trkpt lat="42.254973" lon="2.394854">
        <ele>833</ele>
        <time>1970-01-01T01:51:41.000Z</time>
      </trkpt>
      <trkpt lat="42.254975" lon="2.394882">
        <ele>833</ele>
        <time>1970-01-01T01:51:42.000Z</time>
      </trkpt>
      <trkpt lat="42.254976" lon="2.394911">
        <ele>835</ele>
        <time>1970-01-01T01:51:43.000Z</time>
      </trkpt>
      <trkpt lat="42.254994" lon="2.394963">
        <ele>835</ele>
        <time>1970-01-01T01:51:44.000Z</time>
      </trkpt>
      <trkpt lat="42.255008" lon="2.394984">
        <ele>835</ele>
        <time>1970-01-01T01:51:45.000Z</time>
      </trkpt>
      <trkpt lat="42.255021" lon="2.395005">
        <ele>835</ele>
        <time>1970-01-01T01:51:46.000Z</time>
      </trkpt>
      <trkpt lat="42.255034" lon="2.395026">
        <ele>835</ele>
        <time>1970-01-01T01:51:47.000Z</time>
      </trkpt>
      <trkpt lat="42.255048" lon="2.395046">
        <ele>835</ele>
        <time>1970-01-01T01:51:48.000Z</time>
      </trkpt>
      <trkpt lat="42.255061" lon="2.395067">
        <ele>835</ele>
        <time>1970-01-01T01:51:49.000Z</time>
      </trkpt>
      <trkpt lat="42.255074" lon="2.395088">
        <ele>835</ele>
        <time>1970-01-01T01:51:50.000Z</time>
      </trkpt>
      <trkpt lat="42.255087" lon="2.395109">
        <ele>835</ele>
        <time>1970-01-01T01:51:51.000Z</time>
      </trkpt>
      <trkpt lat="42.255101" lon="2.39513">
        <ele>835</ele>
        <time>1970-01-01T01:51:52.000Z</time>
      </trkpt>
      <trkpt lat="42.255114" lon="2.395151">
        <ele>836</ele>
        <time>1970-01-01T01:51:53.000Z</time>
      </trkpt>
      <trkpt lat="42.255155" lon="2.395181">
        <ele>836</ele>
        <time>1970-01-01T01:51:54.000Z</time>
      </trkpt>
      <trkpt lat="42.255174" lon="2.395198">
        <ele>836</ele>
        <time>1970-01-01T01:51:55.000Z</time>
      </trkpt>
      <trkpt lat="42.255193" lon="2.395214">
        <ele>836</ele>
        <time>1970-01-01T01:51:56.000Z</time>
      </trkpt>
      <trkpt lat="42.255212" lon="2.395231">
        <ele>836</ele>
        <time>1970-01-01T01:51:57.000Z</time>
      </trkpt>
      <trkpt lat="42.255231" lon="2.395247">
        <ele>836</ele>
        <time>1970-01-01T01:51:58.000Z</time>
      </trkpt>
      <trkpt lat="42.25525" lon="2.395264">
        <ele>836</ele>
        <time>1970-01-01T01:51:59.000Z</time>
      </trkpt>
      <trkpt lat="42.255269" lon="2.39528">
        <ele>836</ele>
        <time>1970-01-01T01:52:00.000Z</time>
      </trkpt>
      <trkpt lat="42.255288" lon="2.395297">
        <ele>836</ele>
        <time>1970-01-01T01:52:01.000Z</time>
      </trkpt>
      <trkpt lat="42.255307" lon="2.395313">
        <ele>836</ele>
        <time>1970-01-01T01:52:02.000Z</time>
      </trkpt>
      <trkpt lat="42.255326" lon="2.39533">
        <ele>838</ele>
        <time>1970-01-01T01:52:03.000Z</time>
      </trkpt>
      <trkpt lat="42.255341" lon="2.395386">
        <ele>838</ele>
        <time>1970-01-01T01:52:04.000Z</time>
      </trkpt>
      <trkpt lat="42.255343" lon="2.395414">
        <ele>838</ele>
        <time>1970-01-01T01:52:05.000Z</time>
      </trkpt>
      <trkpt lat="42.255346" lon="2.395443">
        <ele>838</ele>
        <time>1970-01-01T01:52:06.000Z</time>
      </trkpt>
      <trkpt lat="42.255348" lon="2.395472">
        <ele>838</ele>
        <time>1970-01-01T01:52:07.000Z</time>
      </trkpt>
      <trkpt lat="42.25535" lon="2.3955">
        <ele>838</ele>
        <time>1970-01-01T01:52:08.000Z</time>
      </trkpt>
      <trkpt lat="42.255352" lon="2.395529">
        <ele>838</ele>
        <time>1970-01-01T01:52:09.000Z</time>
      </trkpt>
      <trkpt lat="42.255354" lon="2.395558">
        <ele>838</ele>
        <time>1970-01-01T01:52:10.000Z</time>
      </trkpt>
      <trkpt lat="42.255357" lon="2.395587">
        <ele>838</ele>
        <time>1970-01-01T01:52:11.000Z</time>
      </trkpt>
      <trkpt lat="42.255359" lon="2.395615">
        <ele>838</ele>
        <time>1970-01-01T01:52:12.000Z</time>
      </trkpt>
      <trkpt lat="42.255361" lon="2.395644">
        <ele>840</ele>
        <time>1970-01-01T01:52:13.000Z</time>
      </trkpt>
      <trkpt lat="42.255358" lon="2.395704">
        <ele>840</ele>
        <time>1970-01-01T01:52:14.000Z</time>
      </trkpt>
      <trkpt lat="42.255356" lon="2.395733">
        <ele>840</ele>
        <time>1970-01-01T01:52:15.000Z</time>
      </trkpt>
      <trkpt lat="42.255355" lon="2.395762">
        <ele>840</ele>
        <time>1970-01-01T01:52:16.000Z</time>
      </trkpt>
      <trkpt lat="42.255354" lon="2.395791">
        <ele>840</ele>
        <time>1970-01-01T01:52:17.000Z</time>
      </trkpt>
      <trkpt lat="42.255353" lon="2.39582">
        <ele>840</ele>
        <time>1970-01-01T01:52:18.000Z</time>
      </trkpt>
      <trkpt lat="42.255351" lon="2.395848">
        <ele>840</ele>
        <time>1970-01-01T01:52:19.000Z</time>
      </trkpt>
      <trkpt lat="42.25535" lon="2.395877">
        <ele>840</ele>
        <time>1970-01-01T01:52:20.000Z</time>
      </trkpt>
      <trkpt lat="42.255349" lon="2.395906">
        <ele>840</ele>
        <time>1970-01-01T01:52:21.000Z</time>
      </trkpt>
      <trkpt lat="42.255347" lon="2.395935">
        <ele>840</ele>
        <time>1970-01-01T01:52:22.000Z</time>
      </trkpt>
      <trkpt lat="42.255346" lon="2.395964">
        <ele>841</ele>
        <time>1970-01-01T01:52:23.000Z</time>
      </trkpt>
      <trkpt lat="42.255354" lon="2.396024">
        <ele>841</ele>
        <time>1970-01-01T01:52:24.000Z</time>
      </trkpt>
      <trkpt lat="42.25536" lon="2.396052">
        <ele>841</ele>
        <time>1970-01-01T01:52:25.000Z</time>
      </trkpt>
      <trkpt lat="42.255367" lon="2.39608">
        <ele>841</ele>
        <time>1970-01-01T01:52:26.000Z</time>
      </trkpt>
      <trkpt lat="42.255373" lon="2.396108">
        <ele>841</ele>
        <time>1970-01-01T01:52:27.000Z</time>
      </trkpt>
      <trkpt lat="42.25538" lon="2.396136">
        <ele>841</ele>
        <time>1970-01-01T01:52:28.000Z</time>
      </trkpt>
      <trkpt lat="42.255386" lon="2.396165">
        <ele>841</ele>
        <time>1970-01-01T01:52:29.000Z</time>
      </trkpt>
      <trkpt lat="42.255393" lon="2.396193">
        <ele>841</ele>
        <time>1970-01-01T01:52:30.000Z</time>
      </trkpt>
      <trkpt lat="42.255399" lon="2.396221">
        <ele>841</ele>
        <time>1970-01-01T01:52:31.000Z</time>
      </trkpt>
      <trkpt lat="42.255406" lon="2.396249">
        <ele>841</ele>
        <time>1970-01-01T01:52:32.000Z</time>
      </trkpt>
      <trkpt lat="42.255412" lon="2.396277">
        <ele>843</ele>
        <time>1970-01-01T01:52:33.000Z</time>
      </trkpt>
      <trkpt lat="42.255436" lon="2.396331">
        <ele>843</ele>
        <time>1970-01-01T01:52:34.000Z</time>
      </trkpt>
      <trkpt lat="42.255448" lon="2.396355">
        <ele>843</ele>
        <time>1970-01-01T01:52:35.000Z</time>
      </trkpt>
      <trkpt lat="42.255461" lon="2.396379">
        <ele>843</ele>
        <time>1970-01-01T01:52:36.000Z</time>
      </trkpt>
      <trkpt lat="42.255473" lon="2.396403">
        <ele>843</ele>
        <time>1970-01-01T01:52:37.000Z</time>
      </trkpt>
      <trkpt lat="42.255486" lon="2.396426">
        <ele>843</ele>
        <time>1970-01-01T01:52:38.000Z</time>
      </trkpt>
      <trkpt lat="42.255498" lon="2.39645">
        <ele>843</ele>
        <time>1970-01-01T01:52:39.000Z</time>
      </trkpt>
      <trkpt lat="42.255511" lon="2.396474">
        <ele>843</ele>
        <time>1970-01-01T01:52:40.000Z</time>
      </trkpt>
      <trkpt lat="42.255523" lon="2.396498">
        <ele>843</ele>
        <time>1970-01-01T01:52:41.000Z</time>
      </trkpt>
      <trkpt lat="42.255536" lon="2.396522">
        <ele>843</ele>
        <time>1970-01-01T01:52:42.000Z</time>
      </trkpt>
      <trkpt lat="42.255548" lon="2.396546">
        <ele>845</ele>
        <time>1970-01-01T01:52:43.000Z</time>
      </trkpt>
      <trkpt lat="42.255578" lon="2.396593">
        <ele>845</ele>
        <time>1970-01-01T01:52:44.000Z</time>
      </trkpt>
      <trkpt lat="42.255592" lon="2.396614">
        <ele>845</ele>
        <time>1970-01-01T01:52:45.000Z</time>
      </trkpt>
      <trkpt lat="42.255607" lon="2.396635">
        <ele>845</ele>
        <time>1970-01-01T01:52:46.000Z</time>
      </trkpt>
      <trkpt lat="42.255622" lon="2.396656">
        <ele>845</ele>
        <time>1970-01-01T01:52:47.000Z</time>
      </trkpt>
      <trkpt lat="42.255637" lon="2.396676">
        <ele>845</ele>
        <time>1970-01-01T01:52:48.000Z</time>
      </trkpt>
      <trkpt lat="42.255651" lon="2.396697">
        <ele>845</ele>
        <time>1970-01-01T01:52:49.000Z</time>
      </trkpt>
      <trkpt lat="42.255666" lon="2.396718">
        <ele>845</ele>
        <time>1970-01-01T01:52:50.000Z</time>
      </trkpt>
      <trkpt lat="42.255681" lon="2.396739">
        <ele>845</ele>
        <time>1970-01-01T01:52:51.000Z</time>
      </trkpt>
      <trkpt lat="42.255695" lon="2.39676">
        <ele>845</ele>
        <time>1970-01-01T01:52:52.000Z</time>
      </trkpt>
      <trkpt lat="42.25571" lon="2.396781">
        <ele>848</ele>
        <time>1970-01-01T01:52:53.000Z</time>
      </trkpt>
      <trkpt lat="42.255742" lon="2.396818">
        <ele>848</ele>
        <time>1970-01-01T01:52:54.000Z</time>
      </trkpt>
      <trkpt lat="42.255758" lon="2.396835">
        <ele>848</ele>
        <time>1970-01-01T01:52:55.000Z</time>
      </trkpt>
      <trkpt lat="42.255774" lon="2.396851">
        <ele>848</ele>
        <time>1970-01-01T01:52:56.000Z</time>
      </trkpt>
      <trkpt lat="42.25579" lon="2.396868">
        <ele>848</ele>
        <time>1970-01-01T01:52:57.000Z</time>
      </trkpt>
      <trkpt lat="42.255806" lon="2.396884">
        <ele>848</ele>
        <time>1970-01-01T01:52:58.000Z</time>
      </trkpt>
      <trkpt lat="42.255821" lon="2.3969">
        <ele>848</ele>
        <time>1970-01-01T01:52:59.000Z</time>
      </trkpt>
      <trkpt lat="42.255837" lon="2.396917">
        <ele>848</ele>
        <time>1970-01-01T01:53:00.000Z</time>
      </trkpt>
      <trkpt lat="42.255853" lon="2.396933">
        <ele>848</ele>
        <time>1970-01-01T01:53:01.000Z</time>
      </trkpt>
      <trkpt lat="42.255869" lon="2.39695">
        <ele>848</ele>
        <time>1970-01-01T01:53:02.000Z</time>
      </trkpt>
      <trkpt lat="42.255885" lon="2.396966">
        <ele>848</ele>
        <time>1970-01-01T01:53:03.000Z</time>
      </trkpt>
      <trkpt lat="42.255927" lon="2.396984">
        <ele>848</ele>
        <time>1970-01-01T01:53:04.000Z</time>
      </trkpt>
      <trkpt lat="42.255949" lon="2.39699">
        <ele>848</ele>
        <time>1970-01-01T01:53:05.000Z</time>
      </trkpt>
      <trkpt lat="42.25597" lon="2.396995">
        <ele>848</ele>
        <time>1970-01-01T01:53:06.000Z</time>
      </trkpt>
      <trkpt lat="42.255991" lon="2.397001">
        <ele>848</ele>
        <time>1970-01-01T01:53:07.000Z</time>
      </trkpt>
      <trkpt lat="42.256013" lon="2.397007">
        <ele>848</ele>
        <time>1970-01-01T01:53:08.000Z</time>
      </trkpt>
      <trkpt lat="42.256034" lon="2.397013">
        <ele>848</ele>
        <time>1970-01-01T01:53:09.000Z</time>
      </trkpt>
      <trkpt lat="42.256055" lon="2.397019">
        <ele>848</ele>
        <time>1970-01-01T01:53:10.000Z</time>
      </trkpt>
      <trkpt lat="42.256076" lon="2.397024">
        <ele>848</ele>
        <time>1970-01-01T01:53:11.000Z</time>
      </trkpt>
      <trkpt lat="42.256098" lon="2.39703">
        <ele>848</ele>
        <time>1970-01-01T01:53:12.000Z</time>
      </trkpt>
      <trkpt lat="42.256119" lon="2.397036">
        <ele>850</ele>
        <time>1970-01-01T01:53:13.000Z</time>
      </trkpt>
      <trkpt lat="42.256157" lon="2.397062">
        <ele>850</ele>
        <time>1970-01-01T01:53:14.000Z</time>
      </trkpt>
      <trkpt lat="42.256174" lon="2.397078">
        <ele>850</ele>
        <time>1970-01-01T01:53:15.000Z</time>
      </trkpt>
      <trkpt lat="42.25619" lon="2.397095">
        <ele>850</ele>
        <time>1970-01-01T01:53:16.000Z</time>
      </trkpt>
      <trkpt lat="42.256207" lon="2.397111">
        <ele>850</ele>
        <time>1970-01-01T01:53:17.000Z</time>
      </trkpt>
      <trkpt lat="42.256224" lon="2.397127">
        <ele>850</ele>
        <time>1970-01-01T01:53:18.000Z</time>
      </trkpt>
      <trkpt lat="42.256241" lon="2.397143">
        <ele>850</ele>
        <time>1970-01-01T01:53:19.000Z</time>
      </trkpt>
      <trkpt lat="42.256258" lon="2.397159">
        <ele>850</ele>
        <time>1970-01-01T01:53:20.000Z</time>
      </trkpt>
      <trkpt lat="42.256274" lon="2.397176">
        <ele>850</ele>
        <time>1970-01-01T01:53:21.000Z</time>
      </trkpt>
      <trkpt lat="42.256291" lon="2.397192">
        <ele>850</ele>
        <time>1970-01-01T01:53:22.000Z</time>
      </trkpt>
      <trkpt lat="42.256308" lon="2.397208">
        <ele>851</ele>
        <time>1970-01-01T01:53:23.000Z</time>
      </trkpt>
      <trkpt lat="42.256338" lon="2.397252">
        <ele>851</ele>
        <time>1970-01-01T01:53:24.000Z</time>
      </trkpt>
      <trkpt lat="42.256351" lon="2.397271">
        <ele>851</ele>
        <time>1970-01-01T01:53:25.000Z</time>
      </trkpt>
      <trkpt lat="42.256365" lon="2.39729">
        <ele>851</ele>
        <time>1970-01-01T01:53:26.000Z</time>
      </trkpt>
      <trkpt lat="42.256378" lon="2.397309">
        <ele>851</ele>
        <time>1970-01-01T01:53:27.000Z</time>
      </trkpt>
      <trkpt lat="42.256392" lon="2.397328">
        <ele>851</ele>
        <time>1970-01-01T01:53:28.000Z</time>
      </trkpt>
      <trkpt lat="42.256406" lon="2.397347">
        <ele>851</ele>
        <time>1970-01-01T01:53:29.000Z</time>
      </trkpt>
      <trkpt lat="42.256419" lon="2.397366">
        <ele>851</ele>
        <time>1970-01-01T01:53:30.000Z</time>
      </trkpt>
      <trkpt lat="42.256433" lon="2.397385">
        <ele>851</ele>
        <time>1970-01-01T01:53:31.000Z</time>
      </trkpt>
      <trkpt lat="42.256446" lon="2.397404">
        <ele>851</ele>
        <time>1970-01-01T01:53:32.000Z</time>
      </trkpt>
      <trkpt lat="42.25646" lon="2.397423">
        <ele>852</ele>
        <time>1970-01-01T01:53:33.000Z</time>
      </trkpt>
      <trkpt lat="42.256483" lon="2.397469">
        <ele>852</ele>
        <time>1970-01-01T01:53:34.000Z</time>
      </trkpt>
      <trkpt lat="42.256491" lon="2.397495">
        <ele>852</ele>
        <time>1970-01-01T01:53:35.000Z</time>
      </trkpt>
      <trkpt lat="42.256498" lon="2.397522">
        <ele>852</ele>
        <time>1970-01-01T01:53:36.000Z</time>
      </trkpt>
      <trkpt lat="42.256505" lon="2.397548">
        <ele>852</ele>
        <time>1970-01-01T01:53:37.000Z</time>
      </trkpt>
      <trkpt lat="42.256513" lon="2.397574">
        <ele>852</ele>
        <time>1970-01-01T01:53:38.000Z</time>
      </trkpt>
      <trkpt lat="42.25652" lon="2.3976">
        <ele>852</ele>
        <time>1970-01-01T01:53:39.000Z</time>
      </trkpt>
      <trkpt lat="42.256527" lon="2.397626">
        <ele>852</ele>
        <time>1970-01-01T01:53:40.000Z</time>
      </trkpt>
      <trkpt lat="42.256534" lon="2.397653">
        <ele>852</ele>
        <time>1970-01-01T01:53:41.000Z</time>
      </trkpt>
      <trkpt lat="42.256542" lon="2.397679">
        <ele>852</ele>
        <time>1970-01-01T01:53:42.000Z</time>
      </trkpt>
      <trkpt lat="42.256549" lon="2.397705">
        <ele>853</ele>
        <time>1970-01-01T01:53:43.000Z</time>
      </trkpt>
      <trkpt lat="42.256546" lon="2.397764">
        <ele>853</ele>
        <time>1970-01-01T01:53:44.000Z</time>
      </trkpt>
      <trkpt lat="42.256544" lon="2.397791">
        <ele>853</ele>
        <time>1970-01-01T01:53:45.000Z</time>
      </trkpt>
      <trkpt lat="42.256541" lon="2.397819">
        <ele>853</ele>
        <time>1970-01-01T01:53:46.000Z</time>
      </trkpt>
      <trkpt lat="42.256539" lon="2.397846">
        <ele>853</ele>
        <time>1970-01-01T01:53:47.000Z</time>
      </trkpt>
      <trkpt lat="42.256537" lon="2.397873">
        <ele>853</ele>
        <time>1970-01-01T01:53:48.000Z</time>
      </trkpt>
      <trkpt lat="42.256535" lon="2.3979">
        <ele>853</ele>
        <time>1970-01-01T01:53:49.000Z</time>
      </trkpt>
      <trkpt lat="42.256533" lon="2.397927">
        <ele>853</ele>
        <time>1970-01-01T01:53:50.000Z</time>
      </trkpt>
      <trkpt lat="42.25653" lon="2.397955">
        <ele>853</ele>
        <time>1970-01-01T01:53:51.000Z</time>
      </trkpt>
      <trkpt lat="42.256528" lon="2.397982">
        <ele>853</ele>
        <time>1970-01-01T01:53:52.000Z</time>
      </trkpt>
      <trkpt lat="42.256526" lon="2.398009">
        <ele>855</ele>
        <time>1970-01-01T01:53:53.000Z</time>
      </trkpt>
      <trkpt lat="42.25652" lon="2.398065">
        <ele>855</ele>
        <time>1970-01-01T01:53:54.000Z</time>
      </trkpt>
      <trkpt lat="42.256518" lon="2.398094">
        <ele>855</ele>
        <time>1970-01-01T01:53:55.000Z</time>
      </trkpt>
      <trkpt lat="42.256515" lon="2.398122">
        <ele>855</ele>
        <time>1970-01-01T01:53:56.000Z</time>
      </trkpt>
      <trkpt lat="42.256513" lon="2.39815">
        <ele>855</ele>
        <time>1970-01-01T01:53:57.000Z</time>
      </trkpt>
      <trkpt lat="42.256511" lon="2.398179">
        <ele>855</ele>
        <time>1970-01-01T01:53:58.000Z</time>
      </trkpt>
      <trkpt lat="42.256509" lon="2.398207">
        <ele>855</ele>
        <time>1970-01-01T01:53:59.000Z</time>
      </trkpt>
      <trkpt lat="42.256507" lon="2.398235">
        <ele>855</ele>
        <time>1970-01-01T01:54:00.000Z</time>
      </trkpt>
      <trkpt lat="42.256504" lon="2.398263">
        <ele>855</ele>
        <time>1970-01-01T01:54:01.000Z</time>
      </trkpt>
      <trkpt lat="42.256502" lon="2.398292">
        <ele>855</ele>
        <time>1970-01-01T01:54:02.000Z</time>
      </trkpt>
      <trkpt lat="42.2565" lon="2.39832">
        <ele>856</ele>
        <time>1970-01-01T01:54:03.000Z</time>
      </trkpt>
      <trkpt lat="42.256506" lon="2.398382">
        <ele>856</ele>
        <time>1970-01-01T01:54:04.000Z</time>
      </trkpt>
      <trkpt lat="42.256512" lon="2.39841">
        <ele>856</ele>
        <time>1970-01-01T01:54:05.000Z</time>
      </trkpt>
      <trkpt lat="42.256517" lon="2.398438">
        <ele>856</ele>
        <time>1970-01-01T01:54:06.000Z</time>
      </trkpt>
      <trkpt lat="42.256523" lon="2.398466">
        <ele>856</ele>
        <time>1970-01-01T01:54:07.000Z</time>
      </trkpt>
      <trkpt lat="42.256528" lon="2.398494">
        <ele>856</ele>
        <time>1970-01-01T01:54:08.000Z</time>
      </trkpt>
      <trkpt lat="42.256534" lon="2.398522">
        <ele>856</ele>
        <time>1970-01-01T01:54:09.000Z</time>
      </trkpt>
      <trkpt lat="42.256539" lon="2.39855">
        <ele>856</ele>
        <time>1970-01-01T01:54:10.000Z</time>
      </trkpt>
      <trkpt lat="42.256545" lon="2.398578">
        <ele>856</ele>
        <time>1970-01-01T01:54:11.000Z</time>
      </trkpt>
      <trkpt lat="42.25655" lon="2.398606">
        <ele>857</ele>
        <time>1970-01-01T01:54:13.000Z</time>
      </trkpt>
      <trkpt lat="42.256589" lon="2.39864">
        <ele>857</ele>
        <time>1970-01-01T01:54:15.000Z</time>
      </trkpt>
      <trkpt lat="42.256602" lon="2.398652">
        <ele>857</ele>
        <time>1970-01-01T01:54:16.000Z</time>
      </trkpt>
      <trkpt lat="42.256615" lon="2.398664">
        <ele>857</ele>
        <time>1970-01-01T01:54:17.000Z</time>
      </trkpt>
      <trkpt lat="42.256628" lon="2.398676">
        <ele>857</ele>
        <time>1970-01-01T01:54:18.000Z</time>
      </trkpt>
      <trkpt lat="42.25664" lon="2.398688">
        <ele>857</ele>
        <time>1970-01-01T01:54:19.000Z</time>
      </trkpt>
      <trkpt lat="42.256653" lon="2.3987">
        <ele>857</ele>
        <time>1970-01-01T01:54:20.000Z</time>
      </trkpt>
      <trkpt lat="42.256666" lon="2.398712">
        <ele>857</ele>
        <time>1970-01-01T01:54:22.000Z</time>
      </trkpt>
      <trkpt lat="42.256679" lon="2.398724">
        <ele>857</ele>
        <time>1970-01-01T01:54:23.000Z</time>
      </trkpt>
      <trkpt lat="42.256679" lon="2.398724">
        <ele>857</ele>
        <time>1970-01-01T01:54:24.000Z</time>
      </trkpt>
      <trkpt lat="42.25668" lon="2.398724">
        <ele>857</ele>
        <time>1970-01-01T01:54:25.000Z</time>
      </trkpt>
      <trkpt lat="42.25668" lon="2.398724">
        <ele>859</ele>
        <time>1970-01-01T01:58:49.000Z</time>
      </trkpt>
      <trkpt lat="42.25672" lon="2.398671">
        <ele>859</ele>
        <time>1970-01-01T01:58:50.000Z</time>
      </trkpt>
      <trkpt lat="42.256738" lon="2.398646">
        <ele>859</ele>
        <time>1970-01-01T01:58:53.000Z</time>
      </trkpt>
      <trkpt lat="42.256753" lon="2.398621">
        <ele>859</ele>
        <time>1970-01-01T01:58:56.000Z</time>
      </trkpt>
      <trkpt lat="42.256753" lon="2.398621">
        <ele>860</ele>
        <time>1970-01-01T01:58:59.000Z</time>
      </trkpt>
      <trkpt lat="42.256768" lon="2.398606">
        <ele>860</ele>
        <time>1970-01-01T01:59:00.000Z</time>
      </trkpt>
      <trkpt lat="42.256783" lon="2.398591">
        <ele>860</ele>
        <time>1970-01-01T01:59:01.000Z</time>
      </trkpt>
      <trkpt lat="42.256798" lon="2.398576">
        <ele>860</ele>
        <time>1970-01-01T01:59:13.000Z</time>
      </trkpt>
      <trkpt lat="42.256813" lon="2.398561">
        <ele>860</ele>
        <time>1970-01-01T01:59:14.000Z</time>
      </trkpt>
      <trkpt lat="42.256828" lon="2.398546">
        <ele>860</ele>
        <time>1970-01-01T01:59:15.000Z</time>
      </trkpt>
      <trkpt lat="42.256843" lon="2.398531">
        <ele>860</ele>
        <time>1970-01-01T01:59:16.000Z</time>
      </trkpt>
      <trkpt lat="42.256859" lon="2.398516">
        <ele>860</ele>
        <time>1970-01-01T01:59:17.000Z</time>
      </trkpt>
      <trkpt lat="42.256874" lon="2.398501">
        <ele>860</ele>
        <time>1970-01-01T01:59:18.000Z</time>
      </trkpt>
      <trkpt lat="42.256889" lon="2.398486">
        <ele>860</ele>
        <time>1970-01-01T01:59:19.000Z</time>
      </trkpt>
      <trkpt lat="42.256904" lon="2.398471">
        <ele>860</ele>
        <time>1970-01-01T01:59:20.000Z</time>
      </trkpt>
      <trkpt lat="42.256919" lon="2.398456">
        <ele>860</ele>
        <time>1970-01-01T01:59:21.000Z</time>
      </trkpt>
      <trkpt lat="42.256934" lon="2.398441">
        <ele>860</ele>
        <time>1970-01-01T01:59:22.000Z</time>
      </trkpt>
      <trkpt lat="42.256949" lon="2.398426">
        <ele>860</ele>
        <time>1970-01-01T01:59:23.000Z</time>
      </trkpt>
      <trkpt lat="42.25699" lon="2.398375">
        <ele>860</ele>
        <time>1970-01-01T01:59:24.000Z</time>
      </trkpt>
      <trkpt lat="42.25701" lon="2.398347">
        <ele>860</ele>
        <time>1970-01-01T01:59:25.000Z</time>
      </trkpt>
      <trkpt lat="42.257031" lon="2.398318">
        <ele>860</ele>
        <time>1970-01-01T01:59:26.000Z</time>
      </trkpt>
      <trkpt lat="42.257052" lon="2.39829">
        <ele>860</ele>
        <time>1970-01-01T01:59:27.000Z</time>
      </trkpt>
      <trkpt lat="42.257073" lon="2.398262">
        <ele>860</ele>
        <time>1970-01-01T01:59:28.000Z</time>
      </trkpt>
      <trkpt lat="42.257093" lon="2.398234">
        <ele>860</ele>
        <time>1970-01-01T01:59:29.000Z</time>
      </trkpt>
      <trkpt lat="42.257114" lon="2.398206">
        <ele>860</ele>
        <time>1970-01-01T01:59:30.000Z</time>
      </trkpt>
      <trkpt lat="42.257135" lon="2.398177">
        <ele>860</ele>
        <time>1970-01-01T01:59:31.000Z</time>
      </trkpt>
      <trkpt lat="42.257155" lon="2.398149">
        <ele>860</ele>
        <time>1970-01-01T01:59:32.000Z</time>
      </trkpt>
      <trkpt lat="42.257176" lon="2.398121">
        <ele>860</ele>
        <time>1970-01-01T01:59:33.000Z</time>
      </trkpt>
      <trkpt lat="42.25722" lon="2.398063">
        <ele>860</ele>
        <time>1970-01-01T01:59:34.000Z</time>
      </trkpt>
      <trkpt lat="42.257243" lon="2.398036">
        <ele>860</ele>
        <time>1970-01-01T01:59:35.000Z</time>
      </trkpt>
      <trkpt lat="42.257265" lon="2.39801">
        <ele>860</ele>
        <time>1970-01-01T01:59:36.000Z</time>
      </trkpt>
      <trkpt lat="42.257287" lon="2.397984">
        <ele>860</ele>
        <time>1970-01-01T01:59:37.000Z</time>
      </trkpt>
      <trkpt lat="42.25731" lon="2.397958">
        <ele>860</ele>
        <time>1970-01-01T01:59:38.000Z</time>
      </trkpt>
      <trkpt lat="42.257332" lon="2.397931">
        <ele>860</ele>
        <time>1970-01-01T01:59:39.000Z</time>
      </trkpt>
      <trkpt lat="42.257354" lon="2.397905">
        <ele>860</ele>
        <time>1970-01-01T01:59:40.000Z</time>
      </trkpt>
      <trkpt lat="42.257376" lon="2.397879">
        <ele>860</ele>
        <time>1970-01-01T01:59:41.000Z</time>
      </trkpt>
      <trkpt lat="42.257399" lon="2.397852">
        <ele>860</ele>
        <time>1970-01-01T01:59:42.000Z</time>
      </trkpt>
      <trkpt lat="42.257421" lon="2.397826">
        <ele>860</ele>
        <time>1970-01-01T01:59:43.000Z</time>
      </trkpt>
      <trkpt lat="42.257451" lon="2.397759">
        <ele>860</ele>
        <time>1970-01-01T01:59:44.000Z</time>
      </trkpt>
      <trkpt lat="42.257456" lon="2.397726">
        <ele>860</ele>
        <time>1970-01-01T01:59:45.000Z</time>
      </trkpt>
      <trkpt lat="42.25746" lon="2.397692">
        <ele>860</ele>
        <time>1970-01-01T01:59:46.000Z</time>
      </trkpt>
      <trkpt lat="42.257464" lon="2.397659">
        <ele>860</ele>
        <time>1970-01-01T01:59:47.000Z</time>
      </trkpt>
      <trkpt lat="42.257469" lon="2.397626">
        <ele>860</ele>
        <time>1970-01-01T01:59:48.000Z</time>
      </trkpt>
      <trkpt lat="42.257473" lon="2.397593">
        <ele>860</ele>
        <time>1970-01-01T01:59:49.000Z</time>
      </trkpt>
      <trkpt lat="42.257477" lon="2.39756">
        <ele>860</ele>
        <time>1970-01-01T01:59:50.000Z</time>
      </trkpt>
      <trkpt lat="42.257481" lon="2.397526">
        <ele>860</ele>
        <time>1970-01-01T01:59:51.000Z</time>
      </trkpt>
      <trkpt lat="42.257486" lon="2.397493">
        <ele>860</ele>
        <time>1970-01-01T01:59:52.000Z</time>
      </trkpt>
      <trkpt lat="42.25749" lon="2.39746">
        <ele>861</ele>
        <time>1970-01-01T01:59:53.000Z</time>
      </trkpt>
      <trkpt lat="42.257468" lon="2.397415">
        <ele>861</ele>
        <time>1970-01-01T01:59:54.000Z</time>
      </trkpt>
      <trkpt lat="42.257456" lon="2.397393">
        <ele>861</ele>
        <time>1970-01-01T01:59:55.000Z</time>
      </trkpt>
      <trkpt lat="42.257445" lon="2.397372">
        <ele>861</ele>
        <time>1970-01-01T01:59:56.000Z</time>
      </trkpt>
      <trkpt lat="42.257433" lon="2.39735">
        <ele>861</ele>
        <time>1970-01-01T01:59:57.000Z</time>
      </trkpt>
      <trkpt lat="42.257422" lon="2.397329">
        <ele>861</ele>
        <time>1970-01-01T01:59:58.000Z</time>
      </trkpt>
      <trkpt lat="42.257411" lon="2.397308">
        <ele>861</ele>
        <time>1970-01-01T01:59:59.000Z</time>
      </trkpt>
      <trkpt lat="42.257399" lon="2.397286">
        <ele>861</ele>
        <time>1970-01-01T02:00:00.000Z</time>
      </trkpt>
      <trkpt lat="42.257388" lon="2.397265">
        <ele>861</ele>
        <time>1970-01-01T02:00:01.000Z</time>
      </trkpt>
      <trkpt lat="42.257376" lon="2.397243">
        <ele>861</ele>
        <time>1970-01-01T02:00:02.000Z</time>
      </trkpt>
      <trkpt lat="42.257365" lon="2.397222">
        <ele>861</ele>
        <time>1970-01-01T02:00:03.000Z</time>
      </trkpt>
      <trkpt lat="42.257337" lon="2.397149">
        <ele>861</ele>
        <time>1970-01-01T02:00:04.000Z</time>
      </trkpt>
      <trkpt lat="42.257331" lon="2.397106">
        <ele>861</ele>
        <time>1970-01-01T02:00:05.000Z</time>
      </trkpt>
      <trkpt lat="42.257324" lon="2.397063">
        <ele>861</ele>
        <time>1970-01-01T02:00:06.000Z</time>
      </trkpt>
      <trkpt lat="42.257318" lon="2.39702">
        <ele>861</ele>
        <time>1970-01-01T02:00:07.000Z</time>
      </trkpt>
      <trkpt lat="42.257311" lon="2.396977">
        <ele>861</ele>
        <time>1970-01-01T02:00:08.000Z</time>
      </trkpt>
      <trkpt lat="42.257304" lon="2.396934">
        <ele>861</ele>
        <time>1970-01-01T02:00:09.000Z</time>
      </trkpt>
      <trkpt lat="42.257298" lon="2.396891">
        <ele>861</ele>
        <time>1970-01-01T02:00:10.000Z</time>
      </trkpt>
      <trkpt lat="42.257291" lon="2.396848">
        <ele>861</ele>
        <time>1970-01-01T02:00:11.000Z</time>
      </trkpt>
      <trkpt lat="42.257285" lon="2.396805">
        <ele>861</ele>
        <time>1970-01-01T02:00:12.000Z</time>
      </trkpt>
      <trkpt lat="42.257278" lon="2.396762">
        <ele>862</ele>
        <time>1970-01-01T02:00:13.000Z</time>
      </trkpt>
      <trkpt lat="42.257294" lon="2.396678">
        <ele>862</ele>
        <time>1970-01-01T02:00:14.000Z</time>
      </trkpt>
      <trkpt lat="42.257302" lon="2.396638">
        <ele>862</ele>
        <time>1970-01-01T02:00:15.000Z</time>
      </trkpt>
      <trkpt lat="42.257311" lon="2.396599">
        <ele>862</ele>
        <time>1970-01-01T02:00:16.000Z</time>
      </trkpt>
      <trkpt lat="42.25732" lon="2.39656">
        <ele>862</ele>
        <time>1970-01-01T02:00:17.000Z</time>
      </trkpt>
      <trkpt lat="42.257329" lon="2.396521">
        <ele>862</ele>
        <time>1970-01-01T02:00:18.000Z</time>
      </trkpt>
      <trkpt lat="42.257337" lon="2.396481">
        <ele>862</ele>
        <time>1970-01-01T02:00:19.000Z</time>
      </trkpt>
      <trkpt lat="42.257346" lon="2.396442">
        <ele>862</ele>
        <time>1970-01-01T02:00:20.000Z</time>
      </trkpt>
      <trkpt lat="42.257355" lon="2.396403">
        <ele>862</ele>
        <time>1970-01-01T02:00:21.000Z</time>
      </trkpt>
      <trkpt lat="42.257363" lon="2.396363">
        <ele>862</ele>
        <time>1970-01-01T02:00:22.000Z</time>
      </trkpt>
      <trkpt lat="42.257372" lon="2.396324">
        <ele>863</ele>
        <time>1970-01-01T02:00:23.000Z</time>
      </trkpt>
      <trkpt lat="42.257395" lon="2.396242">
        <ele>863</ele>
        <time>1970-01-01T02:00:24.000Z</time>
      </trkpt>
      <trkpt lat="42.257411" lon="2.396212">
        <ele>863</ele>
        <time>1970-01-01T02:00:25.000Z</time>
      </trkpt>
      <trkpt lat="42.257426" lon="2.396181">
        <ele>863</ele>
        <time>1970-01-01T02:00:26.000Z</time>
      </trkpt>
      <trkpt lat="42.257441" lon="2.39615">
        <ele>863</ele>
        <time>1970-01-01T02:00:27.000Z</time>
      </trkpt>
      <trkpt lat="42.257457" lon="2.39612">
        <ele>863</ele>
        <time>1970-01-01T02:00:28.000Z</time>
      </trkpt>
      <trkpt lat="42.257472" lon="2.396089">
        <ele>863</ele>
        <time>1970-01-01T02:00:29.000Z</time>
      </trkpt>
      <trkpt lat="42.257487" lon="2.396058">
        <ele>863</ele>
        <time>1970-01-01T02:00:30.000Z</time>
      </trkpt>
      <trkpt lat="42.257502" lon="2.396027">
        <ele>863</ele>
        <time>1970-01-01T02:00:31.000Z</time>
      </trkpt>
      <trkpt lat="42.257518" lon="2.395997">
        <ele>863</ele>
        <time>1970-01-01T02:00:32.000Z</time>
      </trkpt>
      <trkpt lat="42.257533" lon="2.395966">
        <ele>863</ele>
        <time>1970-01-01T02:00:33.000Z</time>
      </trkpt>
      <trkpt lat="42.257571" lon="2.395916">
        <ele>863</ele>
        <time>1970-01-01T02:00:34.000Z</time>
      </trkpt>
      <trkpt lat="42.257592" lon="2.395892">
        <ele>863</ele>
        <time>1970-01-01T02:00:35.000Z</time>
      </trkpt>
      <trkpt lat="42.257613" lon="2.395867">
        <ele>863</ele>
        <time>1970-01-01T02:00:36.000Z</time>
      </trkpt>
      <trkpt lat="42.257634" lon="2.395843">
        <ele>863</ele>
        <time>1970-01-01T02:00:37.000Z</time>
      </trkpt>
      <trkpt lat="42.257655" lon="2.395818">
        <ele>863</ele>
        <time>1970-01-01T02:00:38.000Z</time>
      </trkpt>
      <trkpt lat="42.257676" lon="2.395793">
        <ele>863</ele>
        <time>1970-01-01T02:00:39.000Z</time>
      </trkpt>
      <trkpt lat="42.257697" lon="2.395769">
        <ele>863</ele>
        <time>1970-01-01T02:00:40.000Z</time>
      </trkpt>
      <trkpt lat="42.257718" lon="2.395744">
        <ele>863</ele>
        <time>1970-01-01T02:00:41.000Z</time>
      </trkpt>
      <trkpt lat="42.257739" lon="2.39572">
        <ele>863</ele>
        <time>1970-01-01T02:00:42.000Z</time>
      </trkpt>
      <trkpt lat="42.25776" lon="2.395695">
        <ele>863</ele>
        <time>1970-01-01T02:00:43.000Z</time>
      </trkpt>
      <trkpt lat="42.257814" lon="2.395649">
        <ele>863</ele>
        <time>1970-01-01T02:00:44.000Z</time>
      </trkpt>
      <trkpt lat="42.25784" lon="2.39563">
        <ele>863</ele>
        <time>1970-01-01T02:00:45.000Z</time>
      </trkpt>
      <trkpt lat="42.257865" lon="2.39561">
        <ele>863</ele>
        <time>1970-01-01T02:00:46.000Z</time>
      </trkpt>
      <trkpt lat="42.257891" lon="2.39559">
        <ele>863</ele>
        <time>1970-01-01T02:00:47.000Z</time>
      </trkpt>
      <trkpt lat="42.257917" lon="2.395571">
        <ele>863</ele>
        <time>1970-01-01T02:00:48.000Z</time>
      </trkpt>
      <trkpt lat="42.257943" lon="2.395551">
        <ele>863</ele>
        <time>1970-01-01T02:00:49.000Z</time>
      </trkpt>
      <trkpt lat="42.257969" lon="2.395531">
        <ele>863</ele>
        <time>1970-01-01T02:00:50.000Z</time>
      </trkpt>
      <trkpt lat="42.257994" lon="2.395511">
        <ele>863</ele>
        <time>1970-01-01T02:00:51.000Z</time>
      </trkpt>
      <trkpt lat="42.25802" lon="2.395492">
        <ele>863</ele>
        <time>1970-01-01T02:00:52.000Z</time>
      </trkpt>
      <trkpt lat="42.258046" lon="2.395472">
        <ele>864</ele>
        <time>1970-01-01T02:00:53.000Z</time>
      </trkpt>
      <trkpt lat="42.258102" lon="2.395423">
        <ele>864</ele>
        <time>1970-01-01T02:00:54.000Z</time>
      </trkpt>
      <trkpt lat="42.258129" lon="2.395397">
        <ele>864</ele>
        <time>1970-01-01T02:00:55.000Z</time>
      </trkpt>
      <trkpt lat="42.258155" lon="2.395372">
        <ele>864</ele>
        <time>1970-01-01T02:00:56.000Z</time>
      </trkpt>
      <trkpt lat="42.258182" lon="2.395347">
        <ele>864</ele>
        <time>1970-01-01T02:00:57.000Z</time>
      </trkpt>
      <trkpt lat="42.258208" lon="2.395322">
        <ele>864</ele>
        <time>1970-01-01T02:00:58.000Z</time>
      </trkpt>
      <trkpt lat="42.258234" lon="2.395296">
        <ele>864</ele>
        <time>1970-01-01T02:00:59.000Z</time>
      </trkpt>
      <trkpt lat="42.258261" lon="2.395271">
        <ele>864</ele>
        <time>1970-01-01T02:01:00.000Z</time>
      </trkpt>
      <trkpt lat="42.258287" lon="2.395246">
        <ele>864</ele>
        <time>1970-01-01T02:01:01.000Z</time>
      </trkpt>
      <trkpt lat="42.258314" lon="2.39522">
        <ele>864</ele>
        <time>1970-01-01T02:01:02.000Z</time>
      </trkpt>
      <trkpt lat="42.25834" lon="2.395195">
        <ele>864</ele>
        <time>1970-01-01T02:01:03.000Z</time>
      </trkpt>
      <trkpt lat="42.258361" lon="2.39512">
        <ele>864</ele>
        <time>1970-01-01T02:01:04.000Z</time>
      </trkpt>
      <trkpt lat="42.25836" lon="2.395078">
        <ele>864</ele>
        <time>1970-01-01T02:01:05.000Z</time>
      </trkpt>
      <trkpt lat="42.258359" lon="2.395037">
        <ele>864</ele>
        <time>1970-01-01T02:01:06.000Z</time>
      </trkpt>
      <trkpt lat="42.258358" lon="2.394996">
        <ele>864</ele>
        <time>1970-01-01T02:01:07.000Z</time>
      </trkpt>
      <trkpt lat="42.258357" lon="2.394954">
        <ele>864</ele>
        <time>1970-01-01T02:01:08.000Z</time>
      </trkpt>
      <trkpt lat="42.258355" lon="2.394913">
        <ele>864</ele>
        <time>1970-01-01T02:01:09.000Z</time>
      </trkpt>
      <trkpt lat="42.258354" lon="2.394872">
        <ele>864</ele>
        <time>1970-01-01T02:01:10.000Z</time>
      </trkpt>
      <trkpt lat="42.258353" lon="2.394831">
        <ele>864</ele>
        <time>1970-01-01T02:01:11.000Z</time>
      </trkpt>
      <trkpt lat="42.258352" lon="2.394789">
        <ele>864</ele>
        <time>1970-01-01T02:01:12.000Z</time>
      </trkpt>
      <trkpt lat="42.258351" lon="2.394748">
        <ele>865</ele>
        <time>1970-01-01T02:01:13.000Z</time>
      </trkpt>
      <trkpt lat="42.258315" lon="2.39467">
        <ele>865</ele>
        <time>1970-01-01T02:01:14.000Z</time>
      </trkpt>
      <trkpt lat="42.258294" lon="2.394635">
        <ele>865</ele>
        <time>1970-01-01T02:01:15.000Z</time>
      </trkpt>
      <trkpt lat="42.258273" lon="2.394601">
        <ele>865</ele>
        <time>1970-01-01T02:01:16.000Z</time>
      </trkpt>
      <trkpt lat="42.258252" lon="2.394566">
        <ele>865</ele>
        <time>1970-01-01T02:01:17.000Z</time>
      </trkpt>
      <trkpt lat="42.258231" lon="2.394532">
        <ele>865</ele>
        <time>1970-01-01T02:01:18.000Z</time>
      </trkpt>
      <trkpt lat="42.258209" lon="2.394498">
        <ele>865</ele>
        <time>1970-01-01T02:01:19.000Z</time>
      </trkpt>
      <trkpt lat="42.258188" lon="2.394463">
        <ele>865</ele>
        <time>1970-01-01T02:01:20.000Z</time>
      </trkpt>
      <trkpt lat="42.258167" lon="2.394429">
        <ele>865</ele>
        <time>1970-01-01T02:01:21.000Z</time>
      </trkpt>
      <trkpt lat="42.258146" lon="2.394394">
        <ele>865</ele>
        <time>1970-01-01T02:01:22.000Z</time>
      </trkpt>
      <trkpt lat="42.258125" lon="2.39436">
        <ele>866</ele>
        <time>1970-01-01T02:01:23.000Z</time>
      </trkpt>
      <trkpt lat="42.258065" lon="2.394295">
        <ele>866</ele>
        <time>1970-01-01T02:01:24.000Z</time>
      </trkpt>
      <trkpt lat="42.258036" lon="2.394263">
        <ele>866</ele>
        <time>1970-01-01T02:01:25.000Z</time>
      </trkpt>
      <trkpt lat="42.258006" lon="2.39423">
        <ele>866</ele>
        <time>1970-01-01T02:01:26.000Z</time>
      </trkpt>
      <trkpt lat="42.257977" lon="2.394198">
        <ele>866</ele>
        <time>1970-01-01T02:01:27.000Z</time>
      </trkpt>
      <trkpt lat="42.257947" lon="2.394166">
        <ele>866</ele>
        <time>1970-01-01T02:01:28.000Z</time>
      </trkpt>
      <trkpt lat="42.257917" lon="2.394134">
        <ele>866</ele>
        <time>1970-01-01T02:01:29.000Z</time>
      </trkpt>
      <trkpt lat="42.257888" lon="2.394102">
        <ele>866</ele>
        <time>1970-01-01T02:01:30.000Z</time>
      </trkpt>
      <trkpt lat="42.257858" lon="2.394069">
        <ele>866</ele>
        <time>1970-01-01T02:01:31.000Z</time>
      </trkpt>
      <trkpt lat="42.257829" lon="2.394037">
        <ele>866</ele>
        <time>1970-01-01T02:01:32.000Z</time>
      </trkpt>
      <trkpt lat="42.257799" lon="2.394005">
        <ele>866</ele>
        <time>1970-01-01T02:01:33.000Z</time>
      </trkpt>
      <trkpt lat="42.257799" lon="2.393896">
        <ele>866</ele>
        <time>1970-01-01T02:01:34.000Z</time>
      </trkpt>
      <trkpt lat="42.257815" lon="2.393852">
        <ele>866</ele>
        <time>1970-01-01T02:01:35.000Z</time>
      </trkpt>
      <trkpt lat="42.257831" lon="2.393807">
        <ele>866</ele>
        <time>1970-01-01T02:01:36.000Z</time>
      </trkpt>
      <trkpt lat="42.257847" lon="2.393763">
        <ele>866</ele>
        <time>1970-01-01T02:01:37.000Z</time>
      </trkpt>
      <trkpt lat="42.257863" lon="2.393719">
        <ele>866</ele>
        <time>1970-01-01T02:01:38.000Z</time>
      </trkpt>
      <trkpt lat="42.257879" lon="2.393675">
        <ele>866</ele>
        <time>1970-01-01T02:01:39.000Z</time>
      </trkpt>
      <trkpt lat="42.257895" lon="2.393631">
        <ele>866</ele>
        <time>1970-01-01T02:01:40.000Z</time>
      </trkpt>
      <trkpt lat="42.257911" lon="2.393586">
        <ele>866</ele>
        <time>1970-01-01T02:01:41.000Z</time>
      </trkpt>
      <trkpt lat="42.257927" lon="2.393542">
        <ele>866</ele>
        <time>1970-01-01T02:01:42.000Z</time>
      </trkpt>
      <trkpt lat="42.257943" lon="2.393498">
        <ele>866</ele>
        <time>1970-01-01T02:01:43.000Z</time>
      </trkpt>
      <trkpt lat="42.258001" lon="2.393429">
        <ele>866</ele>
        <time>1970-01-01T02:01:44.000Z</time>
      </trkpt>
      <trkpt lat="42.258029" lon="2.393399">
        <ele>866</ele>
        <time>1970-01-01T02:01:45.000Z</time>
      </trkpt>
      <trkpt lat="42.258058" lon="2.393368">
        <ele>866</ele>
        <time>1970-01-01T02:01:46.000Z</time>
      </trkpt>
      <trkpt lat="42.258086" lon="2.393338">
        <ele>866</ele>
        <time>1970-01-01T02:01:47.000Z</time>
      </trkpt>
      <trkpt lat="42.258115" lon="2.393308">
        <ele>866</ele>
        <time>1970-01-01T02:01:48.000Z</time>
      </trkpt>
      <trkpt lat="42.258144" lon="2.393278">
        <ele>866</ele>
        <time>1970-01-01T02:01:49.000Z</time>
      </trkpt>
      <trkpt lat="42.258172" lon="2.393248">
        <ele>866</ele>
        <time>1970-01-01T02:01:50.000Z</time>
      </trkpt>
      <trkpt lat="42.258201" lon="2.393217">
        <ele>866</ele>
        <time>1970-01-01T02:01:51.000Z</time>
      </trkpt>
      <trkpt lat="42.258229" lon="2.393187">
        <ele>866</ele>
        <time>1970-01-01T02:01:52.000Z</time>
      </trkpt>
      <trkpt lat="42.258258" lon="2.393157">
        <ele>866</ele>
        <time>1970-01-01T02:01:53.000Z</time>
      </trkpt>
      <trkpt lat="42.258313" lon="2.39311">
        <ele>866</ele>
        <time>1970-01-01T02:01:54.000Z</time>
      </trkpt>
      <trkpt lat="42.258335" lon="2.393087">
        <ele>866</ele>
        <time>1970-01-01T02:01:55.000Z</time>
      </trkpt>
      <trkpt lat="42.258358" lon="2.393065">
        <ele>866</ele>
        <time>1970-01-01T02:01:56.000Z</time>
      </trkpt>
      <trkpt lat="42.258381" lon="2.393042">
        <ele>866</ele>
        <time>1970-01-01T02:01:57.000Z</time>
      </trkpt>
      <trkpt lat="42.258404" lon="2.39302">
        <ele>866</ele>
        <time>1970-01-01T02:01:58.000Z</time>
      </trkpt>
      <trkpt lat="42.258426" lon="2.392998">
        <ele>866</ele>
        <time>1970-01-01T02:01:59.000Z</time>
      </trkpt>
      <trkpt lat="42.258449" lon="2.392975">
        <ele>866</ele>
        <time>1970-01-01T02:02:00.000Z</time>
      </trkpt>
      <trkpt lat="42.258472" lon="2.392953">
        <ele>866</ele>
        <time>1970-01-01T02:02:01.000Z</time>
      </trkpt>
      <trkpt lat="42.258494" lon="2.39293">
        <ele>866</ele>
        <time>1970-01-01T02:02:02.000Z</time>
      </trkpt>
      <trkpt lat="42.258517" lon="2.392908">
        <ele>867</ele>
        <time>1970-01-01T02:02:03.000Z</time>
      </trkpt>
      <trkpt lat="42.25856" lon="2.392853">
        <ele>867</ele>
        <time>1970-01-01T02:02:04.000Z</time>
      </trkpt>
      <trkpt lat="42.25858" lon="2.392824">
        <ele>867</ele>
        <time>1970-01-01T02:02:05.000Z</time>
      </trkpt>
      <trkpt lat="42.258599" lon="2.392796">
        <ele>867</ele>
        <time>1970-01-01T02:02:06.000Z</time>
      </trkpt>
      <trkpt lat="42.258619" lon="2.392767">
        <ele>867</ele>
        <time>1970-01-01T02:02:07.000Z</time>
      </trkpt>
      <trkpt lat="42.258639" lon="2.392738">
        <ele>867</ele>
        <time>1970-01-01T02:02:08.000Z</time>
      </trkpt>
      <trkpt lat="42.258659" lon="2.392709">
        <ele>867</ele>
        <time>1970-01-01T02:02:09.000Z</time>
      </trkpt>
      <trkpt lat="42.258679" lon="2.39268">
        <ele>867</ele>
        <time>1970-01-01T02:02:10.000Z</time>
      </trkpt>
      <trkpt lat="42.258698" lon="2.392652">
        <ele>867</ele>
        <time>1970-01-01T02:02:11.000Z</time>
      </trkpt>
      <trkpt lat="42.258718" lon="2.392623">
        <ele>867</ele>
        <time>1970-01-01T02:02:12.000Z</time>
      </trkpt>
      <trkpt lat="42.258738" lon="2.392594">
        <ele>867</ele>
        <time>1970-01-01T02:02:13.000Z</time>
      </trkpt>
      <trkpt lat="42.258752" lon="2.392533">
        <ele>867</ele>
        <time>1970-01-01T02:02:14.000Z</time>
      </trkpt>
      <trkpt lat="42.258755" lon="2.392507">
        <ele>867</ele>
        <time>1970-01-01T02:02:15.000Z</time>
      </trkpt>
      <trkpt lat="42.258757" lon="2.392481">
        <ele>867</ele>
        <time>1970-01-01T02:02:16.000Z</time>
      </trkpt>
      <trkpt lat="42.25876" lon="2.392455">
        <ele>867</ele>
        <time>1970-01-01T02:02:17.000Z</time>
      </trkpt>
      <trkpt lat="42.258762" lon="2.39243">
        <ele>867</ele>
        <time>1970-01-01T02:02:18.000Z</time>
      </trkpt>
      <trkpt lat="42.258765" lon="2.392404">
        <ele>867</ele>
        <time>1970-01-01T02:02:19.000Z</time>
      </trkpt>
      <trkpt lat="42.258767" lon="2.392378">
        <ele>867</ele>
        <time>1970-01-01T02:02:20.000Z</time>
      </trkpt>
      <trkpt lat="42.25877" lon="2.392352">
        <ele>867</ele>
        <time>1970-01-01T02:02:21.000Z</time>
      </trkpt>
      <trkpt lat="42.258772" lon="2.392326">
        <ele>867</ele>
        <time>1970-01-01T02:02:23.000Z</time>
      </trkpt>
      <trkpt lat="42.258762" lon="2.392293">
        <ele>867</ele>
        <time>1970-01-01T02:02:26.000Z</time>
      </trkpt>
      <trkpt lat="42.258752" lon="2.39226">
        <ele>867</ele>
        <time>1970-01-01T02:02:27.000Z</time>
      </trkpt>
      <trkpt lat="42.258742" lon="2.392227">
        <ele>868</ele>
        <time>1970-01-01T02:02:49.000Z</time>
      </trkpt>
      <trkpt lat="42.258733" lon="2.392194">
        <ele>868</ele>
        <time>1970-01-01T02:02:50.000Z</time>
      </trkpt>
      <trkpt lat="42.258723" lon="2.392161">
        <ele>868</ele>
        <time>1970-01-01T02:02:51.000Z</time>
      </trkpt>
      <trkpt lat="42.258713" lon="2.392128">
        <ele>868</ele>
        <time>1970-01-01T02:02:52.000Z</time>
      </trkpt>
      <trkpt lat="42.258703" lon="2.392095">
        <ele>868</ele>
        <time>1970-01-01T02:02:53.000Z</time>
      </trkpt>
      <trkpt lat="42.258693" lon="2.392062">
        <ele>868</ele>
        <time>1970-01-01T02:02:54.000Z</time>
      </trkpt>
      <trkpt lat="42.258683" lon="2.392029">
        <ele>868</ele>
        <time>1970-01-01T02:02:55.000Z</time>
      </trkpt>
      <trkpt lat="42.258674" lon="2.391996">
        <ele>868</ele>
        <time>1970-01-01T02:02:56.000Z</time>
      </trkpt>
      <trkpt lat="42.258664" lon="2.391963">
        <ele>868</ele>
        <time>1970-01-01T02:02:57.000Z</time>
      </trkpt>
      <trkpt lat="42.258654" lon="2.39193">
        <ele>868</ele>
        <time>1970-01-01T02:02:58.000Z</time>
      </trkpt>
      <trkpt lat="42.258644" lon="2.391897">
        <ele>868</ele>
        <time>1970-01-01T02:02:59.000Z</time>
      </trkpt>
      <trkpt lat="42.258616" lon="2.391822">
        <ele>868</ele>
        <time>1970-01-01T02:03:00.000Z</time>
      </trkpt>
      <trkpt lat="42.258602" lon="2.391788">
        <ele>868</ele>
        <time>1970-01-01T02:03:01.000Z</time>
      </trkpt>
      <trkpt lat="42.258587" lon="2.391754">
        <ele>868</ele>
        <time>1970-01-01T02:03:02.000Z</time>
      </trkpt>
      <trkpt lat="42.258573" lon="2.39172">
        <ele>868</ele>
        <time>1970-01-01T02:03:03.000Z</time>
      </trkpt>
      <trkpt lat="42.258558" lon="2.391686">
        <ele>868</ele>
        <time>1970-01-01T02:03:04.000Z</time>
      </trkpt>
      <trkpt lat="42.258543" lon="2.391653">
        <ele>868</ele>
        <time>1970-01-01T02:03:05.000Z</time>
      </trkpt>
      <trkpt lat="42.258529" lon="2.391619">
        <ele>868</ele>
        <time>1970-01-01T02:03:06.000Z</time>
      </trkpt>
      <trkpt lat="42.258514" lon="2.391585">
        <ele>868</ele>
        <time>1970-01-01T02:03:07.000Z</time>
      </trkpt>
      <trkpt lat="42.2585" lon="2.391551">
        <ele>868</ele>
        <time>1970-01-01T02:03:08.000Z</time>
      </trkpt>
      <trkpt lat="42.258485" lon="2.391517">
        <ele>869</ele>
        <time>1970-01-01T02:03:09.000Z</time>
      </trkpt>
      <trkpt lat="42.258438" lon="2.391455">
        <ele>869</ele>
        <time>1970-01-01T02:03:10.000Z</time>
      </trkpt>
      <trkpt lat="42.258415" lon="2.391427">
        <ele>869</ele>
        <time>1970-01-01T02:03:11.000Z</time>
      </trkpt>
      <trkpt lat="42.258392" lon="2.3914">
        <ele>869</ele>
        <time>1970-01-01T02:03:12.000Z</time>
      </trkpt>
      <trkpt lat="42.258369" lon="2.391372">
        <ele>869</ele>
        <time>1970-01-01T02:03:13.000Z</time>
      </trkpt>
      <trkpt lat="42.258346" lon="2.391344">
        <ele>869</ele>
        <time>1970-01-01T02:03:14.000Z</time>
      </trkpt>
      <trkpt lat="42.258323" lon="2.391316">
        <ele>869</ele>
        <time>1970-01-01T02:03:15.000Z</time>
      </trkpt>
      <trkpt lat="42.2583" lon="2.391288">
        <ele>869</ele>
        <time>1970-01-01T02:03:16.000Z</time>
      </trkpt>
      <trkpt lat="42.258277" lon="2.391261">
        <ele>869</ele>
        <time>1970-01-01T02:03:17.000Z</time>
      </trkpt>
      <trkpt lat="42.258254" lon="2.391233">
        <ele>869</ele>
        <time>1970-01-01T02:03:18.000Z</time>
      </trkpt>
      <trkpt lat="42.258231" lon="2.391205">
        <ele>869</ele>
        <time>1970-01-01T02:03:19.000Z</time>
      </trkpt>
      <trkpt lat="42.25818" lon="2.391147">
        <ele>869</ele>
        <time>1970-01-01T02:03:20.000Z</time>
      </trkpt>
      <trkpt lat="42.258157" lon="2.391118">
        <ele>869</ele>
        <time>1970-01-01T02:03:21.000Z</time>
      </trkpt>
      <trkpt lat="42.258134" lon="2.39109">
        <ele>869</ele>
        <time>1970-01-01T02:03:22.000Z</time>
      </trkpt>
      <trkpt lat="42.258111" lon="2.391061">
        <ele>869</ele>
        <time>1970-01-01T02:03:23.000Z</time>
      </trkpt>
      <trkpt lat="42.258088" lon="2.391032">
        <ele>869</ele>
        <time>1970-01-01T02:03:24.000Z</time>
      </trkpt>
      <trkpt lat="42.258065" lon="2.391003">
        <ele>869</ele>
        <time>1970-01-01T02:03:25.000Z</time>
      </trkpt>
      <trkpt lat="42.258042" lon="2.390974">
        <ele>869</ele>
        <time>1970-01-01T02:03:26.000Z</time>
      </trkpt>
      <trkpt lat="42.258019" lon="2.390946">
        <ele>869</ele>
        <time>1970-01-01T02:03:27.000Z</time>
      </trkpt>
      <trkpt lat="42.257996" lon="2.390917">
        <ele>869</ele>
        <time>1970-01-01T02:03:28.000Z</time>
      </trkpt>
      <trkpt lat="42.257973" lon="2.390888">
        <ele>870</ele>
        <time>1970-01-01T02:03:29.000Z</time>
      </trkpt>
      <trkpt lat="42.257912" lon="2.390831">
        <ele>870</ele>
        <time>1970-01-01T02:03:30.000Z</time>
      </trkpt>
      <trkpt lat="42.257881" lon="2.390806">
        <ele>870</ele>
        <time>1970-01-01T02:03:31.000Z</time>
      </trkpt>
      <trkpt lat="42.257851" lon="2.39078">
        <ele>870</ele>
        <time>1970-01-01T02:03:32.000Z</time>
      </trkpt>
      <trkpt lat="42.25782" lon="2.390755">
        <ele>870</ele>
        <time>1970-01-01T02:03:33.000Z</time>
      </trkpt>
      <trkpt lat="42.257789" lon="2.390729">
        <ele>870</ele>
        <time>1970-01-01T02:03:34.000Z</time>
      </trkpt>
      <trkpt lat="42.257758" lon="2.390704">
        <ele>870</ele>
        <time>1970-01-01T02:03:35.000Z</time>
      </trkpt>
      <trkpt lat="42.257727" lon="2.390678">
        <ele>870</ele>
        <time>1970-01-01T02:03:36.000Z</time>
      </trkpt>
      <trkpt lat="42.257697" lon="2.390653">
        <ele>870</ele>
        <time>1970-01-01T02:03:37.000Z</time>
      </trkpt>
      <trkpt lat="42.257666" lon="2.390627">
        <ele>870</ele>
        <time>1970-01-01T02:03:38.000Z</time>
      </trkpt>
      <trkpt lat="42.257635" lon="2.390602">
        <ele>870</ele>
        <time>1970-01-01T02:03:39.000Z</time>
      </trkpt>
      <trkpt lat="42.257594" lon="2.390526">
        <ele>870</ele>
        <time>1970-01-01T02:03:40.000Z</time>
      </trkpt>
      <trkpt lat="42.257581" lon="2.390488">
        <ele>870</ele>
        <time>1970-01-01T02:03:41.000Z</time>
      </trkpt>
      <trkpt lat="42.257569" lon="2.390449">
        <ele>870</ele>
        <time>1970-01-01T02:03:42.000Z</time>
      </trkpt>
      <trkpt lat="42.257556" lon="2.39041">
        <ele>870</ele>
        <time>1970-01-01T02:03:43.000Z</time>
      </trkpt>
      <trkpt lat="42.257544" lon="2.390371">
        <ele>870</ele>
        <time>1970-01-01T02:03:44.000Z</time>
      </trkpt>
      <trkpt lat="42.257531" lon="2.390333">
        <ele>870</ele>
        <time>1970-01-01T02:03:45.000Z</time>
      </trkpt>
      <trkpt lat="42.257519" lon="2.390294">
        <ele>870</ele>
        <time>1970-01-01T02:03:46.000Z</time>
      </trkpt>
      <trkpt lat="42.257506" lon="2.390255">
        <ele>870</ele>
        <time>1970-01-01T02:03:47.000Z</time>
      </trkpt>
      <trkpt lat="42.257494" lon="2.390217">
        <ele>870</ele>
        <time>1970-01-01T02:03:48.000Z</time>
      </trkpt>
      <trkpt lat="42.257481" lon="2.390178">
        <ele>870</ele>
        <time>1970-01-01T02:03:49.000Z</time>
      </trkpt>
      <trkpt lat="42.257499" lon="2.390104">
        <ele>870</ele>
        <time>1970-01-01T02:03:50.000Z</time>
      </trkpt>
      <trkpt lat="42.257514" lon="2.390069">
        <ele>870</ele>
        <time>1970-01-01T02:03:51.000Z</time>
      </trkpt>
      <trkpt lat="42.257529" lon="2.390035">
        <ele>870</ele>
        <time>1970-01-01T02:03:52.000Z</time>
      </trkpt>
      <trkpt lat="42.257544" lon="2.39">
        <ele>870</ele>
        <time>1970-01-01T02:03:53.000Z</time>
      </trkpt>
      <trkpt lat="42.257559" lon="2.389966">
        <ele>870</ele>
        <time>1970-01-01T02:03:54.000Z</time>
      </trkpt>
      <trkpt lat="42.257574" lon="2.389932">
        <ele>870</ele>
        <time>1970-01-01T02:03:55.000Z</time>
      </trkpt>
      <trkpt lat="42.257589" lon="2.389897">
        <ele>870</ele>
        <time>1970-01-01T02:03:56.000Z</time>
      </trkpt>
      <trkpt lat="42.257604" lon="2.389863">
        <ele>870</ele>
        <time>1970-01-01T02:03:57.000Z</time>
      </trkpt>
      <trkpt lat="42.257619" lon="2.389828">
        <ele>870</ele>
        <time>1970-01-01T02:03:58.000Z</time>
      </trkpt>
      <trkpt lat="42.257634" lon="2.389794">
        <ele>870</ele>
        <time>1970-01-01T02:03:59.000Z</time>
      </trkpt>
      <trkpt lat="42.25769" lon="2.389736">
        <ele>870</ele>
        <time>1970-01-01T02:04:00.000Z</time>
      </trkpt>
      <trkpt lat="42.257725" lon="2.389723">
        <ele>870</ele>
        <time>1970-01-01T02:04:01.000Z</time>
      </trkpt>
      <trkpt lat="42.257759" lon="2.38971">
        <ele>870</ele>
        <time>1970-01-01T02:04:02.000Z</time>
      </trkpt>
      <trkpt lat="42.257793" lon="2.389697">
        <ele>870</ele>
        <time>1970-01-01T02:04:03.000Z</time>
      </trkpt>
      <trkpt lat="42.257828" lon="2.389684">
        <ele>870</ele>
        <time>1970-01-01T02:04:04.000Z</time>
      </trkpt>
      <trkpt lat="42.257862" lon="2.38967">
        <ele>870</ele>
        <time>1970-01-01T02:04:05.000Z</time>
      </trkpt>
      <trkpt lat="42.257896" lon="2.389657">
        <ele>870</ele>
        <time>1970-01-01T02:04:06.000Z</time>
      </trkpt>
      <trkpt lat="42.25793" lon="2.389644">
        <ele>870</ele>
        <time>1970-01-01T02:04:07.000Z</time>
      </trkpt>
      <trkpt lat="42.257965" lon="2.389631">
        <ele>870</ele>
        <time>1970-01-01T02:04:08.000Z</time>
      </trkpt>
      <trkpt lat="42.257999" lon="2.389618">
        <ele>871</ele>
        <time>1970-01-01T02:04:09.000Z</time>
      </trkpt>
      <trkpt lat="42.258076" lon="2.389631">
        <ele>871</ele>
        <time>1970-01-01T02:04:10.000Z</time>
      </trkpt>
      <trkpt lat="42.258113" lon="2.389634">
        <ele>871</ele>
        <time>1970-01-01T02:04:11.000Z</time>
      </trkpt>
      <trkpt lat="42.258149" lon="2.389638">
        <ele>871</ele>
        <time>1970-01-01T02:04:12.000Z</time>
      </trkpt>
      <trkpt lat="42.258186" lon="2.389641">
        <ele>871</ele>
        <time>1970-01-01T02:04:13.000Z</time>
      </trkpt>
      <trkpt lat="42.258222" lon="2.389645">
        <ele>871</ele>
        <time>1970-01-01T02:04:14.000Z</time>
      </trkpt>
      <trkpt lat="42.258258" lon="2.389649">
        <ele>871</ele>
        <time>1970-01-01T02:04:15.000Z</time>
      </trkpt>
      <trkpt lat="42.258295" lon="2.389652">
        <ele>871</ele>
        <time>1970-01-01T02:04:16.000Z</time>
      </trkpt>
      <trkpt lat="42.258331" lon="2.389656">
        <ele>871</ele>
        <time>1970-01-01T02:04:17.000Z</time>
      </trkpt>
      <trkpt lat="42.258368" lon="2.389659">
        <ele>871</ele>
        <time>1970-01-01T02:04:18.000Z</time>
      </trkpt>
      <trkpt lat="42.258404" lon="2.389663">
        <ele>872</ele>
        <time>1970-01-01T02:04:19.000Z</time>
      </trkpt>
      <trkpt lat="42.258477" lon="2.389636">
        <ele>872</ele>
        <time>1970-01-01T02:04:20.000Z</time>
      </trkpt>
      <trkpt lat="42.258511" lon="2.389619">
        <ele>872</ele>
        <time>1970-01-01T02:04:21.000Z</time>
      </trkpt>
      <trkpt lat="42.258546" lon="2.389603">
        <ele>872</ele>
        <time>1970-01-01T02:04:22.000Z</time>
      </trkpt>
      <trkpt lat="42.25858" lon="2.389586">
        <ele>872</ele>
        <time>1970-01-01T02:04:23.000Z</time>
      </trkpt>
      <trkpt lat="42.258615" lon="2.38957">
        <ele>872</ele>
        <time>1970-01-01T02:04:24.000Z</time>
      </trkpt>
      <trkpt lat="42.258649" lon="2.389553">
        <ele>872</ele>
        <time>1970-01-01T02:04:25.000Z</time>
      </trkpt>
      <trkpt lat="42.258684" lon="2.389537">
        <ele>872</ele>
        <time>1970-01-01T02:04:26.000Z</time>
      </trkpt>
      <trkpt lat="42.258718" lon="2.38952">
        <ele>872</ele>
        <time>1970-01-01T02:04:27.000Z</time>
      </trkpt>
      <trkpt lat="42.258753" lon="2.389504">
        <ele>872</ele>
        <time>1970-01-01T02:04:28.000Z</time>
      </trkpt>
      <trkpt lat="42.258787" lon="2.389487">
        <ele>872</ele>
        <time>1970-01-01T02:04:29.000Z</time>
      </trkpt>
      <trkpt lat="42.258847" lon="2.389423">
        <ele>872</ele>
        <time>1970-01-01T02:04:30.000Z</time>
      </trkpt>
      <trkpt lat="42.258872" lon="2.38939">
        <ele>872</ele>
        <time>1970-01-01T02:04:31.000Z</time>
      </trkpt>
      <trkpt lat="42.258898" lon="2.389358">
        <ele>872</ele>
        <time>1970-01-01T02:04:32.000Z</time>
      </trkpt>
      <trkpt lat="42.258924" lon="2.389325">
        <ele>872</ele>
        <time>1970-01-01T02:04:33.000Z</time>
      </trkpt>
      <trkpt lat="42.25895" lon="2.389292">
        <ele>872</ele>
        <time>1970-01-01T02:04:34.000Z</time>
      </trkpt>
      <trkpt lat="42.258975" lon="2.389259">
        <ele>872</ele>
        <time>1970-01-01T02:04:35.000Z</time>
      </trkpt>
      <trkpt lat="42.259001" lon="2.389226">
        <ele>872</ele>
        <time>1970-01-01T02:04:36.000Z</time>
      </trkpt>
      <trkpt lat="42.259027" lon="2.389194">
        <ele>872</ele>
        <time>1970-01-01T02:04:37.000Z</time>
      </trkpt>
      <trkpt lat="42.259052" lon="2.389161">
        <ele>872</ele>
        <time>1970-01-01T02:04:38.000Z</time>
      </trkpt>
      <trkpt lat="42.259078" lon="2.389128">
        <ele>872</ele>
        <time>1970-01-01T02:04:39.000Z</time>
      </trkpt>
      <trkpt lat="42.259139" lon="2.389066">
        <ele>872</ele>
        <time>1970-01-01T02:04:40.000Z</time>
      </trkpt>
      <trkpt lat="42.259169" lon="2.389039">
        <ele>872</ele>
        <time>1970-01-01T02:04:41.000Z</time>
      </trkpt>
      <trkpt lat="42.2592" lon="2.389013">
        <ele>872</ele>
        <time>1970-01-01T02:04:42.000Z</time>
      </trkpt>
      <trkpt lat="42.25923" lon="2.388986">
        <ele>872</ele>
        <time>1970-01-01T02:04:43.000Z</time>
      </trkpt>
      <trkpt lat="42.259261" lon="2.38896">
        <ele>872</ele>
        <time>1970-01-01T02:04:44.000Z</time>
      </trkpt>
      <trkpt lat="42.259291" lon="2.388933">
        <ele>872</ele>
        <time>1970-01-01T02:04:45.000Z</time>
      </trkpt>
      <trkpt lat="42.259322" lon="2.388907">
        <ele>872</ele>
        <time>1970-01-01T02:04:46.000Z</time>
      </trkpt>
      <trkpt lat="42.259352" lon="2.38888">
        <ele>872</ele>
        <time>1970-01-01T02:04:47.000Z</time>
      </trkpt>
      <trkpt lat="42.259383" lon="2.388854">
        <ele>872</ele>
        <time>1970-01-01T02:04:48.000Z</time>
      </trkpt>
      <trkpt lat="42.259413" lon="2.388827">
        <ele>874</ele>
        <time>1970-01-01T02:04:49.000Z</time>
      </trkpt>
      <trkpt lat="42.259484" lon="2.388779">
        <ele>874</ele>
        <time>1970-01-01T02:04:50.000Z</time>
      </trkpt>
      <trkpt lat="42.259517" lon="2.38877">
        <ele>874</ele>
        <time>1970-01-01T02:04:51.000Z</time>
      </trkpt>
      <trkpt lat="42.259551" lon="2.388761">
        <ele>874</ele>
        <time>1970-01-01T02:04:52.000Z</time>
      </trkpt>
      <trkpt lat="42.259584" lon="2.388752">
        <ele>874</ele>
        <time>1970-01-01T02:04:53.000Z</time>
      </trkpt>
      <trkpt lat="42.259618" lon="2.388744">
        <ele>874</ele>
        <time>1970-01-01T02:04:54.000Z</time>
      </trkpt>
      <trkpt lat="42.259651" lon="2.388735">
        <ele>874</ele>
        <time>1970-01-01T02:04:55.000Z</time>
      </trkpt>
      <trkpt lat="42.259685" lon="2.388726">
        <ele>874</ele>
        <time>1970-01-01T02:04:56.000Z</time>
      </trkpt>
      <trkpt lat="42.259718" lon="2.388717">
        <ele>874</ele>
        <time>1970-01-01T02:04:57.000Z</time>
      </trkpt>
      <trkpt lat="42.259752" lon="2.388708">
        <ele>874</ele>
        <time>1970-01-01T02:04:58.000Z</time>
      </trkpt>
      <trkpt lat="42.259785" lon="2.388699">
        <ele>875</ele>
        <time>1970-01-01T02:04:59.000Z</time>
      </trkpt>
      <trkpt lat="42.259845" lon="2.388685">
        <ele>875</ele>
        <time>1970-01-01T02:05:00.000Z</time>
      </trkpt>
      <trkpt lat="42.259873" lon="2.388664">
        <ele>875</ele>
        <time>1970-01-01T02:05:01.000Z</time>
      </trkpt>
      <trkpt lat="42.2599" lon="2.388643">
        <ele>875</ele>
        <time>1970-01-01T02:05:02.000Z</time>
      </trkpt>
      <trkpt lat="42.259927" lon="2.388622">
        <ele>875</ele>
        <time>1970-01-01T02:05:03.000Z</time>
      </trkpt>
      <trkpt lat="42.259955" lon="2.388601">
        <ele>875</ele>
        <time>1970-01-01T02:05:04.000Z</time>
      </trkpt>
      <trkpt lat="42.259982" lon="2.388579">
        <ele>875</ele>
        <time>1970-01-01T02:05:05.000Z</time>
      </trkpt>
      <trkpt lat="42.260009" lon="2.388558">
        <ele>875</ele>
        <time>1970-01-01T02:05:06.000Z</time>
      </trkpt>
      <trkpt lat="42.260036" lon="2.388537">
        <ele>875</ele>
        <time>1970-01-01T02:05:07.000Z</time>
      </trkpt>
      <trkpt lat="42.260064" lon="2.388516">
        <ele>875</ele>
        <time>1970-01-01T02:05:08.000Z</time>
      </trkpt>
      <trkpt lat="42.260091" lon="2.388495">
        <ele>876</ele>
        <time>1970-01-01T02:05:09.000Z</time>
      </trkpt>
      <trkpt lat="42.260116" lon="2.3884">
        <ele>876</ele>
        <time>1970-01-01T02:05:10.000Z</time>
      </trkpt>
      <trkpt lat="42.26012" lon="2.388351">
        <ele>876</ele>
        <time>1970-01-01T02:05:11.000Z</time>
      </trkpt>
      <trkpt lat="42.260125" lon="2.388303">
        <ele>876</ele>
        <time>1970-01-01T02:05:12.000Z</time>
      </trkpt>
      <trkpt lat="42.260129" lon="2.388254">
        <ele>876</ele>
        <time>1970-01-01T02:05:13.000Z</time>
      </trkpt>
      <trkpt lat="42.260134" lon="2.388206">
        <ele>876</ele>
        <time>1970-01-01T02:05:14.000Z</time>
      </trkpt>
      <trkpt lat="42.260138" lon="2.388157">
        <ele>876</ele>
        <time>1970-01-01T02:05:15.000Z</time>
      </trkpt>
      <trkpt lat="42.260143" lon="2.388109">
        <ele>876</ele>
        <time>1970-01-01T02:05:16.000Z</time>
      </trkpt>
      <trkpt lat="42.260147" lon="2.38806">
        <ele>876</ele>
        <time>1970-01-01T02:05:17.000Z</time>
      </trkpt>
      <trkpt lat="42.260152" lon="2.388012">
        <ele>876</ele>
        <time>1970-01-01T02:05:18.000Z</time>
      </trkpt>
      <trkpt lat="42.260156" lon="2.387963">
        <ele>876</ele>
        <time>1970-01-01T02:05:19.000Z</time>
      </trkpt>
      <trkpt lat="42.260149" lon="2.387861">
        <ele>876</ele>
        <time>1970-01-01T02:05:20.000Z</time>
      </trkpt>
      <trkpt lat="42.260146" lon="2.387813">
        <ele>876</ele>
        <time>1970-01-01T02:05:21.000Z</time>
      </trkpt>
      <trkpt lat="42.260142" lon="2.387764">
        <ele>876</ele>
        <time>1970-01-01T02:05:22.000Z</time>
      </trkpt>
      <trkpt lat="42.260138" lon="2.387716">
        <ele>876</ele>
        <time>1970-01-01T02:05:23.000Z</time>
      </trkpt>
      <trkpt lat="42.260135" lon="2.387667">
        <ele>876</ele>
        <time>1970-01-01T02:05:24.000Z</time>
      </trkpt>
      <trkpt lat="42.260131" lon="2.387619">
        <ele>876</ele>
        <time>1970-01-01T02:05:25.000Z</time>
      </trkpt>
      <trkpt lat="42.260127" lon="2.38757">
        <ele>876</ele>
        <time>1970-01-01T02:05:26.000Z</time>
      </trkpt>
      <trkpt lat="42.260123" lon="2.387522">
        <ele>876</ele>
        <time>1970-01-01T02:05:27.000Z</time>
      </trkpt>
      <trkpt lat="42.26012" lon="2.387473">
        <ele>876</ele>
        <time>1970-01-01T02:05:28.000Z</time>
      </trkpt>
      <trkpt lat="42.260116" lon="2.387425">
        <ele>877</ele>
        <time>1970-01-01T02:05:29.000Z</time>
      </trkpt>
      <trkpt lat="42.260075" lon="2.387293">
        <ele>877</ele>
        <time>1970-01-01T02:05:30.000Z</time>
      </trkpt>
      <trkpt lat="42.260043" lon="2.387226">
        <ele>877</ele>
        <time>1970-01-01T02:05:31.000Z</time>
      </trkpt>
      <trkpt lat="42.260012" lon="2.387159">
        <ele>877</ele>
        <time>1970-01-01T02:05:32.000Z</time>
      </trkpt>
      <trkpt lat="42.25998" lon="2.387092">
        <ele>877</ele>
        <time>1970-01-01T02:05:33.000Z</time>
      </trkpt>
      <trkpt lat="42.259949" lon="2.387025">
        <ele>877</ele>
        <time>1970-01-01T02:05:34.000Z</time>
      </trkpt>
      <trkpt lat="42.259917" lon="2.386958">
        <ele>877</ele>
        <time>1970-01-01T02:05:37.000Z</time>
      </trkpt>
      <trkpt lat="42.259886" lon="2.386891">
        <ele>878</ele>
        <time>1970-01-01T02:05:39.000Z</time>
      </trkpt>
      <trkpt lat="42.2598" lon="2.386771">
        <ele>878</ele>
        <time>1970-01-01T02:05:40.000Z</time>
      </trkpt>
      <trkpt lat="42.259749" lon="2.386699">
        <ele>878</ele>
        <time>1970-01-01T02:05:42.000Z</time>
      </trkpt>
      <trkpt lat="42.259698" lon="2.386627">
        <ele>878</ele>
        <time>1970-01-01T02:05:44.000Z</time>
      </trkpt>
      <trkpt lat="42.259647" lon="2.386555">
        <ele>878</ele>
        <time>1970-01-01T02:05:46.000Z</time>
      </trkpt>
      <trkpt lat="42.259596" lon="2.386483">
        <ele>878</ele>
        <time>1970-01-01T02:05:48.000Z</time>
      </trkpt>
      <trkpt lat="42.259545" lon="2.386411">
        <ele>878</ele>
        <time>1970-01-01T02:05:49.000Z</time>
      </trkpt>
      <trkpt lat="42.25947" lon="2.38626">
        <ele>878</ele>
        <time>1970-01-01T02:05:50.000Z</time>
      </trkpt>
      <trkpt lat="42.259426" lon="2.386159">
        <ele>878</ele>
        <time>1970-01-01T02:05:53.000Z</time>
      </trkpt>
      <trkpt lat="42.259381" lon="2.386058">
        <ele>878</ele>
        <time>1970-01-01T02:05:55.000Z</time>
      </trkpt>
      <trkpt lat="42.259337" lon="2.385957">
        <ele>878</ele>
        <time>1970-01-01T02:05:57.000Z</time>
      </trkpt>
      <trkpt lat="42.259292" lon="2.385856">
        <ele>878</ele>
        <time>1970-01-01T02:05:59.000Z</time>
      </trkpt>
      <trkpt lat="42.25923" lon="2.385626">
        <ele>878</ele>
        <time>1970-01-01T02:06:01.000Z</time>
      </trkpt>
      <trkpt lat="42.259211" lon="2.38553">
        <ele>878</ele>
        <time>1970-01-01T02:06:03.000Z</time>
      </trkpt>
      <trkpt lat="42.259193" lon="2.385433">
        <ele>878</ele>
        <time>1970-01-01T02:06:05.000Z</time>
      </trkpt>
      <trkpt lat="42.259175" lon="2.385337">
        <ele>878</ele>
        <time>1970-01-01T02:06:06.000Z</time>
      </trkpt>
      <trkpt lat="42.259156" lon="2.385241">
        <ele>878</ele>
        <time>1970-01-01T02:06:07.000Z</time>
      </trkpt>
      <trkpt lat="42.259138" lon="2.385145">
        <ele>878</ele>
        <time>1970-01-01T02:06:09.000Z</time>
      </trkpt>
      <trkpt lat="42.259083" lon="2.384932">
        <ele>878</ele>
        <time>1970-01-01T02:06:11.000Z</time>
      </trkpt>
      <trkpt lat="42.259039" lon="2.384846">
        <ele>878</ele>
        <time>1970-01-01T02:06:13.000Z</time>
      </trkpt>
      <trkpt lat="42.258996" lon="2.384761">
        <ele>878</ele>
        <time>1970-01-01T02:06:15.000Z</time>
      </trkpt>
      <trkpt lat="42.258952" lon="2.384675">
        <ele>878</ele>
        <time>1970-01-01T02:06:17.000Z</time>
      </trkpt>
      <trkpt lat="42.258909" lon="2.384589">
        <ele>879</ele>
        <time>1970-01-01T02:06:19.000Z</time>
      </trkpt>
      <trkpt lat="42.258798" lon="2.384456">
        <ele>879</ele>
        <time>1970-01-01T02:06:21.000Z</time>
      </trkpt>
      <trkpt lat="42.258768" lon="2.384411">
        <ele>879</ele>
        <time>1970-01-01T02:06:23.000Z</time>
      </trkpt>
      <trkpt lat="42.258739" lon="2.384366">
        <ele>879</ele>
        <time>1970-01-01T02:06:24.000Z</time>
      </trkpt>
      <trkpt lat="42.258709" lon="2.384322">
        <ele>879</ele>
        <time>1970-01-01T02:06:25.000Z</time>
      </trkpt>
      <trkpt lat="42.25868" lon="2.384277">
        <ele>879</ele>
        <time>1970-01-01T02:06:26.000Z</time>
      </trkpt>
      <trkpt lat="42.25865" lon="2.384232">
        <ele>879</ele>
        <time>1970-01-01T02:06:27.000Z</time>
      </trkpt>
      <trkpt lat="42.258621" lon="2.384187">
        <ele>879</ele>
        <time>1970-01-01T02:06:29.000Z</time>
      </trkpt>
      <trkpt lat="42.25865" lon="2.384087">
        <ele>879</ele>
        <time>1970-01-01T02:06:30.000Z</time>
      </trkpt>
      <trkpt lat="42.258678" lon="2.384048">
        <ele>879</ele>
        <time>1970-01-01T02:06:31.000Z</time>
      </trkpt>
      <trkpt lat="42.258706" lon="2.384009">
        <ele>879</ele>
        <time>1970-01-01T02:06:32.000Z</time>
      </trkpt>
      <trkpt lat="42.258734" lon="2.38397">
        <ele>879</ele>
        <time>1970-01-01T02:06:33.000Z</time>
      </trkpt>
      <trkpt lat="42.258762" lon="2.383931">
        <ele>879</ele>
        <time>1970-01-01T02:06:34.000Z</time>
      </trkpt>
      <trkpt lat="42.258789" lon="2.383892">
        <ele>879</ele>
        <time>1970-01-01T02:06:35.000Z</time>
      </trkpt>
      <trkpt lat="42.258817" lon="2.383853">
        <ele>879</ele>
        <time>1970-01-01T02:06:36.000Z</time>
      </trkpt>
      <trkpt lat="42.258845" lon="2.383814">
        <ele>879</ele>
        <time>1970-01-01T02:06:37.000Z</time>
      </trkpt>
      <trkpt lat="42.258873" lon="2.383775">
        <ele>879</ele>
        <time>1970-01-01T02:06:38.000Z</time>
      </trkpt>
      <trkpt lat="42.258901" lon="2.383736">
        <ele>879</ele>
        <time>1970-01-01T02:06:39.000Z</time>
      </trkpt>
      <trkpt lat="42.258936" lon="2.383651">
        <ele>879</ele>
        <time>1970-01-01T02:06:40.000Z</time>
      </trkpt>
      <trkpt lat="42.258937" lon="2.383611">
        <ele>879</ele>
        <time>1970-01-01T02:06:41.000Z</time>
      </trkpt>
      <trkpt lat="42.258939" lon="2.383571">
        <ele>879</ele>
        <time>1970-01-01T02:06:42.000Z</time>
      </trkpt>
      <trkpt lat="42.25894" lon="2.383531">
        <ele>879</ele>
        <time>1970-01-01T02:06:43.000Z</time>
      </trkpt>
      <trkpt lat="42.258942" lon="2.383491">
        <ele>879</ele>
        <time>1970-01-01T02:06:44.000Z</time>
      </trkpt>
      <trkpt lat="42.258943" lon="2.38345">
        <ele>879</ele>
        <time>1970-01-01T02:06:45.000Z</time>
      </trkpt>
      <trkpt lat="42.258945" lon="2.38341">
        <ele>879</ele>
        <time>1970-01-01T02:06:46.000Z</time>
      </trkpt>
      <trkpt lat="42.258946" lon="2.38337">
        <ele>879</ele>
        <time>1970-01-01T02:06:47.000Z</time>
      </trkpt>
      <trkpt lat="42.258948" lon="2.38333">
        <ele>879</ele>
        <time>1970-01-01T02:06:48.000Z</time>
      </trkpt>
      <trkpt lat="42.258949" lon="2.38329">
        <ele>879</ele>
        <time>1970-01-01T02:06:49.000Z</time>
      </trkpt>
      <trkpt lat="42.258862" lon="2.383132">
        <ele>879</ele>
        <time>1970-01-01T02:06:52.000Z</time>
      </trkpt>
      <trkpt lat="42.258848" lon="2.383087">
        <ele>879</ele>
        <time>1970-01-01T02:06:53.000Z</time>
      </trkpt>
      <trkpt lat="42.258835" lon="2.383041">
        <ele>879</ele>
        <time>1970-01-01T02:06:54.000Z</time>
      </trkpt>
      <trkpt lat="42.258822" lon="2.382995">
        <ele>879</ele>
        <time>1970-01-01T02:06:55.000Z</time>
      </trkpt>
      <trkpt lat="42.258808" lon="2.38295">
        <ele>879</ele>
        <time>1970-01-01T02:06:56.000Z</time>
      </trkpt>
      <trkpt lat="42.258795" lon="2.382904">
        <ele>879</ele>
        <time>1970-01-01T02:06:57.000Z</time>
      </trkpt>
      <trkpt lat="42.258781" lon="2.382859">
        <ele>879</ele>
        <time>1970-01-01T02:06:58.000Z</time>
      </trkpt>
      <trkpt lat="42.258768" lon="2.382813">
        <ele>880</ele>
        <time>1970-01-01T02:06:59.000Z</time>
      </trkpt>
      <trkpt lat="42.258808" lon="2.382726">
        <ele>880</ele>
        <time>1970-01-01T02:07:00.000Z</time>
      </trkpt>
      <trkpt lat="42.258844" lon="2.382687">
        <ele>880</ele>
        <time>1970-01-01T02:07:01.000Z</time>
      </trkpt>
      <trkpt lat="42.25888" lon="2.382647">
        <ele>880</ele>
        <time>1970-01-01T02:07:03.000Z</time>
      </trkpt>
      <trkpt lat="42.258916" lon="2.382608">
        <ele>880</ele>
        <time>1970-01-01T02:07:05.000Z</time>
      </trkpt>
      <trkpt lat="42.258952" lon="2.382568">
        <ele>880</ele>
        <time>1970-01-01T02:07:06.000Z</time>
      </trkpt>
      <trkpt lat="42.258988" lon="2.382528">
        <ele>880</ele>
        <time>1970-01-01T02:07:07.000Z</time>
      </trkpt>
      <trkpt lat="42.259024" lon="2.382489">
        <ele>880</ele>
        <time>1970-01-01T02:07:08.000Z</time>
      </trkpt>
      <trkpt lat="42.25906" lon="2.382449">
        <ele>880</ele>
        <time>1970-01-01T02:07:09.000Z</time>
      </trkpt>
      <trkpt lat="42.259124" lon="2.382359">
        <ele>880</ele>
        <time>1970-01-01T02:07:10.000Z</time>
      </trkpt>
      <trkpt lat="42.25915" lon="2.382317">
        <ele>880</ele>
        <time>1970-01-01T02:07:11.000Z</time>
      </trkpt>
      <trkpt lat="42.259175" lon="2.382274">
        <ele>880</ele>
        <time>1970-01-01T02:07:12.000Z</time>
      </trkpt>
      <trkpt lat="42.2592" lon="2.382231">
        <ele>880</ele>
        <time>1970-01-01T02:07:13.000Z</time>
      </trkpt>
      <trkpt lat="42.259226" lon="2.382189">
        <ele>880</ele>
        <time>1970-01-01T02:07:14.000Z</time>
      </trkpt>
      <trkpt lat="42.259251" lon="2.382146">
        <ele>880</ele>
        <time>1970-01-01T02:07:15.000Z</time>
      </trkpt>
      <trkpt lat="42.259276" lon="2.382103">
        <ele>880</ele>
        <time>1970-01-01T02:07:16.000Z</time>
      </trkpt>
      <trkpt lat="42.259302" lon="2.382061">
        <ele>880</ele>
        <time>1970-01-01T02:07:18.000Z</time>
      </trkpt>
      <trkpt lat="42.259327" lon="2.382018">
        <ele>881</ele>
        <time>1970-01-01T02:07:19.000Z</time>
      </trkpt>
      <trkpt lat="42.25939" lon="2.382006">
        <ele>881</ele>
        <time>1970-01-01T02:07:20.000Z</time>
      </trkpt>
      <trkpt lat="42.259425" lon="2.382022">
        <ele>881</ele>
        <time>1970-01-01T02:07:21.000Z</time>
      </trkpt>
      <trkpt lat="42.25946" lon="2.382039">
        <ele>881</ele>
        <time>1970-01-01T02:07:22.000Z</time>
      </trkpt>
      <trkpt lat="42.259495" lon="2.382055">
        <ele>881</ele>
        <time>1970-01-01T02:07:23.000Z</time>
      </trkpt>
      <trkpt lat="42.25953" lon="2.382072">
        <ele>881</ele>
        <time>1970-01-01T02:07:24.000Z</time>
      </trkpt>
      <trkpt lat="42.259565" lon="2.382089">
        <ele>881</ele>
        <time>1970-01-01T02:07:25.000Z</time>
      </trkpt>
      <trkpt lat="42.2596" lon="2.382105">
        <ele>881</ele>
        <time>1970-01-01T02:07:26.000Z</time>
      </trkpt>
      <trkpt lat="42.259635" lon="2.382122">
        <ele>881</ele>
        <time>1970-01-01T02:07:27.000Z</time>
      </trkpt>
      <trkpt lat="42.25967" lon="2.382138">
        <ele>881</ele>
        <time>1970-01-01T02:07:28.000Z</time>
      </trkpt>
      <trkpt lat="42.259705" lon="2.382155">
        <ele>881</ele>
        <time>1970-01-01T02:07:29.000Z</time>
      </trkpt>
      <trkpt lat="42.259767" lon="2.382228">
        <ele>881</ele>
        <time>1970-01-01T02:07:30.000Z</time>
      </trkpt>
      <trkpt lat="42.259795" lon="2.382264">
        <ele>881</ele>
        <time>1970-01-01T02:07:31.000Z</time>
      </trkpt>
      <trkpt lat="42.259824" lon="2.382299">
        <ele>881</ele>
        <time>1970-01-01T02:07:32.000Z</time>
      </trkpt>
      <trkpt lat="42.259853" lon="2.382335">
        <ele>881</ele>
        <time>1970-01-01T02:07:33.000Z</time>
      </trkpt>
      <trkpt lat="42.259882" lon="2.382371">
        <ele>881</ele>
        <time>1970-01-01T02:07:34.000Z</time>
      </trkpt>
      <trkpt lat="42.25991" lon="2.382407">
        <ele>881</ele>
        <time>1970-01-01T02:07:35.000Z</time>
      </trkpt>
      <trkpt lat="42.259939" lon="2.382443">
        <ele>881</ele>
        <time>1970-01-01T02:07:36.000Z</time>
      </trkpt>
      <trkpt lat="42.259968" lon="2.382478">
        <ele>881</ele>
        <time>1970-01-01T02:07:37.000Z</time>
      </trkpt>
      <trkpt lat="42.259996" lon="2.382514">
        <ele>881</ele>
        <time>1970-01-01T02:07:38.000Z</time>
      </trkpt>
      <trkpt lat="42.260025" lon="2.38255">
        <ele>882</ele>
        <time>1970-01-01T02:07:39.000Z</time>
      </trkpt>
      <trkpt lat="42.260092" lon="2.382607">
        <ele>882</ele>
        <time>1970-01-01T02:07:40.000Z</time>
      </trkpt>
      <trkpt lat="42.260123" lon="2.382635">
        <ele>882</ele>
        <time>1970-01-01T02:07:41.000Z</time>
      </trkpt>
      <trkpt lat="42.260155" lon="2.382664">
        <ele>882</ele>
        <time>1970-01-01T02:07:42.000Z</time>
      </trkpt>
      <trkpt lat="42.260186" lon="2.382693">
        <ele>882</ele>
        <time>1970-01-01T02:07:43.000Z</time>
      </trkpt>
      <trkpt lat="42.260217" lon="2.382721">
        <ele>882</ele>
        <time>1970-01-01T02:07:44.000Z</time>
      </trkpt>
      <trkpt lat="42.260248" lon="2.38275">
        <ele>882</ele>
        <time>1970-01-01T02:07:45.000Z</time>
      </trkpt>
      <trkpt lat="42.260279" lon="2.382779">
        <ele>882</ele>
        <time>1970-01-01T02:07:46.000Z</time>
      </trkpt>
      <trkpt lat="42.260311" lon="2.382808">
        <ele>882</ele>
        <time>1970-01-01T02:07:47.000Z</time>
      </trkpt>
      <trkpt lat="42.260342" lon="2.382836">
        <ele>882</ele>
        <time>1970-01-01T02:07:48.000Z</time>
      </trkpt>
      <trkpt lat="42.260373" lon="2.382865">
        <ele>883</ele>
        <time>1970-01-01T02:07:49.000Z</time>
      </trkpt>
      <trkpt lat="42.260452" lon="2.382886">
        <ele>883</ele>
        <time>1970-01-01T02:07:50.000Z</time>
      </trkpt>
      <trkpt lat="42.260491" lon="2.382879">
        <ele>883</ele>
        <time>1970-01-01T02:07:51.000Z</time>
      </trkpt>
      <trkpt lat="42.260529" lon="2.382872">
        <ele>883</ele>
        <time>1970-01-01T02:07:52.000Z</time>
      </trkpt>
      <trkpt lat="42.260568" lon="2.382865">
        <ele>883</ele>
        <time>1970-01-01T02:07:53.000Z</time>
      </trkpt>
      <trkpt lat="42.260607" lon="2.382859">
        <ele>883</ele>
        <time>1970-01-01T02:07:54.000Z</time>
      </trkpt>
      <trkpt lat="42.260646" lon="2.382852">
        <ele>883</ele>
        <time>1970-01-01T02:07:55.000Z</time>
      </trkpt>
      <trkpt lat="42.260685" lon="2.382845">
        <ele>883</ele>
        <time>1970-01-01T02:07:56.000Z</time>
      </trkpt>
      <trkpt lat="42.260723" lon="2.382838">
        <ele>883</ele>
        <time>1970-01-01T02:07:57.000Z</time>
      </trkpt>
      <trkpt lat="42.260762" lon="2.382831">
        <ele>883</ele>
        <time>1970-01-01T02:07:58.000Z</time>
      </trkpt>
      <trkpt lat="42.260801" lon="2.382824">
        <ele>883</ele>
        <time>1970-01-01T02:07:59.000Z</time>
      </trkpt>
      <trkpt lat="42.260824" lon="2.382731">
        <ele>883</ele>
        <time>1970-01-01T02:08:00.000Z</time>
      </trkpt>
      <trkpt lat="42.260816" lon="2.382683">
        <ele>883</ele>
        <time>1970-01-01T02:08:01.000Z</time>
      </trkpt>
      <trkpt lat="42.260809" lon="2.382634">
        <ele>883</ele>
        <time>1970-01-01T02:08:02.000Z</time>
      </trkpt>
      <trkpt lat="42.260801" lon="2.382586">
        <ele>883</ele>
        <time>1970-01-01T02:08:03.000Z</time>
      </trkpt>
      <trkpt lat="42.260794" lon="2.382537">
        <ele>883</ele>
        <time>1970-01-01T02:08:04.000Z</time>
      </trkpt>
      <trkpt lat="42.260786" lon="2.382489">
        <ele>883</ele>
        <time>1970-01-01T02:08:05.000Z</time>
      </trkpt>
      <trkpt lat="42.260779" lon="2.38244">
        <ele>883</ele>
        <time>1970-01-01T02:08:06.000Z</time>
      </trkpt>
      <trkpt lat="42.260771" lon="2.382392">
        <ele>883</ele>
        <time>1970-01-01T02:08:07.000Z</time>
      </trkpt>
      <trkpt lat="42.260764" lon="2.382343">
        <ele>883</ele>
        <time>1970-01-01T02:08:08.000Z</time>
      </trkpt>
      <trkpt lat="42.260756" lon="2.382295">
        <ele>885</ele>
        <time>1970-01-01T02:08:09.000Z</time>
      </trkpt>
      <trkpt lat="42.260703" lon="2.382202">
        <ele>885</ele>
        <time>1970-01-01T02:08:10.000Z</time>
      </trkpt>
      <trkpt lat="42.260684" lon="2.382156">
        <ele>885</ele>
        <time>1970-01-01T02:08:11.000Z</time>
      </trkpt>
      <trkpt lat="42.260664" lon="2.38211">
        <ele>885</ele>
        <time>1970-01-01T02:08:12.000Z</time>
      </trkpt>
      <trkpt lat="42.260644" lon="2.382064">
        <ele>885</ele>
        <time>1970-01-01T02:08:13.000Z</time>
      </trkpt>
      <trkpt lat="42.260625" lon="2.382017">
        <ele>885</ele>
        <time>1970-01-01T02:08:14.000Z</time>
      </trkpt>
      <trkpt lat="42.260605" lon="2.381971">
        <ele>885</ele>
        <time>1970-01-01T02:08:15.000Z</time>
      </trkpt>
      <trkpt lat="42.260585" lon="2.381925">
        <ele>885</ele>
        <time>1970-01-01T02:08:16.000Z</time>
      </trkpt>
      <trkpt lat="42.260565" lon="2.381879">
        <ele>885</ele>
        <time>1970-01-01T02:08:17.000Z</time>
      </trkpt>
      <trkpt lat="42.260546" lon="2.381833">
        <ele>885</ele>
        <time>1970-01-01T02:08:18.000Z</time>
      </trkpt>
      <trkpt lat="42.260526" lon="2.381787">
        <ele>885</ele>
        <time>1970-01-01T02:08:19.000Z</time>
      </trkpt>
      <trkpt lat="42.2605" lon="2.381697">
        <ele>885</ele>
        <time>1970-01-01T02:08:20.000Z</time>
      </trkpt>
      <trkpt lat="42.260484" lon="2.381653">
        <ele>885</ele>
        <time>1970-01-01T02:08:21.000Z</time>
      </trkpt>
      <trkpt lat="42.260469" lon="2.381608">
        <ele>885</ele>
        <time>1970-01-01T02:08:22.000Z</time>
      </trkpt>
      <trkpt lat="42.260453" lon="2.381563">
        <ele>885</ele>
        <time>1970-01-01T02:08:23.000Z</time>
      </trkpt>
      <trkpt lat="42.260438" lon="2.381518">
        <ele>885</ele>
        <time>1970-01-01T02:08:24.000Z</time>
      </trkpt>
      <trkpt lat="42.260422" lon="2.381474">
        <ele>885</ele>
        <time>1970-01-01T02:08:25.000Z</time>
      </trkpt>
      <trkpt lat="42.260407" lon="2.381429">
        <ele>885</ele>
        <time>1970-01-01T02:08:26.000Z</time>
      </trkpt>
      <trkpt lat="42.260391" lon="2.381384">
        <ele>885</ele>
        <time>1970-01-01T02:08:27.000Z</time>
      </trkpt>
      <trkpt lat="42.260376" lon="2.38134">
        <ele>885</ele>
        <time>1970-01-01T02:08:28.000Z</time>
      </trkpt>
      <trkpt lat="42.26036" lon="2.381295">
        <ele>885</ele>
        <time>1970-01-01T02:08:29.000Z</time>
      </trkpt>
      <trkpt lat="42.260331" lon="2.381192">
        <ele>885</ele>
        <time>1970-01-01T02:08:30.000Z</time>
      </trkpt>
      <trkpt lat="42.260325" lon="2.381141">
        <ele>885</ele>
        <time>1970-01-01T02:08:31.000Z</time>
      </trkpt>
      <trkpt lat="42.260319" lon="2.38109">
        <ele>885</ele>
        <time>1970-01-01T02:08:32.000Z</time>
      </trkpt>
      <trkpt lat="42.260313" lon="2.381039">
        <ele>885</ele>
        <time>1970-01-01T02:08:33.000Z</time>
      </trkpt>
      <trkpt lat="42.260307" lon="2.380987">
        <ele>885</ele>
        <time>1970-01-01T02:08:34.000Z</time>
      </trkpt>
      <trkpt lat="42.2603" lon="2.380936">
        <ele>885</ele>
        <time>1970-01-01T02:08:35.000Z</time>
      </trkpt>
      <trkpt lat="42.260294" lon="2.380885">
        <ele>885</ele>
        <time>1970-01-01T02:08:36.000Z</time>
      </trkpt>
      <trkpt lat="42.260288" lon="2.380834">
        <ele>885</ele>
        <time>1970-01-01T02:08:37.000Z</time>
      </trkpt>
      <trkpt lat="42.260282" lon="2.380783">
        <ele>885</ele>
        <time>1970-01-01T02:08:38.000Z</time>
      </trkpt>
      <trkpt lat="42.260276" lon="2.380732">
        <ele>886</ele>
        <time>1970-01-01T02:08:39.000Z</time>
      </trkpt>
      <trkpt lat="42.260336" lon="2.380676">
        <ele>886</ele>
        <time>1970-01-01T02:08:40.000Z</time>
      </trkpt>
      <trkpt lat="42.260373" lon="2.380655">
        <ele>886</ele>
        <time>1970-01-01T02:08:41.000Z</time>
      </trkpt>
      <trkpt lat="42.260411" lon="2.380634">
        <ele>886</ele>
        <time>1970-01-01T02:08:42.000Z</time>
      </trkpt>
      <trkpt lat="42.260448" lon="2.380613">
        <ele>886</ele>
        <time>1970-01-01T02:08:43.000Z</time>
      </trkpt>
      <trkpt lat="42.260486" lon="2.380592">
        <ele>886</ele>
        <time>1970-01-01T02:08:44.000Z</time>
      </trkpt>
      <trkpt lat="42.260524" lon="2.38057">
        <ele>886</ele>
        <time>1970-01-01T02:08:45.000Z</time>
      </trkpt>
      <trkpt lat="42.260561" lon="2.380549">
        <ele>886</ele>
        <time>1970-01-01T02:08:46.000Z</time>
      </trkpt>
      <trkpt lat="42.260599" lon="2.380528">
        <ele>886</ele>
        <time>1970-01-01T02:08:47.000Z</time>
      </trkpt>
      <trkpt lat="42.260636" lon="2.380507">
        <ele>886</ele>
        <time>1970-01-01T02:08:48.000Z</time>
      </trkpt>
      <trkpt lat="42.260674" lon="2.380486">
        <ele>887</ele>
        <time>1970-01-01T02:08:49.000Z</time>
      </trkpt>
      <trkpt lat="42.260741" lon="2.380415">
        <ele>887</ele>
        <time>1970-01-01T02:08:50.000Z</time>
      </trkpt>
      <trkpt lat="42.260769" lon="2.380378">
        <ele>887</ele>
        <time>1970-01-01T02:08:51.000Z</time>
      </trkpt>
      <trkpt lat="42.260798" lon="2.380341">
        <ele>887</ele>
        <time>1970-01-01T02:08:52.000Z</time>
      </trkpt>
      <trkpt lat="42.260826" lon="2.380304">
        <ele>887</ele>
        <time>1970-01-01T02:08:53.000Z</time>
      </trkpt>
      <trkpt lat="42.260855" lon="2.380267">
        <ele>887</ele>
        <time>1970-01-01T02:08:54.000Z</time>
      </trkpt>
      <trkpt lat="42.260883" lon="2.380229">
        <ele>887</ele>
        <time>1970-01-01T02:08:55.000Z</time>
      </trkpt>
      <trkpt lat="42.260912" lon="2.380192">
        <ele>887</ele>
        <time>1970-01-01T02:08:56.000Z</time>
      </trkpt>
      <trkpt lat="42.26094" lon="2.380155">
        <ele>887</ele>
        <time>1970-01-01T02:08:57.000Z</time>
      </trkpt>
      <trkpt lat="42.260969" lon="2.380118">
        <ele>887</ele>
        <time>1970-01-01T02:08:58.000Z</time>
      </trkpt>
      <trkpt lat="42.260997" lon="2.380081">
        <ele>887</ele>
        <time>1970-01-01T02:08:59.000Z</time>
      </trkpt>
      <trkpt lat="42.261027" lon="2.379982">
        <ele>887</ele>
        <time>1970-01-01T02:09:00.000Z</time>
      </trkpt>
      <trkpt lat="42.261039" lon="2.379933">
        <ele>887</ele>
        <time>1970-01-01T02:09:01.000Z</time>
      </trkpt>
      <trkpt lat="42.261051" lon="2.379883">
        <ele>887</ele>
        <time>1970-01-01T02:09:02.000Z</time>
      </trkpt>
      <trkpt lat="42.261063" lon="2.379833">
        <ele>887</ele>
        <time>1970-01-01T02:09:03.000Z</time>
      </trkpt>
      <trkpt lat="42.261075" lon="2.379784">
        <ele>887</ele>
        <time>1970-01-01T02:09:04.000Z</time>
      </trkpt>
      <trkpt lat="42.261086" lon="2.379734">
        <ele>887</ele>
        <time>1970-01-01T02:09:05.000Z</time>
      </trkpt>
      <trkpt lat="42.261098" lon="2.379684">
        <ele>887</ele>
        <time>1970-01-01T02:09:06.000Z</time>
      </trkpt>
      <trkpt lat="42.26111" lon="2.379634">
        <ele>887</ele>
        <time>1970-01-01T02:09:07.000Z</time>
      </trkpt>
      <trkpt lat="42.261122" lon="2.379585">
        <ele>887</ele>
        <time>1970-01-01T02:09:08.000Z</time>
      </trkpt>
      <trkpt lat="42.261134" lon="2.379535">
        <ele>888</ele>
        <time>1970-01-01T02:09:09.000Z</time>
      </trkpt>
      <trkpt lat="42.261174" lon="2.379434">
        <ele>888</ele>
        <time>1970-01-01T02:09:10.000Z</time>
      </trkpt>
      <trkpt lat="42.261206" lon="2.379397">
        <ele>888</ele>
        <time>1970-01-01T02:09:11.000Z</time>
      </trkpt>
      <trkpt lat="42.261237" lon="2.379359">
        <ele>888</ele>
        <time>1970-01-01T02:09:12.000Z</time>
      </trkpt>
      <trkpt lat="42.261269" lon="2.379322">
        <ele>888</ele>
        <time>1970-01-01T02:09:13.000Z</time>
      </trkpt>
      <trkpt lat="42.2613" lon="2.379284">
        <ele>888</ele>
        <time>1970-01-01T02:09:14.000Z</time>
      </trkpt>
      <trkpt lat="42.261331" lon="2.379246">
        <ele>888</ele>
        <time>1970-01-01T02:09:15.000Z</time>
      </trkpt>
      <trkpt lat="42.261363" lon="2.379209">
        <ele>888</ele>
        <time>1970-01-01T02:09:16.000Z</time>
      </trkpt>
      <trkpt lat="42.261394" lon="2.379171">
        <ele>888</ele>
        <time>1970-01-01T02:09:17.000Z</time>
      </trkpt>
      <trkpt lat="42.261426" lon="2.379134">
        <ele>888</ele>
        <time>1970-01-01T02:09:18.000Z</time>
      </trkpt>
      <trkpt lat="42.261457" lon="2.379096">
        <ele>888</ele>
        <time>1970-01-01T02:09:19.000Z</time>
      </trkpt>
      <trkpt lat="42.261514" lon="2.379025">
        <ele>888</ele>
        <time>1970-01-01T02:09:20.000Z</time>
      </trkpt>
      <trkpt lat="42.261546" lon="2.379007">
        <ele>888</ele>
        <time>1970-01-01T02:09:21.000Z</time>
      </trkpt>
      <trkpt lat="42.261579" lon="2.378988">
        <ele>888</ele>
        <time>1970-01-01T02:09:22.000Z</time>
      </trkpt>
      <trkpt lat="42.261611" lon="2.37897">
        <ele>888</ele>
        <time>1970-01-01T02:09:23.000Z</time>
      </trkpt>
      <trkpt lat="42.261643" lon="2.378951">
        <ele>888</ele>
        <time>1970-01-01T02:09:24.000Z</time>
      </trkpt>
      <trkpt lat="42.261675" lon="2.378932">
        <ele>888</ele>
        <time>1970-01-01T02:09:25.000Z</time>
      </trkpt>
      <trkpt lat="42.261707" lon="2.378914">
        <ele>888</ele>
        <time>1970-01-01T02:09:26.000Z</time>
      </trkpt>
      <trkpt lat="42.26174" lon="2.378895">
        <ele>888</ele>
        <time>1970-01-01T02:09:27.000Z</time>
      </trkpt>
      <trkpt lat="42.261772" lon="2.378877">
        <ele>888</ele>
        <time>1970-01-01T02:09:28.000Z</time>
      </trkpt>
      <trkpt lat="42.261804" lon="2.378858">
        <ele>889</ele>
        <time>1970-01-01T02:09:29.000Z</time>
      </trkpt>
      <trkpt lat="42.261878" lon="2.378924">
        <ele>889</ele>
        <time>1970-01-01T02:09:30.000Z</time>
      </trkpt>
      <trkpt lat="42.26191" lon="2.378963">
        <ele>889</ele>
        <time>1970-01-01T02:09:31.000Z</time>
      </trkpt>
      <trkpt lat="42.261941" lon="2.379001">
        <ele>889</ele>
        <time>1970-01-01T02:09:32.000Z</time>
      </trkpt>
      <trkpt lat="42.261973" lon="2.379039">
        <ele>889</ele>
        <time>1970-01-01T02:09:33.000Z</time>
      </trkpt>
      <trkpt lat="42.262004" lon="2.379077">
        <ele>889</ele>
        <time>1970-01-01T02:09:34.000Z</time>
      </trkpt>
      <trkpt lat="42.262035" lon="2.379116">
        <ele>889</ele>
        <time>1970-01-01T02:09:35.000Z</time>
      </trkpt>
      <trkpt lat="42.262067" lon="2.379154">
        <ele>889</ele>
        <time>1970-01-01T02:09:36.000Z</time>
      </trkpt>
      <trkpt lat="42.262098" lon="2.379192">
        <ele>889</ele>
        <time>1970-01-01T02:09:37.000Z</time>
      </trkpt>
      <trkpt lat="42.26213" lon="2.379231">
        <ele>889</ele>
        <time>1970-01-01T02:09:38.000Z</time>
      </trkpt>
      <trkpt lat="42.262161" lon="2.379269">
        <ele>889</ele>
        <time>1970-01-01T02:09:39.000Z</time>
      </trkpt>
      <trkpt lat="42.262225" lon="2.379346">
        <ele>889</ele>
        <time>1970-01-01T02:09:40.000Z</time>
      </trkpt>
      <trkpt lat="42.262257" lon="2.379381">
        <ele>889</ele>
        <time>1970-01-01T02:09:41.000Z</time>
      </trkpt>
      <trkpt lat="42.26229" lon="2.379416">
        <ele>889</ele>
        <time>1970-01-01T02:09:42.000Z</time>
      </trkpt>
      <trkpt lat="42.262322" lon="2.379451">
        <ele>889</ele>
        <time>1970-01-01T02:09:43.000Z</time>
      </trkpt>
      <trkpt lat="42.262354" lon="2.379486">
        <ele>889</ele>
        <time>1970-01-01T02:09:44.000Z</time>
      </trkpt>
      <trkpt lat="42.262386" lon="2.379522">
        <ele>889</ele>
        <time>1970-01-01T02:09:45.000Z</time>
      </trkpt>
      <trkpt lat="42.262418" lon="2.379557">
        <ele>889</ele>
        <time>1970-01-01T02:09:46.000Z</time>
      </trkpt>
      <trkpt lat="42.262451" lon="2.379592">
        <ele>889</ele>
        <time>1970-01-01T02:09:47.000Z</time>
      </trkpt>
      <trkpt lat="42.262483" lon="2.379627">
        <ele>889</ele>
        <time>1970-01-01T02:09:48.000Z</time>
      </trkpt>
      <trkpt lat="42.262515" lon="2.379662">
        <ele>889</ele>
        <time>1970-01-01T02:09:49.000Z</time>
      </trkpt>
      <trkpt lat="42.262592" lon="2.379676">
        <ele>889</ele>
        <time>1970-01-01T02:09:50.000Z</time>
      </trkpt>
      <trkpt lat="42.262628" lon="2.379664">
        <ele>889</ele>
        <time>1970-01-01T02:09:51.000Z</time>
      </trkpt>
      <trkpt lat="42.262664" lon="2.379653">
        <ele>889</ele>
        <time>1970-01-01T02:09:52.000Z</time>
      </trkpt>
      <trkpt lat="42.2627" lon="2.379641">
        <ele>889</ele>
        <time>1970-01-01T02:09:53.000Z</time>
      </trkpt>
      <trkpt lat="42.262737" lon="2.37963">
        <ele>889</ele>
        <time>1970-01-01T02:09:54.000Z</time>
      </trkpt>
      <trkpt lat="42.262773" lon="2.379618">
        <ele>889</ele>
        <time>1970-01-01T02:09:55.000Z</time>
      </trkpt>
      <trkpt lat="42.262809" lon="2.379607">
        <ele>889</ele>
        <time>1970-01-01T02:09:56.000Z</time>
      </trkpt>
      <trkpt lat="42.262845" lon="2.379595">
        <ele>889</ele>
        <time>1970-01-01T02:09:57.000Z</time>
      </trkpt>
      <trkpt lat="42.262881" lon="2.379584">
        <ele>889</ele>
        <time>1970-01-01T02:09:58.000Z</time>
      </trkpt>
      <trkpt lat="42.262917" lon="2.379572">
        <ele>889</ele>
        <time>1970-01-01T02:09:59.000Z</time>
      </trkpt>
      <trkpt lat="42.262996" lon="2.379512">
        <ele>889</ele>
        <time>1970-01-01T02:10:00.000Z</time>
      </trkpt>
      <trkpt lat="42.263037" lon="2.379468">
        <ele>889</ele>
        <time>1970-01-01T02:10:01.000Z</time>
      </trkpt>
      <trkpt lat="42.263079" lon="2.379424">
        <ele>889</ele>
        <time>1970-01-01T02:10:02.000Z</time>
      </trkpt>
      <trkpt lat="42.263121" lon="2.37938">
        <ele>889</ele>
        <time>1970-01-01T02:10:04.000Z</time>
      </trkpt>
      <trkpt lat="42.263162" lon="2.379336">
        <ele>889</ele>
        <time>1970-01-01T02:10:05.000Z</time>
      </trkpt>
      <trkpt lat="42.263204" lon="2.379292">
        <ele>889</ele>
        <time>1970-01-01T02:10:06.000Z</time>
      </trkpt>
      <trkpt lat="42.263246" lon="2.379248">
        <ele>889</ele>
        <time>1970-01-01T02:10:07.000Z</time>
      </trkpt>
      <trkpt lat="42.263287" lon="2.379204">
        <ele>889</ele>
        <time>1970-01-01T02:10:08.000Z</time>
      </trkpt>
      <trkpt lat="42.263329" lon="2.37916">
        <ele>889</ele>
        <time>1970-01-01T02:10:09.000Z</time>
      </trkpt>
      <trkpt lat="42.263378" lon="2.379038">
        <ele>889</ele>
        <time>1970-01-01T02:10:10.000Z</time>
      </trkpt>
      <trkpt lat="42.2634" lon="2.37898">
        <ele>889</ele>
        <time>1970-01-01T02:10:11.000Z</time>
      </trkpt>
      <trkpt lat="42.263421" lon="2.378922">
        <ele>889</ele>
        <time>1970-01-01T02:10:12.000Z</time>
      </trkpt>
      <trkpt lat="42.263443" lon="2.378864">
        <ele>889</ele>
        <time>1970-01-01T02:10:13.000Z</time>
      </trkpt>
      <trkpt lat="42.263465" lon="2.378806">
        <ele>889</ele>
        <time>1970-01-01T02:10:14.000Z</time>
      </trkpt>
      <trkpt lat="42.263487" lon="2.378748">
        <ele>889</ele>
        <time>1970-01-01T02:10:15.000Z</time>
      </trkpt>
      <trkpt lat="42.263509" lon="2.37869">
        <ele>889</ele>
        <time>1970-01-01T02:10:16.000Z</time>
      </trkpt>
      <trkpt lat="42.26353" lon="2.378632">
        <ele>889</ele>
        <time>1970-01-01T02:10:17.000Z</time>
      </trkpt>
      <trkpt lat="42.263552" lon="2.378574">
        <ele>889</ele>
        <time>1970-01-01T02:10:18.000Z</time>
      </trkpt>
      <trkpt lat="42.263574" lon="2.378516">
        <ele>891</ele>
        <time>1970-01-01T02:10:19.000Z</time>
      </trkpt>
      <trkpt lat="42.263605" lon="2.378395">
        <ele>891</ele>
        <time>1970-01-01T02:10:20.000Z</time>
      </trkpt>
      <trkpt lat="42.263618" lon="2.378339">
        <ele>891</ele>
        <time>1970-01-01T02:10:21.000Z</time>
      </trkpt>
      <trkpt lat="42.26363" lon="2.378283">
        <ele>891</ele>
        <time>1970-01-01T02:10:22.000Z</time>
      </trkpt>
      <trkpt lat="42.263642" lon="2.378227">
        <ele>891</ele>
        <time>1970-01-01T02:10:23.000Z</time>
      </trkpt>
      <trkpt lat="42.263655" lon="2.378171">
        <ele>891</ele>
        <time>1970-01-01T02:10:24.000Z</time>
      </trkpt>
      <trkpt lat="42.263667" lon="2.378114">
        <ele>891</ele>
        <time>1970-01-01T02:10:25.000Z</time>
      </trkpt>
      <trkpt lat="42.263679" lon="2.378058">
        <ele>891</ele>
        <time>1970-01-01T02:10:26.000Z</time>
      </trkpt>
      <trkpt lat="42.263691" lon="2.378002">
        <ele>891</ele>
        <time>1970-01-01T02:10:27.000Z</time>
      </trkpt>
      <trkpt lat="42.263704" lon="2.377946">
        <ele>891</ele>
        <time>1970-01-01T02:10:28.000Z</time>
      </trkpt>
      <trkpt lat="42.263716" lon="2.37789">
        <ele>892</ele>
        <time>1970-01-01T02:10:29.000Z</time>
      </trkpt>
      <trkpt lat="42.263739" lon="2.377776">
        <ele>892</ele>
        <time>1970-01-01T02:10:30.000Z</time>
      </trkpt>
      <trkpt lat="42.263749" lon="2.377723">
        <ele>892</ele>
        <time>1970-01-01T02:10:31.000Z</time>
      </trkpt>
      <trkpt lat="42.263759" lon="2.377669">
        <ele>892</ele>
        <time>1970-01-01T02:10:32.000Z</time>
      </trkpt>
      <trkpt lat="42.263769" lon="2.377615">
        <ele>892</ele>
        <time>1970-01-01T02:10:33.000Z</time>
      </trkpt>
      <trkpt lat="42.263779" lon="2.377562">
        <ele>892</ele>
        <time>1970-01-01T02:10:34.000Z</time>
      </trkpt>
      <trkpt lat="42.263788" lon="2.377508">
        <ele>892</ele>
        <time>1970-01-01T02:10:35.000Z</time>
      </trkpt>
      <trkpt lat="42.263798" lon="2.377454">
        <ele>892</ele>
        <time>1970-01-01T02:10:36.000Z</time>
      </trkpt>
      <trkpt lat="42.263808" lon="2.3774">
        <ele>892</ele>
        <time>1970-01-01T02:10:37.000Z</time>
      </trkpt>
      <trkpt lat="42.263818" lon="2.377347">
        <ele>892</ele>
        <time>1970-01-01T02:10:38.000Z</time>
      </trkpt>
      <trkpt lat="42.263828" lon="2.377293">
        <ele>893</ele>
        <time>1970-01-01T02:10:39.000Z</time>
      </trkpt>
      <trkpt lat="42.263827" lon="2.37718">
        <ele>893</ele>
        <time>1970-01-01T02:10:40.000Z</time>
      </trkpt>
      <trkpt lat="42.263819" lon="2.377127">
        <ele>893</ele>
        <time>1970-01-01T02:10:41.000Z</time>
      </trkpt>
      <trkpt lat="42.263811" lon="2.377074">
        <ele>893</ele>
        <time>1970-01-01T02:10:42.000Z</time>
      </trkpt>
      <trkpt lat="42.263803" lon="2.377021">
        <ele>893</ele>
        <time>1970-01-01T02:10:43.000Z</time>
      </trkpt>
      <trkpt lat="42.263796" lon="2.376968">
        <ele>893</ele>
        <time>1970-01-01T02:10:44.000Z</time>
      </trkpt>
      <trkpt lat="42.263788" lon="2.376915">
        <ele>893</ele>
        <time>1970-01-01T02:10:45.000Z</time>
      </trkpt>
      <trkpt lat="42.26378" lon="2.376862">
        <ele>893</ele>
        <time>1970-01-01T02:10:46.000Z</time>
      </trkpt>
      <trkpt lat="42.263772" lon="2.376809">
        <ele>893</ele>
        <time>1970-01-01T02:10:47.000Z</time>
      </trkpt>
      <trkpt lat="42.263764" lon="2.376756">
        <ele>893</ele>
        <time>1970-01-01T02:10:48.000Z</time>
      </trkpt>
      <trkpt lat="42.263756" lon="2.376703">
        <ele>893</ele>
        <time>1970-01-01T02:10:49.000Z</time>
      </trkpt>
      <trkpt lat="42.263716" lon="2.376594">
        <ele>893</ele>
        <time>1970-01-01T02:10:50.000Z</time>
      </trkpt>
      <trkpt lat="42.263696" lon="2.37654">
        <ele>893</ele>
        <time>1970-01-01T02:10:51.000Z</time>
      </trkpt>
      <trkpt lat="42.263676" lon="2.376487">
        <ele>893</ele>
        <time>1970-01-01T02:10:52.000Z</time>
      </trkpt>
      <trkpt lat="42.263656" lon="2.376433">
        <ele>893</ele>
        <time>1970-01-01T02:10:53.000Z</time>
      </trkpt>
      <trkpt lat="42.263636" lon="2.37638">
        <ele>893</ele>
        <time>1970-01-01T02:10:54.000Z</time>
      </trkpt>
      <trkpt lat="42.263616" lon="2.376327">
        <ele>893</ele>
        <time>1970-01-01T02:10:55.000Z</time>
      </trkpt>
      <trkpt lat="42.263596" lon="2.376273">
        <ele>893</ele>
        <time>1970-01-01T02:10:56.000Z</time>
      </trkpt>
      <trkpt lat="42.263576" lon="2.37622">
        <ele>893</ele>
        <time>1970-01-01T02:10:57.000Z</time>
      </trkpt>
      <trkpt lat="42.263556" lon="2.376166">
        <ele>893</ele>
        <time>1970-01-01T02:10:58.000Z</time>
      </trkpt>
      <trkpt lat="42.263536" lon="2.376113">
        <ele>894</ele>
        <time>1970-01-01T02:10:59.000Z</time>
      </trkpt>
      <trkpt lat="42.263492" lon="2.375991">
        <ele>894</ele>
        <time>1970-01-01T02:11:00.000Z</time>
      </trkpt>
      <trkpt lat="42.263471" lon="2.375932">
        <ele>894</ele>
        <time>1970-01-01T02:11:01.000Z</time>
      </trkpt>
      <trkpt lat="42.263451" lon="2.375873">
        <ele>894</ele>
        <time>1970-01-01T02:11:02.000Z</time>
      </trkpt>
      <trkpt lat="42.26343" lon="2.375814">
        <ele>894</ele>
        <time>1970-01-01T02:11:03.000Z</time>
      </trkpt>
      <trkpt lat="42.263409" lon="2.375754">
        <ele>894</ele>
        <time>1970-01-01T02:11:04.000Z</time>
      </trkpt>
      <trkpt lat="42.263388" lon="2.375695">
        <ele>894</ele>
        <time>1970-01-01T02:11:05.000Z</time>
      </trkpt>
      <trkpt lat="42.263367" lon="2.375636">
        <ele>894</ele>
        <time>1970-01-01T02:11:06.000Z</time>
      </trkpt>
      <trkpt lat="42.263347" lon="2.375577">
        <ele>894</ele>
        <time>1970-01-01T02:11:07.000Z</time>
      </trkpt>
      <trkpt lat="42.263326" lon="2.375518">
        <ele>894</ele>
        <time>1970-01-01T02:11:08.000Z</time>
      </trkpt>
      <trkpt lat="42.263305" lon="2.375459">
        <ele>894</ele>
        <time>1970-01-01T02:11:09.000Z</time>
      </trkpt>
      <trkpt lat="42.263257" lon="2.375328">
        <ele>894</ele>
        <time>1970-01-01T02:11:10.000Z</time>
      </trkpt>
      <trkpt lat="42.263234" lon="2.375265">
        <ele>894</ele>
        <time>1970-01-01T02:11:11.000Z</time>
      </trkpt>
      <trkpt lat="42.263211" lon="2.375201">
        <ele>894</ele>
        <time>1970-01-01T02:11:12.000Z</time>
      </trkpt>
      <trkpt lat="42.263188" lon="2.375137">
        <ele>894</ele>
        <time>1970-01-01T02:11:13.000Z</time>
      </trkpt>
      <trkpt lat="42.263166" lon="2.375073">
        <ele>894</ele>
        <time>1970-01-01T02:11:14.000Z</time>
      </trkpt>
      <trkpt lat="42.263143" lon="2.37501">
        <ele>894</ele>
        <time>1970-01-01T02:11:15.000Z</time>
      </trkpt>
      <trkpt lat="42.26312" lon="2.374946">
        <ele>894</ele>
        <time>1970-01-01T02:11:16.000Z</time>
      </trkpt>
      <trkpt lat="42.263097" lon="2.374882">
        <ele>894</ele>
        <time>1970-01-01T02:11:17.000Z</time>
      </trkpt>
      <trkpt lat="42.263074" lon="2.374819">
        <ele>894</ele>
        <time>1970-01-01T02:11:18.000Z</time>
      </trkpt>
      <trkpt lat="42.263051" lon="2.374755">
        <ele>894</ele>
        <time>1970-01-01T02:11:19.000Z</time>
      </trkpt>
      <trkpt lat="42.263001" lon="2.374618">
        <ele>894</ele>
        <time>1970-01-01T02:11:20.000Z</time>
      </trkpt>
      <trkpt lat="42.262978" lon="2.374555">
        <ele>894</ele>
        <time>1970-01-01T02:11:21.000Z</time>
      </trkpt>
      <trkpt lat="42.262956" lon="2.374491">
        <ele>894</ele>
        <time>1970-01-01T02:11:22.000Z</time>
      </trkpt>
      <trkpt lat="42.262933" lon="2.374427">
        <ele>894</ele>
        <time>1970-01-01T02:11:23.000Z</time>
      </trkpt>
      <trkpt lat="42.26291" lon="2.374363">
        <ele>894</ele>
        <time>1970-01-01T02:11:24.000Z</time>
      </trkpt>
      <trkpt lat="42.262887" lon="2.3743">
        <ele>894</ele>
        <time>1970-01-01T02:11:25.000Z</time>
      </trkpt>
      <trkpt lat="42.262864" lon="2.374236">
        <ele>894</ele>
        <time>1970-01-01T02:11:26.000Z</time>
      </trkpt>
      <trkpt lat="42.262842" lon="2.374172">
        <ele>894</ele>
        <time>1970-01-01T02:11:27.000Z</time>
      </trkpt>
      <trkpt lat="42.262819" lon="2.374109">
        <ele>894</ele>
        <time>1970-01-01T02:11:28.000Z</time>
      </trkpt>
      <trkpt lat="42.262796" lon="2.374045">
        <ele>894</ele>
        <time>1970-01-01T02:11:29.000Z</time>
      </trkpt>
      <trkpt lat="42.262748" lon="2.373915">
        <ele>894</ele>
        <time>1970-01-01T02:11:30.000Z</time>
      </trkpt>
      <trkpt lat="42.262725" lon="2.373851">
        <ele>894</ele>
        <time>1970-01-01T02:11:31.000Z</time>
      </trkpt>
      <trkpt lat="42.262701" lon="2.373788">
        <ele>894</ele>
        <time>1970-01-01T02:11:32.000Z</time>
      </trkpt>
      <trkpt lat="42.262678" lon="2.373724">
        <ele>894</ele>
        <time>1970-01-01T02:11:33.000Z</time>
      </trkpt>
      <trkpt lat="42.262654" lon="2.373661">
        <ele>894</ele>
        <time>1970-01-01T02:11:34.000Z</time>
      </trkpt>
      <trkpt lat="42.26263" lon="2.373598">
        <ele>894</ele>
        <time>1970-01-01T02:11:35.000Z</time>
      </trkpt>
      <trkpt lat="42.262607" lon="2.373534">
        <ele>894</ele>
        <time>1970-01-01T02:11:36.000Z</time>
      </trkpt>
      <trkpt lat="42.262583" lon="2.373471">
        <ele>894</ele>
        <time>1970-01-01T02:11:37.000Z</time>
      </trkpt>
      <trkpt lat="42.26256" lon="2.373407">
        <ele>894</ele>
        <time>1970-01-01T02:11:38.000Z</time>
      </trkpt>
      <trkpt lat="42.262536" lon="2.373344">
        <ele>893</ele>
        <time>1970-01-01T02:11:39.000Z</time>
      </trkpt>
      <trkpt lat="42.262462" lon="2.373233">
        <ele>893</ele>
        <time>1970-01-01T02:11:40.000Z</time>
      </trkpt>
      <trkpt lat="42.262418" lon="2.37319">
        <ele>893</ele>
        <time>1970-01-01T02:11:41.000Z</time>
      </trkpt>
      <trkpt lat="42.262374" lon="2.373147">
        <ele>893</ele>
        <time>1970-01-01T02:11:42.000Z</time>
      </trkpt>
      <trkpt lat="42.26233" lon="2.373104">
        <ele>893</ele>
        <time>1970-01-01T02:11:43.000Z</time>
      </trkpt>
      <trkpt lat="42.262287" lon="2.37306">
        <ele>893</ele>
        <time>1970-01-01T02:11:44.000Z</time>
      </trkpt>
      <trkpt lat="42.262243" lon="2.373017">
        <ele>893</ele>
        <time>1970-01-01T02:11:45.000Z</time>
      </trkpt>
      <trkpt lat="42.262199" lon="2.372974">
        <ele>893</ele>
        <time>1970-01-01T02:11:46.000Z</time>
      </trkpt>
      <trkpt lat="42.262155" lon="2.372931">
        <ele>893</ele>
        <time>1970-01-01T02:11:47.000Z</time>
      </trkpt>
      <trkpt lat="42.262111" lon="2.372888">
        <ele>893</ele>
        <time>1970-01-01T02:11:48.000Z</time>
      </trkpt>
      <trkpt lat="42.262067" lon="2.372845">
        <ele>892</ele>
        <time>1970-01-01T02:11:49.000Z</time>
      </trkpt>
      <trkpt lat="42.26193" lon="2.372749">
        <ele>892</ele>
        <time>1970-01-01T02:11:50.000Z</time>
      </trkpt>
      <trkpt lat="42.261859" lon="2.372698">
        <ele>892</ele>
        <time>1970-01-01T02:11:51.000Z</time>
      </trkpt>
      <trkpt lat="42.261788" lon="2.372648">
        <ele>892</ele>
        <time>1970-01-01T02:11:52.000Z</time>
      </trkpt>
      <trkpt lat="42.261717" lon="2.372597">
        <ele>892</ele>
        <time>1970-01-01T02:11:53.000Z</time>
      </trkpt>
      <trkpt lat="42.261646" lon="2.372546">
        <ele>892</ele>
        <time>1970-01-01T02:11:54.000Z</time>
      </trkpt>
      <trkpt lat="42.261575" lon="2.372495">
        <ele>892</ele>
        <time>1970-01-01T02:11:55.000Z</time>
      </trkpt>
      <trkpt lat="42.261504" lon="2.372444">
        <ele>892</ele>
        <time>1970-01-01T02:11:56.000Z</time>
      </trkpt>
      <trkpt lat="42.261433" lon="2.372394">
        <ele>892</ele>
        <time>1970-01-01T02:11:57.000Z</time>
      </trkpt>
      <trkpt lat="42.261362" lon="2.372343">
        <ele>892</ele>
        <time>1970-01-01T02:11:58.000Z</time>
      </trkpt>
      <trkpt lat="42.261291" lon="2.372292">
        <ele>887</ele>
        <time>1970-01-01T02:11:59.000Z</time>
      </trkpt>
      <trkpt lat="42.261171" lon="2.372165">
        <ele>887</ele>
        <time>1970-01-01T02:12:00.000Z</time>
      </trkpt>
      <trkpt lat="42.26113" lon="2.372099">
        <ele>887</ele>
        <time>1970-01-01T02:12:01.000Z</time>
      </trkpt>
      <trkpt lat="42.26109" lon="2.372032">
        <ele>887</ele>
        <time>1970-01-01T02:12:02.000Z</time>
      </trkpt>
      <trkpt lat="42.261049" lon="2.371965">
        <ele>887</ele>
        <time>1970-01-01T02:12:03.000Z</time>
      </trkpt>
      <trkpt lat="42.261008" lon="2.371898">
        <ele>887</ele>
        <time>1970-01-01T02:12:04.000Z</time>
      </trkpt>
      <trkpt lat="42.260967" lon="2.371832">
        <ele>887</ele>
        <time>1970-01-01T02:12:05.000Z</time>
      </trkpt>
      <trkpt lat="42.260926" lon="2.371765">
        <ele>887</ele>
        <time>1970-01-01T02:12:06.000Z</time>
      </trkpt>
      <trkpt lat="42.260886" lon="2.371698">
        <ele>887</ele>
        <time>1970-01-01T02:12:07.000Z</time>
      </trkpt>
      <trkpt lat="42.260845" lon="2.371632">
        <ele>887</ele>
        <time>1970-01-01T02:12:08.000Z</time>
      </trkpt>
      <trkpt lat="42.260804" lon="2.371565">
        <ele>883</ele>
        <time>1970-01-01T02:12:09.000Z</time>
      </trkpt>
      <trkpt lat="42.26085" lon="2.371392">
        <ele>883</ele>
        <time>1970-01-01T02:12:10.000Z</time>
      </trkpt>
      <trkpt lat="42.260883" lon="2.371318">
        <ele>883</ele>
        <time>1970-01-01T02:12:11.000Z</time>
      </trkpt>
      <trkpt lat="42.260916" lon="2.371245">
        <ele>883</ele>
        <time>1970-01-01T02:12:12.000Z</time>
      </trkpt>
      <trkpt lat="42.260949" lon="2.371171">
        <ele>883</ele>
        <time>1970-01-01T02:12:13.000Z</time>
      </trkpt>
      <trkpt lat="42.260982" lon="2.371098">
        <ele>883</ele>
        <time>1970-01-01T02:12:14.000Z</time>
      </trkpt>
      <trkpt lat="42.261015" lon="2.371025">
        <ele>883</ele>
        <time>1970-01-01T02:12:15.000Z</time>
      </trkpt>
      <trkpt lat="42.261048" lon="2.370951">
        <ele>883</ele>
        <time>1970-01-01T02:12:16.000Z</time>
      </trkpt>
      <trkpt lat="42.261081" lon="2.370878">
        <ele>883</ele>
        <time>1970-01-01T02:12:17.000Z</time>
      </trkpt>
      <trkpt lat="42.261114" lon="2.370804">
        <ele>883</ele>
        <time>1970-01-01T02:12:18.000Z</time>
      </trkpt>
      <trkpt lat="42.261147" lon="2.370731">
        <ele>882</ele>
        <time>1970-01-01T02:12:19.000Z</time>
      </trkpt>
      <trkpt lat="42.261214" lon="2.370588">
        <ele>882</ele>
        <time>1970-01-01T02:12:20.000Z</time>
      </trkpt>
      <trkpt lat="42.26124" lon="2.370524">
        <ele>882</ele>
        <time>1970-01-01T02:12:21.000Z</time>
      </trkpt>
      <trkpt lat="42.261267" lon="2.370459">
        <ele>882</ele>
        <time>1970-01-01T02:12:22.000Z</time>
      </trkpt>
      <trkpt lat="42.261293" lon="2.370394">
        <ele>882</ele>
        <time>1970-01-01T02:12:23.000Z</time>
      </trkpt>
      <trkpt lat="42.26132" lon="2.37033">
        <ele>882</ele>
        <time>1970-01-01T02:12:24.000Z</time>
      </trkpt>
      <trkpt lat="42.261347" lon="2.370265">
        <ele>882</ele>
        <time>1970-01-01T02:12:25.000Z</time>
      </trkpt>
      <trkpt lat="42.261373" lon="2.3702">
        <ele>882</ele>
        <time>1970-01-01T02:12:26.000Z</time>
      </trkpt>
      <trkpt lat="42.2614" lon="2.370135">
        <ele>882</ele>
        <time>1970-01-01T02:12:27.000Z</time>
      </trkpt>
      <trkpt lat="42.261426" lon="2.370071">
        <ele>882</ele>
        <time>1970-01-01T02:12:28.000Z</time>
      </trkpt>
      <trkpt lat="42.261453" lon="2.370006">
        <ele>881</ele>
        <time>1970-01-01T02:12:29.000Z</time>
      </trkpt>
      <trkpt lat="42.261456" lon="2.36985">
        <ele>881</ele>
        <time>1970-01-01T02:12:30.000Z</time>
      </trkpt>
      <trkpt lat="42.261457" lon="2.369777">
        <ele>881</ele>
        <time>1970-01-01T02:12:31.000Z</time>
      </trkpt>
      <trkpt lat="42.261457" lon="2.369703">
        <ele>881</ele>
        <time>1970-01-01T02:12:32.000Z</time>
      </trkpt>
      <trkpt lat="42.261458" lon="2.36963">
        <ele>881</ele>
        <time>1970-01-01T02:12:33.000Z</time>
      </trkpt>
      <trkpt lat="42.261459" lon="2.369557">
        <ele>881</ele>
        <time>1970-01-01T02:12:34.000Z</time>
      </trkpt>
      <trkpt lat="42.26146" lon="2.369484">
        <ele>881</ele>
        <time>1970-01-01T02:12:35.000Z</time>
      </trkpt>
      <trkpt lat="42.261461" lon="2.369411">
        <ele>881</ele>
        <time>1970-01-01T02:12:36.000Z</time>
      </trkpt>
      <trkpt lat="42.261461" lon="2.369337">
        <ele>881</ele>
        <time>1970-01-01T02:12:37.000Z</time>
      </trkpt>
      <trkpt lat="42.261462" lon="2.369264">
        <ele>881</ele>
        <time>1970-01-01T02:12:38.000Z</time>
      </trkpt>
      <trkpt lat="42.261463" lon="2.369191">
        <ele>881</ele>
        <time>1970-01-01T02:12:39.000Z</time>
      </trkpt>
      <trkpt lat="42.261428" lon="2.369034">
        <ele>881</ele>
        <time>1970-01-01T02:12:40.000Z</time>
      </trkpt>
      <trkpt lat="42.261402" lon="2.368954">
        <ele>881</ele>
        <time>1970-01-01T02:12:41.000Z</time>
      </trkpt>
      <trkpt lat="42.261376" lon="2.368875">
        <ele>881</ele>
        <time>1970-01-01T02:12:42.000Z</time>
      </trkpt>
      <trkpt lat="42.26135" lon="2.368795">
        <ele>881</ele>
        <time>1970-01-01T02:12:43.000Z</time>
      </trkpt>
      <trkpt lat="42.261325" lon="2.368716">
        <ele>881</ele>
        <time>1970-01-01T02:12:44.000Z</time>
      </trkpt>
      <trkpt lat="42.261299" lon="2.368637">
        <ele>881</ele>
        <time>1970-01-01T02:12:45.000Z</time>
      </trkpt>
      <trkpt lat="42.261273" lon="2.368557">
        <ele>881</ele>
        <time>1970-01-01T02:12:46.000Z</time>
      </trkpt>
      <trkpt lat="42.261247" lon="2.368478">
        <ele>881</ele>
        <time>1970-01-01T02:12:47.000Z</time>
      </trkpt>
      <trkpt lat="42.261221" lon="2.368398">
        <ele>881</ele>
        <time>1970-01-01T02:12:48.000Z</time>
      </trkpt>
      <trkpt lat="42.261195" lon="2.368319">
        <ele>878</ele>
        <time>1970-01-01T02:12:49.000Z</time>
      </trkpt>
      <trkpt lat="42.261119" lon="2.368138">
        <ele>878</ele>
        <time>1970-01-01T02:12:50.000Z</time>
      </trkpt>
      <trkpt lat="42.261077" lon="2.368058">
        <ele>878</ele>
        <time>1970-01-01T02:12:51.000Z</time>
      </trkpt>
      <trkpt lat="42.261034" lon="2.367977">
        <ele>878</ele>
        <time>1970-01-01T02:12:52.000Z</time>
      </trkpt>
      <trkpt lat="42.260992" lon="2.367897">
        <ele>878</ele>
        <time>1970-01-01T02:12:53.000Z</time>
      </trkpt>
      <trkpt lat="42.260949" lon="2.367817">
        <ele>878</ele>
        <time>1970-01-01T02:12:54.000Z</time>
      </trkpt>
      <trkpt lat="42.260906" lon="2.367737">
        <ele>878</ele>
        <time>1970-01-01T02:12:55.000Z</time>
      </trkpt>
      <trkpt lat="42.260864" lon="2.367657">
        <ele>878</ele>
        <time>1970-01-01T02:12:56.000Z</time>
      </trkpt>
      <trkpt lat="42.260821" lon="2.367576">
        <ele>878</ele>
        <time>1970-01-01T02:12:57.000Z</time>
      </trkpt>
      <trkpt lat="42.260779" lon="2.367496">
        <ele>878</ele>
        <time>1970-01-01T02:12:58.000Z</time>
      </trkpt>
      <trkpt lat="42.260736" lon="2.367416">
        <ele>872</ele>
        <time>1970-01-01T02:12:59.000Z</time>
      </trkpt>
      <trkpt lat="42.260612" lon="2.367262">
        <ele>872</ele>
        <time>1970-01-01T02:13:00.000Z</time>
      </trkpt>
      <trkpt lat="42.260554" lon="2.36719">
        <ele>872</ele>
        <time>1970-01-01T02:13:01.000Z</time>
      </trkpt>
      <trkpt lat="42.260496" lon="2.367119">
        <ele>872</ele>
        <time>1970-01-01T02:13:02.000Z</time>
      </trkpt>
      <trkpt lat="42.260438" lon="2.367047">
        <ele>872</ele>
        <time>1970-01-01T02:13:03.000Z</time>
      </trkpt>
      <trkpt lat="42.26038" lon="2.366975">
        <ele>872</ele>
        <time>1970-01-01T02:13:04.000Z</time>
      </trkpt>
      <trkpt lat="42.260322" lon="2.366903">
        <ele>872</ele>
        <time>1970-01-01T02:13:05.000Z</time>
      </trkpt>
      <trkpt lat="42.260264" lon="2.366831">
        <ele>872</ele>
        <time>1970-01-01T02:13:06.000Z</time>
      </trkpt>
      <trkpt lat="42.260206" lon="2.36676">
        <ele>872</ele>
        <time>1970-01-01T02:13:07.000Z</time>
      </trkpt>
      <trkpt lat="42.260148" lon="2.366688">
        <ele>872</ele>
        <time>1970-01-01T02:13:08.000Z</time>
      </trkpt>
      <trkpt lat="42.26009" lon="2.366616">
        <ele>867</ele>
        <time>1970-01-01T02:13:09.000Z</time>
      </trkpt>
      <trkpt lat="42.260056" lon="2.366488">
        <ele>867</ele>
        <time>1970-01-01T02:13:10.000Z</time>
      </trkpt>
      <trkpt lat="42.260064" lon="2.366435">
        <ele>867</ele>
        <time>1970-01-01T02:13:11.000Z</time>
      </trkpt>
      <trkpt lat="42.260072" lon="2.366383">
        <ele>867</ele>
        <time>1970-01-01T02:13:12.000Z</time>
      </trkpt>
      <trkpt lat="42.26008" lon="2.36633">
        <ele>867</ele>
        <time>1970-01-01T02:13:13.000Z</time>
      </trkpt>
      <trkpt lat="42.260088" lon="2.366278">
        <ele>867</ele>
        <time>1970-01-01T02:13:14.000Z</time>
      </trkpt>
      <trkpt lat="42.260096" lon="2.366225">
        <ele>867</ele>
        <time>1970-01-01T02:13:15.000Z</time>
      </trkpt>
      <trkpt lat="42.260104" lon="2.366173">
        <ele>867</ele>
        <time>1970-01-01T02:13:16.000Z</time>
      </trkpt>
      <trkpt lat="42.260112" lon="2.36612">
        <ele>867</ele>
        <time>1970-01-01T02:13:17.000Z</time>
      </trkpt>
      <trkpt lat="42.26012" lon="2.366068">
        <ele>867</ele>
        <time>1970-01-01T02:13:18.000Z</time>
      </trkpt>
      <trkpt lat="42.260128" lon="2.366015">
        <ele>863</ele>
        <time>1970-01-01T02:13:19.000Z</time>
      </trkpt>
      <trkpt lat="42.260138" lon="2.365962">
        <ele>863</ele>
        <time>1970-01-01T02:13:20.000Z</time>
      </trkpt>
      <trkpt lat="42.260131" lon="2.365939">
        <ele>863</ele>
        <time>1970-01-01T02:13:22.000Z</time>
      </trkpt>
      <trkpt lat="42.260125" lon="2.365917">
        <ele>862</ele>
        <time>1970-01-01T02:13:25.000Z</time>
      </trkpt>
      <trkpt lat="42.260118" lon="2.365894">
        <ele>862</ele>
        <time>1970-01-01T02:13:26.000Z</time>
      </trkpt>
      <trkpt lat="42.260111" lon="2.365872">
        <ele>861</ele>
        <time>1970-01-01T02:14:12.000Z</time>
      </trkpt>
      <trkpt lat="42.260104" lon="2.365849">
        <ele>861</ele>
        <time>1970-01-01T02:14:13.000Z</time>
      </trkpt>
      <trkpt lat="42.260097" lon="2.365827">
        <ele>861</ele>
        <time>1970-01-01T02:14:14.000Z</time>
      </trkpt>
      <trkpt lat="42.260091" lon="2.365804">
        <ele>861</ele>
        <time>1970-01-01T02:14:15.000Z</time>
      </trkpt>
      <trkpt lat="42.260084" lon="2.365782">
        <ele>861</ele>
        <time>1970-01-01T02:14:16.000Z</time>
      </trkpt>
      <trkpt lat="42.260077" lon="2.365759">
        <ele>861</ele>
        <time>1970-01-01T02:14:17.000Z</time>
      </trkpt>
      <trkpt lat="42.26007" lon="2.365737">
        <ele>861</ele>
        <time>1970-01-01T02:14:18.000Z</time>
      </trkpt>
      <trkpt lat="42.260063" lon="2.365714">
        <ele>861</ele>
        <time>1970-01-01T02:14:19.000Z</time>
      </trkpt>
      <trkpt lat="42.260057" lon="2.365692">
        <ele>861</ele>
        <time>1970-01-01T02:14:20.000Z</time>
      </trkpt>
      <trkpt lat="42.26005" lon="2.365669">
        <ele>861</ele>
        <time>1970-01-01T02:14:21.000Z</time>
      </trkpt>
      <trkpt lat="42.260043" lon="2.365647">
        <ele>861</ele>
        <time>1970-01-01T02:14:22.000Z</time>
      </trkpt>
      <trkpt lat="42.259969" lon="2.365629">
        <ele>861</ele>
        <time>1970-01-01T02:14:23.000Z</time>
      </trkpt>
      <trkpt lat="42.259941" lon="2.365614">
        <ele>861</ele>
        <time>1970-01-01T02:14:24.000Z</time>
      </trkpt>
      <trkpt lat="42.259913" lon="2.365598">
        <ele>861</ele>
        <time>1970-01-01T02:14:25.000Z</time>
      </trkpt>
      <trkpt lat="42.259885" lon="2.365583">
        <ele>861</ele>
        <time>1970-01-01T02:14:26.000Z</time>
      </trkpt>
      <trkpt lat="42.259857" lon="2.365568">
        <ele>861</ele>
        <time>1970-01-01T02:14:27.000Z</time>
      </trkpt>
      <trkpt lat="42.259829" lon="2.365553">
        <ele>861</ele>
        <time>1970-01-01T02:14:28.000Z</time>
      </trkpt>
      <trkpt lat="42.259801" lon="2.365538">
        <ele>861</ele>
        <time>1970-01-01T02:14:29.000Z</time>
      </trkpt>
      <trkpt lat="42.259773" lon="2.365522">
        <ele>861</ele>
        <time>1970-01-01T02:14:30.000Z</time>
      </trkpt>
      <trkpt lat="42.259745" lon="2.365507">
        <ele>861</ele>
        <time>1970-01-01T02:14:31.000Z</time>
      </trkpt>
      <trkpt lat="42.259717" lon="2.365492">
        <ele>861</ele>
        <time>1970-01-01T02:14:32.000Z</time>
      </trkpt>
      <trkpt lat="42.259698" lon="2.365478">
        <ele>860</ele>
        <time>1970-01-01T02:14:35.000Z</time>
      </trkpt>
      <trkpt lat="42.25968" lon="2.365464">
        <ele>860</ele>
        <time>1970-01-01T02:14:36.000Z</time>
      </trkpt>
      <trkpt lat="42.259661" lon="2.36545">
        <ele>860</ele>
        <time>1970-01-01T02:16:14.000Z</time>
      </trkpt>
      <trkpt lat="42.259643" lon="2.365436">
        <ele>860</ele>
        <time>1970-01-01T02:16:15.000Z</time>
      </trkpt>
      <trkpt lat="42.259624" lon="2.365422">
        <ele>860</ele>
        <time>1970-01-01T02:16:16.000Z</time>
      </trkpt>
      <trkpt lat="42.259606" lon="2.365408">
        <ele>860</ele>
        <time>1970-01-01T02:16:17.000Z</time>
      </trkpt>
      <trkpt lat="42.259587" lon="2.365395">
        <ele>860</ele>
        <time>1970-01-01T02:16:18.000Z</time>
      </trkpt>
      <trkpt lat="42.259569" lon="2.365381">
        <ele>860</ele>
        <time>1970-01-01T02:16:19.000Z</time>
      </trkpt>
      <trkpt lat="42.25955" lon="2.365367">
        <ele>860</ele>
        <time>1970-01-01T02:16:20.000Z</time>
      </trkpt>
      <trkpt lat="42.259532" lon="2.365353">
        <ele>860</ele>
        <time>1970-01-01T02:16:21.000Z</time>
      </trkpt>
      <trkpt lat="42.259513" lon="2.365339">
        <ele>860</ele>
        <time>1970-01-01T02:16:22.000Z</time>
      </trkpt>
      <trkpt lat="42.259495" lon="2.365325">
        <ele>860</ele>
        <time>1970-01-01T02:16:23.000Z</time>
      </trkpt>
      <trkpt lat="42.259476" lon="2.365311">
        <ele>860</ele>
        <time>1970-01-01T02:16:24.000Z</time>
      </trkpt>
      <trkpt lat="42.25942" lon="2.365267">
        <ele>860</ele>
        <time>1970-01-01T02:16:25.000Z</time>
      </trkpt>
      <trkpt lat="42.259392" lon="2.365246">
        <ele>860</ele>
        <time>1970-01-01T02:16:26.000Z</time>
      </trkpt>
      <trkpt lat="42.259364" lon="2.365224">
        <ele>860</ele>
        <time>1970-01-01T02:16:27.000Z</time>
      </trkpt>
      <trkpt lat="42.259336" lon="2.365203">
        <ele>860</ele>
        <time>1970-01-01T02:16:28.000Z</time>
      </trkpt>
      <trkpt lat="42.259308" lon="2.365181">
        <ele>860</ele>
        <time>1970-01-01T02:16:29.000Z</time>
      </trkpt>
      <trkpt lat="42.25928" lon="2.36516">
        <ele>860</ele>
        <time>1970-01-01T02:16:30.000Z</time>
      </trkpt>
      <trkpt lat="42.259252" lon="2.365138">
        <ele>860</ele>
        <time>1970-01-01T02:16:31.000Z</time>
      </trkpt>
      <trkpt lat="42.259224" lon="2.365117">
        <ele>860</ele>
        <time>1970-01-01T02:16:32.000Z</time>
      </trkpt>
      <trkpt lat="42.259196" lon="2.365095">
        <ele>860</ele>
        <time>1970-01-01T02:16:33.000Z</time>
      </trkpt>
      <trkpt lat="42.259168" lon="2.365074">
        <ele>860</ele>
        <time>1970-01-01T02:16:34.000Z</time>
      </trkpt>
      <trkpt lat="42.259101" lon="2.365025">
        <ele>860</ele>
        <time>1970-01-01T02:16:35.000Z</time>
      </trkpt>
      <trkpt lat="42.259067" lon="2.365001">
        <ele>860</ele>
        <time>1970-01-01T02:16:36.000Z</time>
      </trkpt>
      <trkpt lat="42.259033" lon="2.364977">
        <ele>860</ele>
        <time>1970-01-01T02:16:37.000Z</time>
      </trkpt>
      <trkpt lat="42.258999" lon="2.364953">
        <ele>860</ele>
        <time>1970-01-01T02:16:38.000Z</time>
      </trkpt>
      <trkpt lat="42.258966" lon="2.364929">
        <ele>860</ele>
        <time>1970-01-01T02:16:39.000Z</time>
      </trkpt>
      <trkpt lat="42.258932" lon="2.364906">
        <ele>860</ele>
        <time>1970-01-01T02:16:40.000Z</time>
      </trkpt>
      <trkpt lat="42.258898" lon="2.364882">
        <ele>860</ele>
        <time>1970-01-01T02:16:41.000Z</time>
      </trkpt>
      <trkpt lat="42.258864" lon="2.364858">
        <ele>860</ele>
        <time>1970-01-01T02:16:42.000Z</time>
      </trkpt>
      <trkpt lat="42.25883" lon="2.364834">
        <ele>860</ele>
        <time>1970-01-01T02:16:43.000Z</time>
      </trkpt>
      <trkpt lat="42.258796" lon="2.36481">
        <ele>859</ele>
        <time>1970-01-01T02:16:44.000Z</time>
      </trkpt>
      <trkpt lat="42.258722" lon="2.364755">
        <ele>859</ele>
        <time>1970-01-01T02:16:45.000Z</time>
      </trkpt>
      <trkpt lat="42.258682" lon="2.364724">
        <ele>859</ele>
        <time>1970-01-01T02:16:46.000Z</time>
      </trkpt>
      <trkpt lat="42.258643" lon="2.364693">
        <ele>859</ele>
        <time>1970-01-01T02:16:47.000Z</time>
      </trkpt>
      <trkpt lat="42.258603" lon="2.364662">
        <ele>859</ele>
        <time>1970-01-01T02:16:48.000Z</time>
      </trkpt>
      <trkpt lat="42.258564" lon="2.364631">
        <ele>859</ele>
        <time>1970-01-01T02:16:49.000Z</time>
      </trkpt>
      <trkpt lat="42.258524" lon="2.3646">
        <ele>859</ele>
        <time>1970-01-01T02:16:50.000Z</time>
      </trkpt>
      <trkpt lat="42.258485" lon="2.364569">
        <ele>859</ele>
        <time>1970-01-01T02:16:51.000Z</time>
      </trkpt>
      <trkpt lat="42.258445" lon="2.364538">
        <ele>859</ele>
        <time>1970-01-01T02:16:52.000Z</time>
      </trkpt>
      <trkpt lat="42.258406" lon="2.364507">
        <ele>859</ele>
        <time>1970-01-01T02:16:53.000Z</time>
      </trkpt>
      <trkpt lat="42.258366" lon="2.364476">
        <ele>858</ele>
        <time>1970-01-01T02:16:54.000Z</time>
      </trkpt>
      <trkpt lat="42.258296" lon="2.364364">
        <ele>858</ele>
        <time>1970-01-01T02:16:55.000Z</time>
      </trkpt>
      <trkpt lat="42.258275" lon="2.364293">
        <ele>858</ele>
        <time>1970-01-01T02:16:56.000Z</time>
      </trkpt>
      <trkpt lat="42.258253" lon="2.364221">
        <ele>858</ele>
        <time>1970-01-01T02:16:57.000Z</time>
      </trkpt>
      <trkpt lat="42.258232" lon="2.364149">
        <ele>858</ele>
        <time>1970-01-01T02:16:58.000Z</time>
      </trkpt>
      <trkpt lat="42.25821" lon="2.364077">
        <ele>858</ele>
        <time>1970-01-01T02:16:59.000Z</time>
      </trkpt>
      <trkpt lat="42.258188" lon="2.364006">
        <ele>858</ele>
        <time>1970-01-01T02:17:00.000Z</time>
      </trkpt>
      <trkpt lat="42.258167" lon="2.363934">
        <ele>858</ele>
        <time>1970-01-01T02:17:01.000Z</time>
      </trkpt>
      <trkpt lat="42.258145" lon="2.363862">
        <ele>858</ele>
        <time>1970-01-01T02:17:02.000Z</time>
      </trkpt>
      <trkpt lat="42.258124" lon="2.363791">
        <ele>858</ele>
        <time>1970-01-01T02:17:03.000Z</time>
      </trkpt>
      <trkpt lat="42.258102" lon="2.363719">
        <ele>855</ele>
        <time>1970-01-01T02:17:04.000Z</time>
      </trkpt>
      <trkpt lat="42.25813" lon="2.363539">
        <ele>855</ele>
        <time>1970-01-01T02:17:05.000Z</time>
      </trkpt>
      <trkpt lat="42.258143" lon="2.36346">
        <ele>855</ele>
        <time>1970-01-01T02:17:06.000Z</time>
      </trkpt>
      <trkpt lat="42.258156" lon="2.36338">
        <ele>855</ele>
        <time>1970-01-01T02:17:07.000Z</time>
      </trkpt>
      <trkpt lat="42.258169" lon="2.3633">
        <ele>855</ele>
        <time>1970-01-01T02:17:08.000Z</time>
      </trkpt>
      <trkpt lat="42.258182" lon="2.363221">
        <ele>855</ele>
        <time>1970-01-01T02:17:09.000Z</time>
      </trkpt>
      <trkpt lat="42.258194" lon="2.363141">
        <ele>855</ele>
        <time>1970-01-01T02:17:10.000Z</time>
      </trkpt>
      <trkpt lat="42.258207" lon="2.363061">
        <ele>855</ele>
        <time>1970-01-01T02:17:11.000Z</time>
      </trkpt>
      <trkpt lat="42.25822" lon="2.362981">
        <ele>855</ele>
        <time>1970-01-01T02:17:12.000Z</time>
      </trkpt>
      <trkpt lat="42.258233" lon="2.362902">
        <ele>855</ele>
        <time>1970-01-01T02:17:13.000Z</time>
      </trkpt>
      <trkpt lat="42.258246" lon="2.362822">
        <ele>855</ele>
        <time>1970-01-01T02:17:14.000Z</time>
      </trkpt>
      <trkpt lat="42.258231" lon="2.362686">
        <ele>855</ele>
        <time>1970-01-01T02:17:15.000Z</time>
      </trkpt>
      <trkpt lat="42.258217" lon="2.362629">
        <ele>855</ele>
        <time>1970-01-01T02:17:16.000Z</time>
      </trkpt>
      <trkpt lat="42.258202" lon="2.362572">
        <ele>855</ele>
        <time>1970-01-01T02:17:17.000Z</time>
      </trkpt>
      <trkpt lat="42.258188" lon="2.362515">
        <ele>855</ele>
        <time>1970-01-01T02:17:18.000Z</time>
      </trkpt>
      <trkpt lat="42.258173" lon="2.362458">
        <ele>855</ele>
        <time>1970-01-01T02:17:19.000Z</time>
      </trkpt>
      <trkpt lat="42.258158" lon="2.362402">
        <ele>855</ele>
        <time>1970-01-01T02:17:20.000Z</time>
      </trkpt>
      <trkpt lat="42.258144" lon="2.362345">
        <ele>855</ele>
        <time>1970-01-01T02:17:21.000Z</time>
      </trkpt>
      <trkpt lat="42.258129" lon="2.362288">
        <ele>855</ele>
        <time>1970-01-01T02:17:22.000Z</time>
      </trkpt>
      <trkpt lat="42.258115" lon="2.362231">
        <ele>855</ele>
        <time>1970-01-01T02:17:23.000Z</time>
      </trkpt>
      <trkpt lat="42.2581" lon="2.362174">
        <ele>854</ele>
        <time>1970-01-01T02:17:24.000Z</time>
      </trkpt>
      <trkpt lat="42.258066" lon="2.362071">
        <ele>854</ele>
        <time>1970-01-01T02:17:25.000Z</time>
      </trkpt>
      <trkpt lat="42.258051" lon="2.362022">
        <ele>854</ele>
        <time>1970-01-01T02:17:26.000Z</time>
      </trkpt>
      <trkpt lat="42.258035" lon="2.361973">
        <ele>854</ele>
        <time>1970-01-01T02:17:27.000Z</time>
      </trkpt>
      <trkpt lat="42.25802" lon="2.361924">
        <ele>854</ele>
        <time>1970-01-01T02:17:28.000Z</time>
      </trkpt>
      <trkpt lat="42.258005" lon="2.361874">
        <ele>854</ele>
        <time>1970-01-01T02:17:29.000Z</time>
      </trkpt>
      <trkpt lat="42.25799" lon="2.361825">
        <ele>854</ele>
        <time>1970-01-01T02:17:30.000Z</time>
      </trkpt>
      <trkpt lat="42.257975" lon="2.361776">
        <ele>854</ele>
        <time>1970-01-01T02:17:31.000Z</time>
      </trkpt>
      <trkpt lat="42.257959" lon="2.361727">
        <ele>854</ele>
        <time>1970-01-01T02:17:32.000Z</time>
      </trkpt>
      <trkpt lat="42.257944" lon="2.361678">
        <ele>854</ele>
        <time>1970-01-01T02:17:33.000Z</time>
      </trkpt>
      <trkpt lat="42.257929" lon="2.361629">
        <ele>855</ele>
        <time>1970-01-01T02:17:34.000Z</time>
      </trkpt>
      <trkpt lat="42.257895" lon="2.361521">
        <ele>855</ele>
        <time>1970-01-01T02:17:35.000Z</time>
      </trkpt>
      <trkpt lat="42.257879" lon="2.36147">
        <ele>855</ele>
        <time>1970-01-01T02:17:36.000Z</time>
      </trkpt>
      <trkpt lat="42.257863" lon="2.361418">
        <ele>855</ele>
        <time>1970-01-01T02:17:37.000Z</time>
      </trkpt>
      <trkpt lat="42.257847" lon="2.361367">
        <ele>855</ele>
        <time>1970-01-01T02:17:38.000Z</time>
      </trkpt>
      <trkpt lat="42.257832" lon="2.361315">
        <ele>855</ele>
        <time>1970-01-01T02:17:39.000Z</time>
      </trkpt>
      <trkpt lat="42.257816" lon="2.361264">
        <ele>855</ele>
        <time>1970-01-01T02:17:40.000Z</time>
      </trkpt>
      <trkpt lat="42.2578" lon="2.361212">
        <ele>855</ele>
        <time>1970-01-01T02:17:41.000Z</time>
      </trkpt>
      <trkpt lat="42.257784" lon="2.361161">
        <ele>855</ele>
        <time>1970-01-01T02:17:42.000Z</time>
      </trkpt>
      <trkpt lat="42.257768" lon="2.361109">
        <ele>855</ele>
        <time>1970-01-01T02:17:43.000Z</time>
      </trkpt>
      <trkpt lat="42.257752" lon="2.361058">
        <ele>855</ele>
        <time>1970-01-01T02:17:44.000Z</time>
      </trkpt>
      <trkpt lat="42.257718" lon="2.360949">
        <ele>855</ele>
        <time>1970-01-01T02:17:45.000Z</time>
      </trkpt>
      <trkpt lat="42.257702" lon="2.360896">
        <ele>855</ele>
        <time>1970-01-01T02:17:46.000Z</time>
      </trkpt>
      <trkpt lat="42.257686" lon="2.360844">
        <ele>855</ele>
        <time>1970-01-01T02:17:47.000Z</time>
      </trkpt>
      <trkpt lat="42.25767" lon="2.360791">
        <ele>855</ele>
        <time>1970-01-01T02:17:48.000Z</time>
      </trkpt>
      <trkpt lat="42.257654" lon="2.360739">
        <ele>855</ele>
        <time>1970-01-01T02:17:49.000Z</time>
      </trkpt>
      <trkpt lat="42.257637" lon="2.360687">
        <ele>855</ele>
        <time>1970-01-01T02:17:50.000Z</time>
      </trkpt>
      <trkpt lat="42.257621" lon="2.360634">
        <ele>855</ele>
        <time>1970-01-01T02:17:51.000Z</time>
      </trkpt>
      <trkpt lat="42.257605" lon="2.360582">
        <ele>855</ele>
        <time>1970-01-01T02:17:52.000Z</time>
      </trkpt>
      <trkpt lat="42.257589" lon="2.360529">
        <ele>855</ele>
        <time>1970-01-01T02:17:53.000Z</time>
      </trkpt>
      <trkpt lat="42.257573" lon="2.360477">
        <ele>856</ele>
        <time>1970-01-01T02:17:54.000Z</time>
      </trkpt>
      <trkpt lat="42.257535" lon="2.360356">
        <ele>856</ele>
        <time>1970-01-01T02:17:55.000Z</time>
      </trkpt>
      <trkpt lat="42.257517" lon="2.360297">
        <ele>856</ele>
        <time>1970-01-01T02:17:56.000Z</time>
      </trkpt>
      <trkpt lat="42.257498" lon="2.360237">
        <ele>856</ele>
        <time>1970-01-01T02:17:57.000Z</time>
      </trkpt>
      <trkpt lat="42.25748" lon="2.360178">
        <ele>856</ele>
        <time>1970-01-01T02:17:58.000Z</time>
      </trkpt>
      <trkpt lat="42.257461" lon="2.360118">
        <ele>856</ele>
        <time>1970-01-01T02:17:59.000Z</time>
      </trkpt>
      <trkpt lat="42.257442" lon="2.360058">
        <ele>856</ele>
        <time>1970-01-01T02:18:00.000Z</time>
      </trkpt>
      <trkpt lat="42.257424" lon="2.359999">
        <ele>856</ele>
        <time>1970-01-01T02:18:01.000Z</time>
      </trkpt>
      <trkpt lat="42.257405" lon="2.359939">
        <ele>856</ele>
        <time>1970-01-01T02:18:02.000Z</time>
      </trkpt>
      <trkpt lat="42.257387" lon="2.35988">
        <ele>856</ele>
        <time>1970-01-01T02:18:03.000Z</time>
      </trkpt>
      <trkpt lat="42.257368" lon="2.35982">
        <ele>856</ele>
        <time>1970-01-01T02:18:04.000Z</time>
      </trkpt>
      <trkpt lat="42.257325" lon="2.359685">
        <ele>856</ele>
        <time>1970-01-01T02:18:05.000Z</time>
      </trkpt>
      <trkpt lat="42.257304" lon="2.359619">
        <ele>856</ele>
        <time>1970-01-01T02:18:06.000Z</time>
      </trkpt>
      <trkpt lat="42.257283" lon="2.359554">
        <ele>856</ele>
        <time>1970-01-01T02:18:07.000Z</time>
      </trkpt>
      <trkpt lat="42.257262" lon="2.359489">
        <ele>856</ele>
        <time>1970-01-01T02:18:08.000Z</time>
      </trkpt>
      <trkpt lat="42.257241" lon="2.359423">
        <ele>856</ele>
        <time>1970-01-01T02:18:09.000Z</time>
      </trkpt>
      <trkpt lat="42.25722" lon="2.359358">
        <ele>856</ele>
        <time>1970-01-01T02:18:10.000Z</time>
      </trkpt>
      <trkpt lat="42.257199" lon="2.359293">
        <ele>856</ele>
        <time>1970-01-01T02:18:11.000Z</time>
      </trkpt>
      <trkpt lat="42.257178" lon="2.359228">
        <ele>856</ele>
        <time>1970-01-01T02:18:12.000Z</time>
      </trkpt>
      <trkpt lat="42.257157" lon="2.359162">
        <ele>856</ele>
        <time>1970-01-01T02:18:13.000Z</time>
      </trkpt>
      <trkpt lat="42.257136" lon="2.359097">
        <ele>856</ele>
        <time>1970-01-01T02:18:14.000Z</time>
      </trkpt>
      <trkpt lat="42.257093" lon="2.358955">
        <ele>856</ele>
        <time>1970-01-01T02:18:15.000Z</time>
      </trkpt>
      <trkpt lat="42.257072" lon="2.358887">
        <ele>856</ele>
        <time>1970-01-01T02:18:16.000Z</time>
      </trkpt>
      <trkpt lat="42.257052" lon="2.358819">
        <ele>856</ele>
        <time>1970-01-01T02:18:17.000Z</time>
      </trkpt>
      <trkpt lat="42.257031" lon="2.358751">
        <ele>856</ele>
        <time>1970-01-01T02:18:18.000Z</time>
      </trkpt>
      <trkpt lat="42.25701" lon="2.358683">
        <ele>856</ele>
        <time>1970-01-01T02:18:19.000Z</time>
      </trkpt>
      <trkpt lat="42.256989" lon="2.358615">
        <ele>856</ele>
        <time>1970-01-01T02:18:20.000Z</time>
      </trkpt>
      <trkpt lat="42.256968" lon="2.358547">
        <ele>856</ele>
        <time>1970-01-01T02:18:21.000Z</time>
      </trkpt>
      <trkpt lat="42.256948" lon="2.358479">
        <ele>856</ele>
        <time>1970-01-01T02:18:22.000Z</time>
      </trkpt>
      <trkpt lat="42.256927" lon="2.358411">
        <ele>856</ele>
        <time>1970-01-01T02:18:23.000Z</time>
      </trkpt>
      <trkpt lat="42.256906" lon="2.358343">
        <ele>855</ele>
        <time>1970-01-01T02:18:24.000Z</time>
      </trkpt>
      <trkpt lat="42.256859" lon="2.358195">
        <ele>855</ele>
        <time>1970-01-01T02:18:25.000Z</time>
      </trkpt>
      <trkpt lat="42.256836" lon="2.358124">
        <ele>855</ele>
        <time>1970-01-01T02:18:26.000Z</time>
      </trkpt>
      <trkpt lat="42.256814" lon="2.358052">
        <ele>855</ele>
        <time>1970-01-01T02:18:27.000Z</time>
      </trkpt>
      <trkpt lat="42.256791" lon="2.35798">
        <ele>855</ele>
        <time>1970-01-01T02:18:28.000Z</time>
      </trkpt>
      <trkpt lat="42.256768" lon="2.357908">
        <ele>855</ele>
        <time>1970-01-01T02:18:29.000Z</time>
      </trkpt>
      <trkpt lat="42.256745" lon="2.357837">
        <ele>855</ele>
        <time>1970-01-01T02:18:30.000Z</time>
      </trkpt>
      <trkpt lat="42.256722" lon="2.357765">
        <ele>855</ele>
        <time>1970-01-01T02:18:31.000Z</time>
      </trkpt>
      <trkpt lat="42.2567" lon="2.357693">
        <ele>855</ele>
        <time>1970-01-01T02:18:32.000Z</time>
      </trkpt>
      <trkpt lat="42.256677" lon="2.357622">
        <ele>855</ele>
        <time>1970-01-01T02:18:33.000Z</time>
      </trkpt>
      <trkpt lat="42.256654" lon="2.35755">
        <ele>855</ele>
        <time>1970-01-01T02:18:34.000Z</time>
      </trkpt>
      <trkpt lat="42.256612" lon="2.357396">
        <ele>855</ele>
        <time>1970-01-01T02:18:35.000Z</time>
      </trkpt>
      <trkpt lat="42.256595" lon="2.357322">
        <ele>855</ele>
        <time>1970-01-01T02:18:36.000Z</time>
      </trkpt>
      <trkpt lat="42.256578" lon="2.357248">
        <ele>855</ele>
        <time>1970-01-01T02:18:37.000Z</time>
      </trkpt>
      <trkpt lat="42.256561" lon="2.357174">
        <ele>855</ele>
        <time>1970-01-01T02:18:38.000Z</time>
      </trkpt>
      <trkpt lat="42.256544" lon="2.3571">
        <ele>855</ele>
        <time>1970-01-01T02:18:39.000Z</time>
      </trkpt>
      <trkpt lat="42.256527" lon="2.357027">
        <ele>855</ele>
        <time>1970-01-01T02:18:40.000Z</time>
      </trkpt>
      <trkpt lat="42.25651" lon="2.356953">
        <ele>855</ele>
        <time>1970-01-01T02:18:41.000Z</time>
      </trkpt>
      <trkpt lat="42.256493" lon="2.356879">
        <ele>855</ele>
        <time>1970-01-01T02:18:42.000Z</time>
      </trkpt>
      <trkpt lat="42.256476" lon="2.356805">
        <ele>855</ele>
        <time>1970-01-01T02:18:43.000Z</time>
      </trkpt>
      <trkpt lat="42.256459" lon="2.356731">
        <ele>855</ele>
        <time>1970-01-01T02:18:44.000Z</time>
      </trkpt>
      <trkpt lat="42.256432" lon="2.356574">
        <ele>855</ele>
        <time>1970-01-01T02:18:45.000Z</time>
      </trkpt>
      <trkpt lat="42.256421" lon="2.356499">
        <ele>855</ele>
        <time>1970-01-01T02:18:46.000Z</time>
      </trkpt>
      <trkpt lat="42.256409" lon="2.356425">
        <ele>855</ele>
        <time>1970-01-01T02:18:47.000Z</time>
      </trkpt>
      <trkpt lat="42.256397" lon="2.35635">
        <ele>855</ele>
        <time>1970-01-01T02:18:48.000Z</time>
      </trkpt>
      <trkpt lat="42.256386" lon="2.356276">
        <ele>855</ele>
        <time>1970-01-01T02:18:49.000Z</time>
      </trkpt>
      <trkpt lat="42.256374" lon="2.356202">
        <ele>855</ele>
        <time>1970-01-01T02:18:50.000Z</time>
      </trkpt>
      <trkpt lat="42.256362" lon="2.356127">
        <ele>855</ele>
        <time>1970-01-01T02:18:51.000Z</time>
      </trkpt>
      <trkpt lat="42.25635" lon="2.356053">
        <ele>855</ele>
        <time>1970-01-01T02:18:52.000Z</time>
      </trkpt>
      <trkpt lat="42.256339" lon="2.355978">
        <ele>855</ele>
        <time>1970-01-01T02:18:53.000Z</time>
      </trkpt>
      <trkpt lat="42.256327" lon="2.355904">
        <ele>853</ele>
        <time>1970-01-01T02:18:54.000Z</time>
      </trkpt>
      <trkpt lat="42.256303" lon="2.355748">
        <ele>853</ele>
        <time>1970-01-01T02:18:55.000Z</time>
      </trkpt>
      <trkpt lat="42.256291" lon="2.355674">
        <ele>853</ele>
        <time>1970-01-01T02:18:56.000Z</time>
      </trkpt>
      <trkpt lat="42.25628" lon="2.3556">
        <ele>853</ele>
        <time>1970-01-01T02:18:57.000Z</time>
      </trkpt>
      <trkpt lat="42.256268" lon="2.355526">
        <ele>853</ele>
        <time>1970-01-01T02:18:58.000Z</time>
      </trkpt>
      <trkpt lat="42.256257" lon="2.355452">
        <ele>853</ele>
        <time>1970-01-01T02:18:59.000Z</time>
      </trkpt>
      <trkpt lat="42.256246" lon="2.355379">
        <ele>853</ele>
        <time>1970-01-01T02:19:00.000Z</time>
      </trkpt>
      <trkpt lat="42.256234" lon="2.355305">
        <ele>853</ele>
        <time>1970-01-01T02:19:01.000Z</time>
      </trkpt>
      <trkpt lat="42.256223" lon="2.355231">
        <ele>853</ele>
        <time>1970-01-01T02:19:02.000Z</time>
      </trkpt>
      <trkpt lat="42.256211" lon="2.355157">
        <ele>853</ele>
        <time>1970-01-01T02:19:03.000Z</time>
      </trkpt>
      <trkpt lat="42.2562" lon="2.355083">
        <ele>852</ele>
        <time>1970-01-01T02:19:04.000Z</time>
      </trkpt>
      <trkpt lat="42.256174" lon="2.35492">
        <ele>852</ele>
        <time>1970-01-01T02:19:05.000Z</time>
      </trkpt>
      <trkpt lat="42.256161" lon="2.354841">
        <ele>852</ele>
        <time>1970-01-01T02:19:06.000Z</time>
      </trkpt>
      <trkpt lat="42.256149" lon="2.354763">
        <ele>852</ele>
        <time>1970-01-01T02:19:07.000Z</time>
      </trkpt>
      <trkpt lat="42.256136" lon="2.354684">
        <ele>852</ele>
        <time>1970-01-01T02:19:08.000Z</time>
      </trkpt>
      <trkpt lat="42.256123" lon="2.354605">
        <ele>852</ele>
        <time>1970-01-01T02:19:09.000Z</time>
      </trkpt>
      <trkpt lat="42.25611" lon="2.354526">
        <ele>852</ele>
        <time>1970-01-01T02:19:10.000Z</time>
      </trkpt>
      <trkpt lat="42.256097" lon="2.354447">
        <ele>852</ele>
        <time>1970-01-01T02:19:11.000Z</time>
      </trkpt>
      <trkpt lat="42.256085" lon="2.354369">
        <ele>852</ele>
        <time>1970-01-01T02:19:12.000Z</time>
      </trkpt>
      <trkpt lat="42.256072" lon="2.35429">
        <ele>852</ele>
        <time>1970-01-01T02:19:13.000Z</time>
      </trkpt>
      <trkpt lat="42.256059" lon="2.354211">
        <ele>852</ele>
        <time>1970-01-01T02:19:14.000Z</time>
      </trkpt>
      <trkpt lat="42.256033" lon="2.354037">
        <ele>852</ele>
        <time>1970-01-01T02:19:15.000Z</time>
      </trkpt>
      <trkpt lat="42.25602" lon="2.353953">
        <ele>852</ele>
        <time>1970-01-01T02:19:16.000Z</time>
      </trkpt>
      <trkpt lat="42.256006" lon="2.353869">
        <ele>852</ele>
        <time>1970-01-01T02:19:17.000Z</time>
      </trkpt>
      <trkpt lat="42.255993" lon="2.353785">
        <ele>852</ele>
        <time>1970-01-01T02:19:18.000Z</time>
      </trkpt>
      <trkpt lat="42.25598" lon="2.3537">
        <ele>852</ele>
        <time>1970-01-01T02:19:19.000Z</time>
      </trkpt>
      <trkpt lat="42.255967" lon="2.353616">
        <ele>852</ele>
        <time>1970-01-01T02:19:20.000Z</time>
      </trkpt>
      <trkpt lat="42.255954" lon="2.353532">
        <ele>852</ele>
        <time>1970-01-01T02:19:21.000Z</time>
      </trkpt>
      <trkpt lat="42.25594" lon="2.353448">
        <ele>852</ele>
        <time>1970-01-01T02:19:22.000Z</time>
      </trkpt>
      <trkpt lat="42.255927" lon="2.353364">
        <ele>852</ele>
        <time>1970-01-01T02:19:23.000Z</time>
      </trkpt>
      <trkpt lat="42.255914" lon="2.35328">
        <ele>851</ele>
        <time>1970-01-01T02:19:24.000Z</time>
      </trkpt>
      <trkpt lat="42.255886" lon="2.353096">
        <ele>851</ele>
        <time>1970-01-01T02:19:25.000Z</time>
      </trkpt>
      <trkpt lat="42.255873" lon="2.353008">
        <ele>851</ele>
        <time>1970-01-01T02:19:26.000Z</time>
      </trkpt>
      <trkpt lat="42.25586" lon="2.35292">
        <ele>851</ele>
        <time>1970-01-01T02:19:27.000Z</time>
      </trkpt>
      <trkpt lat="42.255847" lon="2.352832">
        <ele>851</ele>
        <time>1970-01-01T02:19:28.000Z</time>
      </trkpt>
      <trkpt lat="42.255834" lon="2.352744">
        <ele>851</ele>
        <time>1970-01-01T02:19:29.000Z</time>
      </trkpt>
      <trkpt lat="42.255821" lon="2.352656">
        <ele>851</ele>
        <time>1970-01-01T02:19:30.000Z</time>
      </trkpt>
      <trkpt lat="42.255808" lon="2.352568">
        <ele>851</ele>
        <time>1970-01-01T02:19:31.000Z</time>
      </trkpt>
      <trkpt lat="42.255795" lon="2.35248">
        <ele>851</ele>
        <time>1970-01-01T02:19:32.000Z</time>
      </trkpt>
      <trkpt lat="42.255782" lon="2.352392">
        <ele>851</ele>
        <time>1970-01-01T02:19:33.000Z</time>
      </trkpt>
      <trkpt lat="42.255769" lon="2.352304">
        <ele>851</ele>
        <time>1970-01-01T02:19:34.000Z</time>
      </trkpt>
      <trkpt lat="42.255739" lon="2.352108">
        <ele>851</ele>
        <time>1970-01-01T02:19:35.000Z</time>
      </trkpt>
      <trkpt lat="42.255725" lon="2.352012">
        <ele>851</ele>
        <time>1970-01-01T02:19:36.000Z</time>
      </trkpt>
      <trkpt lat="42.255711" lon="2.351917">
        <ele>851</ele>
        <time>1970-01-01T02:19:37.000Z</time>
      </trkpt>
      <trkpt lat="42.255697" lon="2.351821">
        <ele>851</ele>
        <time>1970-01-01T02:19:38.000Z</time>
      </trkpt>
      <trkpt lat="42.255683" lon="2.351725">
        <ele>851</ele>
        <time>1970-01-01T02:19:39.000Z</time>
      </trkpt>
      <trkpt lat="42.255669" lon="2.351629">
        <ele>851</ele>
        <time>1970-01-01T02:19:40.000Z</time>
      </trkpt>
      <trkpt lat="42.255655" lon="2.351533">
        <ele>851</ele>
        <time>1970-01-01T02:19:41.000Z</time>
      </trkpt>
      <trkpt lat="42.255641" lon="2.351438">
        <ele>851</ele>
        <time>1970-01-01T02:19:42.000Z</time>
      </trkpt>
      <trkpt lat="42.255627" lon="2.351342">
        <ele>851</ele>
        <time>1970-01-01T02:19:43.000Z</time>
      </trkpt>
      <trkpt lat="42.255613" lon="2.351246">
        <ele>850</ele>
        <time>1970-01-01T02:19:44.000Z</time>
      </trkpt>
      <trkpt lat="42.255576" lon="2.351037">
        <ele>850</ele>
        <time>1970-01-01T02:19:45.000Z</time>
      </trkpt>
      <trkpt lat="42.255558" lon="2.350937">
        <ele>850</ele>
        <time>1970-01-01T02:19:46.000Z</time>
      </trkpt>
      <trkpt lat="42.25554" lon="2.350837">
        <ele>850</ele>
        <time>1970-01-01T02:19:47.000Z</time>
      </trkpt>
      <trkpt lat="42.255522" lon="2.350737">
        <ele>850</ele>
        <time>1970-01-01T02:19:48.000Z</time>
      </trkpt>
      <trkpt lat="42.255504" lon="2.350636">
        <ele>850</ele>
        <time>1970-01-01T02:19:49.000Z</time>
      </trkpt>
      <trkpt lat="42.255485" lon="2.350536">
        <ele>850</ele>
        <time>1970-01-01T02:19:50.000Z</time>
      </trkpt>
      <trkpt lat="42.255467" lon="2.350436">
        <ele>850</ele>
        <time>1970-01-01T02:19:51.000Z</time>
      </trkpt>
      <trkpt lat="42.255449" lon="2.350336">
        <ele>850</ele>
        <time>1970-01-01T02:19:52.000Z</time>
      </trkpt>
      <trkpt lat="42.255431" lon="2.350236">
        <ele>850</ele>
        <time>1970-01-01T02:19:53.000Z</time>
      </trkpt>
      <trkpt lat="42.255413" lon="2.350136">
        <ele>847</ele>
        <time>1970-01-01T02:19:54.000Z</time>
      </trkpt>
      <trkpt lat="42.255381" lon="2.350027">
        <ele>847</ele>
        <time>1970-01-01T02:19:55.000Z</time>
      </trkpt>
      <trkpt lat="42.255341" lon="2.349919">
        <ele>847</ele>
        <time>1970-01-01T02:19:56.000Z</time>
      </trkpt>
      <trkpt lat="42.255299" lon="2.349809">
        <ele>847</ele>
        <time>1970-01-01T02:19:57.000Z</time>
      </trkpt>
      <trkpt lat="42.255256" lon="2.349697">
        <ele>847</ele>
        <time>1970-01-01T02:19:58.000Z</time>
      </trkpt>
      <trkpt lat="42.255213" lon="2.349584">
        <ele>847</ele>
        <time>1970-01-01T02:19:59.000Z</time>
      </trkpt>
      <trkpt lat="42.255169" lon="2.34947">
        <ele>847</ele>
        <time>1970-01-01T02:20:00.000Z</time>
      </trkpt>
      <trkpt lat="42.255124" lon="2.349356">
        <ele>847</ele>
        <time>1970-01-01T02:20:01.000Z</time>
      </trkpt>
      <trkpt lat="42.255079" lon="2.349242">
        <ele>847</ele>
        <time>1970-01-01T02:20:02.000Z</time>
      </trkpt>
      <trkpt lat="42.255034" lon="2.349128">
        <ele>847</ele>
        <time>1970-01-01T02:20:03.000Z</time>
      </trkpt>
      <trkpt lat="42.254989" lon="2.349014">
        <ele>845</ele>
        <time>1970-01-01T02:20:04.000Z</time>
      </trkpt>
      <trkpt lat="42.254944" lon="2.3489">
        <ele>845</ele>
        <time>1970-01-01T02:20:05.000Z</time>
      </trkpt>
      <trkpt lat="42.2549" lon="2.348785">
        <ele>845</ele>
        <time>1970-01-01T02:20:06.000Z</time>
      </trkpt>
      <trkpt lat="42.254856" lon="2.348671">
        <ele>845</ele>
        <time>1970-01-01T02:20:07.000Z</time>
      </trkpt>
      <trkpt lat="42.25481" lon="2.348556">
        <ele>845</ele>
        <time>1970-01-01T02:20:08.000Z</time>
      </trkpt>
      <trkpt lat="42.254763" lon="2.348441">
        <ele>845</ele>
        <time>1970-01-01T02:20:09.000Z</time>
      </trkpt>
      <trkpt lat="42.254716" lon="2.348325">
        <ele>845</ele>
        <time>1970-01-01T02:20:10.000Z</time>
      </trkpt>
      <trkpt lat="42.254668" lon="2.348207">
        <ele>845</ele>
        <time>1970-01-01T02:20:11.000Z</time>
      </trkpt>
      <trkpt lat="42.254621" lon="2.348088">
        <ele>845</ele>
        <time>1970-01-01T02:20:12.000Z</time>
      </trkpt>
      <trkpt lat="42.254574" lon="2.347965">
        <ele>845</ele>
        <time>1970-01-01T02:20:13.000Z</time>
      </trkpt>
      <trkpt lat="42.254525" lon="2.347841">
        <ele>843</ele>
        <time>1970-01-01T02:20:14.000Z</time>
      </trkpt>
      <trkpt lat="42.254476" lon="2.347718">
        <ele>843</ele>
        <time>1970-01-01T02:20:15.000Z</time>
      </trkpt>
      <trkpt lat="42.254426" lon="2.347593">
        <ele>843</ele>
        <time>1970-01-01T02:20:16.000Z</time>
      </trkpt>
      <trkpt lat="42.254376" lon="2.347467">
        <ele>843</ele>
        <time>1970-01-01T02:20:17.000Z</time>
      </trkpt>
      <trkpt lat="42.254325" lon="2.34734">
        <ele>843</ele>
        <time>1970-01-01T02:20:18.000Z</time>
      </trkpt>
      <trkpt lat="42.254275" lon="2.347211">
        <ele>843</ele>
        <time>1970-01-01T02:20:19.000Z</time>
      </trkpt>
      <trkpt lat="42.254225" lon="2.347083">
        <ele>843</ele>
        <time>1970-01-01T02:20:20.000Z</time>
      </trkpt>
      <trkpt lat="42.254177" lon="2.346957">
        <ele>843</ele>
        <time>1970-01-01T02:20:21.000Z</time>
      </trkpt>
      <trkpt lat="42.254129" lon="2.346832">
        <ele>843</ele>
        <time>1970-01-01T02:20:22.000Z</time>
      </trkpt>
      <trkpt lat="42.25406" lon="2.34665">
        <ele>843</ele>
        <time>1970-01-01T02:20:23.000Z</time>
      </trkpt>
      <trkpt lat="42.254037" lon="2.34659">
        <ele>840</ele>
        <time>1970-01-01T02:20:24.000Z</time>
      </trkpt>
      <trkpt lat="42.253959" lon="2.346374">
        <ele>840</ele>
        <time>1970-01-01T02:20:25.000Z</time>
      </trkpt>
      <trkpt lat="42.253927" lon="2.346277">
        <ele>840</ele>
        <time>1970-01-01T02:20:26.000Z</time>
      </trkpt>
      <trkpt lat="42.253895" lon="2.34618">
        <ele>840</ele>
        <time>1970-01-01T02:20:27.000Z</time>
      </trkpt>
      <trkpt lat="42.253863" lon="2.346083">
        <ele>840</ele>
        <time>1970-01-01T02:20:28.000Z</time>
      </trkpt>
      <trkpt lat="42.253831" lon="2.345986">
        <ele>840</ele>
        <time>1970-01-01T02:20:29.000Z</time>
      </trkpt>
      <trkpt lat="42.253798" lon="2.345889">
        <ele>840</ele>
        <time>1970-01-01T02:20:30.000Z</time>
      </trkpt>
      <trkpt lat="42.253766" lon="2.345792">
        <ele>840</ele>
        <time>1970-01-01T02:20:31.000Z</time>
      </trkpt>
      <trkpt lat="42.253734" lon="2.345695">
        <ele>840</ele>
        <time>1970-01-01T02:20:32.000Z</time>
      </trkpt>
      <trkpt lat="42.253702" lon="2.345598">
        <ele>840</ele>
        <time>1970-01-01T02:20:33.000Z</time>
      </trkpt>
      <trkpt lat="42.25367" lon="2.345501">
        <ele>839</ele>
        <time>1970-01-01T02:20:34.000Z</time>
      </trkpt>
      <trkpt lat="42.253649" lon="2.3453">
        <ele>839</ele>
        <time>1970-01-01T02:20:35.000Z</time>
      </trkpt>
      <trkpt lat="42.253646" lon="2.345206">
        <ele>839</ele>
        <time>1970-01-01T02:20:36.000Z</time>
      </trkpt>
      <trkpt lat="42.253644" lon="2.345113">
        <ele>839</ele>
        <time>1970-01-01T02:20:37.000Z</time>
      </trkpt>
      <trkpt lat="42.253641" lon="2.345019">
        <ele>839</ele>
        <time>1970-01-01T02:20:38.000Z</time>
      </trkpt>
      <trkpt lat="42.253638" lon="2.344925">
        <ele>839</ele>
        <time>1970-01-01T02:20:39.000Z</time>
      </trkpt>
      <trkpt lat="42.253635" lon="2.344831">
        <ele>839</ele>
        <time>1970-01-01T02:20:40.000Z</time>
      </trkpt>
      <trkpt lat="42.253632" lon="2.344737">
        <ele>839</ele>
        <time>1970-01-01T02:20:41.000Z</time>
      </trkpt>
      <trkpt lat="42.25363" lon="2.344644">
        <ele>839</ele>
        <time>1970-01-01T02:20:42.000Z</time>
      </trkpt>
      <trkpt lat="42.253627" lon="2.34455">
        <ele>839</ele>
        <time>1970-01-01T02:20:43.000Z</time>
      </trkpt>
      <trkpt lat="42.253624" lon="2.344456">
        <ele>839</ele>
        <time>1970-01-01T02:20:44.000Z</time>
      </trkpt>
      <trkpt lat="42.253623" lon="2.344256">
        <ele>839</ele>
        <time>1970-01-01T02:20:45.000Z</time>
      </trkpt>
      <trkpt lat="42.253622" lon="2.34416">
        <ele>839</ele>
        <time>1970-01-01T02:20:46.000Z</time>
      </trkpt>
      <trkpt lat="42.253622" lon="2.344064">
        <ele>839</ele>
        <time>1970-01-01T02:20:47.000Z</time>
      </trkpt>
      <trkpt lat="42.253621" lon="2.343968">
        <ele>839</ele>
        <time>1970-01-01T02:20:48.000Z</time>
      </trkpt>
      <trkpt lat="42.253621" lon="2.343871">
        <ele>839</ele>
        <time>1970-01-01T02:20:49.000Z</time>
      </trkpt>
      <trkpt lat="42.253621" lon="2.343775">
        <ele>839</ele>
        <time>1970-01-01T02:20:50.000Z</time>
      </trkpt>
      <trkpt lat="42.25362" lon="2.343679">
        <ele>839</ele>
        <time>1970-01-01T02:20:51.000Z</time>
      </trkpt>
      <trkpt lat="42.25362" lon="2.343583">
        <ele>839</ele>
        <time>1970-01-01T02:20:52.000Z</time>
      </trkpt>
      <trkpt lat="42.253619" lon="2.343487">
        <ele>839</ele>
        <time>1970-01-01T02:20:53.000Z</time>
      </trkpt>
      <trkpt lat="42.253619" lon="2.343391">
        <ele>839</ele>
        <time>1970-01-01T02:20:54.000Z</time>
      </trkpt>
      <trkpt lat="42.253619" lon="2.343184">
        <ele>839</ele>
        <time>1970-01-01T02:20:55.000Z</time>
      </trkpt>
      <trkpt lat="42.253618" lon="2.343087">
        <ele>839</ele>
        <time>1970-01-01T02:20:56.000Z</time>
      </trkpt>
      <trkpt lat="42.253618" lon="2.342989">
        <ele>839</ele>
        <time>1970-01-01T02:20:57.000Z</time>
      </trkpt>
      <trkpt lat="42.253618" lon="2.342892">
        <ele>839</ele>
        <time>1970-01-01T02:20:58.000Z</time>
      </trkpt>
      <trkpt lat="42.253618" lon="2.342794">
        <ele>839</ele>
        <time>1970-01-01T02:20:59.000Z</time>
      </trkpt>
      <trkpt lat="42.253617" lon="2.342697">
        <ele>839</ele>
        <time>1970-01-01T02:21:00.000Z</time>
      </trkpt>
      <trkpt lat="42.253617" lon="2.342599">
        <ele>839</ele>
        <time>1970-01-01T02:21:01.000Z</time>
      </trkpt>
      <trkpt lat="42.253617" lon="2.342502">
        <ele>839</ele>
        <time>1970-01-01T02:21:02.000Z</time>
      </trkpt>
      <trkpt lat="42.253616" lon="2.342404">
        <ele>839</ele>
        <time>1970-01-01T02:21:03.000Z</time>
      </trkpt>
      <trkpt lat="42.253616" lon="2.342307">
        <ele>838</ele>
        <time>1970-01-01T02:21:04.000Z</time>
      </trkpt>
      <trkpt lat="42.253609" lon="2.342103">
        <ele>838</ele>
        <time>1970-01-01T02:21:05.000Z</time>
      </trkpt>
      <trkpt lat="42.253603" lon="2.342007">
        <ele>838</ele>
        <time>1970-01-01T02:21:06.000Z</time>
      </trkpt>
      <trkpt lat="42.253596" lon="2.341912">
        <ele>838</ele>
        <time>1970-01-01T02:21:07.000Z</time>
      </trkpt>
      <trkpt lat="42.25359" lon="2.341817">
        <ele>838</ele>
        <time>1970-01-01T02:21:08.000Z</time>
      </trkpt>
      <trkpt lat="42.253583" lon="2.341721">
        <ele>838</ele>
        <time>1970-01-01T02:21:09.000Z</time>
      </trkpt>
      <trkpt lat="42.253576" lon="2.341626">
        <ele>838</ele>
        <time>1970-01-01T02:21:10.000Z</time>
      </trkpt>
      <trkpt lat="42.25357" lon="2.341531">
        <ele>838</ele>
        <time>1970-01-01T02:21:11.000Z</time>
      </trkpt>
      <trkpt lat="42.253563" lon="2.341436">
        <ele>838</ele>
        <time>1970-01-01T02:21:12.000Z</time>
      </trkpt>
      <trkpt lat="42.253557" lon="2.34134">
        <ele>838</ele>
        <time>1970-01-01T02:21:13.000Z</time>
      </trkpt>
      <trkpt lat="42.25355" lon="2.341245">
        <ele>838</ele>
        <time>1970-01-01T02:21:14.000Z</time>
      </trkpt>
      <trkpt lat="42.253519" lon="2.341042">
        <ele>838</ele>
        <time>1970-01-01T02:21:15.000Z</time>
      </trkpt>
      <trkpt lat="42.253504" lon="2.340945">
        <ele>838</ele>
        <time>1970-01-01T02:21:16.000Z</time>
      </trkpt>
      <trkpt lat="42.253488" lon="2.340848">
        <ele>838</ele>
        <time>1970-01-01T02:21:17.000Z</time>
      </trkpt>
      <trkpt lat="42.253472" lon="2.340751">
        <ele>838</ele>
        <time>1970-01-01T02:21:18.000Z</time>
      </trkpt>
      <trkpt lat="42.253457" lon="2.340654">
        <ele>838</ele>
        <time>1970-01-01T02:21:19.000Z</time>
      </trkpt>
      <trkpt lat="42.253441" lon="2.340558">
        <ele>838</ele>
        <time>1970-01-01T02:21:20.000Z</time>
      </trkpt>
      <trkpt lat="42.253425" lon="2.340461">
        <ele>838</ele>
        <time>1970-01-01T02:21:21.000Z</time>
      </trkpt>
      <trkpt lat="42.253409" lon="2.340364">
        <ele>838</ele>
        <time>1970-01-01T02:21:22.000Z</time>
      </trkpt>
      <trkpt lat="42.253394" lon="2.340267">
        <ele>838</ele>
        <time>1970-01-01T02:21:23.000Z</time>
      </trkpt>
      <trkpt lat="42.253378" lon="2.34017">
        <ele>837</ele>
        <time>1970-01-01T02:21:24.000Z</time>
      </trkpt>
      <trkpt lat="42.253337" lon="2.339969">
        <ele>837</ele>
        <time>1970-01-01T02:21:25.000Z</time>
      </trkpt>
      <trkpt lat="42.253313" lon="2.339877">
        <ele>837</ele>
        <time>1970-01-01T02:21:26.000Z</time>
      </trkpt>
      <trkpt lat="42.25329" lon="2.339785">
        <ele>837</ele>
        <time>1970-01-01T02:21:27.000Z</time>
      </trkpt>
      <trkpt lat="42.253266" lon="2.339693">
        <ele>837</ele>
        <time>1970-01-01T02:21:28.000Z</time>
      </trkpt>
      <trkpt lat="42.253243" lon="2.3396">
        <ele>837</ele>
        <time>1970-01-01T02:21:29.000Z</time>
      </trkpt>
      <trkpt lat="42.25322" lon="2.339508">
        <ele>837</ele>
        <time>1970-01-01T02:21:30.000Z</time>
      </trkpt>
      <trkpt lat="42.253196" lon="2.339416">
        <ele>837</ele>
        <time>1970-01-01T02:21:31.000Z</time>
      </trkpt>
      <trkpt lat="42.253173" lon="2.339324">
        <ele>837</ele>
        <time>1970-01-01T02:21:32.000Z</time>
      </trkpt>
      <trkpt lat="42.253149" lon="2.339232">
        <ele>837</ele>
        <time>1970-01-01T02:21:33.000Z</time>
      </trkpt>
      <trkpt lat="42.253126" lon="2.33914">
        <ele>836</ele>
        <time>1970-01-01T02:21:34.000Z</time>
      </trkpt>
      <trkpt lat="42.253046" lon="2.338957">
        <ele>836</ele>
        <time>1970-01-01T02:21:35.000Z</time>
      </trkpt>
      <trkpt lat="42.253006" lon="2.33887">
        <ele>836</ele>
        <time>1970-01-01T02:21:36.000Z</time>
      </trkpt>
      <trkpt lat="42.252967" lon="2.338782">
        <ele>836</ele>
        <time>1970-01-01T02:21:37.000Z</time>
      </trkpt>
      <trkpt lat="42.252927" lon="2.338695">
        <ele>836</ele>
        <time>1970-01-01T02:21:38.000Z</time>
      </trkpt>
      <trkpt lat="42.252888" lon="2.338607">
        <ele>836</ele>
        <time>1970-01-01T02:21:39.000Z</time>
      </trkpt>
      <trkpt lat="42.252849" lon="2.338519">
        <ele>836</ele>
        <time>1970-01-01T02:21:40.000Z</time>
      </trkpt>
      <trkpt lat="42.252809" lon="2.338432">
        <ele>836</ele>
        <time>1970-01-01T02:21:41.000Z</time>
      </trkpt>
      <trkpt lat="42.25277" lon="2.338344">
        <ele>836</ele>
        <time>1970-01-01T02:21:42.000Z</time>
      </trkpt>
      <trkpt lat="42.25273" lon="2.338257">
        <ele>836</ele>
        <time>1970-01-01T02:21:43.000Z</time>
      </trkpt>
      <trkpt lat="42.252691" lon="2.338169">
        <ele>836</ele>
        <time>1970-01-01T02:21:44.000Z</time>
      </trkpt>
      <trkpt lat="42.252603" lon="2.33798">
        <ele>836</ele>
        <time>1970-01-01T02:21:45.000Z</time>
      </trkpt>
      <trkpt lat="42.252561" lon="2.33789">
        <ele>836</ele>
        <time>1970-01-01T02:21:46.000Z</time>
      </trkpt>
      <trkpt lat="42.252518" lon="2.337799">
        <ele>836</ele>
        <time>1970-01-01T02:21:47.000Z</time>
      </trkpt>
      <trkpt lat="42.252476" lon="2.337709">
        <ele>836</ele>
        <time>1970-01-01T02:21:48.000Z</time>
      </trkpt>
      <trkpt lat="42.252434" lon="2.337618">
        <ele>836</ele>
        <time>1970-01-01T02:21:49.000Z</time>
      </trkpt>
      <trkpt lat="42.252392" lon="2.337528">
        <ele>836</ele>
        <time>1970-01-01T02:21:50.000Z</time>
      </trkpt>
      <trkpt lat="42.25235" lon="2.337437">
        <ele>836</ele>
        <time>1970-01-01T02:21:51.000Z</time>
      </trkpt>
      <trkpt lat="42.252307" lon="2.337347">
        <ele>836</ele>
        <time>1970-01-01T02:21:52.000Z</time>
      </trkpt>
      <trkpt lat="42.252265" lon="2.337256">
        <ele>836</ele>
        <time>1970-01-01T02:21:53.000Z</time>
      </trkpt>
      <trkpt lat="42.252223" lon="2.337166">
        <ele>834</ele>
        <time>1970-01-01T02:21:54.000Z</time>
      </trkpt>
      <trkpt lat="42.252135" lon="2.33698">
        <ele>834</ele>
        <time>1970-01-01T02:21:55.000Z</time>
      </trkpt>
      <trkpt lat="42.252095" lon="2.336893">
        <ele>834</ele>
        <time>1970-01-01T02:21:56.000Z</time>
      </trkpt>
      <trkpt lat="42.252055" lon="2.336807">
        <ele>834</ele>
        <time>1970-01-01T02:21:57.000Z</time>
      </trkpt>
      <trkpt lat="42.252015" lon="2.33672">
        <ele>834</ele>
        <time>1970-01-01T02:21:58.000Z</time>
      </trkpt>
      <trkpt lat="42.251975" lon="2.336633">
        <ele>834</ele>
        <time>1970-01-01T02:21:59.000Z</time>
      </trkpt>
      <trkpt lat="42.251935" lon="2.336546">
        <ele>834</ele>
        <time>1970-01-01T02:22:00.000Z</time>
      </trkpt>
      <trkpt lat="42.251895" lon="2.336459">
        <ele>834</ele>
        <time>1970-01-01T02:22:01.000Z</time>
      </trkpt>
      <trkpt lat="42.251855" lon="2.336373">
        <ele>834</ele>
        <time>1970-01-01T02:22:02.000Z</time>
      </trkpt>
      <trkpt lat="42.251815" lon="2.336286">
        <ele>834</ele>
        <time>1970-01-01T02:22:03.000Z</time>
      </trkpt>
      <trkpt lat="42.251775" lon="2.336199">
        <ele>831</ele>
        <time>1970-01-01T02:22:04.000Z</time>
      </trkpt>
      <trkpt lat="42.251694" lon="2.336024">
        <ele>831</ele>
        <time>1970-01-01T02:22:05.000Z</time>
      </trkpt>
      <trkpt lat="42.251657" lon="2.335942">
        <ele>831</ele>
        <time>1970-01-01T02:22:06.000Z</time>
      </trkpt>
      <trkpt lat="42.251619" lon="2.33586">
        <ele>831</ele>
        <time>1970-01-01T02:22:07.000Z</time>
      </trkpt>
      <trkpt lat="42.251582" lon="2.335778">
        <ele>831</ele>
        <time>1970-01-01T02:22:08.000Z</time>
      </trkpt>
      <trkpt lat="42.251544" lon="2.335695">
        <ele>831</ele>
        <time>1970-01-01T02:22:09.000Z</time>
      </trkpt>
      <trkpt lat="42.251506" lon="2.335613">
        <ele>831</ele>
        <time>1970-01-01T02:22:10.000Z</time>
      </trkpt>
      <trkpt lat="42.251469" lon="2.335531">
        <ele>831</ele>
        <time>1970-01-01T02:22:11.000Z</time>
      </trkpt>
      <trkpt lat="42.251431" lon="2.335449">
        <ele>831</ele>
        <time>1970-01-01T02:22:12.000Z</time>
      </trkpt>
      <trkpt lat="42.251394" lon="2.335367">
        <ele>831</ele>
        <time>1970-01-01T02:22:13.000Z</time>
      </trkpt>
      <trkpt lat="42.251356" lon="2.335285">
        <ele>830</ele>
        <time>1970-01-01T02:22:14.000Z</time>
      </trkpt>
      <trkpt lat="42.251277" lon="2.335112">
        <ele>830</ele>
        <time>1970-01-01T02:22:15.000Z</time>
      </trkpt>
      <trkpt lat="42.25124" lon="2.33503">
        <ele>830</ele>
        <time>1970-01-01T02:22:16.000Z</time>
      </trkpt>
      <trkpt lat="42.251203" lon="2.334949">
        <ele>830</ele>
        <time>1970-01-01T02:22:17.000Z</time>
      </trkpt>
      <trkpt lat="42.251166" lon="2.334867">
        <ele>830</ele>
        <time>1970-01-01T02:22:18.000Z</time>
      </trkpt>
      <trkpt lat="42.251129" lon="2.334785">
        <ele>830</ele>
        <time>1970-01-01T02:22:19.000Z</time>
      </trkpt>
      <trkpt lat="42.251091" lon="2.334703">
        <ele>830</ele>
        <time>1970-01-01T02:22:20.000Z</time>
      </trkpt>
      <trkpt lat="42.251054" lon="2.334621">
        <ele>830</ele>
        <time>1970-01-01T02:22:21.000Z</time>
      </trkpt>
      <trkpt lat="42.251017" lon="2.33454">
        <ele>830</ele>
        <time>1970-01-01T02:22:22.000Z</time>
      </trkpt>
      <trkpt lat="42.25098" lon="2.334458">
        <ele>830</ele>
        <time>1970-01-01T02:22:23.000Z</time>
      </trkpt>
      <trkpt lat="42.250943" lon="2.334376">
        <ele>828</ele>
        <time>1970-01-01T02:22:24.000Z</time>
      </trkpt>
      <trkpt lat="42.250864" lon="2.3342">
        <ele>828</ele>
        <time>1970-01-01T02:22:25.000Z</time>
      </trkpt>
      <trkpt lat="42.250825" lon="2.334115">
        <ele>828</ele>
        <time>1970-01-01T02:22:26.000Z</time>
      </trkpt>
      <trkpt lat="42.250787" lon="2.33403">
        <ele>828</ele>
        <time>1970-01-01T02:22:27.000Z</time>
      </trkpt>
      <trkpt lat="42.250748" lon="2.333945">
        <ele>828</ele>
        <time>1970-01-01T02:22:28.000Z</time>
      </trkpt>
      <trkpt lat="42.25071" lon="2.33386">
        <ele>828</ele>
        <time>1970-01-01T02:22:29.000Z</time>
      </trkpt>
      <trkpt lat="42.250671" lon="2.333775">
        <ele>828</ele>
        <time>1970-01-01T02:22:30.000Z</time>
      </trkpt>
      <trkpt lat="42.250633" lon="2.33369">
        <ele>828</ele>
        <time>1970-01-01T02:22:31.000Z</time>
      </trkpt>
      <trkpt lat="42.250594" lon="2.333605">
        <ele>828</ele>
        <time>1970-01-01T02:22:32.000Z</time>
      </trkpt>
      <trkpt lat="42.250556" lon="2.33352">
        <ele>828</ele>
        <time>1970-01-01T02:22:33.000Z</time>
      </trkpt>
      <trkpt lat="42.250517" lon="2.333435">
        <ele>827</ele>
        <time>1970-01-01T02:22:34.000Z</time>
      </trkpt>
      <trkpt lat="42.250429" lon="2.333252">
        <ele>827</ele>
        <time>1970-01-01T02:22:35.000Z</time>
      </trkpt>
      <trkpt lat="42.250386" lon="2.333167">
        <ele>827</ele>
        <time>1970-01-01T02:22:36.000Z</time>
      </trkpt>
      <trkpt lat="42.250342" lon="2.333082">
        <ele>827</ele>
        <time>1970-01-01T02:22:37.000Z</time>
      </trkpt>
      <trkpt lat="42.250299" lon="2.332997">
        <ele>827</ele>
        <time>1970-01-01T02:22:38.000Z</time>
      </trkpt>
      <trkpt lat="42.250256" lon="2.332912">
        <ele>827</ele>
        <time>1970-01-01T02:22:39.000Z</time>
      </trkpt>
      <trkpt lat="42.250213" lon="2.332828">
        <ele>827</ele>
        <time>1970-01-01T02:22:40.000Z</time>
      </trkpt>
      <trkpt lat="42.25017" lon="2.332743">
        <ele>827</ele>
        <time>1970-01-01T02:22:41.000Z</time>
      </trkpt>
      <trkpt lat="42.250126" lon="2.332658">
        <ele>827</ele>
        <time>1970-01-01T02:22:42.000Z</time>
      </trkpt>
      <trkpt lat="42.250083" lon="2.332573">
        <ele>827</ele>
        <time>1970-01-01T02:22:43.000Z</time>
      </trkpt>
      <trkpt lat="42.25004" lon="2.332488">
        <ele>827</ele>
        <time>1970-01-01T02:22:44.000Z</time>
      </trkpt>
      <trkpt lat="42.249928" lon="2.332336">
        <ele>827</ele>
        <time>1970-01-01T02:22:45.000Z</time>
      </trkpt>
      <trkpt lat="42.249872" lon="2.332268">
        <ele>827</ele>
        <time>1970-01-01T02:22:46.000Z</time>
      </trkpt>
      <trkpt lat="42.249815" lon="2.332201">
        <ele>827</ele>
        <time>1970-01-01T02:22:47.000Z</time>
      </trkpt>
      <trkpt lat="42.249759" lon="2.332133">
        <ele>827</ele>
        <time>1970-01-01T02:22:48.000Z</time>
      </trkpt>
      <trkpt lat="42.249703" lon="2.332065">
        <ele>827</ele>
        <time>1970-01-01T02:22:49.000Z</time>
      </trkpt>
      <trkpt lat="42.249647" lon="2.331997">
        <ele>827</ele>
        <time>1970-01-01T02:22:50.000Z</time>
      </trkpt>
      <trkpt lat="42.249591" lon="2.331929">
        <ele>827</ele>
        <time>1970-01-01T02:22:51.000Z</time>
      </trkpt>
      <trkpt lat="42.249534" lon="2.331862">
        <ele>827</ele>
        <time>1970-01-01T02:22:52.000Z</time>
      </trkpt>
      <trkpt lat="42.249478" lon="2.331794">
        <ele>827</ele>
        <time>1970-01-01T02:22:53.000Z</time>
      </trkpt>
      <trkpt lat="42.249422" lon="2.331726">
        <ele>825</ele>
        <time>1970-01-01T02:22:54.000Z</time>
      </trkpt>
      <trkpt lat="42.2493" lon="2.331584">
        <ele>825</ele>
        <time>1970-01-01T02:22:55.000Z</time>
      </trkpt>
      <trkpt lat="42.249243" lon="2.331518">
        <ele>825</ele>
        <time>1970-01-01T02:22:56.000Z</time>
      </trkpt>
      <trkpt lat="42.249187" lon="2.331451">
        <ele>825</ele>
        <time>1970-01-01T02:22:57.000Z</time>
      </trkpt>
      <trkpt lat="42.24913" lon="2.331384">
        <ele>825</ele>
        <time>1970-01-01T02:22:58.000Z</time>
      </trkpt>
      <trkpt lat="42.249073" lon="2.331317">
        <ele>825</ele>
        <time>1970-01-01T02:22:59.000Z</time>
      </trkpt>
      <trkpt lat="42.249016" lon="2.331251">
        <ele>825</ele>
        <time>1970-01-01T02:23:00.000Z</time>
      </trkpt>
      <trkpt lat="42.248959" lon="2.331184">
        <ele>825</ele>
        <time>1970-01-01T02:23:01.000Z</time>
      </trkpt>
      <trkpt lat="42.248903" lon="2.331117">
        <ele>825</ele>
        <time>1970-01-01T02:23:02.000Z</time>
      </trkpt>
      <trkpt lat="42.248846" lon="2.331051">
        <ele>825</ele>
        <time>1970-01-01T02:23:03.000Z</time>
      </trkpt>
      <trkpt lat="42.248789" lon="2.330984">
        <ele>824</ele>
        <time>1970-01-01T02:23:04.000Z</time>
      </trkpt>
      <trkpt lat="42.248697" lon="2.330825">
        <ele>824</ele>
        <time>1970-01-01T02:23:05.000Z</time>
      </trkpt>
      <trkpt lat="42.248666" lon="2.33074">
        <ele>824</ele>
        <time>1970-01-01T02:23:06.000Z</time>
      </trkpt>
      <trkpt lat="42.248634" lon="2.330655">
        <ele>824</ele>
        <time>1970-01-01T02:23:07.000Z</time>
      </trkpt>
      <trkpt lat="42.248602" lon="2.33057">
        <ele>824</ele>
        <time>1970-01-01T02:23:08.000Z</time>
      </trkpt>
      <trkpt lat="42.248571" lon="2.330485">
        <ele>824</ele>
        <time>1970-01-01T02:23:09.000Z</time>
      </trkpt>
      <trkpt lat="42.248539" lon="2.330401">
        <ele>824</ele>
        <time>1970-01-01T02:23:10.000Z</time>
      </trkpt>
      <trkpt lat="42.248507" lon="2.330316">
        <ele>824</ele>
        <time>1970-01-01T02:23:11.000Z</time>
      </trkpt>
      <trkpt lat="42.248475" lon="2.330231">
        <ele>824</ele>
        <time>1970-01-01T02:23:12.000Z</time>
      </trkpt>
      <trkpt lat="42.248444" lon="2.330146">
        <ele>824</ele>
        <time>1970-01-01T02:23:13.000Z</time>
      </trkpt>
      <trkpt lat="42.248412" lon="2.330061">
        <ele>823</ele>
        <time>1970-01-01T02:23:14.000Z</time>
      </trkpt>
      <trkpt lat="42.248341" lon="2.329889">
        <ele>823</ele>
        <time>1970-01-01T02:23:15.000Z</time>
      </trkpt>
      <trkpt lat="42.2483" lon="2.329812">
        <ele>823</ele>
        <time>1970-01-01T02:23:16.000Z</time>
      </trkpt>
      <trkpt lat="42.24826" lon="2.329736">
        <ele>823</ele>
        <time>1970-01-01T02:23:17.000Z</time>
      </trkpt>
      <trkpt lat="42.24822" lon="2.329659">
        <ele>823</ele>
        <time>1970-01-01T02:23:18.000Z</time>
      </trkpt>
      <trkpt lat="42.24818" lon="2.329583">
        <ele>823</ele>
        <time>1970-01-01T02:23:19.000Z</time>
      </trkpt>
      <trkpt lat="42.248139" lon="2.329507">
        <ele>823</ele>
        <time>1970-01-01T02:23:20.000Z</time>
      </trkpt>
      <trkpt lat="42.248099" lon="2.32943">
        <ele>823</ele>
        <time>1970-01-01T02:23:21.000Z</time>
      </trkpt>
      <trkpt lat="42.248059" lon="2.329354">
        <ele>823</ele>
        <time>1970-01-01T02:23:22.000Z</time>
      </trkpt>
      <trkpt lat="42.248018" lon="2.329277">
        <ele>823</ele>
        <time>1970-01-01T02:23:23.000Z</time>
      </trkpt>
      <trkpt lat="42.247978" lon="2.329201">
        <ele>822</ele>
        <time>1970-01-01T02:23:24.000Z</time>
      </trkpt>
      <trkpt lat="42.247875" lon="2.329064">
        <ele>822</ele>
        <time>1970-01-01T02:23:25.000Z</time>
      </trkpt>
      <trkpt lat="42.247826" lon="2.329002">
        <ele>822</ele>
        <time>1970-01-01T02:23:26.000Z</time>
      </trkpt>
      <trkpt lat="42.247777" lon="2.328939">
        <ele>822</ele>
        <time>1970-01-01T02:23:27.000Z</time>
      </trkpt>
      <trkpt lat="42.247728" lon="2.328877">
        <ele>822</ele>
        <time>1970-01-01T02:23:28.000Z</time>
      </trkpt>
      <trkpt lat="42.247679" lon="2.328814">
        <ele>822</ele>
        <time>1970-01-01T02:23:29.000Z</time>
      </trkpt>
      <trkpt lat="42.247629" lon="2.328752">
        <ele>822</ele>
        <time>1970-01-01T02:23:30.000Z</time>
      </trkpt>
      <trkpt lat="42.24758" lon="2.328689">
        <ele>822</ele>
        <time>1970-01-01T02:23:31.000Z</time>
      </trkpt>
      <trkpt lat="42.247531" lon="2.328627">
        <ele>822</ele>
        <time>1970-01-01T02:23:32.000Z</time>
      </trkpt>
      <trkpt lat="42.247482" lon="2.328564">
        <ele>822</ele>
        <time>1970-01-01T02:23:33.000Z</time>
      </trkpt>
      <trkpt lat="42.247433" lon="2.328502">
        <ele>822</ele>
        <time>1970-01-01T02:23:34.000Z</time>
      </trkpt>
      <trkpt lat="42.247336" lon="2.328379">
        <ele>822</ele>
        <time>1970-01-01T02:23:35.000Z</time>
      </trkpt>
      <trkpt lat="42.247291" lon="2.328319">
        <ele>822</ele>
        <time>1970-01-01T02:23:36.000Z</time>
      </trkpt>
      <trkpt lat="42.247247" lon="2.32826">
        <ele>822</ele>
        <time>1970-01-01T02:23:37.000Z</time>
      </trkpt>
      <trkpt lat="42.247202" lon="2.3282">
        <ele>822</ele>
        <time>1970-01-01T02:23:38.000Z</time>
      </trkpt>
      <trkpt lat="42.247157" lon="2.328141">
        <ele>822</ele>
        <time>1970-01-01T02:23:39.000Z</time>
      </trkpt>
      <trkpt lat="42.247112" lon="2.328082">
        <ele>822</ele>
        <time>1970-01-01T02:23:40.000Z</time>
      </trkpt>
      <trkpt lat="42.247067" lon="2.328022">
        <ele>822</ele>
        <time>1970-01-01T02:23:41.000Z</time>
      </trkpt>
      <trkpt lat="42.247023" lon="2.327963">
        <ele>822</ele>
        <time>1970-01-01T02:23:42.000Z</time>
      </trkpt>
      <trkpt lat="42.246978" lon="2.327903">
        <ele>822</ele>
        <time>1970-01-01T02:23:43.000Z</time>
      </trkpt>
      <trkpt lat="42.246933" lon="2.327844">
        <ele>822</ele>
        <time>1970-01-01T02:23:44.000Z</time>
      </trkpt>
      <trkpt lat="42.246859" lon="2.327696">
        <ele>822</ele>
        <time>1970-01-01T02:23:45.000Z</time>
      </trkpt>
      <trkpt lat="42.246829" lon="2.327623">
        <ele>822</ele>
        <time>1970-01-01T02:23:46.000Z</time>
      </trkpt>
      <trkpt lat="42.2468" lon="2.327549">
        <ele>822</ele>
        <time>1970-01-01T02:23:47.000Z</time>
      </trkpt>
      <trkpt lat="42.246771" lon="2.327476">
        <ele>822</ele>
        <time>1970-01-01T02:23:48.000Z</time>
      </trkpt>
      <trkpt lat="42.246742" lon="2.327402">
        <ele>822</ele>
        <time>1970-01-01T02:23:49.000Z</time>
      </trkpt>
      <trkpt lat="42.246712" lon="2.327329">
        <ele>822</ele>
        <time>1970-01-01T02:23:50.000Z</time>
      </trkpt>
      <trkpt lat="42.246683" lon="2.327255">
        <ele>822</ele>
        <time>1970-01-01T02:23:51.000Z</time>
      </trkpt>
      <trkpt lat="42.246654" lon="2.327182">
        <ele>822</ele>
        <time>1970-01-01T02:23:52.000Z</time>
      </trkpt>
      <trkpt lat="42.246624" lon="2.327108">
        <ele>822</ele>
        <time>1970-01-01T02:23:53.000Z</time>
      </trkpt>
      <trkpt lat="42.246595" lon="2.327035">
        <ele>821</ele>
        <time>1970-01-01T02:23:54.000Z</time>
      </trkpt>
      <trkpt lat="42.246572" lon="2.326886">
        <ele>821</ele>
        <time>1970-01-01T02:23:55.000Z</time>
      </trkpt>
      <trkpt lat="42.246569" lon="2.326816">
        <ele>821</ele>
        <time>1970-01-01T02:23:56.000Z</time>
      </trkpt>
      <trkpt lat="42.246567" lon="2.326746">
        <ele>821</ele>
        <time>1970-01-01T02:23:57.000Z</time>
      </trkpt>
      <trkpt lat="42.246565" lon="2.326676">
        <ele>821</ele>
        <time>1970-01-01T02:23:58.000Z</time>
      </trkpt>
      <trkpt lat="42.246563" lon="2.326605">
        <ele>821</ele>
        <time>1970-01-01T02:23:59.000Z</time>
      </trkpt>
      <trkpt lat="42.24656" lon="2.326535">
        <ele>821</ele>
        <time>1970-01-01T02:24:00.000Z</time>
      </trkpt>
      <trkpt lat="42.246558" lon="2.326465">
        <ele>821</ele>
        <time>1970-01-01T02:24:01.000Z</time>
      </trkpt>
      <trkpt lat="42.246556" lon="2.326395">
        <ele>821</ele>
        <time>1970-01-01T02:24:02.000Z</time>
      </trkpt>
      <trkpt lat="42.246553" lon="2.326325">
        <ele>821</ele>
        <time>1970-01-01T02:24:03.000Z</time>
      </trkpt>
      <trkpt lat="42.246551" lon="2.326255">
        <ele>820</ele>
        <time>1970-01-01T02:24:04.000Z</time>
      </trkpt>
      <trkpt lat="42.246483" lon="2.326137">
        <ele>820</ele>
        <time>1970-01-01T02:24:05.000Z</time>
      </trkpt>
      <trkpt lat="42.24645" lon="2.326087">
        <ele>820</ele>
        <time>1970-01-01T02:24:06.000Z</time>
      </trkpt>
      <trkpt lat="42.246417" lon="2.326036">
        <ele>820</ele>
        <time>1970-01-01T02:24:07.000Z</time>
      </trkpt>
      <trkpt lat="42.246384" lon="2.325986">
        <ele>820</ele>
        <time>1970-01-01T02:24:08.000Z</time>
      </trkpt>
      <trkpt lat="42.246351" lon="2.325935">
        <ele>820</ele>
        <time>1970-01-01T02:24:09.000Z</time>
      </trkpt>
      <trkpt lat="42.246318" lon="2.325885">
        <ele>820</ele>
        <time>1970-01-01T02:24:10.000Z</time>
      </trkpt>
      <trkpt lat="42.246285" lon="2.325834">
        <ele>820</ele>
        <time>1970-01-01T02:24:11.000Z</time>
      </trkpt>
      <trkpt lat="42.246252" lon="2.325784">
        <ele>820</ele>
        <time>1970-01-01T02:24:12.000Z</time>
      </trkpt>
      <trkpt lat="42.246219" lon="2.325733">
        <ele>820</ele>
        <time>1970-01-01T02:24:13.000Z</time>
      </trkpt>
      <trkpt lat="42.246186" lon="2.325683">
        <ele>820</ele>
        <time>1970-01-01T02:24:14.000Z</time>
      </trkpt>
      <trkpt lat="42.24615" lon="2.325547">
        <ele>820</ele>
        <time>1970-01-01T02:24:15.000Z</time>
      </trkpt>
      <trkpt lat="42.24613" lon="2.325483">
        <ele>820</ele>
        <time>1970-01-01T02:24:16.000Z</time>
      </trkpt>
      <trkpt lat="42.24611" lon="2.325418">
        <ele>820</ele>
        <time>1970-01-01T02:24:17.000Z</time>
      </trkpt>
      <trkpt lat="42.24609" lon="2.325354">
        <ele>820</ele>
        <time>1970-01-01T02:24:18.000Z</time>
      </trkpt>
      <trkpt lat="42.24607" lon="2.325289">
        <ele>820</ele>
        <time>1970-01-01T02:24:19.000Z</time>
      </trkpt>
      <trkpt lat="42.246049" lon="2.325224">
        <ele>820</ele>
        <time>1970-01-01T02:24:20.000Z</time>
      </trkpt>
      <trkpt lat="42.246029" lon="2.32516">
        <ele>820</ele>
        <time>1970-01-01T02:24:21.000Z</time>
      </trkpt>
      <trkpt lat="42.246009" lon="2.325095">
        <ele>820</ele>
        <time>1970-01-01T02:24:22.000Z</time>
      </trkpt>
      <trkpt lat="42.245989" lon="2.325031">
        <ele>820</ele>
        <time>1970-01-01T02:24:23.000Z</time>
      </trkpt>
      <trkpt lat="42.245969" lon="2.324966">
        <ele>820</ele>
        <time>1970-01-01T02:24:24.000Z</time>
      </trkpt>
      <trkpt lat="42.245924" lon="2.324822">
        <ele>820</ele>
        <time>1970-01-01T02:24:25.000Z</time>
      </trkpt>
      <trkpt lat="42.245902" lon="2.324752">
        <ele>820</ele>
        <time>1970-01-01T02:24:26.000Z</time>
      </trkpt>
      <trkpt lat="42.24588" lon="2.324682">
        <ele>820</ele>
        <time>1970-01-01T02:24:27.000Z</time>
      </trkpt>
      <trkpt lat="42.245858" lon="2.324612">
        <ele>820</ele>
        <time>1970-01-01T02:24:28.000Z</time>
      </trkpt>
      <trkpt lat="42.245836" lon="2.324542">
        <ele>820</ele>
        <time>1970-01-01T02:24:29.000Z</time>
      </trkpt>
      <trkpt lat="42.245813" lon="2.324472">
        <ele>820</ele>
        <time>1970-01-01T02:24:30.000Z</time>
      </trkpt>
      <trkpt lat="42.245791" lon="2.324402">
        <ele>820</ele>
        <time>1970-01-01T02:24:31.000Z</time>
      </trkpt>
      <trkpt lat="42.245769" lon="2.324332">
        <ele>820</ele>
        <time>1970-01-01T02:24:32.000Z</time>
      </trkpt>
      <trkpt lat="42.245747" lon="2.324262">
        <ele>820</ele>
        <time>1970-01-01T02:24:33.000Z</time>
      </trkpt>
      <trkpt lat="42.245725" lon="2.324192">
        <ele>819</ele>
        <time>1970-01-01T02:24:34.000Z</time>
      </trkpt>
      <trkpt lat="42.245679" lon="2.324043">
        <ele>819</ele>
        <time>1970-01-01T02:24:35.000Z</time>
      </trkpt>
      <trkpt lat="42.245657" lon="2.323973">
        <ele>819</ele>
        <time>1970-01-01T02:24:36.000Z</time>
      </trkpt>
      <trkpt lat="42.245636" lon="2.323903">
        <ele>819</ele>
        <time>1970-01-01T02:24:37.000Z</time>
      </trkpt>
      <trkpt lat="42.245615" lon="2.323833">
        <ele>819</ele>
        <time>1970-01-01T02:24:38.000Z</time>
      </trkpt>
      <trkpt lat="42.245594" lon="2.323763">
        <ele>819</ele>
        <time>1970-01-01T02:24:39.000Z</time>
      </trkpt>
      <trkpt lat="42.245572" lon="2.323693">
        <ele>819</ele>
        <time>1970-01-01T02:24:40.000Z</time>
      </trkpt>
      <trkpt lat="42.245551" lon="2.323623">
        <ele>819</ele>
        <time>1970-01-01T02:24:41.000Z</time>
      </trkpt>
      <trkpt lat="42.24553" lon="2.323553">
        <ele>819</ele>
        <time>1970-01-01T02:24:42.000Z</time>
      </trkpt>
      <trkpt lat="42.245508" lon="2.323483">
        <ele>819</ele>
        <time>1970-01-01T02:24:43.000Z</time>
      </trkpt>
      <trkpt lat="42.245487" lon="2.323413">
        <ele>820</ele>
        <time>1970-01-01T02:24:44.000Z</time>
      </trkpt>
      <trkpt lat="42.245453" lon="2.323262">
        <ele>820</ele>
        <time>1970-01-01T02:24:45.000Z</time>
      </trkpt>
      <trkpt lat="42.24544" lon="2.32319">
        <ele>820</ele>
        <time>1970-01-01T02:24:46.000Z</time>
      </trkpt>
      <trkpt lat="42.245427" lon="2.323117">
        <ele>820</ele>
        <time>1970-01-01T02:24:47.000Z</time>
      </trkpt>
      <trkpt lat="42.245414" lon="2.323045">
        <ele>820</ele>
        <time>1970-01-01T02:24:48.000Z</time>
      </trkpt>
      <trkpt lat="42.245402" lon="2.322973">
        <ele>820</ele>
        <time>1970-01-01T02:24:49.000Z</time>
      </trkpt>
      <trkpt lat="42.245389" lon="2.322901">
        <ele>820</ele>
        <time>1970-01-01T02:24:50.000Z</time>
      </trkpt>
      <trkpt lat="42.245376" lon="2.322829">
        <ele>820</ele>
        <time>1970-01-01T02:24:51.000Z</time>
      </trkpt>
      <trkpt lat="42.245363" lon="2.322756">
        <ele>820</ele>
        <time>1970-01-01T02:24:52.000Z</time>
      </trkpt>
      <trkpt lat="42.24535" lon="2.322684">
        <ele>820</ele>
        <time>1970-01-01T02:24:53.000Z</time>
      </trkpt>
      <trkpt lat="42.245337" lon="2.322612">
        <ele>819</ele>
        <time>1970-01-01T02:24:54.000Z</time>
      </trkpt>
      <trkpt lat="42.245333" lon="2.322457">
        <ele>819</ele>
        <time>1970-01-01T02:24:55.000Z</time>
      </trkpt>
      <trkpt lat="42.245335" lon="2.322384">
        <ele>819</ele>
        <time>1970-01-01T02:24:56.000Z</time>
      </trkpt>
      <trkpt lat="42.245338" lon="2.322311">
        <ele>819</ele>
        <time>1970-01-01T02:24:57.000Z</time>
      </trkpt>
      <trkpt lat="42.24534" lon="2.322238">
        <ele>819</ele>
        <time>1970-01-01T02:24:58.000Z</time>
      </trkpt>
      <trkpt lat="42.245343" lon="2.322165">
        <ele>819</ele>
        <time>1970-01-01T02:24:59.000Z</time>
      </trkpt>
      <trkpt lat="42.245346" lon="2.322091">
        <ele>819</ele>
        <time>1970-01-01T02:25:00.000Z</time>
      </trkpt>
      <trkpt lat="42.245348" lon="2.322018">
        <ele>819</ele>
        <time>1970-01-01T02:25:01.000Z</time>
      </trkpt>
      <trkpt lat="42.245351" lon="2.321945">
        <ele>819</ele>
        <time>1970-01-01T02:25:02.000Z</time>
      </trkpt>
      <trkpt lat="42.245353" lon="2.321872">
        <ele>819</ele>
        <time>1970-01-01T02:25:03.000Z</time>
      </trkpt>
      <trkpt lat="42.245356" lon="2.321799">
        <ele>819</ele>
        <time>1970-01-01T02:25:04.000Z</time>
      </trkpt>
      <trkpt lat="42.245384" lon="2.321645">
        <ele>819</ele>
        <time>1970-01-01T02:25:05.000Z</time>
      </trkpt>
      <trkpt lat="42.2454" lon="2.321572">
        <ele>819</ele>
        <time>1970-01-01T02:25:06.000Z</time>
      </trkpt>
      <trkpt lat="42.245417" lon="2.321499">
        <ele>819</ele>
        <time>1970-01-01T02:25:07.000Z</time>
      </trkpt>
      <trkpt lat="42.245433" lon="2.321426">
        <ele>819</ele>
        <time>1970-01-01T02:25:08.000Z</time>
      </trkpt>
      <trkpt lat="42.24545" lon="2.321353">
        <ele>819</ele>
        <time>1970-01-01T02:25:09.000Z</time>
      </trkpt>
      <trkpt lat="42.245467" lon="2.32128">
        <ele>819</ele>
        <time>1970-01-01T02:25:10.000Z</time>
      </trkpt>
      <trkpt lat="42.245483" lon="2.321207">
        <ele>819</ele>
        <time>1970-01-01T02:25:11.000Z</time>
      </trkpt>
      <trkpt lat="42.2455" lon="2.321134">
        <ele>819</ele>
        <time>1970-01-01T02:25:12.000Z</time>
      </trkpt>
      <trkpt lat="42.245516" lon="2.321061">
        <ele>819</ele>
        <time>1970-01-01T02:25:13.000Z</time>
      </trkpt>
      <trkpt lat="42.245533" lon="2.320988">
        <ele>819</ele>
        <time>1970-01-01T02:25:14.000Z</time>
      </trkpt>
      <trkpt lat="42.245572" lon="2.32082">
        <ele>819</ele>
        <time>1970-01-01T02:25:15.000Z</time>
      </trkpt>
      <trkpt lat="42.245592" lon="2.32074">
        <ele>819</ele>
        <time>1970-01-01T02:25:16.000Z</time>
      </trkpt>
      <trkpt lat="42.245611" lon="2.320661">
        <ele>819</ele>
        <time>1970-01-01T02:25:17.000Z</time>
      </trkpt>
      <trkpt lat="42.245631" lon="2.320581">
        <ele>819</ele>
        <time>1970-01-01T02:25:18.000Z</time>
      </trkpt>
      <trkpt lat="42.245651" lon="2.320502">
        <ele>819</ele>
        <time>1970-01-01T02:25:19.000Z</time>
      </trkpt>
      <trkpt lat="42.245671" lon="2.320423">
        <ele>819</ele>
        <time>1970-01-01T02:25:20.000Z</time>
      </trkpt>
      <trkpt lat="42.245691" lon="2.320343">
        <ele>819</ele>
        <time>1970-01-01T02:25:21.000Z</time>
      </trkpt>
      <trkpt lat="42.24571" lon="2.320264">
        <ele>819</ele>
        <time>1970-01-01T02:25:22.000Z</time>
      </trkpt>
      <trkpt lat="42.24573" lon="2.320184">
        <ele>819</ele>
        <time>1970-01-01T02:25:23.000Z</time>
      </trkpt>
      <trkpt lat="42.24575" lon="2.320105">
        <ele>819</ele>
        <time>1970-01-01T02:25:24.000Z</time>
      </trkpt>
      <trkpt lat="42.24578" lon="2.319931">
        <ele>819</ele>
        <time>1970-01-01T02:25:25.000Z</time>
      </trkpt>
      <trkpt lat="42.245788" lon="2.319844">
        <ele>819</ele>
        <time>1970-01-01T02:25:26.000Z</time>
      </trkpt>
      <trkpt lat="42.245796" lon="2.319756">
        <ele>819</ele>
        <time>1970-01-01T02:25:27.000Z</time>
      </trkpt>
      <trkpt lat="42.245804" lon="2.319669">
        <ele>819</ele>
        <time>1970-01-01T02:25:28.000Z</time>
      </trkpt>
      <trkpt lat="42.245813" lon="2.319582">
        <ele>819</ele>
        <time>1970-01-01T02:25:29.000Z</time>
      </trkpt>
      <trkpt lat="42.245821" lon="2.319495">
        <ele>819</ele>
        <time>1970-01-01T02:25:30.000Z</time>
      </trkpt>
      <trkpt lat="42.245829" lon="2.319408">
        <ele>819</ele>
        <time>1970-01-01T02:25:31.000Z</time>
      </trkpt>
      <trkpt lat="42.245837" lon="2.31932">
        <ele>819</ele>
        <time>1970-01-01T02:25:32.000Z</time>
      </trkpt>
      <trkpt lat="42.245845" lon="2.319233">
        <ele>819</ele>
        <time>1970-01-01T02:25:33.000Z</time>
      </trkpt>
      <trkpt lat="42.245853" lon="2.319146">
        <ele>819</ele>
        <time>1970-01-01T02:25:34.000Z</time>
      </trkpt>
      <trkpt lat="42.245832" lon="2.318938">
        <ele>819</ele>
        <time>1970-01-01T02:25:35.000Z</time>
      </trkpt>
      <trkpt lat="42.245815" lon="2.318836">
        <ele>819</ele>
        <time>1970-01-01T02:25:36.000Z</time>
      </trkpt>
      <trkpt lat="42.245799" lon="2.318733">
        <ele>819</ele>
        <time>1970-01-01T02:25:37.000Z</time>
      </trkpt>
      <trkpt lat="42.245782" lon="2.31863">
        <ele>819</ele>
        <time>1970-01-01T02:25:38.000Z</time>
      </trkpt>
      <trkpt lat="42.245766" lon="2.318527">
        <ele>819</ele>
        <time>1970-01-01T02:25:39.000Z</time>
      </trkpt>
      <trkpt lat="42.24575" lon="2.318425">
        <ele>819</ele>
        <time>1970-01-01T02:25:40.000Z</time>
      </trkpt>
      <trkpt lat="42.245733" lon="2.318322">
        <ele>819</ele>
        <time>1970-01-01T02:25:41.000Z</time>
      </trkpt>
      <trkpt lat="42.245717" lon="2.318219">
        <ele>819</ele>
        <time>1970-01-01T02:25:42.000Z</time>
      </trkpt>
      <trkpt lat="42.2457" lon="2.318117">
        <ele>819</ele>
        <time>1970-01-01T02:25:43.000Z</time>
      </trkpt>
      <trkpt lat="42.245684" lon="2.318014">
        <ele>818</ele>
        <time>1970-01-01T02:25:44.000Z</time>
      </trkpt>
      <trkpt lat="42.245659" lon="2.317895">
        <ele>818</ele>
        <time>1970-01-01T02:25:45.000Z</time>
      </trkpt>
      <trkpt lat="42.245627" lon="2.317779">
        <ele>818</ele>
        <time>1970-01-01T02:25:46.000Z</time>
      </trkpt>
      <trkpt lat="42.245594" lon="2.317661">
        <ele>818</ele>
        <time>1970-01-01T02:25:47.000Z</time>
      </trkpt>
      <trkpt lat="42.245562" lon="2.317542">
        <ele>818</ele>
        <time>1970-01-01T02:25:48.000Z</time>
      </trkpt>
      <trkpt lat="42.245527" lon="2.317424">
        <ele>818</ele>
        <time>1970-01-01T02:25:49.000Z</time>
      </trkpt>
      <trkpt lat="42.245493" lon="2.317304">
        <ele>818</ele>
        <time>1970-01-01T02:25:50.000Z</time>
      </trkpt>
      <trkpt lat="42.245457" lon="2.317185">
        <ele>818</ele>
        <time>1970-01-01T02:25:51.000Z</time>
      </trkpt>
      <trkpt lat="42.245421" lon="2.317066">
        <ele>818</ele>
        <time>1970-01-01T02:25:52.000Z</time>
      </trkpt>
      <trkpt lat="42.245384" lon="2.316947">
        <ele>818</ele>
        <time>1970-01-01T02:25:53.000Z</time>
      </trkpt>
      <trkpt lat="42.245347" lon="2.316829">
        <ele>811</ele>
        <time>1970-01-01T02:25:54.000Z</time>
      </trkpt>
      <trkpt lat="42.24531" lon="2.316712">
        <ele>811</ele>
        <time>1970-01-01T02:25:55.000Z</time>
      </trkpt>
      <trkpt lat="42.245274" lon="2.316596">
        <ele>811</ele>
        <time>1970-01-01T02:25:56.000Z</time>
      </trkpt>
      <trkpt lat="42.245239" lon="2.316481">
        <ele>811</ele>
        <time>1970-01-01T02:25:57.000Z</time>
      </trkpt>
      <trkpt lat="42.245205" lon="2.316366">
        <ele>811</ele>
        <time>1970-01-01T02:25:58.000Z</time>
      </trkpt>
      <trkpt lat="42.245171" lon="2.316252">
        <ele>811</ele>
        <time>1970-01-01T02:25:59.000Z</time>
      </trkpt>
      <trkpt lat="42.245137" lon="2.316138">
        <ele>811</ele>
        <time>1970-01-01T02:26:00.000Z</time>
      </trkpt>
      <trkpt lat="42.245102" lon="2.316026">
        <ele>811</ele>
        <time>1970-01-01T02:26:01.000Z</time>
      </trkpt>
      <trkpt lat="42.245068" lon="2.315914">
        <ele>811</ele>
        <time>1970-01-01T02:26:02.000Z</time>
      </trkpt>
      <trkpt lat="42.245035" lon="2.315801">
        <ele>811</ele>
        <time>1970-01-01T02:26:03.000Z</time>
      </trkpt>
      <trkpt lat="42.245001" lon="2.31569">
        <ele>808</ele>
        <time>1970-01-01T02:26:04.000Z</time>
      </trkpt>
      <trkpt lat="42.244936" lon="2.31548">
        <ele>808</ele>
        <time>1970-01-01T02:26:05.000Z</time>
      </trkpt>
      <trkpt lat="42.244905" lon="2.31538">
        <ele>808</ele>
        <time>1970-01-01T02:26:06.000Z</time>
      </trkpt>
      <trkpt lat="42.244875" lon="2.315281">
        <ele>808</ele>
        <time>1970-01-01T02:26:07.000Z</time>
      </trkpt>
      <trkpt lat="42.244845" lon="2.315181">
        <ele>808</ele>
        <time>1970-01-01T02:26:08.000Z</time>
      </trkpt>
      <trkpt lat="42.244815" lon="2.315082">
        <ele>808</ele>
        <time>1970-01-01T02:26:09.000Z</time>
      </trkpt>
      <trkpt lat="42.244784" lon="2.314983">
        <ele>808</ele>
        <time>1970-01-01T02:26:10.000Z</time>
      </trkpt>
      <trkpt lat="42.244754" lon="2.314883">
        <ele>808</ele>
        <time>1970-01-01T02:26:11.000Z</time>
      </trkpt>
      <trkpt lat="42.244724" lon="2.314784">
        <ele>808</ele>
        <time>1970-01-01T02:26:12.000Z</time>
      </trkpt>
      <trkpt lat="42.244693" lon="2.314684">
        <ele>808</ele>
        <time>1970-01-01T02:26:13.000Z</time>
      </trkpt>
      <trkpt lat="42.244663" lon="2.314585">
        <ele>808</ele>
        <time>1970-01-01T02:26:14.000Z</time>
      </trkpt>
      <trkpt lat="42.244598" lon="2.314377">
        <ele>808</ele>
        <time>1970-01-01T02:26:15.000Z</time>
      </trkpt>
      <trkpt lat="42.244567" lon="2.314278">
        <ele>808</ele>
        <time>1970-01-01T02:26:16.000Z</time>
      </trkpt>
      <trkpt lat="42.244537" lon="2.31418">
        <ele>808</ele>
        <time>1970-01-01T02:26:17.000Z</time>
      </trkpt>
      <trkpt lat="42.244507" lon="2.314082">
        <ele>808</ele>
        <time>1970-01-01T02:26:18.000Z</time>
      </trkpt>
      <trkpt lat="42.244477" lon="2.313983">
        <ele>808</ele>
        <time>1970-01-01T02:26:19.000Z</time>
      </trkpt>
      <trkpt lat="42.244446" lon="2.313885">
        <ele>808</ele>
        <time>1970-01-01T02:26:20.000Z</time>
      </trkpt>
      <trkpt lat="42.244416" lon="2.313787">
        <ele>808</ele>
        <time>1970-01-01T02:26:21.000Z</time>
      </trkpt>
      <trkpt lat="42.244386" lon="2.313689">
        <ele>808</ele>
        <time>1970-01-01T02:26:22.000Z</time>
      </trkpt>
      <trkpt lat="42.244355" lon="2.31359">
        <ele>808</ele>
        <time>1970-01-01T02:26:23.000Z</time>
      </trkpt>
      <trkpt lat="42.244325" lon="2.313492">
        <ele>806</ele>
        <time>1970-01-01T02:26:24.000Z</time>
      </trkpt>
      <trkpt lat="42.244263" lon="2.313294">
        <ele>806</ele>
        <time>1970-01-01T02:26:25.000Z</time>
      </trkpt>
      <trkpt lat="42.244235" lon="2.313201">
        <ele>806</ele>
        <time>1970-01-01T02:26:26.000Z</time>
      </trkpt>
      <trkpt lat="42.244206" lon="2.313109">
        <ele>806</ele>
        <time>1970-01-01T02:26:27.000Z</time>
      </trkpt>
      <trkpt lat="42.244178" lon="2.313016">
        <ele>806</ele>
        <time>1970-01-01T02:26:28.000Z</time>
      </trkpt>
      <trkpt lat="42.24415" lon="2.312923">
        <ele>806</ele>
        <time>1970-01-01T02:26:29.000Z</time>
      </trkpt>
      <trkpt lat="42.244122" lon="2.31283">
        <ele>806</ele>
        <time>1970-01-01T02:26:30.000Z</time>
      </trkpt>
      <trkpt lat="42.244094" lon="2.312737">
        <ele>806</ele>
        <time>1970-01-01T02:26:31.000Z</time>
      </trkpt>
      <trkpt lat="42.244065" lon="2.312645">
        <ele>806</ele>
        <time>1970-01-01T02:26:32.000Z</time>
      </trkpt>
      <trkpt lat="42.244037" lon="2.312552">
        <ele>806</ele>
        <time>1970-01-01T02:26:33.000Z</time>
      </trkpt>
      <trkpt lat="42.244009" lon="2.312459">
        <ele>804</ele>
        <time>1970-01-01T02:26:34.000Z</time>
      </trkpt>
      <trkpt lat="42.24395" lon="2.312263">
        <ele>804</ele>
        <time>1970-01-01T02:26:35.000Z</time>
      </trkpt>
      <trkpt lat="42.243922" lon="2.312171">
        <ele>804</ele>
        <time>1970-01-01T02:26:36.000Z</time>
      </trkpt>
      <trkpt lat="42.243894" lon="2.312078">
        <ele>804</ele>
        <time>1970-01-01T02:26:37.000Z</time>
      </trkpt>
      <trkpt lat="42.243866" lon="2.311985">
        <ele>804</ele>
        <time>1970-01-01T02:26:38.000Z</time>
      </trkpt>
      <trkpt lat="42.243838" lon="2.311892">
        <ele>804</ele>
        <time>1970-01-01T02:26:39.000Z</time>
      </trkpt>
      <trkpt lat="42.24381" lon="2.3118">
        <ele>804</ele>
        <time>1970-01-01T02:26:40.000Z</time>
      </trkpt>
      <trkpt lat="42.243782" lon="2.311707">
        <ele>804</ele>
        <time>1970-01-01T02:26:41.000Z</time>
      </trkpt>
      <trkpt lat="42.243754" lon="2.311614">
        <ele>804</ele>
        <time>1970-01-01T02:26:42.000Z</time>
      </trkpt>
      <trkpt lat="42.243726" lon="2.311522">
        <ele>804</ele>
        <time>1970-01-01T02:26:43.000Z</time>
      </trkpt>
      <trkpt lat="42.243698" lon="2.311429">
        <ele>803</ele>
        <time>1970-01-01T02:26:44.000Z</time>
      </trkpt>
      <trkpt lat="42.243637" lon="2.311234">
        <ele>803</ele>
        <time>1970-01-01T02:26:45.000Z</time>
      </trkpt>
      <trkpt lat="42.243609" lon="2.311142">
        <ele>803</ele>
        <time>1970-01-01T02:26:46.000Z</time>
      </trkpt>
      <trkpt lat="42.24358" lon="2.31105">
        <ele>803</ele>
        <time>1970-01-01T02:26:47.000Z</time>
      </trkpt>
      <trkpt lat="42.243551" lon="2.310958">
        <ele>803</ele>
        <time>1970-01-01T02:26:48.000Z</time>
      </trkpt>
      <trkpt lat="42.243523" lon="2.310866">
        <ele>803</ele>
        <time>1970-01-01T02:26:49.000Z</time>
      </trkpt>
      <trkpt lat="42.243494" lon="2.310775">
        <ele>803</ele>
        <time>1970-01-01T02:26:50.000Z</time>
      </trkpt>
      <trkpt lat="42.243465" lon="2.310683">
        <ele>803</ele>
        <time>1970-01-01T02:26:51.000Z</time>
      </trkpt>
      <trkpt lat="42.243436" lon="2.310591">
        <ele>803</ele>
        <time>1970-01-01T02:26:52.000Z</time>
      </trkpt>
      <trkpt lat="42.243408" lon="2.310499">
        <ele>803</ele>
        <time>1970-01-01T02:26:53.000Z</time>
      </trkpt>
      <trkpt lat="42.243379" lon="2.310407">
        <ele>802</ele>
        <time>1970-01-01T02:26:54.000Z</time>
      </trkpt>
      <trkpt lat="42.243321" lon="2.310218">
        <ele>802</ele>
        <time>1970-01-01T02:26:55.000Z</time>
      </trkpt>
      <trkpt lat="42.243294" lon="2.31013">
        <ele>802</ele>
        <time>1970-01-01T02:26:56.000Z</time>
      </trkpt>
      <trkpt lat="42.243268" lon="2.310041">
        <ele>802</ele>
        <time>1970-01-01T02:26:57.000Z</time>
      </trkpt>
      <trkpt lat="42.243241" lon="2.309953">
        <ele>802</ele>
        <time>1970-01-01T02:26:58.000Z</time>
      </trkpt>
      <trkpt lat="42.243214" lon="2.309864">
        <ele>802</ele>
        <time>1970-01-01T02:26:59.000Z</time>
      </trkpt>
      <trkpt lat="42.243187" lon="2.309776">
        <ele>802</ele>
        <time>1970-01-01T02:27:00.000Z</time>
      </trkpt>
      <trkpt lat="42.24316" lon="2.309687">
        <ele>802</ele>
        <time>1970-01-01T02:27:01.000Z</time>
      </trkpt>
      <trkpt lat="42.243134" lon="2.309599">
        <ele>802</ele>
        <time>1970-01-01T02:27:02.000Z</time>
      </trkpt>
      <trkpt lat="42.243107" lon="2.30951">
        <ele>802</ele>
        <time>1970-01-01T02:27:03.000Z</time>
      </trkpt>
      <trkpt lat="42.24308" lon="2.309422">
        <ele>801</ele>
        <time>1970-01-01T02:27:04.000Z</time>
      </trkpt>
      <trkpt lat="42.243022" lon="2.309233">
        <ele>801</ele>
        <time>1970-01-01T02:27:05.000Z</time>
      </trkpt>
      <trkpt lat="42.242994" lon="2.309142">
        <ele>801</ele>
        <time>1970-01-01T02:27:06.000Z</time>
      </trkpt>
      <trkpt lat="42.242967" lon="2.309051">
        <ele>801</ele>
        <time>1970-01-01T02:27:07.000Z</time>
      </trkpt>
      <trkpt lat="42.242939" lon="2.30896">
        <ele>801</ele>
        <time>1970-01-01T02:27:08.000Z</time>
      </trkpt>
      <trkpt lat="42.242911" lon="2.308869">
        <ele>801</ele>
        <time>1970-01-01T02:27:09.000Z</time>
      </trkpt>
      <trkpt lat="42.242883" lon="2.308778">
        <ele>801</ele>
        <time>1970-01-01T02:27:10.000Z</time>
      </trkpt>
      <trkpt lat="42.242855" lon="2.308687">
        <ele>801</ele>
        <time>1970-01-01T02:27:11.000Z</time>
      </trkpt>
      <trkpt lat="42.242828" lon="2.308596">
        <ele>801</ele>
        <time>1970-01-01T02:27:12.000Z</time>
      </trkpt>
      <trkpt lat="42.2428" lon="2.308505">
        <ele>801</ele>
        <time>1970-01-01T02:27:13.000Z</time>
      </trkpt>
      <trkpt lat="42.242772" lon="2.308414">
        <ele>801</ele>
        <time>1970-01-01T02:27:14.000Z</time>
      </trkpt>
      <trkpt lat="42.242712" lon="2.308218">
        <ele>801</ele>
        <time>1970-01-01T02:27:15.000Z</time>
      </trkpt>
      <trkpt lat="42.242684" lon="2.308126">
        <ele>801</ele>
        <time>1970-01-01T02:27:16.000Z</time>
      </trkpt>
      <trkpt lat="42.242656" lon="2.308033">
        <ele>801</ele>
        <time>1970-01-01T02:27:17.000Z</time>
      </trkpt>
      <trkpt lat="42.242628" lon="2.30794">
        <ele>801</ele>
        <time>1970-01-01T02:27:18.000Z</time>
      </trkpt>
      <trkpt lat="42.242601" lon="2.307847">
        <ele>801</ele>
        <time>1970-01-01T02:27:19.000Z</time>
      </trkpt>
      <trkpt lat="42.242573" lon="2.307755">
        <ele>801</ele>
        <time>1970-01-01T02:27:20.000Z</time>
      </trkpt>
      <trkpt lat="42.242545" lon="2.307662">
        <ele>801</ele>
        <time>1970-01-01T02:27:21.000Z</time>
      </trkpt>
      <trkpt lat="42.242517" lon="2.307569">
        <ele>801</ele>
        <time>1970-01-01T02:27:22.000Z</time>
      </trkpt>
      <trkpt lat="42.242489" lon="2.307477">
        <ele>801</ele>
        <time>1970-01-01T02:27:23.000Z</time>
      </trkpt>
      <trkpt lat="42.242461" lon="2.307384">
        <ele>801</ele>
        <time>1970-01-01T02:27:24.000Z</time>
      </trkpt>
      <trkpt lat="42.242399" lon="2.307194">
        <ele>801</ele>
        <time>1970-01-01T02:27:25.000Z</time>
      </trkpt>
      <trkpt lat="42.242368" lon="2.307104">
        <ele>801</ele>
        <time>1970-01-01T02:27:26.000Z</time>
      </trkpt>
      <trkpt lat="42.242337" lon="2.307015">
        <ele>801</ele>
        <time>1970-01-01T02:27:27.000Z</time>
      </trkpt>
      <trkpt lat="42.242306" lon="2.306926">
        <ele>801</ele>
        <time>1970-01-01T02:27:28.000Z</time>
      </trkpt>
      <trkpt lat="42.242275" lon="2.306836">
        <ele>801</ele>
        <time>1970-01-01T02:27:29.000Z</time>
      </trkpt>
      <trkpt lat="42.242243" lon="2.306747">
        <ele>801</ele>
        <time>1970-01-01T02:27:30.000Z</time>
      </trkpt>
      <trkpt lat="42.242212" lon="2.306658">
        <ele>801</ele>
        <time>1970-01-01T02:27:31.000Z</time>
      </trkpt>
      <trkpt lat="42.242181" lon="2.306569">
        <ele>801</ele>
        <time>1970-01-01T02:27:32.000Z</time>
      </trkpt>
      <trkpt lat="42.24215" lon="2.306479">
        <ele>801</ele>
        <time>1970-01-01T02:27:33.000Z</time>
      </trkpt>
      <trkpt lat="42.242119" lon="2.30639">
        <ele>800</ele>
        <time>1970-01-01T02:27:34.000Z</time>
      </trkpt>
      <trkpt lat="42.242037" lon="2.306213">
        <ele>800</ele>
        <time>1970-01-01T02:27:35.000Z</time>
      </trkpt>
      <trkpt lat="42.241995" lon="2.306132">
        <ele>800</ele>
        <time>1970-01-01T02:27:36.000Z</time>
      </trkpt>
      <trkpt lat="42.241954" lon="2.306051">
        <ele>800</ele>
        <time>1970-01-01T02:27:37.000Z</time>
      </trkpt>
      <trkpt lat="42.241913" lon="2.30597">
        <ele>800</ele>
        <time>1970-01-01T02:27:38.000Z</time>
      </trkpt>
      <trkpt lat="42.241872" lon="2.305889">
        <ele>800</ele>
        <time>1970-01-01T02:27:39.000Z</time>
      </trkpt>
      <trkpt lat="42.24183" lon="2.305809">
        <ele>800</ele>
        <time>1970-01-01T02:27:40.000Z</time>
      </trkpt>
      <trkpt lat="42.241789" lon="2.305728">
        <ele>800</ele>
        <time>1970-01-01T02:27:41.000Z</time>
      </trkpt>
      <trkpt lat="42.241748" lon="2.305647">
        <ele>800</ele>
        <time>1970-01-01T02:27:42.000Z</time>
      </trkpt>
      <trkpt lat="42.241706" lon="2.305566">
        <ele>800</ele>
        <time>1970-01-01T02:27:43.000Z</time>
      </trkpt>
      <trkpt lat="42.241665" lon="2.305485">
        <ele>799</ele>
        <time>1970-01-01T02:27:44.000Z</time>
      </trkpt>
      <trkpt lat="42.241558" lon="2.305377">
        <ele>799</ele>
        <time>1970-01-01T02:27:45.000Z</time>
      </trkpt>
      <trkpt lat="42.241505" lon="2.30535">
        <ele>799</ele>
        <time>1970-01-01T02:27:46.000Z</time>
      </trkpt>
      <trkpt lat="42.241451" lon="2.305322">
        <ele>799</ele>
        <time>1970-01-01T02:27:47.000Z</time>
      </trkpt>
      <trkpt lat="42.241398" lon="2.305295">
        <ele>799</ele>
        <time>1970-01-01T02:27:48.000Z</time>
      </trkpt>
      <trkpt lat="42.241344" lon="2.305268">
        <ele>799</ele>
        <time>1970-01-01T02:27:49.000Z</time>
      </trkpt>
      <trkpt lat="42.24129" lon="2.305241">
        <ele>799</ele>
        <time>1970-01-01T02:27:50.000Z</time>
      </trkpt>
      <trkpt lat="42.241237" lon="2.305214">
        <ele>799</ele>
        <time>1970-01-01T02:27:51.000Z</time>
      </trkpt>
      <trkpt lat="42.241183" lon="2.305186">
        <ele>799</ele>
        <time>1970-01-01T02:27:52.000Z</time>
      </trkpt>
      <trkpt lat="42.24113" lon="2.305159">
        <ele>799</ele>
        <time>1970-01-01T02:27:53.000Z</time>
      </trkpt>
      <trkpt lat="42.241076" lon="2.305132">
        <ele>798</ele>
        <time>1970-01-01T02:27:54.000Z</time>
      </trkpt>
      <trkpt lat="42.24099" lon="2.305197">
        <ele>798</ele>
        <time>1970-01-01T02:27:55.000Z</time>
      </trkpt>
      <trkpt lat="42.240956" lon="2.305234">
        <ele>798</ele>
        <time>1970-01-01T02:27:56.000Z</time>
      </trkpt>
      <trkpt lat="42.240923" lon="2.305272">
        <ele>798</ele>
        <time>1970-01-01T02:27:57.000Z</time>
      </trkpt>
      <trkpt lat="42.240889" lon="2.305309">
        <ele>798</ele>
        <time>1970-01-01T02:27:58.000Z</time>
      </trkpt>
      <trkpt lat="42.240855" lon="2.305346">
        <ele>798</ele>
        <time>1970-01-01T02:27:59.000Z</time>
      </trkpt>
      <trkpt lat="42.240821" lon="2.305383">
        <ele>798</ele>
        <time>1970-01-01T02:28:00.000Z</time>
      </trkpt>
      <trkpt lat="42.240787" lon="2.30542">
        <ele>798</ele>
        <time>1970-01-01T02:28:01.000Z</time>
      </trkpt>
      <trkpt lat="42.240754" lon="2.305458">
        <ele>798</ele>
        <time>1970-01-01T02:28:02.000Z</time>
      </trkpt>
      <trkpt lat="42.24072" lon="2.305495">
        <ele>798</ele>
        <time>1970-01-01T02:28:03.000Z</time>
      </trkpt>
      <trkpt lat="42.240686" lon="2.305532">
        <ele>799</ele>
        <time>1970-01-01T02:28:04.000Z</time>
      </trkpt>
      <trkpt lat="42.240621" lon="2.305574">
        <ele>799</ele>
        <time>1970-01-01T02:28:05.000Z</time>
      </trkpt>
      <trkpt lat="42.24059" lon="2.30558">
        <ele>799</ele>
        <time>1970-01-01T02:28:06.000Z</time>
      </trkpt>
      <trkpt lat="42.240558" lon="2.305585">
        <ele>799</ele>
        <time>1970-01-01T02:28:07.000Z</time>
      </trkpt>
      <trkpt lat="42.240527" lon="2.30559">
        <ele>799</ele>
        <time>1970-01-01T02:28:08.000Z</time>
      </trkpt>
      <trkpt lat="42.240495" lon="2.305596">
        <ele>799</ele>
        <time>1970-01-01T02:28:09.000Z</time>
      </trkpt>
      <trkpt lat="42.240463" lon="2.305601">
        <ele>799</ele>
        <time>1970-01-01T02:28:10.000Z</time>
      </trkpt>
      <trkpt lat="42.240432" lon="2.305606">
        <ele>799</ele>
        <time>1970-01-01T02:28:11.000Z</time>
      </trkpt>
      <trkpt lat="42.2404" lon="2.305611">
        <ele>799</ele>
        <time>1970-01-01T02:28:12.000Z</time>
      </trkpt>
      <trkpt lat="42.240369" lon="2.305617">
        <ele>799</ele>
        <time>1970-01-01T02:28:13.000Z</time>
      </trkpt>
      <trkpt lat="42.240337" lon="2.305622">
        <ele>801</ele>
        <time>1970-01-01T02:28:14.000Z</time>
      </trkpt>
      <trkpt lat="42.240285" lon="2.305564">
        <ele>801</ele>
        <time>1970-01-01T02:28:15.000Z</time>
      </trkpt>
      <trkpt lat="42.240262" lon="2.305534">
        <ele>801</ele>
        <time>1970-01-01T02:28:16.000Z</time>
      </trkpt>
      <trkpt lat="42.24024" lon="2.305505">
        <ele>801</ele>
        <time>1970-01-01T02:28:17.000Z</time>
      </trkpt>
      <trkpt lat="42.240217" lon="2.305476">
        <ele>801</ele>
        <time>1970-01-01T02:28:18.000Z</time>
      </trkpt>
      <trkpt lat="42.240194" lon="2.305446">
        <ele>801</ele>
        <time>1970-01-01T02:28:19.000Z</time>
      </trkpt>
      <trkpt lat="42.240171" lon="2.305417">
        <ele>801</ele>
        <time>1970-01-01T02:28:20.000Z</time>
      </trkpt>
      <trkpt lat="42.240148" lon="2.305388">
        <ele>801</ele>
        <time>1970-01-01T02:28:21.000Z</time>
      </trkpt>
      <trkpt lat="42.240126" lon="2.305359">
        <ele>801</ele>
        <time>1970-01-01T02:28:22.000Z</time>
      </trkpt>
      <trkpt lat="42.240103" lon="2.305329">
        <ele>801</ele>
        <time>1970-01-01T02:28:23.000Z</time>
      </trkpt>
      <trkpt lat="42.24008" lon="2.3053">
        <ele>801</ele>
        <time>1970-01-01T02:28:24.000Z</time>
      </trkpt>
      <trkpt lat="42.240034" lon="2.305237">
        <ele>801</ele>
        <time>1970-01-01T02:28:25.000Z</time>
      </trkpt>
      <trkpt lat="42.240012" lon="2.305207">
        <ele>801</ele>
        <time>1970-01-01T02:28:26.000Z</time>
      </trkpt>
      <trkpt lat="42.239991" lon="2.305177">
        <ele>801</ele>
        <time>1970-01-01T02:28:27.000Z</time>
      </trkpt>
      <trkpt lat="42.239969" lon="2.305147">
        <ele>801</ele>
        <time>1970-01-01T02:28:28.000Z</time>
      </trkpt>
      <trkpt lat="42.239948" lon="2.305117">
        <ele>801</ele>
        <time>1970-01-01T02:28:29.000Z</time>
      </trkpt>
      <trkpt lat="42.239927" lon="2.305087">
        <ele>801</ele>
        <time>1970-01-01T02:28:30.000Z</time>
      </trkpt>
      <trkpt lat="42.239905" lon="2.305057">
        <ele>801</ele>
        <time>1970-01-01T02:28:31.000Z</time>
      </trkpt>
      <trkpt lat="42.239884" lon="2.305027">
        <ele>801</ele>
        <time>1970-01-01T02:28:32.000Z</time>
      </trkpt>
      <trkpt lat="42.239862" lon="2.304997">
        <ele>801</ele>
        <time>1970-01-01T02:28:33.000Z</time>
      </trkpt>
      <trkpt lat="42.239841" lon="2.304967">
        <ele>803</ele>
        <time>1970-01-01T02:28:34.000Z</time>
      </trkpt>
      <trkpt lat="42.239798" lon="2.3049">
        <ele>803</ele>
        <time>1970-01-01T02:28:35.000Z</time>
      </trkpt>
      <trkpt lat="42.239778" lon="2.304868">
        <ele>803</ele>
        <time>1970-01-01T02:28:36.000Z</time>
      </trkpt>
      <trkpt lat="42.239757" lon="2.304837">
        <ele>803</ele>
        <time>1970-01-01T02:28:37.000Z</time>
      </trkpt>
      <trkpt lat="42.239737" lon="2.304805">
        <ele>803</ele>
        <time>1970-01-01T02:28:38.000Z</time>
      </trkpt>
      <trkpt lat="42.239716" lon="2.304773">
        <ele>803</ele>
        <time>1970-01-01T02:28:39.000Z</time>
      </trkpt>
      <trkpt lat="42.239695" lon="2.304741">
        <ele>803</ele>
        <time>1970-01-01T02:28:40.000Z</time>
      </trkpt>
      <trkpt lat="42.239675" lon="2.304709">
        <ele>803</ele>
        <time>1970-01-01T02:28:41.000Z</time>
      </trkpt>
      <trkpt lat="42.239654" lon="2.304678">
        <ele>803</ele>
        <time>1970-01-01T02:28:42.000Z</time>
      </trkpt>
      <trkpt lat="42.239634" lon="2.304646">
        <ele>803</ele>
        <time>1970-01-01T02:28:43.000Z</time>
      </trkpt>
      <trkpt lat="42.239613" lon="2.304614">
        <ele>805</ele>
        <time>1970-01-01T02:28:44.000Z</time>
      </trkpt>
      <trkpt lat="42.239571" lon="2.304527">
        <ele>805</ele>
        <time>1970-01-01T02:28:45.000Z</time>
      </trkpt>
      <trkpt lat="42.239552" lon="2.30448">
        <ele>805</ele>
        <time>1970-01-01T02:28:46.000Z</time>
      </trkpt>
      <trkpt lat="42.239532" lon="2.304433">
        <ele>805</ele>
        <time>1970-01-01T02:28:47.000Z</time>
      </trkpt>
      <trkpt lat="42.239513" lon="2.304386">
        <ele>805</ele>
        <time>1970-01-01T02:28:48.000Z</time>
      </trkpt>
      <trkpt lat="42.239493" lon="2.304339">
        <ele>805</ele>
        <time>1970-01-01T02:28:49.000Z</time>
      </trkpt>
      <trkpt lat="42.239473" lon="2.304292">
        <ele>805</ele>
        <time>1970-01-01T02:28:50.000Z</time>
      </trkpt>
      <trkpt lat="42.239454" lon="2.304245">
        <ele>805</ele>
        <time>1970-01-01T02:28:51.000Z</time>
      </trkpt>
      <trkpt lat="42.239434" lon="2.304198">
        <ele>805</ele>
        <time>1970-01-01T02:28:52.000Z</time>
      </trkpt>
      <trkpt lat="42.239415" lon="2.304151">
        <ele>805</ele>
        <time>1970-01-01T02:28:53.000Z</time>
      </trkpt>
      <trkpt lat="42.239395" lon="2.304104">
        <ele>805</ele>
        <time>1970-01-01T02:28:54.000Z</time>
      </trkpt>
      <trkpt lat="42.239351" lon="2.303988">
        <ele>805</ele>
        <time>1970-01-01T02:28:55.000Z</time>
      </trkpt>
      <trkpt lat="42.239329" lon="2.303932">
        <ele>805</ele>
        <time>1970-01-01T02:28:56.000Z</time>
      </trkpt>
      <trkpt lat="42.239308" lon="2.303876">
        <ele>805</ele>
        <time>1970-01-01T02:28:57.000Z</time>
      </trkpt>
      <trkpt lat="42.239286" lon="2.30382">
        <ele>805</ele>
        <time>1970-01-01T02:28:58.000Z</time>
      </trkpt>
      <trkpt lat="42.239264" lon="2.303764">
        <ele>805</ele>
        <time>1970-01-01T02:28:59.000Z</time>
      </trkpt>
      <trkpt lat="42.239242" lon="2.303708">
        <ele>805</ele>
        <time>1970-01-01T02:29:00.000Z</time>
      </trkpt>
      <trkpt lat="42.23922" lon="2.303652">
        <ele>805</ele>
        <time>1970-01-01T02:29:01.000Z</time>
      </trkpt>
      <trkpt lat="42.239199" lon="2.303596">
        <ele>805</ele>
        <time>1970-01-01T02:29:02.000Z</time>
      </trkpt>
      <trkpt lat="42.239177" lon="2.30354">
        <ele>805</ele>
        <time>1970-01-01T02:29:03.000Z</time>
      </trkpt>
      <trkpt lat="42.239155" lon="2.303484">
        <ele>805</ele>
        <time>1970-01-01T02:29:04.000Z</time>
      </trkpt>
      <trkpt lat="42.239103" lon="2.303356">
        <ele>805</ele>
        <time>1970-01-01T02:29:05.000Z</time>
      </trkpt>
      <trkpt lat="42.239079" lon="2.303294">
        <ele>805</ele>
        <time>1970-01-01T02:29:06.000Z</time>
      </trkpt>
      <trkpt lat="42.239054" lon="2.303233">
        <ele>805</ele>
        <time>1970-01-01T02:29:07.000Z</time>
      </trkpt>
      <trkpt lat="42.239029" lon="2.303171">
        <ele>805</ele>
        <time>1970-01-01T02:29:08.000Z</time>
      </trkpt>
      <trkpt lat="42.239005" lon="2.30311">
        <ele>805</ele>
        <time>1970-01-01T02:29:09.000Z</time>
      </trkpt>
      <trkpt lat="42.23898" lon="2.303049">
        <ele>805</ele>
        <time>1970-01-01T02:29:10.000Z</time>
      </trkpt>
      <trkpt lat="42.238955" lon="2.302987">
        <ele>805</ele>
        <time>1970-01-01T02:29:11.000Z</time>
      </trkpt>
      <trkpt lat="42.23893" lon="2.302926">
        <ele>805</ele>
        <time>1970-01-01T02:29:12.000Z</time>
      </trkpt>
      <trkpt lat="42.238906" lon="2.302864">
        <ele>805</ele>
        <time>1970-01-01T02:29:13.000Z</time>
      </trkpt>
      <trkpt lat="42.238881" lon="2.302803">
        <ele>804</ele>
        <time>1970-01-01T02:29:14.000Z</time>
      </trkpt>
      <trkpt lat="42.238819" lon="2.302703">
        <ele>804</ele>
        <time>1970-01-01T02:29:15.000Z</time>
      </trkpt>
      <trkpt lat="42.238786" lon="2.302668">
        <ele>804</ele>
        <time>1970-01-01T02:29:16.000Z</time>
      </trkpt>
      <trkpt lat="42.238753" lon="2.302632">
        <ele>804</ele>
        <time>1970-01-01T02:29:17.000Z</time>
      </trkpt>
      <trkpt lat="42.23872" lon="2.302597">
        <ele>804</ele>
        <time>1970-01-01T02:29:18.000Z</time>
      </trkpt>
      <trkpt lat="42.238688" lon="2.302561">
        <ele>804</ele>
        <time>1970-01-01T02:29:19.000Z</time>
      </trkpt>
      <trkpt lat="42.238655" lon="2.302526">
        <ele>804</ele>
        <time>1970-01-01T02:29:20.000Z</time>
      </trkpt>
      <trkpt lat="42.238622" lon="2.30249">
        <ele>804</ele>
        <time>1970-01-01T02:29:21.000Z</time>
      </trkpt>
      <trkpt lat="42.238589" lon="2.302455">
        <ele>804</ele>
        <time>1970-01-01T02:29:22.000Z</time>
      </trkpt>
      <trkpt lat="42.238556" lon="2.302419">
        <ele>804</ele>
        <time>1970-01-01T02:29:23.000Z</time>
      </trkpt>
      <trkpt lat="42.238523" lon="2.302384">
        <ele>804</ele>
        <time>1970-01-01T02:29:24.000Z</time>
      </trkpt>
      <trkpt lat="42.238458" lon="2.302351">
        <ele>804</ele>
        <time>1970-01-01T02:29:25.000Z</time>
      </trkpt>
      <trkpt lat="42.238429" lon="2.302337">
        <ele>804</ele>
        <time>1970-01-01T02:29:26.000Z</time>
      </trkpt>
      <trkpt lat="42.238399" lon="2.302323">
        <ele>804</ele>
        <time>1970-01-01T02:29:27.000Z</time>
      </trkpt>
      <trkpt lat="42.238369" lon="2.302309">
        <ele>804</ele>
        <time>1970-01-01T02:29:28.000Z</time>
      </trkpt>
      <trkpt lat="42.23834" lon="2.302294">
        <ele>804</ele>
        <time>1970-01-01T02:29:29.000Z</time>
      </trkpt>
      <trkpt lat="42.23831" lon="2.30228">
        <ele>804</ele>
        <time>1970-01-01T02:29:30.000Z</time>
      </trkpt>
      <trkpt lat="42.23828" lon="2.302266">
        <ele>804</ele>
        <time>1970-01-01T02:29:31.000Z</time>
      </trkpt>
      <trkpt lat="42.23825" lon="2.302252">
        <ele>804</ele>
        <time>1970-01-01T02:29:32.000Z</time>
      </trkpt>
      <trkpt lat="42.238221" lon="2.302238">
        <ele>804</ele>
        <time>1970-01-01T02:29:33.000Z</time>
      </trkpt>
      <trkpt lat="42.238191" lon="2.302224">
        <ele>804</ele>
        <time>1970-01-01T02:29:34.000Z</time>
      </trkpt>
      <trkpt lat="42.238137" lon="2.302188">
        <ele>804</ele>
        <time>1970-01-01T02:29:35.000Z</time>
      </trkpt>
      <trkpt lat="42.238113" lon="2.30217">
        <ele>804</ele>
        <time>1970-01-01T02:29:36.000Z</time>
      </trkpt>
      <trkpt lat="42.23809" lon="2.302151">
        <ele>804</ele>
        <time>1970-01-01T02:29:37.000Z</time>
      </trkpt>
      <trkpt lat="42.238067" lon="2.302132">
        <ele>804</ele>
        <time>1970-01-01T02:29:38.000Z</time>
      </trkpt>
      <trkpt lat="42.238044" lon="2.302113">
        <ele>804</ele>
        <time>1970-01-01T02:29:39.000Z</time>
      </trkpt>
      <trkpt lat="42.23802" lon="2.302095">
        <ele>804</ele>
        <time>1970-01-01T02:29:40.000Z</time>
      </trkpt>
      <trkpt lat="42.237997" lon="2.302076">
        <ele>804</ele>
        <time>1970-01-01T02:29:41.000Z</time>
      </trkpt>
      <trkpt lat="42.237974" lon="2.302057">
        <ele>804</ele>
        <time>1970-01-01T02:29:42.000Z</time>
      </trkpt>
      <trkpt lat="42.23795" lon="2.302039">
        <ele>804</ele>
        <time>1970-01-01T02:29:43.000Z</time>
      </trkpt>
      <trkpt lat="42.237927" lon="2.30202">
        <ele>806</ele>
        <time>1970-01-01T02:29:44.000Z</time>
      </trkpt>
      <trkpt lat="42.23789" lon="2.301976">
        <ele>806</ele>
        <time>1970-01-01T02:29:45.000Z</time>
      </trkpt>
      <trkpt lat="42.237873" lon="2.301956">
        <ele>806</ele>
        <time>1970-01-01T02:29:46.000Z</time>
      </trkpt>
      <trkpt lat="42.237857" lon="2.301935">
        <ele>806</ele>
        <time>1970-01-01T02:29:47.000Z</time>
      </trkpt>
      <trkpt lat="42.23784" lon="2.301915">
        <ele>806</ele>
        <time>1970-01-01T02:29:48.000Z</time>
      </trkpt>
      <trkpt lat="42.237824" lon="2.301895">
        <ele>806</ele>
        <time>1970-01-01T02:29:49.000Z</time>
      </trkpt>
      <trkpt lat="42.237808" lon="2.301875">
        <ele>806</ele>
        <time>1970-01-01T02:29:50.000Z</time>
      </trkpt>
      <trkpt lat="42.237791" lon="2.301855">
        <ele>806</ele>
        <time>1970-01-01T02:29:51.000Z</time>
      </trkpt>
      <trkpt lat="42.237775" lon="2.301834">
        <ele>806</ele>
        <time>1970-01-01T02:29:52.000Z</time>
      </trkpt>
      <trkpt lat="42.237758" lon="2.301814">
        <ele>806</ele>
        <time>1970-01-01T02:29:53.000Z</time>
      </trkpt>
      <trkpt lat="42.237742" lon="2.301794">
        <ele>808</ele>
        <time>1970-01-01T02:29:54.000Z</time>
      </trkpt>
      <trkpt lat="42.237714" lon="2.301748">
        <ele>808</ele>
        <time>1970-01-01T02:29:55.000Z</time>
      </trkpt>
      <trkpt lat="42.2377" lon="2.301726">
        <ele>808</ele>
        <time>1970-01-01T02:29:56.000Z</time>
      </trkpt>
      <trkpt lat="42.237687" lon="2.301703">
        <ele>808</ele>
        <time>1970-01-01T02:29:57.000Z</time>
      </trkpt>
      <trkpt lat="42.237674" lon="2.30168">
        <ele>808</ele>
        <time>1970-01-01T02:29:58.000Z</time>
      </trkpt>
      <trkpt lat="42.237661" lon="2.301657">
        <ele>808</ele>
        <time>1970-01-01T02:29:59.000Z</time>
      </trkpt>
      <trkpt lat="42.237647" lon="2.301635">
        <ele>808</ele>
        <time>1970-01-01T02:30:00.000Z</time>
      </trkpt>
      <trkpt lat="42.237634" lon="2.301612">
        <ele>808</ele>
        <time>1970-01-01T02:30:01.000Z</time>
      </trkpt>
      <trkpt lat="42.237621" lon="2.301589">
        <ele>808</ele>
        <time>1970-01-01T02:30:02.000Z</time>
      </trkpt>
      <trkpt lat="42.237607" lon="2.301567">
        <ele>808</ele>
        <time>1970-01-01T02:30:03.000Z</time>
      </trkpt>
      <trkpt lat="42.237594" lon="2.301544">
        <ele>809</ele>
        <time>1970-01-01T02:30:04.000Z</time>
      </trkpt>
      <trkpt lat="42.237569" lon="2.301492">
        <ele>809</ele>
        <time>1970-01-01T02:30:05.000Z</time>
      </trkpt>
      <trkpt lat="42.237558" lon="2.301466">
        <ele>809</ele>
        <time>1970-01-01T02:30:06.000Z</time>
      </trkpt>
      <trkpt lat="42.237548" lon="2.30144">
        <ele>809</ele>
        <time>1970-01-01T02:30:07.000Z</time>
      </trkpt>
      <trkpt lat="42.237537" lon="2.301414">
        <ele>809</ele>
        <time>1970-01-01T02:30:08.000Z</time>
      </trkpt>
      <trkpt lat="42.237526" lon="2.301388">
        <ele>809</ele>
        <time>1970-01-01T02:30:09.000Z</time>
      </trkpt>
      <trkpt lat="42.237515" lon="2.301362">
        <ele>809</ele>
        <time>1970-01-01T02:30:10.000Z</time>
      </trkpt>
      <trkpt lat="42.237504" lon="2.301336">
        <ele>809</ele>
        <time>1970-01-01T02:30:11.000Z</time>
      </trkpt>
      <trkpt lat="42.237494" lon="2.30131">
        <ele>809</ele>
        <time>1970-01-01T02:30:12.000Z</time>
      </trkpt>
      <trkpt lat="42.237483" lon="2.301284">
        <ele>809</ele>
        <time>1970-01-01T02:30:13.000Z</time>
      </trkpt>
      <trkpt lat="42.237472" lon="2.301258">
        <ele>810</ele>
        <time>1970-01-01T02:30:14.000Z</time>
      </trkpt>
      <trkpt lat="42.237452" lon="2.301197">
        <ele>810</ele>
        <time>1970-01-01T02:30:15.000Z</time>
      </trkpt>
      <trkpt lat="42.237444" lon="2.301167">
        <ele>810</ele>
        <time>1970-01-01T02:30:16.000Z</time>
      </trkpt>
      <trkpt lat="42.237436" lon="2.301136">
        <ele>810</ele>
        <time>1970-01-01T02:30:17.000Z</time>
      </trkpt>
      <trkpt lat="42.237428" lon="2.301106">
        <ele>810</ele>
        <time>1970-01-01T02:30:18.000Z</time>
      </trkpt>
      <trkpt lat="42.23742" lon="2.301075">
        <ele>810</ele>
        <time>1970-01-01T02:30:19.000Z</time>
      </trkpt>
      <trkpt lat="42.237412" lon="2.301045">
        <ele>810</ele>
        <time>1970-01-01T02:30:20.000Z</time>
      </trkpt>
      <trkpt lat="42.237404" lon="2.301014">
        <ele>810</ele>
        <time>1970-01-01T02:30:21.000Z</time>
      </trkpt>
      <trkpt lat="42.237396" lon="2.300984">
        <ele>810</ele>
        <time>1970-01-01T02:30:22.000Z</time>
      </trkpt>
      <trkpt lat="42.237388" lon="2.300953">
        <ele>810</ele>
        <time>1970-01-01T02:30:23.000Z</time>
      </trkpt>
      <trkpt lat="42.23738" lon="2.300923">
        <ele>811</ele>
        <time>1970-01-01T02:30:24.000Z</time>
      </trkpt>
      <trkpt lat="42.237363" lon="2.300848">
        <ele>811</ele>
        <time>1970-01-01T02:30:25.000Z</time>
      </trkpt>
      <trkpt lat="42.237356" lon="2.300808">
        <ele>811</ele>
        <time>1970-01-01T02:30:26.000Z</time>
      </trkpt>
      <trkpt lat="42.23735" lon="2.300768">
        <ele>811</ele>
        <time>1970-01-01T02:30:27.000Z</time>
      </trkpt>
      <trkpt lat="42.237343" lon="2.300728">
        <ele>811</ele>
        <time>1970-01-01T02:30:28.000Z</time>
      </trkpt>
      <trkpt lat="42.237336" lon="2.300688">
        <ele>811</ele>
        <time>1970-01-01T02:30:29.000Z</time>
      </trkpt>
      <trkpt lat="42.237329" lon="2.300649">
        <ele>811</ele>
        <time>1970-01-01T02:30:30.000Z</time>
      </trkpt>
      <trkpt lat="42.237322" lon="2.300609">
        <ele>811</ele>
        <time>1970-01-01T02:30:31.000Z</time>
      </trkpt>
      <trkpt lat="42.237316" lon="2.300569">
        <ele>811</ele>
        <time>1970-01-01T02:30:32.000Z</time>
      </trkpt>
      <trkpt lat="42.237309" lon="2.300529">
        <ele>811</ele>
        <time>1970-01-01T02:30:33.000Z</time>
      </trkpt>
      <trkpt lat="42.237302" lon="2.300489">
        <ele>812</ele>
        <time>1970-01-01T02:30:34.000Z</time>
      </trkpt>
      <trkpt lat="42.237308" lon="2.300386">
        <ele>812</ele>
        <time>1970-01-01T02:30:35.000Z</time>
      </trkpt>
      <trkpt lat="42.237317" lon="2.300337">
        <ele>812</ele>
        <time>1970-01-01T02:30:36.000Z</time>
      </trkpt>
      <trkpt lat="42.237325" lon="2.300289">
        <ele>812</ele>
        <time>1970-01-01T02:30:37.000Z</time>
      </trkpt>
      <trkpt lat="42.237334" lon="2.30024">
        <ele>812</ele>
        <time>1970-01-01T02:30:38.000Z</time>
      </trkpt>
      <trkpt lat="42.237343" lon="2.300191">
        <ele>812</ele>
        <time>1970-01-01T02:30:39.000Z</time>
      </trkpt>
      <trkpt lat="42.237352" lon="2.300142">
        <ele>812</ele>
        <time>1970-01-01T02:30:40.000Z</time>
      </trkpt>
      <trkpt lat="42.237361" lon="2.300093">
        <ele>812</ele>
        <time>1970-01-01T02:30:41.000Z</time>
      </trkpt>
      <trkpt lat="42.237369" lon="2.300045">
        <ele>812</ele>
        <time>1970-01-01T02:30:42.000Z</time>
      </trkpt>
      <trkpt lat="42.237378" lon="2.299996">
        <ele>812</ele>
        <time>1970-01-01T02:30:43.000Z</time>
      </trkpt>
      <trkpt lat="42.237387" lon="2.299947">
        <ele>812</ele>
        <time>1970-01-01T02:30:44.000Z</time>
      </trkpt>
      <trkpt lat="42.237425" lon="2.299848">
        <ele>812</ele>
        <time>1970-01-01T02:30:45.000Z</time>
      </trkpt>
      <trkpt lat="42.237444" lon="2.299797">
        <ele>812</ele>
        <time>1970-01-01T02:30:46.000Z</time>
      </trkpt>
      <trkpt lat="42.237463" lon="2.299747">
        <ele>812</ele>
        <time>1970-01-01T02:30:47.000Z</time>
      </trkpt>
      <trkpt lat="42.237482" lon="2.299696">
        <ele>812</ele>
        <time>1970-01-01T02:30:48.000Z</time>
      </trkpt>
      <trkpt lat="42.237501" lon="2.299646">
        <ele>812</ele>
        <time>1970-01-01T02:30:49.000Z</time>
      </trkpt>
      <trkpt lat="42.237519" lon="2.299596">
        <ele>812</ele>
        <time>1970-01-01T02:30:50.000Z</time>
      </trkpt>
      <trkpt lat="42.237538" lon="2.299545">
        <ele>812</ele>
        <time>1970-01-01T02:30:51.000Z</time>
      </trkpt>
      <trkpt lat="42.237557" lon="2.299495">
        <ele>812</ele>
        <time>1970-01-01T02:30:52.000Z</time>
      </trkpt>
      <trkpt lat="42.237576" lon="2.299444">
        <ele>812</ele>
        <time>1970-01-01T02:30:53.000Z</time>
      </trkpt>
      <trkpt lat="42.237595" lon="2.299394">
        <ele>811</ele>
        <time>1970-01-01T02:30:54.000Z</time>
      </trkpt>
      <trkpt lat="42.237638" lon="2.299253">
        <ele>811</ele>
        <time>1970-01-01T02:30:55.000Z</time>
      </trkpt>
      <trkpt lat="42.237656" lon="2.299177">
        <ele>811</ele>
        <time>1970-01-01T02:30:56.000Z</time>
      </trkpt>
      <trkpt lat="42.237673" lon="2.2991">
        <ele>811</ele>
        <time>1970-01-01T02:30:57.000Z</time>
      </trkpt>
      <trkpt lat="42.237691" lon="2.299024">
        <ele>811</ele>
        <time>1970-01-01T02:30:58.000Z</time>
      </trkpt>
      <trkpt lat="42.237708" lon="2.298947">
        <ele>811</ele>
        <time>1970-01-01T02:30:59.000Z</time>
      </trkpt>
      <trkpt lat="42.237725" lon="2.29887">
        <ele>811</ele>
        <time>1970-01-01T02:31:00.000Z</time>
      </trkpt>
      <trkpt lat="42.237743" lon="2.298794">
        <ele>811</ele>
        <time>1970-01-01T02:31:01.000Z</time>
      </trkpt>
      <trkpt lat="42.23776" lon="2.298717">
        <ele>811</ele>
        <time>1970-01-01T02:31:02.000Z</time>
      </trkpt>
      <trkpt lat="42.237778" lon="2.298641">
        <ele>811</ele>
        <time>1970-01-01T02:31:03.000Z</time>
      </trkpt>
      <trkpt lat="42.237795" lon="2.298564">
        <ele>811</ele>
        <time>1970-01-01T02:31:04.000Z</time>
      </trkpt>
      <trkpt lat="42.2378" lon="2.298458">
        <ele>811</ele>
        <time>1970-01-01T02:31:05.000Z</time>
      </trkpt>
      <trkpt lat="42.237798" lon="2.298346">
        <ele>811</ele>
        <time>1970-01-01T02:31:06.000Z</time>
      </trkpt>
      <trkpt lat="42.237788" lon="2.298232">
        <ele>811</ele>
        <time>1970-01-01T02:31:07.000Z</time>
      </trkpt>
      <trkpt lat="42.23777" lon="2.298115">
        <ele>811</ele>
        <time>1970-01-01T02:31:08.000Z</time>
      </trkpt>
      <trkpt lat="42.237744" lon="2.298">
        <ele>811</ele>
        <time>1970-01-01T02:31:09.000Z</time>
      </trkpt>
      <trkpt lat="42.237708" lon="2.297884">
        <ele>811</ele>
        <time>1970-01-01T02:31:10.000Z</time>
      </trkpt>
      <trkpt lat="42.237666" lon="2.297767">
        <ele>811</ele>
        <time>1970-01-01T02:31:11.000Z</time>
      </trkpt>
      <trkpt lat="42.237614" lon="2.297651">
        <ele>811</ele>
        <time>1970-01-01T02:31:12.000Z</time>
      </trkpt>
      <trkpt lat="42.237556" lon="2.297537">
        <ele>811</ele>
        <time>1970-01-01T02:31:13.000Z</time>
      </trkpt>
      <trkpt lat="42.237488" lon="2.297423">
        <ele>806</ele>
        <time>1970-01-01T02:31:14.000Z</time>
      </trkpt>
      <trkpt lat="42.237419" lon="2.29731">
        <ele>806</ele>
        <time>1970-01-01T02:31:15.000Z</time>
      </trkpt>
      <trkpt lat="42.237344" lon="2.297196">
        <ele>806</ele>
        <time>1970-01-01T02:31:16.000Z</time>
      </trkpt>
      <trkpt lat="42.237269" lon="2.297077">
        <ele>806</ele>
        <time>1970-01-01T02:31:17.000Z</time>
      </trkpt>
      <trkpt lat="42.237194" lon="2.296952">
        <ele>806</ele>
        <time>1970-01-01T02:31:18.000Z</time>
      </trkpt>
      <trkpt lat="42.237124" lon="2.296822">
        <ele>806</ele>
        <time>1970-01-01T02:31:19.000Z</time>
      </trkpt>
      <trkpt lat="42.237061" lon="2.296682">
        <ele>806</ele>
        <time>1970-01-01T02:31:20.000Z</time>
      </trkpt>
      <trkpt lat="42.237004" lon="2.296536">
        <ele>806</ele>
        <time>1970-01-01T02:31:21.000Z</time>
      </trkpt>
      <trkpt lat="42.236948" lon="2.296385">
        <ele>806</ele>
        <time>1970-01-01T02:31:22.000Z</time>
      </trkpt>
      <trkpt lat="42.236871" lon="2.29615">
        <ele>806</ele>
        <time>1970-01-01T02:31:23.000Z</time>
      </trkpt>
      <trkpt lat="42.236845" lon="2.296071">
        <ele>799</ele>
        <time>1970-01-01T02:31:24.000Z</time>
      </trkpt>
      <trkpt lat="42.236794" lon="2.295913">
        <ele>799</ele>
        <time>1970-01-01T02:31:25.000Z</time>
      </trkpt>
      <trkpt lat="42.236743" lon="2.295753">
        <ele>799</ele>
        <time>1970-01-01T02:31:26.000Z</time>
      </trkpt>
      <trkpt lat="42.236692" lon="2.295592">
        <ele>799</ele>
        <time>1970-01-01T02:31:27.000Z</time>
      </trkpt>
      <trkpt lat="42.236644" lon="2.29543">
        <ele>799</ele>
        <time>1970-01-01T02:31:28.000Z</time>
      </trkpt>
      <trkpt lat="42.236594" lon="2.295268">
        <ele>799</ele>
        <time>1970-01-01T02:31:29.000Z</time>
      </trkpt>
      <trkpt lat="42.236546" lon="2.295107">
        <ele>799</ele>
        <time>1970-01-01T02:31:30.000Z</time>
      </trkpt>
      <trkpt lat="42.236496" lon="2.294949">
        <ele>799</ele>
        <time>1970-01-01T02:31:31.000Z</time>
      </trkpt>
      <trkpt lat="42.236416" lon="2.294696">
        <ele>799</ele>
        <time>1970-01-01T02:31:32.000Z</time>
      </trkpt>
      <trkpt lat="42.236386" lon="2.294599">
        <ele>799</ele>
        <time>1970-01-01T02:31:33.000Z</time>
      </trkpt>
      <trkpt lat="42.236356" lon="2.294501">
        <ele>793</ele>
        <time>1970-01-01T02:31:34.000Z</time>
      </trkpt>
      <trkpt lat="42.23631" lon="2.294358">
        <ele>793</ele>
        <time>1970-01-01T02:31:35.000Z</time>
      </trkpt>
      <trkpt lat="42.23627" lon="2.29422">
        <ele>793</ele>
        <time>1970-01-01T02:31:36.000Z</time>
      </trkpt>
      <trkpt lat="42.236231" lon="2.294086">
        <ele>793</ele>
        <time>1970-01-01T02:31:37.000Z</time>
      </trkpt>
      <trkpt lat="42.236192" lon="2.293959">
        <ele>793</ele>
        <time>1970-01-01T02:31:38.000Z</time>
      </trkpt>
      <trkpt lat="42.236154" lon="2.293837">
        <ele>793</ele>
        <time>1970-01-01T02:31:39.000Z</time>
      </trkpt>
      <trkpt lat="42.236118" lon="2.293719">
        <ele>793</ele>
        <time>1970-01-01T02:31:40.000Z</time>
      </trkpt>
      <trkpt lat="42.236082" lon="2.293606">
        <ele>793</ele>
        <time>1970-01-01T02:31:41.000Z</time>
      </trkpt>
      <trkpt lat="42.236048" lon="2.293497">
        <ele>793</ele>
        <time>1970-01-01T02:31:42.000Z</time>
      </trkpt>
      <trkpt lat="42.236016" lon="2.293392">
        <ele>793</ele>
        <time>1970-01-01T02:31:43.000Z</time>
      </trkpt>
      <trkpt lat="42.235984" lon="2.293293">
        <ele>791</ele>
        <time>1970-01-01T02:31:44.000Z</time>
      </trkpt>
      <trkpt lat="42.235939" lon="2.293116">
        <ele>791</ele>
        <time>1970-01-01T02:31:45.000Z</time>
      </trkpt>
      <trkpt lat="42.235925" lon="2.293037">
        <ele>791</ele>
        <time>1970-01-01T02:31:46.000Z</time>
      </trkpt>
      <trkpt lat="42.235912" lon="2.292958">
        <ele>791</ele>
        <time>1970-01-01T02:31:47.000Z</time>
      </trkpt>
      <trkpt lat="42.235898" lon="2.292879">
        <ele>791</ele>
        <time>1970-01-01T02:31:48.000Z</time>
      </trkpt>
      <trkpt lat="42.235885" lon="2.292799">
        <ele>791</ele>
        <time>1970-01-01T02:31:49.000Z</time>
      </trkpt>
      <trkpt lat="42.235871" lon="2.29272">
        <ele>791</ele>
        <time>1970-01-01T02:31:50.000Z</time>
      </trkpt>
      <trkpt lat="42.235858" lon="2.292641">
        <ele>791</ele>
        <time>1970-01-01T02:31:51.000Z</time>
      </trkpt>
      <trkpt lat="42.235844" lon="2.292562">
        <ele>791</ele>
        <time>1970-01-01T02:31:52.000Z</time>
      </trkpt>
      <trkpt lat="42.235831" lon="2.292483">
        <ele>791</ele>
        <time>1970-01-01T02:31:53.000Z</time>
      </trkpt>
      <trkpt lat="42.235817" lon="2.292404">
        <ele>791</ele>
        <time>1970-01-01T02:31:54.000Z</time>
      </trkpt>
      <trkpt lat="42.235801" lon="2.292272">
        <ele>791</ele>
        <time>1970-01-01T02:31:55.000Z</time>
      </trkpt>
      <trkpt lat="42.23579" lon="2.292224">
        <ele>791</ele>
        <time>1970-01-01T02:31:56.000Z</time>
      </trkpt>
      <trkpt lat="42.23578" lon="2.292177">
        <ele>791</ele>
        <time>1970-01-01T02:31:57.000Z</time>
      </trkpt>
      <trkpt lat="42.235769" lon="2.292129">
        <ele>791</ele>
        <time>1970-01-01T02:31:58.000Z</time>
      </trkpt>
      <trkpt lat="42.235758" lon="2.292081">
        <ele>791</ele>
        <time>1970-01-01T02:31:59.000Z</time>
      </trkpt>
      <trkpt lat="42.235747" lon="2.292033">
        <ele>791</ele>
        <time>1970-01-01T02:32:00.000Z</time>
      </trkpt>
      <trkpt lat="42.235736" lon="2.291985">
        <ele>791</ele>
        <time>1970-01-01T02:32:01.000Z</time>
      </trkpt>
      <trkpt lat="42.235726" lon="2.291938">
        <ele>791</ele>
        <time>1970-01-01T02:32:02.000Z</time>
      </trkpt>
      <trkpt lat="42.235715" lon="2.29189">
        <ele>791</ele>
        <time>1970-01-01T02:32:03.000Z</time>
      </trkpt>
      <trkpt lat="42.235704" lon="2.291842">
        <ele>790</ele>
        <time>1970-01-01T02:32:04.000Z</time>
      </trkpt>
      <trkpt lat="42.235678" lon="2.291804">
        <ele>790</ele>
        <time>1970-01-01T02:32:09.000Z</time>
      </trkpt>
      <trkpt lat="42.235659" lon="2.291786">
        <ele>790</ele>
        <time>1970-01-01T02:32:10.000Z</time>
      </trkpt>
      <trkpt lat="42.235641" lon="2.291768">
        <ele>790</ele>
        <time>1970-01-01T02:33:15.000Z</time>
      </trkpt>
      <trkpt lat="42.235622" lon="2.291751">
        <ele>790</ele>
        <time>1970-01-01T02:33:16.000Z</time>
      </trkpt>
      <trkpt lat="42.235604" lon="2.291733">
        <ele>790</ele>
        <time>1970-01-01T02:33:17.000Z</time>
      </trkpt>
      <trkpt lat="42.235586" lon="2.291715">
        <ele>790</ele>
        <time>1970-01-01T02:33:18.000Z</time>
      </trkpt>
      <trkpt lat="42.235567" lon="2.291697">
        <ele>790</ele>
        <time>1970-01-01T02:33:19.000Z</time>
      </trkpt>
      <trkpt lat="42.235549" lon="2.291679">
        <ele>790</ele>
        <time>1970-01-01T02:33:20.000Z</time>
      </trkpt>
      <trkpt lat="42.235531" lon="2.291661">
        <ele>790</ele>
        <time>1970-01-01T02:33:21.000Z</time>
      </trkpt>
      <trkpt lat="42.235512" lon="2.291644">
        <ele>790</ele>
        <time>1970-01-01T02:33:22.000Z</time>
      </trkpt>
      <trkpt lat="42.235494" lon="2.291626">
        <ele>790</ele>
        <time>1970-01-01T02:33:23.000Z</time>
      </trkpt>
      <trkpt lat="42.235475" lon="2.291608">
        <ele>790</ele>
        <time>1970-01-01T02:33:24.000Z</time>
      </trkpt>
      <trkpt lat="42.235457" lon="2.29159">
        <ele>790</ele>
        <time>1970-01-01T02:33:25.000Z</time>
      </trkpt>
      <trkpt lat="42.235419" lon="2.291492">
        <ele>790</ele>
        <time>1970-01-01T02:33:26.000Z</time>
      </trkpt>
      <trkpt lat="42.235401" lon="2.291441">
        <ele>790</ele>
        <time>1970-01-01T02:33:27.000Z</time>
      </trkpt>
      <trkpt lat="42.235382" lon="2.29139">
        <ele>790</ele>
        <time>1970-01-01T02:33:28.000Z</time>
      </trkpt>
      <trkpt lat="42.235364" lon="2.291339">
        <ele>790</ele>
        <time>1970-01-01T02:33:29.000Z</time>
      </trkpt>
      <trkpt lat="42.235346" lon="2.291288">
        <ele>790</ele>
        <time>1970-01-01T02:33:30.000Z</time>
      </trkpt>
      <trkpt lat="42.235328" lon="2.291237">
        <ele>790</ele>
        <time>1970-01-01T02:33:31.000Z</time>
      </trkpt>
      <trkpt lat="42.23531" lon="2.291186">
        <ele>790</ele>
        <time>1970-01-01T02:33:32.000Z</time>
      </trkpt>
      <trkpt lat="42.235291" lon="2.291135">
        <ele>790</ele>
        <time>1970-01-01T02:33:33.000Z</time>
      </trkpt>
      <trkpt lat="42.235273" lon="2.291084">
        <ele>790</ele>
        <time>1970-01-01T02:33:34.000Z</time>
      </trkpt>
      <trkpt lat="42.235255" lon="2.291033">
        <ele>790</ele>
        <time>1970-01-01T02:33:35.000Z</time>
      </trkpt>
      <trkpt lat="42.235202" lon="2.290908">
        <ele>790</ele>
        <time>1970-01-01T02:33:36.000Z</time>
      </trkpt>
      <trkpt lat="42.23518" lon="2.290837">
        <ele>790</ele>
        <time>1970-01-01T02:33:37.000Z</time>
      </trkpt>
      <trkpt lat="42.235157" lon="2.290765">
        <ele>790</ele>
        <time>1970-01-01T02:33:38.000Z</time>
      </trkpt>
      <trkpt lat="42.235134" lon="2.290694">
        <ele>790</ele>
        <time>1970-01-01T02:33:39.000Z</time>
      </trkpt>
      <trkpt lat="42.235112" lon="2.290622">
        <ele>790</ele>
        <time>1970-01-01T02:33:40.000Z</time>
      </trkpt>
      <trkpt lat="42.235089" lon="2.290551">
        <ele>790</ele>
        <time>1970-01-01T02:33:41.000Z</time>
      </trkpt>
      <trkpt lat="42.235066" lon="2.290479">
        <ele>790</ele>
        <time>1970-01-01T02:33:42.000Z</time>
      </trkpt>
      <trkpt lat="42.235043" lon="2.290408">
        <ele>790</ele>
        <time>1970-01-01T02:33:43.000Z</time>
      </trkpt>
      <trkpt lat="42.235021" lon="2.290336">
        <ele>790</ele>
        <time>1970-01-01T02:33:44.000Z</time>
      </trkpt>
      <trkpt lat="42.234998" lon="2.290265">
        <ele>787</ele>
        <time>1970-01-01T02:33:45.000Z</time>
      </trkpt>
      <trkpt lat="42.234938" lon="2.290126">
        <ele>787</ele>
        <time>1970-01-01T02:33:46.000Z</time>
      </trkpt>
      <trkpt lat="42.234906" lon="2.290073">
        <ele>787</ele>
        <time>1970-01-01T02:33:47.000Z</time>
      </trkpt>
      <trkpt lat="42.234875" lon="2.290019">
        <ele>787</ele>
        <time>1970-01-01T02:33:48.000Z</time>
      </trkpt>
      <trkpt lat="42.234843" lon="2.289966">
        <ele>787</ele>
        <time>1970-01-01T02:33:49.000Z</time>
      </trkpt>
      <trkpt lat="42.234812" lon="2.289913">
        <ele>787</ele>
        <time>1970-01-01T02:33:50.000Z</time>
      </trkpt>
      <trkpt lat="42.23478" lon="2.28986">
        <ele>787</ele>
        <time>1970-01-01T02:33:51.000Z</time>
      </trkpt>
      <trkpt lat="42.234749" lon="2.289807">
        <ele>787</ele>
        <time>1970-01-01T02:33:52.000Z</time>
      </trkpt>
      <trkpt lat="42.234717" lon="2.289753">
        <ele>787</ele>
        <time>1970-01-01T02:33:53.000Z</time>
      </trkpt>
      <trkpt lat="42.234686" lon="2.2897">
        <ele>787</ele>
        <time>1970-01-01T02:33:54.000Z</time>
      </trkpt>
      <trkpt lat="42.234654" lon="2.289647">
        <ele>787</ele>
        <time>1970-01-01T02:33:55.000Z</time>
      </trkpt>
      <trkpt lat="42.234588" lon="2.289561">
        <ele>787</ele>
        <time>1970-01-01T02:33:56.000Z</time>
      </trkpt>
      <trkpt lat="42.234566" lon="2.289517">
        <ele>787</ele>
        <time>1970-01-01T02:33:57.000Z</time>
      </trkpt>
      <trkpt lat="42.234545" lon="2.289472">
        <ele>787</ele>
        <time>1970-01-01T02:33:58.000Z</time>
      </trkpt>
      <trkpt lat="42.234523" lon="2.289428">
        <ele>787</ele>
        <time>1970-01-01T02:33:59.000Z</time>
      </trkpt>
      <trkpt lat="42.234501" lon="2.289383">
        <ele>787</ele>
        <time>1970-01-01T02:34:00.000Z</time>
      </trkpt>
      <trkpt lat="42.234479" lon="2.289338">
        <ele>787</ele>
        <time>1970-01-01T02:34:01.000Z</time>
      </trkpt>
      <trkpt lat="42.234457" lon="2.289294">
        <ele>787</ele>
        <time>1970-01-01T02:34:02.000Z</time>
      </trkpt>
      <trkpt lat="42.234436" lon="2.289249">
        <ele>787</ele>
        <time>1970-01-01T02:34:03.000Z</time>
      </trkpt>
      <trkpt lat="42.234414" lon="2.289205">
        <ele>787</ele>
        <time>1970-01-01T02:34:04.000Z</time>
      </trkpt>
      <trkpt lat="42.234392" lon="2.28916">
        <ele>786</ele>
        <time>1970-01-01T02:34:05.000Z</time>
      </trkpt>
      <trkpt lat="42.234389" lon="2.289073">
        <ele>786</ele>
        <time>1970-01-01T02:34:06.000Z</time>
      </trkpt>
      <trkpt lat="42.234395" lon="2.289031">
        <ele>786</ele>
        <time>1970-01-01T02:34:07.000Z</time>
      </trkpt>
      <trkpt lat="42.234401" lon="2.28899">
        <ele>786</ele>
        <time>1970-01-01T02:34:08.000Z</time>
      </trkpt>
      <trkpt lat="42.234407" lon="2.288949">
        <ele>786</ele>
        <time>1970-01-01T02:34:09.000Z</time>
      </trkpt>
      <trkpt lat="42.234413" lon="2.288908">
        <ele>786</ele>
        <time>1970-01-01T02:34:10.000Z</time>
      </trkpt>
      <trkpt lat="42.234418" lon="2.288866">
        <ele>786</ele>
        <time>1970-01-01T02:34:11.000Z</time>
      </trkpt>
      <trkpt lat="42.234424" lon="2.288825">
        <ele>786</ele>
        <time>1970-01-01T02:34:12.000Z</time>
      </trkpt>
      <trkpt lat="42.23443" lon="2.288784">
        <ele>786</ele>
        <time>1970-01-01T02:34:13.000Z</time>
      </trkpt>
      <trkpt lat="42.234436" lon="2.288742">
        <ele>786</ele>
        <time>1970-01-01T02:34:14.000Z</time>
      </trkpt>
      <trkpt lat="42.234442" lon="2.288701">
        <ele>785</ele>
        <time>1970-01-01T02:34:15.000Z</time>
      </trkpt>
      <trkpt lat="42.234458" lon="2.288588">
        <ele>785</ele>
        <time>1970-01-01T02:34:16.000Z</time>
      </trkpt>
      <trkpt lat="42.234457" lon="2.288524">
        <ele>785</ele>
        <time>1970-01-01T02:34:17.000Z</time>
      </trkpt>
      <trkpt lat="42.234456" lon="2.288459">
        <ele>785</ele>
        <time>1970-01-01T02:34:18.000Z</time>
      </trkpt>
      <trkpt lat="42.234455" lon="2.288395">
        <ele>785</ele>
        <time>1970-01-01T02:34:19.000Z</time>
      </trkpt>
      <trkpt lat="42.234455" lon="2.288331">
        <ele>785</ele>
        <time>1970-01-01T02:34:20.000Z</time>
      </trkpt>
      <trkpt lat="42.234454" lon="2.288267">
        <ele>785</ele>
        <time>1970-01-01T02:34:21.000Z</time>
      </trkpt>
      <trkpt lat="42.234453" lon="2.288203">
        <ele>785</ele>
        <time>1970-01-01T02:34:22.000Z</time>
      </trkpt>
      <trkpt lat="42.234452" lon="2.288138">
        <ele>785</ele>
        <time>1970-01-01T02:34:23.000Z</time>
      </trkpt>
      <trkpt lat="42.234451" lon="2.288074">
        <ele>785</ele>
        <time>1970-01-01T02:34:24.000Z</time>
      </trkpt>
      <trkpt lat="42.23445" lon="2.28801">
        <ele>783</ele>
        <time>1970-01-01T02:34:25.000Z</time>
      </trkpt>
      <trkpt lat="42.2344" lon="2.287863">
        <ele>783</ele>
        <time>1970-01-01T02:34:26.000Z</time>
      </trkpt>
      <trkpt lat="42.234376" lon="2.287794">
        <ele>783</ele>
        <time>1970-01-01T02:34:27.000Z</time>
      </trkpt>
      <trkpt lat="42.234351" lon="2.287725">
        <ele>783</ele>
        <time>1970-01-01T02:34:28.000Z</time>
      </trkpt>
      <trkpt lat="42.234327" lon="2.287656">
        <ele>783</ele>
        <time>1970-01-01T02:34:29.000Z</time>
      </trkpt>
      <trkpt lat="42.234302" lon="2.287586">
        <ele>783</ele>
        <time>1970-01-01T02:34:30.000Z</time>
      </trkpt>
      <trkpt lat="42.234277" lon="2.287517">
        <ele>783</ele>
        <time>1970-01-01T02:34:31.000Z</time>
      </trkpt>
      <trkpt lat="42.234253" lon="2.287448">
        <ele>783</ele>
        <time>1970-01-01T02:34:32.000Z</time>
      </trkpt>
      <trkpt lat="42.234228" lon="2.287379">
        <ele>783</ele>
        <time>1970-01-01T02:34:33.000Z</time>
      </trkpt>
      <trkpt lat="42.234204" lon="2.28731">
        <ele>783</ele>
        <time>1970-01-01T02:34:34.000Z</time>
      </trkpt>
      <trkpt lat="42.234179" lon="2.287241">
        <ele>779</ele>
        <time>1970-01-01T02:34:35.000Z</time>
      </trkpt>
      <trkpt lat="42.234132" lon="2.287102">
        <ele>779</ele>
        <time>1970-01-01T02:34:36.000Z</time>
      </trkpt>
      <trkpt lat="42.234112" lon="2.287037">
        <ele>779</ele>
        <time>1970-01-01T02:34:37.000Z</time>
      </trkpt>
      <trkpt lat="42.234092" lon="2.286973">
        <ele>779</ele>
        <time>1970-01-01T02:34:38.000Z</time>
      </trkpt>
      <trkpt lat="42.234072" lon="2.286908">
        <ele>779</ele>
        <time>1970-01-01T02:34:39.000Z</time>
      </trkpt>
      <trkpt lat="42.234052" lon="2.286844">
        <ele>779</ele>
        <time>1970-01-01T02:34:40.000Z</time>
      </trkpt>
      <trkpt lat="42.234032" lon="2.28678">
        <ele>779</ele>
        <time>1970-01-01T02:34:41.000Z</time>
      </trkpt>
      <trkpt lat="42.234012" lon="2.286715">
        <ele>779</ele>
        <time>1970-01-01T02:34:42.000Z</time>
      </trkpt>
      <trkpt lat="42.233992" lon="2.286651">
        <ele>779</ele>
        <time>1970-01-01T02:34:43.000Z</time>
      </trkpt>
      <trkpt lat="42.233972" lon="2.286586">
        <ele>779</ele>
        <time>1970-01-01T02:34:44.000Z</time>
      </trkpt>
      <trkpt lat="42.233952" lon="2.286522">
        <ele>779</ele>
        <time>1970-01-01T02:34:45.000Z</time>
      </trkpt>
      <trkpt lat="42.233925" lon="2.28643">
        <ele>779</ele>
        <time>1970-01-01T02:34:46.000Z</time>
      </trkpt>
      <trkpt lat="42.233916" lon="2.2864">
        <ele>779</ele>
        <time>1970-01-01T02:34:47.000Z</time>
      </trkpt>
      <trkpt lat="42.233907" lon="2.286371">
        <ele>779</ele>
        <time>1970-01-01T02:34:48.000Z</time>
      </trkpt>
      <trkpt lat="42.233898" lon="2.286341">
        <ele>779</ele>
        <time>1970-01-01T02:34:49.000Z</time>
      </trkpt>
      <trkpt lat="42.233888" lon="2.286311">
        <ele>779</ele>
        <time>1970-01-01T02:34:50.000Z</time>
      </trkpt>
      <trkpt lat="42.233879" lon="2.286281">
        <ele>779</ele>
        <time>1970-01-01T02:34:51.000Z</time>
      </trkpt>
      <trkpt lat="42.23387" lon="2.286252">
        <ele>779</ele>
        <time>1970-01-01T02:34:53.000Z</time>
      </trkpt>
      <trkpt lat="42.233861" lon="2.286222">
        <ele>779</ele>
        <time>1970-01-01T02:34:55.000Z</time>
      </trkpt>
      <trkpt lat="42.233865" lon="2.2862">
        <ele>777</ele>
        <time>1970-01-01T02:34:58.000Z</time>
      </trkpt>
      <trkpt lat="42.23387" lon="2.286179">
        <ele>777</ele>
        <time>1970-01-01T02:34:59.000Z</time>
      </trkpt>
      <trkpt lat="42.233874" lon="2.286157">
        <ele>777</ele>
        <time>1970-01-01T02:35:09.000Z</time>
      </trkpt>
      <trkpt lat="42.233879" lon="2.286136">
        <ele>777</ele>
        <time>1970-01-01T02:35:10.000Z</time>
      </trkpt>
      <trkpt lat="42.233883" lon="2.286114">
        <ele>777</ele>
        <time>1970-01-01T02:35:11.000Z</time>
      </trkpt>
      <trkpt lat="42.233887" lon="2.286093">
        <ele>777</ele>
        <time>1970-01-01T02:35:16.000Z</time>
      </trkpt>
      <trkpt lat="42.233892" lon="2.286071">
        <ele>777</ele>
        <time>1970-01-01T02:35:17.000Z</time>
      </trkpt>
      <trkpt lat="42.233896" lon="2.28605">
        <ele>778</ele>
        <time>1970-01-01T02:35:28.000Z</time>
      </trkpt>
      <trkpt lat="42.2339" lon="2.286028">
        <ele>778</ele>
        <time>1970-01-01T02:35:29.000Z</time>
      </trkpt>
      <trkpt lat="42.233905" lon="2.286006">
        <ele>778</ele>
        <time>1970-01-01T02:35:31.000Z</time>
      </trkpt>
      <trkpt lat="42.233909" lon="2.285985">
        <ele>778</ele>
        <time>1970-01-01T02:35:32.000Z</time>
      </trkpt>
      <trkpt lat="42.233914" lon="2.285963">
        <ele>778</ele>
        <time>1970-01-01T02:35:33.000Z</time>
      </trkpt>
      <trkpt lat="42.233918" lon="2.285942">
        <ele>778</ele>
        <time>1970-01-01T02:35:35.000Z</time>
      </trkpt>
      <trkpt lat="42.233922" lon="2.28592">
        <ele>778</ele>
        <time>1970-01-01T02:35:36.000Z</time>
      </trkpt>
      <trkpt lat="42.233927" lon="2.285899">
        <ele>778</ele>
        <time>1970-01-01T02:35:37.000Z</time>
      </trkpt>
      <trkpt lat="42.233931" lon="2.285877">
        <ele>778</ele>
        <time>1970-01-01T02:35:38.000Z</time>
      </trkpt>
      <trkpt lat="42.233935" lon="2.28581">
        <ele>778</ele>
        <time>1970-01-01T02:35:39.000Z</time>
      </trkpt>
      <trkpt lat="42.233928" lon="2.285774">
        <ele>778</ele>
        <time>1970-01-01T02:35:40.000Z</time>
      </trkpt>
      <trkpt lat="42.233922" lon="2.285739">
        <ele>778</ele>
        <time>1970-01-01T02:35:41.000Z</time>
      </trkpt>
      <trkpt lat="42.233915" lon="2.285703">
        <ele>778</ele>
        <time>1970-01-01T02:35:42.000Z</time>
      </trkpt>
      <trkpt lat="42.233909" lon="2.285667">
        <ele>778</ele>
        <time>1970-01-01T02:35:43.000Z</time>
      </trkpt>
      <trkpt lat="42.233902" lon="2.285631">
        <ele>778</ele>
        <time>1970-01-01T02:35:44.000Z</time>
      </trkpt>
      <trkpt lat="42.233896" lon="2.285595">
        <ele>778</ele>
        <time>1970-01-01T02:35:45.000Z</time>
      </trkpt>
      <trkpt lat="42.233889" lon="2.28556">
        <ele>778</ele>
        <time>1970-01-01T02:35:46.000Z</time>
      </trkpt>
      <trkpt lat="42.233883" lon="2.285524">
        <ele>778</ele>
        <time>1970-01-01T02:35:47.000Z</time>
      </trkpt>
      <trkpt lat="42.233876" lon="2.285488">
        <ele>778</ele>
        <time>1970-01-01T02:35:48.000Z</time>
      </trkpt>
      <trkpt lat="42.233857" lon="2.285387">
        <ele>778</ele>
        <time>1970-01-01T02:35:49.000Z</time>
      </trkpt>
      <trkpt lat="42.233854" lon="2.285335">
        <ele>778</ele>
        <time>1970-01-01T02:35:50.000Z</time>
      </trkpt>
      <trkpt lat="42.233852" lon="2.285283">
        <ele>778</ele>
        <time>1970-01-01T02:35:51.000Z</time>
      </trkpt>
      <trkpt lat="42.233849" lon="2.285231">
        <ele>778</ele>
        <time>1970-01-01T02:35:52.000Z</time>
      </trkpt>
      <trkpt lat="42.233847" lon="2.285178">
        <ele>778</ele>
        <time>1970-01-01T02:35:53.000Z</time>
      </trkpt>
      <trkpt lat="42.233845" lon="2.285126">
        <ele>778</ele>
        <time>1970-01-01T02:35:54.000Z</time>
      </trkpt>
      <trkpt lat="42.233842" lon="2.285074">
        <ele>778</ele>
        <time>1970-01-01T02:35:55.000Z</time>
      </trkpt>
      <trkpt lat="42.23384" lon="2.285022">
        <ele>778</ele>
        <time>1970-01-01T02:35:56.000Z</time>
      </trkpt>
      <trkpt lat="42.233837" lon="2.28497">
        <ele>778</ele>
        <time>1970-01-01T02:35:57.000Z</time>
      </trkpt>
      <trkpt lat="42.233835" lon="2.284918">
        <ele>777</ele>
        <time>1970-01-01T02:35:58.000Z</time>
      </trkpt>
      <trkpt lat="42.233918" lon="2.284827">
        <ele>777</ele>
        <time>1970-01-01T02:35:59.000Z</time>
      </trkpt>
      <trkpt lat="42.233959" lon="2.284791">
        <ele>777</ele>
        <time>1970-01-01T02:36:00.000Z</time>
      </trkpt>
      <trkpt lat="42.233999" lon="2.284754">
        <ele>777</ele>
        <time>1970-01-01T02:36:01.000Z</time>
      </trkpt>
      <trkpt lat="42.23404" lon="2.284717">
        <ele>777</ele>
        <time>1970-01-01T02:36:02.000Z</time>
      </trkpt>
      <trkpt lat="42.234081" lon="2.284681">
        <ele>777</ele>
        <time>1970-01-01T02:36:03.000Z</time>
      </trkpt>
      <trkpt lat="42.234122" lon="2.284644">
        <ele>777</ele>
        <time>1970-01-01T02:36:04.000Z</time>
      </trkpt>
      <trkpt lat="42.234163" lon="2.284607">
        <ele>777</ele>
        <time>1970-01-01T02:36:05.000Z</time>
      </trkpt>
      <trkpt lat="42.234203" lon="2.28457">
        <ele>777</ele>
        <time>1970-01-01T02:36:06.000Z</time>
      </trkpt>
      <trkpt lat="42.234244" lon="2.284534">
        <ele>777</ele>
        <time>1970-01-01T02:36:07.000Z</time>
      </trkpt>
      <trkpt lat="42.234285" lon="2.284497">
        <ele>776</ele>
        <time>1970-01-01T02:36:08.000Z</time>
      </trkpt>
      <trkpt lat="42.234333" lon="2.284457">
        <ele>776</ele>
        <time>1970-01-01T02:36:09.000Z</time>
      </trkpt>
      <trkpt lat="42.234352" lon="2.284441">
        <ele>776</ele>
        <time>1970-01-01T02:36:10.000Z</time>
      </trkpt>
      <trkpt lat="42.23437" lon="2.284425">
        <ele>776</ele>
        <time>1970-01-01T02:36:11.000Z</time>
      </trkpt>
      <trkpt lat="42.234389" lon="2.284409">
        <ele>776</ele>
        <time>1970-01-01T02:36:12.000Z</time>
      </trkpt>
      <trkpt lat="42.234407" lon="2.284393">
        <ele>776</ele>
        <time>1970-01-01T02:36:13.000Z</time>
      </trkpt>
      <trkpt lat="42.234425" lon="2.284377">
        <ele>776</ele>
        <time>1970-01-01T02:36:14.000Z</time>
      </trkpt>
      <trkpt lat="42.234444" lon="2.284361">
        <ele>776</ele>
        <time>1970-01-01T02:36:15.000Z</time>
      </trkpt>
      <trkpt lat="42.234462" lon="2.284345">
        <ele>776</ele>
        <time>1970-01-01T02:36:16.000Z</time>
      </trkpt>
      <trkpt lat="42.234481" lon="2.284329">
        <ele>776</ele>
        <time>1970-01-01T02:36:17.000Z</time>
      </trkpt>
      <trkpt lat="42.234499" lon="2.284313">
        <ele>776</ele>
        <time>1970-01-01T02:36:18.000Z</time>
      </trkpt>
      <trkpt lat="42.234538" lon="2.284276">
        <ele>776</ele>
        <time>1970-01-01T02:36:19.000Z</time>
      </trkpt>
      <trkpt lat="42.234558" lon="2.284257">
        <ele>776</ele>
        <time>1970-01-01T02:36:20.000Z</time>
      </trkpt>
      <trkpt lat="42.234579" lon="2.284237">
        <ele>776</ele>
        <time>1970-01-01T02:36:21.000Z</time>
      </trkpt>
      <trkpt lat="42.234599" lon="2.284217">
        <ele>776</ele>
        <time>1970-01-01T02:36:22.000Z</time>
      </trkpt>
      <trkpt lat="42.23462" lon="2.284198">
        <ele>776</ele>
        <time>1970-01-01T02:36:23.000Z</time>
      </trkpt>
      <trkpt lat="42.234641" lon="2.284178">
        <ele>776</ele>
        <time>1970-01-01T02:36:24.000Z</time>
      </trkpt>
      <trkpt lat="42.234661" lon="2.284158">
        <ele>776</ele>
        <time>1970-01-01T02:36:25.000Z</time>
      </trkpt>
      <trkpt lat="42.234682" lon="2.284138">
        <ele>776</ele>
        <time>1970-01-01T02:36:26.000Z</time>
      </trkpt>
      <trkpt lat="42.234702" lon="2.284119">
        <ele>776</ele>
        <time>1970-01-01T02:36:27.000Z</time>
      </trkpt>
      <trkpt lat="42.234723" lon="2.284099">
        <ele>776</ele>
        <time>1970-01-01T02:36:28.000Z</time>
      </trkpt>
      <trkpt lat="42.234766" lon="2.284058">
        <ele>776</ele>
        <time>1970-01-01T02:36:29.000Z</time>
      </trkpt>
      <trkpt lat="42.234787" lon="2.284039">
        <ele>776</ele>
        <time>1970-01-01T02:36:30.000Z</time>
      </trkpt>
      <trkpt lat="42.234807" lon="2.284019">
        <ele>776</ele>
        <time>1970-01-01T02:36:31.000Z</time>
      </trkpt>
      <trkpt lat="42.234828" lon="2.284">
        <ele>776</ele>
        <time>1970-01-01T02:36:32.000Z</time>
      </trkpt>
      <trkpt lat="42.234849" lon="2.283981">
        <ele>776</ele>
        <time>1970-01-01T02:36:33.000Z</time>
      </trkpt>
      <trkpt lat="42.23487" lon="2.283962">
        <ele>776</ele>
        <time>1970-01-01T02:36:34.000Z</time>
      </trkpt>
      <trkpt lat="42.234891" lon="2.283943">
        <ele>776</ele>
        <time>1970-01-01T02:36:35.000Z</time>
      </trkpt>
      <trkpt lat="42.234911" lon="2.283923">
        <ele>776</ele>
        <time>1970-01-01T02:36:36.000Z</time>
      </trkpt>
      <trkpt lat="42.234932" lon="2.283904">
        <ele>776</ele>
        <time>1970-01-01T02:36:37.000Z</time>
      </trkpt>
      <trkpt lat="42.234953" lon="2.283885">
        <ele>775</ele>
        <time>1970-01-01T02:36:38.000Z</time>
      </trkpt>
      <trkpt lat="42.235005" lon="2.283834">
        <ele>775</ele>
        <time>1970-01-01T02:36:39.000Z</time>
      </trkpt>
      <trkpt lat="42.235029" lon="2.28381">
        <ele>775</ele>
        <time>1970-01-01T02:36:40.000Z</time>
      </trkpt>
      <trkpt lat="42.235054" lon="2.283787">
        <ele>775</ele>
        <time>1970-01-01T02:36:41.000Z</time>
      </trkpt>
      <trkpt lat="42.235078" lon="2.283763">
        <ele>775</ele>
        <time>1970-01-01T02:36:42.000Z</time>
      </trkpt>
      <trkpt lat="42.235103" lon="2.283739">
        <ele>775</ele>
        <time>1970-01-01T02:36:43.000Z</time>
      </trkpt>
      <trkpt lat="42.235128" lon="2.283715">
        <ele>775</ele>
        <time>1970-01-01T02:36:44.000Z</time>
      </trkpt>
      <trkpt lat="42.235152" lon="2.283691">
        <ele>775</ele>
        <time>1970-01-01T02:36:45.000Z</time>
      </trkpt>
      <trkpt lat="42.235177" lon="2.283668">
        <ele>775</ele>
        <time>1970-01-01T02:36:46.000Z</time>
      </trkpt>
      <trkpt lat="42.235201" lon="2.283644">
        <ele>775</ele>
        <time>1970-01-01T02:36:47.000Z</time>
      </trkpt>
      <trkpt lat="42.235226" lon="2.28362">
        <ele>776</ele>
        <time>1970-01-01T02:36:48.000Z</time>
      </trkpt>
      <trkpt lat="42.235283" lon="2.283573">
        <ele>776</ele>
        <time>1970-01-01T02:36:49.000Z</time>
      </trkpt>
      <trkpt lat="42.235309" lon="2.283553">
        <ele>776</ele>
        <time>1970-01-01T02:36:50.000Z</time>
      </trkpt>
      <trkpt lat="42.235335" lon="2.283534">
        <ele>776</ele>
        <time>1970-01-01T02:36:51.000Z</time>
      </trkpt>
      <trkpt lat="42.235361" lon="2.283514">
        <ele>776</ele>
        <time>1970-01-01T02:36:52.000Z</time>
      </trkpt>
      <trkpt lat="42.235387" lon="2.283494">
        <ele>776</ele>
        <time>1970-01-01T02:36:53.000Z</time>
      </trkpt>
      <trkpt lat="42.235412" lon="2.283474">
        <ele>776</ele>
        <time>1970-01-01T02:36:54.000Z</time>
      </trkpt>
      <trkpt lat="42.235438" lon="2.283454">
        <ele>776</ele>
        <time>1970-01-01T02:36:55.000Z</time>
      </trkpt>
      <trkpt lat="42.235464" lon="2.283435">
        <ele>776</ele>
        <time>1970-01-01T02:36:56.000Z</time>
      </trkpt>
      <trkpt lat="42.23549" lon="2.283415">
        <ele>776</ele>
        <time>1970-01-01T02:36:57.000Z</time>
      </trkpt>
      <trkpt lat="42.235516" lon="2.283395">
        <ele>777</ele>
        <time>1970-01-01T02:36:58.000Z</time>
      </trkpt>
      <trkpt lat="42.235558" lon="2.283341">
        <ele>777</ele>
        <time>1970-01-01T02:36:59.000Z</time>
      </trkpt>
      <trkpt lat="42.235574" lon="2.28331">
        <ele>777</ele>
        <time>1970-01-01T02:37:00.000Z</time>
      </trkpt>
      <trkpt lat="42.235591" lon="2.283279">
        <ele>777</ele>
        <time>1970-01-01T02:37:01.000Z</time>
      </trkpt>
      <trkpt lat="42.235608" lon="2.283248">
        <ele>777</ele>
        <time>1970-01-01T02:37:02.000Z</time>
      </trkpt>
      <trkpt lat="42.235625" lon="2.283217">
        <ele>777</ele>
        <time>1970-01-01T02:37:03.000Z</time>
      </trkpt>
      <trkpt lat="42.235641" lon="2.283186">
        <ele>777</ele>
        <time>1970-01-01T02:37:04.000Z</time>
      </trkpt>
      <trkpt lat="42.235658" lon="2.283155">
        <ele>777</ele>
        <time>1970-01-01T02:37:05.000Z</time>
      </trkpt>
      <trkpt lat="42.235675" lon="2.283124">
        <ele>777</ele>
        <time>1970-01-01T02:37:06.000Z</time>
      </trkpt>
      <trkpt lat="42.235691" lon="2.283093">
        <ele>777</ele>
        <time>1970-01-01T02:37:07.000Z</time>
      </trkpt>
      <trkpt lat="42.235708" lon="2.283062">
        <ele>778</ele>
        <time>1970-01-01T02:37:08.000Z</time>
      </trkpt>
      <trkpt lat="42.235701" lon="2.282974">
        <ele>778</ele>
        <time>1970-01-01T02:37:09.000Z</time>
      </trkpt>
      <trkpt lat="42.235689" lon="2.282933">
        <ele>778</ele>
        <time>1970-01-01T02:37:10.000Z</time>
      </trkpt>
      <trkpt lat="42.235676" lon="2.282892">
        <ele>778</ele>
        <time>1970-01-01T02:37:11.000Z</time>
      </trkpt>
      <trkpt lat="42.235664" lon="2.282851">
        <ele>778</ele>
        <time>1970-01-01T02:37:12.000Z</time>
      </trkpt>
      <trkpt lat="42.235652" lon="2.282809">
        <ele>778</ele>
        <time>1970-01-01T02:37:13.000Z</time>
      </trkpt>
      <trkpt lat="42.23564" lon="2.282768">
        <ele>778</ele>
        <time>1970-01-01T02:37:14.000Z</time>
      </trkpt>
      <trkpt lat="42.235628" lon="2.282727">
        <ele>778</ele>
        <time>1970-01-01T02:37:15.000Z</time>
      </trkpt>
      <trkpt lat="42.235615" lon="2.282686">
        <ele>778</ele>
        <time>1970-01-01T02:37:16.000Z</time>
      </trkpt>
      <trkpt lat="42.235603" lon="2.282645">
        <ele>778</ele>
        <time>1970-01-01T02:37:17.000Z</time>
      </trkpt>
      <trkpt lat="42.235591" lon="2.282604">
        <ele>779</ele>
        <time>1970-01-01T02:37:18.000Z</time>
      </trkpt>
      <trkpt lat="42.235543" lon="2.282539">
        <ele>779</ele>
        <time>1970-01-01T02:37:19.000Z</time>
      </trkpt>
      <trkpt lat="42.235519" lon="2.28251">
        <ele>779</ele>
        <time>1970-01-01T02:37:20.000Z</time>
      </trkpt>
      <trkpt lat="42.235495" lon="2.28248">
        <ele>779</ele>
        <time>1970-01-01T02:37:21.000Z</time>
      </trkpt>
      <trkpt lat="42.235471" lon="2.282451">
        <ele>779</ele>
        <time>1970-01-01T02:37:22.000Z</time>
      </trkpt>
      <trkpt lat="42.235447" lon="2.282422">
        <ele>779</ele>
        <time>1970-01-01T02:37:23.000Z</time>
      </trkpt>
      <trkpt lat="42.235422" lon="2.282393">
        <ele>779</ele>
        <time>1970-01-01T02:37:24.000Z</time>
      </trkpt>
      <trkpt lat="42.235398" lon="2.282364">
        <ele>779</ele>
        <time>1970-01-01T02:37:25.000Z</time>
      </trkpt>
      <trkpt lat="42.235374" lon="2.282334">
        <ele>779</ele>
        <time>1970-01-01T02:37:26.000Z</time>
      </trkpt>
      <trkpt lat="42.23535" lon="2.282305">
        <ele>779</ele>
        <time>1970-01-01T02:37:27.000Z</time>
      </trkpt>
      <trkpt lat="42.235326" lon="2.282276">
        <ele>779</ele>
        <time>1970-01-01T02:37:28.000Z</time>
      </trkpt>
      <trkpt lat="42.235261" lon="2.282235">
        <ele>779</ele>
        <time>1970-01-01T02:37:29.000Z</time>
      </trkpt>
      <trkpt lat="42.235228" lon="2.282222">
        <ele>779</ele>
        <time>1970-01-01T02:37:30.000Z</time>
      </trkpt>
      <trkpt lat="42.235195" lon="2.282209">
        <ele>779</ele>
        <time>1970-01-01T02:37:31.000Z</time>
      </trkpt>
      <trkpt lat="42.235162" lon="2.282196">
        <ele>779</ele>
        <time>1970-01-01T02:37:32.000Z</time>
      </trkpt>
      <trkpt lat="42.235129" lon="2.282183">
        <ele>779</ele>
        <time>1970-01-01T02:37:33.000Z</time>
      </trkpt>
      <trkpt lat="42.235096" lon="2.28217">
        <ele>779</ele>
        <time>1970-01-01T02:37:34.000Z</time>
      </trkpt>
      <trkpt lat="42.235063" lon="2.282157">
        <ele>779</ele>
        <time>1970-01-01T02:37:35.000Z</time>
      </trkpt>
      <trkpt lat="42.23503" lon="2.282144">
        <ele>779</ele>
        <time>1970-01-01T02:37:36.000Z</time>
      </trkpt>
      <trkpt lat="42.234997" lon="2.282131">
        <ele>779</ele>
        <time>1970-01-01T02:37:37.000Z</time>
      </trkpt>
      <trkpt lat="42.234964" lon="2.282118">
        <ele>781</ele>
        <time>1970-01-01T02:37:38.000Z</time>
      </trkpt>
      <trkpt lat="42.234906" lon="2.28207">
        <ele>781</ele>
        <time>1970-01-01T02:37:39.000Z</time>
      </trkpt>
      <trkpt lat="42.234885" lon="2.282034">
        <ele>781</ele>
        <time>1970-01-01T02:37:40.000Z</time>
      </trkpt>
      <trkpt lat="42.234863" lon="2.281997">
        <ele>781</ele>
        <time>1970-01-01T02:37:41.000Z</time>
      </trkpt>
      <trkpt lat="42.234842" lon="2.281961">
        <ele>781</ele>
        <time>1970-01-01T02:37:42.000Z</time>
      </trkpt>
      <trkpt lat="42.234821" lon="2.281924">
        <ele>781</ele>
        <time>1970-01-01T02:37:43.000Z</time>
      </trkpt>
      <trkpt lat="42.2348" lon="2.281888">
        <ele>781</ele>
        <time>1970-01-01T02:37:44.000Z</time>
      </trkpt>
      <trkpt lat="42.234779" lon="2.281851">
        <ele>781</ele>
        <time>1970-01-01T02:37:45.000Z</time>
      </trkpt>
      <trkpt lat="42.234757" lon="2.281815">
        <ele>781</ele>
        <time>1970-01-01T02:37:46.000Z</time>
      </trkpt>
      <trkpt lat="42.234736" lon="2.281778">
        <ele>781</ele>
        <time>1970-01-01T02:37:47.000Z</time>
      </trkpt>
      <trkpt lat="42.234715" lon="2.281742">
        <ele>781</ele>
        <time>1970-01-01T02:37:48.000Z</time>
      </trkpt>
      <trkpt lat="42.234686" lon="2.281652">
        <ele>781</ele>
        <time>1970-01-01T02:37:49.000Z</time>
      </trkpt>
      <trkpt lat="42.234672" lon="2.28161">
        <ele>781</ele>
        <time>1970-01-01T02:37:50.000Z</time>
      </trkpt>
      <trkpt lat="42.234657" lon="2.281567">
        <ele>781</ele>
        <time>1970-01-01T02:37:51.000Z</time>
      </trkpt>
      <trkpt lat="42.234643" lon="2.281524">
        <ele>781</ele>
        <time>1970-01-01T02:37:52.000Z</time>
      </trkpt>
      <trkpt lat="42.234629" lon="2.281481">
        <ele>781</ele>
        <time>1970-01-01T02:37:53.000Z</time>
      </trkpt>
      <trkpt lat="42.234615" lon="2.281439">
        <ele>781</ele>
        <time>1970-01-01T02:37:54.000Z</time>
      </trkpt>
      <trkpt lat="42.234601" lon="2.281396">
        <ele>781</ele>
        <time>1970-01-01T02:37:55.000Z</time>
      </trkpt>
      <trkpt lat="42.234586" lon="2.281353">
        <ele>781</ele>
        <time>1970-01-01T02:37:56.000Z</time>
      </trkpt>
      <trkpt lat="42.234572" lon="2.281311">
        <ele>781</ele>
        <time>1970-01-01T02:37:57.000Z</time>
      </trkpt>
      <trkpt lat="42.234558" lon="2.281268">
        <ele>782</ele>
        <time>1970-01-01T02:37:58.000Z</time>
      </trkpt>
      <trkpt lat="42.234544" lon="2.281173">
        <ele>782</ele>
        <time>1970-01-01T02:37:59.000Z</time>
      </trkpt>
      <trkpt lat="42.234544" lon="2.281126">
        <ele>782</ele>
        <time>1970-01-01T02:38:00.000Z</time>
      </trkpt>
      <trkpt lat="42.234544" lon="2.28108">
        <ele>782</ele>
        <time>1970-01-01T02:38:01.000Z</time>
      </trkpt>
      <trkpt lat="42.234544" lon="2.281033">
        <ele>782</ele>
        <time>1970-01-01T02:38:02.000Z</time>
      </trkpt>
      <trkpt lat="42.234544" lon="2.280986">
        <ele>782</ele>
        <time>1970-01-01T02:38:03.000Z</time>
      </trkpt>
      <trkpt lat="42.234544" lon="2.280939">
        <ele>782</ele>
        <time>1970-01-01T02:38:04.000Z</time>
      </trkpt>
      <trkpt lat="42.234544" lon="2.280892">
        <ele>782</ele>
        <time>1970-01-01T02:38:05.000Z</time>
      </trkpt>
      <trkpt lat="42.234544" lon="2.280846">
        <ele>782</ele>
        <time>1970-01-01T02:38:06.000Z</time>
      </trkpt>
      <trkpt lat="42.234544" lon="2.280799">
        <ele>782</ele>
        <time>1970-01-01T02:38:07.000Z</time>
      </trkpt>
      <trkpt lat="42.234544" lon="2.280752">
        <ele>783</ele>
        <time>1970-01-01T02:38:08.000Z</time>
      </trkpt>
      <trkpt lat="42.234571" lon="2.280658">
        <ele>783</ele>
        <time>1970-01-01T02:38:09.000Z</time>
      </trkpt>
      <trkpt lat="42.234583" lon="2.280612">
        <ele>783</ele>
        <time>1970-01-01T02:38:10.000Z</time>
      </trkpt>
      <trkpt lat="42.234596" lon="2.280567">
        <ele>783</ele>
        <time>1970-01-01T02:38:11.000Z</time>
      </trkpt>
      <trkpt lat="42.234609" lon="2.280521">
        <ele>783</ele>
        <time>1970-01-01T02:38:12.000Z</time>
      </trkpt>
      <trkpt lat="42.234622" lon="2.280476">
        <ele>783</ele>
        <time>1970-01-01T02:38:13.000Z</time>
      </trkpt>
      <trkpt lat="42.234634" lon="2.28043">
        <ele>783</ele>
        <time>1970-01-01T02:38:14.000Z</time>
      </trkpt>
      <trkpt lat="42.234647" lon="2.280385">
        <ele>783</ele>
        <time>1970-01-01T02:38:15.000Z</time>
      </trkpt>
      <trkpt lat="42.23466" lon="2.280339">
        <ele>783</ele>
        <time>1970-01-01T02:38:16.000Z</time>
      </trkpt>
      <trkpt lat="42.234672" lon="2.280294">
        <ele>783</ele>
        <time>1970-01-01T02:38:17.000Z</time>
      </trkpt>
      <trkpt lat="42.234685" lon="2.280248">
        <ele>784</ele>
        <time>1970-01-01T02:38:18.000Z</time>
      </trkpt>
      <trkpt lat="42.234696" lon="2.280139">
        <ele>784</ele>
        <time>1970-01-01T02:38:19.000Z</time>
      </trkpt>
      <trkpt lat="42.234698" lon="2.280084">
        <ele>784</ele>
        <time>1970-01-01T02:38:20.000Z</time>
      </trkpt>
      <trkpt lat="42.234699" lon="2.28003">
        <ele>784</ele>
        <time>1970-01-01T02:38:21.000Z</time>
      </trkpt>
      <trkpt lat="42.2347" lon="2.279976">
        <ele>784</ele>
        <time>1970-01-01T02:38:22.000Z</time>
      </trkpt>
      <trkpt lat="42.234702" lon="2.279922">
        <ele>784</ele>
        <time>1970-01-01T02:38:23.000Z</time>
      </trkpt>
      <trkpt lat="42.234703" lon="2.279867">
        <ele>784</ele>
        <time>1970-01-01T02:38:24.000Z</time>
      </trkpt>
      <trkpt lat="42.234704" lon="2.279813">
        <ele>784</ele>
        <time>1970-01-01T02:38:25.000Z</time>
      </trkpt>
      <trkpt lat="42.234705" lon="2.279759">
        <ele>784</ele>
        <time>1970-01-01T02:38:26.000Z</time>
      </trkpt>
      <trkpt lat="42.234707" lon="2.279704">
        <ele>784</ele>
        <time>1970-01-01T02:38:27.000Z</time>
      </trkpt>
      <trkpt lat="42.234708" lon="2.27965">
        <ele>784</ele>
        <time>1970-01-01T02:38:28.000Z</time>
      </trkpt>
      <trkpt lat="42.234685" lon="2.279539">
        <ele>784</ele>
        <time>1970-01-01T02:38:29.000Z</time>
      </trkpt>
      <trkpt lat="42.234669" lon="2.279488">
        <ele>784</ele>
        <time>1970-01-01T02:38:30.000Z</time>
      </trkpt>
      <trkpt lat="42.234654" lon="2.279438">
        <ele>784</ele>
        <time>1970-01-01T02:38:31.000Z</time>
      </trkpt>
      <trkpt lat="42.234639" lon="2.279388">
        <ele>784</ele>
        <time>1970-01-01T02:38:32.000Z</time>
      </trkpt>
      <trkpt lat="42.234624" lon="2.279337">
        <ele>784</ele>
        <time>1970-01-01T02:38:33.000Z</time>
      </trkpt>
      <trkpt lat="42.234608" lon="2.279287">
        <ele>784</ele>
        <time>1970-01-01T02:38:34.000Z</time>
      </trkpt>
      <trkpt lat="42.234593" lon="2.279237">
        <ele>784</ele>
        <time>1970-01-01T02:38:35.000Z</time>
      </trkpt>
      <trkpt lat="42.234578" lon="2.279187">
        <ele>784</ele>
        <time>1970-01-01T02:38:36.000Z</time>
      </trkpt>
      <trkpt lat="42.234562" lon="2.279136">
        <ele>784</ele>
        <time>1970-01-01T02:38:37.000Z</time>
      </trkpt>
      <trkpt lat="42.234547" lon="2.279086">
        <ele>783</ele>
        <time>1970-01-01T02:38:38.000Z</time>
      </trkpt>
      <trkpt lat="42.234482" lon="2.279025">
        <ele>783</ele>
        <time>1970-01-01T02:38:39.000Z</time>
      </trkpt>
      <trkpt lat="42.234442" lon="2.279009">
        <ele>783</ele>
        <time>1970-01-01T02:38:40.000Z</time>
      </trkpt>
      <trkpt lat="42.234403" lon="2.278992">
        <ele>783</ele>
        <time>1970-01-01T02:38:41.000Z</time>
      </trkpt>
      <trkpt lat="42.234363" lon="2.278976">
        <ele>783</ele>
        <time>1970-01-01T02:38:42.000Z</time>
      </trkpt>
      <trkpt lat="42.234324" lon="2.27896">
        <ele>783</ele>
        <time>1970-01-01T02:38:43.000Z</time>
      </trkpt>
      <trkpt lat="42.234285" lon="2.278944">
        <ele>783</ele>
        <time>1970-01-01T02:38:44.000Z</time>
      </trkpt>
      <trkpt lat="42.234245" lon="2.278928">
        <ele>783</ele>
        <time>1970-01-01T02:38:45.000Z</time>
      </trkpt>
      <trkpt lat="42.234206" lon="2.278911">
        <ele>783</ele>
        <time>1970-01-01T02:38:46.000Z</time>
      </trkpt>
      <trkpt lat="42.234166" lon="2.278895">
        <ele>783</ele>
        <time>1970-01-01T02:38:47.000Z</time>
      </trkpt>
      <trkpt lat="42.234127" lon="2.278879">
        <ele>783</ele>
        <time>1970-01-01T02:38:48.000Z</time>
      </trkpt>
      <trkpt lat="42.234035" lon="2.278859">
        <ele>783</ele>
        <time>1970-01-01T02:38:49.000Z</time>
      </trkpt>
      <trkpt lat="42.233991" lon="2.278852">
        <ele>783</ele>
        <time>1970-01-01T02:38:50.000Z</time>
      </trkpt>
      <trkpt lat="42.233948" lon="2.278844">
        <ele>783</ele>
        <time>1970-01-01T02:38:51.000Z</time>
      </trkpt>
      <trkpt lat="42.233904" lon="2.278836">
        <ele>783</ele>
        <time>1970-01-01T02:38:52.000Z</time>
      </trkpt>
      <trkpt lat="42.233861" lon="2.278828">
        <ele>783</ele>
        <time>1970-01-01T02:38:53.000Z</time>
      </trkpt>
      <trkpt lat="42.233818" lon="2.278821">
        <ele>783</ele>
        <time>1970-01-01T02:38:54.000Z</time>
      </trkpt>
      <trkpt lat="42.233774" lon="2.278813">
        <ele>783</ele>
        <time>1970-01-01T02:38:55.000Z</time>
      </trkpt>
      <trkpt lat="42.233731" lon="2.278805">
        <ele>783</ele>
        <time>1970-01-01T02:38:56.000Z</time>
      </trkpt>
      <trkpt lat="42.233687" lon="2.278798">
        <ele>783</ele>
        <time>1970-01-01T02:38:57.000Z</time>
      </trkpt>
      <trkpt lat="42.233644" lon="2.27879">
        <ele>782</ele>
        <time>1970-01-01T02:38:58.000Z</time>
      </trkpt>
      <trkpt lat="42.23355" lon="2.278752">
        <ele>782</ele>
        <time>1970-01-01T02:38:59.000Z</time>
      </trkpt>
      <trkpt lat="42.233507" lon="2.278725">
        <ele>782</ele>
        <time>1970-01-01T02:39:00.000Z</time>
      </trkpt>
      <trkpt lat="42.233463" lon="2.278698">
        <ele>782</ele>
        <time>1970-01-01T02:39:01.000Z</time>
      </trkpt>
      <trkpt lat="42.233419" lon="2.278671">
        <ele>782</ele>
        <time>1970-01-01T02:39:02.000Z</time>
      </trkpt>
      <trkpt lat="42.233376" lon="2.278644">
        <ele>782</ele>
        <time>1970-01-01T02:39:03.000Z</time>
      </trkpt>
      <trkpt lat="42.233332" lon="2.278618">
        <ele>782</ele>
        <time>1970-01-01T02:39:04.000Z</time>
      </trkpt>
      <trkpt lat="42.233288" lon="2.278591">
        <ele>782</ele>
        <time>1970-01-01T02:39:05.000Z</time>
      </trkpt>
      <trkpt lat="42.233244" lon="2.278564">
        <ele>782</ele>
        <time>1970-01-01T02:39:06.000Z</time>
      </trkpt>
      <trkpt lat="42.233201" lon="2.278537">
        <ele>782</ele>
        <time>1970-01-01T02:39:07.000Z</time>
      </trkpt>
      <trkpt lat="42.233157" lon="2.27851">
        <ele>782</ele>
        <time>1970-01-01T02:39:08.000Z</time>
      </trkpt>
      <trkpt lat="42.233084" lon="2.278396">
        <ele>782</ele>
        <time>1970-01-01T02:39:09.000Z</time>
      </trkpt>
      <trkpt lat="42.233052" lon="2.278334">
        <ele>782</ele>
        <time>1970-01-01T02:39:10.000Z</time>
      </trkpt>
      <trkpt lat="42.233019" lon="2.278272">
        <ele>782</ele>
        <time>1970-01-01T02:39:11.000Z</time>
      </trkpt>
      <trkpt lat="42.232987" lon="2.27821">
        <ele>782</ele>
        <time>1970-01-01T02:39:12.000Z</time>
      </trkpt>
      <trkpt lat="42.232955" lon="2.278148">
        <ele>782</ele>
        <time>1970-01-01T02:39:13.000Z</time>
      </trkpt>
      <trkpt lat="42.232923" lon="2.278086">
        <ele>782</ele>
        <time>1970-01-01T02:39:14.000Z</time>
      </trkpt>
      <trkpt lat="42.232891" lon="2.278024">
        <ele>782</ele>
        <time>1970-01-01T02:39:15.000Z</time>
      </trkpt>
      <trkpt lat="42.232858" lon="2.277962">
        <ele>782</ele>
        <time>1970-01-01T02:39:16.000Z</time>
      </trkpt>
      <trkpt lat="42.232826" lon="2.2779">
        <ele>782</ele>
        <time>1970-01-01T02:39:17.000Z</time>
      </trkpt>
      <trkpt lat="42.232794" lon="2.277838">
        <ele>780</ele>
        <time>1970-01-01T02:39:18.000Z</time>
      </trkpt>
      <trkpt lat="42.232746" lon="2.277679">
        <ele>780</ele>
        <time>1970-01-01T02:39:19.000Z</time>
      </trkpt>
      <trkpt lat="42.232727" lon="2.277602">
        <ele>780</ele>
        <time>1970-01-01T02:39:20.000Z</time>
      </trkpt>
      <trkpt lat="42.232707" lon="2.277525">
        <ele>780</ele>
        <time>1970-01-01T02:39:21.000Z</time>
      </trkpt>
      <trkpt lat="42.232688" lon="2.277448">
        <ele>780</ele>
        <time>1970-01-01T02:39:22.000Z</time>
      </trkpt>
      <trkpt lat="42.232669" lon="2.27737">
        <ele>780</ele>
        <time>1970-01-01T02:39:23.000Z</time>
      </trkpt>
      <trkpt lat="42.23265" lon="2.277293">
        <ele>780</ele>
        <time>1970-01-01T02:39:24.000Z</time>
      </trkpt>
      <trkpt lat="42.232631" lon="2.277216">
        <ele>780</ele>
        <time>1970-01-01T02:39:25.000Z</time>
      </trkpt>
      <trkpt lat="42.232611" lon="2.277139">
        <ele>780</ele>
        <time>1970-01-01T02:39:26.000Z</time>
      </trkpt>
      <trkpt lat="42.232592" lon="2.277062">
        <ele>780</ele>
        <time>1970-01-01T02:39:27.000Z</time>
      </trkpt>
      <trkpt lat="42.232573" lon="2.276985">
        <ele>780</ele>
        <time>1970-01-01T02:39:28.000Z</time>
      </trkpt>
      <trkpt lat="42.232533" lon="2.27682">
        <ele>780</ele>
        <time>1970-01-01T02:39:29.000Z</time>
      </trkpt>
      <trkpt lat="42.232515" lon="2.276743">
        <ele>780</ele>
        <time>1970-01-01T02:39:30.000Z</time>
      </trkpt>
      <trkpt lat="42.232496" lon="2.276666">
        <ele>780</ele>
        <time>1970-01-01T02:39:31.000Z</time>
      </trkpt>
      <trkpt lat="42.232478" lon="2.276589">
        <ele>780</ele>
        <time>1970-01-01T02:39:32.000Z</time>
      </trkpt>
      <trkpt lat="42.232459" lon="2.276512">
        <ele>780</ele>
        <time>1970-01-01T02:39:33.000Z</time>
      </trkpt>
      <trkpt lat="42.23244" lon="2.276436">
        <ele>780</ele>
        <time>1970-01-01T02:39:34.000Z</time>
      </trkpt>
      <trkpt lat="42.232422" lon="2.276359">
        <ele>780</ele>
        <time>1970-01-01T02:39:35.000Z</time>
      </trkpt>
      <trkpt lat="42.232403" lon="2.276282">
        <ele>780</ele>
        <time>1970-01-01T02:39:36.000Z</time>
      </trkpt>
      <trkpt lat="42.232385" lon="2.276205">
        <ele>780</ele>
        <time>1970-01-01T02:39:37.000Z</time>
      </trkpt>
      <trkpt lat="42.232366" lon="2.276128">
        <ele>779</ele>
        <time>1970-01-01T02:39:38.000Z</time>
      </trkpt>
      <trkpt lat="42.232326" lon="2.275967">
        <ele>779</ele>
        <time>1970-01-01T02:39:39.000Z</time>
      </trkpt>
      <trkpt lat="42.232306" lon="2.275891">
        <ele>779</ele>
        <time>1970-01-01T02:39:40.000Z</time>
      </trkpt>
      <trkpt lat="42.232287" lon="2.275815">
        <ele>779</ele>
        <time>1970-01-01T02:39:41.000Z</time>
      </trkpt>
      <trkpt lat="42.232268" lon="2.275739">
        <ele>779</ele>
        <time>1970-01-01T02:39:42.000Z</time>
      </trkpt>
      <trkpt lat="42.232249" lon="2.275663">
        <ele>779</ele>
        <time>1970-01-01T02:39:43.000Z</time>
      </trkpt>
      <trkpt lat="42.232229" lon="2.275588">
        <ele>779</ele>
        <time>1970-01-01T02:39:44.000Z</time>
      </trkpt>
      <trkpt lat="42.23221" lon="2.275512">
        <ele>779</ele>
        <time>1970-01-01T02:39:45.000Z</time>
      </trkpt>
      <trkpt lat="42.232191" lon="2.275436">
        <ele>779</ele>
        <time>1970-01-01T02:39:46.000Z</time>
      </trkpt>
      <trkpt lat="42.232171" lon="2.27536">
        <ele>779</ele>
        <time>1970-01-01T02:39:47.000Z</time>
      </trkpt>
      <trkpt lat="42.232152" lon="2.275284">
        <ele>778</ele>
        <time>1970-01-01T02:39:48.000Z</time>
      </trkpt>
      <trkpt lat="42.232107" lon="2.275126">
        <ele>778</ele>
        <time>1970-01-01T02:39:49.000Z</time>
      </trkpt>
      <trkpt lat="42.232084" lon="2.275051">
        <ele>778</ele>
        <time>1970-01-01T02:39:50.000Z</time>
      </trkpt>
      <trkpt lat="42.232061" lon="2.274977">
        <ele>778</ele>
        <time>1970-01-01T02:39:51.000Z</time>
      </trkpt>
      <trkpt lat="42.232038" lon="2.274902">
        <ele>778</ele>
        <time>1970-01-01T02:39:52.000Z</time>
      </trkpt>
      <trkpt lat="42.232015" lon="2.274828">
        <ele>778</ele>
        <time>1970-01-01T02:39:53.000Z</time>
      </trkpt>
      <trkpt lat="42.231992" lon="2.274754">
        <ele>778</ele>
        <time>1970-01-01T02:39:54.000Z</time>
      </trkpt>
      <trkpt lat="42.231969" lon="2.274679">
        <ele>778</ele>
        <time>1970-01-01T02:39:55.000Z</time>
      </trkpt>
      <trkpt lat="42.231946" lon="2.274605">
        <ele>778</ele>
        <time>1970-01-01T02:39:56.000Z</time>
      </trkpt>
      <trkpt lat="42.231923" lon="2.27453">
        <ele>778</ele>
        <time>1970-01-01T02:39:57.000Z</time>
      </trkpt>
      <trkpt lat="42.2319" lon="2.274456">
        <ele>777</ele>
        <time>1970-01-01T02:39:58.000Z</time>
      </trkpt>
      <trkpt lat="42.231824" lon="2.274307">
        <ele>777</ele>
        <time>1970-01-01T02:39:59.000Z</time>
      </trkpt>
      <trkpt lat="42.231784" lon="2.274241">
        <ele>777</ele>
        <time>1970-01-01T02:40:00.000Z</time>
      </trkpt>
      <trkpt lat="42.231744" lon="2.274174">
        <ele>777</ele>
        <time>1970-01-01T02:40:01.000Z</time>
      </trkpt>
      <trkpt lat="42.231704" lon="2.274108">
        <ele>777</ele>
        <time>1970-01-01T02:40:02.000Z</time>
      </trkpt>
      <trkpt lat="42.231664" lon="2.274041">
        <ele>777</ele>
        <time>1970-01-01T02:40:03.000Z</time>
      </trkpt>
      <trkpt lat="42.231623" lon="2.273975">
        <ele>777</ele>
        <time>1970-01-01T02:40:04.000Z</time>
      </trkpt>
      <trkpt lat="42.231583" lon="2.273908">
        <ele>777</ele>
        <time>1970-01-01T02:40:05.000Z</time>
      </trkpt>
      <trkpt lat="42.231543" lon="2.273842">
        <ele>777</ele>
        <time>1970-01-01T02:40:06.000Z</time>
      </trkpt>
      <trkpt lat="42.231503" lon="2.273775">
        <ele>777</ele>
        <time>1970-01-01T02:40:07.000Z</time>
      </trkpt>
      <trkpt lat="42.231463" lon="2.273709">
        <ele>777</ele>
        <time>1970-01-01T02:40:08.000Z</time>
      </trkpt>
      <trkpt lat="42.231379" lon="2.273567">
        <ele>777</ele>
        <time>1970-01-01T02:40:09.000Z</time>
      </trkpt>
      <trkpt lat="42.231339" lon="2.273495">
        <ele>777</ele>
        <time>1970-01-01T02:40:10.000Z</time>
      </trkpt>
      <trkpt lat="42.2313" lon="2.273422">
        <ele>777</ele>
        <time>1970-01-01T02:40:11.000Z</time>
      </trkpt>
      <trkpt lat="42.23126" lon="2.27335">
        <ele>777</ele>
        <time>1970-01-01T02:40:12.000Z</time>
      </trkpt>
      <trkpt lat="42.23122" lon="2.273277">
        <ele>777</ele>
        <time>1970-01-01T02:40:13.000Z</time>
      </trkpt>
      <trkpt lat="42.23118" lon="2.273204">
        <ele>777</ele>
        <time>1970-01-01T02:40:14.000Z</time>
      </trkpt>
      <trkpt lat="42.23114" lon="2.273132">
        <ele>777</ele>
        <time>1970-01-01T02:40:15.000Z</time>
      </trkpt>
      <trkpt lat="42.231101" lon="2.273059">
        <ele>777</ele>
        <time>1970-01-01T02:40:16.000Z</time>
      </trkpt>
      <trkpt lat="42.231061" lon="2.272987">
        <ele>777</ele>
        <time>1970-01-01T02:40:17.000Z</time>
      </trkpt>
      <trkpt lat="42.231021" lon="2.272914">
        <ele>775</ele>
        <time>1970-01-01T02:40:18.000Z</time>
      </trkpt>
      <trkpt lat="42.230973" lon="2.27282">
        <ele>775</ele>
        <time>1970-01-01T02:40:19.000Z</time>
      </trkpt>
      <trkpt lat="42.230924" lon="2.272724">
        <ele>775</ele>
        <time>1970-01-01T02:40:20.000Z</time>
      </trkpt>
      <trkpt lat="42.230874" lon="2.272624">
        <ele>775</ele>
        <time>1970-01-01T02:40:21.000Z</time>
      </trkpt>
      <trkpt lat="42.230824" lon="2.272522">
        <ele>775</ele>
        <time>1970-01-01T02:40:22.000Z</time>
      </trkpt>
      <trkpt lat="42.230772" lon="2.272418">
        <ele>775</ele>
        <time>1970-01-01T02:40:23.000Z</time>
      </trkpt>
      <trkpt lat="42.230719" lon="2.27231">
        <ele>775</ele>
        <time>1970-01-01T02:40:24.000Z</time>
      </trkpt>
      <trkpt lat="42.230664" lon="2.272204">
        <ele>775</ele>
        <time>1970-01-01T02:40:25.000Z</time>
      </trkpt>
      <trkpt lat="42.230607" lon="2.272094">
        <ele>775</ele>
        <time>1970-01-01T02:40:26.000Z</time>
      </trkpt>
      <trkpt lat="42.230549" lon="2.271983">
        <ele>775</ele>
        <time>1970-01-01T02:40:27.000Z</time>
      </trkpt>
      <trkpt lat="42.23049" lon="2.271868">
        <ele>769</ele>
        <time>1970-01-01T02:40:28.000Z</time>
      </trkpt>
      <trkpt lat="42.230431" lon="2.271754">
        <ele>769</ele>
        <time>1970-01-01T02:40:29.000Z</time>
      </trkpt>
      <trkpt lat="42.230371" lon="2.271636">
        <ele>769</ele>
        <time>1970-01-01T02:40:30.000Z</time>
      </trkpt>
      <trkpt lat="42.23031" lon="2.271518">
        <ele>769</ele>
        <time>1970-01-01T02:40:31.000Z</time>
      </trkpt>
      <trkpt lat="42.230248" lon="2.271398">
        <ele>769</ele>
        <time>1970-01-01T02:40:32.000Z</time>
      </trkpt>
      <trkpt lat="42.230187" lon="2.27128">
        <ele>769</ele>
        <time>1970-01-01T02:40:33.000Z</time>
      </trkpt>
      <trkpt lat="42.230127" lon="2.271162">
        <ele>769</ele>
        <time>1970-01-01T02:40:34.000Z</time>
      </trkpt>
      <trkpt lat="42.230066" lon="2.271046">
        <ele>769</ele>
        <time>1970-01-01T02:40:35.000Z</time>
      </trkpt>
      <trkpt lat="42.230007" lon="2.27093">
        <ele>769</ele>
        <time>1970-01-01T02:40:36.000Z</time>
      </trkpt>
      <trkpt lat="42.229921" lon="2.270763">
        <ele>769</ele>
        <time>1970-01-01T02:40:37.000Z</time>
      </trkpt>
      <trkpt lat="42.229893" lon="2.270709">
        <ele>765</ele>
        <time>1970-01-01T02:40:38.000Z</time>
      </trkpt>
      <trkpt lat="42.229794" lon="2.270514">
        <ele>765</ele>
        <time>1970-01-01T02:40:39.000Z</time>
      </trkpt>
      <trkpt lat="42.229751" lon="2.270428">
        <ele>765</ele>
        <time>1970-01-01T02:40:40.000Z</time>
      </trkpt>
      <trkpt lat="42.229707" lon="2.270341">
        <ele>765</ele>
        <time>1970-01-01T02:40:41.000Z</time>
      </trkpt>
      <trkpt lat="42.229664" lon="2.270255">
        <ele>765</ele>
        <time>1970-01-01T02:40:42.000Z</time>
      </trkpt>
      <trkpt lat="42.229621" lon="2.270169">
        <ele>765</ele>
        <time>1970-01-01T02:40:43.000Z</time>
      </trkpt>
      <trkpt lat="42.229578" lon="2.270083">
        <ele>765</ele>
        <time>1970-01-01T02:40:44.000Z</time>
      </trkpt>
      <trkpt lat="42.229535" lon="2.269997">
        <ele>765</ele>
        <time>1970-01-01T02:40:45.000Z</time>
      </trkpt>
      <trkpt lat="42.229491" lon="2.26991">
        <ele>765</ele>
        <time>1970-01-01T02:40:46.000Z</time>
      </trkpt>
      <trkpt lat="42.229448" lon="2.269824">
        <ele>765</ele>
        <time>1970-01-01T02:40:47.000Z</time>
      </trkpt>
      <trkpt lat="42.229405" lon="2.269738">
        <ele>763</ele>
        <time>1970-01-01T02:40:48.000Z</time>
      </trkpt>
      <trkpt lat="42.22932" lon="2.269571">
        <ele>763</ele>
        <time>1970-01-01T02:40:49.000Z</time>
      </trkpt>
      <trkpt lat="42.22928" lon="2.269492">
        <ele>763</ele>
        <time>1970-01-01T02:40:50.000Z</time>
      </trkpt>
      <trkpt lat="42.229239" lon="2.269412">
        <ele>763</ele>
        <time>1970-01-01T02:40:51.000Z</time>
      </trkpt>
      <trkpt lat="42.229199" lon="2.269333">
        <ele>763</ele>
        <time>1970-01-01T02:40:52.000Z</time>
      </trkpt>
      <trkpt lat="42.229159" lon="2.269253">
        <ele>763</ele>
        <time>1970-01-01T02:40:53.000Z</time>
      </trkpt>
      <trkpt lat="42.229119" lon="2.269173">
        <ele>763</ele>
        <time>1970-01-01T02:40:54.000Z</time>
      </trkpt>
      <trkpt lat="42.229079" lon="2.269094">
        <ele>763</ele>
        <time>1970-01-01T02:40:55.000Z</time>
      </trkpt>
      <trkpt lat="42.229038" lon="2.269014">
        <ele>763</ele>
        <time>1970-01-01T02:40:56.000Z</time>
      </trkpt>
      <trkpt lat="42.228998" lon="2.268935">
        <ele>763</ele>
        <time>1970-01-01T02:40:57.000Z</time>
      </trkpt>
      <trkpt lat="42.228958" lon="2.268855">
        <ele>763</ele>
        <time>1970-01-01T02:40:58.000Z</time>
      </trkpt>
      <trkpt lat="42.228876" lon="2.268676">
        <ele>763</ele>
        <time>1970-01-01T02:40:59.000Z</time>
      </trkpt>
      <trkpt lat="42.228839" lon="2.268588">
        <ele>763</ele>
        <time>1970-01-01T02:41:00.000Z</time>
      </trkpt>
      <trkpt lat="42.228803" lon="2.268499">
        <ele>763</ele>
        <time>1970-01-01T02:41:01.000Z</time>
      </trkpt>
      <trkpt lat="42.228766" lon="2.268411">
        <ele>763</ele>
        <time>1970-01-01T02:41:02.000Z</time>
      </trkpt>
      <trkpt lat="42.22873" lon="2.268322">
        <ele>763</ele>
        <time>1970-01-01T02:41:03.000Z</time>
      </trkpt>
      <trkpt lat="42.228693" lon="2.268234">
        <ele>763</ele>
        <time>1970-01-01T02:41:04.000Z</time>
      </trkpt>
      <trkpt lat="42.228657" lon="2.268145">
        <ele>763</ele>
        <time>1970-01-01T02:41:05.000Z</time>
      </trkpt>
      <trkpt lat="42.22862" lon="2.268057">
        <ele>763</ele>
        <time>1970-01-01T02:41:06.000Z</time>
      </trkpt>
      <trkpt lat="42.228584" lon="2.267968">
        <ele>763</ele>
        <time>1970-01-01T02:41:07.000Z</time>
      </trkpt>
      <trkpt lat="42.228547" lon="2.26788">
        <ele>761</ele>
        <time>1970-01-01T02:41:08.000Z</time>
      </trkpt>
      <trkpt lat="42.228513" lon="2.267666">
        <ele>761</ele>
        <time>1970-01-01T02:41:09.000Z</time>
      </trkpt>
      <trkpt lat="42.228502" lon="2.267564">
        <ele>761</ele>
        <time>1970-01-01T02:41:10.000Z</time>
      </trkpt>
      <trkpt lat="42.228492" lon="2.267463">
        <ele>761</ele>
        <time>1970-01-01T02:41:11.000Z</time>
      </trkpt>
      <trkpt lat="42.228481" lon="2.267361">
        <ele>761</ele>
        <time>1970-01-01T02:41:12.000Z</time>
      </trkpt>
      <trkpt lat="42.228471" lon="2.267259">
        <ele>761</ele>
        <time>1970-01-01T02:41:13.000Z</time>
      </trkpt>
      <trkpt lat="42.228461" lon="2.267157">
        <ele>761</ele>
        <time>1970-01-01T02:41:14.000Z</time>
      </trkpt>
      <trkpt lat="42.22845" lon="2.267055">
        <ele>761</ele>
        <time>1970-01-01T02:41:15.000Z</time>
      </trkpt>
      <trkpt lat="42.22844" lon="2.266954">
        <ele>761</ele>
        <time>1970-01-01T02:41:16.000Z</time>
      </trkpt>
      <trkpt lat="42.228429" lon="2.266852">
        <ele>761</ele>
        <time>1970-01-01T02:41:17.000Z</time>
      </trkpt>
      <trkpt lat="42.228419" lon="2.26675">
        <ele>759</ele>
        <time>1970-01-01T02:41:18.000Z</time>
      </trkpt>
      <trkpt lat="42.228399" lon="2.266555">
        <ele>759</ele>
        <time>1970-01-01T02:41:19.000Z</time>
      </trkpt>
      <trkpt lat="42.22839" lon="2.266467">
        <ele>759</ele>
        <time>1970-01-01T02:41:20.000Z</time>
      </trkpt>
      <trkpt lat="42.228381" lon="2.266379">
        <ele>759</ele>
        <time>1970-01-01T02:41:21.000Z</time>
      </trkpt>
      <trkpt lat="42.228372" lon="2.266291">
        <ele>759</ele>
        <time>1970-01-01T02:41:22.000Z</time>
      </trkpt>
      <trkpt lat="42.228364" lon="2.266202">
        <ele>759</ele>
        <time>1970-01-01T02:41:23.000Z</time>
      </trkpt>
      <trkpt lat="42.228355" lon="2.266114">
        <ele>759</ele>
        <time>1970-01-01T02:41:24.000Z</time>
      </trkpt>
      <trkpt lat="42.228346" lon="2.266026">
        <ele>759</ele>
        <time>1970-01-01T02:41:25.000Z</time>
      </trkpt>
      <trkpt lat="42.228337" lon="2.265938">
        <ele>759</ele>
        <time>1970-01-01T02:41:26.000Z</time>
      </trkpt>
      <trkpt lat="42.228328" lon="2.26585">
        <ele>759</ele>
        <time>1970-01-01T02:41:27.000Z</time>
      </trkpt>
      <trkpt lat="42.228319" lon="2.265762">
        <ele>758</ele>
        <time>1970-01-01T02:41:28.000Z</time>
      </trkpt>
      <trkpt lat="42.228301" lon="2.265579">
        <ele>758</ele>
        <time>1970-01-01T02:41:29.000Z</time>
      </trkpt>
      <trkpt lat="42.228292" lon="2.265493">
        <ele>758</ele>
        <time>1970-01-01T02:41:30.000Z</time>
      </trkpt>
      <trkpt lat="42.228283" lon="2.265406">
        <ele>758</ele>
        <time>1970-01-01T02:41:31.000Z</time>
      </trkpt>
      <trkpt lat="42.228274" lon="2.265319">
        <ele>758</ele>
        <time>1970-01-01T02:41:32.000Z</time>
      </trkpt>
      <trkpt lat="42.228265" lon="2.265232">
        <ele>758</ele>
        <time>1970-01-01T02:41:33.000Z</time>
      </trkpt>
      <trkpt lat="42.228255" lon="2.265146">
        <ele>758</ele>
        <time>1970-01-01T02:41:34.000Z</time>
      </trkpt>
      <trkpt lat="42.228246" lon="2.265059">
        <ele>758</ele>
        <time>1970-01-01T02:41:35.000Z</time>
      </trkpt>
      <trkpt lat="42.228237" lon="2.264972">
        <ele>758</ele>
        <time>1970-01-01T02:41:36.000Z</time>
      </trkpt>
      <trkpt lat="42.228228" lon="2.264886">
        <ele>758</ele>
        <time>1970-01-01T02:41:37.000Z</time>
      </trkpt>
      <trkpt lat="42.228219" lon="2.264799">
        <ele>756</ele>
        <time>1970-01-01T02:41:38.000Z</time>
      </trkpt>
      <trkpt lat="42.228199" lon="2.264614">
        <ele>756</ele>
        <time>1970-01-01T02:41:39.000Z</time>
      </trkpt>
      <trkpt lat="42.22819" lon="2.264523">
        <ele>756</ele>
        <time>1970-01-01T02:41:40.000Z</time>
      </trkpt>
      <trkpt lat="42.22818" lon="2.264432">
        <ele>756</ele>
        <time>1970-01-01T02:41:41.000Z</time>
      </trkpt>
      <trkpt lat="42.22817" lon="2.264341">
        <ele>756</ele>
        <time>1970-01-01T02:41:42.000Z</time>
      </trkpt>
      <trkpt lat="42.228161" lon="2.26425">
        <ele>756</ele>
        <time>1970-01-01T02:41:43.000Z</time>
      </trkpt>
      <trkpt lat="42.228151" lon="2.26416">
        <ele>756</ele>
        <time>1970-01-01T02:41:44.000Z</time>
      </trkpt>
      <trkpt lat="42.228141" lon="2.264069">
        <ele>756</ele>
        <time>1970-01-01T02:41:45.000Z</time>
      </trkpt>
      <trkpt lat="42.228131" lon="2.263978">
        <ele>756</ele>
        <time>1970-01-01T02:41:46.000Z</time>
      </trkpt>
      <trkpt lat="42.228122" lon="2.263887">
        <ele>756</ele>
        <time>1970-01-01T02:41:47.000Z</time>
      </trkpt>
      <trkpt lat="42.228112" lon="2.263796">
        <ele>755</ele>
        <time>1970-01-01T02:41:48.000Z</time>
      </trkpt>
      <trkpt lat="42.22809" lon="2.263588">
        <ele>755</ele>
        <time>1970-01-01T02:41:49.000Z</time>
      </trkpt>
      <trkpt lat="42.22808" lon="2.263487">
        <ele>755</ele>
        <time>1970-01-01T02:41:50.000Z</time>
      </trkpt>
      <trkpt lat="42.228071" lon="2.263386">
        <ele>755</ele>
        <time>1970-01-01T02:41:51.000Z</time>
      </trkpt>
      <trkpt lat="42.228061" lon="2.263285">
        <ele>755</ele>
        <time>1970-01-01T02:41:52.000Z</time>
      </trkpt>
      <trkpt lat="42.228052" lon="2.263183">
        <ele>755</ele>
        <time>1970-01-01T02:41:53.000Z</time>
      </trkpt>
      <trkpt lat="42.228042" lon="2.263082">
        <ele>755</ele>
        <time>1970-01-01T02:41:54.000Z</time>
      </trkpt>
      <trkpt lat="42.228033" lon="2.262981">
        <ele>755</ele>
        <time>1970-01-01T02:41:55.000Z</time>
      </trkpt>
      <trkpt lat="42.228023" lon="2.26288">
        <ele>755</ele>
        <time>1970-01-01T02:41:56.000Z</time>
      </trkpt>
      <trkpt lat="42.228014" lon="2.262779">
        <ele>755</ele>
        <time>1970-01-01T02:41:57.000Z</time>
      </trkpt>
      <trkpt lat="42.228004" lon="2.262678">
        <ele>750</ele>
        <time>1970-01-01T02:41:58.000Z</time>
      </trkpt>
      <trkpt lat="42.227982" lon="2.262458">
        <ele>750</ele>
        <time>1970-01-01T02:41:59.000Z</time>
      </trkpt>
      <trkpt lat="42.227971" lon="2.26235">
        <ele>750</ele>
        <time>1970-01-01T02:42:00.000Z</time>
      </trkpt>
      <trkpt lat="42.22796" lon="2.262242">
        <ele>750</ele>
        <time>1970-01-01T02:42:01.000Z</time>
      </trkpt>
      <trkpt lat="42.227949" lon="2.262134">
        <ele>750</ele>
        <time>1970-01-01T02:42:02.000Z</time>
      </trkpt>
      <trkpt lat="42.227939" lon="2.262026">
        <ele>750</ele>
        <time>1970-01-01T02:42:03.000Z</time>
      </trkpt>
      <trkpt lat="42.227928" lon="2.261918">
        <ele>750</ele>
        <time>1970-01-01T02:42:04.000Z</time>
      </trkpt>
      <trkpt lat="42.227917" lon="2.26181">
        <ele>750</ele>
        <time>1970-01-01T02:42:05.000Z</time>
      </trkpt>
      <trkpt lat="42.227906" lon="2.261702">
        <ele>750</ele>
        <time>1970-01-01T02:42:06.000Z</time>
      </trkpt>
      <trkpt lat="42.227895" lon="2.261594">
        <ele>750</ele>
        <time>1970-01-01T02:42:07.000Z</time>
      </trkpt>
      <trkpt lat="42.227884" lon="2.261486">
        <ele>749</ele>
        <time>1970-01-01T02:42:08.000Z</time>
      </trkpt>
      <trkpt lat="42.227861" lon="2.261264">
        <ele>749</ele>
        <time>1970-01-01T02:42:09.000Z</time>
      </trkpt>
      <trkpt lat="42.22785" lon="2.261163">
        <ele>749</ele>
        <time>1970-01-01T02:42:10.000Z</time>
      </trkpt>
      <trkpt lat="42.22784" lon="2.261061">
        <ele>749</ele>
        <time>1970-01-01T02:42:11.000Z</time>
      </trkpt>
      <trkpt lat="42.22783" lon="2.260959">
        <ele>749</ele>
        <time>1970-01-01T02:42:12.000Z</time>
      </trkpt>
      <trkpt lat="42.22782" lon="2.260857">
        <ele>749</ele>
        <time>1970-01-01T02:42:13.000Z</time>
      </trkpt>
      <trkpt lat="42.227809" lon="2.260756">
        <ele>749</ele>
        <time>1970-01-01T02:42:14.000Z</time>
      </trkpt>
      <trkpt lat="42.227799" lon="2.260654">
        <ele>749</ele>
        <time>1970-01-01T02:42:15.000Z</time>
      </trkpt>
      <trkpt lat="42.227789" lon="2.260552">
        <ele>749</ele>
        <time>1970-01-01T02:42:16.000Z</time>
      </trkpt>
      <trkpt lat="42.227778" lon="2.260451">
        <ele>749</ele>
        <time>1970-01-01T02:42:17.000Z</time>
      </trkpt>
      <trkpt lat="42.227768" lon="2.260349">
        <ele>748</ele>
        <time>1970-01-01T02:42:18.000Z</time>
      </trkpt>
      <trkpt lat="42.227757" lon="2.260233">
        <ele>748</ele>
        <time>1970-01-01T02:42:19.000Z</time>
      </trkpt>
      <trkpt lat="42.227747" lon="2.260113">
        <ele>748</ele>
        <time>1970-01-01T02:42:20.000Z</time>
      </trkpt>
      <trkpt lat="42.227733" lon="2.259989">
        <ele>748</ele>
        <time>1970-01-01T02:42:21.000Z</time>
      </trkpt>
      <trkpt lat="42.22772" lon="2.259864">
        <ele>748</ele>
        <time>1970-01-01T02:42:22.000Z</time>
      </trkpt>
      <trkpt lat="42.227709" lon="2.259738">
        <ele>748</ele>
        <time>1970-01-01T02:42:23.000Z</time>
      </trkpt>
      <trkpt lat="42.227698" lon="2.259611">
        <ele>748</ele>
        <time>1970-01-01T02:42:24.000Z</time>
      </trkpt>
      <trkpt lat="42.227687" lon="2.259485">
        <ele>748</ele>
        <time>1970-01-01T02:42:25.000Z</time>
      </trkpt>
      <trkpt lat="42.227673" lon="2.259357">
        <ele>748</ele>
        <time>1970-01-01T02:42:26.000Z</time>
      </trkpt>
      <trkpt lat="42.227659" lon="2.259228">
        <ele>748</ele>
        <time>1970-01-01T02:42:27.000Z</time>
      </trkpt>
      <trkpt lat="42.227647" lon="2.2591">
        <ele>749</ele>
        <time>1970-01-01T02:42:28.000Z</time>
      </trkpt>
      <trkpt lat="42.227634" lon="2.258972">
        <ele>749</ele>
        <time>1970-01-01T02:42:29.000Z</time>
      </trkpt>
      <trkpt lat="42.227622" lon="2.258848">
        <ele>749</ele>
        <time>1970-01-01T02:42:30.000Z</time>
      </trkpt>
      <trkpt lat="42.227609" lon="2.258726">
        <ele>749</ele>
        <time>1970-01-01T02:42:31.000Z</time>
      </trkpt>
      <trkpt lat="42.227593" lon="2.258605">
        <ele>749</ele>
        <time>1970-01-01T02:42:32.000Z</time>
      </trkpt>
      <trkpt lat="42.227576" lon="2.258486">
        <ele>749</ele>
        <time>1970-01-01T02:42:33.000Z</time>
      </trkpt>
      <trkpt lat="42.227556" lon="2.258368">
        <ele>749</ele>
        <time>1970-01-01T02:42:34.000Z</time>
      </trkpt>
      <trkpt lat="42.227533" lon="2.258251">
        <ele>749</ele>
        <time>1970-01-01T02:42:35.000Z</time>
      </trkpt>
      <trkpt lat="42.227509" lon="2.258135">
        <ele>749</ele>
        <time>1970-01-01T02:42:36.000Z</time>
      </trkpt>
      <trkpt lat="42.227484" lon="2.258019">
        <ele>749</ele>
        <time>1970-01-01T02:42:37.000Z</time>
      </trkpt>
      <trkpt lat="42.227456" lon="2.257901">
        <ele>755</ele>
        <time>1970-01-01T02:42:38.000Z</time>
      </trkpt>
      <trkpt lat="42.227427" lon="2.257783">
        <ele>755</ele>
        <time>1970-01-01T02:42:39.000Z</time>
      </trkpt>
      <trkpt lat="42.227399" lon="2.257665">
        <ele>755</ele>
        <time>1970-01-01T02:42:40.000Z</time>
      </trkpt>
      <trkpt lat="42.227374" lon="2.257546">
        <ele>755</ele>
        <time>1970-01-01T02:42:41.000Z</time>
      </trkpt>
      <trkpt lat="42.227348" lon="2.257429">
        <ele>755</ele>
        <time>1970-01-01T02:42:42.000Z</time>
      </trkpt>
      <trkpt lat="42.22732" lon="2.257312">
        <ele>755</ele>
        <time>1970-01-01T02:42:43.000Z</time>
      </trkpt>
      <trkpt lat="42.227293" lon="2.257195">
        <ele>755</ele>
        <time>1970-01-01T02:42:44.000Z</time>
      </trkpt>
      <trkpt lat="42.227267" lon="2.257079">
        <ele>755</ele>
        <time>1970-01-01T02:42:45.000Z</time>
      </trkpt>
      <trkpt lat="42.22724" lon="2.256962">
        <ele>755</ele>
        <time>1970-01-01T02:42:46.000Z</time>
      </trkpt>
      <trkpt lat="42.227214" lon="2.256845">
        <ele>755</ele>
        <time>1970-01-01T02:42:47.000Z</time>
      </trkpt>
      <trkpt lat="42.227188" lon="2.256728">
        <ele>755</ele>
        <time>1970-01-01T02:42:48.000Z</time>
      </trkpt>
      <trkpt lat="42.227162" lon="2.256611">
        <ele>755</ele>
        <time>1970-01-01T02:42:49.000Z</time>
      </trkpt>
      <trkpt lat="42.227134" lon="2.256493">
        <ele>755</ele>
        <time>1970-01-01T02:42:50.000Z</time>
      </trkpt>
      <trkpt lat="42.227107" lon="2.256376">
        <ele>755</ele>
        <time>1970-01-01T02:42:51.000Z</time>
      </trkpt>
      <trkpt lat="42.227081" lon="2.256258">
        <ele>755</ele>
        <time>1970-01-01T02:42:52.000Z</time>
      </trkpt>
      <trkpt lat="42.227054" lon="2.25614">
        <ele>755</ele>
        <time>1970-01-01T02:42:53.000Z</time>
      </trkpt>
      <trkpt lat="42.227027" lon="2.256022">
        <ele>755</ele>
        <time>1970-01-01T02:42:54.000Z</time>
      </trkpt>
      <trkpt lat="42.226999" lon="2.255904">
        <ele>755</ele>
        <time>1970-01-01T02:42:55.000Z</time>
      </trkpt>
      <trkpt lat="42.226972" lon="2.255787">
        <ele>755</ele>
        <time>1970-01-01T02:42:56.000Z</time>
      </trkpt>
      <trkpt lat="42.226947" lon="2.25567">
        <ele>755</ele>
        <time>1970-01-01T02:42:57.000Z</time>
      </trkpt>
      <trkpt lat="42.226921" lon="2.255554">
        <ele>752</ele>
        <time>1970-01-01T02:42:58.000Z</time>
      </trkpt>
      <trkpt lat="42.226874" lon="2.255342">
        <ele>752</ele>
        <time>1970-01-01T02:42:59.000Z</time>
      </trkpt>
      <trkpt lat="42.226853" lon="2.255246">
        <ele>752</ele>
        <time>1970-01-01T02:43:00.000Z</time>
      </trkpt>
      <trkpt lat="42.226832" lon="2.25515">
        <ele>752</ele>
        <time>1970-01-01T02:43:01.000Z</time>
      </trkpt>
      <trkpt lat="42.226811" lon="2.255054">
        <ele>752</ele>
        <time>1970-01-01T02:43:02.000Z</time>
      </trkpt>
      <trkpt lat="42.22679" lon="2.254958">
        <ele>752</ele>
        <time>1970-01-01T02:43:03.000Z</time>
      </trkpt>
      <trkpt lat="42.226768" lon="2.254862">
        <ele>752</ele>
        <time>1970-01-01T02:43:04.000Z</time>
      </trkpt>
      <trkpt lat="42.226747" lon="2.254766">
        <ele>752</ele>
        <time>1970-01-01T02:43:05.000Z</time>
      </trkpt>
      <trkpt lat="42.226726" lon="2.25467">
        <ele>752</ele>
        <time>1970-01-01T02:43:06.000Z</time>
      </trkpt>
      <trkpt lat="42.226705" lon="2.254574">
        <ele>752</ele>
        <time>1970-01-01T02:43:07.000Z</time>
      </trkpt>
      <trkpt lat="42.226684" lon="2.254478">
        <ele>753</ele>
        <time>1970-01-01T02:43:08.000Z</time>
      </trkpt>
      <trkpt lat="42.226646" lon="2.254306">
        <ele>753</ele>
        <time>1970-01-01T02:43:09.000Z</time>
      </trkpt>
      <trkpt lat="42.226628" lon="2.254226">
        <ele>753</ele>
        <time>1970-01-01T02:43:10.000Z</time>
      </trkpt>
      <trkpt lat="42.226611" lon="2.254147">
        <ele>753</ele>
        <time>1970-01-01T02:43:11.000Z</time>
      </trkpt>
      <trkpt lat="42.226593" lon="2.254067">
        <ele>753</ele>
        <time>1970-01-01T02:43:12.000Z</time>
      </trkpt>
      <trkpt lat="42.226576" lon="2.253987">
        <ele>753</ele>
        <time>1970-01-01T02:43:13.000Z</time>
      </trkpt>
      <trkpt lat="42.226559" lon="2.253907">
        <ele>753</ele>
        <time>1970-01-01T02:43:14.000Z</time>
      </trkpt>
      <trkpt lat="42.226541" lon="2.253827">
        <ele>753</ele>
        <time>1970-01-01T02:43:15.000Z</time>
      </trkpt>
      <trkpt lat="42.226524" lon="2.253748">
        <ele>753</ele>
        <time>1970-01-01T02:43:16.000Z</time>
      </trkpt>
      <trkpt lat="42.226506" lon="2.253668">
        <ele>753</ele>
        <time>1970-01-01T02:43:17.000Z</time>
      </trkpt>
      <trkpt lat="42.226489" lon="2.253588">
        <ele>752</ele>
        <time>1970-01-01T02:43:18.000Z</time>
      </trkpt>
      <trkpt lat="42.226451" lon="2.253419">
        <ele>752</ele>
        <time>1970-01-01T02:43:19.000Z</time>
      </trkpt>
      <trkpt lat="42.226433" lon="2.253336">
        <ele>752</ele>
        <time>1970-01-01T02:43:20.000Z</time>
      </trkpt>
      <trkpt lat="42.226414" lon="2.253254">
        <ele>752</ele>
        <time>1970-01-01T02:43:21.000Z</time>
      </trkpt>
      <trkpt lat="42.226396" lon="2.253171">
        <ele>752</ele>
        <time>1970-01-01T02:43:22.000Z</time>
      </trkpt>
      <trkpt lat="42.226378" lon="2.253089">
        <ele>752</ele>
        <time>1970-01-01T02:43:23.000Z</time>
      </trkpt>
      <trkpt lat="42.22636" lon="2.253007">
        <ele>752</ele>
        <time>1970-01-01T02:43:24.000Z</time>
      </trkpt>
      <trkpt lat="42.226342" lon="2.252924">
        <ele>752</ele>
        <time>1970-01-01T02:43:25.000Z</time>
      </trkpt>
      <trkpt lat="42.226323" lon="2.252842">
        <ele>752</ele>
        <time>1970-01-01T02:43:26.000Z</time>
      </trkpt>
      <trkpt lat="42.226305" lon="2.252759">
        <ele>752</ele>
        <time>1970-01-01T02:43:27.000Z</time>
      </trkpt>
      <trkpt lat="42.226287" lon="2.252677">
        <ele>749</ele>
        <time>1970-01-01T02:43:28.000Z</time>
      </trkpt>
      <trkpt lat="42.226251" lon="2.252509">
        <ele>749</ele>
        <time>1970-01-01T02:43:29.000Z</time>
      </trkpt>
      <trkpt lat="42.226234" lon="2.252432">
        <ele>749</ele>
        <time>1970-01-01T02:43:30.000Z</time>
      </trkpt>
      <trkpt lat="42.226216" lon="2.252356">
        <ele>749</ele>
        <time>1970-01-01T02:43:31.000Z</time>
      </trkpt>
      <trkpt lat="42.226199" lon="2.252279">
        <ele>749</ele>
        <time>1970-01-01T02:43:32.000Z</time>
      </trkpt>
      <trkpt lat="42.226182" lon="2.252202">
        <ele>749</ele>
        <time>1970-01-01T02:43:33.000Z</time>
      </trkpt>
      <trkpt lat="42.226165" lon="2.252125">
        <ele>749</ele>
        <time>1970-01-01T02:43:34.000Z</time>
      </trkpt>
      <trkpt lat="42.226148" lon="2.252048">
        <ele>749</ele>
        <time>1970-01-01T02:43:35.000Z</time>
      </trkpt>
      <trkpt lat="42.22613" lon="2.251972">
        <ele>749</ele>
        <time>1970-01-01T02:43:36.000Z</time>
      </trkpt>
      <trkpt lat="42.226113" lon="2.251895">
        <ele>749</ele>
        <time>1970-01-01T02:43:37.000Z</time>
      </trkpt>
      <trkpt lat="42.226096" lon="2.251818">
        <ele>748</ele>
        <time>1970-01-01T02:43:38.000Z</time>
      </trkpt>
      <trkpt lat="42.226066" lon="2.251674">
        <ele>748</ele>
        <time>1970-01-01T02:43:39.000Z</time>
      </trkpt>
      <trkpt lat="42.226053" lon="2.25161">
        <ele>748</ele>
        <time>1970-01-01T02:43:40.000Z</time>
      </trkpt>
      <trkpt lat="42.226039" lon="2.251546">
        <ele>748</ele>
        <time>1970-01-01T02:43:41.000Z</time>
      </trkpt>
      <trkpt lat="42.226026" lon="2.251482">
        <ele>748</ele>
        <time>1970-01-01T02:43:42.000Z</time>
      </trkpt>
      <trkpt lat="42.226013" lon="2.251418">
        <ele>748</ele>
        <time>1970-01-01T02:43:43.000Z</time>
      </trkpt>
      <trkpt lat="42.226" lon="2.251355">
        <ele>748</ele>
        <time>1970-01-01T02:43:44.000Z</time>
      </trkpt>
      <trkpt lat="42.225987" lon="2.251291">
        <ele>748</ele>
        <time>1970-01-01T02:43:45.000Z</time>
      </trkpt>
      <trkpt lat="42.225973" lon="2.251227">
        <ele>748</ele>
        <time>1970-01-01T02:43:46.000Z</time>
      </trkpt>
      <trkpt lat="42.22596" lon="2.251163">
        <ele>748</ele>
        <time>1970-01-01T02:43:47.000Z</time>
      </trkpt>
      <trkpt lat="42.225947" lon="2.251099">
        <ele>748</ele>
        <time>1970-01-01T02:43:48.000Z</time>
      </trkpt>
      <trkpt lat="42.225924" lon="2.250985">
        <ele>748</ele>
        <time>1970-01-01T02:43:49.000Z</time>
      </trkpt>
      <trkpt lat="42.225913" lon="2.250934">
        <ele>748</ele>
        <time>1970-01-01T02:43:50.000Z</time>
      </trkpt>
      <trkpt lat="42.225902" lon="2.250884">
        <ele>748</ele>
        <time>1970-01-01T02:43:51.000Z</time>
      </trkpt>
      <trkpt lat="42.225891" lon="2.250833">
        <ele>748</ele>
        <time>1970-01-01T02:43:52.000Z</time>
      </trkpt>
      <trkpt lat="42.22588" lon="2.250783">
        <ele>748</ele>
        <time>1970-01-01T02:43:53.000Z</time>
      </trkpt>
      <trkpt lat="42.225869" lon="2.250733">
        <ele>748</ele>
        <time>1970-01-01T02:43:54.000Z</time>
      </trkpt>
      <trkpt lat="42.225858" lon="2.250682">
        <ele>748</ele>
        <time>1970-01-01T02:43:55.000Z</time>
      </trkpt>
      <trkpt lat="42.225847" lon="2.250632">
        <ele>748</ele>
        <time>1970-01-01T02:43:56.000Z</time>
      </trkpt>
      <trkpt lat="42.225836" lon="2.250581">
        <ele>748</ele>
        <time>1970-01-01T02:43:57.000Z</time>
      </trkpt>
      <trkpt lat="42.225825" lon="2.250531">
        <ele>748</ele>
        <time>1970-01-01T02:43:58.000Z</time>
      </trkpt>
      <trkpt lat="42.225801" lon="2.25042">
        <ele>748</ele>
        <time>1970-01-01T02:43:59.000Z</time>
      </trkpt>
      <trkpt lat="42.225792" lon="2.250367">
        <ele>748</ele>
        <time>1970-01-01T02:44:00.000Z</time>
      </trkpt>
      <trkpt lat="42.225782" lon="2.250313">
        <ele>748</ele>
        <time>1970-01-01T02:44:01.000Z</time>
      </trkpt>
      <trkpt lat="42.225772" lon="2.25026">
        <ele>748</ele>
        <time>1970-01-01T02:44:02.000Z</time>
      </trkpt>
      <trkpt lat="42.225763" lon="2.250206">
        <ele>748</ele>
        <time>1970-01-01T02:44:03.000Z</time>
      </trkpt>
      <trkpt lat="42.225753" lon="2.250152">
        <ele>748</ele>
        <time>1970-01-01T02:44:04.000Z</time>
      </trkpt>
      <trkpt lat="42.225743" lon="2.250099">
        <ele>748</ele>
        <time>1970-01-01T02:44:05.000Z</time>
      </trkpt>
      <trkpt lat="42.225733" lon="2.250045">
        <ele>748</ele>
        <time>1970-01-01T02:44:06.000Z</time>
      </trkpt>
      <trkpt lat="42.225724" lon="2.249992">
        <ele>748</ele>
        <time>1970-01-01T02:44:07.000Z</time>
      </trkpt>
      <trkpt lat="42.225714" lon="2.249938">
        <ele>748</ele>
        <time>1970-01-01T02:44:08.000Z</time>
      </trkpt>
      <trkpt lat="42.225706" lon="2.249827">
        <ele>748</ele>
        <time>1970-01-01T02:44:09.000Z</time>
      </trkpt>
      <trkpt lat="42.225704" lon="2.249777">
        <ele>748</ele>
        <time>1970-01-01T02:44:10.000Z</time>
      </trkpt>
      <trkpt lat="42.225703" lon="2.249728">
        <ele>748</ele>
        <time>1970-01-01T02:44:11.000Z</time>
      </trkpt>
      <trkpt lat="42.225701" lon="2.249678">
        <ele>748</ele>
        <time>1970-01-01T02:44:12.000Z</time>
      </trkpt>
      <trkpt lat="42.2257" lon="2.249628">
        <ele>748</ele>
        <time>1970-01-01T02:44:13.000Z</time>
      </trkpt>
      <trkpt lat="42.225699" lon="2.249578">
        <ele>748</ele>
        <time>1970-01-01T02:44:14.000Z</time>
      </trkpt>
      <trkpt lat="42.225697" lon="2.249528">
        <ele>748</ele>
        <time>1970-01-01T02:44:15.000Z</time>
      </trkpt>
      <trkpt lat="42.225696" lon="2.249479">
        <ele>748</ele>
        <time>1970-01-01T02:44:16.000Z</time>
      </trkpt>
      <trkpt lat="42.225694" lon="2.249429">
        <ele>748</ele>
        <time>1970-01-01T02:44:17.000Z</time>
      </trkpt>
      <trkpt lat="42.225693" lon="2.249379">
        <ele>749</ele>
        <time>1970-01-01T02:44:18.000Z</time>
      </trkpt>
      <trkpt lat="42.2257" lon="2.249281">
        <ele>749</ele>
        <time>1970-01-01T02:44:19.000Z</time>
      </trkpt>
      <trkpt lat="42.2257" lon="2.249234">
        <ele>749</ele>
        <time>1970-01-01T02:44:20.000Z</time>
      </trkpt>
      <trkpt lat="42.225701" lon="2.249187">
        <ele>749</ele>
        <time>1970-01-01T02:44:21.000Z</time>
      </trkpt>
      <trkpt lat="42.225702" lon="2.24914">
        <ele>749</ele>
        <time>1970-01-01T02:44:22.000Z</time>
      </trkpt>
      <trkpt lat="42.225703" lon="2.249093">
        <ele>749</ele>
        <time>1970-01-01T02:44:23.000Z</time>
      </trkpt>
      <trkpt lat="42.225703" lon="2.249046">
        <ele>749</ele>
        <time>1970-01-01T02:44:24.000Z</time>
      </trkpt>
      <trkpt lat="42.225704" lon="2.248999">
        <ele>749</ele>
        <time>1970-01-01T02:44:25.000Z</time>
      </trkpt>
      <trkpt lat="42.225705" lon="2.248952">
        <ele>749</ele>
        <time>1970-01-01T02:44:26.000Z</time>
      </trkpt>
      <trkpt lat="42.225705" lon="2.248905">
        <ele>749</ele>
        <time>1970-01-01T02:44:27.000Z</time>
      </trkpt>
      <trkpt lat="42.225706" lon="2.248858">
        <ele>750</ele>
        <time>1970-01-01T02:44:28.000Z</time>
      </trkpt>
      <trkpt lat="42.22569" lon="2.248757">
        <ele>750</ele>
        <time>1970-01-01T02:44:29.000Z</time>
      </trkpt>
      <trkpt lat="42.225678" lon="2.248711">
        <ele>750</ele>
        <time>1970-01-01T02:44:30.000Z</time>
      </trkpt>
      <trkpt lat="42.225667" lon="2.248665">
        <ele>750</ele>
        <time>1970-01-01T02:44:31.000Z</time>
      </trkpt>
      <trkpt lat="42.225655" lon="2.248619">
        <ele>750</ele>
        <time>1970-01-01T02:44:32.000Z</time>
      </trkpt>
      <trkpt lat="42.225644" lon="2.248572">
        <ele>750</ele>
        <time>1970-01-01T02:44:33.000Z</time>
      </trkpt>
      <trkpt lat="42.225632" lon="2.248526">
        <ele>750</ele>
        <time>1970-01-01T02:44:34.000Z</time>
      </trkpt>
      <trkpt lat="42.225621" lon="2.24848">
        <ele>750</ele>
        <time>1970-01-01T02:44:35.000Z</time>
      </trkpt>
      <trkpt lat="42.225609" lon="2.248434">
        <ele>750</ele>
        <time>1970-01-01T02:44:36.000Z</time>
      </trkpt>
      <trkpt lat="42.225598" lon="2.248388">
        <ele>750</ele>
        <time>1970-01-01T02:44:37.000Z</time>
      </trkpt>
      <trkpt lat="42.225586" lon="2.248342">
        <ele>749</ele>
        <time>1970-01-01T02:44:38.000Z</time>
      </trkpt>
      <trkpt lat="42.225538" lon="2.248242">
        <ele>749</ele>
        <time>1970-01-01T02:44:39.000Z</time>
      </trkpt>
      <trkpt lat="42.22551" lon="2.248189">
        <ele>749</ele>
        <time>1970-01-01T02:44:40.000Z</time>
      </trkpt>
      <trkpt lat="42.225482" lon="2.248135">
        <ele>749</ele>
        <time>1970-01-01T02:44:41.000Z</time>
      </trkpt>
      <trkpt lat="42.225454" lon="2.248082">
        <ele>749</ele>
        <time>1970-01-01T02:44:42.000Z</time>
      </trkpt>
      <trkpt lat="42.225427" lon="2.248029">
        <ele>749</ele>
        <time>1970-01-01T02:44:43.000Z</time>
      </trkpt>
      <trkpt lat="42.225399" lon="2.247976">
        <ele>749</ele>
        <time>1970-01-01T02:44:44.000Z</time>
      </trkpt>
      <trkpt lat="42.225371" lon="2.247923">
        <ele>749</ele>
        <time>1970-01-01T02:44:45.000Z</time>
      </trkpt>
      <trkpt lat="42.225343" lon="2.247869">
        <ele>749</ele>
        <time>1970-01-01T02:44:46.000Z</time>
      </trkpt>
      <trkpt lat="42.225315" lon="2.247816">
        <ele>749</ele>
        <time>1970-01-01T02:44:47.000Z</time>
      </trkpt>
      <trkpt lat="42.225287" lon="2.247763">
        <ele>748</ele>
        <time>1970-01-01T02:44:48.000Z</time>
      </trkpt>
      <trkpt lat="42.225226" lon="2.247639">
        <ele>748</ele>
        <time>1970-01-01T02:44:49.000Z</time>
      </trkpt>
      <trkpt lat="42.225199" lon="2.247579">
        <ele>748</ele>
        <time>1970-01-01T02:44:50.000Z</time>
      </trkpt>
      <trkpt lat="42.225172" lon="2.247518">
        <ele>748</ele>
        <time>1970-01-01T02:44:51.000Z</time>
      </trkpt>
      <trkpt lat="42.225145" lon="2.247458">
        <ele>748</ele>
        <time>1970-01-01T02:44:52.000Z</time>
      </trkpt>
      <trkpt lat="42.225118" lon="2.247397">
        <ele>748</ele>
        <time>1970-01-01T02:44:53.000Z</time>
      </trkpt>
      <trkpt lat="42.225091" lon="2.247337">
        <ele>748</ele>
        <time>1970-01-01T02:44:54.000Z</time>
      </trkpt>
      <trkpt lat="42.225064" lon="2.247276">
        <ele>748</ele>
        <time>1970-01-01T02:44:55.000Z</time>
      </trkpt>
      <trkpt lat="42.225037" lon="2.247216">
        <ele>748</ele>
        <time>1970-01-01T02:44:56.000Z</time>
      </trkpt>
      <trkpt lat="42.22501" lon="2.247155">
        <ele>748</ele>
        <time>1970-01-01T02:44:57.000Z</time>
      </trkpt>
      <trkpt lat="42.224983" lon="2.247095">
        <ele>748</ele>
        <time>1970-01-01T02:44:58.000Z</time>
      </trkpt>
      <trkpt lat="42.224926" lon="2.246955">
        <ele>748</ele>
        <time>1970-01-01T02:44:59.000Z</time>
      </trkpt>
      <trkpt lat="42.224899" lon="2.246886">
        <ele>748</ele>
        <time>1970-01-01T02:45:00.000Z</time>
      </trkpt>
      <trkpt lat="42.224871" lon="2.246817">
        <ele>748</ele>
        <time>1970-01-01T02:45:01.000Z</time>
      </trkpt>
      <trkpt lat="42.224844" lon="2.246748">
        <ele>748</ele>
        <time>1970-01-01T02:45:02.000Z</time>
      </trkpt>
      <trkpt lat="42.224816" lon="2.246679">
        <ele>748</ele>
        <time>1970-01-01T02:45:03.000Z</time>
      </trkpt>
      <trkpt lat="42.224788" lon="2.246611">
        <ele>748</ele>
        <time>1970-01-01T02:45:04.000Z</time>
      </trkpt>
      <trkpt lat="42.224761" lon="2.246542">
        <ele>748</ele>
        <time>1970-01-01T02:45:05.000Z</time>
      </trkpt>
      <trkpt lat="42.224733" lon="2.246473">
        <ele>748</ele>
        <time>1970-01-01T02:45:06.000Z</time>
      </trkpt>
      <trkpt lat="42.224706" lon="2.246404">
        <ele>748</ele>
        <time>1970-01-01T02:45:07.000Z</time>
      </trkpt>
      <trkpt lat="42.224678" lon="2.246335">
        <ele>747</ele>
        <time>1970-01-01T02:45:08.000Z</time>
      </trkpt>
      <trkpt lat="42.224619" lon="2.24619">
        <ele>747</ele>
        <time>1970-01-01T02:45:09.000Z</time>
      </trkpt>
      <trkpt lat="42.224592" lon="2.246121">
        <ele>747</ele>
        <time>1970-01-01T02:45:10.000Z</time>
      </trkpt>
      <trkpt lat="42.224565" lon="2.246053">
        <ele>747</ele>
        <time>1970-01-01T02:45:11.000Z</time>
      </trkpt>
      <trkpt lat="42.224538" lon="2.245985">
        <ele>747</ele>
        <time>1970-01-01T02:45:12.000Z</time>
      </trkpt>
      <trkpt lat="42.224511" lon="2.245916">
        <ele>747</ele>
        <time>1970-01-01T02:45:13.000Z</time>
      </trkpt>
      <trkpt lat="42.224484" lon="2.245848">
        <ele>747</ele>
        <time>1970-01-01T02:45:14.000Z</time>
      </trkpt>
      <trkpt lat="42.224457" lon="2.24578">
        <ele>747</ele>
        <time>1970-01-01T02:45:15.000Z</time>
      </trkpt>
      <trkpt lat="42.22443" lon="2.245712">
        <ele>747</ele>
        <time>1970-01-01T02:45:16.000Z</time>
      </trkpt>
      <trkpt lat="42.224403" lon="2.245643">
        <ele>747</ele>
        <time>1970-01-01T02:45:17.000Z</time>
      </trkpt>
      <trkpt lat="42.224376" lon="2.245575">
        <ele>745</ele>
        <time>1970-01-01T02:45:18.000Z</time>
      </trkpt>
      <trkpt lat="42.224322" lon="2.245437">
        <ele>745</ele>
        <time>1970-01-01T02:45:19.000Z</time>
      </trkpt>
      <trkpt lat="42.224296" lon="2.245371">
        <ele>745</ele>
        <time>1970-01-01T02:45:20.000Z</time>
      </trkpt>
      <trkpt lat="42.22427" lon="2.245306">
        <ele>745</ele>
        <time>1970-01-01T02:45:21.000Z</time>
      </trkpt>
      <trkpt lat="42.224244" lon="2.24524">
        <ele>745</ele>
        <time>1970-01-01T02:45:22.000Z</time>
      </trkpt>
      <trkpt lat="42.224218" lon="2.245175">
        <ele>745</ele>
        <time>1970-01-01T02:45:23.000Z</time>
      </trkpt>
      <trkpt lat="42.224192" lon="2.24511">
        <ele>745</ele>
        <time>1970-01-01T02:45:24.000Z</time>
      </trkpt>
      <trkpt lat="42.224166" lon="2.245044">
        <ele>745</ele>
        <time>1970-01-01T02:45:25.000Z</time>
      </trkpt>
      <trkpt lat="42.22414" lon="2.244979">
        <ele>745</ele>
        <time>1970-01-01T02:45:26.000Z</time>
      </trkpt>
      <trkpt lat="42.224114" lon="2.244913">
        <ele>745</ele>
        <time>1970-01-01T02:45:27.000Z</time>
      </trkpt>
      <trkpt lat="42.224088" lon="2.244848">
        <ele>745</ele>
        <time>1970-01-01T02:45:28.000Z</time>
      </trkpt>
      <trkpt lat="42.22403" lon="2.244706">
        <ele>745</ele>
        <time>1970-01-01T02:45:29.000Z</time>
      </trkpt>
      <trkpt lat="42.224003" lon="2.244637">
        <ele>745</ele>
        <time>1970-01-01T02:45:30.000Z</time>
      </trkpt>
      <trkpt lat="42.223975" lon="2.244569">
        <ele>745</ele>
        <time>1970-01-01T02:45:31.000Z</time>
      </trkpt>
      <trkpt lat="42.223948" lon="2.244501">
        <ele>745</ele>
        <time>1970-01-01T02:45:32.000Z</time>
      </trkpt>
      <trkpt lat="42.22392" lon="2.244432">
        <ele>745</ele>
        <time>1970-01-01T02:45:33.000Z</time>
      </trkpt>
      <trkpt lat="42.223892" lon="2.244364">
        <ele>745</ele>
        <time>1970-01-01T02:45:34.000Z</time>
      </trkpt>
      <trkpt lat="42.223865" lon="2.244296">
        <ele>745</ele>
        <time>1970-01-01T02:45:35.000Z</time>
      </trkpt>
      <trkpt lat="42.223837" lon="2.244228">
        <ele>745</ele>
        <time>1970-01-01T02:45:36.000Z</time>
      </trkpt>
      <trkpt lat="42.22381" lon="2.244159">
        <ele>745</ele>
        <time>1970-01-01T02:45:37.000Z</time>
      </trkpt>
      <trkpt lat="42.223782" lon="2.244091">
        <ele>745</ele>
        <time>1970-01-01T02:45:38.000Z</time>
      </trkpt>
      <trkpt lat="42.22372" lon="2.243943">
        <ele>745</ele>
        <time>1970-01-01T02:45:39.000Z</time>
      </trkpt>
      <trkpt lat="42.223691" lon="2.243871">
        <ele>745</ele>
        <time>1970-01-01T02:45:40.000Z</time>
      </trkpt>
      <trkpt lat="42.223661" lon="2.2438">
        <ele>745</ele>
        <time>1970-01-01T02:45:41.000Z</time>
      </trkpt>
      <trkpt lat="42.223631" lon="2.243729">
        <ele>745</ele>
        <time>1970-01-01T02:45:42.000Z</time>
      </trkpt>
      <trkpt lat="42.223602" lon="2.243657">
        <ele>745</ele>
        <time>1970-01-01T02:45:43.000Z</time>
      </trkpt>
      <trkpt lat="42.223572" lon="2.243586">
        <ele>745</ele>
        <time>1970-01-01T02:45:44.000Z</time>
      </trkpt>
      <trkpt lat="42.223542" lon="2.243515">
        <ele>745</ele>
        <time>1970-01-01T02:45:45.000Z</time>
      </trkpt>
      <trkpt lat="42.223512" lon="2.243444">
        <ele>745</ele>
        <time>1970-01-01T02:45:46.000Z</time>
      </trkpt>
      <trkpt lat="42.223483" lon="2.243372">
        <ele>745</ele>
        <time>1970-01-01T02:45:47.000Z</time>
      </trkpt>
      <trkpt lat="42.223453" lon="2.243301">
        <ele>745</ele>
        <time>1970-01-01T02:45:48.000Z</time>
      </trkpt>
      <trkpt lat="42.223384" lon="2.243145">
        <ele>745</ele>
        <time>1970-01-01T02:45:49.000Z</time>
      </trkpt>
      <trkpt lat="42.223349" lon="2.24307">
        <ele>745</ele>
        <time>1970-01-01T02:45:50.000Z</time>
      </trkpt>
      <trkpt lat="42.223315" lon="2.242995">
        <ele>745</ele>
        <time>1970-01-01T02:45:51.000Z</time>
      </trkpt>
      <trkpt lat="42.22328" lon="2.24292">
        <ele>745</ele>
        <time>1970-01-01T02:45:52.000Z</time>
      </trkpt>
      <trkpt lat="42.223246" lon="2.242845">
        <ele>745</ele>
        <time>1970-01-01T02:45:53.000Z</time>
      </trkpt>
      <trkpt lat="42.223212" lon="2.242771">
        <ele>745</ele>
        <time>1970-01-01T02:45:54.000Z</time>
      </trkpt>
      <trkpt lat="42.223177" lon="2.242696">
        <ele>745</ele>
        <time>1970-01-01T02:45:55.000Z</time>
      </trkpt>
      <trkpt lat="42.223143" lon="2.242621">
        <ele>745</ele>
        <time>1970-01-01T02:45:56.000Z</time>
      </trkpt>
      <trkpt lat="42.223108" lon="2.242546">
        <ele>745</ele>
        <time>1970-01-01T02:45:57.000Z</time>
      </trkpt>
      <trkpt lat="42.223074" lon="2.242471">
        <ele>743</ele>
        <time>1970-01-01T02:45:58.000Z</time>
      </trkpt>
      <trkpt lat="42.222992" lon="2.242307">
        <ele>743</ele>
        <time>1970-01-01T02:45:59.000Z</time>
      </trkpt>
      <trkpt lat="42.222952" lon="2.242226">
        <ele>743</ele>
        <time>1970-01-01T02:46:00.000Z</time>
      </trkpt>
      <trkpt lat="42.222911" lon="2.242144">
        <ele>743</ele>
        <time>1970-01-01T02:46:01.000Z</time>
      </trkpt>
      <trkpt lat="42.22287" lon="2.242062">
        <ele>743</ele>
        <time>1970-01-01T02:46:02.000Z</time>
      </trkpt>
      <trkpt lat="42.22283" lon="2.24198">
        <ele>743</ele>
        <time>1970-01-01T02:46:03.000Z</time>
      </trkpt>
      <trkpt lat="42.222789" lon="2.241899">
        <ele>743</ele>
        <time>1970-01-01T02:46:04.000Z</time>
      </trkpt>
      <trkpt lat="42.222748" lon="2.241817">
        <ele>743</ele>
        <time>1970-01-01T02:46:05.000Z</time>
      </trkpt>
      <trkpt lat="42.222707" lon="2.241735">
        <ele>743</ele>
        <time>1970-01-01T02:46:06.000Z</time>
      </trkpt>
      <trkpt lat="42.222667" lon="2.241654">
        <ele>743</ele>
        <time>1970-01-01T02:46:07.000Z</time>
      </trkpt>
      <trkpt lat="42.222626" lon="2.241572">
        <ele>743</ele>
        <time>1970-01-01T02:46:08.000Z</time>
      </trkpt>
      <trkpt lat="42.222576" lon="2.241476">
        <ele>743</ele>
        <time>1970-01-01T02:46:09.000Z</time>
      </trkpt>
      <trkpt lat="42.222523" lon="2.241381">
        <ele>743</ele>
        <time>1970-01-01T02:46:10.000Z</time>
      </trkpt>
      <trkpt lat="42.222466" lon="2.241289">
        <ele>743</ele>
        <time>1970-01-01T02:46:11.000Z</time>
      </trkpt>
      <trkpt lat="42.222405" lon="2.2412">
        <ele>743</ele>
        <time>1970-01-01T02:46:12.000Z</time>
      </trkpt>
      <trkpt lat="42.222339" lon="2.241115">
        <ele>743</ele>
        <time>1970-01-01T02:46:13.000Z</time>
      </trkpt>
      <trkpt lat="42.222272" lon="2.241029">
        <ele>743</ele>
        <time>1970-01-01T02:46:14.000Z</time>
      </trkpt>
      <trkpt lat="42.222204" lon="2.240943">
        <ele>743</ele>
        <time>1970-01-01T02:46:15.000Z</time>
      </trkpt>
      <trkpt lat="42.222134" lon="2.240858">
        <ele>743</ele>
        <time>1970-01-01T02:46:16.000Z</time>
      </trkpt>
      <trkpt lat="42.222063" lon="2.240773">
        <ele>743</ele>
        <time>1970-01-01T02:46:17.000Z</time>
      </trkpt>
      <trkpt lat="42.221989" lon="2.240689">
        <ele>740</ele>
        <time>1970-01-01T02:46:18.000Z</time>
      </trkpt>
      <trkpt lat="42.221914" lon="2.240606">
        <ele>740</ele>
        <time>1970-01-01T02:46:19.000Z</time>
      </trkpt>
      <trkpt lat="42.221837" lon="2.240522">
        <ele>740</ele>
        <time>1970-01-01T02:46:20.000Z</time>
      </trkpt>
      <trkpt lat="42.221759" lon="2.240437">
        <ele>740</ele>
        <time>1970-01-01T02:46:21.000Z</time>
      </trkpt>
      <trkpt lat="42.22168" lon="2.240349">
        <ele>740</ele>
        <time>1970-01-01T02:46:22.000Z</time>
      </trkpt>
      <trkpt lat="42.221601" lon="2.240259">
        <ele>740</ele>
        <time>1970-01-01T02:46:23.000Z</time>
      </trkpt>
      <trkpt lat="42.221521" lon="2.240168">
        <ele>740</ele>
        <time>1970-01-01T02:46:24.000Z</time>
      </trkpt>
      <trkpt lat="42.221443" lon="2.240073">
        <ele>740</ele>
        <time>1970-01-01T02:46:25.000Z</time>
      </trkpt>
      <trkpt lat="42.221369" lon="2.239972">
        <ele>740</ele>
        <time>1970-01-01T02:46:26.000Z</time>
      </trkpt>
      <trkpt lat="42.221287" lon="2.239789">
        <ele>740</ele>
        <time>1970-01-01T02:46:27.000Z</time>
      </trkpt>
      <trkpt lat="42.221268" lon="2.239721">
        <ele>733</ele>
        <time>1970-01-01T02:46:28.000Z</time>
      </trkpt>
      <trkpt lat="42.22123" lon="2.239585">
        <ele>733</ele>
        <time>1970-01-01T02:46:29.000Z</time>
      </trkpt>
      <trkpt lat="42.221218" lon="2.239437">
        <ele>733</ele>
        <time>1970-01-01T02:46:30.000Z</time>
      </trkpt>
      <trkpt lat="42.221223" lon="2.239285">
        <ele>733</ele>
        <time>1970-01-01T02:46:31.000Z</time>
      </trkpt>
      <trkpt lat="42.221242" lon="2.239133">
        <ele>733</ele>
        <time>1970-01-01T02:46:32.000Z</time>
      </trkpt>
      <trkpt lat="42.221272" lon="2.238981">
        <ele>733</ele>
        <time>1970-01-01T02:46:33.000Z</time>
      </trkpt>
      <trkpt lat="42.221308" lon="2.238829">
        <ele>733</ele>
        <time>1970-01-01T02:46:34.000Z</time>
      </trkpt>
      <trkpt lat="42.221347" lon="2.238679">
        <ele>733</ele>
        <time>1970-01-01T02:46:35.000Z</time>
      </trkpt>
      <trkpt lat="42.221387" lon="2.238533">
        <ele>733</ele>
        <time>1970-01-01T02:46:36.000Z</time>
      </trkpt>
      <trkpt lat="42.221453" lon="2.238322">
        <ele>733</ele>
        <time>1970-01-01T02:46:37.000Z</time>
      </trkpt>
      <trkpt lat="42.221477" lon="2.238255">
        <ele>728</ele>
        <time>1970-01-01T02:46:38.000Z</time>
      </trkpt>
      <trkpt lat="42.221525" lon="2.238122">
        <ele>728</ele>
        <time>1970-01-01T02:46:39.000Z</time>
      </trkpt>
      <trkpt lat="42.221571" lon="2.237996">
        <ele>728</ele>
        <time>1970-01-01T02:46:40.000Z</time>
      </trkpt>
      <trkpt lat="42.221607" lon="2.237871">
        <ele>728</ele>
        <time>1970-01-01T02:46:41.000Z</time>
      </trkpt>
      <trkpt lat="42.221633" lon="2.237748">
        <ele>728</ele>
        <time>1970-01-01T02:46:42.000Z</time>
      </trkpt>
      <trkpt lat="42.221647" lon="2.237626">
        <ele>728</ele>
        <time>1970-01-01T02:46:43.000Z</time>
      </trkpt>
      <trkpt lat="42.22165" lon="2.237504">
        <ele>728</ele>
        <time>1970-01-01T02:46:44.000Z</time>
      </trkpt>
      <trkpt lat="42.221647" lon="2.237386">
        <ele>728</ele>
        <time>1970-01-01T02:46:45.000Z</time>
      </trkpt>
      <trkpt lat="42.221642" lon="2.237272">
        <ele>728</ele>
        <time>1970-01-01T02:46:46.000Z</time>
      </trkpt>
      <trkpt lat="42.221634" lon="2.237158">
        <ele>728</ele>
        <time>1970-01-01T02:46:47.000Z</time>
      </trkpt>
      <trkpt lat="42.221623" lon="2.237045">
        <ele>727</ele>
        <time>1970-01-01T02:46:48.000Z</time>
      </trkpt>
      <trkpt lat="42.221602" lon="2.236841">
        <ele>727</ele>
        <time>1970-01-01T02:46:49.000Z</time>
      </trkpt>
      <trkpt lat="42.221593" lon="2.236749">
        <ele>727</ele>
        <time>1970-01-01T02:46:50.000Z</time>
      </trkpt>
      <trkpt lat="42.221585" lon="2.236658">
        <ele>727</ele>
        <time>1970-01-01T02:46:51.000Z</time>
      </trkpt>
      <trkpt lat="42.221576" lon="2.236566">
        <ele>727</ele>
        <time>1970-01-01T02:46:52.000Z</time>
      </trkpt>
      <trkpt lat="42.221567" lon="2.236474">
        <ele>727</ele>
        <time>1970-01-01T02:46:53.000Z</time>
      </trkpt>
      <trkpt lat="42.221558" lon="2.236382">
        <ele>727</ele>
        <time>1970-01-01T02:46:54.000Z</time>
      </trkpt>
      <trkpt lat="42.221549" lon="2.23629">
        <ele>727</ele>
        <time>1970-01-01T02:46:55.000Z</time>
      </trkpt>
      <trkpt lat="42.221541" lon="2.236199">
        <ele>727</ele>
        <time>1970-01-01T02:46:56.000Z</time>
      </trkpt>
      <trkpt lat="42.221532" lon="2.236107">
        <ele>727</ele>
        <time>1970-01-01T02:46:57.000Z</time>
      </trkpt>
      <trkpt lat="42.221523" lon="2.236015">
        <ele>727</ele>
        <time>1970-01-01T02:46:58.000Z</time>
      </trkpt>
      <trkpt lat="42.221492" lon="2.235855">
        <ele>727</ele>
        <time>1970-01-01T02:46:59.000Z</time>
      </trkpt>
      <trkpt lat="42.221472" lon="2.235786">
        <ele>727</ele>
        <time>1970-01-01T02:47:00.000Z</time>
      </trkpt>
      <trkpt lat="42.221453" lon="2.235717">
        <ele>727</ele>
        <time>1970-01-01T02:47:01.000Z</time>
      </trkpt>
      <trkpt lat="42.221434" lon="2.235648">
        <ele>727</ele>
        <time>1970-01-01T02:47:02.000Z</time>
      </trkpt>
      <trkpt lat="42.221415" lon="2.235578">
        <ele>727</ele>
        <time>1970-01-01T02:47:03.000Z</time>
      </trkpt>
      <trkpt lat="42.221395" lon="2.235509">
        <ele>727</ele>
        <time>1970-01-01T02:47:04.000Z</time>
      </trkpt>
      <trkpt lat="42.221376" lon="2.23544">
        <ele>727</ele>
        <time>1970-01-01T02:47:05.000Z</time>
      </trkpt>
      <trkpt lat="42.221357" lon="2.235371">
        <ele>727</ele>
        <time>1970-01-01T02:47:06.000Z</time>
      </trkpt>
      <trkpt lat="42.221337" lon="2.235302">
        <ele>727</ele>
        <time>1970-01-01T02:47:07.000Z</time>
      </trkpt>
      <trkpt lat="42.221318" lon="2.235233">
        <ele>729</ele>
        <time>1970-01-01T02:47:08.000Z</time>
      </trkpt>
      <trkpt lat="42.221277" lon="2.235106">
        <ele>729</ele>
        <time>1970-01-01T02:47:09.000Z</time>
      </trkpt>
      <trkpt lat="42.221262" lon="2.235047">
        <ele>729</ele>
        <time>1970-01-01T02:47:10.000Z</time>
      </trkpt>
      <trkpt lat="42.221248" lon="2.234989">
        <ele>729</ele>
        <time>1970-01-01T02:47:11.000Z</time>
      </trkpt>
      <trkpt lat="42.221233" lon="2.23493">
        <ele>729</ele>
        <time>1970-01-01T02:47:12.000Z</time>
      </trkpt>
      <trkpt lat="42.221219" lon="2.234872">
        <ele>729</ele>
        <time>1970-01-01T02:47:13.000Z</time>
      </trkpt>
      <trkpt lat="42.221204" lon="2.234814">
        <ele>729</ele>
        <time>1970-01-01T02:47:14.000Z</time>
      </trkpt>
      <trkpt lat="42.22119" lon="2.234755">
        <ele>729</ele>
        <time>1970-01-01T02:47:15.000Z</time>
      </trkpt>
      <trkpt lat="42.221175" lon="2.234697">
        <ele>729</ele>
        <time>1970-01-01T02:47:16.000Z</time>
      </trkpt>
      <trkpt lat="42.221161" lon="2.234638">
        <ele>729</ele>
        <time>1970-01-01T02:47:17.000Z</time>
      </trkpt>
      <trkpt lat="42.221146" lon="2.23458">
        <ele>731</ele>
        <time>1970-01-01T02:47:18.000Z</time>
      </trkpt>
      <trkpt lat="42.221106" lon="2.23448">
        <ele>731</ele>
        <time>1970-01-01T02:47:19.000Z</time>
      </trkpt>
      <trkpt lat="42.221074" lon="2.234446">
        <ele>731</ele>
        <time>1970-01-01T02:47:20.000Z</time>
      </trkpt>
      <trkpt lat="42.221042" lon="2.234412">
        <ele>731</ele>
        <time>1970-01-01T02:47:21.000Z</time>
      </trkpt>
      <trkpt lat="42.22101" lon="2.234378">
        <ele>731</ele>
        <time>1970-01-01T02:47:22.000Z</time>
      </trkpt>
      <trkpt lat="42.220978" lon="2.234344">
        <ele>731</ele>
        <time>1970-01-01T02:47:23.000Z</time>
      </trkpt>
      <trkpt lat="42.220946" lon="2.23431">
        <ele>731</ele>
        <time>1970-01-01T02:47:24.000Z</time>
      </trkpt>
      <trkpt lat="42.220914" lon="2.234276">
        <ele>731</ele>
        <time>1970-01-01T02:47:25.000Z</time>
      </trkpt>
      <trkpt lat="42.220882" lon="2.234242">
        <ele>731</ele>
        <time>1970-01-01T02:47:26.000Z</time>
      </trkpt>
      <trkpt lat="42.22085" lon="2.234208">
        <ele>731</ele>
        <time>1970-01-01T02:47:27.000Z</time>
      </trkpt>
      <trkpt lat="42.220818" lon="2.234174">
        <ele>733</ele>
        <time>1970-01-01T02:47:28.000Z</time>
      </trkpt>
      <trkpt lat="42.220718" lon="2.234144">
        <ele>733</ele>
        <time>1970-01-01T02:47:29.000Z</time>
      </trkpt>
      <trkpt lat="42.22067" lon="2.234122">
        <ele>733</ele>
        <time>1970-01-01T02:47:30.000Z</time>
      </trkpt>
      <trkpt lat="42.220623" lon="2.2341">
        <ele>733</ele>
        <time>1970-01-01T02:47:31.000Z</time>
      </trkpt>
      <trkpt lat="42.220576" lon="2.234078">
        <ele>733</ele>
        <time>1970-01-01T02:47:32.000Z</time>
      </trkpt>
      <trkpt lat="42.220529" lon="2.234056">
        <ele>733</ele>
        <time>1970-01-01T02:47:33.000Z</time>
      </trkpt>
      <trkpt lat="42.220481" lon="2.234034">
        <ele>733</ele>
        <time>1970-01-01T02:47:34.000Z</time>
      </trkpt>
      <trkpt lat="42.220434" lon="2.234012">
        <ele>733</ele>
        <time>1970-01-01T02:47:35.000Z</time>
      </trkpt>
      <trkpt lat="42.220387" lon="2.23399">
        <ele>733</ele>
        <time>1970-01-01T02:47:36.000Z</time>
      </trkpt>
      <trkpt lat="42.220339" lon="2.233968">
        <ele>733</ele>
        <time>1970-01-01T02:47:37.000Z</time>
      </trkpt>
      <trkpt lat="42.220292" lon="2.233946">
        <ele>733</ele>
        <time>1970-01-01T02:47:38.000Z</time>
      </trkpt>
      <trkpt lat="42.220217" lon="2.233841">
        <ele>733</ele>
        <time>1970-01-01T02:47:39.000Z</time>
      </trkpt>
      <trkpt lat="42.220185" lon="2.233783">
        <ele>733</ele>
        <time>1970-01-01T02:47:40.000Z</time>
      </trkpt>
      <trkpt lat="42.220154" lon="2.233725">
        <ele>733</ele>
        <time>1970-01-01T02:47:41.000Z</time>
      </trkpt>
      <trkpt lat="42.220123" lon="2.233667">
        <ele>733</ele>
        <time>1970-01-01T02:47:42.000Z</time>
      </trkpt>
      <trkpt lat="42.220092" lon="2.233609">
        <ele>733</ele>
        <time>1970-01-01T02:47:43.000Z</time>
      </trkpt>
      <trkpt lat="42.22006" lon="2.233552">
        <ele>733</ele>
        <time>1970-01-01T02:47:44.000Z</time>
      </trkpt>
      <trkpt lat="42.220029" lon="2.233494">
        <ele>733</ele>
        <time>1970-01-01T02:47:45.000Z</time>
      </trkpt>
      <trkpt lat="42.219998" lon="2.233436">
        <ele>733</ele>
        <time>1970-01-01T02:47:46.000Z</time>
      </trkpt>
      <trkpt lat="42.219966" lon="2.233378">
        <ele>733</ele>
        <time>1970-01-01T02:47:47.000Z</time>
      </trkpt>
      <trkpt lat="42.219935" lon="2.23332">
        <ele>733</ele>
        <time>1970-01-01T02:47:48.000Z</time>
      </trkpt>
      <trkpt lat="42.219921" lon="2.233158">
        <ele>733</ele>
        <time>1970-01-01T02:47:49.000Z</time>
      </trkpt>
      <trkpt lat="42.219921" lon="2.233081">
        <ele>733</ele>
        <time>1970-01-01T02:47:50.000Z</time>
      </trkpt>
      <trkpt lat="42.21992" lon="2.233003">
        <ele>733</ele>
        <time>1970-01-01T02:47:51.000Z</time>
      </trkpt>
      <trkpt lat="42.21992" lon="2.232925">
        <ele>733</ele>
        <time>1970-01-01T02:47:52.000Z</time>
      </trkpt>
      <trkpt lat="42.21992" lon="2.232847">
        <ele>733</ele>
        <time>1970-01-01T02:47:53.000Z</time>
      </trkpt>
      <trkpt lat="42.21992" lon="2.23277">
        <ele>733</ele>
        <time>1970-01-01T02:47:54.000Z</time>
      </trkpt>
      <trkpt lat="42.21992" lon="2.232692">
        <ele>733</ele>
        <time>1970-01-01T02:47:55.000Z</time>
      </trkpt>
      <trkpt lat="42.219919" lon="2.232614">
        <ele>733</ele>
        <time>1970-01-01T02:47:56.000Z</time>
      </trkpt>
      <trkpt lat="42.219919" lon="2.232537">
        <ele>733</ele>
        <time>1970-01-01T02:47:57.000Z</time>
      </trkpt>
      <trkpt lat="42.219919" lon="2.232459">
        <ele>733</ele>
        <time>1970-01-01T02:47:58.000Z</time>
      </trkpt>
      <trkpt lat="42.219915" lon="2.232289">
        <ele>733</ele>
        <time>1970-01-01T02:47:59.000Z</time>
      </trkpt>
      <trkpt lat="42.219912" lon="2.232208">
        <ele>733</ele>
        <time>1970-01-01T02:48:00.000Z</time>
      </trkpt>
      <trkpt lat="42.219908" lon="2.232128">
        <ele>733</ele>
        <time>1970-01-01T02:48:01.000Z</time>
      </trkpt>
      <trkpt lat="42.219905" lon="2.232047">
        <ele>733</ele>
        <time>1970-01-01T02:48:02.000Z</time>
      </trkpt>
      <trkpt lat="42.219901" lon="2.231966">
        <ele>733</ele>
        <time>1970-01-01T02:48:03.000Z</time>
      </trkpt>
      <trkpt lat="42.219897" lon="2.231885">
        <ele>733</ele>
        <time>1970-01-01T02:48:04.000Z</time>
      </trkpt>
      <trkpt lat="42.219894" lon="2.231804">
        <ele>733</ele>
        <time>1970-01-01T02:48:05.000Z</time>
      </trkpt>
      <trkpt lat="42.21989" lon="2.231724">
        <ele>733</ele>
        <time>1970-01-01T02:48:06.000Z</time>
      </trkpt>
      <trkpt lat="42.219887" lon="2.231643">
        <ele>733</ele>
        <time>1970-01-01T02:48:07.000Z</time>
      </trkpt>
      <trkpt lat="42.219883" lon="2.231562">
        <ele>733</ele>
        <time>1970-01-01T02:48:08.000Z</time>
      </trkpt>
      <trkpt lat="42.219872" lon="2.231381">
        <ele>733</ele>
        <time>1970-01-01T02:48:09.000Z</time>
      </trkpt>
      <trkpt lat="42.219866" lon="2.231293">
        <ele>733</ele>
        <time>1970-01-01T02:48:10.000Z</time>
      </trkpt>
      <trkpt lat="42.219861" lon="2.231205">
        <ele>733</ele>
        <time>1970-01-01T02:48:11.000Z</time>
      </trkpt>
      <trkpt lat="42.219855" lon="2.231117">
        <ele>733</ele>
        <time>1970-01-01T02:48:12.000Z</time>
      </trkpt>
      <trkpt lat="42.21985" lon="2.231028">
        <ele>733</ele>
        <time>1970-01-01T02:48:13.000Z</time>
      </trkpt>
      <trkpt lat="42.219845" lon="2.23094">
        <ele>733</ele>
        <time>1970-01-01T02:48:14.000Z</time>
      </trkpt>
      <trkpt lat="42.219839" lon="2.230852">
        <ele>733</ele>
        <time>1970-01-01T02:48:15.000Z</time>
      </trkpt>
      <trkpt lat="42.219834" lon="2.230764">
        <ele>733</ele>
        <time>1970-01-01T02:48:16.000Z</time>
      </trkpt>
      <trkpt lat="42.219828" lon="2.230676">
        <ele>733</ele>
        <time>1970-01-01T02:48:17.000Z</time>
      </trkpt>
      <trkpt lat="42.219823" lon="2.230588">
        <ele>733</ele>
        <time>1970-01-01T02:48:18.000Z</time>
      </trkpt>
      <trkpt lat="42.21981" lon="2.230384">
        <ele>733</ele>
        <time>1970-01-01T02:48:19.000Z</time>
      </trkpt>
      <trkpt lat="42.219803" lon="2.230285">
        <ele>733</ele>
        <time>1970-01-01T02:48:20.000Z</time>
      </trkpt>
      <trkpt lat="42.219797" lon="2.230186">
        <ele>733</ele>
        <time>1970-01-01T02:48:21.000Z</time>
      </trkpt>
      <trkpt lat="42.21979" lon="2.230087">
        <ele>733</ele>
        <time>1970-01-01T02:48:22.000Z</time>
      </trkpt>
      <trkpt lat="42.219783" lon="2.229988">
        <ele>733</ele>
        <time>1970-01-01T02:48:23.000Z</time>
      </trkpt>
      <trkpt lat="42.219776" lon="2.229889">
        <ele>733</ele>
        <time>1970-01-01T02:48:24.000Z</time>
      </trkpt>
      <trkpt lat="42.219769" lon="2.22979">
        <ele>733</ele>
        <time>1970-01-01T02:48:25.000Z</time>
      </trkpt>
      <trkpt lat="42.219763" lon="2.229691">
        <ele>733</ele>
        <time>1970-01-01T02:48:26.000Z</time>
      </trkpt>
      <trkpt lat="42.219756" lon="2.229592">
        <ele>733</ele>
        <time>1970-01-01T02:48:27.000Z</time>
      </trkpt>
      <trkpt lat="42.219749" lon="2.229493">
        <ele>732</ele>
        <time>1970-01-01T02:48:28.000Z</time>
      </trkpt>
      <trkpt lat="42.219735" lon="2.229284">
        <ele>732</ele>
        <time>1970-01-01T02:48:29.000Z</time>
      </trkpt>
      <trkpt lat="42.219729" lon="2.229186">
        <ele>732</ele>
        <time>1970-01-01T02:48:30.000Z</time>
      </trkpt>
      <trkpt lat="42.219723" lon="2.229087">
        <ele>732</ele>
        <time>1970-01-01T02:48:31.000Z</time>
      </trkpt>
      <trkpt lat="42.219717" lon="2.228989">
        <ele>732</ele>
        <time>1970-01-01T02:48:32.000Z</time>
      </trkpt>
      <trkpt lat="42.219711" lon="2.22889">
        <ele>732</ele>
        <time>1970-01-01T02:48:33.000Z</time>
      </trkpt>
      <trkpt lat="42.219704" lon="2.228792">
        <ele>732</ele>
        <time>1970-01-01T02:48:34.000Z</time>
      </trkpt>
      <trkpt lat="42.219698" lon="2.228693">
        <ele>732</ele>
        <time>1970-01-01T02:48:35.000Z</time>
      </trkpt>
      <trkpt lat="42.219692" lon="2.228595">
        <ele>732</ele>
        <time>1970-01-01T02:48:36.000Z</time>
      </trkpt>
      <trkpt lat="42.219686" lon="2.228496">
        <ele>732</ele>
        <time>1970-01-01T02:48:37.000Z</time>
      </trkpt>
      <trkpt lat="42.21968" lon="2.228398">
        <ele>731</ele>
        <time>1970-01-01T02:48:38.000Z</time>
      </trkpt>
      <trkpt lat="42.219667" lon="2.228192">
        <ele>731</ele>
        <time>1970-01-01T02:48:39.000Z</time>
      </trkpt>
      <trkpt lat="42.219662" lon="2.228095">
        <ele>731</ele>
        <time>1970-01-01T02:48:40.000Z</time>
      </trkpt>
      <trkpt lat="42.219656" lon="2.227998">
        <ele>731</ele>
        <time>1970-01-01T02:48:41.000Z</time>
      </trkpt>
      <trkpt lat="42.219651" lon="2.227901">
        <ele>731</ele>
        <time>1970-01-01T02:48:42.000Z</time>
      </trkpt>
      <trkpt lat="42.219645" lon="2.227803">
        <ele>731</ele>
        <time>1970-01-01T02:48:43.000Z</time>
      </trkpt>
      <trkpt lat="42.219639" lon="2.227706">
        <ele>731</ele>
        <time>1970-01-01T02:48:44.000Z</time>
      </trkpt>
      <trkpt lat="42.219634" lon="2.227609">
        <ele>731</ele>
        <time>1970-01-01T02:48:45.000Z</time>
      </trkpt>
      <trkpt lat="42.219628" lon="2.227512">
        <ele>731</ele>
        <time>1970-01-01T02:48:46.000Z</time>
      </trkpt>
      <trkpt lat="42.219623" lon="2.227415">
        <ele>731</ele>
        <time>1970-01-01T02:48:47.000Z</time>
      </trkpt>
      <trkpt lat="42.219617" lon="2.227318">
        <ele>732</ele>
        <time>1970-01-01T02:48:48.000Z</time>
      </trkpt>
      <trkpt lat="42.219602" lon="2.227107">
        <ele>732</ele>
        <time>1970-01-01T02:48:49.000Z</time>
      </trkpt>
      <trkpt lat="42.219596" lon="2.227005">
        <ele>732</ele>
        <time>1970-01-01T02:48:50.000Z</time>
      </trkpt>
      <trkpt lat="42.219589" lon="2.226902">
        <ele>732</ele>
        <time>1970-01-01T02:48:51.000Z</time>
      </trkpt>
      <trkpt lat="42.219583" lon="2.226799">
        <ele>732</ele>
        <time>1970-01-01T02:48:52.000Z</time>
      </trkpt>
      <trkpt lat="42.219576" lon="2.226696">
        <ele>732</ele>
        <time>1970-01-01T02:48:53.000Z</time>
      </trkpt>
      <trkpt lat="42.219569" lon="2.226594">
        <ele>732</ele>
        <time>1970-01-01T02:48:54.000Z</time>
      </trkpt>
      <trkpt lat="42.219563" lon="2.226491">
        <ele>732</ele>
        <time>1970-01-01T02:48:55.000Z</time>
      </trkpt>
      <trkpt lat="42.219556" lon="2.226388">
        <ele>732</ele>
        <time>1970-01-01T02:48:56.000Z</time>
      </trkpt>
      <trkpt lat="42.21955" lon="2.226286">
        <ele>732</ele>
        <time>1970-01-01T02:48:57.000Z</time>
      </trkpt>
      <trkpt lat="42.219543" lon="2.226183">
        <ele>730</ele>
        <time>1970-01-01T02:48:58.000Z</time>
      </trkpt>
      <trkpt lat="42.21953" lon="2.225958">
        <ele>730</ele>
        <time>1970-01-01T02:48:59.000Z</time>
      </trkpt>
      <trkpt lat="42.219526" lon="2.22585">
        <ele>730</ele>
        <time>1970-01-01T02:49:00.000Z</time>
      </trkpt>
      <trkpt lat="42.219521" lon="2.225742">
        <ele>730</ele>
        <time>1970-01-01T02:49:01.000Z</time>
      </trkpt>
      <trkpt lat="42.219516" lon="2.225634">
        <ele>730</ele>
        <time>1970-01-01T02:49:02.000Z</time>
      </trkpt>
      <trkpt lat="42.219512" lon="2.225526">
        <ele>730</ele>
        <time>1970-01-01T02:49:03.000Z</time>
      </trkpt>
      <trkpt lat="42.219507" lon="2.225418">
        <ele>730</ele>
        <time>1970-01-01T02:49:04.000Z</time>
      </trkpt>
      <trkpt lat="42.219502" lon="2.22531">
        <ele>730</ele>
        <time>1970-01-01T02:49:05.000Z</time>
      </trkpt>
      <trkpt lat="42.219497" lon="2.225202">
        <ele>730</ele>
        <time>1970-01-01T02:49:06.000Z</time>
      </trkpt>
      <trkpt lat="42.219493" lon="2.225094">
        <ele>730</ele>
        <time>1970-01-01T02:49:07.000Z</time>
      </trkpt>
      <trkpt lat="42.219488" lon="2.224986">
        <ele>729</ele>
        <time>1970-01-01T02:49:08.000Z</time>
      </trkpt>
      <trkpt lat="42.219486" lon="2.224865">
        <ele>729</ele>
        <time>1970-01-01T02:49:09.000Z</time>
      </trkpt>
      <trkpt lat="42.219486" lon="2.224743">
        <ele>729</ele>
        <time>1970-01-01T02:49:10.000Z</time>
      </trkpt>
      <trkpt lat="42.219486" lon="2.224619">
        <ele>729</ele>
        <time>1970-01-01T02:49:11.000Z</time>
      </trkpt>
      <trkpt lat="42.219487" lon="2.224495">
        <ele>729</ele>
        <time>1970-01-01T02:49:12.000Z</time>
      </trkpt>
      <trkpt lat="42.219488" lon="2.22437">
        <ele>729</ele>
        <time>1970-01-01T02:49:13.000Z</time>
      </trkpt>
      <trkpt lat="42.219489" lon="2.224244">
        <ele>729</ele>
        <time>1970-01-01T02:49:14.000Z</time>
      </trkpt>
      <trkpt lat="42.219491" lon="2.224117">
        <ele>729</ele>
        <time>1970-01-01T02:49:15.000Z</time>
      </trkpt>
      <trkpt lat="42.219493" lon="2.223988">
        <ele>729</ele>
        <time>1970-01-01T02:49:16.000Z</time>
      </trkpt>
      <trkpt lat="42.219495" lon="2.223858">
        <ele>729</ele>
        <time>1970-01-01T02:49:17.000Z</time>
      </trkpt>
      <trkpt lat="42.219496" lon="2.223726">
        <ele>728</ele>
        <time>1970-01-01T02:49:18.000Z</time>
      </trkpt>
      <trkpt lat="42.219496" lon="2.223594">
        <ele>728</ele>
        <time>1970-01-01T02:49:19.000Z</time>
      </trkpt>
      <trkpt lat="42.219497" lon="2.223462">
        <ele>728</ele>
        <time>1970-01-01T02:49:20.000Z</time>
      </trkpt>
      <trkpt lat="42.219498" lon="2.223328">
        <ele>728</ele>
        <time>1970-01-01T02:49:21.000Z</time>
      </trkpt>
      <trkpt lat="42.2195" lon="2.223194">
        <ele>728</ele>
        <time>1970-01-01T02:49:22.000Z</time>
      </trkpt>
      <trkpt lat="42.219501" lon="2.22306">
        <ele>728</ele>
        <time>1970-01-01T02:49:23.000Z</time>
      </trkpt>
      <trkpt lat="42.2195" lon="2.222926">
        <ele>728</ele>
        <time>1970-01-01T02:49:24.000Z</time>
      </trkpt>
      <trkpt lat="42.2195" lon="2.222791">
        <ele>728</ele>
        <time>1970-01-01T02:49:25.000Z</time>
      </trkpt>
      <trkpt lat="42.219498" lon="2.222654">
        <ele>728</ele>
        <time>1970-01-01T02:49:26.000Z</time>
      </trkpt>
      <trkpt lat="42.219498" lon="2.222516">
        <ele>728</ele>
        <time>1970-01-01T02:49:27.000Z</time>
      </trkpt>
      <trkpt lat="42.219498" lon="2.222377">
        <ele>727</ele>
        <time>1970-01-01T02:49:28.000Z</time>
      </trkpt>
      <trkpt lat="42.219497" lon="2.222238">
        <ele>727</ele>
        <time>1970-01-01T02:49:29.000Z</time>
      </trkpt>
      <trkpt lat="42.219495" lon="2.222097">
        <ele>727</ele>
        <time>1970-01-01T02:49:30.000Z</time>
      </trkpt>
      <trkpt lat="42.219493" lon="2.221957">
        <ele>727</ele>
        <time>1970-01-01T02:49:31.000Z</time>
      </trkpt>
      <trkpt lat="42.219492" lon="2.221815">
        <ele>727</ele>
        <time>1970-01-01T02:49:32.000Z</time>
      </trkpt>
      <trkpt lat="42.219491" lon="2.221673">
        <ele>727</ele>
        <time>1970-01-01T02:49:33.000Z</time>
      </trkpt>
      <trkpt lat="42.219489" lon="2.22153">
        <ele>727</ele>
        <time>1970-01-01T02:49:34.000Z</time>
      </trkpt>
      <trkpt lat="42.219487" lon="2.221387">
        <ele>727</ele>
        <time>1970-01-01T02:49:35.000Z</time>
      </trkpt>
      <trkpt lat="42.219486" lon="2.221242">
        <ele>727</ele>
        <time>1970-01-01T02:49:36.000Z</time>
      </trkpt>
      <trkpt lat="42.219486" lon="2.221023">
        <ele>727</ele>
        <time>1970-01-01T02:49:37.000Z</time>
      </trkpt>
      <trkpt lat="42.219485" lon="2.22095">
        <ele>725</ele>
        <time>1970-01-01T02:49:38.000Z</time>
      </trkpt>
      <trkpt lat="42.219484" lon="2.220803">
        <ele>725</ele>
        <time>1970-01-01T02:49:39.000Z</time>
      </trkpt>
      <trkpt lat="42.219487" lon="2.220656">
        <ele>725</ele>
        <time>1970-01-01T02:49:40.000Z</time>
      </trkpt>
      <trkpt lat="42.219489" lon="2.220508">
        <ele>725</ele>
        <time>1970-01-01T02:49:41.000Z</time>
      </trkpt>
      <trkpt lat="42.219491" lon="2.220358">
        <ele>725</ele>
        <time>1970-01-01T02:49:42.000Z</time>
      </trkpt>
      <trkpt lat="42.219492" lon="2.220208">
        <ele>725</ele>
        <time>1970-01-01T02:49:43.000Z</time>
      </trkpt>
      <trkpt lat="42.219493" lon="2.220057">
        <ele>725</ele>
        <time>1970-01-01T02:49:44.000Z</time>
      </trkpt>
      <trkpt lat="42.219495" lon="2.219905">
        <ele>725</ele>
        <time>1970-01-01T02:49:45.000Z</time>
      </trkpt>
      <trkpt lat="42.219497" lon="2.219752">
        <ele>725</ele>
        <time>1970-01-01T02:49:46.000Z</time>
      </trkpt>
      <trkpt lat="42.219499" lon="2.219522">
        <ele>725</ele>
        <time>1970-01-01T02:49:47.000Z</time>
      </trkpt>
      <trkpt lat="42.2195" lon="2.219445">
        <ele>721</ele>
        <time>1970-01-01T02:49:48.000Z</time>
      </trkpt>
      <trkpt lat="42.219502" lon="2.219291">
        <ele>721</ele>
        <time>1970-01-01T02:49:49.000Z</time>
      </trkpt>
      <trkpt lat="42.219504" lon="2.219137">
        <ele>721</ele>
        <time>1970-01-01T02:49:50.000Z</time>
      </trkpt>
      <trkpt lat="42.219506" lon="2.218983">
        <ele>721</ele>
        <time>1970-01-01T02:49:51.000Z</time>
      </trkpt>
      <trkpt lat="42.219509" lon="2.218828">
        <ele>721</ele>
        <time>1970-01-01T02:49:52.000Z</time>
      </trkpt>
      <trkpt lat="42.219511" lon="2.218674">
        <ele>721</ele>
        <time>1970-01-01T02:49:53.000Z</time>
      </trkpt>
      <trkpt lat="42.219513" lon="2.21852">
        <ele>721</ele>
        <time>1970-01-01T02:49:54.000Z</time>
      </trkpt>
      <trkpt lat="42.219517" lon="2.218368">
        <ele>721</ele>
        <time>1970-01-01T02:49:55.000Z</time>
      </trkpt>
      <trkpt lat="42.21952" lon="2.218215">
        <ele>721</ele>
        <time>1970-01-01T02:49:56.000Z</time>
      </trkpt>
      <trkpt lat="42.219524" lon="2.217987">
        <ele>721</ele>
        <time>1970-01-01T02:49:57.000Z</time>
      </trkpt>
      <trkpt lat="42.219525" lon="2.217911">
        <ele>717</ele>
        <time>1970-01-01T02:49:58.000Z</time>
      </trkpt>
      <trkpt lat="42.219528" lon="2.217759">
        <ele>717</ele>
        <time>1970-01-01T02:49:59.000Z</time>
      </trkpt>
      <trkpt lat="42.219532" lon="2.21761">
        <ele>717</ele>
        <time>1970-01-01T02:50:00.000Z</time>
      </trkpt>
      <trkpt lat="42.219535" lon="2.217462">
        <ele>717</ele>
        <time>1970-01-01T02:50:01.000Z</time>
      </trkpt>
      <trkpt lat="42.219538" lon="2.217315">
        <ele>717</ele>
        <time>1970-01-01T02:50:02.000Z</time>
      </trkpt>
      <trkpt lat="42.21954" lon="2.21717">
        <ele>717</ele>
        <time>1970-01-01T02:50:03.000Z</time>
      </trkpt>
      <trkpt lat="42.219544" lon="2.217026">
        <ele>717</ele>
        <time>1970-01-01T02:50:04.000Z</time>
      </trkpt>
      <trkpt lat="42.219546" lon="2.216881">
        <ele>717</ele>
        <time>1970-01-01T02:50:05.000Z</time>
      </trkpt>
      <trkpt lat="42.219548" lon="2.216738">
        <ele>717</ele>
        <time>1970-01-01T02:50:06.000Z</time>
      </trkpt>
      <trkpt lat="42.21955" lon="2.216527">
        <ele>717</ele>
        <time>1970-01-01T02:50:07.000Z</time>
      </trkpt>
      <trkpt lat="42.219549" lon="2.216458">
        <ele>716</ele>
        <time>1970-01-01T02:50:08.000Z</time>
      </trkpt>
      <trkpt lat="42.219548" lon="2.216319">
        <ele>716</ele>
        <time>1970-01-01T02:50:09.000Z</time>
      </trkpt>
      <trkpt lat="42.219547" lon="2.216182">
        <ele>716</ele>
        <time>1970-01-01T02:50:10.000Z</time>
      </trkpt>
      <trkpt lat="42.219545" lon="2.216046">
        <ele>716</ele>
        <time>1970-01-01T02:50:11.000Z</time>
      </trkpt>
      <trkpt lat="42.219542" lon="2.215911">
        <ele>716</ele>
        <time>1970-01-01T02:50:12.000Z</time>
      </trkpt>
      <trkpt lat="42.219538" lon="2.215778">
        <ele>716</ele>
        <time>1970-01-01T02:50:13.000Z</time>
      </trkpt>
      <trkpt lat="42.219525" lon="2.215646">
        <ele>716</ele>
        <time>1970-01-01T02:50:14.000Z</time>
      </trkpt>
      <trkpt lat="42.219503" lon="2.215518">
        <ele>716</ele>
        <time>1970-01-01T02:50:15.000Z</time>
      </trkpt>
      <trkpt lat="42.219475" lon="2.215392">
        <ele>716</ele>
        <time>1970-01-01T02:50:16.000Z</time>
      </trkpt>
      <trkpt lat="42.219441" lon="2.21527">
        <ele>716</ele>
        <time>1970-01-01T02:50:17.000Z</time>
      </trkpt>
      <trkpt lat="42.219404" lon="2.21515">
        <ele>716</ele>
        <time>1970-01-01T02:50:18.000Z</time>
      </trkpt>
      <trkpt lat="42.219366" lon="2.215031">
        <ele>716</ele>
        <time>1970-01-01T02:50:19.000Z</time>
      </trkpt>
      <trkpt lat="42.219328" lon="2.214914">
        <ele>716</ele>
        <time>1970-01-01T02:50:20.000Z</time>
      </trkpt>
      <trkpt lat="42.219291" lon="2.214797">
        <ele>716</ele>
        <time>1970-01-01T02:50:21.000Z</time>
      </trkpt>
      <trkpt lat="42.219254" lon="2.214682">
        <ele>716</ele>
        <time>1970-01-01T02:50:22.000Z</time>
      </trkpt>
      <trkpt lat="42.219217" lon="2.214568">
        <ele>716</ele>
        <time>1970-01-01T02:50:23.000Z</time>
      </trkpt>
      <trkpt lat="42.21918" lon="2.214454">
        <ele>716</ele>
        <time>1970-01-01T02:50:24.000Z</time>
      </trkpt>
      <trkpt lat="42.219143" lon="2.214341">
        <ele>716</ele>
        <time>1970-01-01T02:50:25.000Z</time>
      </trkpt>
      <trkpt lat="42.219107" lon="2.214227">
        <ele>716</ele>
        <time>1970-01-01T02:50:26.000Z</time>
      </trkpt>
      <trkpt lat="42.219071" lon="2.214113">
        <ele>716</ele>
        <time>1970-01-01T02:50:27.000Z</time>
      </trkpt>
      <trkpt lat="42.219034" lon="2.213999">
        <ele>716</ele>
        <time>1970-01-01T02:50:28.000Z</time>
      </trkpt>
      <trkpt lat="42.218966" lon="2.213788">
        <ele>716</ele>
        <time>1970-01-01T02:50:29.000Z</time>
      </trkpt>
      <trkpt lat="42.218934" lon="2.21369">
        <ele>716</ele>
        <time>1970-01-01T02:50:30.000Z</time>
      </trkpt>
      <trkpt lat="42.218903" lon="2.213592">
        <ele>716</ele>
        <time>1970-01-01T02:50:31.000Z</time>
      </trkpt>
      <trkpt lat="42.218871" lon="2.213494">
        <ele>716</ele>
        <time>1970-01-01T02:50:32.000Z</time>
      </trkpt>
      <trkpt lat="42.21884" lon="2.213396">
        <ele>716</ele>
        <time>1970-01-01T02:50:33.000Z</time>
      </trkpt>
      <trkpt lat="42.218808" lon="2.213299">
        <ele>716</ele>
        <time>1970-01-01T02:50:34.000Z</time>
      </trkpt>
      <trkpt lat="42.218777" lon="2.213201">
        <ele>716</ele>
        <time>1970-01-01T02:50:35.000Z</time>
      </trkpt>
      <trkpt lat="42.218745" lon="2.213103">
        <ele>716</ele>
        <time>1970-01-01T02:50:36.000Z</time>
      </trkpt>
      <trkpt lat="42.218714" lon="2.213005">
        <ele>716</ele>
        <time>1970-01-01T02:50:37.000Z</time>
      </trkpt>
      <trkpt lat="42.218682" lon="2.212907">
        <ele>715</ele>
        <time>1970-01-01T02:50:38.000Z</time>
      </trkpt>
      <trkpt lat="42.218618" lon="2.212708">
        <ele>715</ele>
        <time>1970-01-01T02:50:39.000Z</time>
      </trkpt>
      <trkpt lat="42.218587" lon="2.212613">
        <ele>715</ele>
        <time>1970-01-01T02:50:40.000Z</time>
      </trkpt>
      <trkpt lat="42.218557" lon="2.212519">
        <ele>715</ele>
        <time>1970-01-01T02:50:41.000Z</time>
      </trkpt>
      <trkpt lat="42.218526" lon="2.212425">
        <ele>715</ele>
        <time>1970-01-01T02:50:42.000Z</time>
      </trkpt>
      <trkpt lat="42.218496" lon="2.21233">
        <ele>715</ele>
        <time>1970-01-01T02:50:43.000Z</time>
      </trkpt>
      <trkpt lat="42.218465" lon="2.212236">
        <ele>715</ele>
        <time>1970-01-01T02:50:44.000Z</time>
      </trkpt>
      <trkpt lat="42.218435" lon="2.212142">
        <ele>715</ele>
        <time>1970-01-01T02:50:45.000Z</time>
      </trkpt>
      <trkpt lat="42.218404" lon="2.212048">
        <ele>715</ele>
        <time>1970-01-01T02:50:46.000Z</time>
      </trkpt>
      <trkpt lat="42.218374" lon="2.211953">
        <ele>715</ele>
        <time>1970-01-01T02:50:47.000Z</time>
      </trkpt>
      <trkpt lat="42.218343" lon="2.211859">
        <ele>715</ele>
        <time>1970-01-01T02:50:48.000Z</time>
      </trkpt>
      <trkpt lat="42.21828" lon="2.211662">
        <ele>715</ele>
        <time>1970-01-01T02:50:49.000Z</time>
      </trkpt>
      <trkpt lat="42.21825" lon="2.21157">
        <ele>715</ele>
        <time>1970-01-01T02:50:50.000Z</time>
      </trkpt>
      <trkpt lat="42.218221" lon="2.211477">
        <ele>715</ele>
        <time>1970-01-01T02:50:51.000Z</time>
      </trkpt>
      <trkpt lat="42.218192" lon="2.211385">
        <ele>715</ele>
        <time>1970-01-01T02:50:52.000Z</time>
      </trkpt>
      <trkpt lat="42.218163" lon="2.211292">
        <ele>715</ele>
        <time>1970-01-01T02:50:53.000Z</time>
      </trkpt>
      <trkpt lat="42.218133" lon="2.211199">
        <ele>715</ele>
        <time>1970-01-01T02:50:54.000Z</time>
      </trkpt>
      <trkpt lat="42.218104" lon="2.211107">
        <ele>715</ele>
        <time>1970-01-01T02:50:55.000Z</time>
      </trkpt>
      <trkpt lat="42.218075" lon="2.211014">
        <ele>715</ele>
        <time>1970-01-01T02:50:56.000Z</time>
      </trkpt>
      <trkpt lat="42.218045" lon="2.210922">
        <ele>715</ele>
        <time>1970-01-01T02:50:57.000Z</time>
      </trkpt>
      <trkpt lat="42.218016" lon="2.210829">
        <ele>714</ele>
        <time>1970-01-01T02:50:58.000Z</time>
      </trkpt>
      <trkpt lat="42.217955" lon="2.210636">
        <ele>714</ele>
        <time>1970-01-01T02:50:59.000Z</time>
      </trkpt>
      <trkpt lat="42.217926" lon="2.210545">
        <ele>714</ele>
        <time>1970-01-01T02:51:00.000Z</time>
      </trkpt>
      <trkpt lat="42.217898" lon="2.210454">
        <ele>714</ele>
        <time>1970-01-01T02:51:01.000Z</time>
      </trkpt>
      <trkpt lat="42.217869" lon="2.210363">
        <ele>714</ele>
        <time>1970-01-01T02:51:02.000Z</time>
      </trkpt>
      <trkpt lat="42.217841" lon="2.210272">
        <ele>714</ele>
        <time>1970-01-01T02:51:03.000Z</time>
      </trkpt>
      <trkpt lat="42.217813" lon="2.210182">
        <ele>714</ele>
        <time>1970-01-01T02:51:04.000Z</time>
      </trkpt>
      <trkpt lat="42.217784" lon="2.210091">
        <ele>714</ele>
        <time>1970-01-01T02:51:05.000Z</time>
      </trkpt>
      <trkpt lat="42.217756" lon="2.21">
        <ele>714</ele>
        <time>1970-01-01T02:51:06.000Z</time>
      </trkpt>
      <trkpt lat="42.217727" lon="2.209909">
        <ele>714</ele>
        <time>1970-01-01T02:51:07.000Z</time>
      </trkpt>
      <trkpt lat="42.217699" lon="2.209818">
        <ele>714</ele>
        <time>1970-01-01T02:51:08.000Z</time>
      </trkpt>
      <trkpt lat="42.217638" lon="2.209627">
        <ele>714</ele>
        <time>1970-01-01T02:51:09.000Z</time>
      </trkpt>
      <trkpt lat="42.217609" lon="2.209537">
        <ele>714</ele>
        <time>1970-01-01T02:51:10.000Z</time>
      </trkpt>
      <trkpt lat="42.21758" lon="2.209448">
        <ele>714</ele>
        <time>1970-01-01T02:51:11.000Z</time>
      </trkpt>
      <trkpt lat="42.217551" lon="2.209359">
        <ele>714</ele>
        <time>1970-01-01T02:51:12.000Z</time>
      </trkpt>
      <trkpt lat="42.217523" lon="2.209269">
        <ele>714</ele>
        <time>1970-01-01T02:51:13.000Z</time>
      </trkpt>
      <trkpt lat="42.217494" lon="2.20918">
        <ele>714</ele>
        <time>1970-01-01T02:51:14.000Z</time>
      </trkpt>
      <trkpt lat="42.217465" lon="2.209091">
        <ele>714</ele>
        <time>1970-01-01T02:51:15.000Z</time>
      </trkpt>
      <trkpt lat="42.217436" lon="2.209002">
        <ele>714</ele>
        <time>1970-01-01T02:51:16.000Z</time>
      </trkpt>
      <trkpt lat="42.217407" lon="2.208912">
        <ele>714</ele>
        <time>1970-01-01T02:51:17.000Z</time>
      </trkpt>
      <trkpt lat="42.217378" lon="2.208823">
        <ele>715</ele>
        <time>1970-01-01T02:51:18.000Z</time>
      </trkpt>
      <trkpt lat="42.217318" lon="2.208638">
        <ele>715</ele>
        <time>1970-01-01T02:51:19.000Z</time>
      </trkpt>
      <trkpt lat="42.217289" lon="2.208551">
        <ele>715</ele>
        <time>1970-01-01T02:51:20.000Z</time>
      </trkpt>
      <trkpt lat="42.217261" lon="2.208463">
        <ele>715</ele>
        <time>1970-01-01T02:51:21.000Z</time>
      </trkpt>
      <trkpt lat="42.217233" lon="2.208376">
        <ele>715</ele>
        <time>1970-01-01T02:51:22.000Z</time>
      </trkpt>
      <trkpt lat="42.217205" lon="2.208288">
        <ele>715</ele>
        <time>1970-01-01T02:51:23.000Z</time>
      </trkpt>
      <trkpt lat="42.217176" lon="2.208201">
        <ele>715</ele>
        <time>1970-01-01T02:51:24.000Z</time>
      </trkpt>
      <trkpt lat="42.217148" lon="2.208113">
        <ele>715</ele>
        <time>1970-01-01T02:51:25.000Z</time>
      </trkpt>
      <trkpt lat="42.21712" lon="2.208026">
        <ele>715</ele>
        <time>1970-01-01T02:51:26.000Z</time>
      </trkpt>
      <trkpt lat="42.217091" lon="2.207938">
        <ele>715</ele>
        <time>1970-01-01T02:51:27.000Z</time>
      </trkpt>
      <trkpt lat="42.217063" lon="2.207851">
        <ele>715</ele>
        <time>1970-01-01T02:51:28.000Z</time>
      </trkpt>
      <trkpt lat="42.217004" lon="2.207667">
        <ele>715</ele>
        <time>1970-01-01T02:51:29.000Z</time>
      </trkpt>
      <trkpt lat="42.216976" lon="2.20758">
        <ele>715</ele>
        <time>1970-01-01T02:51:30.000Z</time>
      </trkpt>
      <trkpt lat="42.216949" lon="2.207494">
        <ele>715</ele>
        <time>1970-01-01T02:51:31.000Z</time>
      </trkpt>
      <trkpt lat="42.216921" lon="2.207407">
        <ele>715</ele>
        <time>1970-01-01T02:51:32.000Z</time>
      </trkpt>
      <trkpt lat="42.216893" lon="2.20732">
        <ele>715</ele>
        <time>1970-01-01T02:51:33.000Z</time>
      </trkpt>
      <trkpt lat="42.216865" lon="2.207233">
        <ele>715</ele>
        <time>1970-01-01T02:51:34.000Z</time>
      </trkpt>
      <trkpt lat="42.216837" lon="2.207146">
        <ele>715</ele>
        <time>1970-01-01T02:51:35.000Z</time>
      </trkpt>
      <trkpt lat="42.21681" lon="2.20706">
        <ele>715</ele>
        <time>1970-01-01T02:51:36.000Z</time>
      </trkpt>
      <trkpt lat="42.216782" lon="2.206973">
        <ele>715</ele>
        <time>1970-01-01T02:51:37.000Z</time>
      </trkpt>
      <trkpt lat="42.216754" lon="2.206886">
        <ele>715</ele>
        <time>1970-01-01T02:51:38.000Z</time>
      </trkpt>
      <trkpt lat="42.216705" lon="2.206694">
        <ele>715</ele>
        <time>1970-01-01T02:51:39.000Z</time>
      </trkpt>
      <trkpt lat="42.216687" lon="2.206601">
        <ele>715</ele>
        <time>1970-01-01T02:51:40.000Z</time>
      </trkpt>
      <trkpt lat="42.216669" lon="2.206507">
        <ele>715</ele>
        <time>1970-01-01T02:51:41.000Z</time>
      </trkpt>
      <trkpt lat="42.216651" lon="2.206414">
        <ele>715</ele>
        <time>1970-01-01T02:51:42.000Z</time>
      </trkpt>
      <trkpt lat="42.216634" lon="2.206321">
        <ele>715</ele>
        <time>1970-01-01T02:51:43.000Z</time>
      </trkpt>
      <trkpt lat="42.216616" lon="2.206228">
        <ele>715</ele>
        <time>1970-01-01T02:51:44.000Z</time>
      </trkpt>
      <trkpt lat="42.216598" lon="2.206135">
        <ele>715</ele>
        <time>1970-01-01T02:51:45.000Z</time>
      </trkpt>
      <trkpt lat="42.21658" lon="2.206041">
        <ele>715</ele>
        <time>1970-01-01T02:51:46.000Z</time>
      </trkpt>
      <trkpt lat="42.216562" lon="2.205948">
        <ele>715</ele>
        <time>1970-01-01T02:51:47.000Z</time>
      </trkpt>
      <trkpt lat="42.216544" lon="2.205855">
        <ele>713</ele>
        <time>1970-01-01T02:51:48.000Z</time>
      </trkpt>
      <trkpt lat="42.21648" lon="2.205688">
        <ele>713</ele>
        <time>1970-01-01T02:51:49.000Z</time>
      </trkpt>
      <trkpt lat="42.216445" lon="2.205612">
        <ele>713</ele>
        <time>1970-01-01T02:51:50.000Z</time>
      </trkpt>
      <trkpt lat="42.216411" lon="2.205535">
        <ele>713</ele>
        <time>1970-01-01T02:51:51.000Z</time>
      </trkpt>
      <trkpt lat="42.216376" lon="2.205458">
        <ele>713</ele>
        <time>1970-01-01T02:51:52.000Z</time>
      </trkpt>
      <trkpt lat="42.216342" lon="2.205381">
        <ele>713</ele>
        <time>1970-01-01T02:51:53.000Z</time>
      </trkpt>
      <trkpt lat="42.216308" lon="2.205305">
        <ele>713</ele>
        <time>1970-01-01T02:51:54.000Z</time>
      </trkpt>
      <trkpt lat="42.216273" lon="2.205228">
        <ele>713</ele>
        <time>1970-01-01T02:51:55.000Z</time>
      </trkpt>
      <trkpt lat="42.216239" lon="2.205151">
        <ele>713</ele>
        <time>1970-01-01T02:51:56.000Z</time>
      </trkpt>
      <trkpt lat="42.216204" lon="2.205075">
        <ele>713</ele>
        <time>1970-01-01T02:51:57.000Z</time>
      </trkpt>
      <trkpt lat="42.21617" lon="2.204998">
        <ele>711</ele>
        <time>1970-01-01T02:51:58.000Z</time>
      </trkpt>
      <trkpt lat="42.216117" lon="2.20483">
        <ele>711</ele>
        <time>1970-01-01T02:51:59.000Z</time>
      </trkpt>
      <trkpt lat="42.216093" lon="2.204751">
        <ele>711</ele>
        <time>1970-01-01T02:52:00.000Z</time>
      </trkpt>
      <trkpt lat="42.216068" lon="2.204671">
        <ele>711</ele>
        <time>1970-01-01T02:52:01.000Z</time>
      </trkpt>
      <trkpt lat="42.216044" lon="2.204592">
        <ele>711</ele>
        <time>1970-01-01T02:52:02.000Z</time>
      </trkpt>
      <trkpt lat="42.216019" lon="2.204512">
        <ele>711</ele>
        <time>1970-01-01T02:52:03.000Z</time>
      </trkpt>
      <trkpt lat="42.215994" lon="2.204432">
        <ele>711</ele>
        <time>1970-01-01T02:52:04.000Z</time>
      </trkpt>
      <trkpt lat="42.21597" lon="2.204353">
        <ele>711</ele>
        <time>1970-01-01T02:52:05.000Z</time>
      </trkpt>
      <trkpt lat="42.215945" lon="2.204273">
        <ele>711</ele>
        <time>1970-01-01T02:52:06.000Z</time>
      </trkpt>
      <trkpt lat="42.215921" lon="2.204194">
        <ele>711</ele>
        <time>1970-01-01T02:52:07.000Z</time>
      </trkpt>
      <trkpt lat="42.215896" lon="2.204114">
        <ele>712</ele>
        <time>1970-01-01T02:52:08.000Z</time>
      </trkpt>
      <trkpt lat="42.215842" lon="2.203945">
        <ele>712</ele>
        <time>1970-01-01T02:52:09.000Z</time>
      </trkpt>
      <trkpt lat="42.215816" lon="2.203863">
        <ele>712</ele>
        <time>1970-01-01T02:52:10.000Z</time>
      </trkpt>
      <trkpt lat="42.21579" lon="2.203782">
        <ele>712</ele>
        <time>1970-01-01T02:52:11.000Z</time>
      </trkpt>
      <trkpt lat="42.215764" lon="2.2037">
        <ele>712</ele>
        <time>1970-01-01T02:52:12.000Z</time>
      </trkpt>
      <trkpt lat="42.215738" lon="2.203619">
        <ele>712</ele>
        <time>1970-01-01T02:52:13.000Z</time>
      </trkpt>
      <trkpt lat="42.215712" lon="2.203538">
        <ele>712</ele>
        <time>1970-01-01T02:52:14.000Z</time>
      </trkpt>
      <trkpt lat="42.215686" lon="2.203456">
        <ele>712</ele>
        <time>1970-01-01T02:52:15.000Z</time>
      </trkpt>
      <trkpt lat="42.21566" lon="2.203375">
        <ele>712</ele>
        <time>1970-01-01T02:52:16.000Z</time>
      </trkpt>
      <trkpt lat="42.215634" lon="2.203293">
        <ele>712</ele>
        <time>1970-01-01T02:52:17.000Z</time>
      </trkpt>
      <trkpt lat="42.215608" lon="2.203212">
        <ele>712</ele>
        <time>1970-01-01T02:52:18.000Z</time>
      </trkpt>
      <trkpt lat="42.215553" lon="2.203041">
        <ele>712</ele>
        <time>1970-01-01T02:52:19.000Z</time>
      </trkpt>
      <trkpt lat="42.215528" lon="2.20296">
        <ele>712</ele>
        <time>1970-01-01T02:52:20.000Z</time>
      </trkpt>
      <trkpt lat="42.215502" lon="2.202878">
        <ele>712</ele>
        <time>1970-01-01T02:52:21.000Z</time>
      </trkpt>
      <trkpt lat="42.215477" lon="2.202797">
        <ele>712</ele>
        <time>1970-01-01T02:52:22.000Z</time>
      </trkpt>
      <trkpt lat="42.215451" lon="2.202716">
        <ele>712</ele>
        <time>1970-01-01T02:52:23.000Z</time>
      </trkpt>
      <trkpt lat="42.215425" lon="2.202635">
        <ele>712</ele>
        <time>1970-01-01T02:52:24.000Z</time>
      </trkpt>
      <trkpt lat="42.2154" lon="2.202554">
        <ele>712</ele>
        <time>1970-01-01T02:52:25.000Z</time>
      </trkpt>
      <trkpt lat="42.215374" lon="2.202472">
        <ele>712</ele>
        <time>1970-01-01T02:52:26.000Z</time>
      </trkpt>
      <trkpt lat="42.215349" lon="2.202391">
        <ele>712</ele>
        <time>1970-01-01T02:52:27.000Z</time>
      </trkpt>
      <trkpt lat="42.215323" lon="2.20231">
        <ele>712</ele>
        <time>1970-01-01T02:52:28.000Z</time>
      </trkpt>
      <trkpt lat="42.215238" lon="2.202185">
        <ele>712</ele>
        <time>1970-01-01T02:52:29.000Z</time>
      </trkpt>
      <trkpt lat="42.215182" lon="2.202146">
        <ele>712</ele>
        <time>1970-01-01T02:52:30.000Z</time>
      </trkpt>
      <trkpt lat="42.215126" lon="2.202108">
        <ele>712</ele>
        <time>1970-01-01T02:52:31.000Z</time>
      </trkpt>
      <trkpt lat="42.21507" lon="2.20207">
        <ele>712</ele>
        <time>1970-01-01T02:52:32.000Z</time>
      </trkpt>
      <trkpt lat="42.215015" lon="2.202031">
        <ele>712</ele>
        <time>1970-01-01T02:52:33.000Z</time>
      </trkpt>
      <trkpt lat="42.214959" lon="2.201993">
        <ele>712</ele>
        <time>1970-01-01T02:52:34.000Z</time>
      </trkpt>
      <trkpt lat="42.214903" lon="2.201955">
        <ele>712</ele>
        <time>1970-01-01T02:52:35.000Z</time>
      </trkpt>
      <trkpt lat="42.214847" lon="2.201917">
        <ele>712</ele>
        <time>1970-01-01T02:52:36.000Z</time>
      </trkpt>
      <trkpt lat="42.214791" lon="2.201878">
        <ele>712</ele>
        <time>1970-01-01T02:52:37.000Z</time>
      </trkpt>
      <trkpt lat="42.214735" lon="2.20184">
        <ele>712</ele>
        <time>1970-01-01T02:52:38.000Z</time>
      </trkpt>
      <trkpt lat="42.214589" lon="2.201828">
        <ele>712</ele>
        <time>1970-01-01T02:52:39.000Z</time>
      </trkpt>
      <trkpt lat="42.21452" lon="2.201823">
        <ele>712</ele>
        <time>1970-01-01T02:52:40.000Z</time>
      </trkpt>
      <trkpt lat="42.214451" lon="2.201817">
        <ele>712</ele>
        <time>1970-01-01T02:52:41.000Z</time>
      </trkpt>
      <trkpt lat="42.214382" lon="2.201811">
        <ele>712</ele>
        <time>1970-01-01T02:52:42.000Z</time>
      </trkpt>
      <trkpt lat="42.214314" lon="2.201805">
        <ele>712</ele>
        <time>1970-01-01T02:52:43.000Z</time>
      </trkpt>
      <trkpt lat="42.214245" lon="2.2018">
        <ele>712</ele>
        <time>1970-01-01T02:52:44.000Z</time>
      </trkpt>
      <trkpt lat="42.214176" lon="2.201794">
        <ele>712</ele>
        <time>1970-01-01T02:52:45.000Z</time>
      </trkpt>
      <trkpt lat="42.214107" lon="2.201788">
        <ele>712</ele>
        <time>1970-01-01T02:52:46.000Z</time>
      </trkpt>
      <trkpt lat="42.214038" lon="2.201783">
        <ele>712</ele>
        <time>1970-01-01T02:52:47.000Z</time>
      </trkpt>
      <trkpt lat="42.213969" lon="2.201777">
        <ele>711</ele>
        <time>1970-01-01T02:52:48.000Z</time>
      </trkpt>
      <trkpt lat="42.21383" lon="2.2017">
        <ele>711</ele>
        <time>1970-01-01T02:52:49.000Z</time>
      </trkpt>
      <trkpt lat="42.213764" lon="2.201661">
        <ele>711</ele>
        <time>1970-01-01T02:52:50.000Z</time>
      </trkpt>
      <trkpt lat="42.213698" lon="2.201621">
        <ele>711</ele>
        <time>1970-01-01T02:52:51.000Z</time>
      </trkpt>
      <trkpt lat="42.213632" lon="2.201582">
        <ele>711</ele>
        <time>1970-01-01T02:52:52.000Z</time>
      </trkpt>
      <trkpt lat="42.213566" lon="2.201542">
        <ele>711</ele>
        <time>1970-01-01T02:52:53.000Z</time>
      </trkpt>
      <trkpt lat="42.213499" lon="2.201502">
        <ele>711</ele>
        <time>1970-01-01T02:52:54.000Z</time>
      </trkpt>
      <trkpt lat="42.213433" lon="2.201463">
        <ele>711</ele>
        <time>1970-01-01T02:52:55.000Z</time>
      </trkpt>
      <trkpt lat="42.213367" lon="2.201423">
        <ele>711</ele>
        <time>1970-01-01T02:52:56.000Z</time>
      </trkpt>
      <trkpt lat="42.213301" lon="2.201384">
        <ele>711</ele>
        <time>1970-01-01T02:52:57.000Z</time>
      </trkpt>
      <trkpt lat="42.213235" lon="2.201344">
        <ele>709</ele>
        <time>1970-01-01T02:52:58.000Z</time>
      </trkpt>
      <trkpt lat="42.213091" lon="2.201261">
        <ele>709</ele>
        <time>1970-01-01T02:52:59.000Z</time>
      </trkpt>
      <trkpt lat="42.213019" lon="2.201225">
        <ele>709</ele>
        <time>1970-01-01T02:53:00.000Z</time>
      </trkpt>
      <trkpt lat="42.212946" lon="2.20119">
        <ele>709</ele>
        <time>1970-01-01T02:53:01.000Z</time>
      </trkpt>
      <trkpt lat="42.212874" lon="2.201154">
        <ele>709</ele>
        <time>1970-01-01T02:53:02.000Z</time>
      </trkpt>
      <trkpt lat="42.212802" lon="2.201119">
        <ele>709</ele>
        <time>1970-01-01T02:53:03.000Z</time>
      </trkpt>
      <trkpt lat="42.21273" lon="2.201084">
        <ele>709</ele>
        <time>1970-01-01T02:53:04.000Z</time>
      </trkpt>
      <trkpt lat="42.212658" lon="2.201048">
        <ele>709</ele>
        <time>1970-01-01T02:53:05.000Z</time>
      </trkpt>
      <trkpt lat="42.212585" lon="2.201013">
        <ele>709</ele>
        <time>1970-01-01T02:53:06.000Z</time>
      </trkpt>
      <trkpt lat="42.212513" lon="2.200977">
        <ele>709</ele>
        <time>1970-01-01T02:53:07.000Z</time>
      </trkpt>
      <trkpt lat="42.212441" lon="2.200942">
        <ele>708</ele>
        <time>1970-01-01T02:53:08.000Z</time>
      </trkpt>
      <trkpt lat="42.212348" lon="2.200936">
        <ele>708</ele>
        <time>1970-01-01T02:53:09.000Z</time>
      </trkpt>
      <trkpt lat="42.212253" lon="2.20095">
        <ele>708</ele>
        <time>1970-01-01T02:53:10.000Z</time>
      </trkpt>
      <trkpt lat="42.212161" lon="2.200978">
        <ele>708</ele>
        <time>1970-01-01T02:53:11.000Z</time>
      </trkpt>
      <trkpt lat="42.21207" lon="2.201021">
        <ele>708</ele>
        <time>1970-01-01T02:53:12.000Z</time>
      </trkpt>
      <trkpt lat="42.21198" lon="2.201074">
        <ele>708</ele>
        <time>1970-01-01T02:53:13.000Z</time>
      </trkpt>
      <trkpt lat="42.21189" lon="2.201126">
        <ele>708</ele>
        <time>1970-01-01T02:53:14.000Z</time>
      </trkpt>
      <trkpt lat="42.211801" lon="2.201174">
        <ele>708</ele>
        <time>1970-01-01T02:53:15.000Z</time>
      </trkpt>
      <trkpt lat="42.211709" lon="2.201218">
        <ele>708</ele>
        <time>1970-01-01T02:53:16.000Z</time>
      </trkpt>
      <trkpt lat="42.211612" lon="2.201256">
        <ele>708</ele>
        <time>1970-01-01T02:53:17.000Z</time>
      </trkpt>
      <trkpt lat="42.211521" lon="2.201276">
        <ele>705</ele>
        <time>1970-01-01T02:53:18.000Z</time>
      </trkpt>
      <trkpt lat="42.211355" lon="2.201285">
        <ele>705</ele>
        <time>1970-01-01T02:53:19.000Z</time>
      </trkpt>
      <trkpt lat="42.211279" lon="2.201274">
        <ele>705</ele>
        <time>1970-01-01T02:53:20.000Z</time>
      </trkpt>
      <trkpt lat="42.211204" lon="2.201263">
        <ele>705</ele>
        <time>1970-01-01T02:53:21.000Z</time>
      </trkpt>
      <trkpt lat="42.211128" lon="2.201252">
        <ele>705</ele>
        <time>1970-01-01T02:53:22.000Z</time>
      </trkpt>
      <trkpt lat="42.211053" lon="2.201241">
        <ele>705</ele>
        <time>1970-01-01T02:53:23.000Z</time>
      </trkpt>
      <trkpt lat="42.210978" lon="2.20123">
        <ele>705</ele>
        <time>1970-01-01T02:53:24.000Z</time>
      </trkpt>
      <trkpt lat="42.210902" lon="2.201219">
        <ele>705</ele>
        <time>1970-01-01T02:53:25.000Z</time>
      </trkpt>
      <trkpt lat="42.210827" lon="2.201208">
        <ele>705</ele>
        <time>1970-01-01T02:53:26.000Z</time>
      </trkpt>
      <trkpt lat="42.210751" lon="2.201197">
        <ele>705</ele>
        <time>1970-01-01T02:53:27.000Z</time>
      </trkpt>
      <trkpt lat="42.210676" lon="2.201186">
        <ele>705</ele>
        <time>1970-01-01T02:53:28.000Z</time>
      </trkpt>
      <trkpt lat="42.21053" lon="2.201108">
        <ele>705</ele>
        <time>1970-01-01T02:53:29.000Z</time>
      </trkpt>
      <trkpt lat="42.210463" lon="2.201071">
        <ele>705</ele>
        <time>1970-01-01T02:53:30.000Z</time>
      </trkpt>
      <trkpt lat="42.210396" lon="2.201033">
        <ele>705</ele>
        <time>1970-01-01T02:53:31.000Z</time>
      </trkpt>
      <trkpt lat="42.210329" lon="2.200995">
        <ele>705</ele>
        <time>1970-01-01T02:53:32.000Z</time>
      </trkpt>
      <trkpt lat="42.210262" lon="2.200957">
        <ele>705</ele>
        <time>1970-01-01T02:53:33.000Z</time>
      </trkpt>
      <trkpt lat="42.210195" lon="2.20092">
        <ele>705</ele>
        <time>1970-01-01T02:53:34.000Z</time>
      </trkpt>
      <trkpt lat="42.210128" lon="2.200882">
        <ele>705</ele>
        <time>1970-01-01T02:53:35.000Z</time>
      </trkpt>
      <trkpt lat="42.210061" lon="2.200844">
        <ele>705</ele>
        <time>1970-01-01T02:53:36.000Z</time>
      </trkpt>
      <trkpt lat="42.209994" lon="2.200807">
        <ele>705</ele>
        <time>1970-01-01T02:53:37.000Z</time>
      </trkpt>
      <trkpt lat="42.209927" lon="2.200769">
        <ele>705</ele>
        <time>1970-01-01T02:53:38.000Z</time>
      </trkpt>
      <trkpt lat="42.2098" lon="2.200678">
        <ele>705</ele>
        <time>1970-01-01T02:53:39.000Z</time>
      </trkpt>
      <trkpt lat="42.209744" lon="2.200628">
        <ele>705</ele>
        <time>1970-01-01T02:53:40.000Z</time>
      </trkpt>
      <trkpt lat="42.209688" lon="2.200578">
        <ele>705</ele>
        <time>1970-01-01T02:53:41.000Z</time>
      </trkpt>
      <trkpt lat="42.209632" lon="2.200528">
        <ele>705</ele>
        <time>1970-01-01T02:53:42.000Z</time>
      </trkpt>
      <trkpt lat="42.209576" lon="2.200478">
        <ele>705</ele>
        <time>1970-01-01T02:53:43.000Z</time>
      </trkpt>
      <trkpt lat="42.209519" lon="2.200428">
        <ele>705</ele>
        <time>1970-01-01T02:53:44.000Z</time>
      </trkpt>
      <trkpt lat="42.209463" lon="2.200378">
        <ele>705</ele>
        <time>1970-01-01T02:53:45.000Z</time>
      </trkpt>
      <trkpt lat="42.209407" lon="2.200328">
        <ele>705</ele>
        <time>1970-01-01T02:53:46.000Z</time>
      </trkpt>
      <trkpt lat="42.209351" lon="2.200278">
        <ele>705</ele>
        <time>1970-01-01T02:53:47.000Z</time>
      </trkpt>
      <trkpt lat="42.209295" lon="2.200228">
        <ele>704</ele>
        <time>1970-01-01T02:53:48.000Z</time>
      </trkpt>
      <trkpt lat="42.209192" lon="2.200101">
        <ele>704</ele>
        <time>1970-01-01T02:53:49.000Z</time>
      </trkpt>
      <trkpt lat="42.209144" lon="2.20004">
        <ele>704</ele>
        <time>1970-01-01T02:53:50.000Z</time>
      </trkpt>
      <trkpt lat="42.209096" lon="2.199978">
        <ele>704</ele>
        <time>1970-01-01T02:53:51.000Z</time>
      </trkpt>
      <trkpt lat="42.209048" lon="2.199917">
        <ele>704</ele>
        <time>1970-01-01T02:53:52.000Z</time>
      </trkpt>
      <trkpt lat="42.209" lon="2.199856">
        <ele>704</ele>
        <time>1970-01-01T02:53:53.000Z</time>
      </trkpt>
      <trkpt lat="42.208952" lon="2.199795">
        <ele>704</ele>
        <time>1970-01-01T02:53:54.000Z</time>
      </trkpt>
      <trkpt lat="42.208904" lon="2.199734">
        <ele>704</ele>
        <time>1970-01-01T02:53:55.000Z</time>
      </trkpt>
      <trkpt lat="42.208856" lon="2.199672">
        <ele>704</ele>
        <time>1970-01-01T02:53:56.000Z</time>
      </trkpt>
      <trkpt lat="42.208808" lon="2.199611">
        <ele>704</ele>
        <time>1970-01-01T02:53:57.000Z</time>
      </trkpt>
      <trkpt lat="42.20876" lon="2.19955">
        <ele>702</ele>
        <time>1970-01-01T02:53:58.000Z</time>
      </trkpt>
      <trkpt lat="42.20868" lon="2.199413">
        <ele>702</ele>
        <time>1970-01-01T02:53:59.000Z</time>
      </trkpt>
      <trkpt lat="42.208648" lon="2.199345">
        <ele>702</ele>
        <time>1970-01-01T02:54:00.000Z</time>
      </trkpt>
      <trkpt lat="42.208615" lon="2.199277">
        <ele>702</ele>
        <time>1970-01-01T02:54:01.000Z</time>
      </trkpt>
      <trkpt lat="42.208583" lon="2.199209">
        <ele>702</ele>
        <time>1970-01-01T02:54:02.000Z</time>
      </trkpt>
      <trkpt lat="42.208551" lon="2.199141">
        <ele>702</ele>
        <time>1970-01-01T02:54:03.000Z</time>
      </trkpt>
      <trkpt lat="42.208519" lon="2.199074">
        <ele>702</ele>
        <time>1970-01-01T02:54:04.000Z</time>
      </trkpt>
      <trkpt lat="42.208487" lon="2.199006">
        <ele>702</ele>
        <time>1970-01-01T02:54:05.000Z</time>
      </trkpt>
      <trkpt lat="42.208454" lon="2.198938">
        <ele>702</ele>
        <time>1970-01-01T02:54:06.000Z</time>
      </trkpt>
      <trkpt lat="42.208422" lon="2.19887">
        <ele>702</ele>
        <time>1970-01-01T02:54:07.000Z</time>
      </trkpt>
      <trkpt lat="42.20839" lon="2.198802">
        <ele>703</ele>
        <time>1970-01-01T02:54:08.000Z</time>
      </trkpt>
      <trkpt lat="42.208326" lon="2.198655">
        <ele>703</ele>
        <time>1970-01-01T02:54:09.000Z</time>
      </trkpt>
      <trkpt lat="42.208294" lon="2.198585">
        <ele>703</ele>
        <time>1970-01-01T02:54:10.000Z</time>
      </trkpt>
      <trkpt lat="42.208263" lon="2.198514">
        <ele>703</ele>
        <time>1970-01-01T02:54:11.000Z</time>
      </trkpt>
      <trkpt lat="42.208231" lon="2.198444">
        <ele>703</ele>
        <time>1970-01-01T02:54:12.000Z</time>
      </trkpt>
      <trkpt lat="42.2082" lon="2.198373">
        <ele>703</ele>
        <time>1970-01-01T02:54:13.000Z</time>
      </trkpt>
      <trkpt lat="42.208168" lon="2.198303">
        <ele>703</ele>
        <time>1970-01-01T02:54:14.000Z</time>
      </trkpt>
      <trkpt lat="42.208137" lon="2.198232">
        <ele>703</ele>
        <time>1970-01-01T02:54:15.000Z</time>
      </trkpt>
      <trkpt lat="42.208105" lon="2.198162">
        <ele>703</ele>
        <time>1970-01-01T02:54:16.000Z</time>
      </trkpt>
      <trkpt lat="42.208074" lon="2.198091">
        <ele>703</ele>
        <time>1970-01-01T02:54:17.000Z</time>
      </trkpt>
      <trkpt lat="42.208042" lon="2.198021">
        <ele>703</ele>
        <time>1970-01-01T02:54:18.000Z</time>
      </trkpt>
      <trkpt lat="42.207948" lon="2.197881">
        <ele>703</ele>
        <time>1970-01-01T02:54:19.000Z</time>
      </trkpt>
      <trkpt lat="42.207899" lon="2.197814">
        <ele>703</ele>
        <time>1970-01-01T02:54:20.000Z</time>
      </trkpt>
      <trkpt lat="42.207849" lon="2.197747">
        <ele>703</ele>
        <time>1970-01-01T02:54:21.000Z</time>
      </trkpt>
      <trkpt lat="42.2078" lon="2.19768">
        <ele>703</ele>
        <time>1970-01-01T02:54:22.000Z</time>
      </trkpt>
      <trkpt lat="42.207751" lon="2.197612">
        <ele>703</ele>
        <time>1970-01-01T02:54:23.000Z</time>
      </trkpt>
      <trkpt lat="42.207702" lon="2.197545">
        <ele>703</ele>
        <time>1970-01-01T02:54:24.000Z</time>
      </trkpt>
      <trkpt lat="42.207653" lon="2.197478">
        <ele>703</ele>
        <time>1970-01-01T02:54:25.000Z</time>
      </trkpt>
      <trkpt lat="42.207603" lon="2.197411">
        <ele>703</ele>
        <time>1970-01-01T02:54:26.000Z</time>
      </trkpt>
      <trkpt lat="42.207554" lon="2.197344">
        <ele>703</ele>
        <time>1970-01-01T02:54:27.000Z</time>
      </trkpt>
      <trkpt lat="42.207505" lon="2.197277">
        <ele>703</ele>
        <time>1970-01-01T02:54:28.000Z</time>
      </trkpt>
      <trkpt lat="42.207392" lon="2.197126">
        <ele>703</ele>
        <time>1970-01-01T02:54:29.000Z</time>
      </trkpt>
      <trkpt lat="42.207339" lon="2.197052">
        <ele>703</ele>
        <time>1970-01-01T02:54:30.000Z</time>
      </trkpt>
      <trkpt lat="42.207285" lon="2.196978">
        <ele>703</ele>
        <time>1970-01-01T02:54:31.000Z</time>
      </trkpt>
      <trkpt lat="42.207232" lon="2.196904">
        <ele>703</ele>
        <time>1970-01-01T02:54:32.000Z</time>
      </trkpt>
      <trkpt lat="42.207179" lon="2.196829">
        <ele>703</ele>
        <time>1970-01-01T02:54:33.000Z</time>
      </trkpt>
      <trkpt lat="42.207126" lon="2.196755">
        <ele>703</ele>
        <time>1970-01-01T02:54:34.000Z</time>
      </trkpt>
      <trkpt lat="42.207073" lon="2.196681">
        <ele>703</ele>
        <time>1970-01-01T02:54:35.000Z</time>
      </trkpt>
      <trkpt lat="42.207019" lon="2.196607">
        <ele>703</ele>
        <time>1970-01-01T02:54:36.000Z</time>
      </trkpt>
      <trkpt lat="42.206966" lon="2.196533">
        <ele>703</ele>
        <time>1970-01-01T02:54:37.000Z</time>
      </trkpt>
      <trkpt lat="42.206913" lon="2.196459">
        <ele>702</ele>
        <time>1970-01-01T02:54:38.000Z</time>
      </trkpt>
      <trkpt lat="42.206797" lon="2.196302">
        <ele>702</ele>
        <time>1970-01-01T02:54:39.000Z</time>
      </trkpt>
      <trkpt lat="42.206742" lon="2.196228">
        <ele>702</ele>
        <time>1970-01-01T02:54:40.000Z</time>
      </trkpt>
      <trkpt lat="42.206687" lon="2.196153">
        <ele>702</ele>
        <time>1970-01-01T02:54:41.000Z</time>
      </trkpt>
      <trkpt lat="42.206632" lon="2.196079">
        <ele>702</ele>
        <time>1970-01-01T02:54:42.000Z</time>
      </trkpt>
      <trkpt lat="42.206577" lon="2.196004">
        <ele>702</ele>
        <time>1970-01-01T02:54:43.000Z</time>
      </trkpt>
      <trkpt lat="42.206521" lon="2.195929">
        <ele>702</ele>
        <time>1970-01-01T02:54:44.000Z</time>
      </trkpt>
      <trkpt lat="42.206466" lon="2.195855">
        <ele>702</ele>
        <time>1970-01-01T02:54:45.000Z</time>
      </trkpt>
      <trkpt lat="42.206411" lon="2.19578">
        <ele>702</ele>
        <time>1970-01-01T02:54:46.000Z</time>
      </trkpt>
      <trkpt lat="42.206356" lon="2.195706">
        <ele>702</ele>
        <time>1970-01-01T02:54:47.000Z</time>
      </trkpt>
      <trkpt lat="42.206301" lon="2.195631">
        <ele>701</ele>
        <time>1970-01-01T02:54:48.000Z</time>
      </trkpt>
      <trkpt lat="42.206183" lon="2.195461">
        <ele>701</ele>
        <time>1970-01-01T02:54:49.000Z</time>
      </trkpt>
      <trkpt lat="42.206123" lon="2.195374">
        <ele>701</ele>
        <time>1970-01-01T02:54:50.000Z</time>
      </trkpt>
      <trkpt lat="42.206063" lon="2.195287">
        <ele>701</ele>
        <time>1970-01-01T02:54:51.000Z</time>
      </trkpt>
      <trkpt lat="42.206003" lon="2.1952">
        <ele>701</ele>
        <time>1970-01-01T02:54:53.000Z</time>
      </trkpt>
      <trkpt lat="42.205942" lon="2.195113">
        <ele>701</ele>
        <time>1970-01-01T02:54:54.000Z</time>
      </trkpt>
      <trkpt lat="42.205882" lon="2.195026">
        <ele>701</ele>
        <time>1970-01-01T02:54:55.000Z</time>
      </trkpt>
      <trkpt lat="42.205822" lon="2.194939">
        <ele>701</ele>
        <time>1970-01-01T02:54:56.000Z</time>
      </trkpt>
      <trkpt lat="42.205762" lon="2.194852">
        <ele>701</ele>
        <time>1970-01-01T02:54:57.000Z</time>
      </trkpt>
      <trkpt lat="42.205702" lon="2.194765">
        <ele>697</ele>
        <time>1970-01-01T02:54:58.000Z</time>
      </trkpt>
      <trkpt lat="42.20559" lon="2.194615">
        <ele>697</ele>
        <time>1970-01-01T02:54:59.000Z</time>
      </trkpt>
      <trkpt lat="42.205539" lon="2.194549">
        <ele>697</ele>
        <time>1970-01-01T02:55:00.000Z</time>
      </trkpt>
      <trkpt lat="42.205488" lon="2.194484">
        <ele>697</ele>
        <time>1970-01-01T02:55:01.000Z</time>
      </trkpt>
      <trkpt lat="42.205437" lon="2.194418">
        <ele>697</ele>
        <time>1970-01-01T02:55:02.000Z</time>
      </trkpt>
      <trkpt lat="42.205386" lon="2.194353">
        <ele>697</ele>
        <time>1970-01-01T02:55:03.000Z</time>
      </trkpt>
      <trkpt lat="42.205334" lon="2.194288">
        <ele>697</ele>
        <time>1970-01-01T02:55:04.000Z</time>
      </trkpt>
      <trkpt lat="42.205283" lon="2.194222">
        <ele>697</ele>
        <time>1970-01-01T02:55:05.000Z</time>
      </trkpt>
      <trkpt lat="42.205232" lon="2.194157">
        <ele>697</ele>
        <time>1970-01-01T02:55:06.000Z</time>
      </trkpt>
      <trkpt lat="42.205181" lon="2.194091">
        <ele>697</ele>
        <time>1970-01-01T02:55:07.000Z</time>
      </trkpt>
      <trkpt lat="42.20513" lon="2.194026">
        <ele>699</ele>
        <time>1970-01-01T02:55:08.000Z</time>
      </trkpt>
      <trkpt lat="42.205004" lon="2.193937">
        <ele>699</ele>
        <time>1970-01-01T02:55:09.000Z</time>
      </trkpt>
      <trkpt lat="42.204945" lon="2.193894">
        <ele>699</ele>
        <time>1970-01-01T02:55:10.000Z</time>
      </trkpt>
      <trkpt lat="42.204885" lon="2.193852">
        <ele>699</ele>
        <time>1970-01-01T02:55:11.000Z</time>
      </trkpt>
      <trkpt lat="42.204826" lon="2.19381">
        <ele>699</ele>
        <time>1970-01-01T02:55:12.000Z</time>
      </trkpt>
      <trkpt lat="42.204767" lon="2.193767">
        <ele>699</ele>
        <time>1970-01-01T02:55:13.000Z</time>
      </trkpt>
      <trkpt lat="42.204708" lon="2.193725">
        <ele>699</ele>
        <time>1970-01-01T02:55:14.000Z</time>
      </trkpt>
      <trkpt lat="42.204649" lon="2.193683">
        <ele>699</ele>
        <time>1970-01-01T02:55:15.000Z</time>
      </trkpt>
      <trkpt lat="42.204589" lon="2.193641">
        <ele>699</ele>
        <time>1970-01-01T02:55:16.000Z</time>
      </trkpt>
      <trkpt lat="42.20453" lon="2.193598">
        <ele>699</ele>
        <time>1970-01-01T02:55:17.000Z</time>
      </trkpt>
      <trkpt lat="42.204471" lon="2.193556">
        <ele>696</ele>
        <time>1970-01-01T02:55:18.000Z</time>
      </trkpt>
      <trkpt lat="42.204374" lon="2.193422">
        <ele>696</ele>
        <time>1970-01-01T02:55:19.000Z</time>
      </trkpt>
      <trkpt lat="42.204329" lon="2.193358">
        <ele>696</ele>
        <time>1970-01-01T02:55:20.000Z</time>
      </trkpt>
      <trkpt lat="42.204285" lon="2.193294">
        <ele>696</ele>
        <time>1970-01-01T02:55:21.000Z</time>
      </trkpt>
      <trkpt lat="42.20424" lon="2.19323">
        <ele>696</ele>
        <time>1970-01-01T02:55:22.000Z</time>
      </trkpt>
      <trkpt lat="42.204196" lon="2.193166">
        <ele>696</ele>
        <time>1970-01-01T02:55:23.000Z</time>
      </trkpt>
      <trkpt lat="42.204152" lon="2.193103">
        <ele>696</ele>
        <time>1970-01-01T02:55:24.000Z</time>
      </trkpt>
      <trkpt lat="42.204107" lon="2.193039">
        <ele>696</ele>
        <time>1970-01-01T02:55:25.000Z</time>
      </trkpt>
      <trkpt lat="42.204063" lon="2.192975">
        <ele>696</ele>
        <time>1970-01-01T02:55:26.000Z</time>
      </trkpt>
      <trkpt lat="42.204018" lon="2.192911">
        <ele>696</ele>
        <time>1970-01-01T02:55:27.000Z</time>
      </trkpt>
      <trkpt lat="42.203974" lon="2.192847">
        <ele>695</ele>
        <time>1970-01-01T02:55:28.000Z</time>
      </trkpt>
      <trkpt lat="42.203873" lon="2.192731">
        <ele>695</ele>
        <time>1970-01-01T02:55:29.000Z</time>
      </trkpt>
      <trkpt lat="42.203822" lon="2.192687">
        <ele>695</ele>
        <time>1970-01-01T02:55:30.000Z</time>
      </trkpt>
      <trkpt lat="42.20377" lon="2.192644">
        <ele>695</ele>
        <time>1970-01-01T02:55:31.000Z</time>
      </trkpt>
      <trkpt lat="42.203718" lon="2.1926">
        <ele>695</ele>
        <time>1970-01-01T02:55:32.000Z</time>
      </trkpt>
      <trkpt lat="42.203667" lon="2.192556">
        <ele>695</ele>
        <time>1970-01-01T02:55:33.000Z</time>
      </trkpt>
      <trkpt lat="42.203615" lon="2.192512">
        <ele>695</ele>
        <time>1970-01-01T02:55:34.000Z</time>
      </trkpt>
      <trkpt lat="42.203563" lon="2.192468">
        <ele>695</ele>
        <time>1970-01-01T02:55:35.000Z</time>
      </trkpt>
      <trkpt lat="42.203511" lon="2.192425">
        <ele>695</ele>
        <time>1970-01-01T02:55:36.000Z</time>
      </trkpt>
      <trkpt lat="42.20346" lon="2.192381">
        <ele>695</ele>
        <time>1970-01-01T02:55:37.000Z</time>
      </trkpt>
      <trkpt lat="42.203408" lon="2.192337">
        <ele>695</ele>
        <time>1970-01-01T02:55:38.000Z</time>
      </trkpt>
      <trkpt lat="42.203286" lon="2.192293">
        <ele>695</ele>
        <time>1970-01-01T02:55:39.000Z</time>
      </trkpt>
      <trkpt lat="42.203229" lon="2.192272">
        <ele>695</ele>
        <time>1970-01-01T02:55:40.000Z</time>
      </trkpt>
      <trkpt lat="42.203171" lon="2.192252">
        <ele>695</ele>
        <time>1970-01-01T02:55:41.000Z</time>
      </trkpt>
      <trkpt lat="42.203114" lon="2.192231">
        <ele>695</ele>
        <time>1970-01-01T02:55:42.000Z</time>
      </trkpt>
      <trkpt lat="42.203057" lon="2.19221">
        <ele>695</ele>
        <time>1970-01-01T02:55:43.000Z</time>
      </trkpt>
      <trkpt lat="42.203" lon="2.192189">
        <ele>695</ele>
        <time>1970-01-01T02:55:44.000Z</time>
      </trkpt>
      <trkpt lat="42.202943" lon="2.192168">
        <ele>695</ele>
        <time>1970-01-01T02:55:45.000Z</time>
      </trkpt>
      <trkpt lat="42.202885" lon="2.192148">
        <ele>695</ele>
        <time>1970-01-01T02:55:46.000Z</time>
      </trkpt>
      <trkpt lat="42.202828" lon="2.192127">
        <ele>695</ele>
        <time>1970-01-01T02:55:47.000Z</time>
      </trkpt>
      <trkpt lat="42.202771" lon="2.192106">
        <ele>695</ele>
        <time>1970-01-01T02:55:48.000Z</time>
      </trkpt>
      <trkpt lat="42.202642" lon="2.192049">
        <ele>695</ele>
        <time>1970-01-01T02:55:49.000Z</time>
      </trkpt>
      <trkpt lat="42.202584" lon="2.192022">
        <ele>695</ele>
        <time>1970-01-01T02:55:50.000Z</time>
      </trkpt>
      <trkpt lat="42.202526" lon="2.191995">
        <ele>695</ele>
        <time>1970-01-01T02:55:51.000Z</time>
      </trkpt>
      <trkpt lat="42.202468" lon="2.191968">
        <ele>695</ele>
        <time>1970-01-01T02:55:52.000Z</time>
      </trkpt>
      <trkpt lat="42.20241" lon="2.191941">
        <ele>695</ele>
        <time>1970-01-01T02:55:53.000Z</time>
      </trkpt>
      <trkpt lat="42.202351" lon="2.191914">
        <ele>695</ele>
        <time>1970-01-01T02:55:54.000Z</time>
      </trkpt>
      <trkpt lat="42.202293" lon="2.191887">
        <ele>695</ele>
        <time>1970-01-01T02:55:55.000Z</time>
      </trkpt>
      <trkpt lat="42.202235" lon="2.19186">
        <ele>695</ele>
        <time>1970-01-01T02:55:56.000Z</time>
      </trkpt>
      <trkpt lat="42.202177" lon="2.191833">
        <ele>695</ele>
        <time>1970-01-01T02:55:57.000Z</time>
      </trkpt>
      <trkpt lat="42.202119" lon="2.191806">
        <ele>694</ele>
        <time>1970-01-01T02:55:58.000Z</time>
      </trkpt>
      <trkpt lat="42.20206" lon="2.191778">
        <ele>694</ele>
        <time>1970-01-01T02:55:59.000Z</time>
      </trkpt>
      <trkpt lat="42.20201" lon="2.191754">
        <ele>694</ele>
        <time>1970-01-01T02:56:00.000Z</time>
      </trkpt>
      <trkpt lat="42.20197" lon="2.191731">
        <ele>694</ele>
        <time>1970-01-01T02:56:01.000Z</time>
      </trkpt>
      <trkpt lat="42.201936" lon="2.19171">
        <ele>694</ele>
        <time>1970-01-01T02:56:02.000Z</time>
      </trkpt>
      <trkpt lat="42.201908" lon="2.191695">
        <ele>694</ele>
        <time>1970-01-01T02:56:03.000Z</time>
      </trkpt>
      <trkpt lat="42.201884" lon="2.191686">
        <ele>694</ele>
        <time>1970-01-01T02:56:04.000Z</time>
      </trkpt>
      <trkpt lat="42.201884" lon="2.191686">
        <ele>694</ele>
        <time>1970-01-01T02:56:08.000Z</time>
      </trkpt>
      <trkpt lat="42.201868" lon="2.191668">
        <ele>694</ele>
        <time>1970-01-01T02:56:10.000Z</time>
      </trkpt>
      <trkpt lat="42.201851" lon="2.191651">
        <ele>694</ele>
        <time>1970-01-01T02:56:11.000Z</time>
      </trkpt>
      <trkpt lat="42.201835" lon="2.191633">
        <ele>694</ele>
        <time>1970-01-01T02:59:17.000Z</time>
      </trkpt>
      <trkpt lat="42.201819" lon="2.191616">
        <ele>694</ele>
        <time>1970-01-01T02:59:18.000Z</time>
      </trkpt>
      <trkpt lat="42.201803" lon="2.191598">
        <ele>694</ele>
        <time>1970-01-01T02:59:20.000Z</time>
      </trkpt>
      <trkpt lat="42.201786" lon="2.191581">
        <ele>694</ele>
        <time>1970-01-01T02:59:22.000Z</time>
      </trkpt>
      <trkpt lat="42.20177" lon="2.191563">
        <ele>694</ele>
        <time>1970-01-01T02:59:24.000Z</time>
      </trkpt>
      <trkpt lat="42.201754" lon="2.191546">
        <ele>694</ele>
        <time>1970-01-01T02:59:25.000Z</time>
      </trkpt>
      <trkpt lat="42.201737" lon="2.191528">
        <ele>694</ele>
        <time>1970-01-01T02:59:26.000Z</time>
      </trkpt>
      <trkpt lat="42.201721" lon="2.191511">
        <ele>694</ele>
        <time>1970-01-01T02:59:27.000Z</time>
      </trkpt>
      <trkpt lat="42.201671" lon="2.191479">
        <ele>694</ele>
        <time>1970-01-01T02:59:28.000Z</time>
      </trkpt>
      <trkpt lat="42.201646" lon="2.191462">
        <ele>694</ele>
        <time>1970-01-01T02:59:29.000Z</time>
      </trkpt>
      <trkpt lat="42.201622" lon="2.191446">
        <ele>694</ele>
        <time>1970-01-01T02:59:30.000Z</time>
      </trkpt>
      <trkpt lat="42.201597" lon="2.191429">
        <ele>694</ele>
        <time>1970-01-01T02:59:31.000Z</time>
      </trkpt>
      <trkpt lat="42.201573" lon="2.191413">
        <ele>694</ele>
        <time>1970-01-01T02:59:32.000Z</time>
      </trkpt>
      <trkpt lat="42.201548" lon="2.191397">
        <ele>694</ele>
        <time>1970-01-01T02:59:33.000Z</time>
      </trkpt>
      <trkpt lat="42.201524" lon="2.19138">
        <ele>694</ele>
        <time>1970-01-01T02:59:34.000Z</time>
      </trkpt>
      <trkpt lat="42.201499" lon="2.191364">
        <ele>694</ele>
        <time>1970-01-01T02:59:35.000Z</time>
      </trkpt>
      <trkpt lat="42.201475" lon="2.191347">
        <ele>694</ele>
        <time>1970-01-01T02:59:36.000Z</time>
      </trkpt>
      <trkpt lat="42.20145" lon="2.191331">
        <ele>694</ele>
        <time>1970-01-01T02:59:37.000Z</time>
      </trkpt>
      <trkpt lat="42.201382" lon="2.191287">
        <ele>694</ele>
        <time>1970-01-01T02:59:38.000Z</time>
      </trkpt>
      <trkpt lat="42.201348" lon="2.191265">
        <ele>694</ele>
        <time>1970-01-01T02:59:39.000Z</time>
      </trkpt>
      <trkpt lat="42.201313" lon="2.191244">
        <ele>694</ele>
        <time>1970-01-01T02:59:40.000Z</time>
      </trkpt>
      <trkpt lat="42.201279" lon="2.191222">
        <ele>694</ele>
        <time>1970-01-01T02:59:41.000Z</time>
      </trkpt>
      <trkpt lat="42.201245" lon="2.191201">
        <ele>694</ele>
        <time>1970-01-01T02:59:42.000Z</time>
      </trkpt>
      <trkpt lat="42.201211" lon="2.19118">
        <ele>694</ele>
        <time>1970-01-01T02:59:43.000Z</time>
      </trkpt>
      <trkpt lat="42.201177" lon="2.191158">
        <ele>694</ele>
        <time>1970-01-01T02:59:44.000Z</time>
      </trkpt>
      <trkpt lat="42.201142" lon="2.191137">
        <ele>694</ele>
        <time>1970-01-01T02:59:45.000Z</time>
      </trkpt>
      <trkpt lat="42.201108" lon="2.191115">
        <ele>694</ele>
        <time>1970-01-01T02:59:46.000Z</time>
      </trkpt>
      <trkpt lat="42.201074" lon="2.191094">
        <ele>694</ele>
        <time>1970-01-01T02:59:47.000Z</time>
      </trkpt>
      <trkpt lat="42.201001" lon="2.191051">
        <ele>694</ele>
        <time>1970-01-01T02:59:48.000Z</time>
      </trkpt>
      <trkpt lat="42.200975" lon="2.191022">
        <ele>694</ele>
        <time>1970-01-01T02:59:49.000Z</time>
      </trkpt>
      <trkpt lat="42.20095" lon="2.190993">
        <ele>694</ele>
        <time>1970-01-01T02:59:50.000Z</time>
      </trkpt>
      <trkpt lat="42.200924" lon="2.190964">
        <ele>694</ele>
        <time>1970-01-01T02:59:51.000Z</time>
      </trkpt>
      <trkpt lat="42.200899" lon="2.190935">
        <ele>694</ele>
        <time>1970-01-01T02:59:52.000Z</time>
      </trkpt>
      <trkpt lat="42.200874" lon="2.190907">
        <ele>694</ele>
        <time>1970-01-01T02:59:53.000Z</time>
      </trkpt>
      <trkpt lat="42.200848" lon="2.190878">
        <ele>694</ele>
        <time>1970-01-01T02:59:54.000Z</time>
      </trkpt>
      <trkpt lat="42.200823" lon="2.190849">
        <ele>694</ele>
        <time>1970-01-01T02:59:55.000Z</time>
      </trkpt>
      <trkpt lat="42.200797" lon="2.19082">
        <ele>694</ele>
        <time>1970-01-01T02:59:56.000Z</time>
      </trkpt>
      <trkpt lat="42.200772" lon="2.190791">
        <ele>693</ele>
        <time>1970-01-01T02:59:57.000Z</time>
      </trkpt>
      <trkpt lat="42.200738" lon="2.190757">
        <ele>693</ele>
        <time>1970-01-01T02:59:58.000Z</time>
      </trkpt>
      <trkpt lat="42.200723" lon="2.190747">
        <ele>693</ele>
        <time>1970-01-01T02:59:59.000Z</time>
      </trkpt>
      <trkpt lat="42.200707" lon="2.190737">
        <ele>693</ele>
        <time>1970-01-01T03:00:00.000Z</time>
      </trkpt>
      <trkpt lat="42.200691" lon="2.190726">
        <ele>693</ele>
        <time>1970-01-01T03:00:01.000Z</time>
      </trkpt>
      <trkpt lat="42.200675" lon="2.190716">
        <ele>693</ele>
        <time>1970-01-01T03:00:03.000Z</time>
      </trkpt>
      <trkpt lat="42.20066" lon="2.190706">
        <ele>693</ele>
        <time>1970-01-01T03:00:05.000Z</time>
      </trkpt>
      <trkpt lat="42.200644" lon="2.190696">
        <ele>693</ele>
        <time>1970-01-01T03:00:07.000Z</time>
      </trkpt>
      <trkpt lat="42.200608" lon="2.19073">
        <ele>693</ele>
        <time>1970-01-01T03:00:08.000Z</time>
      </trkpt>
      <trkpt lat="42.200587" lon="2.19075">
        <ele>693</ele>
        <time>1970-01-01T03:00:10.000Z</time>
      </trkpt>
      <trkpt lat="42.200565" lon="2.190769">
        <ele>693</ele>
        <time>1970-01-01T03:00:11.000Z</time>
      </trkpt>
      <trkpt lat="42.200544" lon="2.190789">
        <ele>693</ele>
        <time>1970-01-01T03:00:12.000Z</time>
      </trkpt>
      <trkpt lat="42.200523" lon="2.190808">
        <ele>693</ele>
        <time>1970-01-01T03:00:13.000Z</time>
      </trkpt>
      <trkpt lat="42.200502" lon="2.190827">
        <ele>693</ele>
        <time>1970-01-01T03:00:15.000Z</time>
      </trkpt>
      <trkpt lat="42.20048" lon="2.190847">
        <ele>693</ele>
        <time>1970-01-01T03:00:16.000Z</time>
      </trkpt>
      <trkpt lat="42.200459" lon="2.190866">
        <ele>692</ele>
        <time>1970-01-01T03:00:17.000Z</time>
      </trkpt>
      <trkpt lat="42.200415" lon="2.190947">
        <ele>692</ele>
        <time>1970-01-01T03:00:19.000Z</time>
      </trkpt>
      <trkpt lat="42.200324" lon="2.191041">
        <ele>692</ele>
        <time>1970-01-01T03:00:24.000Z</time>
      </trkpt>
      <trkpt lat="42.200324" lon="2.191041">
        <ele>690</ele>
        <time>1970-01-01T03:00:27.000Z</time>
      </trkpt>
      <trkpt lat="42.200193" lon="2.19118">
        <ele>690</ele>
        <time>1970-01-01T03:00:28.000Z</time>
      </trkpt>
      <trkpt lat="42.200157" lon="2.191286">
        <ele>690</ele>
        <time>1970-01-01T03:00:32.000Z</time>
      </trkpt>
      <trkpt lat="42.20012" lon="2.191392">
        <ele>690</ele>
        <time>1970-01-01T03:00:35.000Z</time>
      </trkpt>
      <trkpt lat="42.200083" lon="2.191498">
        <ele>689</ele>
        <time>1970-01-01T03:00:37.000Z</time>
      </trkpt>
      <trkpt lat="42.200022" lon="2.191711">
        <ele>689</ele>
        <time>1970-01-01T03:00:40.000Z</time>
      </trkpt>
      <trkpt lat="42.20001" lon="2.191755">
        <ele>689</ele>
        <time>1970-01-01T03:00:42.000Z</time>
      </trkpt>
      <trkpt lat="42.199998" lon="2.191799">
        <ele>689</ele>
        <time>1970-01-01T03:00:43.000Z</time>
      </trkpt>
      <trkpt lat="42.199986" lon="2.191843">
        <ele>689</ele>
        <time>1970-01-01T03:00:45.000Z</time>
      </trkpt>
      <trkpt lat="42.199974" lon="2.191887">
        <ele>689</ele>
        <time>1970-01-01T03:00:46.000Z</time>
      </trkpt>
      <trkpt lat="42.199962" lon="2.191931">
        <ele>688</ele>
        <time>1970-01-01T03:00:47.000Z</time>
      </trkpt>
      <trkpt lat="42.199936" lon="2.192006">
        <ele>688</ele>
        <time>1970-01-01T03:00:48.000Z</time>
      </trkpt>
      <trkpt lat="42.199925" lon="2.192043">
        <ele>688</ele>
        <time>1970-01-01T03:00:49.000Z</time>
      </trkpt>
      <trkpt lat="42.199915" lon="2.192081">
        <ele>688</ele>
        <time>1970-01-01T03:00:50.000Z</time>
      </trkpt>
      <trkpt lat="42.199904" lon="2.192119">
        <ele>688</ele>
        <time>1970-01-01T03:00:51.000Z</time>
      </trkpt>
      <trkpt lat="42.199894" lon="2.192157">
        <ele>688</ele>
        <time>1970-01-01T03:00:52.000Z</time>
      </trkpt>
      <trkpt lat="42.199883" lon="2.192194">
        <ele>688</ele>
        <time>1970-01-01T03:00:53.000Z</time>
      </trkpt>
      <trkpt lat="42.199873" lon="2.192232">
        <ele>688</ele>
        <time>1970-01-01T03:00:54.000Z</time>
      </trkpt>
      <trkpt lat="42.199862" lon="2.19227">
        <ele>688</ele>
        <time>1970-01-01T03:00:55.000Z</time>
      </trkpt>
      <trkpt lat="42.199852" lon="2.192307">
        <ele>688</ele>
        <time>1970-01-01T03:00:56.000Z</time>
      </trkpt>
      <trkpt lat="42.199841" lon="2.192345">
        <ele>689</ele>
        <time>1970-01-01T03:00:57.000Z</time>
      </trkpt>
      <trkpt lat="42.19981" lon="2.192411">
        <ele>689</ele>
        <time>1970-01-01T03:00:58.000Z</time>
      </trkpt>
      <trkpt lat="42.199781" lon="2.19243">
        <ele>689</ele>
        <time>1970-01-01T03:00:59.000Z</time>
      </trkpt>
      <trkpt lat="42.199753" lon="2.192448">
        <ele>689</ele>
        <time>1970-01-01T03:01:00.000Z</time>
      </trkpt>
      <trkpt lat="42.199724" lon="2.192467">
        <ele>689</ele>
        <time>1970-01-01T03:01:01.000Z</time>
      </trkpt>
      <trkpt lat="42.199695" lon="2.192486">
        <ele>689</ele>
        <time>1970-01-01T03:01:02.000Z</time>
      </trkpt>
      <trkpt lat="42.199666" lon="2.192505">
        <ele>689</ele>
        <time>1970-01-01T03:01:03.000Z</time>
      </trkpt>
      <trkpt lat="42.199637" lon="2.192524">
        <ele>689</ele>
        <time>1970-01-01T03:01:04.000Z</time>
      </trkpt>
      <trkpt lat="42.199609" lon="2.192542">
        <ele>689</ele>
        <time>1970-01-01T03:01:05.000Z</time>
      </trkpt>
      <trkpt lat="42.19958" lon="2.192561">
        <ele>689</ele>
        <time>1970-01-01T03:01:06.000Z</time>
      </trkpt>
      <trkpt lat="42.199551" lon="2.19258">
        <ele>689</ele>
        <time>1970-01-01T03:01:07.000Z</time>
      </trkpt>
      <trkpt lat="42.199464" lon="2.1926">
        <ele>689</ele>
        <time>1970-01-01T03:01:08.000Z</time>
      </trkpt>
      <trkpt lat="42.199423" lon="2.192611">
        <ele>689</ele>
        <time>1970-01-01T03:01:09.000Z</time>
      </trkpt>
      <trkpt lat="42.199382" lon="2.192622">
        <ele>689</ele>
        <time>1970-01-01T03:01:10.000Z</time>
      </trkpt>
      <trkpt lat="42.199341" lon="2.192633">
        <ele>689</ele>
        <time>1970-01-01T03:01:11.000Z</time>
      </trkpt>
      <trkpt lat="42.1993" lon="2.192644">
        <ele>689</ele>
        <time>1970-01-01T03:01:12.000Z</time>
      </trkpt>
      <trkpt lat="42.199259" lon="2.192654">
        <ele>689</ele>
        <time>1970-01-01T03:01:13.000Z</time>
      </trkpt>
      <trkpt lat="42.199218" lon="2.192665">
        <ele>689</ele>
        <time>1970-01-01T03:01:14.000Z</time>
      </trkpt>
      <trkpt lat="42.199177" lon="2.192676">
        <ele>689</ele>
        <time>1970-01-01T03:01:15.000Z</time>
      </trkpt>
      <trkpt lat="42.199136" lon="2.192687">
        <ele>689</ele>
        <time>1970-01-01T03:01:16.000Z</time>
      </trkpt>
      <trkpt lat="42.199095" lon="2.192698">
        <ele>689</ele>
        <time>1970-01-01T03:01:17.000Z</time>
      </trkpt>
      <trkpt lat="42.199004" lon="2.192743">
        <ele>689</ele>
        <time>1970-01-01T03:01:18.000Z</time>
      </trkpt>
      <trkpt lat="42.198962" lon="2.192766">
        <ele>689</ele>
        <time>1970-01-01T03:01:19.000Z</time>
      </trkpt>
      <trkpt lat="42.198919" lon="2.192789">
        <ele>689</ele>
        <time>1970-01-01T03:01:20.000Z</time>
      </trkpt>
      <trkpt lat="42.198876" lon="2.192812">
        <ele>689</ele>
        <time>1970-01-01T03:01:21.000Z</time>
      </trkpt>
      <trkpt lat="42.198834" lon="2.192835">
        <ele>689</ele>
        <time>1970-01-01T03:01:22.000Z</time>
      </trkpt>
      <trkpt lat="42.198791" lon="2.192857">
        <ele>689</ele>
        <time>1970-01-01T03:01:23.000Z</time>
      </trkpt>
      <trkpt lat="42.198748" lon="2.19288">
        <ele>689</ele>
        <time>1970-01-01T03:01:24.000Z</time>
      </trkpt>
      <trkpt lat="42.198705" lon="2.192903">
        <ele>689</ele>
        <time>1970-01-01T03:01:25.000Z</time>
      </trkpt>
      <trkpt lat="42.198663" lon="2.192926">
        <ele>689</ele>
        <time>1970-01-01T03:01:26.000Z</time>
      </trkpt>
      <trkpt lat="42.19862" lon="2.192949">
        <ele>688</ele>
        <time>1970-01-01T03:01:27.000Z</time>
      </trkpt>
      <trkpt lat="42.198538" lon="2.193003">
        <ele>688</ele>
        <time>1970-01-01T03:01:28.000Z</time>
      </trkpt>
      <trkpt lat="42.198502" lon="2.193029">
        <ele>688</ele>
        <time>1970-01-01T03:01:29.000Z</time>
      </trkpt>
      <trkpt lat="42.198467" lon="2.193055">
        <ele>688</ele>
        <time>1970-01-01T03:01:30.000Z</time>
      </trkpt>
      <trkpt lat="42.198431" lon="2.193081">
        <ele>688</ele>
        <time>1970-01-01T03:01:31.000Z</time>
      </trkpt>
      <trkpt lat="42.198396" lon="2.193107">
        <ele>688</ele>
        <time>1970-01-01T03:01:32.000Z</time>
      </trkpt>
      <trkpt lat="42.19836" lon="2.193133">
        <ele>688</ele>
        <time>1970-01-01T03:01:33.000Z</time>
      </trkpt>
      <trkpt lat="42.198325" lon="2.193159">
        <ele>688</ele>
        <time>1970-01-01T03:01:34.000Z</time>
      </trkpt>
      <trkpt lat="42.198289" lon="2.193185">
        <ele>688</ele>
        <time>1970-01-01T03:01:35.000Z</time>
      </trkpt>
      <trkpt lat="42.198254" lon="2.193211">
        <ele>688</ele>
        <time>1970-01-01T03:01:36.000Z</time>
      </trkpt>
      <trkpt lat="42.198218" lon="2.193237">
        <ele>688</ele>
        <time>1970-01-01T03:01:37.000Z</time>
      </trkpt>
      <trkpt lat="42.198164" lon="2.193281">
        <ele>688</ele>
        <time>1970-01-01T03:01:38.000Z</time>
      </trkpt>
      <trkpt lat="42.198145" lon="2.193297">
        <ele>688</ele>
        <time>1970-01-01T03:01:39.000Z</time>
      </trkpt>
      <trkpt lat="42.198126" lon="2.193312">
        <ele>688</ele>
        <time>1970-01-01T03:01:40.000Z</time>
      </trkpt>
      <trkpt lat="42.198107" lon="2.193328">
        <ele>688</ele>
        <time>1970-01-01T03:01:44.000Z</time>
      </trkpt>
      <trkpt lat="42.198088" lon="2.193343">
        <ele>688</ele>
        <time>1970-01-01T03:01:45.000Z</time>
      </trkpt>
      <trkpt lat="42.19807" lon="2.193359">
        <ele>688</ele>
        <time>1970-01-01T03:01:53.000Z</time>
      </trkpt>
      <trkpt lat="42.198051" lon="2.193374">
        <ele>688</ele>
        <time>1970-01-01T03:01:54.000Z</time>
      </trkpt>
      <trkpt lat="42.198032" lon="2.193389">
        <ele>688</ele>
        <time>1970-01-01T03:01:58.000Z</time>
      </trkpt>
      <trkpt lat="42.198013" lon="2.193405">
        <ele>688</ele>
        <time>1970-01-01T03:02:00.000Z</time>
      </trkpt>
      <trkpt lat="42.197994" lon="2.19342">
        <ele>688</ele>
        <time>1970-01-01T03:02:01.000Z</time>
      </trkpt>
      <trkpt lat="42.197975" lon="2.193436">
        <ele>688</ele>
        <time>1970-01-01T03:02:45.000Z</time>
      </trkpt>
      <trkpt lat="42.197956" lon="2.193451">
        <ele>688</ele>
        <time>1970-01-01T03:02:46.000Z</time>
      </trkpt>
      <trkpt lat="42.197937" lon="2.193467">
        <ele>688</ele>
        <time>1970-01-01T03:02:47.000Z</time>
      </trkpt>
      <trkpt lat="42.197918" lon="2.193482">
        <ele>688</ele>
        <time>1970-01-01T03:02:48.000Z</time>
      </trkpt>
      <trkpt lat="42.197899" lon="2.193497">
        <ele>688</ele>
        <time>1970-01-01T03:02:49.000Z</time>
      </trkpt>
      <trkpt lat="42.197881" lon="2.193513">
        <ele>688</ele>
        <time>1970-01-01T03:02:50.000Z</time>
      </trkpt>
      <trkpt lat="42.197862" lon="2.193528">
        <ele>688</ele>
        <time>1970-01-01T03:02:51.000Z</time>
      </trkpt>
      <trkpt lat="42.197843" lon="2.193544">
        <ele>688</ele>
        <time>1970-01-01T03:02:52.000Z</time>
      </trkpt>
      <trkpt lat="42.197824" lon="2.193559">
        <ele>688</ele>
        <time>1970-01-01T03:02:53.000Z</time>
      </trkpt>
      <trkpt lat="42.197805" lon="2.193575">
        <ele>688</ele>
        <time>1970-01-01T03:02:54.000Z</time>
      </trkpt>
      <trkpt lat="42.197786" lon="2.19359">
        <ele>689</ele>
        <time>1970-01-01T03:02:55.000Z</time>
      </trkpt>
      <trkpt lat="42.197712" lon="2.193677">
        <ele>689</ele>
        <time>1970-01-01T03:02:56.000Z</time>
      </trkpt>
      <trkpt lat="42.197679" lon="2.193722">
        <ele>689</ele>
        <time>1970-01-01T03:02:57.000Z</time>
      </trkpt>
      <trkpt lat="42.197647" lon="2.193767">
        <ele>689</ele>
        <time>1970-01-01T03:02:58.000Z</time>
      </trkpt>
      <trkpt lat="42.197614" lon="2.193812">
        <ele>689</ele>
        <time>1970-01-01T03:02:59.000Z</time>
      </trkpt>
      <trkpt lat="42.197582" lon="2.193857">
        <ele>689</ele>
        <time>1970-01-01T03:03:00.000Z</time>
      </trkpt>
      <trkpt lat="42.19755" lon="2.193902">
        <ele>689</ele>
        <time>1970-01-01T03:03:01.000Z</time>
      </trkpt>
      <trkpt lat="42.197517" lon="2.193947">
        <ele>689</ele>
        <time>1970-01-01T03:03:02.000Z</time>
      </trkpt>
      <trkpt lat="42.197485" lon="2.193992">
        <ele>689</ele>
        <time>1970-01-01T03:03:03.000Z</time>
      </trkpt>
      <trkpt lat="42.197452" lon="2.194037">
        <ele>689</ele>
        <time>1970-01-01T03:03:04.000Z</time>
      </trkpt>
      <trkpt lat="42.19742" lon="2.194082">
        <ele>688</ele>
        <time>1970-01-01T03:03:05.000Z</time>
      </trkpt>
      <trkpt lat="42.197446" lon="2.194198">
        <ele>688</ele>
        <time>1970-01-01T03:03:06.000Z</time>
      </trkpt>
      <trkpt lat="42.197473" lon="2.194246">
        <ele>688</ele>
        <time>1970-01-01T03:03:07.000Z</time>
      </trkpt>
      <trkpt lat="42.197499" lon="2.194294">
        <ele>688</ele>
        <time>1970-01-01T03:03:08.000Z</time>
      </trkpt>
      <trkpt lat="42.197526" lon="2.194342">
        <ele>688</ele>
        <time>1970-01-01T03:03:09.000Z</time>
      </trkpt>
      <trkpt lat="42.197553" lon="2.19439">
        <ele>688</ele>
        <time>1970-01-01T03:03:10.000Z</time>
      </trkpt>
      <trkpt lat="42.19758" lon="2.194438">
        <ele>688</ele>
        <time>1970-01-01T03:03:11.000Z</time>
      </trkpt>
      <trkpt lat="42.197607" lon="2.194486">
        <ele>688</ele>
        <time>1970-01-01T03:03:12.000Z</time>
      </trkpt>
      <trkpt lat="42.197633" lon="2.194534">
        <ele>688</ele>
        <time>1970-01-01T03:03:13.000Z</time>
      </trkpt>
      <trkpt lat="42.19766" lon="2.194582">
        <ele>688</ele>
        <time>1970-01-01T03:03:14.000Z</time>
      </trkpt>
      <trkpt lat="42.197687" lon="2.19463">
        <ele>688</ele>
        <time>1970-01-01T03:03:15.000Z</time>
      </trkpt>
      <trkpt lat="42.197681" lon="2.194699">
        <ele>688</ele>
        <time>1970-01-01T03:03:16.000Z</time>
      </trkpt>
      <trkpt lat="42.197659" lon="2.194724">
        <ele>688</ele>
        <time>1970-01-01T03:03:17.000Z</time>
      </trkpt>
      <trkpt lat="42.197638" lon="2.194749">
        <ele>688</ele>
        <time>1970-01-01T03:03:18.000Z</time>
      </trkpt>
      <trkpt lat="42.197617" lon="2.194774">
        <ele>688</ele>
        <time>1970-01-01T03:03:19.000Z</time>
      </trkpt>
      <trkpt lat="42.197595" lon="2.194798">
        <ele>688</ele>
        <time>1970-01-01T03:03:20.000Z</time>
      </trkpt>
      <trkpt lat="42.197574" lon="2.194823">
        <ele>688</ele>
        <time>1970-01-01T03:03:21.000Z</time>
      </trkpt>
      <trkpt lat="42.197553" lon="2.194848">
        <ele>688</ele>
        <time>1970-01-01T03:03:22.000Z</time>
      </trkpt>
      <trkpt lat="42.197531" lon="2.194873">
        <ele>688</ele>
        <time>1970-01-01T03:03:24.000Z</time>
      </trkpt>
      <trkpt lat="42.19751" lon="2.194898">
        <ele>688</ele>
        <time>1970-01-01T03:03:25.000Z</time>
      </trkpt>
      <trkpt lat="42.197439" lon="2.194973">
        <ele>688</ele>
        <time>1970-01-01T03:03:26.000Z</time>
      </trkpt>
      <trkpt lat="42.197401" lon="2.19501">
        <ele>688</ele>
        <time>1970-01-01T03:03:27.000Z</time>
      </trkpt>
      <trkpt lat="42.197362" lon="2.195048">
        <ele>688</ele>
        <time>1970-01-01T03:03:28.000Z</time>
      </trkpt>
      <trkpt lat="42.197324" lon="2.195085">
        <ele>688</ele>
        <time>1970-01-01T03:03:29.000Z</time>
      </trkpt>
      <trkpt lat="42.197286" lon="2.195122">
        <ele>688</ele>
        <time>1970-01-01T03:03:30.000Z</time>
      </trkpt>
      <trkpt lat="42.197248" lon="2.195159">
        <ele>688</ele>
        <time>1970-01-01T03:03:31.000Z</time>
      </trkpt>
      <trkpt lat="42.19721" lon="2.195196">
        <ele>688</ele>
        <time>1970-01-01T03:03:32.000Z</time>
      </trkpt>
      <trkpt lat="42.197171" lon="2.195234">
        <ele>688</ele>
        <time>1970-01-01T03:03:33.000Z</time>
      </trkpt>
      <trkpt lat="42.197133" lon="2.195271">
        <ele>688</ele>
        <time>1970-01-01T03:03:34.000Z</time>
      </trkpt>
      <trkpt lat="42.197095" lon="2.195308">
        <ele>688</ele>
        <time>1970-01-01T03:03:35.000Z</time>
      </trkpt>
      <trkpt lat="42.197016" lon="2.195394">
        <ele>688</ele>
        <time>1970-01-01T03:03:36.000Z</time>
      </trkpt>
      <trkpt lat="42.196978" lon="2.195434">
        <ele>688</ele>
        <time>1970-01-01T03:03:37.000Z</time>
      </trkpt>
      <trkpt lat="42.196941" lon="2.195475">
        <ele>688</ele>
        <time>1970-01-01T03:03:38.000Z</time>
      </trkpt>
      <trkpt lat="42.196903" lon="2.195515">
        <ele>688</ele>
        <time>1970-01-01T03:03:39.000Z</time>
      </trkpt>
      <trkpt lat="42.196866" lon="2.195555">
        <ele>688</ele>
        <time>1970-01-01T03:03:40.000Z</time>
      </trkpt>
      <trkpt lat="42.196829" lon="2.195595">
        <ele>688</ele>
        <time>1970-01-01T03:03:41.000Z</time>
      </trkpt>
      <trkpt lat="42.196791" lon="2.195635">
        <ele>688</ele>
        <time>1970-01-01T03:03:42.000Z</time>
      </trkpt>
      <trkpt lat="42.196754" lon="2.195676">
        <ele>688</ele>
        <time>1970-01-01T03:03:43.000Z</time>
      </trkpt>
      <trkpt lat="42.196716" lon="2.195716">
        <ele>688</ele>
        <time>1970-01-01T03:03:44.000Z</time>
      </trkpt>
      <trkpt lat="42.196679" lon="2.195756">
        <ele>688</ele>
        <time>1970-01-01T03:03:45.000Z</time>
      </trkpt>
      <trkpt lat="42.196622" lon="2.195816">
        <ele>688</ele>
        <time>1970-01-01T03:03:46.000Z</time>
      </trkpt>
      <trkpt lat="42.196598" lon="2.195843">
        <ele>688</ele>
        <time>1970-01-01T03:03:47.000Z</time>
      </trkpt>
      <trkpt lat="42.196575" lon="2.19587">
        <ele>688</ele>
        <time>1970-01-01T03:03:48.000Z</time>
      </trkpt>
      <trkpt lat="42.196551" lon="2.195897">
        <ele>688</ele>
        <time>1970-01-01T03:03:49.000Z</time>
      </trkpt>
      <trkpt lat="42.196527" lon="2.195924">
        <ele>688</ele>
        <time>1970-01-01T03:03:50.000Z</time>
      </trkpt>
      <trkpt lat="42.196503" lon="2.195951">
        <ele>688</ele>
        <time>1970-01-01T03:03:51.000Z</time>
      </trkpt>
      <trkpt lat="42.196479" lon="2.195978">
        <ele>688</ele>
        <time>1970-01-01T03:03:52.000Z</time>
      </trkpt>
      <trkpt lat="42.196456" lon="2.196005">
        <ele>688</ele>
        <time>1970-01-01T03:03:53.000Z</time>
      </trkpt>
      <trkpt lat="42.196432" lon="2.196032">
        <ele>688</ele>
        <time>1970-01-01T03:03:54.000Z</time>
      </trkpt>
      <trkpt lat="42.196408" lon="2.196059">
        <ele>688</ele>
        <time>1970-01-01T03:03:55.000Z</time>
      </trkpt>
      <trkpt lat="42.196378" lon="2.196097">
        <ele>688</ele>
        <time>1970-01-01T03:03:56.000Z</time>
      </trkpt>
      <trkpt lat="42.196346" lon="2.196129">
        <ele>688</ele>
        <time>1970-01-01T03:03:57.000Z</time>
      </trkpt>
      <trkpt lat="42.196316" lon="2.196144">
        <ele>688</ele>
        <time>1970-01-01T03:03:58.000Z</time>
      </trkpt>
      <trkpt lat="42.196292" lon="2.196153">
        <ele>688</ele>
        <time>1970-01-01T03:03:59.000Z</time>
      </trkpt>
      <trkpt lat="42.19627" lon="2.196161">
        <ele>688</ele>
        <time>1970-01-01T03:04:01.000Z</time>
      </trkpt>
      <trkpt lat="42.19627" lon="2.196161">
        <ele>688</ele>
        <time>1970-01-01T03:04:05.000Z</time>
      </trkpt>
      <trkpt lat="42.196294" lon="2.196144">
        <ele>688</ele>
        <time>1970-01-01T03:04:06.000Z</time>
      </trkpt>
      <trkpt lat="42.196317" lon="2.196127">
        <ele>688</ele>
        <time>1970-01-01T03:04:07.000Z</time>
      </trkpt>
      <trkpt lat="42.196341" lon="2.196111">
        <ele>690</ele>
        <time>1970-01-01T03:08:05.000Z</time>
      </trkpt>
      <trkpt lat="42.196365" lon="2.196094">
        <ele>690</ele>
        <time>1970-01-01T03:08:06.000Z</time>
      </trkpt>
      <trkpt lat="42.196388" lon="2.196077">
        <ele>690</ele>
        <time>1970-01-01T03:08:08.000Z</time>
      </trkpt>
      <trkpt lat="42.196412" lon="2.19606">
        <ele>690</ele>
        <time>1970-01-01T03:08:09.000Z</time>
      </trkpt>
      <trkpt lat="42.196436" lon="2.196043">
        <ele>690</ele>
        <time>1970-01-01T03:08:10.000Z</time>
      </trkpt>
      <trkpt lat="42.196459" lon="2.196026">
        <ele>690</ele>
        <time>1970-01-01T03:08:11.000Z</time>
      </trkpt>
      <trkpt lat="42.196483" lon="2.19601">
        <ele>690</ele>
        <time>1970-01-01T03:08:12.000Z</time>
      </trkpt>
      <trkpt lat="42.196507" lon="2.195993">
        <ele>690</ele>
        <time>1970-01-01T03:08:13.000Z</time>
      </trkpt>
      <trkpt lat="42.19653" lon="2.195976">
        <ele>690</ele>
        <time>1970-01-01T03:08:14.000Z</time>
      </trkpt>
      <trkpt lat="42.196554" lon="2.195959">
        <ele>691</ele>
        <time>1970-01-01T03:08:15.000Z</time>
      </trkpt>
      <trkpt lat="42.196609" lon="2.195902">
        <ele>691</ele>
        <time>1970-01-01T03:08:16.000Z</time>
      </trkpt>
      <trkpt lat="42.196634" lon="2.195878">
        <ele>691</ele>
        <time>1970-01-01T03:08:17.000Z</time>
      </trkpt>
      <trkpt lat="42.196658" lon="2.195854">
        <ele>691</ele>
        <time>1970-01-01T03:08:18.000Z</time>
      </trkpt>
      <trkpt lat="42.196683" lon="2.19583">
        <ele>691</ele>
        <time>1970-01-01T03:08:19.000Z</time>
      </trkpt>
      <trkpt lat="42.196708" lon="2.195807">
        <ele>691</ele>
        <time>1970-01-01T03:08:20.000Z</time>
      </trkpt>
      <trkpt lat="42.196733" lon="2.195783">
        <ele>691</ele>
        <time>1970-01-01T03:08:21.000Z</time>
      </trkpt>
      <trkpt lat="42.196758" lon="2.195759">
        <ele>691</ele>
        <time>1970-01-01T03:08:22.000Z</time>
      </trkpt>
      <trkpt lat="42.196782" lon="2.195735">
        <ele>691</ele>
        <time>1970-01-01T03:08:23.000Z</time>
      </trkpt>
      <trkpt lat="42.196807" lon="2.195711">
        <ele>691</ele>
        <time>1970-01-01T03:08:24.000Z</time>
      </trkpt>
      <trkpt lat="42.196832" lon="2.195687">
        <ele>691</ele>
        <time>1970-01-01T03:08:25.000Z</time>
      </trkpt>
      <trkpt lat="42.19688" lon="2.195636">
        <ele>691</ele>
        <time>1970-01-01T03:08:26.000Z</time>
      </trkpt>
      <trkpt lat="42.196904" lon="2.195611">
        <ele>691</ele>
        <time>1970-01-01T03:08:27.000Z</time>
      </trkpt>
      <trkpt lat="42.196927" lon="2.195585">
        <ele>691</ele>
        <time>1970-01-01T03:08:28.000Z</time>
      </trkpt>
      <trkpt lat="42.196951" lon="2.19556">
        <ele>691</ele>
        <time>1970-01-01T03:08:29.000Z</time>
      </trkpt>
      <trkpt lat="42.196975" lon="2.195534">
        <ele>691</ele>
        <time>1970-01-01T03:08:30.000Z</time>
      </trkpt>
      <trkpt lat="42.196999" lon="2.195508">
        <ele>691</ele>
        <time>1970-01-01T03:08:31.000Z</time>
      </trkpt>
      <trkpt lat="42.197023" lon="2.195483">
        <ele>691</ele>
        <time>1970-01-01T03:08:32.000Z</time>
      </trkpt>
      <trkpt lat="42.197046" lon="2.195457">
        <ele>691</ele>
        <time>1970-01-01T03:08:33.000Z</time>
      </trkpt>
      <trkpt lat="42.19707" lon="2.195432">
        <ele>691</ele>
        <time>1970-01-01T03:08:34.000Z</time>
      </trkpt>
      <trkpt lat="42.197094" lon="2.195406">
        <ele>691</ele>
        <time>1970-01-01T03:08:35.000Z</time>
      </trkpt>
      <trkpt lat="42.197148" lon="2.19534">
        <ele>691</ele>
        <time>1970-01-01T03:08:36.000Z</time>
      </trkpt>
      <trkpt lat="42.197173" lon="2.19531">
        <ele>691</ele>
        <time>1970-01-01T03:08:37.000Z</time>
      </trkpt>
      <trkpt lat="42.197197" lon="2.19528">
        <ele>691</ele>
        <time>1970-01-01T03:08:38.000Z</time>
      </trkpt>
      <trkpt lat="42.197221" lon="2.19525">
        <ele>691</ele>
        <time>1970-01-01T03:08:39.000Z</time>
      </trkpt>
      <trkpt lat="42.197246" lon="2.195221">
        <ele>691</ele>
        <time>1970-01-01T03:08:40.000Z</time>
      </trkpt>
      <trkpt lat="42.19727" lon="2.195191">
        <ele>691</ele>
        <time>1970-01-01T03:08:41.000Z</time>
      </trkpt>
      <trkpt lat="42.197294" lon="2.195161">
        <ele>691</ele>
        <time>1970-01-01T03:08:42.000Z</time>
      </trkpt>
      <trkpt lat="42.197318" lon="2.195131">
        <ele>691</ele>
        <time>1970-01-01T03:08:43.000Z</time>
      </trkpt>
      <trkpt lat="42.197343" lon="2.195101">
        <ele>691</ele>
        <time>1970-01-01T03:08:44.000Z</time>
      </trkpt>
      <trkpt lat="42.197367" lon="2.195071">
        <ele>691</ele>
        <time>1970-01-01T03:08:45.000Z</time>
      </trkpt>
      <trkpt lat="42.197385" lon="2.195046">
        <ele>691</ele>
        <time>1970-01-01T03:08:46.000Z</time>
      </trkpt>
      <trkpt lat="42.1974" lon="2.19502">
        <ele>691</ele>
        <time>1970-01-01T03:08:47.000Z</time>
      </trkpt>
      <trkpt lat="42.197412" lon="2.194996">
        <ele>691</ele>
        <time>1970-01-01T03:08:48.000Z</time>
      </trkpt>
      <trkpt lat="42.197427" lon="2.194962">
        <ele>691</ele>
        <time>1970-01-01T03:08:50.000Z</time>
      </trkpt>
      <trkpt lat="42.197442" lon="2.19494">
        <ele>691</ele>
        <time>1970-01-01T03:08:52.000Z</time>
      </trkpt>
      <trkpt lat="42.197442" lon="2.19494">
        <ele>691</ele>
        <time>1970-01-01T03:08:55.000Z</time>
      </trkpt>
      <trkpt lat="42.197442" lon="2.19494">
        <ele>691</ele>
        <time>1970-01-01T03:08:56.000Z</time>
      </trkpt>
      <trkpt lat="42.197447" lon="2.194938">
        <ele>691</ele>
        <time>1970-01-01T03:08:57.000Z</time>
      </trkpt>
      <trkpt lat="42.197447" lon="2.194938">
        <ele>691</ele>
        <time>1970-01-01T03:09:49.000Z</time>
      </trkpt>
      <trkpt lat="42.197483" lon="2.194957">
        <ele>691</ele>
        <time>1970-01-01T03:09:50.000Z</time>
      </trkpt>
      <trkpt lat="42.197461" lon="2.194976">
        <ele>691</ele>
        <time>1970-01-01T03:09:52.000Z</time>
      </trkpt>
      <trkpt lat="42.197461" lon="2.194976">
        <ele>691</ele>
        <time>1970-01-01T03:09:56.000Z</time>
      </trkpt>
      <trkpt lat="42.197457" lon="2.194982">
        <ele>691</ele>
        <time>1970-01-01T03:09:57.000Z</time>
      </trkpt>
      <trkpt lat="42.197457" lon="2.194982">
        <ele>691</ele>
        <time>1970-01-01T03:10:13.000Z</time>
      </trkpt>
      <trkpt lat="42.197469" lon="2.194989">
        <ele>691</ele>
        <time>1970-01-01T03:10:14.000Z</time>
      </trkpt>
      <trkpt lat="42.197469" lon="2.194989">
        <ele>691</ele>
        <time>1970-01-01T03:10:16.000Z</time>
      </trkpt>
      <trkpt lat="42.197473" lon="2.194988">
        <ele>691</ele>
        <time>1970-01-01T03:10:17.000Z</time>
      </trkpt>
      <trkpt lat="42.197473" lon="2.194988">
        <ele>691</ele>
        <time>1970-01-01T03:10:47.000Z</time>
      </trkpt>
      <trkpt lat="42.197517" lon="2.194981">
        <ele>691</ele>
        <time>1970-01-01T03:10:48.000Z</time>
      </trkpt>
      <trkpt lat="42.197511" lon="2.194987">
        <ele>691</ele>
        <time>1970-01-01T03:10:51.000Z</time>
      </trkpt>
      <trkpt lat="42.197511" lon="2.194987">
        <ele>691</ele>
        <time>1970-01-01T03:10:54.000Z</time>
      </trkpt>
      <trkpt lat="42.197516" lon="2.194983">
        <ele>691</ele>
        <time>1970-01-01T03:10:55.000Z</time>
      </trkpt>
      <trkpt lat="42.197521" lon="2.194979">
        <ele>691</ele>
        <time>1970-01-01T03:11:21.000Z</time>
      </trkpt>
      <trkpt lat="42.197526" lon="2.194975">
        <ele>691</ele>
        <time>1970-01-01T03:11:22.000Z</time>
      </trkpt>
      <trkpt lat="42.197531" lon="2.194971">
        <ele>691</ele>
        <time>1970-01-01T03:11:24.000Z</time>
      </trkpt>
      <trkpt lat="42.197536" lon="2.194967">
        <ele>691</ele>
        <time>1970-01-01T03:11:25.000Z</time>
      </trkpt>
      <trkpt lat="42.197541" lon="2.194963">
        <ele>691</ele>
        <time>1970-01-01T03:11:29.000Z</time>
      </trkpt>
      <trkpt lat="42.197546" lon="2.19496">
        <ele>691</ele>
        <time>1970-01-01T03:11:30.000Z</time>
      </trkpt>
      <trkpt lat="42.197551" lon="2.194956">
        <ele>691</ele>
        <time>1970-01-01T03:11:32.000Z</time>
      </trkpt>
      <trkpt lat="42.197556" lon="2.194952">
        <ele>691</ele>
        <time>1970-01-01T03:11:39.000Z</time>
      </trkpt>
      <trkpt lat="42.197561" lon="2.194948">
        <ele>691</ele>
        <time>1970-01-01T03:11:40.000Z</time>
      </trkpt>
      <trkpt lat="42.197566" lon="2.194944">
        <ele>691</ele>
        <time>1970-01-01T03:11:41.000Z</time>
      </trkpt>
      <trkpt lat="42.197571" lon="2.19494">
        <ele>691</ele>
        <time>1970-01-01T03:11:59.000Z</time>
      </trkpt>
      <trkpt lat="42.197576" lon="2.194936">
        <ele>691</ele>
        <time>1970-01-01T03:12:00.000Z</time>
      </trkpt>
      <trkpt lat="42.197581" lon="2.194932">
        <ele>691</ele>
        <time>1970-01-01T03:12:08.000Z</time>
      </trkpt>
      <trkpt lat="42.197586" lon="2.194928">
        <ele>691</ele>
        <time>1970-01-01T03:12:09.000Z</time>
      </trkpt>
      <trkpt lat="42.197591" lon="2.194924">
        <ele>691</ele>
        <time>1970-01-01T03:12:10.000Z</time>
      </trkpt>
      <trkpt lat="42.197596" lon="2.19492">
        <ele>691</ele>
        <time>1970-01-01T03:12:21.000Z</time>
      </trkpt>
      <trkpt lat="42.197601" lon="2.194916">
        <ele>691</ele>
        <time>1970-01-01T03:12:22.000Z</time>
      </trkpt>
      <trkpt lat="42.197606" lon="2.194912">
        <ele>691</ele>
        <time>1970-01-01T03:12:25.000Z</time>
      </trkpt>
      <trkpt lat="42.197611" lon="2.194908">
        <ele>691</ele>
        <time>1970-01-01T03:12:26.000Z</time>
      </trkpt>
      <trkpt lat="42.197616" lon="2.194905">
        <ele>690</ele>
        <time>1970-01-01T03:38:10.000Z</time>
      </trkpt>
      <trkpt lat="42.197621" lon="2.194901">
        <ele>690</ele>
        <time>1970-01-01T03:38:11.000Z</time>
      </trkpt>
      <trkpt lat="42.197626" lon="2.194897">
        <ele>690</ele>
        <time>1970-01-01T03:38:15.000Z</time>
      </trkpt>
      <trkpt lat="42.197631" lon="2.194893">
        <ele>690</ele>
        <time>1970-01-01T03:38:16.000Z</time>
      </trkpt>
      <trkpt lat="42.197636" lon="2.194889">
        <ele>690</ele>
        <time>1970-01-01T03:38:17.000Z</time>
      </trkpt>
      <trkpt lat="42.197641" lon="2.194885">
        <ele>690</ele>
        <time>1970-01-01T03:38:18.000Z</time>
      </trkpt>
      <trkpt lat="42.197646" lon="2.194881">
        <ele>690</ele>
        <time>1970-01-01T03:38:19.000Z</time>
      </trkpt>
      <trkpt lat="42.197651" lon="2.194877">
        <ele>690</ele>
        <time>1970-01-01T03:38:20.000Z</time>
      </trkpt>
      <trkpt lat="42.197673" lon="2.194829">
        <ele>690</ele>
        <time>1970-01-01T03:38:21.000Z</time>
      </trkpt>
      <trkpt lat="42.197685" lon="2.194805">
        <ele>690</ele>
        <time>1970-01-01T03:38:22.000Z</time>
      </trkpt>
      <trkpt lat="42.197696" lon="2.194782">
        <ele>690</ele>
        <time>1970-01-01T03:38:23.000Z</time>
      </trkpt>
      <trkpt lat="42.197708" lon="2.194758">
        <ele>690</ele>
        <time>1970-01-01T03:38:24.000Z</time>
      </trkpt>
      <trkpt lat="42.197719" lon="2.194734">
        <ele>690</ele>
        <time>1970-01-01T03:38:25.000Z</time>
      </trkpt>
      <trkpt lat="42.19773" lon="2.19471">
        <ele>690</ele>
        <time>1970-01-01T03:38:26.000Z</time>
      </trkpt>
      <trkpt lat="42.197742" lon="2.194686">
        <ele>690</ele>
        <time>1970-01-01T03:38:27.000Z</time>
      </trkpt>
      <trkpt lat="42.197753" lon="2.194663">
        <ele>690</ele>
        <time>1970-01-01T03:38:28.000Z</time>
      </trkpt>
      <trkpt lat="42.197765" lon="2.194639">
        <ele>690</ele>
        <time>1970-01-01T03:38:29.000Z</time>
      </trkpt>
      <trkpt lat="42.197776" lon="2.194615">
        <ele>690</ele>
        <time>1970-01-01T03:38:30.000Z</time>
      </trkpt>
      <trkpt lat="42.197809" lon="2.194557">
        <ele>690</ele>
        <time>1970-01-01T03:38:31.000Z</time>
      </trkpt>
      <trkpt lat="42.19783" lon="2.194531">
        <ele>690</ele>
        <time>1970-01-01T03:38:32.000Z</time>
      </trkpt>
      <trkpt lat="42.197851" lon="2.194506">
        <ele>690</ele>
        <time>1970-01-01T03:38:33.000Z</time>
      </trkpt>
      <trkpt lat="42.197872" lon="2.194481">
        <ele>690</ele>
        <time>1970-01-01T03:38:34.000Z</time>
      </trkpt>
      <trkpt lat="42.197893" lon="2.194456">
        <ele>690</ele>
        <time>1970-01-01T03:38:35.000Z</time>
      </trkpt>
      <trkpt lat="42.197914" lon="2.19443">
        <ele>690</ele>
        <time>1970-01-01T03:38:36.000Z</time>
      </trkpt>
      <trkpt lat="42.197935" lon="2.194405">
        <ele>690</ele>
        <time>1970-01-01T03:38:37.000Z</time>
      </trkpt>
      <trkpt lat="42.197956" lon="2.19438">
        <ele>690</ele>
        <time>1970-01-01T03:38:38.000Z</time>
      </trkpt>
      <trkpt lat="42.197977" lon="2.194354">
        <ele>690</ele>
        <time>1970-01-01T03:38:39.000Z</time>
      </trkpt>
      <trkpt lat="42.197998" lon="2.194329">
        <ele>690</ele>
        <time>1970-01-01T03:38:40.000Z</time>
      </trkpt>
      <trkpt lat="42.198033" lon="2.194284">
        <ele>690</ele>
        <time>1970-01-01T03:38:41.000Z</time>
      </trkpt>
      <trkpt lat="42.198048" lon="2.194266">
        <ele>690</ele>
        <time>1970-01-01T03:38:42.000Z</time>
      </trkpt>
      <trkpt lat="42.198063" lon="2.194249">
        <ele>690</ele>
        <time>1970-01-01T03:38:43.000Z</time>
      </trkpt>
      <trkpt lat="42.198078" lon="2.194231">
        <ele>690</ele>
        <time>1970-01-01T03:38:44.000Z</time>
      </trkpt>
      <trkpt lat="42.198093" lon="2.194214">
        <ele>690</ele>
        <time>1970-01-01T03:38:45.000Z</time>
      </trkpt>
      <trkpt lat="42.198108" lon="2.194196">
        <ele>690</ele>
        <time>1970-01-01T03:38:46.000Z</time>
      </trkpt>
      <trkpt lat="42.198123" lon="2.194179">
        <ele>690</ele>
        <time>1970-01-01T03:38:47.000Z</time>
      </trkpt>
      <trkpt lat="42.198138" lon="2.194161">
        <ele>690</ele>
        <time>1970-01-01T03:38:48.000Z</time>
      </trkpt>
      <trkpt lat="42.198153" lon="2.194144">
        <ele>690</ele>
        <time>1970-01-01T03:38:49.000Z</time>
      </trkpt>
      <trkpt lat="42.198168" lon="2.194126">
        <ele>690</ele>
        <time>1970-01-01T03:38:50.000Z</time>
      </trkpt>
      <trkpt lat="42.198196" lon="2.194105">
        <ele>690</ele>
        <time>1970-01-01T03:38:52.000Z</time>
      </trkpt>
      <trkpt lat="42.198221" lon="2.194089">
        <ele>690</ele>
        <time>1970-01-01T03:38:55.000Z</time>
      </trkpt>
      <trkpt lat="42.198244" lon="2.194065">
        <ele>690</ele>
        <time>1970-01-01T03:38:58.000Z</time>
      </trkpt>
      <trkpt lat="42.198244" lon="2.194065">
        <ele>690</ele>
        <time>1970-01-01T03:39:00.000Z</time>
      </trkpt>
      <trkpt lat="42.198261" lon="2.194043">
        <ele>690</ele>
        <time>1970-01-01T03:39:01.000Z</time>
      </trkpt>
      <trkpt lat="42.198279" lon="2.194021">
        <ele>690</ele>
        <time>1970-01-01T03:39:02.000Z</time>
      </trkpt>
      <trkpt lat="42.198296" lon="2.193999">
        <ele>691</ele>
        <time>1970-01-01T03:39:46.000Z</time>
      </trkpt>
      <trkpt lat="42.198313" lon="2.193977">
        <ele>691</ele>
        <time>1970-01-01T03:39:47.000Z</time>
      </trkpt>
      <trkpt lat="42.19833" lon="2.193955">
        <ele>691</ele>
        <time>1970-01-01T03:39:49.000Z</time>
      </trkpt>
      <trkpt lat="42.198348" lon="2.193934">
        <ele>691</ele>
        <time>1970-01-01T03:39:50.000Z</time>
      </trkpt>
      <trkpt lat="42.198365" lon="2.193912">
        <ele>691</ele>
        <time>1970-01-01T03:39:51.000Z</time>
      </trkpt>
      <trkpt lat="42.198382" lon="2.19389">
        <ele>691</ele>
        <time>1970-01-01T03:39:52.000Z</time>
      </trkpt>
      <trkpt lat="42.198399" lon="2.193868">
        <ele>691</ele>
        <time>1970-01-01T03:39:53.000Z</time>
      </trkpt>
      <trkpt lat="42.198417" lon="2.193846">
        <ele>691</ele>
        <time>1970-01-01T03:39:54.000Z</time>
      </trkpt>
      <trkpt lat="42.198434" lon="2.193824">
        <ele>691</ele>
        <time>1970-01-01T03:39:55.000Z</time>
      </trkpt>
      <trkpt lat="42.198451" lon="2.193802">
        <ele>691</ele>
        <time>1970-01-01T03:39:56.000Z</time>
      </trkpt>
      <trkpt lat="42.198509" lon="2.193739">
        <ele>691</ele>
        <time>1970-01-01T03:39:57.000Z</time>
      </trkpt>
      <trkpt lat="42.198538" lon="2.193709">
        <ele>691</ele>
        <time>1970-01-01T03:39:58.000Z</time>
      </trkpt>
      <trkpt lat="42.198567" lon="2.193678">
        <ele>691</ele>
        <time>1970-01-01T03:39:59.000Z</time>
      </trkpt>
      <trkpt lat="42.198596" lon="2.193648">
        <ele>691</ele>
        <time>1970-01-01T03:40:00.000Z</time>
      </trkpt>
      <trkpt lat="42.198626" lon="2.193617">
        <ele>691</ele>
        <time>1970-01-01T03:40:01.000Z</time>
      </trkpt>
      <trkpt lat="42.198655" lon="2.193586">
        <ele>691</ele>
        <time>1970-01-01T03:40:02.000Z</time>
      </trkpt>
      <trkpt lat="42.198684" lon="2.193556">
        <ele>691</ele>
        <time>1970-01-01T03:40:03.000Z</time>
      </trkpt>
      <trkpt lat="42.198713" lon="2.193525">
        <ele>691</ele>
        <time>1970-01-01T03:40:04.000Z</time>
      </trkpt>
      <trkpt lat="42.198742" lon="2.193495">
        <ele>691</ele>
        <time>1970-01-01T03:40:05.000Z</time>
      </trkpt>
      <trkpt lat="42.198771" lon="2.193464">
        <ele>692</ele>
        <time>1970-01-01T03:40:06.000Z</time>
      </trkpt>
      <trkpt lat="42.198829" lon="2.193404">
        <ele>692</ele>
        <time>1970-01-01T03:40:07.000Z</time>
      </trkpt>
      <trkpt lat="42.198859" lon="2.193376">
        <ele>692</ele>
        <time>1970-01-01T03:40:08.000Z</time>
      </trkpt>
      <trkpt lat="42.19889" lon="2.193348">
        <ele>692</ele>
        <time>1970-01-01T03:40:09.000Z</time>
      </trkpt>
      <trkpt lat="42.19892" lon="2.19332">
        <ele>692</ele>
        <time>1970-01-01T03:40:10.000Z</time>
      </trkpt>
      <trkpt lat="42.198951" lon="2.193292">
        <ele>692</ele>
        <time>1970-01-01T03:40:11.000Z</time>
      </trkpt>
      <trkpt lat="42.198982" lon="2.193263">
        <ele>692</ele>
        <time>1970-01-01T03:40:12.000Z</time>
      </trkpt>
      <trkpt lat="42.199012" lon="2.193235">
        <ele>692</ele>
        <time>1970-01-01T03:40:13.000Z</time>
      </trkpt>
      <trkpt lat="42.199043" lon="2.193207">
        <ele>692</ele>
        <time>1970-01-01T03:40:14.000Z</time>
      </trkpt>
      <trkpt lat="42.199073" lon="2.193179">
        <ele>692</ele>
        <time>1970-01-01T03:40:15.000Z</time>
      </trkpt>
      <trkpt lat="42.199104" lon="2.193151">
        <ele>693</ele>
        <time>1970-01-01T03:40:16.000Z</time>
      </trkpt>
      <trkpt lat="42.199168" lon="2.193083">
        <ele>693</ele>
        <time>1970-01-01T03:40:17.000Z</time>
      </trkpt>
      <trkpt lat="42.1992" lon="2.193053">
        <ele>693</ele>
        <time>1970-01-01T03:40:18.000Z</time>
      </trkpt>
      <trkpt lat="42.199231" lon="2.193023">
        <ele>693</ele>
        <time>1970-01-01T03:40:19.000Z</time>
      </trkpt>
      <trkpt lat="42.199262" lon="2.192993">
        <ele>693</ele>
        <time>1970-01-01T03:40:20.000Z</time>
      </trkpt>
      <trkpt lat="42.199294" lon="2.192963">
        <ele>693</ele>
        <time>1970-01-01T03:40:21.000Z</time>
      </trkpt>
      <trkpt lat="42.199325" lon="2.192933">
        <ele>693</ele>
        <time>1970-01-01T03:40:22.000Z</time>
      </trkpt>
      <trkpt lat="42.199356" lon="2.192903">
        <ele>693</ele>
        <time>1970-01-01T03:40:23.000Z</time>
      </trkpt>
      <trkpt lat="42.199387" lon="2.192873">
        <ele>693</ele>
        <time>1970-01-01T03:40:24.000Z</time>
      </trkpt>
      <trkpt lat="42.199419" lon="2.192843">
        <ele>693</ele>
        <time>1970-01-01T03:40:25.000Z</time>
      </trkpt>
      <trkpt lat="42.19945" lon="2.192813">
        <ele>693</ele>
        <time>1970-01-01T03:40:26.000Z</time>
      </trkpt>
      <trkpt lat="42.199519" lon="2.192776">
        <ele>693</ele>
        <time>1970-01-01T03:40:27.000Z</time>
      </trkpt>
      <trkpt lat="42.199548" lon="2.192761">
        <ele>693</ele>
        <time>1970-01-01T03:40:28.000Z</time>
      </trkpt>
      <trkpt lat="42.199578" lon="2.192745">
        <ele>693</ele>
        <time>1970-01-01T03:40:29.000Z</time>
      </trkpt>
      <trkpt lat="42.199608" lon="2.19273">
        <ele>693</ele>
        <time>1970-01-01T03:40:30.000Z</time>
      </trkpt>
      <trkpt lat="42.199638" lon="2.192715">
        <ele>693</ele>
        <time>1970-01-01T03:40:31.000Z</time>
      </trkpt>
      <trkpt lat="42.199667" lon="2.1927">
        <ele>693</ele>
        <time>1970-01-01T03:40:32.000Z</time>
      </trkpt>
      <trkpt lat="42.199697" lon="2.192685">
        <ele>693</ele>
        <time>1970-01-01T03:40:33.000Z</time>
      </trkpt>
      <trkpt lat="42.199727" lon="2.192669">
        <ele>693</ele>
        <time>1970-01-01T03:40:34.000Z</time>
      </trkpt>
      <trkpt lat="42.199756" lon="2.192654">
        <ele>693</ele>
        <time>1970-01-01T03:40:35.000Z</time>
      </trkpt>
      <trkpt lat="42.199786" lon="2.192639">
        <ele>694</ele>
        <time>1970-01-01T03:40:36.000Z</time>
      </trkpt>
      <trkpt lat="42.19982" lon="2.19254">
        <ele>694</ele>
        <time>1970-01-01T03:40:37.000Z</time>
      </trkpt>
      <trkpt lat="42.199836" lon="2.192484">
        <ele>694</ele>
        <time>1970-01-01T03:40:38.000Z</time>
      </trkpt>
      <trkpt lat="42.199851" lon="2.192427">
        <ele>694</ele>
        <time>1970-01-01T03:40:39.000Z</time>
      </trkpt>
      <trkpt lat="42.199867" lon="2.19237">
        <ele>694</ele>
        <time>1970-01-01T03:40:40.000Z</time>
      </trkpt>
      <trkpt lat="42.199883" lon="2.192314">
        <ele>694</ele>
        <time>1970-01-01T03:40:41.000Z</time>
      </trkpt>
      <trkpt lat="42.199899" lon="2.192257">
        <ele>694</ele>
        <time>1970-01-01T03:40:42.000Z</time>
      </trkpt>
      <trkpt lat="42.199915" lon="2.1922">
        <ele>694</ele>
        <time>1970-01-01T03:40:43.000Z</time>
      </trkpt>
      <trkpt lat="42.19993" lon="2.192143">
        <ele>694</ele>
        <time>1970-01-01T03:40:44.000Z</time>
      </trkpt>
      <trkpt lat="42.199946" lon="2.192087">
        <ele>694</ele>
        <time>1970-01-01T03:40:45.000Z</time>
      </trkpt>
      <trkpt lat="42.199962" lon="2.19203">
        <ele>692</ele>
        <time>1970-01-01T03:40:46.000Z</time>
      </trkpt>
      <trkpt lat="42.200022" lon="2.191924">
        <ele>692</ele>
        <time>1970-01-01T03:40:47.000Z</time>
      </trkpt>
      <trkpt lat="42.20005" lon="2.191878">
        <ele>692</ele>
        <time>1970-01-01T03:40:48.000Z</time>
      </trkpt>
      <trkpt lat="42.200077" lon="2.191831">
        <ele>692</ele>
        <time>1970-01-01T03:40:49.000Z</time>
      </trkpt>
      <trkpt lat="42.200104" lon="2.191785">
        <ele>692</ele>
        <time>1970-01-01T03:40:50.000Z</time>
      </trkpt>
      <trkpt lat="42.200132" lon="2.191738">
        <ele>692</ele>
        <time>1970-01-01T03:40:51.000Z</time>
      </trkpt>
      <trkpt lat="42.200159" lon="2.191691">
        <ele>692</ele>
        <time>1970-01-01T03:40:52.000Z</time>
      </trkpt>
      <trkpt lat="42.200186" lon="2.191645">
        <ele>692</ele>
        <time>1970-01-01T03:40:53.000Z</time>
      </trkpt>
      <trkpt lat="42.200213" lon="2.191598">
        <ele>692</ele>
        <time>1970-01-01T03:40:54.000Z</time>
      </trkpt>
      <trkpt lat="42.200241" lon="2.191552">
        <ele>692</ele>
        <time>1970-01-01T03:40:55.000Z</time>
      </trkpt>
      <trkpt lat="42.200268" lon="2.191505">
        <ele>691</ele>
        <time>1970-01-01T03:40:56.000Z</time>
      </trkpt>
      <trkpt lat="42.200304" lon="2.191433">
        <ele>691</ele>
        <time>1970-01-01T03:40:57.000Z</time>
      </trkpt>
      <trkpt lat="42.200321" lon="2.191404">
        <ele>691</ele>
        <time>1970-01-01T03:40:58.000Z</time>
      </trkpt>
      <trkpt lat="42.200337" lon="2.191376">
        <ele>691</ele>
        <time>1970-01-01T03:40:59.000Z</time>
      </trkpt>
      <trkpt lat="42.200353" lon="2.191347">
        <ele>691</ele>
        <time>1970-01-01T03:41:00.000Z</time>
      </trkpt>
      <trkpt lat="42.20037" lon="2.191319">
        <ele>691</ele>
        <time>1970-01-01T03:41:01.000Z</time>
      </trkpt>
      <trkpt lat="42.200386" lon="2.19129">
        <ele>691</ele>
        <time>1970-01-01T03:41:02.000Z</time>
      </trkpt>
      <trkpt lat="42.200402" lon="2.191262">
        <ele>691</ele>
        <time>1970-01-01T03:41:03.000Z</time>
      </trkpt>
      <trkpt lat="42.200419" lon="2.191233">
        <ele>691</ele>
        <time>1970-01-01T03:41:04.000Z</time>
      </trkpt>
      <trkpt lat="42.200435" lon="2.191205">
        <ele>693</ele>
        <time>1970-01-01T03:41:06.000Z</time>
      </trkpt>
      <trkpt lat="42.200464" lon="2.191143">
        <ele>693</ele>
        <time>1970-01-01T03:41:08.000Z</time>
      </trkpt>
      <trkpt lat="42.200478" lon="2.191119">
        <ele>693</ele>
        <time>1970-01-01T03:41:10.000Z</time>
      </trkpt>
      <trkpt lat="42.200491" lon="2.191096">
        <ele>693</ele>
        <time>1970-01-01T03:41:11.000Z</time>
      </trkpt>
      <trkpt lat="42.200505" lon="2.191073">
        <ele>693</ele>
        <time>1970-01-01T03:41:12.000Z</time>
      </trkpt>
      <trkpt lat="42.200518" lon="2.191049">
        <ele>693</ele>
        <time>1970-01-01T03:41:13.000Z</time>
      </trkpt>
      <trkpt lat="42.200531" lon="2.191026">
        <ele>693</ele>
        <time>1970-01-01T03:41:14.000Z</time>
      </trkpt>
      <trkpt lat="42.200545" lon="2.191002">
        <ele>693</ele>
        <time>1970-01-01T03:41:15.000Z</time>
      </trkpt>
      <trkpt lat="42.200558" lon="2.190979">
        <ele>695</ele>
        <time>1970-01-01T03:41:16.000Z</time>
      </trkpt>
      <trkpt lat="42.200584" lon="2.190931">
        <ele>695</ele>
        <time>1970-01-01T03:41:17.000Z</time>
      </trkpt>
      <trkpt lat="42.200596" lon="2.190908">
        <ele>695</ele>
        <time>1970-01-01T03:41:18.000Z</time>
      </trkpt>
      <trkpt lat="42.200608" lon="2.190885">
        <ele>695</ele>
        <time>1970-01-01T03:41:19.000Z</time>
      </trkpt>
      <trkpt lat="42.20062" lon="2.190862">
        <ele>695</ele>
        <time>1970-01-01T03:41:20.000Z</time>
      </trkpt>
      <trkpt lat="42.200632" lon="2.190839">
        <ele>695</ele>
        <time>1970-01-01T03:41:21.000Z</time>
      </trkpt>
      <trkpt lat="42.200643" lon="2.190815">
        <ele>695</ele>
        <time>1970-01-01T03:41:22.000Z</time>
      </trkpt>
      <trkpt lat="42.200655" lon="2.190792">
        <ele>695</ele>
        <time>1970-01-01T03:41:23.000Z</time>
      </trkpt>
      <trkpt lat="42.200667" lon="2.190769">
        <ele>695</ele>
        <time>1970-01-01T03:41:24.000Z</time>
      </trkpt>
      <trkpt lat="42.200679" lon="2.190746">
        <ele>695</ele>
        <time>1970-01-01T03:41:25.000Z</time>
      </trkpt>
      <trkpt lat="42.200691" lon="2.190723">
        <ele>695</ele>
        <time>1970-01-01T03:41:26.000Z</time>
      </trkpt>
      <trkpt lat="42.200694" lon="2.190655">
        <ele>695</ele>
        <time>1970-01-01T03:41:27.000Z</time>
      </trkpt>
      <trkpt lat="42.200697" lon="2.190622">
        <ele>695</ele>
        <time>1970-01-01T03:41:28.000Z</time>
      </trkpt>
      <trkpt lat="42.2007" lon="2.190589">
        <ele>695</ele>
        <time>1970-01-01T03:41:29.000Z</time>
      </trkpt>
      <trkpt lat="42.200704" lon="2.190556">
        <ele>695</ele>
        <time>1970-01-01T03:41:30.000Z</time>
      </trkpt>
      <trkpt lat="42.200707" lon="2.190523">
        <ele>695</ele>
        <time>1970-01-01T03:41:32.000Z</time>
      </trkpt>
      <trkpt lat="42.20071" lon="2.19049">
        <ele>695</ele>
        <time>1970-01-01T03:41:33.000Z</time>
      </trkpt>
      <trkpt lat="42.200713" lon="2.190457">
        <ele>695</ele>
        <time>1970-01-01T03:41:35.000Z</time>
      </trkpt>
      <trkpt lat="42.200716" lon="2.190424">
        <ele>696</ele>
        <time>1970-01-01T03:41:36.000Z</time>
      </trkpt>
      <trkpt lat="42.200736" lon="2.190364">
        <ele>696</ele>
        <time>1970-01-01T03:41:37.000Z</time>
      </trkpt>
      <trkpt lat="42.200743" lon="2.190332">
        <ele>696</ele>
        <time>1970-01-01T03:41:38.000Z</time>
      </trkpt>
      <trkpt lat="42.200751" lon="2.190301">
        <ele>696</ele>
        <time>1970-01-01T03:41:39.000Z</time>
      </trkpt>
      <trkpt lat="42.200758" lon="2.190269">
        <ele>696</ele>
        <time>1970-01-01T03:41:40.000Z</time>
      </trkpt>
      <trkpt lat="42.200765" lon="2.190238">
        <ele>696</ele>
        <time>1970-01-01T03:41:41.000Z</time>
      </trkpt>
      <trkpt lat="42.200772" lon="2.190206">
        <ele>696</ele>
        <time>1970-01-01T03:41:42.000Z</time>
      </trkpt>
      <trkpt lat="42.200779" lon="2.190175">
        <ele>696</ele>
        <time>1970-01-01T03:41:43.000Z</time>
      </trkpt>
      <trkpt lat="42.200787" lon="2.190143">
        <ele>696</ele>
        <time>1970-01-01T03:41:44.000Z</time>
      </trkpt>
      <trkpt lat="42.200794" lon="2.190112">
        <ele>696</ele>
        <time>1970-01-01T03:41:45.000Z</time>
      </trkpt>
      <trkpt lat="42.200801" lon="2.19008">
        <ele>696</ele>
        <time>1970-01-01T03:41:46.000Z</time>
      </trkpt>
      <trkpt lat="42.200808" lon="2.189992">
        <ele>696</ele>
        <time>1970-01-01T03:41:47.000Z</time>
      </trkpt>
      <trkpt lat="42.200809" lon="2.189938">
        <ele>696</ele>
        <time>1970-01-01T03:41:48.000Z</time>
      </trkpt>
      <trkpt lat="42.200811" lon="2.189885">
        <ele>696</ele>
        <time>1970-01-01T03:41:49.000Z</time>
      </trkpt>
      <trkpt lat="42.200812" lon="2.189832">
        <ele>696</ele>
        <time>1970-01-01T03:41:50.000Z</time>
      </trkpt>
      <trkpt lat="42.200814" lon="2.189779">
        <ele>696</ele>
        <time>1970-01-01T03:41:53.000Z</time>
      </trkpt>
      <trkpt lat="42.200815" lon="2.189725">
        <ele>696</ele>
        <time>1970-01-01T03:41:54.000Z</time>
      </trkpt>
      <trkpt lat="42.200817" lon="2.189672">
        <ele>698</ele>
        <time>1970-01-01T03:41:56.000Z</time>
      </trkpt>
      <trkpt lat="42.200838" lon="2.189557">
        <ele>698</ele>
        <time>1970-01-01T03:41:58.000Z</time>
      </trkpt>
      <trkpt lat="42.200846" lon="2.189528">
        <ele>698</ele>
        <time>1970-01-01T03:41:59.000Z</time>
      </trkpt>
      <trkpt lat="42.200853" lon="2.189498">
        <ele>698</ele>
        <time>1970-01-01T03:42:00.000Z</time>
      </trkpt>
      <trkpt lat="42.200861" lon="2.189469">
        <ele>698</ele>
        <time>1970-01-01T03:42:01.000Z</time>
      </trkpt>
      <trkpt lat="42.200869" lon="2.18944">
        <ele>698</ele>
        <time>1970-01-01T03:42:02.000Z</time>
      </trkpt>
      <trkpt lat="42.200877" lon="2.189411">
        <ele>698</ele>
        <time>1970-01-01T03:42:03.000Z</time>
      </trkpt>
      <trkpt lat="42.200884" lon="2.189381">
        <ele>698</ele>
        <time>1970-01-01T03:42:04.000Z</time>
      </trkpt>
      <trkpt lat="42.200892" lon="2.189352">
        <ele>698</ele>
        <time>1970-01-01T03:42:06.000Z</time>
      </trkpt>
      <trkpt lat="42.20089" lon="2.189124">
        <ele>698</ele>
        <time>1970-01-01T03:42:08.000Z</time>
      </trkpt>
      <trkpt lat="42.200916" lon="2.189039">
        <ele>698</ele>
        <time>1970-01-01T03:42:12.000Z</time>
      </trkpt>
      <trkpt lat="42.200941" lon="2.188953">
        <ele>698</ele>
        <time>1970-01-01T03:42:15.000Z</time>
      </trkpt>
      <trkpt lat="42.200966" lon="2.188867">
        <ele>698</ele>
        <time>1970-01-01T03:42:16.000Z</time>
      </trkpt>
      <trkpt lat="42.200998" lon="2.188751">
        <ele>698</ele>
        <time>1970-01-01T03:42:17.000Z</time>
      </trkpt>
      <trkpt lat="42.201016" lon="2.188693">
        <ele>698</ele>
        <time>1970-01-01T03:42:19.000Z</time>
      </trkpt>
      <trkpt lat="42.201034" lon="2.188634">
        <ele>698</ele>
        <time>1970-01-01T03:42:20.000Z</time>
      </trkpt>
      <trkpt lat="42.201052" lon="2.188575">
        <ele>698</ele>
        <time>1970-01-01T03:42:21.000Z</time>
      </trkpt>
      <trkpt lat="42.201071" lon="2.188517">
        <ele>698</ele>
        <time>1970-01-01T03:42:22.000Z</time>
      </trkpt>
      <trkpt lat="42.201089" lon="2.188458">
        <ele>698</ele>
        <time>1970-01-01T03:42:23.000Z</time>
      </trkpt>
      <trkpt lat="42.201107" lon="2.188399">
        <ele>698</ele>
        <time>1970-01-01T03:42:24.000Z</time>
      </trkpt>
      <trkpt lat="42.201125" lon="2.188341">
        <ele>698</ele>
        <time>1970-01-01T03:42:25.000Z</time>
      </trkpt>
      <trkpt lat="42.201143" lon="2.188282">
        <ele>698</ele>
        <time>1970-01-01T03:42:26.000Z</time>
      </trkpt>
      <trkpt lat="42.201168" lon="2.188188">
        <ele>698</ele>
        <time>1970-01-01T03:42:27.000Z</time>
      </trkpt>
      <trkpt lat="42.201185" lon="2.188149">
        <ele>698</ele>
        <time>1970-01-01T03:42:28.000Z</time>
      </trkpt>
      <trkpt lat="42.201203" lon="2.188109">
        <ele>698</ele>
        <time>1970-01-01T03:42:29.000Z</time>
      </trkpt>
      <trkpt lat="42.20122" lon="2.188069">
        <ele>698</ele>
        <time>1970-01-01T03:42:30.000Z</time>
      </trkpt>
      <trkpt lat="42.201238" lon="2.18803">
        <ele>698</ele>
        <time>1970-01-01T03:42:31.000Z</time>
      </trkpt>
      <trkpt lat="42.201256" lon="2.18799">
        <ele>698</ele>
        <time>1970-01-01T03:42:32.000Z</time>
      </trkpt>
      <trkpt lat="42.201273" lon="2.18795">
        <ele>698</ele>
        <time>1970-01-01T03:42:33.000Z</time>
      </trkpt>
      <trkpt lat="42.201291" lon="2.18791">
        <ele>698</ele>
        <time>1970-01-01T03:42:34.000Z</time>
      </trkpt>
      <trkpt lat="42.201308" lon="2.187871">
        <ele>698</ele>
        <time>1970-01-01T03:42:35.000Z</time>
      </trkpt>
      <trkpt lat="42.201326" lon="2.187831">
        <ele>697</ele>
        <time>1970-01-01T03:42:36.000Z</time>
      </trkpt>
      <trkpt lat="42.201364" lon="2.187738">
        <ele>697</ele>
        <time>1970-01-01T03:42:37.000Z</time>
      </trkpt>
      <trkpt lat="42.201381" lon="2.187694">
        <ele>697</ele>
        <time>1970-01-01T03:42:38.000Z</time>
      </trkpt>
      <trkpt lat="42.201399" lon="2.18765">
        <ele>697</ele>
        <time>1970-01-01T03:42:39.000Z</time>
      </trkpt>
      <trkpt lat="42.201416" lon="2.187606">
        <ele>697</ele>
        <time>1970-01-01T03:42:40.000Z</time>
      </trkpt>
      <trkpt lat="42.201434" lon="2.187563">
        <ele>697</ele>
        <time>1970-01-01T03:42:41.000Z</time>
      </trkpt>
      <trkpt lat="42.201451" lon="2.187519">
        <ele>697</ele>
        <time>1970-01-01T03:42:42.000Z</time>
      </trkpt>
      <trkpt lat="42.201469" lon="2.187475">
        <ele>697</ele>
        <time>1970-01-01T03:42:43.000Z</time>
      </trkpt>
      <trkpt lat="42.201486" lon="2.187431">
        <ele>697</ele>
        <time>1970-01-01T03:42:44.000Z</time>
      </trkpt>
      <trkpt lat="42.201504" lon="2.187387">
        <ele>697</ele>
        <time>1970-01-01T03:42:45.000Z</time>
      </trkpt>
      <trkpt lat="42.201521" lon="2.187343">
        <ele>698</ele>
        <time>1970-01-01T03:42:46.000Z</time>
      </trkpt>
      <trkpt lat="42.201546" lon="2.187241">
        <ele>698</ele>
        <time>1970-01-01T03:42:47.000Z</time>
      </trkpt>
      <trkpt lat="42.20156" lon="2.187194">
        <ele>698</ele>
        <time>1970-01-01T03:42:48.000Z</time>
      </trkpt>
      <trkpt lat="42.201573" lon="2.187147">
        <ele>698</ele>
        <time>1970-01-01T03:42:49.000Z</time>
      </trkpt>
      <trkpt lat="42.201587" lon="2.1871">
        <ele>698</ele>
        <time>1970-01-01T03:42:50.000Z</time>
      </trkpt>
      <trkpt lat="42.2016" lon="2.187054">
        <ele>698</ele>
        <time>1970-01-01T03:42:51.000Z</time>
      </trkpt>
      <trkpt lat="42.201613" lon="2.187007">
        <ele>698</ele>
        <time>1970-01-01T03:42:52.000Z</time>
      </trkpt>
      <trkpt lat="42.201627" lon="2.18696">
        <ele>698</ele>
        <time>1970-01-01T03:42:53.000Z</time>
      </trkpt>
      <trkpt lat="42.20164" lon="2.186913">
        <ele>698</ele>
        <time>1970-01-01T03:42:54.000Z</time>
      </trkpt>
      <trkpt lat="42.201654" lon="2.186866">
        <ele>698</ele>
        <time>1970-01-01T03:42:55.000Z</time>
      </trkpt>
      <trkpt lat="42.201667" lon="2.186819">
        <ele>699</ele>
        <time>1970-01-01T03:42:56.000Z</time>
      </trkpt>
      <trkpt lat="42.201696" lon="2.186719">
        <ele>699</ele>
        <time>1970-01-01T03:42:57.000Z</time>
      </trkpt>
      <trkpt lat="42.201712" lon="2.186673">
        <ele>699</ele>
        <time>1970-01-01T03:42:58.000Z</time>
      </trkpt>
      <trkpt lat="42.201728" lon="2.186628">
        <ele>699</ele>
        <time>1970-01-01T03:42:59.000Z</time>
      </trkpt>
      <trkpt lat="42.201744" lon="2.186582">
        <ele>699</ele>
        <time>1970-01-01T03:43:00.000Z</time>
      </trkpt>
      <trkpt lat="42.201761" lon="2.186536">
        <ele>699</ele>
        <time>1970-01-01T03:43:01.000Z</time>
      </trkpt>
      <trkpt lat="42.201777" lon="2.18649">
        <ele>699</ele>
        <time>1970-01-01T03:43:02.000Z</time>
      </trkpt>
      <trkpt lat="42.201793" lon="2.186444">
        <ele>699</ele>
        <time>1970-01-01T03:43:03.000Z</time>
      </trkpt>
      <trkpt lat="42.201809" lon="2.186399">
        <ele>699</ele>
        <time>1970-01-01T03:43:04.000Z</time>
      </trkpt>
      <trkpt lat="42.201825" lon="2.186353">
        <ele>699</ele>
        <time>1970-01-01T03:43:05.000Z</time>
      </trkpt>
      <trkpt lat="42.201841" lon="2.186307">
        <ele>699</ele>
        <time>1970-01-01T03:43:06.000Z</time>
      </trkpt>
      <trkpt lat="42.201877" lon="2.186204">
        <ele>699</ele>
        <time>1970-01-01T03:43:07.000Z</time>
      </trkpt>
      <trkpt lat="42.201893" lon="2.186154">
        <ele>699</ele>
        <time>1970-01-01T03:43:08.000Z</time>
      </trkpt>
      <trkpt lat="42.20191" lon="2.186104">
        <ele>699</ele>
        <time>1970-01-01T03:43:09.000Z</time>
      </trkpt>
      <trkpt lat="42.201926" lon="2.186054">
        <ele>699</ele>
        <time>1970-01-01T03:43:10.000Z</time>
      </trkpt>
      <trkpt lat="42.201943" lon="2.186005">
        <ele>699</ele>
        <time>1970-01-01T03:43:11.000Z</time>
      </trkpt>
      <trkpt lat="42.201959" lon="2.185955">
        <ele>699</ele>
        <time>1970-01-01T03:43:12.000Z</time>
      </trkpt>
      <trkpt lat="42.201976" lon="2.185905">
        <ele>699</ele>
        <time>1970-01-01T03:43:13.000Z</time>
      </trkpt>
      <trkpt lat="42.201992" lon="2.185855">
        <ele>699</ele>
        <time>1970-01-01T03:43:14.000Z</time>
      </trkpt>
      <trkpt lat="42.202009" lon="2.185805">
        <ele>699</ele>
        <time>1970-01-01T03:43:15.000Z</time>
      </trkpt>
      <trkpt lat="42.202025" lon="2.185755">
        <ele>700</ele>
        <time>1970-01-01T03:43:16.000Z</time>
      </trkpt>
      <trkpt lat="42.202047" lon="2.185641">
        <ele>700</ele>
        <time>1970-01-01T03:43:17.000Z</time>
      </trkpt>
      <trkpt lat="42.202062" lon="2.18559">
        <ele>700</ele>
        <time>1970-01-01T03:43:18.000Z</time>
      </trkpt>
      <trkpt lat="42.202078" lon="2.18554">
        <ele>700</ele>
        <time>1970-01-01T03:43:19.000Z</time>
      </trkpt>
      <trkpt lat="42.202093" lon="2.185489">
        <ele>700</ele>
        <time>1970-01-01T03:43:20.000Z</time>
      </trkpt>
      <trkpt lat="42.202108" lon="2.185439">
        <ele>700</ele>
        <time>1970-01-01T03:43:21.000Z</time>
      </trkpt>
      <trkpt lat="42.202123" lon="2.185388">
        <ele>700</ele>
        <time>1970-01-01T03:43:22.000Z</time>
      </trkpt>
      <trkpt lat="42.202138" lon="2.185338">
        <ele>700</ele>
        <time>1970-01-01T03:43:23.000Z</time>
      </trkpt>
      <trkpt lat="42.202154" lon="2.185287">
        <ele>700</ele>
        <time>1970-01-01T03:43:24.000Z</time>
      </trkpt>
      <trkpt lat="42.202169" lon="2.185237">
        <ele>700</ele>
        <time>1970-01-01T03:43:25.000Z</time>
      </trkpt>
      <trkpt lat="42.202184" lon="2.185186">
        <ele>700</ele>
        <time>1970-01-01T03:43:26.000Z</time>
      </trkpt>
      <trkpt lat="42.202218" lon="2.185101">
        <ele>700</ele>
        <time>1970-01-01T03:43:27.000Z</time>
      </trkpt>
      <trkpt lat="42.202231" lon="2.185064">
        <ele>700</ele>
        <time>1970-01-01T03:43:28.000Z</time>
      </trkpt>
      <trkpt lat="42.202243" lon="2.185028">
        <ele>700</ele>
        <time>1970-01-01T03:43:29.000Z</time>
      </trkpt>
      <trkpt lat="42.202256" lon="2.184991">
        <ele>700</ele>
        <time>1970-01-01T03:43:30.000Z</time>
      </trkpt>
      <trkpt lat="42.202269" lon="2.184955">
        <ele>700</ele>
        <time>1970-01-01T03:43:31.000Z</time>
      </trkpt>
      <trkpt lat="42.202282" lon="2.184919">
        <ele>700</ele>
        <time>1970-01-01T03:43:32.000Z</time>
      </trkpt>
      <trkpt lat="42.202295" lon="2.184882">
        <ele>700</ele>
        <time>1970-01-01T03:43:33.000Z</time>
      </trkpt>
      <trkpt lat="42.202307" lon="2.184846">
        <ele>700</ele>
        <time>1970-01-01T03:43:34.000Z</time>
      </trkpt>
      <trkpt lat="42.20232" lon="2.184809">
        <ele>700</ele>
        <time>1970-01-01T03:43:35.000Z</time>
      </trkpt>
      <trkpt lat="42.202333" lon="2.184773">
        <ele>701</ele>
        <time>1970-01-01T03:43:36.000Z</time>
      </trkpt>
      <trkpt lat="42.20236" lon="2.184697">
        <ele>701</ele>
        <time>1970-01-01T03:43:37.000Z</time>
      </trkpt>
      <trkpt lat="42.202375" lon="2.184661">
        <ele>701</ele>
        <time>1970-01-01T03:43:38.000Z</time>
      </trkpt>
      <trkpt lat="42.20239" lon="2.184626">
        <ele>701</ele>
        <time>1970-01-01T03:43:39.000Z</time>
      </trkpt>
      <trkpt lat="42.202405" lon="2.18459">
        <ele>701</ele>
        <time>1970-01-01T03:43:40.000Z</time>
      </trkpt>
      <trkpt lat="42.20242" lon="2.184555">
        <ele>701</ele>
        <time>1970-01-01T03:43:41.000Z</time>
      </trkpt>
      <trkpt lat="42.202434" lon="2.18452">
        <ele>701</ele>
        <time>1970-01-01T03:43:42.000Z</time>
      </trkpt>
      <trkpt lat="42.202449" lon="2.184484">
        <ele>701</ele>
        <time>1970-01-01T03:43:43.000Z</time>
      </trkpt>
      <trkpt lat="42.202464" lon="2.184449">
        <ele>701</ele>
        <time>1970-01-01T03:43:44.000Z</time>
      </trkpt>
      <trkpt lat="42.202479" lon="2.184413">
        <ele>701</ele>
        <time>1970-01-01T03:43:45.000Z</time>
      </trkpt>
      <trkpt lat="42.202494" lon="2.184378">
        <ele>702</ele>
        <time>1970-01-01T03:43:46.000Z</time>
      </trkpt>
      <trkpt lat="42.202523" lon="2.1843">
        <ele>702</ele>
        <time>1970-01-01T03:43:47.000Z</time>
      </trkpt>
      <trkpt lat="42.202534" lon="2.184263">
        <ele>702</ele>
        <time>1970-01-01T03:43:48.000Z</time>
      </trkpt>
      <trkpt lat="42.202546" lon="2.184226">
        <ele>702</ele>
        <time>1970-01-01T03:43:49.000Z</time>
      </trkpt>
      <trkpt lat="42.202557" lon="2.184189">
        <ele>702</ele>
        <time>1970-01-01T03:43:50.000Z</time>
      </trkpt>
      <trkpt lat="42.202568" lon="2.184153">
        <ele>702</ele>
        <time>1970-01-01T03:43:51.000Z</time>
      </trkpt>
      <trkpt lat="42.202579" lon="2.184116">
        <ele>702</ele>
        <time>1970-01-01T03:43:52.000Z</time>
      </trkpt>
      <trkpt lat="42.20259" lon="2.184079">
        <ele>702</ele>
        <time>1970-01-01T03:43:53.000Z</time>
      </trkpt>
      <trkpt lat="42.202602" lon="2.184042">
        <ele>702</ele>
        <time>1970-01-01T03:43:54.000Z</time>
      </trkpt>
      <trkpt lat="42.202613" lon="2.184005">
        <ele>702</ele>
        <time>1970-01-01T03:43:55.000Z</time>
      </trkpt>
      <trkpt lat="42.202624" lon="2.183968">
        <ele>704</ele>
        <time>1970-01-01T03:43:56.000Z</time>
      </trkpt>
      <trkpt lat="42.202649" lon="2.183893">
        <ele>704</ele>
        <time>1970-01-01T03:43:57.000Z</time>
      </trkpt>
      <trkpt lat="42.202662" lon="2.183857">
        <ele>704</ele>
        <time>1970-01-01T03:43:58.000Z</time>
      </trkpt>
      <trkpt lat="42.202675" lon="2.183822">
        <ele>704</ele>
        <time>1970-01-01T03:43:59.000Z</time>
      </trkpt>
      <trkpt lat="42.202688" lon="2.183786">
        <ele>704</ele>
        <time>1970-01-01T03:44:00.000Z</time>
      </trkpt>
      <trkpt lat="42.202701" lon="2.183751">
        <ele>704</ele>
        <time>1970-01-01T03:44:01.000Z</time>
      </trkpt>
      <trkpt lat="42.202714" lon="2.183716">
        <ele>704</ele>
        <time>1970-01-01T03:44:02.000Z</time>
      </trkpt>
      <trkpt lat="42.202727" lon="2.18368">
        <ele>704</ele>
        <time>1970-01-01T03:44:03.000Z</time>
      </trkpt>
      <trkpt lat="42.20274" lon="2.183645">
        <ele>704</ele>
        <time>1970-01-01T03:44:04.000Z</time>
      </trkpt>
      <trkpt lat="42.202753" lon="2.183609">
        <ele>704</ele>
        <time>1970-01-01T03:44:05.000Z</time>
      </trkpt>
      <trkpt lat="42.202766" lon="2.183574">
        <ele>704</ele>
        <time>1970-01-01T03:44:06.000Z</time>
      </trkpt>
      <trkpt lat="42.202811" lon="2.183506">
        <ele>704</ele>
        <time>1970-01-01T03:44:07.000Z</time>
      </trkpt>
      <trkpt lat="42.202833" lon="2.183475">
        <ele>704</ele>
        <time>1970-01-01T03:44:08.000Z</time>
      </trkpt>
      <trkpt lat="42.202856" lon="2.183445">
        <ele>704</ele>
        <time>1970-01-01T03:44:09.000Z</time>
      </trkpt>
      <trkpt lat="42.202878" lon="2.183414">
        <ele>704</ele>
        <time>1970-01-01T03:44:10.000Z</time>
      </trkpt>
      <trkpt lat="42.202901" lon="2.183384">
        <ele>704</ele>
        <time>1970-01-01T03:44:11.000Z</time>
      </trkpt>
      <trkpt lat="42.202924" lon="2.183353">
        <ele>704</ele>
        <time>1970-01-01T03:44:12.000Z</time>
      </trkpt>
      <trkpt lat="42.202946" lon="2.183323">
        <ele>704</ele>
        <time>1970-01-01T03:44:13.000Z</time>
      </trkpt>
      <trkpt lat="42.202969" lon="2.183292">
        <ele>704</ele>
        <time>1970-01-01T03:44:14.000Z</time>
      </trkpt>
      <trkpt lat="42.202991" lon="2.183262">
        <ele>704</ele>
        <time>1970-01-01T03:44:15.000Z</time>
      </trkpt>
      <trkpt lat="42.203014" lon="2.183231">
        <ele>704</ele>
        <time>1970-01-01T03:44:16.000Z</time>
      </trkpt>
      <trkpt lat="42.20306" lon="2.18316">
        <ele>704</ele>
        <time>1970-01-01T03:44:17.000Z</time>
      </trkpt>
      <trkpt lat="42.203078" lon="2.183123">
        <ele>704</ele>
        <time>1970-01-01T03:44:18.000Z</time>
      </trkpt>
      <trkpt lat="42.203096" lon="2.183085">
        <ele>704</ele>
        <time>1970-01-01T03:44:19.000Z</time>
      </trkpt>
      <trkpt lat="42.203114" lon="2.183048">
        <ele>704</ele>
        <time>1970-01-01T03:44:20.000Z</time>
      </trkpt>
      <trkpt lat="42.203132" lon="2.183011">
        <ele>704</ele>
        <time>1970-01-01T03:44:21.000Z</time>
      </trkpt>
      <trkpt lat="42.20315" lon="2.182974">
        <ele>704</ele>
        <time>1970-01-01T03:44:22.000Z</time>
      </trkpt>
      <trkpt lat="42.203168" lon="2.182937">
        <ele>704</ele>
        <time>1970-01-01T03:44:23.000Z</time>
      </trkpt>
      <trkpt lat="42.203186" lon="2.182899">
        <ele>704</ele>
        <time>1970-01-01T03:44:24.000Z</time>
      </trkpt>
      <trkpt lat="42.203204" lon="2.182862">
        <ele>704</ele>
        <time>1970-01-01T03:44:25.000Z</time>
      </trkpt>
      <trkpt lat="42.203222" lon="2.182825">
        <ele>705</ele>
        <time>1970-01-01T03:44:26.000Z</time>
      </trkpt>
      <trkpt lat="42.20327" lon="2.18275">
        <ele>705</ele>
        <time>1970-01-01T03:44:27.000Z</time>
      </trkpt>
      <trkpt lat="42.203298" lon="2.182719">
        <ele>705</ele>
        <time>1970-01-01T03:44:28.000Z</time>
      </trkpt>
      <trkpt lat="42.203326" lon="2.182687">
        <ele>705</ele>
        <time>1970-01-01T03:44:29.000Z</time>
      </trkpt>
      <trkpt lat="42.203354" lon="2.182656">
        <ele>705</ele>
        <time>1970-01-01T03:44:30.000Z</time>
      </trkpt>
      <trkpt lat="42.203382" lon="2.182624">
        <ele>705</ele>
        <time>1970-01-01T03:44:31.000Z</time>
      </trkpt>
      <trkpt lat="42.203409" lon="2.182592">
        <ele>705</ele>
        <time>1970-01-01T03:44:32.000Z</time>
      </trkpt>
      <trkpt lat="42.203437" lon="2.182561">
        <ele>705</ele>
        <time>1970-01-01T03:44:33.000Z</time>
      </trkpt>
      <trkpt lat="42.203465" lon="2.182529">
        <ele>705</ele>
        <time>1970-01-01T03:44:34.000Z</time>
      </trkpt>
      <trkpt lat="42.203493" lon="2.182498">
        <ele>705</ele>
        <time>1970-01-01T03:44:35.000Z</time>
      </trkpt>
      <trkpt lat="42.203521" lon="2.182466">
        <ele>705</ele>
        <time>1970-01-01T03:44:36.000Z</time>
      </trkpt>
      <trkpt lat="42.203584" lon="2.182396">
        <ele>705</ele>
        <time>1970-01-01T03:44:37.000Z</time>
      </trkpt>
      <trkpt lat="42.203616" lon="2.182361">
        <ele>705</ele>
        <time>1970-01-01T03:44:38.000Z</time>
      </trkpt>
      <trkpt lat="42.203649" lon="2.182325">
        <ele>705</ele>
        <time>1970-01-01T03:44:39.000Z</time>
      </trkpt>
      <trkpt lat="42.203681" lon="2.18229">
        <ele>705</ele>
        <time>1970-01-01T03:44:40.000Z</time>
      </trkpt>
      <trkpt lat="42.203713" lon="2.182254">
        <ele>705</ele>
        <time>1970-01-01T03:44:41.000Z</time>
      </trkpt>
      <trkpt lat="42.203745" lon="2.182218">
        <ele>705</ele>
        <time>1970-01-01T03:44:42.000Z</time>
      </trkpt>
      <trkpt lat="42.203777" lon="2.182183">
        <ele>705</ele>
        <time>1970-01-01T03:44:43.000Z</time>
      </trkpt>
      <trkpt lat="42.20381" lon="2.182147">
        <ele>705</ele>
        <time>1970-01-01T03:44:44.000Z</time>
      </trkpt>
      <trkpt lat="42.203842" lon="2.182112">
        <ele>705</ele>
        <time>1970-01-01T03:44:45.000Z</time>
      </trkpt>
      <trkpt lat="42.203874" lon="2.182076">
        <ele>707</ele>
        <time>1970-01-01T03:44:46.000Z</time>
      </trkpt>
      <trkpt lat="42.203939" lon="2.181972">
        <ele>707</ele>
        <time>1970-01-01T03:44:47.000Z</time>
      </trkpt>
      <trkpt lat="42.203968" lon="2.181915">
        <ele>707</ele>
        <time>1970-01-01T03:44:48.000Z</time>
      </trkpt>
      <trkpt lat="42.203997" lon="2.181859">
        <ele>707</ele>
        <time>1970-01-01T03:44:49.000Z</time>
      </trkpt>
      <trkpt lat="42.204026" lon="2.181802">
        <ele>707</ele>
        <time>1970-01-01T03:44:50.000Z</time>
      </trkpt>
      <trkpt lat="42.204055" lon="2.181746">
        <ele>707</ele>
        <time>1970-01-01T03:44:51.000Z</time>
      </trkpt>
      <trkpt lat="42.204084" lon="2.18169">
        <ele>707</ele>
        <time>1970-01-01T03:44:52.000Z</time>
      </trkpt>
      <trkpt lat="42.204113" lon="2.181633">
        <ele>707</ele>
        <time>1970-01-01T03:44:53.000Z</time>
      </trkpt>
      <trkpt lat="42.204142" lon="2.181577">
        <ele>707</ele>
        <time>1970-01-01T03:44:54.000Z</time>
      </trkpt>
      <trkpt lat="42.204171" lon="2.18152">
        <ele>707</ele>
        <time>1970-01-01T03:44:55.000Z</time>
      </trkpt>
      <trkpt lat="42.2042" lon="2.181464">
        <ele>706</ele>
        <time>1970-01-01T03:44:56.000Z</time>
      </trkpt>
      <trkpt lat="42.204249" lon="2.181317">
        <ele>706</ele>
        <time>1970-01-01T03:44:57.000Z</time>
      </trkpt>
      <trkpt lat="42.204268" lon="2.181241">
        <ele>706</ele>
        <time>1970-01-01T03:44:58.000Z</time>
      </trkpt>
      <trkpt lat="42.204287" lon="2.181166">
        <ele>706</ele>
        <time>1970-01-01T03:44:59.000Z</time>
      </trkpt>
      <trkpt lat="42.204306" lon="2.18109">
        <ele>706</ele>
        <time>1970-01-01T03:45:00.000Z</time>
      </trkpt>
      <trkpt lat="42.204325" lon="2.181015">
        <ele>706</ele>
        <time>1970-01-01T03:45:01.000Z</time>
      </trkpt>
      <trkpt lat="42.204343" lon="2.18094">
        <ele>706</ele>
        <time>1970-01-01T03:45:02.000Z</time>
      </trkpt>
      <trkpt lat="42.204362" lon="2.180864">
        <ele>706</ele>
        <time>1970-01-01T03:45:03.000Z</time>
      </trkpt>
      <trkpt lat="42.204381" lon="2.180789">
        <ele>706</ele>
        <time>1970-01-01T03:45:04.000Z</time>
      </trkpt>
      <trkpt lat="42.2044" lon="2.180713">
        <ele>706</ele>
        <time>1970-01-01T03:45:05.000Z</time>
      </trkpt>
      <trkpt lat="42.204419" lon="2.180638">
        <ele>706</ele>
        <time>1970-01-01T03:45:06.000Z</time>
      </trkpt>
      <trkpt lat="42.20443" lon="2.18046">
        <ele>706</ele>
        <time>1970-01-01T03:45:07.000Z</time>
      </trkpt>
      <trkpt lat="42.204431" lon="2.180375">
        <ele>706</ele>
        <time>1970-01-01T03:45:08.000Z</time>
      </trkpt>
      <trkpt lat="42.204433" lon="2.180291">
        <ele>706</ele>
        <time>1970-01-01T03:45:09.000Z</time>
      </trkpt>
      <trkpt lat="42.204435" lon="2.180206">
        <ele>706</ele>
        <time>1970-01-01T03:45:10.000Z</time>
      </trkpt>
      <trkpt lat="42.204437" lon="2.180122">
        <ele>706</ele>
        <time>1970-01-01T03:45:11.000Z</time>
      </trkpt>
      <trkpt lat="42.204438" lon="2.180037">
        <ele>706</ele>
        <time>1970-01-01T03:45:12.000Z</time>
      </trkpt>
      <trkpt lat="42.20444" lon="2.179953">
        <ele>706</ele>
        <time>1970-01-01T03:45:13.000Z</time>
      </trkpt>
      <trkpt lat="42.204442" lon="2.179868">
        <ele>706</ele>
        <time>1970-01-01T03:45:14.000Z</time>
      </trkpt>
      <trkpt lat="42.204443" lon="2.179784">
        <ele>706</ele>
        <time>1970-01-01T03:45:15.000Z</time>
      </trkpt>
      <trkpt lat="42.204445" lon="2.179699">
        <ele>706</ele>
        <time>1970-01-01T03:45:16.000Z</time>
      </trkpt>
      <trkpt lat="42.20445" lon="2.179513">
        <ele>706</ele>
        <time>1970-01-01T03:45:17.000Z</time>
      </trkpt>
      <trkpt lat="42.204453" lon="2.179424">
        <ele>706</ele>
        <time>1970-01-01T03:45:18.000Z</time>
      </trkpt>
      <trkpt lat="42.204456" lon="2.179335">
        <ele>706</ele>
        <time>1970-01-01T03:45:19.000Z</time>
      </trkpt>
      <trkpt lat="42.204459" lon="2.179246">
        <ele>706</ele>
        <time>1970-01-01T03:45:20.000Z</time>
      </trkpt>
      <trkpt lat="42.204462" lon="2.179157">
        <ele>706</ele>
        <time>1970-01-01T03:45:21.000Z</time>
      </trkpt>
      <trkpt lat="42.204464" lon="2.179068">
        <ele>706</ele>
        <time>1970-01-01T03:45:22.000Z</time>
      </trkpt>
      <trkpt lat="42.204467" lon="2.178979">
        <ele>706</ele>
        <time>1970-01-01T03:45:23.000Z</time>
      </trkpt>
      <trkpt lat="42.20447" lon="2.17889">
        <ele>706</ele>
        <time>1970-01-01T03:45:24.000Z</time>
      </trkpt>
      <trkpt lat="42.204473" lon="2.178801">
        <ele>706</ele>
        <time>1970-01-01T03:45:25.000Z</time>
      </trkpt>
      <trkpt lat="42.204476" lon="2.178712">
        <ele>706</ele>
        <time>1970-01-01T03:45:26.000Z</time>
      </trkpt>
      <trkpt lat="42.204492" lon="2.17853">
        <ele>706</ele>
        <time>1970-01-01T03:45:27.000Z</time>
      </trkpt>
      <trkpt lat="42.204504" lon="2.178446">
        <ele>706</ele>
        <time>1970-01-01T03:45:28.000Z</time>
      </trkpt>
      <trkpt lat="42.204516" lon="2.178363">
        <ele>706</ele>
        <time>1970-01-01T03:45:29.000Z</time>
      </trkpt>
      <trkpt lat="42.204528" lon="2.178279">
        <ele>706</ele>
        <time>1970-01-01T03:45:30.000Z</time>
      </trkpt>
      <trkpt lat="42.204541" lon="2.178195">
        <ele>706</ele>
        <time>1970-01-01T03:45:31.000Z</time>
      </trkpt>
      <trkpt lat="42.204553" lon="2.178111">
        <ele>706</ele>
        <time>1970-01-01T03:45:32.000Z</time>
      </trkpt>
      <trkpt lat="42.204565" lon="2.178027">
        <ele>706</ele>
        <time>1970-01-01T03:45:33.000Z</time>
      </trkpt>
      <trkpt lat="42.204577" lon="2.177944">
        <ele>706</ele>
        <time>1970-01-01T03:45:34.000Z</time>
      </trkpt>
      <trkpt lat="42.204589" lon="2.17786">
        <ele>706</ele>
        <time>1970-01-01T03:45:35.000Z</time>
      </trkpt>
      <trkpt lat="42.204601" lon="2.177776">
        <ele>705</ele>
        <time>1970-01-01T03:45:36.000Z</time>
      </trkpt>
      <trkpt lat="42.204655" lon="2.177612">
        <ele>705</ele>
        <time>1970-01-01T03:45:37.000Z</time>
      </trkpt>
      <trkpt lat="42.204684" lon="2.17754">
        <ele>705</ele>
        <time>1970-01-01T03:45:38.000Z</time>
      </trkpt>
      <trkpt lat="42.204714" lon="2.177468">
        <ele>705</ele>
        <time>1970-01-01T03:45:39.000Z</time>
      </trkpt>
      <trkpt lat="42.204743" lon="2.177396">
        <ele>705</ele>
        <time>1970-01-01T03:45:40.000Z</time>
      </trkpt>
      <trkpt lat="42.204772" lon="2.177325">
        <ele>705</ele>
        <time>1970-01-01T03:45:41.000Z</time>
      </trkpt>
      <trkpt lat="42.204801" lon="2.177253">
        <ele>705</ele>
        <time>1970-01-01T03:45:42.000Z</time>
      </trkpt>
      <trkpt lat="42.20483" lon="2.177181">
        <ele>705</ele>
        <time>1970-01-01T03:45:43.000Z</time>
      </trkpt>
      <trkpt lat="42.20486" lon="2.177109">
        <ele>705</ele>
        <time>1970-01-01T03:45:44.000Z</time>
      </trkpt>
      <trkpt lat="42.204889" lon="2.177037">
        <ele>705</ele>
        <time>1970-01-01T03:45:45.000Z</time>
      </trkpt>
      <trkpt lat="42.204918" lon="2.176965">
        <ele>705</ele>
        <time>1970-01-01T03:45:46.000Z</time>
      </trkpt>
      <trkpt lat="42.20498" lon="2.176827">
        <ele>705</ele>
        <time>1970-01-01T03:45:47.000Z</time>
      </trkpt>
      <trkpt lat="42.205009" lon="2.176762">
        <ele>705</ele>
        <time>1970-01-01T03:45:48.000Z</time>
      </trkpt>
      <trkpt lat="42.205039" lon="2.176698">
        <ele>705</ele>
        <time>1970-01-01T03:45:49.000Z</time>
      </trkpt>
      <trkpt lat="42.205068" lon="2.176634">
        <ele>705</ele>
        <time>1970-01-01T03:45:50.000Z</time>
      </trkpt>
      <trkpt lat="42.205098" lon="2.17657">
        <ele>705</ele>
        <time>1970-01-01T03:45:51.000Z</time>
      </trkpt>
      <trkpt lat="42.205127" lon="2.176505">
        <ele>705</ele>
        <time>1970-01-01T03:45:52.000Z</time>
      </trkpt>
      <trkpt lat="42.205157" lon="2.176441">
        <ele>705</ele>
        <time>1970-01-01T03:45:53.000Z</time>
      </trkpt>
      <trkpt lat="42.205186" lon="2.176377">
        <ele>705</ele>
        <time>1970-01-01T03:45:54.000Z</time>
      </trkpt>
      <trkpt lat="42.205216" lon="2.176312">
        <ele>705</ele>
        <time>1970-01-01T03:45:55.000Z</time>
      </trkpt>
      <trkpt lat="42.205245" lon="2.176248">
        <ele>707</ele>
        <time>1970-01-01T03:45:56.000Z</time>
      </trkpt>
      <trkpt lat="42.205304" lon="2.176117">
        <ele>707</ele>
        <time>1970-01-01T03:45:57.000Z</time>
      </trkpt>
      <trkpt lat="42.20533" lon="2.176059">
        <ele>707</ele>
        <time>1970-01-01T03:45:58.000Z</time>
      </trkpt>
      <trkpt lat="42.205357" lon="2.176">
        <ele>707</ele>
        <time>1970-01-01T03:45:59.000Z</time>
      </trkpt>
      <trkpt lat="42.205383" lon="2.175941">
        <ele>707</ele>
        <time>1970-01-01T03:46:00.000Z</time>
      </trkpt>
      <trkpt lat="42.20541" lon="2.175883">
        <ele>707</ele>
        <time>1970-01-01T03:46:01.000Z</time>
      </trkpt>
      <trkpt lat="42.205437" lon="2.175824">
        <ele>707</ele>
        <time>1970-01-01T03:46:02.000Z</time>
      </trkpt>
      <trkpt lat="42.205463" lon="2.175765">
        <ele>707</ele>
        <time>1970-01-01T03:46:03.000Z</time>
      </trkpt>
      <trkpt lat="42.20549" lon="2.175706">
        <ele>707</ele>
        <time>1970-01-01T03:46:04.000Z</time>
      </trkpt>
      <trkpt lat="42.205516" lon="2.175648">
        <ele>707</ele>
        <time>1970-01-01T03:46:05.000Z</time>
      </trkpt>
      <trkpt lat="42.205543" lon="2.175589">
        <ele>707</ele>
        <time>1970-01-01T03:46:06.000Z</time>
      </trkpt>
      <trkpt lat="42.205591" lon="2.17548">
        <ele>707</ele>
        <time>1970-01-01T03:46:07.000Z</time>
      </trkpt>
      <trkpt lat="42.205613" lon="2.17543">
        <ele>707</ele>
        <time>1970-01-01T03:46:08.000Z</time>
      </trkpt>
      <trkpt lat="42.205636" lon="2.175381">
        <ele>707</ele>
        <time>1970-01-01T03:46:09.000Z</time>
      </trkpt>
      <trkpt lat="42.205658" lon="2.175331">
        <ele>707</ele>
        <time>1970-01-01T03:46:10.000Z</time>
      </trkpt>
      <trkpt lat="42.205681" lon="2.175282">
        <ele>707</ele>
        <time>1970-01-01T03:46:11.000Z</time>
      </trkpt>
      <trkpt lat="42.205704" lon="2.175232">
        <ele>707</ele>
        <time>1970-01-01T03:46:12.000Z</time>
      </trkpt>
      <trkpt lat="42.205726" lon="2.175183">
        <ele>707</ele>
        <time>1970-01-01T03:46:13.000Z</time>
      </trkpt>
      <trkpt lat="42.205749" lon="2.175133">
        <ele>707</ele>
        <time>1970-01-01T03:46:14.000Z</time>
      </trkpt>
      <trkpt lat="42.205771" lon="2.175084">
        <ele>707</ele>
        <time>1970-01-01T03:46:15.000Z</time>
      </trkpt>
      <trkpt lat="42.205794" lon="2.175034">
        <ele>710</ele>
        <time>1970-01-01T03:46:16.000Z</time>
      </trkpt>
      <trkpt lat="42.205843" lon="2.174921">
        <ele>710</ele>
        <time>1970-01-01T03:46:17.000Z</time>
      </trkpt>
      <trkpt lat="42.205867" lon="2.174866">
        <ele>710</ele>
        <time>1970-01-01T03:46:18.000Z</time>
      </trkpt>
      <trkpt lat="42.20589" lon="2.174811">
        <ele>710</ele>
        <time>1970-01-01T03:46:19.000Z</time>
      </trkpt>
      <trkpt lat="42.205914" lon="2.174756">
        <ele>710</ele>
        <time>1970-01-01T03:46:20.000Z</time>
      </trkpt>
      <trkpt lat="42.205938" lon="2.174701">
        <ele>710</ele>
        <time>1970-01-01T03:46:21.000Z</time>
      </trkpt>
      <trkpt lat="42.205962" lon="2.174645">
        <ele>710</ele>
        <time>1970-01-01T03:46:22.000Z</time>
      </trkpt>
      <trkpt lat="42.205986" lon="2.17459">
        <ele>710</ele>
        <time>1970-01-01T03:46:23.000Z</time>
      </trkpt>
      <trkpt lat="42.206009" lon="2.174535">
        <ele>710</ele>
        <time>1970-01-01T03:46:24.000Z</time>
      </trkpt>
      <trkpt lat="42.206033" lon="2.17448">
        <ele>710</ele>
        <time>1970-01-01T03:46:25.000Z</time>
      </trkpt>
      <trkpt lat="42.206057" lon="2.174425">
        <ele>710</ele>
        <time>1970-01-01T03:46:26.000Z</time>
      </trkpt>
      <trkpt lat="42.20611" lon="2.174299">
        <ele>710</ele>
        <time>1970-01-01T03:46:27.000Z</time>
      </trkpt>
      <trkpt lat="42.206135" lon="2.174239">
        <ele>710</ele>
        <time>1970-01-01T03:46:28.000Z</time>
      </trkpt>
      <trkpt lat="42.206161" lon="2.174179">
        <ele>710</ele>
        <time>1970-01-01T03:46:29.000Z</time>
      </trkpt>
      <trkpt lat="42.206186" lon="2.174119">
        <ele>710</ele>
        <time>1970-01-01T03:46:30.000Z</time>
      </trkpt>
      <trkpt lat="42.206212" lon="2.174059">
        <ele>710</ele>
        <time>1970-01-01T03:46:31.000Z</time>
      </trkpt>
      <trkpt lat="42.206237" lon="2.173999">
        <ele>710</ele>
        <time>1970-01-01T03:46:32.000Z</time>
      </trkpt>
      <trkpt lat="42.206263" lon="2.173939">
        <ele>710</ele>
        <time>1970-01-01T03:46:33.000Z</time>
      </trkpt>
      <trkpt lat="42.206288" lon="2.173879">
        <ele>710</ele>
        <time>1970-01-01T03:46:34.000Z</time>
      </trkpt>
      <trkpt lat="42.206314" lon="2.173819">
        <ele>710</ele>
        <time>1970-01-01T03:46:35.000Z</time>
      </trkpt>
      <trkpt lat="42.206339" lon="2.173759">
        <ele>710</ele>
        <time>1970-01-01T03:46:36.000Z</time>
      </trkpt>
      <trkpt lat="42.206395" lon="2.173628">
        <ele>710</ele>
        <time>1970-01-01T03:46:37.000Z</time>
      </trkpt>
      <trkpt lat="42.206422" lon="2.173564">
        <ele>710</ele>
        <time>1970-01-01T03:46:38.000Z</time>
      </trkpt>
      <trkpt lat="42.206449" lon="2.173501">
        <ele>710</ele>
        <time>1970-01-01T03:46:39.000Z</time>
      </trkpt>
      <trkpt lat="42.206476" lon="2.173437">
        <ele>710</ele>
        <time>1970-01-01T03:46:40.000Z</time>
      </trkpt>
      <trkpt lat="42.206503" lon="2.173374">
        <ele>710</ele>
        <time>1970-01-01T03:46:41.000Z</time>
      </trkpt>
      <trkpt lat="42.20653" lon="2.173311">
        <ele>710</ele>
        <time>1970-01-01T03:46:42.000Z</time>
      </trkpt>
      <trkpt lat="42.206557" lon="2.173247">
        <ele>710</ele>
        <time>1970-01-01T03:46:43.000Z</time>
      </trkpt>
      <trkpt lat="42.206584" lon="2.173184">
        <ele>710</ele>
        <time>1970-01-01T03:46:44.000Z</time>
      </trkpt>
      <trkpt lat="42.206611" lon="2.17312">
        <ele>710</ele>
        <time>1970-01-01T03:46:45.000Z</time>
      </trkpt>
      <trkpt lat="42.206638" lon="2.173057">
        <ele>710</ele>
        <time>1970-01-01T03:46:46.000Z</time>
      </trkpt>
      <trkpt lat="42.206697" lon="2.172921">
        <ele>710</ele>
        <time>1970-01-01T03:46:47.000Z</time>
      </trkpt>
      <trkpt lat="42.206727" lon="2.172857">
        <ele>710</ele>
        <time>1970-01-01T03:46:48.000Z</time>
      </trkpt>
      <trkpt lat="42.206756" lon="2.172792">
        <ele>710</ele>
        <time>1970-01-01T03:46:49.000Z</time>
      </trkpt>
      <trkpt lat="42.206785" lon="2.172728">
        <ele>710</ele>
        <time>1970-01-01T03:46:50.000Z</time>
      </trkpt>
      <trkpt lat="42.206815" lon="2.172663">
        <ele>710</ele>
        <time>1970-01-01T03:46:51.000Z</time>
      </trkpt>
      <trkpt lat="42.206844" lon="2.172598">
        <ele>710</ele>
        <time>1970-01-01T03:46:52.000Z</time>
      </trkpt>
      <trkpt lat="42.206873" lon="2.172534">
        <ele>710</ele>
        <time>1970-01-01T03:46:53.000Z</time>
      </trkpt>
      <trkpt lat="42.206902" lon="2.172469">
        <ele>710</ele>
        <time>1970-01-01T03:46:54.000Z</time>
      </trkpt>
      <trkpt lat="42.206932" lon="2.172405">
        <ele>710</ele>
        <time>1970-01-01T03:46:55.000Z</time>
      </trkpt>
      <trkpt lat="42.206961" lon="2.17234">
        <ele>710</ele>
        <time>1970-01-01T03:46:56.000Z</time>
      </trkpt>
      <trkpt lat="42.207037" lon="2.172222">
        <ele>710</ele>
        <time>1970-01-01T03:46:57.000Z</time>
      </trkpt>
      <trkpt lat="42.207077" lon="2.172172">
        <ele>710</ele>
        <time>1970-01-01T03:46:58.000Z</time>
      </trkpt>
      <trkpt lat="42.207117" lon="2.172122">
        <ele>710</ele>
        <time>1970-01-01T03:46:59.000Z</time>
      </trkpt>
      <trkpt lat="42.207157" lon="2.172072">
        <ele>710</ele>
        <time>1970-01-01T03:47:00.000Z</time>
      </trkpt>
      <trkpt lat="42.207197" lon="2.172023">
        <ele>710</ele>
        <time>1970-01-01T03:47:01.000Z</time>
      </trkpt>
      <trkpt lat="42.207237" lon="2.171973">
        <ele>710</ele>
        <time>1970-01-01T03:47:02.000Z</time>
      </trkpt>
      <trkpt lat="42.207277" lon="2.171923">
        <ele>710</ele>
        <time>1970-01-01T03:47:03.000Z</time>
      </trkpt>
      <trkpt lat="42.207317" lon="2.171873">
        <ele>710</ele>
        <time>1970-01-01T03:47:04.000Z</time>
      </trkpt>
      <trkpt lat="42.207357" lon="2.171823">
        <ele>710</ele>
        <time>1970-01-01T03:47:05.000Z</time>
      </trkpt>
      <trkpt lat="42.207397" lon="2.171773">
        <ele>710</ele>
        <time>1970-01-01T03:47:06.000Z</time>
      </trkpt>
      <trkpt lat="42.207492" lon="2.171694">
        <ele>710</ele>
        <time>1970-01-01T03:47:07.000Z</time>
      </trkpt>
      <trkpt lat="42.207537" lon="2.17166">
        <ele>710</ele>
        <time>1970-01-01T03:47:08.000Z</time>
      </trkpt>
      <trkpt lat="42.207581" lon="2.171625">
        <ele>710</ele>
        <time>1970-01-01T03:47:09.000Z</time>
      </trkpt>
      <trkpt lat="42.207626" lon="2.171591">
        <ele>710</ele>
        <time>1970-01-01T03:47:10.000Z</time>
      </trkpt>
      <trkpt lat="42.207671" lon="2.171557">
        <ele>710</ele>
        <time>1970-01-01T03:47:11.000Z</time>
      </trkpt>
      <trkpt lat="42.207716" lon="2.171523">
        <ele>710</ele>
        <time>1970-01-01T03:47:12.000Z</time>
      </trkpt>
      <trkpt lat="42.207761" lon="2.171489">
        <ele>710</ele>
        <time>1970-01-01T03:47:13.000Z</time>
      </trkpt>
      <trkpt lat="42.207805" lon="2.171454">
        <ele>710</ele>
        <time>1970-01-01T03:47:14.000Z</time>
      </trkpt>
      <trkpt lat="42.20785" lon="2.17142">
        <ele>710</ele>
        <time>1970-01-01T03:47:15.000Z</time>
      </trkpt>
      <trkpt lat="42.207895" lon="2.171386">
        <ele>711</ele>
        <time>1970-01-01T03:47:16.000Z</time>
      </trkpt>
      <trkpt lat="42.207986" lon="2.171319">
        <ele>711</ele>
        <time>1970-01-01T03:47:17.000Z</time>
      </trkpt>
      <trkpt lat="42.208029" lon="2.171288">
        <ele>711</ele>
        <time>1970-01-01T03:47:18.000Z</time>
      </trkpt>
      <trkpt lat="42.208072" lon="2.171256">
        <ele>711</ele>
        <time>1970-01-01T03:47:19.000Z</time>
      </trkpt>
      <trkpt lat="42.208115" lon="2.171224">
        <ele>711</ele>
        <time>1970-01-01T03:47:20.000Z</time>
      </trkpt>
      <trkpt lat="42.208158" lon="2.171193">
        <ele>711</ele>
        <time>1970-01-01T03:47:21.000Z</time>
      </trkpt>
      <trkpt lat="42.208201" lon="2.171161">
        <ele>711</ele>
        <time>1970-01-01T03:47:22.000Z</time>
      </trkpt>
      <trkpt lat="42.208244" lon="2.171129">
        <ele>711</ele>
        <time>1970-01-01T03:47:23.000Z</time>
      </trkpt>
      <trkpt lat="42.208287" lon="2.171097">
        <ele>711</ele>
        <time>1970-01-01T03:47:24.000Z</time>
      </trkpt>
      <trkpt lat="42.20833" lon="2.171066">
        <ele>711</ele>
        <time>1970-01-01T03:47:25.000Z</time>
      </trkpt>
      <trkpt lat="42.208373" lon="2.171034">
        <ele>712</ele>
        <time>1970-01-01T03:47:26.000Z</time>
      </trkpt>
      <trkpt lat="42.208457" lon="2.170974">
        <ele>712</ele>
        <time>1970-01-01T03:47:27.000Z</time>
      </trkpt>
      <trkpt lat="42.208493" lon="2.170949">
        <ele>712</ele>
        <time>1970-01-01T03:47:28.000Z</time>
      </trkpt>
      <trkpt lat="42.20853" lon="2.170924">
        <ele>712</ele>
        <time>1970-01-01T03:47:29.000Z</time>
      </trkpt>
      <trkpt lat="42.208566" lon="2.170899">
        <ele>712</ele>
        <time>1970-01-01T03:47:30.000Z</time>
      </trkpt>
      <trkpt lat="42.208602" lon="2.170874">
        <ele>712</ele>
        <time>1970-01-01T03:47:31.000Z</time>
      </trkpt>
      <trkpt lat="42.208638" lon="2.170848">
        <ele>712</ele>
        <time>1970-01-01T03:47:32.000Z</time>
      </trkpt>
      <trkpt lat="42.208674" lon="2.170823">
        <ele>712</ele>
        <time>1970-01-01T03:47:33.000Z</time>
      </trkpt>
      <trkpt lat="42.208711" lon="2.170798">
        <ele>712</ele>
        <time>1970-01-01T03:47:34.000Z</time>
      </trkpt>
      <trkpt lat="42.208747" lon="2.170773">
        <ele>712</ele>
        <time>1970-01-01T03:47:35.000Z</time>
      </trkpt>
      <trkpt lat="42.208783" lon="2.170748">
        <ele>713</ele>
        <time>1970-01-01T03:47:36.000Z</time>
      </trkpt>
      <trkpt lat="42.208865" lon="2.170693">
        <ele>713</ele>
        <time>1970-01-01T03:47:37.000Z</time>
      </trkpt>
      <trkpt lat="42.208905" lon="2.170664">
        <ele>713</ele>
        <time>1970-01-01T03:47:38.000Z</time>
      </trkpt>
      <trkpt lat="42.208945" lon="2.170636">
        <ele>713</ele>
        <time>1970-01-01T03:47:39.000Z</time>
      </trkpt>
      <trkpt lat="42.208985" lon="2.170607">
        <ele>713</ele>
        <time>1970-01-01T03:47:40.000Z</time>
      </trkpt>
      <trkpt lat="42.209025" lon="2.170579">
        <ele>713</ele>
        <time>1970-01-01T03:47:41.000Z</time>
      </trkpt>
      <trkpt lat="42.209064" lon="2.170551">
        <ele>713</ele>
        <time>1970-01-01T03:47:42.000Z</time>
      </trkpt>
      <trkpt lat="42.209104" lon="2.170522">
        <ele>713</ele>
        <time>1970-01-01T03:47:43.000Z</time>
      </trkpt>
      <trkpt lat="42.209144" lon="2.170494">
        <ele>713</ele>
        <time>1970-01-01T03:47:44.000Z</time>
      </trkpt>
      <trkpt lat="42.209184" lon="2.170465">
        <ele>713</ele>
        <time>1970-01-01T03:47:45.000Z</time>
      </trkpt>
      <trkpt lat="42.209224" lon="2.170437">
        <ele>714</ele>
        <time>1970-01-01T03:47:46.000Z</time>
      </trkpt>
      <trkpt lat="42.20931" lon="2.170374">
        <ele>714</ele>
        <time>1970-01-01T03:47:47.000Z</time>
      </trkpt>
      <trkpt lat="42.209352" lon="2.170346">
        <ele>714</ele>
        <time>1970-01-01T03:47:48.000Z</time>
      </trkpt>
      <trkpt lat="42.209393" lon="2.170319">
        <ele>714</ele>
        <time>1970-01-01T03:47:49.000Z</time>
      </trkpt>
      <trkpt lat="42.209435" lon="2.170291">
        <ele>714</ele>
        <time>1970-01-01T03:47:50.000Z</time>
      </trkpt>
      <trkpt lat="42.209476" lon="2.170263">
        <ele>714</ele>
        <time>1970-01-01T03:47:51.000Z</time>
      </trkpt>
      <trkpt lat="42.209517" lon="2.170235">
        <ele>714</ele>
        <time>1970-01-01T03:47:52.000Z</time>
      </trkpt>
      <trkpt lat="42.209559" lon="2.170207">
        <ele>714</ele>
        <time>1970-01-01T03:47:53.000Z</time>
      </trkpt>
      <trkpt lat="42.2096" lon="2.17018">
        <ele>714</ele>
        <time>1970-01-01T03:47:54.000Z</time>
      </trkpt>
      <trkpt lat="42.209642" lon="2.170152">
        <ele>714</ele>
        <time>1970-01-01T03:47:55.000Z</time>
      </trkpt>
      <trkpt lat="42.209683" lon="2.170124">
        <ele>716</ele>
        <time>1970-01-01T03:47:56.000Z</time>
      </trkpt>
      <trkpt lat="42.209776" lon="2.170083">
        <ele>716</ele>
        <time>1970-01-01T03:47:57.000Z</time>
      </trkpt>
      <trkpt lat="42.209821" lon="2.170068">
        <ele>716</ele>
        <time>1970-01-01T03:47:58.000Z</time>
      </trkpt>
      <trkpt lat="42.209867" lon="2.170052">
        <ele>716</ele>
        <time>1970-01-01T03:47:59.000Z</time>
      </trkpt>
      <trkpt lat="42.209912" lon="2.170037">
        <ele>716</ele>
        <time>1970-01-01T03:48:00.000Z</time>
      </trkpt>
      <trkpt lat="42.209957" lon="2.170021">
        <ele>716</ele>
        <time>1970-01-01T03:48:01.000Z</time>
      </trkpt>
      <trkpt lat="42.210002" lon="2.170005">
        <ele>716</ele>
        <time>1970-01-01T03:48:02.000Z</time>
      </trkpt>
      <trkpt lat="42.210047" lon="2.16999">
        <ele>716</ele>
        <time>1970-01-01T03:48:03.000Z</time>
      </trkpt>
      <trkpt lat="42.210093" lon="2.169974">
        <ele>716</ele>
        <time>1970-01-01T03:48:04.000Z</time>
      </trkpt>
      <trkpt lat="42.210138" lon="2.169959">
        <ele>716</ele>
        <time>1970-01-01T03:48:05.000Z</time>
      </trkpt>
      <trkpt lat="42.210183" lon="2.169943">
        <ele>715</ele>
        <time>1970-01-01T03:48:06.000Z</time>
      </trkpt>
      <trkpt lat="42.21028" lon="2.169917">
        <ele>715</ele>
        <time>1970-01-01T03:48:07.000Z</time>
      </trkpt>
      <trkpt lat="42.210327" lon="2.169905">
        <ele>715</ele>
        <time>1970-01-01T03:48:08.000Z</time>
      </trkpt>
      <trkpt lat="42.210373" lon="2.169893">
        <ele>715</ele>
        <time>1970-01-01T03:48:09.000Z</time>
      </trkpt>
      <trkpt lat="42.21042" lon="2.169881">
        <ele>715</ele>
        <time>1970-01-01T03:48:10.000Z</time>
      </trkpt>
      <trkpt lat="42.210466" lon="2.169869">
        <ele>715</ele>
        <time>1970-01-01T03:48:11.000Z</time>
      </trkpt>
      <trkpt lat="42.210512" lon="2.169857">
        <ele>715</ele>
        <time>1970-01-01T03:48:12.000Z</time>
      </trkpt>
      <trkpt lat="42.210559" lon="2.169845">
        <ele>715</ele>
        <time>1970-01-01T03:48:13.000Z</time>
      </trkpt>
      <trkpt lat="42.210605" lon="2.169833">
        <ele>715</ele>
        <time>1970-01-01T03:48:14.000Z</time>
      </trkpt>
      <trkpt lat="42.210652" lon="2.169821">
        <ele>715</ele>
        <time>1970-01-01T03:48:15.000Z</time>
      </trkpt>
      <trkpt lat="42.210698" lon="2.169809">
        <ele>718</ele>
        <time>1970-01-01T03:48:16.000Z</time>
      </trkpt>
      <trkpt lat="42.210791" lon="2.169785">
        <ele>718</ele>
        <time>1970-01-01T03:48:17.000Z</time>
      </trkpt>
      <trkpt lat="42.210836" lon="2.169775">
        <ele>718</ele>
        <time>1970-01-01T03:48:18.000Z</time>
      </trkpt>
      <trkpt lat="42.21088" lon="2.169764">
        <ele>718</ele>
        <time>1970-01-01T03:48:19.000Z</time>
      </trkpt>
      <trkpt lat="42.210925" lon="2.169753">
        <ele>718</ele>
        <time>1970-01-01T03:48:20.000Z</time>
      </trkpt>
      <trkpt lat="42.210969" lon="2.169743">
        <ele>718</ele>
        <time>1970-01-01T03:48:21.000Z</time>
      </trkpt>
      <trkpt lat="42.211013" lon="2.169732">
        <ele>718</ele>
        <time>1970-01-01T03:48:22.000Z</time>
      </trkpt>
      <trkpt lat="42.211058" lon="2.169721">
        <ele>718</ele>
        <time>1970-01-01T03:48:23.000Z</time>
      </trkpt>
      <trkpt lat="42.211102" lon="2.16971">
        <ele>718</ele>
        <time>1970-01-01T03:48:24.000Z</time>
      </trkpt>
      <trkpt lat="42.211147" lon="2.1697">
        <ele>718</ele>
        <time>1970-01-01T03:48:25.000Z</time>
      </trkpt>
      <trkpt lat="42.211191" lon="2.169689">
        <ele>718</ele>
        <time>1970-01-01T03:48:26.000Z</time>
      </trkpt>
      <trkpt lat="42.211288" lon="2.169665">
        <ele>718</ele>
        <time>1970-01-01T03:48:27.000Z</time>
      </trkpt>
      <trkpt lat="42.211334" lon="2.169653">
        <ele>718</ele>
        <time>1970-01-01T03:48:28.000Z</time>
      </trkpt>
      <trkpt lat="42.211381" lon="2.169642">
        <ele>718</ele>
        <time>1970-01-01T03:48:29.000Z</time>
      </trkpt>
      <trkpt lat="42.211427" lon="2.16963">
        <ele>718</ele>
        <time>1970-01-01T03:48:30.000Z</time>
      </trkpt>
      <trkpt lat="42.211474" lon="2.169619">
        <ele>718</ele>
        <time>1970-01-01T03:48:31.000Z</time>
      </trkpt>
      <trkpt lat="42.211521" lon="2.169608">
        <ele>718</ele>
        <time>1970-01-01T03:48:32.000Z</time>
      </trkpt>
      <trkpt lat="42.211567" lon="2.169596">
        <ele>718</ele>
        <time>1970-01-01T03:48:33.000Z</time>
      </trkpt>
      <trkpt lat="42.211614" lon="2.169585">
        <ele>718</ele>
        <time>1970-01-01T03:48:34.000Z</time>
      </trkpt>
      <trkpt lat="42.21166" lon="2.169573">
        <ele>718</ele>
        <time>1970-01-01T03:48:35.000Z</time>
      </trkpt>
      <trkpt lat="42.211707" lon="2.169562">
        <ele>719</ele>
        <time>1970-01-01T03:48:36.000Z</time>
      </trkpt>
      <trkpt lat="42.211808" lon="2.169538">
        <ele>719</ele>
        <time>1970-01-01T03:48:37.000Z</time>
      </trkpt>
      <trkpt lat="42.211857" lon="2.169527">
        <ele>719</ele>
        <time>1970-01-01T03:48:38.000Z</time>
      </trkpt>
      <trkpt lat="42.211906" lon="2.169515">
        <ele>719</ele>
        <time>1970-01-01T03:48:39.000Z</time>
      </trkpt>
      <trkpt lat="42.211955" lon="2.169503">
        <ele>719</ele>
        <time>1970-01-01T03:48:40.000Z</time>
      </trkpt>
      <trkpt lat="42.212004" lon="2.169492">
        <ele>719</ele>
        <time>1970-01-01T03:48:41.000Z</time>
      </trkpt>
      <trkpt lat="42.212052" lon="2.16948">
        <ele>719</ele>
        <time>1970-01-01T03:48:42.000Z</time>
      </trkpt>
      <trkpt lat="42.212101" lon="2.169468">
        <ele>719</ele>
        <time>1970-01-01T03:48:43.000Z</time>
      </trkpt>
      <trkpt lat="42.21215" lon="2.169456">
        <ele>719</ele>
        <time>1970-01-01T03:48:44.000Z</time>
      </trkpt>
      <trkpt lat="42.212199" lon="2.169445">
        <ele>719</ele>
        <time>1970-01-01T03:48:45.000Z</time>
      </trkpt>
      <trkpt lat="42.212248" lon="2.169433">
        <ele>720</ele>
        <time>1970-01-01T03:48:46.000Z</time>
      </trkpt>
      <trkpt lat="42.212357" lon="2.169405">
        <ele>720</ele>
        <time>1970-01-01T03:48:47.000Z</time>
      </trkpt>
      <trkpt lat="42.21241" lon="2.169392">
        <ele>720</ele>
        <time>1970-01-01T03:48:48.000Z</time>
      </trkpt>
      <trkpt lat="42.212462" lon="2.169378">
        <ele>720</ele>
        <time>1970-01-01T03:48:49.000Z</time>
      </trkpt>
      <trkpt lat="42.212515" lon="2.169365">
        <ele>720</ele>
        <time>1970-01-01T03:48:50.000Z</time>
      </trkpt>
      <trkpt lat="42.212568" lon="2.169352">
        <ele>720</ele>
        <time>1970-01-01T03:48:51.000Z</time>
      </trkpt>
      <trkpt lat="42.212621" lon="2.169339">
        <ele>720</ele>
        <time>1970-01-01T03:48:52.000Z</time>
      </trkpt>
      <trkpt lat="42.212674" lon="2.169326">
        <ele>720</ele>
        <time>1970-01-01T03:48:53.000Z</time>
      </trkpt>
      <trkpt lat="42.212726" lon="2.169312">
        <ele>720</ele>
        <time>1970-01-01T03:48:54.000Z</time>
      </trkpt>
      <trkpt lat="42.212779" lon="2.169299">
        <ele>720</ele>
        <time>1970-01-01T03:48:55.000Z</time>
      </trkpt>
      <trkpt lat="42.212832" lon="2.169286">
        <ele>721</ele>
        <time>1970-01-01T03:48:56.000Z</time>
      </trkpt>
      <trkpt lat="42.212946" lon="2.169256">
        <ele>721</ele>
        <time>1970-01-01T03:48:57.000Z</time>
      </trkpt>
      <trkpt lat="42.213" lon="2.169243">
        <ele>721</ele>
        <time>1970-01-01T03:48:58.000Z</time>
      </trkpt>
      <trkpt lat="42.213055" lon="2.169229">
        <ele>721</ele>
        <time>1970-01-01T03:48:59.000Z</time>
      </trkpt>
      <trkpt lat="42.213109" lon="2.169216">
        <ele>721</ele>
        <time>1970-01-01T03:49:00.000Z</time>
      </trkpt>
      <trkpt lat="42.213163" lon="2.169202">
        <ele>721</ele>
        <time>1970-01-01T03:49:01.000Z</time>
      </trkpt>
      <trkpt lat="42.213217" lon="2.169188">
        <ele>721</ele>
        <time>1970-01-01T03:49:02.000Z</time>
      </trkpt>
      <trkpt lat="42.213271" lon="2.169175">
        <ele>721</ele>
        <time>1970-01-01T03:49:03.000Z</time>
      </trkpt>
      <trkpt lat="42.213326" lon="2.169161">
        <ele>721</ele>
        <time>1970-01-01T03:49:04.000Z</time>
      </trkpt>
      <trkpt lat="42.21338" lon="2.169148">
        <ele>721</ele>
        <time>1970-01-01T03:49:05.000Z</time>
      </trkpt>
      <trkpt lat="42.213434" lon="2.169134">
        <ele>721</ele>
        <time>1970-01-01T03:49:06.000Z</time>
      </trkpt>
      <trkpt lat="42.21354" lon="2.169109">
        <ele>721</ele>
        <time>1970-01-01T03:49:07.000Z</time>
      </trkpt>
      <trkpt lat="42.213592" lon="2.169096">
        <ele>721</ele>
        <time>1970-01-01T03:49:08.000Z</time>
      </trkpt>
      <trkpt lat="42.213644" lon="2.169084">
        <ele>721</ele>
        <time>1970-01-01T03:49:09.000Z</time>
      </trkpt>
      <trkpt lat="42.213696" lon="2.169071">
        <ele>721</ele>
        <time>1970-01-01T03:49:10.000Z</time>
      </trkpt>
      <trkpt lat="42.213748" lon="2.169059">
        <ele>721</ele>
        <time>1970-01-01T03:49:11.000Z</time>
      </trkpt>
      <trkpt lat="42.213799" lon="2.169046">
        <ele>721</ele>
        <time>1970-01-01T03:49:12.000Z</time>
      </trkpt>
      <trkpt lat="42.213851" lon="2.169034">
        <ele>721</ele>
        <time>1970-01-01T03:49:13.000Z</time>
      </trkpt>
      <trkpt lat="42.213903" lon="2.169021">
        <ele>721</ele>
        <time>1970-01-01T03:49:14.000Z</time>
      </trkpt>
      <trkpt lat="42.213955" lon="2.169009">
        <ele>721</ele>
        <time>1970-01-01T03:49:15.000Z</time>
      </trkpt>
      <trkpt lat="42.214007" lon="2.168996">
        <ele>721</ele>
        <time>1970-01-01T03:49:16.000Z</time>
      </trkpt>
      <trkpt lat="42.214121" lon="2.168968">
        <ele>721</ele>
        <time>1970-01-01T03:49:17.000Z</time>
      </trkpt>
      <trkpt lat="42.214177" lon="2.168954">
        <ele>721</ele>
        <time>1970-01-01T03:49:18.000Z</time>
      </trkpt>
      <trkpt lat="42.214232" lon="2.168941">
        <ele>721</ele>
        <time>1970-01-01T03:49:19.000Z</time>
      </trkpt>
      <trkpt lat="42.214288" lon="2.168927">
        <ele>721</ele>
        <time>1970-01-01T03:49:20.000Z</time>
      </trkpt>
      <trkpt lat="42.214343" lon="2.168913">
        <ele>721</ele>
        <time>1970-01-01T03:49:21.000Z</time>
      </trkpt>
      <trkpt lat="42.214398" lon="2.168899">
        <ele>721</ele>
        <time>1970-01-01T03:49:22.000Z</time>
      </trkpt>
      <trkpt lat="42.214454" lon="2.168885">
        <ele>721</ele>
        <time>1970-01-01T03:49:23.000Z</time>
      </trkpt>
      <trkpt lat="42.214509" lon="2.168872">
        <ele>721</ele>
        <time>1970-01-01T03:49:24.000Z</time>
      </trkpt>
      <trkpt lat="42.214565" lon="2.168858">
        <ele>721</ele>
        <time>1970-01-01T03:49:25.000Z</time>
      </trkpt>
      <trkpt lat="42.21462" lon="2.168844">
        <ele>721</ele>
        <time>1970-01-01T03:49:26.000Z</time>
      </trkpt>
      <trkpt lat="42.214743" lon="2.168813">
        <ele>721</ele>
        <time>1970-01-01T03:49:27.000Z</time>
      </trkpt>
      <trkpt lat="42.214802" lon="2.168799">
        <ele>721</ele>
        <time>1970-01-01T03:49:28.000Z</time>
      </trkpt>
      <trkpt lat="42.214861" lon="2.168784">
        <ele>721</ele>
        <time>1970-01-01T03:49:29.000Z</time>
      </trkpt>
      <trkpt lat="42.21492" lon="2.16877">
        <ele>721</ele>
        <time>1970-01-01T03:49:30.000Z</time>
      </trkpt>
      <trkpt lat="42.214979" lon="2.168755">
        <ele>721</ele>
        <time>1970-01-01T03:49:31.000Z</time>
      </trkpt>
      <trkpt lat="42.215038" lon="2.16874">
        <ele>721</ele>
        <time>1970-01-01T03:49:32.000Z</time>
      </trkpt>
      <trkpt lat="42.215097" lon="2.168726">
        <ele>721</ele>
        <time>1970-01-01T03:49:33.000Z</time>
      </trkpt>
      <trkpt lat="42.215156" lon="2.168711">
        <ele>721</ele>
        <time>1970-01-01T03:49:34.000Z</time>
      </trkpt>
      <trkpt lat="42.215215" lon="2.168697">
        <ele>721</ele>
        <time>1970-01-01T03:49:35.000Z</time>
      </trkpt>
      <trkpt lat="42.215274" lon="2.168682">
        <ele>720</ele>
        <time>1970-01-01T03:49:36.000Z</time>
      </trkpt>
      <trkpt lat="42.215399" lon="2.168664">
        <ele>720</ele>
        <time>1970-01-01T03:49:37.000Z</time>
      </trkpt>
      <trkpt lat="42.215459" lon="2.168662">
        <ele>720</ele>
        <time>1970-01-01T03:49:38.000Z</time>
      </trkpt>
      <trkpt lat="42.215519" lon="2.168659">
        <ele>720</ele>
        <time>1970-01-01T03:49:39.000Z</time>
      </trkpt>
      <trkpt lat="42.215579" lon="2.168657">
        <ele>720</ele>
        <time>1970-01-01T03:49:40.000Z</time>
      </trkpt>
      <trkpt lat="42.215639" lon="2.168654">
        <ele>720</ele>
        <time>1970-01-01T03:49:41.000Z</time>
      </trkpt>
      <trkpt lat="42.215699" lon="2.168651">
        <ele>720</ele>
        <time>1970-01-01T03:49:42.000Z</time>
      </trkpt>
      <trkpt lat="42.215759" lon="2.168649">
        <ele>720</ele>
        <time>1970-01-01T03:49:43.000Z</time>
      </trkpt>
      <trkpt lat="42.215819" lon="2.168646">
        <ele>720</ele>
        <time>1970-01-01T03:49:44.000Z</time>
      </trkpt>
      <trkpt lat="42.215879" lon="2.168644">
        <ele>720</ele>
        <time>1970-01-01T03:49:45.000Z</time>
      </trkpt>
      <trkpt lat="42.215939" lon="2.168641">
        <ele>721</ele>
        <time>1970-01-01T03:49:46.000Z</time>
      </trkpt>
      <trkpt lat="42.216061" lon="2.168664">
        <ele>721</ele>
        <time>1970-01-01T03:49:47.000Z</time>
      </trkpt>
      <trkpt lat="42.216118" lon="2.168679">
        <ele>721</ele>
        <time>1970-01-01T03:49:48.000Z</time>
      </trkpt>
      <trkpt lat="42.216174" lon="2.168694">
        <ele>721</ele>
        <time>1970-01-01T03:49:49.000Z</time>
      </trkpt>
      <trkpt lat="42.21623" lon="2.168709">
        <ele>721</ele>
        <time>1970-01-01T03:49:50.000Z</time>
      </trkpt>
      <trkpt lat="42.216287" lon="2.168723">
        <ele>721</ele>
        <time>1970-01-01T03:49:51.000Z</time>
      </trkpt>
      <trkpt lat="42.216343" lon="2.168738">
        <ele>721</ele>
        <time>1970-01-01T03:49:52.000Z</time>
      </trkpt>
      <trkpt lat="42.216399" lon="2.168753">
        <ele>721</ele>
        <time>1970-01-01T03:49:53.000Z</time>
      </trkpt>
      <trkpt lat="42.216455" lon="2.168768">
        <ele>721</ele>
        <time>1970-01-01T03:49:54.000Z</time>
      </trkpt>
      <trkpt lat="42.216512" lon="2.168783">
        <ele>721</ele>
        <time>1970-01-01T03:49:55.000Z</time>
      </trkpt>
      <trkpt lat="42.216568" lon="2.168798">
        <ele>722</ele>
        <time>1970-01-01T03:49:56.000Z</time>
      </trkpt>
      <trkpt lat="42.216685" lon="2.168834">
        <ele>722</ele>
        <time>1970-01-01T03:49:57.000Z</time>
      </trkpt>
      <trkpt lat="42.21674" lon="2.168851">
        <ele>722</ele>
        <time>1970-01-01T03:49:58.000Z</time>
      </trkpt>
      <trkpt lat="42.216794" lon="2.168868">
        <ele>722</ele>
        <time>1970-01-01T03:49:59.000Z</time>
      </trkpt>
      <trkpt lat="42.216849" lon="2.168885">
        <ele>722</ele>
        <time>1970-01-01T03:50:00.000Z</time>
      </trkpt>
      <trkpt lat="42.216904" lon="2.168901">
        <ele>722</ele>
        <time>1970-01-01T03:50:01.000Z</time>
      </trkpt>
      <trkpt lat="42.216959" lon="2.168918">
        <ele>722</ele>
        <time>1970-01-01T03:50:02.000Z</time>
      </trkpt>
      <trkpt lat="42.217014" lon="2.168935">
        <ele>722</ele>
        <time>1970-01-01T03:50:03.000Z</time>
      </trkpt>
      <trkpt lat="42.217068" lon="2.168952">
        <ele>722</ele>
        <time>1970-01-01T03:50:04.000Z</time>
      </trkpt>
      <trkpt lat="42.217123" lon="2.168969">
        <ele>722</ele>
        <time>1970-01-01T03:50:05.000Z</time>
      </trkpt>
      <trkpt lat="42.217178" lon="2.168986">
        <ele>722</ele>
        <time>1970-01-01T03:50:06.000Z</time>
      </trkpt>
      <trkpt lat="42.217286" lon="2.169019">
        <ele>722</ele>
        <time>1970-01-01T03:50:07.000Z</time>
      </trkpt>
      <trkpt lat="42.217336" lon="2.169034">
        <ele>722</ele>
        <time>1970-01-01T03:50:08.000Z</time>
      </trkpt>
      <trkpt lat="42.217385" lon="2.169049">
        <ele>722</ele>
        <time>1970-01-01T03:50:09.000Z</time>
      </trkpt>
      <trkpt lat="42.217434" lon="2.169064">
        <ele>722</ele>
        <time>1970-01-01T03:50:10.000Z</time>
      </trkpt>
      <trkpt lat="42.217484" lon="2.169078">
        <ele>722</ele>
        <time>1970-01-01T03:50:11.000Z</time>
      </trkpt>
      <trkpt lat="42.217533" lon="2.169093">
        <ele>722</ele>
        <time>1970-01-01T03:50:12.000Z</time>
      </trkpt>
      <trkpt lat="42.217582" lon="2.169108">
        <ele>722</ele>
        <time>1970-01-01T03:50:13.000Z</time>
      </trkpt>
      <trkpt lat="42.217631" lon="2.169123">
        <ele>722</ele>
        <time>1970-01-01T03:50:14.000Z</time>
      </trkpt>
      <trkpt lat="42.217681" lon="2.169138">
        <ele>722</ele>
        <time>1970-01-01T03:50:15.000Z</time>
      </trkpt>
      <trkpt lat="42.21773" lon="2.169153">
        <ele>723</ele>
        <time>1970-01-01T03:50:16.000Z</time>
      </trkpt>
      <trkpt lat="42.217827" lon="2.169184">
        <ele>723</ele>
        <time>1970-01-01T03:50:17.000Z</time>
      </trkpt>
      <trkpt lat="42.217871" lon="2.169197">
        <ele>723</ele>
        <time>1970-01-01T03:50:18.000Z</time>
      </trkpt>
      <trkpt lat="42.217916" lon="2.169211">
        <ele>723</ele>
        <time>1970-01-01T03:50:19.000Z</time>
      </trkpt>
      <trkpt lat="42.21796" lon="2.169225">
        <ele>723</ele>
        <time>1970-01-01T03:50:20.000Z</time>
      </trkpt>
      <trkpt lat="42.218004" lon="2.169238">
        <ele>723</ele>
        <time>1970-01-01T03:50:21.000Z</time>
      </trkpt>
      <trkpt lat="42.218048" lon="2.169252">
        <ele>723</ele>
        <time>1970-01-01T03:50:22.000Z</time>
      </trkpt>
      <trkpt lat="42.218092" lon="2.169266">
        <ele>723</ele>
        <time>1970-01-01T03:50:23.000Z</time>
      </trkpt>
      <trkpt lat="42.218137" lon="2.16928">
        <ele>723</ele>
        <time>1970-01-01T03:50:24.000Z</time>
      </trkpt>
      <trkpt lat="42.218181" lon="2.169293">
        <ele>723</ele>
        <time>1970-01-01T03:50:25.000Z</time>
      </trkpt>
      <trkpt lat="42.218225" lon="2.169307">
        <ele>724</ele>
        <time>1970-01-01T03:50:26.000Z</time>
      </trkpt>
      <trkpt lat="42.218323" lon="2.169337">
        <ele>724</ele>
        <time>1970-01-01T03:50:27.000Z</time>
      </trkpt>
      <trkpt lat="42.218368" lon="2.169351">
        <ele>724</ele>
        <time>1970-01-01T03:50:28.000Z</time>
      </trkpt>
      <trkpt lat="42.218414" lon="2.169365">
        <ele>724</ele>
        <time>1970-01-01T03:50:29.000Z</time>
      </trkpt>
      <trkpt lat="42.218459" lon="2.169379">
        <ele>724</ele>
        <time>1970-01-01T03:50:30.000Z</time>
      </trkpt>
      <trkpt lat="42.218505" lon="2.169392">
        <ele>724</ele>
        <time>1970-01-01T03:50:31.000Z</time>
      </trkpt>
      <trkpt lat="42.218551" lon="2.169406">
        <ele>724</ele>
        <time>1970-01-01T03:50:32.000Z</time>
      </trkpt>
      <trkpt lat="42.218596" lon="2.16942">
        <ele>724</ele>
        <time>1970-01-01T03:50:33.000Z</time>
      </trkpt>
      <trkpt lat="42.218642" lon="2.169434">
        <ele>724</ele>
        <time>1970-01-01T03:50:34.000Z</time>
      </trkpt>
      <trkpt lat="42.218687" lon="2.169448">
        <ele>724</ele>
        <time>1970-01-01T03:50:35.000Z</time>
      </trkpt>
      <trkpt lat="42.218733" lon="2.169462">
        <ele>724</ele>
        <time>1970-01-01T03:50:36.000Z</time>
      </trkpt>
      <trkpt lat="42.218823" lon="2.16949">
        <ele>724</ele>
        <time>1970-01-01T03:50:37.000Z</time>
      </trkpt>
      <trkpt lat="42.218865" lon="2.169503">
        <ele>724</ele>
        <time>1970-01-01T03:50:38.000Z</time>
      </trkpt>
      <trkpt lat="42.218907" lon="2.169515">
        <ele>724</ele>
        <time>1970-01-01T03:50:39.000Z</time>
      </trkpt>
      <trkpt lat="42.218949" lon="2.169528">
        <ele>724</ele>
        <time>1970-01-01T03:50:40.000Z</time>
      </trkpt>
      <trkpt lat="42.218991" lon="2.169541">
        <ele>724</ele>
        <time>1970-01-01T03:50:41.000Z</time>
      </trkpt>
      <trkpt lat="42.219033" lon="2.169554">
        <ele>724</ele>
        <time>1970-01-01T03:50:42.000Z</time>
      </trkpt>
      <trkpt lat="42.219075" lon="2.169567">
        <ele>724</ele>
        <time>1970-01-01T03:50:43.000Z</time>
      </trkpt>
      <trkpt lat="42.219117" lon="2.169579">
        <ele>724</ele>
        <time>1970-01-01T03:50:44.000Z</time>
      </trkpt>
      <trkpt lat="42.219159" lon="2.169592">
        <ele>724</ele>
        <time>1970-01-01T03:50:45.000Z</time>
      </trkpt>
      <trkpt lat="42.219201" lon="2.169605">
        <ele>726</ele>
        <time>1970-01-01T03:50:46.000Z</time>
      </trkpt>
      <trkpt lat="42.219285" lon="2.169636">
        <ele>726</ele>
        <time>1970-01-01T03:50:47.000Z</time>
      </trkpt>
      <trkpt lat="42.219323" lon="2.169652">
        <ele>726</ele>
        <time>1970-01-01T03:50:48.000Z</time>
      </trkpt>
      <trkpt lat="42.219362" lon="2.169667">
        <ele>726</ele>
        <time>1970-01-01T03:50:49.000Z</time>
      </trkpt>
      <trkpt lat="42.2194" lon="2.169683">
        <ele>726</ele>
        <time>1970-01-01T03:50:50.000Z</time>
      </trkpt>
      <trkpt lat="42.219438" lon="2.169698">
        <ele>726</ele>
        <time>1970-01-01T03:50:51.000Z</time>
      </trkpt>
      <trkpt lat="42.219476" lon="2.169714">
        <ele>726</ele>
        <time>1970-01-01T03:50:52.000Z</time>
      </trkpt>
      <trkpt lat="42.219514" lon="2.169729">
        <ele>726</ele>
        <time>1970-01-01T03:50:53.000Z</time>
      </trkpt>
      <trkpt lat="42.219553" lon="2.169745">
        <ele>726</ele>
        <time>1970-01-01T03:50:54.000Z</time>
      </trkpt>
      <trkpt lat="42.219591" lon="2.16976">
        <ele>726</ele>
        <time>1970-01-01T03:50:55.000Z</time>
      </trkpt>
      <trkpt lat="42.219629" lon="2.169776">
        <ele>729</ele>
        <time>1970-01-01T03:50:56.000Z</time>
      </trkpt>
      <trkpt lat="42.219702" lon="2.169809">
        <ele>729</ele>
        <time>1970-01-01T03:50:57.000Z</time>
      </trkpt>
      <trkpt lat="42.219737" lon="2.169826">
        <ele>729</ele>
        <time>1970-01-01T03:50:58.000Z</time>
      </trkpt>
      <trkpt lat="42.219771" lon="2.169842">
        <ele>729</ele>
        <time>1970-01-01T03:50:59.000Z</time>
      </trkpt>
      <trkpt lat="42.219806" lon="2.169859">
        <ele>729</ele>
        <time>1970-01-01T03:51:00.000Z</time>
      </trkpt>
      <trkpt lat="42.21984" lon="2.169875">
        <ele>729</ele>
        <time>1970-01-01T03:51:01.000Z</time>
      </trkpt>
      <trkpt lat="42.219874" lon="2.169892">
        <ele>729</ele>
        <time>1970-01-01T03:51:02.000Z</time>
      </trkpt>
      <trkpt lat="42.219909" lon="2.169908">
        <ele>729</ele>
        <time>1970-01-01T03:51:03.000Z</time>
      </trkpt>
      <trkpt lat="42.219943" lon="2.169925">
        <ele>729</ele>
        <time>1970-01-01T03:51:04.000Z</time>
      </trkpt>
      <trkpt lat="42.219978" lon="2.169941">
        <ele>729</ele>
        <time>1970-01-01T03:51:05.000Z</time>
      </trkpt>
      <trkpt lat="42.220012" lon="2.169958">
        <ele>729</ele>
        <time>1970-01-01T03:51:06.000Z</time>
      </trkpt>
      <trkpt lat="42.22008" lon="2.16999">
        <ele>729</ele>
        <time>1970-01-01T03:51:07.000Z</time>
      </trkpt>
      <trkpt lat="42.220113" lon="2.170007">
        <ele>729</ele>
        <time>1970-01-01T03:51:08.000Z</time>
      </trkpt>
      <trkpt lat="42.220147" lon="2.170024">
        <ele>729</ele>
        <time>1970-01-01T03:51:09.000Z</time>
      </trkpt>
      <trkpt lat="42.22018" lon="2.170041">
        <ele>729</ele>
        <time>1970-01-01T03:51:10.000Z</time>
      </trkpt>
      <trkpt lat="42.220213" lon="2.170057">
        <ele>729</ele>
        <time>1970-01-01T03:51:11.000Z</time>
      </trkpt>
      <trkpt lat="42.220246" lon="2.170074">
        <ele>729</ele>
        <time>1970-01-01T03:51:12.000Z</time>
      </trkpt>
      <trkpt lat="42.220279" lon="2.170091">
        <ele>729</ele>
        <time>1970-01-01T03:51:13.000Z</time>
      </trkpt>
      <trkpt lat="42.220313" lon="2.170108">
        <ele>729</ele>
        <time>1970-01-01T03:51:14.000Z</time>
      </trkpt>
      <trkpt lat="42.220346" lon="2.170125">
        <ele>729</ele>
        <time>1970-01-01T03:51:15.000Z</time>
      </trkpt>
      <trkpt lat="42.220379" lon="2.170142">
        <ele>731</ele>
        <time>1970-01-01T03:51:16.000Z</time>
      </trkpt>
      <trkpt lat="42.220451" lon="2.170182">
        <ele>731</ele>
        <time>1970-01-01T03:51:17.000Z</time>
      </trkpt>
      <trkpt lat="42.220486" lon="2.1702">
        <ele>731</ele>
        <time>1970-01-01T03:51:18.000Z</time>
      </trkpt>
      <trkpt lat="42.22052" lon="2.170219">
        <ele>731</ele>
        <time>1970-01-01T03:51:19.000Z</time>
      </trkpt>
      <trkpt lat="42.220555" lon="2.170238">
        <ele>731</ele>
        <time>1970-01-01T03:51:20.000Z</time>
      </trkpt>
      <trkpt lat="42.220589" lon="2.170256">
        <ele>731</ele>
        <time>1970-01-01T03:51:21.000Z</time>
      </trkpt>
      <trkpt lat="42.220623" lon="2.170275">
        <ele>731</ele>
        <time>1970-01-01T03:51:22.000Z</time>
      </trkpt>
      <trkpt lat="42.220658" lon="2.170294">
        <ele>731</ele>
        <time>1970-01-01T03:51:23.000Z</time>
      </trkpt>
      <trkpt lat="42.220692" lon="2.170313">
        <ele>731</ele>
        <time>1970-01-01T03:51:24.000Z</time>
      </trkpt>
      <trkpt lat="42.220727" lon="2.170331">
        <ele>731</ele>
        <time>1970-01-01T03:51:25.000Z</time>
      </trkpt>
      <trkpt lat="42.220761" lon="2.17035">
        <ele>732</ele>
        <time>1970-01-01T03:51:26.000Z</time>
      </trkpt>
      <trkpt lat="42.220835" lon="2.17039">
        <ele>732</ele>
        <time>1970-01-01T03:51:27.000Z</time>
      </trkpt>
      <trkpt lat="42.220872" lon="2.170409">
        <ele>732</ele>
        <time>1970-01-01T03:51:28.000Z</time>
      </trkpt>
      <trkpt lat="42.220908" lon="2.170428">
        <ele>732</ele>
        <time>1970-01-01T03:51:29.000Z</time>
      </trkpt>
      <trkpt lat="42.220944" lon="2.170447">
        <ele>732</ele>
        <time>1970-01-01T03:51:30.000Z</time>
      </trkpt>
      <trkpt lat="42.220981" lon="2.170466">
        <ele>732</ele>
        <time>1970-01-01T03:51:31.000Z</time>
      </trkpt>
      <trkpt lat="42.221017" lon="2.170486">
        <ele>732</ele>
        <time>1970-01-01T03:51:32.000Z</time>
      </trkpt>
      <trkpt lat="42.221053" lon="2.170505">
        <ele>732</ele>
        <time>1970-01-01T03:51:33.000Z</time>
      </trkpt>
      <trkpt lat="42.221089" lon="2.170524">
        <ele>732</ele>
        <time>1970-01-01T03:51:34.000Z</time>
      </trkpt>
      <trkpt lat="42.221126" lon="2.170543">
        <ele>732</ele>
        <time>1970-01-01T03:51:35.000Z</time>
      </trkpt>
      <trkpt lat="42.221162" lon="2.170562">
        <ele>732</ele>
        <time>1970-01-01T03:51:36.000Z</time>
      </trkpt>
      <trkpt lat="42.221232" lon="2.17058">
        <ele>732</ele>
        <time>1970-01-01T03:51:37.000Z</time>
      </trkpt>
      <trkpt lat="42.221265" lon="2.170582">
        <ele>732</ele>
        <time>1970-01-01T03:51:38.000Z</time>
      </trkpt>
      <trkpt lat="42.221297" lon="2.170585">
        <ele>732</ele>
        <time>1970-01-01T03:51:39.000Z</time>
      </trkpt>
      <trkpt lat="42.22133" lon="2.170587">
        <ele>732</ele>
        <time>1970-01-01T03:51:40.000Z</time>
      </trkpt>
      <trkpt lat="42.221362" lon="2.170589">
        <ele>732</ele>
        <time>1970-01-01T03:51:41.000Z</time>
      </trkpt>
      <trkpt lat="42.221394" lon="2.170591">
        <ele>732</ele>
        <time>1970-01-01T03:51:42.000Z</time>
      </trkpt>
      <trkpt lat="42.221427" lon="2.170593">
        <ele>732</ele>
        <time>1970-01-01T03:51:43.000Z</time>
      </trkpt>
      <trkpt lat="42.221459" lon="2.170596">
        <ele>732</ele>
        <time>1970-01-01T03:51:44.000Z</time>
      </trkpt>
      <trkpt lat="42.221492" lon="2.170598">
        <ele>732</ele>
        <time>1970-01-01T03:51:45.000Z</time>
      </trkpt>
      <trkpt lat="42.221524" lon="2.1706">
        <ele>732</ele>
        <time>1970-01-01T03:51:46.000Z</time>
      </trkpt>
      <trkpt lat="42.221614" lon="2.170609">
        <ele>732</ele>
        <time>1970-01-01T03:51:48.000Z</time>
      </trkpt>
      <trkpt lat="42.221637" lon="2.170612">
        <ele>732</ele>
        <time>1970-01-01T03:51:49.000Z</time>
      </trkpt>
      <trkpt lat="42.22166" lon="2.170616">
        <ele>732</ele>
        <time>1970-01-01T03:51:50.000Z</time>
      </trkpt>
      <trkpt lat="42.221683" lon="2.170619">
        <ele>732</ele>
        <time>1970-01-01T03:51:52.000Z</time>
      </trkpt>
      <trkpt lat="42.221705" lon="2.170622">
        <ele>732</ele>
        <time>1970-01-01T03:51:53.000Z</time>
      </trkpt>
      <trkpt lat="42.221728" lon="2.170625">
        <ele>732</ele>
        <time>1970-01-01T03:51:54.000Z</time>
      </trkpt>
      <trkpt lat="42.221751" lon="2.170629">
        <ele>732</ele>
        <time>1970-01-01T03:51:55.000Z</time>
      </trkpt>
      <trkpt lat="42.221774" lon="2.170632">
        <ele>732</ele>
        <time>1970-01-01T03:51:56.000Z</time>
      </trkpt>
      <trkpt lat="42.22181" lon="2.170589">
        <ele>732</ele>
        <time>1970-01-01T03:51:57.000Z</time>
      </trkpt>
      <trkpt lat="42.221822" lon="2.170549">
        <ele>732</ele>
        <time>1970-01-01T03:51:58.000Z</time>
      </trkpt>
      <trkpt lat="42.221833" lon="2.170509">
        <ele>732</ele>
        <time>1970-01-01T03:51:59.000Z</time>
      </trkpt>
      <trkpt lat="42.221845" lon="2.170469">
        <ele>732</ele>
        <time>1970-01-01T03:52:00.000Z</time>
      </trkpt>
      <trkpt lat="42.221857" lon="2.170429">
        <ele>732</ele>
        <time>1970-01-01T03:52:01.000Z</time>
      </trkpt>
      <trkpt lat="42.221869" lon="2.170388">
        <ele>732</ele>
        <time>1970-01-01T03:52:02.000Z</time>
      </trkpt>
      <trkpt lat="42.221881" lon="2.170348">
        <ele>732</ele>
        <time>1970-01-01T03:52:03.000Z</time>
      </trkpt>
      <trkpt lat="42.221892" lon="2.170308">
        <ele>732</ele>
        <time>1970-01-01T03:52:04.000Z</time>
      </trkpt>
      <trkpt lat="42.221904" lon="2.170268">
        <ele>732</ele>
        <time>1970-01-01T03:52:05.000Z</time>
      </trkpt>
      <trkpt lat="42.221916" lon="2.170228">
        <ele>732</ele>
        <time>1970-01-01T03:52:06.000Z</time>
      </trkpt>
      <trkpt lat="42.221922" lon="2.170123">
        <ele>732</ele>
        <time>1970-01-01T03:52:07.000Z</time>
      </trkpt>
      <trkpt lat="42.221925" lon="2.170077">
        <ele>732</ele>
        <time>1970-01-01T03:52:08.000Z</time>
      </trkpt>
      <trkpt lat="42.221929" lon="2.170031">
        <ele>732</ele>
        <time>1970-01-01T03:52:09.000Z</time>
      </trkpt>
      <trkpt lat="42.221932" lon="2.169985">
        <ele>732</ele>
        <time>1970-01-01T03:52:10.000Z</time>
      </trkpt>
      <trkpt lat="42.221936" lon="2.169939">
        <ele>732</ele>
        <time>1970-01-01T03:52:11.000Z</time>
      </trkpt>
      <trkpt lat="42.22194" lon="2.169892">
        <ele>732</ele>
        <time>1970-01-01T03:52:12.000Z</time>
      </trkpt>
      <trkpt lat="42.221943" lon="2.169846">
        <ele>732</ele>
        <time>1970-01-01T03:52:13.000Z</time>
      </trkpt>
      <trkpt lat="42.221947" lon="2.1698">
        <ele>732</ele>
        <time>1970-01-01T03:52:14.000Z</time>
      </trkpt>
      <trkpt lat="42.22195" lon="2.169754">
        <ele>732</ele>
        <time>1970-01-01T03:52:15.000Z</time>
      </trkpt>
      <trkpt lat="42.221954" lon="2.169708">
        <ele>732</ele>
        <time>1970-01-01T03:52:16.000Z</time>
      </trkpt>
      <trkpt lat="42.221946" lon="2.169708">
        <ele>732</ele>
        <time>1970-01-01T03:52:21.000Z</time>
      </trkpt>
      <trkpt lat="42.22194" lon="2.169734">
        <ele>732</ele>
        <time>1970-01-01T03:52:22.000Z</time>
      </trkpt>
      <trkpt lat="42.221934" lon="2.169761">
        <ele>731</ele>
        <time>1970-01-01T03:53:37.000Z</time>
      </trkpt>
      <trkpt lat="42.221928" lon="2.169787">
        <ele>731</ele>
        <time>1970-01-01T03:53:38.000Z</time>
      </trkpt>
      <trkpt lat="42.221922" lon="2.169814">
        <ele>731</ele>
        <time>1970-01-01T03:53:40.000Z</time>
      </trkpt>
      <trkpt lat="42.221916" lon="2.16984">
        <ele>731</ele>
        <time>1970-01-01T03:53:41.000Z</time>
      </trkpt>
      <trkpt lat="42.22191" lon="2.169867">
        <ele>731</ele>
        <time>1970-01-01T03:53:42.000Z</time>
      </trkpt>
      <trkpt lat="42.221904" lon="2.169893">
        <ele>731</ele>
        <time>1970-01-01T03:53:43.000Z</time>
      </trkpt>
      <trkpt lat="42.221898" lon="2.16992">
        <ele>731</ele>
        <time>1970-01-01T03:53:44.000Z</time>
      </trkpt>
      <trkpt lat="42.221892" lon="2.169946">
        <ele>731</ele>
        <time>1970-01-01T03:53:45.000Z</time>
      </trkpt>
      <trkpt lat="42.221886" lon="2.169973">
        <ele>731</ele>
        <time>1970-01-01T03:53:46.000Z</time>
      </trkpt>
      <trkpt lat="42.22188" lon="2.169999">
        <ele>731</ele>
        <time>1970-01-01T03:53:47.000Z</time>
      </trkpt>
      <trkpt lat="42.22188" lon="2.170066">
        <ele>731</ele>
        <time>1970-01-01T03:53:48.000Z</time>
      </trkpt>
      <trkpt lat="42.221879" lon="2.170102">
        <ele>731</ele>
        <time>1970-01-01T03:53:49.000Z</time>
      </trkpt>
      <trkpt lat="42.221878" lon="2.170137">
        <ele>731</ele>
        <time>1970-01-01T03:53:50.000Z</time>
      </trkpt>
      <trkpt lat="42.221877" lon="2.170173">
        <ele>731</ele>
        <time>1970-01-01T03:53:51.000Z</time>
      </trkpt>
      <trkpt lat="42.221876" lon="2.170209">
        <ele>731</ele>
        <time>1970-01-01T03:53:52.000Z</time>
      </trkpt>
      <trkpt lat="42.221874" lon="2.170245">
        <ele>731</ele>
        <time>1970-01-01T03:53:53.000Z</time>
      </trkpt>
      <trkpt lat="42.221873" lon="2.170281">
        <ele>731</ele>
        <time>1970-01-01T03:53:54.000Z</time>
      </trkpt>
      <trkpt lat="42.221872" lon="2.170316">
        <ele>731</ele>
        <time>1970-01-01T03:53:55.000Z</time>
      </trkpt>
      <trkpt lat="42.221871" lon="2.170352">
        <ele>731</ele>
        <time>1970-01-01T03:53:56.000Z</time>
      </trkpt>
      <trkpt lat="42.22187" lon="2.170388">
        <ele>731</ele>
        <time>1970-01-01T03:53:57.000Z</time>
      </trkpt>
      <trkpt lat="42.221883" lon="2.170452">
        <ele>731</ele>
        <time>1970-01-01T03:53:58.000Z</time>
      </trkpt>
      <trkpt lat="42.2219" lon="2.170475">
        <ele>731</ele>
        <time>1970-01-01T03:53:59.000Z</time>
      </trkpt>
      <trkpt lat="42.221918" lon="2.170498">
        <ele>731</ele>
        <time>1970-01-01T03:54:00.000Z</time>
      </trkpt>
      <trkpt lat="42.221935" lon="2.170521">
        <ele>731</ele>
        <time>1970-01-01T03:54:01.000Z</time>
      </trkpt>
      <trkpt lat="42.221952" lon="2.170544">
        <ele>731</ele>
        <time>1970-01-01T03:54:02.000Z</time>
      </trkpt>
      <trkpt lat="42.221969" lon="2.170567">
        <ele>731</ele>
        <time>1970-01-01T03:54:03.000Z</time>
      </trkpt>
      <trkpt lat="42.221986" lon="2.17059">
        <ele>731</ele>
        <time>1970-01-01T03:54:04.000Z</time>
      </trkpt>
      <trkpt lat="42.222004" lon="2.170613">
        <ele>731</ele>
        <time>1970-01-01T03:54:05.000Z</time>
      </trkpt>
      <trkpt lat="42.222021" lon="2.170636">
        <ele>731</ele>
        <time>1970-01-01T03:54:06.000Z</time>
      </trkpt>
      <trkpt lat="42.222038" lon="2.170659">
        <ele>732</ele>
        <time>1970-01-01T03:54:07.000Z</time>
      </trkpt>
      <trkpt lat="42.222109" lon="2.170676">
        <ele>732</ele>
        <time>1970-01-01T03:54:08.000Z</time>
      </trkpt>
      <trkpt lat="42.222141" lon="2.170681">
        <ele>732</ele>
        <time>1970-01-01T03:54:09.000Z</time>
      </trkpt>
      <trkpt lat="42.222174" lon="2.170686">
        <ele>732</ele>
        <time>1970-01-01T03:54:10.000Z</time>
      </trkpt>
      <trkpt lat="42.222206" lon="2.170691">
        <ele>732</ele>
        <time>1970-01-01T03:54:11.000Z</time>
      </trkpt>
      <trkpt lat="42.222239" lon="2.170696">
        <ele>732</ele>
        <time>1970-01-01T03:54:12.000Z</time>
      </trkpt>
      <trkpt lat="42.222272" lon="2.170702">
        <ele>732</ele>
        <time>1970-01-01T03:54:13.000Z</time>
      </trkpt>
      <trkpt lat="42.222304" lon="2.170707">
        <ele>732</ele>
        <time>1970-01-01T03:54:14.000Z</time>
      </trkpt>
      <trkpt lat="42.222337" lon="2.170712">
        <ele>732</ele>
        <time>1970-01-01T03:54:15.000Z</time>
      </trkpt>
      <trkpt lat="42.222369" lon="2.170717">
        <ele>732</ele>
        <time>1970-01-01T03:54:16.000Z</time>
      </trkpt>
      <trkpt lat="42.222402" lon="2.170722">
        <ele>733</ele>
        <time>1970-01-01T03:54:17.000Z</time>
      </trkpt>
      <trkpt lat="42.222467" lon="2.170722">
        <ele>733</ele>
        <time>1970-01-01T03:54:18.000Z</time>
      </trkpt>
      <trkpt lat="42.222499" lon="2.170722">
        <ele>733</ele>
        <time>1970-01-01T03:54:19.000Z</time>
      </trkpt>
      <trkpt lat="42.22253" lon="2.170723">
        <ele>733</ele>
        <time>1970-01-01T03:54:20.000Z</time>
      </trkpt>
      <trkpt lat="42.222561" lon="2.170723">
        <ele>733</ele>
        <time>1970-01-01T03:54:21.000Z</time>
      </trkpt>
      <trkpt lat="42.222593" lon="2.170723">
        <ele>733</ele>
        <time>1970-01-01T03:54:22.000Z</time>
      </trkpt>
      <trkpt lat="42.222624" lon="2.170723">
        <ele>733</ele>
        <time>1970-01-01T03:54:23.000Z</time>
      </trkpt>
      <trkpt lat="42.222655" lon="2.170723">
        <ele>733</ele>
        <time>1970-01-01T03:54:24.000Z</time>
      </trkpt>
      <trkpt lat="42.222686" lon="2.170724">
        <ele>733</ele>
        <time>1970-01-01T03:54:25.000Z</time>
      </trkpt>
      <trkpt lat="42.222718" lon="2.170724">
        <ele>733</ele>
        <time>1970-01-01T03:54:26.000Z</time>
      </trkpt>
      <trkpt lat="42.222749" lon="2.170724">
        <ele>735</ele>
        <time>1970-01-01T03:54:27.000Z</time>
      </trkpt>
      <trkpt lat="42.222813" lon="2.17073">
        <ele>735</ele>
        <time>1970-01-01T03:54:28.000Z</time>
      </trkpt>
      <trkpt lat="42.222843" lon="2.170734">
        <ele>735</ele>
        <time>1970-01-01T03:54:29.000Z</time>
      </trkpt>
      <trkpt lat="42.222874" lon="2.170737">
        <ele>735</ele>
        <time>1970-01-01T03:54:30.000Z</time>
      </trkpt>
      <trkpt lat="42.222904" lon="2.170741">
        <ele>735</ele>
        <time>1970-01-01T03:54:31.000Z</time>
      </trkpt>
      <trkpt lat="42.222935" lon="2.170745">
        <ele>735</ele>
        <time>1970-01-01T03:54:32.000Z</time>
      </trkpt>
      <trkpt lat="42.222966" lon="2.170749">
        <ele>735</ele>
        <time>1970-01-01T03:54:33.000Z</time>
      </trkpt>
      <trkpt lat="42.222996" lon="2.170753">
        <ele>735</ele>
        <time>1970-01-01T03:54:34.000Z</time>
      </trkpt>
      <trkpt lat="42.223027" lon="2.170756">
        <ele>735</ele>
        <time>1970-01-01T03:54:35.000Z</time>
      </trkpt>
      <trkpt lat="42.223057" lon="2.17076">
        <ele>735</ele>
        <time>1970-01-01T03:54:36.000Z</time>
      </trkpt>
      <trkpt lat="42.223088" lon="2.170764">
        <ele>736</ele>
        <time>1970-01-01T03:54:37.000Z</time>
      </trkpt>
      <trkpt lat="42.223151" lon="2.170769">
        <ele>736</ele>
        <time>1970-01-01T03:54:38.000Z</time>
      </trkpt>
      <trkpt lat="42.22318" lon="2.17077">
        <ele>736</ele>
        <time>1970-01-01T03:54:39.000Z</time>
      </trkpt>
      <trkpt lat="42.22321" lon="2.170772">
        <ele>736</ele>
        <time>1970-01-01T03:54:40.000Z</time>
      </trkpt>
      <trkpt lat="42.223239" lon="2.170773">
        <ele>736</ele>
        <time>1970-01-01T03:54:41.000Z</time>
      </trkpt>
      <trkpt lat="42.223269" lon="2.170774">
        <ele>736</ele>
        <time>1970-01-01T03:54:42.000Z</time>
      </trkpt>
      <trkpt lat="42.223299" lon="2.170775">
        <ele>736</ele>
        <time>1970-01-01T03:54:43.000Z</time>
      </trkpt>
      <trkpt lat="42.223328" lon="2.170776">
        <ele>736</ele>
        <time>1970-01-01T03:54:44.000Z</time>
      </trkpt>
      <trkpt lat="42.223358" lon="2.170778">
        <ele>736</ele>
        <time>1970-01-01T03:54:45.000Z</time>
      </trkpt>
      <trkpt lat="42.223387" lon="2.170779">
        <ele>736</ele>
        <time>1970-01-01T03:54:46.000Z</time>
      </trkpt>
      <trkpt lat="42.223417" lon="2.17078">
        <ele>737</ele>
        <time>1970-01-01T03:54:47.000Z</time>
      </trkpt>
      <trkpt lat="42.223484" lon="2.170778">
        <ele>737</ele>
        <time>1970-01-01T03:54:48.000Z</time>
      </trkpt>
      <trkpt lat="42.223516" lon="2.170776">
        <ele>737</ele>
        <time>1970-01-01T03:54:49.000Z</time>
      </trkpt>
      <trkpt lat="42.223549" lon="2.170775">
        <ele>737</ele>
        <time>1970-01-01T03:54:50.000Z</time>
      </trkpt>
      <trkpt lat="42.223581" lon="2.170773">
        <ele>737</ele>
        <time>1970-01-01T03:54:51.000Z</time>
      </trkpt>
      <trkpt lat="42.223614" lon="2.170772">
        <ele>737</ele>
        <time>1970-01-01T03:54:52.000Z</time>
      </trkpt>
      <trkpt lat="42.223646" lon="2.170771">
        <ele>737</ele>
        <time>1970-01-01T03:54:53.000Z</time>
      </trkpt>
      <trkpt lat="42.223679" lon="2.170769">
        <ele>737</ele>
        <time>1970-01-01T03:54:54.000Z</time>
      </trkpt>
      <trkpt lat="42.223711" lon="2.170768">
        <ele>737</ele>
        <time>1970-01-01T03:54:55.000Z</time>
      </trkpt>
      <trkpt lat="42.223744" lon="2.170766">
        <ele>737</ele>
        <time>1970-01-01T03:54:56.000Z</time>
      </trkpt>
      <trkpt lat="42.223776" lon="2.170765">
        <ele>739</ele>
        <time>1970-01-01T03:54:57.000Z</time>
      </trkpt>
      <trkpt lat="42.223861" lon="2.170753">
        <ele>739</ele>
        <time>1970-01-01T03:54:58.000Z</time>
      </trkpt>
      <trkpt lat="42.223906" lon="2.170746">
        <ele>739</ele>
        <time>1970-01-01T03:54:59.000Z</time>
      </trkpt>
      <trkpt lat="42.22395" lon="2.170739">
        <ele>739</ele>
        <time>1970-01-01T03:55:00.000Z</time>
      </trkpt>
      <trkpt lat="42.223995" lon="2.170732">
        <ele>739</ele>
        <time>1970-01-01T03:55:01.000Z</time>
      </trkpt>
      <trkpt lat="42.22404" lon="2.170725">
        <ele>739</ele>
        <time>1970-01-01T03:55:02.000Z</time>
      </trkpt>
      <trkpt lat="42.224085" lon="2.170717">
        <ele>739</ele>
        <time>1970-01-01T03:55:03.000Z</time>
      </trkpt>
      <trkpt lat="42.22413" lon="2.17071">
        <ele>739</ele>
        <time>1970-01-01T03:55:04.000Z</time>
      </trkpt>
      <trkpt lat="42.224174" lon="2.170703">
        <ele>739</ele>
        <time>1970-01-01T03:55:05.000Z</time>
      </trkpt>
      <trkpt lat="42.224219" lon="2.170696">
        <ele>739</ele>
        <time>1970-01-01T03:55:06.000Z</time>
      </trkpt>
      <trkpt lat="42.224264" lon="2.170689">
        <ele>738</ele>
        <time>1970-01-01T03:55:07.000Z</time>
      </trkpt>
      <trkpt lat="42.224391" lon="2.170668">
        <ele>738</ele>
        <time>1970-01-01T03:55:08.000Z</time>
      </trkpt>
      <trkpt lat="42.224454" lon="2.17066">
        <ele>738</ele>
        <time>1970-01-01T03:55:09.000Z</time>
      </trkpt>
      <trkpt lat="42.224518" lon="2.170652">
        <ele>738</ele>
        <time>1970-01-01T03:55:10.000Z</time>
      </trkpt>
      <trkpt lat="42.224581" lon="2.170644">
        <ele>738</ele>
        <time>1970-01-01T03:55:11.000Z</time>
      </trkpt>
      <trkpt lat="42.224645" lon="2.170636">
        <ele>738</ele>
        <time>1970-01-01T03:55:12.000Z</time>
      </trkpt>
      <trkpt lat="42.224708" lon="2.170627">
        <ele>738</ele>
        <time>1970-01-01T03:55:13.000Z</time>
      </trkpt>
      <trkpt lat="42.224772" lon="2.170619">
        <ele>738</ele>
        <time>1970-01-01T03:55:14.000Z</time>
      </trkpt>
      <trkpt lat="42.224835" lon="2.170611">
        <ele>738</ele>
        <time>1970-01-01T03:55:15.000Z</time>
      </trkpt>
      <trkpt lat="42.224899" lon="2.170603">
        <ele>738</ele>
        <time>1970-01-01T03:55:16.000Z</time>
      </trkpt>
      <trkpt lat="42.224962" lon="2.170595">
        <ele>737</ele>
        <time>1970-01-01T03:55:17.000Z</time>
      </trkpt>
      <trkpt lat="42.225087" lon="2.17056">
        <ele>737</ele>
        <time>1970-01-01T03:55:18.000Z</time>
      </trkpt>
      <trkpt lat="42.225143" lon="2.170544">
        <ele>737</ele>
        <time>1970-01-01T03:55:19.000Z</time>
      </trkpt>
      <trkpt lat="42.225199" lon="2.170528">
        <ele>737</ele>
        <time>1970-01-01T03:55:20.000Z</time>
      </trkpt>
      <trkpt lat="42.225255" lon="2.170512">
        <ele>737</ele>
        <time>1970-01-01T03:55:21.000Z</time>
      </trkpt>
      <trkpt lat="42.225312" lon="2.170497">
        <ele>737</ele>
        <time>1970-01-01T03:55:22.000Z</time>
      </trkpt>
      <trkpt lat="42.225368" lon="2.170481">
        <ele>737</ele>
        <time>1970-01-01T03:55:23.000Z</time>
      </trkpt>
      <trkpt lat="42.225424" lon="2.170465">
        <ele>737</ele>
        <time>1970-01-01T03:55:24.000Z</time>
      </trkpt>
      <trkpt lat="42.22548" lon="2.170449">
        <ele>737</ele>
        <time>1970-01-01T03:55:25.000Z</time>
      </trkpt>
      <trkpt lat="42.225536" lon="2.170433">
        <ele>737</ele>
        <time>1970-01-01T03:55:26.000Z</time>
      </trkpt>
      <trkpt lat="42.225592" lon="2.170417">
        <ele>736</ele>
        <time>1970-01-01T03:55:27.000Z</time>
      </trkpt>
      <trkpt lat="42.225705" lon="2.170399">
        <ele>736</ele>
        <time>1970-01-01T03:55:28.000Z</time>
      </trkpt>
      <trkpt lat="42.225756" lon="2.170389">
        <ele>736</ele>
        <time>1970-01-01T03:55:29.000Z</time>
      </trkpt>
      <trkpt lat="42.225807" lon="2.170379">
        <ele>736</ele>
        <time>1970-01-01T03:55:30.000Z</time>
      </trkpt>
      <trkpt lat="42.225858" lon="2.170369">
        <ele>736</ele>
        <time>1970-01-01T03:55:31.000Z</time>
      </trkpt>
      <trkpt lat="42.225909" lon="2.17036">
        <ele>736</ele>
        <time>1970-01-01T03:55:32.000Z</time>
      </trkpt>
      <trkpt lat="42.225959" lon="2.17035">
        <ele>736</ele>
        <time>1970-01-01T03:55:33.000Z</time>
      </trkpt>
      <trkpt lat="42.22601" lon="2.17034">
        <ele>736</ele>
        <time>1970-01-01T03:55:34.000Z</time>
      </trkpt>
      <trkpt lat="42.226061" lon="2.17033">
        <ele>736</ele>
        <time>1970-01-01T03:55:35.000Z</time>
      </trkpt>
      <trkpt lat="42.226112" lon="2.17032">
        <ele>736</ele>
        <time>1970-01-01T03:55:36.000Z</time>
      </trkpt>
      <trkpt lat="42.226163" lon="2.17031">
        <ele>736</ele>
        <time>1970-01-01T03:55:37.000Z</time>
      </trkpt>
      <trkpt lat="42.226264" lon="2.170279">
        <ele>736</ele>
        <time>1970-01-01T03:55:38.000Z</time>
      </trkpt>
      <trkpt lat="42.226311" lon="2.170264">
        <ele>736</ele>
        <time>1970-01-01T03:55:39.000Z</time>
      </trkpt>
      <trkpt lat="42.226358" lon="2.170249">
        <ele>736</ele>
        <time>1970-01-01T03:55:40.000Z</time>
      </trkpt>
      <trkpt lat="42.226405" lon="2.170234">
        <ele>736</ele>
        <time>1970-01-01T03:55:41.000Z</time>
      </trkpt>
      <trkpt lat="42.226452" lon="2.170219">
        <ele>736</ele>
        <time>1970-01-01T03:55:42.000Z</time>
      </trkpt>
      <trkpt lat="42.226499" lon="2.170204">
        <ele>736</ele>
        <time>1970-01-01T03:55:43.000Z</time>
      </trkpt>
      <trkpt lat="42.226546" lon="2.170189">
        <ele>736</ele>
        <time>1970-01-01T03:55:44.000Z</time>
      </trkpt>
      <trkpt lat="42.226593" lon="2.170174">
        <ele>736</ele>
        <time>1970-01-01T03:55:45.000Z</time>
      </trkpt>
      <trkpt lat="42.22664" lon="2.170159">
        <ele>736</ele>
        <time>1970-01-01T03:55:46.000Z</time>
      </trkpt>
      <trkpt lat="42.226687" lon="2.170144">
        <ele>736</ele>
        <time>1970-01-01T03:55:47.000Z</time>
      </trkpt>
      <trkpt lat="42.226784" lon="2.170111">
        <ele>736</ele>
        <time>1970-01-01T03:55:48.000Z</time>
      </trkpt>
      <trkpt lat="42.22683" lon="2.170096">
        <ele>736</ele>
        <time>1970-01-01T03:55:49.000Z</time>
      </trkpt>
      <trkpt lat="42.226876" lon="2.170081">
        <ele>736</ele>
        <time>1970-01-01T03:55:50.000Z</time>
      </trkpt>
      <trkpt lat="42.226922" lon="2.170066">
        <ele>736</ele>
        <time>1970-01-01T03:55:51.000Z</time>
      </trkpt>
      <trkpt lat="42.226968" lon="2.170052">
        <ele>736</ele>
        <time>1970-01-01T03:55:52.000Z</time>
      </trkpt>
      <trkpt lat="42.227013" lon="2.170037">
        <ele>736</ele>
        <time>1970-01-01T03:55:53.000Z</time>
      </trkpt>
      <trkpt lat="42.227059" lon="2.170022">
        <ele>736</ele>
        <time>1970-01-01T03:55:54.000Z</time>
      </trkpt>
      <trkpt lat="42.227105" lon="2.170007">
        <ele>736</ele>
        <time>1970-01-01T03:55:55.000Z</time>
      </trkpt>
      <trkpt lat="42.227151" lon="2.169992">
        <ele>736</ele>
        <time>1970-01-01T03:55:56.000Z</time>
      </trkpt>
      <trkpt lat="42.227197" lon="2.169977">
        <ele>737</ele>
        <time>1970-01-01T03:55:57.000Z</time>
      </trkpt>
      <trkpt lat="42.227293" lon="2.169948">
        <ele>737</ele>
        <time>1970-01-01T03:55:58.000Z</time>
      </trkpt>
      <trkpt lat="42.227337" lon="2.169933">
        <ele>737</ele>
        <time>1970-01-01T03:55:59.000Z</time>
      </trkpt>
      <trkpt lat="42.227382" lon="2.169919">
        <ele>737</ele>
        <time>1970-01-01T03:56:00.000Z</time>
      </trkpt>
      <trkpt lat="42.227426" lon="2.169905">
        <ele>737</ele>
        <time>1970-01-01T03:56:01.000Z</time>
      </trkpt>
      <trkpt lat="42.22747" lon="2.169891">
        <ele>737</ele>
        <time>1970-01-01T03:56:02.000Z</time>
      </trkpt>
      <trkpt lat="42.227514" lon="2.169876">
        <ele>737</ele>
        <time>1970-01-01T03:56:03.000Z</time>
      </trkpt>
      <trkpt lat="42.227558" lon="2.169862">
        <ele>737</ele>
        <time>1970-01-01T03:56:04.000Z</time>
      </trkpt>
      <trkpt lat="42.227603" lon="2.169848">
        <ele>737</ele>
        <time>1970-01-01T03:56:05.000Z</time>
      </trkpt>
      <trkpt lat="42.227647" lon="2.169833">
        <ele>737</ele>
        <time>1970-01-01T03:56:06.000Z</time>
      </trkpt>
      <trkpt lat="42.227691" lon="2.169819">
        <ele>737</ele>
        <time>1970-01-01T03:56:07.000Z</time>
      </trkpt>
      <trkpt lat="42.227782" lon="2.169792">
        <ele>737</ele>
        <time>1970-01-01T03:56:08.000Z</time>
      </trkpt>
      <trkpt lat="42.227826" lon="2.16978">
        <ele>737</ele>
        <time>1970-01-01T03:56:09.000Z</time>
      </trkpt>
      <trkpt lat="42.22787" lon="2.169769">
        <ele>737</ele>
        <time>1970-01-01T03:56:10.000Z</time>
      </trkpt>
      <trkpt lat="42.227914" lon="2.169757">
        <ele>737</ele>
        <time>1970-01-01T03:56:11.000Z</time>
      </trkpt>
      <trkpt lat="42.227958" lon="2.169745">
        <ele>737</ele>
        <time>1970-01-01T03:56:12.000Z</time>
      </trkpt>
      <trkpt lat="42.228001" lon="2.169733">
        <ele>737</ele>
        <time>1970-01-01T03:56:13.000Z</time>
      </trkpt>
      <trkpt lat="42.228045" lon="2.169721">
        <ele>737</ele>
        <time>1970-01-01T03:56:14.000Z</time>
      </trkpt>
      <trkpt lat="42.228089" lon="2.16971">
        <ele>737</ele>
        <time>1970-01-01T03:56:15.000Z</time>
      </trkpt>
      <trkpt lat="42.228133" lon="2.169698">
        <ele>737</ele>
        <time>1970-01-01T03:56:16.000Z</time>
      </trkpt>
      <trkpt lat="42.228177" lon="2.169686">
        <ele>739</ele>
        <time>1970-01-01T03:56:17.000Z</time>
      </trkpt>
      <trkpt lat="42.228262" lon="2.169657">
        <ele>739</ele>
        <time>1970-01-01T03:56:18.000Z</time>
      </trkpt>
      <trkpt lat="42.2283" lon="2.169645">
        <ele>739</ele>
        <time>1970-01-01T03:56:19.000Z</time>
      </trkpt>
      <trkpt lat="42.228338" lon="2.169632">
        <ele>739</ele>
        <time>1970-01-01T03:56:20.000Z</time>
      </trkpt>
      <trkpt lat="42.228376" lon="2.169619">
        <ele>739</ele>
        <time>1970-01-01T03:56:21.000Z</time>
      </trkpt>
      <trkpt lat="42.228415" lon="2.169607">
        <ele>739</ele>
        <time>1970-01-01T03:56:22.000Z</time>
      </trkpt>
      <trkpt lat="42.228453" lon="2.169594">
        <ele>739</ele>
        <time>1970-01-01T03:56:23.000Z</time>
      </trkpt>
      <trkpt lat="42.228491" lon="2.169581">
        <ele>739</ele>
        <time>1970-01-01T03:56:24.000Z</time>
      </trkpt>
      <trkpt lat="42.228529" lon="2.169568">
        <ele>739</ele>
        <time>1970-01-01T03:56:25.000Z</time>
      </trkpt>
      <trkpt lat="42.228567" lon="2.169556">
        <ele>739</ele>
        <time>1970-01-01T03:56:26.000Z</time>
      </trkpt>
      <trkpt lat="42.228605" lon="2.169543">
        <ele>739</ele>
        <time>1970-01-01T03:56:27.000Z</time>
      </trkpt>
      <trkpt lat="42.228687" lon="2.169517">
        <ele>739</ele>
        <time>1970-01-01T03:56:28.000Z</time>
      </trkpt>
      <trkpt lat="42.228725" lon="2.169504">
        <ele>739</ele>
        <time>1970-01-01T03:56:29.000Z</time>
      </trkpt>
      <trkpt lat="42.228764" lon="2.169492">
        <ele>739</ele>
        <time>1970-01-01T03:56:30.000Z</time>
      </trkpt>
      <trkpt lat="42.228802" lon="2.169479">
        <ele>739</ele>
        <time>1970-01-01T03:56:31.000Z</time>
      </trkpt>
      <trkpt lat="42.228841" lon="2.169467">
        <ele>739</ele>
        <time>1970-01-01T03:56:32.000Z</time>
      </trkpt>
      <trkpt lat="42.228879" lon="2.169455">
        <ele>739</ele>
        <time>1970-01-01T03:56:33.000Z</time>
      </trkpt>
      <trkpt lat="42.228918" lon="2.169442">
        <ele>739</ele>
        <time>1970-01-01T03:56:34.000Z</time>
      </trkpt>
      <trkpt lat="42.228956" lon="2.16943">
        <ele>739</ele>
        <time>1970-01-01T03:56:35.000Z</time>
      </trkpt>
      <trkpt lat="42.228995" lon="2.169417">
        <ele>739</ele>
        <time>1970-01-01T03:56:36.000Z</time>
      </trkpt>
      <trkpt lat="42.229033" lon="2.169405">
        <ele>741</ele>
        <time>1970-01-01T03:56:37.000Z</time>
      </trkpt>
      <trkpt lat="42.229113" lon="2.169379">
        <ele>741</ele>
        <time>1970-01-01T03:56:38.000Z</time>
      </trkpt>
      <trkpt lat="42.229151" lon="2.169368">
        <ele>741</ele>
        <time>1970-01-01T03:56:39.000Z</time>
      </trkpt>
      <trkpt lat="42.229188" lon="2.169357">
        <ele>741</ele>
        <time>1970-01-01T03:56:40.000Z</time>
      </trkpt>
      <trkpt lat="42.229225" lon="2.169346">
        <ele>741</ele>
        <time>1970-01-01T03:56:41.000Z</time>
      </trkpt>
      <trkpt lat="42.229263" lon="2.169335">
        <ele>741</ele>
        <time>1970-01-01T03:56:42.000Z</time>
      </trkpt>
      <trkpt lat="42.2293" lon="2.169324">
        <ele>741</ele>
        <time>1970-01-01T03:56:43.000Z</time>
      </trkpt>
      <trkpt lat="42.229337" lon="2.169313">
        <ele>741</ele>
        <time>1970-01-01T03:56:44.000Z</time>
      </trkpt>
      <trkpt lat="42.229374" lon="2.169302">
        <ele>741</ele>
        <time>1970-01-01T03:56:45.000Z</time>
      </trkpt>
      <trkpt lat="42.229412" lon="2.169291">
        <ele>741</ele>
        <time>1970-01-01T03:56:46.000Z</time>
      </trkpt>
      <trkpt lat="42.229449" lon="2.16928">
        <ele>742</ele>
        <time>1970-01-01T03:56:47.000Z</time>
      </trkpt>
      <trkpt lat="42.229527" lon="2.169257">
        <ele>742</ele>
        <time>1970-01-01T03:56:48.000Z</time>
      </trkpt>
      <trkpt lat="42.229563" lon="2.169246">
        <ele>742</ele>
        <time>1970-01-01T03:56:49.000Z</time>
      </trkpt>
      <trkpt lat="42.2296" lon="2.169235">
        <ele>742</ele>
        <time>1970-01-01T03:56:50.000Z</time>
      </trkpt>
      <trkpt lat="42.229637" lon="2.169224">
        <ele>742</ele>
        <time>1970-01-01T03:56:51.000Z</time>
      </trkpt>
      <trkpt lat="42.229674" lon="2.169214">
        <ele>742</ele>
        <time>1970-01-01T03:56:52.000Z</time>
      </trkpt>
      <trkpt lat="42.22971" lon="2.169203">
        <ele>742</ele>
        <time>1970-01-01T03:56:53.000Z</time>
      </trkpt>
      <trkpt lat="42.229747" lon="2.169192">
        <ele>742</ele>
        <time>1970-01-01T03:56:54.000Z</time>
      </trkpt>
      <trkpt lat="42.229784" lon="2.169181">
        <ele>742</ele>
        <time>1970-01-01T03:56:55.000Z</time>
      </trkpt>
      <trkpt lat="42.22982" lon="2.16917">
        <ele>742</ele>
        <time>1970-01-01T03:56:56.000Z</time>
      </trkpt>
      <trkpt lat="42.229857" lon="2.169159">
        <ele>743</ele>
        <time>1970-01-01T03:56:57.000Z</time>
      </trkpt>
      <trkpt lat="42.229936" lon="2.169133">
        <ele>743</ele>
        <time>1970-01-01T03:56:58.000Z</time>
      </trkpt>
      <trkpt lat="42.229973" lon="2.169121">
        <ele>743</ele>
        <time>1970-01-01T03:56:59.000Z</time>
      </trkpt>
      <trkpt lat="42.230011" lon="2.16911">
        <ele>743</ele>
        <time>1970-01-01T03:57:00.000Z</time>
      </trkpt>
      <trkpt lat="42.230048" lon="2.169098">
        <ele>743</ele>
        <time>1970-01-01T03:57:01.000Z</time>
      </trkpt>
      <trkpt lat="42.230086" lon="2.169086">
        <ele>743</ele>
        <time>1970-01-01T03:57:02.000Z</time>
      </trkpt>
      <trkpt lat="42.230123" lon="2.169074">
        <ele>743</ele>
        <time>1970-01-01T03:57:03.000Z</time>
      </trkpt>
      <trkpt lat="42.230161" lon="2.169062">
        <ele>743</ele>
        <time>1970-01-01T03:57:04.000Z</time>
      </trkpt>
      <trkpt lat="42.230198" lon="2.169051">
        <ele>743</ele>
        <time>1970-01-01T03:57:05.000Z</time>
      </trkpt>
      <trkpt lat="42.230236" lon="2.169039">
        <ele>743</ele>
        <time>1970-01-01T03:57:06.000Z</time>
      </trkpt>
      <trkpt lat="42.230273" lon="2.169027">
        <ele>744</ele>
        <time>1970-01-01T03:57:07.000Z</time>
      </trkpt>
      <trkpt lat="42.230347" lon="2.169005">
        <ele>744</ele>
        <time>1970-01-01T03:57:08.000Z</time>
      </trkpt>
      <trkpt lat="42.230384" lon="2.168993">
        <ele>744</ele>
        <time>1970-01-01T03:57:09.000Z</time>
      </trkpt>
      <trkpt lat="42.23042" lon="2.168981">
        <ele>744</ele>
        <time>1970-01-01T03:57:10.000Z</time>
      </trkpt>
      <trkpt lat="42.230457" lon="2.168969">
        <ele>744</ele>
        <time>1970-01-01T03:57:11.000Z</time>
      </trkpt>
      <trkpt lat="42.230493" lon="2.168957">
        <ele>744</ele>
        <time>1970-01-01T03:57:12.000Z</time>
      </trkpt>
      <trkpt lat="42.230529" lon="2.168944">
        <ele>744</ele>
        <time>1970-01-01T03:57:13.000Z</time>
      </trkpt>
      <trkpt lat="42.230566" lon="2.168932">
        <ele>744</ele>
        <time>1970-01-01T03:57:14.000Z</time>
      </trkpt>
      <trkpt lat="42.230602" lon="2.16892">
        <ele>744</ele>
        <time>1970-01-01T03:57:15.000Z</time>
      </trkpt>
      <trkpt lat="42.230639" lon="2.168908">
        <ele>744</ele>
        <time>1970-01-01T03:57:16.000Z</time>
      </trkpt>
      <trkpt lat="42.230675" lon="2.168896">
        <ele>745</ele>
        <time>1970-01-01T03:57:17.000Z</time>
      </trkpt>
      <trkpt lat="42.230749" lon="2.168872">
        <ele>745</ele>
        <time>1970-01-01T03:57:18.000Z</time>
      </trkpt>
      <trkpt lat="42.230783" lon="2.168862">
        <ele>745</ele>
        <time>1970-01-01T03:57:19.000Z</time>
      </trkpt>
      <trkpt lat="42.230818" lon="2.168851">
        <ele>745</ele>
        <time>1970-01-01T03:57:20.000Z</time>
      </trkpt>
      <trkpt lat="42.230852" lon="2.168841">
        <ele>745</ele>
        <time>1970-01-01T03:57:21.000Z</time>
      </trkpt>
      <trkpt lat="42.230887" lon="2.16883">
        <ele>745</ele>
        <time>1970-01-01T03:57:22.000Z</time>
      </trkpt>
      <trkpt lat="42.230921" lon="2.168819">
        <ele>745</ele>
        <time>1970-01-01T03:57:23.000Z</time>
      </trkpt>
      <trkpt lat="42.230956" lon="2.168809">
        <ele>745</ele>
        <time>1970-01-01T03:57:24.000Z</time>
      </trkpt>
      <trkpt lat="42.23099" lon="2.168798">
        <ele>745</ele>
        <time>1970-01-01T03:57:25.000Z</time>
      </trkpt>
      <trkpt lat="42.231025" lon="2.168788">
        <ele>745</ele>
        <time>1970-01-01T03:57:26.000Z</time>
      </trkpt>
      <trkpt lat="42.231059" lon="2.168777">
        <ele>746</ele>
        <time>1970-01-01T03:57:27.000Z</time>
      </trkpt>
      <trkpt lat="42.231131" lon="2.168754">
        <ele>746</ele>
        <time>1970-01-01T03:57:28.000Z</time>
      </trkpt>
      <trkpt lat="42.231168" lon="2.168743">
        <ele>746</ele>
        <time>1970-01-01T03:57:29.000Z</time>
      </trkpt>
      <trkpt lat="42.231205" lon="2.168731">
        <ele>746</ele>
        <time>1970-01-01T03:57:30.000Z</time>
      </trkpt>
      <trkpt lat="42.231242" lon="2.16872">
        <ele>746</ele>
        <time>1970-01-01T03:57:31.000Z</time>
      </trkpt>
      <trkpt lat="42.23128" lon="2.168708">
        <ele>746</ele>
        <time>1970-01-01T03:57:32.000Z</time>
      </trkpt>
      <trkpt lat="42.231317" lon="2.168696">
        <ele>746</ele>
        <time>1970-01-01T03:57:33.000Z</time>
      </trkpt>
      <trkpt lat="42.231354" lon="2.168685">
        <ele>746</ele>
        <time>1970-01-01T03:57:34.000Z</time>
      </trkpt>
      <trkpt lat="42.231391" lon="2.168673">
        <ele>746</ele>
        <time>1970-01-01T03:57:35.000Z</time>
      </trkpt>
      <trkpt lat="42.231428" lon="2.168662">
        <ele>746</ele>
        <time>1970-01-01T03:57:36.000Z</time>
      </trkpt>
      <trkpt lat="42.231465" lon="2.16865">
        <ele>748</ele>
        <time>1970-01-01T03:57:37.000Z</time>
      </trkpt>
      <trkpt lat="42.231542" lon="2.168627">
        <ele>748</ele>
        <time>1970-01-01T03:57:38.000Z</time>
      </trkpt>
      <trkpt lat="42.231578" lon="2.168617">
        <ele>748</ele>
        <time>1970-01-01T03:57:39.000Z</time>
      </trkpt>
      <trkpt lat="42.231615" lon="2.168607">
        <ele>748</ele>
        <time>1970-01-01T03:57:40.000Z</time>
      </trkpt>
      <trkpt lat="42.231652" lon="2.168597">
        <ele>748</ele>
        <time>1970-01-01T03:57:41.000Z</time>
      </trkpt>
      <trkpt lat="42.231689" lon="2.168588">
        <ele>748</ele>
        <time>1970-01-01T03:57:42.000Z</time>
      </trkpt>
      <trkpt lat="42.231725" lon="2.168578">
        <ele>748</ele>
        <time>1970-01-01T03:57:43.000Z</time>
      </trkpt>
      <trkpt lat="42.231762" lon="2.168568">
        <ele>748</ele>
        <time>1970-01-01T03:57:44.000Z</time>
      </trkpt>
      <trkpt lat="42.231799" lon="2.168558">
        <ele>748</ele>
        <time>1970-01-01T03:57:45.000Z</time>
      </trkpt>
      <trkpt lat="42.231835" lon="2.168548">
        <ele>748</ele>
        <time>1970-01-01T03:57:46.000Z</time>
      </trkpt>
      <trkpt lat="42.231872" lon="2.168538">
        <ele>749</ele>
        <time>1970-01-01T03:57:47.000Z</time>
      </trkpt>
      <trkpt lat="42.231951" lon="2.168518">
        <ele>749</ele>
        <time>1970-01-01T03:57:48.000Z</time>
      </trkpt>
      <trkpt lat="42.231988" lon="2.16851">
        <ele>749</ele>
        <time>1970-01-01T03:57:49.000Z</time>
      </trkpt>
      <trkpt lat="42.232026" lon="2.168503">
        <ele>749</ele>
        <time>1970-01-01T03:57:50.000Z</time>
      </trkpt>
      <trkpt lat="42.232063" lon="2.168495">
        <ele>749</ele>
        <time>1970-01-01T03:57:51.000Z</time>
      </trkpt>
      <trkpt lat="42.232101" lon="2.168487">
        <ele>749</ele>
        <time>1970-01-01T03:57:52.000Z</time>
      </trkpt>
      <trkpt lat="42.232138" lon="2.168479">
        <ele>749</ele>
        <time>1970-01-01T03:57:53.000Z</time>
      </trkpt>
      <trkpt lat="42.232176" lon="2.168471">
        <ele>749</ele>
        <time>1970-01-01T03:57:54.000Z</time>
      </trkpt>
      <trkpt lat="42.232213" lon="2.168464">
        <ele>749</ele>
        <time>1970-01-01T03:57:55.000Z</time>
      </trkpt>
      <trkpt lat="42.232251" lon="2.168456">
        <ele>749</ele>
        <time>1970-01-01T03:57:56.000Z</time>
      </trkpt>
      <trkpt lat="42.232288" lon="2.168448">
        <ele>750</ele>
        <time>1970-01-01T03:57:57.000Z</time>
      </trkpt>
      <trkpt lat="42.232376" lon="2.168433">
        <ele>750</ele>
        <time>1970-01-01T03:57:58.000Z</time>
      </trkpt>
      <trkpt lat="42.232419" lon="2.168426">
        <ele>750</ele>
        <time>1970-01-01T03:57:59.000Z</time>
      </trkpt>
      <trkpt lat="42.232463" lon="2.168418">
        <ele>750</ele>
        <time>1970-01-01T03:58:00.000Z</time>
      </trkpt>
      <trkpt lat="42.232506" lon="2.16841">
        <ele>750</ele>
        <time>1970-01-01T03:58:01.000Z</time>
      </trkpt>
      <trkpt lat="42.23255" lon="2.168403">
        <ele>750</ele>
        <time>1970-01-01T03:58:02.000Z</time>
      </trkpt>
      <trkpt lat="42.232594" lon="2.168395">
        <ele>750</ele>
        <time>1970-01-01T03:58:03.000Z</time>
      </trkpt>
      <trkpt lat="42.232637" lon="2.168387">
        <ele>750</ele>
        <time>1970-01-01T03:58:04.000Z</time>
      </trkpt>
      <trkpt lat="42.232681" lon="2.168379">
        <ele>750</ele>
        <time>1970-01-01T03:58:05.000Z</time>
      </trkpt>
      <trkpt lat="42.232724" lon="2.168372">
        <ele>750</ele>
        <time>1970-01-01T03:58:06.000Z</time>
      </trkpt>
      <trkpt lat="42.232768" lon="2.168364">
        <ele>750</ele>
        <time>1970-01-01T03:58:07.000Z</time>
      </trkpt>
      <trkpt lat="42.23286" lon="2.168355">
        <ele>750</ele>
        <time>1970-01-01T03:58:08.000Z</time>
      </trkpt>
      <trkpt lat="42.232903" lon="2.168351">
        <ele>750</ele>
        <time>1970-01-01T03:58:09.000Z</time>
      </trkpt>
      <trkpt lat="42.232945" lon="2.168346">
        <ele>750</ele>
        <time>1970-01-01T03:58:10.000Z</time>
      </trkpt>
      <trkpt lat="42.232987" lon="2.168342">
        <ele>750</ele>
        <time>1970-01-01T03:58:11.000Z</time>
      </trkpt>
      <trkpt lat="42.23303" lon="2.168337">
        <ele>750</ele>
        <time>1970-01-01T03:58:12.000Z</time>
      </trkpt>
      <trkpt lat="42.233072" lon="2.168332">
        <ele>750</ele>
        <time>1970-01-01T03:58:13.000Z</time>
      </trkpt>
      <trkpt lat="42.233114" lon="2.168328">
        <ele>750</ele>
        <time>1970-01-01T03:58:14.000Z</time>
      </trkpt>
      <trkpt lat="42.233156" lon="2.168323">
        <ele>750</ele>
        <time>1970-01-01T03:58:15.000Z</time>
      </trkpt>
      <trkpt lat="42.233199" lon="2.168319">
        <ele>750</ele>
        <time>1970-01-01T03:58:16.000Z</time>
      </trkpt>
      <trkpt lat="42.233241" lon="2.168314">
        <ele>750</ele>
        <time>1970-01-01T03:58:17.000Z</time>
      </trkpt>
      <trkpt lat="42.23333" lon="2.168304">
        <ele>750</ele>
        <time>1970-01-01T03:58:18.000Z</time>
      </trkpt>
      <trkpt lat="42.233372" lon="2.168299">
        <ele>750</ele>
        <time>1970-01-01T03:58:19.000Z</time>
      </trkpt>
      <trkpt lat="42.233415" lon="2.168295">
        <ele>750</ele>
        <time>1970-01-01T03:58:20.000Z</time>
      </trkpt>
      <trkpt lat="42.233458" lon="2.16829">
        <ele>750</ele>
        <time>1970-01-01T03:58:21.000Z</time>
      </trkpt>
      <trkpt lat="42.233501" lon="2.168286">
        <ele>750</ele>
        <time>1970-01-01T03:58:22.000Z</time>
      </trkpt>
      <trkpt lat="42.233543" lon="2.168281">
        <ele>750</ele>
        <time>1970-01-01T03:58:23.000Z</time>
      </trkpt>
      <trkpt lat="42.233586" lon="2.168277">
        <ele>750</ele>
        <time>1970-01-01T03:58:24.000Z</time>
      </trkpt>
      <trkpt lat="42.233629" lon="2.168272">
        <ele>750</ele>
        <time>1970-01-01T03:58:25.000Z</time>
      </trkpt>
      <trkpt lat="42.233671" lon="2.168268">
        <ele>750</ele>
        <time>1970-01-01T03:58:26.000Z</time>
      </trkpt>
      <trkpt lat="42.233714" lon="2.168263">
        <ele>750</ele>
        <time>1970-01-01T03:58:27.000Z</time>
      </trkpt>
      <trkpt lat="42.233804" lon="2.168252">
        <ele>750</ele>
        <time>1970-01-01T03:58:28.000Z</time>
      </trkpt>
      <trkpt lat="42.233846" lon="2.168249">
        <ele>750</ele>
        <time>1970-01-01T03:58:29.000Z</time>
      </trkpt>
      <trkpt lat="42.233888" lon="2.168245">
        <ele>750</ele>
        <time>1970-01-01T03:58:30.000Z</time>
      </trkpt>
      <trkpt lat="42.23393" lon="2.168241">
        <ele>750</ele>
        <time>1970-01-01T03:58:31.000Z</time>
      </trkpt>
      <trkpt lat="42.233972" lon="2.168238">
        <ele>750</ele>
        <time>1970-01-01T03:58:32.000Z</time>
      </trkpt>
      <trkpt lat="42.234014" lon="2.168234">
        <ele>750</ele>
        <time>1970-01-01T03:58:33.000Z</time>
      </trkpt>
      <trkpt lat="42.234056" lon="2.16823">
        <ele>750</ele>
        <time>1970-01-01T03:58:34.000Z</time>
      </trkpt>
      <trkpt lat="42.234098" lon="2.168226">
        <ele>750</ele>
        <time>1970-01-01T03:58:35.000Z</time>
      </trkpt>
      <trkpt lat="42.23414" lon="2.168223">
        <ele>750</ele>
        <time>1970-01-01T03:58:36.000Z</time>
      </trkpt>
      <trkpt lat="42.234182" lon="2.168219">
        <ele>751</ele>
        <time>1970-01-01T03:58:37.000Z</time>
      </trkpt>
      <trkpt lat="42.234271" lon="2.168208">
        <ele>751</ele>
        <time>1970-01-01T03:58:38.000Z</time>
      </trkpt>
      <trkpt lat="42.234313" lon="2.168203">
        <ele>751</ele>
        <time>1970-01-01T03:58:39.000Z</time>
      </trkpt>
      <trkpt lat="42.234356" lon="2.168197">
        <ele>751</ele>
        <time>1970-01-01T03:58:40.000Z</time>
      </trkpt>
      <trkpt lat="42.234398" lon="2.168191">
        <ele>751</ele>
        <time>1970-01-01T03:58:41.000Z</time>
      </trkpt>
      <trkpt lat="42.234441" lon="2.168186">
        <ele>751</ele>
        <time>1970-01-01T03:58:42.000Z</time>
      </trkpt>
      <trkpt lat="42.234483" lon="2.16818">
        <ele>751</ele>
        <time>1970-01-01T03:58:43.000Z</time>
      </trkpt>
      <trkpt lat="42.234526" lon="2.168174">
        <ele>751</ele>
        <time>1970-01-01T03:58:44.000Z</time>
      </trkpt>
      <trkpt lat="42.234568" lon="2.168168">
        <ele>751</ele>
        <time>1970-01-01T03:58:45.000Z</time>
      </trkpt>
      <trkpt lat="42.234611" lon="2.168163">
        <ele>751</ele>
        <time>1970-01-01T03:58:46.000Z</time>
      </trkpt>
      <trkpt lat="42.234653" lon="2.168157">
        <ele>753</ele>
        <time>1970-01-01T03:58:47.000Z</time>
      </trkpt>
      <trkpt lat="42.234745" lon="2.168144">
        <ele>753</ele>
        <time>1970-01-01T03:58:48.000Z</time>
      </trkpt>
      <trkpt lat="42.234791" lon="2.168138">
        <ele>753</ele>
        <time>1970-01-01T03:58:49.000Z</time>
      </trkpt>
      <trkpt lat="42.234836" lon="2.168131">
        <ele>753</ele>
        <time>1970-01-01T03:58:50.000Z</time>
      </trkpt>
      <trkpt lat="42.234881" lon="2.168125">
        <ele>753</ele>
        <time>1970-01-01T03:58:51.000Z</time>
      </trkpt>
      <trkpt lat="42.234927" lon="2.168119">
        <ele>753</ele>
        <time>1970-01-01T03:58:52.000Z</time>
      </trkpt>
      <trkpt lat="42.234972" lon="2.168113">
        <ele>753</ele>
        <time>1970-01-01T03:58:53.000Z</time>
      </trkpt>
      <trkpt lat="42.235017" lon="2.168107">
        <ele>753</ele>
        <time>1970-01-01T03:58:54.000Z</time>
      </trkpt>
      <trkpt lat="42.235062" lon="2.1681">
        <ele>753</ele>
        <time>1970-01-01T03:58:55.000Z</time>
      </trkpt>
      <trkpt lat="42.235108" lon="2.168094">
        <ele>753</ele>
        <time>1970-01-01T03:58:56.000Z</time>
      </trkpt>
      <trkpt lat="42.235153" lon="2.168088">
        <ele>753</ele>
        <time>1970-01-01T03:58:57.000Z</time>
      </trkpt>
      <trkpt lat="42.235255" lon="2.168087">
        <ele>753</ele>
        <time>1970-01-01T03:58:58.000Z</time>
      </trkpt>
      <trkpt lat="42.235305" lon="2.168089">
        <ele>753</ele>
        <time>1970-01-01T03:58:59.000Z</time>
      </trkpt>
      <trkpt lat="42.235354" lon="2.16809">
        <ele>753</ele>
        <time>1970-01-01T03:59:00.000Z</time>
      </trkpt>
      <trkpt lat="42.235403" lon="2.168092">
        <ele>753</ele>
        <time>1970-01-01T03:59:01.000Z</time>
      </trkpt>
      <trkpt lat="42.235453" lon="2.168094">
        <ele>753</ele>
        <time>1970-01-01T03:59:02.000Z</time>
      </trkpt>
      <trkpt lat="42.235502" lon="2.168096">
        <ele>753</ele>
        <time>1970-01-01T03:59:03.000Z</time>
      </trkpt>
      <trkpt lat="42.235551" lon="2.168098">
        <ele>753</ele>
        <time>1970-01-01T03:59:04.000Z</time>
      </trkpt>
      <trkpt lat="42.2356" lon="2.168099">
        <ele>753</ele>
        <time>1970-01-01T03:59:05.000Z</time>
      </trkpt>
      <trkpt lat="42.23565" lon="2.168101">
        <ele>753</ele>
        <time>1970-01-01T03:59:06.000Z</time>
      </trkpt>
      <trkpt lat="42.235699" lon="2.168103">
        <ele>754</ele>
        <time>1970-01-01T03:59:07.000Z</time>
      </trkpt>
      <trkpt lat="42.235801" lon="2.168126">
        <ele>754</ele>
        <time>1970-01-01T03:59:08.000Z</time>
      </trkpt>
      <trkpt lat="42.235848" lon="2.168137">
        <ele>754</ele>
        <time>1970-01-01T03:59:09.000Z</time>
      </trkpt>
      <trkpt lat="42.235895" lon="2.168149">
        <ele>754</ele>
        <time>1970-01-01T03:59:10.000Z</time>
      </trkpt>
      <trkpt lat="42.235942" lon="2.168161">
        <ele>754</ele>
        <time>1970-01-01T03:59:11.000Z</time>
      </trkpt>
      <trkpt lat="42.23599" lon="2.168172">
        <ele>754</ele>
        <time>1970-01-01T03:59:12.000Z</time>
      </trkpt>
      <trkpt lat="42.236037" lon="2.168184">
        <ele>754</ele>
        <time>1970-01-01T03:59:13.000Z</time>
      </trkpt>
      <trkpt lat="42.236084" lon="2.168196">
        <ele>754</ele>
        <time>1970-01-01T03:59:14.000Z</time>
      </trkpt>
      <trkpt lat="42.236131" lon="2.168208">
        <ele>754</ele>
        <time>1970-01-01T03:59:15.000Z</time>
      </trkpt>
      <trkpt lat="42.236178" lon="2.168219">
        <ele>754</ele>
        <time>1970-01-01T03:59:16.000Z</time>
      </trkpt>
      <trkpt lat="42.236225" lon="2.168231">
        <ele>755</ele>
        <time>1970-01-01T03:59:17.000Z</time>
      </trkpt>
      <trkpt lat="42.236316" lon="2.168249">
        <ele>755</ele>
        <time>1970-01-01T03:59:18.000Z</time>
      </trkpt>
      <trkpt lat="42.236358" lon="2.168255">
        <ele>755</ele>
        <time>1970-01-01T03:59:19.000Z</time>
      </trkpt>
      <trkpt lat="42.2364" lon="2.16826">
        <ele>755</ele>
        <time>1970-01-01T03:59:20.000Z</time>
      </trkpt>
      <trkpt lat="42.236442" lon="2.168266">
        <ele>755</ele>
        <time>1970-01-01T03:59:21.000Z</time>
      </trkpt>
      <trkpt lat="42.236484" lon="2.168272">
        <ele>755</ele>
        <time>1970-01-01T03:59:22.000Z</time>
      </trkpt>
      <trkpt lat="42.236525" lon="2.168278">
        <ele>755</ele>
        <time>1970-01-01T03:59:23.000Z</time>
      </trkpt>
      <trkpt lat="42.236567" lon="2.168284">
        <ele>755</ele>
        <time>1970-01-01T03:59:24.000Z</time>
      </trkpt>
      <trkpt lat="42.236609" lon="2.168289">
        <ele>755</ele>
        <time>1970-01-01T03:59:25.000Z</time>
      </trkpt>
      <trkpt lat="42.236651" lon="2.168295">
        <ele>755</ele>
        <time>1970-01-01T03:59:26.000Z</time>
      </trkpt>
      <trkpt lat="42.236693" lon="2.168301">
        <ele>755</ele>
        <time>1970-01-01T03:59:27.000Z</time>
      </trkpt>
      <trkpt lat="42.236781" lon="2.168298">
        <ele>755</ele>
        <time>1970-01-01T03:59:28.000Z</time>
      </trkpt>
      <trkpt lat="42.236822" lon="2.168294">
        <ele>755</ele>
        <time>1970-01-01T03:59:29.000Z</time>
      </trkpt>
      <trkpt lat="42.236863" lon="2.16829">
        <ele>755</ele>
        <time>1970-01-01T03:59:30.000Z</time>
      </trkpt>
      <trkpt lat="42.236904" lon="2.168286">
        <ele>755</ele>
        <time>1970-01-01T03:59:31.000Z</time>
      </trkpt>
      <trkpt lat="42.236945" lon="2.168283">
        <ele>755</ele>
        <time>1970-01-01T03:59:32.000Z</time>
      </trkpt>
      <trkpt lat="42.236985" lon="2.168279">
        <ele>755</ele>
        <time>1970-01-01T03:59:33.000Z</time>
      </trkpt>
      <trkpt lat="42.237026" lon="2.168275">
        <ele>755</ele>
        <time>1970-01-01T03:59:34.000Z</time>
      </trkpt>
      <trkpt lat="42.237067" lon="2.168271">
        <ele>755</ele>
        <time>1970-01-01T03:59:35.000Z</time>
      </trkpt>
      <trkpt lat="42.237108" lon="2.168267">
        <ele>755</ele>
        <time>1970-01-01T03:59:36.000Z</time>
      </trkpt>
      <trkpt lat="42.237149" lon="2.168263">
        <ele>756</ele>
        <time>1970-01-01T03:59:37.000Z</time>
      </trkpt>
      <trkpt lat="42.237235" lon="2.168248">
        <ele>756</ele>
        <time>1970-01-01T03:59:38.000Z</time>
      </trkpt>
      <trkpt lat="42.237275" lon="2.168238">
        <ele>756</ele>
        <time>1970-01-01T03:59:39.000Z</time>
      </trkpt>
      <trkpt lat="42.237314" lon="2.168229">
        <ele>756</ele>
        <time>1970-01-01T03:59:40.000Z</time>
      </trkpt>
      <trkpt lat="42.237353" lon="2.168219">
        <ele>756</ele>
        <time>1970-01-01T03:59:41.000Z</time>
      </trkpt>
      <trkpt lat="42.237393" lon="2.16821">
        <ele>756</ele>
        <time>1970-01-01T03:59:42.000Z</time>
      </trkpt>
      <trkpt lat="42.237432" lon="2.1682">
        <ele>756</ele>
        <time>1970-01-01T03:59:43.000Z</time>
      </trkpt>
      <trkpt lat="42.237471" lon="2.168191">
        <ele>756</ele>
        <time>1970-01-01T03:59:44.000Z</time>
      </trkpt>
      <trkpt lat="42.23751" lon="2.168181">
        <ele>756</ele>
        <time>1970-01-01T03:59:45.000Z</time>
      </trkpt>
      <trkpt lat="42.23755" lon="2.168172">
        <ele>756</ele>
        <time>1970-01-01T03:59:46.000Z</time>
      </trkpt>
      <trkpt lat="42.237589" lon="2.168162">
        <ele>758</ele>
        <time>1970-01-01T03:59:47.000Z</time>
      </trkpt>
      <trkpt lat="42.237673" lon="2.168133">
        <ele>758</ele>
        <time>1970-01-01T03:59:48.000Z</time>
      </trkpt>
      <trkpt lat="42.237712" lon="2.168117">
        <ele>758</ele>
        <time>1970-01-01T03:59:49.000Z</time>
      </trkpt>
      <trkpt lat="42.237752" lon="2.168102">
        <ele>758</ele>
        <time>1970-01-01T03:59:50.000Z</time>
      </trkpt>
      <trkpt lat="42.237792" lon="2.168086">
        <ele>758</ele>
        <time>1970-01-01T03:59:51.000Z</time>
      </trkpt>
      <trkpt lat="42.237832" lon="2.168071">
        <ele>758</ele>
        <time>1970-01-01T03:59:52.000Z</time>
      </trkpt>
      <trkpt lat="42.237871" lon="2.168055">
        <ele>758</ele>
        <time>1970-01-01T03:59:53.000Z</time>
      </trkpt>
      <trkpt lat="42.237911" lon="2.16804">
        <ele>758</ele>
        <time>1970-01-01T03:59:54.000Z</time>
      </trkpt>
      <trkpt lat="42.237951" lon="2.168024">
        <ele>758</ele>
        <time>1970-01-01T03:59:55.000Z</time>
      </trkpt>
      <trkpt lat="42.23799" lon="2.168009">
        <ele>758</ele>
        <time>1970-01-01T03:59:56.000Z</time>
      </trkpt>
      <trkpt lat="42.23803" lon="2.167993">
        <ele>759</ele>
        <time>1970-01-01T03:59:57.000Z</time>
      </trkpt>
      <trkpt lat="42.238113" lon="2.167938">
        <ele>759</ele>
        <time>1970-01-01T03:59:58.000Z</time>
      </trkpt>
      <trkpt lat="42.238154" lon="2.167908">
        <ele>759</ele>
        <time>1970-01-01T03:59:59.000Z</time>
      </trkpt>
      <trkpt lat="42.238194" lon="2.167877">
        <ele>759</ele>
        <time>1970-01-01T04:00:00.000Z</time>
      </trkpt>
      <trkpt lat="42.238235" lon="2.167847">
        <ele>759</ele>
        <time>1970-01-01T04:00:01.000Z</time>
      </trkpt>
      <trkpt lat="42.238276" lon="2.167816">
        <ele>759</ele>
        <time>1970-01-01T04:00:02.000Z</time>
      </trkpt>
      <trkpt lat="42.238317" lon="2.167785">
        <ele>759</ele>
        <time>1970-01-01T04:00:03.000Z</time>
      </trkpt>
      <trkpt lat="42.238358" lon="2.167755">
        <ele>759</ele>
        <time>1970-01-01T04:00:04.000Z</time>
      </trkpt>
      <trkpt lat="42.238398" lon="2.167724">
        <ele>759</ele>
        <time>1970-01-01T04:00:05.000Z</time>
      </trkpt>
      <trkpt lat="42.238439" lon="2.167694">
        <ele>759</ele>
        <time>1970-01-01T04:00:06.000Z</time>
      </trkpt>
      <trkpt lat="42.23848" lon="2.167663">
        <ele>759</ele>
        <time>1970-01-01T04:00:07.000Z</time>
      </trkpt>
      <trkpt lat="42.238568" lon="2.167584">
        <ele>759</ele>
        <time>1970-01-01T04:00:08.000Z</time>
      </trkpt>
      <trkpt lat="42.238611" lon="2.167546">
        <ele>759</ele>
        <time>1970-01-01T04:00:09.000Z</time>
      </trkpt>
      <trkpt lat="42.238653" lon="2.167507">
        <ele>759</ele>
        <time>1970-01-01T04:00:10.000Z</time>
      </trkpt>
      <trkpt lat="42.238696" lon="2.167468">
        <ele>759</ele>
        <time>1970-01-01T04:00:11.000Z</time>
      </trkpt>
      <trkpt lat="42.238738" lon="2.16743">
        <ele>759</ele>
        <time>1970-01-01T04:00:12.000Z</time>
      </trkpt>
      <trkpt lat="42.23878" lon="2.167391">
        <ele>759</ele>
        <time>1970-01-01T04:00:13.000Z</time>
      </trkpt>
      <trkpt lat="42.238823" lon="2.167352">
        <ele>759</ele>
        <time>1970-01-01T04:00:14.000Z</time>
      </trkpt>
      <trkpt lat="42.238865" lon="2.167313">
        <ele>759</ele>
        <time>1970-01-01T04:00:15.000Z</time>
      </trkpt>
      <trkpt lat="42.238908" lon="2.167275">
        <ele>759</ele>
        <time>1970-01-01T04:00:16.000Z</time>
      </trkpt>
      <trkpt lat="42.23895" lon="2.167236">
        <ele>760</ele>
        <time>1970-01-01T04:00:17.000Z</time>
      </trkpt>
      <trkpt lat="42.239038" lon="2.167157">
        <ele>760</ele>
        <time>1970-01-01T04:00:18.000Z</time>
      </trkpt>
      <trkpt lat="42.239078" lon="2.16712">
        <ele>760</ele>
        <time>1970-01-01T04:00:19.000Z</time>
      </trkpt>
      <trkpt lat="42.239119" lon="2.167083">
        <ele>760</ele>
        <time>1970-01-01T04:00:20.000Z</time>
      </trkpt>
      <trkpt lat="42.23916" lon="2.167046">
        <ele>760</ele>
        <time>1970-01-01T04:00:21.000Z</time>
      </trkpt>
      <trkpt lat="42.239201" lon="2.16701">
        <ele>760</ele>
        <time>1970-01-01T04:00:22.000Z</time>
      </trkpt>
      <trkpt lat="42.239241" lon="2.166973">
        <ele>760</ele>
        <time>1970-01-01T04:00:23.000Z</time>
      </trkpt>
      <trkpt lat="42.239282" lon="2.166936">
        <ele>760</ele>
        <time>1970-01-01T04:00:24.000Z</time>
      </trkpt>
      <trkpt lat="42.239323" lon="2.166899">
        <ele>760</ele>
        <time>1970-01-01T04:00:25.000Z</time>
      </trkpt>
      <trkpt lat="42.239363" lon="2.166862">
        <ele>760</ele>
        <time>1970-01-01T04:00:26.000Z</time>
      </trkpt>
      <trkpt lat="42.239404" lon="2.166825">
        <ele>760</ele>
        <time>1970-01-01T04:00:27.000Z</time>
      </trkpt>
      <trkpt lat="42.239484" lon="2.166755">
        <ele>760</ele>
        <time>1970-01-01T04:00:28.000Z</time>
      </trkpt>
      <trkpt lat="42.239521" lon="2.166724">
        <ele>760</ele>
        <time>1970-01-01T04:00:29.000Z</time>
      </trkpt>
      <trkpt lat="42.239557" lon="2.166692">
        <ele>760</ele>
        <time>1970-01-01T04:00:30.000Z</time>
      </trkpt>
      <trkpt lat="42.239594" lon="2.166661">
        <ele>760</ele>
        <time>1970-01-01T04:00:31.000Z</time>
      </trkpt>
      <trkpt lat="42.239631" lon="2.166629">
        <ele>760</ele>
        <time>1970-01-01T04:00:32.000Z</time>
      </trkpt>
      <trkpt lat="42.239668" lon="2.166597">
        <ele>760</ele>
        <time>1970-01-01T04:00:33.000Z</time>
      </trkpt>
      <trkpt lat="42.239705" lon="2.166566">
        <ele>760</ele>
        <time>1970-01-01T04:00:34.000Z</time>
      </trkpt>
      <trkpt lat="42.239741" lon="2.166534">
        <ele>760</ele>
        <time>1970-01-01T04:00:35.000Z</time>
      </trkpt>
      <trkpt lat="42.239778" lon="2.166503">
        <ele>760</ele>
        <time>1970-01-01T04:00:36.000Z</time>
      </trkpt>
      <trkpt lat="42.239815" lon="2.166471">
        <ele>762</ele>
        <time>1970-01-01T04:00:37.000Z</time>
      </trkpt>
      <trkpt lat="42.239888" lon="2.166405">
        <ele>762</ele>
        <time>1970-01-01T04:00:38.000Z</time>
      </trkpt>
      <trkpt lat="42.239921" lon="2.166375">
        <ele>762</ele>
        <time>1970-01-01T04:00:39.000Z</time>
      </trkpt>
      <trkpt lat="42.239955" lon="2.166345">
        <ele>762</ele>
        <time>1970-01-01T04:00:40.000Z</time>
      </trkpt>
      <trkpt lat="42.239989" lon="2.166315">
        <ele>762</ele>
        <time>1970-01-01T04:00:41.000Z</time>
      </trkpt>
      <trkpt lat="42.240023" lon="2.166285">
        <ele>762</ele>
        <time>1970-01-01T04:00:42.000Z</time>
      </trkpt>
      <trkpt lat="42.240056" lon="2.166254">
        <ele>762</ele>
        <time>1970-01-01T04:00:43.000Z</time>
      </trkpt>
      <trkpt lat="42.24009" lon="2.166224">
        <ele>762</ele>
        <time>1970-01-01T04:00:44.000Z</time>
      </trkpt>
      <trkpt lat="42.240124" lon="2.166194">
        <ele>762</ele>
        <time>1970-01-01T04:00:45.000Z</time>
      </trkpt>
      <trkpt lat="42.240157" lon="2.166164">
        <ele>762</ele>
        <time>1970-01-01T04:00:46.000Z</time>
      </trkpt>
      <trkpt lat="42.240191" lon="2.166134">
        <ele>763</ele>
        <time>1970-01-01T04:00:47.000Z</time>
      </trkpt>
      <trkpt lat="42.240249" lon="2.166077">
        <ele>763</ele>
        <time>1970-01-01T04:00:48.000Z</time>
      </trkpt>
      <trkpt lat="42.240273" lon="2.166054">
        <ele>763</ele>
        <time>1970-01-01T04:00:49.000Z</time>
      </trkpt>
      <trkpt lat="42.240298" lon="2.166031">
        <ele>763</ele>
        <time>1970-01-01T04:00:50.000Z</time>
      </trkpt>
      <trkpt lat="42.240322" lon="2.166008">
        <ele>763</ele>
        <time>1970-01-01T04:00:51.000Z</time>
      </trkpt>
      <trkpt lat="42.240346" lon="2.165986">
        <ele>763</ele>
        <time>1970-01-01T04:00:52.000Z</time>
      </trkpt>
      <trkpt lat="42.24037" lon="2.165963">
        <ele>763</ele>
        <time>1970-01-01T04:00:53.000Z</time>
      </trkpt>
      <trkpt lat="42.240394" lon="2.16594">
        <ele>763</ele>
        <time>1970-01-01T04:00:54.000Z</time>
      </trkpt>
      <trkpt lat="42.240419" lon="2.165917">
        <ele>763</ele>
        <time>1970-01-01T04:00:55.000Z</time>
      </trkpt>
      <trkpt lat="42.240443" lon="2.165894">
        <ele>763</ele>
        <time>1970-01-01T04:00:56.000Z</time>
      </trkpt>
      <trkpt lat="42.240467" lon="2.165871">
        <ele>763</ele>
        <time>1970-01-01T04:00:57.000Z</time>
      </trkpt>
      <trkpt lat="42.24053" lon="2.165816">
        <ele>763</ele>
        <time>1970-01-01T04:00:58.000Z</time>
      </trkpt>
      <trkpt lat="42.240563" lon="2.165787">
        <ele>763</ele>
        <time>1970-01-01T04:00:59.000Z</time>
      </trkpt>
      <trkpt lat="42.240596" lon="2.165758">
        <ele>763</ele>
        <time>1970-01-01T04:01:00.000Z</time>
      </trkpt>
      <trkpt lat="42.240629" lon="2.165729">
        <ele>763</ele>
        <time>1970-01-01T04:01:01.000Z</time>
      </trkpt>
      <trkpt lat="42.240662" lon="2.1657">
        <ele>763</ele>
        <time>1970-01-01T04:01:02.000Z</time>
      </trkpt>
      <trkpt lat="42.240694" lon="2.165671">
        <ele>763</ele>
        <time>1970-01-01T04:01:03.000Z</time>
      </trkpt>
      <trkpt lat="42.240727" lon="2.165642">
        <ele>763</ele>
        <time>1970-01-01T04:01:04.000Z</time>
      </trkpt>
      <trkpt lat="42.24076" lon="2.165613">
        <ele>763</ele>
        <time>1970-01-01T04:01:05.000Z</time>
      </trkpt>
      <trkpt lat="42.240793" lon="2.165584">
        <ele>763</ele>
        <time>1970-01-01T04:01:06.000Z</time>
      </trkpt>
      <trkpt lat="42.240826" lon="2.165555">
        <ele>764</ele>
        <time>1970-01-01T04:01:07.000Z</time>
      </trkpt>
      <trkpt lat="42.240899" lon="2.165492">
        <ele>764</ele>
        <time>1970-01-01T04:01:08.000Z</time>
      </trkpt>
      <trkpt lat="42.240933" lon="2.165463">
        <ele>764</ele>
        <time>1970-01-01T04:01:09.000Z</time>
      </trkpt>
      <trkpt lat="42.240967" lon="2.165433">
        <ele>764</ele>
        <time>1970-01-01T04:01:10.000Z</time>
      </trkpt>
      <trkpt lat="42.241001" lon="2.165403">
        <ele>764</ele>
        <time>1970-01-01T04:01:11.000Z</time>
      </trkpt>
      <trkpt lat="42.241035" lon="2.165374">
        <ele>764</ele>
        <time>1970-01-01T04:01:12.000Z</time>
      </trkpt>
      <trkpt lat="42.241069" lon="2.165344">
        <ele>764</ele>
        <time>1970-01-01T04:01:13.000Z</time>
      </trkpt>
      <trkpt lat="42.241103" lon="2.165314">
        <ele>764</ele>
        <time>1970-01-01T04:01:14.000Z</time>
      </trkpt>
      <trkpt lat="42.241137" lon="2.165284">
        <ele>764</ele>
        <time>1970-01-01T04:01:15.000Z</time>
      </trkpt>
      <trkpt lat="42.241171" lon="2.165255">
        <ele>764</ele>
        <time>1970-01-01T04:01:16.000Z</time>
      </trkpt>
      <trkpt lat="42.241205" lon="2.165225">
        <ele>765</ele>
        <time>1970-01-01T04:01:17.000Z</time>
      </trkpt>
      <trkpt lat="42.241278" lon="2.16516">
        <ele>765</ele>
        <time>1970-01-01T04:01:18.000Z</time>
      </trkpt>
      <trkpt lat="42.241313" lon="2.165128">
        <ele>765</ele>
        <time>1970-01-01T04:01:19.000Z</time>
      </trkpt>
      <trkpt lat="42.241349" lon="2.165096">
        <ele>765</ele>
        <time>1970-01-01T04:01:20.000Z</time>
      </trkpt>
      <trkpt lat="42.241384" lon="2.165064">
        <ele>765</ele>
        <time>1970-01-01T04:01:21.000Z</time>
      </trkpt>
      <trkpt lat="42.241419" lon="2.165033">
        <ele>765</ele>
        <time>1970-01-01T04:01:22.000Z</time>
      </trkpt>
      <trkpt lat="42.241454" lon="2.165001">
        <ele>765</ele>
        <time>1970-01-01T04:01:23.000Z</time>
      </trkpt>
      <trkpt lat="42.241489" lon="2.164969">
        <ele>765</ele>
        <time>1970-01-01T04:01:24.000Z</time>
      </trkpt>
      <trkpt lat="42.241525" lon="2.164937">
        <ele>765</ele>
        <time>1970-01-01T04:01:25.000Z</time>
      </trkpt>
      <trkpt lat="42.24156" lon="2.164905">
        <ele>765</ele>
        <time>1970-01-01T04:01:26.000Z</time>
      </trkpt>
      <trkpt lat="42.241595" lon="2.164873">
        <ele>765</ele>
        <time>1970-01-01T04:01:27.000Z</time>
      </trkpt>
      <trkpt lat="42.241681" lon="2.164818">
        <ele>765</ele>
        <time>1970-01-01T04:01:28.000Z</time>
      </trkpt>
      <trkpt lat="42.241726" lon="2.1648">
        <ele>765</ele>
        <time>1970-01-01T04:01:29.000Z</time>
      </trkpt>
      <trkpt lat="42.24177" lon="2.164781">
        <ele>765</ele>
        <time>1970-01-01T04:01:30.000Z</time>
      </trkpt>
      <trkpt lat="42.241815" lon="2.164763">
        <ele>765</ele>
        <time>1970-01-01T04:01:31.000Z</time>
      </trkpt>
      <trkpt lat="42.24186" lon="2.164745">
        <ele>765</ele>
        <time>1970-01-01T04:01:32.000Z</time>
      </trkpt>
      <trkpt lat="42.241905" lon="2.164727">
        <ele>765</ele>
        <time>1970-01-01T04:01:33.000Z</time>
      </trkpt>
      <trkpt lat="42.24195" lon="2.164709">
        <ele>765</ele>
        <time>1970-01-01T04:01:34.000Z</time>
      </trkpt>
      <trkpt lat="42.241994" lon="2.16469">
        <ele>765</ele>
        <time>1970-01-01T04:01:35.000Z</time>
      </trkpt>
      <trkpt lat="42.242039" lon="2.164672">
        <ele>765</ele>
        <time>1970-01-01T04:01:36.000Z</time>
      </trkpt>
      <trkpt lat="42.242084" lon="2.164654">
        <ele>765</ele>
        <time>1970-01-01T04:01:37.000Z</time>
      </trkpt>
      <trkpt lat="42.242185" lon="2.164669">
        <ele>765</ele>
        <time>1970-01-01T04:01:38.000Z</time>
      </trkpt>
      <trkpt lat="42.242232" lon="2.164684">
        <ele>765</ele>
        <time>1970-01-01T04:01:39.000Z</time>
      </trkpt>
      <trkpt lat="42.242278" lon="2.164699">
        <ele>765</ele>
        <time>1970-01-01T04:01:40.000Z</time>
      </trkpt>
      <trkpt lat="42.242325" lon="2.164714">
        <ele>765</ele>
        <time>1970-01-01T04:01:41.000Z</time>
      </trkpt>
      <trkpt lat="42.242372" lon="2.164729">
        <ele>765</ele>
        <time>1970-01-01T04:01:42.000Z</time>
      </trkpt>
      <trkpt lat="42.242419" lon="2.164744">
        <ele>765</ele>
        <time>1970-01-01T04:01:43.000Z</time>
      </trkpt>
      <trkpt lat="42.242466" lon="2.164759">
        <ele>765</ele>
        <time>1970-01-01T04:01:44.000Z</time>
      </trkpt>
      <trkpt lat="42.242512" lon="2.164774">
        <ele>765</ele>
        <time>1970-01-01T04:01:45.000Z</time>
      </trkpt>
      <trkpt lat="42.242559" lon="2.164789">
        <ele>765</ele>
        <time>1970-01-01T04:01:46.000Z</time>
      </trkpt>
      <trkpt lat="42.242606" lon="2.164804">
        <ele>765</ele>
        <time>1970-01-01T04:01:47.000Z</time>
      </trkpt>
      <trkpt lat="42.242708" lon="2.16484">
        <ele>765</ele>
        <time>1970-01-01T04:01:48.000Z</time>
      </trkpt>
      <trkpt lat="42.242756" lon="2.164858">
        <ele>765</ele>
        <time>1970-01-01T04:01:49.000Z</time>
      </trkpt>
      <trkpt lat="42.242804" lon="2.164875">
        <ele>765</ele>
        <time>1970-01-01T04:01:50.000Z</time>
      </trkpt>
      <trkpt lat="42.242852" lon="2.164893">
        <ele>765</ele>
        <time>1970-01-01T04:01:51.000Z</time>
      </trkpt>
      <trkpt lat="42.242901" lon="2.16491">
        <ele>765</ele>
        <time>1970-01-01T04:01:52.000Z</time>
      </trkpt>
      <trkpt lat="42.242949" lon="2.164928">
        <ele>765</ele>
        <time>1970-01-01T04:01:53.000Z</time>
      </trkpt>
      <trkpt lat="42.242997" lon="2.164945">
        <ele>765</ele>
        <time>1970-01-01T04:01:54.000Z</time>
      </trkpt>
      <trkpt lat="42.243045" lon="2.164963">
        <ele>765</ele>
        <time>1970-01-01T04:01:55.000Z</time>
      </trkpt>
      <trkpt lat="42.243093" lon="2.16498">
        <ele>765</ele>
        <time>1970-01-01T04:01:56.000Z</time>
      </trkpt>
      <trkpt lat="42.243141" lon="2.164998">
        <ele>765</ele>
        <time>1970-01-01T04:01:57.000Z</time>
      </trkpt>
      <trkpt lat="42.243246" lon="2.16503">
        <ele>765</ele>
        <time>1970-01-01T04:01:58.000Z</time>
      </trkpt>
      <trkpt lat="42.243297" lon="2.165043">
        <ele>765</ele>
        <time>1970-01-01T04:01:59.000Z</time>
      </trkpt>
      <trkpt lat="42.243347" lon="2.165056">
        <ele>765</ele>
        <time>1970-01-01T04:02:00.000Z</time>
      </trkpt>
      <trkpt lat="42.243398" lon="2.165069">
        <ele>765</ele>
        <time>1970-01-01T04:02:01.000Z</time>
      </trkpt>
      <trkpt lat="42.243448" lon="2.165081">
        <ele>765</ele>
        <time>1970-01-01T04:02:02.000Z</time>
      </trkpt>
      <trkpt lat="42.243498" lon="2.165094">
        <ele>765</ele>
        <time>1970-01-01T04:02:03.000Z</time>
      </trkpt>
      <trkpt lat="42.243549" lon="2.165107">
        <ele>765</ele>
        <time>1970-01-01T04:02:04.000Z</time>
      </trkpt>
      <trkpt lat="42.243599" lon="2.16512">
        <ele>765</ele>
        <time>1970-01-01T04:02:05.000Z</time>
      </trkpt>
      <trkpt lat="42.24365" lon="2.165133">
        <ele>765</ele>
        <time>1970-01-01T04:02:06.000Z</time>
      </trkpt>
      <trkpt lat="42.2437" lon="2.165146">
        <ele>765</ele>
        <time>1970-01-01T04:02:07.000Z</time>
      </trkpt>
      <trkpt lat="42.243807" lon="2.165151">
        <ele>765</ele>
        <time>1970-01-01T04:02:08.000Z</time>
      </trkpt>
      <trkpt lat="42.243858" lon="2.165149">
        <ele>765</ele>
        <time>1970-01-01T04:02:09.000Z</time>
      </trkpt>
      <trkpt lat="42.243908" lon="2.165146">
        <ele>765</ele>
        <time>1970-01-01T04:02:10.000Z</time>
      </trkpt>
      <trkpt lat="42.243959" lon="2.165143">
        <ele>765</ele>
        <time>1970-01-01T04:02:11.000Z</time>
      </trkpt>
      <trkpt lat="42.244009" lon="2.165141">
        <ele>765</ele>
        <time>1970-01-01T04:02:12.000Z</time>
      </trkpt>
      <trkpt lat="42.244059" lon="2.165138">
        <ele>765</ele>
        <time>1970-01-01T04:02:13.000Z</time>
      </trkpt>
      <trkpt lat="42.24411" lon="2.165135">
        <ele>765</ele>
        <time>1970-01-01T04:02:14.000Z</time>
      </trkpt>
      <trkpt lat="42.24416" lon="2.165132">
        <ele>765</ele>
        <time>1970-01-01T04:02:15.000Z</time>
      </trkpt>
      <trkpt lat="42.244211" lon="2.16513">
        <ele>765</ele>
        <time>1970-01-01T04:02:16.000Z</time>
      </trkpt>
      <trkpt lat="42.244261" lon="2.165127">
        <ele>766</ele>
        <time>1970-01-01T04:02:17.000Z</time>
      </trkpt>
      <trkpt lat="42.244357" lon="2.165098">
        <ele>766</ele>
        <time>1970-01-01T04:02:18.000Z</time>
      </trkpt>
      <trkpt lat="42.244401" lon="2.165081">
        <ele>766</ele>
        <time>1970-01-01T04:02:19.000Z</time>
      </trkpt>
      <trkpt lat="42.244446" lon="2.165063">
        <ele>766</ele>
        <time>1970-01-01T04:02:20.000Z</time>
      </trkpt>
      <trkpt lat="42.24449" lon="2.165046">
        <ele>766</ele>
        <time>1970-01-01T04:02:21.000Z</time>
      </trkpt>
      <trkpt lat="42.244535" lon="2.165029">
        <ele>766</ele>
        <time>1970-01-01T04:02:22.000Z</time>
      </trkpt>
      <trkpt lat="42.24458" lon="2.165012">
        <ele>766</ele>
        <time>1970-01-01T04:02:23.000Z</time>
      </trkpt>
      <trkpt lat="42.244624" lon="2.164995">
        <ele>766</ele>
        <time>1970-01-01T04:02:24.000Z</time>
      </trkpt>
      <trkpt lat="42.244669" lon="2.164977">
        <ele>766</ele>
        <time>1970-01-01T04:02:25.000Z</time>
      </trkpt>
      <trkpt lat="42.244713" lon="2.16496">
        <ele>766</ele>
        <time>1970-01-01T04:02:26.000Z</time>
      </trkpt>
      <trkpt lat="42.244758" lon="2.164943">
        <ele>767</ele>
        <time>1970-01-01T04:02:27.000Z</time>
      </trkpt>
      <trkpt lat="42.244848" lon="2.164908">
        <ele>767</ele>
        <time>1970-01-01T04:02:28.000Z</time>
      </trkpt>
      <trkpt lat="42.244891" lon="2.164891">
        <ele>767</ele>
        <time>1970-01-01T04:02:29.000Z</time>
      </trkpt>
      <trkpt lat="42.244935" lon="2.164875">
        <ele>767</ele>
        <time>1970-01-01T04:02:30.000Z</time>
      </trkpt>
      <trkpt lat="42.244978" lon="2.164858">
        <ele>767</ele>
        <time>1970-01-01T04:02:31.000Z</time>
      </trkpt>
      <trkpt lat="42.245021" lon="2.164842">
        <ele>767</ele>
        <time>1970-01-01T04:02:32.000Z</time>
      </trkpt>
      <trkpt lat="42.245064" lon="2.164826">
        <ele>767</ele>
        <time>1970-01-01T04:02:33.000Z</time>
      </trkpt>
      <trkpt lat="42.245107" lon="2.164809">
        <ele>767</ele>
        <time>1970-01-01T04:02:34.000Z</time>
      </trkpt>
      <trkpt lat="42.245151" lon="2.164793">
        <ele>767</ele>
        <time>1970-01-01T04:02:35.000Z</time>
      </trkpt>
      <trkpt lat="42.245194" lon="2.164776">
        <ele>767</ele>
        <time>1970-01-01T04:02:36.000Z</time>
      </trkpt>
      <trkpt lat="42.245237" lon="2.16476">
        <ele>768</ele>
        <time>1970-01-01T04:02:37.000Z</time>
      </trkpt>
      <trkpt lat="42.245318" lon="2.164729">
        <ele>768</ele>
        <time>1970-01-01T04:02:38.000Z</time>
      </trkpt>
      <trkpt lat="42.245353" lon="2.164718">
        <ele>768</ele>
        <time>1970-01-01T04:02:39.000Z</time>
      </trkpt>
      <trkpt lat="42.245389" lon="2.164706">
        <ele>768</ele>
        <time>1970-01-01T04:02:40.000Z</time>
      </trkpt>
      <trkpt lat="42.245424" lon="2.164694">
        <ele>768</ele>
        <time>1970-01-01T04:02:41.000Z</time>
      </trkpt>
      <trkpt lat="42.24546" lon="2.164683">
        <ele>768</ele>
        <time>1970-01-01T04:02:42.000Z</time>
      </trkpt>
      <trkpt lat="42.245496" lon="2.164671">
        <ele>768</ele>
        <time>1970-01-01T04:02:43.000Z</time>
      </trkpt>
      <trkpt lat="42.245531" lon="2.164659">
        <ele>768</ele>
        <time>1970-01-01T04:02:44.000Z</time>
      </trkpt>
      <trkpt lat="42.245567" lon="2.164647">
        <ele>768</ele>
        <time>1970-01-01T04:02:45.000Z</time>
      </trkpt>
      <trkpt lat="42.245602" lon="2.164636">
        <ele>768</ele>
        <time>1970-01-01T04:02:46.000Z</time>
      </trkpt>
      <trkpt lat="42.245638" lon="2.164624">
        <ele>770</ele>
        <time>1970-01-01T04:02:47.000Z</time>
      </trkpt>
      <trkpt lat="42.245715" lon="2.164599">
        <ele>770</ele>
        <time>1970-01-01T04:02:48.000Z</time>
      </trkpt>
      <trkpt lat="42.24575" lon="2.164587">
        <ele>770</ele>
        <time>1970-01-01T04:02:49.000Z</time>
      </trkpt>
      <trkpt lat="42.245786" lon="2.164576">
        <ele>770</ele>
        <time>1970-01-01T04:02:50.000Z</time>
      </trkpt>
      <trkpt lat="42.245822" lon="2.164564">
        <ele>770</ele>
        <time>1970-01-01T04:02:51.000Z</time>
      </trkpt>
      <trkpt lat="42.245858" lon="2.164552">
        <ele>770</ele>
        <time>1970-01-01T04:02:52.000Z</time>
      </trkpt>
      <trkpt lat="42.245893" lon="2.16454">
        <ele>770</ele>
        <time>1970-01-01T04:02:53.000Z</time>
      </trkpt>
      <trkpt lat="42.245929" lon="2.164528">
        <ele>770</ele>
        <time>1970-01-01T04:02:54.000Z</time>
      </trkpt>
      <trkpt lat="42.245965" lon="2.164517">
        <ele>770</ele>
        <time>1970-01-01T04:02:55.000Z</time>
      </trkpt>
      <trkpt lat="42.246" lon="2.164505">
        <ele>770</ele>
        <time>1970-01-01T04:02:56.000Z</time>
      </trkpt>
      <trkpt lat="42.246036" lon="2.164493">
        <ele>772</ele>
        <time>1970-01-01T04:02:57.000Z</time>
      </trkpt>
      <trkpt lat="42.246111" lon="2.164467">
        <ele>772</ele>
        <time>1970-01-01T04:02:58.000Z</time>
      </trkpt>
      <trkpt lat="42.246148" lon="2.164455">
        <ele>772</ele>
        <time>1970-01-01T04:02:59.000Z</time>
      </trkpt>
      <trkpt lat="42.246184" lon="2.164443">
        <ele>772</ele>
        <time>1970-01-01T04:03:00.000Z</time>
      </trkpt>
      <trkpt lat="42.24622" lon="2.164431">
        <ele>772</ele>
        <time>1970-01-01T04:03:01.000Z</time>
      </trkpt>
      <trkpt lat="42.246257" lon="2.164419">
        <ele>772</ele>
        <time>1970-01-01T04:03:02.000Z</time>
      </trkpt>
      <trkpt lat="42.246293" lon="2.164407">
        <ele>772</ele>
        <time>1970-01-01T04:03:03.000Z</time>
      </trkpt>
      <trkpt lat="42.246329" lon="2.164395">
        <ele>772</ele>
        <time>1970-01-01T04:03:04.000Z</time>
      </trkpt>
      <trkpt lat="42.246365" lon="2.164383">
        <ele>772</ele>
        <time>1970-01-01T04:03:05.000Z</time>
      </trkpt>
      <trkpt lat="42.246402" lon="2.164371">
        <ele>772</ele>
        <time>1970-01-01T04:03:06.000Z</time>
      </trkpt>
      <trkpt lat="42.246438" lon="2.164359">
        <ele>773</ele>
        <time>1970-01-01T04:03:07.000Z</time>
      </trkpt>
      <trkpt lat="42.246516" lon="2.164331">
        <ele>773</ele>
        <time>1970-01-01T04:03:08.000Z</time>
      </trkpt>
      <trkpt lat="42.246553" lon="2.164317">
        <ele>773</ele>
        <time>1970-01-01T04:03:09.000Z</time>
      </trkpt>
      <trkpt lat="42.24659" lon="2.164304">
        <ele>773</ele>
        <time>1970-01-01T04:03:10.000Z</time>
      </trkpt>
      <trkpt lat="42.246627" lon="2.16429">
        <ele>773</ele>
        <time>1970-01-01T04:03:11.000Z</time>
      </trkpt>
      <trkpt lat="42.246664" lon="2.164277">
        <ele>773</ele>
        <time>1970-01-01T04:03:12.000Z</time>
      </trkpt>
      <trkpt lat="42.2467" lon="2.164264">
        <ele>773</ele>
        <time>1970-01-01T04:03:13.000Z</time>
      </trkpt>
      <trkpt lat="42.246737" lon="2.16425">
        <ele>773</ele>
        <time>1970-01-01T04:03:14.000Z</time>
      </trkpt>
      <trkpt lat="42.246774" lon="2.164237">
        <ele>773</ele>
        <time>1970-01-01T04:03:15.000Z</time>
      </trkpt>
      <trkpt lat="42.246811" lon="2.164223">
        <ele>773</ele>
        <time>1970-01-01T04:03:16.000Z</time>
      </trkpt>
      <trkpt lat="42.246848" lon="2.16421">
        <ele>773</ele>
        <time>1970-01-01T04:03:17.000Z</time>
      </trkpt>
      <trkpt lat="42.246927" lon="2.164182">
        <ele>773</ele>
        <time>1970-01-01T04:03:18.000Z</time>
      </trkpt>
      <trkpt lat="42.246965" lon="2.164168">
        <ele>773</ele>
        <time>1970-01-01T04:03:19.000Z</time>
      </trkpt>
      <trkpt lat="42.247003" lon="2.164155">
        <ele>773</ele>
        <time>1970-01-01T04:03:20.000Z</time>
      </trkpt>
      <trkpt lat="42.247041" lon="2.164141">
        <ele>773</ele>
        <time>1970-01-01T04:03:21.000Z</time>
      </trkpt>
      <trkpt lat="42.247079" lon="2.164128">
        <ele>773</ele>
        <time>1970-01-01T04:03:22.000Z</time>
      </trkpt>
      <trkpt lat="42.247116" lon="2.164115">
        <ele>773</ele>
        <time>1970-01-01T04:03:23.000Z</time>
      </trkpt>
      <trkpt lat="42.247154" lon="2.164101">
        <ele>773</ele>
        <time>1970-01-01T04:03:24.000Z</time>
      </trkpt>
      <trkpt lat="42.247192" lon="2.164088">
        <ele>773</ele>
        <time>1970-01-01T04:03:25.000Z</time>
      </trkpt>
      <trkpt lat="42.24723" lon="2.164074">
        <ele>773</ele>
        <time>1970-01-01T04:03:26.000Z</time>
      </trkpt>
      <trkpt lat="42.247268" lon="2.164061">
        <ele>774</ele>
        <time>1970-01-01T04:03:27.000Z</time>
      </trkpt>
      <trkpt lat="42.247347" lon="2.164049">
        <ele>774</ele>
        <time>1970-01-01T04:03:28.000Z</time>
      </trkpt>
      <trkpt lat="42.247384" lon="2.164051">
        <ele>774</ele>
        <time>1970-01-01T04:03:29.000Z</time>
      </trkpt>
      <trkpt lat="42.247422" lon="2.164054">
        <ele>774</ele>
        <time>1970-01-01T04:03:30.000Z</time>
      </trkpt>
      <trkpt lat="42.247459" lon="2.164056">
        <ele>774</ele>
        <time>1970-01-01T04:03:31.000Z</time>
      </trkpt>
      <trkpt lat="42.247496" lon="2.164058">
        <ele>774</ele>
        <time>1970-01-01T04:03:32.000Z</time>
      </trkpt>
      <trkpt lat="42.247533" lon="2.16406">
        <ele>774</ele>
        <time>1970-01-01T04:03:33.000Z</time>
      </trkpt>
      <trkpt lat="42.24757" lon="2.164062">
        <ele>774</ele>
        <time>1970-01-01T04:03:34.000Z</time>
      </trkpt>
      <trkpt lat="42.247608" lon="2.164065">
        <ele>774</ele>
        <time>1970-01-01T04:03:35.000Z</time>
      </trkpt>
      <trkpt lat="42.247645" lon="2.164067">
        <ele>774</ele>
        <time>1970-01-01T04:03:36.000Z</time>
      </trkpt>
      <trkpt lat="42.247682" lon="2.164069">
        <ele>776</ele>
        <time>1970-01-01T04:03:37.000Z</time>
      </trkpt>
      <trkpt lat="42.247758" lon="2.164105">
        <ele>776</ele>
        <time>1970-01-01T04:03:38.000Z</time>
      </trkpt>
      <trkpt lat="42.247795" lon="2.164124">
        <ele>776</ele>
        <time>1970-01-01T04:03:39.000Z</time>
      </trkpt>
      <trkpt lat="42.247832" lon="2.164142">
        <ele>776</ele>
        <time>1970-01-01T04:03:40.000Z</time>
      </trkpt>
      <trkpt lat="42.247869" lon="2.164161">
        <ele>776</ele>
        <time>1970-01-01T04:03:41.000Z</time>
      </trkpt>
      <trkpt lat="42.247906" lon="2.16418">
        <ele>776</ele>
        <time>1970-01-01T04:03:42.000Z</time>
      </trkpt>
      <trkpt lat="42.247943" lon="2.164199">
        <ele>776</ele>
        <time>1970-01-01T04:03:43.000Z</time>
      </trkpt>
      <trkpt lat="42.24798" lon="2.164218">
        <ele>776</ele>
        <time>1970-01-01T04:03:44.000Z</time>
      </trkpt>
      <trkpt lat="42.248017" lon="2.164236">
        <ele>776</ele>
        <time>1970-01-01T04:03:45.000Z</time>
      </trkpt>
      <trkpt lat="42.248054" lon="2.164255">
        <ele>776</ele>
        <time>1970-01-01T04:03:46.000Z</time>
      </trkpt>
      <trkpt lat="42.248091" lon="2.164274">
        <ele>777</ele>
        <time>1970-01-01T04:03:47.000Z</time>
      </trkpt>
      <trkpt lat="42.248169" lon="2.164304">
        <ele>777</ele>
        <time>1970-01-01T04:03:48.000Z</time>
      </trkpt>
      <trkpt lat="42.248207" lon="2.164314">
        <ele>777</ele>
        <time>1970-01-01T04:03:49.000Z</time>
      </trkpt>
      <trkpt lat="42.248244" lon="2.164324">
        <ele>777</ele>
        <time>1970-01-01T04:03:50.000Z</time>
      </trkpt>
      <trkpt lat="42.248282" lon="2.164334">
        <ele>777</ele>
        <time>1970-01-01T04:03:51.000Z</time>
      </trkpt>
      <trkpt lat="42.248319" lon="2.164344">
        <ele>777</ele>
        <time>1970-01-01T04:03:52.000Z</time>
      </trkpt>
      <trkpt lat="42.248356" lon="2.164354">
        <ele>777</ele>
        <time>1970-01-01T04:03:53.000Z</time>
      </trkpt>
      <trkpt lat="42.248394" lon="2.164364">
        <ele>777</ele>
        <time>1970-01-01T04:03:54.000Z</time>
      </trkpt>
      <trkpt lat="42.248431" lon="2.164374">
        <ele>777</ele>
        <time>1970-01-01T04:03:55.000Z</time>
      </trkpt>
      <trkpt lat="42.248469" lon="2.164384">
        <ele>777</ele>
        <time>1970-01-01T04:03:56.000Z</time>
      </trkpt>
      <trkpt lat="42.248506" lon="2.164394">
        <ele>779</ele>
        <time>1970-01-01T04:03:57.000Z</time>
      </trkpt>
      <trkpt lat="42.248586" lon="2.164412">
        <ele>779</ele>
        <time>1970-01-01T04:03:58.000Z</time>
      </trkpt>
      <trkpt lat="42.248623" lon="2.164425">
        <ele>779</ele>
        <time>1970-01-01T04:03:59.000Z</time>
      </trkpt>
      <trkpt lat="42.248661" lon="2.164439">
        <ele>779</ele>
        <time>1970-01-01T04:04:00.000Z</time>
      </trkpt>
      <trkpt lat="42.248699" lon="2.164452">
        <ele>779</ele>
        <time>1970-01-01T04:04:01.000Z</time>
      </trkpt>
      <trkpt lat="42.248737" lon="2.164465">
        <ele>779</ele>
        <time>1970-01-01T04:04:02.000Z</time>
      </trkpt>
      <trkpt lat="42.248774" lon="2.164478">
        <ele>779</ele>
        <time>1970-01-01T04:04:03.000Z</time>
      </trkpt>
      <trkpt lat="42.248812" lon="2.164491">
        <ele>779</ele>
        <time>1970-01-01T04:04:04.000Z</time>
      </trkpt>
      <trkpt lat="42.24885" lon="2.164505">
        <ele>779</ele>
        <time>1970-01-01T04:04:05.000Z</time>
      </trkpt>
      <trkpt lat="42.248887" lon="2.164518">
        <ele>779</ele>
        <time>1970-01-01T04:04:06.000Z</time>
      </trkpt>
      <trkpt lat="42.248925" lon="2.164531">
        <ele>780</ele>
        <time>1970-01-01T04:04:07.000Z</time>
      </trkpt>
      <trkpt lat="42.248994" lon="2.164595">
        <ele>780</ele>
        <time>1970-01-01T04:04:08.000Z</time>
      </trkpt>
      <trkpt lat="42.249025" lon="2.164632">
        <ele>780</ele>
        <time>1970-01-01T04:04:09.000Z</time>
      </trkpt>
      <trkpt lat="42.249055" lon="2.164669">
        <ele>780</ele>
        <time>1970-01-01T04:04:10.000Z</time>
      </trkpt>
      <trkpt lat="42.249086" lon="2.164706">
        <ele>780</ele>
        <time>1970-01-01T04:04:11.000Z</time>
      </trkpt>
      <trkpt lat="42.249116" lon="2.164743">
        <ele>780</ele>
        <time>1970-01-01T04:04:12.000Z</time>
      </trkpt>
      <trkpt lat="42.249146" lon="2.164781">
        <ele>780</ele>
        <time>1970-01-01T04:04:13.000Z</time>
      </trkpt>
      <trkpt lat="42.249177" lon="2.164818">
        <ele>780</ele>
        <time>1970-01-01T04:04:14.000Z</time>
      </trkpt>
      <trkpt lat="42.249207" lon="2.164855">
        <ele>780</ele>
        <time>1970-01-01T04:04:15.000Z</time>
      </trkpt>
      <trkpt lat="42.249238" lon="2.164892">
        <ele>780</ele>
        <time>1970-01-01T04:04:16.000Z</time>
      </trkpt>
      <trkpt lat="42.249268" lon="2.164929">
        <ele>781</ele>
        <time>1970-01-01T04:04:17.000Z</time>
      </trkpt>
      <trkpt lat="42.249317" lon="2.165035">
        <ele>781</ele>
        <time>1970-01-01T04:04:18.000Z</time>
      </trkpt>
      <trkpt lat="42.249342" lon="2.165085">
        <ele>781</ele>
        <time>1970-01-01T04:04:19.000Z</time>
      </trkpt>
      <trkpt lat="42.249367" lon="2.165135">
        <ele>781</ele>
        <time>1970-01-01T04:04:20.000Z</time>
      </trkpt>
      <trkpt lat="42.249392" lon="2.165185">
        <ele>781</ele>
        <time>1970-01-01T04:04:21.000Z</time>
      </trkpt>
      <trkpt lat="42.249417" lon="2.165235">
        <ele>781</ele>
        <time>1970-01-01T04:04:22.000Z</time>
      </trkpt>
      <trkpt lat="42.249441" lon="2.165285">
        <ele>781</ele>
        <time>1970-01-01T04:04:23.000Z</time>
      </trkpt>
      <trkpt lat="42.249466" lon="2.165335">
        <ele>781</ele>
        <time>1970-01-01T04:04:24.000Z</time>
      </trkpt>
      <trkpt lat="42.249491" lon="2.165385">
        <ele>781</ele>
        <time>1970-01-01T04:04:25.000Z</time>
      </trkpt>
      <trkpt lat="42.249516" lon="2.165435">
        <ele>781</ele>
        <time>1970-01-01T04:04:26.000Z</time>
      </trkpt>
      <trkpt lat="42.249541" lon="2.165485">
        <ele>781</ele>
        <time>1970-01-01T04:04:27.000Z</time>
      </trkpt>
      <trkpt lat="42.249623" lon="2.165564">
        <ele>781</ele>
        <time>1970-01-01T04:04:28.000Z</time>
      </trkpt>
      <trkpt lat="42.24967" lon="2.165593">
        <ele>781</ele>
        <time>1970-01-01T04:04:29.000Z</time>
      </trkpt>
      <trkpt lat="42.249717" lon="2.165623">
        <ele>781</ele>
        <time>1970-01-01T04:04:30.000Z</time>
      </trkpt>
      <trkpt lat="42.249764" lon="2.165652">
        <ele>781</ele>
        <time>1970-01-01T04:04:31.000Z</time>
      </trkpt>
      <trkpt lat="42.249811" lon="2.165681">
        <ele>781</ele>
        <time>1970-01-01T04:04:32.000Z</time>
      </trkpt>
      <trkpt lat="42.249858" lon="2.16571">
        <ele>781</ele>
        <time>1970-01-01T04:04:33.000Z</time>
      </trkpt>
      <trkpt lat="42.249905" lon="2.165739">
        <ele>781</ele>
        <time>1970-01-01T04:04:34.000Z</time>
      </trkpt>
      <trkpt lat="42.249952" lon="2.165769">
        <ele>781</ele>
        <time>1970-01-01T04:04:35.000Z</time>
      </trkpt>
      <trkpt lat="42.249999" lon="2.165798">
        <ele>781</ele>
        <time>1970-01-01T04:04:36.000Z</time>
      </trkpt>
      <trkpt lat="42.250046" lon="2.165827">
        <ele>781</ele>
        <time>1970-01-01T04:04:37.000Z</time>
      </trkpt>
      <trkpt lat="42.250141" lon="2.16585">
        <ele>781</ele>
        <time>1970-01-01T04:04:38.000Z</time>
      </trkpt>
      <trkpt lat="42.250184" lon="2.165851">
        <ele>781</ele>
        <time>1970-01-01T04:04:39.000Z</time>
      </trkpt>
      <trkpt lat="42.250226" lon="2.165851">
        <ele>781</ele>
        <time>1970-01-01T04:04:40.000Z</time>
      </trkpt>
      <trkpt lat="42.250269" lon="2.165852">
        <ele>781</ele>
        <time>1970-01-01T04:04:41.000Z</time>
      </trkpt>
      <trkpt lat="42.250311" lon="2.165852">
        <ele>781</ele>
        <time>1970-01-01T04:04:42.000Z</time>
      </trkpt>
      <trkpt lat="42.250353" lon="2.165852">
        <ele>781</ele>
        <time>1970-01-01T04:04:43.000Z</time>
      </trkpt>
      <trkpt lat="42.250396" lon="2.165853">
        <ele>781</ele>
        <time>1970-01-01T04:04:44.000Z</time>
      </trkpt>
      <trkpt lat="42.250438" lon="2.165853">
        <ele>781</ele>
        <time>1970-01-01T04:04:45.000Z</time>
      </trkpt>
      <trkpt lat="42.250481" lon="2.165854">
        <ele>781</ele>
        <time>1970-01-01T04:04:46.000Z</time>
      </trkpt>
      <trkpt lat="42.250523" lon="2.165854">
        <ele>782</ele>
        <time>1970-01-01T04:04:47.000Z</time>
      </trkpt>
      <trkpt lat="42.250587" lon="2.165821">
        <ele>782</ele>
        <time>1970-01-01T04:04:48.000Z</time>
      </trkpt>
      <trkpt lat="42.250611" lon="2.165801">
        <ele>782</ele>
        <time>1970-01-01T04:04:49.000Z</time>
      </trkpt>
      <trkpt lat="42.250636" lon="2.165782">
        <ele>782</ele>
        <time>1970-01-01T04:04:50.000Z</time>
      </trkpt>
      <trkpt lat="42.250661" lon="2.165762">
        <ele>782</ele>
        <time>1970-01-01T04:04:51.000Z</time>
      </trkpt>
      <trkpt lat="42.250686" lon="2.165742">
        <ele>782</ele>
        <time>1970-01-01T04:04:52.000Z</time>
      </trkpt>
      <trkpt lat="42.25071" lon="2.165722">
        <ele>782</ele>
        <time>1970-01-01T04:04:53.000Z</time>
      </trkpt>
      <trkpt lat="42.250735" lon="2.165702">
        <ele>782</ele>
        <time>1970-01-01T04:04:54.000Z</time>
      </trkpt>
      <trkpt lat="42.25076" lon="2.165683">
        <ele>782</ele>
        <time>1970-01-01T04:04:55.000Z</time>
      </trkpt>
      <trkpt lat="42.250784" lon="2.165663">
        <ele>782</ele>
        <time>1970-01-01T04:04:56.000Z</time>
      </trkpt>
      <trkpt lat="42.250809" lon="2.165643">
        <ele>782</ele>
        <time>1970-01-01T04:04:57.000Z</time>
      </trkpt>
      <trkpt lat="42.250861" lon="2.165583">
        <ele>782</ele>
        <time>1970-01-01T04:04:58.000Z</time>
      </trkpt>
      <trkpt lat="42.250888" lon="2.165547">
        <ele>782</ele>
        <time>1970-01-01T04:04:59.000Z</time>
      </trkpt>
      <trkpt lat="42.250915" lon="2.165511">
        <ele>782</ele>
        <time>1970-01-01T04:05:00.000Z</time>
      </trkpt>
      <trkpt lat="42.250942" lon="2.165475">
        <ele>782</ele>
        <time>1970-01-01T04:05:01.000Z</time>
      </trkpt>
      <trkpt lat="42.250969" lon="2.165439">
        <ele>782</ele>
        <time>1970-01-01T04:05:02.000Z</time>
      </trkpt>
      <trkpt lat="42.250995" lon="2.165402">
        <ele>782</ele>
        <time>1970-01-01T04:05:03.000Z</time>
      </trkpt>
      <trkpt lat="42.251022" lon="2.165366">
        <ele>782</ele>
        <time>1970-01-01T04:05:04.000Z</time>
      </trkpt>
      <trkpt lat="42.251049" lon="2.16533">
        <ele>782</ele>
        <time>1970-01-01T04:05:05.000Z</time>
      </trkpt>
      <trkpt lat="42.251076" lon="2.165294">
        <ele>782</ele>
        <time>1970-01-01T04:05:06.000Z</time>
      </trkpt>
      <trkpt lat="42.251103" lon="2.165258">
        <ele>782</ele>
        <time>1970-01-01T04:05:07.000Z</time>
      </trkpt>
      <trkpt lat="42.251163" lon="2.165171">
        <ele>782</ele>
        <time>1970-01-01T04:05:08.000Z</time>
      </trkpt>
      <trkpt lat="42.251192" lon="2.165128">
        <ele>782</ele>
        <time>1970-01-01T04:05:09.000Z</time>
      </trkpt>
      <trkpt lat="42.251221" lon="2.165086">
        <ele>782</ele>
        <time>1970-01-01T04:05:10.000Z</time>
      </trkpt>
      <trkpt lat="42.25125" lon="2.165043">
        <ele>782</ele>
        <time>1970-01-01T04:05:11.000Z</time>
      </trkpt>
      <trkpt lat="42.251279" lon="2.165001">
        <ele>782</ele>
        <time>1970-01-01T04:05:12.000Z</time>
      </trkpt>
      <trkpt lat="42.251308" lon="2.164959">
        <ele>782</ele>
        <time>1970-01-01T04:05:13.000Z</time>
      </trkpt>
      <trkpt lat="42.251337" lon="2.164916">
        <ele>782</ele>
        <time>1970-01-01T04:05:14.000Z</time>
      </trkpt>
      <trkpt lat="42.251366" lon="2.164874">
        <ele>782</ele>
        <time>1970-01-01T04:05:15.000Z</time>
      </trkpt>
      <trkpt lat="42.251395" lon="2.164831">
        <ele>782</ele>
        <time>1970-01-01T04:05:16.000Z</time>
      </trkpt>
      <trkpt lat="42.251424" lon="2.164789">
        <ele>782</ele>
        <time>1970-01-01T04:05:17.000Z</time>
      </trkpt>
      <trkpt lat="42.251486" lon="2.1647">
        <ele>782</ele>
        <time>1970-01-01T04:05:18.000Z</time>
      </trkpt>
      <trkpt lat="42.251515" lon="2.164659">
        <ele>782</ele>
        <time>1970-01-01T04:05:19.000Z</time>
      </trkpt>
      <trkpt lat="42.251545" lon="2.164617">
        <ele>782</ele>
        <time>1970-01-01T04:05:20.000Z</time>
      </trkpt>
      <trkpt lat="42.251574" lon="2.164576">
        <ele>782</ele>
        <time>1970-01-01T04:05:21.000Z</time>
      </trkpt>
      <trkpt lat="42.251604" lon="2.164535">
        <ele>782</ele>
        <time>1970-01-01T04:05:22.000Z</time>
      </trkpt>
      <trkpt lat="42.251633" lon="2.164494">
        <ele>782</ele>
        <time>1970-01-01T04:05:23.000Z</time>
      </trkpt>
      <trkpt lat="42.251663" lon="2.164453">
        <ele>782</ele>
        <time>1970-01-01T04:05:24.000Z</time>
      </trkpt>
      <trkpt lat="42.251692" lon="2.164411">
        <ele>782</ele>
        <time>1970-01-01T04:05:25.000Z</time>
      </trkpt>
      <trkpt lat="42.251722" lon="2.16437">
        <ele>782</ele>
        <time>1970-01-01T04:05:26.000Z</time>
      </trkpt>
      <trkpt lat="42.251751" lon="2.164329">
        <ele>784</ele>
        <time>1970-01-01T04:05:27.000Z</time>
      </trkpt>
      <trkpt lat="42.251834" lon="2.164267">
        <ele>784</ele>
        <time>1970-01-01T04:05:28.000Z</time>
      </trkpt>
      <trkpt lat="42.251881" lon="2.164245">
        <ele>784</ele>
        <time>1970-01-01T04:05:29.000Z</time>
      </trkpt>
      <trkpt lat="42.251928" lon="2.164224">
        <ele>784</ele>
        <time>1970-01-01T04:05:30.000Z</time>
      </trkpt>
      <trkpt lat="42.251976" lon="2.164203">
        <ele>784</ele>
        <time>1970-01-01T04:05:31.000Z</time>
      </trkpt>
      <trkpt lat="42.252023" lon="2.164181">
        <ele>784</ele>
        <time>1970-01-01T04:05:34.000Z</time>
      </trkpt>
      <trkpt lat="42.25207" lon="2.16416">
        <ele>784</ele>
        <time>1970-01-01T04:05:35.000Z</time>
      </trkpt>
      <trkpt lat="42.252117" lon="2.164138">
        <ele>784</ele>
        <time>1970-01-01T04:05:36.000Z</time>
      </trkpt>
      <trkpt lat="42.252164" lon="2.164117">
        <ele>785</ele>
        <time>1970-01-01T04:05:37.000Z</time>
      </trkpt>
      <trkpt lat="42.252262" lon="2.164152">
        <ele>785</ele>
        <time>1970-01-01T04:05:38.000Z</time>
      </trkpt>
      <trkpt lat="42.252314" lon="2.164183">
        <ele>785</ele>
        <time>1970-01-01T04:05:39.000Z</time>
      </trkpt>
      <trkpt lat="42.252366" lon="2.164214">
        <ele>785</ele>
        <time>1970-01-01T04:05:41.000Z</time>
      </trkpt>
      <trkpt lat="42.252419" lon="2.164244">
        <ele>785</ele>
        <time>1970-01-01T04:05:43.000Z</time>
      </trkpt>
      <trkpt lat="42.252471" lon="2.164275">
        <ele>785</ele>
        <time>1970-01-01T04:05:44.000Z</time>
      </trkpt>
      <trkpt lat="42.252523" lon="2.164306">
        <ele>785</ele>
        <time>1970-01-01T04:05:45.000Z</time>
      </trkpt>
      <trkpt lat="42.252575" lon="2.164337">
        <ele>785</ele>
        <time>1970-01-01T04:05:46.000Z</time>
      </trkpt>
      <trkpt lat="42.252627" lon="2.164368">
        <ele>785</ele>
        <time>1970-01-01T04:05:47.000Z</time>
      </trkpt>
      <trkpt lat="42.252733" lon="2.164485">
        <ele>785</ele>
        <time>1970-01-01T04:05:48.000Z</time>
      </trkpt>
      <trkpt lat="42.2528" lon="2.164561">
        <ele>785</ele>
        <time>1970-01-01T04:05:50.000Z</time>
      </trkpt>
      <trkpt lat="42.252868" lon="2.164637">
        <ele>785</ele>
        <time>1970-01-01T04:05:52.000Z</time>
      </trkpt>
      <trkpt lat="42.252935" lon="2.164713">
        <ele>785</ele>
        <time>1970-01-01T04:05:55.000Z</time>
      </trkpt>
      <trkpt lat="42.253002" lon="2.164789">
        <ele>786</ele>
        <time>1970-01-01T04:05:57.000Z</time>
      </trkpt>
      <trkpt lat="42.253129" lon="2.164955">
        <ele>786</ele>
        <time>1970-01-01T04:05:59.000Z</time>
      </trkpt>
      <trkpt lat="42.253187" lon="2.165035">
        <ele>786</ele>
        <time>1970-01-01T04:06:01.000Z</time>
      </trkpt>
      <trkpt lat="42.253244" lon="2.165114">
        <ele>786</ele>
        <time>1970-01-01T04:06:04.000Z</time>
      </trkpt>
      <trkpt lat="42.253301" lon="2.165194">
        <ele>786</ele>
        <time>1970-01-01T04:06:07.000Z</time>
      </trkpt>
      <trkpt lat="42.253481" lon="2.165311">
        <ele>786</ele>
        <time>1970-01-01T04:06:10.000Z</time>
      </trkpt>
      <trkpt lat="42.25356" lon="2.165341">
        <ele>786</ele>
        <time>1970-01-01T04:06:12.000Z</time>
      </trkpt>
      <trkpt lat="42.253638" lon="2.165372">
        <ele>786</ele>
        <time>1970-01-01T04:06:15.000Z</time>
      </trkpt>
      <trkpt lat="42.253716" lon="2.165402">
        <ele>788</ele>
        <time>1970-01-01T04:06:17.000Z</time>
      </trkpt>
      <trkpt lat="42.253845" lon="2.165466">
        <ele>788</ele>
        <time>1970-01-01T04:06:18.000Z</time>
      </trkpt>
      <trkpt lat="42.253934" lon="2.165514">
        <ele>788</ele>
        <time>1970-01-01T04:06:21.000Z</time>
      </trkpt>
      <trkpt lat="42.254022" lon="2.165562">
        <ele>788</ele>
        <time>1970-01-01T04:06:24.000Z</time>
      </trkpt>
      <trkpt lat="42.254111" lon="2.16561">
        <ele>788</ele>
        <time>1970-01-01T04:06:27.000Z</time>
      </trkpt>
      <trkpt lat="42.25431" lon="2.165628">
        <ele>788</ele>
        <time>1970-01-01T04:06:30.000Z</time>
      </trkpt>
      <trkpt lat="42.254385" lon="2.16563">
        <ele>788</ele>
        <time>1970-01-01T04:06:32.000Z</time>
      </trkpt>
      <trkpt lat="42.254459" lon="2.165632">
        <ele>788</ele>
        <time>1970-01-01T04:06:35.000Z</time>
      </trkpt>
      <trkpt lat="42.254533" lon="2.165634">
        <ele>790</ele>
        <time>1970-01-01T04:06:37.000Z</time>
      </trkpt>
      <trkpt lat="42.254604" lon="2.165633">
        <ele>790</ele>
        <time>1970-01-01T04:06:38.000Z</time>
      </trkpt>
      <trkpt lat="42.254638" lon="2.165632">
        <ele>790</ele>
        <time>1970-01-01T04:06:39.000Z</time>
      </trkpt>
      <trkpt lat="42.254671" lon="2.16563">
        <ele>790</ele>
        <time>1970-01-01T04:06:40.000Z</time>
      </trkpt>
      <trkpt lat="42.254704" lon="2.165629">
        <ele>790</ele>
        <time>1970-01-01T04:06:41.000Z</time>
      </trkpt>
      <trkpt lat="42.254738" lon="2.165628">
        <ele>790</ele>
        <time>1970-01-01T04:06:42.000Z</time>
      </trkpt>
      <trkpt lat="42.254771" lon="2.165627">
        <ele>790</ele>
        <time>1970-01-01T04:06:43.000Z</time>
      </trkpt>
      <trkpt lat="42.254804" lon="2.165625">
        <ele>790</ele>
        <time>1970-01-01T04:06:44.000Z</time>
      </trkpt>
      <trkpt lat="42.254838" lon="2.165624">
        <ele>790</ele>
        <time>1970-01-01T04:06:45.000Z</time>
      </trkpt>
      <trkpt lat="42.254871" lon="2.165623">
        <ele>791</ele>
        <time>1970-01-01T04:06:47.000Z</time>
      </trkpt>
      <trkpt lat="42.254942" lon="2.16562">
        <ele>791</ele>
        <time>1970-01-01T04:06:48.000Z</time>
      </trkpt>
      <trkpt lat="42.254979" lon="2.165616">
        <ele>791</ele>
        <time>1970-01-01T04:06:51.000Z</time>
      </trkpt>
      <trkpt lat="42.255015" lon="2.165611">
        <ele>791</ele>
        <time>1970-01-01T04:06:52.000Z</time>
      </trkpt>
      <trkpt lat="42.255052" lon="2.165606">
        <ele>791</ele>
        <time>1970-01-01T04:06:53.000Z</time>
      </trkpt>
      <trkpt lat="42.255088" lon="2.165601">
        <ele>791</ele>
        <time>1970-01-01T04:06:54.000Z</time>
      </trkpt>
      <trkpt lat="42.255124" lon="2.165597">
        <ele>791</ele>
        <time>1970-01-01T04:06:55.000Z</time>
      </trkpt>
      <trkpt lat="42.255161" lon="2.165592">
        <ele>791</ele>
        <time>1970-01-01T04:06:56.000Z</time>
      </trkpt>
      <trkpt lat="42.255197" lon="2.165587">
        <ele>794</ele>
        <time>1970-01-01T04:06:57.000Z</time>
      </trkpt>
      <trkpt lat="42.255268" lon="2.165553">
        <ele>794</ele>
        <time>1970-01-01T04:06:58.000Z</time>
      </trkpt>
      <trkpt lat="42.255306" lon="2.165528">
        <ele>794</ele>
        <time>1970-01-01T04:06:59.000Z</time>
      </trkpt>
      <trkpt lat="42.255344" lon="2.165504">
        <ele>794</ele>
        <time>1970-01-01T04:07:00.000Z</time>
      </trkpt>
      <trkpt lat="42.255381" lon="2.16548">
        <ele>794</ele>
        <time>1970-01-01T04:07:02.000Z</time>
      </trkpt>
      <trkpt lat="42.255419" lon="2.165455">
        <ele>794</ele>
        <time>1970-01-01T04:07:05.000Z</time>
      </trkpt>
      <trkpt lat="42.255457" lon="2.165431">
        <ele>794</ele>
        <time>1970-01-01T04:07:07.000Z</time>
      </trkpt>
      <trkpt lat="42.255589" lon="2.165328">
        <ele>794</ele>
        <time>1970-01-01T04:07:08.000Z</time>
      </trkpt>
      <trkpt lat="42.255628" lon="2.165292">
        <ele>794</ele>
        <time>1970-01-01T04:07:11.000Z</time>
      </trkpt>
      <trkpt lat="42.255668" lon="2.165255">
        <ele>794</ele>
        <time>1970-01-01T04:07:13.000Z</time>
      </trkpt>
      <trkpt lat="42.255708" lon="2.165218">
        <ele>794</ele>
        <time>1970-01-01T04:07:14.000Z</time>
      </trkpt>
      <trkpt lat="42.255748" lon="2.165181">
        <ele>794</ele>
        <time>1970-01-01T04:07:15.000Z</time>
      </trkpt>
      <trkpt lat="42.255787" lon="2.165145">
        <ele>794</ele>
        <time>1970-01-01T04:07:16.000Z</time>
      </trkpt>
      <trkpt lat="42.255827" lon="2.165108">
        <ele>794</ele>
        <time>1970-01-01T04:07:17.000Z</time>
      </trkpt>
      <trkpt lat="42.255912" lon="2.165017">
        <ele>794</ele>
        <time>1970-01-01T04:07:18.000Z</time>
      </trkpt>
      <trkpt lat="42.255963" lon="2.164962">
        <ele>794</ele>
        <time>1970-01-01T04:07:19.000Z</time>
      </trkpt>
      <trkpt lat="42.256014" lon="2.164906">
        <ele>794</ele>
        <time>1970-01-01T04:07:21.000Z</time>
      </trkpt>
      <trkpt lat="42.256064" lon="2.16485">
        <ele>794</ele>
        <time>1970-01-01T04:07:24.000Z</time>
      </trkpt>
      <trkpt lat="42.256115" lon="2.164795">
        <ele>794</ele>
        <time>1970-01-01T04:07:25.000Z</time>
      </trkpt>
      <trkpt lat="42.256166" lon="2.164739">
        <ele>794</ele>
        <time>1970-01-01T04:07:27.000Z</time>
      </trkpt>
      <trkpt lat="42.256311" lon="2.16462">
        <ele>794</ele>
        <time>1970-01-01T04:07:29.000Z</time>
      </trkpt>
      <trkpt lat="42.256382" lon="2.164577">
        <ele>794</ele>
        <time>1970-01-01T04:07:31.000Z</time>
      </trkpt>
      <trkpt lat="42.256454" lon="2.164535">
        <ele>794</ele>
        <time>1970-01-01T04:07:33.000Z</time>
      </trkpt>
      <trkpt lat="42.256525" lon="2.164492">
        <ele>794</ele>
        <time>1970-01-01T04:07:35.000Z</time>
      </trkpt>
      <trkpt lat="42.256596" lon="2.16445">
        <ele>794</ele>
        <time>1970-01-01T04:07:37.000Z</time>
      </trkpt>
      <trkpt lat="42.256761" lon="2.164446">
        <ele>794</ele>
        <time>1970-01-01T04:07:39.000Z</time>
      </trkpt>
      <trkpt lat="42.256822" lon="2.164464">
        <ele>794</ele>
        <time>1970-01-01T04:07:40.000Z</time>
      </trkpt>
      <trkpt lat="42.256884" lon="2.164483">
        <ele>794</ele>
        <time>1970-01-01T04:07:42.000Z</time>
      </trkpt>
      <trkpt lat="42.256945" lon="2.164502">
        <ele>794</ele>
        <time>1970-01-01T04:07:44.000Z</time>
      </trkpt>
      <trkpt lat="42.257007" lon="2.16452">
        <ele>794</ele>
        <time>1970-01-01T04:07:45.000Z</time>
      </trkpt>
      <trkpt lat="42.257068" lon="2.164539">
        <ele>796</ele>
        <time>1970-01-01T04:07:47.000Z</time>
      </trkpt>
      <trkpt lat="42.257185" lon="2.164612">
        <ele>796</ele>
        <time>1970-01-01T04:07:49.000Z</time>
      </trkpt>
      <trkpt lat="42.257214" lon="2.164641">
        <ele>796</ele>
        <time>1970-01-01T04:07:50.000Z</time>
      </trkpt>
      <trkpt lat="42.257243" lon="2.16467">
        <ele>796</ele>
        <time>1970-01-01T04:07:51.000Z</time>
      </trkpt>
      <trkpt lat="42.257272" lon="2.164699">
        <ele>796</ele>
        <time>1970-01-01T04:07:52.000Z</time>
      </trkpt>
      <trkpt lat="42.257302" lon="2.164727">
        <ele>796</ele>
        <time>1970-01-01T04:07:53.000Z</time>
      </trkpt>
      <trkpt lat="42.257331" lon="2.164756">
        <ele>796</ele>
        <time>1970-01-01T04:07:54.000Z</time>
      </trkpt>
      <trkpt lat="42.25736" lon="2.164785">
        <ele>796</ele>
        <time>1970-01-01T04:07:55.000Z</time>
      </trkpt>
      <trkpt lat="42.257389" lon="2.164814">
        <ele>796</ele>
        <time>1970-01-01T04:07:56.000Z</time>
      </trkpt>
      <trkpt lat="42.257418" lon="2.164843">
        <ele>797</ele>
        <time>1970-01-01T04:07:57.000Z</time>
      </trkpt>
      <trkpt lat="42.25747" lon="2.164922">
        <ele>797</ele>
        <time>1970-01-01T04:07:58.000Z</time>
      </trkpt>
      <trkpt lat="42.257494" lon="2.164961">
        <ele>797</ele>
        <time>1970-01-01T04:07:59.000Z</time>
      </trkpt>
      <trkpt lat="42.257517" lon="2.165001">
        <ele>797</ele>
        <time>1970-01-01T04:08:00.000Z</time>
      </trkpt>
      <trkpt lat="42.25754" lon="2.16504">
        <ele>797</ele>
        <time>1970-01-01T04:08:01.000Z</time>
      </trkpt>
      <trkpt lat="42.257564" lon="2.16508">
        <ele>797</ele>
        <time>1970-01-01T04:08:02.000Z</time>
      </trkpt>
      <trkpt lat="42.257587" lon="2.16512">
        <ele>797</ele>
        <time>1970-01-01T04:08:03.000Z</time>
      </trkpt>
      <trkpt lat="42.25761" lon="2.165159">
        <ele>797</ele>
        <time>1970-01-01T04:08:04.000Z</time>
      </trkpt>
      <trkpt lat="42.257633" lon="2.165199">
        <ele>797</ele>
        <time>1970-01-01T04:08:05.000Z</time>
      </trkpt>
      <trkpt lat="42.257657" lon="2.165238">
        <ele>797</ele>
        <time>1970-01-01T04:08:06.000Z</time>
      </trkpt>
      <trkpt lat="42.25768" lon="2.165278">
        <ele>797</ele>
        <time>1970-01-01T04:08:07.000Z</time>
      </trkpt>
      <trkpt lat="42.257741" lon="2.165356">
        <ele>797</ele>
        <time>1970-01-01T04:08:08.000Z</time>
      </trkpt>
      <trkpt lat="42.257774" lon="2.165389">
        <ele>797</ele>
        <time>1970-01-01T04:08:09.000Z</time>
      </trkpt>
      <trkpt lat="42.257806" lon="2.165423">
        <ele>797</ele>
        <time>1970-01-01T04:08:10.000Z</time>
      </trkpt>
      <trkpt lat="42.257838" lon="2.165456">
        <ele>797</ele>
        <time>1970-01-01T04:08:11.000Z</time>
      </trkpt>
      <trkpt lat="42.257871" lon="2.165489">
        <ele>797</ele>
        <time>1970-01-01T04:08:12.000Z</time>
      </trkpt>
      <trkpt lat="42.257903" lon="2.165522">
        <ele>797</ele>
        <time>1970-01-01T04:08:13.000Z</time>
      </trkpt>
      <trkpt lat="42.257935" lon="2.165555">
        <ele>797</ele>
        <time>1970-01-01T04:08:14.000Z</time>
      </trkpt>
      <trkpt lat="42.257967" lon="2.165589">
        <ele>797</ele>
        <time>1970-01-01T04:08:15.000Z</time>
      </trkpt>
      <trkpt lat="42.258" lon="2.165622">
        <ele>797</ele>
        <time>1970-01-01T04:08:16.000Z</time>
      </trkpt>
      <trkpt lat="42.258032" lon="2.165655">
        <ele>798</ele>
        <time>1970-01-01T04:08:17.000Z</time>
      </trkpt>
      <trkpt lat="42.258115" lon="2.165694">
        <ele>798</ele>
        <time>1970-01-01T04:08:18.000Z</time>
      </trkpt>
      <trkpt lat="42.258156" lon="2.165705">
        <ele>798</ele>
        <time>1970-01-01T04:08:19.000Z</time>
      </trkpt>
      <trkpt lat="42.258198" lon="2.165716">
        <ele>798</ele>
        <time>1970-01-01T04:08:20.000Z</time>
      </trkpt>
      <trkpt lat="42.25824" lon="2.165727">
        <ele>798</ele>
        <time>1970-01-01T04:08:21.000Z</time>
      </trkpt>
      <trkpt lat="42.258282" lon="2.165738">
        <ele>798</ele>
        <time>1970-01-01T04:08:22.000Z</time>
      </trkpt>
      <trkpt lat="42.258323" lon="2.165749">
        <ele>798</ele>
        <time>1970-01-01T04:08:23.000Z</time>
      </trkpt>
      <trkpt lat="42.258365" lon="2.16576">
        <ele>798</ele>
        <time>1970-01-01T04:08:24.000Z</time>
      </trkpt>
      <trkpt lat="42.258407" lon="2.165771">
        <ele>798</ele>
        <time>1970-01-01T04:08:25.000Z</time>
      </trkpt>
      <trkpt lat="42.258448" lon="2.165782">
        <ele>798</ele>
        <time>1970-01-01T04:08:26.000Z</time>
      </trkpt>
      <trkpt lat="42.25849" lon="2.165793">
        <ele>798</ele>
        <time>1970-01-01T04:08:27.000Z</time>
      </trkpt>
      <trkpt lat="42.258586" lon="2.165773">
        <ele>798</ele>
        <time>1970-01-01T04:08:28.000Z</time>
      </trkpt>
      <trkpt lat="42.258631" lon="2.165758">
        <ele>798</ele>
        <time>1970-01-01T04:08:29.000Z</time>
      </trkpt>
      <trkpt lat="42.258675" lon="2.165743">
        <ele>798</ele>
        <time>1970-01-01T04:08:30.000Z</time>
      </trkpt>
      <trkpt lat="42.25872" lon="2.165728">
        <ele>798</ele>
        <time>1970-01-01T04:08:31.000Z</time>
      </trkpt>
      <trkpt lat="42.258765" lon="2.165713">
        <ele>798</ele>
        <time>1970-01-01T04:08:32.000Z</time>
      </trkpt>
      <trkpt lat="42.25881" lon="2.165698">
        <ele>798</ele>
        <time>1970-01-01T04:08:33.000Z</time>
      </trkpt>
      <trkpt lat="42.258855" lon="2.165683">
        <ele>798</ele>
        <time>1970-01-01T04:08:34.000Z</time>
      </trkpt>
      <trkpt lat="42.258899" lon="2.165668">
        <ele>798</ele>
        <time>1970-01-01T04:08:35.000Z</time>
      </trkpt>
      <trkpt lat="42.258944" lon="2.165653">
        <ele>798</ele>
        <time>1970-01-01T04:08:36.000Z</time>
      </trkpt>
      <trkpt lat="42.258989" lon="2.165638">
        <ele>799</ele>
        <time>1970-01-01T04:08:37.000Z</time>
      </trkpt>
      <trkpt lat="42.259084" lon="2.165596">
        <ele>799</ele>
        <time>1970-01-01T04:08:38.000Z</time>
      </trkpt>
      <trkpt lat="42.259128" lon="2.165576">
        <ele>799</ele>
        <time>1970-01-01T04:08:39.000Z</time>
      </trkpt>
      <trkpt lat="42.259173" lon="2.165556">
        <ele>799</ele>
        <time>1970-01-01T04:08:40.000Z</time>
      </trkpt>
      <trkpt lat="42.259217" lon="2.165536">
        <ele>799</ele>
        <time>1970-01-01T04:08:41.000Z</time>
      </trkpt>
      <trkpt lat="42.259262" lon="2.165517">
        <ele>799</ele>
        <time>1970-01-01T04:08:42.000Z</time>
      </trkpt>
      <trkpt lat="42.259306" lon="2.165497">
        <ele>799</ele>
        <time>1970-01-01T04:08:43.000Z</time>
      </trkpt>
      <trkpt lat="42.259351" lon="2.165477">
        <ele>799</ele>
        <time>1970-01-01T04:08:44.000Z</time>
      </trkpt>
      <trkpt lat="42.259395" lon="2.165457">
        <ele>799</ele>
        <time>1970-01-01T04:08:45.000Z</time>
      </trkpt>
      <trkpt lat="42.25944" lon="2.165437">
        <ele>799</ele>
        <time>1970-01-01T04:08:46.000Z</time>
      </trkpt>
      <trkpt lat="42.259484" lon="2.165417">
        <ele>799</ele>
        <time>1970-01-01T04:08:47.000Z</time>
      </trkpt>
      <trkpt lat="42.259579" lon="2.165375">
        <ele>799</ele>
        <time>1970-01-01T04:08:48.000Z</time>
      </trkpt>
      <trkpt lat="42.259624" lon="2.165357">
        <ele>799</ele>
        <time>1970-01-01T04:08:49.000Z</time>
      </trkpt>
      <trkpt lat="42.259669" lon="2.165339">
        <ele>799</ele>
        <time>1970-01-01T04:08:50.000Z</time>
      </trkpt>
      <trkpt lat="42.259714" lon="2.165321">
        <ele>799</ele>
        <time>1970-01-01T04:08:51.000Z</time>
      </trkpt>
      <trkpt lat="42.259759" lon="2.165304">
        <ele>799</ele>
        <time>1970-01-01T04:08:52.000Z</time>
      </trkpt>
      <trkpt lat="42.259803" lon="2.165286">
        <ele>799</ele>
        <time>1970-01-01T04:08:53.000Z</time>
      </trkpt>
      <trkpt lat="42.259848" lon="2.165268">
        <ele>799</ele>
        <time>1970-01-01T04:08:54.000Z</time>
      </trkpt>
      <trkpt lat="42.259893" lon="2.16525">
        <ele>799</ele>
        <time>1970-01-01T04:08:55.000Z</time>
      </trkpt>
      <trkpt lat="42.259938" lon="2.165232">
        <ele>799</ele>
        <time>1970-01-01T04:08:56.000Z</time>
      </trkpt>
      <trkpt lat="42.259983" lon="2.165214">
        <ele>800</ele>
        <time>1970-01-01T04:08:57.000Z</time>
      </trkpt>
      <trkpt lat="42.260114" lon="2.165144">
        <ele>800</ele>
        <time>1970-01-01T04:08:58.000Z</time>
      </trkpt>
      <trkpt lat="42.260197" lon="2.165095">
        <ele>800</ele>
        <time>1970-01-01T04:09:01.000Z</time>
      </trkpt>
      <trkpt lat="42.260281" lon="2.165045">
        <ele>800</ele>
        <time>1970-01-01T04:09:03.000Z</time>
      </trkpt>
      <trkpt lat="42.260364" lon="2.164996">
        <ele>800</ele>
        <time>1970-01-01T04:09:05.000Z</time>
      </trkpt>
      <trkpt lat="42.260448" lon="2.164946">
        <ele>800</ele>
        <time>1970-01-01T04:09:07.000Z</time>
      </trkpt>
      <trkpt lat="42.260626" lon="2.164855">
        <ele>800</ele>
        <time>1970-01-01T04:09:09.000Z</time>
      </trkpt>
      <trkpt lat="42.260696" lon="2.164823">
        <ele>800</ele>
        <time>1970-01-01T04:09:11.000Z</time>
      </trkpt>
      <trkpt lat="42.260765" lon="2.164791">
        <ele>800</ele>
        <time>1970-01-01T04:09:13.000Z</time>
      </trkpt>
      <trkpt lat="42.260834" lon="2.164759">
        <ele>800</ele>
        <time>1970-01-01T04:09:15.000Z</time>
      </trkpt>
      <trkpt lat="42.260904" lon="2.164727">
        <ele>800</ele>
        <time>1970-01-01T04:09:16.000Z</time>
      </trkpt>
      <trkpt lat="42.260973" lon="2.164695">
        <ele>802</ele>
        <time>1970-01-01T04:09:17.000Z</time>
      </trkpt>
      <trkpt lat="42.261085" lon="2.164602">
        <ele>802</ele>
        <time>1970-01-01T04:09:18.000Z</time>
      </trkpt>
      <trkpt lat="42.261148" lon="2.164537">
        <ele>802</ele>
        <time>1970-01-01T04:09:20.000Z</time>
      </trkpt>
      <trkpt lat="42.261211" lon="2.164473">
        <ele>802</ele>
        <time>1970-01-01T04:09:22.000Z</time>
      </trkpt>
      <trkpt lat="42.261273" lon="2.164409">
        <ele>802</ele>
        <time>1970-01-01T04:09:24.000Z</time>
      </trkpt>
      <trkpt lat="42.261336" lon="2.164344">
        <ele>802</ele>
        <time>1970-01-01T04:09:26.000Z</time>
      </trkpt>
      <trkpt lat="42.261399" lon="2.16428">
        <ele>802</ele>
        <time>1970-01-01T04:09:27.000Z</time>
      </trkpt>
      <trkpt lat="42.261468" lon="2.164156">
        <ele>802</ele>
        <time>1970-01-01T04:09:28.000Z</time>
      </trkpt>
      <trkpt lat="42.261503" lon="2.164088">
        <ele>802</ele>
        <time>1970-01-01T04:09:30.000Z</time>
      </trkpt>
      <trkpt lat="42.261538" lon="2.164019">
        <ele>802</ele>
        <time>1970-01-01T04:09:32.000Z</time>
      </trkpt>
      <trkpt lat="42.261573" lon="2.163951">
        <ele>802</ele>
        <time>1970-01-01T04:09:33.000Z</time>
      </trkpt>
      <trkpt lat="42.261608" lon="2.163882">
        <ele>802</ele>
        <time>1970-01-01T04:09:34.000Z</time>
      </trkpt>
      <trkpt lat="42.261643" lon="2.163813">
        <ele>802</ele>
        <time>1970-01-01T04:09:35.000Z</time>
      </trkpt>
      <trkpt lat="42.261678" lon="2.163745">
        <ele>802</ele>
        <time>1970-01-01T04:09:36.000Z</time>
      </trkpt>
      <trkpt lat="42.261713" lon="2.163676">
        <ele>803</ele>
        <time>1970-01-01T04:09:37.000Z</time>
      </trkpt>
      <trkpt lat="42.261776" lon="2.163542">
        <ele>803</ele>
        <time>1970-01-01T04:09:38.000Z</time>
      </trkpt>
      <trkpt lat="42.261809" lon="2.163472">
        <ele>803</ele>
        <time>1970-01-01T04:09:39.000Z</time>
      </trkpt>
      <trkpt lat="42.261843" lon="2.163402">
        <ele>803</ele>
        <time>1970-01-01T04:09:40.000Z</time>
      </trkpt>
      <trkpt lat="42.261876" lon="2.163333">
        <ele>803</ele>
        <time>1970-01-01T04:09:41.000Z</time>
      </trkpt>
      <trkpt lat="42.26191" lon="2.163263">
        <ele>803</ele>
        <time>1970-01-01T04:09:42.000Z</time>
      </trkpt>
      <trkpt lat="42.261943" lon="2.163193">
        <ele>803</ele>
        <time>1970-01-01T04:09:44.000Z</time>
      </trkpt>
      <trkpt lat="42.261977" lon="2.163123">
        <ele>803</ele>
        <time>1970-01-01T04:09:46.000Z</time>
      </trkpt>
      <trkpt lat="42.26201" lon="2.163053">
        <ele>803</ele>
        <time>1970-01-01T04:09:47.000Z</time>
      </trkpt>
      <trkpt lat="42.262071" lon="2.162956">
        <ele>803</ele>
        <time>1970-01-01T04:09:48.000Z</time>
      </trkpt>
      <trkpt lat="42.262105" lon="2.162916">
        <ele>803</ele>
        <time>1970-01-01T04:09:50.000Z</time>
      </trkpt>
      <trkpt lat="42.26214" lon="2.162875">
        <ele>803</ele>
        <time>1970-01-01T04:09:51.000Z</time>
      </trkpt>
      <trkpt lat="42.262175" lon="2.162835">
        <ele>803</ele>
        <time>1970-01-01T04:09:52.000Z</time>
      </trkpt>
      <trkpt lat="42.262209" lon="2.162794">
        <ele>803</ele>
        <time>1970-01-01T04:09:53.000Z</time>
      </trkpt>
      <trkpt lat="42.262244" lon="2.162754">
        <ele>803</ele>
        <time>1970-01-01T04:09:54.000Z</time>
      </trkpt>
      <trkpt lat="42.262279" lon="2.162713">
        <ele>803</ele>
        <time>1970-01-01T04:09:55.000Z</time>
      </trkpt>
      <trkpt lat="42.262313" lon="2.162673">
        <ele>803</ele>
        <time>1970-01-01T04:09:56.000Z</time>
      </trkpt>
      <trkpt lat="42.262348" lon="2.162632">
        <ele>805</ele>
        <time>1970-01-01T04:09:57.000Z</time>
      </trkpt>
      <trkpt lat="42.262446" lon="2.162575">
        <ele>805</ele>
        <time>1970-01-01T04:09:58.000Z</time>
      </trkpt>
      <trkpt lat="42.262507" lon="2.162548">
        <ele>805</ele>
        <time>1970-01-01T04:10:00.000Z</time>
      </trkpt>
      <trkpt lat="42.262568" lon="2.162521">
        <ele>805</ele>
        <time>1970-01-01T04:10:01.000Z</time>
      </trkpt>
      <trkpt lat="42.262628" lon="2.162494">
        <ele>805</ele>
        <time>1970-01-01T04:10:03.000Z</time>
      </trkpt>
      <trkpt lat="42.262689" lon="2.162467">
        <ele>805</ele>
        <time>1970-01-01T04:10:06.000Z</time>
      </trkpt>
      <trkpt lat="42.26275" lon="2.16244">
        <ele>806</ele>
        <time>1970-01-01T04:10:07.000Z</time>
      </trkpt>
      <trkpt lat="42.262832" lon="2.162449">
        <ele>806</ele>
        <time>1970-01-01T04:10:08.000Z</time>
      </trkpt>
      <trkpt lat="42.262869" lon="2.162458">
        <ele>806</ele>
        <time>1970-01-01T04:10:09.000Z</time>
      </trkpt>
      <trkpt lat="42.262905" lon="2.162468">
        <ele>806</ele>
        <time>1970-01-01T04:10:10.000Z</time>
      </trkpt>
      <trkpt lat="42.262942" lon="2.162477">
        <ele>806</ele>
        <time>1970-01-01T04:10:11.000Z</time>
      </trkpt>
      <trkpt lat="42.262979" lon="2.162486">
        <ele>806</ele>
        <time>1970-01-01T04:10:12.000Z</time>
      </trkpt>
      <trkpt lat="42.263016" lon="2.162495">
        <ele>806</ele>
        <time>1970-01-01T04:10:13.000Z</time>
      </trkpt>
      <trkpt lat="42.263053" lon="2.162504">
        <ele>806</ele>
        <time>1970-01-01T04:10:14.000Z</time>
      </trkpt>
      <trkpt lat="42.263089" lon="2.162514">
        <ele>806</ele>
        <time>1970-01-01T04:10:15.000Z</time>
      </trkpt>
      <trkpt lat="42.263126" lon="2.162523">
        <ele>806</ele>
        <time>1970-01-01T04:10:16.000Z</time>
      </trkpt>
      <trkpt lat="42.263163" lon="2.162532">
        <ele>808</ele>
        <time>1970-01-01T04:10:17.000Z</time>
      </trkpt>
      <trkpt lat="42.263235" lon="2.162568">
        <ele>808</ele>
        <time>1970-01-01T04:10:18.000Z</time>
      </trkpt>
      <trkpt lat="42.263272" lon="2.162589">
        <ele>808</ele>
        <time>1970-01-01T04:10:19.000Z</time>
      </trkpt>
      <trkpt lat="42.263308" lon="2.162611">
        <ele>808</ele>
        <time>1970-01-01T04:10:20.000Z</time>
      </trkpt>
      <trkpt lat="42.263344" lon="2.162632">
        <ele>808</ele>
        <time>1970-01-01T04:10:21.000Z</time>
      </trkpt>
      <trkpt lat="42.263381" lon="2.162654">
        <ele>808</ele>
        <time>1970-01-01T04:10:23.000Z</time>
      </trkpt>
      <trkpt lat="42.263417" lon="2.162675">
        <ele>808</ele>
        <time>1970-01-01T04:10:24.000Z</time>
      </trkpt>
      <trkpt lat="42.263453" lon="2.162697">
        <ele>808</ele>
        <time>1970-01-01T04:10:25.000Z</time>
      </trkpt>
      <trkpt lat="42.26349" lon="2.162718">
        <ele>808</ele>
        <time>1970-01-01T04:10:26.000Z</time>
      </trkpt>
      <trkpt lat="42.263526" lon="2.16274">
        <ele>809</ele>
        <time>1970-01-01T04:10:27.000Z</time>
      </trkpt>
      <trkpt lat="42.263665" lon="2.162856">
        <ele>809</ele>
        <time>1970-01-01T04:10:29.000Z</time>
      </trkpt>
      <trkpt lat="42.263742" lon="2.162917">
        <ele>809</ele>
        <time>1970-01-01T04:10:32.000Z</time>
      </trkpt>
      <trkpt lat="42.263819" lon="2.162977">
        <ele>809</ele>
        <time>1970-01-01T04:10:35.000Z</time>
      </trkpt>
      <trkpt lat="42.263896" lon="2.163038">
        <ele>809</ele>
        <time>1970-01-01T04:10:37.000Z</time>
      </trkpt>
      <trkpt lat="42.264051" lon="2.163133">
        <ele>809</ele>
        <time>1970-01-01T04:10:39.000Z</time>
      </trkpt>
      <trkpt lat="42.264115" lon="2.163159">
        <ele>809</ele>
        <time>1970-01-01T04:10:41.000Z</time>
      </trkpt>
      <trkpt lat="42.264179" lon="2.163186">
        <ele>809</ele>
        <time>1970-01-01T04:10:42.000Z</time>
      </trkpt>
      <trkpt lat="42.264242" lon="2.163213">
        <ele>809</ele>
        <time>1970-01-01T04:10:44.000Z</time>
      </trkpt>
      <trkpt lat="42.264306" lon="2.163239">
        <ele>809</ele>
        <time>1970-01-01T04:10:46.000Z</time>
      </trkpt>
      <trkpt lat="42.26437" lon="2.163266">
        <ele>809</ele>
        <time>1970-01-01T04:10:47.000Z</time>
      </trkpt>
      <trkpt lat="42.264484" lon="2.163296">
        <ele>809</ele>
        <time>1970-01-01T04:10:48.000Z</time>
      </trkpt>
      <trkpt lat="42.264554" lon="2.163303">
        <ele>809</ele>
        <time>1970-01-01T04:10:50.000Z</time>
      </trkpt>
      <trkpt lat="42.264625" lon="2.163311">
        <ele>809</ele>
        <time>1970-01-01T04:10:52.000Z</time>
      </trkpt>
      <trkpt lat="42.264695" lon="2.163319">
        <ele>809</ele>
        <time>1970-01-01T04:10:54.000Z</time>
      </trkpt>
      <trkpt lat="42.264766" lon="2.163326">
        <ele>809</ele>
        <time>1970-01-01T04:10:56.000Z</time>
      </trkpt>
      <trkpt lat="42.264836" lon="2.163334">
        <ele>810</ele>
        <time>1970-01-01T04:10:57.000Z</time>
      </trkpt>
      <trkpt lat="42.264959" lon="2.16329">
        <ele>810</ele>
        <time>1970-01-01T04:10:58.000Z</time>
      </trkpt>
      <trkpt lat="42.265034" lon="2.163253">
        <ele>810</ele>
        <time>1970-01-01T04:11:00.000Z</time>
      </trkpt>
      <trkpt lat="42.26511" lon="2.163215">
        <ele>810</ele>
        <time>1970-01-01T04:11:03.000Z</time>
      </trkpt>
      <trkpt lat="42.265185" lon="2.163178">
        <ele>810</ele>
        <time>1970-01-01T04:11:06.000Z</time>
      </trkpt>
      <trkpt lat="42.265261" lon="2.16314">
        <ele>812</ele>
        <time>1970-01-01T04:11:07.000Z</time>
      </trkpt>
      <trkpt lat="42.265346" lon="2.163037">
        <ele>812</ele>
        <time>1970-01-01T04:11:08.000Z</time>
      </trkpt>
      <trkpt lat="42.265393" lon="2.162966">
        <ele>812</ele>
        <time>1970-01-01T04:11:10.000Z</time>
      </trkpt>
      <trkpt lat="42.26544" lon="2.162895">
        <ele>812</ele>
        <time>1970-01-01T04:11:12.000Z</time>
      </trkpt>
      <trkpt lat="42.265487" lon="2.162823">
        <ele>812</ele>
        <time>1970-01-01T04:11:14.000Z</time>
      </trkpt>
      <trkpt lat="42.265534" lon="2.162752">
        <ele>812</ele>
        <time>1970-01-01T04:11:16.000Z</time>
      </trkpt>
      <trkpt lat="42.265581" lon="2.162681">
        <ele>812</ele>
        <time>1970-01-01T04:11:17.000Z</time>
      </trkpt>
      <trkpt lat="42.265627" lon="2.162576">
        <ele>812</ele>
        <time>1970-01-01T04:11:18.000Z</time>
      </trkpt>
      <trkpt lat="42.265647" lon="2.162524">
        <ele>812</ele>
        <time>1970-01-01T04:11:19.000Z</time>
      </trkpt>
      <trkpt lat="42.265668" lon="2.162472">
        <ele>812</ele>
        <time>1970-01-01T04:11:20.000Z</time>
      </trkpt>
      <trkpt lat="42.265688" lon="2.16242">
        <ele>812</ele>
        <time>1970-01-01T04:11:21.000Z</time>
      </trkpt>
      <trkpt lat="42.265709" lon="2.162369">
        <ele>812</ele>
        <time>1970-01-01T04:11:22.000Z</time>
      </trkpt>
      <trkpt lat="42.265729" lon="2.162317">
        <ele>812</ele>
        <time>1970-01-01T04:11:23.000Z</time>
      </trkpt>
      <trkpt lat="42.26575" lon="2.162265">
        <ele>812</ele>
        <time>1970-01-01T04:11:24.000Z</time>
      </trkpt>
      <trkpt lat="42.26577" lon="2.162213">
        <ele>812</ele>
        <time>1970-01-01T04:11:25.000Z</time>
      </trkpt>
      <trkpt lat="42.265791" lon="2.162161">
        <ele>812</ele>
        <time>1970-01-01T04:11:26.000Z</time>
      </trkpt>
      <trkpt lat="42.265811" lon="2.162109">
        <ele>812</ele>
        <time>1970-01-01T04:11:27.000Z</time>
      </trkpt>
      <trkpt lat="42.265853" lon="2.161995">
        <ele>812</ele>
        <time>1970-01-01T04:11:28.000Z</time>
      </trkpt>
      <trkpt lat="42.265876" lon="2.161944">
        <ele>812</ele>
        <time>1970-01-01T04:11:29.000Z</time>
      </trkpt>
      <trkpt lat="42.265898" lon="2.161894">
        <ele>812</ele>
        <time>1970-01-01T04:11:30.000Z</time>
      </trkpt>
      <trkpt lat="42.265921" lon="2.161843">
        <ele>812</ele>
        <time>1970-01-01T04:11:31.000Z</time>
      </trkpt>
      <trkpt lat="42.265943" lon="2.161792">
        <ele>812</ele>
        <time>1970-01-01T04:11:32.000Z</time>
      </trkpt>
      <trkpt lat="42.265965" lon="2.161741">
        <ele>812</ele>
        <time>1970-01-01T04:11:33.000Z</time>
      </trkpt>
      <trkpt lat="42.265988" lon="2.16169">
        <ele>812</ele>
        <time>1970-01-01T04:11:34.000Z</time>
      </trkpt>
      <trkpt lat="42.26601" lon="2.16164">
        <ele>812</ele>
        <time>1970-01-01T04:11:35.000Z</time>
      </trkpt>
      <trkpt lat="42.266033" lon="2.161589">
        <ele>812</ele>
        <time>1970-01-01T04:11:36.000Z</time>
      </trkpt>
      <trkpt lat="42.266055" lon="2.161538">
        <ele>814</ele>
        <time>1970-01-01T04:11:37.000Z</time>
      </trkpt>
      <trkpt lat="42.266113" lon="2.161446">
        <ele>814</ele>
        <time>1970-01-01T04:11:38.000Z</time>
      </trkpt>
      <trkpt lat="42.266142" lon="2.161406">
        <ele>814</ele>
        <time>1970-01-01T04:11:39.000Z</time>
      </trkpt>
      <trkpt lat="42.266172" lon="2.161365">
        <ele>814</ele>
        <time>1970-01-01T04:11:40.000Z</time>
      </trkpt>
      <trkpt lat="42.266201" lon="2.161325">
        <ele>814</ele>
        <time>1970-01-01T04:11:41.000Z</time>
      </trkpt>
      <trkpt lat="42.26623" lon="2.161285">
        <ele>814</ele>
        <time>1970-01-01T04:11:42.000Z</time>
      </trkpt>
      <trkpt lat="42.266259" lon="2.161245">
        <ele>814</ele>
        <time>1970-01-01T04:11:43.000Z</time>
      </trkpt>
      <trkpt lat="42.266288" lon="2.161205">
        <ele>814</ele>
        <time>1970-01-01T04:11:44.000Z</time>
      </trkpt>
      <trkpt lat="42.266318" lon="2.161164">
        <ele>814</ele>
        <time>1970-01-01T04:11:45.000Z</time>
      </trkpt>
      <trkpt lat="42.266347" lon="2.161124">
        <ele>814</ele>
        <time>1970-01-01T04:11:46.000Z</time>
      </trkpt>
      <trkpt lat="42.266376" lon="2.161084">
        <ele>815</ele>
        <time>1970-01-01T04:11:47.000Z</time>
      </trkpt>
      <trkpt lat="42.266441" lon="2.161018">
        <ele>815</ele>
        <time>1970-01-01T04:11:48.000Z</time>
      </trkpt>
      <trkpt lat="42.266472" lon="2.160992">
        <ele>815</ele>
        <time>1970-01-01T04:11:49.000Z</time>
      </trkpt>
      <trkpt lat="42.266504" lon="2.160965">
        <ele>815</ele>
        <time>1970-01-01T04:11:50.000Z</time>
      </trkpt>
      <trkpt lat="42.266535" lon="2.160938">
        <ele>815</ele>
        <time>1970-01-01T04:11:51.000Z</time>
      </trkpt>
      <trkpt lat="42.266567" lon="2.160912">
        <ele>815</ele>
        <time>1970-01-01T04:11:52.000Z</time>
      </trkpt>
      <trkpt lat="42.266599" lon="2.160885">
        <ele>815</ele>
        <time>1970-01-01T04:11:53.000Z</time>
      </trkpt>
      <trkpt lat="42.26663" lon="2.160858">
        <ele>815</ele>
        <time>1970-01-01T04:11:54.000Z</time>
      </trkpt>
      <trkpt lat="42.266662" lon="2.160831">
        <ele>815</ele>
        <time>1970-01-01T04:11:55.000Z</time>
      </trkpt>
      <trkpt lat="42.266693" lon="2.160805">
        <ele>815</ele>
        <time>1970-01-01T04:11:56.000Z</time>
      </trkpt>
      <trkpt lat="42.266725" lon="2.160778">
        <ele>816</ele>
        <time>1970-01-01T04:11:57.000Z</time>
      </trkpt>
      <trkpt lat="42.266793" lon="2.160734">
        <ele>816</ele>
        <time>1970-01-01T04:11:58.000Z</time>
      </trkpt>
      <trkpt lat="42.266826" lon="2.160717">
        <ele>816</ele>
        <time>1970-01-01T04:11:59.000Z</time>
      </trkpt>
      <trkpt lat="42.266858" lon="2.160699">
        <ele>816</ele>
        <time>1970-01-01T04:12:00.000Z</time>
      </trkpt>
      <trkpt lat="42.266891" lon="2.160682">
        <ele>816</ele>
        <time>1970-01-01T04:12:01.000Z</time>
      </trkpt>
      <trkpt lat="42.266924" lon="2.160664">
        <ele>816</ele>
        <time>1970-01-01T04:12:02.000Z</time>
      </trkpt>
      <trkpt lat="42.266957" lon="2.160646">
        <ele>816</ele>
        <time>1970-01-01T04:12:03.000Z</time>
      </trkpt>
      <trkpt lat="42.26699" lon="2.160629">
        <ele>816</ele>
        <time>1970-01-01T04:12:04.000Z</time>
      </trkpt>
      <trkpt lat="42.267022" lon="2.160611">
        <ele>816</ele>
        <time>1970-01-01T04:12:05.000Z</time>
      </trkpt>
      <trkpt lat="42.267055" lon="2.160594">
        <ele>816</ele>
        <time>1970-01-01T04:12:06.000Z</time>
      </trkpt>
      <trkpt lat="42.267088" lon="2.160576">
        <ele>818</ele>
        <time>1970-01-01T04:12:07.000Z</time>
      </trkpt>
      <trkpt lat="42.267159" lon="2.160542">
        <ele>818</ele>
        <time>1970-01-01T04:12:08.000Z</time>
      </trkpt>
      <trkpt lat="42.267195" lon="2.160525">
        <ele>818</ele>
        <time>1970-01-01T04:12:09.000Z</time>
      </trkpt>
      <trkpt lat="42.26723" lon="2.160507">
        <ele>818</ele>
        <time>1970-01-01T04:12:10.000Z</time>
      </trkpt>
      <trkpt lat="42.267266" lon="2.16049">
        <ele>818</ele>
        <time>1970-01-01T04:12:11.000Z</time>
      </trkpt>
      <trkpt lat="42.267302" lon="2.160472">
        <ele>818</ele>
        <time>1970-01-01T04:12:12.000Z</time>
      </trkpt>
      <trkpt lat="42.267338" lon="2.160455">
        <ele>818</ele>
        <time>1970-01-01T04:12:13.000Z</time>
      </trkpt>
      <trkpt lat="42.267373" lon="2.160437">
        <ele>818</ele>
        <time>1970-01-01T04:12:14.000Z</time>
      </trkpt>
      <trkpt lat="42.267409" lon="2.16042">
        <ele>818</ele>
        <time>1970-01-01T04:12:16.000Z</time>
      </trkpt>
      <trkpt lat="42.267445" lon="2.160402">
        <ele>818</ele>
        <time>1970-01-01T04:12:17.000Z</time>
      </trkpt>
      <trkpt lat="42.267599" lon="2.160316">
        <ele>818</ele>
        <time>1970-01-01T04:12:20.000Z</time>
      </trkpt>
      <trkpt lat="42.267635" lon="2.160295">
        <ele>818</ele>
        <time>1970-01-01T04:12:22.000Z</time>
      </trkpt>
      <trkpt lat="42.267671" lon="2.160275">
        <ele>818</ele>
        <time>1970-01-01T04:12:23.000Z</time>
      </trkpt>
      <trkpt lat="42.267708" lon="2.160254">
        <ele>818</ele>
        <time>1970-01-01T04:12:24.000Z</time>
      </trkpt>
      <trkpt lat="42.267744" lon="2.160234">
        <ele>818</ele>
        <time>1970-01-01T04:12:25.000Z</time>
      </trkpt>
      <trkpt lat="42.26778" lon="2.160213">
        <ele>818</ele>
        <time>1970-01-01T04:12:26.000Z</time>
      </trkpt>
      <trkpt lat="42.267816" lon="2.160193">
        <ele>819</ele>
        <time>1970-01-01T04:12:27.000Z</time>
      </trkpt>
      <trkpt lat="42.267889" lon="2.160154">
        <ele>819</ele>
        <time>1970-01-01T04:12:28.000Z</time>
      </trkpt>
      <trkpt lat="42.267925" lon="2.160136">
        <ele>819</ele>
        <time>1970-01-01T04:12:29.000Z</time>
      </trkpt>
      <trkpt lat="42.267961" lon="2.160117">
        <ele>819</ele>
        <time>1970-01-01T04:12:30.000Z</time>
      </trkpt>
      <trkpt lat="42.267997" lon="2.160098">
        <ele>819</ele>
        <time>1970-01-01T04:12:31.000Z</time>
      </trkpt>
      <trkpt lat="42.268034" lon="2.16008">
        <ele>819</ele>
        <time>1970-01-01T04:12:32.000Z</time>
      </trkpt>
      <trkpt lat="42.26807" lon="2.160061">
        <ele>819</ele>
        <time>1970-01-01T04:12:33.000Z</time>
      </trkpt>
      <trkpt lat="42.268106" lon="2.160042">
        <ele>819</ele>
        <time>1970-01-01T04:12:35.000Z</time>
      </trkpt>
      <trkpt lat="42.268142" lon="2.160024">
        <ele>819</ele>
        <time>1970-01-01T04:12:36.000Z</time>
      </trkpt>
      <trkpt lat="42.268178" lon="2.160005">
        <ele>821</ele>
        <time>1970-01-01T04:12:37.000Z</time>
      </trkpt>
      <trkpt lat="42.268246" lon="2.15997">
        <ele>821</ele>
        <time>1970-01-01T04:12:38.000Z</time>
      </trkpt>
      <trkpt lat="42.268276" lon="2.159954">
        <ele>821</ele>
        <time>1970-01-01T04:12:39.000Z</time>
      </trkpt>
      <trkpt lat="42.268307" lon="2.159937">
        <ele>821</ele>
        <time>1970-01-01T04:12:40.000Z</time>
      </trkpt>
      <trkpt lat="42.268337" lon="2.15992">
        <ele>821</ele>
        <time>1970-01-01T04:12:41.000Z</time>
      </trkpt>
      <trkpt lat="42.268367" lon="2.159904">
        <ele>821</ele>
        <time>1970-01-01T04:12:42.000Z</time>
      </trkpt>
      <trkpt lat="42.268397" lon="2.159887">
        <ele>821</ele>
        <time>1970-01-01T04:12:43.000Z</time>
      </trkpt>
      <trkpt lat="42.268427" lon="2.15987">
        <ele>821</ele>
        <time>1970-01-01T04:12:44.000Z</time>
      </trkpt>
      <trkpt lat="42.268458" lon="2.159853">
        <ele>821</ele>
        <time>1970-01-01T04:12:45.000Z</time>
      </trkpt>
      <trkpt lat="42.268488" lon="2.159837">
        <ele>821</ele>
        <time>1970-01-01T04:12:46.000Z</time>
      </trkpt>
      <trkpt lat="42.268518" lon="2.15982">
        <ele>822</ele>
        <time>1970-01-01T04:12:47.000Z</time>
      </trkpt>
      <trkpt lat="42.268579" lon="2.159787">
        <ele>822</ele>
        <time>1970-01-01T04:12:48.000Z</time>
      </trkpt>
      <trkpt lat="42.268608" lon="2.159772">
        <ele>822</ele>
        <time>1970-01-01T04:12:49.000Z</time>
      </trkpt>
      <trkpt lat="42.268638" lon="2.159756">
        <ele>822</ele>
        <time>1970-01-01T04:12:50.000Z</time>
      </trkpt>
      <trkpt lat="42.268667" lon="2.159741">
        <ele>822</ele>
        <time>1970-01-01T04:12:51.000Z</time>
      </trkpt>
      <trkpt lat="42.268696" lon="2.159726">
        <ele>822</ele>
        <time>1970-01-01T04:12:52.000Z</time>
      </trkpt>
      <trkpt lat="42.268725" lon="2.159711">
        <ele>822</ele>
        <time>1970-01-01T04:12:53.000Z</time>
      </trkpt>
      <trkpt lat="42.268754" lon="2.159696">
        <ele>822</ele>
        <time>1970-01-01T04:12:54.000Z</time>
      </trkpt>
      <trkpt lat="42.268784" lon="2.15968">
        <ele>822</ele>
        <time>1970-01-01T04:12:55.000Z</time>
      </trkpt>
      <trkpt lat="42.268813" lon="2.159665">
        <ele>822</ele>
        <time>1970-01-01T04:12:56.000Z</time>
      </trkpt>
      <trkpt lat="42.268842" lon="2.15965">
        <ele>824</ele>
        <time>1970-01-01T04:12:57.000Z</time>
      </trkpt>
      <trkpt lat="42.268938" lon="2.159615">
        <ele>824</ele>
        <time>1970-01-01T04:12:58.000Z</time>
      </trkpt>
      <trkpt lat="42.269" lon="2.159599">
        <ele>824</ele>
        <time>1970-01-01T04:12:59.000Z</time>
      </trkpt>
      <trkpt lat="42.269061" lon="2.159582">
        <ele>824</ele>
        <time>1970-01-01T04:13:03.000Z</time>
      </trkpt>
      <trkpt lat="42.269123" lon="2.159566">
        <ele>824</ele>
        <time>1970-01-01T04:13:06.000Z</time>
      </trkpt>
      <trkpt lat="42.269185" lon="2.159549">
        <ele>826</ele>
        <time>1970-01-01T04:13:07.000Z</time>
      </trkpt>
      <trkpt lat="42.269305" lon="2.159514">
        <ele>826</ele>
        <time>1970-01-01T04:13:08.000Z</time>
      </trkpt>
      <trkpt lat="42.269379" lon="2.159494">
        <ele>826</ele>
        <time>1970-01-01T04:13:10.000Z</time>
      </trkpt>
      <trkpt lat="42.269453" lon="2.159474">
        <ele>826</ele>
        <time>1970-01-01T04:13:12.000Z</time>
      </trkpt>
      <trkpt lat="42.269527" lon="2.159454">
        <ele>826</ele>
        <time>1970-01-01T04:13:14.000Z</time>
      </trkpt>
      <trkpt lat="42.269601" lon="2.159434">
        <ele>826</ele>
        <time>1970-01-01T04:13:16.000Z</time>
      </trkpt>
      <trkpt lat="42.269675" lon="2.159414">
        <ele>827</ele>
        <time>1970-01-01T04:13:17.000Z</time>
      </trkpt>
      <trkpt lat="42.269788" lon="2.159382">
        <ele>827</ele>
        <time>1970-01-01T04:13:18.000Z</time>
      </trkpt>
      <trkpt lat="42.269851" lon="2.159363">
        <ele>827</ele>
        <time>1970-01-01T04:13:20.000Z</time>
      </trkpt>
      <trkpt lat="42.269913" lon="2.159344">
        <ele>827</ele>
        <time>1970-01-01T04:13:22.000Z</time>
      </trkpt>
      <trkpt lat="42.269976" lon="2.159325">
        <ele>827</ele>
        <time>1970-01-01T04:13:23.000Z</time>
      </trkpt>
      <trkpt lat="42.270039" lon="2.159306">
        <ele>827</ele>
        <time>1970-01-01T04:13:24.000Z</time>
      </trkpt>
      <trkpt lat="42.270102" lon="2.159287">
        <ele>827</ele>
        <time>1970-01-01T04:13:25.000Z</time>
      </trkpt>
      <trkpt lat="42.270164" lon="2.159268">
        <ele>827</ele>
        <time>1970-01-01T04:13:26.000Z</time>
      </trkpt>
      <trkpt lat="42.270227" lon="2.159249">
        <ele>827</ele>
        <time>1970-01-01T04:13:27.000Z</time>
      </trkpt>
      <trkpt lat="42.270344" lon="2.159238">
        <ele>827</ele>
        <time>1970-01-01T04:13:28.000Z</time>
      </trkpt>
      <trkpt lat="42.270406" lon="2.159233">
        <ele>827</ele>
        <time>1970-01-01T04:13:29.000Z</time>
      </trkpt>
      <trkpt lat="42.270467" lon="2.159229">
        <ele>827</ele>
        <time>1970-01-01T04:13:30.000Z</time>
      </trkpt>
      <trkpt lat="42.270529" lon="2.159224">
        <ele>827</ele>
        <time>1970-01-01T04:13:31.000Z</time>
      </trkpt>
      <trkpt lat="42.270591" lon="2.159219">
        <ele>827</ele>
        <time>1970-01-01T04:13:32.000Z</time>
      </trkpt>
      <trkpt lat="42.270653" lon="2.159214">
        <ele>827</ele>
        <time>1970-01-01T04:13:33.000Z</time>
      </trkpt>
      <trkpt lat="42.270714" lon="2.15921">
        <ele>827</ele>
        <time>1970-01-01T04:13:35.000Z</time>
      </trkpt>
      <trkpt lat="42.270776" lon="2.159205">
        <ele>827</ele>
        <time>1970-01-01T04:13:36.000Z</time>
      </trkpt>
      <trkpt lat="42.270838" lon="2.1592">
        <ele>827</ele>
        <time>1970-01-01T04:13:37.000Z</time>
      </trkpt>
      <trkpt lat="42.27095" lon="2.159225">
        <ele>827</ele>
        <time>1970-01-01T04:13:38.000Z</time>
      </trkpt>
      <trkpt lat="42.271003" lon="2.159243">
        <ele>827</ele>
        <time>1970-01-01T04:13:39.000Z</time>
      </trkpt>
      <trkpt lat="42.271055" lon="2.159262">
        <ele>827</ele>
        <time>1970-01-01T04:13:40.000Z</time>
      </trkpt>
      <trkpt lat="42.271107" lon="2.15928">
        <ele>827</ele>
        <time>1970-01-01T04:13:41.000Z</time>
      </trkpt>
      <trkpt lat="42.27116" lon="2.159299">
        <ele>827</ele>
        <time>1970-01-01T04:13:42.000Z</time>
      </trkpt>
      <trkpt lat="42.271212" lon="2.159317">
        <ele>827</ele>
        <time>1970-01-01T04:13:43.000Z</time>
      </trkpt>
      <trkpt lat="42.271264" lon="2.159336">
        <ele>827</ele>
        <time>1970-01-01T04:13:44.000Z</time>
      </trkpt>
      <trkpt lat="42.271317" lon="2.159354">
        <ele>827</ele>
        <time>1970-01-01T04:13:46.000Z</time>
      </trkpt>
      <trkpt lat="42.271369" lon="2.159373">
        <ele>828</ele>
        <time>1970-01-01T04:13:47.000Z</time>
      </trkpt>
      <trkpt lat="42.271459" lon="2.159426">
        <ele>828</ele>
        <time>1970-01-01T04:13:48.000Z</time>
      </trkpt>
      <trkpt lat="42.271504" lon="2.159451">
        <ele>828</ele>
        <time>1970-01-01T04:13:49.000Z</time>
      </trkpt>
      <trkpt lat="42.27155" lon="2.159475">
        <ele>828</ele>
        <time>1970-01-01T04:13:50.000Z</time>
      </trkpt>
      <trkpt lat="42.271596" lon="2.159499">
        <ele>828</ele>
        <time>1970-01-01T04:13:52.000Z</time>
      </trkpt>
      <trkpt lat="42.271641" lon="2.159524">
        <ele>828</ele>
        <time>1970-01-01T04:13:53.000Z</time>
      </trkpt>
      <trkpt lat="42.271687" lon="2.159548">
        <ele>828</ele>
        <time>1970-01-01T04:13:54.000Z</time>
      </trkpt>
      <trkpt lat="42.271733" lon="2.159572">
        <ele>828</ele>
        <time>1970-01-01T04:13:55.000Z</time>
      </trkpt>
      <trkpt lat="42.271778" lon="2.159597">
        <ele>828</ele>
        <time>1970-01-01T04:13:56.000Z</time>
      </trkpt>
      <trkpt lat="42.271824" lon="2.159621">
        <ele>830</ele>
        <time>1970-01-01T04:13:57.000Z</time>
      </trkpt>
      <trkpt lat="42.271924" lon="2.159617">
        <ele>830</ele>
        <time>1970-01-01T04:13:58.000Z</time>
      </trkpt>
      <trkpt lat="42.271973" lon="2.159605">
        <ele>830</ele>
        <time>1970-01-01T04:13:59.000Z</time>
      </trkpt>
      <trkpt lat="42.272023" lon="2.159592">
        <ele>830</ele>
        <time>1970-01-01T04:14:00.000Z</time>
      </trkpt>
      <trkpt lat="42.272073" lon="2.159579">
        <ele>830</ele>
        <time>1970-01-01T04:14:01.000Z</time>
      </trkpt>
      <trkpt lat="42.272123" lon="2.159567">
        <ele>830</ele>
        <time>1970-01-01T04:14:02.000Z</time>
      </trkpt>
      <trkpt lat="42.272172" lon="2.159554">
        <ele>830</ele>
        <time>1970-01-01T04:14:03.000Z</time>
      </trkpt>
      <trkpt lat="42.272222" lon="2.159541">
        <ele>830</ele>
        <time>1970-01-01T04:14:04.000Z</time>
      </trkpt>
      <trkpt lat="42.272272" lon="2.159528">
        <ele>830</ele>
        <time>1970-01-01T04:14:05.000Z</time>
      </trkpt>
      <trkpt lat="42.272321" lon="2.159516">
        <ele>830</ele>
        <time>1970-01-01T04:14:06.000Z</time>
      </trkpt>
      <trkpt lat="42.272371" lon="2.159503">
        <ele>830</ele>
        <time>1970-01-01T04:14:07.000Z</time>
      </trkpt>
      <trkpt lat="42.272474" lon="2.159456">
        <ele>830</ele>
        <time>1970-01-01T04:14:08.000Z</time>
      </trkpt>
      <trkpt lat="42.272523" lon="2.159435">
        <ele>830</ele>
        <time>1970-01-01T04:14:09.000Z</time>
      </trkpt>
      <trkpt lat="42.272572" lon="2.159413">
        <ele>830</ele>
        <time>1970-01-01T04:14:10.000Z</time>
      </trkpt>
      <trkpt lat="42.272621" lon="2.159391">
        <ele>830</ele>
        <time>1970-01-01T04:14:11.000Z</time>
      </trkpt>
      <trkpt lat="42.27267" lon="2.15937">
        <ele>830</ele>
        <time>1970-01-01T04:14:12.000Z</time>
      </trkpt>
      <trkpt lat="42.272719" lon="2.159348">
        <ele>830</ele>
        <time>1970-01-01T04:14:13.000Z</time>
      </trkpt>
      <trkpt lat="42.272768" lon="2.159326">
        <ele>830</ele>
        <time>1970-01-01T04:14:14.000Z</time>
      </trkpt>
      <trkpt lat="42.272817" lon="2.159304">
        <ele>830</ele>
        <time>1970-01-01T04:14:15.000Z</time>
      </trkpt>
      <trkpt lat="42.272866" lon="2.159283">
        <ele>830</ele>
        <time>1970-01-01T04:14:16.000Z</time>
      </trkpt>
      <trkpt lat="42.272915" lon="2.159261">
        <ele>830</ele>
        <time>1970-01-01T04:14:17.000Z</time>
      </trkpt>
      <trkpt lat="42.273014" lon="2.159231">
        <ele>830</ele>
        <time>1970-01-01T04:14:18.000Z</time>
      </trkpt>
      <trkpt lat="42.273062" lon="2.159221">
        <ele>830</ele>
        <time>1970-01-01T04:14:19.000Z</time>
      </trkpt>
      <trkpt lat="42.273111" lon="2.159212">
        <ele>830</ele>
        <time>1970-01-01T04:14:20.000Z</time>
      </trkpt>
      <trkpt lat="42.273159" lon="2.159202">
        <ele>830</ele>
        <time>1970-01-01T04:14:21.000Z</time>
      </trkpt>
      <trkpt lat="42.273208" lon="2.159193">
        <ele>830</ele>
        <time>1970-01-01T04:14:22.000Z</time>
      </trkpt>
      <trkpt lat="42.273257" lon="2.159184">
        <ele>830</ele>
        <time>1970-01-01T04:14:23.000Z</time>
      </trkpt>
      <trkpt lat="42.273305" lon="2.159174">
        <ele>830</ele>
        <time>1970-01-01T04:14:24.000Z</time>
      </trkpt>
      <trkpt lat="42.273354" lon="2.159165">
        <ele>830</ele>
        <time>1970-01-01T04:14:25.000Z</time>
      </trkpt>
      <trkpt lat="42.273402" lon="2.159155">
        <ele>830</ele>
        <time>1970-01-01T04:14:26.000Z</time>
      </trkpt>
      <trkpt lat="42.273451" lon="2.159146">
        <ele>830</ele>
        <time>1970-01-01T04:14:27.000Z</time>
      </trkpt>
      <trkpt lat="42.27357" lon="2.159182">
        <ele>830</ele>
        <time>1970-01-01T04:14:28.000Z</time>
      </trkpt>
      <trkpt lat="42.273634" lon="2.159208">
        <ele>830</ele>
        <time>1970-01-01T04:14:30.000Z</time>
      </trkpt>
      <trkpt lat="42.273699" lon="2.159234">
        <ele>830</ele>
        <time>1970-01-01T04:14:32.000Z</time>
      </trkpt>
      <trkpt lat="42.273764" lon="2.15926">
        <ele>830</ele>
        <time>1970-01-01T04:14:34.000Z</time>
      </trkpt>
      <trkpt lat="42.273829" lon="2.159286">
        <ele>830</ele>
        <time>1970-01-01T04:14:35.000Z</time>
      </trkpt>
      <trkpt lat="42.273893" lon="2.159312">
        <ele>830</ele>
        <time>1970-01-01T04:14:36.000Z</time>
      </trkpt>
      <trkpt lat="42.273958" lon="2.159338">
        <ele>830</ele>
        <time>1970-01-01T04:14:37.000Z</time>
      </trkpt>
      <trkpt lat="42.274046" lon="2.159404">
        <ele>830</ele>
        <time>1970-01-01T04:14:38.000Z</time>
      </trkpt>
      <trkpt lat="42.274088" lon="2.159438">
        <ele>830</ele>
        <time>1970-01-01T04:14:39.000Z</time>
      </trkpt>
      <trkpt lat="42.274129" lon="2.159472">
        <ele>830</ele>
        <time>1970-01-01T04:14:40.000Z</time>
      </trkpt>
      <trkpt lat="42.274171" lon="2.159506">
        <ele>830</ele>
        <time>1970-01-01T04:14:41.000Z</time>
      </trkpt>
      <trkpt lat="42.274213" lon="2.159541">
        <ele>830</ele>
        <time>1970-01-01T04:14:42.000Z</time>
      </trkpt>
      <trkpt lat="42.274255" lon="2.159575">
        <ele>830</ele>
        <time>1970-01-01T04:14:43.000Z</time>
      </trkpt>
      <trkpt lat="42.274296" lon="2.159609">
        <ele>830</ele>
        <time>1970-01-01T04:14:44.000Z</time>
      </trkpt>
      <trkpt lat="42.274338" lon="2.159643">
        <ele>830</ele>
        <time>1970-01-01T04:14:45.000Z</time>
      </trkpt>
      <trkpt lat="42.27438" lon="2.159677">
        <ele>832</ele>
        <time>1970-01-01T04:14:47.000Z</time>
      </trkpt>
      <trkpt lat="42.274466" lon="2.159738">
        <ele>832</ele>
        <time>1970-01-01T04:14:48.000Z</time>
      </trkpt>
      <trkpt lat="42.274515" lon="2.159764">
        <ele>832</ele>
        <time>1970-01-01T04:14:49.000Z</time>
      </trkpt>
      <trkpt lat="42.274563" lon="2.15979">
        <ele>832</ele>
        <time>1970-01-01T04:14:50.000Z</time>
      </trkpt>
      <trkpt lat="42.274612" lon="2.159815">
        <ele>832</ele>
        <time>1970-01-01T04:14:51.000Z</time>
      </trkpt>
      <trkpt lat="42.27466" lon="2.159841">
        <ele>832</ele>
        <time>1970-01-01T04:14:52.000Z</time>
      </trkpt>
      <trkpt lat="42.274708" lon="2.159867">
        <ele>832</ele>
        <time>1970-01-01T04:14:53.000Z</time>
      </trkpt>
      <trkpt lat="42.274757" lon="2.159893">
        <ele>832</ele>
        <time>1970-01-01T04:14:55.000Z</time>
      </trkpt>
      <trkpt lat="42.274805" lon="2.159919">
        <ele>834</ele>
        <time>1970-01-01T04:14:57.000Z</time>
      </trkpt>
      <trkpt lat="42.274906" lon="2.15994">
        <ele>834</ele>
        <time>1970-01-01T04:14:58.000Z</time>
      </trkpt>
      <trkpt lat="42.274959" lon="2.159948">
        <ele>834</ele>
        <time>1970-01-01T04:15:00.000Z</time>
      </trkpt>
      <trkpt lat="42.275013" lon="2.159956">
        <ele>834</ele>
        <time>1970-01-01T04:15:02.000Z</time>
      </trkpt>
      <trkpt lat="42.275067" lon="2.159964">
        <ele>834</ele>
        <time>1970-01-01T04:15:03.000Z</time>
      </trkpt>
      <trkpt lat="42.27512" lon="2.159973">
        <ele>834</ele>
        <time>1970-01-01T04:15:04.000Z</time>
      </trkpt>
      <trkpt lat="42.275174" lon="2.159981">
        <ele>834</ele>
        <time>1970-01-01T04:15:05.000Z</time>
      </trkpt>
      <trkpt lat="42.275227" lon="2.159989">
        <ele>834</ele>
        <time>1970-01-01T04:15:06.000Z</time>
      </trkpt>
      <trkpt lat="42.275281" lon="2.159997">
        <ele>834</ele>
        <time>1970-01-01T04:15:07.000Z</time>
      </trkpt>
      <trkpt lat="42.275373" lon="2.160003">
        <ele>834</ele>
        <time>1970-01-01T04:15:08.000Z</time>
      </trkpt>
      <trkpt lat="42.275418" lon="2.160005">
        <ele>834</ele>
        <time>1970-01-01T04:15:09.000Z</time>
      </trkpt>
      <trkpt lat="42.275463" lon="2.160007">
        <ele>834</ele>
        <time>1970-01-01T04:15:11.000Z</time>
      </trkpt>
      <trkpt lat="42.275507" lon="2.160009">
        <ele>834</ele>
        <time>1970-01-01T04:15:12.000Z</time>
      </trkpt>
      <trkpt lat="42.275552" lon="2.160011">
        <ele>834</ele>
        <time>1970-01-01T04:15:15.000Z</time>
      </trkpt>
      <trkpt lat="42.275597" lon="2.160013">
        <ele>836</ele>
        <time>1970-01-01T04:15:17.000Z</time>
      </trkpt>
      <trkpt lat="42.275783" lon="2.159992">
        <ele>836</ele>
        <time>1970-01-01T04:15:18.000Z</time>
      </trkpt>
      <trkpt lat="42.275852" lon="2.15998">
        <ele>836</ele>
        <time>1970-01-01T04:15:21.000Z</time>
      </trkpt>
      <trkpt lat="42.27592" lon="2.159967">
        <ele>836</ele>
        <time>1970-01-01T04:15:24.000Z</time>
      </trkpt>
      <trkpt lat="42.275989" lon="2.159955">
        <ele>836</ele>
        <time>1970-01-01T04:15:26.000Z</time>
      </trkpt>
      <trkpt lat="42.276058" lon="2.159943">
        <ele>836</ele>
        <time>1970-01-01T04:15:27.000Z</time>
      </trkpt>
      <trkpt lat="42.276145" lon="2.159916">
        <ele>836</ele>
        <time>1970-01-01T04:15:28.000Z</time>
      </trkpt>
      <trkpt lat="42.276187" lon="2.159904">
        <ele>836</ele>
        <time>1970-01-01T04:15:30.000Z</time>
      </trkpt>
      <trkpt lat="42.276229" lon="2.159891">
        <ele>836</ele>
        <time>1970-01-01T04:15:31.000Z</time>
      </trkpt>
      <trkpt lat="42.276271" lon="2.159879">
        <ele>836</ele>
        <time>1970-01-01T04:15:32.000Z</time>
      </trkpt>
      <trkpt lat="42.276312" lon="2.159867">
        <ele>836</ele>
        <time>1970-01-01T04:15:33.000Z</time>
      </trkpt>
      <trkpt lat="42.276354" lon="2.159855">
        <ele>836</ele>
        <time>1970-01-01T04:15:34.000Z</time>
      </trkpt>
      <trkpt lat="42.276396" lon="2.159842">
        <ele>836</ele>
        <time>1970-01-01T04:15:35.000Z</time>
      </trkpt>
      <trkpt lat="42.276438" lon="2.15983">
        <ele>836</ele>
        <time>1970-01-01T04:15:36.000Z</time>
      </trkpt>
      <trkpt lat="42.27648" lon="2.159818">
        <ele>837</ele>
        <time>1970-01-01T04:15:37.000Z</time>
      </trkpt>
      <trkpt lat="42.276556" lon="2.159793">
        <ele>837</ele>
        <time>1970-01-01T04:15:38.000Z</time>
      </trkpt>
      <trkpt lat="42.276597" lon="2.159781">
        <ele>837</ele>
        <time>1970-01-01T04:15:39.000Z</time>
      </trkpt>
      <trkpt lat="42.276637" lon="2.15977">
        <ele>837</ele>
        <time>1970-01-01T04:15:40.000Z</time>
      </trkpt>
      <trkpt lat="42.276678" lon="2.159759">
        <ele>837</ele>
        <time>1970-01-01T04:15:41.000Z</time>
      </trkpt>
      <trkpt lat="42.276719" lon="2.159747">
        <ele>837</ele>
        <time>1970-01-01T04:15:43.000Z</time>
      </trkpt>
      <trkpt lat="42.27676" lon="2.159736">
        <ele>837</ele>
        <time>1970-01-01T04:15:44.000Z</time>
      </trkpt>
      <trkpt lat="42.2768" lon="2.159725">
        <ele>837</ele>
        <time>1970-01-01T04:15:45.000Z</time>
      </trkpt>
      <trkpt lat="42.276841" lon="2.159713">
        <ele>837</ele>
        <time>1970-01-01T04:15:46.000Z</time>
      </trkpt>
      <trkpt lat="42.276882" lon="2.159702">
        <ele>838</ele>
        <time>1970-01-01T04:15:47.000Z</time>
      </trkpt>
      <trkpt lat="42.276959" lon="2.159683">
        <ele>838</ele>
        <time>1970-01-01T04:15:48.000Z</time>
      </trkpt>
      <trkpt lat="42.276996" lon="2.159674">
        <ele>838</ele>
        <time>1970-01-01T04:15:49.000Z</time>
      </trkpt>
      <trkpt lat="42.277033" lon="2.159665">
        <ele>838</ele>
        <time>1970-01-01T04:15:50.000Z</time>
      </trkpt>
      <trkpt lat="42.27707" lon="2.159656">
        <ele>838</ele>
        <time>1970-01-01T04:15:51.000Z</time>
      </trkpt>
      <trkpt lat="42.277107" lon="2.159648">
        <ele>838</ele>
        <time>1970-01-01T04:15:52.000Z</time>
      </trkpt>
      <trkpt lat="42.277144" lon="2.159639">
        <ele>838</ele>
        <time>1970-01-01T04:15:53.000Z</time>
      </trkpt>
      <trkpt lat="42.277181" lon="2.15963">
        <ele>838</ele>
        <time>1970-01-01T04:15:54.000Z</time>
      </trkpt>
      <trkpt lat="42.277218" lon="2.159621">
        <ele>838</ele>
        <time>1970-01-01T04:15:55.000Z</time>
      </trkpt>
      <trkpt lat="42.277255" lon="2.159612">
        <ele>838</ele>
        <time>1970-01-01T04:15:56.000Z</time>
      </trkpt>
      <trkpt lat="42.277292" lon="2.159603">
        <ele>839</ele>
        <time>1970-01-01T04:15:57.000Z</time>
      </trkpt>
      <trkpt lat="42.277431" lon="2.159589">
        <ele>839</ele>
        <time>1970-01-01T04:15:59.000Z</time>
      </trkpt>
      <trkpt lat="42.277487" lon="2.159587">
        <ele>839</ele>
        <time>1970-01-01T04:16:02.000Z</time>
      </trkpt>
      <trkpt lat="42.277543" lon="2.159586">
        <ele>839</ele>
        <time>1970-01-01T04:16:03.000Z</time>
      </trkpt>
      <trkpt lat="42.277598" lon="2.159585">
        <ele>839</ele>
        <time>1970-01-01T04:16:05.000Z</time>
      </trkpt>
      <trkpt lat="42.277654" lon="2.159583">
        <ele>839</ele>
        <time>1970-01-01T04:16:06.000Z</time>
      </trkpt>
      <trkpt lat="42.27771" lon="2.159582">
        <ele>840</ele>
        <time>1970-01-01T04:16:07.000Z</time>
      </trkpt>
      <trkpt lat="42.277786" lon="2.15959">
        <ele>840</ele>
        <time>1970-01-01T04:16:08.000Z</time>
      </trkpt>
      <trkpt lat="42.277823" lon="2.159593">
        <ele>840</ele>
        <time>1970-01-01T04:16:09.000Z</time>
      </trkpt>
      <trkpt lat="42.277861" lon="2.159597">
        <ele>840</ele>
        <time>1970-01-01T04:16:10.000Z</time>
      </trkpt>
      <trkpt lat="42.277898" lon="2.159601">
        <ele>840</ele>
        <time>1970-01-01T04:16:11.000Z</time>
      </trkpt>
      <trkpt lat="42.277936" lon="2.159604">
        <ele>840</ele>
        <time>1970-01-01T04:16:12.000Z</time>
      </trkpt>
      <trkpt lat="42.277973" lon="2.159608">
        <ele>840</ele>
        <time>1970-01-01T04:16:13.000Z</time>
      </trkpt>
      <trkpt lat="42.278011" lon="2.159612">
        <ele>840</ele>
        <time>1970-01-01T04:16:14.000Z</time>
      </trkpt>
      <trkpt lat="42.278048" lon="2.159616">
        <ele>840</ele>
        <time>1970-01-01T04:16:15.000Z</time>
      </trkpt>
      <trkpt lat="42.278086" lon="2.159619">
        <ele>840</ele>
        <time>1970-01-01T04:16:16.000Z</time>
      </trkpt>
      <trkpt lat="42.278123" lon="2.159623">
        <ele>841</ele>
        <time>1970-01-01T04:16:17.000Z</time>
      </trkpt>
      <trkpt lat="42.278199" lon="2.159637">
        <ele>841</ele>
        <time>1970-01-01T04:16:18.000Z</time>
      </trkpt>
      <trkpt lat="42.278236" lon="2.159645">
        <ele>841</ele>
        <time>1970-01-01T04:16:19.000Z</time>
      </trkpt>
      <trkpt lat="42.278273" lon="2.159653">
        <ele>841</ele>
        <time>1970-01-01T04:16:20.000Z</time>
      </trkpt>
      <trkpt lat="42.27831" lon="2.159661">
        <ele>841</ele>
        <time>1970-01-01T04:16:22.000Z</time>
      </trkpt>
      <trkpt lat="42.278346" lon="2.15967">
        <ele>841</ele>
        <time>1970-01-01T04:16:23.000Z</time>
      </trkpt>
      <trkpt lat="42.278383" lon="2.159678">
        <ele>841</ele>
        <time>1970-01-01T04:16:24.000Z</time>
      </trkpt>
      <trkpt lat="42.27842" lon="2.159686">
        <ele>841</ele>
        <time>1970-01-01T04:16:25.000Z</time>
      </trkpt>
      <trkpt lat="42.278457" lon="2.159694">
        <ele>841</ele>
        <time>1970-01-01T04:16:26.000Z</time>
      </trkpt>
      <trkpt lat="42.278494" lon="2.159702">
        <ele>842</ele>
        <time>1970-01-01T04:16:27.000Z</time>
      </trkpt>
      <trkpt lat="42.278571" lon="2.159715">
        <ele>842</ele>
        <time>1970-01-01T04:16:28.000Z</time>
      </trkpt>
      <trkpt lat="42.278607" lon="2.15972">
        <ele>842</ele>
        <time>1970-01-01T04:16:29.000Z</time>
      </trkpt>
      <trkpt lat="42.278644" lon="2.159725">
        <ele>842</ele>
        <time>1970-01-01T04:16:30.000Z</time>
      </trkpt>
      <trkpt lat="42.27868" lon="2.15973">
        <ele>842</ele>
        <time>1970-01-01T04:16:31.000Z</time>
      </trkpt>
      <trkpt lat="42.278717" lon="2.159735">
        <ele>842</ele>
        <time>1970-01-01T04:16:32.000Z</time>
      </trkpt>
      <trkpt lat="42.278754" lon="2.159741">
        <ele>842</ele>
        <time>1970-01-01T04:16:33.000Z</time>
      </trkpt>
      <trkpt lat="42.27879" lon="2.159746">
        <ele>842</ele>
        <time>1970-01-01T04:16:34.000Z</time>
      </trkpt>
      <trkpt lat="42.278827" lon="2.159751">
        <ele>842</ele>
        <time>1970-01-01T04:16:35.000Z</time>
      </trkpt>
      <trkpt lat="42.278863" lon="2.159756">
        <ele>842</ele>
        <time>1970-01-01T04:16:36.000Z</time>
      </trkpt>
      <trkpt lat="42.2789" lon="2.159761">
        <ele>844</ele>
        <time>1970-01-01T04:16:37.000Z</time>
      </trkpt>
      <trkpt lat="42.278973" lon="2.159766">
        <ele>844</ele>
        <time>1970-01-01T04:16:38.000Z</time>
      </trkpt>
      <trkpt lat="42.279008" lon="2.159773">
        <ele>844</ele>
        <time>1970-01-01T04:16:39.000Z</time>
      </trkpt>
      <trkpt lat="42.279043" lon="2.15978">
        <ele>844</ele>
        <time>1970-01-01T04:16:40.000Z</time>
      </trkpt>
      <trkpt lat="42.279078" lon="2.159787">
        <ele>844</ele>
        <time>1970-01-01T04:16:41.000Z</time>
      </trkpt>
      <trkpt lat="42.279113" lon="2.159794">
        <ele>844</ele>
        <time>1970-01-01T04:16:42.000Z</time>
      </trkpt>
      <trkpt lat="42.279148" lon="2.159802">
        <ele>844</ele>
        <time>1970-01-01T04:16:43.000Z</time>
      </trkpt>
      <trkpt lat="42.279183" lon="2.159809">
        <ele>844</ele>
        <time>1970-01-01T04:16:44.000Z</time>
      </trkpt>
      <trkpt lat="42.279218" lon="2.159816">
        <ele>844</ele>
        <time>1970-01-01T04:16:45.000Z</time>
      </trkpt>
      <trkpt lat="42.279253" lon="2.159823">
        <ele>844</ele>
        <time>1970-01-01T04:16:46.000Z</time>
      </trkpt>
      <trkpt lat="42.279288" lon="2.15983">
        <ele>845</ele>
        <time>1970-01-01T04:16:47.000Z</time>
      </trkpt>
      <trkpt lat="42.279352" lon="2.159837">
        <ele>845</ele>
        <time>1970-01-01T04:16:48.000Z</time>
      </trkpt>
      <trkpt lat="42.279382" lon="2.159836">
        <ele>845</ele>
        <time>1970-01-01T04:16:49.000Z</time>
      </trkpt>
      <trkpt lat="42.279412" lon="2.159835">
        <ele>845</ele>
        <time>1970-01-01T04:16:50.000Z</time>
      </trkpt>
      <trkpt lat="42.279442" lon="2.159834">
        <ele>845</ele>
        <time>1970-01-01T04:16:51.000Z</time>
      </trkpt>
      <trkpt lat="42.279472" lon="2.159833">
        <ele>845</ele>
        <time>1970-01-01T04:16:52.000Z</time>
      </trkpt>
      <trkpt lat="42.279501" lon="2.159831">
        <ele>845</ele>
        <time>1970-01-01T04:16:53.000Z</time>
      </trkpt>
      <trkpt lat="42.279531" lon="2.15983">
        <ele>845</ele>
        <time>1970-01-01T04:16:54.000Z</time>
      </trkpt>
      <trkpt lat="42.279561" lon="2.159829">
        <ele>845</ele>
        <time>1970-01-01T04:16:55.000Z</time>
      </trkpt>
      <trkpt lat="42.279591" lon="2.159828">
        <ele>845</ele>
        <time>1970-01-01T04:16:56.000Z</time>
      </trkpt>
      <trkpt lat="42.279621" lon="2.159827">
        <ele>846</ele>
        <time>1970-01-01T04:16:57.000Z</time>
      </trkpt>
      <trkpt lat="42.279689" lon="2.159804">
        <ele>846</ele>
        <time>1970-01-01T04:16:58.000Z</time>
      </trkpt>
      <trkpt lat="42.279723" lon="2.159788">
        <ele>846</ele>
        <time>1970-01-01T04:16:59.000Z</time>
      </trkpt>
      <trkpt lat="42.279758" lon="2.159772">
        <ele>846</ele>
        <time>1970-01-01T04:17:00.000Z</time>
      </trkpt>
      <trkpt lat="42.279793" lon="2.159756">
        <ele>846</ele>
        <time>1970-01-01T04:17:01.000Z</time>
      </trkpt>
      <trkpt lat="42.279828" lon="2.159741">
        <ele>846</ele>
        <time>1970-01-01T04:17:02.000Z</time>
      </trkpt>
      <trkpt lat="42.279862" lon="2.159725">
        <ele>846</ele>
        <time>1970-01-01T04:17:03.000Z</time>
      </trkpt>
      <trkpt lat="42.279897" lon="2.159709">
        <ele>846</ele>
        <time>1970-01-01T04:17:04.000Z</time>
      </trkpt>
      <trkpt lat="42.279932" lon="2.159693">
        <ele>846</ele>
        <time>1970-01-01T04:17:05.000Z</time>
      </trkpt>
      <trkpt lat="42.279966" lon="2.159677">
        <ele>846</ele>
        <time>1970-01-01T04:17:06.000Z</time>
      </trkpt>
      <trkpt lat="42.280001" lon="2.159661">
        <ele>848</ele>
        <time>1970-01-01T04:17:07.000Z</time>
      </trkpt>
      <trkpt lat="42.280073" lon="2.159627">
        <ele>848</ele>
        <time>1970-01-01T04:17:08.000Z</time>
      </trkpt>
      <trkpt lat="42.280107" lon="2.159611">
        <ele>848</ele>
        <time>1970-01-01T04:17:09.000Z</time>
      </trkpt>
      <trkpt lat="42.280142" lon="2.159595">
        <ele>848</ele>
        <time>1970-01-01T04:17:10.000Z</time>
      </trkpt>
      <trkpt lat="42.280177" lon="2.159579">
        <ele>848</ele>
        <time>1970-01-01T04:17:11.000Z</time>
      </trkpt>
      <trkpt lat="42.280212" lon="2.159563">
        <ele>848</ele>
        <time>1970-01-01T04:17:12.000Z</time>
      </trkpt>
      <trkpt lat="42.280246" lon="2.159546">
        <ele>848</ele>
        <time>1970-01-01T04:17:13.000Z</time>
      </trkpt>
      <trkpt lat="42.280281" lon="2.15953">
        <ele>848</ele>
        <time>1970-01-01T04:17:14.000Z</time>
      </trkpt>
      <trkpt lat="42.280316" lon="2.159514">
        <ele>848</ele>
        <time>1970-01-01T04:17:15.000Z</time>
      </trkpt>
      <trkpt lat="42.28035" lon="2.159498">
        <ele>848</ele>
        <time>1970-01-01T04:17:16.000Z</time>
      </trkpt>
      <trkpt lat="42.280385" lon="2.159482">
        <ele>848</ele>
        <time>1970-01-01T04:17:17.000Z</time>
      </trkpt>
      <trkpt lat="42.280458" lon="2.159455">
        <ele>848</ele>
        <time>1970-01-01T04:17:18.000Z</time>
      </trkpt>
      <trkpt lat="42.280494" lon="2.159443">
        <ele>848</ele>
        <time>1970-01-01T04:17:19.000Z</time>
      </trkpt>
      <trkpt lat="42.280529" lon="2.159432">
        <ele>848</ele>
        <time>1970-01-01T04:17:20.000Z</time>
      </trkpt>
      <trkpt lat="42.280565" lon="2.159421">
        <ele>848</ele>
        <time>1970-01-01T04:17:21.000Z</time>
      </trkpt>
      <trkpt lat="42.2806" lon="2.15941">
        <ele>848</ele>
        <time>1970-01-01T04:17:22.000Z</time>
      </trkpt>
      <trkpt lat="42.280635" lon="2.159398">
        <ele>848</ele>
        <time>1970-01-01T04:17:23.000Z</time>
      </trkpt>
      <trkpt lat="42.280671" lon="2.159387">
        <ele>848</ele>
        <time>1970-01-01T04:17:24.000Z</time>
      </trkpt>
      <trkpt lat="42.280706" lon="2.159376">
        <ele>848</ele>
        <time>1970-01-01T04:17:25.000Z</time>
      </trkpt>
      <trkpt lat="42.280742" lon="2.159364">
        <ele>848</ele>
        <time>1970-01-01T04:17:26.000Z</time>
      </trkpt>
      <trkpt lat="42.280777" lon="2.159353">
        <ele>848</ele>
        <time>1970-01-01T04:17:27.000Z</time>
      </trkpt>
      <trkpt lat="42.28086" lon="2.159333">
        <ele>848</ele>
        <time>1970-01-01T04:17:28.000Z</time>
      </trkpt>
      <trkpt lat="42.280902" lon="2.159326">
        <ele>848</ele>
        <time>1970-01-01T04:17:29.000Z</time>
      </trkpt>
      <trkpt lat="42.280943" lon="2.159319">
        <ele>848</ele>
        <time>1970-01-01T04:17:30.000Z</time>
      </trkpt>
      <trkpt lat="42.280985" lon="2.159312">
        <ele>848</ele>
        <time>1970-01-01T04:17:31.000Z</time>
      </trkpt>
      <trkpt lat="42.281027" lon="2.159305">
        <ele>848</ele>
        <time>1970-01-01T04:17:32.000Z</time>
      </trkpt>
      <trkpt lat="42.281069" lon="2.159297">
        <ele>848</ele>
        <time>1970-01-01T04:17:33.000Z</time>
      </trkpt>
      <trkpt lat="42.281111" lon="2.15929">
        <ele>848</ele>
        <time>1970-01-01T04:17:34.000Z</time>
      </trkpt>
      <trkpt lat="42.281152" lon="2.159283">
        <ele>848</ele>
        <time>1970-01-01T04:17:35.000Z</time>
      </trkpt>
      <trkpt lat="42.281194" lon="2.159276">
        <ele>848</ele>
        <time>1970-01-01T04:17:36.000Z</time>
      </trkpt>
      <trkpt lat="42.281236" lon="2.159269">
        <ele>850</ele>
        <time>1970-01-01T04:17:37.000Z</time>
      </trkpt>
      <trkpt lat="42.281346" lon="2.159297">
        <ele>850</ele>
        <time>1970-01-01T04:17:38.000Z</time>
      </trkpt>
      <trkpt lat="42.281408" lon="2.15932">
        <ele>850</ele>
        <time>1970-01-01T04:17:39.000Z</time>
      </trkpt>
      <trkpt lat="42.281471" lon="2.159343">
        <ele>850</ele>
        <time>1970-01-01T04:17:40.000Z</time>
      </trkpt>
      <trkpt lat="42.281534" lon="2.159366">
        <ele>850</ele>
        <time>1970-01-01T04:17:41.000Z</time>
      </trkpt>
      <trkpt lat="42.281596" lon="2.159389">
        <ele>850</ele>
        <time>1970-01-01T04:17:44.000Z</time>
      </trkpt>
      <trkpt lat="42.281659" lon="2.159412">
        <ele>850</ele>
        <time>1970-01-01T04:17:47.000Z</time>
      </trkpt>
      <trkpt lat="42.281819" lon="2.159466">
        <ele>850</ele>
        <time>1970-01-01T04:17:50.000Z</time>
      </trkpt>
      <trkpt lat="42.281853" lon="2.159478">
        <ele>850</ele>
        <time>1970-01-01T04:17:51.000Z</time>
      </trkpt>
      <trkpt lat="42.281888" lon="2.159491">
        <ele>850</ele>
        <time>1970-01-01T04:17:52.000Z</time>
      </trkpt>
      <trkpt lat="42.281922" lon="2.159504">
        <ele>850</ele>
        <time>1970-01-01T04:17:53.000Z</time>
      </trkpt>
      <trkpt lat="42.281957" lon="2.159517">
        <ele>850</ele>
        <time>1970-01-01T04:17:54.000Z</time>
      </trkpt>
      <trkpt lat="42.281991" lon="2.159529">
        <ele>850</ele>
        <time>1970-01-01T04:17:55.000Z</time>
      </trkpt>
      <trkpt lat="42.282026" lon="2.159542">
        <ele>850</ele>
        <time>1970-01-01T04:17:56.000Z</time>
      </trkpt>
      <trkpt lat="42.28206" lon="2.159555">
        <ele>852</ele>
        <time>1970-01-01T04:17:57.000Z</time>
      </trkpt>
      <trkpt lat="42.282155" lon="2.159563">
        <ele>852</ele>
        <time>1970-01-01T04:17:58.000Z</time>
      </trkpt>
      <trkpt lat="42.282207" lon="2.159562">
        <ele>852</ele>
        <time>1970-01-01T04:17:59.000Z</time>
      </trkpt>
      <trkpt lat="42.282258" lon="2.15956">
        <ele>852</ele>
        <time>1970-01-01T04:18:00.000Z</time>
      </trkpt>
      <trkpt lat="42.28231" lon="2.159559">
        <ele>852</ele>
        <time>1970-01-01T04:18:01.000Z</time>
      </trkpt>
      <trkpt lat="42.282362" lon="2.159558">
        <ele>852</ele>
        <time>1970-01-01T04:18:03.000Z</time>
      </trkpt>
      <trkpt lat="42.282414" lon="2.159557">
        <ele>852</ele>
        <time>1970-01-01T04:18:04.000Z</time>
      </trkpt>
      <trkpt lat="42.282465" lon="2.159555">
        <ele>852</ele>
        <time>1970-01-01T04:18:06.000Z</time>
      </trkpt>
      <trkpt lat="42.282517" lon="2.159554">
        <ele>852</ele>
        <time>1970-01-01T04:18:07.000Z</time>
      </trkpt>
      <trkpt lat="42.282633" lon="2.159539">
        <ele>852</ele>
        <time>1970-01-01T04:18:08.000Z</time>
      </trkpt>
      <trkpt lat="42.282706" lon="2.159529">
        <ele>852</ele>
        <time>1970-01-01T04:18:10.000Z</time>
      </trkpt>
      <trkpt lat="42.28278" lon="2.15952">
        <ele>852</ele>
        <time>1970-01-01T04:18:12.000Z</time>
      </trkpt>
      <trkpt lat="42.282853" lon="2.15951">
        <ele>852</ele>
        <time>1970-01-01T04:18:15.000Z</time>
      </trkpt>
      <trkpt lat="42.282926" lon="2.1595">
        <ele>853</ele>
        <time>1970-01-01T04:18:17.000Z</time>
      </trkpt>
      <trkpt lat="42.283016" lon="2.159483">
        <ele>853</ele>
        <time>1970-01-01T04:18:18.000Z</time>
      </trkpt>
      <trkpt lat="42.283066" lon="2.159469">
        <ele>853</ele>
        <time>1970-01-01T04:18:21.000Z</time>
      </trkpt>
      <trkpt lat="42.283117" lon="2.159454">
        <ele>853</ele>
        <time>1970-01-01T04:18:22.000Z</time>
      </trkpt>
      <trkpt lat="42.283167" lon="2.15944">
        <ele>853</ele>
        <time>1970-01-01T04:18:23.000Z</time>
      </trkpt>
      <trkpt lat="42.283218" lon="2.159425">
        <ele>853</ele>
        <time>1970-01-01T04:18:24.000Z</time>
      </trkpt>
      <trkpt lat="42.283268" lon="2.15941">
        <ele>853</ele>
        <time>1970-01-01T04:18:25.000Z</time>
      </trkpt>
      <trkpt lat="42.283319" lon="2.159396">
        <ele>853</ele>
        <time>1970-01-01T04:18:26.000Z</time>
      </trkpt>
      <trkpt lat="42.283369" lon="2.159381">
        <ele>853</ele>
        <time>1970-01-01T04:18:27.000Z</time>
      </trkpt>
      <trkpt lat="42.283437" lon="2.159348">
        <ele>853</ele>
        <time>1970-01-01T04:18:28.000Z</time>
      </trkpt>
      <trkpt lat="42.283467" lon="2.15933">
        <ele>853</ele>
        <time>1970-01-01T04:18:29.000Z</time>
      </trkpt>
      <trkpt lat="42.283498" lon="2.159312">
        <ele>853</ele>
        <time>1970-01-01T04:18:30.000Z</time>
      </trkpt>
      <trkpt lat="42.283529" lon="2.159294">
        <ele>853</ele>
        <time>1970-01-01T04:18:31.000Z</time>
      </trkpt>
      <trkpt lat="42.28356" lon="2.159277">
        <ele>853</ele>
        <time>1970-01-01T04:18:32.000Z</time>
      </trkpt>
      <trkpt lat="42.28359" lon="2.159259">
        <ele>853</ele>
        <time>1970-01-01T04:18:33.000Z</time>
      </trkpt>
      <trkpt lat="42.283621" lon="2.159241">
        <ele>853</ele>
        <time>1970-01-01T04:18:34.000Z</time>
      </trkpt>
      <trkpt lat="42.283652" lon="2.159223">
        <ele>853</ele>
        <time>1970-01-01T04:18:35.000Z</time>
      </trkpt>
      <trkpt lat="42.283682" lon="2.159205">
        <ele>853</ele>
        <time>1970-01-01T04:18:36.000Z</time>
      </trkpt>
      <trkpt lat="42.283713" lon="2.159187">
        <ele>854</ele>
        <time>1970-01-01T04:18:37.000Z</time>
      </trkpt>
      <trkpt lat="42.283775" lon="2.159148">
        <ele>854</ele>
        <time>1970-01-01T04:18:38.000Z</time>
      </trkpt>
      <trkpt lat="42.283801" lon="2.159132">
        <ele>854</ele>
        <time>1970-01-01T04:18:39.000Z</time>
      </trkpt>
      <trkpt lat="42.283827" lon="2.159117">
        <ele>854</ele>
        <time>1970-01-01T04:18:40.000Z</time>
      </trkpt>
      <trkpt lat="42.283853" lon="2.159101">
        <ele>854</ele>
        <time>1970-01-01T04:18:42.000Z</time>
      </trkpt>
      <trkpt lat="42.283879" lon="2.159086">
        <ele>854</ele>
        <time>1970-01-01T04:18:43.000Z</time>
      </trkpt>
      <trkpt lat="42.283905" lon="2.15907">
        <ele>854</ele>
        <time>1970-01-01T04:18:44.000Z</time>
      </trkpt>
      <trkpt lat="42.283931" lon="2.159055">
        <ele>854</ele>
        <time>1970-01-01T04:18:45.000Z</time>
      </trkpt>
      <trkpt lat="42.283957" lon="2.159039">
        <ele>854</ele>
        <time>1970-01-01T04:18:46.000Z</time>
      </trkpt>
      <trkpt lat="42.283983" lon="2.159024">
        <ele>855</ele>
        <time>1970-01-01T04:18:47.000Z</time>
      </trkpt>
      <trkpt lat="42.284106" lon="2.158982">
        <ele>855</ele>
        <time>1970-01-01T04:18:48.000Z</time>
      </trkpt>
      <trkpt lat="42.284175" lon="2.158972">
        <ele>855</ele>
        <time>1970-01-01T04:18:50.000Z</time>
      </trkpt>
      <trkpt lat="42.284245" lon="2.158963">
        <ele>855</ele>
        <time>1970-01-01T04:18:51.000Z</time>
      </trkpt>
      <trkpt lat="42.284314" lon="2.158953">
        <ele>855</ele>
        <time>1970-01-01T04:18:53.000Z</time>
      </trkpt>
      <trkpt lat="42.284383" lon="2.158944">
        <ele>855</ele>
        <time>1970-01-01T04:18:55.000Z</time>
      </trkpt>
      <trkpt lat="42.284452" lon="2.158934">
        <ele>856</ele>
        <time>1970-01-01T04:18:57.000Z</time>
      </trkpt>
      <trkpt lat="42.284539" lon="2.158973">
        <ele>856</ele>
        <time>1970-01-01T04:18:58.000Z</time>
      </trkpt>
      <trkpt lat="42.284586" lon="2.159004">
        <ele>856</ele>
        <time>1970-01-01T04:19:00.000Z</time>
      </trkpt>
      <trkpt lat="42.284632" lon="2.159034">
        <ele>856</ele>
        <time>1970-01-01T04:19:01.000Z</time>
      </trkpt>
      <trkpt lat="42.284678" lon="2.159064">
        <ele>856</ele>
        <time>1970-01-01T04:19:02.000Z</time>
      </trkpt>
      <trkpt lat="42.284724" lon="2.159094">
        <ele>856</ele>
        <time>1970-01-01T04:19:03.000Z</time>
      </trkpt>
      <trkpt lat="42.284771" lon="2.159125">
        <ele>856</ele>
        <time>1970-01-01T04:19:06.000Z</time>
      </trkpt>
      <trkpt lat="42.284817" lon="2.159155">
        <ele>857</ele>
        <time>1970-01-01T04:19:07.000Z</time>
      </trkpt>
      <trkpt lat="42.284914" lon="2.159251">
        <ele>857</ele>
        <time>1970-01-01T04:19:09.000Z</time>
      </trkpt>
      <trkpt lat="42.284946" lon="2.159282">
        <ele>857</ele>
        <time>1970-01-01T04:19:10.000Z</time>
      </trkpt>
      <trkpt lat="42.284978" lon="2.159314">
        <ele>857</ele>
        <time>1970-01-01T04:19:11.000Z</time>
      </trkpt>
      <trkpt lat="42.28501" lon="2.159346">
        <ele>857</ele>
        <time>1970-01-01T04:19:12.000Z</time>
      </trkpt>
      <trkpt lat="42.285042" lon="2.159377">
        <ele>857</ele>
        <time>1970-01-01T04:19:13.000Z</time>
      </trkpt>
      <trkpt lat="42.285074" lon="2.159409">
        <ele>857</ele>
        <time>1970-01-01T04:19:14.000Z</time>
      </trkpt>
      <trkpt lat="42.285106" lon="2.159441">
        <ele>857</ele>
        <time>1970-01-01T04:19:15.000Z</time>
      </trkpt>
      <trkpt lat="42.285138" lon="2.159472">
        <ele>857</ele>
        <time>1970-01-01T04:19:16.000Z</time>
      </trkpt>
      <trkpt lat="42.28517" lon="2.159504">
        <ele>857</ele>
        <time>1970-01-01T04:19:17.000Z</time>
      </trkpt>
      <trkpt lat="42.285243" lon="2.159574">
        <ele>857</ele>
        <time>1970-01-01T04:19:18.000Z</time>
      </trkpt>
      <trkpt lat="42.285278" lon="2.159608">
        <ele>857</ele>
        <time>1970-01-01T04:19:19.000Z</time>
      </trkpt>
      <trkpt lat="42.285314" lon="2.159642">
        <ele>857</ele>
        <time>1970-01-01T04:19:20.000Z</time>
      </trkpt>
      <trkpt lat="42.285349" lon="2.159676">
        <ele>857</ele>
        <time>1970-01-01T04:19:21.000Z</time>
      </trkpt>
      <trkpt lat="42.285385" lon="2.15971">
        <ele>857</ele>
        <time>1970-01-01T04:19:22.000Z</time>
      </trkpt>
      <trkpt lat="42.285421" lon="2.159744">
        <ele>857</ele>
        <time>1970-01-01T04:19:23.000Z</time>
      </trkpt>
      <trkpt lat="42.285456" lon="2.159778">
        <ele>857</ele>
        <time>1970-01-01T04:19:24.000Z</time>
      </trkpt>
      <trkpt lat="42.285492" lon="2.159812">
        <ele>857</ele>
        <time>1970-01-01T04:19:25.000Z</time>
      </trkpt>
      <trkpt lat="42.285527" lon="2.159846">
        <ele>857</ele>
        <time>1970-01-01T04:19:26.000Z</time>
      </trkpt>
      <trkpt lat="42.285563" lon="2.15988">
        <ele>857</ele>
        <time>1970-01-01T04:19:27.000Z</time>
      </trkpt>
      <trkpt lat="42.285638" lon="2.159949">
        <ele>857</ele>
        <time>1970-01-01T04:19:28.000Z</time>
      </trkpt>
      <trkpt lat="42.285673" lon="2.159979">
        <ele>857</ele>
        <time>1970-01-01T04:19:29.000Z</time>
      </trkpt>
      <trkpt lat="42.285709" lon="2.160009">
        <ele>857</ele>
        <time>1970-01-01T04:19:30.000Z</time>
      </trkpt>
      <trkpt lat="42.285744" lon="2.160039">
        <ele>857</ele>
        <time>1970-01-01T04:19:31.000Z</time>
      </trkpt>
      <trkpt lat="42.28578" lon="2.160069">
        <ele>857</ele>
        <time>1970-01-01T04:19:32.000Z</time>
      </trkpt>
      <trkpt lat="42.285816" lon="2.1601">
        <ele>857</ele>
        <time>1970-01-01T04:19:33.000Z</time>
      </trkpt>
      <trkpt lat="42.285851" lon="2.16013">
        <ele>857</ele>
        <time>1970-01-01T04:19:34.000Z</time>
      </trkpt>
      <trkpt lat="42.285887" lon="2.16016">
        <ele>857</ele>
        <time>1970-01-01T04:19:35.000Z</time>
      </trkpt>
      <trkpt lat="42.285922" lon="2.16019">
        <ele>857</ele>
        <time>1970-01-01T04:19:36.000Z</time>
      </trkpt>
      <trkpt lat="42.285958" lon="2.16022">
        <ele>859</ele>
        <time>1970-01-01T04:19:37.000Z</time>
      </trkpt>
      <trkpt lat="42.286036" lon="2.16027">
        <ele>859</ele>
        <time>1970-01-01T04:19:38.000Z</time>
      </trkpt>
      <trkpt lat="42.286072" lon="2.160292">
        <ele>859</ele>
        <time>1970-01-01T04:19:39.000Z</time>
      </trkpt>
      <trkpt lat="42.286109" lon="2.160313">
        <ele>859</ele>
        <time>1970-01-01T04:19:40.000Z</time>
      </trkpt>
      <trkpt lat="42.286145" lon="2.160335">
        <ele>859</ele>
        <time>1970-01-01T04:19:41.000Z</time>
      </trkpt>
      <trkpt lat="42.286182" lon="2.160356">
        <ele>859</ele>
        <time>1970-01-01T04:19:42.000Z</time>
      </trkpt>
      <trkpt lat="42.286218" lon="2.160378">
        <ele>859</ele>
        <time>1970-01-01T04:19:43.000Z</time>
      </trkpt>
      <trkpt lat="42.286255" lon="2.160399">
        <ele>859</ele>
        <time>1970-01-01T04:19:44.000Z</time>
      </trkpt>
      <trkpt lat="42.286291" lon="2.160421">
        <ele>859</ele>
        <time>1970-01-01T04:19:45.000Z</time>
      </trkpt>
      <trkpt lat="42.286328" lon="2.160442">
        <ele>859</ele>
        <time>1970-01-01T04:19:46.000Z</time>
      </trkpt>
      <trkpt lat="42.286364" lon="2.160464">
        <ele>860</ele>
        <time>1970-01-01T04:19:47.000Z</time>
      </trkpt>
      <trkpt lat="42.286442" lon="2.160489">
        <ele>860</ele>
        <time>1970-01-01T04:19:48.000Z</time>
      </trkpt>
      <trkpt lat="42.28648" lon="2.160496">
        <ele>860</ele>
        <time>1970-01-01T04:19:49.000Z</time>
      </trkpt>
      <trkpt lat="42.286518" lon="2.160502">
        <ele>860</ele>
        <time>1970-01-01T04:19:50.000Z</time>
      </trkpt>
      <trkpt lat="42.286556" lon="2.160509">
        <ele>860</ele>
        <time>1970-01-01T04:19:51.000Z</time>
      </trkpt>
      <trkpt lat="42.286595" lon="2.160516">
        <ele>860</ele>
        <time>1970-01-01T04:19:52.000Z</time>
      </trkpt>
      <trkpt lat="42.286633" lon="2.160523">
        <ele>860</ele>
        <time>1970-01-01T04:19:53.000Z</time>
      </trkpt>
      <trkpt lat="42.286671" lon="2.16053">
        <ele>860</ele>
        <time>1970-01-01T04:19:54.000Z</time>
      </trkpt>
      <trkpt lat="42.286709" lon="2.160536">
        <ele>860</ele>
        <time>1970-01-01T04:19:55.000Z</time>
      </trkpt>
      <trkpt lat="42.286747" lon="2.160543">
        <ele>860</ele>
        <time>1970-01-01T04:19:56.000Z</time>
      </trkpt>
      <trkpt lat="42.286785" lon="2.16055">
        <ele>860</ele>
        <time>1970-01-01T04:19:57.000Z</time>
      </trkpt>
      <trkpt lat="42.286875" lon="2.160547">
        <ele>860</ele>
        <time>1970-01-01T04:19:58.000Z</time>
      </trkpt>
      <trkpt lat="42.286921" lon="2.160543">
        <ele>860</ele>
        <time>1970-01-01T04:19:59.000Z</time>
      </trkpt>
      <trkpt lat="42.286966" lon="2.160538">
        <ele>860</ele>
        <time>1970-01-01T04:20:00.000Z</time>
      </trkpt>
      <trkpt lat="42.287011" lon="2.160533">
        <ele>860</ele>
        <time>1970-01-01T04:20:01.000Z</time>
      </trkpt>
      <trkpt lat="42.287057" lon="2.160529">
        <ele>860</ele>
        <time>1970-01-01T04:20:02.000Z</time>
      </trkpt>
      <trkpt lat="42.287102" lon="2.160524">
        <ele>860</ele>
        <time>1970-01-01T04:20:03.000Z</time>
      </trkpt>
      <trkpt lat="42.287147" lon="2.160519">
        <ele>860</ele>
        <time>1970-01-01T04:20:05.000Z</time>
      </trkpt>
      <trkpt lat="42.287193" lon="2.160515">
        <ele>860</ele>
        <time>1970-01-01T04:20:06.000Z</time>
      </trkpt>
      <trkpt lat="42.287238" lon="2.16051">
        <ele>862</ele>
        <time>1970-01-01T04:20:07.000Z</time>
      </trkpt>
      <trkpt lat="42.28732" lon="2.16049">
        <ele>862</ele>
        <time>1970-01-01T04:20:08.000Z</time>
      </trkpt>
      <trkpt lat="42.287358" lon="2.160479">
        <ele>862</ele>
        <time>1970-01-01T04:20:09.000Z</time>
      </trkpt>
      <trkpt lat="42.287396" lon="2.160468">
        <ele>862</ele>
        <time>1970-01-01T04:20:10.000Z</time>
      </trkpt>
      <trkpt lat="42.287434" lon="2.160457">
        <ele>862</ele>
        <time>1970-01-01T04:20:11.000Z</time>
      </trkpt>
      <trkpt lat="42.287472" lon="2.160446">
        <ele>862</ele>
        <time>1970-01-01T04:20:12.000Z</time>
      </trkpt>
      <trkpt lat="42.287509" lon="2.160434">
        <ele>862</ele>
        <time>1970-01-01T04:20:13.000Z</time>
      </trkpt>
      <trkpt lat="42.287547" lon="2.160423">
        <ele>862</ele>
        <time>1970-01-01T04:20:14.000Z</time>
      </trkpt>
      <trkpt lat="42.287585" lon="2.160412">
        <ele>862</ele>
        <time>1970-01-01T04:20:15.000Z</time>
      </trkpt>
      <trkpt lat="42.287623" lon="2.160401">
        <ele>862</ele>
        <time>1970-01-01T04:20:16.000Z</time>
      </trkpt>
      <trkpt lat="42.287661" lon="2.16039">
        <ele>862</ele>
        <time>1970-01-01T04:20:17.000Z</time>
      </trkpt>
      <trkpt lat="42.287743" lon="2.160365">
        <ele>862</ele>
        <time>1970-01-01T04:20:18.000Z</time>
      </trkpt>
      <trkpt lat="42.287782" lon="2.160353">
        <ele>862</ele>
        <time>1970-01-01T04:20:19.000Z</time>
      </trkpt>
      <trkpt lat="42.287822" lon="2.160342">
        <ele>862</ele>
        <time>1970-01-01T04:20:20.000Z</time>
      </trkpt>
      <trkpt lat="42.287861" lon="2.160331">
        <ele>862</ele>
        <time>1970-01-01T04:20:21.000Z</time>
      </trkpt>
      <trkpt lat="42.287901" lon="2.16032">
        <ele>862</ele>
        <time>1970-01-01T04:20:22.000Z</time>
      </trkpt>
      <trkpt lat="42.28794" lon="2.160308">
        <ele>862</ele>
        <time>1970-01-01T04:20:23.000Z</time>
      </trkpt>
      <trkpt lat="42.28798" lon="2.160297">
        <ele>862</ele>
        <time>1970-01-01T04:20:24.000Z</time>
      </trkpt>
      <trkpt lat="42.288019" lon="2.160286">
        <ele>862</ele>
        <time>1970-01-01T04:20:25.000Z</time>
      </trkpt>
      <trkpt lat="42.288059" lon="2.160274">
        <ele>862</ele>
        <time>1970-01-01T04:20:26.000Z</time>
      </trkpt>
      <trkpt lat="42.288098" lon="2.160263">
        <ele>863</ele>
        <time>1970-01-01T04:20:27.000Z</time>
      </trkpt>
      <trkpt lat="42.288185" lon="2.16024">
        <ele>863</ele>
        <time>1970-01-01T04:20:28.000Z</time>
      </trkpt>
      <trkpt lat="42.288228" lon="2.160228">
        <ele>863</ele>
        <time>1970-01-01T04:20:29.000Z</time>
      </trkpt>
      <trkpt lat="42.288272" lon="2.160216">
        <ele>863</ele>
        <time>1970-01-01T04:20:30.000Z</time>
      </trkpt>
      <trkpt lat="42.288315" lon="2.160204">
        <ele>863</ele>
        <time>1970-01-01T04:20:32.000Z</time>
      </trkpt>
      <trkpt lat="42.288358" lon="2.160192">
        <ele>863</ele>
        <time>1970-01-01T04:20:33.000Z</time>
      </trkpt>
      <trkpt lat="42.288401" lon="2.16018">
        <ele>863</ele>
        <time>1970-01-01T04:20:34.000Z</time>
      </trkpt>
      <trkpt lat="42.288445" lon="2.160168">
        <ele>863</ele>
        <time>1970-01-01T04:20:35.000Z</time>
      </trkpt>
      <trkpt lat="42.288488" lon="2.160156">
        <ele>863</ele>
        <time>1970-01-01T04:20:36.000Z</time>
      </trkpt>
      <trkpt lat="42.288531" lon="2.160144">
        <ele>863</ele>
        <time>1970-01-01T04:20:37.000Z</time>
      </trkpt>
      <trkpt lat="42.288624" lon="2.160138">
        <ele>863</ele>
        <time>1970-01-01T04:20:38.000Z</time>
      </trkpt>
      <trkpt lat="42.288677" lon="2.16014">
        <ele>863</ele>
        <time>1970-01-01T04:20:39.000Z</time>
      </trkpt>
      <trkpt lat="42.288731" lon="2.160142">
        <ele>863</ele>
        <time>1970-01-01T04:20:40.000Z</time>
      </trkpt>
      <trkpt lat="42.288784" lon="2.160143">
        <ele>863</ele>
        <time>1970-01-01T04:20:41.000Z</time>
      </trkpt>
      <trkpt lat="42.288838" lon="2.160145">
        <ele>863</ele>
        <time>1970-01-01T04:20:43.000Z</time>
      </trkpt>
      <trkpt lat="42.288891" lon="2.160147">
        <ele>863</ele>
        <time>1970-01-01T04:20:45.000Z</time>
      </trkpt>
      <trkpt lat="42.288945" lon="2.160149">
        <ele>863</ele>
        <time>1970-01-01T04:20:46.000Z</time>
      </trkpt>
      <trkpt lat="42.288998" lon="2.160151">
        <ele>863</ele>
        <time>1970-01-01T04:20:47.000Z</time>
      </trkpt>
      <trkpt lat="42.289142" lon="2.160174">
        <ele>863</ele>
        <time>1970-01-01T04:20:49.000Z</time>
      </trkpt>
      <trkpt lat="42.289179" lon="2.160191">
        <ele>863</ele>
        <time>1970-01-01T04:20:50.000Z</time>
      </trkpt>
      <trkpt lat="42.289215" lon="2.160207">
        <ele>863</ele>
        <time>1970-01-01T04:20:51.000Z</time>
      </trkpt>
      <trkpt lat="42.289252" lon="2.160224">
        <ele>863</ele>
        <time>1970-01-01T04:20:52.000Z</time>
      </trkpt>
      <trkpt lat="42.289289" lon="2.160241">
        <ele>863</ele>
        <time>1970-01-01T04:20:53.000Z</time>
      </trkpt>
      <trkpt lat="42.289326" lon="2.160258">
        <ele>863</ele>
        <time>1970-01-01T04:20:54.000Z</time>
      </trkpt>
      <trkpt lat="42.289362" lon="2.160274">
        <ele>863</ele>
        <time>1970-01-01T04:20:55.000Z</time>
      </trkpt>
      <trkpt lat="42.289399" lon="2.160291">
        <ele>863</ele>
        <time>1970-01-01T04:20:56.000Z</time>
      </trkpt>
      <trkpt lat="42.289436" lon="2.160308">
        <ele>866</ele>
        <time>1970-01-01T04:20:57.000Z</time>
      </trkpt>
      <trkpt lat="42.289505" lon="2.160353">
        <ele>866</ele>
        <time>1970-01-01T04:20:58.000Z</time>
      </trkpt>
      <trkpt lat="42.289538" lon="2.160374">
        <ele>866</ele>
        <time>1970-01-01T04:20:59.000Z</time>
      </trkpt>
      <trkpt lat="42.28957" lon="2.160396">
        <ele>866</ele>
        <time>1970-01-01T04:21:00.000Z</time>
      </trkpt>
      <trkpt lat="42.289602" lon="2.160417">
        <ele>866</ele>
        <time>1970-01-01T04:21:01.000Z</time>
      </trkpt>
      <trkpt lat="42.289635" lon="2.160439">
        <ele>866</ele>
        <time>1970-01-01T04:21:02.000Z</time>
      </trkpt>
      <trkpt lat="42.289667" lon="2.160461">
        <ele>866</ele>
        <time>1970-01-01T04:21:03.000Z</time>
      </trkpt>
      <trkpt lat="42.289699" lon="2.160482">
        <ele>866</ele>
        <time>1970-01-01T04:21:04.000Z</time>
      </trkpt>
      <trkpt lat="42.289731" lon="2.160504">
        <ele>866</ele>
        <time>1970-01-01T04:21:05.000Z</time>
      </trkpt>
      <trkpt lat="42.289764" lon="2.160525">
        <ele>866</ele>
        <time>1970-01-01T04:21:06.000Z</time>
      </trkpt>
      <trkpt lat="42.289796" lon="2.160547">
        <ele>866</ele>
        <time>1970-01-01T04:21:07.000Z</time>
      </trkpt>
      <trkpt lat="42.289937" lon="2.160656">
        <ele>866</ele>
        <time>1970-01-01T04:21:10.000Z</time>
      </trkpt>
      <trkpt lat="42.289978" lon="2.160683">
        <ele>866</ele>
        <time>1970-01-01T04:21:13.000Z</time>
      </trkpt>
      <trkpt lat="42.29002" lon="2.160709">
        <ele>866</ele>
        <time>1970-01-01T04:21:14.000Z</time>
      </trkpt>
      <trkpt lat="42.290061" lon="2.160735">
        <ele>866</ele>
        <time>1970-01-01T04:21:15.000Z</time>
      </trkpt>
      <trkpt lat="42.290102" lon="2.160762">
        <ele>866</ele>
        <time>1970-01-01T04:21:16.000Z</time>
      </trkpt>
      <trkpt lat="42.290143" lon="2.160788">
        <ele>868</ele>
        <time>1970-01-01T04:21:17.000Z</time>
      </trkpt>
      <trkpt lat="42.290226" lon="2.160813">
        <ele>868</ele>
        <time>1970-01-01T04:21:18.000Z</time>
      </trkpt>
      <trkpt lat="42.290271" lon="2.160823">
        <ele>868</ele>
        <time>1970-01-01T04:21:19.000Z</time>
      </trkpt>
      <trkpt lat="42.290316" lon="2.160833">
        <ele>868</ele>
        <time>1970-01-01T04:21:20.000Z</time>
      </trkpt>
      <trkpt lat="42.290362" lon="2.160843">
        <ele>868</ele>
        <time>1970-01-01T04:21:21.000Z</time>
      </trkpt>
      <trkpt lat="42.290407" lon="2.160854">
        <ele>868</ele>
        <time>1970-01-01T04:21:22.000Z</time>
      </trkpt>
      <trkpt lat="42.290452" lon="2.160864">
        <ele>868</ele>
        <time>1970-01-01T04:21:23.000Z</time>
      </trkpt>
      <trkpt lat="42.290497" lon="2.160874">
        <ele>868</ele>
        <time>1970-01-01T04:21:24.000Z</time>
      </trkpt>
      <trkpt lat="42.290542" lon="2.160884">
        <ele>869</ele>
        <time>1970-01-01T04:21:27.000Z</time>
      </trkpt>
      <trkpt lat="42.290742" lon="2.160913">
        <ele>869</ele>
        <time>1970-01-01T04:21:30.000Z</time>
      </trkpt>
      <trkpt lat="42.290823" lon="2.160915">
        <ele>869</ele>
        <time>1970-01-01T04:21:33.000Z</time>
      </trkpt>
      <trkpt lat="42.290903" lon="2.160918">
        <ele>869</ele>
        <time>1970-01-01T04:21:35.000Z</time>
      </trkpt>
      <trkpt lat="42.290983" lon="2.16092">
        <ele>870</ele>
        <time>1970-01-01T04:21:37.000Z</time>
      </trkpt>
      <trkpt lat="42.291097" lon="2.160924">
        <ele>870</ele>
        <time>1970-01-01T04:21:38.000Z</time>
      </trkpt>
      <trkpt lat="42.291167" lon="2.160922">
        <ele>870</ele>
        <time>1970-01-01T04:21:40.000Z</time>
      </trkpt>
      <trkpt lat="42.291237" lon="2.160921">
        <ele>870</ele>
        <time>1970-01-01T04:21:41.000Z</time>
      </trkpt>
      <trkpt lat="42.291306" lon="2.160919">
        <ele>870</ele>
        <time>1970-01-01T04:21:43.000Z</time>
      </trkpt>
      <trkpt lat="42.291376" lon="2.160917">
        <ele>870</ele>
        <time>1970-01-01T04:21:45.000Z</time>
      </trkpt>
      <trkpt lat="42.291446" lon="2.160915">
        <ele>871</ele>
        <time>1970-01-01T04:21:47.000Z</time>
      </trkpt>
      <trkpt lat="42.291531" lon="2.160894">
        <ele>871</ele>
        <time>1970-01-01T04:21:48.000Z</time>
      </trkpt>
      <trkpt lat="42.291571" lon="2.16088">
        <ele>871</ele>
        <time>1970-01-01T04:21:49.000Z</time>
      </trkpt>
      <trkpt lat="42.29161" lon="2.160867">
        <ele>871</ele>
        <time>1970-01-01T04:21:50.000Z</time>
      </trkpt>
      <trkpt lat="42.29165" lon="2.160854">
        <ele>871</ele>
        <time>1970-01-01T04:21:51.000Z</time>
      </trkpt>
      <trkpt lat="42.291689" lon="2.160841">
        <ele>871</ele>
        <time>1970-01-01T04:21:52.000Z</time>
      </trkpt>
      <trkpt lat="42.291728" lon="2.160827">
        <ele>871</ele>
        <time>1970-01-01T04:21:53.000Z</time>
      </trkpt>
      <trkpt lat="42.291768" lon="2.160814">
        <ele>871</ele>
        <time>1970-01-01T04:21:54.000Z</time>
      </trkpt>
      <trkpt lat="42.291807" lon="2.160801">
        <ele>871</ele>
        <time>1970-01-01T04:21:55.000Z</time>
      </trkpt>
      <trkpt lat="42.291847" lon="2.160787">
        <ele>871</ele>
        <time>1970-01-01T04:21:56.000Z</time>
      </trkpt>
      <trkpt lat="42.291886" lon="2.160774">
        <ele>872</ele>
        <time>1970-01-01T04:21:57.000Z</time>
      </trkpt>
      <trkpt lat="42.291979" lon="2.16076">
        <ele>872</ele>
        <time>1970-01-01T04:21:58.000Z</time>
      </trkpt>
      <trkpt lat="42.292028" lon="2.160761">
        <ele>872</ele>
        <time>1970-01-01T04:21:59.000Z</time>
      </trkpt>
      <trkpt lat="42.292076" lon="2.160763">
        <ele>872</ele>
        <time>1970-01-01T04:22:00.000Z</time>
      </trkpt>
      <trkpt lat="42.292124" lon="2.160764">
        <ele>872</ele>
        <time>1970-01-01T04:22:01.000Z</time>
      </trkpt>
      <trkpt lat="42.292172" lon="2.160766">
        <ele>872</ele>
        <time>1970-01-01T04:22:02.000Z</time>
      </trkpt>
      <trkpt lat="42.292221" lon="2.160768">
        <ele>872</ele>
        <time>1970-01-01T04:22:03.000Z</time>
      </trkpt>
      <trkpt lat="42.292269" lon="2.160769">
        <ele>872</ele>
        <time>1970-01-01T04:22:04.000Z</time>
      </trkpt>
      <trkpt lat="42.292317" lon="2.160771">
        <ele>873</ele>
        <time>1970-01-01T04:22:07.000Z</time>
      </trkpt>
      <trkpt lat="42.292486" lon="2.160842">
        <ele>873</ele>
        <time>1970-01-01T04:22:09.000Z</time>
      </trkpt>
      <trkpt lat="42.292568" lon="2.160886">
        <ele>873</ele>
        <time>1970-01-01T04:22:12.000Z</time>
      </trkpt>
      <trkpt lat="42.292649" lon="2.160929">
        <ele>873</ele>
        <time>1970-01-01T04:22:15.000Z</time>
      </trkpt>
      <trkpt lat="42.29273" lon="2.160973">
        <ele>873</ele>
        <time>1970-01-01T04:22:17.000Z</time>
      </trkpt>
      <trkpt lat="42.292874" lon="2.161076">
        <ele>873</ele>
        <time>1970-01-01T04:22:19.000Z</time>
      </trkpt>
      <trkpt lat="42.292937" lon="2.161127">
        <ele>873</ele>
        <time>1970-01-01T04:22:21.000Z</time>
      </trkpt>
      <trkpt lat="42.293001" lon="2.161177">
        <ele>873</ele>
        <time>1970-01-01T04:22:23.000Z</time>
      </trkpt>
      <trkpt lat="42.293064" lon="2.161228">
        <ele>873</ele>
        <time>1970-01-01T04:22:25.000Z</time>
      </trkpt>
      <trkpt lat="42.293127" lon="2.161278">
        <ele>874</ele>
        <time>1970-01-01T04:22:27.000Z</time>
      </trkpt>
      <trkpt lat="42.293217" lon="2.161392">
        <ele>874</ele>
        <time>1970-01-01T04:22:28.000Z</time>
      </trkpt>
      <trkpt lat="42.293275" lon="2.16147">
        <ele>874</ele>
        <time>1970-01-01T04:22:31.000Z</time>
      </trkpt>
      <trkpt lat="42.293332" lon="2.161547">
        <ele>874</ele>
        <time>1970-01-01T04:22:34.000Z</time>
      </trkpt>
      <trkpt lat="42.29339" lon="2.161625">
        <ele>874</ele>
        <time>1970-01-01T04:22:37.000Z</time>
      </trkpt>
      <trkpt lat="42.29349" lon="2.161778">
        <ele>874</ele>
        <time>1970-01-01T04:22:40.000Z</time>
      </trkpt>
      <trkpt lat="42.29353" lon="2.161836">
        <ele>874</ele>
        <time>1970-01-01T04:22:43.000Z</time>
      </trkpt>
      <trkpt lat="42.293569" lon="2.161893">
        <ele>874</ele>
        <time>1970-01-01T04:22:46.000Z</time>
      </trkpt>
      <trkpt lat="42.293608" lon="2.161951">
        <ele>875</ele>
        <time>1970-01-01T04:22:47.000Z</time>
      </trkpt>
      <trkpt lat="42.293698" lon="2.162097">
        <ele>875</ele>
        <time>1970-01-01T04:22:49.000Z</time>
      </trkpt>
      <trkpt lat="42.293742" lon="2.16217">
        <ele>875</ele>
        <time>1970-01-01T04:22:52.000Z</time>
      </trkpt>
      <trkpt lat="42.293787" lon="2.162244">
        <ele>875</ele>
        <time>1970-01-01T04:22:54.000Z</time>
      </trkpt>
      <trkpt lat="42.293831" lon="2.162317">
        <ele>875</ele>
        <time>1970-01-01T04:22:56.000Z</time>
      </trkpt>
      <trkpt lat="42.293875" lon="2.16239">
        <ele>875</ele>
        <time>1970-01-01T04:22:57.000Z</time>
      </trkpt>
      <trkpt lat="42.293919" lon="2.162541">
        <ele>875</ele>
        <time>1970-01-01T04:22:58.000Z</time>
      </trkpt>
      <trkpt lat="42.29395" lon="2.162627">
        <ele>875</ele>
        <time>1970-01-01T04:23:00.000Z</time>
      </trkpt>
      <trkpt lat="42.29398" lon="2.162712">
        <ele>875</ele>
        <time>1970-01-01T04:23:02.000Z</time>
      </trkpt>
      <trkpt lat="42.29401" lon="2.162797">
        <ele>875</ele>
        <time>1970-01-01T04:23:04.000Z</time>
      </trkpt>
      <trkpt lat="42.294041" lon="2.162883">
        <ele>875</ele>
        <time>1970-01-01T04:23:06.000Z</time>
      </trkpt>
      <trkpt lat="42.294071" lon="2.162968">
        <ele>876</ele>
        <time>1970-01-01T04:23:07.000Z</time>
      </trkpt>
      <trkpt lat="42.294105" lon="2.163068">
        <ele>876</ele>
        <time>1970-01-01T04:23:08.000Z</time>
      </trkpt>
      <trkpt lat="42.29412" lon="2.163118">
        <ele>876</ele>
        <time>1970-01-01T04:23:09.000Z</time>
      </trkpt>
      <trkpt lat="42.294136" lon="2.163167">
        <ele>876</ele>
        <time>1970-01-01T04:23:10.000Z</time>
      </trkpt>
      <trkpt lat="42.294152" lon="2.163217">
        <ele>876</ele>
        <time>1970-01-01T04:23:11.000Z</time>
      </trkpt>
      <trkpt lat="42.294168" lon="2.163266">
        <ele>876</ele>
        <time>1970-01-01T04:23:12.000Z</time>
      </trkpt>
      <trkpt lat="42.294183" lon="2.163316">
        <ele>876</ele>
        <time>1970-01-01T04:23:13.000Z</time>
      </trkpt>
      <trkpt lat="42.294199" lon="2.163365">
        <ele>876</ele>
        <time>1970-01-01T04:23:14.000Z</time>
      </trkpt>
      <trkpt lat="42.294215" lon="2.163415">
        <ele>876</ele>
        <time>1970-01-01T04:23:15.000Z</time>
      </trkpt>
      <trkpt lat="42.29423" lon="2.163464">
        <ele>876</ele>
        <time>1970-01-01T04:23:16.000Z</time>
      </trkpt>
      <trkpt lat="42.294246" lon="2.163514">
        <ele>878</ele>
        <time>1970-01-01T04:23:17.000Z</time>
      </trkpt>
      <trkpt lat="42.294293" lon="2.163644">
        <ele>878</ele>
        <time>1970-01-01T04:23:18.000Z</time>
      </trkpt>
      <trkpt lat="42.294322" lon="2.163719">
        <ele>878</ele>
        <time>1970-01-01T04:23:19.000Z</time>
      </trkpt>
      <trkpt lat="42.29435" lon="2.163794">
        <ele>878</ele>
        <time>1970-01-01T04:23:20.000Z</time>
      </trkpt>
      <trkpt lat="42.294379" lon="2.163869">
        <ele>878</ele>
        <time>1970-01-01T04:23:21.000Z</time>
      </trkpt>
      <trkpt lat="42.294407" lon="2.163944">
        <ele>878</ele>
        <time>1970-01-01T04:23:23.000Z</time>
      </trkpt>
      <trkpt lat="42.294436" lon="2.164019">
        <ele>878</ele>
        <time>1970-01-01T04:23:25.000Z</time>
      </trkpt>
      <trkpt lat="42.294464" lon="2.164094">
        <ele>878</ele>
        <time>1970-01-01T04:23:27.000Z</time>
      </trkpt>
      <trkpt lat="42.294553" lon="2.164257">
        <ele>878</ele>
        <time>1970-01-01T04:23:29.000Z</time>
      </trkpt>
      <trkpt lat="42.294589" lon="2.164312">
        <ele>878</ele>
        <time>1970-01-01T04:23:31.000Z</time>
      </trkpt>
      <trkpt lat="42.294625" lon="2.164368">
        <ele>878</ele>
        <time>1970-01-01T04:23:33.000Z</time>
      </trkpt>
      <trkpt lat="42.294661" lon="2.164423">
        <ele>878</ele>
        <time>1970-01-01T04:23:34.000Z</time>
      </trkpt>
      <trkpt lat="42.294697" lon="2.164479">
        <ele>878</ele>
        <time>1970-01-01T04:23:35.000Z</time>
      </trkpt>
      <trkpt lat="42.294733" lon="2.164534">
        <ele>878</ele>
        <time>1970-01-01T04:23:36.000Z</time>
      </trkpt>
      <trkpt lat="42.294769" lon="2.16459">
        <ele>879</ele>
        <time>1970-01-01T04:23:37.000Z</time>
      </trkpt>
      <trkpt lat="42.294853" lon="2.164655">
        <ele>879</ele>
        <time>1970-01-01T04:23:38.000Z</time>
      </trkpt>
      <trkpt lat="42.294898" lon="2.164681">
        <ele>879</ele>
        <time>1970-01-01T04:23:39.000Z</time>
      </trkpt>
      <trkpt lat="42.294943" lon="2.164707">
        <ele>879</ele>
        <time>1970-01-01T04:23:40.000Z</time>
      </trkpt>
      <trkpt lat="42.294988" lon="2.164733">
        <ele>879</ele>
        <time>1970-01-01T04:23:41.000Z</time>
      </trkpt>
      <trkpt lat="42.295034" lon="2.16476">
        <ele>879</ele>
        <time>1970-01-01T04:23:42.000Z</time>
      </trkpt>
      <trkpt lat="42.295079" lon="2.164786">
        <ele>879</ele>
        <time>1970-01-01T04:23:43.000Z</time>
      </trkpt>
      <trkpt lat="42.295124" lon="2.164812">
        <ele>879</ele>
        <time>1970-01-01T04:23:44.000Z</time>
      </trkpt>
      <trkpt lat="42.295169" lon="2.164838">
        <ele>879</ele>
        <time>1970-01-01T04:23:45.000Z</time>
      </trkpt>
      <trkpt lat="42.295214" lon="2.164864">
        <ele>879</ele>
        <time>1970-01-01T04:23:47.000Z</time>
      </trkpt>
      <trkpt lat="42.295341" lon="2.164911">
        <ele>879</ele>
        <time>1970-01-01T04:23:49.000Z</time>
      </trkpt>
      <trkpt lat="42.295377" lon="2.164923">
        <ele>879</ele>
        <time>1970-01-01T04:23:50.000Z</time>
      </trkpt>
      <trkpt lat="42.295413" lon="2.164936">
        <ele>879</ele>
        <time>1970-01-01T04:23:51.000Z</time>
      </trkpt>
      <trkpt lat="42.295449" lon="2.164948">
        <ele>879</ele>
        <time>1970-01-01T04:23:52.000Z</time>
      </trkpt>
      <trkpt lat="42.295485" lon="2.16496">
        <ele>879</ele>
        <time>1970-01-01T04:23:53.000Z</time>
      </trkpt>
      <trkpt lat="42.295521" lon="2.164972">
        <ele>879</ele>
        <time>1970-01-01T04:23:54.000Z</time>
      </trkpt>
      <trkpt lat="42.295557" lon="2.164985">
        <ele>879</ele>
        <time>1970-01-01T04:23:55.000Z</time>
      </trkpt>
      <trkpt lat="42.295593" lon="2.164997">
        <ele>879</ele>
        <time>1970-01-01T04:23:56.000Z</time>
      </trkpt>
      <trkpt lat="42.295629" lon="2.165009">
        <ele>880</ele>
        <time>1970-01-01T04:23:57.000Z</time>
      </trkpt>
      <trkpt lat="42.295703" lon="2.165031">
        <ele>880</ele>
        <time>1970-01-01T04:23:58.000Z</time>
      </trkpt>
      <trkpt lat="42.295737" lon="2.165041">
        <ele>880</ele>
        <time>1970-01-01T04:23:59.000Z</time>
      </trkpt>
      <trkpt lat="42.295772" lon="2.165051">
        <ele>880</ele>
        <time>1970-01-01T04:24:00.000Z</time>
      </trkpt>
      <trkpt lat="42.295806" lon="2.165061">
        <ele>880</ele>
        <time>1970-01-01T04:24:01.000Z</time>
      </trkpt>
      <trkpt lat="42.295841" lon="2.165071">
        <ele>880</ele>
        <time>1970-01-01T04:24:02.000Z</time>
      </trkpt>
      <trkpt lat="42.295875" lon="2.165082">
        <ele>880</ele>
        <time>1970-01-01T04:24:03.000Z</time>
      </trkpt>
      <trkpt lat="42.29591" lon="2.165092">
        <ele>880</ele>
        <time>1970-01-01T04:24:04.000Z</time>
      </trkpt>
      <trkpt lat="42.295944" lon="2.165102">
        <ele>880</ele>
        <time>1970-01-01T04:24:05.000Z</time>
      </trkpt>
      <trkpt lat="42.295979" lon="2.165112">
        <ele>880</ele>
        <time>1970-01-01T04:24:06.000Z</time>
      </trkpt>
      <trkpt lat="42.296013" lon="2.165122">
        <ele>881</ele>
        <time>1970-01-01T04:24:07.000Z</time>
      </trkpt>
      <trkpt lat="42.296094" lon="2.165147">
        <ele>881</ele>
        <time>1970-01-01T04:24:08.000Z</time>
      </trkpt>
      <trkpt lat="42.296138" lon="2.165159">
        <ele>881</ele>
        <time>1970-01-01T04:24:09.000Z</time>
      </trkpt>
      <trkpt lat="42.296181" lon="2.165171">
        <ele>881</ele>
        <time>1970-01-01T04:24:10.000Z</time>
      </trkpt>
      <trkpt lat="42.296225" lon="2.165183">
        <ele>881</ele>
        <time>1970-01-01T04:24:11.000Z</time>
      </trkpt>
      <trkpt lat="42.296268" lon="2.165196">
        <ele>881</ele>
        <time>1970-01-01T04:24:12.000Z</time>
      </trkpt>
      <trkpt lat="42.296311" lon="2.165208">
        <ele>881</ele>
        <time>1970-01-01T04:24:15.000Z</time>
      </trkpt>
      <trkpt lat="42.296355" lon="2.16522">
        <ele>881</ele>
        <time>1970-01-01T04:24:16.000Z</time>
      </trkpt>
      <trkpt lat="42.296398" lon="2.165232">
        <ele>881</ele>
        <time>1970-01-01T04:24:17.000Z</time>
      </trkpt>
      <trkpt lat="42.296544" lon="2.165278">
        <ele>881</ele>
        <time>1970-01-01T04:24:19.000Z</time>
      </trkpt>
      <trkpt lat="42.296624" lon="2.165294">
        <ele>881</ele>
        <time>1970-01-01T04:24:22.000Z</time>
      </trkpt>
      <trkpt lat="42.296703" lon="2.165311">
        <ele>881</ele>
        <time>1970-01-01T04:24:25.000Z</time>
      </trkpt>
      <trkpt lat="42.296782" lon="2.165328">
        <ele>883</ele>
        <time>1970-01-01T04:24:27.000Z</time>
      </trkpt>
      <trkpt lat="42.29692" lon="2.165337">
        <ele>883</ele>
        <time>1970-01-01T04:24:28.000Z</time>
      </trkpt>
      <trkpt lat="42.297015" lon="2.165343">
        <ele>883</ele>
        <time>1970-01-01T04:24:31.000Z</time>
      </trkpt>
      <trkpt lat="42.297109" lon="2.16535">
        <ele>883</ele>
        <time>1970-01-01T04:24:34.000Z</time>
      </trkpt>
      <trkpt lat="42.297203" lon="2.165356">
        <ele>883</ele>
        <time>1970-01-01T04:24:37.000Z</time>
      </trkpt>
      <trkpt lat="42.297297" lon="2.165367">
        <ele>883</ele>
        <time>1970-01-01T04:24:38.000Z</time>
      </trkpt>
      <trkpt lat="42.297349" lon="2.165375">
        <ele>883</ele>
        <time>1970-01-01T04:24:39.000Z</time>
      </trkpt>
      <trkpt lat="42.297401" lon="2.165382">
        <ele>883</ele>
        <time>1970-01-01T04:24:40.000Z</time>
      </trkpt>
      <trkpt lat="42.297453" lon="2.165389">
        <ele>883</ele>
        <time>1970-01-01T04:24:41.000Z</time>
      </trkpt>
      <trkpt lat="42.297505" lon="2.165396">
        <ele>883</ele>
        <time>1970-01-01T04:24:42.000Z</time>
      </trkpt>
      <trkpt lat="42.297557" lon="2.165404">
        <ele>883</ele>
        <time>1970-01-01T04:24:44.000Z</time>
      </trkpt>
      <trkpt lat="42.297609" lon="2.165411">
        <ele>884</ele>
        <time>1970-01-01T04:24:47.000Z</time>
      </trkpt>
      <trkpt lat="42.297807" lon="2.165437">
        <ele>884</ele>
        <time>1970-01-01T04:24:50.000Z</time>
      </trkpt>
      <trkpt lat="42.297882" lon="2.165446">
        <ele>884</ele>
        <time>1970-01-01T04:24:52.000Z</time>
      </trkpt>
      <trkpt lat="42.297956" lon="2.165455">
        <ele>884</ele>
        <time>1970-01-01T04:24:55.000Z</time>
      </trkpt>
      <trkpt lat="42.29803" lon="2.165464">
        <ele>886</ele>
        <time>1970-01-01T04:24:57.000Z</time>
      </trkpt>
      <trkpt lat="42.298106" lon="2.165479">
        <ele>886</ele>
        <time>1970-01-01T04:24:58.000Z</time>
      </trkpt>
      <trkpt lat="42.298142" lon="2.165487">
        <ele>886</ele>
        <time>1970-01-01T04:24:59.000Z</time>
      </trkpt>
      <trkpt lat="42.298178" lon="2.165496">
        <ele>886</ele>
        <time>1970-01-01T04:25:00.000Z</time>
      </trkpt>
      <trkpt lat="42.298214" lon="2.165505">
        <ele>886</ele>
        <time>1970-01-01T04:25:01.000Z</time>
      </trkpt>
      <trkpt lat="42.298251" lon="2.165513">
        <ele>886</ele>
        <time>1970-01-01T04:25:02.000Z</time>
      </trkpt>
      <trkpt lat="42.298287" lon="2.165522">
        <ele>886</ele>
        <time>1970-01-01T04:25:03.000Z</time>
      </trkpt>
      <trkpt lat="42.298323" lon="2.165531">
        <ele>886</ele>
        <time>1970-01-01T04:25:04.000Z</time>
      </trkpt>
      <trkpt lat="42.298359" lon="2.16554">
        <ele>886</ele>
        <time>1970-01-01T04:25:05.000Z</time>
      </trkpt>
      <trkpt lat="42.298395" lon="2.165548">
        <ele>886</ele>
        <time>1970-01-01T04:25:06.000Z</time>
      </trkpt>
      <trkpt lat="42.298431" lon="2.165557">
        <ele>886</ele>
        <time>1970-01-01T04:25:07.000Z</time>
      </trkpt>
      <trkpt lat="42.298501" lon="2.165599">
        <ele>886</ele>
        <time>1970-01-01T04:25:08.000Z</time>
      </trkpt>
      <trkpt lat="42.298533" lon="2.165622">
        <ele>886</ele>
        <time>1970-01-01T04:25:09.000Z</time>
      </trkpt>
      <trkpt lat="42.298565" lon="2.165644">
        <ele>886</ele>
        <time>1970-01-01T04:25:10.000Z</time>
      </trkpt>
      <trkpt lat="42.298597" lon="2.165667">
        <ele>886</ele>
        <time>1970-01-01T04:25:11.000Z</time>
      </trkpt>
      <trkpt lat="42.29863" lon="2.165689">
        <ele>886</ele>
        <time>1970-01-01T04:25:12.000Z</time>
      </trkpt>
      <trkpt lat="42.298662" lon="2.165711">
        <ele>886</ele>
        <time>1970-01-01T04:25:13.000Z</time>
      </trkpt>
      <trkpt lat="42.298694" lon="2.165734">
        <ele>886</ele>
        <time>1970-01-01T04:25:14.000Z</time>
      </trkpt>
      <trkpt lat="42.298726" lon="2.165756">
        <ele>886</ele>
        <time>1970-01-01T04:25:15.000Z</time>
      </trkpt>
      <trkpt lat="42.298758" lon="2.165779">
        <ele>886</ele>
        <time>1970-01-01T04:25:16.000Z</time>
      </trkpt>
      <trkpt lat="42.29879" lon="2.165801">
        <ele>888</ele>
        <time>1970-01-01T04:25:17.000Z</time>
      </trkpt>
      <trkpt lat="42.298854" lon="2.165852">
        <ele>888</ele>
        <time>1970-01-01T04:25:18.000Z</time>
      </trkpt>
      <trkpt lat="42.298883" lon="2.165877">
        <ele>888</ele>
        <time>1970-01-01T04:25:19.000Z</time>
      </trkpt>
      <trkpt lat="42.298913" lon="2.165901">
        <ele>888</ele>
        <time>1970-01-01T04:25:20.000Z</time>
      </trkpt>
      <trkpt lat="42.298942" lon="2.165926">
        <ele>888</ele>
        <time>1970-01-01T04:25:21.000Z</time>
      </trkpt>
      <trkpt lat="42.298972" lon="2.16595">
        <ele>888</ele>
        <time>1970-01-01T04:25:22.000Z</time>
      </trkpt>
      <trkpt lat="42.299002" lon="2.165975">
        <ele>888</ele>
        <time>1970-01-01T04:25:23.000Z</time>
      </trkpt>
      <trkpt lat="42.299031" lon="2.165999">
        <ele>888</ele>
        <time>1970-01-01T04:25:24.000Z</time>
      </trkpt>
      <trkpt lat="42.299061" lon="2.166024">
        <ele>888</ele>
        <time>1970-01-01T04:25:25.000Z</time>
      </trkpt>
      <trkpt lat="42.29909" lon="2.166048">
        <ele>888</ele>
        <time>1970-01-01T04:25:26.000Z</time>
      </trkpt>
      <trkpt lat="42.29912" lon="2.166073">
        <ele>889</ele>
        <time>1970-01-01T04:25:27.000Z</time>
      </trkpt>
      <trkpt lat="42.299183" lon="2.166122">
        <ele>889</ele>
        <time>1970-01-01T04:25:28.000Z</time>
      </trkpt>
      <trkpt lat="42.299214" lon="2.166141">
        <ele>889</ele>
        <time>1970-01-01T04:25:29.000Z</time>
      </trkpt>
      <trkpt lat="42.299244" lon="2.166159">
        <ele>889</ele>
        <time>1970-01-01T04:25:30.000Z</time>
      </trkpt>
      <trkpt lat="42.299275" lon="2.166178">
        <ele>889</ele>
        <time>1970-01-01T04:25:31.000Z</time>
      </trkpt>
      <trkpt lat="42.299305" lon="2.166196">
        <ele>889</ele>
        <time>1970-01-01T04:25:32.000Z</time>
      </trkpt>
      <trkpt lat="42.299335" lon="2.166215">
        <ele>889</ele>
        <time>1970-01-01T04:25:33.000Z</time>
      </trkpt>
      <trkpt lat="42.299366" lon="2.166233">
        <ele>889</ele>
        <time>1970-01-01T04:25:34.000Z</time>
      </trkpt>
      <trkpt lat="42.299396" lon="2.166252">
        <ele>889</ele>
        <time>1970-01-01T04:25:35.000Z</time>
      </trkpt>
      <trkpt lat="42.299427" lon="2.16627">
        <ele>889</ele>
        <time>1970-01-01T04:25:36.000Z</time>
      </trkpt>
      <trkpt lat="42.299457" lon="2.166289">
        <ele>891</ele>
        <time>1970-01-01T04:25:37.000Z</time>
      </trkpt>
      <trkpt lat="42.299538" lon="2.166319">
        <ele>891</ele>
        <time>1970-01-01T04:25:38.000Z</time>
      </trkpt>
      <trkpt lat="42.299583" lon="2.166335">
        <ele>891</ele>
        <time>1970-01-01T04:25:39.000Z</time>
      </trkpt>
      <trkpt lat="42.299627" lon="2.16635">
        <ele>891</ele>
        <time>1970-01-01T04:25:40.000Z</time>
      </trkpt>
      <trkpt lat="42.299672" lon="2.166366">
        <ele>891</ele>
        <time>1970-01-01T04:25:41.000Z</time>
      </trkpt>
      <trkpt lat="42.299716" lon="2.166381">
        <ele>891</ele>
        <time>1970-01-01T04:25:42.000Z</time>
      </trkpt>
      <trkpt lat="42.29976" lon="2.166397">
        <ele>891</ele>
        <time>1970-01-01T04:25:43.000Z</time>
      </trkpt>
      <trkpt lat="42.299805" lon="2.166412">
        <ele>891</ele>
        <time>1970-01-01T04:25:46.000Z</time>
      </trkpt>
      <trkpt lat="42.299849" lon="2.166428">
        <ele>892</ele>
        <time>1970-01-01T04:25:47.000Z</time>
      </trkpt>
      <trkpt lat="42.299921" lon="2.166453">
        <ele>892</ele>
        <time>1970-01-01T04:25:48.000Z</time>
      </trkpt>
      <trkpt lat="42.299957" lon="2.166462">
        <ele>892</ele>
        <time>1970-01-01T04:25:49.000Z</time>
      </trkpt>
      <trkpt lat="42.299992" lon="2.166471">
        <ele>892</ele>
        <time>1970-01-01T04:25:50.000Z</time>
      </trkpt>
      <trkpt lat="42.300027" lon="2.16648">
        <ele>892</ele>
        <time>1970-01-01T04:25:51.000Z</time>
      </trkpt>
      <trkpt lat="42.300063" lon="2.166489">
        <ele>892</ele>
        <time>1970-01-01T04:25:52.000Z</time>
      </trkpt>
      <trkpt lat="42.300098" lon="2.166498">
        <ele>892</ele>
        <time>1970-01-01T04:25:53.000Z</time>
      </trkpt>
      <trkpt lat="42.300133" lon="2.166507">
        <ele>892</ele>
        <time>1970-01-01T04:25:54.000Z</time>
      </trkpt>
      <trkpt lat="42.300168" lon="2.166516">
        <ele>892</ele>
        <time>1970-01-01T04:25:55.000Z</time>
      </trkpt>
      <trkpt lat="42.300204" lon="2.166525">
        <ele>892</ele>
        <time>1970-01-01T04:25:56.000Z</time>
      </trkpt>
      <trkpt lat="42.300239" lon="2.166534">
        <ele>893</ele>
        <time>1970-01-01T04:25:57.000Z</time>
      </trkpt>
      <trkpt lat="42.300315" lon="2.166551">
        <ele>893</ele>
        <time>1970-01-01T04:25:58.000Z</time>
      </trkpt>
      <trkpt lat="42.300353" lon="2.166561">
        <ele>893</ele>
        <time>1970-01-01T04:25:59.000Z</time>
      </trkpt>
      <trkpt lat="42.30039" lon="2.166572">
        <ele>893</ele>
        <time>1970-01-01T04:26:00.000Z</time>
      </trkpt>
      <trkpt lat="42.300428" lon="2.166582">
        <ele>893</ele>
        <time>1970-01-01T04:26:01.000Z</time>
      </trkpt>
      <trkpt lat="42.300465" lon="2.166592">
        <ele>893</ele>
        <time>1970-01-01T04:26:02.000Z</time>
      </trkpt>
      <trkpt lat="42.300503" lon="2.166602">
        <ele>893</ele>
        <time>1970-01-01T04:26:03.000Z</time>
      </trkpt>
      <trkpt lat="42.30054" lon="2.166613">
        <ele>893</ele>
        <time>1970-01-01T04:26:05.000Z</time>
      </trkpt>
      <trkpt lat="42.300578" lon="2.166623">
        <ele>893</ele>
        <time>1970-01-01T04:26:06.000Z</time>
      </trkpt>
      <trkpt lat="42.300615" lon="2.166633">
        <ele>894</ele>
        <time>1970-01-01T04:26:07.000Z</time>
      </trkpt>
      <trkpt lat="42.300693" lon="2.166661">
        <ele>894</ele>
        <time>1970-01-01T04:26:08.000Z</time>
      </trkpt>
      <trkpt lat="42.300729" lon="2.166676">
        <ele>894</ele>
        <time>1970-01-01T04:26:09.000Z</time>
      </trkpt>
      <trkpt lat="42.300764" lon="2.16669">
        <ele>894</ele>
        <time>1970-01-01T04:26:10.000Z</time>
      </trkpt>
      <trkpt lat="42.3008" lon="2.166704">
        <ele>894</ele>
        <time>1970-01-01T04:26:11.000Z</time>
      </trkpt>
      <trkpt lat="42.300836" lon="2.166718">
        <ele>894</ele>
        <time>1970-01-01T04:26:12.000Z</time>
      </trkpt>
      <trkpt lat="42.300872" lon="2.166733">
        <ele>894</ele>
        <time>1970-01-01T04:26:13.000Z</time>
      </trkpt>
      <trkpt lat="42.300908" lon="2.166747">
        <ele>894</ele>
        <time>1970-01-01T04:26:14.000Z</time>
      </trkpt>
      <trkpt lat="42.300943" lon="2.166761">
        <ele>894</ele>
        <time>1970-01-01T04:26:15.000Z</time>
      </trkpt>
      <trkpt lat="42.300979" lon="2.166776">
        <ele>894</ele>
        <time>1970-01-01T04:26:16.000Z</time>
      </trkpt>
      <trkpt lat="42.301015" lon="2.16679">
        <ele>894</ele>
        <time>1970-01-01T04:26:17.000Z</time>
      </trkpt>
      <trkpt lat="42.301069" lon="2.166807">
        <ele>894</ele>
        <time>1970-01-01T04:26:18.000Z</time>
      </trkpt>
      <trkpt lat="42.301091" lon="2.166817">
        <ele>894</ele>
        <time>1970-01-01T04:26:19.000Z</time>
      </trkpt>
      <trkpt lat="42.301114" lon="2.166827">
        <ele>894</ele>
        <time>1970-01-01T04:26:20.000Z</time>
      </trkpt>
      <trkpt lat="42.301137" lon="2.166837">
        <ele>894</ele>
        <time>1970-01-01T04:26:21.000Z</time>
      </trkpt>
      <trkpt lat="42.30116" lon="2.166846">
        <ele>894</ele>
        <time>1970-01-01T04:26:22.000Z</time>
      </trkpt>
      <trkpt lat="42.301182" lon="2.166856">
        <ele>894</ele>
        <time>1970-01-01T04:26:23.000Z</time>
      </trkpt>
      <trkpt lat="42.301205" lon="2.166866">
        <ele>894</ele>
        <time>1970-01-01T04:26:24.000Z</time>
      </trkpt>
      <trkpt lat="42.301228" lon="2.166876">
        <ele>894</ele>
        <time>1970-01-01T04:26:25.000Z</time>
      </trkpt>
      <trkpt lat="42.30125" lon="2.166886">
        <ele>894</ele>
        <time>1970-01-01T04:26:26.000Z</time>
      </trkpt>
      <trkpt lat="42.301273" lon="2.166896">
        <ele>894</ele>
        <time>1970-01-01T04:26:27.000Z</time>
      </trkpt>
      <trkpt lat="42.30134" lon="2.166916">
        <ele>894</ele>
        <time>1970-01-01T04:26:28.000Z</time>
      </trkpt>
      <trkpt lat="42.301374" lon="2.166919">
        <ele>894</ele>
        <time>1970-01-01T04:26:29.000Z</time>
      </trkpt>
      <trkpt lat="42.301408" lon="2.166921">
        <ele>894</ele>
        <time>1970-01-01T04:26:30.000Z</time>
      </trkpt>
      <trkpt lat="42.301442" lon="2.166924">
        <ele>894</ele>
        <time>1970-01-01T04:26:31.000Z</time>
      </trkpt>
      <trkpt lat="42.301476" lon="2.166927">
        <ele>894</ele>
        <time>1970-01-01T04:26:32.000Z</time>
      </trkpt>
      <trkpt lat="42.30151" lon="2.16693">
        <ele>894</ele>
        <time>1970-01-01T04:26:33.000Z</time>
      </trkpt>
      <trkpt lat="42.301544" lon="2.166933">
        <ele>894</ele>
        <time>1970-01-01T04:26:34.000Z</time>
      </trkpt>
      <trkpt lat="42.301578" lon="2.166935">
        <ele>894</ele>
        <time>1970-01-01T04:26:35.000Z</time>
      </trkpt>
      <trkpt lat="42.301612" lon="2.166938">
        <ele>894</ele>
        <time>1970-01-01T04:26:36.000Z</time>
      </trkpt>
      <trkpt lat="42.301646" lon="2.166941">
        <ele>894</ele>
        <time>1970-01-01T04:26:37.000Z</time>
      </trkpt>
      <trkpt lat="42.301719" lon="2.166914">
        <ele>894</ele>
        <time>1970-01-01T04:26:38.000Z</time>
      </trkpt>
      <trkpt lat="42.301756" lon="2.166899">
        <ele>894</ele>
        <time>1970-01-01T04:26:39.000Z</time>
      </trkpt>
      <trkpt lat="42.301792" lon="2.166883">
        <ele>894</ele>
        <time>1970-01-01T04:26:40.000Z</time>
      </trkpt>
      <trkpt lat="42.301829" lon="2.166868">
        <ele>894</ele>
        <time>1970-01-01T04:26:41.000Z</time>
      </trkpt>
      <trkpt lat="42.301865" lon="2.166853">
        <ele>894</ele>
        <time>1970-01-01T04:26:42.000Z</time>
      </trkpt>
      <trkpt lat="42.301901" lon="2.166838">
        <ele>894</ele>
        <time>1970-01-01T04:26:43.000Z</time>
      </trkpt>
      <trkpt lat="42.301938" lon="2.166823">
        <ele>894</ele>
        <time>1970-01-01T04:26:44.000Z</time>
      </trkpt>
      <trkpt lat="42.301974" lon="2.166807">
        <ele>894</ele>
        <time>1970-01-01T04:26:45.000Z</time>
      </trkpt>
      <trkpt lat="42.302011" lon="2.166792">
        <ele>894</ele>
        <time>1970-01-01T04:26:46.000Z</time>
      </trkpt>
      <trkpt lat="42.302047" lon="2.166777">
        <ele>894</ele>
        <time>1970-01-01T04:26:47.000Z</time>
      </trkpt>
      <trkpt lat="42.302129" lon="2.166741">
        <ele>894</ele>
        <time>1970-01-01T04:26:48.000Z</time>
      </trkpt>
      <trkpt lat="42.302168" lon="2.166722">
        <ele>894</ele>
        <time>1970-01-01T04:26:49.000Z</time>
      </trkpt>
      <trkpt lat="42.302208" lon="2.166704">
        <ele>894</ele>
        <time>1970-01-01T04:26:50.000Z</time>
      </trkpt>
      <trkpt lat="42.302247" lon="2.166685">
        <ele>894</ele>
        <time>1970-01-01T04:26:51.000Z</time>
      </trkpt>
      <trkpt lat="42.302287" lon="2.166667">
        <ele>894</ele>
        <time>1970-01-01T04:26:52.000Z</time>
      </trkpt>
      <trkpt lat="42.302327" lon="2.166649">
        <ele>894</ele>
        <time>1970-01-01T04:26:53.000Z</time>
      </trkpt>
      <trkpt lat="42.302366" lon="2.16663">
        <ele>894</ele>
        <time>1970-01-01T04:26:54.000Z</time>
      </trkpt>
      <trkpt lat="42.302406" lon="2.166612">
        <ele>894</ele>
        <time>1970-01-01T04:26:55.000Z</time>
      </trkpt>
      <trkpt lat="42.302445" lon="2.166593">
        <ele>894</ele>
        <time>1970-01-01T04:26:56.000Z</time>
      </trkpt>
      <trkpt lat="42.302485" lon="2.166575">
        <ele>894</ele>
        <time>1970-01-01T04:26:57.000Z</time>
      </trkpt>
      <trkpt lat="42.302574" lon="2.166551">
        <ele>894</ele>
        <time>1970-01-01T04:26:58.000Z</time>
      </trkpt>
      <trkpt lat="42.302617" lon="2.166547">
        <ele>894</ele>
        <time>1970-01-01T04:26:59.000Z</time>
      </trkpt>
      <trkpt lat="42.302661" lon="2.166544">
        <ele>894</ele>
        <time>1970-01-01T04:27:00.000Z</time>
      </trkpt>
      <trkpt lat="42.302704" lon="2.166541">
        <ele>894</ele>
        <time>1970-01-01T04:27:01.000Z</time>
      </trkpt>
      <trkpt lat="42.302748" lon="2.166538">
        <ele>894</ele>
        <time>1970-01-01T04:27:02.000Z</time>
      </trkpt>
      <trkpt lat="42.302791" lon="2.166534">
        <ele>894</ele>
        <time>1970-01-01T04:27:03.000Z</time>
      </trkpt>
      <trkpt lat="42.302835" lon="2.166531">
        <ele>894</ele>
        <time>1970-01-01T04:27:04.000Z</time>
      </trkpt>
      <trkpt lat="42.302878" lon="2.166528">
        <ele>894</ele>
        <time>1970-01-01T04:27:05.000Z</time>
      </trkpt>
      <trkpt lat="42.302922" lon="2.166524">
        <ele>894</ele>
        <time>1970-01-01T04:27:06.000Z</time>
      </trkpt>
      <trkpt lat="42.302965" lon="2.166521">
        <ele>894</ele>
        <time>1970-01-01T04:27:07.000Z</time>
      </trkpt>
      <trkpt lat="42.303051" lon="2.166541">
        <ele>894</ele>
        <time>1970-01-01T04:27:08.000Z</time>
      </trkpt>
      <trkpt lat="42.303088" lon="2.166554">
        <ele>894</ele>
        <time>1970-01-01T04:27:09.000Z</time>
      </trkpt>
      <trkpt lat="42.303125" lon="2.166566">
        <ele>894</ele>
        <time>1970-01-01T04:27:10.000Z</time>
      </trkpt>
      <trkpt lat="42.303162" lon="2.166579">
        <ele>894</ele>
        <time>1970-01-01T04:27:11.000Z</time>
      </trkpt>
      <trkpt lat="42.3032" lon="2.166592">
        <ele>894</ele>
        <time>1970-01-01T04:27:12.000Z</time>
      </trkpt>
      <trkpt lat="42.303237" lon="2.166605">
        <ele>894</ele>
        <time>1970-01-01T04:27:13.000Z</time>
      </trkpt>
      <trkpt lat="42.303274" lon="2.166618">
        <ele>894</ele>
        <time>1970-01-01T04:27:14.000Z</time>
      </trkpt>
      <trkpt lat="42.303311" lon="2.16663">
        <ele>894</ele>
        <time>1970-01-01T04:27:15.000Z</time>
      </trkpt>
      <trkpt lat="42.303348" lon="2.166643">
        <ele>894</ele>
        <time>1970-01-01T04:27:16.000Z</time>
      </trkpt>
      <trkpt lat="42.303385" lon="2.166656">
        <ele>895</ele>
        <time>1970-01-01T04:27:17.000Z</time>
      </trkpt>
      <trkpt lat="42.303511" lon="2.166699">
        <ele>895</ele>
        <time>1970-01-01T04:27:18.000Z</time>
      </trkpt>
      <trkpt lat="42.303601" lon="2.166727">
        <ele>895</ele>
        <time>1970-01-01T04:27:21.000Z</time>
      </trkpt>
      <trkpt lat="42.303692" lon="2.166755">
        <ele>895</ele>
        <time>1970-01-01T04:27:24.000Z</time>
      </trkpt>
      <trkpt lat="42.303782" lon="2.166783">
        <ele>895</ele>
        <time>1970-01-01T04:27:27.000Z</time>
      </trkpt>
      <trkpt lat="42.30391" lon="2.166813">
        <ele>895</ele>
        <time>1970-01-01T04:27:29.000Z</time>
      </trkpt>
      <trkpt lat="42.303953" lon="2.166825">
        <ele>895</ele>
        <time>1970-01-01T04:27:30.000Z</time>
      </trkpt>
      <trkpt lat="42.303997" lon="2.166837">
        <ele>895</ele>
        <time>1970-01-01T04:27:31.000Z</time>
      </trkpt>
      <trkpt lat="42.30404" lon="2.166848">
        <ele>895</ele>
        <time>1970-01-01T04:27:32.000Z</time>
      </trkpt>
      <trkpt lat="42.304084" lon="2.16686">
        <ele>895</ele>
        <time>1970-01-01T04:27:33.000Z</time>
      </trkpt>
      <trkpt lat="42.304127" lon="2.166872">
        <ele>895</ele>
        <time>1970-01-01T04:27:36.000Z</time>
      </trkpt>
      <trkpt lat="42.304171" lon="2.166884">
        <ele>896</ele>
        <time>1970-01-01T04:27:37.000Z</time>
      </trkpt>
      <trkpt lat="42.304305" lon="2.166924">
        <ele>896</ele>
        <time>1970-01-01T04:27:39.000Z</time>
      </trkpt>
      <trkpt lat="42.304358" lon="2.166934">
        <ele>896</ele>
        <time>1970-01-01T04:27:40.000Z</time>
      </trkpt>
      <trkpt lat="42.30441" lon="2.166944">
        <ele>896</ele>
        <time>1970-01-01T04:27:41.000Z</time>
      </trkpt>
      <trkpt lat="42.304462" lon="2.166954">
        <ele>896</ele>
        <time>1970-01-01T04:27:42.000Z</time>
      </trkpt>
      <trkpt lat="42.304515" lon="2.166964">
        <ele>896</ele>
        <time>1970-01-01T04:27:45.000Z</time>
      </trkpt>
      <trkpt lat="42.304567" lon="2.166974">
        <ele>898</ele>
        <time>1970-01-01T04:27:47.000Z</time>
      </trkpt>
      <trkpt lat="42.304679" lon="2.166988">
        <ele>898</ele>
        <time>1970-01-01T04:27:48.000Z</time>
      </trkpt>
      <trkpt lat="42.304756" lon="2.166998">
        <ele>898</ele>
        <time>1970-01-01T04:27:51.000Z</time>
      </trkpt>
      <trkpt lat="42.304832" lon="2.167007">
        <ele>898</ele>
        <time>1970-01-01T04:27:53.000Z</time>
      </trkpt>
      <trkpt lat="42.304909" lon="2.167017">
        <ele>898</ele>
        <time>1970-01-01T04:27:56.000Z</time>
      </trkpt>
      <trkpt lat="42.304985" lon="2.167027">
        <ele>899</ele>
        <time>1970-01-01T04:27:57.000Z</time>
      </trkpt>
      <trkpt lat="42.305089" lon="2.167021">
        <ele>899</ele>
        <time>1970-01-01T04:27:58.000Z</time>
      </trkpt>
      <trkpt lat="42.305149" lon="2.167016">
        <ele>899</ele>
        <time>1970-01-01T04:28:00.000Z</time>
      </trkpt>
      <trkpt lat="42.305208" lon="2.167012">
        <ele>899</ele>
        <time>1970-01-01T04:28:02.000Z</time>
      </trkpt>
      <trkpt lat="42.305268" lon="2.167008">
        <ele>899</ele>
        <time>1970-01-01T04:28:03.000Z</time>
      </trkpt>
      <trkpt lat="42.305327" lon="2.167004">
        <ele>899</ele>
        <time>1970-01-01T04:28:04.000Z</time>
      </trkpt>
      <trkpt lat="42.305387" lon="2.166999">
        <ele>899</ele>
        <time>1970-01-01T04:28:05.000Z</time>
      </trkpt>
      <trkpt lat="42.305446" lon="2.166995">
        <ele>900</ele>
        <time>1970-01-01T04:28:07.000Z</time>
      </trkpt>
      <trkpt lat="42.305647" lon="2.166962">
        <ele>900</ele>
        <time>1970-01-01T04:28:10.000Z</time>
      </trkpt>
      <trkpt lat="42.305713" lon="2.166945">
        <ele>900</ele>
        <time>1970-01-01T04:28:13.000Z</time>
      </trkpt>
      <trkpt lat="42.305779" lon="2.166927">
        <ele>900</ele>
        <time>1970-01-01T04:28:16.000Z</time>
      </trkpt>
      <trkpt lat="42.305845" lon="2.16691">
        <ele>900</ele>
        <time>1970-01-01T04:28:17.000Z</time>
      </trkpt>
      <trkpt lat="42.305934" lon="2.166923">
        <ele>900</ele>
        <time>1970-01-01T04:28:19.000Z</time>
      </trkpt>
      <trkpt lat="42.305964" lon="2.166915">
        <ele>900</ele>
        <time>1970-01-01T04:28:21.000Z</time>
      </trkpt>
      <trkpt lat="42.305994" lon="2.166907">
        <ele>900</ele>
        <time>1970-01-01T04:28:22.000Z</time>
      </trkpt>
      <trkpt lat="42.306024" lon="2.166899">
        <ele>900</ele>
        <time>1970-01-01T04:28:23.000Z</time>
      </trkpt>
      <trkpt lat="42.306053" lon="2.16689">
        <ele>900</ele>
        <time>1970-01-01T04:28:24.000Z</time>
      </trkpt>
      <trkpt lat="42.306083" lon="2.166882">
        <ele>900</ele>
        <time>1970-01-01T04:28:25.000Z</time>
      </trkpt>
      <trkpt lat="42.306113" lon="2.166874">
        <ele>900</ele>
        <time>1970-01-01T04:28:26.000Z</time>
      </trkpt>
      <trkpt lat="42.306143" lon="2.166866">
        <ele>900</ele>
        <time>1970-01-01T04:28:27.000Z</time>
      </trkpt>
      <trkpt lat="42.306188" lon="2.16685">
        <ele>900</ele>
        <time>1970-01-01T04:28:28.000Z</time>
      </trkpt>
      <trkpt lat="42.306208" lon="2.16684">
        <ele>900</ele>
        <time>1970-01-01T04:28:29.000Z</time>
      </trkpt>
      <trkpt lat="42.306228" lon="2.16683">
        <ele>900</ele>
        <time>1970-01-01T04:28:30.000Z</time>
      </trkpt>
      <trkpt lat="42.306248" lon="2.16682">
        <ele>900</ele>
        <time>1970-01-01T04:28:31.000Z</time>
      </trkpt>
      <trkpt lat="42.306268" lon="2.166811">
        <ele>900</ele>
        <time>1970-01-01T04:28:32.000Z</time>
      </trkpt>
      <trkpt lat="42.306287" lon="2.166801">
        <ele>900</ele>
        <time>1970-01-01T04:28:33.000Z</time>
      </trkpt>
      <trkpt lat="42.306307" lon="2.166791">
        <ele>900</ele>
        <time>1970-01-01T04:28:34.000Z</time>
      </trkpt>
      <trkpt lat="42.306327" lon="2.166781">
        <ele>900</ele>
        <time>1970-01-01T04:28:35.000Z</time>
      </trkpt>
      <trkpt lat="42.306347" lon="2.166771">
        <ele>900</ele>
        <time>1970-01-01T04:28:36.000Z</time>
      </trkpt>
      <trkpt lat="42.306367" lon="2.166761">
        <ele>902</ele>
        <time>1970-01-01T04:28:37.000Z</time>
      </trkpt>
      <trkpt lat="42.306397" lon="2.166741">
        <ele>902</ele>
        <time>1970-01-01T04:28:38.000Z</time>
      </trkpt>
      <trkpt lat="42.306424" lon="2.166715">
        <ele>902</ele>
        <time>1970-01-01T04:28:39.000Z</time>
      </trkpt>
      <trkpt lat="42.306449" lon="2.166689">
        <ele>902</ele>
        <time>1970-01-01T04:28:40.000Z</time>
      </trkpt>
      <trkpt lat="42.306474" lon="2.166658">
        <ele>902</ele>
        <time>1970-01-01T04:28:41.000Z</time>
      </trkpt>
      <trkpt lat="42.306544" lon="2.166556">
        <ele>902</ele>
        <time>1970-01-01T04:28:44.000Z</time>
      </trkpt>
      <trkpt lat="42.306606" lon="2.166432">
        <ele>902</ele>
        <time>1970-01-01T04:28:47.000Z</time>
      </trkpt>
      <trkpt lat="42.306732" lon="2.16631">
        <ele>902</ele>
        <time>1970-01-01T04:28:50.000Z</time>
      </trkpt>
      <trkpt lat="42.306764" lon="2.16627">
        <ele>902</ele>
        <time>1970-01-01T04:28:53.000Z</time>
      </trkpt>
      <trkpt lat="42.306795" lon="2.166231">
        <ele>902</ele>
        <time>1970-01-01T04:28:54.000Z</time>
      </trkpt>
      <trkpt lat="42.306826" lon="2.166191">
        <ele>902</ele>
        <time>1970-01-01T04:28:55.000Z</time>
      </trkpt>
      <trkpt lat="42.306858" lon="2.166151">
        <ele>902</ele>
        <time>1970-01-01T04:28:56.000Z</time>
      </trkpt>
      <trkpt lat="42.306889" lon="2.166111">
        <ele>904</ele>
        <time>1970-01-01T04:28:57.000Z</time>
      </trkpt>
      <trkpt lat="42.306937" lon="2.16604">
        <ele>904</ele>
        <time>1970-01-01T04:28:58.000Z</time>
      </trkpt>
      <trkpt lat="42.306959" lon="2.166007">
        <ele>904</ele>
        <time>1970-01-01T04:28:59.000Z</time>
      </trkpt>
      <trkpt lat="42.306982" lon="2.165975">
        <ele>904</ele>
        <time>1970-01-01T04:29:00.000Z</time>
      </trkpt>
      <trkpt lat="42.307004" lon="2.165942">
        <ele>904</ele>
        <time>1970-01-01T04:29:01.000Z</time>
      </trkpt>
      <trkpt lat="42.307027" lon="2.16591">
        <ele>904</ele>
        <time>1970-01-01T04:29:02.000Z</time>
      </trkpt>
      <trkpt lat="42.307049" lon="2.165877">
        <ele>904</ele>
        <time>1970-01-01T04:29:03.000Z</time>
      </trkpt>
      <trkpt lat="42.307072" lon="2.165845">
        <ele>904</ele>
        <time>1970-01-01T04:29:04.000Z</time>
      </trkpt>
      <trkpt lat="42.307094" lon="2.165812">
        <ele>904</ele>
        <time>1970-01-01T04:29:05.000Z</time>
      </trkpt>
      <trkpt lat="42.307117" lon="2.16578">
        <ele>904</ele>
        <time>1970-01-01T04:29:06.000Z</time>
      </trkpt>
      <trkpt lat="42.307139" lon="2.165747">
        <ele>905</ele>
        <time>1970-01-01T04:29:07.000Z</time>
      </trkpt>
      <trkpt lat="42.307184" lon="2.165679">
        <ele>905</ele>
        <time>1970-01-01T04:29:08.000Z</time>
      </trkpt>
      <trkpt lat="42.307206" lon="2.165648">
        <ele>905</ele>
        <time>1970-01-01T04:29:09.000Z</time>
      </trkpt>
      <trkpt lat="42.307229" lon="2.165618">
        <ele>905</ele>
        <time>1970-01-01T04:29:10.000Z</time>
      </trkpt>
      <trkpt lat="42.307251" lon="2.165588">
        <ele>905</ele>
        <time>1970-01-01T04:29:11.000Z</time>
      </trkpt>
      <trkpt lat="42.307273" lon="2.165558">
        <ele>905</ele>
        <time>1970-01-01T04:29:12.000Z</time>
      </trkpt>
      <trkpt lat="42.307295" lon="2.165527">
        <ele>905</ele>
        <time>1970-01-01T04:29:13.000Z</time>
      </trkpt>
      <trkpt lat="42.307317" lon="2.165497">
        <ele>905</ele>
        <time>1970-01-01T04:29:14.000Z</time>
      </trkpt>
      <trkpt lat="42.30734" lon="2.165467">
        <ele>905</ele>
        <time>1970-01-01T04:29:15.000Z</time>
      </trkpt>
      <trkpt lat="42.307362" lon="2.165436">
        <ele>905</ele>
        <time>1970-01-01T04:29:16.000Z</time>
      </trkpt>
      <trkpt lat="42.307384" lon="2.165406">
        <ele>906</ele>
        <time>1970-01-01T04:29:17.000Z</time>
      </trkpt>
      <trkpt lat="42.30743" lon="2.165341">
        <ele>906</ele>
        <time>1970-01-01T04:29:18.000Z</time>
      </trkpt>
      <trkpt lat="42.307451" lon="2.165309">
        <ele>906</ele>
        <time>1970-01-01T04:29:19.000Z</time>
      </trkpt>
      <trkpt lat="42.307471" lon="2.165277">
        <ele>906</ele>
        <time>1970-01-01T04:29:20.000Z</time>
      </trkpt>
      <trkpt lat="42.307492" lon="2.165245">
        <ele>906</ele>
        <time>1970-01-01T04:29:21.000Z</time>
      </trkpt>
      <trkpt lat="42.307513" lon="2.165214">
        <ele>906</ele>
        <time>1970-01-01T04:29:22.000Z</time>
      </trkpt>
      <trkpt lat="42.307534" lon="2.165182">
        <ele>906</ele>
        <time>1970-01-01T04:29:23.000Z</time>
      </trkpt>
      <trkpt lat="42.307555" lon="2.16515">
        <ele>906</ele>
        <time>1970-01-01T04:29:24.000Z</time>
      </trkpt>
      <trkpt lat="42.307575" lon="2.165118">
        <ele>906</ele>
        <time>1970-01-01T04:29:25.000Z</time>
      </trkpt>
      <trkpt lat="42.307596" lon="2.165086">
        <ele>906</ele>
        <time>1970-01-01T04:29:26.000Z</time>
      </trkpt>
      <trkpt lat="42.307617" lon="2.165054">
        <ele>907</ele>
        <time>1970-01-01T04:29:27.000Z</time>
      </trkpt>
      <trkpt lat="42.307667" lon="2.164972">
        <ele>907</ele>
        <time>1970-01-01T04:29:28.000Z</time>
      </trkpt>
      <trkpt lat="42.307694" lon="2.164928">
        <ele>907</ele>
        <time>1970-01-01T04:29:30.000Z</time>
      </trkpt>
      <trkpt lat="42.307722" lon="2.164884">
        <ele>907</ele>
        <time>1970-01-01T04:29:31.000Z</time>
      </trkpt>
      <trkpt lat="42.30775" lon="2.164841">
        <ele>907</ele>
        <time>1970-01-01T04:29:32.000Z</time>
      </trkpt>
      <trkpt lat="42.307777" lon="2.164797">
        <ele>907</ele>
        <time>1970-01-01T04:29:33.000Z</time>
      </trkpt>
      <trkpt lat="42.307805" lon="2.164753">
        <ele>907</ele>
        <time>1970-01-01T04:29:35.000Z</time>
      </trkpt>
      <trkpt lat="42.307832" lon="2.164709">
        <ele>907</ele>
        <time>1970-01-01T04:29:36.000Z</time>
      </trkpt>
      <trkpt lat="42.30786" lon="2.164665">
        <ele>907</ele>
        <time>1970-01-01T04:29:37.000Z</time>
      </trkpt>
      <trkpt lat="42.307906" lon="2.164594">
        <ele>907</ele>
        <time>1970-01-01T04:29:38.000Z</time>
      </trkpt>
      <trkpt lat="42.307927" lon="2.164562">
        <ele>907</ele>
        <time>1970-01-01T04:29:39.000Z</time>
      </trkpt>
      <trkpt lat="42.307948" lon="2.164529">
        <ele>907</ele>
        <time>1970-01-01T04:29:40.000Z</time>
      </trkpt>
      <trkpt lat="42.307969" lon="2.164497">
        <ele>907</ele>
        <time>1970-01-01T04:29:41.000Z</time>
      </trkpt>
      <trkpt lat="42.30799" lon="2.164464">
        <ele>907</ele>
        <time>1970-01-01T04:29:42.000Z</time>
      </trkpt>
      <trkpt lat="42.308011" lon="2.164431">
        <ele>907</ele>
        <time>1970-01-01T04:29:43.000Z</time>
      </trkpt>
      <trkpt lat="42.308032" lon="2.164399">
        <ele>907</ele>
        <time>1970-01-01T04:29:44.000Z</time>
      </trkpt>
      <trkpt lat="42.308053" lon="2.164366">
        <ele>907</ele>
        <time>1970-01-01T04:29:45.000Z</time>
      </trkpt>
      <trkpt lat="42.308074" lon="2.164334">
        <ele>907</ele>
        <time>1970-01-01T04:29:46.000Z</time>
      </trkpt>
      <trkpt lat="42.308095" lon="2.164301">
        <ele>909</ele>
        <time>1970-01-01T04:29:47.000Z</time>
      </trkpt>
      <trkpt lat="42.308126" lon="2.164244">
        <ele>909</ele>
        <time>1970-01-01T04:29:48.000Z</time>
      </trkpt>
      <trkpt lat="42.308139" lon="2.164216">
        <ele>909</ele>
        <time>1970-01-01T04:29:49.000Z</time>
      </trkpt>
      <trkpt lat="42.308153" lon="2.164189">
        <ele>909</ele>
        <time>1970-01-01T04:29:50.000Z</time>
      </trkpt>
      <trkpt lat="42.308166" lon="2.164161">
        <ele>909</ele>
        <time>1970-01-01T04:29:51.000Z</time>
      </trkpt>
      <trkpt lat="42.30818" lon="2.164133">
        <ele>909</ele>
        <time>1970-01-01T04:29:52.000Z</time>
      </trkpt>
      <trkpt lat="42.308194" lon="2.164105">
        <ele>909</ele>
        <time>1970-01-01T04:29:53.000Z</time>
      </trkpt>
      <trkpt lat="42.308207" lon="2.164077">
        <ele>909</ele>
        <time>1970-01-01T04:29:54.000Z</time>
      </trkpt>
      <trkpt lat="42.308221" lon="2.16405">
        <ele>909</ele>
        <time>1970-01-01T04:29:55.000Z</time>
      </trkpt>
      <trkpt lat="42.308234" lon="2.164022">
        <ele>909</ele>
        <time>1970-01-01T04:29:56.000Z</time>
      </trkpt>
      <trkpt lat="42.308248" lon="2.163994">
        <ele>910</ele>
        <time>1970-01-01T04:29:57.000Z</time>
      </trkpt>
      <trkpt lat="42.308266" lon="2.163931">
        <ele>910</ele>
        <time>1970-01-01T04:29:58.000Z</time>
      </trkpt>
      <trkpt lat="42.308275" lon="2.163903">
        <ele>910</ele>
        <time>1970-01-01T04:29:59.000Z</time>
      </trkpt>
      <trkpt lat="42.308283" lon="2.163875">
        <ele>910</ele>
        <time>1970-01-01T04:30:00.000Z</time>
      </trkpt>
      <trkpt lat="42.308292" lon="2.163847">
        <ele>910</ele>
        <time>1970-01-01T04:30:01.000Z</time>
      </trkpt>
      <trkpt lat="42.3083" lon="2.163819">
        <ele>910</ele>
        <time>1970-01-01T04:30:02.000Z</time>
      </trkpt>
      <trkpt lat="42.308308" lon="2.16379">
        <ele>910</ele>
        <time>1970-01-01T04:30:03.000Z</time>
      </trkpt>
      <trkpt lat="42.308317" lon="2.163762">
        <ele>910</ele>
        <time>1970-01-01T04:30:04.000Z</time>
      </trkpt>
      <trkpt lat="42.308325" lon="2.163734">
        <ele>910</ele>
        <time>1970-01-01T04:30:05.000Z</time>
      </trkpt>
      <trkpt lat="42.308334" lon="2.163706">
        <ele>910</ele>
        <time>1970-01-01T04:30:06.000Z</time>
      </trkpt>
      <trkpt lat="42.308342" lon="2.163678">
        <ele>911</ele>
        <time>1970-01-01T04:30:07.000Z</time>
      </trkpt>
      <trkpt lat="42.308348" lon="2.163634">
        <ele>911</ele>
        <time>1970-01-01T04:30:08.000Z</time>
      </trkpt>
      <trkpt lat="42.308346" lon="2.163626">
        <ele>911</ele>
        <time>1970-01-01T04:30:09.000Z</time>
      </trkpt>
      <trkpt lat="42.308344" lon="2.163618">
        <ele>911</ele>
        <time>1970-01-01T04:30:10.000Z</time>
      </trkpt>
      <trkpt lat="42.308342" lon="2.16361">
        <ele>911</ele>
        <time>1970-01-01T04:30:11.000Z</time>
      </trkpt>
      <trkpt lat="42.30834" lon="2.163603">
        <ele>911</ele>
        <time>1970-01-01T04:30:12.000Z</time>
      </trkpt>
      <trkpt lat="42.308338" lon="2.163595">
        <ele>911</ele>
        <time>1970-01-01T04:30:14.000Z</time>
      </trkpt>
      <trkpt lat="42.308336" lon="2.163587">
        <ele>911</ele>
        <time>1970-01-01T04:30:16.000Z</time>
      </trkpt>
      <trkpt lat="42.308334" lon="2.163579">
        <ele>911</ele>
        <time>1970-01-01T04:30:17.000Z</time>
      </trkpt>
      <trkpt lat="42.308307" lon="2.163673">
        <ele>911</ele>
        <time>1970-01-01T04:30:18.000Z</time>
      </trkpt>
      <trkpt lat="42.30829" lon="2.163724">
        <ele>911</ele>
        <time>1970-01-01T04:30:19.000Z</time>
      </trkpt>
      <trkpt lat="42.308274" lon="2.163774">
        <ele>911</ele>
        <time>1970-01-01T04:30:20.000Z</time>
      </trkpt>
      <trkpt lat="42.308257" lon="2.163825">
        <ele>911</ele>
        <time>1970-01-01T04:30:21.000Z</time>
      </trkpt>
      <trkpt lat="42.308241" lon="2.163875">
        <ele>911</ele>
        <time>1970-01-01T04:30:22.000Z</time>
      </trkpt>
      <trkpt lat="42.308224" lon="2.163925">
        <ele>911</ele>
        <time>1970-01-01T04:30:23.000Z</time>
      </trkpt>
      <trkpt lat="42.308208" lon="2.163976">
        <ele>911</ele>
        <time>1970-01-01T04:30:24.000Z</time>
      </trkpt>
      <trkpt lat="42.308191" lon="2.164026">
        <ele>911</ele>
        <time>1970-01-01T04:30:25.000Z</time>
      </trkpt>
      <trkpt lat="42.308175" lon="2.164077">
        <ele>911</ele>
        <time>1970-01-01T04:30:26.000Z</time>
      </trkpt>
      <trkpt lat="42.308158" lon="2.164127">
        <ele>910</ele>
        <time>1970-01-01T04:30:27.000Z</time>
      </trkpt>
      <trkpt lat="42.308089" lon="2.16425">
        <ele>910</ele>
        <time>1970-01-01T04:30:28.000Z</time>
      </trkpt>
      <trkpt lat="42.308049" lon="2.164313">
        <ele>910</ele>
        <time>1970-01-01T04:30:29.000Z</time>
      </trkpt>
      <trkpt lat="42.308009" lon="2.164375">
        <ele>910</ele>
        <time>1970-01-01T04:30:30.000Z</time>
      </trkpt>
      <trkpt lat="42.307969" lon="2.164437">
        <ele>910</ele>
        <time>1970-01-01T04:30:31.000Z</time>
      </trkpt>
      <trkpt lat="42.307928" lon="2.164499">
        <ele>910</ele>
        <time>1970-01-01T04:30:32.000Z</time>
      </trkpt>
      <trkpt lat="42.307888" lon="2.164562">
        <ele>910</ele>
        <time>1970-01-01T04:30:34.000Z</time>
      </trkpt>
      <trkpt lat="42.307848" lon="2.164624">
        <ele>910</ele>
        <time>1970-01-01T04:30:35.000Z</time>
      </trkpt>
      <trkpt lat="42.307808" lon="2.164686">
        <ele>909</ele>
        <time>1970-01-01T04:30:37.000Z</time>
      </trkpt>
      <trkpt lat="42.307717" lon="2.164811">
        <ele>909</ele>
        <time>1970-01-01T04:30:38.000Z</time>
      </trkpt>
      <trkpt lat="42.307663" lon="2.164888">
        <ele>909</ele>
        <time>1970-01-01T04:30:40.000Z</time>
      </trkpt>
      <trkpt lat="42.30761" lon="2.164965">
        <ele>909</ele>
        <time>1970-01-01T04:30:42.000Z</time>
      </trkpt>
      <trkpt lat="42.307556" lon="2.165042">
        <ele>909</ele>
        <time>1970-01-01T04:30:44.000Z</time>
      </trkpt>
      <trkpt lat="42.307503" lon="2.165119">
        <ele>909</ele>
        <time>1970-01-01T04:30:46.000Z</time>
      </trkpt>
      <trkpt lat="42.307449" lon="2.165196">
        <ele>907</ele>
        <time>1970-01-01T04:30:47.000Z</time>
      </trkpt>
      <trkpt lat="42.307366" lon="2.165309">
        <ele>907</ele>
        <time>1970-01-01T04:30:48.000Z</time>
      </trkpt>
      <trkpt lat="42.307324" lon="2.165368">
        <ele>907</ele>
        <time>1970-01-01T04:30:49.000Z</time>
      </trkpt>
      <trkpt lat="42.307283" lon="2.165426">
        <ele>907</ele>
        <time>1970-01-01T04:30:50.000Z</time>
      </trkpt>
      <trkpt lat="42.307241" lon="2.165485">
        <ele>907</ele>
        <time>1970-01-01T04:30:51.000Z</time>
      </trkpt>
      <trkpt lat="42.3072" lon="2.165543">
        <ele>907</ele>
        <time>1970-01-01T04:30:52.000Z</time>
      </trkpt>
      <trkpt lat="42.307158" lon="2.165601">
        <ele>907</ele>
        <time>1970-01-01T04:30:53.000Z</time>
      </trkpt>
      <trkpt lat="42.307117" lon="2.16566">
        <ele>907</ele>
        <time>1970-01-01T04:30:54.000Z</time>
      </trkpt>
      <trkpt lat="42.307075" lon="2.165718">
        <ele>907</ele>
        <time>1970-01-01T04:30:55.000Z</time>
      </trkpt>
      <trkpt lat="42.307034" lon="2.165777">
        <ele>907</ele>
        <time>1970-01-01T04:30:56.000Z</time>
      </trkpt>
      <trkpt lat="42.306992" lon="2.165835">
        <ele>906</ele>
        <time>1970-01-01T04:30:57.000Z</time>
      </trkpt>
      <trkpt lat="42.306902" lon="2.165971">
        <ele>906</ele>
        <time>1970-01-01T04:30:58.000Z</time>
      </trkpt>
      <trkpt lat="42.306858" lon="2.166037">
        <ele>906</ele>
        <time>1970-01-01T04:30:59.000Z</time>
      </trkpt>
      <trkpt lat="42.306815" lon="2.166103">
        <ele>906</ele>
        <time>1970-01-01T04:31:00.000Z</time>
      </trkpt>
      <trkpt lat="42.306772" lon="2.166169">
        <ele>906</ele>
        <time>1970-01-01T04:31:01.000Z</time>
      </trkpt>
      <trkpt lat="42.306728" lon="2.166235">
        <ele>906</ele>
        <time>1970-01-01T04:31:02.000Z</time>
      </trkpt>
      <trkpt lat="42.306685" lon="2.166301">
        <ele>906</ele>
        <time>1970-01-01T04:31:04.000Z</time>
      </trkpt>
      <trkpt lat="42.306641" lon="2.166367">
        <ele>906</ele>
        <time>1970-01-01T04:31:06.000Z</time>
      </trkpt>
      <trkpt lat="42.306598" lon="2.166433">
        <ele>904</ele>
        <time>1970-01-01T04:31:07.000Z</time>
      </trkpt>
      <trkpt lat="42.306508" lon="2.166556">
        <ele>904</ele>
        <time>1970-01-01T04:31:08.000Z</time>
      </trkpt>
      <trkpt lat="42.306449" lon="2.166626">
        <ele>904</ele>
        <time>1970-01-01T04:31:10.000Z</time>
      </trkpt>
      <trkpt lat="42.306391" lon="2.166697">
        <ele>904</ele>
        <time>1970-01-01T04:31:12.000Z</time>
      </trkpt>
      <trkpt lat="42.306332" lon="2.166767">
        <ele>904</ele>
        <time>1970-01-01T04:31:15.000Z</time>
      </trkpt>
      <trkpt lat="42.306273" lon="2.166838">
        <ele>901</ele>
        <time>1970-01-01T04:31:17.000Z</time>
      </trkpt>
      <trkpt lat="42.306236" lon="2.166808">
        <ele>901</ele>
        <time>1970-01-01T04:31:18.000Z</time>
      </trkpt>
      <trkpt lat="42.306244" lon="2.166775">
        <ele>901</ele>
        <time>1970-01-01T04:31:19.000Z</time>
      </trkpt>
      <trkpt lat="42.306253" lon="2.166741">
        <ele>901</ele>
        <time>1970-01-01T04:31:21.000Z</time>
      </trkpt>
      <trkpt lat="42.306262" lon="2.166708">
        <ele>901</ele>
        <time>1970-01-01T04:31:22.000Z</time>
      </trkpt>
      <trkpt lat="42.30627" lon="2.166674">
        <ele>901</ele>
        <time>1970-01-01T04:31:23.000Z</time>
      </trkpt>
      <trkpt lat="42.306279" lon="2.166641">
        <ele>901</ele>
        <time>1970-01-01T04:31:24.000Z</time>
      </trkpt>
      <trkpt lat="42.306288" lon="2.166607">
        <ele>901</ele>
        <time>1970-01-01T04:31:25.000Z</time>
      </trkpt>
      <trkpt lat="42.306296" lon="2.166574">
        <ele>901</ele>
        <time>1970-01-01T04:31:26.000Z</time>
      </trkpt>
      <trkpt lat="42.306305" lon="2.16654">
        <ele>900</ele>
        <time>1970-01-01T04:31:27.000Z</time>
      </trkpt>
      <trkpt lat="42.306327" lon="2.166499">
        <ele>900</ele>
        <time>1970-01-01T04:31:28.000Z</time>
      </trkpt>
      <trkpt lat="42.306349" lon="2.166459">
        <ele>900</ele>
        <time>1970-01-01T04:31:29.000Z</time>
      </trkpt>
      <trkpt lat="42.306366" lon="2.166415">
        <ele>900</ele>
        <time>1970-01-01T04:31:30.000Z</time>
      </trkpt>
      <trkpt lat="42.306381" lon="2.166373">
        <ele>900</ele>
        <time>1970-01-01T04:31:31.000Z</time>
      </trkpt>
      <trkpt lat="42.306398" lon="2.166331">
        <ele>900</ele>
        <time>1970-01-01T04:31:32.000Z</time>
      </trkpt>
      <trkpt lat="42.306412" lon="2.166293">
        <ele>900</ele>
        <time>1970-01-01T04:31:33.000Z</time>
      </trkpt>
      <trkpt lat="42.306426" lon="2.166265">
        <ele>900</ele>
        <time>1970-01-01T04:31:34.000Z</time>
      </trkpt>
      <trkpt lat="42.306426" lon="2.166265">
        <ele>900</ele>
        <time>1970-01-01T04:31:37.000Z</time>
      </trkpt>
      <trkpt lat="42.306405" lon="2.16627">
        <ele>900</ele>
        <time>1970-01-01T04:31:38.000Z</time>
      </trkpt>
      <trkpt lat="42.306381" lon="2.166285">
        <ele>900</ele>
        <time>1970-01-01T04:31:39.000Z</time>
      </trkpt>
      <trkpt lat="42.306358" lon="2.166308">
        <ele>900</ele>
        <time>1970-01-01T04:31:40.000Z</time>
      </trkpt>
      <trkpt lat="42.306335" lon="2.166337">
        <ele>900</ele>
        <time>1970-01-01T04:31:41.000Z</time>
      </trkpt>
      <trkpt lat="42.30631" lon="2.166372">
        <ele>900</ele>
        <time>1970-01-01T04:31:42.000Z</time>
      </trkpt>
      <trkpt lat="42.306289" lon="2.166409">
        <ele>900</ele>
        <time>1970-01-01T04:31:43.000Z</time>
      </trkpt>
      <trkpt lat="42.306264" lon="2.166445">
        <ele>900</ele>
        <time>1970-01-01T04:31:44.000Z</time>
      </trkpt>
      <trkpt lat="42.3062" lon="2.166565">
        <ele>900</ele>
        <time>1970-01-01T04:31:47.000Z</time>
      </trkpt>
      <trkpt lat="42.306175" lon="2.166735">
        <ele>900</ele>
        <time>1970-01-01T04:31:50.000Z</time>
      </trkpt>
      <trkpt lat="42.306164" lon="2.166753">
        <ele>900</ele>
        <time>1970-01-01T04:31:51.000Z</time>
      </trkpt>
      <trkpt lat="42.306154" lon="2.166771">
        <ele>900</ele>
        <time>1970-01-01T04:31:52.000Z</time>
      </trkpt>
      <trkpt lat="42.306143" lon="2.166789">
        <ele>900</ele>
        <time>1970-01-01T04:31:54.000Z</time>
      </trkpt>
      <trkpt lat="42.306133" lon="2.166807">
        <ele>900</ele>
        <time>1970-01-01T04:31:56.000Z</time>
      </trkpt>
      <trkpt lat="42.306122" lon="2.166825">
        <ele>900</ele>
        <time>1970-01-01T04:31:57.000Z</time>
      </trkpt>
      <trkpt lat="42.306105" lon="2.166831">
        <ele>900</ele>
        <time>1970-01-01T04:32:01.000Z</time>
      </trkpt>
      <trkpt lat="42.306088" lon="2.166836">
        <ele>900</ele>
        <time>1970-01-01T04:32:02.000Z</time>
      </trkpt>
      <trkpt lat="42.306071" lon="2.166842">
        <ele>900</ele>
        <time>1970-01-01T04:32:22.000Z</time>
      </trkpt>
      <trkpt lat="42.306054" lon="2.166847">
        <ele>900</ele>
        <time>1970-01-01T04:32:23.000Z</time>
      </trkpt>
      <trkpt lat="42.306037" lon="2.166853">
        <ele>900</ele>
        <time>1970-01-01T04:32:24.000Z</time>
      </trkpt>
      <trkpt lat="42.30602" lon="2.166859">
        <ele>900</ele>
        <time>1970-01-01T04:32:25.000Z</time>
      </trkpt>
      <trkpt lat="42.306002" lon="2.166864">
        <ele>900</ele>
        <time>1970-01-01T04:32:26.000Z</time>
      </trkpt>
      <trkpt lat="42.305985" lon="2.16687">
        <ele>900</ele>
        <time>1970-01-01T04:32:27.000Z</time>
      </trkpt>
      <trkpt lat="42.305968" lon="2.166875">
        <ele>900</ele>
        <time>1970-01-01T04:32:28.000Z</time>
      </trkpt>
      <trkpt lat="42.305951" lon="2.166881">
        <ele>900</ele>
        <time>1970-01-01T04:32:29.000Z</time>
      </trkpt>
      <trkpt lat="42.305934" lon="2.166886">
        <ele>900</ele>
        <time>1970-01-01T04:32:31.000Z</time>
      </trkpt>
      <trkpt lat="42.305917" lon="2.166892">
        <ele>901</ele>
        <time>1970-01-01T04:32:32.000Z</time>
      </trkpt>
      <trkpt lat="42.305921" lon="2.166953">
        <ele>901</ele>
        <time>1970-01-01T04:32:34.000Z</time>
      </trkpt>
      <trkpt lat="42.305933" lon="2.166976">
        <ele>901</ele>
        <time>1970-01-01T04:32:35.000Z</time>
      </trkpt>
      <trkpt lat="42.305946" lon="2.167">
        <ele>901</ele>
        <time>1970-01-01T04:32:36.000Z</time>
      </trkpt>
      <trkpt lat="42.305958" lon="2.167024">
        <ele>901</ele>
        <time>1970-01-01T04:32:37.000Z</time>
      </trkpt>
      <trkpt lat="42.305971" lon="2.167047">
        <ele>901</ele>
        <time>1970-01-01T04:32:38.000Z</time>
      </trkpt>
      <trkpt lat="42.305983" lon="2.167071">
        <ele>901</ele>
        <time>1970-01-01T04:32:39.000Z</time>
      </trkpt>
      <trkpt lat="42.305996" lon="2.167095">
        <ele>901</ele>
        <time>1970-01-01T04:32:40.000Z</time>
      </trkpt>
      <trkpt lat="42.306008" lon="2.167118">
        <ele>901</ele>
        <time>1970-01-01T04:32:41.000Z</time>
      </trkpt>
      <trkpt lat="42.306021" lon="2.167142">
        <ele>901</ele>
        <time>1970-01-01T04:32:42.000Z</time>
      </trkpt>
      <trkpt lat="42.306095" lon="2.167293">
        <ele>901</ele>
        <time>1970-01-01T04:32:47.000Z</time>
      </trkpt>
      <trkpt lat="42.306097" lon="2.167358">
        <ele>901</ele>
        <time>1970-01-01T04:32:51.000Z</time>
      </trkpt>
      <trkpt lat="42.3061" lon="2.167423">
        <ele>901</ele>
        <time>1970-01-01T04:32:52.000Z</time>
      </trkpt>
      <trkpt lat="42.306097" lon="2.167516">
        <ele>901</ele>
        <time>1970-01-01T04:32:54.000Z</time>
      </trkpt>
      <trkpt lat="42.306102" lon="2.167555">
        <ele>901</ele>
        <time>1970-01-01T04:32:55.000Z</time>
      </trkpt>
      <trkpt lat="42.306109" lon="2.167583">
        <ele>901</ele>
        <time>1970-01-01T04:32:56.000Z</time>
      </trkpt>
      <trkpt lat="42.306118" lon="2.167607">
        <ele>901</ele>
        <time>1970-01-01T04:32:57.000Z</time>
      </trkpt>
      <trkpt lat="42.306143" lon="2.16768">
        <ele>901</ele>
        <time>1970-01-01T04:33:02.000Z</time>
      </trkpt>
      <trkpt lat="42.30613" lon="2.167704">
        <ele>901</ele>
        <time>1970-01-01T04:33:03.000Z</time>
      </trkpt>
      <trkpt lat="42.306113" lon="2.167719">
        <ele>901</ele>
        <time>1970-01-01T04:33:04.000Z</time>
      </trkpt>
      <trkpt lat="42.306104" lon="2.167753">
        <ele>901</ele>
        <time>1970-01-01T04:33:07.000Z</time>
      </trkpt>
      <trkpt lat="42.306094" lon="2.167878">
        <ele>900</ele>
        <time>1970-01-01T04:33:12.000Z</time>
      </trkpt>
      <trkpt lat="42.306096" lon="2.167909">
        <ele>900</ele>
        <time>1970-01-01T04:33:13.000Z</time>
      </trkpt>
      <trkpt lat="42.306094" lon="2.167947">
        <ele>900</ele>
        <time>1970-01-01T04:33:15.000Z</time>
      </trkpt>
      <trkpt lat="42.306089" lon="2.167976">
        <ele>900</ele>
        <time>1970-01-01T04:33:18.000Z</time>
      </trkpt>
      <trkpt lat="42.306093" lon="2.168">
        <ele>900</ele>
        <time>1970-01-01T04:33:20.000Z</time>
      </trkpt>
      <trkpt lat="42.306093" lon="2.168">
        <ele>900</ele>
        <time>1970-01-01T04:33:22.000Z</time>
      </trkpt>
      <trkpt lat="42.306083" lon="2.168068">
        <ele>900</ele>
        <time>1970-01-01T04:33:24.000Z</time>
      </trkpt>
      <trkpt lat="42.30608" lon="2.168091">
        <ele>900</ele>
        <time>1970-01-01T04:33:25.000Z</time>
      </trkpt>
      <trkpt lat="42.306077" lon="2.168113">
        <ele>900</ele>
        <time>1970-01-01T04:33:32.000Z</time>
      </trkpt>
      <trkpt lat="42.306074" lon="2.168136">
        <ele>900</ele>
        <time>1970-01-01T04:33:36.000Z</time>
      </trkpt>
      <trkpt lat="42.306072" lon="2.168158">
        <ele>900</ele>
        <time>1970-01-01T04:33:37.000Z</time>
      </trkpt>
      <trkpt lat="42.306069" lon="2.168181">
        <ele>900</ele>
        <time>1970-01-01T04:33:39.000Z</time>
      </trkpt>
      <trkpt lat="42.306066" lon="2.168203">
        <ele>900</ele>
        <time>1970-01-01T04:33:40.000Z</time>
      </trkpt>
      <trkpt lat="42.306063" lon="2.168226">
        <ele>900</ele>
        <time>1970-01-01T04:33:47.000Z</time>
      </trkpt>
      <trkpt lat="42.30606" lon="2.168248">
        <ele>900</ele>
        <time>1970-01-01T04:33:48.000Z</time>
      </trkpt>
      <trkpt lat="42.306076" lon="2.168297">
        <ele>900</ele>
        <time>1970-01-01T04:33:49.000Z</time>
      </trkpt>
      <trkpt lat="42.306088" lon="2.168327">
        <ele>900</ele>
        <time>1970-01-01T04:33:51.000Z</time>
      </trkpt>
      <trkpt lat="42.306101" lon="2.168356">
        <ele>900</ele>
        <time>1970-01-01T04:33:53.000Z</time>
      </trkpt>
      <trkpt lat="42.306113" lon="2.168385">
        <ele>900</ele>
        <time>1970-01-01T04:33:55.000Z</time>
      </trkpt>
      <trkpt lat="42.306125" lon="2.168415">
        <ele>900</ele>
        <time>1970-01-01T04:33:56.000Z</time>
      </trkpt>
      <trkpt lat="42.306137" lon="2.168444">
        <ele>900</ele>
        <time>1970-01-01T04:33:58.000Z</time>
      </trkpt>
      <trkpt lat="42.306152" lon="2.168464">
        <ele>900</ele>
        <time>1970-01-01T04:33:59.000Z</time>
      </trkpt>
      <trkpt lat="42.306165" lon="2.168486">
        <ele>900</ele>
        <time>1970-01-01T04:34:00.000Z</time>
      </trkpt>
      <trkpt lat="42.306174" lon="2.16851">
        <ele>900</ele>
        <time>1970-01-01T04:34:01.000Z</time>
      </trkpt>
      <trkpt lat="42.306219" lon="2.168616">
        <ele>900</ele>
        <time>1970-01-01T04:34:06.000Z</time>
      </trkpt>
      <trkpt lat="42.306219" lon="2.168616">
        <ele>901</ele>
        <time>1970-01-01T04:34:08.000Z</time>
      </trkpt>
      <trkpt lat="42.30625" lon="2.168691">
        <ele>901</ele>
        <time>1970-01-01T04:34:11.000Z</time>
      </trkpt>
      <trkpt lat="42.306263" lon="2.168726">
        <ele>901</ele>
        <time>1970-01-01T04:34:14.000Z</time>
      </trkpt>
      <trkpt lat="42.306273" lon="2.168748">
        <ele>901</ele>
        <time>1970-01-01T04:34:16.000Z</time>
      </trkpt>
      <trkpt lat="42.306273" lon="2.168748">
        <ele>901</ele>
        <time>1970-01-01T04:34:18.000Z</time>
      </trkpt>
      <trkpt lat="42.306287" lon="2.168768">
        <ele>901</ele>
        <time>1970-01-01T04:34:23.000Z</time>
      </trkpt>
      <trkpt lat="42.306287" lon="2.168768">
        <ele>901</ele>
        <time>1970-01-01T04:34:26.000Z</time>
      </trkpt>
      <trkpt lat="42.306287" lon="2.168768">
        <ele>901</ele>
        <time>1970-01-01T04:34:27.000Z</time>
      </trkpt>
      <trkpt lat="42.306303" lon="2.168784">
        <ele>901</ele>
        <time>1970-01-01T04:34:28.000Z</time>
      </trkpt>
      <trkpt lat="42.306303" lon="2.168784">
        <ele>901</ele>
        <time>1970-01-01T04:34:30.000Z</time>
      </trkpt>
      <trkpt lat="42.306331" lon="2.168844">
        <ele>901</ele>
        <time>1970-01-01T04:34:31.000Z</time>
      </trkpt>
      <trkpt lat="42.306343" lon="2.168888">
        <ele>901</ele>
        <time>1970-01-01T04:34:33.000Z</time>
      </trkpt>
      <trkpt lat="42.306343" lon="2.168888">
        <ele>900</ele>
        <time>1970-01-01T04:34:40.000Z</time>
      </trkpt>
      <trkpt lat="42.306343" lon="2.168888">
        <ele>900</ele>
        <time>1970-01-01T04:34:50.000Z</time>
      </trkpt>
      <trkpt lat="42.306331" lon="2.168848">
        <ele>900</ele>
        <time>1970-01-01T04:34:57.000Z</time>
      </trkpt>
      <trkpt lat="42.306331" lon="2.168848">
        <ele>900</ele>
        <time>1970-01-01T04:35:00.000Z</time>
      </trkpt>
      <trkpt lat="42.306331" lon="2.168848">
        <ele>900</ele>
        <time>1970-01-01T04:35:03.000Z</time>
      </trkpt>
      <trkpt lat="42.306323" lon="2.168857">
        <ele>900</ele>
        <time>1970-01-01T04:35:04.000Z</time>
      </trkpt>
      <trkpt lat="42.306323" lon="2.168857">
        <ele>900</ele>
        <time>1970-01-01T04:35:54.000Z</time>
      </trkpt>
      <trkpt lat="42.306375" lon="2.168972">
        <ele>900</ele>
        <time>1970-01-01T04:35:55.000Z</time>
      </trkpt>
      <trkpt lat="42.306393" lon="2.169028">
        <ele>900</ele>
        <time>1970-01-01T04:35:57.000Z</time>
      </trkpt>
      <trkpt lat="42.306401" lon="2.169052">
        <ele>900</ele>
        <time>1970-01-01T04:35:58.000Z</time>
      </trkpt>
      <trkpt lat="42.306417" lon="2.16909">
        <ele>900</ele>
        <time>1970-01-01T04:36:00.000Z</time>
      </trkpt>
      <trkpt lat="42.306417" lon="2.16909">
        <ele>900</ele>
        <time>1970-01-01T04:36:04.000Z</time>
      </trkpt>
      <trkpt lat="42.306427" lon="2.16912">
        <ele>900</ele>
        <time>1970-01-01T04:36:06.000Z</time>
      </trkpt>
      <trkpt lat="42.306472" lon="2.169227">
        <ele>900</ele>
        <time>1970-01-01T04:36:11.000Z</time>
      </trkpt>
      <trkpt lat="42.306472" lon="2.169227">
        <ele>901</ele>
        <time>1970-01-01T04:36:14.000Z</time>
      </trkpt>
      <trkpt lat="42.306571" lon="2.169319">
        <ele>901</ele>
        <time>1970-01-01T04:36:16.000Z</time>
      </trkpt>
      <trkpt lat="42.306588" lon="2.169331">
        <ele>901</ele>
        <time>1970-01-01T04:36:18.000Z</time>
      </trkpt>
      <trkpt lat="42.306604" lon="2.169343">
        <ele>901</ele>
        <time>1970-01-01T04:36:20.000Z</time>
      </trkpt>
      <trkpt lat="42.306621" lon="2.169355">
        <ele>901</ele>
        <time>1970-01-01T04:36:22.000Z</time>
      </trkpt>
      <trkpt lat="42.306637" lon="2.169367">
        <ele>901</ele>
        <time>1970-01-01T04:36:24.000Z</time>
      </trkpt>
      <trkpt lat="42.30669" lon="2.169401">
        <ele>901</ele>
        <time>1970-01-01T04:36:25.000Z</time>
      </trkpt>
      <trkpt lat="42.30671" lon="2.169413">
        <ele>901</ele>
        <time>1970-01-01T04:36:26.000Z</time>
      </trkpt>
      <trkpt lat="42.306724" lon="2.16943">
        <ele>901</ele>
        <time>1970-01-01T04:36:27.000Z</time>
      </trkpt>
      <trkpt lat="42.306738" lon="2.169444">
        <ele>901</ele>
        <time>1970-01-01T04:36:28.000Z</time>
      </trkpt>
      <trkpt lat="42.306783" lon="2.169497">
        <ele>901</ele>
        <time>1970-01-01T04:36:31.000Z</time>
      </trkpt>
      <trkpt lat="42.306797" lon="2.169518">
        <ele>901</ele>
        <time>1970-01-01T04:36:32.000Z</time>
      </trkpt>
      <trkpt lat="42.306797" lon="2.169518">
        <ele>901</ele>
        <time>1970-01-01T04:36:34.000Z</time>
      </trkpt>
      <trkpt lat="42.306864" lon="2.169626">
        <ele>901</ele>
        <time>1970-01-01T04:36:37.000Z</time>
      </trkpt>
      <trkpt lat="42.306944" lon="2.169687">
        <ele>903</ele>
        <time>1970-01-01T04:36:44.000Z</time>
      </trkpt>
      <trkpt lat="42.306991" lon="2.169724">
        <ele>903</ele>
        <time>1970-01-01T04:36:46.000Z</time>
      </trkpt>
      <trkpt lat="42.307008" lon="2.169741">
        <ele>903</ele>
        <time>1970-01-01T04:36:47.000Z</time>
      </trkpt>
      <trkpt lat="42.307024" lon="2.169757">
        <ele>903</ele>
        <time>1970-01-01T04:36:48.000Z</time>
      </trkpt>
      <trkpt lat="42.307041" lon="2.169774">
        <ele>903</ele>
        <time>1970-01-01T04:36:49.000Z</time>
      </trkpt>
      <trkpt lat="42.307058" lon="2.169791">
        <ele>903</ele>
        <time>1970-01-01T04:36:50.000Z</time>
      </trkpt>
      <trkpt lat="42.307075" lon="2.169808">
        <ele>903</ele>
        <time>1970-01-01T04:36:51.000Z</time>
      </trkpt>
      <trkpt lat="42.307091" lon="2.169824">
        <ele>903</ele>
        <time>1970-01-01T04:36:52.000Z</time>
      </trkpt>
      <trkpt lat="42.307108" lon="2.169841">
        <ele>903</ele>
        <time>1970-01-01T04:36:53.000Z</time>
      </trkpt>
      <trkpt lat="42.307125" lon="2.169858">
        <ele>903</ele>
        <time>1970-01-01T04:36:54.000Z</time>
      </trkpt>
      <trkpt lat="42.307165" lon="2.169896">
        <ele>903</ele>
        <time>1970-01-01T04:36:55.000Z</time>
      </trkpt>
      <trkpt lat="42.307183" lon="2.169916">
        <ele>903</ele>
        <time>1970-01-01T04:36:56.000Z</time>
      </trkpt>
      <trkpt lat="42.307202" lon="2.169935">
        <ele>903</ele>
        <time>1970-01-01T04:36:57.000Z</time>
      </trkpt>
      <trkpt lat="42.30722" lon="2.169955">
        <ele>903</ele>
        <time>1970-01-01T04:36:58.000Z</time>
      </trkpt>
      <trkpt lat="42.307239" lon="2.169974">
        <ele>903</ele>
        <time>1970-01-01T04:36:59.000Z</time>
      </trkpt>
      <trkpt lat="42.307258" lon="2.169993">
        <ele>903</ele>
        <time>1970-01-01T04:37:00.000Z</time>
      </trkpt>
      <trkpt lat="42.307276" lon="2.170013">
        <ele>903</ele>
        <time>1970-01-01T04:37:01.000Z</time>
      </trkpt>
      <trkpt lat="42.307295" lon="2.170032">
        <ele>903</ele>
        <time>1970-01-01T04:37:02.000Z</time>
      </trkpt>
      <trkpt lat="42.307313" lon="2.170052">
        <ele>903</ele>
        <time>1970-01-01T04:37:03.000Z</time>
      </trkpt>
      <trkpt lat="42.307332" lon="2.170071">
        <ele>904</ele>
        <time>1970-01-01T04:37:04.000Z</time>
      </trkpt>
      <trkpt lat="42.307427" lon="2.170154">
        <ele>904</ele>
        <time>1970-01-01T04:37:07.000Z</time>
      </trkpt>
      <trkpt lat="42.307461" lon="2.170172">
        <ele>904</ele>
        <time>1970-01-01T04:37:11.000Z</time>
      </trkpt>
      <trkpt lat="42.307494" lon="2.170189">
        <ele>904</ele>
        <time>1970-01-01T04:37:13.000Z</time>
      </trkpt>
      <trkpt lat="42.307528" lon="2.170207">
        <ele>905</ele>
        <time>1970-01-01T04:37:14.000Z</time>
      </trkpt>
      <trkpt lat="42.307598" lon="2.170214">
        <ele>905</ele>
        <time>1970-01-01T04:37:15.000Z</time>
      </trkpt>
      <trkpt lat="42.307656" lon="2.170226">
        <ele>905</ele>
        <time>1970-01-01T04:37:19.000Z</time>
      </trkpt>
      <trkpt lat="42.307713" lon="2.170239">
        <ele>905</ele>
        <time>1970-01-01T04:37:23.000Z</time>
      </trkpt>
      <trkpt lat="42.307771" lon="2.170252">
        <ele>906</ele>
        <time>1970-01-01T04:37:24.000Z</time>
      </trkpt>
      <trkpt lat="42.307915" lon="2.170245">
        <ele>906</ele>
        <time>1970-01-01T04:37:27.000Z</time>
      </trkpt>
      <trkpt lat="42.307969" lon="2.17025">
        <ele>906</ele>
        <time>1970-01-01T04:37:28.000Z</time>
      </trkpt>
      <trkpt lat="42.308023" lon="2.170254">
        <ele>906</ele>
        <time>1970-01-01T04:37:31.000Z</time>
      </trkpt>
      <trkpt lat="42.308077" lon="2.170259">
        <ele>907</ele>
        <time>1970-01-01T04:37:34.000Z</time>
      </trkpt>
      <trkpt lat="42.308197" lon="2.170301">
        <ele>907</ele>
        <time>1970-01-01T04:37:38.000Z</time>
      </trkpt>
      <trkpt lat="42.308211" lon="2.170336">
        <ele>907</ele>
        <time>1970-01-01T04:37:39.000Z</time>
      </trkpt>
      <trkpt lat="42.308226" lon="2.170372">
        <ele>907</ele>
        <time>1970-01-01T04:37:43.000Z</time>
      </trkpt>
      <trkpt lat="42.30824" lon="2.170407">
        <ele>907</ele>
        <time>1970-01-01T04:37:44.000Z</time>
      </trkpt>
      <trkpt lat="42.308249" lon="2.170418">
        <ele>907</ele>
        <time>1970-01-01T04:37:45.000Z</time>
      </trkpt>
      <trkpt lat="42.308254" lon="2.170409">
        <ele>907</ele>
        <time>1970-01-01T04:37:50.000Z</time>
      </trkpt>
      <trkpt lat="42.308259" lon="2.170401">
        <ele>907</ele>
        <time>1970-01-01T04:37:51.000Z</time>
      </trkpt>
      <trkpt lat="42.308264" lon="2.170392">
        <ele>907</ele>
        <time>1970-01-01T04:37:54.000Z</time>
      </trkpt>
      <trkpt lat="42.308269" lon="2.170384">
        <ele>908</ele>
        <time>1970-01-01T04:38:04.000Z</time>
      </trkpt>
      <trkpt lat="42.308274" lon="2.170376">
        <ele>908</ele>
        <time>1970-01-01T04:38:05.000Z</time>
      </trkpt>
      <trkpt lat="42.308279" lon="2.170367">
        <ele>908</ele>
        <time>1970-01-01T04:38:06.000Z</time>
      </trkpt>
      <trkpt lat="42.308284" lon="2.170359">
        <ele>907</ele>
        <time>1970-01-01T04:38:22.000Z</time>
      </trkpt>
      <trkpt lat="42.308289" lon="2.17035">
        <ele>907</ele>
        <time>1970-01-01T04:38:23.000Z</time>
      </trkpt>
      <trkpt lat="42.308294" lon="2.170342">
        <ele>907</ele>
        <time>1970-01-01T04:38:28.000Z</time>
      </trkpt>
      <trkpt lat="42.308299" lon="2.170333">
        <ele>907</ele>
        <time>1970-01-01T04:38:31.000Z</time>
      </trkpt>
      <trkpt lat="42.308304" lon="2.170325">
        <ele>907</ele>
        <time>1970-01-01T04:38:32.000Z</time>
      </trkpt>
      <trkpt lat="42.308304" lon="2.170341">
        <ele>907</ele>
        <time>1970-01-01T04:38:35.000Z</time>
      </trkpt>
      <trkpt lat="42.308304" lon="2.170358">
        <ele>907</ele>
        <time>1970-01-01T04:38:36.000Z</time>
      </trkpt>
      <trkpt lat="42.308304" lon="2.170374">
        <ele>908</ele>
        <time>1970-01-01T04:38:54.000Z</time>
      </trkpt>
      <trkpt lat="42.308304" lon="2.17039">
        <ele>908</ele>
        <time>1970-01-01T04:38:55.000Z</time>
      </trkpt>
      <trkpt lat="42.308304" lon="2.170406">
        <ele>908</ele>
        <time>1970-01-01T04:39:01.000Z</time>
      </trkpt>
      <trkpt lat="42.308305" lon="2.170423">
        <ele>908</ele>
        <time>1970-01-01T04:39:04.000Z</time>
      </trkpt>
      <trkpt lat="42.308305" lon="2.170439">
        <ele>908</ele>
        <time>1970-01-01T04:39:08.000Z</time>
      </trkpt>
      <trkpt lat="42.308305" lon="2.170455">
        <ele>908</ele>
        <time>1970-01-01T04:39:10.000Z</time>
      </trkpt>
      <trkpt lat="42.308305" lon="2.170471">
        <ele>908</ele>
        <time>1970-01-01T04:39:12.000Z</time>
      </trkpt>
      <trkpt lat="42.308305" lon="2.170488">
        <ele>908</ele>
        <time>1970-01-01T04:39:13.000Z</time>
      </trkpt>
      <trkpt lat="42.308305" lon="2.170504">
        <ele>908</ele>
        <time>1970-01-01T04:39:14.000Z</time>
      </trkpt>
      <trkpt lat="42.308423" lon="2.170563">
        <ele>908</ele>
        <time>1970-01-01T04:39:18.000Z</time>
      </trkpt>
      <trkpt lat="42.308457" lon="2.170576">
        <ele>908</ele>
        <time>1970-01-01T04:39:22.000Z</time>
      </trkpt>
      <trkpt lat="42.308491" lon="2.17059">
        <ele>908</ele>
        <time>1970-01-01T04:39:24.000Z</time>
      </trkpt>
      <trkpt lat="42.308585" lon="2.17061">
        <ele>908</ele>
        <time>1970-01-01T04:39:26.000Z</time>
      </trkpt>
      <trkpt lat="42.308665" lon="2.170683">
        <ele>908</ele>
        <time>1970-01-01T04:39:29.000Z</time>
      </trkpt>
      <trkpt lat="42.308665" lon="2.170683">
        <ele>910</ele>
        <time>1970-01-01T04:39:34.000Z</time>
      </trkpt>
      <trkpt lat="42.308732" lon="2.170802">
        <ele>910</ele>
        <time>1970-01-01T04:39:35.000Z</time>
      </trkpt>
      <trkpt lat="42.308739" lon="2.170817">
        <ele>910</ele>
        <time>1970-01-01T04:39:37.000Z</time>
      </trkpt>
      <trkpt lat="42.308747" lon="2.170831">
        <ele>910</ele>
        <time>1970-01-01T04:39:44.000Z</time>
      </trkpt>
      <trkpt lat="42.308754" lon="2.170845">
        <ele>910</ele>
        <time>1970-01-01T04:39:45.000Z</time>
      </trkpt>
      <trkpt lat="42.308762" lon="2.170859">
        <ele>910</ele>
        <time>1970-01-01T04:39:47.000Z</time>
      </trkpt>
      <trkpt lat="42.308769" lon="2.170874">
        <ele>910</ele>
        <time>1970-01-01T04:39:49.000Z</time>
      </trkpt>
      <trkpt lat="42.308777" lon="2.170888">
        <ele>910</ele>
        <time>1970-01-01T04:39:50.000Z</time>
      </trkpt>
      <trkpt lat="42.308784" lon="2.170902">
        <ele>910</ele>
        <time>1970-01-01T04:39:51.000Z</time>
      </trkpt>
      <trkpt lat="42.308792" lon="2.170916">
        <ele>910</ele>
        <time>1970-01-01T04:39:52.000Z</time>
      </trkpt>
      <trkpt lat="42.308799" lon="2.170931">
        <ele>910</ele>
        <time>1970-01-01T04:39:53.000Z</time>
      </trkpt>
      <trkpt lat="42.308807" lon="2.170945">
        <ele>910</ele>
        <time>1970-01-01T04:39:54.000Z</time>
      </trkpt>
      <trkpt lat="42.308906" lon="2.171051">
        <ele>910</ele>
        <time>1970-01-01T04:39:58.000Z</time>
      </trkpt>
      <trkpt lat="42.308938" lon="2.171081">
        <ele>910</ele>
        <time>1970-01-01T04:40:02.000Z</time>
      </trkpt>
      <trkpt lat="42.308971" lon="2.171112">
        <ele>910</ele>
        <time>1970-01-01T04:40:04.000Z</time>
      </trkpt>
      <trkpt lat="42.309014" lon="2.171174">
        <ele>910</ele>
        <time>1970-01-01T04:40:06.000Z</time>
      </trkpt>
      <trkpt lat="42.309027" lon="2.171197">
        <ele>910</ele>
        <time>1970-01-01T04:40:07.000Z</time>
      </trkpt>
      <trkpt lat="42.30904" lon="2.171221">
        <ele>910</ele>
        <time>1970-01-01T04:40:08.000Z</time>
      </trkpt>
      <trkpt lat="42.309053" lon="2.171244">
        <ele>910</ele>
        <time>1970-01-01T04:40:09.000Z</time>
      </trkpt>
      <trkpt lat="42.309065" lon="2.171267">
        <ele>910</ele>
        <time>1970-01-01T04:40:10.000Z</time>
      </trkpt>
      <trkpt lat="42.309078" lon="2.17129">
        <ele>910</ele>
        <time>1970-01-01T04:40:11.000Z</time>
      </trkpt>
      <trkpt lat="42.309091" lon="2.171314">
        <ele>910</ele>
        <time>1970-01-01T04:40:12.000Z</time>
      </trkpt>
      <trkpt lat="42.309104" lon="2.171337">
        <ele>910</ele>
        <time>1970-01-01T04:40:13.000Z</time>
      </trkpt>
      <trkpt lat="42.309117" lon="2.17136">
        <ele>910</ele>
        <time>1970-01-01T04:40:14.000Z</time>
      </trkpt>
      <trkpt lat="42.309151" lon="2.171423">
        <ele>910</ele>
        <time>1970-01-01T04:40:15.000Z</time>
      </trkpt>
      <trkpt lat="42.309171" lon="2.17145">
        <ele>910</ele>
        <time>1970-01-01T04:40:18.000Z</time>
      </trkpt>
      <trkpt lat="42.30919" lon="2.171478">
        <ele>910</ele>
        <time>1970-01-01T04:40:19.000Z</time>
      </trkpt>
      <trkpt lat="42.30921" lon="2.171506">
        <ele>910</ele>
        <time>1970-01-01T04:40:20.000Z</time>
      </trkpt>
      <trkpt lat="42.30923" lon="2.171534">
        <ele>910</ele>
        <time>1970-01-01T04:40:21.000Z</time>
      </trkpt>
      <trkpt lat="42.30925" lon="2.171561">
        <ele>910</ele>
        <time>1970-01-01T04:40:22.000Z</time>
      </trkpt>
      <trkpt lat="42.309269" lon="2.171589">
        <ele>910</ele>
        <time>1970-01-01T04:40:23.000Z</time>
      </trkpt>
      <trkpt lat="42.309289" lon="2.171617">
        <ele>910</ele>
        <time>1970-01-01T04:40:24.000Z</time>
      </trkpt>
      <trkpt lat="42.309318" lon="2.171655">
        <ele>910</ele>
        <time>1970-01-01T04:40:25.000Z</time>
      </trkpt>
      <trkpt lat="42.309332" lon="2.171676">
        <ele>910</ele>
        <time>1970-01-01T04:40:26.000Z</time>
      </trkpt>
      <trkpt lat="42.309345" lon="2.171698">
        <ele>910</ele>
        <time>1970-01-01T04:40:27.000Z</time>
      </trkpt>
      <trkpt lat="42.309358" lon="2.17172">
        <ele>910</ele>
        <time>1970-01-01T04:40:28.000Z</time>
      </trkpt>
      <trkpt lat="42.309372" lon="2.171741">
        <ele>910</ele>
        <time>1970-01-01T04:40:29.000Z</time>
      </trkpt>
      <trkpt lat="42.309385" lon="2.171763">
        <ele>910</ele>
        <time>1970-01-01T04:40:30.000Z</time>
      </trkpt>
      <trkpt lat="42.309398" lon="2.171785">
        <ele>910</ele>
        <time>1970-01-01T04:40:31.000Z</time>
      </trkpt>
      <trkpt lat="42.309411" lon="2.171807">
        <ele>910</ele>
        <time>1970-01-01T04:40:32.000Z</time>
      </trkpt>
      <trkpt lat="42.309425" lon="2.171828">
        <ele>910</ele>
        <time>1970-01-01T04:40:33.000Z</time>
      </trkpt>
      <trkpt lat="42.309438" lon="2.17185">
        <ele>912</ele>
        <time>1970-01-01T04:40:34.000Z</time>
      </trkpt>
      <trkpt lat="42.309472" lon="2.17191">
        <ele>912</ele>
        <time>1970-01-01T04:40:35.000Z</time>
      </trkpt>
      <trkpt lat="42.309489" lon="2.17194">
        <ele>912</ele>
        <time>1970-01-01T04:40:36.000Z</time>
      </trkpt>
      <trkpt lat="42.309507" lon="2.17197">
        <ele>912</ele>
        <time>1970-01-01T04:40:37.000Z</time>
      </trkpt>
      <trkpt lat="42.309524" lon="2.172">
        <ele>912</ele>
        <time>1970-01-01T04:40:38.000Z</time>
      </trkpt>
      <trkpt lat="42.309541" lon="2.17203">
        <ele>912</ele>
        <time>1970-01-01T04:40:39.000Z</time>
      </trkpt>
      <trkpt lat="42.309558" lon="2.172061">
        <ele>912</ele>
        <time>1970-01-01T04:40:40.000Z</time>
      </trkpt>
      <trkpt lat="42.309575" lon="2.172091">
        <ele>912</ele>
        <time>1970-01-01T04:40:41.000Z</time>
      </trkpt>
      <trkpt lat="42.309593" lon="2.172121">
        <ele>912</ele>
        <time>1970-01-01T04:40:42.000Z</time>
      </trkpt>
      <trkpt lat="42.30961" lon="2.172151">
        <ele>912</ele>
        <time>1970-01-01T04:40:43.000Z</time>
      </trkpt>
      <trkpt lat="42.309627" lon="2.172181">
        <ele>912</ele>
        <time>1970-01-01T04:40:44.000Z</time>
      </trkpt>
      <trkpt lat="42.309662" lon="2.172248">
        <ele>912</ele>
        <time>1970-01-01T04:40:45.000Z</time>
      </trkpt>
      <trkpt lat="42.309678" lon="2.17228">
        <ele>912</ele>
        <time>1970-01-01T04:40:46.000Z</time>
      </trkpt>
      <trkpt lat="42.309694" lon="2.172311">
        <ele>912</ele>
        <time>1970-01-01T04:40:47.000Z</time>
      </trkpt>
      <trkpt lat="42.30971" lon="2.172343">
        <ele>912</ele>
        <time>1970-01-01T04:40:48.000Z</time>
      </trkpt>
      <trkpt lat="42.309726" lon="2.172374">
        <ele>912</ele>
        <time>1970-01-01T04:40:49.000Z</time>
      </trkpt>
      <trkpt lat="42.309741" lon="2.172405">
        <ele>912</ele>
        <time>1970-01-01T04:40:50.000Z</time>
      </trkpt>
      <trkpt lat="42.309757" lon="2.172437">
        <ele>912</ele>
        <time>1970-01-01T04:40:51.000Z</time>
      </trkpt>
      <trkpt lat="42.309773" lon="2.172468">
        <ele>912</ele>
        <time>1970-01-01T04:40:52.000Z</time>
      </trkpt>
      <trkpt lat="42.309789" lon="2.1725">
        <ele>912</ele>
        <time>1970-01-01T04:40:53.000Z</time>
      </trkpt>
      <trkpt lat="42.309805" lon="2.172531">
        <ele>913</ele>
        <time>1970-01-01T04:40:54.000Z</time>
      </trkpt>
      <trkpt lat="42.309828" lon="2.17261">
        <ele>913</ele>
        <time>1970-01-01T04:40:55.000Z</time>
      </trkpt>
      <trkpt lat="42.309839" lon="2.17265">
        <ele>913</ele>
        <time>1970-01-01T04:40:56.000Z</time>
      </trkpt>
      <trkpt lat="42.309851" lon="2.17269">
        <ele>913</ele>
        <time>1970-01-01T04:40:57.000Z</time>
      </trkpt>
      <trkpt lat="42.309862" lon="2.17273">
        <ele>913</ele>
        <time>1970-01-01T04:40:58.000Z</time>
      </trkpt>
      <trkpt lat="42.309873" lon="2.172769">
        <ele>913</ele>
        <time>1970-01-01T04:40:59.000Z</time>
      </trkpt>
      <trkpt lat="42.309884" lon="2.172809">
        <ele>913</ele>
        <time>1970-01-01T04:41:00.000Z</time>
      </trkpt>
      <trkpt lat="42.309896" lon="2.172849">
        <ele>913</ele>
        <time>1970-01-01T04:41:02.000Z</time>
      </trkpt>
      <trkpt lat="42.309907" lon="2.172889">
        <ele>913</ele>
        <time>1970-01-01T04:41:03.000Z</time>
      </trkpt>
      <trkpt lat="42.309918" lon="2.172929">
        <ele>915</ele>
        <time>1970-01-01T04:41:04.000Z</time>
      </trkpt>
      <trkpt lat="42.309931" lon="2.172968">
        <ele>915</ele>
        <time>1970-01-01T04:41:05.000Z</time>
      </trkpt>
      <trkpt lat="42.309946" lon="2.173006">
        <ele>915</ele>
        <time>1970-01-01T04:41:06.000Z</time>
      </trkpt>
      <trkpt lat="42.309962" lon="2.173044">
        <ele>915</ele>
        <time>1970-01-01T04:41:07.000Z</time>
      </trkpt>
      <trkpt lat="42.309991" lon="2.173118">
        <ele>915</ele>
        <time>1970-01-01T04:41:09.000Z</time>
      </trkpt>
      <trkpt lat="42.310005" lon="2.173155">
        <ele>915</ele>
        <time>1970-01-01T04:41:10.000Z</time>
      </trkpt>
      <trkpt lat="42.31002" lon="2.173193">
        <ele>915</ele>
        <time>1970-01-01T04:41:11.000Z</time>
      </trkpt>
      <trkpt lat="42.310074" lon="2.173302">
        <ele>916</ele>
        <time>1970-01-01T04:41:14.000Z</time>
      </trkpt>
      <trkpt lat="42.310187" lon="2.173448">
        <ele>916</ele>
        <time>1970-01-01T04:41:17.000Z</time>
      </trkpt>
      <trkpt lat="42.310238" lon="2.173495">
        <ele>916</ele>
        <time>1970-01-01T04:41:20.000Z</time>
      </trkpt>
      <trkpt lat="42.31029" lon="2.173542">
        <ele>916</ele>
        <time>1970-01-01T04:41:23.000Z</time>
      </trkpt>
      <trkpt lat="42.310341" lon="2.173589">
        <ele>916</ele>
        <time>1970-01-01T04:41:24.000Z</time>
      </trkpt>
      <trkpt lat="42.310454" lon="2.173692">
        <ele>916</ele>
        <time>1970-01-01T04:41:26.000Z</time>
      </trkpt>
      <trkpt lat="42.310509" lon="2.173742">
        <ele>916</ele>
        <time>1970-01-01T04:41:29.000Z</time>
      </trkpt>
      <trkpt lat="42.310563" lon="2.173792">
        <ele>916</ele>
        <time>1970-01-01T04:41:32.000Z</time>
      </trkpt>
      <trkpt lat="42.310617" lon="2.173842">
        <ele>918</ele>
        <time>1970-01-01T04:41:34.000Z</time>
      </trkpt>
      <trkpt lat="42.310666" lon="2.173883">
        <ele>918</ele>
        <time>1970-01-01T04:41:35.000Z</time>
      </trkpt>
      <trkpt lat="42.310689" lon="2.173901">
        <ele>918</ele>
        <time>1970-01-01T04:41:36.000Z</time>
      </trkpt>
      <trkpt lat="42.310711" lon="2.173918">
        <ele>918</ele>
        <time>1970-01-01T04:41:37.000Z</time>
      </trkpt>
      <trkpt lat="42.310733" lon="2.173936">
        <ele>918</ele>
        <time>1970-01-01T04:41:38.000Z</time>
      </trkpt>
      <trkpt lat="42.310756" lon="2.173953">
        <ele>918</ele>
        <time>1970-01-01T04:41:39.000Z</time>
      </trkpt>
      <trkpt lat="42.310778" lon="2.173971">
        <ele>918</ele>
        <time>1970-01-01T04:41:40.000Z</time>
      </trkpt>
      <trkpt lat="42.3108" lon="2.173988">
        <ele>918</ele>
        <time>1970-01-01T04:41:41.000Z</time>
      </trkpt>
      <trkpt lat="42.310822" lon="2.174006">
        <ele>918</ele>
        <time>1970-01-01T04:41:42.000Z</time>
      </trkpt>
      <trkpt lat="42.310845" lon="2.174023">
        <ele>918</ele>
        <time>1970-01-01T04:41:43.000Z</time>
      </trkpt>
      <trkpt lat="42.310867" lon="2.174041">
        <ele>919</ele>
        <time>1970-01-01T04:41:44.000Z</time>
      </trkpt>
      <trkpt lat="42.310941" lon="2.174073">
        <ele>919</ele>
        <time>1970-01-01T04:41:45.000Z</time>
      </trkpt>
      <trkpt lat="42.31099" lon="2.174087">
        <ele>919</ele>
        <time>1970-01-01T04:41:46.000Z</time>
      </trkpt>
      <trkpt lat="42.31104" lon="2.174102">
        <ele>919</ele>
        <time>1970-01-01T04:41:47.000Z</time>
      </trkpt>
      <trkpt lat="42.311089" lon="2.174117">
        <ele>919</ele>
        <time>1970-01-01T04:41:48.000Z</time>
      </trkpt>
      <trkpt lat="42.311138" lon="2.174131">
        <ele>919</ele>
        <time>1970-01-01T04:41:51.000Z</time>
      </trkpt>
      <trkpt lat="42.311187" lon="2.174146">
        <ele>920</ele>
        <time>1970-01-01T04:41:54.000Z</time>
      </trkpt>
      <trkpt lat="42.311249" lon="2.174159">
        <ele>920</ele>
        <time>1970-01-01T04:41:55.000Z</time>
      </trkpt>
      <trkpt lat="42.31128" lon="2.174168">
        <ele>920</ele>
        <time>1970-01-01T04:41:56.000Z</time>
      </trkpt>
      <trkpt lat="42.31131" lon="2.174176">
        <ele>920</ele>
        <time>1970-01-01T04:41:57.000Z</time>
      </trkpt>
      <trkpt lat="42.31134" lon="2.174185">
        <ele>920</ele>
        <time>1970-01-01T04:41:58.000Z</time>
      </trkpt>
      <trkpt lat="42.311371" lon="2.174193">
        <ele>920</ele>
        <time>1970-01-01T04:41:59.000Z</time>
      </trkpt>
      <trkpt lat="42.311401" lon="2.174202">
        <ele>920</ele>
        <time>1970-01-01T04:42:00.000Z</time>
      </trkpt>
      <trkpt lat="42.311431" lon="2.17421">
        <ele>920</ele>
        <time>1970-01-01T04:42:01.000Z</time>
      </trkpt>
      <trkpt lat="42.311461" lon="2.174219">
        <ele>920</ele>
        <time>1970-01-01T04:42:02.000Z</time>
      </trkpt>
      <trkpt lat="42.311492" lon="2.174227">
        <ele>920</ele>
        <time>1970-01-01T04:42:03.000Z</time>
      </trkpt>
      <trkpt lat="42.311522" lon="2.174236">
        <ele>922</ele>
        <time>1970-01-01T04:42:04.000Z</time>
      </trkpt>
      <trkpt lat="42.311581" lon="2.174277">
        <ele>922</ele>
        <time>1970-01-01T04:42:05.000Z</time>
      </trkpt>
      <trkpt lat="42.311608" lon="2.174305">
        <ele>922</ele>
        <time>1970-01-01T04:42:06.000Z</time>
      </trkpt>
      <trkpt lat="42.311635" lon="2.174333">
        <ele>922</ele>
        <time>1970-01-01T04:42:07.000Z</time>
      </trkpt>
      <trkpt lat="42.311662" lon="2.174361">
        <ele>922</ele>
        <time>1970-01-01T04:42:08.000Z</time>
      </trkpt>
      <trkpt lat="42.311688" lon="2.17439">
        <ele>922</ele>
        <time>1970-01-01T04:42:09.000Z</time>
      </trkpt>
      <trkpt lat="42.311715" lon="2.174418">
        <ele>922</ele>
        <time>1970-01-01T04:42:10.000Z</time>
      </trkpt>
      <trkpt lat="42.311742" lon="2.174446">
        <ele>922</ele>
        <time>1970-01-01T04:42:11.000Z</time>
      </trkpt>
      <trkpt lat="42.311769" lon="2.174474">
        <ele>922</ele>
        <time>1970-01-01T04:42:13.000Z</time>
      </trkpt>
      <trkpt lat="42.311796" lon="2.174502">
        <ele>922</ele>
        <time>1970-01-01T04:42:14.000Z</time>
      </trkpt>
      <trkpt lat="42.31184" lon="2.17457">
        <ele>922</ele>
        <time>1970-01-01T04:42:15.000Z</time>
      </trkpt>
      <trkpt lat="42.311861" lon="2.174605">
        <ele>922</ele>
        <time>1970-01-01T04:42:17.000Z</time>
      </trkpt>
      <trkpt lat="42.311882" lon="2.17464">
        <ele>922</ele>
        <time>1970-01-01T04:42:18.000Z</time>
      </trkpt>
      <trkpt lat="42.311903" lon="2.174675">
        <ele>922</ele>
        <time>1970-01-01T04:42:19.000Z</time>
      </trkpt>
      <trkpt lat="42.311924" lon="2.174711">
        <ele>922</ele>
        <time>1970-01-01T04:42:20.000Z</time>
      </trkpt>
      <trkpt lat="42.311945" lon="2.174746">
        <ele>922</ele>
        <time>1970-01-01T04:42:21.000Z</time>
      </trkpt>
      <trkpt lat="42.311966" lon="2.174781">
        <ele>922</ele>
        <time>1970-01-01T04:42:22.000Z</time>
      </trkpt>
      <trkpt lat="42.311987" lon="2.174816">
        <ele>922</ele>
        <time>1970-01-01T04:42:23.000Z</time>
      </trkpt>
      <trkpt lat="42.312008" lon="2.174851">
        <ele>924</ele>
        <time>1970-01-01T04:42:24.000Z</time>
      </trkpt>
      <trkpt lat="42.312048" lon="2.174915">
        <ele>924</ele>
        <time>1970-01-01T04:42:25.000Z</time>
      </trkpt>
      <trkpt lat="42.312068" lon="2.174945">
        <ele>924</ele>
        <time>1970-01-01T04:42:26.000Z</time>
      </trkpt>
      <trkpt lat="42.312088" lon="2.174975">
        <ele>924</ele>
        <time>1970-01-01T04:42:27.000Z</time>
      </trkpt>
      <trkpt lat="42.312108" lon="2.175005">
        <ele>924</ele>
        <time>1970-01-01T04:42:28.000Z</time>
      </trkpt>
      <trkpt lat="42.312128" lon="2.175035">
        <ele>924</ele>
        <time>1970-01-01T04:42:29.000Z</time>
      </trkpt>
      <trkpt lat="42.312148" lon="2.175065">
        <ele>924</ele>
        <time>1970-01-01T04:42:30.000Z</time>
      </trkpt>
      <trkpt lat="42.312168" lon="2.175095">
        <ele>924</ele>
        <time>1970-01-01T04:42:31.000Z</time>
      </trkpt>
      <trkpt lat="42.312188" lon="2.175125">
        <ele>924</ele>
        <time>1970-01-01T04:42:32.000Z</time>
      </trkpt>
      <trkpt lat="42.312208" lon="2.175155">
        <ele>924</ele>
        <time>1970-01-01T04:42:33.000Z</time>
      </trkpt>
      <trkpt lat="42.312228" lon="2.175185">
        <ele>925</ele>
        <time>1970-01-01T04:42:34.000Z</time>
      </trkpt>
      <trkpt lat="42.312275" lon="2.17525">
        <ele>925</ele>
        <time>1970-01-01T04:42:35.000Z</time>
      </trkpt>
      <trkpt lat="42.312298" lon="2.175282">
        <ele>925</ele>
        <time>1970-01-01T04:42:36.000Z</time>
      </trkpt>
      <trkpt lat="42.312321" lon="2.175315">
        <ele>925</ele>
        <time>1970-01-01T04:42:37.000Z</time>
      </trkpt>
      <trkpt lat="42.312344" lon="2.175347">
        <ele>925</ele>
        <time>1970-01-01T04:42:38.000Z</time>
      </trkpt>
      <trkpt lat="42.312367" lon="2.17538">
        <ele>925</ele>
        <time>1970-01-01T04:42:39.000Z</time>
      </trkpt>
      <trkpt lat="42.31239" lon="2.175412">
        <ele>925</ele>
        <time>1970-01-01T04:42:40.000Z</time>
      </trkpt>
      <trkpt lat="42.312413" lon="2.175445">
        <ele>925</ele>
        <time>1970-01-01T04:42:41.000Z</time>
      </trkpt>
      <trkpt lat="42.312436" lon="2.175477">
        <ele>925</ele>
        <time>1970-01-01T04:42:42.000Z</time>
      </trkpt>
      <trkpt lat="42.312459" lon="2.17551">
        <ele>926</ele>
        <time>1970-01-01T04:42:44.000Z</time>
      </trkpt>
      <trkpt lat="42.312492" lon="2.175568">
        <ele>926</ele>
        <time>1970-01-01T04:42:45.000Z</time>
      </trkpt>
      <trkpt lat="42.312502" lon="2.175592">
        <ele>926</ele>
        <time>1970-01-01T04:42:46.000Z</time>
      </trkpt>
      <trkpt lat="42.312512" lon="2.175617">
        <ele>926</ele>
        <time>1970-01-01T04:42:47.000Z</time>
      </trkpt>
      <trkpt lat="42.312522" lon="2.175641">
        <ele>926</ele>
        <time>1970-01-01T04:42:48.000Z</time>
      </trkpt>
      <trkpt lat="42.312531" lon="2.175666">
        <ele>926</ele>
        <time>1970-01-01T04:42:49.000Z</time>
      </trkpt>
      <trkpt lat="42.312541" lon="2.17569">
        <ele>926</ele>
        <time>1970-01-01T04:42:50.000Z</time>
      </trkpt>
      <trkpt lat="42.312551" lon="2.175715">
        <ele>926</ele>
        <time>1970-01-01T04:42:51.000Z</time>
      </trkpt>
      <trkpt lat="42.312561" lon="2.175739">
        <ele>926</ele>
        <time>1970-01-01T04:42:53.000Z</time>
      </trkpt>
      <trkpt lat="42.312571" lon="2.175764">
        <ele>928</ele>
        <time>1970-01-01T04:42:54.000Z</time>
      </trkpt>
      <trkpt lat="42.312533" lon="2.175795">
        <ele>928</ele>
        <time>1970-01-01T04:42:55.000Z</time>
      </trkpt>
      <trkpt lat="42.312506" lon="2.175815">
        <ele>928</ele>
        <time>1970-01-01T04:42:57.000Z</time>
      </trkpt>
      <trkpt lat="42.312478" lon="2.175836">
        <ele>928</ele>
        <time>1970-01-01T04:42:58.000Z</time>
      </trkpt>
      <trkpt lat="42.312451" lon="2.175856">
        <ele>928</ele>
        <time>1970-01-01T04:42:59.000Z</time>
      </trkpt>
      <trkpt lat="42.312424" lon="2.175877">
        <ele>928</ele>
        <time>1970-01-01T04:43:00.000Z</time>
      </trkpt>
      <trkpt lat="42.312397" lon="2.175897">
        <ele>928</ele>
        <time>1970-01-01T04:43:01.000Z</time>
      </trkpt>
      <trkpt lat="42.312369" lon="2.175918">
        <ele>928</ele>
        <time>1970-01-01T04:43:02.000Z</time>
      </trkpt>
      <trkpt lat="42.312342" lon="2.175938">
        <ele>928</ele>
        <time>1970-01-01T04:43:03.000Z</time>
      </trkpt>
      <trkpt lat="42.312315" lon="2.175959">
        <ele>929</ele>
        <time>1970-01-01T04:43:04.000Z</time>
      </trkpt>
      <trkpt lat="42.312265" lon="2.176035">
        <ele>929</ele>
        <time>1970-01-01T04:43:05.000Z</time>
      </trkpt>
      <trkpt lat="42.312256" lon="2.176081">
        <ele>929</ele>
        <time>1970-01-01T04:43:06.000Z</time>
      </trkpt>
      <trkpt lat="42.312247" lon="2.176126">
        <ele>929</ele>
        <time>1970-01-01T04:43:07.000Z</time>
      </trkpt>
      <trkpt lat="42.312238" lon="2.176171">
        <ele>929</ele>
        <time>1970-01-01T04:43:08.000Z</time>
      </trkpt>
      <trkpt lat="42.31223" lon="2.176217">
        <ele>929</ele>
        <time>1970-01-01T04:43:09.000Z</time>
      </trkpt>
      <trkpt lat="42.312221" lon="2.176262">
        <ele>929</ele>
        <time>1970-01-01T04:43:11.000Z</time>
      </trkpt>
      <trkpt lat="42.312212" lon="2.176307">
        <ele>929</ele>
        <time>1970-01-01T04:43:12.000Z</time>
      </trkpt>
      <trkpt lat="42.312203" lon="2.176353">
        <ele>929</ele>
        <time>1970-01-01T04:43:13.000Z</time>
      </trkpt>
      <trkpt lat="42.312194" lon="2.176398">
        <ele>928</ele>
        <time>1970-01-01T04:43:14.000Z</time>
      </trkpt>
      <trkpt lat="42.312215" lon="2.176474">
        <ele>928</ele>
        <time>1970-01-01T04:43:15.000Z</time>
      </trkpt>
      <trkpt lat="42.312224" lon="2.176509">
        <ele>928</ele>
        <time>1970-01-01T04:43:16.000Z</time>
      </trkpt>
      <trkpt lat="42.312234" lon="2.176545">
        <ele>928</ele>
        <time>1970-01-01T04:43:17.000Z</time>
      </trkpt>
      <trkpt lat="42.312243" lon="2.17658">
        <ele>928</ele>
        <time>1970-01-01T04:43:18.000Z</time>
      </trkpt>
      <trkpt lat="42.312253" lon="2.176616">
        <ele>928</ele>
        <time>1970-01-01T04:43:19.000Z</time>
      </trkpt>
      <trkpt lat="42.312263" lon="2.176652">
        <ele>928</ele>
        <time>1970-01-01T04:43:20.000Z</time>
      </trkpt>
      <trkpt lat="42.312272" lon="2.176687">
        <ele>928</ele>
        <time>1970-01-01T04:43:21.000Z</time>
      </trkpt>
      <trkpt lat="42.312282" lon="2.176723">
        <ele>928</ele>
        <time>1970-01-01T04:43:22.000Z</time>
      </trkpt>
      <trkpt lat="42.312291" lon="2.176758">
        <ele>928</ele>
        <time>1970-01-01T04:43:23.000Z</time>
      </trkpt>
      <trkpt lat="42.312301" lon="2.176794">
        <ele>928</ele>
        <time>1970-01-01T04:43:24.000Z</time>
      </trkpt>
      <trkpt lat="42.312324" lon="2.176867">
        <ele>928</ele>
        <time>1970-01-01T04:43:25.000Z</time>
      </trkpt>
      <trkpt lat="42.312334" lon="2.176902">
        <ele>928</ele>
        <time>1970-01-01T04:43:26.000Z</time>
      </trkpt>
      <trkpt lat="42.312345" lon="2.176937">
        <ele>928</ele>
        <time>1970-01-01T04:43:27.000Z</time>
      </trkpt>
      <trkpt lat="42.312355" lon="2.176972">
        <ele>928</ele>
        <time>1970-01-01T04:43:28.000Z</time>
      </trkpt>
      <trkpt lat="42.312365" lon="2.177007">
        <ele>928</ele>
        <time>1970-01-01T04:43:29.000Z</time>
      </trkpt>
      <trkpt lat="42.312375" lon="2.177042">
        <ele>928</ele>
        <time>1970-01-01T04:43:30.000Z</time>
      </trkpt>
      <trkpt lat="42.312385" lon="2.177077">
        <ele>928</ele>
        <time>1970-01-01T04:43:31.000Z</time>
      </trkpt>
      <trkpt lat="42.312396" lon="2.177112">
        <ele>928</ele>
        <time>1970-01-01T04:43:32.000Z</time>
      </trkpt>
      <trkpt lat="42.312406" lon="2.177147">
        <ele>928</ele>
        <time>1970-01-01T04:43:33.000Z</time>
      </trkpt>
      <trkpt lat="42.312416" lon="2.177182">
        <ele>930</ele>
        <time>1970-01-01T04:43:34.000Z</time>
      </trkpt>
      <trkpt lat="42.312433" lon="2.177258">
        <ele>930</ele>
        <time>1970-01-01T04:43:35.000Z</time>
      </trkpt>
      <trkpt lat="42.312441" lon="2.177294">
        <ele>930</ele>
        <time>1970-01-01T04:43:36.000Z</time>
      </trkpt>
      <trkpt lat="42.31245" lon="2.177329">
        <ele>930</ele>
        <time>1970-01-01T04:43:37.000Z</time>
      </trkpt>
      <trkpt lat="42.312459" lon="2.177364">
        <ele>930</ele>
        <time>1970-01-01T04:43:38.000Z</time>
      </trkpt>
      <trkpt lat="42.312468" lon="2.177399">
        <ele>930</ele>
        <time>1970-01-01T04:43:39.000Z</time>
      </trkpt>
      <trkpt lat="42.312476" lon="2.177435">
        <ele>930</ele>
        <time>1970-01-01T04:43:40.000Z</time>
      </trkpt>
      <trkpt lat="42.312485" lon="2.17747">
        <ele>930</ele>
        <time>1970-01-01T04:43:41.000Z</time>
      </trkpt>
      <trkpt lat="42.312494" lon="2.177505">
        <ele>930</ele>
        <time>1970-01-01T04:43:42.000Z</time>
      </trkpt>
      <trkpt lat="42.312502" lon="2.177541">
        <ele>930</ele>
        <time>1970-01-01T04:43:43.000Z</time>
      </trkpt>
      <trkpt lat="42.312511" lon="2.177576">
        <ele>931</ele>
        <time>1970-01-01T04:43:44.000Z</time>
      </trkpt>
      <trkpt lat="42.312514" lon="2.177642">
        <ele>931</ele>
        <time>1970-01-01T04:43:45.000Z</time>
      </trkpt>
      <trkpt lat="42.31251" lon="2.177667">
        <ele>931</ele>
        <time>1970-01-01T04:43:46.000Z</time>
      </trkpt>
      <trkpt lat="42.312507" lon="2.177693">
        <ele>931</ele>
        <time>1970-01-01T04:43:47.000Z</time>
      </trkpt>
      <trkpt lat="42.312504" lon="2.177718">
        <ele>931</ele>
        <time>1970-01-01T04:43:48.000Z</time>
      </trkpt>
      <trkpt lat="42.312501" lon="2.177744">
        <ele>931</ele>
        <time>1970-01-01T04:43:49.000Z</time>
      </trkpt>
      <trkpt lat="42.312497" lon="2.177769">
        <ele>931</ele>
        <time>1970-01-01T04:43:50.000Z</time>
      </trkpt>
      <trkpt lat="42.312494" lon="2.177795">
        <ele>931</ele>
        <time>1970-01-01T04:43:51.000Z</time>
      </trkpt>
      <trkpt lat="42.312491" lon="2.17782">
        <ele>931</ele>
        <time>1970-01-01T04:43:52.000Z</time>
      </trkpt>
      <trkpt lat="42.312487" lon="2.177846">
        <ele>931</ele>
        <time>1970-01-01T04:43:53.000Z</time>
      </trkpt>
      <trkpt lat="42.312484" lon="2.177871">
        <ele>932</ele>
        <time>1970-01-01T04:43:54.000Z</time>
      </trkpt>
      <trkpt lat="42.312445" lon="2.177908">
        <ele>932</ele>
        <time>1970-01-01T04:43:55.000Z</time>
      </trkpt>
      <trkpt lat="42.312424" lon="2.177928">
        <ele>932</ele>
        <time>1970-01-01T04:43:56.000Z</time>
      </trkpt>
      <trkpt lat="42.312404" lon="2.177948">
        <ele>932</ele>
        <time>1970-01-01T04:43:57.000Z</time>
      </trkpt>
      <trkpt lat="42.312383" lon="2.177968">
        <ele>932</ele>
        <time>1970-01-01T04:43:59.000Z</time>
      </trkpt>
      <trkpt lat="42.312363" lon="2.177987">
        <ele>932</ele>
        <time>1970-01-01T04:44:00.000Z</time>
      </trkpt>
      <trkpt lat="42.312342" lon="2.178007">
        <ele>932</ele>
        <time>1970-01-01T04:44:01.000Z</time>
      </trkpt>
      <trkpt lat="42.312322" lon="2.178027">
        <ele>932</ele>
        <time>1970-01-01T04:44:02.000Z</time>
      </trkpt>
      <trkpt lat="42.312301" lon="2.178047">
        <ele>932</ele>
        <time>1970-01-01T04:44:03.000Z</time>
      </trkpt>
      <trkpt lat="42.312281" lon="2.178067">
        <ele>934</ele>
        <time>1970-01-01T04:44:04.000Z</time>
      </trkpt>
      <trkpt lat="42.312259" lon="2.178114">
        <ele>934</ele>
        <time>1970-01-01T04:44:05.000Z</time>
      </trkpt>
      <trkpt lat="42.312251" lon="2.178137">
        <ele>934</ele>
        <time>1970-01-01T04:44:06.000Z</time>
      </trkpt>
      <trkpt lat="42.312242" lon="2.178159">
        <ele>934</ele>
        <time>1970-01-01T04:44:07.000Z</time>
      </trkpt>
      <trkpt lat="42.312234" lon="2.178182">
        <ele>934</ele>
        <time>1970-01-01T04:44:08.000Z</time>
      </trkpt>
      <trkpt lat="42.312226" lon="2.178205">
        <ele>934</ele>
        <time>1970-01-01T04:44:09.000Z</time>
      </trkpt>
      <trkpt lat="42.312218" lon="2.178228">
        <ele>934</ele>
        <time>1970-01-01T04:44:10.000Z</time>
      </trkpt>
      <trkpt lat="42.31221" lon="2.178251">
        <ele>934</ele>
        <time>1970-01-01T04:44:11.000Z</time>
      </trkpt>
      <trkpt lat="42.312201" lon="2.178273">
        <ele>934</ele>
        <time>1970-01-01T04:44:12.000Z</time>
      </trkpt>
      <trkpt lat="42.312193" lon="2.178296">
        <ele>934</ele>
        <time>1970-01-01T04:44:13.000Z</time>
      </trkpt>
      <trkpt lat="42.312185" lon="2.178319">
        <ele>935</ele>
        <time>1970-01-01T04:44:14.000Z</time>
      </trkpt>
      <trkpt lat="42.312168" lon="2.178367">
        <ele>935</ele>
        <time>1970-01-01T04:44:15.000Z</time>
      </trkpt>
      <trkpt lat="42.312156" lon="2.178388">
        <ele>935</ele>
        <time>1970-01-01T04:44:16.000Z</time>
      </trkpt>
      <trkpt lat="42.312144" lon="2.178409">
        <ele>935</ele>
        <time>1970-01-01T04:44:17.000Z</time>
      </trkpt>
      <trkpt lat="42.312132" lon="2.17843">
        <ele>935</ele>
        <time>1970-01-01T04:44:18.000Z</time>
      </trkpt>
      <trkpt lat="42.31212" lon="2.178451">
        <ele>935</ele>
        <time>1970-01-01T04:44:19.000Z</time>
      </trkpt>
      <trkpt lat="42.312108" lon="2.178472">
        <ele>935</ele>
        <time>1970-01-01T04:44:20.000Z</time>
      </trkpt>
      <trkpt lat="42.312096" lon="2.178493">
        <ele>935</ele>
        <time>1970-01-01T04:44:21.000Z</time>
      </trkpt>
      <trkpt lat="42.312084" lon="2.178514">
        <ele>935</ele>
        <time>1970-01-01T04:44:22.000Z</time>
      </trkpt>
      <trkpt lat="42.312072" lon="2.178535">
        <ele>939</ele>
        <time>1970-01-01T04:44:24.000Z</time>
      </trkpt>
      <trkpt lat="42.31204" lon="2.178587">
        <ele>939</ele>
        <time>1970-01-01T04:44:26.000Z</time>
      </trkpt>
      <trkpt lat="42.312028" lon="2.178609">
        <ele>939</ele>
        <time>1970-01-01T04:44:27.000Z</time>
      </trkpt>
      <trkpt lat="42.312017" lon="2.17863">
        <ele>939</ele>
        <time>1970-01-01T04:44:29.000Z</time>
      </trkpt>
      <trkpt lat="42.312006" lon="2.178651">
        <ele>939</ele>
        <time>1970-01-01T04:44:30.000Z</time>
      </trkpt>
      <trkpt lat="42.311994" lon="2.178672">
        <ele>939</ele>
        <time>1970-01-01T04:44:31.000Z</time>
      </trkpt>
      <trkpt lat="42.311983" lon="2.178694">
        <ele>939</ele>
        <time>1970-01-01T04:44:32.000Z</time>
      </trkpt>
      <trkpt lat="42.311971" lon="2.178715">
        <ele>939</ele>
        <time>1970-01-01T04:44:33.000Z</time>
      </trkpt>
      <trkpt lat="42.31196" lon="2.178736">
        <ele>942</ele>
        <time>1970-01-01T04:44:34.000Z</time>
      </trkpt>
      <trkpt lat="42.311934" lon="2.178771">
        <ele>942</ele>
        <time>1970-01-01T04:44:35.000Z</time>
      </trkpt>
      <trkpt lat="42.311918" lon="2.178786">
        <ele>942</ele>
        <time>1970-01-01T04:44:36.000Z</time>
      </trkpt>
      <trkpt lat="42.311903" lon="2.1788">
        <ele>942</ele>
        <time>1970-01-01T04:44:37.000Z</time>
      </trkpt>
      <trkpt lat="42.311888" lon="2.178815">
        <ele>942</ele>
        <time>1970-01-01T04:44:38.000Z</time>
      </trkpt>
      <trkpt lat="42.311872" lon="2.17883">
        <ele>942</ele>
        <time>1970-01-01T04:44:40.000Z</time>
      </trkpt>
      <trkpt lat="42.311857" lon="2.178845">
        <ele>942</ele>
        <time>1970-01-01T04:44:42.000Z</time>
      </trkpt>
      <trkpt lat="42.311841" lon="2.178859">
        <ele>942</ele>
        <time>1970-01-01T04:44:43.000Z</time>
      </trkpt>
      <trkpt lat="42.311826" lon="2.178874">
        <ele>943</ele>
        <time>1970-01-01T04:44:44.000Z</time>
      </trkpt>
      <trkpt lat="42.311793" lon="2.178859">
        <ele>943</ele>
        <time>1970-01-01T04:44:46.000Z</time>
      </trkpt>
      <trkpt lat="42.311773" lon="2.178836">
        <ele>943</ele>
        <time>1970-01-01T04:44:48.000Z</time>
      </trkpt>
      <trkpt lat="42.311765" lon="2.178807">
        <ele>943</ele>
        <time>1970-01-01T04:44:50.000Z</time>
      </trkpt>
      <trkpt lat="42.311763" lon="2.178782">
        <ele>943</ele>
        <time>1970-01-01T04:44:52.000Z</time>
      </trkpt>
      <trkpt lat="42.311767" lon="2.178745">
        <ele>945</ele>
        <time>1970-01-01T04:44:54.000Z</time>
      </trkpt>
      <trkpt lat="42.311799" lon="2.178677">
        <ele>945</ele>
        <time>1970-01-01T04:44:56.000Z</time>
      </trkpt>
      <trkpt lat="42.31182" lon="2.178653">
        <ele>945</ele>
        <time>1970-01-01T04:44:58.000Z</time>
      </trkpt>
      <trkpt lat="42.311841" lon="2.178629">
        <ele>945</ele>
        <time>1970-01-01T04:45:00.000Z</time>
      </trkpt>
      <trkpt lat="42.311862" lon="2.178605">
        <ele>945</ele>
        <time>1970-01-01T04:45:02.000Z</time>
      </trkpt>
      <trkpt lat="42.311883" lon="2.178581">
        <ele>948</ele>
        <time>1970-01-01T04:45:04.000Z</time>
      </trkpt>
      <trkpt lat="42.311918" lon="2.17853">
        <ele>948</ele>
        <time>1970-01-01T04:45:06.000Z</time>
      </trkpt>
      <trkpt lat="42.311928" lon="2.178505">
        <ele>948</ele>
        <time>1970-01-01T04:45:08.000Z</time>
      </trkpt>
      <trkpt lat="42.311939" lon="2.178481">
        <ele>948</ele>
        <time>1970-01-01T04:45:09.000Z</time>
      </trkpt>
      <trkpt lat="42.311949" lon="2.178457">
        <ele>948</ele>
        <time>1970-01-01T04:45:11.000Z</time>
      </trkpt>
      <trkpt lat="42.31196" lon="2.178433">
        <ele>948</ele>
        <time>1970-01-01T04:45:12.000Z</time>
      </trkpt>
      <trkpt lat="42.31197" lon="2.178408">
        <ele>948</ele>
        <time>1970-01-01T04:45:13.000Z</time>
      </trkpt>
      <trkpt lat="42.311981" lon="2.178384">
        <ele>950</ele>
        <time>1970-01-01T04:45:14.000Z</time>
      </trkpt>
      <trkpt lat="42.311995" lon="2.178334">
        <ele>950</ele>
        <time>1970-01-01T04:45:15.000Z</time>
      </trkpt>
      <trkpt lat="42.312" lon="2.178309">
        <ele>950</ele>
        <time>1970-01-01T04:45:16.000Z</time>
      </trkpt>
      <trkpt lat="42.312006" lon="2.178283">
        <ele>950</ele>
        <time>1970-01-01T04:45:18.000Z</time>
      </trkpt>
      <trkpt lat="42.312011" lon="2.178258">
        <ele>950</ele>
        <time>1970-01-01T04:45:19.000Z</time>
      </trkpt>
      <trkpt lat="42.312017" lon="2.178232">
        <ele>950</ele>
        <time>1970-01-01T04:45:20.000Z</time>
      </trkpt>
      <trkpt lat="42.312022" lon="2.178207">
        <ele>950</ele>
        <time>1970-01-01T04:45:21.000Z</time>
      </trkpt>
      <trkpt lat="42.312028" lon="2.178181">
        <ele>950</ele>
        <time>1970-01-01T04:45:22.000Z</time>
      </trkpt>
      <trkpt lat="42.312033" lon="2.178156">
        <ele>950</ele>
        <time>1970-01-01T04:45:23.000Z</time>
      </trkpt>
      <trkpt lat="42.312039" lon="2.17813">
        <ele>952</ele>
        <time>1970-01-01T04:45:24.000Z</time>
      </trkpt>
      <trkpt lat="42.312043" lon="2.178073">
        <ele>952</ele>
        <time>1970-01-01T04:45:25.000Z</time>
      </trkpt>
      <trkpt lat="42.312042" lon="2.178045">
        <ele>952</ele>
        <time>1970-01-01T04:45:27.000Z</time>
      </trkpt>
      <trkpt lat="42.312041" lon="2.178016">
        <ele>952</ele>
        <time>1970-01-01T04:45:28.000Z</time>
      </trkpt>
      <trkpt lat="42.312041" lon="2.177988">
        <ele>952</ele>
        <time>1970-01-01T04:45:29.000Z</time>
      </trkpt>
      <trkpt lat="42.31204" lon="2.177959">
        <ele>952</ele>
        <time>1970-01-01T04:45:31.000Z</time>
      </trkpt>
      <trkpt lat="42.312039" lon="2.177931">
        <ele>952</ele>
        <time>1970-01-01T04:45:32.000Z</time>
      </trkpt>
      <trkpt lat="42.312038" lon="2.177902">
        <ele>952</ele>
        <time>1970-01-01T04:45:33.000Z</time>
      </trkpt>
      <trkpt lat="42.312037" lon="2.177874">
        <ele>953</ele>
        <time>1970-01-01T04:45:34.000Z</time>
      </trkpt>
      <trkpt lat="42.312034" lon="2.177818">
        <ele>953</ele>
        <time>1970-01-01T04:45:35.000Z</time>
      </trkpt>
      <trkpt lat="42.312034" lon="2.177789">
        <ele>953</ele>
        <time>1970-01-01T04:45:36.000Z</time>
      </trkpt>
      <trkpt lat="42.312033" lon="2.177759">
        <ele>953</ele>
        <time>1970-01-01T04:45:38.000Z</time>
      </trkpt>
      <trkpt lat="42.312032" lon="2.17773">
        <ele>953</ele>
        <time>1970-01-01T04:45:39.000Z</time>
      </trkpt>
      <trkpt lat="42.312031" lon="2.1777">
        <ele>953</ele>
        <time>1970-01-01T04:45:41.000Z</time>
      </trkpt>
      <trkpt lat="42.312031" lon="2.177671">
        <ele>953</ele>
        <time>1970-01-01T04:45:43.000Z</time>
      </trkpt>
      <trkpt lat="42.31203" lon="2.177641">
        <ele>958</ele>
        <time>1970-01-01T04:45:44.000Z</time>
      </trkpt>
      <trkpt lat="42.312019" lon="2.177588">
        <ele>958</ele>
        <time>1970-01-01T04:45:45.000Z</time>
      </trkpt>
      <trkpt lat="42.312013" lon="2.177559">
        <ele>958</ele>
        <time>1970-01-01T04:45:46.000Z</time>
      </trkpt>
      <trkpt lat="42.312006" lon="2.17753">
        <ele>958</ele>
        <time>1970-01-01T04:45:48.000Z</time>
      </trkpt>
      <trkpt lat="42.311999" lon="2.177502">
        <ele>958</ele>
        <time>1970-01-01T04:45:50.000Z</time>
      </trkpt>
      <trkpt lat="42.311992" lon="2.177473">
        <ele>958</ele>
        <time>1970-01-01T04:45:52.000Z</time>
      </trkpt>
      <trkpt lat="42.311986" lon="2.177444">
        <ele>958</ele>
        <time>1970-01-01T04:45:53.000Z</time>
      </trkpt>
      <trkpt lat="42.311979" lon="2.177415">
        <ele>958</ele>
        <time>1970-01-01T04:45:54.000Z</time>
      </trkpt>
      <trkpt lat="42.311964" lon="2.17737">
        <ele>958</ele>
        <time>1970-01-01T04:45:55.000Z</time>
      </trkpt>
      <trkpt lat="42.311956" lon="2.177349">
        <ele>958</ele>
        <time>1970-01-01T04:45:56.000Z</time>
      </trkpt>
      <trkpt lat="42.311949" lon="2.177328">
        <ele>958</ele>
        <time>1970-01-01T04:45:57.000Z</time>
      </trkpt>
      <trkpt lat="42.311941" lon="2.177307">
        <ele>958</ele>
        <time>1970-01-01T04:45:58.000Z</time>
      </trkpt>
      <trkpt lat="42.311934" lon="2.177285">
        <ele>958</ele>
        <time>1970-01-01T04:45:59.000Z</time>
      </trkpt>
      <trkpt lat="42.311926" lon="2.177264">
        <ele>958</ele>
        <time>1970-01-01T04:46:00.000Z</time>
      </trkpt>
      <trkpt lat="42.311919" lon="2.177243">
        <ele>958</ele>
        <time>1970-01-01T04:46:01.000Z</time>
      </trkpt>
      <trkpt lat="42.311911" lon="2.177222">
        <ele>958</ele>
        <time>1970-01-01T04:46:02.000Z</time>
      </trkpt>
      <trkpt lat="42.311904" lon="2.177201">
        <ele>958</ele>
        <time>1970-01-01T04:46:03.000Z</time>
      </trkpt>
      <trkpt lat="42.311896" lon="2.17718">
        <ele>960</ele>
        <time>1970-01-01T04:46:04.000Z</time>
      </trkpt>
      <trkpt lat="42.311876" lon="2.177139">
        <ele>960</ele>
        <time>1970-01-01T04:46:05.000Z</time>
      </trkpt>
      <trkpt lat="42.311867" lon="2.177121">
        <ele>960</ele>
        <time>1970-01-01T04:46:06.000Z</time>
      </trkpt>
      <trkpt lat="42.311857" lon="2.177102">
        <ele>960</ele>
        <time>1970-01-01T04:46:07.000Z</time>
      </trkpt>
      <trkpt lat="42.311847" lon="2.177084">
        <ele>960</ele>
        <time>1970-01-01T04:46:08.000Z</time>
      </trkpt>
      <trkpt lat="42.311838" lon="2.177065">
        <ele>960</ele>
        <time>1970-01-01T04:46:09.000Z</time>
      </trkpt>
      <trkpt lat="42.311828" lon="2.177047">
        <ele>960</ele>
        <time>1970-01-01T04:46:10.000Z</time>
      </trkpt>
      <trkpt lat="42.311818" lon="2.177028">
        <ele>960</ele>
        <time>1970-01-01T04:46:11.000Z</time>
      </trkpt>
      <trkpt lat="42.311808" lon="2.17701">
        <ele>960</ele>
        <time>1970-01-01T04:46:12.000Z</time>
      </trkpt>
      <trkpt lat="42.311799" lon="2.176991">
        <ele>960</ele>
        <time>1970-01-01T04:46:13.000Z</time>
      </trkpt>
      <trkpt lat="42.311789" lon="2.176973">
        <ele>962</ele>
        <time>1970-01-01T04:46:14.000Z</time>
      </trkpt>
      <trkpt lat="42.311768" lon="2.176931">
        <ele>962</ele>
        <time>1970-01-01T04:46:15.000Z</time>
      </trkpt>
      <trkpt lat="42.311757" lon="2.17691">
        <ele>962</ele>
        <time>1970-01-01T04:46:16.000Z</time>
      </trkpt>
      <trkpt lat="42.311746" lon="2.176889">
        <ele>962</ele>
        <time>1970-01-01T04:46:17.000Z</time>
      </trkpt>
      <trkpt lat="42.311735" lon="2.176868">
        <ele>962</ele>
        <time>1970-01-01T04:46:18.000Z</time>
      </trkpt>
      <trkpt lat="42.311724" lon="2.176847">
        <ele>962</ele>
        <time>1970-01-01T04:46:20.000Z</time>
      </trkpt>
      <trkpt lat="42.311713" lon="2.176826">
        <ele>962</ele>
        <time>1970-01-01T04:46:21.000Z</time>
      </trkpt>
      <trkpt lat="42.311702" lon="2.176805">
        <ele>962</ele>
        <time>1970-01-01T04:46:22.000Z</time>
      </trkpt>
      <trkpt lat="42.311691" lon="2.176784">
        <ele>962</ele>
        <time>1970-01-01T04:46:23.000Z</time>
      </trkpt>
      <trkpt lat="42.31168" lon="2.176763">
        <ele>964</ele>
        <time>1970-01-01T04:46:24.000Z</time>
      </trkpt>
      <trkpt lat="42.311656" lon="2.176725">
        <ele>964</ele>
        <time>1970-01-01T04:46:25.000Z</time>
      </trkpt>
      <trkpt lat="42.311644" lon="2.176708">
        <ele>964</ele>
        <time>1970-01-01T04:46:26.000Z</time>
      </trkpt>
      <trkpt lat="42.311632" lon="2.17669">
        <ele>964</ele>
        <time>1970-01-01T04:46:27.000Z</time>
      </trkpt>
      <trkpt lat="42.31162" lon="2.176673">
        <ele>964</ele>
        <time>1970-01-01T04:46:28.000Z</time>
      </trkpt>
      <trkpt lat="42.311608" lon="2.176656">
        <ele>964</ele>
        <time>1970-01-01T04:46:29.000Z</time>
      </trkpt>
      <trkpt lat="42.311595" lon="2.176639">
        <ele>964</ele>
        <time>1970-01-01T04:46:30.000Z</time>
      </trkpt>
      <trkpt lat="42.311583" lon="2.176622">
        <ele>964</ele>
        <time>1970-01-01T04:46:31.000Z</time>
      </trkpt>
      <trkpt lat="42.311571" lon="2.176604">
        <ele>964</ele>
        <time>1970-01-01T04:46:32.000Z</time>
      </trkpt>
      <trkpt lat="42.311559" lon="2.176587">
        <ele>964</ele>
        <time>1970-01-01T04:46:33.000Z</time>
      </trkpt>
      <trkpt lat="42.311547" lon="2.17657">
        <ele>966</ele>
        <time>1970-01-01T04:46:34.000Z</time>
      </trkpt>
      <trkpt lat="42.311509" lon="2.176547">
        <ele>966</ele>
        <time>1970-01-01T04:46:35.000Z</time>
      </trkpt>
      <trkpt lat="42.311493" lon="2.176536">
        <ele>966</ele>
        <time>1970-01-01T04:46:36.000Z</time>
      </trkpt>
      <trkpt lat="42.311476" lon="2.176524">
        <ele>966</ele>
        <time>1970-01-01T04:46:37.000Z</time>
      </trkpt>
      <trkpt lat="42.31146" lon="2.176513">
        <ele>966</ele>
        <time>1970-01-01T04:46:38.000Z</time>
      </trkpt>
      <trkpt lat="42.311443" lon="2.176502">
        <ele>966</ele>
        <time>1970-01-01T04:46:39.000Z</time>
      </trkpt>
      <trkpt lat="42.311426" lon="2.176491">
        <ele>966</ele>
        <time>1970-01-01T04:46:40.000Z</time>
      </trkpt>
      <trkpt lat="42.31141" lon="2.17648">
        <ele>966</ele>
        <time>1970-01-01T04:46:41.000Z</time>
      </trkpt>
      <trkpt lat="42.311393" lon="2.176468">
        <ele>966</ele>
        <time>1970-01-01T04:46:42.000Z</time>
      </trkpt>
      <trkpt lat="42.311377" lon="2.176457">
        <ele>966</ele>
        <time>1970-01-01T04:46:43.000Z</time>
      </trkpt>
      <trkpt lat="42.31136" lon="2.176446">
        <ele>968</ele>
        <time>1970-01-01T04:46:44.000Z</time>
      </trkpt>
      <trkpt lat="42.311324" lon="2.176433">
        <ele>968</ele>
        <time>1970-01-01T04:46:45.000Z</time>
      </trkpt>
      <trkpt lat="42.311306" lon="2.176427">
        <ele>968</ele>
        <time>1970-01-01T04:46:46.000Z</time>
      </trkpt>
      <trkpt lat="42.311289" lon="2.17642">
        <ele>968</ele>
        <time>1970-01-01T04:46:47.000Z</time>
      </trkpt>
      <trkpt lat="42.311271" lon="2.176414">
        <ele>968</ele>
        <time>1970-01-01T04:46:48.000Z</time>
      </trkpt>
      <trkpt lat="42.311254" lon="2.176407">
        <ele>968</ele>
        <time>1970-01-01T04:46:49.000Z</time>
      </trkpt>
      <trkpt lat="42.311237" lon="2.176401">
        <ele>968</ele>
        <time>1970-01-01T04:46:50.000Z</time>
      </trkpt>
      <trkpt lat="42.311219" lon="2.176394">
        <ele>968</ele>
        <time>1970-01-01T04:46:51.000Z</time>
      </trkpt>
      <trkpt lat="42.311202" lon="2.176388">
        <ele>968</ele>
        <time>1970-01-01T04:46:52.000Z</time>
      </trkpt>
      <trkpt lat="42.311184" lon="2.176381">
        <ele>968</ele>
        <time>1970-01-01T04:46:53.000Z</time>
      </trkpt>
      <trkpt lat="42.311167" lon="2.176375">
        <ele>970</ele>
        <time>1970-01-01T04:46:54.000Z</time>
      </trkpt>
      <trkpt lat="42.311131" lon="2.176373">
        <ele>970</ele>
        <time>1970-01-01T04:46:55.000Z</time>
      </trkpt>
      <trkpt lat="42.311114" lon="2.176375">
        <ele>970</ele>
        <time>1970-01-01T04:46:56.000Z</time>
      </trkpt>
      <trkpt lat="42.311096" lon="2.176376">
        <ele>970</ele>
        <time>1970-01-01T04:46:57.000Z</time>
      </trkpt>
      <trkpt lat="42.311079" lon="2.176378">
        <ele>970</ele>
        <time>1970-01-01T04:46:58.000Z</time>
      </trkpt>
      <trkpt lat="42.311062" lon="2.17638">
        <ele>970</ele>
        <time>1970-01-01T04:46:59.000Z</time>
      </trkpt>
      <trkpt lat="42.311045" lon="2.176382">
        <ele>970</ele>
        <time>1970-01-01T04:47:00.000Z</time>
      </trkpt>
      <trkpt lat="42.311027" lon="2.176383">
        <ele>970</ele>
        <time>1970-01-01T04:47:01.000Z</time>
      </trkpt>
      <trkpt lat="42.31101" lon="2.176385">
        <ele>970</ele>
        <time>1970-01-01T04:47:03.000Z</time>
      </trkpt>
      <trkpt lat="42.310993" lon="2.176387">
        <ele>972</ele>
        <time>1970-01-01T04:47:04.000Z</time>
      </trkpt>
      <trkpt lat="42.310982" lon="2.176401">
        <ele>972</ele>
        <time>1970-01-01T04:47:05.000Z</time>
      </trkpt>
      <trkpt lat="42.310975" lon="2.176444">
        <ele>972</ele>
        <time>1970-01-01T04:47:07.000Z</time>
      </trkpt>
      <trkpt lat="42.310989" lon="2.176481">
        <ele>972</ele>
        <time>1970-01-01T04:47:09.000Z</time>
      </trkpt>
      <trkpt lat="42.311004" lon="2.176501">
        <ele>972</ele>
        <time>1970-01-01T04:47:11.000Z</time>
      </trkpt>
      <trkpt lat="42.311004" lon="2.176501">
        <ele>974</ele>
        <time>1970-01-01T04:47:14.000Z</time>
      </trkpt>
      <trkpt lat="42.311003" lon="2.176486">
        <ele>974</ele>
        <time>1970-01-01T04:47:15.000Z</time>
      </trkpt>
      <trkpt lat="42.311002" lon="2.176471">
        <ele>974</ele>
        <time>1970-01-01T04:47:16.000Z</time>
      </trkpt>
      <trkpt lat="42.311001" lon="2.176457">
        <ele>975</ele>
        <time>1970-01-01T04:47:26.000Z</time>
      </trkpt>
      <trkpt lat="42.311" lon="2.176442">
        <ele>975</ele>
        <time>1970-01-01T04:47:27.000Z</time>
      </trkpt>
      <trkpt lat="42.310999" lon="2.176427">
        <ele>975</ele>
        <time>1970-01-01T04:47:31.000Z</time>
      </trkpt>
      <trkpt lat="42.310999" lon="2.176412">
        <ele>975</ele>
        <time>1970-01-01T04:47:35.000Z</time>
      </trkpt>
      <trkpt lat="42.310998" lon="2.176397">
        <ele>975</ele>
        <time>1970-01-01T04:47:36.000Z</time>
      </trkpt>
      <trkpt lat="42.310997" lon="2.176382">
        <ele>975</ele>
        <time>1970-01-01T04:47:54.000Z</time>
      </trkpt>
      <trkpt lat="42.310996" lon="2.176368">
        <ele>975</ele>
        <time>1970-01-01T04:47:55.000Z</time>
      </trkpt>
      <trkpt lat="42.310995" lon="2.176353">
        <ele>975</ele>
        <time>1970-01-01T04:48:00.000Z</time>
      </trkpt>
      <trkpt lat="42.310994" lon="2.176338">
        <ele>975</ele>
        <time>1970-01-01T04:48:01.000Z</time>
      </trkpt>
      <trkpt lat="42.310994" lon="2.176337">
        <ele>975</ele>
        <time>1970-01-01T04:48:02.000Z</time>
      </trkpt>
      <trkpt lat="42.310994" lon="2.176337">
        <ele>975</ele>
        <time>1970-01-01T04:48:04.000Z</time>
      </trkpt>
      <trkpt lat="42.310959" lon="2.176279">
        <ele>975</ele>
        <time>1970-01-01T04:48:05.000Z</time>
      </trkpt>
      <trkpt lat="42.310959" lon="2.176279">
        <ele>975</ele>
        <time>1970-01-01T04:48:07.000Z</time>
      </trkpt>
      <trkpt lat="42.310958" lon="2.176277">
        <ele>975</ele>
        <time>1970-01-01T04:48:08.000Z</time>
      </trkpt>
    </trkseg>
  </trk>
</gpx>
